<?xml version="1.0" encoding="UTF-8"?>
<gpx creator="Garmin Connect" version="1.1"
  xsi:schemaLocation="http://www.topografix.com/GPX/1/1 http://www.topografix.com/GPX/11.xsd"
  xmlns:ns3="http://www.garmin.com/xmlschemas/TrackPointExtension/v1"
  xmlns="http://www.topografix.com/GPX/1/1"
  xmlns:xsi="http://www.w3.org/2001/XMLSchema-instance" xmlns:ns2="http://www.garmin.com/xmlschemas/GpxExtensions/v3">
  <metadata>
    <link href="connect.garmin.com">
      <text>Garmin Connect</text>
    </link>
    <time>2023-07-29T12:59:03.000Z</time>
  </metadata>
  <trk>
    <name>San Juan County Hiking</name>
    <type>hiking</type>
    <trkseg>
      <trkpt lat="37.74250005371868610382080078125" lon="-107.7119256556034088134765625">
        <ele>3324.199951171875</ele>
        <time>2023-07-29T12:59:22.000Z</time>
        <extensions>
          <ns3:TrackPointExtension>
            <ns3:hr>65</ns3:hr>
            <ns3:cad>55</ns3:cad>
          </ns3:TrackPointExtension>
        </extensions>
      </trkpt>
      <trkpt lat="37.74249971844255924224853515625" lon="-107.71192590706050395965576171875">
        <ele>3324.199951171875</ele>
        <time>2023-07-29T12:59:23.000Z</time>
        <extensions>
          <ns3:TrackPointExtension>
            <ns3:hr>65</ns3:hr>
            <ns3:cad>56</ns3:cad>
          </ns3:TrackPointExtension>
        </extensions>
      </trkpt>
      <trkpt lat="37.74248731322586536407470703125" lon="-107.71196831949055194854736328125">
        <ele>3324.199951171875</ele>
        <time>2023-07-29T12:59:24.000Z</time>
        <extensions>
          <ns3:TrackPointExtension>
            <ns3:hr>65</ns3:hr>
            <ns3:cad>57</ns3:cad>
          </ns3:TrackPointExtension>
        </extensions>
      </trkpt>
      <trkpt lat="37.7424904145300388336181640625" lon="-107.71196630783379077911376953125">
        <ele>3324</ele>
        <time>2023-07-29T12:59:25.000Z</time>
        <extensions>
          <ns3:TrackPointExtension>
            <ns3:hr>65</ns3:hr>
            <ns3:cad>57</ns3:cad>
          </ns3:TrackPointExtension>
        </extensions>
      </trkpt>
      <trkpt lat="37.742502987384796142578125" lon="-107.7120679803192615509033203125">
        <ele>3323.199951171875</ele>
        <time>2023-07-29T12:59:29.000Z</time>
        <extensions>
          <ns3:TrackPointExtension>
            <ns3:hr>69</ns3:hr>
            <ns3:cad>59</ns3:cad>
          </ns3:TrackPointExtension>
        </extensions>
      </trkpt>
      <trkpt lat="37.74250860325992107391357421875" lon="-107.712085247039794921875">
        <ele>3323</ele>
        <time>2023-07-29T12:59:30.000Z</time>
        <extensions>
          <ns3:TrackPointExtension>
            <ns3:hr>71</ns3:hr>
            <ns3:cad>59</ns3:cad>
          </ns3:TrackPointExtension>
        </extensions>
      </trkpt>
      <trkpt lat="37.742500640451908111572265625" lon="-107.71208734251558780670166015625">
        <ele>3323</ele>
        <time>2023-07-29T12:59:31.000Z</time>
        <extensions>
          <ns3:TrackPointExtension>
            <ns3:hr>77</ns3:hr>
            <ns3:cad>59</ns3:cad>
          </ns3:TrackPointExtension>
        </extensions>
      </trkpt>
      <trkpt lat="37.74253475479781627655029296875" lon="-107.7121471054852008819580078125">
        <ele>3322.800048828125</ele>
        <time>2023-07-29T12:59:35.000Z</time>
        <extensions>
          <ns3:TrackPointExtension>
            <ns3:hr>81</ns3:hr>
            <ns3:cad>57</ns3:cad>
          </ns3:TrackPointExtension>
        </extensions>
      </trkpt>
      <trkpt lat="37.7425380237400531768798828125" lon="-107.71215087734162807464599609375">
        <ele>3322.800048828125</ele>
        <time>2023-07-29T12:59:36.000Z</time>
        <extensions>
          <ns3:TrackPointExtension>
            <ns3:hr>81</ns3:hr>
            <ns3:cad>57</ns3:cad>
          </ns3:TrackPointExtension>
        </extensions>
      </trkpt>
      <trkpt lat="37.74254682473838329315185546875" lon="-107.7121719159185886383056640625">
        <ele>3322.800048828125</ele>
        <time>2023-07-29T12:59:37.000Z</time>
        <extensions>
          <ns3:TrackPointExtension>
            <ns3:hr>81</ns3:hr>
            <ns3:cad>57</ns3:cad>
          </ns3:TrackPointExtension>
        </extensions>
      </trkpt>
      <trkpt lat="37.742554284632205963134765625" lon="-107.71219211630523204803466796875">
        <ele>3322.800048828125</ele>
        <time>2023-07-29T12:59:38.000Z</time>
        <extensions>
          <ns3:TrackPointExtension>
            <ns3:hr>81</ns3:hr>
            <ns3:cad>57</ns3:cad>
          </ns3:TrackPointExtension>
        </extensions>
      </trkpt>
      <trkpt lat="37.7425614930689334869384765625" lon="-107.7122141607105731964111328125">
        <ele>3323</ele>
        <time>2023-07-29T12:59:39.000Z</time>
        <extensions>
          <ns3:TrackPointExtension>
            <ns3:hr>81</ns3:hr>
            <ns3:cad>57</ns3:cad>
          </ns3:TrackPointExtension>
        </extensions>
      </trkpt>
      <trkpt lat="37.74256937205791473388671875" lon="-107.71223586983978748321533203125">
        <ele>3323.39990234375</ele>
        <time>2023-07-29T12:59:40.000Z</time>
        <extensions>
          <ns3:TrackPointExtension>
            <ns3:hr>81</ns3:hr>
            <ns3:cad>57</ns3:cad>
          </ns3:TrackPointExtension>
        </extensions>
      </trkpt>
      <trkpt lat="37.742569707334041595458984375" lon="-107.71225732751190662384033203125">
        <ele>3323.60009765625</ele>
        <time>2023-07-29T12:59:41.000Z</time>
        <extensions>
          <ns3:TrackPointExtension>
            <ns3:hr>81</ns3:hr>
            <ns3:cad>57</ns3:cad>
          </ns3:TrackPointExtension>
        </extensions>
      </trkpt>
      <trkpt lat="37.7425668574869632720947265625" lon="-107.7122751809656620025634765625">
        <ele>3323.60009765625</ele>
        <time>2023-07-29T12:59:42.000Z</time>
        <extensions>
          <ns3:TrackPointExtension>
            <ns3:hr>82</ns3:hr>
            <ns3:cad>57</ns3:cad>
          </ns3:TrackPointExtension>
        </extensions>
      </trkpt>
      <trkpt lat="37.7425635047256946563720703125" lon="-107.71228750236332416534423828125">
        <ele>3323.60009765625</ele>
        <time>2023-07-29T12:59:43.000Z</time>
        <extensions>
          <ns3:TrackPointExtension>
            <ns3:hr>82</ns3:hr>
            <ns3:cad>57</ns3:cad>
          </ns3:TrackPointExtension>
        </extensions>
      </trkpt>
      <trkpt lat="37.74255864322185516357421875" lon="-107.7122963033616542816162109375">
        <ele>3323.60009765625</ele>
        <time>2023-07-29T12:59:44.000Z</time>
        <extensions>
          <ns3:TrackPointExtension>
            <ns3:hr>82</ns3:hr>
            <ns3:cad>55</ns3:cad>
          </ns3:TrackPointExtension>
        </extensions>
      </trkpt>
      <trkpt lat="37.74255135096609592437744140625" lon="-107.71230694837868213653564453125">
        <ele>3323.800048828125</ele>
        <time>2023-07-29T12:59:45.000Z</time>
        <extensions>
          <ns3:TrackPointExtension>
            <ns3:hr>82</ns3:hr>
            <ns3:cad>55</ns3:cad>
          </ns3:TrackPointExtension>
        </extensions>
      </trkpt>
      <trkpt lat="37.74254447780549526214599609375" lon="-107.71231533028185367584228515625">
        <ele>3324</ele>
        <time>2023-07-29T12:59:46.000Z</time>
        <extensions>
          <ns3:TrackPointExtension>
            <ns3:hr>81</ns3:hr>
            <ns3:cad>55</ns3:cad>
          </ns3:TrackPointExtension>
        </extensions>
      </trkpt>
      <trkpt lat="37.74253207258880138397216796875" lon="-107.712323963642120361328125">
        <ele>3324.199951171875</ele>
        <time>2023-07-29T12:59:47.000Z</time>
        <extensions>
          <ns3:TrackPointExtension>
            <ns3:hr>81</ns3:hr>
            <ns3:cad>55</ns3:cad>
          </ns3:TrackPointExtension>
        </extensions>
      </trkpt>
      <trkpt lat="37.74252402596175670623779296875" lon="-107.71233729086816310882568359375">
        <ele>3324.199951171875</ele>
        <time>2023-07-29T12:59:48.000Z</time>
        <extensions>
          <ns3:TrackPointExtension>
            <ns3:hr>81</ns3:hr>
            <ns3:cad>55</ns3:cad>
          </ns3:TrackPointExtension>
        </extensions>
      </trkpt>
      <trkpt lat="37.74251841008663177490234375" lon="-107.7123469300568103790283203125">
        <ele>3324.39990234375</ele>
        <time>2023-07-29T12:59:49.000Z</time>
        <extensions>
          <ns3:TrackPointExtension>
            <ns3:hr>81</ns3:hr>
            <ns3:cad>55</ns3:cad>
          </ns3:TrackPointExtension>
        </extensions>
      </trkpt>
      <trkpt lat="37.74250910617411136627197265625" lon="-107.712357155978679656982421875">
        <ele>3324.60009765625</ele>
        <time>2023-07-29T12:59:50.000Z</time>
        <extensions>
          <ns3:TrackPointExtension>
            <ns3:hr>81</ns3:hr>
            <ns3:cad>55</ns3:cad>
          </ns3:TrackPointExtension>
        </extensions>
      </trkpt>
      <trkpt lat="37.74249988608062267303466796875" lon="-107.71236964501440525054931640625">
        <ele>3324.800048828125</ele>
        <time>2023-07-29T12:59:51.000Z</time>
        <extensions>
          <ns3:TrackPointExtension>
            <ns3:hr>81</ns3:hr>
            <ns3:cad>54</ns3:cad>
          </ns3:TrackPointExtension>
        </extensions>
      </trkpt>
      <trkpt lat="37.74248848669230937957763671875" lon="-107.71238506771624088287353515625">
        <ele>3324.800048828125</ele>
        <time>2023-07-29T12:59:52.000Z</time>
        <extensions>
          <ns3:TrackPointExtension>
            <ns3:hr>81</ns3:hr>
            <ns3:cad>54</ns3:cad>
          </ns3:TrackPointExtension>
        </extensions>
      </trkpt>
      <trkpt lat="37.7424786798655986785888671875" lon="-107.7123978920280933380126953125">
        <ele>3324.800048828125</ele>
        <time>2023-07-29T12:59:53.000Z</time>
        <extensions>
          <ns3:TrackPointExtension>
            <ns3:hr>81</ns3:hr>
            <ns3:cad>54</ns3:cad>
          </ns3:TrackPointExtension>
        </extensions>
      </trkpt>
      <trkpt lat="37.74247088469564914703369140625" lon="-107.71240769885480403900146484375">
        <ele>3324.800048828125</ele>
        <time>2023-07-29T12:59:54.000Z</time>
        <extensions>
          <ns3:TrackPointExtension>
            <ns3:hr>82</ns3:hr>
            <ns3:cad>55</ns3:cad>
          </ns3:TrackPointExtension>
        </extensions>
      </trkpt>
      <trkpt lat="37.74245982058346271514892578125" lon="-107.7124250493943691253662109375">
        <ele>3324.800048828125</ele>
        <time>2023-07-29T12:59:55.000Z</time>
        <extensions>
          <ns3:TrackPointExtension>
            <ns3:hr>83</ns3:hr>
            <ns3:cad>56</ns3:cad>
          </ns3:TrackPointExtension>
        </extensions>
      </trkpt>
      <trkpt lat="37.74245261214673519134521484375" lon="-107.712440304458141326904296875">
        <ele>3324.800048828125</ele>
        <time>2023-07-29T12:59:56.000Z</time>
        <extensions>
          <ns3:TrackPointExtension>
            <ns3:hr>84</ns3:hr>
            <ns3:cad>56</ns3:cad>
          </ns3:TrackPointExtension>
        </extensions>
      </trkpt>
      <trkpt lat="37.7424441464245319366455078125" lon="-107.712453044950962066650390625">
        <ele>3324.60009765625</ele>
        <time>2023-07-29T12:59:57.000Z</time>
        <extensions>
          <ns3:TrackPointExtension>
            <ns3:hr>84</ns3:hr>
            <ns3:cad>56</ns3:cad>
          </ns3:TrackPointExtension>
        </extensions>
      </trkpt>
      <trkpt lat="37.742434926331043243408203125" lon="-107.71246922202408313751220703125">
        <ele>3324.60009765625</ele>
        <time>2023-07-29T12:59:58.000Z</time>
        <extensions>
          <ns3:TrackPointExtension>
            <ns3:hr>85</ns3:hr>
            <ns3:cad>57</ns3:cad>
          </ns3:TrackPointExtension>
        </extensions>
      </trkpt>
      <trkpt lat="37.74242746643722057342529296875" lon="-107.71248615346848964691162109375">
        <ele>3324.60009765625</ele>
        <time>2023-07-29T12:59:59.000Z</time>
        <extensions>
          <ns3:TrackPointExtension>
            <ns3:hr>86</ns3:hr>
            <ns3:cad>57</ns3:cad>
          </ns3:TrackPointExtension>
        </extensions>
      </trkpt>
      <trkpt lat="37.7424159832298755645751953125" lon="-107.71250165998935699462890625">
        <ele>3324.39990234375</ele>
        <time>2023-07-29T13:00:00.000Z</time>
        <extensions>
          <ns3:TrackPointExtension>
            <ns3:hr>86</ns3:hr>
            <ns3:cad>57</ns3:cad>
          </ns3:TrackPointExtension>
        </extensions>
      </trkpt>
      <trkpt lat="37.74240885861217975616455078125" lon="-107.7125098742544651031494140625">
        <ele>3324.39990234375</ele>
        <time>2023-07-29T13:00:01.000Z</time>
        <extensions>
          <ns3:TrackPointExtension>
            <ns3:hr>87</ns3:hr>
            <ns3:cad>57</ns3:cad>
          </ns3:TrackPointExtension>
        </extensions>
      </trkpt>
      <trkpt lat="37.74240131489932537078857421875" lon="-107.712529487907886505126953125">
        <ele>3324.39990234375</ele>
        <time>2023-07-29T13:00:02.000Z</time>
        <extensions>
          <ns3:TrackPointExtension>
            <ns3:hr>87</ns3:hr>
            <ns3:cad>57</ns3:cad>
          </ns3:TrackPointExtension>
        </extensions>
      </trkpt>
      <trkpt lat="37.74239829741418361663818359375" lon="-107.712543569505214691162109375">
        <ele>3324.199951171875</ele>
        <time>2023-07-29T13:00:03.000Z</time>
        <extensions>
          <ns3:TrackPointExtension>
            <ns3:hr>87</ns3:hr>
            <ns3:cad>57</ns3:cad>
          </ns3:TrackPointExtension>
        </extensions>
      </trkpt>
      <trkpt lat="37.74239410646259784698486328125" lon="-107.7125594951212406158447265625">
        <ele>3324</ele>
        <time>2023-07-29T13:00:04.000Z</time>
        <extensions>
          <ns3:TrackPointExtension>
            <ns3:hr>88</ns3:hr>
            <ns3:cad>59</ns3:cad>
          </ns3:TrackPointExtension>
        </extensions>
      </trkpt>
      <trkpt lat="37.7423905022442340850830078125" lon="-107.712576091289520263671875">
        <ele>3324</ele>
        <time>2023-07-29T13:00:05.000Z</time>
        <extensions>
          <ns3:TrackPointExtension>
            <ns3:hr>87</ns3:hr>
            <ns3:cad>59</ns3:cad>
          </ns3:TrackPointExtension>
        </extensions>
      </trkpt>
      <trkpt lat="37.742394022643566131591796875" lon="-107.7125893346965312957763671875">
        <ele>3323.800048828125</ele>
        <time>2023-07-29T13:00:06.000Z</time>
        <extensions>
          <ns3:TrackPointExtension>
            <ns3:hr>87</ns3:hr>
            <ns3:cad>59</ns3:cad>
          </ns3:TrackPointExtension>
        </extensions>
      </trkpt>
      <trkpt lat="37.74240047670900821685791015625" lon="-107.7125988900661468505859375">
        <ele>3323.60009765625</ele>
        <time>2023-07-29T13:00:07.000Z</time>
        <extensions>
          <ns3:TrackPointExtension>
            <ns3:hr>86</ns3:hr>
            <ns3:cad>59</ns3:cad>
          </ns3:TrackPointExtension>
        </extensions>
      </trkpt>
      <trkpt lat="37.74240986444056034088134765625" lon="-107.7126010693609714508056640625">
        <ele>3323.60009765625</ele>
        <time>2023-07-29T13:00:08.000Z</time>
        <extensions>
          <ns3:TrackPointExtension>
            <ns3:hr>85</ns3:hr>
            <ns3:cad>61</ns3:cad>
          </ns3:TrackPointExtension>
        </extensions>
      </trkpt>
      <trkpt lat="37.74242294020950794219970703125" lon="-107.71259956061840057373046875">
        <ele>3323.39990234375</ele>
        <time>2023-07-29T13:00:09.000Z</time>
        <extensions>
          <ns3:TrackPointExtension>
            <ns3:hr>84</ns3:hr>
            <ns3:cad>61</ns3:cad>
          </ns3:TrackPointExtension>
        </extensions>
      </trkpt>
      <trkpt lat="37.7424399554729461669921875" lon="-107.7126020751893520355224609375">
        <ele>3323.199951171875</ele>
        <time>2023-07-29T13:00:10.000Z</time>
        <extensions>
          <ns3:TrackPointExtension>
            <ns3:hr>84</ns3:hr>
            <ns3:cad>59</ns3:cad>
          </ns3:TrackPointExtension>
        </extensions>
      </trkpt>
      <trkpt lat="37.74245361797511577606201171875" lon="-107.71260115318000316619873046875">
        <ele>3323.199951171875</ele>
        <time>2023-07-29T13:00:11.000Z</time>
        <extensions>
          <ns3:TrackPointExtension>
            <ns3:hr>84</ns3:hr>
            <ns3:cad>57</ns3:cad>
          </ns3:TrackPointExtension>
        </extensions>
      </trkpt>
      <trkpt lat="37.7424622513353824615478515625" lon="-107.71260031498968601226806640625">
        <ele>3323.199951171875</ele>
        <time>2023-07-29T13:00:12.000Z</time>
        <extensions>
          <ns3:TrackPointExtension>
            <ns3:hr>84</ns3:hr>
            <ns3:cad>57</ns3:cad>
          </ns3:TrackPointExtension>
        </extensions>
      </trkpt>
      <trkpt lat="37.7424702979624271392822265625" lon="-107.7126010693609714508056640625">
        <ele>3323.199951171875</ele>
        <time>2023-07-29T13:00:13.000Z</time>
        <extensions>
          <ns3:TrackPointExtension>
            <ns3:hr>84</ns3:hr>
            <ns3:cad>57</ns3:cad>
          </ns3:TrackPointExtension>
        </extensions>
      </trkpt>
      <trkpt lat="37.74247524328529834747314453125" lon="-107.712600231170654296875">
        <ele>3323.199951171875</ele>
        <time>2023-07-29T13:00:14.000Z</time>
        <extensions>
          <ns3:TrackPointExtension>
            <ns3:hr>84</ns3:hr>
            <ns3:cad>56</ns3:cad>
          </ns3:TrackPointExtension>
        </extensions>
      </trkpt>
      <trkpt lat="37.7424837090075016021728515625" lon="-107.7126007340848445892333984375">
        <ele>3323.199951171875</ele>
        <time>2023-07-29T13:00:15.000Z</time>
        <extensions>
          <ns3:TrackPointExtension>
            <ns3:hr>84</ns3:hr>
            <ns3:cad>56</ns3:cad>
          </ns3:TrackPointExtension>
        </extensions>
      </trkpt>
      <trkpt lat="37.74249452166259288787841796875" lon="-107.71260098554193973541259765625">
        <ele>3323.199951171875</ele>
        <time>2023-07-29T13:00:16.000Z</time>
        <extensions>
          <ns3:TrackPointExtension>
            <ns3:hr>84</ns3:hr>
            <ns3:cad>56</ns3:cad>
          </ns3:TrackPointExtension>
        </extensions>
      </trkpt>
      <trkpt lat="37.74250189773738384246826171875" lon="-107.7126003988087177276611328125">
        <ele>3323.199951171875</ele>
        <time>2023-07-29T13:00:17.000Z</time>
        <extensions>
          <ns3:TrackPointExtension>
            <ns3:hr>84</ns3:hr>
            <ns3:cad>56</ns3:cad>
          </ns3:TrackPointExtension>
        </extensions>
      </trkpt>
      <trkpt lat="37.74251346476376056671142578125" lon="-107.71260249428451061248779296875">
        <ele>3323.39990234375</ele>
        <time>2023-07-29T13:00:18.000Z</time>
        <extensions>
          <ns3:TrackPointExtension>
            <ns3:hr>84</ns3:hr>
            <ns3:cad>57</ns3:cad>
          </ns3:TrackPointExtension>
        </extensions>
      </trkpt>
      <trkpt lat="37.7425177395343780517578125" lon="-107.71260014735162258148193359375">
        <ele>3323.39990234375</ele>
        <time>2023-07-29T13:00:19.000Z</time>
        <extensions>
          <ns3:TrackPointExtension>
            <ns3:hr>84</ns3:hr>
            <ns3:cad>57</ns3:cad>
          </ns3:TrackPointExtension>
        </extensions>
      </trkpt>
      <trkpt lat="37.74252436123788356781005859375" lon="-107.71260165609419345855712890625">
        <ele>3323.60009765625</ele>
        <time>2023-07-29T13:00:20.000Z</time>
        <extensions>
          <ns3:TrackPointExtension>
            <ns3:hr>84</ns3:hr>
            <ns3:cad>57</ns3:cad>
          </ns3:TrackPointExtension>
        </extensions>
      </trkpt>
      <trkpt lat="37.742532826960086822509765625" lon="-107.71259662695229053497314453125">
        <ele>3323.60009765625</ele>
        <time>2023-07-29T13:00:21.000Z</time>
        <extensions>
          <ns3:TrackPointExtension>
            <ns3:hr>83</ns3:hr>
            <ns3:cad>56</ns3:cad>
          </ns3:TrackPointExtension>
        </extensions>
      </trkpt>
      <trkpt lat="37.74254196323454380035400390625" lon="-107.71259176544845104217529296875">
        <ele>3323.60009765625</ele>
        <time>2023-07-29T13:00:22.000Z</time>
        <extensions>
          <ns3:TrackPointExtension>
            <ns3:hr>83</ns3:hr>
            <ns3:cad>56</ns3:cad>
          </ns3:TrackPointExtension>
        </extensions>
      </trkpt>
      <trkpt lat="37.7425490878522396087646484375" lon="-107.7125889994204044342041015625">
        <ele>3323.60009765625</ele>
        <time>2023-07-29T13:00:23.000Z</time>
        <extensions>
          <ns3:TrackPointExtension>
            <ns3:hr>82</ns3:hr>
            <ns3:cad>56</ns3:cad>
          </ns3:TrackPointExtension>
        </extensions>
      </trkpt>
      <trkpt lat="37.7425675280392169952392578125" lon="-107.71258958615362644195556640625">
        <ele>3323.800048828125</ele>
        <time>2023-07-29T13:00:24.000Z</time>
        <extensions>
          <ns3:TrackPointExtension>
            <ns3:hr>82</ns3:hr>
            <ns3:cad>56</ns3:cad>
          </ns3:TrackPointExtension>
        </extensions>
      </trkpt>
      <trkpt lat="37.74258705787360668182373046875" lon="-107.712595872581005096435546875">
        <ele>3324</ele>
        <time>2023-07-29T13:00:25.000Z</time>
        <extensions>
          <ns3:TrackPointExtension>
            <ns3:hr>82</ns3:hr>
            <ns3:cad>55</ns3:cad>
          </ns3:TrackPointExtension>
        </extensions>
      </trkpt>
      <trkpt lat="37.74259485304355621337890625" lon="-107.712593860924243927001953125">
        <ele>3324.199951171875</ele>
        <time>2023-07-29T13:00:26.000Z</time>
        <extensions>
          <ns3:TrackPointExtension>
            <ns3:hr>83</ns3:hr>
            <ns3:cad>56</ns3:cad>
          </ns3:TrackPointExtension>
        </extensions>
      </trkpt>
      <trkpt lat="37.742607593536376953125" lon="-107.7125920169055461883544921875">
        <ele>3324.39990234375</ele>
        <time>2023-07-29T13:00:27.000Z</time>
        <extensions>
          <ns3:TrackPointExtension>
            <ns3:hr>83</ns3:hr>
            <ns3:cad>56</ns3:cad>
          </ns3:TrackPointExtension>
        </extensions>
      </trkpt>
      <trkpt lat="37.74261857382953166961669921875" lon="-107.71258891560137271881103515625">
        <ele>3324.60009765625</ele>
        <time>2023-07-29T13:00:28.000Z</time>
        <extensions>
          <ns3:TrackPointExtension>
            <ns3:hr>84</ns3:hr>
            <ns3:cad>56</ns3:cad>
          </ns3:TrackPointExtension>
        </extensions>
      </trkpt>
      <trkpt lat="37.7426295541226863861083984375" lon="-107.712585143744945526123046875">
        <ele>3324.60009765625</ele>
        <time>2023-07-29T13:00:29.000Z</time>
        <extensions>
          <ns3:TrackPointExtension>
            <ns3:hr>85</ns3:hr>
            <ns3:cad>56</ns3:cad>
          </ns3:TrackPointExtension>
        </extensions>
      </trkpt>
      <trkpt lat="37.74264581501483917236328125" lon="-107.712585143744945526123046875">
        <ele>3324.60009765625</ele>
        <time>2023-07-29T13:00:30.000Z</time>
        <extensions>
          <ns3:TrackPointExtension>
            <ns3:hr>85</ns3:hr>
            <ns3:cad>56</ns3:cad>
          </ns3:TrackPointExtension>
        </extensions>
      </trkpt>
      <trkpt lat="37.7426587231457233428955078125" lon="-107.71258338354527950286865234375">
        <ele>3324.800048828125</ele>
        <time>2023-07-29T13:00:31.000Z</time>
        <extensions>
          <ns3:TrackPointExtension>
            <ns3:hr>85</ns3:hr>
            <ns3:cad>56</ns3:cad>
          </ns3:TrackPointExtension>
        </extensions>
      </trkpt>
      <trkpt lat="37.74266752414405345916748046875" lon="-107.71258355118334293365478515625">
        <ele>3325</ele>
        <time>2023-07-29T13:00:32.000Z</time>
        <extensions>
          <ns3:TrackPointExtension>
            <ns3:hr>85</ns3:hr>
            <ns3:cad>56</ns3:cad>
          </ns3:TrackPointExtension>
        </extensions>
      </trkpt>
      <trkpt lat="37.7426798455417156219482421875" lon="-107.7125832997262477874755859375">
        <ele>3325.199951171875</ele>
        <time>2023-07-29T13:00:33.000Z</time>
        <extensions>
          <ns3:TrackPointExtension>
            <ns3:hr>85</ns3:hr>
            <ns3:cad>56</ns3:cad>
          </ns3:TrackPointExtension>
        </extensions>
      </trkpt>
      <trkpt lat="37.7426909096539020538330078125" lon="-107.71258472464978694915771484375">
        <ele>3325.39990234375</ele>
        <time>2023-07-29T13:00:34.000Z</time>
        <extensions>
          <ns3:TrackPointExtension>
            <ns3:hr>86</ns3:hr>
            <ns3:cad>56</ns3:cad>
          </ns3:TrackPointExtension>
        </extensions>
      </trkpt>
      <trkpt lat="37.74270222522318363189697265625" lon="-107.7125863172113895416259765625">
        <ele>3325.39990234375</ele>
        <time>2023-07-29T13:00:35.000Z</time>
        <extensions>
          <ns3:TrackPointExtension>
            <ns3:hr>86</ns3:hr>
            <ns3:cad>55</ns3:cad>
          </ns3:TrackPointExtension>
        </extensions>
      </trkpt>
      <trkpt lat="37.74272016249597072601318359375" lon="-107.71258858032524585723876953125">
        <ele>3325.60009765625</ele>
        <time>2023-07-29T13:00:36.000Z</time>
        <extensions>
          <ns3:TrackPointExtension>
            <ns3:hr>87</ns3:hr>
            <ns3:cad>55</ns3:cad>
          </ns3:TrackPointExtension>
        </extensions>
      </trkpt>
      <trkpt lat="37.7427264489233493804931640625" lon="-107.71258489228785037994384765625">
        <ele>3325.800048828125</ele>
        <time>2023-07-29T13:00:37.000Z</time>
        <extensions>
          <ns3:TrackPointExtension>
            <ns3:hr>87</ns3:hr>
            <ns3:cad>55</ns3:cad>
          </ns3:TrackPointExtension>
        </extensions>
      </trkpt>
      <trkpt lat="37.74273927323520183563232421875" lon="-107.71258505992591381072998046875">
        <ele>3325.800048828125</ele>
        <time>2023-07-29T13:00:38.000Z</time>
        <extensions>
          <ns3:TrackPointExtension>
            <ns3:hr>88</ns3:hr>
            <ns3:cad>55</ns3:cad>
          </ns3:TrackPointExtension>
        </extensions>
      </trkpt>
      <trkpt lat="37.7427495829761028289794921875" lon="-107.71258170716464519500732421875">
        <ele>3326</ele>
        <time>2023-07-29T13:00:39.000Z</time>
        <extensions>
          <ns3:TrackPointExtension>
            <ns3:hr>89</ns3:hr>
            <ns3:cad>55</ns3:cad>
          </ns3:TrackPointExtension>
        </extensions>
      </trkpt>
      <trkpt lat="37.74276056326925754547119140625" lon="-107.71257969550788402557373046875">
        <ele>3326.39990234375</ele>
        <time>2023-07-29T13:00:40.000Z</time>
        <extensions>
          <ns3:TrackPointExtension>
            <ns3:hr>90</ns3:hr>
            <ns3:cad>55</ns3:cad>
          </ns3:TrackPointExtension>
        </extensions>
      </trkpt>
      <trkpt lat="37.74277464486658573150634765625" lon="-107.7125755883753299713134765625">
        <ele>3326.60009765625</ele>
        <time>2023-07-29T13:00:41.000Z</time>
        <extensions>
          <ns3:TrackPointExtension>
            <ns3:hr>91</ns3:hr>
            <ns3:cad>55</ns3:cad>
          </ns3:TrackPointExtension>
        </extensions>
      </trkpt>
      <trkpt lat="37.74278369732201099395751953125" lon="-107.71256980486214160919189453125">
        <ele>3326.60009765625</ele>
        <time>2023-07-29T13:00:42.000Z</time>
        <extensions>
          <ns3:TrackPointExtension>
            <ns3:hr>92</ns3:hr>
            <ns3:cad>53</ns3:cad>
          </ns3:TrackPointExtension>
        </extensions>
      </trkpt>
      <trkpt lat="37.74279174394905567169189453125" lon="-107.71256108768284320831298828125">
        <ele>3326.800048828125</ele>
        <time>2023-07-29T13:00:43.000Z</time>
        <extensions>
          <ns3:TrackPointExtension>
            <ns3:hr>92</ns3:hr>
            <ns3:cad>53</ns3:cad>
          </ns3:TrackPointExtension>
        </extensions>
      </trkpt>
      <trkpt lat="37.7428028918802738189697265625" lon="-107.71255304105579853057861328125">
        <ele>3327</ele>
        <time>2023-07-29T13:00:44.000Z</time>
        <extensions>
          <ns3:TrackPointExtension>
            <ns3:hr>93</ns3:hr>
            <ns3:cad>53</ns3:cad>
          </ns3:TrackPointExtension>
        </extensions>
      </trkpt>
      <trkpt lat="37.74281211197376251220703125" lon="-107.71254315041005611419677734375">
        <ele>3327.199951171875</ele>
        <time>2023-07-29T13:00:45.000Z</time>
        <extensions>
          <ns3:TrackPointExtension>
            <ns3:hr>93</ns3:hr>
            <ns3:cad>53</ns3:cad>
          </ns3:TrackPointExtension>
        </extensions>
      </trkpt>
      <trkpt lat="37.7428226731717586517333984375" lon="-107.712531499564647674560546875">
        <ele>3327.39990234375</ele>
        <time>2023-07-29T13:00:46.000Z</time>
        <extensions>
          <ns3:TrackPointExtension>
            <ns3:hr>94</ns3:hr>
            <ns3:cad>53</ns3:cad>
          </ns3:TrackPointExtension>
        </extensions>
      </trkpt>
      <trkpt lat="37.74283197708427906036376953125" lon="-107.71252269856631755828857421875">
        <ele>3327.60009765625</ele>
        <time>2023-07-29T13:00:47.000Z</time>
        <extensions>
          <ns3:TrackPointExtension>
            <ns3:hr>94</ns3:hr>
            <ns3:cad>53</ns3:cad>
          </ns3:TrackPointExtension>
        </extensions>
      </trkpt>
      <trkpt lat="37.7428404428064823150634765625" lon="-107.7125135622918605804443359375">
        <ele>3327.800048828125</ele>
        <time>2023-07-29T13:00:48.000Z</time>
        <extensions>
          <ns3:TrackPointExtension>
            <ns3:hr>95</ns3:hr>
            <ns3:cad>53</ns3:cad>
          </ns3:TrackPointExtension>
        </extensions>
      </trkpt>
      <trkpt lat="37.74285511113703250885009765625" lon="-107.7125051803886890411376953125">
        <ele>3328</ele>
        <time>2023-07-29T13:00:49.000Z</time>
        <extensions>
          <ns3:TrackPointExtension>
            <ns3:hr>95</ns3:hr>
            <ns3:cad>55</ns3:cad>
          </ns3:TrackPointExtension>
        </extensions>
      </trkpt>
      <trkpt lat="37.74287321604788303375244140625" lon="-107.7124937810003757476806640625">
        <ele>3328</ele>
        <time>2023-07-29T13:00:50.000Z</time>
        <extensions>
          <ns3:TrackPointExtension>
            <ns3:hr>95</ns3:hr>
            <ns3:cad>55</ns3:cad>
          </ns3:TrackPointExtension>
        </extensions>
      </trkpt>
      <trkpt lat="37.74289190769195556640625" lon="-107.71248959004878997802734375">
        <ele>3328.39990234375</ele>
        <time>2023-07-29T13:00:51.000Z</time>
        <extensions>
          <ns3:TrackPointExtension>
            <ns3:hr>95</ns3:hr>
            <ns3:cad>55</ns3:cad>
          </ns3:TrackPointExtension>
        </extensions>
      </trkpt>
      <trkpt lat="37.7429039776325225830078125" lon="-107.7124800346791744232177734375">
        <ele>3328.39990234375</ele>
        <time>2023-07-29T13:00:52.000Z</time>
        <extensions>
          <ns3:TrackPointExtension>
            <ns3:hr>96</ns3:hr>
            <ns3:cad>55</ns3:cad>
          </ns3:TrackPointExtension>
        </extensions>
      </trkpt>
      <trkpt lat="37.74291671812534332275390625" lon="-107.71247525699436664581298828125">
        <ele>3328.60009765625</ele>
        <time>2023-07-29T13:00:53.000Z</time>
        <extensions>
          <ns3:TrackPointExtension>
            <ns3:hr>96</ns3:hr>
            <ns3:cad>55</ns3:cad>
          </ns3:TrackPointExtension>
        </extensions>
      </trkpt>
      <trkpt lat="37.742929793894290924072265625" lon="-107.7124649472534656524658203125">
        <ele>3328.800048828125</ele>
        <time>2023-07-29T13:00:54.000Z</time>
        <extensions>
          <ns3:TrackPointExtension>
            <ns3:hr>96</ns3:hr>
            <ns3:cad>56</ns3:cad>
          </ns3:TrackPointExtension>
        </extensions>
      </trkpt>
      <trkpt lat="37.7429423667490482330322265625" lon="-107.71245874464511871337890625">
        <ele>3329</ele>
        <time>2023-07-29T13:00:55.000Z</time>
        <extensions>
          <ns3:TrackPointExtension>
            <ns3:hr>97</ns3:hr>
            <ns3:cad>56</ns3:cad>
          </ns3:TrackPointExtension>
        </extensions>
      </trkpt>
      <trkpt lat="37.74295384995639324188232421875" lon="-107.7124485187232494354248046875">
        <ele>3329.199951171875</ele>
        <time>2023-07-29T13:00:56.000Z</time>
        <extensions>
          <ns3:TrackPointExtension>
            <ns3:hr>97</ns3:hr>
            <ns3:cad>56</ns3:cad>
          </ns3:TrackPointExtension>
        </extensions>
      </trkpt>
      <trkpt lat="37.7429695241153240203857421875" lon="-107.7124334312975406646728515625">
        <ele>3329.39990234375</ele>
        <time>2023-07-29T13:00:57.000Z</time>
        <extensions>
          <ns3:TrackPointExtension>
            <ns3:hr>97</ns3:hr>
            <ns3:cad>56</ns3:cad>
          </ns3:TrackPointExtension>
        </extensions>
      </trkpt>
      <trkpt lat="37.74297564290463924407958984375" lon="-107.712427563965320587158203125">
        <ele>3329.60009765625</ele>
        <time>2023-07-29T13:00:58.000Z</time>
        <extensions>
          <ns3:TrackPointExtension>
            <ns3:hr>98</ns3:hr>
            <ns3:cad>56</ns3:cad>
          </ns3:TrackPointExtension>
        </extensions>
      </trkpt>
      <trkpt lat="37.742981426417827606201171875" lon="-107.71242010407149791717529296875">
        <ele>3329.60009765625</ele>
        <time>2023-07-29T13:00:59.000Z</time>
        <extensions>
          <ns3:TrackPointExtension>
            <ns3:hr>98</ns3:hr>
            <ns3:cad>56</ns3:cad>
          </ns3:TrackPointExtension>
        </extensions>
      </trkpt>
      <trkpt lat="37.7429879643023014068603515625" lon="-107.71240820176899433135986328125">
        <ele>3329.800048828125</ele>
        <time>2023-07-29T13:01:00.000Z</time>
        <extensions>
          <ns3:TrackPointExtension>
            <ns3:hr>99</ns3:hr>
            <ns3:cad>56</ns3:cad>
          </ns3:TrackPointExtension>
        </extensions>
      </trkpt>
      <trkpt lat="37.74299358017742633819580078125" lon="-107.7123992331326007843017578125">
        <ele>3330</ele>
        <time>2023-07-29T13:01:01.000Z</time>
        <extensions>
          <ns3:TrackPointExtension>
            <ns3:hr>99</ns3:hr>
            <ns3:cad>56</ns3:cad>
          </ns3:TrackPointExtension>
        </extensions>
      </trkpt>
      <trkpt lat="37.74299827404320240020751953125" lon="-107.71239244379103183746337890625">
        <ele>3330.199951171875</ele>
        <time>2023-07-29T13:01:02.000Z</time>
        <extensions>
          <ns3:TrackPointExtension>
            <ns3:hr>100</ns3:hr>
            <ns3:cad>55</ns3:cad>
          </ns3:TrackPointExtension>
        </extensions>
      </trkpt>
      <trkpt lat="37.74300313554704189300537109375" lon="-107.71238355897367000579833984375">
        <ele>3330.39990234375</ele>
        <time>2023-07-29T13:01:03.000Z</time>
        <extensions>
          <ns3:TrackPointExtension>
            <ns3:hr>100</ns3:hr>
            <ns3:cad>55</ns3:cad>
          </ns3:TrackPointExtension>
        </extensions>
      </trkpt>
      <trkpt lat="37.74300766177475452423095703125" lon="-107.7123740874230861663818359375">
        <ele>3330.60009765625</ele>
        <time>2023-07-29T13:01:04.000Z</time>
        <extensions>
          <ns3:TrackPointExtension>
            <ns3:hr>101</ns3:hr>
            <ns3:cad>56</ns3:cad>
          </ns3:TrackPointExtension>
        </extensions>
      </trkpt>
      <trkpt lat="37.74301285855472087860107421875" lon="-107.7123667113482952117919921875">
        <ele>3330.60009765625</ele>
        <time>2023-07-29T13:01:05.000Z</time>
        <extensions>
          <ns3:TrackPointExtension>
            <ns3:hr>101</ns3:hr>
            <ns3:cad>56</ns3:cad>
          </ns3:TrackPointExtension>
        </extensions>
      </trkpt>
      <trkpt lat="37.7430214919149875640869140625" lon="-107.712356485426425933837890625">
        <ele>3330.800048828125</ele>
        <time>2023-07-29T13:01:06.000Z</time>
        <extensions>
          <ns3:TrackPointExtension>
            <ns3:hr>102</ns3:hr>
            <ns3:cad>56</ns3:cad>
          </ns3:TrackPointExtension>
        </extensions>
      </trkpt>
      <trkpt lat="37.74303331039845943450927734375" lon="-107.71234340965747833251953125">
        <ele>3330.800048828125</ele>
        <time>2023-07-29T13:01:07.000Z</time>
        <extensions>
          <ns3:TrackPointExtension>
            <ns3:hr>102</ns3:hr>
            <ns3:cad>56</ns3:cad>
          </ns3:TrackPointExtension>
        </extensions>
      </trkpt>
      <trkpt lat="37.7430436201393604278564453125" lon="-107.7123372070491313934326171875">
        <ele>3331</ele>
        <time>2023-07-29T13:01:08.000Z</time>
        <extensions>
          <ns3:TrackPointExtension>
            <ns3:hr>102</ns3:hr>
            <ns3:cad>56</ns3:cad>
          </ns3:TrackPointExtension>
        </extensions>
      </trkpt>
      <trkpt lat="37.74306113831698894500732421875" lon="-107.7123333513736724853515625">
        <ele>3331.39990234375</ele>
        <time>2023-07-29T13:01:09.000Z</time>
        <extensions>
          <ns3:TrackPointExtension>
            <ns3:hr>102</ns3:hr>
            <ns3:cad>0</ns3:cad>
          </ns3:TrackPointExtension>
        </extensions>
      </trkpt>
      <trkpt lat="37.74307438172399997711181640625" lon="-107.71233460865914821624755859375">
        <ele>3331.60009765625</ele>
        <time>2023-07-29T13:01:10.000Z</time>
        <extensions>
          <ns3:TrackPointExtension>
            <ns3:hr>103</ns3:hr>
            <ns3:cad>0</ns3:cad>
          </ns3:TrackPointExtension>
        </extensions>
      </trkpt>
      <trkpt lat="37.74307723157107830047607421875" lon="-107.71234282292425632476806640625">
        <ele>3332</ele>
        <time>2023-07-29T13:01:11.000Z</time>
        <extensions>
          <ns3:TrackPointExtension>
            <ns3:hr>103</ns3:hr>
            <ns3:cad>0</ns3:cad>
          </ns3:TrackPointExtension>
        </extensions>
      </trkpt>
      <trkpt lat="37.7430764771997928619384765625" lon="-107.71235371939837932586669921875">
        <ele>3332.199951171875</ele>
        <time>2023-07-29T13:01:12.000Z</time>
        <extensions>
          <ns3:TrackPointExtension>
            <ns3:hr>102</ns3:hr>
            <ns3:cad>0</ns3:cad>
          </ns3:TrackPointExtension>
        </extensions>
      </trkpt>
      <trkpt lat="37.7430781535804271697998046875" lon="-107.71236528642475605010986328125">
        <ele>3332.39990234375</ele>
        <time>2023-07-29T13:01:13.000Z</time>
        <extensions>
          <ns3:TrackPointExtension>
            <ns3:hr>102</ns3:hr>
            <ns3:cad>0</ns3:cad>
          </ns3:TrackPointExtension>
        </extensions>
      </trkpt>
      <trkpt lat="37.74308091960847377777099609375" lon="-107.71237635053694248199462890625">
        <ele>3332.60009765625</ele>
        <time>2023-07-29T13:01:14.000Z</time>
        <extensions>
          <ns3:TrackPointExtension>
            <ns3:hr>102</ns3:hr>
            <ns3:cad>0</ns3:cad>
          </ns3:TrackPointExtension>
        </extensions>
      </trkpt>
      <trkpt lat="37.74308159016072750091552734375" lon="-107.71239562891423702239990234375">
        <ele>3332.60009765625</ele>
        <time>2023-07-29T13:01:15.000Z</time>
        <extensions>
          <ns3:TrackPointExtension>
            <ns3:hr>102</ns3:hr>
            <ns3:cad>0</ns3:cad>
          </ns3:TrackPointExtension>
        </extensions>
      </trkpt>
      <trkpt lat="37.74308167397975921630859375" lon="-107.71241289563477039337158203125">
        <ele>3333</ele>
        <time>2023-07-29T13:01:16.000Z</time>
        <extensions>
          <ns3:TrackPointExtension>
            <ns3:hr>102</ns3:hr>
            <ns3:cad>0</ns3:cad>
          </ns3:TrackPointExtension>
        </extensions>
      </trkpt>
      <trkpt lat="37.7430810034275054931640625" lon="-107.712438963353633880615234375">
        <ele>3333</ele>
        <time>2023-07-29T13:01:17.000Z</time>
        <extensions>
          <ns3:TrackPointExtension>
            <ns3:hr>102</ns3:hr>
            <ns3:cad>54</ns3:cad>
          </ns3:TrackPointExtension>
        </extensions>
      </trkpt>
      <trkpt lat="37.74307957850396633148193359375" lon="-107.712458409368991851806640625">
        <ele>3333.39990234375</ele>
        <time>2023-07-29T13:01:18.000Z</time>
        <extensions>
          <ns3:TrackPointExtension>
            <ns3:hr>102</ns3:hr>
            <ns3:cad>54</ns3:cad>
          </ns3:TrackPointExtension>
        </extensions>
      </trkpt>
      <trkpt lat="37.7430768124759197235107421875" lon="-107.7124753408133983612060546875">
        <ele>3333.39990234375</ele>
        <time>2023-07-29T13:01:19.000Z</time>
        <extensions>
          <ns3:TrackPointExtension>
            <ns3:hr>102</ns3:hr>
            <ns3:cad>54</ns3:cad>
          </ns3:TrackPointExtension>
        </extensions>
      </trkpt>
      <trkpt lat="37.7430724538862705230712890625" lon="-107.71248959004878997802734375">
        <ele>3333.39990234375</ele>
        <time>2023-07-29T13:01:20.000Z</time>
        <extensions>
          <ns3:TrackPointExtension>
            <ns3:hr>102</ns3:hr>
            <ns3:cad>54</ns3:cad>
          </ns3:TrackPointExtension>
        </extensions>
      </trkpt>
      <trkpt lat="37.74306516163051128387451171875" lon="-107.7124991454184055328369140625">
        <ele>3333.39990234375</ele>
        <time>2023-07-29T13:01:21.000Z</time>
        <extensions>
          <ns3:TrackPointExtension>
            <ns3:hr>101</ns3:hr>
            <ns3:cad>54</ns3:cad>
          </ns3:TrackPointExtension>
        </extensions>
      </trkpt>
      <trkpt lat="37.74305879138410091400146484375" lon="-107.71250434219837188720703125">
        <ele>3333.60009765625</ele>
        <time>2023-07-29T13:01:22.000Z</time>
        <extensions>
          <ns3:TrackPointExtension>
            <ns3:hr>101</ns3:hr>
            <ns3:cad>54</ns3:cad>
          </ns3:TrackPointExtension>
        </extensions>
      </trkpt>
      <trkpt lat="37.74305191822350025177001953125" lon="-107.71252118982374668121337890625">
        <ele>3333.800048828125</ele>
        <time>2023-07-29T13:01:23.000Z</time>
        <extensions>
          <ns3:TrackPointExtension>
            <ns3:hr>101</ns3:hr>
            <ns3:cad>54</ns3:cad>
          </ns3:TrackPointExtension>
        </extensions>
      </trkpt>
      <trkpt lat="37.74304546415805816650390625" lon="-107.71253208629786968231201171875">
        <ele>3334</ele>
        <time>2023-07-29T13:01:24.000Z</time>
        <extensions>
          <ns3:TrackPointExtension>
            <ns3:hr>102</ns3:hr>
            <ns3:cad>54</ns3:cad>
          </ns3:TrackPointExtension>
        </extensions>
      </trkpt>
      <trkpt lat="37.74304051883518695831298828125" lon="-107.71254449151456356048583984375">
        <ele>3334.199951171875</ele>
        <time>2023-07-29T13:01:25.000Z</time>
        <extensions>
          <ns3:TrackPointExtension>
            <ns3:hr>103</ns3:hr>
            <ns3:cad>54</ns3:cad>
          </ns3:TrackPointExtension>
        </extensions>
      </trkpt>
      <trkpt lat="37.7430365793406963348388671875" lon="-107.7125534601509571075439453125">
        <ele>3334.39990234375</ele>
        <time>2023-07-29T13:01:26.000Z</time>
        <extensions>
          <ns3:TrackPointExtension>
            <ns3:hr>103</ns3:hr>
            <ns3:cad>54</ns3:cad>
          </ns3:TrackPointExtension>
        </extensions>
      </trkpt>
      <trkpt lat="37.74303263984620571136474609375" lon="-107.71256393752992153167724609375">
        <ele>3334.60009765625</ele>
        <time>2023-07-29T13:01:27.000Z</time>
        <extensions>
          <ns3:TrackPointExtension>
            <ns3:hr>103</ns3:hr>
            <ns3:cad>55</ns3:cad>
          </ns3:TrackPointExtension>
        </extensions>
      </trkpt>
      <trkpt lat="37.7430273592472076416015625" lon="-107.71257248707115650177001953125">
        <ele>3334.60009765625</ele>
        <time>2023-07-29T13:01:28.000Z</time>
        <extensions>
          <ns3:TrackPointExtension>
            <ns3:hr>102</ns3:hr>
            <ns3:cad>55</ns3:cad>
          </ns3:TrackPointExtension>
        </extensions>
      </trkpt>
      <trkpt lat="37.743020989000797271728515625" lon="-107.71258573047816753387451171875">
        <ele>3334.60009765625</ele>
        <time>2023-07-29T13:01:29.000Z</time>
        <extensions>
          <ns3:TrackPointExtension>
            <ns3:hr>102</ns3:hr>
            <ns3:cad>55</ns3:cad>
          </ns3:TrackPointExtension>
        </extensions>
      </trkpt>
      <trkpt lat="37.74301470257341861724853515625" lon="-107.7126007340848445892333984375">
        <ele>3334.800048828125</ele>
        <time>2023-07-29T13:01:30.000Z</time>
        <extensions>
          <ns3:TrackPointExtension>
            <ns3:hr>101</ns3:hr>
            <ns3:cad>55</ns3:cad>
          </ns3:TrackPointExtension>
        </extensions>
      </trkpt>
      <trkpt lat="37.74300263263285160064697265625" lon="-107.71261037327349185943603515625">
        <ele>3335</ele>
        <time>2023-07-29T13:01:31.000Z</time>
        <extensions>
          <ns3:TrackPointExtension>
            <ns3:hr>100</ns3:hr>
            <ns3:cad>55</ns3:cad>
          </ns3:TrackPointExtension>
        </extensions>
      </trkpt>
      <trkpt lat="37.74299425072968006134033203125" lon="-107.71262235939502716064453125">
        <ele>3335.199951171875</ele>
        <time>2023-07-29T13:01:32.000Z</time>
        <extensions>
          <ns3:TrackPointExtension>
            <ns3:hr>99</ns3:hr>
            <ns3:cad>54</ns3:cad>
          </ns3:TrackPointExtension>
        </extensions>
      </trkpt>
      <trkpt lat="37.74298436008393764495849609375" lon="-107.71263903938233852386474609375">
        <ele>3335.39990234375</ele>
        <time>2023-07-29T13:01:33.000Z</time>
        <extensions>
          <ns3:TrackPointExtension>
            <ns3:hr>99</ns3:hr>
            <ns3:cad>54</ns3:cad>
          </ns3:TrackPointExtension>
        </extensions>
      </trkpt>
      <trkpt lat="37.7429705299437046051025390625" lon="-107.7126530371606349945068359375">
        <ele>3335.39990234375</ele>
        <time>2023-07-29T13:01:34.000Z</time>
        <extensions>
          <ns3:TrackPointExtension>
            <ns3:hr>99</ns3:hr>
            <ns3:cad>54</ns3:cad>
          </ns3:TrackPointExtension>
        </extensions>
      </trkpt>
      <trkpt lat="37.74295720271766185760498046875" lon="-107.712667286396026611328125">
        <ele>3335.39990234375</ele>
        <time>2023-07-29T13:01:35.000Z</time>
        <extensions>
          <ns3:TrackPointExtension>
            <ns3:hr>99</ns3:hr>
            <ns3:cad>55</ns3:cad>
          </ns3:TrackPointExtension>
        </extensions>
      </trkpt>
      <trkpt lat="37.74294898845255374908447265625" lon="-107.71268396638333797454833984375">
        <ele>3335.60009765625</ele>
        <time>2023-07-29T13:01:36.000Z</time>
        <extensions>
          <ns3:TrackPointExtension>
            <ns3:hr>98</ns3:hr>
            <ns3:cad>55</ns3:cad>
          </ns3:TrackPointExtension>
        </extensions>
      </trkpt>
      <trkpt lat="37.742940522730350494384765625" lon="-107.71269888617098331451416015625">
        <ele>3335.800048828125</ele>
        <time>2023-07-29T13:01:37.000Z</time>
        <extensions>
          <ns3:TrackPointExtension>
            <ns3:hr>98</ns3:hr>
            <ns3:cad>55</ns3:cad>
          </ns3:TrackPointExtension>
        </extensions>
      </trkpt>
      <trkpt lat="37.742937840521335601806640625" lon="-107.71270508877933025360107421875">
        <ele>3335.800048828125</ele>
        <time>2023-07-29T13:01:38.000Z</time>
        <extensions>
          <ns3:TrackPointExtension>
            <ns3:hr>98</ns3:hr>
            <ns3:cad>55</ns3:cad>
          </ns3:TrackPointExtension>
        </extensions>
      </trkpt>
      <trkpt lat="37.74293289519846439361572265625" lon="-107.712717913091182708740234375">
        <ele>3336</ele>
        <time>2023-07-29T13:01:39.000Z</time>
        <extensions>
          <ns3:TrackPointExtension>
            <ns3:hr>97</ns3:hr>
            <ns3:cad>55</ns3:cad>
          </ns3:TrackPointExtension>
        </extensions>
      </trkpt>
      <trkpt lat="37.7429254353046417236328125" lon="-107.71272872574627399444580078125">
        <ele>3336</ele>
        <time>2023-07-29T13:01:40.000Z</time>
        <extensions>
          <ns3:TrackPointExtension>
            <ns3:hr>97</ns3:hr>
            <ns3:cad>55</ns3:cad>
          </ns3:TrackPointExtension>
        </extensions>
      </trkpt>
      <trkpt lat="37.7429215796291828155517578125" lon="-107.712743394076824188232421875">
        <ele>3336.199951171875</ele>
        <time>2023-07-29T13:01:41.000Z</time>
        <extensions>
          <ns3:TrackPointExtension>
            <ns3:hr>96</ns3:hr>
            <ns3:cad>55</ns3:cad>
          </ns3:TrackPointExtension>
        </extensions>
      </trkpt>
      <trkpt lat="37.742915041744709014892578125" lon="-107.71275890059769153594970703125">
        <ele>3336.39990234375</ele>
        <time>2023-07-29T13:01:42.000Z</time>
        <extensions>
          <ns3:TrackPointExtension>
            <ns3:hr>96</ns3:hr>
            <ns3:cad>55</ns3:cad>
          </ns3:TrackPointExtension>
        </extensions>
      </trkpt>
      <trkpt lat="37.7429091744124889373779296875" lon="-107.71277029998600482940673828125">
        <ele>3336.39990234375</ele>
        <time>2023-07-29T13:01:43.000Z</time>
        <extensions>
          <ns3:TrackPointExtension>
            <ns3:hr>95</ns3:hr>
            <ns3:cad>55</ns3:cad>
          </ns3:TrackPointExtension>
        </extensions>
      </trkpt>
      <trkpt lat="37.742902301251888275146484375" lon="-107.7127844654023647308349609375">
        <ele>3336.39990234375</ele>
        <time>2023-07-29T13:01:44.000Z</time>
        <extensions>
          <ns3:TrackPointExtension>
            <ns3:hr>93</ns3:hr>
            <ns3:cad>55</ns3:cad>
          </ns3:TrackPointExtension>
        </extensions>
      </trkpt>
      <trkpt lat="37.74289433844387531280517578125" lon="-107.71279863081872463226318359375">
        <ele>3336.60009765625</ele>
        <time>2023-07-29T13:01:45.000Z</time>
        <extensions>
          <ns3:TrackPointExtension>
            <ns3:hr>92</ns3:hr>
            <ns3:cad>55</ns3:cad>
          </ns3:TrackPointExtension>
        </extensions>
      </trkpt>
      <trkpt lat="37.74288729764521121978759765625" lon="-107.712812460958957672119140625">
        <ele>3336.60009765625</ele>
        <time>2023-07-29T13:01:46.000Z</time>
        <extensions>
          <ns3:TrackPointExtension>
            <ns3:hr>92</ns3:hr>
            <ns3:cad>55</ns3:cad>
          </ns3:TrackPointExtension>
        </extensions>
      </trkpt>
      <trkpt lat="37.74288109503686428070068359375" lon="-107.71282595582306385040283203125">
        <ele>3336.800048828125</ele>
        <time>2023-07-29T13:01:47.000Z</time>
        <extensions>
          <ns3:TrackPointExtension>
            <ns3:hr>92</ns3:hr>
            <ns3:cad>55</ns3:cad>
          </ns3:TrackPointExtension>
        </extensions>
      </trkpt>
      <trkpt lat="37.74287522770464420318603515625" lon="-107.71284003742039203643798828125">
        <ele>3336.800048828125</ele>
        <time>2023-07-29T13:01:48.000Z</time>
        <extensions>
          <ns3:TrackPointExtension>
            <ns3:hr>91</ns3:hr>
            <ns3:cad>55</ns3:cad>
          </ns3:TrackPointExtension>
        </extensions>
      </trkpt>
      <trkpt lat="37.742873132228851318359375" lon="-107.71285168826580047607421875">
        <ele>3336.800048828125</ele>
        <time>2023-07-29T13:01:49.000Z</time>
        <extensions>
          <ns3:TrackPointExtension>
            <ns3:hr>91</ns3:hr>
            <ns3:cad>55</ns3:cad>
          </ns3:TrackPointExtension>
        </extensions>
      </trkpt>
      <trkpt lat="37.7428662590682506561279296875" lon="-107.7128702960908412933349609375">
        <ele>3336.800048828125</ele>
        <time>2023-07-29T13:01:50.000Z</time>
        <extensions>
          <ns3:TrackPointExtension>
            <ns3:hr>91</ns3:hr>
            <ns3:cad>55</ns3:cad>
          </ns3:TrackPointExtension>
        </extensions>
      </trkpt>
      <trkpt lat="37.74285972118377685546875" lon="-107.712884210050106048583984375">
        <ele>3336.800048828125</ele>
        <time>2023-07-29T13:01:51.000Z</time>
        <extensions>
          <ns3:TrackPointExtension>
            <ns3:hr>91</ns3:hr>
            <ns3:cad>55</ns3:cad>
          </ns3:TrackPointExtension>
        </extensions>
      </trkpt>
      <trkpt lat="37.7428551949560642242431640625" lon="-107.71289703436195850372314453125">
        <ele>3337</ele>
        <time>2023-07-29T13:01:52.000Z</time>
        <extensions>
          <ns3:TrackPointExtension>
            <ns3:hr>92</ns3:hr>
            <ns3:cad>55</ns3:cad>
          </ns3:TrackPointExtension>
        </extensions>
      </trkpt>
      <trkpt lat="37.7428541891276836395263671875" lon="-107.7129122056066989898681640625">
        <ele>3337</ele>
        <time>2023-07-29T13:01:53.000Z</time>
        <extensions>
          <ns3:TrackPointExtension>
            <ns3:hr>93</ns3:hr>
            <ns3:cad>55</ns3:cad>
          </ns3:TrackPointExtension>
        </extensions>
      </trkpt>
      <trkpt lat="37.7428568713366985321044921875" lon="-107.7129215933382511138916015625">
        <ele>3337.199951171875</ele>
        <time>2023-07-29T13:01:54.000Z</time>
        <extensions>
          <ns3:TrackPointExtension>
            <ns3:hr>94</ns3:hr>
            <ns3:cad>55</ns3:cad>
          </ns3:TrackPointExtension>
        </extensions>
      </trkpt>
      <trkpt lat="37.74286081083118915557861328125" lon="-107.71293039433658123016357421875">
        <ele>3337.199951171875</ele>
        <time>2023-07-29T13:01:55.000Z</time>
        <extensions>
          <ns3:TrackPointExtension>
            <ns3:hr>95</ns3:hr>
            <ns3:cad>55</ns3:cad>
          </ns3:TrackPointExtension>
        </extensions>
      </trkpt>
      <trkpt lat="37.7428659237921237945556640625" lon="-107.71293408237397670745849609375">
        <ele>3337.39990234375</ele>
        <time>2023-07-29T13:01:56.000Z</time>
        <extensions>
          <ns3:TrackPointExtension>
            <ns3:hr>96</ns3:hr>
            <ns3:cad>55</ns3:cad>
          </ns3:TrackPointExtension>
        </extensions>
      </trkpt>
      <trkpt lat="37.74287371896207332611083984375" lon="-107.712938524782657623291015625">
        <ele>3337.60009765625</ele>
        <time>2023-07-29T13:01:57.000Z</time>
        <extensions>
          <ns3:TrackPointExtension>
            <ns3:hr>97</ns3:hr>
            <ns3:cad>54</ns3:cad>
          </ns3:TrackPointExtension>
        </extensions>
      </trkpt>
      <trkpt lat="37.7428798377513885498046875" lon="-107.71294162608683109283447265625">
        <ele>3337.800048828125</ele>
        <time>2023-07-29T13:01:58.000Z</time>
        <extensions>
          <ns3:TrackPointExtension>
            <ns3:hr>99</ns3:hr>
            <ns3:cad>54</ns3:cad>
          </ns3:TrackPointExtension>
        </extensions>
      </trkpt>
      <trkpt lat="37.74289132095873355865478515625" lon="-107.71294849924743175506591796875">
        <ele>3338</ele>
        <time>2023-07-29T13:01:59.000Z</time>
        <extensions>
          <ns3:TrackPointExtension>
            <ns3:hr>99</ns3:hr>
            <ns3:cad>53</ns3:cad>
          </ns3:TrackPointExtension>
        </extensions>
      </trkpt>
      <trkpt lat="37.74290456436574459075927734375" lon="-107.71295629441738128662109375">
        <ele>3338</ele>
        <time>2023-07-29T13:02:00.000Z</time>
        <extensions>
          <ns3:TrackPointExtension>
            <ns3:hr>99</ns3:hr>
            <ns3:cad>53</ns3:cad>
          </ns3:TrackPointExtension>
        </extensions>
      </trkpt>
      <trkpt lat="37.742921076714992523193359375" lon="-107.71296677179634571075439453125">
        <ele>3338.199951171875</ele>
        <time>2023-07-29T13:02:01.000Z</time>
        <extensions>
          <ns3:TrackPointExtension>
            <ns3:hr>99</ns3:hr>
            <ns3:cad>53</ns3:cad>
          </ns3:TrackPointExtension>
        </extensions>
      </trkpt>
      <trkpt lat="37.74293507449328899383544921875" lon="-107.71297582425177097320556640625">
        <ele>3338.199951171875</ele>
        <time>2023-07-29T13:02:02.000Z</time>
        <extensions>
          <ns3:TrackPointExtension>
            <ns3:hr>99</ns3:hr>
            <ns3:cad>53</ns3:cad>
          </ns3:TrackPointExtension>
        </extensions>
      </trkpt>
      <trkpt lat="37.74294630624353885650634765625" lon="-107.71298336796462535858154296875">
        <ele>3338.39990234375</ele>
        <time>2023-07-29T13:02:03.000Z</time>
        <extensions>
          <ns3:TrackPointExtension>
            <ns3:hr>99</ns3:hr>
            <ns3:cad>54</ns3:cad>
          </ns3:TrackPointExtension>
        </extensions>
      </trkpt>
      <trkpt lat="37.74295938201248645782470703125" lon="-107.7129926718771457672119140625">
        <ele>3338.39990234375</ele>
        <time>2023-07-29T13:02:04.000Z</time>
        <extensions>
          <ns3:TrackPointExtension>
            <ns3:hr>99</ns3:hr>
            <ns3:cad>55</ns3:cad>
          </ns3:TrackPointExtension>
        </extensions>
      </trkpt>
      <trkpt lat="37.74297413416206836700439453125" lon="-107.71300130523741245269775390625">
        <ele>3338.39990234375</ele>
        <time>2023-07-29T13:02:05.000Z</time>
        <extensions>
          <ns3:TrackPointExtension>
            <ns3:hr>99</ns3:hr>
            <ns3:cad>55</ns3:cad>
          </ns3:TrackPointExtension>
        </extensions>
      </trkpt>
      <trkpt lat="37.74298469536006450653076171875" lon="-107.71300968714058399200439453125">
        <ele>3338.60009765625</ele>
        <time>2023-07-29T13:02:06.000Z</time>
        <extensions>
          <ns3:TrackPointExtension>
            <ns3:hr>99</ns3:hr>
            <ns3:cad>56</ns3:cad>
          </ns3:TrackPointExtension>
        </extensions>
      </trkpt>
      <trkpt lat="37.7429970167577266693115234375" lon="-107.7130173146724700927734375">
        <ele>3338.60009765625</ele>
        <time>2023-07-29T13:02:07.000Z</time>
        <extensions>
          <ns3:TrackPointExtension>
            <ns3:hr>99</ns3:hr>
            <ns3:cad>56</ns3:cad>
          </ns3:TrackPointExtension>
        </extensions>
      </trkpt>
      <trkpt lat="37.7430144511163234710693359375" lon="-107.71302527748048305511474609375">
        <ele>3338.60009765625</ele>
        <time>2023-07-29T13:02:08.000Z</time>
        <extensions>
          <ns3:TrackPointExtension>
            <ns3:hr>99</ns3:hr>
            <ns3:cad>56</ns3:cad>
          </ns3:TrackPointExtension>
        </extensions>
      </trkpt>
      <trkpt lat="37.74301822297275066375732421875" lon="-107.7130305580794811248779296875">
        <ele>3338.60009765625</ele>
        <time>2023-07-29T13:02:09.000Z</time>
        <extensions>
          <ns3:TrackPointExtension>
            <ns3:hr>99</ns3:hr>
            <ns3:cad>56</ns3:cad>
          </ns3:TrackPointExtension>
        </extensions>
      </trkpt>
      <trkpt lat="37.74302828125655651092529296875" lon="-107.713037431240081787109375">
        <ele>3338.60009765625</ele>
        <time>2023-07-29T13:02:10.000Z</time>
        <extensions>
          <ns3:TrackPointExtension>
            <ns3:hr>99</ns3:hr>
            <ns3:cad>57</ns3:cad>
          </ns3:TrackPointExtension>
        </extensions>
      </trkpt>
      <trkpt lat="37.7430379204452037811279296875" lon="-107.71304304711520671844482421875">
        <ele>3338.800048828125</ele>
        <time>2023-07-29T13:02:11.000Z</time>
        <extensions>
          <ns3:TrackPointExtension>
            <ns3:hr>99</ns3:hr>
            <ns3:cad>57</ns3:cad>
          </ns3:TrackPointExtension>
        </extensions>
      </trkpt>
      <trkpt lat="37.74304487742483615875244140625" lon="-107.7130469866096973419189453125">
        <ele>3338.800048828125</ele>
        <time>2023-07-29T13:02:12.000Z</time>
        <extensions>
          <ns3:TrackPointExtension>
            <ns3:hr>99</ns3:hr>
            <ns3:cad>57</ns3:cad>
          </ns3:TrackPointExtension>
        </extensions>
      </trkpt>
      <trkpt lat="37.74305594153702259063720703125" lon="-107.7130540274083614349365234375">
        <ele>3339</ele>
        <time>2023-07-29T13:02:13.000Z</time>
        <extensions>
          <ns3:TrackPointExtension>
            <ns3:hr>99</ns3:hr>
            <ns3:cad>56</ns3:cad>
          </ns3:TrackPointExtension>
        </extensions>
      </trkpt>
      <trkpt lat="37.7430620603263378143310546875" lon="-107.713062576949596405029296875">
        <ele>3339.199951171875</ele>
        <time>2023-07-29T13:02:14.000Z</time>
        <extensions>
          <ns3:TrackPointExtension>
            <ns3:hr>99</ns3:hr>
            <ns3:cad>55</ns3:cad>
          </ns3:TrackPointExtension>
        </extensions>
      </trkpt>
      <trkpt lat="37.7430741302669048309326171875" lon="-107.71307338960468769073486328125">
        <ele>3339.39990234375</ele>
        <time>2023-07-29T13:02:15.000Z</time>
        <extensions>
          <ns3:TrackPointExtension>
            <ns3:hr>99</ns3:hr>
            <ns3:cad>55</ns3:cad>
          </ns3:TrackPointExtension>
        </extensions>
      </trkpt>
      <trkpt lat="37.7430865354835987091064453125" lon="-107.71308428607881069183349609375">
        <ele>3339.60009765625</ele>
        <time>2023-07-29T13:02:16.000Z</time>
        <extensions>
          <ns3:TrackPointExtension>
            <ns3:hr>99</ns3:hr>
            <ns3:cad>55</ns3:cad>
          </ns3:TrackPointExtension>
        </extensions>
      </trkpt>
      <trkpt lat="37.74309508502483367919921875" lon="-107.713093422353267669677734375">
        <ele>3339.60009765625</ele>
        <time>2023-07-29T13:02:17.000Z</time>
        <extensions>
          <ns3:TrackPointExtension>
            <ns3:hr>99</ns3:hr>
            <ns3:cad>55</ns3:cad>
          </ns3:TrackPointExtension>
        </extensions>
      </trkpt>
      <trkpt lat="37.7431032992899417877197265625" lon="-107.71310037933290004730224609375">
        <ele>3339.800048828125</ele>
        <time>2023-07-29T13:02:18.000Z</time>
        <extensions>
          <ns3:TrackPointExtension>
            <ns3:hr>99</ns3:hr>
            <ns3:cad>53</ns3:cad>
          </ns3:TrackPointExtension>
        </extensions>
      </trkpt>
      <trkpt lat="37.74311679415404796600341796875" lon="-107.71310943178832530975341796875">
        <ele>3339.800048828125</ele>
        <time>2023-07-29T13:02:19.000Z</time>
        <extensions>
          <ns3:TrackPointExtension>
            <ns3:hr>98</ns3:hr>
            <ns3:cad>53</ns3:cad>
          </ns3:TrackPointExtension>
        </extensions>
      </trkpt>
      <trkpt lat="37.74312282912433147430419921875" lon="-107.7131133712828159332275390625">
        <ele>3339.60009765625</ele>
        <time>2023-07-29T13:02:20.000Z</time>
        <extensions>
          <ns3:TrackPointExtension>
            <ns3:hr>98</ns3:hr>
            <ns3:cad>53</ns3:cad>
          </ns3:TrackPointExtension>
        </extensions>
      </trkpt>
      <trkpt lat="37.743130624294281005859375" lon="-107.71312250755727291107177734375">
        <ele>3339.60009765625</ele>
        <time>2023-07-29T13:02:21.000Z</time>
        <extensions>
          <ns3:TrackPointExtension>
            <ns3:hr>98</ns3:hr>
            <ns3:cad>54</ns3:cad>
          </ns3:TrackPointExtension>
        </extensions>
      </trkpt>
      <trkpt lat="37.74313774891197681427001953125" lon="-107.71313189528882503509521484375">
        <ele>3339.60009765625</ele>
        <time>2023-07-29T13:02:22.000Z</time>
        <extensions>
          <ns3:TrackPointExtension>
            <ns3:hr>97</ns3:hr>
            <ns3:cad>55</ns3:cad>
          </ns3:TrackPointExtension>
        </extensions>
      </trkpt>
      <trkpt lat="37.74314747191965579986572265625" lon="-107.713146395981311798095703125">
        <ele>3339.39990234375</ele>
        <time>2023-07-29T13:02:23.000Z</time>
        <extensions>
          <ns3:TrackPointExtension>
            <ns3:hr>97</ns3:hr>
            <ns3:cad>55</ns3:cad>
          </ns3:TrackPointExtension>
        </extensions>
      </trkpt>
      <trkpt lat="37.7431556023657321929931640625" lon="-107.71315754391252994537353515625">
        <ele>3339.39990234375</ele>
        <time>2023-07-29T13:02:24.000Z</time>
        <extensions>
          <ns3:TrackPointExtension>
            <ns3:hr>97</ns3:hr>
            <ns3:cad>55</ns3:cad>
          </ns3:TrackPointExtension>
        </extensions>
      </trkpt>
      <trkpt lat="37.743165493011474609375" lon="-107.713171541690826416015625">
        <ele>3339.39990234375</ele>
        <time>2023-07-29T13:02:25.000Z</time>
        <extensions>
          <ns3:TrackPointExtension>
            <ns3:hr>97</ns3:hr>
            <ns3:cad>55</ns3:cad>
          </ns3:TrackPointExtension>
        </extensions>
      </trkpt>
      <trkpt lat="37.74317211471498012542724609375" lon="-107.71318696439266204833984375">
        <ele>3339.39990234375</ele>
        <time>2023-07-29T13:02:26.000Z</time>
        <extensions>
          <ns3:TrackPointExtension>
            <ns3:hr>97</ns3:hr>
            <ns3:cad>55</ns3:cad>
          </ns3:TrackPointExtension>
        </extensions>
      </trkpt>
      <trkpt lat="37.74317421019077301025390625" lon="-107.7132062427699565887451171875">
        <ele>3339.39990234375</ele>
        <time>2023-07-29T13:02:27.000Z</time>
        <extensions>
          <ns3:TrackPointExtension>
            <ns3:hr>96</ns3:hr>
            <ns3:cad>55</ns3:cad>
          </ns3:TrackPointExtension>
        </extensions>
      </trkpt>
      <trkpt lat="37.74317085742950439453125" lon="-107.71322728134691715240478515625">
        <ele>3339.39990234375</ele>
        <time>2023-07-29T13:02:28.000Z</time>
        <extensions>
          <ns3:TrackPointExtension>
            <ns3:hr>96</ns3:hr>
            <ns3:cad>55</ns3:cad>
          </ns3:TrackPointExtension>
        </extensions>
      </trkpt>
      <trkpt lat="37.743167169392108917236328125" lon="-107.7132421173155307769775390625">
        <ele>3339.39990234375</ele>
        <time>2023-07-29T13:02:29.000Z</time>
        <extensions>
          <ns3:TrackPointExtension>
            <ns3:hr>96</ns3:hr>
            <ns3:cad>55</ns3:cad>
          </ns3:TrackPointExtension>
        </extensions>
      </trkpt>
      <trkpt lat="37.74316557683050632476806640625" lon="-107.71325846202671527862548828125">
        <ele>3339.39990234375</ele>
        <time>2023-07-29T13:02:30.000Z</time>
        <extensions>
          <ns3:TrackPointExtension>
            <ns3:hr>95</ns3:hr>
            <ns3:cad>55</ns3:cad>
          </ns3:TrackPointExtension>
        </extensions>
      </trkpt>
      <trkpt lat="37.74316557683050632476806640625" lon="-107.71327388472855091094970703125">
        <ele>3339.39990234375</ele>
        <time>2023-07-29T13:02:31.000Z</time>
        <extensions>
          <ns3:TrackPointExtension>
            <ns3:hr>95</ns3:hr>
            <ns3:cad>55</ns3:cad>
          </ns3:TrackPointExtension>
        </extensions>
      </trkpt>
      <trkpt lat="37.74316172115504741668701171875" lon="-107.7132867090404033660888671875">
        <ele>3339.39990234375</ele>
        <time>2023-07-29T13:02:32.000Z</time>
        <extensions>
          <ns3:TrackPointExtension>
            <ns3:hr>95</ns3:hr>
            <ns3:cad>56</ns3:cad>
          </ns3:TrackPointExtension>
        </extensions>
      </trkpt>
      <trkpt lat="37.74315903894603252410888671875" lon="-107.71330623887479305267333984375">
        <ele>3339.60009765625</ele>
        <time>2023-07-29T13:02:33.000Z</time>
        <extensions>
          <ns3:TrackPointExtension>
            <ns3:hr>94</ns3:hr>
            <ns3:cad>56</ns3:cad>
          </ns3:TrackPointExtension>
        </extensions>
      </trkpt>
      <trkpt lat="37.74315702728927135467529296875" lon="-107.7133232541382312774658203125">
        <ele>3339.60009765625</ele>
        <time>2023-07-29T13:02:34.000Z</time>
        <extensions>
          <ns3:TrackPointExtension>
            <ns3:hr>94</ns3:hr>
            <ns3:cad>56</ns3:cad>
          </ns3:TrackPointExtension>
        </extensions>
      </trkpt>
      <trkpt lat="37.74315543472766876220703125" lon="-107.71333180367946624755859375">
        <ele>3339.60009765625</ele>
        <time>2023-07-29T13:02:35.000Z</time>
        <extensions>
          <ns3:TrackPointExtension>
            <ns3:hr>94</ns3:hr>
            <ns3:cad>55</ns3:cad>
          </ns3:TrackPointExtension>
        </extensions>
      </trkpt>
      <trkpt lat="37.74315618909895420074462890625" lon="-107.71333448588848114013671875">
        <ele>3339.800048828125</ele>
        <time>2023-07-29T13:02:36.000Z</time>
        <extensions>
          <ns3:TrackPointExtension>
            <ns3:hr>94</ns3:hr>
            <ns3:cad>55</ns3:cad>
          </ns3:TrackPointExtension>
        </extensions>
      </trkpt>
      <trkpt lat="37.74315484799444675445556640625" lon="-107.71333607845008373260498046875">
        <ele>3339.800048828125</ele>
        <time>2023-07-29T13:02:37.000Z</time>
        <extensions>
          <ns3:TrackPointExtension>
            <ns3:hr>94</ns3:hr>
            <ns3:cad>52</ns3:cad>
          </ns3:TrackPointExtension>
        </extensions>
      </trkpt>
      <trkpt lat="37.743155770003795623779296875" lon="-107.713337838649749755859375">
        <ele>3339.800048828125</ele>
        <time>2023-07-29T13:02:38.000Z</time>
        <extensions>
          <ns3:TrackPointExtension>
            <ns3:hr>94</ns3:hr>
            <ns3:cad>0</ns3:cad>
          </ns3:TrackPointExtension>
        </extensions>
      </trkpt>
      <trkpt lat="37.74315685965120792388916015625" lon="-107.71333540789783000946044921875">
        <ele>3339.800048828125</ele>
        <time>2023-07-29T13:02:39.000Z</time>
        <extensions>
          <ns3:TrackPointExtension>
            <ns3:hr>94</ns3:hr>
            <ns3:cad>0</ns3:cad>
          </ns3:TrackPointExtension>
        </extensions>
      </trkpt>
      <trkpt lat="37.7431561052799224853515625" lon="-107.71333540789783000946044921875">
        <ele>3339.800048828125</ele>
        <time>2023-07-29T13:02:40.000Z</time>
        <extensions>
          <ns3:TrackPointExtension>
            <ns3:hr>94</ns3:hr>
            <ns3:cad>0</ns3:cad>
          </ns3:TrackPointExtension>
        </extensions>
      </trkpt>
      <trkpt lat="37.74315702728927135467529296875" lon="-107.7133366651833057403564453125">
        <ele>3339.800048828125</ele>
        <time>2023-07-29T13:02:41.000Z</time>
        <extensions>
          <ns3:TrackPointExtension>
            <ns3:hr>94</ns3:hr>
            <ns3:cad>0</ns3:cad>
          </ns3:TrackPointExtension>
        </extensions>
      </trkpt>
      <trkpt lat="37.7431587874889373779296875" lon="-107.7133311331272125244140625">
        <ele>3339.800048828125</ele>
        <time>2023-07-29T13:02:42.000Z</time>
        <extensions>
          <ns3:TrackPointExtension>
            <ns3:hr>94</ns3:hr>
            <ns3:cad>0</ns3:cad>
          </ns3:TrackPointExtension>
        </extensions>
      </trkpt>
      <trkpt lat="37.74315836839377880096435546875" lon="-107.71332954056560993194580078125">
        <ele>3339.60009765625</ele>
        <time>2023-07-29T13:02:43.000Z</time>
        <extensions>
          <ns3:TrackPointExtension>
            <ns3:hr>93</ns3:hr>
            <ns3:cad>0</ns3:cad>
          </ns3:TrackPointExtension>
        </extensions>
      </trkpt>
      <trkpt lat="37.74315702728927135467529296875" lon="-107.713327109813690185546875">
        <ele>3339.60009765625</ele>
        <time>2023-07-29T13:02:44.000Z</time>
        <extensions>
          <ns3:TrackPointExtension>
            <ns3:hr>93</ns3:hr>
            <ns3:cad>0</ns3:cad>
          </ns3:TrackPointExtension>
        </extensions>
      </trkpt>
      <trkpt lat="37.7431552670896053314208984375" lon="-107.71333021111786365509033203125">
        <ele>3339.60009765625</ele>
        <time>2023-07-29T13:02:45.000Z</time>
        <extensions>
          <ns3:TrackPointExtension>
            <ns3:hr>93</ns3:hr>
            <ns3:cad>0</ns3:cad>
          </ns3:TrackPointExtension>
        </extensions>
      </trkpt>
      <trkpt lat="37.743153758347034454345703125" lon="-107.713329792022705078125">
        <ele>3339.60009765625</ele>
        <time>2023-07-29T13:02:46.000Z</time>
        <extensions>
          <ns3:TrackPointExtension>
            <ns3:hr>92</ns3:hr>
            <ns3:cad>0</ns3:cad>
          </ns3:TrackPointExtension>
        </extensions>
      </trkpt>
      <trkpt lat="37.74315484799444675445556640625" lon="-107.713328786194324493408203125">
        <ele>3339.60009765625</ele>
        <time>2023-07-29T13:02:47.000Z</time>
        <extensions>
          <ns3:TrackPointExtension>
            <ns3:hr>92</ns3:hr>
            <ns3:cad>0</ns3:cad>
          </ns3:TrackPointExtension>
        </extensions>
      </trkpt>
      <trkpt lat="37.74315543472766876220703125" lon="-107.71332887001335620880126953125">
        <ele>3339.60009765625</ele>
        <time>2023-07-29T13:02:48.000Z</time>
        <extensions>
          <ns3:TrackPointExtension>
            <ns3:hr>91</ns3:hr>
            <ns3:cad>0</ns3:cad>
          </ns3:TrackPointExtension>
        </extensions>
      </trkpt>
      <trkpt lat="37.7431549318134784698486328125" lon="-107.71333389915525913238525390625">
        <ele>3339.60009765625</ele>
        <time>2023-07-29T13:02:49.000Z</time>
        <extensions>
          <ns3:TrackPointExtension>
            <ns3:hr>91</ns3:hr>
            <ns3:cad>0</ns3:cad>
          </ns3:TrackPointExtension>
        </extensions>
      </trkpt>
      <trkpt lat="37.7431559376418590545654296875" lon="-107.71333515644073486328125">
        <ele>3339.60009765625</ele>
        <time>2023-07-29T13:02:50.000Z</time>
        <extensions>
          <ns3:TrackPointExtension>
            <ns3:hr>90</ns3:hr>
            <ns3:cad>0</ns3:cad>
          </ns3:TrackPointExtension>
        </extensions>
      </trkpt>
      <trkpt lat="37.74315652437508106231689453125" lon="-107.713338844478130340576171875">
        <ele>3339.60009765625</ele>
        <time>2023-07-29T13:02:51.000Z</time>
        <extensions>
          <ns3:TrackPointExtension>
            <ns3:hr>91</ns3:hr>
            <ns3:cad>0</ns3:cad>
          </ns3:TrackPointExtension>
        </extensions>
      </trkpt>
      <trkpt lat="37.74315635673701763153076171875" lon="-107.71334244869649410247802734375">
        <ele>3339.60009765625</ele>
        <time>2023-07-29T13:02:52.000Z</time>
        <extensions>
          <ns3:TrackPointExtension>
            <ns3:hr>90</ns3:hr>
            <ns3:cad>0</ns3:cad>
          </ns3:TrackPointExtension>
        </extensions>
      </trkpt>
      <trkpt lat="37.7431572787463665008544921875" lon="-107.713344879448413848876953125">
        <ele>3339.60009765625</ele>
        <time>2023-07-29T13:02:53.000Z</time>
        <extensions>
          <ns3:TrackPointExtension>
            <ns3:hr>89</ns3:hr>
            <ns3:cad>0</ns3:cad>
          </ns3:TrackPointExtension>
        </extensions>
      </trkpt>
      <trkpt lat="37.74315937422215938568115234375" lon="-107.7133445441722869873046875">
        <ele>3339.60009765625</ele>
        <time>2023-07-29T13:02:54.000Z</time>
        <extensions>
          <ns3:TrackPointExtension>
            <ns3:hr>89</ns3:hr>
            <ns3:cad>0</ns3:cad>
          </ns3:TrackPointExtension>
        </extensions>
      </trkpt>
      <trkpt lat="37.7431619726121425628662109375" lon="-107.71334462799131870269775390625">
        <ele>3339.60009765625</ele>
        <time>2023-07-29T13:02:55.000Z</time>
        <extensions>
          <ns3:TrackPointExtension>
            <ns3:hr>88</ns3:hr>
            <ns3:cad>0</ns3:cad>
          </ns3:TrackPointExtension>
        </extensions>
      </trkpt>
      <trkpt lat="37.74316473864018917083740234375" lon="-107.71334948949515819549560546875">
        <ele>3339.60009765625</ele>
        <time>2023-07-29T13:02:56.000Z</time>
        <extensions>
          <ns3:TrackPointExtension>
            <ns3:hr>88</ns3:hr>
            <ns3:cad>0</ns3:cad>
          </ns3:TrackPointExtension>
        </extensions>
      </trkpt>
      <trkpt lat="37.74316591210663318634033203125" lon="-107.7133525907993316650390625">
        <ele>3339.60009765625</ele>
        <time>2023-07-29T13:02:57.000Z</time>
        <extensions>
          <ns3:TrackPointExtension>
            <ns3:hr>88</ns3:hr>
            <ns3:cad>0</ns3:cad>
          </ns3:TrackPointExtension>
        </extensions>
      </trkpt>
      <trkpt lat="37.74316172115504741668701171875" lon="-107.713348232209682464599609375">
        <ele>3339.60009765625</ele>
        <time>2023-07-29T13:02:58.000Z</time>
        <extensions>
          <ns3:TrackPointExtension>
            <ns3:hr>89</ns3:hr>
            <ns3:cad>0</ns3:cad>
          </ns3:TrackPointExtension>
        </extensions>
      </trkpt>
      <trkpt lat="37.743156440556049346923828125" lon="-107.71334898658096790313720703125">
        <ele>3339.60009765625</ele>
        <time>2023-07-29T13:02:59.000Z</time>
        <extensions>
          <ns3:TrackPointExtension>
            <ns3:hr>89</ns3:hr>
            <ns3:cad>0</ns3:cad>
          </ns3:TrackPointExtension>
        </extensions>
      </trkpt>
      <trkpt lat="37.74315115995705127716064453125" lon="-107.71334529854357242584228515625">
        <ele>3339.60009765625</ele>
        <time>2023-07-29T13:03:00.000Z</time>
        <extensions>
          <ns3:TrackPointExtension>
            <ns3:hr>89</ns3:hr>
            <ns3:cad>0</ns3:cad>
          </ns3:TrackPointExtension>
        </extensions>
      </trkpt>
      <trkpt lat="37.74314730428159236907958984375" lon="-107.7133443765342235565185546875">
        <ele>3339.60009765625</ele>
        <time>2023-07-29T13:03:01.000Z</time>
        <extensions>
          <ns3:TrackPointExtension>
            <ns3:hr>89</ns3:hr>
            <ns3:cad>0</ns3:cad>
          </ns3:TrackPointExtension>
        </extensions>
      </trkpt>
      <trkpt lat="37.74314210750162601470947265625" lon="-107.71334253251552581787109375">
        <ele>3339.60009765625</ele>
        <time>2023-07-29T13:03:02.000Z</time>
        <extensions>
          <ns3:TrackPointExtension>
            <ns3:hr>89</ns3:hr>
            <ns3:cad>0</ns3:cad>
          </ns3:TrackPointExtension>
        </extensions>
      </trkpt>
      <trkpt lat="37.74313959293067455291748046875" lon="-107.7133445441722869873046875">
        <ele>3339.60009765625</ele>
        <time>2023-07-29T13:03:03.000Z</time>
        <extensions>
          <ns3:TrackPointExtension>
            <ns3:hr>89</ns3:hr>
            <ns3:cad>0</ns3:cad>
          </ns3:TrackPointExtension>
        </extensions>
      </trkpt>
      <trkpt lat="37.7431368269026279449462890625" lon="-107.71334630437195301055908203125">
        <ele>3339.60009765625</ele>
        <time>2023-07-29T13:03:04.000Z</time>
        <extensions>
          <ns3:TrackPointExtension>
            <ns3:hr>89</ns3:hr>
            <ns3:cad>0</ns3:cad>
          </ns3:TrackPointExtension>
        </extensions>
      </trkpt>
      <trkpt lat="37.743135653436183929443359375" lon="-107.713348902761936187744140625">
        <ele>3339.60009765625</ele>
        <time>2023-07-29T13:03:05.000Z</time>
        <extensions>
          <ns3:TrackPointExtension>
            <ns3:hr>89</ns3:hr>
            <ns3:cad>0</ns3:cad>
          </ns3:TrackPointExtension>
        </extensions>
      </trkpt>
      <trkpt lat="37.7431378327310085296630859375" lon="-107.713352926075458526611328125">
        <ele>3339.60009765625</ele>
        <time>2023-07-29T13:03:06.000Z</time>
        <extensions>
          <ns3:TrackPointExtension>
            <ns3:hr>88</ns3:hr>
            <ns3:cad>0</ns3:cad>
          </ns3:TrackPointExtension>
        </extensions>
      </trkpt>
      <trkpt lat="37.74313909001648426055908203125" lon="-107.7133577875792980194091796875">
        <ele>3339.39990234375</ele>
        <time>2023-07-29T13:03:07.000Z</time>
        <extensions>
          <ns3:TrackPointExtension>
            <ns3:hr>88</ns3:hr>
            <ns3:cad>0</ns3:cad>
          </ns3:TrackPointExtension>
        </extensions>
      </trkpt>
      <trkpt lat="37.7431381680071353912353515625" lon="-107.71335921250283718109130859375">
        <ele>3339.39990234375</ele>
        <time>2023-07-29T13:03:08.000Z</time>
        <extensions>
          <ns3:TrackPointExtension>
            <ns3:hr>88</ns3:hr>
            <ns3:cad>0</ns3:cad>
          </ns3:TrackPointExtension>
        </extensions>
      </trkpt>
      <trkpt lat="37.7431398443877696990966796875" lon="-107.71335803903639316558837890625">
        <ele>3339.39990234375</ele>
        <time>2023-07-29T13:03:09.000Z</time>
        <extensions>
          <ns3:TrackPointExtension>
            <ns3:hr>87</ns3:hr>
            <ns3:cad>0</ns3:cad>
          </ns3:TrackPointExtension>
        </extensions>
      </trkpt>
      <trkpt lat="37.7431418560445308685302734375" lon="-107.713352926075458526611328125">
        <ele>3339.39990234375</ele>
        <time>2023-07-29T13:03:10.000Z</time>
        <extensions>
          <ns3:TrackPointExtension>
            <ns3:hr>87</ns3:hr>
            <ns3:cad>0</ns3:cad>
          </ns3:TrackPointExtension>
        </extensions>
      </trkpt>
      <trkpt lat="37.7431431971490383148193359375" lon="-107.7133453823626041412353515625">
        <ele>3339.39990234375</ele>
        <time>2023-07-29T13:03:11.000Z</time>
        <extensions>
          <ns3:TrackPointExtension>
            <ns3:hr>87</ns3:hr>
            <ns3:cad>0</ns3:cad>
          </ns3:TrackPointExtension>
        </extensions>
      </trkpt>
      <trkpt lat="37.74314227513968944549560546875" lon="-107.71334663964807987213134765625">
        <ele>3339.39990234375</ele>
        <time>2023-07-29T13:03:12.000Z</time>
        <extensions>
          <ns3:TrackPointExtension>
            <ns3:hr>86</ns3:hr>
            <ns3:cad>0</ns3:cad>
          </ns3:TrackPointExtension>
        </extensions>
      </trkpt>
      <trkpt lat="37.743140347301959991455078125" lon="-107.713346891105175018310546875">
        <ele>3339.39990234375</ele>
        <time>2023-07-29T13:03:13.000Z</time>
        <extensions>
          <ns3:TrackPointExtension>
            <ns3:hr>86</ns3:hr>
            <ns3:cad>0</ns3:cad>
          </ns3:TrackPointExtension>
        </extensions>
      </trkpt>
      <trkpt lat="37.743139676749706268310546875" lon="-107.713348902761936187744140625">
        <ele>3339.39990234375</ele>
        <time>2023-07-29T13:03:14.000Z</time>
        <extensions>
          <ns3:TrackPointExtension>
            <ns3:hr>85</ns3:hr>
            <ns3:cad>0</ns3:cad>
          </ns3:TrackPointExtension>
        </extensions>
      </trkpt>
      <trkpt lat="37.74314009584486484527587890625" lon="-107.71334647201001644134521484375">
        <ele>3339.39990234375</ele>
        <time>2023-07-29T13:03:15.000Z</time>
        <extensions>
          <ns3:TrackPointExtension>
            <ns3:hr>85</ns3:hr>
            <ns3:cad>0</ns3:cad>
          </ns3:TrackPointExtension>
        </extensions>
      </trkpt>
      <trkpt lat="37.74314068257808685302734375" lon="-107.7133420296013355255126953125">
        <ele>3339.39990234375</ele>
        <time>2023-07-29T13:03:16.000Z</time>
        <extensions>
          <ns3:TrackPointExtension>
            <ns3:hr>85</ns3:hr>
            <ns3:cad>0</ns3:cad>
          </ns3:TrackPointExtension>
        </extensions>
      </trkpt>
      <trkpt lat="37.74314026348292827606201171875" lon="-107.7133353240787982940673828125">
        <ele>3339.39990234375</ele>
        <time>2023-07-29T13:03:17.000Z</time>
        <extensions>
          <ns3:TrackPointExtension>
            <ns3:hr>85</ns3:hr>
            <ns3:cad>0</ns3:cad>
          </ns3:TrackPointExtension>
        </extensions>
      </trkpt>
      <trkpt lat="37.7431391738355159759521484375" lon="-107.71333658136427402496337890625">
        <ele>3339.39990234375</ele>
        <time>2023-07-29T13:03:18.000Z</time>
        <extensions>
          <ns3:TrackPointExtension>
            <ns3:hr>85</ns3:hr>
            <ns3:cad>0</ns3:cad>
          </ns3:TrackPointExtension>
        </extensions>
      </trkpt>
      <trkpt lat="37.74313774891197681427001953125" lon="-107.71333926357328891754150390625">
        <ele>3339.39990234375</ele>
        <time>2023-07-29T13:03:19.000Z</time>
        <extensions>
          <ns3:TrackPointExtension>
            <ns3:hr>85</ns3:hr>
            <ns3:cad>0</ns3:cad>
          </ns3:TrackPointExtension>
        </extensions>
      </trkpt>
      <trkpt lat="37.74314059875905513763427734375" lon="-107.71334077231585979461669921875">
        <ele>3339.39990234375</ele>
        <time>2023-07-29T13:03:20.000Z</time>
        <extensions>
          <ns3:TrackPointExtension>
            <ns3:hr>85</ns3:hr>
            <ns3:cad>0</ns3:cad>
          </ns3:TrackPointExtension>
        </extensions>
      </trkpt>
      <trkpt lat="37.74314202368259429931640625" lon="-107.713343538343906402587890625">
        <ele>3339.39990234375</ele>
        <time>2023-07-29T13:03:21.000Z</time>
        <extensions>
          <ns3:TrackPointExtension>
            <ns3:hr>84</ns3:hr>
            <ns3:cad>0</ns3:cad>
          </ns3:TrackPointExtension>
        </extensions>
      </trkpt>
      <trkpt lat="37.74314261041581630706787109375" lon="-107.7133443765342235565185546875">
        <ele>3339.199951171875</ele>
        <time>2023-07-29T13:03:22.000Z</time>
        <extensions>
          <ns3:TrackPointExtension>
            <ns3:hr>84</ns3:hr>
            <ns3:cad>0</ns3:cad>
          </ns3:TrackPointExtension>
        </extensions>
      </trkpt>
      <trkpt lat="37.74314336478710174560546875" lon="-107.71334395743906497955322265625">
        <ele>3339.39990234375</ele>
        <time>2023-07-29T13:03:23.000Z</time>
        <extensions>
          <ns3:TrackPointExtension>
            <ns3:hr>84</ns3:hr>
            <ns3:cad>0</ns3:cad>
          </ns3:TrackPointExtension>
        </extensions>
      </trkpt>
      <trkpt lat="37.7431448735296726226806640625" lon="-107.71334479562938213348388671875">
        <ele>3339.39990234375</ele>
        <time>2023-07-29T13:03:24.000Z</time>
        <extensions>
          <ns3:TrackPointExtension>
            <ns3:hr>84</ns3:hr>
            <ns3:cad>0</ns3:cad>
          </ns3:TrackPointExtension>
        </extensions>
      </trkpt>
      <trkpt lat="37.74314814247190952301025390625" lon="-107.713345550000667572021484375">
        <ele>3339.199951171875</ele>
        <time>2023-07-29T13:03:25.000Z</time>
        <extensions>
          <ns3:TrackPointExtension>
            <ns3:hr>84</ns3:hr>
            <ns3:cad>0</ns3:cad>
          </ns3:TrackPointExtension>
        </extensions>
      </trkpt>
      <trkpt lat="37.74314462207257747650146484375" lon="-107.71334429271519184112548828125">
        <ele>3339.199951171875</ele>
        <time>2023-07-29T13:03:26.000Z</time>
        <extensions>
          <ns3:TrackPointExtension>
            <ns3:hr>83</ns3:hr>
            <ns3:cad>0</ns3:cad>
          </ns3:TrackPointExtension>
        </extensions>
      </trkpt>
      <trkpt lat="37.7431435324251651763916015625" lon="-107.71334446035325527191162109375">
        <ele>3339.199951171875</ele>
        <time>2023-07-29T13:03:27.000Z</time>
        <extensions>
          <ns3:TrackPointExtension>
            <ns3:hr>83</ns3:hr>
            <ns3:cad>0</ns3:cad>
          </ns3:TrackPointExtension>
        </extensions>
      </trkpt>
      <trkpt lat="37.74314093403518199920654296875" lon="-107.71334211342036724090576171875">
        <ele>3339.199951171875</ele>
        <time>2023-07-29T13:03:28.000Z</time>
        <extensions>
          <ns3:TrackPointExtension>
            <ns3:hr>83</ns3:hr>
            <ns3:cad>0</ns3:cad>
          </ns3:TrackPointExtension>
        </extensions>
      </trkpt>
      <trkpt lat="37.74313875474035739898681640625" lon="-107.71334261633455753326416015625">
        <ele>3339.199951171875</ele>
        <time>2023-07-29T13:03:29.000Z</time>
        <extensions>
          <ns3:TrackPointExtension>
            <ns3:hr>82</ns3:hr>
            <ns3:cad>0</ns3:cad>
          </ns3:TrackPointExtension>
        </extensions>
      </trkpt>
      <trkpt lat="37.7431364916265010833740234375" lon="-107.713344208896160125732421875">
        <ele>3339.199951171875</ele>
        <time>2023-07-29T13:03:30.000Z</time>
        <extensions>
          <ns3:TrackPointExtension>
            <ns3:hr>82</ns3:hr>
            <ns3:cad>0</ns3:cad>
          </ns3:TrackPointExtension>
        </extensions>
      </trkpt>
      <trkpt lat="37.74313506670296192169189453125" lon="-107.713350243866443634033203125">
        <ele>3339.199951171875</ele>
        <time>2023-07-29T13:03:31.000Z</time>
        <extensions>
          <ns3:TrackPointExtension>
            <ns3:hr>82</ns3:hr>
            <ns3:cad>0</ns3:cad>
          </ns3:TrackPointExtension>
        </extensions>
      </trkpt>
      <trkpt lat="37.7431331388652324676513671875" lon="-107.71336306817829608917236328125">
        <ele>3339.39990234375</ele>
        <time>2023-07-29T13:03:32.000Z</time>
        <extensions>
          <ns3:TrackPointExtension>
            <ns3:hr>82</ns3:hr>
            <ns3:cad>0</ns3:cad>
          </ns3:TrackPointExtension>
        </extensions>
      </trkpt>
      <trkpt lat="37.7431344799697399139404296875" lon="-107.71337614394724369049072265625">
        <ele>3339.60009765625</ele>
        <time>2023-07-29T13:03:33.000Z</time>
        <extensions>
          <ns3:TrackPointExtension>
            <ns3:hr>82</ns3:hr>
            <ns3:cad>0</ns3:cad>
          </ns3:TrackPointExtension>
        </extensions>
      </trkpt>
      <trkpt lat="37.74313724599778652191162109375" lon="-107.71338720805943012237548828125">
        <ele>3339.800048828125</ele>
        <time>2023-07-29T13:03:34.000Z</time>
        <extensions>
          <ns3:TrackPointExtension>
            <ns3:hr>81</ns3:hr>
            <ns3:cad>51</ns3:cad>
          </ns3:TrackPointExtension>
        </extensions>
      </trkpt>
      <trkpt lat="37.74314596317708492279052734375" lon="-107.713401876389980316162109375">
        <ele>3339.800048828125</ele>
        <time>2023-07-29T13:03:35.000Z</time>
        <extensions>
          <ns3:TrackPointExtension>
            <ns3:hr>81</ns3:hr>
            <ns3:cad>51</ns3:cad>
          </ns3:TrackPointExtension>
        </extensions>
      </trkpt>
      <trkpt lat="37.74315048940479755401611328125" lon="-107.71341017447412014007568359375">
        <ele>3340</ele>
        <time>2023-07-29T13:03:36.000Z</time>
        <extensions>
          <ns3:TrackPointExtension>
            <ns3:hr>81</ns3:hr>
            <ns3:cad>57</ns3:cad>
          </ns3:TrackPointExtension>
        </extensions>
      </trkpt>
      <trkpt lat="37.743155770003795623779296875" lon="-107.71341218613088130950927734375">
        <ele>3340.199951171875</ele>
        <time>2023-07-29T13:03:37.000Z</time>
        <extensions>
          <ns3:TrackPointExtension>
            <ns3:hr>80</ns3:hr>
            <ns3:cad>58</ns3:cad>
          </ns3:TrackPointExtension>
        </extensions>
      </trkpt>
      <trkpt lat="37.74316188879311084747314453125" lon="-107.71341897547245025634765625">
        <ele>3340.199951171875</ele>
        <time>2023-07-29T13:03:38.000Z</time>
        <extensions>
          <ns3:TrackPointExtension>
            <ns3:hr>80</ns3:hr>
            <ns3:cad>59</ns3:cad>
          </ns3:TrackPointExtension>
        </extensions>
      </trkpt>
      <trkpt lat="37.74316591210663318634033203125" lon="-107.7134228311479091644287109375">
        <ele>3340.39990234375</ele>
        <time>2023-07-29T13:03:39.000Z</time>
        <extensions>
          <ns3:TrackPointExtension>
            <ns3:hr>80</ns3:hr>
            <ns3:cad>59</ns3:cad>
          </ns3:TrackPointExtension>
        </extensions>
      </trkpt>
      <trkpt lat="37.74317094124853610992431640625" lon="-107.7134305424988269805908203125">
        <ele>3340.39990234375</ele>
        <time>2023-07-29T13:03:40.000Z</time>
        <extensions>
          <ns3:TrackPointExtension>
            <ns3:hr>79</ns3:hr>
            <ns3:cad>59</ns3:cad>
          </ns3:TrackPointExtension>
        </extensions>
      </trkpt>
      <trkpt lat="37.74317747913300991058349609375" lon="-107.71343582309782505035400390625">
        <ele>3340.39990234375</ele>
        <time>2023-07-29T13:03:41.000Z</time>
        <extensions>
          <ns3:TrackPointExtension>
            <ns3:hr>79</ns3:hr>
            <ns3:cad>59</ns3:cad>
          </ns3:TrackPointExtension>
        </extensions>
      </trkpt>
      <trkpt lat="37.74318519048392772674560546875" lon="-107.71344705484807491302490234375">
        <ele>3340.39990234375</ele>
        <time>2023-07-29T13:03:42.000Z</time>
        <extensions>
          <ns3:TrackPointExtension>
            <ns3:hr>79</ns3:hr>
            <ns3:cad>59</ns3:cad>
          </ns3:TrackPointExtension>
        </extensions>
      </trkpt>
      <trkpt lat="37.743191309273242950439453125" lon="-107.7134566940367221832275390625">
        <ele>3340.39990234375</ele>
        <time>2023-07-29T13:03:43.000Z</time>
        <extensions>
          <ns3:TrackPointExtension>
            <ns3:hr>79</ns3:hr>
            <ns3:cad>57</ns3:cad>
          </ns3:TrackPointExtension>
        </extensions>
      </trkpt>
      <trkpt lat="37.743205390870571136474609375" lon="-107.71346750669181346893310546875">
        <ele>3340.199951171875</ele>
        <time>2023-07-29T13:03:44.000Z</time>
        <extensions>
          <ns3:TrackPointExtension>
            <ns3:hr>79</ns3:hr>
            <ns3:cad>57</ns3:cad>
          </ns3:TrackPointExtension>
        </extensions>
      </trkpt>
      <trkpt lat="37.74321771226823329925537109375" lon="-107.7134784869849681854248046875">
        <ele>3340</ele>
        <time>2023-07-29T13:03:45.000Z</time>
        <extensions>
          <ns3:TrackPointExtension>
            <ns3:hr>79</ns3:hr>
            <ns3:cad>57</ns3:cad>
          </ns3:TrackPointExtension>
        </extensions>
      </trkpt>
      <trkpt lat="37.74323062039911746978759765625" lon="-107.713493742048740386962890625">
        <ele>3340</ele>
        <time>2023-07-29T13:03:46.000Z</time>
        <extensions>
          <ns3:TrackPointExtension>
            <ns3:hr>79</ns3:hr>
            <ns3:cad>57</ns3:cad>
          </ns3:TrackPointExtension>
        </extensions>
      </trkpt>
      <trkpt lat="37.7432407625019550323486328125" lon="-107.7135036326944828033447265625">
        <ele>3339.800048828125</ele>
        <time>2023-07-29T13:03:47.000Z</time>
        <extensions>
          <ns3:TrackPointExtension>
            <ns3:hr>79</ns3:hr>
            <ns3:cad>57</ns3:cad>
          </ns3:TrackPointExtension>
        </extensions>
      </trkpt>
      <trkpt lat="37.74324805475771427154541015625" lon="-107.7135123498737812042236328125">
        <ele>3339.800048828125</ele>
        <time>2023-07-29T13:03:48.000Z</time>
        <extensions>
          <ns3:TrackPointExtension>
            <ns3:hr>79</ns3:hr>
            <ns3:cad>59</ns3:cad>
          </ns3:TrackPointExtension>
        </extensions>
      </trkpt>
      <trkpt lat="37.74325668811798095703125" lon="-107.71352333016693592071533203125">
        <ele>3339.800048828125</ele>
        <time>2023-07-29T13:03:49.000Z</time>
        <extensions>
          <ns3:TrackPointExtension>
            <ns3:hr>79</ns3:hr>
            <ns3:cad>59</ns3:cad>
          </ns3:TrackPointExtension>
        </extensions>
      </trkpt>
      <trkpt lat="37.74327537976205348968505859375" lon="-107.7135374955832958221435546875">
        <ele>3339.60009765625</ele>
        <time>2023-07-29T13:03:50.000Z</time>
        <extensions>
          <ns3:TrackPointExtension>
            <ns3:hr>79</ns3:hr>
            <ns3:cad>58</ns3:cad>
          </ns3:TrackPointExtension>
        </extensions>
      </trkpt>
      <trkpt lat="37.74328661151230335235595703125" lon="-107.713553421199321746826171875">
        <ele>3339.60009765625</ele>
        <time>2023-07-29T13:03:51.000Z</time>
        <extensions>
          <ns3:TrackPointExtension>
            <ns3:hr>79</ns3:hr>
            <ns3:cad>58</ns3:cad>
          </ns3:TrackPointExtension>
        </extensions>
      </trkpt>
      <trkpt lat="37.7432974241673946380615234375" lon="-107.7135656587779521942138671875">
        <ele>3339.39990234375</ele>
        <time>2023-07-29T13:03:52.000Z</time>
        <extensions>
          <ns3:TrackPointExtension>
            <ns3:hr>79</ns3:hr>
            <ns3:cad>58</ns3:cad>
          </ns3:TrackPointExtension>
        </extensions>
      </trkpt>
      <trkpt lat="37.74330966174602508544921875" lon="-107.71357898600399494171142578125">
        <ele>3339.39990234375</ele>
        <time>2023-07-29T13:03:53.000Z</time>
        <extensions>
          <ns3:TrackPointExtension>
            <ns3:hr>79</ns3:hr>
            <ns3:cad>58</ns3:cad>
          </ns3:TrackPointExtension>
        </extensions>
      </trkpt>
      <trkpt lat="37.743318043649196624755859375" lon="-107.71359273232519626617431640625">
        <ele>3339.39990234375</ele>
        <time>2023-07-29T13:03:54.000Z</time>
        <extensions>
          <ns3:TrackPointExtension>
            <ns3:hr>79</ns3:hr>
            <ns3:cad>58</ns3:cad>
          </ns3:TrackPointExtension>
        </extensions>
      </trkpt>
      <trkpt lat="37.7433296106755733489990234375" lon="-107.71360429935157299041748046875">
        <ele>3339.39990234375</ele>
        <time>2023-07-29T13:03:55.000Z</time>
        <extensions>
          <ns3:TrackPointExtension>
            <ns3:hr>80</ns3:hr>
            <ns3:cad>57</ns3:cad>
          </ns3:TrackPointExtension>
        </extensions>
      </trkpt>
      <trkpt lat="37.74333941750228404998779296875" lon="-107.7136129327118396759033203125">
        <ele>3339.199951171875</ele>
        <time>2023-07-29T13:03:56.000Z</time>
        <extensions>
          <ns3:TrackPointExtension>
            <ns3:hr>79</ns3:hr>
            <ns3:cad>57</ns3:cad>
          </ns3:TrackPointExtension>
        </extensions>
      </trkpt>
      <trkpt lat="37.743349559605121612548828125" lon="-107.7136286906898021697998046875">
        <ele>3339.199951171875</ele>
        <time>2023-07-29T13:03:57.000Z</time>
        <extensions>
          <ns3:TrackPointExtension>
            <ns3:hr>79</ns3:hr>
            <ns3:cad>57</ns3:cad>
          </ns3:TrackPointExtension>
        </extensions>
      </trkpt>
      <trkpt lat="37.74336640723049640655517578125" lon="-107.7136481367051601409912109375">
        <ele>3339.199951171875</ele>
        <time>2023-07-29T13:03:58.000Z</time>
        <extensions>
          <ns3:TrackPointExtension>
            <ns3:hr>80</ns3:hr>
            <ns3:cad>57</ns3:cad>
          </ns3:TrackPointExtension>
        </extensions>
      </trkpt>
      <trkpt lat="37.74337680079042911529541015625" lon="-107.7136638946831226348876953125">
        <ele>3339.199951171875</ele>
        <time>2023-07-29T13:03:59.000Z</time>
        <extensions>
          <ns3:TrackPointExtension>
            <ns3:hr>80</ns3:hr>
            <ns3:cad>0</ns3:cad>
          </ns3:TrackPointExtension>
        </extensions>
      </trkpt>
      <trkpt lat="37.74340152740478515625" lon="-107.713688872754573822021484375">
        <ele>3339</ele>
        <time>2023-07-29T13:04:00.000Z</time>
        <extensions>
          <ns3:TrackPointExtension>
            <ns3:hr>80</ns3:hr>
            <ns3:cad>0</ns3:cad>
          </ns3:TrackPointExtension>
        </extensions>
      </trkpt>
      <trkpt lat="37.74341334588825702667236328125" lon="-107.7136985957622528076171875">
        <ele>3339</ele>
        <time>2023-07-29T13:04:01.000Z</time>
        <extensions>
          <ns3:TrackPointExtension>
            <ns3:hr>80</ns3:hr>
            <ns3:cad>0</ns3:cad>
          </ns3:TrackPointExtension>
        </extensions>
      </trkpt>
      <trkpt lat="37.74343597702682018280029296875" lon="-107.71371963433921337127685546875">
        <ele>3338.800048828125</ele>
        <time>2023-07-29T13:04:02.000Z</time>
        <extensions>
          <ns3:TrackPointExtension>
            <ns3:hr>80</ns3:hr>
            <ns3:cad>0</ns3:cad>
          </ns3:TrackPointExtension>
        </extensions>
      </trkpt>
      <trkpt lat="37.74345559068024158477783203125" lon="-107.71374427713453769683837890625">
        <ele>3338.60009765625</ele>
        <time>2023-07-29T13:04:03.000Z</time>
        <extensions>
          <ns3:TrackPointExtension>
            <ns3:hr>80</ns3:hr>
            <ns3:cad>62</ns3:cad>
          </ns3:TrackPointExtension>
        </extensions>
      </trkpt>
      <trkpt lat="37.74346414022147655487060546875" lon="-107.71375819109380245208740234375">
        <ele>3338.60009765625</ele>
        <time>2023-07-29T13:04:04.000Z</time>
        <extensions>
          <ns3:TrackPointExtension>
            <ns3:hr>80</ns3:hr>
            <ns3:cad>62</ns3:cad>
          </ns3:TrackPointExtension>
        </extensions>
      </trkpt>
      <trkpt lat="37.7434801496565341949462890625" lon="-107.7137809060513973236083984375">
        <ele>3338.60009765625</ele>
        <time>2023-07-29T13:04:05.000Z</time>
        <extensions>
          <ns3:TrackPointExtension>
            <ns3:hr>80</ns3:hr>
            <ns3:cad>59</ns3:cad>
          </ns3:TrackPointExtension>
        </extensions>
      </trkpt>
      <trkpt lat="37.74349112994968891143798828125" lon="-107.71380010060966014862060546875">
        <ele>3338.60009765625</ele>
        <time>2023-07-29T13:04:06.000Z</time>
        <extensions>
          <ns3:TrackPointExtension>
            <ns3:hr>81</ns3:hr>
            <ns3:cad>59</ns3:cad>
          </ns3:TrackPointExtension>
        </extensions>
      </trkpt>
      <trkpt lat="37.74349599145352840423583984375" lon="-107.71381233818829059600830078125">
        <ele>3338.60009765625</ele>
        <time>2023-07-29T13:04:07.000Z</time>
        <extensions>
          <ns3:TrackPointExtension>
            <ns3:hr>81</ns3:hr>
            <ns3:cad>59</ns3:cad>
          </ns3:TrackPointExtension>
        </extensions>
      </trkpt>
      <trkpt lat="37.74350018240511417388916015625" lon="-107.7138244919478893280029296875">
        <ele>3338.60009765625</ele>
        <time>2023-07-29T13:04:08.000Z</time>
        <extensions>
          <ns3:TrackPointExtension>
            <ns3:hr>80</ns3:hr>
            <ns3:cad>59</ns3:cad>
          </ns3:TrackPointExtension>
        </extensions>
      </trkpt>
      <trkpt lat="37.7434999309480190277099609375" lon="-107.71383932791650295257568359375">
        <ele>3338.60009765625</ele>
        <time>2023-07-29T13:04:09.000Z</time>
        <extensions>
          <ns3:TrackPointExtension>
            <ns3:hr>80</ns3:hr>
            <ns3:cad>59</ns3:cad>
          </ns3:TrackPointExtension>
        </extensions>
      </trkpt>
      <trkpt lat="37.74349917657673358917236328125" lon="-107.713848464190959930419921875">
        <ele>3338.60009765625</ele>
        <time>2023-07-29T13:04:10.000Z</time>
        <extensions>
          <ns3:TrackPointExtension>
            <ns3:hr>80</ns3:hr>
            <ns3:cad>58</ns3:cad>
          </ns3:TrackPointExtension>
        </extensions>
      </trkpt>
      <trkpt lat="37.74349951185286045074462890625" lon="-107.71385910920798778533935546875">
        <ele>3339</ele>
        <time>2023-07-29T13:04:11.000Z</time>
        <extensions>
          <ns3:TrackPointExtension>
            <ns3:hr>80</ns3:hr>
            <ns3:cad>58</ns3:cad>
          </ns3:TrackPointExtension>
        </extensions>
      </trkpt>
      <trkpt lat="37.74350336752831935882568359375" lon="-107.71387419663369655609130859375">
        <ele>3339.199951171875</ele>
        <time>2023-07-29T13:04:12.000Z</time>
        <extensions>
          <ns3:TrackPointExtension>
            <ns3:hr>80</ns3:hr>
            <ns3:cad>58</ns3:cad>
          </ns3:TrackPointExtension>
        </extensions>
      </trkpt>
      <trkpt lat="37.7435074746608734130859375" lon="-107.71388727240264415740966796875">
        <ele>3339.199951171875</ele>
        <time>2023-07-29T13:04:13.000Z</time>
        <extensions>
          <ns3:TrackPointExtension>
            <ns3:hr>80</ns3:hr>
            <ns3:cad>58</ns3:cad>
          </ns3:TrackPointExtension>
        </extensions>
      </trkpt>
      <trkpt lat="37.74351007305085659027099609375" lon="-107.7139036171138286590576171875">
        <ele>3339.39990234375</ele>
        <time>2023-07-29T13:04:14.000Z</time>
        <extensions>
          <ns3:TrackPointExtension>
            <ns3:hr>80</ns3:hr>
            <ns3:cad>58</ns3:cad>
          </ns3:TrackPointExtension>
        </extensions>
      </trkpt>
      <trkpt lat="37.7435163594782352447509765625" lon="-107.71392381750047206878662109375">
        <ele>3339.60009765625</ele>
        <time>2023-07-29T13:04:15.000Z</time>
        <extensions>
          <ns3:TrackPointExtension>
            <ns3:hr>80</ns3:hr>
            <ns3:cad>58</ns3:cad>
          </ns3:TrackPointExtension>
        </extensions>
      </trkpt>
      <trkpt lat="37.74351845495402812957763671875" lon="-107.71393320523202419281005859375">
        <ele>3339.800048828125</ele>
        <time>2023-07-29T13:04:16.000Z</time>
        <extensions>
          <ns3:TrackPointExtension>
            <ns3:hr>79</ns3:hr>
            <ns3:cad>58</ns3:cad>
          </ns3:TrackPointExtension>
        </extensions>
      </trkpt>
      <trkpt lat="37.743520550429821014404296875" lon="-107.71394443698227405548095703125">
        <ele>3339.800048828125</ele>
        <time>2023-07-29T13:04:17.000Z</time>
        <extensions>
          <ns3:TrackPointExtension>
            <ns3:hr>79</ns3:hr>
            <ns3:cad>58</ns3:cad>
          </ns3:TrackPointExtension>
        </extensions>
      </trkpt>
      <trkpt lat="37.74351929314434528350830078125" lon="-107.713952399790287017822265625">
        <ele>3340</ele>
        <time>2023-07-29T13:04:18.000Z</time>
        <extensions>
          <ns3:TrackPointExtension>
            <ns3:hr>80</ns3:hr>
            <ns3:cad>58</ns3:cad>
          </ns3:TrackPointExtension>
        </extensions>
      </trkpt>
      <trkpt lat="37.74352046661078929901123046875" lon="-107.71396053023636341094970703125">
        <ele>3340.199951171875</ele>
        <time>2023-07-29T13:04:19.000Z</time>
        <extensions>
          <ns3:TrackPointExtension>
            <ns3:hr>80</ns3:hr>
            <ns3:cad>59</ns3:cad>
          </ns3:TrackPointExtension>
        </extensions>
      </trkpt>
      <trkpt lat="37.7435200475156307220458984375" lon="-107.713967151939868927001953125">
        <ele>3340.199951171875</ele>
        <time>2023-07-29T13:04:20.000Z</time>
        <extensions>
          <ns3:TrackPointExtension>
            <ns3:hr>80</ns3:hr>
            <ns3:cad>59</ns3:cad>
          </ns3:TrackPointExtension>
        </extensions>
      </trkpt>
      <trkpt lat="37.74351996369659900665283203125" lon="-107.71397796459496021270751953125">
        <ele>3340.39990234375</ele>
        <time>2023-07-29T13:04:21.000Z</time>
        <extensions>
          <ns3:TrackPointExtension>
            <ns3:hr>80</ns3:hr>
            <ns3:cad>59</ns3:cad>
          </ns3:TrackPointExtension>
        </extensions>
      </trkpt>
      <trkpt lat="37.7435203827917575836181640625" lon="-107.71398467011749744415283203125">
        <ele>3340.39990234375</ele>
        <time>2023-07-29T13:04:22.000Z</time>
        <extensions>
          <ns3:TrackPointExtension>
            <ns3:hr>80</ns3:hr>
            <ns3:cad>59</ns3:cad>
          </ns3:TrackPointExtension>
        </extensions>
      </trkpt>
      <trkpt lat="37.74352381937205791473388671875" lon="-107.71400109864771366119384765625">
        <ele>3340.60009765625</ele>
        <time>2023-07-29T13:04:23.000Z</time>
        <extensions>
          <ns3:TrackPointExtension>
            <ns3:hr>80</ns3:hr>
            <ns3:cad>59</ns3:cad>
          </ns3:TrackPointExtension>
        </extensions>
      </trkpt>
      <trkpt lat="37.74352231062948703765869140625" lon="-107.71401417441666126251220703125">
        <ele>3340.800048828125</ele>
        <time>2023-07-29T13:04:24.000Z</time>
        <extensions>
          <ns3:TrackPointExtension>
            <ns3:hr>81</ns3:hr>
            <ns3:cad>59</ns3:cad>
          </ns3:TrackPointExtension>
        </extensions>
      </trkpt>
      <trkpt lat="37.74352247826755046844482421875" lon="-107.714028172194957733154296875">
        <ele>3340.800048828125</ele>
        <time>2023-07-29T13:04:25.000Z</time>
        <extensions>
          <ns3:TrackPointExtension>
            <ns3:hr>82</ns3:hr>
            <ns3:cad>59</ns3:cad>
          </ns3:TrackPointExtension>
        </extensions>
      </trkpt>
      <trkpt lat="37.74352281354367733001708984375" lon="-107.71404334343969821929931640625">
        <ele>3341</ele>
        <time>2023-07-29T13:04:26.000Z</time>
        <extensions>
          <ns3:TrackPointExtension>
            <ns3:hr>83</ns3:hr>
            <ns3:cad>57</ns3:cad>
          </ns3:TrackPointExtension>
        </extensions>
      </trkpt>
      <trkpt lat="37.74352398701012134552001953125" lon="-107.714064382016658782958984375">
        <ele>3341.199951171875</ele>
        <time>2023-07-29T13:04:27.000Z</time>
        <extensions>
          <ns3:TrackPointExtension>
            <ns3:hr>83</ns3:hr>
            <ns3:cad>56</ns3:cad>
          </ns3:TrackPointExtension>
        </extensions>
      </trkpt>
      <trkpt lat="37.7435260824859142303466796875" lon="-107.71408391185104846954345703125">
        <ele>3341.199951171875</ele>
        <time>2023-07-29T13:04:28.000Z</time>
        <extensions>
          <ns3:TrackPointExtension>
            <ns3:hr>84</ns3:hr>
            <ns3:cad>56</ns3:cad>
          </ns3:TrackPointExtension>
        </extensions>
      </trkpt>
      <trkpt lat="37.74352985434234142303466796875" lon="-107.714104615151882171630859375">
        <ele>3341.39990234375</ele>
        <time>2023-07-29T13:04:29.000Z</time>
        <extensions>
          <ns3:TrackPointExtension>
            <ns3:hr>85</ns3:hr>
            <ns3:cad>56</ns3:cad>
          </ns3:TrackPointExtension>
        </extensions>
      </trkpt>
      <trkpt lat="37.7435358054935932159423828125" lon="-107.714126408100128173828125">
        <ele>3341.39990234375</ele>
        <time>2023-07-29T13:04:30.000Z</time>
        <extensions>
          <ns3:TrackPointExtension>
            <ns3:hr>86</ns3:hr>
            <ns3:cad>57</ns3:cad>
          </ns3:TrackPointExtension>
        </extensions>
      </trkpt>
      <trkpt lat="37.74354577995836734771728515625" lon="-107.71415029652416706085205078125">
        <ele>3341.60009765625</ele>
        <time>2023-07-29T13:04:31.000Z</time>
        <extensions>
          <ns3:TrackPointExtension>
            <ns3:hr>86</ns3:hr>
            <ns3:cad>56</ns3:cad>
          </ns3:TrackPointExtension>
        </extensions>
      </trkpt>
      <trkpt lat="37.74355013854801654815673828125" lon="-107.714161612093448638916015625">
        <ele>3341.800048828125</ele>
        <time>2023-07-29T13:04:32.000Z</time>
        <extensions>
          <ns3:TrackPointExtension>
            <ns3:hr>87</ns3:hr>
            <ns3:cad>56</ns3:cad>
          </ns3:TrackPointExtension>
        </extensions>
      </trkpt>
      <trkpt lat="37.7435565926134586334228515625" lon="-107.7141701616346836090087890625">
        <ele>3341.800048828125</ele>
        <time>2023-07-29T13:04:33.000Z</time>
        <extensions>
          <ns3:TrackPointExtension>
            <ns3:hr>88</ns3:hr>
            <ns3:cad>55</ns3:cad>
          </ns3:TrackPointExtension>
        </extensions>
      </trkpt>
      <trkpt lat="37.7435673214495182037353515625" lon="-107.71418231539428234100341796875">
        <ele>3342</ele>
        <time>2023-07-29T13:04:34.000Z</time>
        <extensions>
          <ns3:TrackPointExtension>
            <ns3:hr>88</ns3:hr>
            <ns3:cad>55</ns3:cad>
          </ns3:TrackPointExtension>
        </extensions>
      </trkpt>
      <trkpt lat="37.74357863701879978179931640625" lon="-107.7141936309635639190673828125">
        <ele>3342</ele>
        <time>2023-07-29T13:04:35.000Z</time>
        <extensions>
          <ns3:TrackPointExtension>
            <ns3:hr>89</ns3:hr>
            <ns3:cad>55</ns3:cad>
          </ns3:TrackPointExtension>
        </extensions>
      </trkpt>
      <trkpt lat="37.7435864321887493133544921875" lon="-107.7142020128667354583740234375">
        <ele>3342.199951171875</ele>
        <time>2023-07-29T13:04:36.000Z</time>
        <extensions>
          <ns3:TrackPointExtension>
            <ns3:hr>89</ns3:hr>
            <ns3:cad>55</ns3:cad>
          </ns3:TrackPointExtension>
        </extensions>
      </trkpt>
      <trkpt lat="37.743601016700267791748046875" lon="-107.7142108976840972900390625">
        <ele>3342.39990234375</ele>
        <time>2023-07-29T13:04:37.000Z</time>
        <extensions>
          <ns3:TrackPointExtension>
            <ns3:hr>90</ns3:hr>
            <ns3:cad>56</ns3:cad>
          </ns3:TrackPointExtension>
        </extensions>
      </trkpt>
      <trkpt lat="37.74361736141145229339599609375" lon="-107.71421936340630054473876953125">
        <ele>3342.39990234375</ele>
        <time>2023-07-29T13:04:38.000Z</time>
        <extensions>
          <ns3:TrackPointExtension>
            <ns3:hr>90</ns3:hr>
            <ns3:cad>56</ns3:cad>
          </ns3:TrackPointExtension>
        </extensions>
      </trkpt>
      <trkpt lat="37.74362993426620960235595703125" lon="-107.7142254821956157684326171875">
        <ele>3342.800048828125</ele>
        <time>2023-07-29T13:04:39.000Z</time>
        <extensions>
          <ns3:TrackPointExtension>
            <ns3:hr>91</ns3:hr>
            <ns3:cad>56</ns3:cad>
          </ns3:TrackPointExtension>
        </extensions>
      </trkpt>
      <trkpt lat="37.74364904500544071197509765625" lon="-107.71423327736556529998779296875">
        <ele>3342.800048828125</ele>
        <time>2023-07-29T13:04:40.000Z</time>
        <extensions>
          <ns3:TrackPointExtension>
            <ns3:hr>91</ns3:hr>
            <ns3:cad>57</ns3:cad>
          </ns3:TrackPointExtension>
        </extensions>
      </trkpt>
      <trkpt lat="37.7436611987650394439697265625" lon="-107.71423545666038990020751953125">
        <ele>3343</ele>
        <time>2023-07-29T13:04:41.000Z</time>
        <extensions>
          <ns3:TrackPointExtension>
            <ns3:hr>91</ns3:hr>
            <ns3:cad>57</ns3:cad>
          </ns3:TrackPointExtension>
        </extensions>
      </trkpt>
      <trkpt lat="37.74367569945752620697021484375" lon="-107.71423830650746822357177734375">
        <ele>3343</ele>
        <time>2023-07-29T13:04:42.000Z</time>
        <extensions>
          <ns3:TrackPointExtension>
            <ns3:hr>92</ns3:hr>
            <ns3:cad>56</ns3:cad>
          </ns3:TrackPointExtension>
        </extensions>
      </trkpt>
      <trkpt lat="37.74368458427488803863525390625" lon="-107.7142409048974514007568359375">
        <ele>3343.199951171875</ele>
        <time>2023-07-29T13:04:43.000Z</time>
        <extensions>
          <ns3:TrackPointExtension>
            <ns3:hr>92</ns3:hr>
            <ns3:cad>56</ns3:cad>
          </ns3:TrackPointExtension>
        </extensions>
      </trkpt>
      <trkpt lat="37.7436913736164569854736328125" lon="-107.71424232982099056243896484375">
        <ele>3343.199951171875</ele>
        <time>2023-07-29T13:04:44.000Z</time>
        <extensions>
          <ns3:TrackPointExtension>
            <ns3:hr>93</ns3:hr>
            <ns3:cad>56</ns3:cad>
          </ns3:TrackPointExtension>
        </extensions>
      </trkpt>
      <trkpt lat="37.7437034435570240020751953125" lon="-107.71424635313451290130615234375">
        <ele>3343.39990234375</ele>
        <time>2023-07-29T13:04:45.000Z</time>
        <extensions>
          <ns3:TrackPointExtension>
            <ns3:hr>93</ns3:hr>
            <ns3:cad>56</ns3:cad>
          </ns3:TrackPointExtension>
        </extensions>
      </trkpt>
      <trkpt lat="37.7437128312885761260986328125" lon="-107.714248783886432647705078125">
        <ele>3343.39990234375</ele>
        <time>2023-07-29T13:04:46.000Z</time>
        <extensions>
          <ns3:TrackPointExtension>
            <ns3:hr>94</ns3:hr>
            <ns3:cad>56</ns3:cad>
          </ns3:TrackPointExtension>
        </extensions>
      </trkpt>
      <trkpt lat="37.7437262423336505889892578125" lon="-107.71425238810479640960693359375">
        <ele>3343.39990234375</ele>
        <time>2023-07-29T13:04:47.000Z</time>
        <extensions>
          <ns3:TrackPointExtension>
            <ns3:hr>94</ns3:hr>
            <ns3:cad>56</ns3:cad>
          </ns3:TrackPointExtension>
        </extensions>
      </trkpt>
      <trkpt lat="37.7437366358935832977294921875" lon="-107.714253477752208709716796875">
        <ele>3343.60009765625</ele>
        <time>2023-07-29T13:04:48.000Z</time>
        <extensions>
          <ns3:TrackPointExtension>
            <ns3:hr>93</ns3:hr>
            <ns3:cad>56</ns3:cad>
          </ns3:TrackPointExtension>
        </extensions>
      </trkpt>
      <trkpt lat="37.74374325759708881378173828125" lon="-107.714255154132843017578125">
        <ele>3343.60009765625</ele>
        <time>2023-07-29T13:04:49.000Z</time>
        <extensions>
          <ns3:TrackPointExtension>
            <ns3:hr>94</ns3:hr>
            <ns3:cad>56</ns3:cad>
          </ns3:TrackPointExtension>
        </extensions>
      </trkpt>
      <trkpt lat="37.7437466941773891448974609375" lon="-107.71425582468509674072265625">
        <ele>3343.60009765625</ele>
        <time>2023-07-29T13:04:50.000Z</time>
        <extensions>
          <ns3:TrackPointExtension>
            <ns3:hr>94</ns3:hr>
            <ns3:cad>56</ns3:cad>
          </ns3:TrackPointExtension>
        </extensions>
      </trkpt>
      <trkpt lat="37.74375180713832378387451171875" lon="-107.71425180137157440185546875">
        <ele>3343.60009765625</ele>
        <time>2023-07-29T13:04:51.000Z</time>
        <extensions>
          <ns3:TrackPointExtension>
            <ns3:hr>94</ns3:hr>
            <ns3:cad>58</ns3:cad>
          </ns3:TrackPointExtension>
        </extensions>
      </trkpt>
      <trkpt lat="37.7437611110508441925048828125" lon="-107.7142476104199886322021484375">
        <ele>3343.800048828125</ele>
        <time>2023-07-29T13:04:52.000Z</time>
        <extensions>
          <ns3:TrackPointExtension>
            <ns3:hr>94</ns3:hr>
            <ns3:cad>58</ns3:cad>
          </ns3:TrackPointExtension>
        </extensions>
      </trkpt>
      <trkpt lat="37.74377225898206233978271484375" lon="-107.71424450911581516265869140625">
        <ele>3344</ele>
        <time>2023-07-29T13:04:53.000Z</time>
        <extensions>
          <ns3:TrackPointExtension>
            <ns3:hr>94</ns3:hr>
            <ns3:cad>58</ns3:cad>
          </ns3:TrackPointExtension>
        </extensions>
      </trkpt>
      <trkpt lat="37.74378466419875621795654296875" lon="-107.71423981525003910064697265625">
        <ele>3344</ele>
        <time>2023-07-29T13:04:54.000Z</time>
        <extensions>
          <ns3:TrackPointExtension>
            <ns3:hr>93</ns3:hr>
            <ns3:cad>58</ns3:cad>
          </ns3:TrackPointExtension>
        </extensions>
      </trkpt>
      <trkpt lat="37.74380243383347988128662109375" lon="-107.7142382226884365081787109375">
        <ele>3344</ele>
        <time>2023-07-29T13:04:55.000Z</time>
        <extensions>
          <ns3:TrackPointExtension>
            <ns3:hr>93</ns3:hr>
            <ns3:cad>58</ns3:cad>
          </ns3:TrackPointExtension>
        </extensions>
      </trkpt>
      <trkpt lat="37.743825651705265045166015625" lon="-107.71423143334686756134033203125">
        <ele>3344</ele>
        <time>2023-07-29T13:04:56.000Z</time>
        <extensions>
          <ns3:TrackPointExtension>
            <ns3:hr>94</ns3:hr>
            <ns3:cad>57</ns3:cad>
          </ns3:TrackPointExtension>
        </extensions>
      </trkpt>
      <trkpt lat="37.74384350515902042388916015625" lon="-107.71422808058559894561767578125">
        <ele>3344</ele>
        <time>2023-07-29T13:04:57.000Z</time>
        <extensions>
          <ns3:TrackPointExtension>
            <ns3:hr>94</ns3:hr>
            <ns3:cad>57</ns3:cad>
          </ns3:TrackPointExtension>
        </extensions>
      </trkpt>
      <trkpt lat="37.74386144243180751800537109375" lon="-107.71422564983367919921875">
        <ele>3344</ele>
        <time>2023-07-29T13:04:58.000Z</time>
        <extensions>
          <ns3:TrackPointExtension>
            <ns3:hr>94</ns3:hr>
            <ns3:cad>57</ns3:cad>
          </ns3:TrackPointExtension>
        </extensions>
      </trkpt>
      <trkpt lat="37.7438794635236263275146484375" lon="-107.7142224647104740142822265625">
        <ele>3344</ele>
        <time>2023-07-29T13:04:59.000Z</time>
        <extensions>
          <ns3:TrackPointExtension>
            <ns3:hr>95</ns3:hr>
            <ns3:cad>57</ns3:cad>
          </ns3:TrackPointExtension>
        </extensions>
      </trkpt>
      <trkpt lat="37.743894048035144805908203125" lon="-107.714218609035015106201171875">
        <ele>3344</ele>
        <time>2023-07-29T13:05:00.000Z</time>
        <extensions>
          <ns3:TrackPointExtension>
            <ns3:hr>95</ns3:hr>
            <ns3:cad>57</ns3:cad>
          </ns3:TrackPointExtension>
        </extensions>
      </trkpt>
      <trkpt lat="37.7439178526401519775390625" lon="-107.7142147533595561981201171875">
        <ele>3344.199951171875</ele>
        <time>2023-07-29T13:05:01.000Z</time>
        <extensions>
          <ns3:TrackPointExtension>
            <ns3:hr>96</ns3:hr>
            <ns3:cad>57</ns3:cad>
          </ns3:TrackPointExtension>
        </extensions>
      </trkpt>
      <trkpt lat="37.74393587373197078704833984375" lon="-107.7142077125608921051025390625">
        <ele>3344.199951171875</ele>
        <time>2023-07-29T13:05:02.000Z</time>
        <extensions>
          <ns3:TrackPointExtension>
            <ns3:hr>97</ns3:hr>
            <ns3:cad>57</ns3:cad>
          </ns3:TrackPointExtension>
        </extensions>
      </trkpt>
      <trkpt lat="37.74395129643380641937255859375" lon="-107.71420595236122608184814453125">
        <ele>3344.199951171875</ele>
        <time>2023-07-29T13:05:03.000Z</time>
        <extensions>
          <ns3:TrackPointExtension>
            <ns3:hr>98</ns3:hr>
            <ns3:cad>57</ns3:cad>
          </ns3:TrackPointExtension>
        </extensions>
      </trkpt>
      <trkpt lat="37.743967808783054351806640625" lon="-107.7142073772847652435302734375">
        <ele>3344.199951171875</ele>
        <time>2023-07-29T13:05:04.000Z</time>
        <extensions>
          <ns3:TrackPointExtension>
            <ns3:hr>98</ns3:hr>
            <ns3:cad>58</ns3:cad>
          </ns3:TrackPointExtension>
        </extensions>
      </trkpt>
      <trkpt lat="37.74398423731327056884765625" lon="-107.71421114914119243621826171875">
        <ele>3344.199951171875</ele>
        <time>2023-07-29T13:05:05.000Z</time>
        <extensions>
          <ns3:TrackPointExtension>
            <ns3:hr>98</ns3:hr>
            <ns3:cad>58</ns3:cad>
          </ns3:TrackPointExtension>
        </extensions>
      </trkpt>
      <trkpt lat="37.74400091730058193206787109375" lon="-107.71421332843601703643798828125">
        <ele>3344.199951171875</ele>
        <time>2023-07-29T13:05:06.000Z</time>
        <extensions>
          <ns3:TrackPointExtension>
            <ns3:hr>98</ns3:hr>
            <ns3:cad>57</ns3:cad>
          </ns3:TrackPointExtension>
        </extensions>
      </trkpt>
      <trkpt lat="37.7440130710601806640625" lon="-107.71421559154987335205078125">
        <ele>3344.39990234375</ele>
        <time>2023-07-29T13:05:07.000Z</time>
        <extensions>
          <ns3:TrackPointExtension>
            <ns3:hr>99</ns3:hr>
            <ns3:cad>57</ns3:cad>
          </ns3:TrackPointExtension>
        </extensions>
      </trkpt>
      <trkpt lat="37.7440065331757068634033203125" lon="-107.7141996659338474273681640625">
        <ele>3344.39990234375</ele>
        <time>2023-07-29T13:05:08.000Z</time>
        <extensions>
          <ns3:TrackPointExtension>
            <ns3:hr>99</ns3:hr>
            <ns3:cad>57</ns3:cad>
          </ns3:TrackPointExtension>
        </extensions>
      </trkpt>
      <trkpt lat="37.74405204690992832183837890625" lon="-107.71422640420496463775634765625">
        <ele>3344.39990234375</ele>
        <time>2023-07-29T13:05:11.000Z</time>
        <extensions>
          <ns3:TrackPointExtension>
            <ns3:hr>100</ns3:hr>
            <ns3:cad>57</ns3:cad>
          </ns3:TrackPointExtension>
        </extensions>
      </trkpt>
      <trkpt lat="37.74407333694398403167724609375" lon="-107.71423512138426303863525390625">
        <ele>3344.39990234375</ele>
        <time>2023-07-29T13:05:12.000Z</time>
        <extensions>
          <ns3:TrackPointExtension>
            <ns3:hr>100</ns3:hr>
            <ns3:cad>57</ns3:cad>
          </ns3:TrackPointExtension>
        </extensions>
      </trkpt>
      <trkpt lat="37.74408959783613681793212890625" lon="-107.71424434147775173187255859375">
        <ele>3344.39990234375</ele>
        <time>2023-07-29T13:05:13.000Z</time>
        <extensions>
          <ns3:TrackPointExtension>
            <ns3:hr>99</ns3:hr>
            <ns3:cad>57</ns3:cad>
          </ns3:TrackPointExtension>
        </extensions>
      </trkpt>
      <trkpt lat="37.74410284124314785003662109375" lon="-107.7142536453902721405029296875">
        <ele>3344.60009765625</ele>
        <time>2023-07-29T13:05:14.000Z</time>
        <extensions>
          <ns3:TrackPointExtension>
            <ns3:hr>99</ns3:hr>
            <ns3:cad>58</ns3:cad>
          </ns3:TrackPointExtension>
        </extensions>
      </trkpt>
      <trkpt lat="37.74411809630692005157470703125" lon="-107.71426646970212459564208984375">
        <ele>3344.60009765625</ele>
        <time>2023-07-29T13:05:15.000Z</time>
        <extensions>
          <ns3:TrackPointExtension>
            <ns3:hr>99</ns3:hr>
            <ns3:cad>58</ns3:cad>
          </ns3:TrackPointExtension>
        </extensions>
      </trkpt>
      <trkpt lat="37.74412262253463268280029296875" lon="-107.71427451632916927337646484375">
        <ele>3344.60009765625</ele>
        <time>2023-07-29T13:05:16.000Z</time>
        <extensions>
          <ns3:TrackPointExtension>
            <ns3:hr>99</ns3:hr>
            <ns3:cad>58</ns3:cad>
          </ns3:TrackPointExtension>
        </extensions>
      </trkpt>
      <trkpt lat="37.74413083679974079132080078125" lon="-107.71428692154586315155029296875">
        <ele>3344.800048828125</ele>
        <time>2023-07-29T13:05:17.000Z</time>
        <extensions>
          <ns3:TrackPointExtension>
            <ns3:hr>99</ns3:hr>
            <ns3:cad>58</ns3:cad>
          </ns3:TrackPointExtension>
        </extensions>
      </trkpt>
      <trkpt lat="37.74413368664681911468505859375" lon="-107.71429278887808322906494140625">
        <ele>3345</ele>
        <time>2023-07-29T13:05:18.000Z</time>
        <extensions>
          <ns3:TrackPointExtension>
            <ns3:hr>99</ns3:hr>
            <ns3:cad>57</ns3:cad>
          </ns3:TrackPointExtension>
        </extensions>
      </trkpt>
      <trkpt lat="37.74414173327386379241943359375" lon="-107.71430469118058681488037109375">
        <ele>3345.199951171875</ele>
        <time>2023-07-29T13:05:19.000Z</time>
        <extensions>
          <ns3:TrackPointExtension>
            <ns3:hr>99</ns3:hr>
            <ns3:cad>57</ns3:cad>
          </ns3:TrackPointExtension>
        </extensions>
      </trkpt>
      <trkpt lat="37.7441473491489887237548828125" lon="-107.71431474946439266204833984375">
        <ele>3345.199951171875</ele>
        <time>2023-07-29T13:05:20.000Z</time>
        <extensions>
          <ns3:TrackPointExtension>
            <ns3:hr>98</ns3:hr>
            <ns3:cad>57</ns3:cad>
          </ns3:TrackPointExtension>
        </extensions>
      </trkpt>
      <trkpt lat="37.7441517077386379241943359375" lon="-107.71432581357657909393310546875">
        <ele>3345.199951171875</ele>
        <time>2023-07-29T13:05:21.000Z</time>
        <extensions>
          <ns3:TrackPointExtension>
            <ns3:hr>98</ns3:hr>
            <ns3:cad>57</ns3:cad>
          </ns3:TrackPointExtension>
        </extensions>
      </trkpt>
      <trkpt lat="37.74415698833763599395751953125" lon="-107.7143367938697338104248046875">
        <ele>3345.39990234375</ele>
        <time>2023-07-29T13:05:22.000Z</time>
        <extensions>
          <ns3:TrackPointExtension>
            <ns3:hr>98</ns3:hr>
            <ns3:cad>57</ns3:cad>
          </ns3:TrackPointExtension>
        </extensions>
      </trkpt>
      <trkpt lat="37.74416319094598293304443359375" lon="-107.71434836089611053466796875">
        <ele>3345.39990234375</ele>
        <time>2023-07-29T13:05:23.000Z</time>
        <extensions>
          <ns3:TrackPointExtension>
            <ns3:hr>98</ns3:hr>
            <ns3:cad>57</ns3:cad>
          </ns3:TrackPointExtension>
        </extensions>
      </trkpt>
      <trkpt lat="37.74417106993496417999267578125" lon="-107.71436219103634357452392578125">
        <ele>3345.800048828125</ele>
        <time>2023-07-29T13:05:24.000Z</time>
        <extensions>
          <ns3:TrackPointExtension>
            <ns3:hr>98</ns3:hr>
            <ns3:cad>57</ns3:cad>
          </ns3:TrackPointExtension>
        </extensions>
      </trkpt>
      <trkpt lat="37.744183726608753204345703125" lon="-107.71437660790979862213134765625">
        <ele>3346</ele>
        <time>2023-07-29T13:05:25.000Z</time>
        <extensions>
          <ns3:TrackPointExtension>
            <ns3:hr>97</ns3:hr>
            <ns3:cad>57</ns3:cad>
          </ns3:TrackPointExtension>
        </extensions>
      </trkpt>
      <trkpt lat="37.74419252760708332061767578125" lon="-107.71438163705170154571533203125">
        <ele>3346.199951171875</ele>
        <time>2023-07-29T13:05:26.000Z</time>
        <extensions>
          <ns3:TrackPointExtension>
            <ns3:hr>97</ns3:hr>
            <ns3:cad>57</ns3:cad>
          </ns3:TrackPointExtension>
        </extensions>
      </trkpt>
      <trkpt lat="37.7442066930234432220458984375" lon="-107.7143917791545391082763671875">
        <ele>3346.199951171875</ele>
        <time>2023-07-29T13:05:27.000Z</time>
        <extensions>
          <ns3:TrackPointExtension>
            <ns3:hr>97</ns3:hr>
            <ns3:cad>61</ns3:cad>
          </ns3:TrackPointExtension>
        </extensions>
      </trkpt>
      <trkpt lat="37.74422270245850086212158203125" lon="-107.71440041251480579376220703125">
        <ele>3346.39990234375</ele>
        <time>2023-07-29T13:05:28.000Z</time>
        <extensions>
          <ns3:TrackPointExtension>
            <ns3:hr>97</ns3:hr>
            <ns3:cad>61</ns3:cad>
          </ns3:TrackPointExtension>
        </extensions>
      </trkpt>
      <trkpt lat="37.7442355267703533172607421875" lon="-107.714405357837677001953125">
        <ele>3346.60009765625</ele>
        <time>2023-07-29T13:05:29.000Z</time>
        <extensions>
          <ns3:TrackPointExtension>
            <ns3:hr>98</ns3:hr>
            <ns3:cad>61</ns3:cad>
          </ns3:TrackPointExtension>
        </extensions>
      </trkpt>
      <trkpt lat="37.74424902163445949554443359375" lon="-107.71441147662699222564697265625">
        <ele>3346.60009765625</ele>
        <time>2023-07-29T13:05:30.000Z</time>
        <extensions>
          <ns3:TrackPointExtension>
            <ns3:hr>98</ns3:hr>
            <ns3:cad>59</ns3:cad>
          </ns3:TrackPointExtension>
        </extensions>
      </trkpt>
      <trkpt lat="37.74425773881375789642333984375" lon="-107.7144174277782440185546875">
        <ele>3346.800048828125</ele>
        <time>2023-07-29T13:05:31.000Z</time>
        <extensions>
          <ns3:TrackPointExtension>
            <ns3:hr>98</ns3:hr>
            <ns3:cad>58</ns3:cad>
          </ns3:TrackPointExtension>
        </extensions>
      </trkpt>
      <trkpt lat="37.7442690543830394744873046875" lon="-107.71442614495754241943359375">
        <ele>3347.199951171875</ele>
        <time>2023-07-29T13:05:32.000Z</time>
        <extensions>
          <ns3:TrackPointExtension>
            <ns3:hr>98</ns3:hr>
            <ns3:cad>58</ns3:cad>
          </ns3:TrackPointExtension>
        </extensions>
      </trkpt>
      <trkpt lat="37.74427793920040130615234375" lon="-107.71443326957523822784423828125">
        <ele>3347.39990234375</ele>
        <time>2023-07-29T13:05:33.000Z</time>
        <extensions>
          <ns3:TrackPointExtension>
            <ns3:hr>98</ns3:hr>
            <ns3:cad>58</ns3:cad>
          </ns3:TrackPointExtension>
        </extensions>
      </trkpt>
      <trkpt lat="37.74428187869489192962646484375" lon="-107.71444232203066349029541015625">
        <ele>3347.39990234375</ele>
        <time>2023-07-29T13:05:34.000Z</time>
        <extensions>
          <ns3:TrackPointExtension>
            <ns3:hr>99</ns3:hr>
            <ns3:cad>56</ns3:cad>
          </ns3:TrackPointExtension>
        </extensions>
      </trkpt>
      <trkpt lat="37.74428187869489192962646484375" lon="-107.71445338614284992218017578125">
        <ele>3347.39990234375</ele>
        <time>2023-07-29T13:05:35.000Z</time>
        <extensions>
          <ns3:TrackPointExtension>
            <ns3:hr>99</ns3:hr>
            <ns3:cad>56</ns3:cad>
          </ns3:TrackPointExtension>
        </extensions>
      </trkpt>
      <trkpt lat="37.7442801184952259063720703125" lon="-107.7144678868353366851806640625">
        <ele>3347.60009765625</ele>
        <time>2023-07-29T13:05:36.000Z</time>
        <extensions>
          <ns3:TrackPointExtension>
            <ns3:hr>99</ns3:hr>
            <ns3:cad>56</ns3:cad>
          </ns3:TrackPointExtension>
        </extensions>
      </trkpt>
      <trkpt lat="37.74427634663879871368408203125" lon="-107.7144762687385082244873046875">
        <ele>3347.60009765625</ele>
        <time>2023-07-29T13:05:37.000Z</time>
        <extensions>
          <ns3:TrackPointExtension>
            <ns3:hr>99</ns3:hr>
            <ns3:cad>56</ns3:cad>
          </ns3:TrackPointExtension>
        </extensions>
      </trkpt>
      <trkpt lat="37.74427617900073528289794921875" lon="-107.71449026651680469512939453125">
        <ele>3347.800048828125</ele>
        <time>2023-07-29T13:05:38.000Z</time>
        <extensions>
          <ns3:TrackPointExtension>
            <ns3:hr>100</ns3:hr>
            <ns3:cad>57</ns3:cad>
          </ns3:TrackPointExtension>
        </extensions>
      </trkpt>
      <trkpt lat="37.74427550844848155975341796875" lon="-107.71450384519994258880615234375">
        <ele>3347.800048828125</ele>
        <time>2023-07-29T13:05:39.000Z</time>
        <extensions>
          <ns3:TrackPointExtension>
            <ns3:hr>100</ns3:hr>
            <ns3:cad>58</ns3:cad>
          </ns3:TrackPointExtension>
        </extensions>
      </trkpt>
      <trkpt lat="37.744278609752655029296875" lon="-107.71452002227306365966796875">
        <ele>3347.800048828125</ele>
        <time>2023-07-29T13:05:40.000Z</time>
        <extensions>
          <ns3:TrackPointExtension>
            <ns3:hr>100</ns3:hr>
            <ns3:cad>58</ns3:cad>
          </ns3:TrackPointExtension>
        </extensions>
      </trkpt>
      <trkpt lat="37.7442848123610019683837890625" lon="-107.7145342715084552764892578125">
        <ele>3347.800048828125</ele>
        <time>2023-07-29T13:05:41.000Z</time>
        <extensions>
          <ns3:TrackPointExtension>
            <ns3:hr>100</ns3:hr>
            <ns3:cad>58</ns3:cad>
          </ns3:TrackPointExtension>
        </extensions>
      </trkpt>
      <trkpt lat="37.744291685521602630615234375" lon="-107.7145503647625446319580078125">
        <ele>3348</ele>
        <time>2023-07-29T13:05:42.000Z</time>
        <extensions>
          <ns3:TrackPointExtension>
            <ns3:hr>100</ns3:hr>
            <ns3:cad>58</ns3:cad>
          </ns3:TrackPointExtension>
        </extensions>
      </trkpt>
      <trkpt lat="37.7443012408912181854248046875" lon="-107.71456427872180938720703125">
        <ele>3348.199951171875</ele>
        <time>2023-07-29T13:05:43.000Z</time>
        <extensions>
          <ns3:TrackPointExtension>
            <ns3:hr>100</ns3:hr>
            <ns3:cad>59</ns3:cad>
          </ns3:TrackPointExtension>
        </extensions>
      </trkpt>
      <trkpt lat="37.74431272409856319427490234375" lon="-107.71456964313983917236328125">
        <ele>3348.39990234375</ele>
        <time>2023-07-29T13:05:44.000Z</time>
        <extensions>
          <ns3:TrackPointExtension>
            <ns3:hr>101</ns3:hr>
            <ns3:cad>59</ns3:cad>
          </ns3:TrackPointExtension>
        </extensions>
      </trkpt>
      <trkpt lat="37.74432596750557422637939453125" lon="-107.714576683938503265380859375">
        <ele>3348.60009765625</ele>
        <time>2023-07-29T13:05:45.000Z</time>
        <extensions>
          <ns3:TrackPointExtension>
            <ns3:hr>101</ns3:hr>
            <ns3:cad>57</ns3:cad>
          </ns3:TrackPointExtension>
        </extensions>
      </trkpt>
      <trkpt lat="37.74433904327452182769775390625" lon="-107.7145842276513576507568359375">
        <ele>3348.800048828125</ele>
        <time>2023-07-29T13:05:46.000Z</time>
        <extensions>
          <ns3:TrackPointExtension>
            <ns3:hr>102</ns3:hr>
            <ns3:cad>57</ns3:cad>
          </ns3:TrackPointExtension>
        </extensions>
      </trkpt>
      <trkpt lat="37.7443501912057399749755859375" lon="-107.71458632312715053558349609375">
        <ele>3349</ele>
        <time>2023-07-29T13:05:47.000Z</time>
        <extensions>
          <ns3:TrackPointExtension>
            <ns3:hr>102</ns3:hr>
            <ns3:cad>56</ns3:cad>
          </ns3:TrackPointExtension>
        </extensions>
      </trkpt>
      <trkpt lat="37.7443642728030681610107421875" lon="-107.71459151990711688995361328125">
        <ele>3349</ele>
        <time>2023-07-29T13:05:48.000Z</time>
        <extensions>
          <ns3:TrackPointExtension>
            <ns3:hr>102</ns3:hr>
            <ns3:cad>56</ns3:cad>
          </ns3:TrackPointExtension>
        </extensions>
      </trkpt>
      <trkpt lat="37.74437206797301769256591796875" lon="-107.714593112468719482421875">
        <ele>3349.199951171875</ele>
        <time>2023-07-29T13:05:49.000Z</time>
        <extensions>
          <ns3:TrackPointExtension>
            <ns3:hr>102</ns3:hr>
            <ns3:cad>56</ns3:cad>
          </ns3:TrackPointExtension>
        </extensions>
      </trkpt>
      <trkpt lat="37.74438095279037952423095703125" lon="-107.71459654904901981353759765625">
        <ele>3349.39990234375</ele>
        <time>2023-07-29T13:05:50.000Z</time>
        <extensions>
          <ns3:TrackPointExtension>
            <ns3:hr>101</ns3:hr>
            <ns3:cad>57</ns3:cad>
          </ns3:TrackPointExtension>
        </extensions>
      </trkpt>
      <trkpt lat="37.74439335800707340240478515625" lon="-107.7145998179912567138671875">
        <ele>3349.60009765625</ele>
        <time>2023-07-29T13:05:51.000Z</time>
        <extensions>
          <ns3:TrackPointExtension>
            <ns3:hr>101</ns3:hr>
            <ns3:cad>57</ns3:cad>
          </ns3:TrackPointExtension>
        </extensions>
      </trkpt>
      <trkpt lat="37.7444088645279407501220703125" lon="-107.71460107527673244476318359375">
        <ele>3349.800048828125</ele>
        <time>2023-07-29T13:05:52.000Z</time>
        <extensions>
          <ns3:TrackPointExtension>
            <ns3:hr>101</ns3:hr>
            <ns3:cad>57</ns3:cad>
          </ns3:TrackPointExtension>
        </extensions>
      </trkpt>
      <trkpt lat="37.7444259636104106903076171875" lon="-107.7146019972860813140869140625">
        <ele>3349.800048828125</ele>
        <time>2023-07-29T13:05:53.000Z</time>
        <extensions>
          <ns3:TrackPointExtension>
            <ns3:hr>101</ns3:hr>
            <ns3:cad>57</ns3:cad>
          </ns3:TrackPointExtension>
        </extensions>
      </trkpt>
      <trkpt lat="37.74443677626550197601318359375" lon="-107.714601494371891021728515625">
        <ele>3350</ele>
        <time>2023-07-29T13:05:54.000Z</time>
        <extensions>
          <ns3:TrackPointExtension>
            <ns3:hr>101</ns3:hr>
            <ns3:cad>57</ns3:cad>
          </ns3:TrackPointExtension>
        </extensions>
      </trkpt>
      <trkpt lat="37.74445018731057643890380859375" lon="-107.71460057236254215240478515625">
        <ele>3350.199951171875</ele>
        <time>2023-07-29T13:05:55.000Z</time>
        <extensions>
          <ns3:TrackPointExtension>
            <ns3:hr>101</ns3:hr>
            <ns3:cad>58</ns3:cad>
          </ns3:TrackPointExtension>
        </extensions>
      </trkpt>
      <trkpt lat="37.74446435272693634033203125" lon="-107.71459646522998809814453125">
        <ele>3350.199951171875</ele>
        <time>2023-07-29T13:05:56.000Z</time>
        <extensions>
          <ns3:TrackPointExtension>
            <ns3:hr>102</ns3:hr>
            <ns3:cad>58</ns3:cad>
          </ns3:TrackPointExtension>
        </extensions>
      </trkpt>
      <trkpt lat="37.7444789372384548187255859375" lon="-107.7145859040319919586181640625">
        <ele>3350.39990234375</ele>
        <time>2023-07-29T13:05:57.000Z</time>
        <extensions>
          <ns3:TrackPointExtension>
            <ns3:hr>102</ns3:hr>
            <ns3:cad>58</ns3:cad>
          </ns3:TrackPointExtension>
        </extensions>
      </trkpt>
      <trkpt lat="37.7444946952164173126220703125" lon="-107.7145785279572010040283203125">
        <ele>3350.39990234375</ele>
        <time>2023-07-29T13:05:58.000Z</time>
        <extensions>
          <ns3:TrackPointExtension>
            <ns3:hr>102</ns3:hr>
            <ns3:cad>57</ns3:cad>
          </ns3:TrackPointExtension>
        </extensions>
      </trkpt>
      <trkpt lat="37.7445060946047306060791015625" lon="-107.71456402726471424102783203125">
        <ele>3350.60009765625</ele>
        <time>2023-07-29T13:05:59.000Z</time>
        <extensions>
          <ns3:TrackPointExtension>
            <ns3:hr>102</ns3:hr>
            <ns3:cad>57</ns3:cad>
          </ns3:TrackPointExtension>
        </extensions>
      </trkpt>
      <trkpt lat="37.7445158176124095916748046875" lon="-107.71455246023833751678466796875">
        <ele>3350.60009765625</ele>
        <time>2023-07-29T13:06:00.000Z</time>
        <extensions>
          <ns3:TrackPointExtension>
            <ns3:hr>102</ns3:hr>
            <ns3:cad>57</ns3:cad>
          </ns3:TrackPointExtension>
        </extensions>
      </trkpt>
      <trkpt lat="37.74452160112559795379638671875" lon="-107.7145466767251491546630859375">
        <ele>3350.800048828125</ele>
        <time>2023-07-29T13:06:01.000Z</time>
        <extensions>
          <ns3:TrackPointExtension>
            <ns3:hr>102</ns3:hr>
            <ns3:cad>57</ns3:cad>
          </ns3:TrackPointExtension>
        </extensions>
      </trkpt>
      <trkpt lat="37.74453165940940380096435546875" lon="-107.7145366184413433074951171875">
        <ele>3351</ele>
        <time>2023-07-29T13:06:02.000Z</time>
        <extensions>
          <ns3:TrackPointExtension>
            <ns3:hr>103</ns3:hr>
            <ns3:cad>58</ns3:cad>
          </ns3:TrackPointExtension>
        </extensions>
      </trkpt>
      <trkpt lat="37.7445386163890361785888671875" lon="-107.71452597342431545257568359375">
        <ele>3351.199951171875</ele>
        <time>2023-07-29T13:06:03.000Z</time>
        <extensions>
          <ns3:TrackPointExtension>
            <ns3:hr>103</ns3:hr>
            <ns3:cad>58</ns3:cad>
          </ns3:TrackPointExtension>
        </extensions>
      </trkpt>
      <trkpt lat="37.7445480041205883026123046875" lon="-107.714517675340175628662109375">
        <ele>3351.39990234375</ele>
        <time>2023-07-29T13:06:04.000Z</time>
        <extensions>
          <ns3:TrackPointExtension>
            <ns3:hr>103</ns3:hr>
            <ns3:cad>57</ns3:cad>
          </ns3:TrackPointExtension>
        </extensions>
      </trkpt>
      <trkpt lat="37.74455462582409381866455078125" lon="-107.71450669504702091217041015625">
        <ele>3351.60009765625</ele>
        <time>2023-07-29T13:06:05.000Z</time>
        <extensions>
          <ns3:TrackPointExtension>
            <ns3:hr>104</ns3:hr>
            <ns3:cad>57</ns3:cad>
          </ns3:TrackPointExtension>
        </extensions>
      </trkpt>
      <trkpt lat="37.7445674501359462738037109375" lon="-107.714494876563549041748046875">
        <ele>3351.800048828125</ele>
        <time>2023-07-29T13:06:06.000Z</time>
        <extensions>
          <ns3:TrackPointExtension>
            <ns3:hr>103</ns3:hr>
            <ns3:cad>58</ns3:cad>
          </ns3:TrackPointExtension>
        </extensions>
      </trkpt>
      <trkpt lat="37.74457432329654693603515625" lon="-107.71448515355587005615234375">
        <ele>3352</ele>
        <time>2023-07-29T13:06:07.000Z</time>
        <extensions>
          <ns3:TrackPointExtension>
            <ns3:hr>103</ns3:hr>
            <ns3:cad>58</ns3:cad>
          </ns3:TrackPointExtension>
        </extensions>
      </trkpt>
      <trkpt lat="37.74458379484713077545166015625" lon="-107.7144729159772396087646484375">
        <ele>3352.199951171875</ele>
        <time>2023-07-29T13:06:08.000Z</time>
        <extensions>
          <ns3:TrackPointExtension>
            <ns3:hr>103</ns3:hr>
            <ns3:cad>58</ns3:cad>
          </ns3:TrackPointExtension>
        </extensions>
      </trkpt>
      <trkpt lat="37.744595110416412353515625" lon="-107.71445858292281627655029296875">
        <ele>3352.199951171875</ele>
        <time>2023-07-29T13:06:09.000Z</time>
        <extensions>
          <ns3:TrackPointExtension>
            <ns3:hr>104</ns3:hr>
            <ns3:cad>57</ns3:cad>
          </ns3:TrackPointExtension>
        </extensions>
      </trkpt>
      <trkpt lat="37.74460827000439167022705078125" lon="-107.714451290667057037353515625">
        <ele>3352.39990234375</ele>
        <time>2023-07-29T13:06:10.000Z</time>
        <extensions>
          <ns3:TrackPointExtension>
            <ns3:hr>104</ns3:hr>
            <ns3:cad>57</ns3:cad>
          </ns3:TrackPointExtension>
        </extensions>
      </trkpt>
      <trkpt lat="37.74461933411657810211181640625" lon="-107.71444969810545444488525390625">
        <ele>3352.60009765625</ele>
        <time>2023-07-29T13:06:11.000Z</time>
        <extensions>
          <ns3:TrackPointExtension>
            <ns3:hr>104</ns3:hr>
            <ns3:cad>58</ns3:cad>
          </ns3:TrackPointExtension>
        </extensions>
      </trkpt>
      <trkpt lat="37.74462620727717876434326171875" lon="-107.71444684825837612152099609375">
        <ele>3352.60009765625</ele>
        <time>2023-07-29T13:06:12.000Z</time>
        <extensions>
          <ns3:TrackPointExtension>
            <ns3:hr>104</ns3:hr>
            <ns3:cad>58</ns3:cad>
          </ns3:TrackPointExtension>
        </extensions>
      </trkpt>
      <trkpt lat="37.74463207460939884185791015625" lon="-107.71444316022098064422607421875">
        <ele>3352.60009765625</ele>
        <time>2023-07-29T13:06:13.000Z</time>
        <extensions>
          <ns3:TrackPointExtension>
            <ns3:hr>104</ns3:hr>
            <ns3:cad>57</ns3:cad>
          </ns3:TrackPointExtension>
        </extensions>
      </trkpt>
      <trkpt lat="37.74463844485580921173095703125" lon="-107.7144383825361728668212890625">
        <ele>3353</ele>
        <time>2023-07-29T13:06:14.000Z</time>
        <extensions>
          <ns3:TrackPointExtension>
            <ns3:hr>104</ns3:hr>
            <ns3:cad>57</ns3:cad>
          </ns3:TrackPointExtension>
        </extensions>
      </trkpt>
      <trkpt lat="37.744645066559314727783203125" lon="-107.714433185756206512451171875">
        <ele>3353</ele>
        <time>2023-07-29T13:06:15.000Z</time>
        <extensions>
          <ns3:TrackPointExtension>
            <ns3:hr>105</ns3:hr>
            <ns3:cad>57</ns3:cad>
          </ns3:TrackPointExtension>
        </extensions>
      </trkpt>
      <trkpt lat="37.74465168826282024383544921875" lon="-107.7144279889762401580810546875">
        <ele>3353</ele>
        <time>2023-07-29T13:06:16.000Z</time>
        <extensions>
          <ns3:TrackPointExtension>
            <ns3:hr>105</ns3:hr>
            <ns3:cad>57</ns3:cad>
          </ns3:TrackPointExtension>
        </extensions>
      </trkpt>
      <trkpt lat="37.74466283619403839111328125" lon="-107.71441767923533916473388671875">
        <ele>3353.199951171875</ele>
        <time>2023-07-29T13:06:17.000Z</time>
        <extensions>
          <ns3:TrackPointExtension>
            <ns3:hr>105</ns3:hr>
            <ns3:cad>57</ns3:cad>
          </ns3:TrackPointExtension>
        </extensions>
      </trkpt>
      <trkpt lat="37.74468286894261837005615234375" lon="-107.71440108306705951690673828125">
        <ele>3353.199951171875</ele>
        <time>2023-07-29T13:06:18.000Z</time>
        <extensions>
          <ns3:TrackPointExtension>
            <ns3:hr>105</ns3:hr>
            <ns3:cad>57</ns3:cad>
          </ns3:TrackPointExtension>
        </extensions>
      </trkpt>
      <trkpt lat="37.7446997165679931640625" lon="-107.7143830619752407073974609375">
        <ele>3353.199951171875</ele>
        <time>2023-07-29T13:06:19.000Z</time>
        <extensions>
          <ns3:TrackPointExtension>
            <ns3:hr>105</ns3:hr>
            <ns3:cad>57</ns3:cad>
          </ns3:TrackPointExtension>
        </extensions>
      </trkpt>
      <trkpt lat="37.74472058750689029693603515625" lon="-107.714367806911468505859375">
        <ele>3353.39990234375</ele>
        <time>2023-07-29T13:06:20.000Z</time>
        <extensions>
          <ns3:TrackPointExtension>
            <ns3:hr>105</ns3:hr>
            <ns3:cad>57</ns3:cad>
          </ns3:TrackPointExtension>
        </extensions>
      </trkpt>
      <trkpt lat="37.744732908904552459716796875" lon="-107.71434978581964969635009765625">
        <ele>3353.39990234375</ele>
        <time>2023-07-29T13:06:21.000Z</time>
        <extensions>
          <ns3:TrackPointExtension>
            <ns3:hr>105</ns3:hr>
            <ns3:cad>56</ns3:cad>
          </ns3:TrackPointExtension>
        </extensions>
      </trkpt>
      <trkpt lat="37.74474724195897579193115234375" lon="-107.714335285127162933349609375">
        <ele>3353.39990234375</ele>
        <time>2023-07-29T13:06:22.000Z</time>
        <extensions>
          <ns3:TrackPointExtension>
            <ns3:hr>104</ns3:hr>
            <ns3:cad>56</ns3:cad>
          </ns3:TrackPointExtension>
        </extensions>
      </trkpt>
      <trkpt lat="37.74476610124111175537109375" lon="-107.71432011388242244720458984375">
        <ele>3353.39990234375</ele>
        <time>2023-07-29T13:06:23.000Z</time>
        <extensions>
          <ns3:TrackPointExtension>
            <ns3:hr>104</ns3:hr>
            <ns3:cad>56</ns3:cad>
          </ns3:TrackPointExtension>
        </extensions>
      </trkpt>
      <trkpt lat="37.7447702921926975250244140625" lon="-107.71431122906506061553955078125">
        <ele>3353.60009765625</ele>
        <time>2023-07-29T13:06:24.000Z</time>
        <extensions>
          <ns3:TrackPointExtension>
            <ns3:hr>104</ns3:hr>
            <ns3:cad>56</ns3:cad>
          </ns3:TrackPointExtension>
        </extensions>
      </trkpt>
      <trkpt lat="37.74477548897266387939453125" lon="-107.71430234424769878387451171875">
        <ele>3353.60009765625</ele>
        <time>2023-07-29T13:06:25.000Z</time>
        <extensions>
          <ns3:TrackPointExtension>
            <ns3:hr>104</ns3:hr>
            <ns3:cad>56</ns3:cad>
          </ns3:TrackPointExtension>
        </extensions>
      </trkpt>
      <trkpt lat="37.74478093720972537994384765625" lon="-107.71429446525871753692626953125">
        <ele>3353.800048828125</ele>
        <time>2023-07-29T13:06:26.000Z</time>
        <extensions>
          <ns3:TrackPointExtension>
            <ns3:hr>104</ns3:hr>
            <ns3:cad>56</ns3:cad>
          </ns3:TrackPointExtension>
        </extensions>
      </trkpt>
      <trkpt lat="37.74478864856064319610595703125" lon="-107.71428541280329227447509765625">
        <ele>3353.800048828125</ele>
        <time>2023-07-29T13:06:27.000Z</time>
        <extensions>
          <ns3:TrackPointExtension>
            <ns3:hr>104</ns3:hr>
            <ns3:cad>56</ns3:cad>
          </ns3:TrackPointExtension>
        </extensions>
      </trkpt>
      <trkpt lat="37.744791246950626373291015625" lon="-107.71427887491881847381591796875">
        <ele>3353.800048828125</ele>
        <time>2023-07-29T13:06:28.000Z</time>
        <extensions>
          <ns3:TrackPointExtension>
            <ns3:hr>104</ns3:hr>
            <ns3:cad>56</ns3:cad>
          </ns3:TrackPointExtension>
        </extensions>
      </trkpt>
      <trkpt lat="37.7447922527790069580078125" lon="-107.7142734266817569732666015625">
        <ele>3354</ele>
        <time>2023-07-29T13:06:29.000Z</time>
        <extensions>
          <ns3:TrackPointExtension>
            <ns3:hr>104</ns3:hr>
            <ns3:cad>0</ns3:cad>
          </ns3:TrackPointExtension>
        </extensions>
      </trkpt>
      <trkpt lat="37.7447883971035480499267578125" lon="-107.71426680497825145721435546875">
        <ele>3354.199951171875</ele>
        <time>2023-07-29T13:06:30.000Z</time>
        <extensions>
          <ns3:TrackPointExtension>
            <ns3:hr>104</ns3:hr>
            <ns3:cad>0</ns3:cad>
          </ns3:TrackPointExtension>
        </extensions>
      </trkpt>
      <trkpt lat="37.7447867207229137420654296875" lon="-107.7142637036740779876708984375">
        <ele>3354.39990234375</ele>
        <time>2023-07-29T13:06:31.000Z</time>
        <extensions>
          <ns3:TrackPointExtension>
            <ns3:hr>103</ns3:hr>
            <ns3:cad>0</ns3:cad>
          </ns3:TrackPointExtension>
        </extensions>
      </trkpt>
      <trkpt lat="37.74478529579937458038330078125" lon="-107.71426127292215824127197265625">
        <ele>3354.39990234375</ele>
        <time>2023-07-29T13:06:32.000Z</time>
        <extensions>
          <ns3:TrackPointExtension>
            <ns3:hr>103</ns3:hr>
            <ns3:cad>0</ns3:cad>
          </ns3:TrackPointExtension>
        </extensions>
      </trkpt>
      <trkpt lat="37.74478328414261341094970703125" lon="-107.71426160819828510284423828125">
        <ele>3354.60009765625</ele>
        <time>2023-07-29T13:06:33.000Z</time>
        <extensions>
          <ns3:TrackPointExtension>
            <ns3:hr>101</ns3:hr>
            <ns3:cad>0</ns3:cad>
          </ns3:TrackPointExtension>
        </extensions>
      </trkpt>
      <trkpt lat="37.7447830326855182647705078125" lon="-107.71426412276923656463623046875">
        <ele>3354.60009765625</ele>
        <time>2023-07-29T13:06:34.000Z</time>
        <extensions>
          <ns3:TrackPointExtension>
            <ns3:hr>100</ns3:hr>
            <ns3:cad>0</ns3:cad>
          </ns3:TrackPointExtension>
        </extensions>
      </trkpt>
      <trkpt lat="37.74478211067616939544677734375" lon="-107.71426579914987087249755859375">
        <ele>3354.60009765625</ele>
        <time>2023-07-29T13:06:35.000Z</time>
        <extensions>
          <ns3:TrackPointExtension>
            <ns3:hr>99</ns3:hr>
            <ns3:cad>0</ns3:cad>
          </ns3:TrackPointExtension>
        </extensions>
      </trkpt>
      <trkpt lat="37.7447823621332645416259765625" lon="-107.71426429040729999542236328125">
        <ele>3354.60009765625</ele>
        <time>2023-07-29T13:06:36.000Z</time>
        <extensions>
          <ns3:TrackPointExtension>
            <ns3:hr>99</ns3:hr>
            <ns3:cad>0</ns3:cad>
          </ns3:TrackPointExtension>
        </extensions>
      </trkpt>
      <trkpt lat="37.7447840385138988494873046875" lon="-107.7142670564353466033935546875">
        <ele>3354.60009765625</ele>
        <time>2023-07-29T13:06:37.000Z</time>
        <extensions>
          <ns3:TrackPointExtension>
            <ns3:hr>97</ns3:hr>
            <ns3:cad>0</ns3:cad>
          </ns3:TrackPointExtension>
        </extensions>
      </trkpt>
      <trkpt lat="37.7447877265512943267822265625" lon="-107.71427267231047153472900390625">
        <ele>3354.60009765625</ele>
        <time>2023-07-29T13:06:38.000Z</time>
        <extensions>
          <ns3:TrackPointExtension>
            <ns3:hr>96</ns3:hr>
            <ns3:cad>0</ns3:cad>
          </ns3:TrackPointExtension>
        </extensions>
      </trkpt>
      <trkpt lat="37.7447964437305927276611328125" lon="-107.71427996456623077392578125">
        <ele>3354.60009765625</ele>
        <time>2023-07-29T13:06:39.000Z</time>
        <extensions>
          <ns3:TrackPointExtension>
            <ns3:hr>94</ns3:hr>
            <ns3:cad>0</ns3:cad>
          </ns3:TrackPointExtension>
        </extensions>
      </trkpt>
      <trkpt lat="37.74480893276631832122802734375" lon="-107.71428977139294147491455078125">
        <ele>3354.60009765625</ele>
        <time>2023-07-29T13:06:40.000Z</time>
        <extensions>
          <ns3:TrackPointExtension>
            <ns3:hr>93</ns3:hr>
            <ns3:cad>0</ns3:cad>
          </ns3:TrackPointExtension>
        </extensions>
      </trkpt>
      <trkpt lat="37.74482167325913906097412109375" lon="-107.71429915912449359893798828125">
        <ele>3354.60009765625</ele>
        <time>2023-07-29T13:06:41.000Z</time>
        <extensions>
          <ns3:TrackPointExtension>
            <ns3:hr>93</ns3:hr>
            <ns3:cad>0</ns3:cad>
          </ns3:TrackPointExtension>
        </extensions>
      </trkpt>
      <trkpt lat="37.74482770822942256927490234375" lon="-107.71430284716188907623291015625">
        <ele>3354.39990234375</ele>
        <time>2023-07-29T13:06:42.000Z</time>
        <extensions>
          <ns3:TrackPointExtension>
            <ns3:hr>92</ns3:hr>
            <ns3:cad>0</ns3:cad>
          </ns3:TrackPointExtension>
        </extensions>
      </trkpt>
      <trkpt lat="37.74483382701873779296875" lon="-107.71431072615087032318115234375">
        <ele>3354.39990234375</ele>
        <time>2023-07-29T13:06:43.000Z</time>
        <extensions>
          <ns3:TrackPointExtension>
            <ns3:hr>92</ns3:hr>
            <ns3:cad>52</ns3:cad>
          </ns3:TrackPointExtension>
        </extensions>
      </trkpt>
      <trkpt lat="37.7448417060077190399169921875" lon="-107.714319191873073577880859375">
        <ele>3354.39990234375</ele>
        <time>2023-07-29T13:06:44.000Z</time>
        <extensions>
          <ns3:TrackPointExtension>
            <ns3:hr>91</ns3:hr>
            <ns3:cad>52</ns3:cad>
          </ns3:TrackPointExtension>
        </extensions>
      </trkpt>
      <trkpt lat="37.74484313093125820159912109375" lon="-107.71432162262499332427978515625">
        <ele>3354.39990234375</ele>
        <time>2023-07-29T13:06:45.000Z</time>
        <extensions>
          <ns3:TrackPointExtension>
            <ns3:hr>91</ns3:hr>
            <ns3:cad>52</ns3:cad>
          </ns3:TrackPointExtension>
        </extensions>
      </trkpt>
      <trkpt lat="37.74484447203576564788818359375" lon="-107.71432765759527683258056640625">
        <ele>3354.60009765625</ele>
        <time>2023-07-29T13:06:46.000Z</time>
        <extensions>
          <ns3:TrackPointExtension>
            <ns3:hr>90</ns3:hr>
            <ns3:cad>52</ns3:cad>
          </ns3:TrackPointExtension>
        </extensions>
      </trkpt>
      <trkpt lat="37.7448470704257488250732421875" lon="-107.71433536894619464874267578125">
        <ele>3354.800048828125</ele>
        <time>2023-07-29T13:06:47.000Z</time>
        <extensions>
          <ns3:TrackPointExtension>
            <ns3:hr>90</ns3:hr>
            <ns3:cad>53</ns3:cad>
          </ns3:TrackPointExtension>
        </extensions>
      </trkpt>
      <trkpt lat="37.7448443882167339324951171875" lon="-107.71433888934552669525146484375">
        <ele>3354.800048828125</ele>
        <time>2023-07-29T13:06:48.000Z</time>
        <extensions>
          <ns3:TrackPointExtension>
            <ns3:hr>89</ns3:hr>
            <ns3:cad>53</ns3:cad>
          </ns3:TrackPointExtension>
        </extensions>
      </trkpt>
      <trkpt lat="37.74484656751155853271484375" lon="-107.71434492431581020355224609375">
        <ele>3355</ele>
        <time>2023-07-29T13:06:49.000Z</time>
        <extensions>
          <ns3:TrackPointExtension>
            <ns3:hr>89</ns3:hr>
            <ns3:cad>53</ns3:cad>
          </ns3:TrackPointExtension>
        </extensions>
      </trkpt>
      <trkpt lat="37.74485402740538120269775390625" lon="-107.71435347385704517364501953125">
        <ele>3355.199951171875</ele>
        <time>2023-07-29T13:06:50.000Z</time>
        <extensions>
          <ns3:TrackPointExtension>
            <ns3:hr>89</ns3:hr>
            <ns3:cad>56</ns3:cad>
          </ns3:TrackPointExtension>
        </extensions>
      </trkpt>
      <trkpt lat="37.744862996041774749755859375" lon="-107.7143626101315021514892578125">
        <ele>3355.199951171875</ele>
        <time>2023-07-29T13:06:51.000Z</time>
        <extensions>
          <ns3:TrackPointExtension>
            <ns3:hr>89</ns3:hr>
            <ns3:cad>56</ns3:cad>
          </ns3:TrackPointExtension>
        </extensions>
      </trkpt>
      <trkpt lat="37.74487263523042201995849609375" lon="-107.71436906419694423675537109375">
        <ele>3355.39990234375</ele>
        <time>2023-07-29T13:06:52.000Z</time>
        <extensions>
          <ns3:TrackPointExtension>
            <ns3:hr>89</ns3:hr>
            <ns3:cad>55</ns3:cad>
          </ns3:TrackPointExtension>
        </extensions>
      </trkpt>
      <trkpt lat="37.74488143622875213623046875" lon="-107.7143740095198154449462890625">
        <ele>3355.39990234375</ele>
        <time>2023-07-29T13:06:53.000Z</time>
        <extensions>
          <ns3:TrackPointExtension>
            <ns3:hr>89</ns3:hr>
            <ns3:cad>55</ns3:cad>
          </ns3:TrackPointExtension>
        </extensions>
      </trkpt>
      <trkpt lat="37.74489074014127254486083984375" lon="-107.714378200471401214599609375">
        <ele>3355.60009765625</ele>
        <time>2023-07-29T13:06:54.000Z</time>
        <extensions>
          <ns3:TrackPointExtension>
            <ns3:hr>89</ns3:hr>
            <ns3:cad>54</ns3:cad>
          </ns3:TrackPointExtension>
        </extensions>
      </trkpt>
      <trkpt lat="37.74489752948284149169921875" lon="-107.71437878720462322235107421875">
        <ele>3355.60009765625</ele>
        <time>2023-07-29T13:06:55.000Z</time>
        <extensions>
          <ns3:TrackPointExtension>
            <ns3:hr>89</ns3:hr>
            <ns3:cad>0</ns3:cad>
          </ns3:TrackPointExtension>
        </extensions>
      </trkpt>
      <trkpt lat="37.74490482173860073089599609375" lon="-107.7143750153481960296630859375">
        <ele>3355.800048828125</ele>
        <time>2023-07-29T13:06:56.000Z</time>
        <extensions>
          <ns3:TrackPointExtension>
            <ns3:hr>89</ns3:hr>
            <ns3:cad>0</ns3:cad>
          </ns3:TrackPointExtension>
        </extensions>
      </trkpt>
      <trkpt lat="37.744911946356296539306640625" lon="-107.7143709920346736907958984375">
        <ele>3356</ele>
        <time>2023-07-29T13:06:57.000Z</time>
        <extensions>
          <ns3:TrackPointExtension>
            <ns3:hr>89</ns3:hr>
            <ns3:cad>0</ns3:cad>
          </ns3:TrackPointExtension>
        </extensions>
      </trkpt>
      <trkpt lat="37.74492007680237293243408203125" lon="-107.71436101756989955902099609375">
        <ele>3356.199951171875</ele>
        <time>2023-07-29T13:06:58.000Z</time>
        <extensions>
          <ns3:TrackPointExtension>
            <ns3:hr>90</ns3:hr>
            <ns3:cad>50</ns3:cad>
          </ns3:TrackPointExtension>
        </extensions>
      </trkpt>
      <trkpt lat="37.74492577649652957916259765625" lon="-107.7143542282283306121826171875">
        <ele>3356.60009765625</ele>
        <time>2023-07-29T13:06:59.000Z</time>
        <extensions>
          <ns3:TrackPointExtension>
            <ns3:hr>90</ns3:hr>
            <ns3:cad>50</ns3:cad>
          </ns3:TrackPointExtension>
        </extensions>
      </trkpt>
      <trkpt lat="37.74493231438100337982177734375" lon="-107.71434173919260501861572265625">
        <ele>3356.800048828125</ele>
        <time>2023-07-29T13:07:00.000Z</time>
        <extensions>
          <ns3:TrackPointExtension>
            <ns3:hr>91</ns3:hr>
            <ns3:cad>50</ns3:cad>
          </ns3:TrackPointExtension>
        </extensions>
      </trkpt>
      <trkpt lat="37.74493868462741374969482421875" lon="-107.71433017216622829437255859375">
        <ele>3357</ele>
        <time>2023-07-29T13:07:01.000Z</time>
        <extensions>
          <ns3:TrackPointExtension>
            <ns3:hr>91</ns3:hr>
            <ns3:cad>50</ns3:cad>
          </ns3:TrackPointExtension>
        </extensions>
      </trkpt>
      <trkpt lat="37.744950838387012481689453125" lon="-107.71431290544569492340087890625">
        <ele>3357.199951171875</ele>
        <time>2023-07-29T13:07:02.000Z</time>
        <extensions>
          <ns3:TrackPointExtension>
            <ns3:hr>91</ns3:hr>
            <ns3:cad>52</ns3:cad>
          </ns3:TrackPointExtension>
        </extensions>
      </trkpt>
      <trkpt lat="37.7449590526521205902099609375" lon="-107.7142972312867641448974609375">
        <ele>3357.39990234375</ele>
        <time>2023-07-29T13:07:03.000Z</time>
        <extensions>
          <ns3:TrackPointExtension>
            <ns3:hr>91</ns3:hr>
            <ns3:cad>52</ns3:cad>
          </ns3:TrackPointExtension>
        </extensions>
      </trkpt>
      <trkpt lat="37.7449692785739898681640625" lon="-107.71428004838526248931884765625">
        <ele>3357.60009765625</ele>
        <time>2023-07-29T13:07:04.000Z</time>
        <extensions>
          <ns3:TrackPointExtension>
            <ns3:hr>92</ns3:hr>
            <ns3:cad>52</ns3:cad>
          </ns3:TrackPointExtension>
        </extensions>
      </trkpt>
      <trkpt lat="37.744975984096527099609375" lon="-107.7142694033682346343994140625">
        <ele>3357.60009765625</ele>
        <time>2023-07-29T13:07:05.000Z</time>
        <extensions>
          <ns3:TrackPointExtension>
            <ns3:hr>92</ns3:hr>
            <ns3:cad>51</ns3:cad>
          </ns3:TrackPointExtension>
        </extensions>
      </trkpt>
      <trkpt lat="37.7449791692197322845458984375" lon="-107.71426747553050518035888671875">
        <ele>3357.800048828125</ele>
        <time>2023-07-29T13:07:06.000Z</time>
        <extensions>
          <ns3:TrackPointExtension>
            <ns3:hr>92</ns3:hr>
            <ns3:cad>51</ns3:cad>
          </ns3:TrackPointExtension>
        </extensions>
      </trkpt>
      <trkpt lat="37.74498159997165203094482421875" lon="-107.71426881663501262664794921875">
        <ele>3358</ele>
        <time>2023-07-29T13:07:07.000Z</time>
        <extensions>
          <ns3:TrackPointExtension>
            <ns3:hr>92</ns3:hr>
            <ns3:cad>52</ns3:cad>
          </ns3:TrackPointExtension>
        </extensions>
      </trkpt>
      <trkpt lat="37.74498344399034976959228515625" lon="-107.71427082829177379608154296875">
        <ele>3358</ele>
        <time>2023-07-29T13:07:08.000Z</time>
        <extensions>
          <ns3:TrackPointExtension>
            <ns3:hr>93</ns3:hr>
            <ns3:cad>52</ns3:cad>
          </ns3:TrackPointExtension>
        </extensions>
      </trkpt>
      <trkpt lat="37.7449969388544559478759765625" lon="-107.71426311694085597991943359375">
        <ele>3358.199951171875</ele>
        <time>2023-07-29T13:07:09.000Z</time>
        <extensions>
          <ns3:TrackPointExtension>
            <ns3:hr>93</ns3:hr>
            <ns3:cad>52</ns3:cad>
          </ns3:TrackPointExtension>
        </extensions>
      </trkpt>
      <trkpt lat="37.745011188089847564697265625" lon="-107.71425507031381130218505859375">
        <ele>3358.199951171875</ele>
        <time>2023-07-29T13:07:10.000Z</time>
        <extensions>
          <ns3:TrackPointExtension>
            <ns3:hr>93</ns3:hr>
            <ns3:cad>51</ns3:cad>
          </ns3:TrackPointExtension>
        </extensions>
      </trkpt>
      <trkpt lat="37.74502267129719257354736328125" lon="-107.7142425812780857086181640625">
        <ele>3358.39990234375</ele>
        <time>2023-07-29T13:07:11.000Z</time>
        <extensions>
          <ns3:TrackPointExtension>
            <ns3:hr>93</ns3:hr>
            <ns3:cad>51</ns3:cad>
          </ns3:TrackPointExtension>
        </extensions>
      </trkpt>
      <trkpt lat="37.7450344897806644439697265625" lon="-107.71423579193651676177978515625">
        <ele>3358.60009765625</ele>
        <time>2023-07-29T13:07:12.000Z</time>
        <extensions>
          <ns3:TrackPointExtension>
            <ns3:hr>94</ns3:hr>
            <ns3:cad>51</ns3:cad>
          </ns3:TrackPointExtension>
        </extensions>
      </trkpt>
      <trkpt lat="37.7450415305793285369873046875" lon="-107.714230008423328399658203125">
        <ele>3358.800048828125</ele>
        <time>2023-07-29T13:07:13.000Z</time>
        <extensions>
          <ns3:TrackPointExtension>
            <ns3:hr>94</ns3:hr>
            <ns3:cad>51</ns3:cad>
          </ns3:TrackPointExtension>
        </extensions>
      </trkpt>
      <trkpt lat="37.74504748173058032989501953125" lon="-107.71422858349978923797607421875">
        <ele>3359</ele>
        <time>2023-07-29T13:07:14.000Z</time>
        <extensions>
          <ns3:TrackPointExtension>
            <ns3:hr>94</ns3:hr>
            <ns3:cad>52</ns3:cad>
          </ns3:TrackPointExtension>
        </extensions>
      </trkpt>
      <trkpt lat="37.74505536071956157684326171875" lon="-107.714222967624664306640625">
        <ele>3359</ele>
        <time>2023-07-29T13:07:15.000Z</time>
        <extensions>
          <ns3:TrackPointExtension>
            <ns3:hr>94</ns3:hr>
            <ns3:cad>51</ns3:cad>
          </ns3:TrackPointExtension>
        </extensions>
      </trkpt>
      <trkpt lat="37.7450663410127162933349609375" lon="-107.7142140828073024749755859375">
        <ele>3359.199951171875</ele>
        <time>2023-07-29T13:07:16.000Z</time>
        <extensions>
          <ns3:TrackPointExtension>
            <ns3:hr>95</ns3:hr>
            <ns3:cad>51</ns3:cad>
          </ns3:TrackPointExtension>
        </extensions>
      </trkpt>
      <trkpt lat="37.7450814284384250640869140625" lon="-107.71420159377157688140869140625">
        <ele>3359.39990234375</ele>
        <time>2023-07-29T13:07:17.000Z</time>
        <extensions>
          <ns3:TrackPointExtension>
            <ns3:hr>96</ns3:hr>
            <ns3:cad>50</ns3:cad>
          </ns3:TrackPointExtension>
        </extensions>
      </trkpt>
      <trkpt lat="37.74509173817932605743408203125" lon="-107.7141979895532131195068359375">
        <ele>3359.60009765625</ele>
        <time>2023-07-29T13:07:18.000Z</time>
        <extensions>
          <ns3:TrackPointExtension>
            <ns3:hr>97</ns3:hr>
            <ns3:cad>49</ns3:cad>
          </ns3:TrackPointExtension>
        </extensions>
      </trkpt>
      <trkpt lat="37.745105735957622528076171875" lon="-107.71418767981231212615966796875">
        <ele>3359.60009765625</ele>
        <time>2023-07-29T13:07:19.000Z</time>
        <extensions>
          <ns3:TrackPointExtension>
            <ns3:hr>99</ns3:hr>
            <ns3:cad>49</ns3:cad>
          </ns3:TrackPointExtension>
        </extensions>
      </trkpt>
      <trkpt lat="37.7451139502227306365966796875" lon="-107.71418080665171146392822265625">
        <ele>3359.60009765625</ele>
        <time>2023-07-29T13:07:20.000Z</time>
        <extensions>
          <ns3:TrackPointExtension>
            <ns3:hr>101</ns3:hr>
            <ns3:cad>50</ns3:cad>
          </ns3:TrackPointExtension>
        </extensions>
      </trkpt>
      <trkpt lat="37.74512057192623615264892578125" lon="-107.714176364243030548095703125">
        <ele>3360</ele>
        <time>2023-07-29T13:07:21.000Z</time>
        <extensions>
          <ns3:TrackPointExtension>
            <ns3:hr>101</ns3:hr>
            <ns3:cad>51</ns3:cad>
          </ns3:TrackPointExtension>
        </extensions>
      </trkpt>
      <trkpt lat="37.7451297082006931304931640625" lon="-107.71416731178760528564453125">
        <ele>3360.199951171875</ele>
        <time>2023-07-29T13:07:22.000Z</time>
        <extensions>
          <ns3:TrackPointExtension>
            <ns3:hr>101</ns3:hr>
            <ns3:cad>52</ns3:cad>
          </ns3:TrackPointExtension>
        </extensions>
      </trkpt>
      <trkpt lat="37.74514219723641872406005859375" lon="-107.714152224361896514892578125">
        <ele>3360.199951171875</ele>
        <time>2023-07-29T13:07:23.000Z</time>
        <extensions>
          <ns3:TrackPointExtension>
            <ns3:hr>102</ns3:hr>
            <ns3:cad>52</ns3:cad>
          </ns3:TrackPointExtension>
        </extensions>
      </trkpt>
      <trkpt lat="37.74515108205378055572509765625" lon="-107.71414048969745635986328125">
        <ele>3360.39990234375</ele>
        <time>2023-07-29T13:07:24.000Z</time>
        <extensions>
          <ns3:TrackPointExtension>
            <ns3:hr>102</ns3:hr>
            <ns3:cad>51</ns3:cad>
          </ns3:TrackPointExtension>
        </extensions>
      </trkpt>
      <trkpt lat="37.74515510536730289459228515625" lon="-107.71413001231849193572998046875">
        <ele>3360.39990234375</ele>
        <time>2023-07-29T13:07:25.000Z</time>
        <extensions>
          <ns3:TrackPointExtension>
            <ns3:hr>104</ns3:hr>
            <ns3:cad>51</ns3:cad>
          </ns3:TrackPointExtension>
        </extensions>
      </trkpt>
      <trkpt lat="37.7451639063656330108642578125" lon="-107.7141185291111469268798828125">
        <ele>3360.60009765625</ele>
        <time>2023-07-29T13:07:26.000Z</time>
        <extensions>
          <ns3:TrackPointExtension>
            <ns3:hr>105</ns3:hr>
            <ns3:cad>52</ns3:cad>
          </ns3:TrackPointExtension>
        </extensions>
      </trkpt>
      <trkpt lat="37.74516935460269451141357421875" lon="-107.71410905756056308746337890625">
        <ele>3360.60009765625</ele>
        <time>2023-07-29T13:07:27.000Z</time>
        <extensions>
          <ns3:TrackPointExtension>
            <ns3:hr>106</ns3:hr>
            <ns3:cad>52</ns3:cad>
          </ns3:TrackPointExtension>
        </extensions>
      </trkpt>
      <trkpt lat="37.74517170153558254241943359375" lon="-107.7141007594764232635498046875">
        <ele>3360.800048828125</ele>
        <time>2023-07-29T13:07:28.000Z</time>
        <extensions>
          <ns3:TrackPointExtension>
            <ns3:hr>106</ns3:hr>
            <ns3:cad>52</ns3:cad>
          </ns3:TrackPointExtension>
        </extensions>
      </trkpt>
      <trkpt lat="37.74517103098332881927490234375" lon="-107.7140943892300128936767578125">
        <ele>3361</ele>
        <time>2023-07-29T13:07:29.000Z</time>
        <extensions>
          <ns3:TrackPointExtension>
            <ns3:hr>107</ns3:hr>
            <ns3:cad>52</ns3:cad>
          </ns3:TrackPointExtension>
        </extensions>
      </trkpt>
      <trkpt lat="37.74517371319234371185302734375" lon="-107.71407888270914554595947265625">
        <ele>3361</ele>
        <time>2023-07-29T13:07:30.000Z</time>
        <extensions>
          <ns3:TrackPointExtension>
            <ns3:hr>107</ns3:hr>
            <ns3:cad>52</ns3:cad>
          </ns3:TrackPointExtension>
        </extensions>
      </trkpt>
      <trkpt lat="37.74518075399100780487060546875" lon="-107.71406580694019794464111328125">
        <ele>3361.199951171875</ele>
        <time>2023-07-29T13:07:31.000Z</time>
        <extensions>
          <ns3:TrackPointExtension>
            <ns3:hr>108</ns3:hr>
            <ns3:cad>52</ns3:cad>
          </ns3:TrackPointExtension>
        </extensions>
      </trkpt>
      <trkpt lat="37.74519198574125766754150390625" lon="-107.7140501327812671661376953125">
        <ele>3361.39990234375</ele>
        <time>2023-07-29T13:07:32.000Z</time>
        <extensions>
          <ns3:TrackPointExtension>
            <ns3:hr>108</ns3:hr>
            <ns3:cad>53</ns3:cad>
          </ns3:TrackPointExtension>
        </extensions>
      </trkpt>
      <trkpt lat="37.74520472623407840728759765625" lon="-107.71403186023235321044921875">
        <ele>3361.39990234375</ele>
        <time>2023-07-29T13:07:33.000Z</time>
        <extensions>
          <ns3:TrackPointExtension>
            <ns3:hr>108</ns3:hr>
            <ns3:cad>53</ns3:cad>
          </ns3:TrackPointExtension>
        </extensions>
      </trkpt>
      <trkpt lat="37.74521243758499622344970703125" lon="-107.7140202932059764862060546875">
        <ele>3361.60009765625</ele>
        <time>2023-07-29T13:07:34.000Z</time>
        <extensions>
          <ns3:TrackPointExtension>
            <ns3:hr>108</ns3:hr>
            <ns3:cad>53</ns3:cad>
          </ns3:TrackPointExtension>
        </extensions>
      </trkpt>
      <trkpt lat="37.7452162094414234161376953125" lon="-107.71401434205472469329833984375">
        <ele>3361.60009765625</ele>
        <time>2023-07-29T13:07:35.000Z</time>
        <extensions>
          <ns3:TrackPointExtension>
            <ns3:hr>108</ns3:hr>
            <ns3:cad>53</ns3:cad>
          </ns3:TrackPointExtension>
        </extensions>
      </trkpt>
      <trkpt lat="37.745221070945262908935546875" lon="-107.71401149220764636993408203125">
        <ele>3361.60009765625</ele>
        <time>2023-07-29T13:07:36.000Z</time>
        <extensions>
          <ns3:TrackPointExtension>
            <ns3:hr>108</ns3:hr>
            <ns3:cad>53</ns3:cad>
          </ns3:TrackPointExtension>
        </extensions>
      </trkpt>
      <trkpt lat="37.7452269382774829864501953125" lon="-107.71400361321866512298583984375">
        <ele>3361.800048828125</ele>
        <time>2023-07-29T13:07:37.000Z</time>
        <extensions>
          <ns3:TrackPointExtension>
            <ns3:hr>107</ns3:hr>
            <ns3:cad>52</ns3:cad>
          </ns3:TrackPointExtension>
        </extensions>
      </trkpt>
      <trkpt lat="37.74523557163774967193603515625" lon="-107.71399430930614471435546875">
        <ele>3361.800048828125</ele>
        <time>2023-07-29T13:07:38.000Z</time>
        <extensions>
          <ns3:TrackPointExtension>
            <ns3:hr>107</ns3:hr>
            <ns3:cad>52</ns3:cad>
          </ns3:TrackPointExtension>
        </extensions>
      </trkpt>
      <trkpt lat="37.74524294771254062652587890625" lon="-107.7139850892126560211181640625">
        <ele>3362</ele>
        <time>2023-07-29T13:07:39.000Z</time>
        <extensions>
          <ns3:TrackPointExtension>
            <ns3:hr>107</ns3:hr>
            <ns3:cad>52</ns3:cad>
          </ns3:TrackPointExtension>
        </extensions>
      </trkpt>
      <trkpt lat="37.745251245796680450439453125" lon="-107.7139743603765964508056640625">
        <ele>3362.199951171875</ele>
        <time>2023-07-29T13:07:40.000Z</time>
        <extensions>
          <ns3:TrackPointExtension>
            <ns3:hr>107</ns3:hr>
            <ns3:cad>52</ns3:cad>
          </ns3:TrackPointExtension>
        </extensions>
      </trkpt>
      <trkpt lat="37.74525853805243968963623046875" lon="-107.71396555937826633453369140625">
        <ele>3362.39990234375</ele>
        <time>2023-07-29T13:07:41.000Z</time>
        <extensions>
          <ns3:TrackPointExtension>
            <ns3:hr>107</ns3:hr>
            <ns3:cad>52</ns3:cad>
          </ns3:TrackPointExtension>
        </extensions>
      </trkpt>
      <trkpt lat="37.74526356719434261322021484375" lon="-107.71395952440798282623291015625">
        <ele>3362.60009765625</ele>
        <time>2023-07-29T13:07:42.000Z</time>
        <extensions>
          <ns3:TrackPointExtension>
            <ns3:hr>107</ns3:hr>
            <ns3:cad>51</ns3:cad>
          </ns3:TrackPointExtension>
        </extensions>
      </trkpt>
      <trkpt lat="37.7452681772410869598388671875" lon="-107.7139545790851116180419921875">
        <ele>3362.60009765625</ele>
        <time>2023-07-29T13:07:43.000Z</time>
        <extensions>
          <ns3:TrackPointExtension>
            <ns3:hr>107</ns3:hr>
            <ns3:cad>51</ns3:cad>
          </ns3:TrackPointExtension>
        </extensions>
      </trkpt>
      <trkpt lat="37.74527278728783130645751953125" lon="-107.7139478735625743865966796875">
        <ele>3362.800048828125</ele>
        <time>2023-07-29T13:07:44.000Z</time>
        <extensions>
          <ns3:TrackPointExtension>
            <ns3:hr>107</ns3:hr>
            <ns3:cad>51</ns3:cad>
          </ns3:TrackPointExtension>
        </extensions>
      </trkpt>
      <trkpt lat="37.74528200738131999969482421875" lon="-107.71393991075456142425537109375">
        <ele>3362.800048828125</ele>
        <time>2023-07-29T13:07:45.000Z</time>
        <extensions>
          <ns3:TrackPointExtension>
            <ns3:hr>107</ns3:hr>
            <ns3:cad>51</ns3:cad>
          </ns3:TrackPointExtension>
        </extensions>
      </trkpt>
      <trkpt lat="37.74529390968382358551025390625" lon="-107.71393395960330963134765625">
        <ele>3362.800048828125</ele>
        <time>2023-07-29T13:07:46.000Z</time>
        <extensions>
          <ns3:TrackPointExtension>
            <ns3:hr>107</ns3:hr>
            <ns3:cad>50</ns3:cad>
          </ns3:TrackPointExtension>
        </extensions>
      </trkpt>
      <trkpt lat="37.7453060634434223175048828125" lon="-107.713924907147884368896484375">
        <ele>3363</ele>
        <time>2023-07-29T13:07:47.000Z</time>
        <extensions>
          <ns3:TrackPointExtension>
            <ns3:hr>107</ns3:hr>
            <ns3:cad>50</ns3:cad>
          </ns3:TrackPointExtension>
        </extensions>
      </trkpt>
      <trkpt lat="37.74531687609851360321044921875" lon="-107.713912166655063629150390625">
        <ele>3363.199951171875</ele>
        <time>2023-07-29T13:07:48.000Z</time>
        <extensions>
          <ns3:TrackPointExtension>
            <ns3:hr>107</ns3:hr>
            <ns3:cad>50</ns3:cad>
          </ns3:TrackPointExtension>
        </extensions>
      </trkpt>
      <trkpt lat="37.7453245036303997039794921875" lon="-107.713902778923511505126953125">
        <ele>3363.39990234375</ele>
        <time>2023-07-29T13:07:49.000Z</time>
        <extensions>
          <ns3:TrackPointExtension>
            <ns3:hr>107</ns3:hr>
            <ns3:cad>51</ns3:cad>
          </ns3:TrackPointExtension>
        </extensions>
      </trkpt>
      <trkpt lat="37.74532726965844631195068359375" lon="-107.7138979174196720123291015625">
        <ele>3363.39990234375</ele>
        <time>2023-07-29T13:07:50.000Z</time>
        <extensions>
          <ns3:TrackPointExtension>
            <ns3:hr>107</ns3:hr>
            <ns3:cad>51</ns3:cad>
          </ns3:TrackPointExtension>
        </extensions>
      </trkpt>
      <trkpt lat="37.745330370962619781494140625" lon="-107.71389112807810306549072265625">
        <ele>3363.60009765625</ele>
        <time>2023-07-29T13:07:51.000Z</time>
        <extensions>
          <ns3:TrackPointExtension>
            <ns3:hr>107</ns3:hr>
            <ns3:cad>51</ns3:cad>
          </ns3:TrackPointExtension>
        </extensions>
      </trkpt>
      <trkpt lat="37.74533766321837902069091796875" lon="-107.7138801477849483489990234375">
        <ele>3363.60009765625</ele>
        <time>2023-07-29T13:07:52.000Z</time>
        <extensions>
          <ns3:TrackPointExtension>
            <ns3:hr>106</ns3:hr>
            <ns3:cad>51</ns3:cad>
          </ns3:TrackPointExtension>
        </extensions>
      </trkpt>
      <trkpt lat="37.745348475873470306396484375" lon="-107.7138650603592395782470703125">
        <ele>3363.800048828125</ele>
        <time>2023-07-29T13:07:53.000Z</time>
        <extensions>
          <ns3:TrackPointExtension>
            <ns3:hr>106</ns3:hr>
            <ns3:cad>51</ns3:cad>
          </ns3:TrackPointExtension>
        </extensions>
      </trkpt>
      <trkpt lat="37.745356857776641845703125" lon="-107.71384536288678646087646484375">
        <ele>3364</ele>
        <time>2023-07-29T13:07:54.000Z</time>
        <extensions>
          <ns3:TrackPointExtension>
            <ns3:hr>106</ns3:hr>
            <ns3:cad>51</ns3:cad>
          </ns3:TrackPointExtension>
        </extensions>
      </trkpt>
      <trkpt lat="37.7453608810901641845703125" lon="-107.71383111365139484405517578125">
        <ele>3364.199951171875</ele>
        <time>2023-07-29T13:07:55.000Z</time>
        <extensions>
          <ns3:TrackPointExtension>
            <ns3:hr>106</ns3:hr>
            <ns3:cad>51</ns3:cad>
          </ns3:TrackPointExtension>
        </extensions>
      </trkpt>
      <trkpt lat="37.74536431767046451568603515625" lon="-107.7138224802911281585693359375">
        <ele>3364.199951171875</ele>
        <time>2023-07-29T13:07:56.000Z</time>
        <extensions>
          <ns3:TrackPointExtension>
            <ns3:hr>106</ns3:hr>
            <ns3:cad>51</ns3:cad>
          </ns3:TrackPointExtension>
        </extensions>
      </trkpt>
      <trkpt lat="37.74537001736462116241455078125" lon="-107.713805548846721649169921875">
        <ele>3364.199951171875</ele>
        <time>2023-07-29T13:07:57.000Z</time>
        <extensions>
          <ns3:TrackPointExtension>
            <ns3:hr>105</ns3:hr>
            <ns3:cad>50</ns3:cad>
          </ns3:TrackPointExtension>
        </extensions>
      </trkpt>
      <trkpt lat="37.74537672288715839385986328125" lon="-107.71379658021032810211181640625">
        <ele>3364.39990234375</ele>
        <time>2023-07-29T13:07:58.000Z</time>
        <extensions>
          <ns3:TrackPointExtension>
            <ns3:hr>105</ns3:hr>
            <ns3:cad>45</ns3:cad>
          </ns3:TrackPointExtension>
        </extensions>
      </trkpt>
      <trkpt lat="37.74538300931453704833984375" lon="-107.713787443935871124267578125">
        <ele>3364.60009765625</ele>
        <time>2023-07-29T13:07:59.000Z</time>
        <extensions>
          <ns3:TrackPointExtension>
            <ns3:hr>105</ns3:hr>
            <ns3:cad>45</ns3:cad>
          </ns3:TrackPointExtension>
        </extensions>
      </trkpt>
      <trkpt lat="37.74539172649383544921875" lon="-107.71377126686275005340576171875">
        <ele>3364.800048828125</ele>
        <time>2023-07-29T13:08:00.000Z</time>
        <extensions>
          <ns3:TrackPointExtension>
            <ns3:hr>105</ns3:hr>
            <ns3:cad>45</ns3:cad>
          </ns3:TrackPointExtension>
        </extensions>
      </trkpt>
      <trkpt lat="37.74540002457797527313232421875" lon="-107.71375651471316814422607421875">
        <ele>3365</ele>
        <time>2023-07-29T13:08:01.000Z</time>
        <extensions>
          <ns3:TrackPointExtension>
            <ns3:hr>105</ns3:hr>
            <ns3:cad>52</ns3:cad>
          </ns3:TrackPointExtension>
        </extensions>
      </trkpt>
      <trkpt lat="37.745404131710529327392578125" lon="-107.713743858039379119873046875">
        <ele>3365</ele>
        <time>2023-07-29T13:08:02.000Z</time>
        <extensions>
          <ns3:TrackPointExtension>
            <ns3:hr>105</ns3:hr>
            <ns3:cad>52</ns3:cad>
          </ns3:TrackPointExtension>
        </extensions>
      </trkpt>
      <trkpt lat="37.745410501956939697265625" lon="-107.713735811412334442138671875">
        <ele>3365.199951171875</ele>
        <time>2023-07-29T13:08:03.000Z</time>
        <extensions>
          <ns3:TrackPointExtension>
            <ns3:hr>105</ns3:hr>
            <ns3:cad>51</ns3:cad>
          </ns3:TrackPointExtension>
        </extensions>
      </trkpt>
      <trkpt lat="37.7454177103936672210693359375" lon="-107.71372399292886257171630859375">
        <ele>3365.199951171875</ele>
        <time>2023-07-29T13:08:04.000Z</time>
        <extensions>
          <ns3:TrackPointExtension>
            <ns3:hr>105</ns3:hr>
            <ns3:cad>51</ns3:cad>
          </ns3:TrackPointExtension>
        </extensions>
      </trkpt>
      <trkpt lat="37.74542567320168018341064453125" lon="-107.71371343173086643218994140625">
        <ele>3365.39990234375</ele>
        <time>2023-07-29T13:08:05.000Z</time>
        <extensions>
          <ns3:TrackPointExtension>
            <ns3:hr>105</ns3:hr>
            <ns3:cad>52</ns3:cad>
          </ns3:TrackPointExtension>
        </extensions>
      </trkpt>
      <trkpt lat="37.7454327978193759918212890625" lon="-107.713698931038379669189453125">
        <ele>3365.60009765625</ele>
        <time>2023-07-29T13:08:06.000Z</time>
        <extensions>
          <ns3:TrackPointExtension>
            <ns3:hr>105</ns3:hr>
            <ns3:cad>52</ns3:cad>
          </ns3:TrackPointExtension>
        </extensions>
      </trkpt>
      <trkpt lat="37.7454415149986743927001953125" lon="-107.7136836759746074676513671875">
        <ele>3365.60009765625</ele>
        <time>2023-07-29T13:08:07.000Z</time>
        <extensions>
          <ns3:TrackPointExtension>
            <ns3:hr>105</ns3:hr>
            <ns3:cad>52</ns3:cad>
          </ns3:TrackPointExtension>
        </extensions>
      </trkpt>
      <trkpt lat="37.74544998072087764739990234375" lon="-107.7136655710637569427490234375">
        <ele>3365.60009765625</ele>
        <time>2023-07-29T13:08:08.000Z</time>
        <extensions>
          <ns3:TrackPointExtension>
            <ns3:hr>105</ns3:hr>
            <ns3:cad>52</ns3:cad>
          </ns3:TrackPointExtension>
        </extensions>
      </trkpt>
      <trkpt lat="37.74545609951019287109375" lon="-107.71365425549447536468505859375">
        <ele>3365.800048828125</ele>
        <time>2023-07-29T13:08:09.000Z</time>
        <extensions>
          <ns3:TrackPointExtension>
            <ns3:hr>105</ns3:hr>
            <ns3:cad>53</ns3:cad>
          </ns3:TrackPointExtension>
        </extensions>
      </trkpt>
      <trkpt lat="37.745461799204349517822265625" lon="-107.71364285610616207122802734375">
        <ele>3365.800048828125</ele>
        <time>2023-07-29T13:08:10.000Z</time>
        <extensions>
          <ns3:TrackPointExtension>
            <ns3:hr>105</ns3:hr>
            <ns3:cad>53</ns3:cad>
          </ns3:TrackPointExtension>
        </extensions>
      </trkpt>
      <trkpt lat="37.7454673312604427337646484375" lon="-107.71363212727010250091552734375">
        <ele>3366</ele>
        <time>2023-07-29T13:08:11.000Z</time>
        <extensions>
          <ns3:TrackPointExtension>
            <ns3:hr>104</ns3:hr>
            <ns3:cad>53</ns3:cad>
          </ns3:TrackPointExtension>
        </extensions>
      </trkpt>
      <trkpt lat="37.7454733662307262420654296875" lon="-107.71362273953855037689208984375">
        <ele>3366.199951171875</ele>
        <time>2023-07-29T13:08:12.000Z</time>
        <extensions>
          <ns3:TrackPointExtension>
            <ns3:hr>104</ns3:hr>
            <ns3:cad>53</ns3:cad>
          </ns3:TrackPointExtension>
        </extensions>
      </trkpt>
      <trkpt lat="37.7454777248203754425048828125" lon="-107.7136182971298694610595703125">
        <ele>3366.199951171875</ele>
        <time>2023-07-29T13:08:13.000Z</time>
        <extensions>
          <ns3:TrackPointExtension>
            <ns3:hr>104</ns3:hr>
            <ns3:cad>53</ns3:cad>
          </ns3:TrackPointExtension>
        </extensions>
      </trkpt>
      <trkpt lat="37.745482921600341796875" lon="-107.7136122621595859527587890625">
        <ele>3366.199951171875</ele>
        <time>2023-07-29T13:08:14.000Z</time>
        <extensions>
          <ns3:TrackPointExtension>
            <ns3:hr>104</ns3:hr>
            <ns3:cad>53</ns3:cad>
          </ns3:TrackPointExtension>
        </extensions>
      </trkpt>
      <trkpt lat="37.74548971094191074371337890625" lon="-107.71360513754189014434814453125">
        <ele>3366.199951171875</ele>
        <time>2023-07-29T13:08:15.000Z</time>
        <extensions>
          <ns3:TrackPointExtension>
            <ns3:hr>104</ns3:hr>
            <ns3:cad>52</ns3:cad>
          </ns3:TrackPointExtension>
        </extensions>
      </trkpt>
      <trkpt lat="37.74549708701670169830322265625" lon="-107.71360245533287525177001953125">
        <ele>3366.39990234375</ele>
        <time>2023-07-29T13:08:16.000Z</time>
        <extensions>
          <ns3:TrackPointExtension>
            <ns3:hr>104</ns3:hr>
            <ns3:cad>52</ns3:cad>
          </ns3:TrackPointExtension>
        </extensions>
      </trkpt>
      <trkpt lat="37.74550144560635089874267578125" lon="-107.713599018752574920654296875">
        <ele>3366.39990234375</ele>
        <time>2023-07-29T13:08:17.000Z</time>
        <extensions>
          <ns3:TrackPointExtension>
            <ns3:hr>104</ns3:hr>
            <ns3:cad>52</ns3:cad>
          </ns3:TrackPointExtension>
        </extensions>
      </trkpt>
      <trkpt lat="37.7455078996717929840087890625" lon="-107.7135961689054965972900390625">
        <ele>3366.60009765625</ele>
        <time>2023-07-29T13:08:18.000Z</time>
        <extensions>
          <ns3:TrackPointExtension>
            <ns3:hr>104</ns3:hr>
            <ns3:cad>52</ns3:cad>
          </ns3:TrackPointExtension>
        </extensions>
      </trkpt>
      <trkpt lat="37.74551603011786937713623046875" lon="-107.7135958336293697357177734375">
        <ele>3366.800048828125</ele>
        <time>2023-07-29T13:08:19.000Z</time>
        <extensions>
          <ns3:TrackPointExtension>
            <ns3:hr>104</ns3:hr>
            <ns3:cad>52</ns3:cad>
          </ns3:TrackPointExtension>
        </extensions>
      </trkpt>
      <trkpt lat="37.74552374146878719329833984375" lon="-107.71359323523938655853271484375">
        <ele>3366.800048828125</ele>
        <time>2023-07-29T13:08:20.000Z</time>
        <extensions>
          <ns3:TrackPointExtension>
            <ns3:hr>104</ns3:hr>
            <ns3:cad>50</ns3:cad>
          </ns3:TrackPointExtension>
        </extensions>
      </trkpt>
      <trkpt lat="37.745534889400005340576171875" lon="-107.713585607707500457763671875">
        <ele>3367</ele>
        <time>2023-07-29T13:08:21.000Z</time>
        <extensions>
          <ns3:TrackPointExtension>
            <ns3:hr>104</ns3:hr>
            <ns3:cad>48</ns3:cad>
          </ns3:TrackPointExtension>
        </extensions>
      </trkpt>
      <trkpt lat="37.7455457858741283416748046875" lon="-107.713573873043060302734375">
        <ele>3367.199951171875</ele>
        <time>2023-07-29T13:08:22.000Z</time>
        <extensions>
          <ns3:TrackPointExtension>
            <ns3:hr>104</ns3:hr>
            <ns3:cad>48</ns3:cad>
          </ns3:TrackPointExtension>
        </extensions>
      </trkpt>
      <trkpt lat="37.7455538325011730194091796875" lon="-107.71356876008212566375732421875">
        <ele>3367.39990234375</ele>
        <time>2023-07-29T13:08:23.000Z</time>
        <extensions>
          <ns3:TrackPointExtension>
            <ns3:hr>104</ns3:hr>
            <ns3:cad>49</ns3:cad>
          </ns3:TrackPointExtension>
        </extensions>
      </trkpt>
      <trkpt lat="37.74556430988013744354248046875" lon="-107.71356440149247646331787109375">
        <ele>3367.39990234375</ele>
        <time>2023-07-29T13:08:24.000Z</time>
        <extensions>
          <ns3:TrackPointExtension>
            <ns3:hr>104</ns3:hr>
            <ns3:cad>51</ns3:cad>
          </ns3:TrackPointExtension>
        </extensions>
      </trkpt>
      <trkpt lat="37.74557101540267467498779296875" lon="-107.71355652250349521636962890625">
        <ele>3367.60009765625</ele>
        <time>2023-07-29T13:08:25.000Z</time>
        <extensions>
          <ns3:TrackPointExtension>
            <ns3:hr>104</ns3:hr>
            <ns3:cad>51</ns3:cad>
          </ns3:TrackPointExtension>
        </extensions>
      </trkpt>
      <trkpt lat="37.74558224715292453765869140625" lon="-107.71354679949581623077392578125">
        <ele>3367.60009765625</ele>
        <time>2023-07-29T13:08:26.000Z</time>
        <extensions>
          <ns3:TrackPointExtension>
            <ns3:hr>104</ns3:hr>
            <ns3:cad>50</ns3:cad>
          </ns3:TrackPointExtension>
        </extensions>
      </trkpt>
      <trkpt lat="37.74559783749282360076904296875" lon="-107.7135317958891391754150390625">
        <ele>3367.60009765625</ele>
        <time>2023-07-29T13:08:27.000Z</time>
        <extensions>
          <ns3:TrackPointExtension>
            <ns3:hr>104</ns3:hr>
            <ns3:cad>50</ns3:cad>
          </ns3:TrackPointExtension>
        </extensions>
      </trkpt>
      <trkpt lat="37.74560739286243915557861328125" lon="-107.7135237492620944976806640625">
        <ele>3367.800048828125</ele>
        <time>2023-07-29T13:08:28.000Z</time>
        <extensions>
          <ns3:TrackPointExtension>
            <ns3:hr>104</ns3:hr>
            <ns3:cad>51</ns3:cad>
          </ns3:TrackPointExtension>
        </extensions>
      </trkpt>
      <trkpt lat="37.745620049536228179931640625" lon="-107.71351461298763751983642578125">
        <ele>3367.800048828125</ele>
        <time>2023-07-29T13:08:29.000Z</time>
        <extensions>
          <ns3:TrackPointExtension>
            <ns3:hr>103</ns3:hr>
            <ns3:cad>51</ns3:cad>
          </ns3:TrackPointExtension>
        </extensions>
      </trkpt>
      <trkpt lat="37.74563270621001720428466796875" lon="-107.713509835302829742431640625">
        <ele>3368</ele>
        <time>2023-07-29T13:08:30.000Z</time>
        <extensions>
          <ns3:TrackPointExtension>
            <ns3:hr>103</ns3:hr>
            <ns3:cad>50</ns3:cad>
          </ns3:TrackPointExtension>
        </extensions>
      </trkpt>
      <trkpt lat="37.74564309976994991302490234375" lon="-107.71349835209548473358154296875">
        <ele>3368</ele>
        <time>2023-07-29T13:08:31.000Z</time>
        <extensions>
          <ns3:TrackPointExtension>
            <ns3:hr>103</ns3:hr>
            <ns3:cad>50</ns3:cad>
          </ns3:TrackPointExtension>
        </extensions>
      </trkpt>
      <trkpt lat="37.7456544153392314910888671875" lon="-107.71348678506910800933837890625">
        <ele>3368.39990234375</ele>
        <time>2023-07-29T13:08:32.000Z</time>
        <extensions>
          <ns3:TrackPointExtension>
            <ns3:hr>103</ns3:hr>
            <ns3:cad>50</ns3:cad>
          </ns3:TrackPointExtension>
        </extensions>
      </trkpt>
      <trkpt lat="37.74566539563238620758056640625" lon="-107.7134754694998264312744140625">
        <ele>3368.60009765625</ele>
        <time>2023-07-29T13:08:33.000Z</time>
        <extensions>
          <ns3:TrackPointExtension>
            <ns3:hr>103</ns3:hr>
            <ns3:cad>50</ns3:cad>
          </ns3:TrackPointExtension>
        </extensions>
      </trkpt>
      <trkpt lat="37.74567260406911373138427734375" lon="-107.71347069181501865386962890625">
        <ele>3368.800048828125</ele>
        <time>2023-07-29T13:08:34.000Z</time>
        <extensions>
          <ns3:TrackPointExtension>
            <ns3:hr>103</ns3:hr>
            <ns3:cad>43</ns3:cad>
          </ns3:TrackPointExtension>
        </extensions>
      </trkpt>
      <trkpt lat="37.74568316526710987091064453125" lon="-107.71346717141568660736083984375">
        <ele>3369</ele>
        <time>2023-07-29T13:08:35.000Z</time>
        <extensions>
          <ns3:TrackPointExtension>
            <ns3:hr>103</ns3:hr>
            <ns3:cad>43</ns3:cad>
          </ns3:TrackPointExtension>
        </extensions>
      </trkpt>
      <trkpt lat="37.74569280445575714111328125" lon="-107.713467590510845184326171875">
        <ele>3369</ele>
        <time>2023-07-29T13:08:36.000Z</time>
        <extensions>
          <ns3:TrackPointExtension>
            <ns3:hr>104</ns3:hr>
            <ns3:cad>43</ns3:cad>
          </ns3:TrackPointExtension>
        </extensions>
      </trkpt>
      <trkpt lat="37.7457037009298801422119140625" lon="-107.71346314810216426849365234375">
        <ele>3369.199951171875</ele>
        <time>2023-07-29T13:08:37.000Z</time>
        <extensions>
          <ns3:TrackPointExtension>
            <ns3:hr>104</ns3:hr>
            <ns3:cad>43</ns3:cad>
          </ns3:TrackPointExtension>
        </extensions>
      </trkpt>
      <trkpt lat="37.74571426212787628173828125" lon="-107.71345828659832477569580078125">
        <ele>3369.199951171875</ele>
        <time>2023-07-29T13:08:38.000Z</time>
        <extensions>
          <ns3:TrackPointExtension>
            <ns3:hr>104</ns3:hr>
            <ns3:cad>43</ns3:cad>
          </ns3:TrackPointExtension>
        </extensions>
      </trkpt>
      <trkpt lat="37.745721973478794097900390625" lon="-107.71345174871385097503662109375">
        <ele>3369.199951171875</ele>
        <time>2023-07-29T13:08:39.000Z</time>
        <extensions>
          <ns3:TrackPointExtension>
            <ns3:hr>104</ns3:hr>
            <ns3:cad>43</ns3:cad>
          </ns3:TrackPointExtension>
        </extensions>
      </trkpt>
      <trkpt lat="37.74573228321969509124755859375" lon="-107.71344252862036228179931640625">
        <ele>3369.39990234375</ele>
        <time>2023-07-29T13:08:40.000Z</time>
        <extensions>
          <ns3:TrackPointExtension>
            <ns3:hr>105</ns3:hr>
            <ns3:cad>43</ns3:cad>
          </ns3:TrackPointExtension>
        </extensions>
      </trkpt>
      <trkpt lat="37.745741419494152069091796875" lon="-107.7134349010884761810302734375">
        <ele>3369.60009765625</ele>
        <time>2023-07-29T13:08:41.000Z</time>
        <extensions>
          <ns3:TrackPointExtension>
            <ns3:hr>105</ns3:hr>
            <ns3:cad>45</ns3:cad>
          </ns3:TrackPointExtension>
        </extensions>
      </trkpt>
      <trkpt lat="37.74574854411184787750244140625" lon="-107.7134278602898120880126953125">
        <ele>3369.60009765625</ele>
        <time>2023-07-29T13:08:42.000Z</time>
        <extensions>
          <ns3:TrackPointExtension>
            <ns3:hr>105</ns3:hr>
            <ns3:cad>45</ns3:cad>
          </ns3:TrackPointExtension>
        </extensions>
      </trkpt>
      <trkpt lat="37.74575592018663883209228515625" lon="-107.71342291496694087982177734375">
        <ele>3369.800048828125</ele>
        <time>2023-07-29T13:08:43.000Z</time>
        <extensions>
          <ns3:TrackPointExtension>
            <ns3:hr>106</ns3:hr>
            <ns3:cad>50</ns3:cad>
          </ns3:TrackPointExtension>
        </extensions>
      </trkpt>
      <trkpt lat="37.74576379917562007904052734375" lon="-107.71340682171285152435302734375">
        <ele>3369.800048828125</ele>
        <time>2023-07-29T13:08:44.000Z</time>
        <extensions>
          <ns3:TrackPointExtension>
            <ns3:hr>106</ns3:hr>
            <ns3:cad>50</ns3:cad>
          </ns3:TrackPointExtension>
        </extensions>
      </trkpt>
      <trkpt lat="37.7457630448043346405029296875" lon="-107.71339274011552333831787109375">
        <ele>3370</ele>
        <time>2023-07-29T13:08:45.000Z</time>
        <extensions>
          <ns3:TrackPointExtension>
            <ns3:hr>107</ns3:hr>
            <ns3:cad>50</ns3:cad>
          </ns3:TrackPointExtension>
        </extensions>
      </trkpt>
      <trkpt lat="37.74577201344072818756103515625" lon="-107.71337849088013172149658203125">
        <ele>3370</ele>
        <time>2023-07-29T13:08:46.000Z</time>
        <extensions>
          <ns3:TrackPointExtension>
            <ns3:hr>107</ns3:hr>
            <ns3:cad>50</ns3:cad>
          </ns3:TrackPointExtension>
        </extensions>
      </trkpt>
      <trkpt lat="37.7457794733345508575439453125" lon="-107.71336658857762813568115234375">
        <ele>3370</ele>
        <time>2023-07-29T13:08:47.000Z</time>
        <extensions>
          <ns3:TrackPointExtension>
            <ns3:hr>108</ns3:hr>
            <ns3:cad>51</ns3:cad>
          </ns3:TrackPointExtension>
        </extensions>
      </trkpt>
      <trkpt lat="37.74579095654189586639404296875" lon="-107.71335183642804622650146484375">
        <ele>3370.199951171875</ele>
        <time>2023-07-29T13:08:48.000Z</time>
        <extensions>
          <ns3:TrackPointExtension>
            <ns3:hr>108</ns3:hr>
            <ns3:cad>51</ns3:cad>
          </ns3:TrackPointExtension>
        </extensions>
      </trkpt>
      <trkpt lat="37.7458012662827968597412109375" lon="-107.71333607845008373260498046875">
        <ele>3370.199951171875</ele>
        <time>2023-07-29T13:08:49.000Z</time>
        <extensions>
          <ns3:TrackPointExtension>
            <ns3:hr>108</ns3:hr>
            <ns3:cad>51</ns3:cad>
          </ns3:TrackPointExtension>
        </extensions>
      </trkpt>
      <trkpt lat="37.74580889381468296051025390625" lon="-107.71332107484340667724609375">
        <ele>3370.39990234375</ele>
        <time>2023-07-29T13:08:50.000Z</time>
        <extensions>
          <ns3:TrackPointExtension>
            <ns3:hr>109</ns3:hr>
            <ns3:cad>51</ns3:cad>
          </ns3:TrackPointExtension>
        </extensions>
      </trkpt>
      <trkpt lat="37.74581308476626873016357421875" lon="-107.71330908872187137603759765625">
        <ele>3370.39990234375</ele>
        <time>2023-07-29T13:08:51.000Z</time>
        <extensions>
          <ns3:TrackPointExtension>
            <ns3:hr>109</ns3:hr>
            <ns3:cad>51</ns3:cad>
          </ns3:TrackPointExtension>
        </extensions>
      </trkpt>
      <trkpt lat="37.745818197727203369140625" lon="-107.71329483948647975921630859375">
        <ele>3370.39990234375</ele>
        <time>2023-07-29T13:08:52.000Z</time>
        <extensions>
          <ns3:TrackPointExtension>
            <ns3:hr>109</ns3:hr>
            <ns3:cad>51</ns3:cad>
          </ns3:TrackPointExtension>
        </extensions>
      </trkpt>
      <trkpt lat="37.7458257414400577545166015625" lon="-107.7132850326597690582275390625">
        <ele>3370.39990234375</ele>
        <time>2023-07-29T13:08:53.000Z</time>
        <extensions>
          <ns3:TrackPointExtension>
            <ns3:hr>109</ns3:hr>
            <ns3:cad>53</ns3:cad>
          </ns3:TrackPointExtension>
        </extensions>
      </trkpt>
      <trkpt lat="37.7458344586193561553955078125" lon="-107.7132748067378997802734375">
        <ele>3370.60009765625</ele>
        <time>2023-07-29T13:08:54.000Z</time>
        <extensions>
          <ns3:TrackPointExtension>
            <ns3:hr>109</ns3:hr>
            <ns3:cad>53</ns3:cad>
          </ns3:TrackPointExtension>
        </extensions>
      </trkpt>
      <trkpt lat="37.7458445169031620025634765625" lon="-107.71326030604541301727294921875">
        <ele>3370.60009765625</ele>
        <time>2023-07-29T13:08:55.000Z</time>
        <extensions>
          <ns3:TrackPointExtension>
            <ns3:hr>108</ns3:hr>
            <ns3:cad>53</ns3:cad>
          </ns3:TrackPointExtension>
        </extensions>
      </trkpt>
      <trkpt lat="37.7458535693585872650146484375" lon="-107.713252007961273193359375">
        <ele>3370.60009765625</ele>
        <time>2023-07-29T13:08:56.000Z</time>
        <extensions>
          <ns3:TrackPointExtension>
            <ns3:hr>108</ns3:hr>
            <ns3:cad>53</ns3:cad>
          </ns3:TrackPointExtension>
        </extensions>
      </trkpt>
      <trkpt lat="37.7458597719669342041015625" lon="-107.71324505098164081573486328125">
        <ele>3370.800048828125</ele>
        <time>2023-07-29T13:08:57.000Z</time>
        <extensions>
          <ns3:TrackPointExtension>
            <ns3:hr>108</ns3:hr>
            <ns3:cad>53</ns3:cad>
          </ns3:TrackPointExtension>
        </extensions>
      </trkpt>
      <trkpt lat="37.74586639367043972015380859375" lon="-107.7132384292781352996826171875">
        <ele>3370.800048828125</ele>
        <time>2023-07-29T13:08:58.000Z</time>
        <extensions>
          <ns3:TrackPointExtension>
            <ns3:hr>108</ns3:hr>
            <ns3:cad>53</ns3:cad>
          </ns3:TrackPointExtension>
        </extensions>
      </trkpt>
      <trkpt lat="37.7458756975829601287841796875" lon="-107.71322987973690032958984375">
        <ele>3371</ele>
        <time>2023-07-29T13:08:59.000Z</time>
        <extensions>
          <ns3:TrackPointExtension>
            <ns3:hr>108</ns3:hr>
            <ns3:cad>53</ns3:cad>
          </ns3:TrackPointExtension>
        </extensions>
      </trkpt>
      <trkpt lat="37.745886929333209991455078125" lon="-107.71321688778698444366455078125">
        <ele>3371</ele>
        <time>2023-07-29T13:09:00.000Z</time>
        <extensions>
          <ns3:TrackPointExtension>
            <ns3:hr>108</ns3:hr>
            <ns3:cad>52</ns3:cad>
          </ns3:TrackPointExtension>
        </extensions>
      </trkpt>
      <trkpt lat="37.745894975960254669189453125" lon="-107.7132075838744640350341796875">
        <ele>3371.199951171875</ele>
        <time>2023-07-29T13:09:01.000Z</time>
        <extensions>
          <ns3:TrackPointExtension>
            <ns3:hr>108</ns3:hr>
            <ns3:cad>52</ns3:cad>
          </ns3:TrackPointExtension>
        </extensions>
      </trkpt>
      <trkpt lat="37.74590645916759967803955078125" lon="-107.71320800296962261199951171875">
        <ele>3371.199951171875</ele>
        <time>2023-07-29T13:09:02.000Z</time>
        <extensions>
          <ns3:TrackPointExtension>
            <ns3:hr>108</ns3:hr>
            <ns3:cad>52</ns3:cad>
          </ns3:TrackPointExtension>
        </extensions>
      </trkpt>
      <trkpt lat="37.74591199122369289398193359375" lon="-107.71320297382771968841552734375">
        <ele>3371.39990234375</ele>
        <time>2023-07-29T13:09:03.000Z</time>
        <extensions>
          <ns3:TrackPointExtension>
            <ns3:hr>107</ns3:hr>
            <ns3:cad>51</ns3:cad>
          </ns3:TrackPointExtension>
        </extensions>
      </trkpt>
      <trkpt lat="37.7459246478974819183349609375" lon="-107.71320297382771968841552734375">
        <ele>3371.39990234375</ele>
        <time>2023-07-29T13:09:04.000Z</time>
        <extensions>
          <ns3:TrackPointExtension>
            <ns3:hr>106</ns3:hr>
            <ns3:cad>51</ns3:cad>
          </ns3:TrackPointExtension>
        </extensions>
      </trkpt>
      <trkpt lat="37.7459276653826236724853515625" lon="-107.7132002077996730804443359375">
        <ele>3371.39990234375</ele>
        <time>2023-07-29T13:09:05.000Z</time>
        <extensions>
          <ns3:TrackPointExtension>
            <ns3:hr>106</ns3:hr>
            <ns3:cad>51</ns3:cad>
          </ns3:TrackPointExtension>
        </extensions>
      </trkpt>
      <trkpt lat="37.74593244306743144989013671875" lon="-107.7131965197622776031494140625">
        <ele>3371.39990234375</ele>
        <time>2023-07-29T13:09:06.000Z</time>
        <extensions>
          <ns3:TrackPointExtension>
            <ns3:hr>105</ns3:hr>
            <ns3:cad>51</ns3:cad>
          </ns3:TrackPointExtension>
        </extensions>
      </trkpt>
      <trkpt lat="37.7459397353231906890869140625" lon="-107.71318285726010799407958984375">
        <ele>3371.60009765625</ele>
        <time>2023-07-29T13:09:07.000Z</time>
        <extensions>
          <ns3:TrackPointExtension>
            <ns3:hr>105</ns3:hr>
            <ns3:cad>51</ns3:cad>
          </ns3:TrackPointExtension>
        </extensions>
      </trkpt>
      <trkpt lat="37.74594434536993503570556640625" lon="-107.7131713740527629852294921875">
        <ele>3371.60009765625</ele>
        <time>2023-07-29T13:09:08.000Z</time>
        <extensions>
          <ns3:TrackPointExtension>
            <ns3:hr>105</ns3:hr>
            <ns3:cad>51</ns3:cad>
          </ns3:TrackPointExtension>
        </extensions>
      </trkpt>
      <trkpt lat="37.74594333954155445098876953125" lon="-107.7131542749702930450439453125">
        <ele>3372</ele>
        <time>2023-07-29T13:09:09.000Z</time>
        <extensions>
          <ns3:TrackPointExtension>
            <ns3:hr>105</ns3:hr>
            <ns3:cad>51</ns3:cad>
          </ns3:TrackPointExtension>
        </extensions>
      </trkpt>
      <trkpt lat="37.74594568647444248199462890625" lon="-107.71314748562872409820556640625">
        <ele>3372</ele>
        <time>2023-07-29T13:09:10.000Z</time>
        <extensions>
          <ns3:TrackPointExtension>
            <ns3:hr>105</ns3:hr>
            <ns3:cad>55</ns3:cad>
          </ns3:TrackPointExtension>
        </extensions>
      </trkpt>
      <trkpt lat="37.7459456026554107666015625" lon="-107.7131378464400768280029296875">
        <ele>3372.199951171875</ele>
        <time>2023-07-29T13:09:11.000Z</time>
        <extensions>
          <ns3:TrackPointExtension>
            <ns3:hr>104</ns3:hr>
            <ns3:cad>55</ns3:cad>
          </ns3:TrackPointExtension>
        </extensions>
      </trkpt>
      <trkpt lat="37.74595566093921661376953125" lon="-107.71312669850885868072509765625">
        <ele>3372.199951171875</ele>
        <time>2023-07-29T13:09:12.000Z</time>
        <extensions>
          <ns3:TrackPointExtension>
            <ns3:hr>104</ns3:hr>
            <ns3:cad>55</ns3:cad>
          </ns3:TrackPointExtension>
        </extensions>
      </trkpt>
      <trkpt lat="37.74596563540399074554443359375" lon="-107.71311496384441852569580078125">
        <ele>3372.39990234375</ele>
        <time>2023-07-29T13:09:13.000Z</time>
        <extensions>
          <ns3:TrackPointExtension>
            <ns3:hr>103</ns3:hr>
            <ns3:cad>55</ns3:cad>
          </ns3:TrackPointExtension>
        </extensions>
      </trkpt>
      <trkpt lat="37.74598038755357265472412109375" lon="-107.71310247480869293212890625">
        <ele>3372.39990234375</ele>
        <time>2023-07-29T13:09:14.000Z</time>
        <extensions>
          <ns3:TrackPointExtension>
            <ns3:hr>103</ns3:hr>
            <ns3:cad>56</ns3:cad>
          </ns3:TrackPointExtension>
        </extensions>
      </trkpt>
      <trkpt lat="37.7459866739809513092041015625" lon="-107.71309618838131427764892578125">
        <ele>3372.60009765625</ele>
        <time>2023-07-29T13:09:15.000Z</time>
        <extensions>
          <ns3:TrackPointExtension>
            <ns3:hr>103</ns3:hr>
            <ns3:cad>56</ns3:cad>
          </ns3:TrackPointExtension>
        </extensions>
      </trkpt>
      <trkpt lat="37.74599094875156879425048828125" lon="-107.713085711002349853515625">
        <ele>3372.60009765625</ele>
        <time>2023-07-29T13:09:16.000Z</time>
        <extensions>
          <ns3:TrackPointExtension>
            <ns3:hr>103</ns3:hr>
            <ns3:cad>56</ns3:cad>
          </ns3:TrackPointExtension>
        </extensions>
      </trkpt>
      <trkpt lat="37.745996899902820587158203125" lon="-107.713072635233402252197265625">
        <ele>3372.800048828125</ele>
        <time>2023-07-29T13:09:17.000Z</time>
        <extensions>
          <ns3:TrackPointExtension>
            <ns3:hr>102</ns3:hr>
            <ns3:cad>56</ns3:cad>
          </ns3:TrackPointExtension>
        </extensions>
      </trkpt>
      <trkpt lat="37.746005952358245849609375" lon="-107.7130614034831523895263671875">
        <ele>3372.800048828125</ele>
        <time>2023-07-29T13:09:18.000Z</time>
        <extensions>
          <ns3:TrackPointExtension>
            <ns3:hr>102</ns3:hr>
            <ns3:cad>54</ns3:cad>
          </ns3:TrackPointExtension>
        </extensions>
      </trkpt>
      <trkpt lat="37.74601240642368793487548828125" lon="-107.713052518665790557861328125">
        <ele>3373</ele>
        <time>2023-07-29T13:09:19.000Z</time>
        <extensions>
          <ns3:TrackPointExtension>
            <ns3:hr>101</ns3:hr>
            <ns3:cad>54</ns3:cad>
          </ns3:TrackPointExtension>
        </extensions>
      </trkpt>
      <trkpt lat="37.74601601064205169677734375" lon="-107.71304539404809474945068359375">
        <ele>3373.199951171875</ele>
        <time>2023-07-29T13:09:20.000Z</time>
        <extensions>
          <ns3:TrackPointExtension>
            <ns3:hr>101</ns3:hr>
            <ns3:cad>53</ns3:cad>
          </ns3:TrackPointExtension>
        </extensions>
      </trkpt>
      <trkpt lat="37.7460205368697643280029296875" lon="-107.7130382694303989410400390625">
        <ele>3373.199951171875</ele>
        <time>2023-07-29T13:09:21.000Z</time>
        <extensions>
          <ns3:TrackPointExtension>
            <ns3:hr>101</ns3:hr>
            <ns3:cad>53</ns3:cad>
          </ns3:TrackPointExtension>
        </extensions>
      </trkpt>
      <trkpt lat="37.74603000842034816741943359375" lon="-107.71302603185176849365234375">
        <ele>3373.199951171875</ele>
        <time>2023-07-29T13:09:22.000Z</time>
        <extensions>
          <ns3:TrackPointExtension>
            <ns3:hr>101</ns3:hr>
            <ns3:cad>52</ns3:cad>
          </ns3:TrackPointExtension>
        </extensions>
      </trkpt>
      <trkpt lat="37.74603688158094882965087890625" lon="-107.71301605738699436187744140625">
        <ele>3373.39990234375</ele>
        <time>2023-07-29T13:09:23.000Z</time>
        <extensions>
          <ns3:TrackPointExtension>
            <ns3:hr>101</ns3:hr>
            <ns3:cad>52</ns3:cad>
          </ns3:TrackPointExtension>
        </extensions>
      </trkpt>
      <trkpt lat="37.746045850217342376708984375" lon="-107.7129983715713024139404296875">
        <ele>3373.39990234375</ele>
        <time>2023-07-29T13:09:24.000Z</time>
        <extensions>
          <ns3:TrackPointExtension>
            <ns3:hr>101</ns3:hr>
            <ns3:cad>52</ns3:cad>
          </ns3:TrackPointExtension>
        </extensions>
      </trkpt>
      <trkpt lat="37.74606118910014629364013671875" lon="-107.71298713982105255126953125">
        <ele>3373.39990234375</ele>
        <time>2023-07-29T13:09:25.000Z</time>
        <extensions>
          <ns3:TrackPointExtension>
            <ns3:hr>101</ns3:hr>
            <ns3:cad>52</ns3:cad>
          </ns3:TrackPointExtension>
        </extensions>
      </trkpt>
      <trkpt lat="37.74606940336525440216064453125" lon="-107.712983451783657073974609375">
        <ele>3373.60009765625</ele>
        <time>2023-07-29T13:09:26.000Z</time>
        <extensions>
          <ns3:TrackPointExtension>
            <ns3:hr>101</ns3:hr>
            <ns3:cad>52</ns3:cad>
          </ns3:TrackPointExtension>
        </extensions>
      </trkpt>
      <trkpt lat="37.74607543833553791046142578125" lon="-107.71297766827046871185302734375">
        <ele>3373.60009765625</ele>
        <time>2023-07-29T13:09:27.000Z</time>
        <extensions>
          <ns3:TrackPointExtension>
            <ns3:hr>101</ns3:hr>
            <ns3:cad>52</ns3:cad>
          </ns3:TrackPointExtension>
        </extensions>
      </trkpt>
      <trkpt lat="37.74607476778328418731689453125" lon="-107.71298202686011791229248046875">
        <ele>3373.800048828125</ele>
        <time>2023-07-29T13:09:28.000Z</time>
        <extensions>
          <ns3:TrackPointExtension>
            <ns3:hr>101</ns3:hr>
            <ns3:cad>0</ns3:cad>
          </ns3:TrackPointExtension>
        </extensions>
      </trkpt>
      <trkpt lat="37.7460822276771068572998046875" lon="-107.7129735611379146575927734375">
        <ele>3374</ele>
        <time>2023-07-29T13:09:29.000Z</time>
        <extensions>
          <ns3:TrackPointExtension>
            <ns3:hr>101</ns3:hr>
            <ns3:cad>0</ns3:cad>
          </ns3:TrackPointExtension>
        </extensions>
      </trkpt>
      <trkpt lat="37.746095471084117889404296875" lon="-107.7129574678838253021240234375">
        <ele>3374.199951171875</ele>
        <time>2023-07-29T13:09:30.000Z</time>
        <extensions>
          <ns3:TrackPointExtension>
            <ns3:hr>102</ns3:hr>
            <ns3:cad>52</ns3:cad>
          </ns3:TrackPointExtension>
        </extensions>
      </trkpt>
      <trkpt lat="37.74610661901533603668212890625" lon="-107.71294531412422657012939453125">
        <ele>3374.60009765625</ele>
        <time>2023-07-29T13:09:31.000Z</time>
        <extensions>
          <ns3:TrackPointExtension>
            <ns3:hr>102</ns3:hr>
            <ns3:cad>52</ns3:cad>
          </ns3:TrackPointExtension>
        </extensions>
      </trkpt>
      <trkpt lat="37.74611751548945903778076171875" lon="-107.71292679011821746826171875">
        <ele>3374.800048828125</ele>
        <time>2023-07-29T13:09:32.000Z</time>
        <extensions>
          <ns3:TrackPointExtension>
            <ns3:hr>102</ns3:hr>
            <ns3:cad>52</ns3:cad>
          </ns3:TrackPointExtension>
        </extensions>
      </trkpt>
      <trkpt lat="37.74612329900264739990234375" lon="-107.7129182405769824981689453125">
        <ele>3374.800048828125</ele>
        <time>2023-07-29T13:09:33.000Z</time>
        <extensions>
          <ns3:TrackPointExtension>
            <ns3:hr>102</ns3:hr>
            <ns3:cad>51</ns3:cad>
          </ns3:TrackPointExtension>
        </extensions>
      </trkpt>
      <trkpt lat="37.74612790904939174652099609375" lon="-107.71291027776896953582763671875">
        <ele>3375</ele>
        <time>2023-07-29T13:09:34.000Z</time>
        <extensions>
          <ns3:TrackPointExtension>
            <ns3:hr>102</ns3:hr>
            <ns3:cad>51</ns3:cad>
          </ns3:TrackPointExtension>
        </extensions>
      </trkpt>
      <trkpt lat="37.7461305074393749237060546875" lon="-107.71290223114192485809326171875">
        <ele>3375.199951171875</ele>
        <time>2023-07-29T13:09:35.000Z</time>
        <extensions>
          <ns3:TrackPointExtension>
            <ns3:hr>102</ns3:hr>
            <ns3:cad>51</ns3:cad>
          </ns3:TrackPointExtension>
        </extensions>
      </trkpt>
      <trkpt lat="37.74613662622869014739990234375" lon="-107.71289183758199214935302734375">
        <ele>3375.199951171875</ele>
        <time>2023-07-29T13:09:36.000Z</time>
        <extensions>
          <ns3:TrackPointExtension>
            <ns3:hr>102</ns3:hr>
            <ns3:cad>51</ns3:cad>
          </ns3:TrackPointExtension>
        </extensions>
      </trkpt>
      <trkpt lat="37.74614232592284679412841796875" lon="-107.71288253366947174072265625">
        <ele>3375.39990234375</ele>
        <time>2023-07-29T13:09:37.000Z</time>
        <extensions>
          <ns3:TrackPointExtension>
            <ns3:hr>102</ns3:hr>
            <ns3:cad>50</ns3:cad>
          </ns3:TrackPointExtension>
        </extensions>
      </trkpt>
      <trkpt lat="37.74614266119897365570068359375" lon="-107.7128783427178859710693359375">
        <ele>3375.60009765625</ele>
        <time>2023-07-29T13:09:38.000Z</time>
        <extensions>
          <ns3:TrackPointExtension>
            <ns3:hr>102</ns3:hr>
            <ns3:cad>50</ns3:cad>
          </ns3:TrackPointExtension>
        </extensions>
      </trkpt>
      <trkpt lat="37.746144421398639678955078125" lon="-107.71287390030920505523681640625">
        <ele>3375.60009765625</ele>
        <time>2023-07-29T13:09:39.000Z</time>
        <extensions>
          <ns3:TrackPointExtension>
            <ns3:hr>102</ns3:hr>
            <ns3:cad>50</ns3:cad>
          </ns3:TrackPointExtension>
        </extensions>
      </trkpt>
      <trkpt lat="37.74615171365439891815185546875" lon="-107.7128652669489383697509765625">
        <ele>3375.800048828125</ele>
        <time>2023-07-29T13:09:40.000Z</time>
        <extensions>
          <ns3:TrackPointExtension>
            <ns3:hr>102</ns3:hr>
            <ns3:cad>49</ns3:cad>
          </ns3:TrackPointExtension>
        </extensions>
      </trkpt>
      <trkpt lat="37.7461640350520610809326171875" lon="-107.71284875459969043731689453125">
        <ele>3376</ele>
        <time>2023-07-29T13:09:41.000Z</time>
        <extensions>
          <ns3:TrackPointExtension>
            <ns3:hr>102</ns3:hr>
            <ns3:cad>48</ns3:cad>
          </ns3:TrackPointExtension>
        </extensions>
      </trkpt>
      <trkpt lat="37.7461767755448818206787109375" lon="-107.71283282898366451263427734375">
        <ele>3376</ele>
        <time>2023-07-29T13:09:42.000Z</time>
        <extensions>
          <ns3:TrackPointExtension>
            <ns3:hr>102</ns3:hr>
            <ns3:cad>48</ns3:cad>
          </ns3:TrackPointExtension>
        </extensions>
      </trkpt>
      <trkpt lat="37.7461885102093219757080078125" lon="-107.71282411180436611175537109375">
        <ele>3376.199951171875</ele>
        <time>2023-07-29T13:09:43.000Z</time>
        <extensions>
          <ns3:TrackPointExtension>
            <ns3:hr>102</ns3:hr>
            <ns3:cad>48</ns3:cad>
          </ns3:TrackPointExtension>
        </extensions>
      </trkpt>
      <trkpt lat="37.74619840085506439208984375" lon="-107.71281522698700428009033203125">
        <ele>3376.199951171875</ele>
        <time>2023-07-29T13:09:44.000Z</time>
        <extensions>
          <ns3:TrackPointExtension>
            <ns3:hr>102</ns3:hr>
            <ns3:cad>48</ns3:cad>
          </ns3:TrackPointExtension>
        </extensions>
      </trkpt>
      <trkpt lat="37.74621038697659969329833984375" lon="-107.7128039114177227020263671875">
        <ele>3376.199951171875</ele>
        <time>2023-07-29T13:09:45.000Z</time>
        <extensions>
          <ns3:TrackPointExtension>
            <ns3:hr>102</ns3:hr>
            <ns3:cad>52</ns3:cad>
          </ns3:TrackPointExtension>
        </extensions>
      </trkpt>
      <trkpt lat="37.74622262455523014068603515625" lon="-107.71279477514326572418212890625">
        <ele>3376.199951171875</ele>
        <time>2023-07-29T13:09:46.000Z</time>
        <extensions>
          <ns3:TrackPointExtension>
            <ns3:hr>102</ns3:hr>
            <ns3:cad>52</ns3:cad>
          </ns3:TrackPointExtension>
        </extensions>
      </trkpt>
      <trkpt lat="37.7462324313819408416748046875" lon="-107.71278153173625469207763671875">
        <ele>3376.39990234375</ele>
        <time>2023-07-29T13:09:47.000Z</time>
        <extensions>
          <ns3:TrackPointExtension>
            <ns3:hr>102</ns3:hr>
            <ns3:cad>51</ns3:cad>
          </ns3:TrackPointExtension>
        </extensions>
      </trkpt>
      <trkpt lat="37.746244333684444427490234375" lon="-107.712766863405704498291015625">
        <ele>3376.39990234375</ele>
        <time>2023-07-29T13:09:48.000Z</time>
        <extensions>
          <ns3:TrackPointExtension>
            <ns3:hr>102</ns3:hr>
            <ns3:cad>49</ns3:cad>
          </ns3:TrackPointExtension>
        </extensions>
      </trkpt>
      <trkpt lat="37.74625699035823345184326171875" lon="-107.71275102160871028900146484375">
        <ele>3376.60009765625</ele>
        <time>2023-07-29T13:09:49.000Z</time>
        <extensions>
          <ns3:TrackPointExtension>
            <ns3:hr>102</ns3:hr>
            <ns3:cad>49</ns3:cad>
          </ns3:TrackPointExtension>
        </extensions>
      </trkpt>
      <trkpt lat="37.746263109147548675537109375" lon="-107.71274012513458728790283203125">
        <ele>3376.800048828125</ele>
        <time>2023-07-29T13:09:50.000Z</time>
        <extensions>
          <ns3:TrackPointExtension>
            <ns3:hr>102</ns3:hr>
            <ns3:cad>49</ns3:cad>
          </ns3:TrackPointExtension>
        </extensions>
      </trkpt>
      <trkpt lat="37.7462709881365299224853515625" lon="-107.71273241378366947174072265625">
        <ele>3376.800048828125</ele>
        <time>2023-07-29T13:09:51.000Z</time>
        <extensions>
          <ns3:TrackPointExtension>
            <ns3:hr>103</ns3:hr>
            <ns3:cad>49</ns3:cad>
          </ns3:TrackPointExtension>
        </extensions>
      </trkpt>
      <trkpt lat="37.746273167431354522705078125" lon="-107.71272621117532253265380859375">
        <ele>3376.800048828125</ele>
        <time>2023-07-29T13:09:52.000Z</time>
        <extensions>
          <ns3:TrackPointExtension>
            <ns3:hr>103</ns3:hr>
            <ns3:cad>49</ns3:cad>
          </ns3:TrackPointExtension>
        </extensions>
      </trkpt>
      <trkpt lat="37.74627693928778171539306640625" lon="-107.7127187512814998626708984375">
        <ele>3376.800048828125</ele>
        <time>2023-07-29T13:09:53.000Z</time>
        <extensions>
          <ns3:TrackPointExtension>
            <ns3:hr>104</ns3:hr>
            <ns3:cad>50</ns3:cad>
          </ns3:TrackPointExtension>
        </extensions>
      </trkpt>
      <trkpt lat="37.746284902095794677734375" lon="-107.71271011792123317718505859375">
        <ele>3376.800048828125</ele>
        <time>2023-07-29T13:09:54.000Z</time>
        <extensions>
          <ns3:TrackPointExtension>
            <ns3:hr>104</ns3:hr>
            <ns3:cad>53</ns3:cad>
          </ns3:TrackPointExtension>
        </extensions>
      </trkpt>
      <trkpt lat="37.7462927810847759246826171875" lon="-107.71270307712256908416748046875">
        <ele>3377</ele>
        <time>2023-07-29T13:09:55.000Z</time>
        <extensions>
          <ns3:TrackPointExtension>
            <ns3:hr>104</ns3:hr>
            <ns3:cad>53</ns3:cad>
          </ns3:TrackPointExtension>
        </extensions>
      </trkpt>
      <trkpt lat="37.7462934516370296478271484375" lon="-107.7126976288855075836181640625">
        <ele>3377</ele>
        <time>2023-07-29T13:09:56.000Z</time>
        <extensions>
          <ns3:TrackPointExtension>
            <ns3:hr>103</ns3:hr>
            <ns3:cad>53</ns3:cad>
          </ns3:TrackPointExtension>
        </extensions>
      </trkpt>
      <trkpt lat="37.74629672057926654815673828125" lon="-107.71269100718200206756591796875">
        <ele>3377</ele>
        <time>2023-07-29T13:09:57.000Z</time>
        <extensions>
          <ns3:TrackPointExtension>
            <ns3:hr>103</ns3:hr>
            <ns3:cad>51</ns3:cad>
          </ns3:TrackPointExtension>
        </extensions>
      </trkpt>
      <trkpt lat="37.7463028393685817718505859375" lon="-107.71268296055495738983154296875">
        <ele>3377.199951171875</ele>
        <time>2023-07-29T13:09:58.000Z</time>
        <extensions>
          <ns3:TrackPointExtension>
            <ns3:hr>103</ns3:hr>
            <ns3:cad>50</ns3:cad>
          </ns3:TrackPointExtension>
        </extensions>
      </trkpt>
      <trkpt lat="37.746304012835025787353515625" lon="-107.71267809905111789703369140625">
        <ele>3377.39990234375</ele>
        <time>2023-07-29T13:09:59.000Z</time>
        <extensions>
          <ns3:TrackPointExtension>
            <ns3:hr>103</ns3:hr>
            <ns3:cad>50</ns3:cad>
          </ns3:TrackPointExtension>
        </extensions>
      </trkpt>
      <trkpt lat="37.746311724185943603515625" lon="-107.71266820840537548065185546875">
        <ele>3377.60009765625</ele>
        <time>2023-07-29T13:10:00.000Z</time>
        <extensions>
          <ns3:TrackPointExtension>
            <ns3:hr>103</ns3:hr>
            <ns3:cad>50</ns3:cad>
          </ns3:TrackPointExtension>
        </extensions>
      </trkpt>
      <trkpt lat="37.74632069282233715057373046875" lon="-107.7126567251980304718017578125">
        <ele>3377.60009765625</ele>
        <time>2023-07-29T13:10:01.000Z</time>
        <extensions>
          <ns3:TrackPointExtension>
            <ns3:hr>102</ns3:hr>
            <ns3:cad>52</ns3:cad>
          </ns3:TrackPointExtension>
        </extensions>
      </trkpt>
      <trkpt lat="37.74633091874420642852783203125" lon="-107.712647505104541778564453125">
        <ele>3377.800048828125</ele>
        <time>2023-07-29T13:10:02.000Z</time>
        <extensions>
          <ns3:TrackPointExtension>
            <ns3:hr>102</ns3:hr>
            <ns3:cad>52</ns3:cad>
          </ns3:TrackPointExtension>
        </extensions>
      </trkpt>
      <trkpt lat="37.7463450841605663299560546875" lon="-107.71263937465846538543701171875">
        <ele>3377.800048828125</ele>
        <time>2023-07-29T13:10:03.000Z</time>
        <extensions>
          <ns3:TrackPointExtension>
            <ns3:hr>102</ns3:hr>
            <ns3:cad>52</ns3:cad>
          </ns3:TrackPointExtension>
        </extensions>
      </trkpt>
      <trkpt lat="37.74636276997625827789306640625" lon="-107.71262772381305694580078125">
        <ele>3378</ele>
        <time>2023-07-29T13:10:04.000Z</time>
        <extensions>
          <ns3:TrackPointExtension>
            <ns3:hr>102</ns3:hr>
            <ns3:cad>52</ns3:cad>
          </ns3:TrackPointExtension>
        </extensions>
      </trkpt>
      <trkpt lat="37.74637810885906219482421875" lon="-107.71261255256831645965576171875">
        <ele>3378</ele>
        <time>2023-07-29T13:10:05.000Z</time>
        <extensions>
          <ns3:TrackPointExtension>
            <ns3:hr>102</ns3:hr>
            <ns3:cad>49</ns3:cad>
          </ns3:TrackPointExtension>
        </extensions>
      </trkpt>
      <trkpt lat="37.74638942442834377288818359375" lon="-107.7126010693609714508056640625">
        <ele>3378</ele>
        <time>2023-07-29T13:10:06.000Z</time>
        <extensions>
          <ns3:TrackPointExtension>
            <ns3:hr>102</ns3:hr>
            <ns3:cad>49</ns3:cad>
          </ns3:TrackPointExtension>
        </extensions>
      </trkpt>
      <trkpt lat="37.74640090763568878173828125" lon="-107.71258941851556301116943359375">
        <ele>3378</ele>
        <time>2023-07-29T13:10:07.000Z</time>
        <extensions>
          <ns3:TrackPointExtension>
            <ns3:hr>102</ns3:hr>
            <ns3:cad>49</ns3:cad>
          </ns3:TrackPointExtension>
        </extensions>
      </trkpt>
      <trkpt lat="37.7464114688336849212646484375" lon="-107.71257952786982059478759765625">
        <ele>3378</ele>
        <time>2023-07-29T13:10:08.000Z</time>
        <extensions>
          <ns3:TrackPointExtension>
            <ns3:hr>102</ns3:hr>
            <ns3:cad>49</ns3:cad>
          </ns3:TrackPointExtension>
        </extensions>
      </trkpt>
      <trkpt lat="37.74642077274620532989501953125" lon="-107.7125774323940277099609375">
        <ele>3378.199951171875</ele>
        <time>2023-07-29T13:10:09.000Z</time>
        <extensions>
          <ns3:TrackPointExtension>
            <ns3:hr>102</ns3:hr>
            <ns3:cad>50</ns3:cad>
          </ns3:TrackPointExtension>
        </extensions>
      </trkpt>
      <trkpt lat="37.7464255504310131072998046875" lon="-107.71257399581372737884521484375">
        <ele>3378.199951171875</ele>
        <time>2023-07-29T13:10:10.000Z</time>
        <extensions>
          <ns3:TrackPointExtension>
            <ns3:hr>103</ns3:hr>
            <ns3:cad>50</ns3:cad>
          </ns3:TrackPointExtension>
        </extensions>
      </trkpt>
      <trkpt lat="37.74642948992550373077392578125" lon="-107.71257433108985424041748046875">
        <ele>3378.39990234375</ele>
        <time>2023-07-29T13:10:11.000Z</time>
        <extensions>
          <ns3:TrackPointExtension>
            <ns3:hr>104</ns3:hr>
            <ns3:cad>50</ns3:cad>
          </ns3:TrackPointExtension>
        </extensions>
      </trkpt>
      <trkpt lat="37.7464377880096435546875" lon="-107.71256946958601474761962890625">
        <ele>3378.39990234375</ele>
        <time>2023-07-29T13:10:12.000Z</time>
        <extensions>
          <ns3:TrackPointExtension>
            <ns3:hr>104</ns3:hr>
            <ns3:cad>48</ns3:cad>
          </ns3:TrackPointExtension>
        </extensions>
      </trkpt>
      <trkpt lat="37.74644206278026103973388671875" lon="-107.71256494335830211639404296875">
        <ele>3378.39990234375</ele>
        <time>2023-07-29T13:10:13.000Z</time>
        <extensions>
          <ns3:TrackPointExtension>
            <ns3:hr>104</ns3:hr>
            <ns3:cad>48</ns3:cad>
          </ns3:TrackPointExtension>
        </extensions>
      </trkpt>
      <trkpt lat="37.74644642136991024017333984375" lon="-107.71256008185446262359619140625">
        <ele>3378.60009765625</ele>
        <time>2023-07-29T13:10:14.000Z</time>
        <extensions>
          <ns3:TrackPointExtension>
            <ns3:hr>104</ns3:hr>
            <ns3:cad>48</ns3:cad>
          </ns3:TrackPointExtension>
        </extensions>
      </trkpt>
      <trkpt lat="37.746447511017322540283203125" lon="-107.71255454979836940765380859375">
        <ele>3378.800048828125</ele>
        <time>2023-07-29T13:10:15.000Z</time>
        <extensions>
          <ns3:TrackPointExtension>
            <ns3:hr>104</ns3:hr>
            <ns3:cad>48</ns3:cad>
          </ns3:TrackPointExtension>
        </extensions>
      </trkpt>
      <trkpt lat="37.746450863778591156005859375" lon="-107.7125480957329273223876953125">
        <ele>3379</ele>
        <time>2023-07-29T13:10:16.000Z</time>
        <extensions>
          <ns3:TrackPointExtension>
            <ns3:hr>104</ns3:hr>
            <ns3:cad>48</ns3:cad>
          </ns3:TrackPointExtension>
        </extensions>
      </trkpt>
      <trkpt lat="37.74645228870213031768798828125" lon="-107.71254382096230983734130859375">
        <ele>3379.199951171875</ele>
        <time>2023-07-29T13:10:17.000Z</time>
        <extensions>
          <ns3:TrackPointExtension>
            <ns3:hr>104</ns3:hr>
            <ns3:cad>48</ns3:cad>
          </ns3:TrackPointExtension>
        </extensions>
      </trkpt>
      <trkpt lat="37.7464533783495426177978515625" lon="-107.712536193430423736572265625">
        <ele>3379.199951171875</ele>
        <time>2023-07-29T13:10:18.000Z</time>
        <extensions>
          <ns3:TrackPointExtension>
            <ns3:hr>104</ns3:hr>
            <ns3:cad>47</ns3:cad>
          </ns3:TrackPointExtension>
        </extensions>
      </trkpt>
      <trkpt lat="37.7464533783495426177978515625" lon="-107.712531499564647674560546875">
        <ele>3379.39990234375</ele>
        <time>2023-07-29T13:10:19.000Z</time>
        <extensions>
          <ns3:TrackPointExtension>
            <ns3:hr>104</ns3:hr>
            <ns3:cad>46</ns3:cad>
          </ns3:TrackPointExtension>
        </extensions>
      </trkpt>
      <trkpt lat="37.74645597673952579498291015625" lon="-107.7125263027846813201904296875">
        <ele>3379.39990234375</ele>
        <time>2023-07-29T13:10:20.000Z</time>
        <extensions>
          <ns3:TrackPointExtension>
            <ns3:hr>104</ns3:hr>
            <ns3:cad>46</ns3:cad>
          </ns3:TrackPointExtension>
        </extensions>
      </trkpt>
      <trkpt lat="37.74645798839628696441650390625" lon="-107.71252286620438098907470703125">
        <ele>3379.39990234375</ele>
        <time>2023-07-29T13:10:21.000Z</time>
        <extensions>
          <ns3:TrackPointExtension>
            <ns3:hr>103</ns3:hr>
            <ns3:cad>46</ns3:cad>
          </ns3:TrackPointExtension>
        </extensions>
      </trkpt>
      <trkpt lat="37.74646016769111156463623046875" lon="-107.7125184237957000732421875">
        <ele>3379.39990234375</ele>
        <time>2023-07-29T13:10:22.000Z</time>
        <extensions>
          <ns3:TrackPointExtension>
            <ns3:hr>103</ns3:hr>
            <ns3:cad>0</ns3:cad>
          </ns3:TrackPointExtension>
        </extensions>
      </trkpt>
      <trkpt lat="37.74645698256790637969970703125" lon="-107.71251498721539974212646484375">
        <ele>3379.39990234375</ele>
        <time>2023-07-29T13:10:23.000Z</time>
        <extensions>
          <ns3:TrackPointExtension>
            <ns3:hr>102</ns3:hr>
            <ns3:cad>0</ns3:cad>
          </ns3:TrackPointExtension>
        </extensions>
      </trkpt>
      <trkpt lat="37.7464560605585575103759765625" lon="-107.71250962279736995697021484375">
        <ele>3379.39990234375</ele>
        <time>2023-07-29T13:10:24.000Z</time>
        <extensions>
          <ns3:TrackPointExtension>
            <ns3:hr>102</ns3:hr>
            <ns3:cad>0</ns3:cad>
          </ns3:TrackPointExtension>
        </extensions>
      </trkpt>
      <trkpt lat="37.74646100588142871856689453125" lon="-107.71249755285680294036865234375">
        <ele>3379.39990234375</ele>
        <time>2023-07-29T13:10:25.000Z</time>
        <extensions>
          <ns3:TrackPointExtension>
            <ns3:hr>101</ns3:hr>
            <ns3:cad>0</ns3:cad>
          </ns3:TrackPointExtension>
        </extensions>
      </trkpt>
      <trkpt lat="37.7464533783495426177978515625" lon="-107.71247693337500095367431640625">
        <ele>3379.39990234375</ele>
        <time>2023-07-29T13:10:26.000Z</time>
        <extensions>
          <ns3:TrackPointExtension>
            <ns3:hr>101</ns3:hr>
            <ns3:cad>0</ns3:cad>
          </ns3:TrackPointExtension>
        </extensions>
      </trkpt>
      <trkpt lat="37.746450193226337432861328125" lon="-107.7124760113656520843505859375">
        <ele>3379.39990234375</ele>
        <time>2023-07-29T13:10:27.000Z</time>
        <extensions>
          <ns3:TrackPointExtension>
            <ns3:hr>101</ns3:hr>
            <ns3:cad>0</ns3:cad>
          </ns3:TrackPointExtension>
        </extensions>
      </trkpt>
      <trkpt lat="37.746442817151546478271484375" lon="-107.7124907635152339935302734375">
        <ele>3379.39990234375</ele>
        <time>2023-07-29T13:10:28.000Z</time>
        <extensions>
          <ns3:TrackPointExtension>
            <ns3:hr>101</ns3:hr>
            <ns3:cad>0</ns3:cad>
          </ns3:TrackPointExtension>
        </extensions>
      </trkpt>
      <trkpt lat="37.746442817151546478271484375" lon="-107.71248900331556797027587890625">
        <ele>3379.800048828125</ele>
        <time>2023-07-29T13:10:29.000Z</time>
        <extensions>
          <ns3:TrackPointExtension>
            <ns3:hr>101</ns3:hr>
            <ns3:cad>0</ns3:cad>
          </ns3:TrackPointExtension>
        </extensions>
      </trkpt>
      <trkpt lat="37.7464500255882740020751953125" lon="-107.7124770171940326690673828125">
        <ele>3379.800048828125</ele>
        <time>2023-07-29T13:10:30.000Z</time>
        <extensions>
          <ns3:TrackPointExtension>
            <ns3:hr>101</ns3:hr>
            <ns3:cad>0</ns3:cad>
          </ns3:TrackPointExtension>
        </extensions>
      </trkpt>
      <trkpt lat="37.7464552223682403564453125" lon="-107.712471485137939453125">
        <ele>3379.800048828125</ele>
        <time>2023-07-29T13:10:31.000Z</time>
        <extensions>
          <ns3:TrackPointExtension>
            <ns3:hr>101</ns3:hr>
            <ns3:cad>0</ns3:cad>
          </ns3:TrackPointExtension>
        </extensions>
      </trkpt>
      <trkpt lat="37.7464617602527141571044921875" lon="-107.71246368996798992156982421875">
        <ele>3379.800048828125</ele>
        <time>2023-07-29T13:10:32.000Z</time>
        <extensions>
          <ns3:TrackPointExtension>
            <ns3:hr>101</ns3:hr>
            <ns3:cad>0</ns3:cad>
          </ns3:TrackPointExtension>
        </extensions>
      </trkpt>
      <trkpt lat="37.74646435864269733428955078125" lon="-107.7124620974063873291015625">
        <ele>3379.800048828125</ele>
        <time>2023-07-29T13:10:33.000Z</time>
        <extensions>
          <ns3:TrackPointExtension>
            <ns3:hr>101</ns3:hr>
            <ns3:cad>52</ns3:cad>
          </ns3:TrackPointExtension>
        </extensions>
      </trkpt>
      <trkpt lat="37.74646989069879055023193359375" lon="-107.71245765499770641326904296875">
        <ele>3379.800048828125</ele>
        <time>2023-07-29T13:10:34.000Z</time>
        <extensions>
          <ns3:TrackPointExtension>
            <ns3:hr>101</ns3:hr>
            <ns3:cad>52</ns3:cad>
          </ns3:TrackPointExtension>
        </extensions>
      </trkpt>
      <trkpt lat="37.7464822120964527130126953125" lon="-107.71244960837066173553466796875">
        <ele>3379.800048828125</ele>
        <time>2023-07-29T13:10:35.000Z</time>
        <extensions>
          <ns3:TrackPointExtension>
            <ns3:hr>101</ns3:hr>
            <ns3:cad>47</ns3:cad>
          </ns3:TrackPointExtension>
        </extensions>
      </trkpt>
      <trkpt lat="37.74648715741932392120361328125" lon="-107.71244877018034458160400390625">
        <ele>3379.800048828125</ele>
        <time>2023-07-29T13:10:36.000Z</time>
        <extensions>
          <ns3:TrackPointExtension>
            <ns3:hr>101</ns3:hr>
            <ns3:cad>47</ns3:cad>
          </ns3:TrackPointExtension>
        </extensions>
      </trkpt>
      <trkpt lat="37.7464927732944488525390625" lon="-107.7124444954097270965576171875">
        <ele>3380</ele>
        <time>2023-07-29T13:10:37.000Z</time>
        <extensions>
          <ns3:TrackPointExtension>
            <ns3:hr>101</ns3:hr>
            <ns3:cad>49</ns3:cad>
          </ns3:TrackPointExtension>
        </extensions>
      </trkpt>
      <trkpt lat="37.74650224484503269195556640625" lon="-107.7124441601336002349853515625">
        <ele>3380</ele>
        <time>2023-07-29T13:10:38.000Z</time>
        <extensions>
          <ns3:TrackPointExtension>
            <ns3:hr>100</ns3:hr>
            <ns3:cad>49</ns3:cad>
          </ns3:TrackPointExtension>
        </extensions>
      </trkpt>
      <trkpt lat="37.74650559760630130767822265625" lon="-107.7124444954097270965576171875">
        <ele>3380.199951171875</ele>
        <time>2023-07-29T13:10:39.000Z</time>
        <extensions>
          <ns3:TrackPointExtension>
            <ns3:hr>99</ns3:hr>
            <ns3:cad>48</ns3:cad>
          </ns3:TrackPointExtension>
        </extensions>
      </trkpt>
      <trkpt lat="37.74651280604302883148193359375" lon="-107.71244131028652191162109375">
        <ele>3380.60009765625</ele>
        <time>2023-07-29T13:10:40.000Z</time>
        <extensions>
          <ns3:TrackPointExtension>
            <ns3:hr>99</ns3:hr>
            <ns3:cad>48</ns3:cad>
          </ns3:TrackPointExtension>
        </extensions>
      </trkpt>
      <trkpt lat="37.74652018211781978607177734375" lon="-107.71243854425847530364990234375">
        <ele>3380.800048828125</ele>
        <time>2023-07-29T13:10:41.000Z</time>
        <extensions>
          <ns3:TrackPointExtension>
            <ns3:hr>98</ns3:hr>
            <ns3:cad>48</ns3:cad>
          </ns3:TrackPointExtension>
        </extensions>
      </trkpt>
      <trkpt lat="37.74652621708810329437255859375" lon="-107.7124379575252532958984375">
        <ele>3381</ele>
        <time>2023-07-29T13:10:42.000Z</time>
        <extensions>
          <ns3:TrackPointExtension>
            <ns3:hr>97</ns3:hr>
            <ns3:cad>47</ns3:cad>
          </ns3:TrackPointExtension>
        </extensions>
      </trkpt>
      <trkpt lat="37.7465402148663997650146484375" lon="-107.71243435330688953399658203125">
        <ele>3381</ele>
        <time>2023-07-29T13:10:43.000Z</time>
        <extensions>
          <ns3:TrackPointExtension>
            <ns3:hr>97</ns3:hr>
            <ns3:cad>47</ns3:cad>
          </ns3:TrackPointExtension>
        </extensions>
      </trkpt>
      <trkpt lat="37.7465553022921085357666015625" lon="-107.71243636496365070343017578125">
        <ele>3381</ele>
        <time>2023-07-29T13:10:44.000Z</time>
        <extensions>
          <ns3:TrackPointExtension>
            <ns3:hr>97</ns3:hr>
            <ns3:cad>47</ns3:cad>
          </ns3:TrackPointExtension>
        </extensions>
      </trkpt>
      <trkpt lat="37.7465703897178173065185546875" lon="-107.7124327607452869415283203125">
        <ele>3381</ele>
        <time>2023-07-29T13:10:45.000Z</time>
        <extensions>
          <ns3:TrackPointExtension>
            <ns3:hr>97</ns3:hr>
            <ns3:cad>47</ns3:cad>
          </ns3:TrackPointExtension>
        </extensions>
      </trkpt>
      <trkpt lat="37.74658220820128917694091796875" lon="-107.71243401803076267242431640625">
        <ele>3381</ele>
        <time>2023-07-29T13:10:46.000Z</time>
        <extensions>
          <ns3:TrackPointExtension>
            <ns3:hr>97</ns3:hr>
            <ns3:cad>47</ns3:cad>
          </ns3:TrackPointExtension>
        </extensions>
      </trkpt>
      <trkpt lat="37.74658732116222381591796875" lon="-107.71243837662041187286376953125">
        <ele>3381</ele>
        <time>2023-07-29T13:10:47.000Z</time>
        <extensions>
          <ns3:TrackPointExtension>
            <ns3:hr>97</ns3:hr>
            <ns3:cad>45</ns3:cad>
          </ns3:TrackPointExtension>
        </extensions>
      </trkpt>
      <trkpt lat="37.7465898357331752777099609375" lon="-107.71244558505713939666748046875">
        <ele>3381</ele>
        <time>2023-07-29T13:10:48.000Z</time>
        <extensions>
          <ns3:TrackPointExtension>
            <ns3:hr>97</ns3:hr>
            <ns3:cad>45</ns3:cad>
          </ns3:TrackPointExtension>
        </extensions>
      </trkpt>
      <trkpt lat="37.74659964255988597869873046875" lon="-107.7124481834471225738525390625">
        <ele>3381.199951171875</ele>
        <time>2023-07-29T13:10:49.000Z</time>
        <extensions>
          <ns3:TrackPointExtension>
            <ns3:hr>98</ns3:hr>
            <ns3:cad>45</ns3:cad>
          </ns3:TrackPointExtension>
        </extensions>
      </trkpt>
      <trkpt lat="37.74660534225404262542724609375" lon="-107.71244944073259830474853515625">
        <ele>3381.39990234375</ele>
        <time>2023-07-29T13:10:50.000Z</time>
        <extensions>
          <ns3:TrackPointExtension>
            <ns3:hr>98</ns3:hr>
            <ns3:cad>45</ns3:cad>
          </ns3:TrackPointExtension>
        </extensions>
      </trkpt>
      <trkpt lat="37.7466129697859287261962890625" lon="-107.71244826726615428924560546875">
        <ele>3381.60009765625</ele>
        <time>2023-07-29T13:10:51.000Z</time>
        <extensions>
          <ns3:TrackPointExtension>
            <ns3:hr>98</ns3:hr>
            <ns3:cad>45</ns3:cad>
          </ns3:TrackPointExtension>
        </extensions>
      </trkpt>
      <trkpt lat="37.74662462063133716583251953125" lon="-107.7124491892755031585693359375">
        <ele>3381.800048828125</ele>
        <time>2023-07-29T13:10:52.000Z</time>
        <extensions>
          <ns3:TrackPointExtension>
            <ns3:hr>98</ns3:hr>
            <ns3:cad>45</ns3:cad>
          </ns3:TrackPointExtension>
        </extensions>
      </trkpt>
      <trkpt lat="37.74663149379193782806396484375" lon="-107.71244558505713939666748046875">
        <ele>3382.199951171875</ele>
        <time>2023-07-29T13:10:53.000Z</time>
        <extensions>
          <ns3:TrackPointExtension>
            <ns3:hr>98</ns3:hr>
            <ns3:cad>44</ns3:cad>
          </ns3:TrackPointExtension>
        </extensions>
      </trkpt>
      <trkpt lat="37.74663467891514301300048828125" lon="-107.71244273521006107330322265625">
        <ele>3382.39990234375</ele>
        <time>2023-07-29T13:10:54.000Z</time>
        <extensions>
          <ns3:TrackPointExtension>
            <ns3:hr>98</ns3:hr>
            <ns3:cad>44</ns3:cad>
          </ns3:TrackPointExtension>
        </extensions>
      </trkpt>
      <trkpt lat="37.7466350980103015899658203125" lon="-107.7124374546110630035400390625">
        <ele>3382.39990234375</ele>
        <time>2023-07-29T13:10:55.000Z</time>
        <extensions>
          <ns3:TrackPointExtension>
            <ns3:hr>98</ns3:hr>
            <ns3:cad>44</ns3:cad>
          </ns3:TrackPointExtension>
        </extensions>
      </trkpt>
      <trkpt lat="37.7466491796076297760009765625" lon="-107.7124381251633167266845703125">
        <ele>3382.60009765625</ele>
        <time>2023-07-29T13:10:56.000Z</time>
        <extensions>
          <ns3:TrackPointExtension>
            <ns3:hr>98</ns3:hr>
            <ns3:cad>0</ns3:cad>
          </ns3:TrackPointExtension>
        </extensions>
      </trkpt>
      <trkpt lat="37.7466515265405178070068359375" lon="-107.7124433219432830810546875">
        <ele>3382.60009765625</ele>
        <time>2023-07-29T13:10:57.000Z</time>
        <extensions>
          <ns3:TrackPointExtension>
            <ns3:hr>98</ns3:hr>
            <ns3:cad>0</ns3:cad>
          </ns3:TrackPointExtension>
        </extensions>
      </trkpt>
      <trkpt lat="37.74665345437824726104736328125" lon="-107.71244558505713939666748046875">
        <ele>3382.800048828125</ele>
        <time>2023-07-29T13:10:58.000Z</time>
        <extensions>
          <ns3:TrackPointExtension>
            <ns3:hr>98</ns3:hr>
            <ns3:cad>0</ns3:cad>
          </ns3:TrackPointExtension>
        </extensions>
      </trkpt>
      <trkpt lat="37.74665529839694499969482421875" lon="-107.712451033294200897216796875">
        <ele>3383</ele>
        <time>2023-07-29T13:10:59.000Z</time>
        <extensions>
          <ns3:TrackPointExtension>
            <ns3:hr>98</ns3:hr>
            <ns3:cad>40</ns3:cad>
          </ns3:TrackPointExtension>
        </extensions>
      </trkpt>
      <trkpt lat="37.7466605789959430694580078125" lon="-107.71245581097900867462158203125">
        <ele>3383.199951171875</ele>
        <time>2023-07-29T13:11:00.000Z</time>
        <extensions>
          <ns3:TrackPointExtension>
            <ns3:hr>98</ns3:hr>
            <ns3:cad>40</ns3:cad>
          </ns3:TrackPointExtension>
        </extensions>
      </trkpt>
      <trkpt lat="37.74666334502398967742919921875" lon="-107.7124612592160701751708984375">
        <ele>3383.39990234375</ele>
        <time>2023-07-29T13:11:01.000Z</time>
        <extensions>
          <ns3:TrackPointExtension>
            <ns3:hr>97</ns3:hr>
            <ns3:cad>0</ns3:cad>
          </ns3:TrackPointExtension>
        </extensions>
      </trkpt>
      <trkpt lat="37.74666418321430683135986328125" lon="-107.71246033720672130584716796875">
        <ele>3383.60009765625</ele>
        <time>2023-07-29T13:11:02.000Z</time>
        <extensions>
          <ns3:TrackPointExtension>
            <ns3:hr>97</ns3:hr>
            <ns3:cad>0</ns3:cad>
          </ns3:TrackPointExtension>
        </extensions>
      </trkpt>
      <trkpt lat="37.74667072109878063201904296875" lon="-107.7124538831412792205810546875">
        <ele>3383.800048828125</ele>
        <time>2023-07-29T13:11:03.000Z</time>
        <extensions>
          <ns3:TrackPointExtension>
            <ns3:hr>97</ns3:hr>
            <ns3:cad>48</ns3:cad>
          </ns3:TrackPointExtension>
        </extensions>
      </trkpt>
      <trkpt lat="37.746680863201618194580078125" lon="-107.71245145238935947418212890625">
        <ele>3384</ele>
        <time>2023-07-29T13:11:04.000Z</time>
        <extensions>
          <ns3:TrackPointExtension>
            <ns3:hr>97</ns3:hr>
            <ns3:cad>48</ns3:cad>
          </ns3:TrackPointExtension>
        </extensions>
      </trkpt>
      <trkpt lat="37.74668916128575801849365234375" lon="-107.71244558505713939666748046875">
        <ele>3384.199951171875</ele>
        <time>2023-07-29T13:11:05.000Z</time>
        <extensions>
          <ns3:TrackPointExtension>
            <ns3:hr>97</ns3:hr>
            <ns3:cad>48</ns3:cad>
          </ns3:TrackPointExtension>
        </extensions>
      </trkpt>
      <trkpt lat="37.746707014739513397216796875" lon="-107.7124433219432830810546875">
        <ele>3384.39990234375</ele>
        <time>2023-07-29T13:11:06.000Z</time>
        <extensions>
          <ns3:TrackPointExtension>
            <ns3:hr>97</ns3:hr>
            <ns3:cad>52</ns3:cad>
          </ns3:TrackPointExtension>
        </extensions>
      </trkpt>
      <trkpt lat="37.7467152290046215057373046875" lon="-107.71244189701974391937255859375">
        <ele>3384.39990234375</ele>
        <time>2023-07-29T13:11:07.000Z</time>
        <extensions>
          <ns3:TrackPointExtension>
            <ns3:hr>97</ns3:hr>
            <ns3:cad>52</ns3:cad>
          </ns3:TrackPointExtension>
        </extensions>
      </trkpt>
      <trkpt lat="37.74671874940395355224609375" lon="-107.71244022063910961151123046875">
        <ele>3384.60009765625</ele>
        <time>2023-07-29T13:11:08.000Z</time>
        <extensions>
          <ns3:TrackPointExtension>
            <ns3:hr>98</ns3:hr>
            <ns3:cad>52</ns3:cad>
          </ns3:TrackPointExtension>
        </extensions>
      </trkpt>
      <trkpt lat="37.74673375301063060760498046875" lon="-107.71243552677333354949951171875">
        <ele>3384.60009765625</ele>
        <time>2023-07-29T13:11:09.000Z</time>
        <extensions>
          <ns3:TrackPointExtension>
            <ns3:hr>98</ns3:hr>
            <ns3:cad>55</ns3:cad>
          </ns3:TrackPointExtension>
        </extensions>
      </trkpt>
      <trkpt lat="37.74674263782799243927001953125" lon="-107.71242312155663967132568359375">
        <ele>3384.800048828125</ele>
        <time>2023-07-29T13:11:10.000Z</time>
        <extensions>
          <ns3:TrackPointExtension>
            <ns3:hr>99</ns3:hr>
            <ns3:cad>55</ns3:cad>
          </ns3:TrackPointExtension>
        </extensions>
      </trkpt>
      <trkpt lat="37.7467524446547031402587890625" lon="-107.71241507492959499359130859375">
        <ele>3385</ele>
        <time>2023-07-29T13:11:11.000Z</time>
        <extensions>
          <ns3:TrackPointExtension>
            <ns3:hr>100</ns3:hr>
            <ns3:cad>55</ns3:cad>
          </ns3:TrackPointExtension>
        </extensions>
      </trkpt>
      <trkpt lat="37.74676426313817501068115234375" lon="-107.712412141263484954833984375">
        <ele>3385.199951171875</ele>
        <time>2023-07-29T13:11:12.000Z</time>
        <extensions>
          <ns3:TrackPointExtension>
            <ns3:hr>101</ns3:hr>
            <ns3:cad>55</ns3:cad>
          </ns3:TrackPointExtension>
        </extensions>
      </trkpt>
      <trkpt lat="37.74676610715687274932861328125" lon="-107.7124082855880260467529296875">
        <ele>3385.39990234375</ele>
        <time>2023-07-29T13:11:13.000Z</time>
        <extensions>
          <ns3:TrackPointExtension>
            <ns3:hr>101</ns3:hr>
            <ns3:cad>55</ns3:cad>
          </ns3:TrackPointExtension>
        </extensions>
      </trkpt>
      <trkpt lat="37.7467749081552028656005859375" lon="-107.71240619011223316192626953125">
        <ele>3385.60009765625</ele>
        <time>2023-07-29T13:11:14.000Z</time>
        <extensions>
          <ns3:TrackPointExtension>
            <ns3:hr>102</ns3:hr>
            <ns3:cad>55</ns3:cad>
          </ns3:TrackPointExtension>
        </extensions>
      </trkpt>
      <trkpt lat="37.74678521789610385894775390625" lon="-107.7124042622745037078857421875">
        <ele>3386</ele>
        <time>2023-07-29T13:11:15.000Z</time>
        <extensions>
          <ns3:TrackPointExtension>
            <ns3:hr>103</ns3:hr>
            <ns3:cad>55</ns3:cad>
          </ns3:TrackPointExtension>
        </extensions>
      </trkpt>
      <trkpt lat="37.74678991176187992095947265625" lon="-107.712399400770664215087890625">
        <ele>3386</ele>
        <time>2023-07-29T13:11:16.000Z</time>
        <extensions>
          <ns3:TrackPointExtension>
            <ns3:hr>103</ns3:hr>
            <ns3:cad>45</ns3:cad>
          </ns3:TrackPointExtension>
        </extensions>
      </trkpt>
      <trkpt lat="37.74678689427673816680908203125" lon="-107.7123925276100635528564453125">
        <ele>3386.199951171875</ele>
        <time>2023-07-29T13:11:17.000Z</time>
        <extensions>
          <ns3:TrackPointExtension>
            <ns3:hr>104</ns3:hr>
            <ns3:cad>45</ns3:cad>
          </ns3:TrackPointExtension>
        </extensions>
      </trkpt>
      <trkpt lat="37.7467899955809116363525390625" lon="-107.71239143796265125274658203125">
        <ele>3386.39990234375</ele>
        <time>2023-07-29T13:11:18.000Z</time>
        <extensions>
          <ns3:TrackPointExtension>
            <ns3:hr>104</ns3:hr>
            <ns3:cad>47</ns3:cad>
          </ns3:TrackPointExtension>
        </extensions>
      </trkpt>
      <trkpt lat="37.746794186532497406005859375" lon="-107.71238741464912891387939453125">
        <ele>3386.800048828125</ele>
        <time>2023-07-29T13:11:19.000Z</time>
        <extensions>
          <ns3:TrackPointExtension>
            <ns3:hr>105</ns3:hr>
            <ns3:cad>47</ns3:cad>
          </ns3:TrackPointExtension>
        </extensions>
      </trkpt>
      <trkpt lat="37.74680214934051036834716796875" lon="-107.71238364279270172119140625">
        <ele>3387</ele>
        <time>2023-07-29T13:11:20.000Z</time>
        <extensions>
          <ns3:TrackPointExtension>
            <ns3:hr>106</ns3:hr>
            <ns3:cad>46</ns3:cad>
          </ns3:TrackPointExtension>
        </extensions>
      </trkpt>
      <trkpt lat="37.74680701084434986114501953125" lon="-107.7123848162591457366943359375">
        <ele>3387</ele>
        <time>2023-07-29T13:11:21.000Z</time>
        <extensions>
          <ns3:TrackPointExtension>
            <ns3:hr>107</ns3:hr>
            <ns3:cad>46</ns3:cad>
          </ns3:TrackPointExtension>
        </extensions>
      </trkpt>
      <trkpt lat="37.74681086651980876922607421875" lon="-107.71238523535430431365966796875">
        <ele>3387</ele>
        <time>2023-07-29T13:11:22.000Z</time>
        <extensions>
          <ns3:TrackPointExtension>
            <ns3:hr>108</ns3:hr>
            <ns3:cad>46</ns3:cad>
          </ns3:TrackPointExtension>
        </extensions>
      </trkpt>
      <trkpt lat="37.7468151412904262542724609375" lon="-107.7123861573636531829833984375">
        <ele>3387.39990234375</ele>
        <time>2023-07-29T13:11:23.000Z</time>
        <extensions>
          <ns3:TrackPointExtension>
            <ns3:hr>109</ns3:hr>
            <ns3:cad>47</ns3:cad>
          </ns3:TrackPointExtension>
        </extensions>
      </trkpt>
      <trkpt lat="37.746819667518138885498046875" lon="-107.7123858220875263214111328125">
        <ele>3387.39990234375</ele>
        <time>2023-07-29T13:11:24.000Z</time>
        <extensions>
          <ns3:TrackPointExtension>
            <ns3:hr>109</ns3:hr>
            <ns3:cad>47</ns3:cad>
          </ns3:TrackPointExtension>
        </extensions>
      </trkpt>
      <trkpt lat="37.74682444520294666290283203125" lon="-107.7123864926397800445556640625">
        <ele>3387.800048828125</ele>
        <time>2023-07-29T13:11:25.000Z</time>
        <extensions>
          <ns3:TrackPointExtension>
            <ns3:hr>110</ns3:hr>
            <ns3:cad>47</ns3:cad>
          </ns3:TrackPointExtension>
        </extensions>
      </trkpt>
      <trkpt lat="37.7468278817832469940185546875" lon="-107.7123898454010486602783203125">
        <ele>3387.800048828125</ele>
        <time>2023-07-29T13:11:26.000Z</time>
        <extensions>
          <ns3:TrackPointExtension>
            <ns3:hr>110</ns3:hr>
            <ns3:cad>47</ns3:cad>
          </ns3:TrackPointExtension>
        </extensions>
      </trkpt>
      <trkpt lat="37.74682737886905670166015625" lon="-107.71239713765680789947509765625">
        <ele>3388</ele>
        <time>2023-07-29T13:11:27.000Z</time>
        <extensions>
          <ns3:TrackPointExtension>
            <ns3:hr>111</ns3:hr>
            <ns3:cad>48</ns3:cad>
          </ns3:TrackPointExtension>
        </extensions>
      </trkpt>
      <trkpt lat="37.7468268759548664093017578125" lon="-107.7124052681028842926025390625">
        <ele>3388.199951171875</ele>
        <time>2023-07-29T13:11:28.000Z</time>
        <extensions>
          <ns3:TrackPointExtension>
            <ns3:hr>112</ns3:hr>
            <ns3:cad>48</ns3:cad>
          </ns3:TrackPointExtension>
        </extensions>
      </trkpt>
      <trkpt lat="37.7468288876116275787353515625" lon="-107.71241851150989532470703125">
        <ele>3388.199951171875</ele>
        <time>2023-07-29T13:11:29.000Z</time>
        <extensions>
          <ns3:TrackPointExtension>
            <ns3:hr>112</ns3:hr>
            <ns3:cad>48</ns3:cad>
          </ns3:TrackPointExtension>
        </extensions>
      </trkpt>
      <trkpt lat="37.74682729505002498626708984375" lon="-107.71242647431790828704833984375">
        <ele>3388.199951171875</ele>
        <time>2023-07-29T13:11:30.000Z</time>
        <extensions>
          <ns3:TrackPointExtension>
            <ns3:hr>113</ns3:hr>
            <ns3:cad>48</ns3:cad>
          </ns3:TrackPointExtension>
        </extensions>
      </trkpt>
      <trkpt lat="37.7468329109251499176025390625" lon="-107.7124320901930332183837890625">
        <ele>3388.199951171875</ele>
        <time>2023-07-29T13:11:31.000Z</time>
        <extensions>
          <ns3:TrackPointExtension>
            <ns3:hr>113</ns3:hr>
            <ns3:cad>49</ns3:cad>
          </ns3:TrackPointExtension>
        </extensions>
      </trkpt>
      <trkpt lat="37.74684171192348003387451171875" lon="-107.71244290284812450408935546875">
        <ele>3388</ele>
        <time>2023-07-29T13:11:32.000Z</time>
        <extensions>
          <ns3:TrackPointExtension>
            <ns3:hr>113</ns3:hr>
            <ns3:cad>49</ns3:cad>
          </ns3:TrackPointExtension>
        </extensions>
      </trkpt>
      <trkpt lat="37.74685026146471500396728515625" lon="-107.71245229057967662811279296875">
        <ele>3388</ele>
        <time>2023-07-29T13:11:33.000Z</time>
        <extensions>
          <ns3:TrackPointExtension>
            <ns3:hr>114</ns3:hr>
            <ns3:cad>49</ns3:cad>
          </ns3:TrackPointExtension>
        </extensions>
      </trkpt>
      <trkpt lat="37.74685059674084186553955078125" lon="-107.7124513685703277587890625">
        <ele>3387.800048828125</ele>
        <time>2023-07-29T13:11:34.000Z</time>
        <extensions>
          <ns3:TrackPointExtension>
            <ns3:hr>114</ns3:hr>
            <ns3:cad>53</ns3:cad>
          </ns3:TrackPointExtension>
        </extensions>
      </trkpt>
      <trkpt lat="37.7468548715114593505859375" lon="-107.7124498598277568817138671875">
        <ele>3387.800048828125</ele>
        <time>2023-07-29T13:11:35.000Z</time>
        <extensions>
          <ns3:TrackPointExtension>
            <ns3:hr>114</ns3:hr>
            <ns3:cad>53</ns3:cad>
          </ns3:TrackPointExtension>
        </extensions>
      </trkpt>
      <trkpt lat="37.746865265071392059326171875" lon="-107.71245396696031093597412109375">
        <ele>3387.800048828125</ele>
        <time>2023-07-29T13:11:36.000Z</time>
        <extensions>
          <ns3:TrackPointExtension>
            <ns3:hr>113</ns3:hr>
            <ns3:cad>53</ns3:cad>
          </ns3:TrackPointExtension>
        </extensions>
      </trkpt>
      <trkpt lat="37.74687238968908786773681640625" lon="-107.7124542184174060821533203125">
        <ele>3387.60009765625</ele>
        <time>2023-07-29T13:11:37.000Z</time>
        <extensions>
          <ns3:TrackPointExtension>
            <ns3:hr>113</ns3:hr>
            <ns3:cad>53</ns3:cad>
          </ns3:TrackPointExtension>
        </extensions>
      </trkpt>
      <trkpt lat="37.7468818612396717071533203125" lon="-107.7124582417309284210205078125">
        <ele>3387.60009765625</ele>
        <time>2023-07-29T13:11:38.000Z</time>
        <extensions>
          <ns3:TrackPointExtension>
            <ns3:hr>115</ns3:hr>
            <ns3:cad>53</ns3:cad>
          </ns3:TrackPointExtension>
        </extensions>
      </trkpt>
      <trkpt lat="37.74690306745469570159912109375" lon="-107.71246687509119510650634765625">
        <ele>3387.39990234375</ele>
        <time>2023-07-29T13:11:39.000Z</time>
        <extensions>
          <ns3:TrackPointExtension>
            <ns3:hr>119</ns3:hr>
            <ns3:cad>59</ns3:cad>
          </ns3:TrackPointExtension>
        </extensions>
      </trkpt>
      <trkpt lat="37.74691815488040447235107421875" lon="-107.71247006021440029144287109375">
        <ele>3387.199951171875</ele>
        <time>2023-07-29T13:11:40.000Z</time>
        <extensions>
          <ns3:TrackPointExtension>
            <ns3:hr>121</ns3:hr>
            <ns3:cad>59</ns3:cad>
          </ns3:TrackPointExtension>
        </extensions>
      </trkpt>
      <trkpt lat="37.746946401894092559814453125" lon="-107.71247081458568572998046875">
        <ele>3387.199951171875</ele>
        <time>2023-07-29T13:11:41.000Z</time>
        <extensions>
          <ns3:TrackPointExtension>
            <ns3:hr>121</ns3:hr>
            <ns3:cad>59</ns3:cad>
          </ns3:TrackPointExtension>
        </extensions>
      </trkpt>
      <trkpt lat="37.74697364307940006256103515625" lon="-107.71247207187116146087646484375">
        <ele>3387</ele>
        <time>2023-07-29T13:11:42.000Z</time>
        <extensions>
          <ns3:TrackPointExtension>
            <ns3:hr>121</ns3:hr>
            <ns3:cad>0</ns3:cad>
          </ns3:TrackPointExtension>
        </extensions>
      </trkpt>
      <trkpt lat="37.74700197391211986541748046875" lon="-107.71246620453894138336181640625">
        <ele>3387</ele>
        <time>2023-07-29T13:11:43.000Z</time>
        <extensions>
          <ns3:TrackPointExtension>
            <ns3:hr>121</ns3:hr>
            <ns3:cad>0</ns3:cad>
          </ns3:TrackPointExtension>
        </extensions>
      </trkpt>
      <trkpt lat="37.74702108465135097503662109375" lon="-107.71245472133159637451171875">
        <ele>3386.800048828125</ele>
        <time>2023-07-29T13:11:44.000Z</time>
        <extensions>
          <ns3:TrackPointExtension>
            <ns3:hr>121</ns3:hr>
            <ns3:cad>0</ns3:cad>
          </ns3:TrackPointExtension>
        </extensions>
      </trkpt>
      <trkpt lat="37.74702209047973155975341796875" lon="-107.71244273521006107330322265625">
        <ele>3386.800048828125</ele>
        <time>2023-07-29T13:11:45.000Z</time>
        <extensions>
          <ns3:TrackPointExtension>
            <ns3:hr>121</ns3:hr>
            <ns3:cad>0</ns3:cad>
          </ns3:TrackPointExtension>
        </extensions>
      </trkpt>
      <trkpt lat="37.74703231640160083770751953125" lon="-107.71242815069854259490966796875">
        <ele>3386.800048828125</ele>
        <time>2023-07-29T13:11:46.000Z</time>
        <extensions>
          <ns3:TrackPointExtension>
            <ns3:hr>121</ns3:hr>
            <ns3:cad>0</ns3:cad>
          </ns3:TrackPointExtension>
        </extensions>
      </trkpt>
      <trkpt lat="37.747045643627643585205078125" lon="-107.71241758950054645538330078125">
        <ele>3386.800048828125</ele>
        <time>2023-07-29T13:11:47.000Z</time>
        <extensions>
          <ns3:TrackPointExtension>
            <ns3:hr>120</ns3:hr>
            <ns3:cad>0</ns3:cad>
          </ns3:TrackPointExtension>
        </extensions>
      </trkpt>
      <trkpt lat="37.747054360806941986083984375" lon="-107.712402082979679107666015625">
        <ele>3387</ele>
        <time>2023-07-29T13:11:48.000Z</time>
        <extensions>
          <ns3:TrackPointExtension>
            <ns3:hr>120</ns3:hr>
            <ns3:cad>49</ns3:cad>
          </ns3:TrackPointExtension>
        </extensions>
      </trkpt>
      <trkpt lat="37.74706207215785980224609375" lon="-107.7124012447893619537353515625">
        <ele>3387</ele>
        <time>2023-07-29T13:11:49.000Z</time>
        <extensions>
          <ns3:TrackPointExtension>
            <ns3:hr>120</ns3:hr>
            <ns3:cad>50</ns3:cad>
          </ns3:TrackPointExtension>
        </extensions>
      </trkpt>
      <trkpt lat="37.747065089643001556396484375" lon="-107.71239680238068103790283203125">
        <ele>3387</ele>
        <time>2023-07-29T13:11:50.000Z</time>
        <extensions>
          <ns3:TrackPointExtension>
            <ns3:hr>120</ns3:hr>
            <ns3:cad>50</ns3:cad>
          </ns3:TrackPointExtension>
        </extensions>
      </trkpt>
      <trkpt lat="37.74707154370844364166259765625" lon="-107.71239697001874446868896484375">
        <ele>3387</ele>
        <time>2023-07-29T13:11:51.000Z</time>
        <extensions>
          <ns3:TrackPointExtension>
            <ns3:hr>120</ns3:hr>
            <ns3:cad>50</ns3:cad>
          </ns3:TrackPointExtension>
        </extensions>
      </trkpt>
      <trkpt lat="37.74707405827939510345458984375" lon="-107.7123968861997127532958984375">
        <ele>3387</ele>
        <time>2023-07-29T13:11:52.000Z</time>
        <extensions>
          <ns3:TrackPointExtension>
            <ns3:hr>119</ns3:hr>
            <ns3:cad>0</ns3:cad>
          </ns3:TrackPointExtension>
        </extensions>
      </trkpt>
      <trkpt lat="37.74707305245101451873779296875" lon="-107.71239998750388622283935546875">
        <ele>3387.199951171875</ele>
        <time>2023-07-29T13:11:53.000Z</time>
        <extensions>
          <ns3:TrackPointExtension>
            <ns3:hr>119</ns3:hr>
            <ns3:cad>0</ns3:cad>
          </ns3:TrackPointExtension>
        </extensions>
      </trkpt>
      <trkpt lat="37.74707087315618991851806640625" lon="-107.71240250207483768463134765625">
        <ele>3387.199951171875</ele>
        <time>2023-07-29T13:11:54.000Z</time>
        <extensions>
          <ns3:TrackPointExtension>
            <ns3:hr>118</ns3:hr>
            <ns3:cad>0</ns3:cad>
          </ns3:TrackPointExtension>
        </extensions>
      </trkpt>
      <trkpt lat="37.747073136270046234130859375" lon="-107.712402753531932830810546875">
        <ele>3387.60009765625</ele>
        <time>2023-07-29T13:11:55.000Z</time>
        <extensions>
          <ns3:TrackPointExtension>
            <ns3:hr>118</ns3:hr>
            <ns3:cad>0</ns3:cad>
          </ns3:TrackPointExtension>
        </extensions>
      </trkpt>
      <trkpt lat="37.747071795165538787841796875" lon="-107.712407447397708892822265625">
        <ele>3387.60009765625</ele>
        <time>2023-07-29T13:11:56.000Z</time>
        <extensions>
          <ns3:TrackPointExtension>
            <ns3:hr>118</ns3:hr>
            <ns3:cad>0</ns3:cad>
          </ns3:TrackPointExtension>
        </extensions>
      </trkpt>
      <trkpt lat="37.7470769919455051422119140625" lon="-107.712407447397708892822265625">
        <ele>3388</ele>
        <time>2023-07-29T13:11:57.000Z</time>
        <extensions>
          <ns3:TrackPointExtension>
            <ns3:hr>117</ns3:hr>
            <ns3:cad>0</ns3:cad>
          </ns3:TrackPointExtension>
        </extensions>
      </trkpt>
      <trkpt lat="37.74708042852580547332763671875" lon="-107.71241121925413608551025390625">
        <ele>3388.199951171875</ele>
        <time>2023-07-29T13:11:58.000Z</time>
        <extensions>
          <ns3:TrackPointExtension>
            <ns3:hr>117</ns3:hr>
            <ns3:cad>0</ns3:cad>
          </ns3:TrackPointExtension>
        </extensions>
      </trkpt>
      <trkpt lat="37.74708545766770839691162109375" lon="-107.71241188980638980865478515625">
        <ele>3388.39990234375</ele>
        <time>2023-07-29T13:11:59.000Z</time>
        <extensions>
          <ns3:TrackPointExtension>
            <ns3:hr>117</ns3:hr>
            <ns3:cad>0</ns3:cad>
          </ns3:TrackPointExtension>
        </extensions>
      </trkpt>
      <trkpt lat="37.747085206210613250732421875" lon="-107.71241909824311733245849609375">
        <ele>3388.60009765625</ele>
        <time>2023-07-29T13:12:00.000Z</time>
        <extensions>
          <ns3:TrackPointExtension>
            <ns3:hr>117</ns3:hr>
            <ns3:cad>0</ns3:cad>
          </ns3:TrackPointExtension>
        </extensions>
      </trkpt>
      <trkpt lat="37.7470893971621990203857421875" lon="-107.7124257199466228485107421875">
        <ele>3388.800048828125</ele>
        <time>2023-07-29T13:12:01.000Z</time>
        <extensions>
          <ns3:TrackPointExtension>
            <ns3:hr>117</ns3:hr>
            <ns3:cad>77</ns3:cad>
          </ns3:TrackPointExtension>
        </extensions>
      </trkpt>
      <trkpt lat="37.7470935881137847900390625" lon="-107.71243670023977756500244140625">
        <ele>3389</ele>
        <time>2023-07-29T13:12:02.000Z</time>
        <extensions>
          <ns3:TrackPointExtension>
            <ns3:hr>116</ns3:hr>
            <ns3:cad>77</ns3:cad>
          </ns3:TrackPointExtension>
        </extensions>
      </trkpt>
      <trkpt lat="37.74709425866603851318359375" lon="-107.71245061419904232025146484375">
        <ele>3389.199951171875</ele>
        <time>2023-07-29T13:12:03.000Z</time>
        <extensions>
          <ns3:TrackPointExtension>
            <ns3:hr>116</ns3:hr>
            <ns3:cad>77</ns3:cad>
          </ns3:TrackPointExtension>
        </extensions>
      </trkpt>
      <trkpt lat="37.7470954321324825286865234375" lon="-107.7124552242457866668701171875">
        <ele>3389.39990234375</ele>
        <time>2023-07-29T13:12:04.000Z</time>
        <extensions>
          <ns3:TrackPointExtension>
            <ns3:hr>115</ns3:hr>
            <ns3:cad>77</ns3:cad>
          </ns3:TrackPointExtension>
        </extensions>
      </trkpt>
      <trkpt lat="37.74709735997021198272705078125" lon="-107.712464444339275360107421875">
        <ele>3389.60009765625</ele>
        <time>2023-07-29T13:12:05.000Z</time>
        <extensions>
          <ns3:TrackPointExtension>
            <ns3:hr>114</ns3:hr>
            <ns3:cad>0</ns3:cad>
          </ns3:TrackPointExtension>
        </extensions>
      </trkpt>
      <trkpt lat="37.7471029758453369140625" lon="-107.71247106604278087615966796875">
        <ele>3389.800048828125</ele>
        <time>2023-07-29T13:12:06.000Z</time>
        <extensions>
          <ns3:TrackPointExtension>
            <ns3:hr>113</ns3:hr>
            <ns3:cad>0</ns3:cad>
          </ns3:TrackPointExtension>
        </extensions>
      </trkpt>
      <trkpt lat="37.74711169302463531494140625" lon="-107.7124776877462863922119140625">
        <ele>3390.199951171875</ele>
        <time>2023-07-29T13:12:07.000Z</time>
        <extensions>
          <ns3:TrackPointExtension>
            <ns3:hr>112</ns3:hr>
            <ns3:cad>0</ns3:cad>
          </ns3:TrackPointExtension>
        </extensions>
      </trkpt>
      <trkpt lat="37.74711546488106250762939453125" lon="-107.71248078905045986175537109375">
        <ele>3390.199951171875</ele>
        <time>2023-07-29T13:12:08.000Z</time>
        <extensions>
          <ns3:TrackPointExtension>
            <ns3:hr>112</ns3:hr>
            <ns3:cad>60</ns3:cad>
          </ns3:TrackPointExtension>
        </extensions>
      </trkpt>
      <trkpt lat="37.74711814709007740020751953125" lon="-107.71248154342174530029296875">
        <ele>3390.39990234375</ele>
        <time>2023-07-29T13:12:09.000Z</time>
        <extensions>
          <ns3:TrackPointExtension>
            <ns3:hr>111</ns3:hr>
            <ns3:cad>60</ns3:cad>
          </ns3:TrackPointExtension>
        </extensions>
      </trkpt>
      <trkpt lat="37.747121416032314300537109375" lon="-107.7124808728694915771484375">
        <ele>3390.39990234375</ele>
        <time>2023-07-29T13:12:10.000Z</time>
        <extensions>
          <ns3:TrackPointExtension>
            <ns3:hr>112</ns3:hr>
            <ns3:cad>60</ns3:cad>
          </ns3:TrackPointExtension>
        </extensions>
      </trkpt>
      <trkpt lat="37.74712585844099521636962890625" lon="-107.7124822139739990234375">
        <ele>3390.60009765625</ele>
        <time>2023-07-29T13:12:11.000Z</time>
        <extensions>
          <ns3:TrackPointExtension>
            <ns3:hr>112</ns3:hr>
            <ns3:cad>60</ns3:cad>
          </ns3:TrackPointExtension>
        </extensions>
      </trkpt>
      <trkpt lat="37.74713583290576934814453125" lon="-107.71248757839202880859375">
        <ele>3390.800048828125</ele>
        <time>2023-07-29T13:12:12.000Z</time>
        <extensions>
          <ns3:TrackPointExtension>
            <ns3:hr>112</ns3:hr>
            <ns3:cad>60</ns3:cad>
          </ns3:TrackPointExtension>
        </extensions>
      </trkpt>
      <trkpt lat="37.74714362807571887969970703125" lon="-107.7124916017055511474609375">
        <ele>3391</ele>
        <time>2023-07-29T13:12:13.000Z</time>
        <extensions>
          <ns3:TrackPointExtension>
            <ns3:hr>112</ns3:hr>
            <ns3:cad>60</ns3:cad>
          </ns3:TrackPointExtension>
        </extensions>
      </trkpt>
      <trkpt lat="37.7471472322940826416015625" lon="-107.7124954573810100555419921875">
        <ele>3391.39990234375</ele>
        <time>2023-07-29T13:12:14.000Z</time>
        <extensions>
          <ns3:TrackPointExtension>
            <ns3:hr>112</ns3:hr>
            <ns3:cad>60</ns3:cad>
          </ns3:TrackPointExtension>
        </extensions>
      </trkpt>
      <trkpt lat="37.74715720675885677337646484375" lon="-107.7125023305416107177734375">
        <ele>3391.60009765625</ele>
        <time>2023-07-29T13:12:15.000Z</time>
        <extensions>
          <ns3:TrackPointExtension>
            <ns3:hr>112</ns3:hr>
            <ns3:cad>43</ns3:cad>
          </ns3:TrackPointExtension>
        </extensions>
      </trkpt>
      <trkpt lat="37.74716290645301342010498046875" lon="-107.71250593475997447967529296875">
        <ele>3391.800048828125</ele>
        <time>2023-07-29T13:12:16.000Z</time>
        <extensions>
          <ns3:TrackPointExtension>
            <ns3:hr>112</ns3:hr>
            <ns3:cad>43</ns3:cad>
          </ns3:TrackPointExtension>
        </extensions>
      </trkpt>
      <trkpt lat="37.7471713721752166748046875" lon="-107.71250777877867221832275390625">
        <ele>3391.800048828125</ele>
        <time>2023-07-29T13:12:17.000Z</time>
        <extensions>
          <ns3:TrackPointExtension>
            <ns3:hr>112</ns3:hr>
            <ns3:cad>43</ns3:cad>
          </ns3:TrackPointExtension>
        </extensions>
      </trkpt>
      <trkpt lat="37.74717598222196102142333984375" lon="-107.7125014923512935638427734375">
        <ele>3392</ele>
        <time>2023-07-29T13:12:18.000Z</time>
        <extensions>
          <ns3:TrackPointExtension>
            <ns3:hr>112</ns3:hr>
            <ns3:cad>0</ns3:cad>
          </ns3:TrackPointExtension>
        </extensions>
      </trkpt>
      <trkpt lat="37.7471829392015933990478515625" lon="-107.71249453537166118621826171875">
        <ele>3392.39990234375</ele>
        <time>2023-07-29T13:12:19.000Z</time>
        <extensions>
          <ns3:TrackPointExtension>
            <ns3:hr>111</ns3:hr>
            <ns3:cad>0</ns3:cad>
          </ns3:TrackPointExtension>
        </extensions>
      </trkpt>
      <trkpt lat="37.7471866272389888763427734375" lon="-107.71248749457299709320068359375">
        <ele>3392.800048828125</ele>
        <time>2023-07-29T13:12:20.000Z</time>
        <extensions>
          <ns3:TrackPointExtension>
            <ns3:hr>111</ns3:hr>
            <ns3:cad>0</ns3:cad>
          </ns3:TrackPointExtension>
        </extensions>
      </trkpt>
      <trkpt lat="37.74719106964766979217529296875" lon="-107.712481878697872161865234375">
        <ele>3393</ele>
        <time>2023-07-29T13:12:21.000Z</time>
        <extensions>
          <ns3:TrackPointExtension>
            <ns3:hr>111</ns3:hr>
            <ns3:cad>0</ns3:cad>
          </ns3:TrackPointExtension>
        </extensions>
      </trkpt>
      <trkpt lat="37.74720196612179279327392578125" lon="-107.71247441880404949188232421875">
        <ele>3393.199951171875</ele>
        <time>2023-07-29T13:12:22.000Z</time>
        <extensions>
          <ns3:TrackPointExtension>
            <ns3:hr>110</ns3:hr>
            <ns3:cad>0</ns3:cad>
          </ns3:TrackPointExtension>
        </extensions>
      </trkpt>
      <trkpt lat="37.74721051566302776336669921875" lon="-107.712471820414066314697265625">
        <ele>3393.199951171875</ele>
        <time>2023-07-29T13:12:23.000Z</time>
        <extensions>
          <ns3:TrackPointExtension>
            <ns3:hr>111</ns3:hr>
            <ns3:cad>0</ns3:cad>
          </ns3:TrackPointExtension>
        </extensions>
      </trkpt>
      <trkpt lat="37.7472271956503391265869140625" lon="-107.712469138205051422119140625">
        <ele>3393.199951171875</ele>
        <time>2023-07-29T13:12:24.000Z</time>
        <extensions>
          <ns3:TrackPointExtension>
            <ns3:hr>112</ns3:hr>
            <ns3:cad>47</ns3:cad>
          </ns3:TrackPointExtension>
        </extensions>
      </trkpt>
      <trkpt lat="37.747238092124462127685546875" lon="-107.71246553398668766021728515625">
        <ele>3393.199951171875</ele>
        <time>2023-07-29T13:12:25.000Z</time>
        <extensions>
          <ns3:TrackPointExtension>
            <ns3:hr>112</ns3:hr>
            <ns3:cad>49</ns3:cad>
          </ns3:TrackPointExtension>
        </extensions>
      </trkpt>
      <trkpt lat="37.7472513355314731597900390625" lon="-107.712461091578006744384765625">
        <ele>3393.39990234375</ele>
        <time>2023-07-29T13:12:26.000Z</time>
        <extensions>
          <ns3:TrackPointExtension>
            <ns3:hr>112</ns3:hr>
            <ns3:cad>49</ns3:cad>
          </ns3:TrackPointExtension>
        </extensions>
      </trkpt>
      <trkpt lat="37.747261561453342437744140625" lon="-107.7124555595219135284423828125">
        <ele>3393.39990234375</ele>
        <time>2023-07-29T13:12:27.000Z</time>
        <extensions>
          <ns3:TrackPointExtension>
            <ns3:hr>112</ns3:hr>
            <ns3:cad>50</ns3:cad>
          </ns3:TrackPointExtension>
        </extensions>
      </trkpt>
      <trkpt lat="37.7472748048603534698486328125" lon="-107.71245162002742290496826171875">
        <ele>3393.39990234375</ele>
        <time>2023-07-29T13:12:28.000Z</time>
        <extensions>
          <ns3:TrackPointExtension>
            <ns3:hr>112</ns3:hr>
            <ns3:cad>50</ns3:cad>
          </ns3:TrackPointExtension>
        </extensions>
      </trkpt>
      <trkpt lat="37.74728796444833278656005859375" lon="-107.7124444954097270965576171875">
        <ele>3393.39990234375</ele>
        <time>2023-07-29T13:12:29.000Z</time>
        <extensions>
          <ns3:TrackPointExtension>
            <ns3:hr>112</ns3:hr>
            <ns3:cad>50</ns3:cad>
          </ns3:TrackPointExtension>
        </extensions>
      </trkpt>
      <trkpt lat="37.747294418513774871826171875" lon="-107.7124406397342681884765625">
        <ele>3393.39990234375</ele>
        <time>2023-07-29T13:12:30.000Z</time>
        <extensions>
          <ns3:TrackPointExtension>
            <ns3:hr>113</ns3:hr>
            <ns3:cad>50</ns3:cad>
          </ns3:TrackPointExtension>
        </extensions>
      </trkpt>
      <trkpt lat="37.74730841629207134246826171875" lon="-107.7124341018497943878173828125">
        <ele>3393.39990234375</ele>
        <time>2023-07-29T13:12:31.000Z</time>
        <extensions>
          <ns3:TrackPointExtension>
            <ns3:hr>113</ns3:hr>
            <ns3:cad>50</ns3:cad>
          </ns3:TrackPointExtension>
        </extensions>
      </trkpt>
      <trkpt lat="37.7473250962793827056884765625" lon="-107.71242630667984485626220703125">
        <ele>3393.39990234375</ele>
        <time>2023-07-29T13:12:32.000Z</time>
        <extensions>
          <ns3:TrackPointExtension>
            <ns3:hr>113</ns3:hr>
            <ns3:cad>50</ns3:cad>
          </ns3:TrackPointExtension>
        </extensions>
      </trkpt>
      <trkpt lat="37.7473331429064273834228515625" lon="-107.7124213613569736480712890625">
        <ele>3393.39990234375</ele>
        <time>2023-07-29T13:12:33.000Z</time>
        <extensions>
          <ns3:TrackPointExtension>
            <ns3:hr>112</ns3:hr>
            <ns3:cad>51</ns3:cad>
          </ns3:TrackPointExtension>
        </extensions>
      </trkpt>
      <trkpt lat="37.7473421953618526458740234375" lon="-107.71241205744445323944091796875">
        <ele>3393.60009765625</ele>
        <time>2023-07-29T13:12:34.000Z</time>
        <extensions>
          <ns3:TrackPointExtension>
            <ns3:hr>112</ns3:hr>
            <ns3:cad>52</ns3:cad>
          </ns3:TrackPointExtension>
        </extensions>
      </trkpt>
      <trkpt lat="37.74735066108405590057373046875" lon="-107.7124032564461231231689453125">
        <ele>3393.60009765625</ele>
        <time>2023-07-29T13:12:35.000Z</time>
        <extensions>
          <ns3:TrackPointExtension>
            <ns3:hr>112</ns3:hr>
            <ns3:cad>52</ns3:cad>
          </ns3:TrackPointExtension>
        </extensions>
      </trkpt>
      <trkpt lat="37.7473549358546733856201171875" lon="-107.71239571273326873779296875">
        <ele>3393.60009765625</ele>
        <time>2023-07-29T13:12:36.000Z</time>
        <extensions>
          <ns3:TrackPointExtension>
            <ns3:hr>113</ns3:hr>
            <ns3:cad>52</ns3:cad>
          </ns3:TrackPointExtension>
        </extensions>
      </trkpt>
      <trkpt lat="37.747356109321117401123046875" lon="-107.7123895101249217987060546875">
        <ele>3393.60009765625</ele>
        <time>2023-07-29T13:12:37.000Z</time>
        <extensions>
          <ns3:TrackPointExtension>
            <ns3:hr>113</ns3:hr>
            <ns3:cad>51</ns3:cad>
          </ns3:TrackPointExtension>
        </extensions>
      </trkpt>
      <trkpt lat="37.7473623119294643402099609375" lon="-107.7123797871172428131103515625">
        <ele>3393.800048828125</ele>
        <time>2023-07-29T13:12:38.000Z</time>
        <extensions>
          <ns3:TrackPointExtension>
            <ns3:hr>113</ns3:hr>
            <ns3:cad>51</ns3:cad>
          </ns3:TrackPointExtension>
        </extensions>
      </trkpt>
      <trkpt lat="37.74736943654716014862060546875" lon="-107.71236880682408809661865234375">
        <ele>3393.800048828125</ele>
        <time>2023-07-29T13:12:39.000Z</time>
        <extensions>
          <ns3:TrackPointExtension>
            <ns3:hr>114</ns3:hr>
            <ns3:cad>51</ns3:cad>
          </ns3:TrackPointExtension>
        </extensions>
      </trkpt>
      <trkpt lat="37.74737723171710968017578125" lon="-107.71235992200672626495361328125">
        <ele>3393.800048828125</ele>
        <time>2023-07-29T13:12:40.000Z</time>
        <extensions>
          <ns3:TrackPointExtension>
            <ns3:hr>114</ns3:hr>
            <ns3:cad>51</ns3:cad>
          </ns3:TrackPointExtension>
        </extensions>
      </trkpt>
      <trkpt lat="37.74738100357353687286376953125" lon="-107.7123539708554744720458984375">
        <ele>3393.800048828125</ele>
        <time>2023-07-29T13:12:41.000Z</time>
        <extensions>
          <ns3:TrackPointExtension>
            <ns3:hr>115</ns3:hr>
            <ns3:cad>52</ns3:cad>
          </ns3:TrackPointExtension>
        </extensions>
      </trkpt>
      <trkpt lat="37.74738318286836147308349609375" lon="-107.7123512886464595794677734375">
        <ele>3394</ele>
        <time>2023-07-29T13:12:42.000Z</time>
        <extensions>
          <ns3:TrackPointExtension>
            <ns3:hr>115</ns3:hr>
            <ns3:cad>53</ns3:cad>
          </ns3:TrackPointExtension>
        </extensions>
      </trkpt>
      <trkpt lat="37.74739198386669158935546875" lon="-107.7123413980007171630859375">
        <ele>3394.199951171875</ele>
        <time>2023-07-29T13:12:43.000Z</time>
        <extensions>
          <ns3:TrackPointExtension>
            <ns3:hr>115</ns3:hr>
            <ns3:cad>53</ns3:cad>
          </ns3:TrackPointExtension>
        </extensions>
      </trkpt>
      <trkpt lat="37.74740262888371944427490234375" lon="-107.71232941187918186187744140625">
        <ele>3394.39990234375</ele>
        <time>2023-07-29T13:12:44.000Z</time>
        <extensions>
          <ns3:TrackPointExtension>
            <ns3:hr>116</ns3:hr>
            <ns3:cad>53</ns3:cad>
          </ns3:TrackPointExtension>
        </extensions>
      </trkpt>
      <trkpt lat="37.7474154531955718994140625" lon="-107.71231767721474170684814453125">
        <ele>3394.39990234375</ele>
        <time>2023-07-29T13:12:45.000Z</time>
        <extensions>
          <ns3:TrackPointExtension>
            <ns3:hr>116</ns3:hr>
            <ns3:cad>51</ns3:cad>
          </ns3:TrackPointExtension>
        </extensions>
      </trkpt>
      <trkpt lat="37.74742475710809230804443359375" lon="-107.7123080380260944366455078125">
        <ele>3394.39990234375</ele>
        <time>2023-07-29T13:12:46.000Z</time>
        <extensions>
          <ns3:TrackPointExtension>
            <ns3:hr>116</ns3:hr>
            <ns3:cad>51</ns3:cad>
          </ns3:TrackPointExtension>
        </extensions>
      </trkpt>
      <trkpt lat="37.74743548594415187835693359375" lon="-107.71230275742709636688232421875">
        <ele>3394.39990234375</ele>
        <time>2023-07-29T13:12:47.000Z</time>
        <extensions>
          <ns3:TrackPointExtension>
            <ns3:hr>116</ns3:hr>
            <ns3:cad>51</ns3:cad>
          </ns3:TrackPointExtension>
        </extensions>
      </trkpt>
      <trkpt lat="37.7474417723715305328369140625" lon="-107.71230208687484264373779296875">
        <ele>3394.800048828125</ele>
        <time>2023-07-29T13:12:48.000Z</time>
        <extensions>
          <ns3:TrackPointExtension>
            <ns3:hr>117</ns3:hr>
            <ns3:cad>51</ns3:cad>
          </ns3:TrackPointExtension>
        </extensions>
      </trkpt>
      <trkpt lat="37.7474518306553363800048828125" lon="-107.71229781210422515869140625">
        <ele>3394.800048828125</ele>
        <time>2023-07-29T13:12:49.000Z</time>
        <extensions>
          <ns3:TrackPointExtension>
            <ns3:hr>117</ns3:hr>
            <ns3:cad>52</ns3:cad>
          </ns3:TrackPointExtension>
        </extensions>
      </trkpt>
      <trkpt lat="37.74746817536652088165283203125" lon="-107.7122956328094005584716796875">
        <ele>3395</ele>
        <time>2023-07-29T13:12:50.000Z</time>
        <extensions>
          <ns3:TrackPointExtension>
            <ns3:hr>117</ns3:hr>
            <ns3:cad>52</ns3:cad>
          </ns3:TrackPointExtension>
        </extensions>
      </trkpt>
      <trkpt lat="37.7474763058125972747802734375" lon="-107.71229906938970088958740234375">
        <ele>3395</ele>
        <time>2023-07-29T13:12:51.000Z</time>
        <extensions>
          <ns3:TrackPointExtension>
            <ns3:hr>117</ns3:hr>
            <ns3:cad>52</ns3:cad>
          </ns3:TrackPointExtension>
        </extensions>
      </trkpt>
      <trkpt lat="37.74747923947870731353759765625" lon="-107.71230795420706272125244140625">
        <ele>3395</ele>
        <time>2023-07-29T13:12:52.000Z</time>
        <extensions>
          <ns3:TrackPointExtension>
            <ns3:hr>118</ns3:hr>
            <ns3:cad>52</ns3:cad>
          </ns3:TrackPointExtension>
        </extensions>
      </trkpt>
      <trkpt lat="37.747484184801578521728515625" lon="-107.71231650374829769134521484375">
        <ele>3395.199951171875</ele>
        <time>2023-07-29T13:12:53.000Z</time>
        <extensions>
          <ns3:TrackPointExtension>
            <ns3:hr>117</ns3:hr>
            <ns3:cad>50</ns3:cad>
          </ns3:TrackPointExtension>
        </extensions>
      </trkpt>
      <trkpt lat="37.747488878667354583740234375" lon="-107.7123251371085643768310546875">
        <ele>3395.39990234375</ele>
        <time>2023-07-29T13:12:54.000Z</time>
        <extensions>
          <ns3:TrackPointExtension>
            <ns3:hr>116</ns3:hr>
            <ns3:cad>50</ns3:cad>
          </ns3:TrackPointExtension>
        </extensions>
      </trkpt>
      <trkpt lat="37.7475011162459850311279296875" lon="-107.71233594976365566253662109375">
        <ele>3395.39990234375</ele>
        <time>2023-07-29T13:12:55.000Z</time>
        <extensions>
          <ns3:TrackPointExtension>
            <ns3:hr>116</ns3:hr>
            <ns3:cad>50</ns3:cad>
          </ns3:TrackPointExtension>
        </extensions>
      </trkpt>
      <trkpt lat="37.74751444347202777862548828125" lon="-107.712345421314239501953125">
        <ele>3395.39990234375</ele>
        <time>2023-07-29T13:12:56.000Z</time>
        <extensions>
          <ns3:TrackPointExtension>
            <ns3:hr>115</ns3:hr>
            <ns3:cad>50</ns3:cad>
          </ns3:TrackPointExtension>
        </extensions>
      </trkpt>
      <trkpt lat="37.74752232246100902557373046875" lon="-107.71234852261841297149658203125">
        <ele>3395.800048828125</ele>
        <time>2023-07-29T13:12:57.000Z</time>
        <extensions>
          <ns3:TrackPointExtension>
            <ns3:hr>114</ns3:hr>
            <ns3:cad>48</ns3:cad>
          </ns3:TrackPointExtension>
        </extensions>
      </trkpt>
      <trkpt lat="37.747527770698070526123046875" lon="-107.71235506050288677215576171875">
        <ele>3395.800048828125</ele>
        <time>2023-07-29T13:12:58.000Z</time>
        <extensions>
          <ns3:TrackPointExtension>
            <ns3:hr>114</ns3:hr>
            <ns3:cad>48</ns3:cad>
          </ns3:TrackPointExtension>
        </extensions>
      </trkpt>
      <trkpt lat="37.74753036908805370330810546875" lon="-107.71235522814095020294189453125">
        <ele>3396</ele>
        <time>2023-07-29T13:12:59.000Z</time>
        <extensions>
          <ns3:TrackPointExtension>
            <ns3:hr>114</ns3:hr>
            <ns3:cad>48</ns3:cad>
          </ns3:TrackPointExtension>
        </extensions>
      </trkpt>
      <trkpt lat="37.74754059500992298126220703125" lon="-107.7123559825122356414794921875">
        <ele>3396.199951171875</ele>
        <time>2023-07-29T13:13:00.000Z</time>
        <extensions>
          <ns3:TrackPointExtension>
            <ns3:hr>114</ns3:hr>
            <ns3:cad>48</ns3:cad>
          </ns3:TrackPointExtension>
        </extensions>
      </trkpt>
      <trkpt lat="37.7475493960082530975341796875" lon="-107.71235908381640911102294921875">
        <ele>3396.39990234375</ele>
        <time>2023-07-29T13:13:01.000Z</time>
        <extensions>
          <ns3:TrackPointExtension>
            <ns3:hr>114</ns3:hr>
            <ns3:cad>47</ns3:cad>
          </ns3:TrackPointExtension>
        </extensions>
      </trkpt>
      <trkpt lat="37.74755467660725116729736328125" lon="-107.71235791034996509552001953125">
        <ele>3396.800048828125</ele>
        <time>2023-07-29T13:13:02.000Z</time>
        <extensions>
          <ns3:TrackPointExtension>
            <ns3:hr>114</ns3:hr>
            <ns3:cad>47</ns3:cad>
          </ns3:TrackPointExtension>
        </extensions>
      </trkpt>
      <trkpt lat="37.74755752645432949066162109375" lon="-107.7123549766838550567626953125">
        <ele>3396.800048828125</ele>
        <time>2023-07-29T13:13:03.000Z</time>
        <extensions>
          <ns3:TrackPointExtension>
            <ns3:hr>114</ns3:hr>
            <ns3:cad>47</ns3:cad>
          </ns3:TrackPointExtension>
        </extensions>
      </trkpt>
      <trkpt lat="37.747563309967517852783203125" lon="-107.7123548090457916259765625">
        <ele>3397</ele>
        <time>2023-07-29T13:13:04.000Z</time>
        <extensions>
          <ns3:TrackPointExtension>
            <ns3:hr>114</ns3:hr>
            <ns3:cad>49</ns3:cad>
          </ns3:TrackPointExtension>
        </extensions>
      </trkpt>
      <trkpt lat="37.747570686042308807373046875" lon="-107.7123543061316013336181640625">
        <ele>3397.39990234375</ele>
        <time>2023-07-29T13:13:05.000Z</time>
        <extensions>
          <ns3:TrackPointExtension>
            <ns3:hr>115</ns3:hr>
            <ns3:cad>49</ns3:cad>
          </ns3:TrackPointExtension>
        </extensions>
      </trkpt>
      <trkpt lat="37.747580744326114654541015625" lon="-107.712353803217411041259765625">
        <ele>3397.60009765625</ele>
        <time>2023-07-29T13:13:06.000Z</time>
        <extensions>
          <ns3:TrackPointExtension>
            <ns3:hr>115</ns3:hr>
            <ns3:cad>49</ns3:cad>
          </ns3:TrackPointExtension>
        </extensions>
      </trkpt>
      <trkpt lat="37.74758686311542987823486328125" lon="-107.71235053427517414093017578125">
        <ele>3397.800048828125</ele>
        <time>2023-07-29T13:13:07.000Z</time>
        <extensions>
          <ns3:TrackPointExtension>
            <ns3:hr>115</ns3:hr>
            <ns3:cad>51</ns3:cad>
          </ns3:TrackPointExtension>
        </extensions>
      </trkpt>
      <trkpt lat="37.74759222753345966339111328125" lon="-107.7123492769896984100341796875">
        <ele>3397.800048828125</ele>
        <time>2023-07-29T13:13:08.000Z</time>
        <extensions>
          <ns3:TrackPointExtension>
            <ns3:hr>115</ns3:hr>
            <ns3:cad>51</ns3:cad>
          </ns3:TrackPointExtension>
        </extensions>
      </trkpt>
      <trkpt lat="37.7475973404943943023681640625" lon="-107.71234609186649322509765625">
        <ele>3397.800048828125</ele>
        <time>2023-07-29T13:13:09.000Z</time>
        <extensions>
          <ns3:TrackPointExtension>
            <ns3:hr>115</ns3:hr>
            <ns3:cad>51</ns3:cad>
          </ns3:TrackPointExtension>
        </extensions>
      </trkpt>
      <trkpt lat="37.747594155371189117431640625" lon="-107.71233578212559223175048828125">
        <ele>3398.199951171875</ele>
        <time>2023-07-29T13:13:10.000Z</time>
        <extensions>
          <ns3:TrackPointExtension>
            <ns3:hr>116</ns3:hr>
            <ns3:cad>51</ns3:cad>
          </ns3:TrackPointExtension>
        </extensions>
      </trkpt>
      <trkpt lat="37.74760396219789981842041015625" lon="-107.71232857368886470794677734375">
        <ele>3398.199951171875</ele>
        <time>2023-07-29T13:13:11.000Z</time>
        <extensions>
          <ns3:TrackPointExtension>
            <ns3:hr>115</ns3:hr>
            <ns3:cad>51</ns3:cad>
          </ns3:TrackPointExtension>
        </extensions>
      </trkpt>
      <trkpt lat="37.747612930834293365478515625" lon="-107.71231851540505886077880859375">
        <ele>3398.60009765625</ele>
        <time>2023-07-29T13:13:12.000Z</time>
        <extensions>
          <ns3:TrackPointExtension>
            <ns3:hr>114</ns3:hr>
            <ns3:cad>51</ns3:cad>
          </ns3:TrackPointExtension>
        </extensions>
      </trkpt>
      <trkpt lat="37.74762039072811603546142578125" lon="-107.712306864559650421142578125">
        <ele>3398.800048828125</ele>
        <time>2023-07-29T13:13:13.000Z</time>
        <extensions>
          <ns3:TrackPointExtension>
            <ns3:hr>113</ns3:hr>
            <ns3:cad>51</ns3:cad>
          </ns3:TrackPointExtension>
        </extensions>
      </trkpt>
      <trkpt lat="37.74763698689639568328857421875" lon="-107.712292782962322235107421875">
        <ele>3398.800048828125</ele>
        <time>2023-07-29T13:13:14.000Z</time>
        <extensions>
          <ns3:TrackPointExtension>
            <ns3:hr>111</ns3:hr>
            <ns3:cad>51</ns3:cad>
          </ns3:TrackPointExtension>
        </extensions>
      </trkpt>
      <trkpt lat="37.74765349924564361572265625" lon="-107.712281383574008941650390625">
        <ele>3399</ele>
        <time>2023-07-29T13:13:15.000Z</time>
        <extensions>
          <ns3:TrackPointExtension>
            <ns3:hr>111</ns3:hr>
            <ns3:cad>51</ns3:cad>
          </ns3:TrackPointExtension>
        </extensions>
      </trkpt>
      <trkpt lat="37.747664563357830047607421875" lon="-107.71227694116532802581787109375">
        <ele>3399</ele>
        <time>2023-07-29T13:13:16.000Z</time>
        <extensions>
          <ns3:TrackPointExtension>
            <ns3:hr>110</ns3:hr>
            <ns3:cad>51</ns3:cad>
          </ns3:TrackPointExtension>
        </extensions>
      </trkpt>
      <trkpt lat="37.74767437018454074859619140625" lon="-107.71227560006082057952880859375">
        <ele>3399</ele>
        <time>2023-07-29T13:13:17.000Z</time>
        <extensions>
          <ns3:TrackPointExtension>
            <ns3:hr>111</ns3:hr>
            <ns3:cad>51</ns3:cad>
          </ns3:TrackPointExtension>
        </extensions>
      </trkpt>
      <trkpt lat="37.74768291972577571868896484375" lon="-107.71226872690021991729736328125">
        <ele>3399.199951171875</ele>
        <time>2023-07-29T13:13:18.000Z</time>
        <extensions>
          <ns3:TrackPointExtension>
            <ns3:hr>111</ns3:hr>
            <ns3:cad>52</ns3:cad>
          </ns3:TrackPointExtension>
        </extensions>
      </trkpt>
      <trkpt lat="37.747695408761501312255859375" lon="-107.7122684754431247711181640625">
        <ele>3399.39990234375</ele>
        <time>2023-07-29T13:13:19.000Z</time>
        <extensions>
          <ns3:TrackPointExtension>
            <ns3:hr>111</ns3:hr>
            <ns3:cad>52</ns3:cad>
          </ns3:TrackPointExtension>
        </extensions>
      </trkpt>
      <trkpt lat="37.74770856834948062896728515625" lon="-107.7122674696147441864013671875">
        <ele>3399.60009765625</ele>
        <time>2023-07-29T13:13:20.000Z</time>
        <extensions>
          <ns3:TrackPointExtension>
            <ns3:hr>112</ns3:hr>
            <ns3:cad>52</ns3:cad>
          </ns3:TrackPointExtension>
        </extensions>
      </trkpt>
      <trkpt lat="37.74771988391876220703125" lon="-107.71227073855698108673095703125">
        <ele>3399.800048828125</ele>
        <time>2023-07-29T13:13:21.000Z</time>
        <extensions>
          <ns3:TrackPointExtension>
            <ns3:hr>112</ns3:hr>
            <ns3:cad>51</ns3:cad>
          </ns3:TrackPointExtension>
        </extensions>
      </trkpt>
      <trkpt lat="37.7477237395942211151123046875" lon="-107.71227207966148853302001953125">
        <ele>3399.800048828125</ele>
        <time>2023-07-29T13:13:22.000Z</time>
        <extensions>
          <ns3:TrackPointExtension>
            <ns3:hr>112</ns3:hr>
            <ns3:cad>49</ns3:cad>
          </ns3:TrackPointExtension>
        </extensions>
      </trkpt>
      <trkpt lat="37.74772482924163341522216796875" lon="-107.7122714929282665252685546875">
        <ele>3399.800048828125</ele>
        <time>2023-07-29T13:13:23.000Z</time>
        <extensions>
          <ns3:TrackPointExtension>
            <ns3:hr>114</ns3:hr>
            <ns3:cad>49</ns3:cad>
          </ns3:TrackPointExtension>
        </extensions>
      </trkpt>
      <trkpt lat="37.747731618583202362060546875" lon="-107.7122735045850276947021484375">
        <ele>3399.800048828125</ele>
        <time>2023-07-29T13:13:24.000Z</time>
        <extensions>
          <ns3:TrackPointExtension>
            <ns3:hr>114</ns3:hr>
            <ns3:cad>49</ns3:cad>
          </ns3:TrackPointExtension>
        </extensions>
      </trkpt>
      <trkpt lat="37.7477418445050716400146484375" lon="-107.71227576769888401031494140625">
        <ele>3399.800048828125</ele>
        <time>2023-07-29T13:13:25.000Z</time>
        <extensions>
          <ns3:TrackPointExtension>
            <ns3:hr>114</ns3:hr>
            <ns3:cad>51</ns3:cad>
          </ns3:TrackPointExtension>
        </extensions>
      </trkpt>
      <trkpt lat="37.74775651283562183380126953125" lon="-107.71227727644145488739013671875">
        <ele>3399.800048828125</ele>
        <time>2023-07-29T13:13:26.000Z</time>
        <extensions>
          <ns3:TrackPointExtension>
            <ns3:hr>114</ns3:hr>
            <ns3:cad>51</ns3:cad>
          </ns3:TrackPointExtension>
        </extensions>
      </trkpt>
      <trkpt lat="37.7477763779461383819580078125" lon="-107.71227828226983547210693359375">
        <ele>3399.800048828125</ele>
        <time>2023-07-29T13:13:27.000Z</time>
        <extensions>
          <ns3:TrackPointExtension>
            <ns3:hr>114</ns3:hr>
            <ns3:cad>52</ns3:cad>
          </ns3:TrackPointExtension>
        </extensions>
      </trkpt>
      <trkpt lat="37.7477911300957202911376953125" lon="-107.71227995865046977996826171875">
        <ele>3399.60009765625</ele>
        <time>2023-07-29T13:13:28.000Z</time>
        <extensions>
          <ns3:TrackPointExtension>
            <ns3:hr>114</ns3:hr>
            <ns3:cad>52</ns3:cad>
          </ns3:TrackPointExtension>
        </extensions>
      </trkpt>
      <trkpt lat="37.74780613370239734649658203125" lon="-107.7122815512120723724365234375">
        <ele>3399.60009765625</ele>
        <time>2023-07-29T13:13:29.000Z</time>
        <extensions>
          <ns3:TrackPointExtension>
            <ns3:hr>114</ns3:hr>
            <ns3:cad>54</ns3:cad>
          </ns3:TrackPointExtension>
        </extensions>
      </trkpt>
      <trkpt lat="37.74782055057585239410400390625" lon="-107.71228347904980182647705078125">
        <ele>3399.39990234375</ele>
        <time>2023-07-29T13:13:30.000Z</time>
        <extensions>
          <ns3:TrackPointExtension>
            <ns3:hr>114</ns3:hr>
            <ns3:cad>54</ns3:cad>
          </ns3:TrackPointExtension>
        </extensions>
      </trkpt>
      <trkpt lat="37.74783865548670291900634765625" lon="-107.71228347904980182647705078125">
        <ele>3399.39990234375</ele>
        <time>2023-07-29T13:13:31.000Z</time>
        <extensions>
          <ns3:TrackPointExtension>
            <ns3:hr>114</ns3:hr>
            <ns3:cad>55</ns3:cad>
          </ns3:TrackPointExtension>
        </extensions>
      </trkpt>
      <trkpt lat="37.747856676578521728515625" lon="-107.71228171885013580322265625">
        <ele>3399.39990234375</ele>
        <time>2023-07-29T13:13:32.000Z</time>
        <extensions>
          <ns3:TrackPointExtension>
            <ns3:hr>114</ns3:hr>
            <ns3:cad>55</ns3:cad>
          </ns3:TrackPointExtension>
        </extensions>
      </trkpt>
      <trkpt lat="37.7478660643100738525390625" lon="-107.71228373050689697265625">
        <ele>3399.39990234375</ele>
        <time>2023-07-29T13:13:33.000Z</time>
        <extensions>
          <ns3:TrackPointExtension>
            <ns3:hr>114</ns3:hr>
            <ns3:cad>55</ns3:cad>
          </ns3:TrackPointExtension>
        </extensions>
      </trkpt>
      <trkpt lat="37.74787603877484798431396484375" lon="-107.7122849039733409881591796875">
        <ele>3399.39990234375</ele>
        <time>2023-07-29T13:13:34.000Z</time>
        <extensions>
          <ns3:TrackPointExtension>
            <ns3:hr>114</ns3:hr>
            <ns3:cad>55</ns3:cad>
          </ns3:TrackPointExtension>
        </extensions>
      </trkpt>
      <trkpt lat="37.74788819253444671630859375" lon="-107.7122865803539752960205078125">
        <ele>3399.39990234375</ele>
        <time>2023-07-29T13:13:35.000Z</time>
        <extensions>
          <ns3:TrackPointExtension>
            <ns3:hr>114</ns3:hr>
            <ns3:cad>54</ns3:cad>
          </ns3:TrackPointExtension>
        </extensions>
      </trkpt>
      <trkpt lat="37.747905962169170379638671875" lon="-107.71229051984846591949462890625">
        <ele>3399.39990234375</ele>
        <time>2023-07-29T13:13:36.000Z</time>
        <extensions>
          <ns3:TrackPointExtension>
            <ns3:hr>114</ns3:hr>
            <ns3:cad>53</ns3:cad>
          </ns3:TrackPointExtension>
        </extensions>
      </trkpt>
      <trkpt lat="37.74792398326098918914794921875" lon="-107.7122979797422885894775390625">
        <ele>3399.39990234375</ele>
        <time>2023-07-29T13:13:37.000Z</time>
        <extensions>
          <ns3:TrackPointExtension>
            <ns3:hr>113</ns3:hr>
            <ns3:cad>53</ns3:cad>
          </ns3:TrackPointExtension>
        </extensions>
      </trkpt>
      <trkpt lat="37.74793487973511219024658203125" lon="-107.71230946294963359832763671875">
        <ele>3399.60009765625</ele>
        <time>2023-07-29T13:13:38.000Z</time>
        <extensions>
          <ns3:TrackPointExtension>
            <ns3:hr>113</ns3:hr>
            <ns3:cad>53</ns3:cad>
          </ns3:TrackPointExtension>
        </extensions>
      </trkpt>
      <trkpt lat="37.74794988334178924560546875" lon="-107.7123184315860271453857421875">
        <ele>3399.60009765625</ele>
        <time>2023-07-29T13:13:39.000Z</time>
        <extensions>
          <ns3:TrackPointExtension>
            <ns3:hr>113</ns3:hr>
            <ns3:cad>53</ns3:cad>
          </ns3:TrackPointExtension>
        </extensions>
      </trkpt>
      <trkpt lat="37.7479624561965465545654296875" lon="-107.71232823841273784637451171875">
        <ele>3399.60009765625</ele>
        <time>2023-07-29T13:13:40.000Z</time>
        <extensions>
          <ns3:TrackPointExtension>
            <ns3:hr>113</ns3:hr>
            <ns3:cad>53</ns3:cad>
          </ns3:TrackPointExtension>
        </extensions>
      </trkpt>
      <trkpt lat="37.74797813035547733306884765625" lon="-107.7123398892581462860107421875">
        <ele>3399.60009765625</ele>
        <time>2023-07-29T13:13:41.000Z</time>
        <extensions>
          <ns3:TrackPointExtension>
            <ns3:hr>113</ns3:hr>
            <ns3:cad>54</ns3:cad>
          </ns3:TrackPointExtension>
        </extensions>
      </trkpt>
      <trkpt lat="37.74798952974379062652587890625" lon="-107.7123489417135715484619140625">
        <ele>3399.60009765625</ele>
        <time>2023-07-29T13:13:42.000Z</time>
        <extensions>
          <ns3:TrackPointExtension>
            <ns3:hr>113</ns3:hr>
            <ns3:cad>55</ns3:cad>
          </ns3:TrackPointExtension>
        </extensions>
      </trkpt>
      <trkpt lat="37.74800243787467479705810546875" lon="-107.71235606633126735687255859375">
        <ele>3399.800048828125</ele>
        <time>2023-07-29T13:13:43.000Z</time>
        <extensions>
          <ns3:TrackPointExtension>
            <ns3:hr>113</ns3:hr>
            <ns3:cad>55</ns3:cad>
          </ns3:TrackPointExtension>
        </extensions>
      </trkpt>
      <trkpt lat="37.748013250529766082763671875" lon="-107.71236126311123371124267578125">
        <ele>3399.800048828125</ele>
        <time>2023-07-29T13:13:44.000Z</time>
        <extensions>
          <ns3:TrackPointExtension>
            <ns3:hr>113</ns3:hr>
            <ns3:cad>55</ns3:cad>
          </ns3:TrackPointExtension>
        </extensions>
      </trkpt>
      <trkpt lat="37.74801802821457386016845703125" lon="-107.71236352622509002685546875">
        <ele>3399.800048828125</ele>
        <time>2023-07-29T13:13:45.000Z</time>
        <extensions>
          <ns3:TrackPointExtension>
            <ns3:hr>113</ns3:hr>
            <ns3:cad>55</ns3:cad>
          </ns3:TrackPointExtension>
        </extensions>
      </trkpt>
      <trkpt lat="37.7480231411755084991455078125" lon="-107.7123663760721683502197265625">
        <ele>3399.800048828125</ele>
        <time>2023-07-29T13:13:46.000Z</time>
        <extensions>
          <ns3:TrackPointExtension>
            <ns3:hr>113</ns3:hr>
            <ns3:cad>55</ns3:cad>
          </ns3:TrackPointExtension>
        </extensions>
      </trkpt>
      <trkpt lat="37.74802674539387226104736328125" lon="-107.71236830390989780426025390625">
        <ele>3399.800048828125</ele>
        <time>2023-07-29T13:13:47.000Z</time>
        <extensions>
          <ns3:TrackPointExtension>
            <ns3:hr>113</ns3:hr>
            <ns3:cad>55</ns3:cad>
          </ns3:TrackPointExtension>
        </extensions>
      </trkpt>
      <trkpt lat="37.74802942760288715362548828125" lon="-107.71237283013761043548583984375">
        <ele>3399.800048828125</ele>
        <time>2023-07-29T13:13:48.000Z</time>
        <extensions>
          <ns3:TrackPointExtension>
            <ns3:hr>113</ns3:hr>
            <ns3:cad>55</ns3:cad>
          </ns3:TrackPointExtension>
        </extensions>
      </trkpt>
      <trkpt lat="37.74803076870739459991455078125" lon="-107.71237685345113277435302734375">
        <ele>3399.800048828125</ele>
        <time>2023-07-29T13:13:49.000Z</time>
        <extensions>
          <ns3:TrackPointExtension>
            <ns3:hr>113</ns3:hr>
            <ns3:cad>55</ns3:cad>
          </ns3:TrackPointExtension>
        </extensions>
      </trkpt>
      <trkpt lat="37.74803630076348781585693359375" lon="-107.71238364279270172119140625">
        <ele>3399.800048828125</ele>
        <time>2023-07-29T13:13:50.000Z</time>
        <extensions>
          <ns3:TrackPointExtension>
            <ns3:hr>113</ns3:hr>
            <ns3:cad>55</ns3:cad>
          </ns3:TrackPointExtension>
        </extensions>
      </trkpt>
      <trkpt lat="37.74804166518151760101318359375" lon="-107.71238691173493862152099609375">
        <ele>3399.800048828125</ele>
        <time>2023-07-29T13:13:51.000Z</time>
        <extensions>
          <ns3:TrackPointExtension>
            <ns3:hr>113</ns3:hr>
            <ns3:cad>53</ns3:cad>
          </ns3:TrackPointExtension>
        </extensions>
      </trkpt>
      <trkpt lat="37.74805038236081600189208984375" lon="-107.7123945392668247222900390625">
        <ele>3400</ele>
        <time>2023-07-29T13:13:52.000Z</time>
        <extensions>
          <ns3:TrackPointExtension>
            <ns3:hr>112</ns3:hr>
            <ns3:cad>53</ns3:cad>
          </ns3:TrackPointExtension>
        </extensions>
      </trkpt>
      <trkpt lat="37.74805448949337005615234375" lon="-107.71240334026515483856201171875">
        <ele>3400</ele>
        <time>2023-07-29T13:13:53.000Z</time>
        <extensions>
          <ns3:TrackPointExtension>
            <ns3:hr>112</ns3:hr>
            <ns3:cad>53</ns3:cad>
          </ns3:TrackPointExtension>
        </extensions>
      </trkpt>
      <trkpt lat="37.74805977009236812591552734375" lon="-107.7124089561402797698974609375">
        <ele>3400.199951171875</ele>
        <time>2023-07-29T13:13:54.000Z</time>
        <extensions>
          <ns3:TrackPointExtension>
            <ns3:hr>111</ns3:hr>
            <ns3:cad>53</ns3:cad>
          </ns3:TrackPointExtension>
        </extensions>
      </trkpt>
      <trkpt lat="37.74806563742458820343017578125" lon="-107.71241574548184871673583984375">
        <ele>3400.39990234375</ele>
        <time>2023-07-29T13:13:55.000Z</time>
        <extensions>
          <ns3:TrackPointExtension>
            <ns3:hr>111</ns3:hr>
            <ns3:cad>53</ns3:cad>
          </ns3:TrackPointExtension>
        </extensions>
      </trkpt>
      <trkpt lat="37.74806982837617397308349609375" lon="-107.71242446266114711761474609375">
        <ele>3400.60009765625</ele>
        <time>2023-07-29T13:13:56.000Z</time>
        <extensions>
          <ns3:TrackPointExtension>
            <ns3:hr>111</ns3:hr>
            <ns3:cad>53</ns3:cad>
          </ns3:TrackPointExtension>
        </extensions>
      </trkpt>
      <trkpt lat="37.748076282441616058349609375" lon="-107.71243401803076267242431640625">
        <ele>3400.60009765625</ele>
        <time>2023-07-29T13:13:57.000Z</time>
        <extensions>
          <ns3:TrackPointExtension>
            <ns3:hr>111</ns3:hr>
            <ns3:cad>53</ns3:cad>
          </ns3:TrackPointExtension>
        </extensions>
      </trkpt>
      <trkpt lat="37.74808072485029697418212890625" lon="-107.71243519149720668792724609375">
        <ele>3400.800048828125</ele>
        <time>2023-07-29T13:13:58.000Z</time>
        <extensions>
          <ns3:TrackPointExtension>
            <ns3:hr>111</ns3:hr>
            <ns3:cad>53</ns3:cad>
          </ns3:TrackPointExtension>
        </extensions>
      </trkpt>
      <trkpt lat="37.74808273650705814361572265625" lon="-107.71243016235530376434326171875">
        <ele>3401</ele>
        <time>2023-07-29T13:13:59.000Z</time>
        <extensions>
          <ns3:TrackPointExtension>
            <ns3:hr>110</ns3:hr>
            <ns3:cad>53</ns3:cad>
          </ns3:TrackPointExtension>
        </extensions>
      </trkpt>
      <trkpt lat="37.74808927439153194427490234375" lon="-107.71243301220238208770751953125">
        <ele>3401.199951171875</ele>
        <time>2023-07-29T13:14:00.000Z</time>
        <extensions>
          <ns3:TrackPointExtension>
            <ns3:hr>110</ns3:hr>
            <ns3:cad>53</ns3:cad>
          </ns3:TrackPointExtension>
        </extensions>
      </trkpt>
      <trkpt lat="37.7480955608189105987548828125" lon="-107.71243460476398468017578125">
        <ele>3401.39990234375</ele>
        <time>2023-07-29T13:14:01.000Z</time>
        <extensions>
          <ns3:TrackPointExtension>
            <ns3:hr>110</ns3:hr>
            <ns3:cad>54</ns3:cad>
          </ns3:TrackPointExtension>
        </extensions>
      </trkpt>
      <trkpt lat="37.74809950031340122222900390625" lon="-107.7124367840588092803955078125">
        <ele>3401.60009765625</ele>
        <time>2023-07-29T13:14:02.000Z</time>
        <extensions>
          <ns3:TrackPointExtension>
            <ns3:hr>110</ns3:hr>
            <ns3:cad>54</ns3:cad>
          </ns3:TrackPointExtension>
        </extensions>
      </trkpt>
      <trkpt lat="37.7481042779982089996337890625" lon="-107.7124401368200778961181640625">
        <ele>3401.800048828125</ele>
        <time>2023-07-29T13:14:03.000Z</time>
        <extensions>
          <ns3:TrackPointExtension>
            <ns3:hr>109</ns3:hr>
            <ns3:cad>53</ns3:cad>
          </ns3:TrackPointExtension>
        </extensions>
      </trkpt>
      <trkpt lat="37.7481170184910297393798828125" lon="-107.7124444954097270965576171875">
        <ele>3402</ele>
        <time>2023-07-29T13:14:04.000Z</time>
        <extensions>
          <ns3:TrackPointExtension>
            <ns3:hr>109</ns3:hr>
            <ns3:cad>52</ns3:cad>
          </ns3:TrackPointExtension>
        </extensions>
      </trkpt>
      <trkpt lat="37.74813168682157993316650390625" lon="-107.7124460041522979736328125">
        <ele>3402.199951171875</ele>
        <time>2023-07-29T13:14:05.000Z</time>
        <extensions>
          <ns3:TrackPointExtension>
            <ns3:hr>109</ns3:hr>
            <ns3:cad>52</ns3:cad>
          </ns3:TrackPointExtension>
        </extensions>
      </trkpt>
      <trkpt lat="37.74814845062792301177978515625" lon="-107.71244642324745655059814453125">
        <ele>3402.39990234375</ele>
        <time>2023-07-29T13:14:06.000Z</time>
        <extensions>
          <ns3:TrackPointExtension>
            <ns3:hr>109</ns3:hr>
            <ns3:cad>52</ns3:cad>
          </ns3:TrackPointExtension>
        </extensions>
      </trkpt>
      <trkpt lat="37.7481636218726634979248046875" lon="-107.7124475128948688507080078125">
        <ele>3402.60009765625</ele>
        <time>2023-07-29T13:14:07.000Z</time>
        <extensions>
          <ns3:TrackPointExtension>
            <ns3:hr>109</ns3:hr>
            <ns3:cad>53</ns3:cad>
          </ns3:TrackPointExtension>
        </extensions>
      </trkpt>
      <trkpt lat="37.74817292578518390655517578125" lon="-107.71244667470455169677734375">
        <ele>3402.800048828125</ele>
        <time>2023-07-29T13:14:08.000Z</time>
        <extensions>
          <ns3:TrackPointExtension>
            <ns3:hr>109</ns3:hr>
            <ns3:cad>53</ns3:cad>
          </ns3:TrackPointExtension>
        </extensions>
      </trkpt>
      <trkpt lat="37.74818013422191143035888671875" lon="-107.712443657219409942626953125">
        <ele>3403</ele>
        <time>2023-07-29T13:14:09.000Z</time>
        <extensions>
          <ns3:TrackPointExtension>
            <ns3:hr>109</ns3:hr>
            <ns3:cad>49</ns3:cad>
          </ns3:TrackPointExtension>
        </extensions>
      </trkpt>
      <trkpt lat="37.7481907792389392852783203125" lon="-107.71243871189653873443603515625">
        <ele>3403.39990234375</ele>
        <time>2023-07-29T13:14:10.000Z</time>
        <extensions>
          <ns3:TrackPointExtension>
            <ns3:hr>109</ns3:hr>
            <ns3:cad>49</ns3:cad>
          </ns3:TrackPointExtension>
        </extensions>
      </trkpt>
      <trkpt lat="37.74820226244628429412841796875" lon="-107.7124334312975406646728515625">
        <ele>3403.60009765625</ele>
        <time>2023-07-29T13:14:11.000Z</time>
        <extensions>
          <ns3:TrackPointExtension>
            <ns3:hr>109</ns3:hr>
            <ns3:cad>49</ns3:cad>
          </ns3:TrackPointExtension>
        </extensions>
      </trkpt>
      <trkpt lat="37.7482119016349315643310546875" lon="-107.7124267257750034332275390625">
        <ele>3404</ele>
        <time>2023-07-29T13:14:12.000Z</time>
        <extensions>
          <ns3:TrackPointExtension>
            <ns3:hr>109</ns3:hr>
            <ns3:cad>49</ns3:cad>
          </ns3:TrackPointExtension>
        </extensions>
      </trkpt>
      <trkpt lat="37.74821952916681766510009765625" lon="-107.712422870099544525146484375">
        <ele>3404.199951171875</ele>
        <time>2023-07-29T13:14:13.000Z</time>
        <extensions>
          <ns3:TrackPointExtension>
            <ns3:hr>110</ns3:hr>
            <ns3:cad>48</ns3:cad>
          </ns3:TrackPointExtension>
        </extensions>
      </trkpt>
      <trkpt lat="37.74822606705129146575927734375" lon="-107.712418846786022186279296875">
        <ele>3404.39990234375</ele>
        <time>2023-07-29T13:14:14.000Z</time>
        <extensions>
          <ns3:TrackPointExtension>
            <ns3:hr>110</ns3:hr>
            <ns3:cad>48</ns3:cad>
          </ns3:TrackPointExtension>
        </extensions>
      </trkpt>
      <trkpt lat="37.748230509459972381591796875" lon="-107.7124119736254215240478515625">
        <ele>3404.39990234375</ele>
        <time>2023-07-29T13:14:15.000Z</time>
        <extensions>
          <ns3:TrackPointExtension>
            <ns3:hr>110</ns3:hr>
            <ns3:cad>48</ns3:cad>
          </ns3:TrackPointExtension>
        </extensions>
      </trkpt>
      <trkpt lat="37.74823143146932125091552734375" lon="-107.71240317262709140777587890625">
        <ele>3404.60009765625</ele>
        <time>2023-07-29T13:14:16.000Z</time>
        <extensions>
          <ns3:TrackPointExtension>
            <ns3:hr>110</ns3:hr>
            <ns3:cad>50</ns3:cad>
          </ns3:TrackPointExtension>
        </extensions>
      </trkpt>
      <trkpt lat="37.748235873878002166748046875" lon="-107.71238900721073150634765625">
        <ele>3404.800048828125</ele>
        <time>2023-07-29T13:14:17.000Z</time>
        <extensions>
          <ns3:TrackPointExtension>
            <ns3:hr>110</ns3:hr>
            <ns3:cad>51</ns3:cad>
          </ns3:TrackPointExtension>
        </extensions>
      </trkpt>
      <trkpt lat="37.74824836291372776031494140625" lon="-107.712377607822418212890625">
        <ele>3405</ele>
        <time>2023-07-29T13:14:18.000Z</time>
        <extensions>
          <ns3:TrackPointExtension>
            <ns3:hr>110</ns3:hr>
            <ns3:cad>51</ns3:cad>
          </ns3:TrackPointExtension>
        </extensions>
      </trkpt>
      <trkpt lat="37.74826093576848506927490234375" lon="-107.712366543710231781005859375">
        <ele>3405.199951171875</ele>
        <time>2023-07-29T13:14:19.000Z</time>
        <extensions>
          <ns3:TrackPointExtension>
            <ns3:hr>111</ns3:hr>
            <ns3:cad>51</ns3:cad>
          </ns3:TrackPointExtension>
        </extensions>
      </trkpt>
      <trkpt lat="37.74826613254845142364501953125" lon="-107.71236495114862918853759765625">
        <ele>3405.60009765625</ele>
        <time>2023-07-29T13:14:20.000Z</time>
        <extensions>
          <ns3:TrackPointExtension>
            <ns3:hr>111</ns3:hr>
            <ns3:cad>52</ns3:cad>
          </ns3:TrackPointExtension>
        </extensions>
      </trkpt>
      <trkpt lat="37.74827267043292522430419921875" lon="-107.7123636938631534576416015625">
        <ele>3405.800048828125</ele>
        <time>2023-07-29T13:14:21.000Z</time>
        <extensions>
          <ns3:TrackPointExtension>
            <ns3:hr>111</ns3:hr>
            <ns3:cad>52</ns3:cad>
          </ns3:TrackPointExtension>
        </extensions>
      </trkpt>
      <trkpt lat="37.74827619083225727081298828125" lon="-107.71236763335764408111572265625">
        <ele>3406</ele>
        <time>2023-07-29T13:14:22.000Z</time>
        <extensions>
          <ns3:TrackPointExtension>
            <ns3:hr>111</ns3:hr>
            <ns3:cad>51</ns3:cad>
          </ns3:TrackPointExtension>
        </extensions>
      </trkpt>
      <trkpt lat="37.74828222580254077911376953125" lon="-107.7123640291392803192138671875">
        <ele>3406.199951171875</ele>
        <time>2023-07-29T13:14:23.000Z</time>
        <extensions>
          <ns3:TrackPointExtension>
            <ns3:hr>111</ns3:hr>
            <ns3:cad>51</ns3:cad>
          </ns3:TrackPointExtension>
        </extensions>
      </trkpt>
      <trkpt lat="37.74828658439218997955322265625" lon="-107.7123623527586460113525390625">
        <ele>3406.39990234375</ele>
        <time>2023-07-29T13:14:24.000Z</time>
        <extensions>
          <ns3:TrackPointExtension>
            <ns3:hr>112</ns3:hr>
            <ns3:cad>51</ns3:cad>
          </ns3:TrackPointExtension>
        </extensions>
      </trkpt>
      <trkpt lat="37.74829563684761524200439453125" lon="-107.7123640291392803192138671875">
        <ele>3406.39990234375</ele>
        <time>2023-07-29T13:14:25.000Z</time>
        <extensions>
          <ns3:TrackPointExtension>
            <ns3:hr>112</ns3:hr>
            <ns3:cad>51</ns3:cad>
          </ns3:TrackPointExtension>
        </extensions>
      </trkpt>
      <trkpt lat="37.74830125272274017333984375" lon="-107.712361849844455718994140625">
        <ele>3406.800048828125</ele>
        <time>2023-07-29T13:14:26.000Z</time>
        <extensions>
          <ns3:TrackPointExtension>
            <ns3:hr>112</ns3:hr>
            <ns3:cad>51</ns3:cad>
          </ns3:TrackPointExtension>
        </extensions>
      </trkpt>
      <trkpt lat="37.74830888025462627410888671875" lon="-107.7123616822063922882080078125">
        <ele>3406.800048828125</ele>
        <time>2023-07-29T13:14:27.000Z</time>
        <extensions>
          <ns3:TrackPointExtension>
            <ns3:hr>113</ns3:hr>
            <ns3:cad>51</ns3:cad>
          </ns3:TrackPointExtension>
        </extensions>
      </trkpt>
      <trkpt lat="37.74831273593008518218994140625" lon="-107.7123610116541385650634765625">
        <ele>3407.199951171875</ele>
        <time>2023-07-29T13:14:28.000Z</time>
        <extensions>
          <ns3:TrackPointExtension>
            <ns3:hr>113</ns3:hr>
            <ns3:cad>50</ns3:cad>
          </ns3:TrackPointExtension>
        </extensions>
      </trkpt>
      <trkpt lat="37.748318016529083251953125" lon="-107.71235740743577480316162109375">
        <ele>3407.39990234375</ele>
        <time>2023-07-29T13:14:29.000Z</time>
        <extensions>
          <ns3:TrackPointExtension>
            <ns3:hr>114</ns3:hr>
            <ns3:cad>50</ns3:cad>
          </ns3:TrackPointExtension>
        </extensions>
      </trkpt>
      <trkpt lat="37.74832614697515964508056640625" lon="-107.7123512886464595794677734375">
        <ele>3407.39990234375</ele>
        <time>2023-07-29T13:14:30.000Z</time>
        <extensions>
          <ns3:TrackPointExtension>
            <ns3:hr>115</ns3:hr>
            <ns3:cad>50</ns3:cad>
          </ns3:TrackPointExtension>
        </extensions>
      </trkpt>
      <trkpt lat="37.7483399771153926849365234375" lon="-107.71234584040939807891845703125">
        <ele>3407.800048828125</ele>
        <time>2023-07-29T13:14:31.000Z</time>
        <extensions>
          <ns3:TrackPointExtension>
            <ns3:hr>117</ns3:hr>
            <ns3:cad>50</ns3:cad>
          </ns3:TrackPointExtension>
        </extensions>
      </trkpt>
      <trkpt lat="37.74835447780787944793701171875" lon="-107.71234349347651004791259765625">
        <ele>3408</ele>
        <time>2023-07-29T13:14:32.000Z</time>
        <extensions>
          <ns3:TrackPointExtension>
            <ns3:hr>118</ns3:hr>
            <ns3:cad>50</ns3:cad>
          </ns3:TrackPointExtension>
        </extensions>
      </trkpt>
      <trkpt lat="37.7483634464442729949951171875" lon="-107.71234206855297088623046875">
        <ele>3408.199951171875</ele>
        <time>2023-07-29T13:14:33.000Z</time>
        <extensions>
          <ns3:TrackPointExtension>
            <ns3:hr>119</ns3:hr>
            <ns3:cad>50</ns3:cad>
          </ns3:TrackPointExtension>
        </extensions>
      </trkpt>
      <trkpt lat="37.74836822412908077239990234375" lon="-107.712337039411067962646484375">
        <ele>3408.39990234375</ele>
        <time>2023-07-29T13:14:34.000Z</time>
        <extensions>
          <ns3:TrackPointExtension>
            <ns3:hr>119</ns3:hr>
            <ns3:cad>50</ns3:cad>
          </ns3:TrackPointExtension>
        </extensions>
      </trkpt>
      <trkpt lat="37.74837207980453968048095703125" lon="-107.71233175881206989288330078125">
        <ele>3408.60009765625</ele>
        <time>2023-07-29T13:14:35.000Z</time>
        <extensions>
          <ns3:TrackPointExtension>
            <ns3:hr>119</ns3:hr>
            <ns3:cad>50</ns3:cad>
          </ns3:TrackPointExtension>
        </extensions>
      </trkpt>
      <trkpt lat="37.7483758516609668731689453125" lon="-107.71232672967016696929931640625">
        <ele>3408.800048828125</ele>
        <time>2023-07-29T13:14:36.000Z</time>
        <extensions>
          <ns3:TrackPointExtension>
            <ns3:hr>119</ns3:hr>
            <ns3:cad>50</ns3:cad>
          </ns3:TrackPointExtension>
        </extensions>
      </trkpt>
      <trkpt lat="37.74838046170771121978759765625" lon="-107.712321616709232330322265625">
        <ele>3409</ele>
        <time>2023-07-29T13:14:37.000Z</time>
        <extensions>
          <ns3:TrackPointExtension>
            <ns3:hr>119</ns3:hr>
            <ns3:cad>50</ns3:cad>
          </ns3:TrackPointExtension>
        </extensions>
      </trkpt>
      <trkpt lat="37.74838708341121673583984375" lon="-107.7123167552053928375244140625">
        <ele>3409.199951171875</ele>
        <time>2023-07-29T13:14:38.000Z</time>
        <extensions>
          <ns3:TrackPointExtension>
            <ns3:hr>119</ns3:hr>
            <ns3:cad>50</ns3:cad>
          </ns3:TrackPointExtension>
        </extensions>
      </trkpt>
      <trkpt lat="37.74839336983859539031982421875" lon="-107.7123137377202510833740234375">
        <ele>3409.199951171875</ele>
        <time>2023-07-29T13:14:39.000Z</time>
        <extensions>
          <ns3:TrackPointExtension>
            <ns3:hr>119</ns3:hr>
            <ns3:cad>50</ns3:cad>
          </ns3:TrackPointExtension>
        </extensions>
      </trkpt>
      <trkpt lat="37.7484046854078769683837890625" lon="-107.71230879239737987518310546875">
        <ele>3409.39990234375</ele>
        <time>2023-07-29T13:14:40.000Z</time>
        <extensions>
          <ns3:TrackPointExtension>
            <ns3:hr>119</ns3:hr>
            <ns3:cad>55</ns3:cad>
          </ns3:TrackPointExtension>
        </extensions>
      </trkpt>
      <trkpt lat="37.74841834791004657745361328125" lon="-107.71230191923677921295166015625">
        <ele>3409.39990234375</ele>
        <time>2023-07-29T13:14:41.000Z</time>
        <extensions>
          <ns3:TrackPointExtension>
            <ns3:hr>118</ns3:hr>
            <ns3:cad>55</ns3:cad>
          </ns3:TrackPointExtension>
        </extensions>
      </trkpt>
      <trkpt lat="37.74843561463057994842529296875" lon="-107.7122976444661617279052734375">
        <ele>3409.60009765625</ele>
        <time>2023-07-29T13:14:42.000Z</time>
        <extensions>
          <ns3:TrackPointExtension>
            <ns3:hr>118</ns3:hr>
            <ns3:cad>54</ns3:cad>
          </ns3:TrackPointExtension>
        </extensions>
      </trkpt>
      <trkpt lat="37.74844416417181491851806640625" lon="-107.7122906036674976348876953125">
        <ele>3409.60009765625</ele>
        <time>2023-07-29T13:14:43.000Z</time>
        <extensions>
          <ns3:TrackPointExtension>
            <ns3:hr>118</ns3:hr>
            <ns3:cad>54</ns3:cad>
          </ns3:TrackPointExtension>
        </extensions>
      </trkpt>
      <trkpt lat="37.7484512887895107269287109375" lon="-107.7122828923165798187255859375">
        <ele>3409.800048828125</ele>
        <time>2023-07-29T13:14:44.000Z</time>
        <extensions>
          <ns3:TrackPointExtension>
            <ns3:hr>118</ns3:hr>
            <ns3:cad>54</ns3:cad>
          </ns3:TrackPointExtension>
        </extensions>
      </trkpt>
      <trkpt lat="37.74845682084560394287109375" lon="-107.71227794699370861053466796875">
        <ele>3409.800048828125</ele>
        <time>2023-07-29T13:14:45.000Z</time>
        <extensions>
          <ns3:TrackPointExtension>
            <ns3:hr>118</ns3:hr>
            <ns3:cad>54</ns3:cad>
          </ns3:TrackPointExtension>
        </extensions>
      </trkpt>
      <trkpt lat="37.748471908271312713623046875" lon="-107.71225950680673122406005859375">
        <ele>3410</ele>
        <time>2023-07-29T13:14:46.000Z</time>
        <extensions>
          <ns3:TrackPointExtension>
            <ns3:hr>118</ns3:hr>
            <ns3:cad>53</ns3:cad>
          </ns3:TrackPointExtension>
        </extensions>
      </trkpt>
      <trkpt lat="37.7484864927828311920166015625" lon="-107.71224257536232471466064453125">
        <ele>3410.199951171875</ele>
        <time>2023-07-29T13:14:47.000Z</time>
        <extensions>
          <ns3:TrackPointExtension>
            <ns3:hr>118</ns3:hr>
            <ns3:cad>53</ns3:cad>
          </ns3:TrackPointExtension>
        </extensions>
      </trkpt>
      <trkpt lat="37.74849076755344867706298828125" lon="-107.71223452873528003692626953125">
        <ele>3410.199951171875</ele>
        <time>2023-07-29T13:14:48.000Z</time>
        <extensions>
          <ns3:TrackPointExtension>
            <ns3:hr>118</ns3:hr>
            <ns3:cad>53</ns3:cad>
          </ns3:TrackPointExtension>
        </extensions>
      </trkpt>
      <trkpt lat="37.74849814362823963165283203125" lon="-107.712227739393711090087890625">
        <ele>3410.199951171875</ele>
        <time>2023-07-29T13:14:49.000Z</time>
        <extensions>
          <ns3:TrackPointExtension>
            <ns3:hr>118</ns3:hr>
            <ns3:cad>53</ns3:cad>
          </ns3:TrackPointExtension>
        </extensions>
      </trkpt>
      <trkpt lat="37.74850753135979175567626953125" lon="-107.7122191898524761199951171875">
        <ele>3410.39990234375</ele>
        <time>2023-07-29T13:14:50.000Z</time>
        <extensions>
          <ns3:TrackPointExtension>
            <ns3:hr>118</ns3:hr>
            <ns3:cad>54</ns3:cad>
          </ns3:TrackPointExtension>
        </extensions>
      </trkpt>
      <trkpt lat="37.74851381778717041015625" lon="-107.712214998900890350341796875">
        <ele>3410.39990234375</ele>
        <time>2023-07-29T13:14:51.000Z</time>
        <extensions>
          <ns3:TrackPointExtension>
            <ns3:hr>117</ns3:hr>
            <ns3:cad>55</ns3:cad>
          </ns3:TrackPointExtension>
        </extensions>
      </trkpt>
      <trkpt lat="37.74851859547197818756103515625" lon="-107.71221273578703403472900390625">
        <ele>3410.39990234375</ele>
        <time>2023-07-29T13:14:52.000Z</time>
        <extensions>
          <ns3:TrackPointExtension>
            <ns3:hr>117</ns3:hr>
            <ns3:cad>55</ns3:cad>
          </ns3:TrackPointExtension>
        </extensions>
      </trkpt>
      <trkpt lat="37.74851876311004161834716796875" lon="-107.71221390925347805023193359375">
        <ele>3410.39990234375</ele>
        <time>2023-07-29T13:14:53.000Z</time>
        <extensions>
          <ns3:TrackPointExtension>
            <ns3:hr>117</ns3:hr>
            <ns3:cad>55</ns3:cad>
          </ns3:TrackPointExtension>
        </extensions>
      </trkpt>
      <trkpt lat="37.74852513335645198822021484375" lon="-107.712214328348636627197265625">
        <ele>3410.60009765625</ele>
        <time>2023-07-29T13:14:54.000Z</time>
        <extensions>
          <ns3:TrackPointExtension>
            <ns3:hr>117</ns3:hr>
            <ns3:cad>55</ns3:cad>
          </ns3:TrackPointExtension>
        </extensions>
      </trkpt>
      <trkpt lat="37.7485371194779872894287109375" lon="-107.71221709437668323516845703125">
        <ele>3410.60009765625</ele>
        <time>2023-07-29T13:14:55.000Z</time>
        <extensions>
          <ns3:TrackPointExtension>
            <ns3:hr>117</ns3:hr>
            <ns3:cad>55</ns3:cad>
          </ns3:TrackPointExtension>
        </extensions>
      </trkpt>
      <trkpt lat="37.74855329655110836029052734375" lon="-107.7122148312628269195556640625">
        <ele>3410.800048828125</ele>
        <time>2023-07-29T13:14:56.000Z</time>
        <extensions>
          <ns3:TrackPointExtension>
            <ns3:hr>116</ns3:hr>
            <ns3:cad>53</ns3:cad>
          </ns3:TrackPointExtension>
        </extensions>
      </trkpt>
      <trkpt lat="37.7485763467848300933837890625" lon="-107.712209634482860565185546875">
        <ele>3411</ele>
        <time>2023-07-29T13:14:57.000Z</time>
        <extensions>
          <ns3:TrackPointExtension>
            <ns3:hr>116</ns3:hr>
            <ns3:cad>53</ns3:cad>
          </ns3:TrackPointExtension>
        </extensions>
      </trkpt>
      <trkpt lat="37.74859420023858547210693359375" lon="-107.71221525035798549652099609375">
        <ele>3411</ele>
        <time>2023-07-29T13:14:58.000Z</time>
        <extensions>
          <ns3:TrackPointExtension>
            <ns3:hr>116</ns3:hr>
            <ns3:cad>53</ns3:cad>
          </ns3:TrackPointExtension>
        </extensions>
      </trkpt>
      <trkpt lat="37.74861113168299198150634765625" lon="-107.71222296170890331268310546875">
        <ele>3411.199951171875</ele>
        <time>2023-07-29T13:14:59.000Z</time>
        <extensions>
          <ns3:TrackPointExtension>
            <ns3:hr>116</ns3:hr>
            <ns3:cad>53</ns3:cad>
          </ns3:TrackPointExtension>
        </extensions>
      </trkpt>
      <trkpt lat="37.7486296556890010833740234375" lon="-107.712235786020755767822265625">
        <ele>3411.199951171875</ele>
        <time>2023-07-29T13:15:00.000Z</time>
        <extensions>
          <ns3:TrackPointExtension>
            <ns3:hr>116</ns3:hr>
            <ns3:cad>53</ns3:cad>
          </ns3:TrackPointExtension>
        </extensions>
      </trkpt>
      <trkpt lat="37.74863518774509429931640625" lon="-107.71224961616098880767822265625">
        <ele>3411.199951171875</ele>
        <time>2023-07-29T13:15:01.000Z</time>
        <extensions>
          <ns3:TrackPointExtension>
            <ns3:hr>116</ns3:hr>
            <ns3:cad>52</ns3:cad>
          </ns3:TrackPointExtension>
        </extensions>
      </trkpt>
      <trkpt lat="37.7486410550773143768310546875" lon="-107.71226570941507816314697265625">
        <ele>3411.39990234375</ele>
        <time>2023-07-29T13:15:02.000Z</time>
        <extensions>
          <ns3:TrackPointExtension>
            <ns3:hr>115</ns3:hr>
            <ns3:cad>52</ns3:cad>
          </ns3:TrackPointExtension>
        </extensions>
      </trkpt>
      <trkpt lat="37.74863745085895061492919921875" lon="-107.71228750236332416534423828125">
        <ele>3411.39990234375</ele>
        <time>2023-07-29T13:15:03.000Z</time>
        <extensions>
          <ns3:TrackPointExtension>
            <ns3:hr>115</ns3:hr>
            <ns3:cad>54</ns3:cad>
          </ns3:TrackPointExtension>
        </extensions>
      </trkpt>
      <trkpt lat="37.74863828904926776885986328125" lon="-107.7123003266751766204833984375">
        <ele>3411.39990234375</ele>
        <time>2023-07-29T13:15:04.000Z</time>
        <extensions>
          <ns3:TrackPointExtension>
            <ns3:hr>115</ns3:hr>
            <ns3:cad>55</ns3:cad>
          </ns3:TrackPointExtension>
        </extensions>
      </trkpt>
      <trkpt lat="37.7486390434205532073974609375" lon="-107.71231801249086856842041015625">
        <ele>3411.39990234375</ele>
        <time>2023-07-29T13:15:05.000Z</time>
        <extensions>
          <ns3:TrackPointExtension>
            <ns3:hr>115</ns3:hr>
            <ns3:cad>56</ns3:cad>
          </ns3:TrackPointExtension>
        </extensions>
      </trkpt>
      <trkpt lat="37.74864013306796550750732421875" lon="-107.7123294956982135772705078125">
        <ele>3411.39990234375</ele>
        <time>2023-07-29T13:15:06.000Z</time>
        <extensions>
          <ns3:TrackPointExtension>
            <ns3:hr>116</ns3:hr>
            <ns3:cad>56</ns3:cad>
          </ns3:TrackPointExtension>
        </extensions>
      </trkpt>
      <trkpt lat="37.74864046834409236907958984375" lon="-107.71233678795397281646728515625">
        <ele>3411.60009765625</ele>
        <time>2023-07-29T13:15:07.000Z</time>
        <extensions>
          <ns3:TrackPointExtension>
            <ns3:hr>116</ns3:hr>
            <ns3:cad>56</ns3:cad>
          </ns3:TrackPointExtension>
        </extensions>
      </trkpt>
      <trkpt lat="37.74864080362021923065185546875" lon="-107.7123576588928699493408203125">
        <ele>3411.800048828125</ele>
        <time>2023-07-29T13:15:08.000Z</time>
        <extensions>
          <ns3:TrackPointExtension>
            <ns3:hr>116</ns3:hr>
            <ns3:cad>0</ns3:cad>
          </ns3:TrackPointExtension>
        </extensions>
      </trkpt>
      <trkpt lat="37.7486454136669635772705078125" lon="-107.7123630233108997344970703125">
        <ele>3411.800048828125</ele>
        <time>2023-07-29T13:15:09.000Z</time>
        <extensions>
          <ns3:TrackPointExtension>
            <ns3:hr>116</ns3:hr>
            <ns3:cad>0</ns3:cad>
          </ns3:TrackPointExtension>
        </extensions>
      </trkpt>
      <trkpt lat="37.74864801205694675445556640625" lon="-107.712361514568328857421875">
        <ele>3412</ele>
        <time>2023-07-29T13:15:10.000Z</time>
        <extensions>
          <ns3:TrackPointExtension>
            <ns3:hr>117</ns3:hr>
            <ns3:cad>0</ns3:cad>
          </ns3:TrackPointExtension>
        </extensions>
      </trkpt>
      <trkpt lat="37.74864885024726390838623046875" lon="-107.712365202605724334716796875">
        <ele>3412.199951171875</ele>
        <time>2023-07-29T13:15:11.000Z</time>
        <extensions>
          <ns3:TrackPointExtension>
            <ns3:hr>116</ns3:hr>
            <ns3:cad>0</ns3:cad>
          </ns3:TrackPointExtension>
        </extensions>
      </trkpt>
      <trkpt lat="37.74864952079951763153076171875" lon="-107.71236813627183437347412109375">
        <ele>3412.199951171875</ele>
        <time>2023-07-29T13:15:12.000Z</time>
        <extensions>
          <ns3:TrackPointExtension>
            <ns3:hr>116</ns3:hr>
            <ns3:cad>0</ns3:cad>
          </ns3:TrackPointExtension>
        </extensions>
      </trkpt>
      <trkpt lat="37.7486517839133739471435546875" lon="-107.71236662752926349639892578125">
        <ele>3412.39990234375</ele>
        <time>2023-07-29T13:15:13.000Z</time>
        <extensions>
          <ns3:TrackPointExtension>
            <ns3:hr>117</ns3:hr>
            <ns3:cad>0</ns3:cad>
          </ns3:TrackPointExtension>
        </extensions>
      </trkpt>
      <trkpt lat="37.7486527897417545318603515625" lon="-107.71236042492091655731201171875">
        <ele>3412.39990234375</ele>
        <time>2023-07-29T13:15:14.000Z</time>
        <extensions>
          <ns3:TrackPointExtension>
            <ns3:hr>117</ns3:hr>
            <ns3:cad>0</ns3:cad>
          </ns3:TrackPointExtension>
        </extensions>
      </trkpt>
      <trkpt lat="37.74865471757948398590087890625" lon="-107.71236310712993144989013671875">
        <ele>3412.39990234375</ele>
        <time>2023-07-29T13:15:15.000Z</time>
        <extensions>
          <ns3:TrackPointExtension>
            <ns3:hr>117</ns3:hr>
            <ns3:cad>0</ns3:cad>
          </ns3:TrackPointExtension>
        </extensions>
      </trkpt>
      <trkpt lat="37.748657651245594024658203125" lon="-107.7123680524528026580810546875">
        <ele>3412.39990234375</ele>
        <time>2023-07-29T13:15:16.000Z</time>
        <extensions>
          <ns3:TrackPointExtension>
            <ns3:hr>117</ns3:hr>
            <ns3:cad>0</ns3:cad>
          </ns3:TrackPointExtension>
        </extensions>
      </trkpt>
      <trkpt lat="37.74865890853106975555419921875" lon="-107.712370567023754119873046875">
        <ele>3412.60009765625</ele>
        <time>2023-07-29T13:15:17.000Z</time>
        <extensions>
          <ns3:TrackPointExtension>
            <ns3:hr>117</ns3:hr>
            <ns3:cad>0</ns3:cad>
          </ns3:TrackPointExtension>
        </extensions>
      </trkpt>
      <trkpt lat="37.74865874089300632476806640625" lon="-107.71237023174762725830078125">
        <ele>3412.39990234375</ele>
        <time>2023-07-29T13:15:18.000Z</time>
        <extensions>
          <ns3:TrackPointExtension>
            <ns3:hr>117</ns3:hr>
            <ns3:cad>0</ns3:cad>
          </ns3:TrackPointExtension>
        </extensions>
      </trkpt>
      <trkpt lat="37.748659662902355194091796875" lon="-107.71237299777567386627197265625">
        <ele>3412.39990234375</ele>
        <time>2023-07-29T13:15:19.000Z</time>
        <extensions>
          <ns3:TrackPointExtension>
            <ns3:hr>117</ns3:hr>
            <ns3:cad>0</ns3:cad>
          </ns3:TrackPointExtension>
        </extensions>
      </trkpt>
      <trkpt lat="37.7486598305404186248779296875" lon="-107.71237366832792758941650390625">
        <ele>3412.39990234375</ele>
        <time>2023-07-29T13:15:20.000Z</time>
        <extensions>
          <ns3:TrackPointExtension>
            <ns3:hr>118</ns3:hr>
            <ns3:cad>0</ns3:cad>
          </ns3:TrackPointExtension>
        </extensions>
      </trkpt>
      <trkpt lat="37.74866125546395778656005859375" lon="-107.71237081848084926605224609375">
        <ele>3412.39990234375</ele>
        <time>2023-07-29T13:15:21.000Z</time>
        <extensions>
          <ns3:TrackPointExtension>
            <ns3:hr>118</ns3:hr>
            <ns3:cad>0</ns3:cad>
          </ns3:TrackPointExtension>
        </extensions>
      </trkpt>
      <trkpt lat="37.748661674559116363525390625" lon="-107.71236729808151721954345703125">
        <ele>3412.39990234375</ele>
        <time>2023-07-29T13:15:22.000Z</time>
        <extensions>
          <ns3:TrackPointExtension>
            <ns3:hr>119</ns3:hr>
            <ns3:cad>0</ns3:cad>
          </ns3:TrackPointExtension>
        </extensions>
      </trkpt>
      <trkpt lat="37.7486598305404186248779296875" lon="-107.7123680524528026580810546875">
        <ele>3412.60009765625</ele>
        <time>2023-07-29T13:15:23.000Z</time>
        <extensions>
          <ns3:TrackPointExtension>
            <ns3:hr>120</ns3:hr>
            <ns3:cad>0</ns3:cad>
          </ns3:TrackPointExtension>
        </extensions>
      </trkpt>
      <trkpt lat="37.7486594952642917633056640625" lon="-107.71236863918602466583251953125">
        <ele>3412.60009765625</ele>
        <time>2023-07-29T13:15:24.000Z</time>
        <extensions>
          <ns3:TrackPointExtension>
            <ns3:hr>120</ns3:hr>
            <ns3:cad>0</ns3:cad>
          </ns3:TrackPointExtension>
        </extensions>
      </trkpt>
      <trkpt lat="37.74865739978849887847900390625" lon="-107.71236830390989780426025390625">
        <ele>3412.60009765625</ele>
        <time>2023-07-29T13:15:25.000Z</time>
        <extensions>
          <ns3:TrackPointExtension>
            <ns3:hr>121</ns3:hr>
            <ns3:cad>0</ns3:cad>
          </ns3:TrackPointExtension>
        </extensions>
      </trkpt>
      <trkpt lat="37.7486571483314037322998046875" lon="-107.7123693935573101043701171875">
        <ele>3412.60009765625</ele>
        <time>2023-07-29T13:15:26.000Z</time>
        <extensions>
          <ns3:TrackPointExtension>
            <ns3:hr>120</ns3:hr>
            <ns3:cad>0</ns3:cad>
          </ns3:TrackPointExtension>
        </extensions>
      </trkpt>
      <trkpt lat="37.74866175837814807891845703125" lon="-107.7123727463185787200927734375">
        <ele>3412.60009765625</ele>
        <time>2023-07-29T13:15:27.000Z</time>
        <extensions>
          <ns3:TrackPointExtension>
            <ns3:hr>120</ns3:hr>
            <ns3:cad>0</ns3:cad>
          </ns3:TrackPointExtension>
        </extensions>
      </trkpt>
      <trkpt lat="37.7486631833016872406005859375" lon="-107.71237291395664215087890625">
        <ele>3412.60009765625</ele>
        <time>2023-07-29T13:15:28.000Z</time>
        <extensions>
          <ns3:TrackPointExtension>
            <ns3:hr>120</ns3:hr>
            <ns3:cad>0</ns3:cad>
          </ns3:TrackPointExtension>
        </extensions>
      </trkpt>
      <trkpt lat="37.74866913445293903350830078125" lon="-107.71237961947917938232421875">
        <ele>3412.60009765625</ele>
        <time>2023-07-29T13:15:29.000Z</time>
        <extensions>
          <ns3:TrackPointExtension>
            <ns3:hr>120</ns3:hr>
            <ns3:cad>0</ns3:cad>
          </ns3:TrackPointExtension>
        </extensions>
      </trkpt>
      <trkpt lat="37.748674415051937103271484375" lon="-107.71238070912659168243408203125">
        <ele>3412.60009765625</ele>
        <time>2023-07-29T13:15:30.000Z</time>
        <extensions>
          <ns3:TrackPointExtension>
            <ns3:hr>119</ns3:hr>
            <ns3:cad>0</ns3:cad>
          </ns3:TrackPointExtension>
        </extensions>
      </trkpt>
      <trkpt lat="37.748683132231235504150390625" lon="-107.7123844809830188751220703125">
        <ele>3412.60009765625</ele>
        <time>2023-07-29T13:15:31.000Z</time>
        <extensions>
          <ns3:TrackPointExtension>
            <ns3:hr>119</ns3:hr>
            <ns3:cad>0</ns3:cad>
          </ns3:TrackPointExtension>
        </extensions>
      </trkpt>
      <trkpt lat="37.7486936934292316436767578125" lon="-107.7123838104307651519775390625">
        <ele>3413</ele>
        <time>2023-07-29T13:15:32.000Z</time>
        <extensions>
          <ns3:TrackPointExtension>
            <ns3:hr>119</ns3:hr>
            <ns3:cad>0</ns3:cad>
          </ns3:TrackPointExtension>
        </extensions>
      </trkpt>
      <trkpt lat="37.748704254627227783203125" lon="-107.71238557063043117523193359375">
        <ele>3413.199951171875</ele>
        <time>2023-07-29T13:15:33.000Z</time>
        <extensions>
          <ns3:TrackPointExtension>
            <ns3:hr>119</ns3:hr>
            <ns3:cad>0</ns3:cad>
          </ns3:TrackPointExtension>
        </extensions>
      </trkpt>
      <trkpt lat="37.74871204979717731475830078125" lon="-107.7123868279159069061279296875">
        <ele>3413.199951171875</ele>
        <time>2023-07-29T13:15:34.000Z</time>
        <extensions>
          <ns3:TrackPointExtension>
            <ns3:hr>119</ns3:hr>
            <ns3:cad>48</ns3:cad>
          </ns3:TrackPointExtension>
        </extensions>
      </trkpt>
      <trkpt lat="37.74871774949133396148681640625" lon="-107.71238305605947971343994140625">
        <ele>3413.199951171875</ele>
        <time>2023-07-29T13:15:35.000Z</time>
        <extensions>
          <ns3:TrackPointExtension>
            <ns3:hr>118</ns3:hr>
            <ns3:cad>49</ns3:cad>
          </ns3:TrackPointExtension>
        </extensions>
      </trkpt>
      <trkpt lat="37.74872579611837863922119140625" lon="-107.71237718872725963592529296875">
        <ele>3413.39990234375</ele>
        <time>2023-07-29T13:15:36.000Z</time>
        <extensions>
          <ns3:TrackPointExtension>
            <ns3:hr>118</ns3:hr>
            <ns3:cad>49</ns3:cad>
          </ns3:TrackPointExtension>
        </extensions>
      </trkpt>
      <trkpt lat="37.74873266927897930145263671875" lon="-107.71237031556665897369384765625">
        <ele>3413.60009765625</ele>
        <time>2023-07-29T13:15:37.000Z</time>
        <extensions>
          <ns3:TrackPointExtension>
            <ns3:hr>118</ns3:hr>
            <ns3:cad>53</ns3:cad>
          </ns3:TrackPointExtension>
        </extensions>
      </trkpt>
      <trkpt lat="37.74873979389667510986328125" lon="-107.7123623527586460113525390625">
        <ele>3413.800048828125</ele>
        <time>2023-07-29T13:15:38.000Z</time>
        <extensions>
          <ns3:TrackPointExtension>
            <ns3:hr>117</ns3:hr>
            <ns3:cad>53</ns3:cad>
          </ns3:TrackPointExtension>
        </extensions>
      </trkpt>
      <trkpt lat="37.74874985218048095703125" lon="-107.7123533003032207489013671875">
        <ele>3414</ele>
        <time>2023-07-29T13:15:39.000Z</time>
        <extensions>
          <ns3:TrackPointExtension>
            <ns3:hr>117</ns3:hr>
            <ns3:cad>53</ns3:cad>
          </ns3:TrackPointExtension>
        </extensions>
      </trkpt>
      <trkpt lat="37.7487619221210479736328125" lon="-107.71234265528619289398193359375">
        <ele>3414.199951171875</ele>
        <time>2023-07-29T13:15:40.000Z</time>
        <extensions>
          <ns3:TrackPointExtension>
            <ns3:hr>117</ns3:hr>
            <ns3:cad>53</ns3:cad>
          </ns3:TrackPointExtension>
        </extensions>
      </trkpt>
      <trkpt lat="37.74877591989934444427490234375" lon="-107.71233662031590938568115234375">
        <ele>3414.39990234375</ele>
        <time>2023-07-29T13:15:41.000Z</time>
        <extensions>
          <ns3:TrackPointExtension>
            <ns3:hr>116</ns3:hr>
            <ns3:cad>53</ns3:cad>
          </ns3:TrackPointExtension>
        </extensions>
      </trkpt>
      <trkpt lat="37.74878748692572116851806640625" lon="-107.712330333888530731201171875">
        <ele>3414.60009765625</ele>
        <time>2023-07-29T13:15:42.000Z</time>
        <extensions>
          <ns3:TrackPointExtension>
            <ns3:hr>116</ns3:hr>
            <ns3:cad>53</ns3:cad>
          </ns3:TrackPointExtension>
        </extensions>
      </trkpt>
      <trkpt lat="37.748789750039577484130859375" lon="-107.71232890896499156951904296875">
        <ele>3414.60009765625</ele>
        <time>2023-07-29T13:15:43.000Z</time>
        <extensions>
          <ns3:TrackPointExtension>
            <ns3:hr>116</ns3:hr>
            <ns3:cad>53</ns3:cad>
          </ns3:TrackPointExtension>
        </extensions>
      </trkpt>
      <trkpt lat="37.7487889118492603302001953125" lon="-107.71233108825981616973876953125">
        <ele>3414.800048828125</ele>
        <time>2023-07-29T13:15:44.000Z</time>
        <extensions>
          <ns3:TrackPointExtension>
            <ns3:hr>115</ns3:hr>
            <ns3:cad>53</ns3:cad>
          </ns3:TrackPointExtension>
        </extensions>
      </trkpt>
      <trkpt lat="37.74878480471670627593994140625" lon="-107.7123318426311016082763671875">
        <ele>3415</ele>
        <time>2023-07-29T13:15:45.000Z</time>
        <extensions>
          <ns3:TrackPointExtension>
            <ns3:hr>115</ns3:hr>
            <ns3:cad>56</ns3:cad>
          </ns3:TrackPointExtension>
        </extensions>
      </trkpt>
      <trkpt lat="37.74878564290702342987060546875" lon="-107.71233041770756244659423828125">
        <ele>3415.199951171875</ele>
        <time>2023-07-29T13:15:46.000Z</time>
        <extensions>
          <ns3:TrackPointExtension>
            <ns3:hr>114</ns3:hr>
            <ns3:cad>56</ns3:cad>
          </ns3:TrackPointExtension>
        </extensions>
      </trkpt>
      <trkpt lat="37.748789750039577484130859375" lon="-107.71232186816632747650146484375">
        <ele>3415.39990234375</ele>
        <time>2023-07-29T13:15:47.000Z</time>
        <extensions>
          <ns3:TrackPointExtension>
            <ns3:hr>114</ns3:hr>
            <ns3:cad>56</ns3:cad>
          </ns3:TrackPointExtension>
        </extensions>
      </trkpt>
      <trkpt lat="37.74880425073206424713134765625" lon="-107.712310887873172760009765625">
        <ele>3415.60009765625</ele>
        <time>2023-07-29T13:15:48.000Z</time>
        <extensions>
          <ns3:TrackPointExtension>
            <ns3:hr>113</ns3:hr>
            <ns3:cad>53</ns3:cad>
          </ns3:TrackPointExtension>
        </extensions>
      </trkpt>
      <trkpt lat="37.7488182485103607177734375" lon="-107.71230049431324005126953125">
        <ele>3415.800048828125</ele>
        <time>2023-07-29T13:15:49.000Z</time>
        <extensions>
          <ns3:TrackPointExtension>
            <ns3:hr>112</ns3:hr>
            <ns3:cad>53</ns3:cad>
          </ns3:TrackPointExtension>
        </extensions>
      </trkpt>
      <trkpt lat="37.748823948204517364501953125" lon="-107.71228767000138759613037109375">
        <ele>3416</ele>
        <time>2023-07-29T13:15:50.000Z</time>
        <extensions>
          <ns3:TrackPointExtension>
            <ns3:hr>112</ns3:hr>
            <ns3:cad>53</ns3:cad>
          </ns3:TrackPointExtension>
        </extensions>
      </trkpt>
      <trkpt lat="37.7488284744322299957275390625" lon="-107.712280042469501495361328125">
        <ele>3416.199951171875</ele>
        <time>2023-07-29T13:15:51.000Z</time>
        <extensions>
          <ns3:TrackPointExtension>
            <ns3:hr>111</ns3:hr>
            <ns3:cad>52</ns3:cad>
          </ns3:TrackPointExtension>
        </extensions>
      </trkpt>
      <trkpt lat="37.74883878417313098907470703125" lon="-107.712269313633441925048828125">
        <ele>3416.39990234375</ele>
        <time>2023-07-29T13:15:52.000Z</time>
        <extensions>
          <ns3:TrackPointExtension>
            <ns3:hr>111</ns3:hr>
            <ns3:cad>52</ns3:cad>
          </ns3:TrackPointExtension>
        </extensions>
      </trkpt>
      <trkpt lat="37.74885035119950771331787109375" lon="-107.71225732751190662384033203125">
        <ele>3416.39990234375</ele>
        <time>2023-07-29T13:15:53.000Z</time>
        <extensions>
          <ns3:TrackPointExtension>
            <ns3:hr>110</ns3:hr>
            <ns3:cad>52</ns3:cad>
          </ns3:TrackPointExtension>
        </extensions>
      </trkpt>
      <trkpt lat="37.74886108003556728363037109375" lon="-107.71224911324679851531982421875">
        <ele>3416.800048828125</ele>
        <time>2023-07-29T13:15:54.000Z</time>
        <extensions>
          <ns3:TrackPointExtension>
            <ns3:hr>110</ns3:hr>
            <ns3:cad>54</ns3:cad>
          </ns3:TrackPointExtension>
        </extensions>
      </trkpt>
      <trkpt lat="37.74887097068130970001220703125" lon="-107.7122453413903713226318359375">
        <ele>3417</ele>
        <time>2023-07-29T13:15:55.000Z</time>
        <extensions>
          <ns3:TrackPointExtension>
            <ns3:hr>110</ns3:hr>
            <ns3:cad>54</ns3:cad>
          </ns3:TrackPointExtension>
        </extensions>
      </trkpt>
      <trkpt lat="37.748881280422210693359375" lon="-107.71224190481007099151611328125">
        <ele>3417</ele>
        <time>2023-07-29T13:15:56.000Z</time>
        <extensions>
          <ns3:TrackPointExtension>
            <ns3:hr>110</ns3:hr>
            <ns3:cad>53</ns3:cad>
          </ns3:TrackPointExtension>
        </extensions>
      </trkpt>
      <trkpt lat="37.74889108724892139434814453125" lon="-107.71224106661975383758544921875">
        <ele>3417.199951171875</ele>
        <time>2023-07-29T13:15:57.000Z</time>
        <extensions>
          <ns3:TrackPointExtension>
            <ns3:hr>109</ns3:hr>
            <ns3:cad>52</ns3:cad>
          </ns3:TrackPointExtension>
        </extensions>
      </trkpt>
      <trkpt lat="37.748899720609188079833984375" lon="-107.712243832647800445556640625">
        <ele>3417.39990234375</ele>
        <time>2023-07-29T13:15:58.000Z</time>
        <extensions>
          <ns3:TrackPointExtension>
            <ns3:hr>107</ns3:hr>
            <ns3:cad>51</ns3:cad>
          </ns3:TrackPointExtension>
        </extensions>
      </trkpt>
      <trkpt lat="37.74890466593205928802490234375" lon="-107.7122507058084011077880859375">
        <ele>3417.60009765625</ele>
        <time>2023-07-29T13:15:59.000Z</time>
        <extensions>
          <ns3:TrackPointExtension>
            <ns3:hr>106</ns3:hr>
            <ns3:cad>51</ns3:cad>
          </ns3:TrackPointExtension>
        </extensions>
      </trkpt>
      <trkpt lat="37.7489176578819751739501953125" lon="-107.71225447766482830047607421875">
        <ele>3417.60009765625</ele>
        <time>2023-07-29T13:16:00.000Z</time>
        <extensions>
          <ns3:TrackPointExtension>
            <ns3:hr>104</ns3:hr>
            <ns3:cad>51</ns3:cad>
          </ns3:TrackPointExtension>
        </extensions>
      </trkpt>
      <trkpt lat="37.748933248221874237060546875" lon="-107.7122577466070652008056640625">
        <ele>3417.800048828125</ele>
        <time>2023-07-29T13:16:01.000Z</time>
        <extensions>
          <ns3:TrackPointExtension>
            <ns3:hr>104</ns3:hr>
            <ns3:cad>51</ns3:cad>
          </ns3:TrackPointExtension>
        </extensions>
      </trkpt>
      <trkpt lat="37.748949341475963592529296875" lon="-107.71225917153060436248779296875">
        <ele>3418</ele>
        <time>2023-07-29T13:16:02.000Z</time>
        <extensions>
          <ns3:TrackPointExtension>
            <ns3:hr>104</ns3:hr>
            <ns3:cad>50</ns3:cad>
          </ns3:TrackPointExtension>
        </extensions>
      </trkpt>
      <trkpt lat="37.7489585615694522857666015625" lon="-107.71226353012025356292724609375">
        <ele>3418.199951171875</ele>
        <time>2023-07-29T13:16:03.000Z</time>
        <extensions>
          <ns3:TrackPointExtension>
            <ns3:hr>104</ns3:hr>
            <ns3:cad>50</ns3:cad>
          </ns3:TrackPointExtension>
        </extensions>
      </trkpt>
      <trkpt lat="37.74896602146327495574951171875" lon="-107.71226755343377590179443359375">
        <ele>3418.199951171875</ele>
        <time>2023-07-29T13:16:04.000Z</time>
        <extensions>
          <ns3:TrackPointExtension>
            <ns3:hr>104</ns3:hr>
            <ns3:cad>50</ns3:cad>
          </ns3:TrackPointExtension>
        </extensions>
      </trkpt>
      <trkpt lat="37.7489733137190341949462890625" lon="-107.7122711576521396636962890625">
        <ele>3418.199951171875</ele>
        <time>2023-07-29T13:16:05.000Z</time>
        <extensions>
          <ns3:TrackPointExtension>
            <ns3:hr>105</ns3:hr>
            <ns3:cad>50</ns3:cad>
          </ns3:TrackPointExtension>
        </extensions>
      </trkpt>
      <trkpt lat="37.74898177944123744964599609375" lon="-107.71227342076599597930908203125">
        <ele>3418.39990234375</ele>
        <time>2023-07-29T13:16:06.000Z</time>
        <extensions>
          <ns3:TrackPointExtension>
            <ns3:hr>105</ns3:hr>
            <ns3:cad>53</ns3:cad>
          </ns3:TrackPointExtension>
        </extensions>
      </trkpt>
      <trkpt lat="37.7489894069731235504150390625" lon="-107.71227342076599597930908203125">
        <ele>3418.60009765625</ele>
        <time>2023-07-29T13:16:07.000Z</time>
        <extensions>
          <ns3:TrackPointExtension>
            <ns3:hr>105</ns3:hr>
            <ns3:cad>53</ns3:cad>
          </ns3:TrackPointExtension>
        </extensions>
      </trkpt>
      <trkpt lat="37.7490011416375637054443359375" lon="-107.71227367222309112548828125">
        <ele>3418.60009765625</ele>
        <time>2023-07-29T13:16:08.000Z</time>
        <extensions>
          <ns3:TrackPointExtension>
            <ns3:hr>105</ns3:hr>
            <ns3:cad>53</ns3:cad>
          </ns3:TrackPointExtension>
        </extensions>
      </trkpt>
      <trkpt lat="37.7490142174065113067626953125" lon="-107.71227442659437656402587890625">
        <ele>3418.800048828125</ele>
        <time>2023-07-29T13:16:09.000Z</time>
        <extensions>
          <ns3:TrackPointExtension>
            <ns3:hr>106</ns3:hr>
            <ns3:cad>53</ns3:cad>
          </ns3:TrackPointExtension>
        </extensions>
      </trkpt>
      <trkpt lat="37.74902570061385631561279296875" lon="-107.71227409131824970245361328125">
        <ele>3418.800048828125</ele>
        <time>2023-07-29T13:16:10.000Z</time>
        <extensions>
          <ns3:TrackPointExtension>
            <ns3:hr>106</ns3:hr>
            <ns3:cad>53</ns3:cad>
          </ns3:TrackPointExtension>
        </extensions>
      </trkpt>
      <trkpt lat="37.74903483688831329345703125" lon="-107.7122728340327739715576171875">
        <ele>3419</ele>
        <time>2023-07-29T13:16:11.000Z</time>
        <extensions>
          <ns3:TrackPointExtension>
            <ns3:hr>106</ns3:hr>
            <ns3:cad>53</ns3:cad>
          </ns3:TrackPointExtension>
        </extensions>
      </trkpt>
      <trkpt lat="37.74903886020183563232421875" lon="-107.7122716605663299560546875">
        <ele>3419.199951171875</ele>
        <time>2023-07-29T13:16:12.000Z</time>
        <extensions>
          <ns3:TrackPointExtension>
            <ns3:hr>106</ns3:hr>
            <ns3:cad>53</ns3:cad>
          </ns3:TrackPointExtension>
        </extensions>
      </trkpt>
      <trkpt lat="37.74903877638280391693115234375" lon="-107.71226587705314159393310546875">
        <ele>3419.39990234375</ele>
        <time>2023-07-29T13:16:13.000Z</time>
        <extensions>
          <ns3:TrackPointExtension>
            <ns3:hr>106</ns3:hr>
            <ns3:cad>52</ns3:cad>
          </ns3:TrackPointExtension>
        </extensions>
      </trkpt>
      <trkpt lat="37.749049253761768341064453125" lon="-107.71226202137768268585205078125">
        <ele>3419.60009765625</ele>
        <time>2023-07-29T13:16:14.000Z</time>
        <extensions>
          <ns3:TrackPointExtension>
            <ns3:hr>107</ns3:hr>
            <ns3:cad>52</ns3:cad>
          </ns3:TrackPointExtension>
        </extensions>
      </trkpt>
      <trkpt lat="37.74906191043555736541748046875" lon="-107.7122577466070652008056640625">
        <ele>3419.800048828125</ele>
        <time>2023-07-29T13:16:15.000Z</time>
        <extensions>
          <ns3:TrackPointExtension>
            <ns3:hr>107</ns3:hr>
            <ns3:cad>52</ns3:cad>
          </ns3:TrackPointExtension>
        </extensions>
      </trkpt>
      <trkpt lat="37.749074399471282958984375" lon="-107.7122570760548114776611328125">
        <ele>3420</ele>
        <time>2023-07-29T13:16:16.000Z</time>
        <extensions>
          <ns3:TrackPointExtension>
            <ns3:hr>107</ns3:hr>
            <ns3:cad>53</ns3:cad>
          </ns3:TrackPointExtension>
        </extensions>
      </trkpt>
      <trkpt lat="37.74909476749598979949951171875" lon="-107.71225757896900177001953125">
        <ele>3420.199951171875</ele>
        <time>2023-07-29T13:16:17.000Z</time>
        <extensions>
          <ns3:TrackPointExtension>
            <ns3:hr>107</ns3:hr>
            <ns3:cad>53</ns3:cad>
          </ns3:TrackPointExtension>
        </extensions>
      </trkpt>
      <trkpt lat="37.7491040714085102081298828125" lon="-107.71226101554930210113525390625">
        <ele>3420.199951171875</ele>
        <time>2023-07-29T13:16:18.000Z</time>
        <extensions>
          <ns3:TrackPointExtension>
            <ns3:hr>107</ns3:hr>
            <ns3:cad>53</ns3:cad>
          </ns3:TrackPointExtension>
        </extensions>
      </trkpt>
      <trkpt lat="37.749113626778125762939453125" lon="-107.712263278663158416748046875">
        <ele>3420.39990234375</ele>
        <time>2023-07-29T13:16:19.000Z</time>
        <extensions>
          <ns3:TrackPointExtension>
            <ns3:hr>107</ns3:hr>
            <ns3:cad>53</ns3:cad>
          </ns3:TrackPointExtension>
        </extensions>
      </trkpt>
      <trkpt lat="37.749124355614185333251953125" lon="-107.7122614346444606781005859375">
        <ele>3420.60009765625</ele>
        <time>2023-07-29T13:16:20.000Z</time>
        <extensions>
          <ns3:TrackPointExtension>
            <ns3:hr>108</ns3:hr>
            <ns3:cad>53</ns3:cad>
          </ns3:TrackPointExtension>
        </extensions>
      </trkpt>
      <trkpt lat="37.74913885630667209625244140625" lon="-107.71225967444479465484619140625">
        <ele>3420.800048828125</ele>
        <time>2023-07-29T13:16:21.000Z</time>
        <extensions>
          <ns3:TrackPointExtension>
            <ns3:hr>108</ns3:hr>
            <ns3:cad>52</ns3:cad>
          </ns3:TrackPointExtension>
        </extensions>
      </trkpt>
      <trkpt lat="37.74914958514273166656494140625" lon="-107.71225648932158946990966796875">
        <ele>3421</ele>
        <time>2023-07-29T13:16:22.000Z</time>
        <extensions>
          <ns3:TrackPointExtension>
            <ns3:hr>108</ns3:hr>
            <ns3:cad>50</ns3:cad>
          </ns3:TrackPointExtension>
        </extensions>
      </trkpt>
      <trkpt lat="37.74915880523622035980224609375" lon="-107.712255232036113739013671875">
        <ele>3421</ele>
        <time>2023-07-29T13:16:23.000Z</time>
        <extensions>
          <ns3:TrackPointExtension>
            <ns3:hr>108</ns3:hr>
            <ns3:cad>50</ns3:cad>
          </ns3:TrackPointExtension>
        </extensions>
      </trkpt>
      <trkpt lat="37.74916299618780612945556640625" lon="-107.7122547291219234466552734375">
        <ele>3421.199951171875</ele>
        <time>2023-07-29T13:16:24.000Z</time>
        <extensions>
          <ns3:TrackPointExtension>
            <ns3:hr>108</ns3:hr>
            <ns3:cad>50</ns3:cad>
          </ns3:TrackPointExtension>
        </extensions>
      </trkpt>
      <trkpt lat="37.74916517548263072967529296875" lon="-107.7122543938457965850830078125">
        <ele>3421.39990234375</ele>
        <time>2023-07-29T13:16:25.000Z</time>
        <extensions>
          <ns3:TrackPointExtension>
            <ns3:hr>108</ns3:hr>
            <ns3:cad>50</ns3:cad>
          </ns3:TrackPointExtension>
        </extensions>
      </trkpt>
      <trkpt lat="37.74917087517678737640380859375" lon="-107.71225313656032085418701171875">
        <ele>3421.60009765625</ele>
        <time>2023-07-29T13:16:26.000Z</time>
        <extensions>
          <ns3:TrackPointExtension>
            <ns3:hr>108</ns3:hr>
            <ns3:cad>51</ns3:cad>
          </ns3:TrackPointExtension>
        </extensions>
      </trkpt>
      <trkpt lat="37.74917825125157833099365234375" lon="-107.71224894560873508453369140625">
        <ele>3421.800048828125</ele>
        <time>2023-07-29T13:16:27.000Z</time>
        <extensions>
          <ns3:TrackPointExtension>
            <ns3:hr>108</ns3:hr>
            <ns3:cad>51</ns3:cad>
          </ns3:TrackPointExtension>
        </extensions>
      </trkpt>
      <trkpt lat="37.74918613024055957794189453125" lon="-107.71224676631391048431396484375">
        <ele>3422</ele>
        <time>2023-07-29T13:16:28.000Z</time>
        <extensions>
          <ns3:TrackPointExtension>
            <ns3:hr>108</ns3:hr>
            <ns3:cad>51</ns3:cad>
          </ns3:TrackPointExtension>
        </extensions>
      </trkpt>
      <trkpt lat="37.74919602088630199432373046875" lon="-107.7122483588755130767822265625">
        <ele>3422</ele>
        <time>2023-07-29T13:16:29.000Z</time>
        <extensions>
          <ns3:TrackPointExtension>
            <ns3:hr>108</ns3:hr>
            <ns3:cad>51</ns3:cad>
          </ns3:TrackPointExtension>
        </extensions>
      </trkpt>
      <trkpt lat="37.7492033131420612335205078125" lon="-107.712248861789703369140625">
        <ele>3422.199951171875</ele>
        <time>2023-07-29T13:16:30.000Z</time>
        <extensions>
          <ns3:TrackPointExtension>
            <ns3:hr>109</ns3:hr>
            <ns3:cad>50</ns3:cad>
          </ns3:TrackPointExtension>
        </extensions>
      </trkpt>
      <trkpt lat="37.7492049895226955413818359375" lon="-107.71225112490355968475341796875">
        <ele>3422.39990234375</ele>
        <time>2023-07-29T13:16:31.000Z</time>
        <extensions>
          <ns3:TrackPointExtension>
            <ns3:hr>109</ns3:hr>
            <ns3:cad>50</ns3:cad>
          </ns3:TrackPointExtension>
        </extensions>
      </trkpt>
      <trkpt lat="37.74920658208429813385009765625" lon="-107.71225296892225742340087890625">
        <ele>3422.60009765625</ele>
        <time>2023-07-29T13:16:32.000Z</time>
        <extensions>
          <ns3:TrackPointExtension>
            <ns3:hr>110</ns3:hr>
            <ns3:cad>50</ns3:cad>
          </ns3:TrackPointExtension>
        </extensions>
      </trkpt>
      <trkpt lat="37.7492137067019939422607421875" lon="-107.71225783042609691619873046875">
        <ele>3422.800048828125</ele>
        <time>2023-07-29T13:16:33.000Z</time>
        <extensions>
          <ns3:TrackPointExtension>
            <ns3:hr>111</ns3:hr>
            <ns3:cad>50</ns3:cad>
          </ns3:TrackPointExtension>
        </extensions>
      </trkpt>
      <trkpt lat="37.74922820739448070526123046875" lon="-107.71226084791123867034912109375">
        <ele>3423</ele>
        <time>2023-07-29T13:16:34.000Z</time>
        <extensions>
          <ns3:TrackPointExtension>
            <ns3:hr>111</ns3:hr>
            <ns3:cad>50</ns3:cad>
          </ns3:TrackPointExtension>
        </extensions>
      </trkpt>
      <trkpt lat="37.7492368407547473907470703125" lon="-107.71226185373961925506591796875">
        <ele>3423.199951171875</ele>
        <time>2023-07-29T13:16:35.000Z</time>
        <extensions>
          <ns3:TrackPointExtension>
            <ns3:hr>110</ns3:hr>
            <ns3:cad>50</ns3:cad>
          </ns3:TrackPointExtension>
        </extensions>
      </trkpt>
      <trkpt lat="37.74924279190599918365478515625" lon="-107.712264955043792724609375">
        <ele>3423.39990234375</ele>
        <time>2023-07-29T13:16:36.000Z</time>
        <extensions>
          <ns3:TrackPointExtension>
            <ns3:hr>111</ns3:hr>
            <ns3:cad>50</ns3:cad>
          </ns3:TrackPointExtension>
        </extensions>
      </trkpt>
      <trkpt lat="37.74924865923821926116943359375" lon="-107.712267301976680755615234375">
        <ele>3423.60009765625</ele>
        <time>2023-07-29T13:16:37.000Z</time>
        <extensions>
          <ns3:TrackPointExtension>
            <ns3:hr>111</ns3:hr>
            <ns3:cad>50</ns3:cad>
          </ns3:TrackPointExtension>
        </extensions>
      </trkpt>
      <trkpt lat="37.74925067089498043060302734375" lon="-107.71226772107183933258056640625">
        <ele>3423.800048828125</ele>
        <time>2023-07-29T13:16:38.000Z</time>
        <extensions>
          <ns3:TrackPointExtension>
            <ns3:hr>111</ns3:hr>
            <ns3:cad>53</ns3:cad>
          </ns3:TrackPointExtension>
        </extensions>
      </trkpt>
      <trkpt lat="37.749257795512676239013671875" lon="-107.71226788870990276336669921875">
        <ele>3424</ele>
        <time>2023-07-29T13:16:39.000Z</time>
        <extensions>
          <ns3:TrackPointExtension>
            <ns3:hr>111</ns3:hr>
            <ns3:cad>53</ns3:cad>
          </ns3:TrackPointExtension>
        </extensions>
      </trkpt>
      <trkpt lat="37.74926475249230861663818359375" lon="-107.7122678048908710479736328125">
        <ele>3424</ele>
        <time>2023-07-29T13:16:40.000Z</time>
        <extensions>
          <ns3:TrackPointExtension>
            <ns3:hr>111</ns3:hr>
            <ns3:cad>51</ns3:cad>
          </ns3:TrackPointExtension>
        </extensions>
      </trkpt>
      <trkpt lat="37.74926844052970409393310546875" lon="-107.71226696670055389404296875">
        <ele>3424.199951171875</ele>
        <time>2023-07-29T13:16:41.000Z</time>
        <extensions>
          <ns3:TrackPointExtension>
            <ns3:hr>111</ns3:hr>
            <ns3:cad>51</ns3:cad>
          </ns3:TrackPointExtension>
        </extensions>
      </trkpt>
      <trkpt lat="37.74927766062319278717041015625" lon="-107.7122678048908710479736328125">
        <ele>3424.39990234375</ele>
        <time>2023-07-29T13:16:42.000Z</time>
        <extensions>
          <ns3:TrackPointExtension>
            <ns3:hr>111</ns3:hr>
            <ns3:cad>51</ns3:cad>
          </ns3:TrackPointExtension>
        </extensions>
      </trkpt>
      <trkpt lat="37.74928553961217403411865234375" lon="-107.7122689783573150634765625">
        <ele>3424.60009765625</ele>
        <time>2023-07-29T13:16:43.000Z</time>
        <extensions>
          <ns3:TrackPointExtension>
            <ns3:hr>111</ns3:hr>
            <ns3:cad>51</ns3:cad>
          </ns3:TrackPointExtension>
        </extensions>
      </trkpt>
      <trkpt lat="37.7492908202111721038818359375" lon="-107.712265960872173309326171875">
        <ele>3424.800048828125</ele>
        <time>2023-07-29T13:16:44.000Z</time>
        <extensions>
          <ns3:TrackPointExtension>
            <ns3:hr>111</ns3:hr>
            <ns3:cad>51</ns3:cad>
          </ns3:TrackPointExtension>
        </extensions>
      </trkpt>
      <trkpt lat="37.74930305778980255126953125" lon="-107.71226218901574611663818359375">
        <ele>3425</ele>
        <time>2023-07-29T13:16:45.000Z</time>
        <extensions>
          <ns3:TrackPointExtension>
            <ns3:hr>112</ns3:hr>
            <ns3:cad>51</ns3:cad>
          </ns3:TrackPointExtension>
        </extensions>
      </trkpt>
      <trkpt lat="37.74931705556809902191162109375" lon="-107.712256573140621185302734375">
        <ele>3425.199951171875</ele>
        <time>2023-07-29T13:16:46.000Z</time>
        <extensions>
          <ns3:TrackPointExtension>
            <ns3:hr>112</ns3:hr>
            <ns3:cad>51</ns3:cad>
          </ns3:TrackPointExtension>
        </extensions>
      </trkpt>
      <trkpt lat="37.7493350766599178314208984375" lon="-107.71225531585514545440673828125">
        <ele>3425.39990234375</ele>
        <time>2023-07-29T13:16:47.000Z</time>
        <extensions>
          <ns3:TrackPointExtension>
            <ns3:hr>112</ns3:hr>
            <ns3:cad>50</ns3:cad>
          </ns3:TrackPointExtension>
        </extensions>
      </trkpt>
      <trkpt lat="37.74934404529631137847900390625" lon="-107.71225598640739917755126953125">
        <ele>3425.60009765625</ele>
        <time>2023-07-29T13:16:48.000Z</time>
        <extensions>
          <ns3:TrackPointExtension>
            <ns3:hr>112</ns3:hr>
            <ns3:cad>48</ns3:cad>
          </ns3:TrackPointExtension>
        </extensions>
      </trkpt>
      <trkpt lat="37.749350331723690032958984375" lon="-107.7122533880174160003662109375">
        <ele>3425.800048828125</ele>
        <time>2023-07-29T13:16:49.000Z</time>
        <extensions>
          <ns3:TrackPointExtension>
            <ns3:hr>112</ns3:hr>
            <ns3:cad>48</ns3:cad>
          </ns3:TrackPointExtension>
        </extensions>
      </trkpt>
      <trkpt lat="37.74935527704656124114990234375" lon="-107.71224643103778362274169921875">
        <ele>3426</ele>
        <time>2023-07-29T13:16:50.000Z</time>
        <extensions>
          <ns3:TrackPointExtension>
            <ns3:hr>112</ns3:hr>
            <ns3:cad>46</ns3:cad>
          </ns3:TrackPointExtension>
        </extensions>
      </trkpt>
      <trkpt lat="37.74936340749263763427734375" lon="-107.7122406475245952606201171875">
        <ele>3426</ele>
        <time>2023-07-29T13:16:51.000Z</time>
        <extensions>
          <ns3:TrackPointExtension>
            <ns3:hr>112</ns3:hr>
            <ns3:cad>46</ns3:cad>
          </ns3:TrackPointExtension>
        </extensions>
      </trkpt>
      <trkpt lat="37.74936743080615997314453125" lon="-107.7122379653155803680419921875">
        <ele>3426.199951171875</ele>
        <time>2023-07-29T13:16:52.000Z</time>
        <extensions>
          <ns3:TrackPointExtension>
            <ns3:hr>113</ns3:hr>
            <ns3:cad>46</ns3:cad>
          </ns3:TrackPointExtension>
        </extensions>
      </trkpt>
      <trkpt lat="37.74937321431934833526611328125" lon="-107.71223586983978748321533203125">
        <ele>3426.60009765625</ele>
        <time>2023-07-29T13:16:53.000Z</time>
        <extensions>
          <ns3:TrackPointExtension>
            <ns3:hr>113</ns3:hr>
            <ns3:cad>50</ns3:cad>
          </ns3:TrackPointExtension>
        </extensions>
      </trkpt>
      <trkpt lat="37.7493776567280292510986328125" lon="-107.7122329361736774444580078125">
        <ele>3426.800048828125</ele>
        <time>2023-07-29T13:16:54.000Z</time>
        <extensions>
          <ns3:TrackPointExtension>
            <ns3:hr>113</ns3:hr>
            <ns3:cad>51</ns3:cad>
          </ns3:TrackPointExtension>
        </extensions>
      </trkpt>
      <trkpt lat="37.74938595481216907501220703125" lon="-107.712230421602725982666015625">
        <ele>3427</ele>
        <time>2023-07-29T13:16:55.000Z</time>
        <extensions>
          <ns3:TrackPointExtension>
            <ns3:hr>113</ns3:hr>
            <ns3:cad>51</ns3:cad>
          </ns3:TrackPointExtension>
        </extensions>
      </trkpt>
      <trkpt lat="37.7493976056575775146484375" lon="-107.71222807466983795166015625">
        <ele>3427.199951171875</ele>
        <time>2023-07-29T13:16:56.000Z</time>
        <extensions>
          <ns3:TrackPointExtension>
            <ns3:hr>113</ns3:hr>
            <ns3:cad>51</ns3:cad>
          </ns3:TrackPointExtension>
        </extensions>
      </trkpt>
      <trkpt lat="37.749411351978778839111328125" lon="-107.71223008632659912109375">
        <ele>3427.39990234375</ele>
        <time>2023-07-29T13:16:57.000Z</time>
        <extensions>
          <ns3:TrackPointExtension>
            <ns3:hr>113</ns3:hr>
            <ns3:cad>51</ns3:cad>
          </ns3:TrackPointExtension>
        </extensions>
      </trkpt>
      <trkpt lat="37.74942032061517238616943359375" lon="-107.712231762707233428955078125">
        <ele>3427.39990234375</ele>
        <time>2023-07-29T13:16:58.000Z</time>
        <extensions>
          <ns3:TrackPointExtension>
            <ns3:hr>113</ns3:hr>
            <ns3:cad>49</ns3:cad>
          </ns3:TrackPointExtension>
        </extensions>
      </trkpt>
      <trkpt lat="37.7494279481470584869384765625" lon="-107.71223335526883602142333984375">
        <ele>3427.60009765625</ele>
        <time>2023-07-29T13:16:59.000Z</time>
        <extensions>
          <ns3:TrackPointExtension>
            <ns3:hr>114</ns3:hr>
            <ns3:cad>48</ns3:cad>
          </ns3:TrackPointExtension>
        </extensions>
      </trkpt>
      <trkpt lat="37.749433815479278564453125" lon="-107.712238132953643798828125">
        <ele>3427.60009765625</ele>
        <time>2023-07-29T13:17:00.000Z</time>
        <extensions>
          <ns3:TrackPointExtension>
            <ns3:hr>114</ns3:hr>
            <ns3:cad>48</ns3:cad>
          </ns3:TrackPointExtension>
        </extensions>
      </trkpt>
      <trkpt lat="37.74944253265857696533203125" lon="-107.71224224008619785308837890625">
        <ele>3428</ele>
        <time>2023-07-29T13:17:01.000Z</time>
        <extensions>
          <ns3:TrackPointExtension>
            <ns3:hr>114</ns3:hr>
            <ns3:cad>48</ns3:cad>
          </ns3:TrackPointExtension>
        </extensions>
      </trkpt>
      <trkpt lat="37.749452926218509674072265625" lon="-107.71224928088486194610595703125">
        <ele>3428</ele>
        <time>2023-07-29T13:17:02.000Z</time>
        <extensions>
          <ns3:TrackPointExtension>
            <ns3:hr>114</ns3:hr>
            <ns3:cad>48</ns3:cad>
          </ns3:TrackPointExtension>
        </extensions>
      </trkpt>
      <trkpt lat="37.74946139194071292877197265625" lon="-107.712254226207733154296875">
        <ele>3428.199951171875</ele>
        <time>2023-07-29T13:17:03.000Z</time>
        <extensions>
          <ns3:TrackPointExtension>
            <ns3:hr>114</ns3:hr>
            <ns3:cad>49</ns3:cad>
          </ns3:TrackPointExtension>
        </extensions>
      </trkpt>
      <trkpt lat="37.74947010912001132965087890625" lon="-107.71226118318736553192138671875">
        <ele>3428.39990234375</ele>
        <time>2023-07-29T13:17:04.000Z</time>
        <extensions>
          <ns3:TrackPointExtension>
            <ns3:hr>114</ns3:hr>
            <ns3:cad>49</ns3:cad>
          </ns3:TrackPointExtension>
        </extensions>
      </trkpt>
      <trkpt lat="37.749471701681613922119140625" lon="-107.71226319484412670135498046875">
        <ele>3428.60009765625</ele>
        <time>2023-07-29T13:17:05.000Z</time>
        <extensions>
          <ns3:TrackPointExtension>
            <ns3:hr>114</ns3:hr>
            <ns3:cad>48</ns3:cad>
          </ns3:TrackPointExtension>
        </extensions>
      </trkpt>
      <trkpt lat="37.7494732104241847991943359375" lon="-107.71226487122476100921630859375">
        <ele>3428.800048828125</ele>
        <time>2023-07-29T13:17:06.000Z</time>
        <extensions>
          <ns3:TrackPointExtension>
            <ns3:hr>115</ns3:hr>
            <ns3:cad>48</ns3:cad>
          </ns3:TrackPointExtension>
        </extensions>
      </trkpt>
      <trkpt lat="37.749479077756404876708984375" lon="-107.71227258257567882537841796875">
        <ele>3429</ele>
        <time>2023-07-29T13:17:07.000Z</time>
        <extensions>
          <ns3:TrackPointExtension>
            <ns3:hr>116</ns3:hr>
            <ns3:cad>47</ns3:cad>
          </ns3:TrackPointExtension>
        </extensions>
      </trkpt>
      <trkpt lat="37.7494862861931324005126953125" lon="-107.7122798748314380645751953125">
        <ele>3429.199951171875</ele>
        <time>2023-07-29T13:17:08.000Z</time>
        <extensions>
          <ns3:TrackPointExtension>
            <ns3:hr>116</ns3:hr>
            <ns3:cad>47</ns3:cad>
          </ns3:TrackPointExtension>
        </extensions>
      </trkpt>
      <trkpt lat="37.7494943328201770782470703125" lon="-107.71228440105915069580078125">
        <ele>3429.199951171875</ele>
        <time>2023-07-29T13:17:09.000Z</time>
        <extensions>
          <ns3:TrackPointExtension>
            <ns3:hr>116</ns3:hr>
            <ns3:cad>48</ns3:cad>
          </ns3:TrackPointExtension>
        </extensions>
      </trkpt>
      <trkpt lat="37.74950112216174602508544921875" lon="-107.712288759648799896240234375">
        <ele>3429.39990234375</ele>
        <time>2023-07-29T13:17:10.000Z</time>
        <extensions>
          <ns3:TrackPointExtension>
            <ns3:hr>116</ns3:hr>
            <ns3:cad>48</ns3:cad>
          </ns3:TrackPointExtension>
        </extensions>
      </trkpt>
      <trkpt lat="37.74951361119747161865234375" lon="-107.71229781210422515869140625">
        <ele>3429.60009765625</ele>
        <time>2023-07-29T13:17:11.000Z</time>
        <extensions>
          <ns3:TrackPointExtension>
            <ns3:hr>116</ns3:hr>
            <ns3:cad>49</ns3:cad>
          </ns3:TrackPointExtension>
        </extensions>
      </trkpt>
      <trkpt lat="37.74952702224254608154296875" lon="-107.71231013350188732147216796875">
        <ele>3429.800048828125</ele>
        <time>2023-07-29T13:17:12.000Z</time>
        <extensions>
          <ns3:TrackPointExtension>
            <ns3:hr>116</ns3:hr>
            <ns3:cad>49</ns3:cad>
          </ns3:TrackPointExtension>
        </extensions>
      </trkpt>
      <trkpt lat="37.74953682906925678253173828125" lon="-107.71231591701507568359375">
        <ele>3430</ele>
        <time>2023-07-29T13:17:13.000Z</time>
        <extensions>
          <ns3:TrackPointExtension>
            <ns3:hr>116</ns3:hr>
            <ns3:cad>49</ns3:cad>
          </ns3:TrackPointExtension>
        </extensions>
      </trkpt>
      <trkpt lat="37.74955141358077526092529296875" lon="-107.7123227901756763458251953125">
        <ele>3430.199951171875</ele>
        <time>2023-07-29T13:17:14.000Z</time>
        <extensions>
          <ns3:TrackPointExtension>
            <ns3:hr>116</ns3:hr>
            <ns3:cad>48</ns3:cad>
          </ns3:TrackPointExtension>
        </extensions>
      </trkpt>
      <trkpt lat="37.7495530061423778533935546875" lon="-107.71232287399470806121826171875">
        <ele>3430.199951171875</ele>
        <time>2023-07-29T13:17:15.000Z</time>
        <extensions>
          <ns3:TrackPointExtension>
            <ns3:hr>116</ns3:hr>
            <ns3:cad>48</ns3:cad>
          </ns3:TrackPointExtension>
        </extensions>
      </trkpt>
      <trkpt lat="37.74955158121883869171142578125" lon="-107.712322957813739776611328125">
        <ele>3430.39990234375</ele>
        <time>2023-07-29T13:17:16.000Z</time>
        <extensions>
          <ns3:TrackPointExtension>
            <ns3:hr>116</ns3:hr>
            <ns3:cad>48</ns3:cad>
          </ns3:TrackPointExtension>
        </extensions>
      </trkpt>
      <trkpt lat="37.7495573647320270538330078125" lon="-107.71232689730823040008544921875">
        <ele>3430.60009765625</ele>
        <time>2023-07-29T13:17:17.000Z</time>
        <extensions>
          <ns3:TrackPointExtension>
            <ns3:hr>116</ns3:hr>
            <ns3:cad>48</ns3:cad>
          </ns3:TrackPointExtension>
        </extensions>
      </trkpt>
      <trkpt lat="37.74956591427326202392578125" lon="-107.712332345545291900634765625">
        <ele>3430.800048828125</ele>
        <time>2023-07-29T13:17:18.000Z</time>
        <extensions>
          <ns3:TrackPointExtension>
            <ns3:hr>116</ns3:hr>
            <ns3:cad>48</ns3:cad>
          </ns3:TrackPointExtension>
        </extensions>
      </trkpt>
      <trkpt lat="37.7495727874338626861572265625" lon="-107.71233611740171909332275390625">
        <ele>3431</ele>
        <time>2023-07-29T13:17:19.000Z</time>
        <extensions>
          <ns3:TrackPointExtension>
            <ns3:hr>116</ns3:hr>
            <ns3:cad>50</ns3:cad>
          </ns3:TrackPointExtension>
        </extensions>
      </trkpt>
      <trkpt lat="37.74957907386124134063720703125" lon="-107.71234030835330486297607421875">
        <ele>3431.199951171875</ele>
        <time>2023-07-29T13:17:20.000Z</time>
        <extensions>
          <ns3:TrackPointExtension>
            <ns3:hr>116</ns3:hr>
            <ns3:cad>50</ns3:cad>
          </ns3:TrackPointExtension>
        </extensions>
      </trkpt>
      <trkpt lat="37.74958242662250995635986328125" lon="-107.71234097890555858612060546875">
        <ele>3431.39990234375</ele>
        <time>2023-07-29T13:17:21.000Z</time>
        <extensions>
          <ns3:TrackPointExtension>
            <ns3:hr>116</ns3:hr>
            <ns3:cad>49</ns3:cad>
          </ns3:TrackPointExtension>
        </extensions>
      </trkpt>
      <trkpt lat="37.74958544410765171051025390625" lon="-107.712339051067829132080078125">
        <ele>3431.60009765625</ele>
        <time>2023-07-29T13:17:22.000Z</time>
        <extensions>
          <ns3:TrackPointExtension>
            <ns3:hr>116</ns3:hr>
            <ns3:cad>49</ns3:cad>
          </ns3:TrackPointExtension>
        </extensions>
      </trkpt>
      <trkpt lat="37.74958737194538116455078125" lon="-107.71233511157333850860595703125">
        <ele>3431.800048828125</ele>
        <time>2023-07-29T13:17:23.000Z</time>
        <extensions>
          <ns3:TrackPointExtension>
            <ns3:hr>116</ns3:hr>
            <ns3:cad>48</ns3:cad>
          </ns3:TrackPointExtension>
        </extensions>
      </trkpt>
      <trkpt lat="37.7495962567627429962158203125" lon="-107.7123341895639896392822265625">
        <ele>3432</ele>
        <time>2023-07-29T13:17:24.000Z</time>
        <extensions>
          <ns3:TrackPointExtension>
            <ns3:hr>116</ns3:hr>
            <ns3:cad>48</ns3:cad>
          </ns3:TrackPointExtension>
        </extensions>
      </trkpt>
      <trkpt lat="37.74960606358945369720458984375" lon="-107.7123331837356090545654296875">
        <ele>3432</ele>
        <time>2023-07-29T13:17:25.000Z</time>
        <extensions>
          <ns3:TrackPointExtension>
            <ns3:hr>116</ns3:hr>
            <ns3:cad>49</ns3:cad>
          </ns3:TrackPointExtension>
        </extensions>
      </trkpt>
      <trkpt lat="37.749618552625179290771484375" lon="-107.71233527921140193939208984375">
        <ele>3432.199951171875</ele>
        <time>2023-07-29T13:17:26.000Z</time>
        <extensions>
          <ns3:TrackPointExtension>
            <ns3:hr>116</ns3:hr>
            <ns3:cad>49</ns3:cad>
          </ns3:TrackPointExtension>
        </extensions>
      </trkpt>
      <trkpt lat="37.74962919764220714569091796875" lon="-107.712339721620082855224609375">
        <ele>3432.39990234375</ele>
        <time>2023-07-29T13:17:27.000Z</time>
        <extensions>
          <ns3:TrackPointExtension>
            <ns3:hr>116</ns3:hr>
            <ns3:cad>48</ns3:cad>
          </ns3:TrackPointExtension>
        </extensions>
      </trkpt>
      <trkpt lat="37.749644704163074493408203125" lon="-107.71234952844679355621337890625">
        <ele>3432.60009765625</ele>
        <time>2023-07-29T13:17:28.000Z</time>
        <extensions>
          <ns3:TrackPointExtension>
            <ns3:hr>116</ns3:hr>
            <ns3:cad>48</ns3:cad>
          </ns3:TrackPointExtension>
        </extensions>
      </trkpt>
      <trkpt lat="37.74965853430330753326416015625" lon="-107.712357826530933380126953125">
        <ele>3432.60009765625</ele>
        <time>2023-07-29T13:17:29.000Z</time>
        <extensions>
          <ns3:TrackPointExtension>
            <ns3:hr>116</ns3:hr>
            <ns3:cad>48</ns3:cad>
          </ns3:TrackPointExtension>
        </extensions>
      </trkpt>
      <trkpt lat="37.74966808967292308807373046875" lon="-107.7123623527586460113525390625">
        <ele>3433</ele>
        <time>2023-07-29T13:17:30.000Z</time>
        <extensions>
          <ns3:TrackPointExtension>
            <ns3:hr>116</ns3:hr>
            <ns3:cad>48</ns3:cad>
          </ns3:TrackPointExtension>
        </extensions>
      </trkpt>
      <trkpt lat="37.74967454373836517333984375" lon="-107.71236629225313663482666015625">
        <ele>3433.199951171875</ele>
        <time>2023-07-29T13:17:31.000Z</time>
        <extensions>
          <ns3:TrackPointExtension>
            <ns3:hr>116</ns3:hr>
            <ns3:cad>49</ns3:cad>
          </ns3:TrackPointExtension>
        </extensions>
      </trkpt>
      <trkpt lat="37.7496750466525554656982421875" lon="-107.71237836219370365142822265625">
        <ele>3433.199951171875</ele>
        <time>2023-07-29T13:17:32.000Z</time>
        <extensions>
          <ns3:TrackPointExtension>
            <ns3:hr>116</ns3:hr>
            <ns3:cad>50</ns3:cad>
          </ns3:TrackPointExtension>
        </extensions>
      </trkpt>
      <trkpt lat="37.74967714212834835052490234375" lon="-107.71238070912659168243408203125">
        <ele>3433.39990234375</ele>
        <time>2023-07-29T13:17:33.000Z</time>
        <extensions>
          <ns3:TrackPointExtension>
            <ns3:hr>116</ns3:hr>
            <ns3:cad>50</ns3:cad>
          </ns3:TrackPointExtension>
        </extensions>
      </trkpt>
      <trkpt lat="37.74967730976641178131103515625" lon="-107.71238221786916255950927734375">
        <ele>3433.60009765625</ele>
        <time>2023-07-29T13:17:34.000Z</time>
        <extensions>
          <ns3:TrackPointExtension>
            <ns3:hr>116</ns3:hr>
            <ns3:cad>50</ns3:cad>
          </ns3:TrackPointExtension>
        </extensions>
      </trkpt>
      <trkpt lat="37.7496810816228389739990234375" lon="-107.7123821340501308441162109375">
        <ele>3434</ele>
        <time>2023-07-29T13:17:35.000Z</time>
        <extensions>
          <ns3:TrackPointExtension>
            <ns3:hr>116</ns3:hr>
            <ns3:cad>50</ns3:cad>
          </ns3:TrackPointExtension>
        </extensions>
      </trkpt>
      <trkpt lat="37.749687619507312774658203125" lon="-107.71238456480205059051513671875">
        <ele>3434.199951171875</ele>
        <time>2023-07-29T13:17:36.000Z</time>
        <extensions>
          <ns3:TrackPointExtension>
            <ns3:hr>116</ns3:hr>
            <ns3:cad>50</ns3:cad>
          </ns3:TrackPointExtension>
        </extensions>
      </trkpt>
      <trkpt lat="37.74969507940113544464111328125" lon="-107.71238540299236774444580078125">
        <ele>3434.39990234375</ele>
        <time>2023-07-29T13:17:37.000Z</time>
        <extensions>
          <ns3:TrackPointExtension>
            <ns3:hr>115</ns3:hr>
            <ns3:cad>50</ns3:cad>
          </ns3:TrackPointExtension>
        </extensions>
      </trkpt>
      <trkpt lat="37.74970144964754581451416015625" lon="-107.71239026449620723724365234375">
        <ele>3434.39990234375</ele>
        <time>2023-07-29T13:17:38.000Z</time>
        <extensions>
          <ns3:TrackPointExtension>
            <ns3:hr>115</ns3:hr>
            <ns3:cad>51</ns3:cad>
          </ns3:TrackPointExtension>
        </extensions>
      </trkpt>
      <trkpt lat="37.74970832280814647674560546875" lon="-107.71239428780972957611083984375">
        <ele>3434.60009765625</ele>
        <time>2023-07-29T13:17:39.000Z</time>
        <extensions>
          <ns3:TrackPointExtension>
            <ns3:hr>114</ns3:hr>
            <ns3:cad>51</ns3:cad>
          </ns3:TrackPointExtension>
        </extensions>
      </trkpt>
      <trkpt lat="37.74971452541649341583251953125" lon="-107.71239546127617359161376953125">
        <ele>3434.60009765625</ele>
        <time>2023-07-29T13:17:40.000Z</time>
        <extensions>
          <ns3:TrackPointExtension>
            <ns3:hr>114</ns3:hr>
            <ns3:cad>51</ns3:cad>
          </ns3:TrackPointExtension>
        </extensions>
      </trkpt>
      <trkpt lat="37.7497266791760921478271484375" lon="-107.712400741875171661376953125">
        <ele>3434.800048828125</ele>
        <time>2023-07-29T13:17:41.000Z</time>
        <extensions>
          <ns3:TrackPointExtension>
            <ns3:hr>115</ns3:hr>
            <ns3:cad>50</ns3:cad>
          </ns3:TrackPointExtension>
        </extensions>
      </trkpt>
      <trkpt lat="37.749738581478595733642578125" lon="-107.71240241825580596923828125">
        <ele>3435</ele>
        <time>2023-07-29T13:17:42.000Z</time>
        <extensions>
          <ns3:TrackPointExtension>
            <ns3:hr>115</ns3:hr>
            <ns3:cad>50</ns3:cad>
          </ns3:TrackPointExtension>
        </extensions>
      </trkpt>
      <trkpt lat="37.7497489750385284423828125" lon="-107.71240686066448688507080078125">
        <ele>3435</ele>
        <time>2023-07-29T13:17:43.000Z</time>
        <extensions>
          <ns3:TrackPointExtension>
            <ns3:hr>116</ns3:hr>
            <ns3:cad>50</ns3:cad>
          </ns3:TrackPointExtension>
        </extensions>
      </trkpt>
      <trkpt lat="37.749751992523670196533203125" lon="-107.71240736357867717742919921875">
        <ele>3435.39990234375</ele>
        <time>2023-07-29T13:17:44.000Z</time>
        <extensions>
          <ns3:TrackPointExtension>
            <ns3:hr>116</ns3:hr>
            <ns3:cad>50</ns3:cad>
          </ns3:TrackPointExtension>
        </extensions>
      </trkpt>
      <trkpt lat="37.74976179935038089752197265625" lon="-107.71241373382508754730224609375">
        <ele>3435.60009765625</ele>
        <time>2023-07-29T13:17:45.000Z</time>
        <extensions>
          <ns3:TrackPointExtension>
            <ns3:hr>116</ns3:hr>
            <ns3:cad>50</ns3:cad>
          </ns3:TrackPointExtension>
        </extensions>
      </trkpt>
      <trkpt lat="37.74977001361548900604248046875" lon="-107.71241893060505390167236328125">
        <ele>3435.800048828125</ele>
        <time>2023-07-29T13:17:46.000Z</time>
        <extensions>
          <ns3:TrackPointExtension>
            <ns3:hr>117</ns3:hr>
            <ns3:cad>48</ns3:cad>
          </ns3:TrackPointExtension>
        </extensions>
      </trkpt>
      <trkpt lat="37.749782167375087738037109375" lon="-107.712427563965320587158203125">
        <ele>3435.800048828125</ele>
        <time>2023-07-29T13:17:47.000Z</time>
        <extensions>
          <ns3:TrackPointExtension>
            <ns3:hr>117</ns3:hr>
            <ns3:cad>48</ns3:cad>
          </ns3:TrackPointExtension>
        </extensions>
      </trkpt>
      <trkpt lat="37.74979599751532077789306640625" lon="-107.71243317984044551849365234375">
        <ele>3436</ele>
        <time>2023-07-29T13:17:48.000Z</time>
        <extensions>
          <ns3:TrackPointExtension>
            <ns3:hr>117</ns3:hr>
            <ns3:cad>48</ns3:cad>
          </ns3:TrackPointExtension>
        </extensions>
      </trkpt>
      <trkpt lat="37.7498047985136508941650390625" lon="-107.7124379575252532958984375">
        <ele>3436.199951171875</ele>
        <time>2023-07-29T13:17:49.000Z</time>
        <extensions>
          <ns3:TrackPointExtension>
            <ns3:hr>117</ns3:hr>
            <ns3:cad>48</ns3:cad>
          </ns3:TrackPointExtension>
        </extensions>
      </trkpt>
      <trkpt lat="37.74982206523418426513671875" lon="-107.71244608797132968902587890625">
        <ele>3436.39990234375</ele>
        <time>2023-07-29T13:17:50.000Z</time>
        <extensions>
          <ns3:TrackPointExtension>
            <ns3:hr>117</ns3:hr>
            <ns3:cad>48</ns3:cad>
          </ns3:TrackPointExtension>
        </extensions>
      </trkpt>
      <trkpt lat="37.749835141003131866455078125" lon="-107.71245396696031093597412109375">
        <ele>3436.39990234375</ele>
        <time>2023-07-29T13:17:51.000Z</time>
        <extensions>
          <ns3:TrackPointExtension>
            <ns3:hr>118</ns3:hr>
            <ns3:cad>49</ns3:cad>
          </ns3:TrackPointExtension>
        </extensions>
      </trkpt>
      <trkpt lat="37.74985182099044322967529296875" lon="-107.71245648153126239776611328125">
        <ele>3436.60009765625</ele>
        <time>2023-07-29T13:17:52.000Z</time>
        <extensions>
          <ns3:TrackPointExtension>
            <ns3:hr>118</ns3:hr>
            <ns3:cad>49</ns3:cad>
          </ns3:TrackPointExtension>
        </extensions>
      </trkpt>
      <trkpt lat="37.74985986761748790740966796875" lon="-107.71245539188385009765625">
        <ele>3436.800048828125</ele>
        <time>2023-07-29T13:17:53.000Z</time>
        <extensions>
          <ns3:TrackPointExtension>
            <ns3:hr>118</ns3:hr>
            <ns3:cad>47</ns3:cad>
          </ns3:TrackPointExtension>
        </extensions>
      </trkpt>
      <trkpt lat="37.7498641423881053924560546875" lon="-107.7124558947980403900146484375">
        <ele>3437</ele>
        <time>2023-07-29T13:17:54.000Z</time>
        <extensions>
          <ns3:TrackPointExtension>
            <ns3:hr>118</ns3:hr>
            <ns3:cad>47</ns3:cad>
          </ns3:TrackPointExtension>
        </extensions>
      </trkpt>
      <trkpt lat="37.74987260811030864715576171875" lon="-107.71245581097900867462158203125">
        <ele>3437</ele>
        <time>2023-07-29T13:17:55.000Z</time>
        <extensions>
          <ns3:TrackPointExtension>
            <ns3:hr>117</ns3:hr>
            <ns3:cad>48</ns3:cad>
          </ns3:TrackPointExtension>
        </extensions>
      </trkpt>
      <trkpt lat="37.74988266639411449432373046875" lon="-107.71245430223643779754638671875">
        <ele>3437.199951171875</ele>
        <time>2023-07-29T13:17:56.000Z</time>
        <extensions>
          <ns3:TrackPointExtension>
            <ns3:hr>117</ns3:hr>
            <ns3:cad>50</ns3:cad>
          </ns3:TrackPointExtension>
        </extensions>
      </trkpt>
      <trkpt lat="37.74988786317408084869384765625" lon="-107.7124500274658203125">
        <ele>3437.199951171875</ele>
        <time>2023-07-29T13:17:57.000Z</time>
        <extensions>
          <ns3:TrackPointExtension>
            <ns3:hr>117</ns3:hr>
            <ns3:cad>52</ns3:cad>
          </ns3:TrackPointExtension>
        </extensions>
      </trkpt>
      <trkpt lat="37.749895490705966949462890625" lon="-107.712447680532932281494140625">
        <ele>3437.39990234375</ele>
        <time>2023-07-29T13:17:58.000Z</time>
        <extensions>
          <ns3:TrackPointExtension>
            <ns3:hr>117</ns3:hr>
            <ns3:cad>52</ns3:cad>
          </ns3:TrackPointExtension>
        </extensions>
      </trkpt>
      <trkpt lat="37.749908901751041412353515625" lon="-107.71244608797132968902587890625">
        <ele>3437.60009765625</ele>
        <time>2023-07-29T13:17:59.000Z</time>
        <extensions>
          <ns3:TrackPointExtension>
            <ns3:hr>117</ns3:hr>
            <ns3:cad>52</ns3:cad>
          </ns3:TrackPointExtension>
        </extensions>
      </trkpt>
      <trkpt lat="37.749918289482593536376953125" lon="-107.71244541741907596588134765625">
        <ele>3437.60009765625</ele>
        <time>2023-07-29T13:18:00.000Z</time>
        <extensions>
          <ns3:TrackPointExtension>
            <ns3:hr>117</ns3:hr>
            <ns3:cad>51</ns3:cad>
          </ns3:TrackPointExtension>
        </extensions>
      </trkpt>
      <trkpt lat="37.749927341938018798828125" lon="-107.7124468423426151275634765625">
        <ele>3437.60009765625</ele>
        <time>2023-07-29T13:18:01.000Z</time>
        <extensions>
          <ns3:TrackPointExtension>
            <ns3:hr>117</ns3:hr>
            <ns3:cad>51</ns3:cad>
          </ns3:TrackPointExtension>
        </extensions>
      </trkpt>
      <trkpt lat="37.74993547238409519195556640625" lon="-107.7124475128948688507080078125">
        <ele>3437.800048828125</ele>
        <time>2023-07-29T13:18:02.000Z</time>
        <extensions>
          <ns3:TrackPointExtension>
            <ns3:hr>117</ns3:hr>
            <ns3:cad>51</ns3:cad>
          </ns3:TrackPointExtension>
        </extensions>
      </trkpt>
      <trkpt lat="37.7499446086585521697998046875" lon="-107.7124471776187419891357421875">
        <ele>3437.800048828125</ele>
        <time>2023-07-29T13:18:03.000Z</time>
        <extensions>
          <ns3:TrackPointExtension>
            <ns3:hr>117</ns3:hr>
            <ns3:cad>51</ns3:cad>
          </ns3:TrackPointExtension>
        </extensions>
      </trkpt>
      <trkpt lat="37.74994888342916965484619140625" lon="-107.712447345256805419921875">
        <ele>3437.800048828125</ele>
        <time>2023-07-29T13:18:04.000Z</time>
        <extensions>
          <ns3:TrackPointExtension>
            <ns3:hr>117</ns3:hr>
            <ns3:cad>50</ns3:cad>
          </ns3:TrackPointExtension>
        </extensions>
      </trkpt>
      <trkpt lat="37.7499550022184848785400390625" lon="-107.71244726143777370452880859375">
        <ele>3438</ele>
        <time>2023-07-29T13:18:05.000Z</time>
        <extensions>
          <ns3:TrackPointExtension>
            <ns3:hr>117</ns3:hr>
            <ns3:cad>50</ns3:cad>
          </ns3:TrackPointExtension>
        </extensions>
      </trkpt>
      <trkpt lat="37.7499593608081340789794921875" lon="-107.71244558505713939666748046875">
        <ele>3438</ele>
        <time>2023-07-29T13:18:06.000Z</time>
        <extensions>
          <ns3:TrackPointExtension>
            <ns3:hr>117</ns3:hr>
            <ns3:cad>50</ns3:cad>
          </ns3:TrackPointExtension>
        </extensions>
      </trkpt>
      <trkpt lat="37.74996380321681499481201171875" lon="-107.712444998323917388916015625">
        <ele>3438.199951171875</ele>
        <time>2023-07-29T13:18:07.000Z</time>
        <extensions>
          <ns3:TrackPointExtension>
            <ns3:hr>117</ns3:hr>
            <ns3:cad>50</ns3:cad>
          </ns3:TrackPointExtension>
        </extensions>
      </trkpt>
      <trkpt lat="37.74996715597808361053466796875" lon="-107.7124438248574733734130859375">
        <ele>3438.39990234375</ele>
        <time>2023-07-29T13:18:08.000Z</time>
        <extensions>
          <ns3:TrackPointExtension>
            <ns3:hr>116</ns3:hr>
            <ns3:cad>50</ns3:cad>
          </ns3:TrackPointExtension>
        </extensions>
      </trkpt>
      <trkpt lat="37.749974615871906280517578125" lon="-107.71244323812425136566162109375">
        <ele>3438.60009765625</ele>
        <time>2023-07-29T13:18:09.000Z</time>
        <extensions>
          <ns3:TrackPointExtension>
            <ns3:hr>116</ns3:hr>
            <ns3:cad>48</ns3:cad>
          </ns3:TrackPointExtension>
        </extensions>
      </trkpt>
      <trkpt lat="37.7499824948608875274658203125" lon="-107.7124392986297607421875">
        <ele>3438.800048828125</ele>
        <time>2023-07-29T13:18:10.000Z</time>
        <extensions>
          <ns3:TrackPointExtension>
            <ns3:hr>116</ns3:hr>
            <ns3:cad>48</ns3:cad>
          </ns3:TrackPointExtension>
        </extensions>
      </trkpt>
      <trkpt lat="37.749991714954376220703125" lon="-107.712438963353633880615234375">
        <ele>3439</ele>
        <time>2023-07-29T13:18:11.000Z</time>
        <extensions>
          <ns3:TrackPointExtension>
            <ns3:hr>115</ns3:hr>
            <ns3:cad>48</ns3:cad>
          </ns3:TrackPointExtension>
        </extensions>
      </trkpt>
      <trkpt lat="37.75000034831464290618896484375" lon="-107.7124394662678241729736328125">
        <ele>3439.199951171875</ele>
        <time>2023-07-29T13:18:12.000Z</time>
        <extensions>
          <ns3:TrackPointExtension>
            <ns3:hr>114</ns3:hr>
            <ns3:cad>48</ns3:cad>
          </ns3:TrackPointExtension>
        </extensions>
      </trkpt>
      <trkpt lat="37.7500076405704021453857421875" lon="-107.7124411426484584808349609375">
        <ele>3439.199951171875</ele>
        <time>2023-07-29T13:18:13.000Z</time>
        <extensions>
          <ns3:TrackPointExtension>
            <ns3:hr>113</ns3:hr>
            <ns3:cad>48</ns3:cad>
          </ns3:TrackPointExtension>
        </extensions>
      </trkpt>
      <trkpt lat="37.750011496245861053466796875" lon="-107.71244139410555362701416015625">
        <ele>3439.39990234375</ele>
        <time>2023-07-29T13:18:14.000Z</time>
        <extensions>
          <ns3:TrackPointExtension>
            <ns3:hr>113</ns3:hr>
            <ns3:cad>48</ns3:cad>
          </ns3:TrackPointExtension>
        </extensions>
      </trkpt>
      <trkpt lat="37.7500116638839244842529296875" lon="-107.712447345256805419921875">
        <ele>3439.60009765625</ele>
        <time>2023-07-29T13:18:15.000Z</time>
        <extensions>
          <ns3:TrackPointExtension>
            <ns3:hr>113</ns3:hr>
            <ns3:cad>49</ns3:cad>
          </ns3:TrackPointExtension>
        </extensions>
      </trkpt>
      <trkpt lat="37.75001979433000087738037109375" lon="-107.7124528773128986358642578125">
        <ele>3439.800048828125</ele>
        <time>2023-07-29T13:18:16.000Z</time>
        <extensions>
          <ns3:TrackPointExtension>
            <ns3:hr>113</ns3:hr>
            <ns3:cad>49</ns3:cad>
          </ns3:TrackPointExtension>
        </extensions>
      </trkpt>
      <trkpt lat="37.75002281181514263153076171875" lon="-107.7124592475593090057373046875">
        <ele>3440</ele>
        <time>2023-07-29T13:18:17.000Z</time>
        <extensions>
          <ns3:TrackPointExtension>
            <ns3:hr>113</ns3:hr>
            <ns3:cad>49</ns3:cad>
          </ns3:TrackPointExtension>
        </extensions>
      </trkpt>
      <trkpt lat="37.750028260052204132080078125" lon="-107.712465114891529083251953125">
        <ele>3440.199951171875</ele>
        <time>2023-07-29T13:18:18.000Z</time>
        <extensions>
          <ns3:TrackPointExtension>
            <ns3:hr>113</ns3:hr>
            <ns3:cad>49</ns3:cad>
          </ns3:TrackPointExtension>
        </extensions>
      </trkpt>
      <trkpt lat="37.75002934969961643218994140625" lon="-107.71247081458568572998046875">
        <ele>3440.199951171875</ele>
        <time>2023-07-29T13:18:19.000Z</time>
        <extensions>
          <ns3:TrackPointExtension>
            <ns3:hr>113</ns3:hr>
            <ns3:cad>49</ns3:cad>
          </ns3:TrackPointExtension>
        </extensions>
      </trkpt>
      <trkpt lat="37.75002951733767986297607421875" lon="-107.712482549250125885009765625">
        <ele>3440.60009765625</ele>
        <time>2023-07-29T13:18:20.000Z</time>
        <extensions>
          <ns3:TrackPointExtension>
            <ns3:hr>113</ns3:hr>
            <ns3:cad>49</ns3:cad>
          </ns3:TrackPointExtension>
        </extensions>
      </trkpt>
      <trkpt lat="37.7500408329069614410400390625" lon="-107.71249235607683658599853515625">
        <ele>3440.800048828125</ele>
        <time>2023-07-29T13:18:21.000Z</time>
        <extensions>
          <ns3:TrackPointExtension>
            <ns3:hr>113</ns3:hr>
            <ns3:cad>49</ns3:cad>
          </ns3:TrackPointExtension>
        </extensions>
      </trkpt>
      <trkpt lat="37.75005340576171875" lon="-107.71250342018902301788330078125">
        <ele>3441</ele>
        <time>2023-07-29T13:18:22.000Z</time>
        <extensions>
          <ns3:TrackPointExtension>
            <ns3:hr>113</ns3:hr>
            <ns3:cad>48</ns3:cad>
          </ns3:TrackPointExtension>
        </extensions>
      </trkpt>
      <trkpt lat="37.75005935691297054290771484375" lon="-107.71251381374895572662353515625">
        <ele>3441.199951171875</ele>
        <time>2023-07-29T13:18:23.000Z</time>
        <extensions>
          <ns3:TrackPointExtension>
            <ns3:hr>113</ns3:hr>
            <ns3:cad>49</ns3:cad>
          </ns3:TrackPointExtension>
        </extensions>
      </trkpt>
      <trkpt lat="37.7500629611313343048095703125" lon="-107.712512724101543426513671875">
        <ele>3441.60009765625</ele>
        <time>2023-07-29T13:18:24.000Z</time>
        <extensions>
          <ns3:TrackPointExtension>
            <ns3:hr>113</ns3:hr>
            <ns3:cad>49</ns3:cad>
          </ns3:TrackPointExtension>
        </extensions>
      </trkpt>
      <trkpt lat="37.75006891228258609771728515625" lon="-107.71251247264444828033447265625">
        <ele>3441.60009765625</ele>
        <time>2023-07-29T13:18:25.000Z</time>
        <extensions>
          <ns3:TrackPointExtension>
            <ns3:hr>113</ns3:hr>
            <ns3:cad>50</ns3:cad>
          </ns3:TrackPointExtension>
        </extensions>
      </trkpt>
      <trkpt lat="37.75007394142448902130126953125" lon="-107.71251062862575054168701171875">
        <ele>3441.800048828125</ele>
        <time>2023-07-29T13:18:26.000Z</time>
        <extensions>
          <ns3:TrackPointExtension>
            <ns3:hr>113</ns3:hr>
            <ns3:cad>50</ns3:cad>
          </ns3:TrackPointExtension>
        </extensions>
      </trkpt>
      <trkpt lat="37.75008098222315311431884765625" lon="-107.71250476129353046417236328125">
        <ele>3442.199951171875</ele>
        <time>2023-07-29T13:18:27.000Z</time>
        <extensions>
          <ns3:TrackPointExtension>
            <ns3:hr>114</ns3:hr>
            <ns3:cad>50</ns3:cad>
          </ns3:TrackPointExtension>
        </extensions>
      </trkpt>
      <trkpt lat="37.750092633068561553955078125" lon="-107.71250861696898937225341796875">
        <ele>3442.39990234375</ele>
        <time>2023-07-29T13:18:28.000Z</time>
        <extensions>
          <ns3:TrackPointExtension>
            <ns3:hr>114</ns3:hr>
            <ns3:cad>51</ns3:cad>
          </ns3:TrackPointExtension>
        </extensions>
      </trkpt>
      <trkpt lat="37.75010369718074798583984375" lon="-107.71250995807349681854248046875">
        <ele>3442.39990234375</ele>
        <time>2023-07-29T13:18:29.000Z</time>
        <extensions>
          <ns3:TrackPointExtension>
            <ns3:hr>114</ns3:hr>
            <ns3:cad>51</ns3:cad>
          </ns3:TrackPointExtension>
        </extensions>
      </trkpt>
      <trkpt lat="37.75011601857841014862060546875" lon="-107.71250744350254535675048828125">
        <ele>3442.60009765625</ele>
        <time>2023-07-29T13:18:30.000Z</time>
        <extensions>
          <ns3:TrackPointExtension>
            <ns3:hr>114</ns3:hr>
            <ns3:cad>51</ns3:cad>
          </ns3:TrackPointExtension>
        </extensions>
      </trkpt>
      <trkpt lat="37.75012381374835968017578125" lon="-107.71250023506581783294677734375">
        <ele>3442.800048828125</ele>
        <time>2023-07-29T13:18:31.000Z</time>
        <extensions>
          <ns3:TrackPointExtension>
            <ns3:hr>114</ns3:hr>
            <ns3:cad>48</ns3:cad>
          </ns3:TrackPointExtension>
        </extensions>
      </trkpt>
      <trkpt lat="37.75013227947056293487548828125" lon="-107.71249772049486637115478515625">
        <ele>3443</ele>
        <time>2023-07-29T13:18:32.000Z</time>
        <extensions>
          <ns3:TrackPointExtension>
            <ns3:hr>114</ns3:hr>
            <ns3:cad>47</ns3:cad>
          </ns3:TrackPointExtension>
        </extensions>
      </trkpt>
      <trkpt lat="37.75013663806021213531494140625" lon="-107.71249671466648578643798828125">
        <ele>3443.199951171875</ele>
        <time>2023-07-29T13:18:33.000Z</time>
        <extensions>
          <ns3:TrackPointExtension>
            <ns3:hr>115</ns3:hr>
            <ns3:cad>47</ns3:cad>
          </ns3:TrackPointExtension>
        </extensions>
      </trkpt>
      <trkpt lat="37.75014334358274936676025390625" lon="-107.71249420009553432464599609375">
        <ele>3443.39990234375</ele>
        <time>2023-07-29T13:18:34.000Z</time>
        <extensions>
          <ns3:TrackPointExtension>
            <ns3:hr>115</ns3:hr>
            <ns3:cad>47</ns3:cad>
          </ns3:TrackPointExtension>
        </extensions>
      </trkpt>
      <trkpt lat="37.75015273131430149078369140625" lon="-107.71249629557132720947265625">
        <ele>3443.60009765625</ele>
        <time>2023-07-29T13:18:35.000Z</time>
        <extensions>
          <ns3:TrackPointExtension>
            <ns3:hr>115</ns3:hr>
            <ns3:cad>47</ns3:cad>
          </ns3:TrackPointExtension>
        </extensions>
      </trkpt>
      <trkpt lat="37.75016136467456817626953125" lon="-107.71249721758067607879638671875">
        <ele>3443.60009765625</ele>
        <time>2023-07-29T13:18:36.000Z</time>
        <extensions>
          <ns3:TrackPointExtension>
            <ns3:hr>115</ns3:hr>
            <ns3:cad>47</ns3:cad>
          </ns3:TrackPointExtension>
        </extensions>
      </trkpt>
      <trkpt lat="37.750167734920978546142578125" lon="-107.7124969661235809326171875">
        <ele>3444</ele>
        <time>2023-07-29T13:18:37.000Z</time>
        <extensions>
          <ns3:TrackPointExtension>
            <ns3:hr>115</ns3:hr>
            <ns3:cad>47</ns3:cad>
          </ns3:TrackPointExtension>
        </extensions>
      </trkpt>
      <trkpt lat="37.75017184205353260040283203125" lon="-107.71249788813292980194091796875">
        <ele>3444.199951171875</ele>
        <time>2023-07-29T13:18:38.000Z</time>
        <extensions>
          <ns3:TrackPointExtension>
            <ns3:hr>115</ns3:hr>
            <ns3:cad>47</ns3:cad>
          </ns3:TrackPointExtension>
        </extensions>
      </trkpt>
      <trkpt lat="37.75017837993800640106201171875" lon="-107.71249755285680294036865234375">
        <ele>3444.39990234375</ele>
        <time>2023-07-29T13:18:39.000Z</time>
        <extensions>
          <ns3:TrackPointExtension>
            <ns3:hr>115</ns3:hr>
            <ns3:cad>49</ns3:cad>
          </ns3:TrackPointExtension>
        </extensions>
      </trkpt>
      <trkpt lat="37.7501866780221462249755859375" lon="-107.71249839104712009429931640625">
        <ele>3444.60009765625</ele>
        <time>2023-07-29T13:18:40.000Z</time>
        <extensions>
          <ns3:TrackPointExtension>
            <ns3:hr>115</ns3:hr>
            <ns3:cad>49</ns3:cad>
          </ns3:TrackPointExtension>
        </extensions>
      </trkpt>
      <trkpt lat="37.75019598193466663360595703125" lon="-107.71249922923743724822998046875">
        <ele>3444.800048828125</ele>
        <time>2023-07-29T13:18:41.000Z</time>
        <extensions>
          <ns3:TrackPointExtension>
            <ns3:hr>115</ns3:hr>
            <ns3:cad>49</ns3:cad>
          </ns3:TrackPointExtension>
        </extensions>
      </trkpt>
      <trkpt lat="37.7502022683620452880859375" lon="-107.71249629557132720947265625">
        <ele>3444.800048828125</ele>
        <time>2023-07-29T13:18:42.000Z</time>
        <extensions>
          <ns3:TrackPointExtension>
            <ns3:hr>116</ns3:hr>
            <ns3:cad>48</ns3:cad>
          </ns3:TrackPointExtension>
        </extensions>
      </trkpt>
      <trkpt lat="37.7502071298658847808837890625" lon="-107.71249495446681976318359375">
        <ele>3445.199951171875</ele>
        <time>2023-07-29T13:18:43.000Z</time>
        <extensions>
          <ns3:TrackPointExtension>
            <ns3:hr>116</ns3:hr>
            <ns3:cad>48</ns3:cad>
          </ns3:TrackPointExtension>
        </extensions>
      </trkpt>
      <trkpt lat="37.7502118237316608428955078125" lon="-107.7124937810003757476806640625">
        <ele>3445.199951171875</ele>
        <time>2023-07-29T13:18:44.000Z</time>
        <extensions>
          <ns3:TrackPointExtension>
            <ns3:hr>116</ns3:hr>
            <ns3:cad>48</ns3:cad>
          </ns3:TrackPointExtension>
        </extensions>
      </trkpt>
      <trkpt lat="37.750217020511627197265625" lon="-107.71249336190521717071533203125">
        <ele>3445.39990234375</ele>
        <time>2023-07-29T13:18:45.000Z</time>
        <extensions>
          <ns3:TrackPointExtension>
            <ns3:hr>116</ns3:hr>
            <ns3:cad>49</ns3:cad>
          </ns3:TrackPointExtension>
        </extensions>
      </trkpt>
      <trkpt lat="37.75023235939443111419677734375" lon="-107.7124916017055511474609375">
        <ele>3445.60009765625</ele>
        <time>2023-07-29T13:18:46.000Z</time>
        <extensions>
          <ns3:TrackPointExtension>
            <ns3:hr>116</ns3:hr>
            <ns3:cad>49</ns3:cad>
          </ns3:TrackPointExtension>
        </extensions>
      </trkpt>
      <trkpt lat="37.75024744682013988494873046875" lon="-107.71248690783977508544921875">
        <ele>3445.60009765625</ele>
        <time>2023-07-29T13:18:47.000Z</time>
        <extensions>
          <ns3:TrackPointExtension>
            <ns3:hr>116</ns3:hr>
            <ns3:cad>49</ns3:cad>
          </ns3:TrackPointExtension>
        </extensions>
      </trkpt>
      <trkpt lat="37.75026370771229267120361328125" lon="-107.7124843932688236236572265625">
        <ele>3445.800048828125</ele>
        <time>2023-07-29T13:18:48.000Z</time>
        <extensions>
          <ns3:TrackPointExtension>
            <ns3:hr>116</ns3:hr>
            <ns3:cad>49</ns3:cad>
          </ns3:TrackPointExtension>
        </extensions>
      </trkpt>
      <trkpt lat="37.75027175433933734893798828125" lon="-107.712483219802379608154296875">
        <ele>3445.800048828125</ele>
        <time>2023-07-29T13:18:49.000Z</time>
        <extensions>
          <ns3:TrackPointExtension>
            <ns3:hr>116</ns3:hr>
            <ns3:cad>48</ns3:cad>
          </ns3:TrackPointExtension>
        </extensions>
      </trkpt>
      <trkpt lat="37.75028348900377750396728515625" lon="-107.71248196251690387725830078125">
        <ele>3446</ele>
        <time>2023-07-29T13:18:50.000Z</time>
        <extensions>
          <ns3:TrackPointExtension>
            <ns3:hr>116</ns3:hr>
            <ns3:cad>49</ns3:cad>
          </ns3:TrackPointExtension>
        </extensions>
      </trkpt>
      <trkpt lat="37.7502929605543613433837890625" lon="-107.712481878697872161865234375">
        <ele>3446.199951171875</ele>
        <time>2023-07-29T13:18:51.000Z</time>
        <extensions>
          <ns3:TrackPointExtension>
            <ns3:hr>116</ns3:hr>
            <ns3:cad>49</ns3:cad>
          </ns3:TrackPointExtension>
        </extensions>
      </trkpt>
      <trkpt lat="37.750300504267215728759765625" lon="-107.7124803699553012847900390625">
        <ele>3446.39990234375</ele>
        <time>2023-07-29T13:18:52.000Z</time>
        <extensions>
          <ns3:TrackPointExtension>
            <ns3:hr>116</ns3:hr>
            <ns3:cad>49</ns3:cad>
          </ns3:TrackPointExtension>
        </extensions>
      </trkpt>
      <trkpt lat="37.7503013424575328826904296875" lon="-107.71248213015496730804443359375">
        <ele>3446.60009765625</ele>
        <time>2023-07-29T13:18:53.000Z</time>
        <extensions>
          <ns3:TrackPointExtension>
            <ns3:hr>116</ns3:hr>
            <ns3:cad>48</ns3:cad>
          </ns3:TrackPointExtension>
        </extensions>
      </trkpt>
      <trkpt lat="37.7503023482859134674072265625" lon="-107.71248414181172847747802734375">
        <ele>3446.60009765625</ele>
        <time>2023-07-29T13:18:54.000Z</time>
        <extensions>
          <ns3:TrackPointExtension>
            <ns3:hr>116</ns3:hr>
            <ns3:cad>48</ns3:cad>
          </ns3:TrackPointExtension>
        </extensions>
      </trkpt>
      <trkpt lat="37.7503087185323238372802734375" lon="-107.71248715929687023162841796875">
        <ele>3446.800048828125</ele>
        <time>2023-07-29T13:18:55.000Z</time>
        <extensions>
          <ns3:TrackPointExtension>
            <ns3:hr>116</ns3:hr>
            <ns3:cad>48</ns3:cad>
          </ns3:TrackPointExtension>
        </extensions>
      </trkpt>
      <trkpt lat="37.75031936354935169219970703125" lon="-107.71248900331556797027587890625">
        <ele>3447</ele>
        <time>2023-07-29T13:18:56.000Z</time>
        <extensions>
          <ns3:TrackPointExtension>
            <ns3:hr>116</ns3:hr>
            <ns3:cad>48</ns3:cad>
          </ns3:TrackPointExtension>
        </extensions>
      </trkpt>
      <trkpt lat="37.75032305158674716949462890625" lon="-107.712492607533931732177734375">
        <ele>3447.199951171875</ele>
        <time>2023-07-29T13:18:57.000Z</time>
        <extensions>
          <ns3:TrackPointExtension>
            <ns3:hr>116</ns3:hr>
            <ns3:cad>48</ns3:cad>
          </ns3:TrackPointExtension>
        </extensions>
      </trkpt>
      <trkpt lat="37.75032070465385913848876953125" lon="-107.71249420009553432464599609375">
        <ele>3447.39990234375</ele>
        <time>2023-07-29T13:18:58.000Z</time>
        <extensions>
          <ns3:TrackPointExtension>
            <ns3:hr>116</ns3:hr>
            <ns3:cad>48</ns3:cad>
          </ns3:TrackPointExtension>
        </extensions>
      </trkpt>
      <trkpt lat="37.75032657198607921600341796875" lon="-107.71249704994261264801025390625">
        <ele>3447.60009765625</ele>
        <time>2023-07-29T13:18:59.000Z</time>
        <extensions>
          <ns3:TrackPointExtension>
            <ns3:hr>115</ns3:hr>
            <ns3:cad>47</ns3:cad>
          </ns3:TrackPointExtension>
        </extensions>
      </trkpt>
      <trkpt lat="37.75033126585185527801513671875" lon="-107.7125031687319278717041015625">
        <ele>3447.800048828125</ele>
        <time>2023-07-29T13:19:00.000Z</time>
        <extensions>
          <ns3:TrackPointExtension>
            <ns3:hr>115</ns3:hr>
            <ns3:cad>47</ns3:cad>
          </ns3:TrackPointExtension>
        </extensions>
      </trkpt>
      <trkpt lat="37.7503375522792339324951171875" lon="-107.71251297555863857269287109375">
        <ele>3448</ele>
        <time>2023-07-29T13:19:01.000Z</time>
        <extensions>
          <ns3:TrackPointExtension>
            <ns3:hr>115</ns3:hr>
            <ns3:cad>47</ns3:cad>
          </ns3:TrackPointExtension>
        </extensions>
      </trkpt>
      <trkpt lat="37.750340737402439117431640625" lon="-107.71252370439469814300537109375">
        <ele>3448.199951171875</ele>
        <time>2023-07-29T13:19:02.000Z</time>
        <extensions>
          <ns3:TrackPointExtension>
            <ns3:hr>114</ns3:hr>
            <ns3:cad>47</ns3:cad>
          </ns3:TrackPointExtension>
        </extensions>
      </trkpt>
      <trkpt lat="37.7503415755927562713623046875" lon="-107.7125371992588043212890625">
        <ele>3448.39990234375</ele>
        <time>2023-07-29T13:19:03.000Z</time>
        <extensions>
          <ns3:TrackPointExtension>
            <ns3:hr>114</ns3:hr>
            <ns3:cad>47</ns3:cad>
          </ns3:TrackPointExtension>
        </extensions>
      </trkpt>
      <trkpt lat="37.75034400634467601776123046875" lon="-107.712549604475498199462890625">
        <ele>3448.60009765625</ele>
        <time>2023-07-29T13:19:04.000Z</time>
        <extensions>
          <ns3:TrackPointExtension>
            <ns3:hr>114</ns3:hr>
            <ns3:cad>47</ns3:cad>
          </ns3:TrackPointExtension>
        </extensions>
      </trkpt>
      <trkpt lat="37.75034786202013492584228515625" lon="-107.71256527863442897796630859375">
        <ele>3448.800048828125</ele>
        <time>2023-07-29T13:19:05.000Z</time>
        <extensions>
          <ns3:TrackPointExtension>
            <ns3:hr>114</ns3:hr>
            <ns3:cad>48</ns3:cad>
          </ns3:TrackPointExtension>
        </extensions>
      </trkpt>
      <trkpt lat="37.75034970603883266448974609375" lon="-107.71258070133626461029052734375">
        <ele>3449.199951171875</ele>
        <time>2023-07-29T13:19:06.000Z</time>
        <extensions>
          <ns3:TrackPointExtension>
            <ns3:hr>114</ns3:hr>
            <ns3:cad>48</ns3:cad>
          </ns3:TrackPointExtension>
        </extensions>
      </trkpt>
      <trkpt lat="37.750345431268215179443359375" lon="-107.71258640103042125701904296875">
        <ele>3449.199951171875</ele>
        <time>2023-07-29T13:19:07.000Z</time>
        <extensions>
          <ns3:TrackPointExtension>
            <ns3:hr>114</ns3:hr>
            <ns3:cad>47</ns3:cad>
          </ns3:TrackPointExtension>
        </extensions>
      </trkpt>
      <trkpt lat="37.7503439225256443023681640625" lon="-107.71260953508317470550537109375">
        <ele>3449.39990234375</ele>
        <time>2023-07-29T13:19:08.000Z</time>
        <extensions>
          <ns3:TrackPointExtension>
            <ns3:hr>114</ns3:hr>
            <ns3:cad>47</ns3:cad>
          </ns3:TrackPointExtension>
        </extensions>
      </trkpt>
      <trkpt lat="37.7503390610218048095703125" lon="-107.712628059089183807373046875">
        <ele>3449.39990234375</ele>
        <time>2023-07-29T13:19:09.000Z</time>
        <extensions>
          <ns3:TrackPointExtension>
            <ns3:hr>114</ns3:hr>
            <ns3:cad>47</ns3:cad>
          </ns3:TrackPointExtension>
        </extensions>
      </trkpt>
      <trkpt lat="37.75033478625118732452392578125" lon="-107.71263970993459224700927734375">
        <ele>3449.60009765625</ele>
        <time>2023-07-29T13:19:10.000Z</time>
        <extensions>
          <ns3:TrackPointExtension>
            <ns3:hr>114</ns3:hr>
            <ns3:cad>47</ns3:cad>
          </ns3:TrackPointExtension>
        </extensions>
      </trkpt>
      <trkpt lat="37.7503261528909206390380859375" lon="-107.712641470134258270263671875">
        <ele>3449.800048828125</ele>
        <time>2023-07-29T13:19:11.000Z</time>
        <extensions>
          <ns3:TrackPointExtension>
            <ns3:hr>114</ns3:hr>
            <ns3:cad>47</ns3:cad>
          </ns3:TrackPointExtension>
        </extensions>
      </trkpt>
      <trkpt lat="37.7503194473683834075927734375" lon="-107.71264608018100261688232421875">
        <ele>3450</ele>
        <time>2023-07-29T13:19:12.000Z</time>
        <extensions>
          <ns3:TrackPointExtension>
            <ns3:hr>114</ns3:hr>
            <ns3:cad>47</ns3:cad>
          </ns3:TrackPointExtension>
        </extensions>
      </trkpt>
      <trkpt lat="37.75030218064785003662109375" lon="-107.71264255978167057037353515625">
        <ele>3450.199951171875</ele>
        <time>2023-07-29T13:19:13.000Z</time>
        <extensions>
          <ns3:TrackPointExtension>
            <ns3:hr>114</ns3:hr>
            <ns3:cad>41</ns3:cad>
          </ns3:TrackPointExtension>
        </extensions>
      </trkpt>
      <trkpt lat="37.750287093222141265869140625" lon="-107.7126456610858440399169921875">
        <ele>3450.39990234375</ele>
        <time>2023-07-29T13:19:14.000Z</time>
        <extensions>
          <ns3:TrackPointExtension>
            <ns3:hr>114</ns3:hr>
            <ns3:cad>40</ns3:cad>
          </ns3:TrackPointExtension>
        </extensions>
      </trkpt>
      <trkpt lat="37.75027594529092311859130859375" lon="-107.7126513607800006866455078125">
        <ele>3450.60009765625</ele>
        <time>2023-07-29T13:19:15.000Z</time>
        <extensions>
          <ns3:TrackPointExtension>
            <ns3:hr>114</ns3:hr>
            <ns3:cad>40</ns3:cad>
          </ns3:TrackPointExtension>
        </extensions>
      </trkpt>
      <trkpt lat="37.75026328861713409423828125" lon="-107.71266217343509197235107421875">
        <ele>3450.60009765625</ele>
        <time>2023-07-29T13:19:16.000Z</time>
        <extensions>
          <ns3:TrackPointExtension>
            <ns3:hr>114</ns3:hr>
            <ns3:cad>40</ns3:cad>
          </ns3:TrackPointExtension>
        </extensions>
      </trkpt>
      <trkpt lat="37.75025063194334506988525390625" lon="-107.71266871131956577301025390625">
        <ele>3450.800048828125</ele>
        <time>2023-07-29T13:19:17.000Z</time>
        <extensions>
          <ns3:TrackPointExtension>
            <ns3:hr>114</ns3:hr>
            <ns3:cad>40</ns3:cad>
          </ns3:TrackPointExtension>
        </extensions>
      </trkpt>
      <trkpt lat="37.7502419985830783843994140625" lon="-107.71267575211822986602783203125">
        <ele>3450.800048828125</ele>
        <time>2023-07-29T13:19:18.000Z</time>
        <extensions>
          <ns3:TrackPointExtension>
            <ns3:hr>114</ns3:hr>
            <ns3:cad>46</ns3:cad>
          </ns3:TrackPointExtension>
        </extensions>
      </trkpt>
      <trkpt lat="37.7502386458218097686767578125" lon="-107.71267977543175220489501953125">
        <ele>3451</ele>
        <time>2023-07-29T13:19:19.000Z</time>
        <extensions>
          <ns3:TrackPointExtension>
            <ns3:hr>113</ns3:hr>
            <ns3:cad>46</ns3:cad>
          </ns3:TrackPointExtension>
        </extensions>
      </trkpt>
      <trkpt lat="37.7502357959747314453125" lon="-107.71268698386847972869873046875">
        <ele>3451</ele>
        <time>2023-07-29T13:19:20.000Z</time>
        <extensions>
          <ns3:TrackPointExtension>
            <ns3:hr>113</ns3:hr>
            <ns3:cad>47</ns3:cad>
          </ns3:TrackPointExtension>
        </extensions>
      </trkpt>
      <trkpt lat="37.750227414071559906005859375" lon="-107.71269855089485645294189453125">
        <ele>3451.199951171875</ele>
        <time>2023-07-29T13:19:21.000Z</time>
        <extensions>
          <ns3:TrackPointExtension>
            <ns3:hr>113</ns3:hr>
            <ns3:cad>48</ns3:cad>
          </ns3:TrackPointExtension>
        </extensions>
      </trkpt>
      <trkpt lat="37.75021827779710292816162109375" lon="-107.7127140574157238006591796875">
        <ele>3451.199951171875</ele>
        <time>2023-07-29T13:19:22.000Z</time>
        <extensions>
          <ns3:TrackPointExtension>
            <ns3:hr>113</ns3:hr>
            <ns3:cad>48</ns3:cad>
          </ns3:TrackPointExtension>
        </extensions>
      </trkpt>
      <trkpt lat="37.75021358393132686614990234375" lon="-107.7127241156995296478271484375">
        <ele>3451.39990234375</ele>
        <time>2023-07-29T13:19:23.000Z</time>
        <extensions>
          <ns3:TrackPointExtension>
            <ns3:hr>113</ns3:hr>
            <ns3:cad>48</ns3:cad>
          </ns3:TrackPointExtension>
        </extensions>
      </trkpt>
      <trkpt lat="37.75021039880812168121337890625" lon="-107.712731659412384033203125">
        <ele>3451.60009765625</ele>
        <time>2023-07-29T13:19:24.000Z</time>
        <extensions>
          <ns3:TrackPointExtension>
            <ns3:hr>113</ns3:hr>
            <ns3:cad>48</ns3:cad>
          </ns3:TrackPointExtension>
        </extensions>
      </trkpt>
      <trkpt lat="37.7502067945897579193115234375" lon="-107.71274414844810962677001953125">
        <ele>3451.60009765625</ele>
        <time>2023-07-29T13:19:25.000Z</time>
        <extensions>
          <ns3:TrackPointExtension>
            <ns3:hr>113</ns3:hr>
            <ns3:cad>47</ns3:cad>
          </ns3:TrackPointExtension>
        </extensions>
      </trkpt>
      <trkpt lat="37.75020671077072620391845703125" lon="-107.7127485908567905426025390625">
        <ele>3451.800048828125</ele>
        <time>2023-07-29T13:19:26.000Z</time>
        <extensions>
          <ns3:TrackPointExtension>
            <ns3:hr>113</ns3:hr>
            <ns3:cad>47</ns3:cad>
          </ns3:TrackPointExtension>
        </extensions>
      </trkpt>
      <trkpt lat="37.75020721368491649627685546875" lon="-107.712747752666473388671875">
        <ele>3452</ele>
        <time>2023-07-29T13:19:27.000Z</time>
        <extensions>
          <ns3:TrackPointExtension>
            <ns3:hr>113</ns3:hr>
            <ns3:cad>49</ns3:cad>
          </ns3:TrackPointExtension>
        </extensions>
      </trkpt>
      <trkpt lat="37.75020696222782135009765625" lon="-107.7127569727599620819091796875">
        <ele>3452.39990234375</ele>
        <time>2023-07-29T13:19:28.000Z</time>
        <extensions>
          <ns3:TrackPointExtension>
            <ns3:hr>113</ns3:hr>
            <ns3:cad>50</ns3:cad>
          </ns3:TrackPointExtension>
        </extensions>
      </trkpt>
      <trkpt lat="37.750205285847187042236328125" lon="-107.71276392973959445953369140625">
        <ele>3452.39990234375</ele>
        <time>2023-07-29T13:19:29.000Z</time>
        <extensions>
          <ns3:TrackPointExtension>
            <ns3:hr>113</ns3:hr>
            <ns3:cad>51</ns3:cad>
          </ns3:TrackPointExtension>
        </extensions>
      </trkpt>
      <trkpt lat="37.750203274190425872802734375" lon="-107.71276895888149738311767578125">
        <ele>3452.60009765625</ele>
        <time>2023-07-29T13:19:30.000Z</time>
        <extensions>
          <ns3:TrackPointExtension>
            <ns3:hr>113</ns3:hr>
            <ns3:cad>51</ns3:cad>
          </ns3:TrackPointExtension>
        </extensions>
      </trkpt>
      <trkpt lat="37.75020168162882328033447265625" lon="-107.71277348510921001434326171875">
        <ele>3452.800048828125</ele>
        <time>2023-07-29T13:19:31.000Z</time>
        <extensions>
          <ns3:TrackPointExtension>
            <ns3:hr>113</ns3:hr>
            <ns3:cad>51</ns3:cad>
          </ns3:TrackPointExtension>
        </extensions>
      </trkpt>
      <trkpt lat="37.75019782595336437225341796875" lon="-107.71277968771755695343017578125">
        <ele>3453</ele>
        <time>2023-07-29T13:19:32.000Z</time>
        <extensions>
          <ns3:TrackPointExtension>
            <ns3:hr>113</ns3:hr>
            <ns3:cad>51</ns3:cad>
          </ns3:TrackPointExtension>
        </extensions>
      </trkpt>
      <trkpt lat="37.75019430555403232574462890625" lon="-107.7127861417829990386962890625">
        <ele>3453</ele>
        <time>2023-07-29T13:19:33.000Z</time>
        <extensions>
          <ns3:TrackPointExtension>
            <ns3:hr>113</ns3:hr>
            <ns3:cad>46</ns3:cad>
          </ns3:TrackPointExtension>
        </extensions>
      </trkpt>
      <trkpt lat="37.75018676184117794036865234375" lon="-107.71279578097164630889892578125">
        <ele>3453.199951171875</ele>
        <time>2023-07-29T13:19:34.000Z</time>
        <extensions>
          <ns3:TrackPointExtension>
            <ns3:hr>114</ns3:hr>
            <ns3:cad>46</ns3:cad>
          </ns3:TrackPointExtension>
        </extensions>
      </trkpt>
      <trkpt lat="37.7501789666712284088134765625" lon="-107.71280751563608646392822265625">
        <ele>3453.39990234375</ele>
        <time>2023-07-29T13:19:35.000Z</time>
        <extensions>
          <ns3:TrackPointExtension>
            <ns3:hr>114</ns3:hr>
            <ns3:cad>46</ns3:cad>
          </ns3:TrackPointExtension>
        </extensions>
      </trkpt>
      <trkpt lat="37.75017351843416690826416015625" lon="-107.71281656809151172637939453125">
        <ele>3453.60009765625</ele>
        <time>2023-07-29T13:19:36.000Z</time>
        <extensions>
          <ns3:TrackPointExtension>
            <ns3:hr>115</ns3:hr>
            <ns3:cad>44</ns3:cad>
          </ns3:TrackPointExtension>
        </extensions>
      </trkpt>
      <trkpt lat="37.75016681291162967681884765625" lon="-107.71283031441271305084228515625">
        <ele>3453.60009765625</ele>
        <time>2023-07-29T13:19:37.000Z</time>
        <extensions>
          <ns3:TrackPointExtension>
            <ns3:hr>116</ns3:hr>
            <ns3:cad>42</ns3:cad>
          </ns3:TrackPointExtension>
        </extensions>
      </trkpt>
      <trkpt lat="37.75016379542648792266845703125" lon="-107.71283819340169429779052734375">
        <ele>3453.800048828125</ele>
        <time>2023-07-29T13:19:38.000Z</time>
        <extensions>
          <ns3:TrackPointExtension>
            <ns3:hr>116</ns3:hr>
            <ns3:cad>42</ns3:cad>
          </ns3:TrackPointExtension>
        </extensions>
      </trkpt>
      <trkpt lat="37.75015826337039470672607421875" lon="-107.71284741349518299102783203125">
        <ele>3454</ele>
        <time>2023-07-29T13:19:39.000Z</time>
        <extensions>
          <ns3:TrackPointExtension>
            <ns3:hr>116</ns3:hr>
            <ns3:cad>42</ns3:cad>
          </ns3:TrackPointExtension>
        </extensions>
      </trkpt>
      <trkpt lat="37.7501568384468555450439453125" lon="-107.71285973489284515380859375">
        <ele>3454.199951171875</ele>
        <time>2023-07-29T13:19:40.000Z</time>
        <extensions>
          <ns3:TrackPointExtension>
            <ns3:hr>116</ns3:hr>
            <ns3:cad>42</ns3:cad>
          </ns3:TrackPointExtension>
        </extensions>
      </trkpt>
      <trkpt lat="37.75015708990395069122314453125" lon="-107.71286685951054096221923828125">
        <ele>3454.39990234375</ele>
        <time>2023-07-29T13:19:41.000Z</time>
        <extensions>
          <ns3:TrackPointExtension>
            <ns3:hr>116</ns3:hr>
            <ns3:cad>46</ns3:cad>
          </ns3:TrackPointExtension>
        </extensions>
      </trkpt>
      <trkpt lat="37.75015876628458499908447265625" lon="-107.71287490613758563995361328125">
        <ele>3454.60009765625</ele>
        <time>2023-07-29T13:19:42.000Z</time>
        <extensions>
          <ns3:TrackPointExtension>
            <ns3:hr>116</ns3:hr>
            <ns3:cad>46</ns3:cad>
          </ns3:TrackPointExtension>
        </extensions>
      </trkpt>
      <trkpt lat="37.75015893392264842987060546875" lon="-107.7128890715539455413818359375">
        <ele>3454.800048828125</ele>
        <time>2023-07-29T13:19:43.000Z</time>
        <extensions>
          <ns3:TrackPointExtension>
            <ns3:hr>116</ns3:hr>
            <ns3:cad>46</ns3:cad>
          </ns3:TrackPointExtension>
        </extensions>
      </trkpt>
      <trkpt lat="37.75015809573233127593994140625" lon="-107.712892256677150726318359375">
        <ele>3455</ele>
        <time>2023-07-29T13:19:44.000Z</time>
        <extensions>
          <ns3:TrackPointExtension>
            <ns3:hr>116</ns3:hr>
            <ns3:cad>46</ns3:cad>
          </ns3:TrackPointExtension>
        </extensions>
      </trkpt>
      <trkpt lat="37.7501605264842510223388671875" lon="-107.7128987945616245269775390625">
        <ele>3455.199951171875</ele>
        <time>2023-07-29T13:19:45.000Z</time>
        <extensions>
          <ns3:TrackPointExtension>
            <ns3:hr>116</ns3:hr>
            <ns3:cad>46</ns3:cad>
          </ns3:TrackPointExtension>
        </extensions>
      </trkpt>
      <trkpt lat="37.75016513653099536895751953125" lon="-107.71290156058967113494873046875">
        <ele>3455.39990234375</ele>
        <time>2023-07-29T13:19:46.000Z</time>
        <extensions>
          <ns3:TrackPointExtension>
            <ns3:hr>116</ns3:hr>
            <ns3:cad>46</ns3:cad>
          </ns3:TrackPointExtension>
        </extensions>
      </trkpt>
      <trkpt lat="37.75016932748258113861083984375" lon="-107.712902985513210296630859375">
        <ele>3455.39990234375</ele>
        <time>2023-07-29T13:19:47.000Z</time>
        <extensions>
          <ns3:TrackPointExtension>
            <ns3:hr>115</ns3:hr>
            <ns3:cad>46</ns3:cad>
          </ns3:TrackPointExtension>
        </extensions>
      </trkpt>
      <trkpt lat="37.75016765110194683074951171875" lon="-107.71291413344442844390869140625">
        <ele>3455.60009765625</ele>
        <time>2023-07-29T13:19:48.000Z</time>
        <extensions>
          <ns3:TrackPointExtension>
            <ns3:hr>115</ns3:hr>
            <ns3:cad>47</ns3:cad>
          </ns3:TrackPointExtension>
        </extensions>
      </trkpt>
      <trkpt lat="37.75016932748258113861083984375" lon="-107.71292746067047119140625">
        <ele>3455.800048828125</ele>
        <time>2023-07-29T13:19:49.000Z</time>
        <extensions>
          <ns3:TrackPointExtension>
            <ns3:hr>115</ns3:hr>
            <ns3:cad>48</ns3:cad>
          </ns3:TrackPointExtension>
        </extensions>
      </trkpt>
      <trkpt lat="37.7501705847680568695068359375" lon="-107.712933830916881561279296875">
        <ele>3455.800048828125</ele>
        <time>2023-07-29T13:19:50.000Z</time>
        <extensions>
          <ns3:TrackPointExtension>
            <ns3:hr>115</ns3:hr>
            <ns3:cad>48</ns3:cad>
          </ns3:TrackPointExtension>
        </extensions>
      </trkpt>
      <trkpt lat="37.75017209351062774658203125" lon="-107.712940536439418792724609375">
        <ele>3456</ele>
        <time>2023-07-29T13:19:51.000Z</time>
        <extensions>
          <ns3:TrackPointExtension>
            <ns3:hr>115</ns3:hr>
            <ns3:cad>48</ns3:cad>
          </ns3:TrackPointExtension>
        </extensions>
      </trkpt>
      <trkpt lat="37.75017251260578632354736328125" lon="-107.71293508820235729217529296875">
        <ele>3456</ele>
        <time>2023-07-29T13:19:52.000Z</time>
        <extensions>
          <ns3:TrackPointExtension>
            <ns3:hr>115</ns3:hr>
            <ns3:cad>47</ns3:cad>
          </ns3:TrackPointExtension>
        </extensions>
      </trkpt>
      <trkpt lat="37.75017343461513519287109375" lon="-107.71292787976562976837158203125">
        <ele>3456.39990234375</ele>
        <time>2023-07-29T13:19:53.000Z</time>
        <extensions>
          <ns3:TrackPointExtension>
            <ns3:hr>115</ns3:hr>
            <ns3:cad>0</ns3:cad>
          </ns3:TrackPointExtension>
        </extensions>
      </trkpt>
      <trkpt lat="37.75017620064318180084228515625" lon="-107.71292083896696567535400390625">
        <ele>3456.60009765625</ele>
        <time>2023-07-29T13:19:54.000Z</time>
        <extensions>
          <ns3:TrackPointExtension>
            <ns3:hr>115</ns3:hr>
            <ns3:cad>0</ns3:cad>
          </ns3:TrackPointExtension>
        </extensions>
      </trkpt>
      <trkpt lat="37.750178463757038116455078125" lon="-107.712925113737583160400390625">
        <ele>3457.199951171875</ele>
        <time>2023-07-29T13:19:55.000Z</time>
        <extensions>
          <ns3:TrackPointExtension>
            <ns3:hr>116</ns3:hr>
            <ns3:cad>0</ns3:cad>
          </ns3:TrackPointExtension>
        </extensions>
      </trkpt>
      <trkpt lat="37.7501799724996089935302734375" lon="-107.71292813122272491455078125">
        <ele>3457.199951171875</ele>
        <time>2023-07-29T13:19:56.000Z</time>
        <extensions>
          <ns3:TrackPointExtension>
            <ns3:hr>117</ns3:hr>
            <ns3:cad>0</ns3:cad>
          </ns3:TrackPointExtension>
        </extensions>
      </trkpt>
      <trkpt lat="37.7501746080815792083740234375" lon="-107.71293072961270809173583984375">
        <ele>3457.199951171875</ele>
        <time>2023-07-29T13:19:57.000Z</time>
        <extensions>
          <ns3:TrackPointExtension>
            <ns3:hr>117</ns3:hr>
            <ns3:cad>0</ns3:cad>
          </ns3:TrackPointExtension>
        </extensions>
      </trkpt>
      <trkpt lat="37.75017435662448406219482421875" lon="-107.71293341182172298431396484375">
        <ele>3457.199951171875</ele>
        <time>2023-07-29T13:19:58.000Z</time>
        <extensions>
          <ns3:TrackPointExtension>
            <ns3:hr>117</ns3:hr>
            <ns3:cad>56</ns3:cad>
          </ns3:TrackPointExtension>
        </extensions>
      </trkpt>
      <trkpt lat="37.750170417129993438720703125" lon="-107.7129368484020233154296875">
        <ele>3457</ele>
        <time>2023-07-29T13:19:59.000Z</time>
        <extensions>
          <ns3:TrackPointExtension>
            <ns3:hr>117</ns3:hr>
            <ns3:cad>56</ns3:cad>
          </ns3:TrackPointExtension>
        </extensions>
      </trkpt>
      <trkpt lat="37.7501772902905941009521484375" lon="-107.71293676458299160003662109375">
        <ele>3457</ele>
        <time>2023-07-29T13:20:00.000Z</time>
        <extensions>
          <ns3:TrackPointExtension>
            <ns3:hr>117</ns3:hr>
            <ns3:cad>56</ns3:cad>
          </ns3:TrackPointExtension>
        </extensions>
      </trkpt>
      <trkpt lat="37.7501796372234821319580078125" lon="-107.71293559111654758453369140625">
        <ele>3457</ele>
        <time>2023-07-29T13:20:01.000Z</time>
        <extensions>
          <ns3:TrackPointExtension>
            <ns3:hr>117</ns3:hr>
            <ns3:cad>56</ns3:cad>
          </ns3:TrackPointExtension>
        </extensions>
      </trkpt>
      <trkpt lat="37.7501863427460193634033203125" lon="-107.7129393629729747772216796875">
        <ele>3457</ele>
        <time>2023-07-29T13:20:02.000Z</time>
        <extensions>
          <ns3:TrackPointExtension>
            <ns3:hr>116</ns3:hr>
            <ns3:cad>0</ns3:cad>
          </ns3:TrackPointExtension>
        </extensions>
      </trkpt>
      <trkpt lat="37.750191204249858856201171875" lon="-107.71294380538165569305419921875">
        <ele>3457</ele>
        <time>2023-07-29T13:20:03.000Z</time>
        <extensions>
          <ns3:TrackPointExtension>
            <ns3:hr>116</ns3:hr>
            <ns3:cad>0</ns3:cad>
          </ns3:TrackPointExtension>
        </extensions>
      </trkpt>
      <trkpt lat="37.75019246153533458709716796875" lon="-107.71293810568749904632568359375">
        <ele>3457</ele>
        <time>2023-07-29T13:20:04.000Z</time>
        <extensions>
          <ns3:TrackPointExtension>
            <ns3:hr>116</ns3:hr>
            <ns3:cad>0</ns3:cad>
          </ns3:TrackPointExtension>
        </extensions>
      </trkpt>
      <trkpt lat="37.75019028224050998687744140625" lon="-107.71294078789651393890380859375">
        <ele>3457</ele>
        <time>2023-07-29T13:20:05.000Z</time>
        <extensions>
          <ns3:TrackPointExtension>
            <ns3:hr>115</ns3:hr>
            <ns3:cad>0</ns3:cad>
          </ns3:TrackPointExtension>
        </extensions>
      </trkpt>
      <trkpt lat="37.75019044987857341766357421875" lon="-107.71294196136295795440673828125">
        <ele>3457</ele>
        <time>2023-07-29T13:20:06.000Z</time>
        <extensions>
          <ns3:TrackPointExtension>
            <ns3:hr>114</ns3:hr>
            <ns3:cad>0</ns3:cad>
          </ns3:TrackPointExtension>
        </extensions>
      </trkpt>
      <trkpt lat="37.75019011460244655609130859375" lon="-107.71294246427714824676513671875">
        <ele>3456.800048828125</ele>
        <time>2023-07-29T13:20:07.000Z</time>
        <extensions>
          <ns3:TrackPointExtension>
            <ns3:hr>114</ns3:hr>
            <ns3:cad>0</ns3:cad>
          </ns3:TrackPointExtension>
        </extensions>
      </trkpt>
      <trkpt lat="37.75018458254635334014892578125" lon="-107.7129341661930084228515625">
        <ele>3456.800048828125</ele>
        <time>2023-07-29T13:20:08.000Z</time>
        <extensions>
          <ns3:TrackPointExtension>
            <ns3:hr>114</ns3:hr>
            <ns3:cad>0</ns3:cad>
          </ns3:TrackPointExtension>
        </extensions>
      </trkpt>
      <trkpt lat="37.7501856721937656402587890625" lon="-107.71293911151587963104248046875">
        <ele>3456.800048828125</ele>
        <time>2023-07-29T13:20:09.000Z</time>
        <extensions>
          <ns3:TrackPointExtension>
            <ns3:hr>114</ns3:hr>
            <ns3:cad>0</ns3:cad>
          </ns3:TrackPointExtension>
        </extensions>
      </trkpt>
      <trkpt lat="37.75018475018441677093505859375" lon="-107.71294447593390941619873046875">
        <ele>3456.800048828125</ele>
        <time>2023-07-29T13:20:10.000Z</time>
        <extensions>
          <ns3:TrackPointExtension>
            <ns3:hr>113</ns3:hr>
            <ns3:cad>0</ns3:cad>
          </ns3:TrackPointExtension>
        </extensions>
      </trkpt>
      <trkpt lat="37.75018542073667049407958984375" lon="-107.71294581703841686248779296875">
        <ele>3457</ele>
        <time>2023-07-29T13:20:11.000Z</time>
        <extensions>
          <ns3:TrackPointExtension>
            <ns3:hr>113</ns3:hr>
            <ns3:cad>0</ns3:cad>
          </ns3:TrackPointExtension>
        </extensions>
      </trkpt>
      <trkpt lat="37.7501896955072879791259765625" lon="-107.71295252256095409393310546875">
        <ele>3457.199951171875</ele>
        <time>2023-07-29T13:20:12.000Z</time>
        <extensions>
          <ns3:TrackPointExtension>
            <ns3:hr>113</ns3:hr>
            <ns3:cad>0</ns3:cad>
          </ns3:TrackPointExtension>
        </extensions>
      </trkpt>
      <trkpt lat="37.75019128806889057159423828125" lon="-107.71295386366546154022216796875">
        <ele>3457.199951171875</ele>
        <time>2023-07-29T13:20:13.000Z</time>
        <extensions>
          <ns3:TrackPointExtension>
            <ns3:hr>113</ns3:hr>
            <ns3:cad>0</ns3:cad>
          </ns3:TrackPointExtension>
        </extensions>
      </trkpt>
      <trkpt lat="37.7501942217350006103515625" lon="-107.71295495331287384033203125">
        <ele>3457.199951171875</ele>
        <time>2023-07-29T13:20:14.000Z</time>
        <extensions>
          <ns3:TrackPointExtension>
            <ns3:hr>113</ns3:hr>
            <ns3:cad>0</ns3:cad>
          </ns3:TrackPointExtension>
        </extensions>
      </trkpt>
      <trkpt lat="37.75019229389727115631103515625" lon="-107.71296375431120395660400390625">
        <ele>3457.199951171875</ele>
        <time>2023-07-29T13:20:15.000Z</time>
        <extensions>
          <ns3:TrackPointExtension>
            <ns3:hr>113</ns3:hr>
            <ns3:cad>0</ns3:cad>
          </ns3:TrackPointExtension>
        </extensions>
      </trkpt>
      <trkpt lat="37.7501896955072879791259765625" lon="-107.7129618264734745025634765625">
        <ele>3457.199951171875</ele>
        <time>2023-07-29T13:20:16.000Z</time>
        <extensions>
          <ns3:TrackPointExtension>
            <ns3:hr>113</ns3:hr>
            <ns3:cad>0</ns3:cad>
          </ns3:TrackPointExtension>
        </extensions>
      </trkpt>
      <trkpt lat="37.75018994696438312530517578125" lon="-107.7129661850631237030029296875">
        <ele>3456.800048828125</ele>
        <time>2023-07-29T13:20:17.000Z</time>
        <extensions>
          <ns3:TrackPointExtension>
            <ns3:hr>114</ns3:hr>
            <ns3:cad>0</ns3:cad>
          </ns3:TrackPointExtension>
        </extensions>
      </trkpt>
      <trkpt lat="37.75018952786922454833984375" lon="-107.71296610124409198760986328125">
        <ele>3456.60009765625</ele>
        <time>2023-07-29T13:20:18.000Z</time>
        <extensions>
          <ns3:TrackPointExtension>
            <ns3:hr>114</ns3:hr>
            <ns3:cad>0</ns3:cad>
          </ns3:TrackPointExtension>
        </extensions>
      </trkpt>
      <trkpt lat="37.7501823194324970245361328125" lon="-107.7129601500928401947021484375">
        <ele>3456.60009765625</ele>
        <time>2023-07-29T13:20:19.000Z</time>
        <extensions>
          <ns3:TrackPointExtension>
            <ns3:hr>114</ns3:hr>
            <ns3:cad>0</ns3:cad>
          </ns3:TrackPointExtension>
        </extensions>
      </trkpt>
      <trkpt lat="37.75017687119543552398681640625" lon="-107.71295453421771526336669921875">
        <ele>3456.60009765625</ele>
        <time>2023-07-29T13:20:20.000Z</time>
        <extensions>
          <ns3:TrackPointExtension>
            <ns3:hr>114</ns3:hr>
            <ns3:cad>0</ns3:cad>
          </ns3:TrackPointExtension>
        </extensions>
      </trkpt>
      <trkpt lat="37.750174440443515777587890625" lon="-107.71295386366546154022216796875">
        <ele>3456.60009765625</ele>
        <time>2023-07-29T13:20:21.000Z</time>
        <extensions>
          <ns3:TrackPointExtension>
            <ns3:hr>114</ns3:hr>
            <ns3:cad>0</ns3:cad>
          </ns3:TrackPointExtension>
        </extensions>
      </trkpt>
      <trkpt lat="37.7501700818538665771484375" lon="-107.71295000799000263214111328125">
        <ele>3456.60009765625</ele>
        <time>2023-07-29T13:20:22.000Z</time>
        <extensions>
          <ns3:TrackPointExtension>
            <ns3:hr>114</ns3:hr>
            <ns3:cad>0</ns3:cad>
          </ns3:TrackPointExtension>
        </extensions>
      </trkpt>
      <trkpt lat="37.75016781874001026153564453125" lon="-107.712954618036746978759765625">
        <ele>3456.60009765625</ele>
        <time>2023-07-29T13:20:23.000Z</time>
        <extensions>
          <ns3:TrackPointExtension>
            <ns3:hr>114</ns3:hr>
            <ns3:cad>0</ns3:cad>
          </ns3:TrackPointExtension>
        </extensions>
      </trkpt>
      <trkpt lat="37.750163376331329345703125" lon="-107.71295503713190555572509765625">
        <ele>3456.60009765625</ele>
        <time>2023-07-29T13:20:24.000Z</time>
        <extensions>
          <ns3:TrackPointExtension>
            <ns3:hr>114</ns3:hr>
            <ns3:cad>0</ns3:cad>
          </ns3:TrackPointExtension>
        </extensions>
      </trkpt>
      <trkpt lat="37.7501605264842510223388671875" lon="-107.712956964969635009765625">
        <ele>3456.60009765625</ele>
        <time>2023-07-29T13:20:25.000Z</time>
        <extensions>
          <ns3:TrackPointExtension>
            <ns3:hr>114</ns3:hr>
            <ns3:cad>0</ns3:cad>
          </ns3:TrackPointExtension>
        </extensions>
      </trkpt>
      <trkpt lat="37.7501601912081241607666015625" lon="-107.71295872516930103302001953125">
        <ele>3456.60009765625</ele>
        <time>2023-07-29T13:20:26.000Z</time>
        <extensions>
          <ns3:TrackPointExtension>
            <ns3:hr>113</ns3:hr>
            <ns3:cad>0</ns3:cad>
          </ns3:TrackPointExtension>
        </extensions>
      </trkpt>
      <trkpt lat="37.750157006084918975830078125" lon="-107.71296157501637935638427734375">
        <ele>3456.60009765625</ele>
        <time>2023-07-29T13:20:27.000Z</time>
        <extensions>
          <ns3:TrackPointExtension>
            <ns3:hr>113</ns3:hr>
            <ns3:cad>0</ns3:cad>
          </ns3:TrackPointExtension>
        </extensions>
      </trkpt>
      <trkpt lat="37.75015608407557010650634765625" lon="-107.71297180093824863433837890625">
        <ele>3456.60009765625</ele>
        <time>2023-07-29T13:20:28.000Z</time>
        <extensions>
          <ns3:TrackPointExtension>
            <ns3:hr>113</ns3:hr>
            <ns3:cad>0</ns3:cad>
          </ns3:TrackPointExtension>
        </extensions>
      </trkpt>
      <trkpt lat="37.75015465915203094482421875" lon="-107.71297238767147064208984375">
        <ele>3456.60009765625</ele>
        <time>2023-07-29T13:20:29.000Z</time>
        <extensions>
          <ns3:TrackPointExtension>
            <ns3:hr>112</ns3:hr>
            <ns3:cad>0</ns3:cad>
          </ns3:TrackPointExtension>
        </extensions>
      </trkpt>
      <trkpt lat="37.75015289895236492156982421875" lon="-107.71296811290085315704345703125">
        <ele>3456.60009765625</ele>
        <time>2023-07-29T13:20:30.000Z</time>
        <extensions>
          <ns3:TrackPointExtension>
            <ns3:hr>112</ns3:hr>
            <ns3:cad>0</ns3:cad>
          </ns3:TrackPointExtension>
        </extensions>
      </trkpt>
      <trkpt lat="37.75015373714268207550048828125" lon="-107.712969370186328887939453125">
        <ele>3456.60009765625</ele>
        <time>2023-07-29T13:20:31.000Z</time>
        <extensions>
          <ns3:TrackPointExtension>
            <ns3:hr>112</ns3:hr>
            <ns3:cad>0</ns3:cad>
          </ns3:TrackPointExtension>
        </extensions>
      </trkpt>
      <trkpt lat="37.75015306659042835235595703125" lon="-107.7129698731005191802978515625">
        <ele>3456.800048828125</ele>
        <time>2023-07-29T13:20:32.000Z</time>
        <extensions>
          <ns3:TrackPointExtension>
            <ns3:hr>112</ns3:hr>
            <ns3:cad>0</ns3:cad>
          </ns3:TrackPointExtension>
        </extensions>
      </trkpt>
      <trkpt lat="37.75015038438141345977783203125" lon="-107.71296878345310688018798828125">
        <ele>3456.800048828125</ele>
        <time>2023-07-29T13:20:33.000Z</time>
        <extensions>
          <ns3:TrackPointExtension>
            <ns3:hr>112</ns3:hr>
            <ns3:cad>0</ns3:cad>
          </ns3:TrackPointExtension>
        </extensions>
      </trkpt>
      <trkpt lat="37.75015273131430149078369140625" lon="-107.71296710707247257232666015625">
        <ele>3457</ele>
        <time>2023-07-29T13:20:34.000Z</time>
        <extensions>
          <ns3:TrackPointExtension>
            <ns3:hr>112</ns3:hr>
            <ns3:cad>0</ns3:cad>
          </ns3:TrackPointExtension>
        </extensions>
      </trkpt>
      <trkpt lat="37.75015155784785747528076171875" lon="-107.7129645086824893951416015625">
        <ele>3457</ele>
        <time>2023-07-29T13:20:35.000Z</time>
        <extensions>
          <ns3:TrackPointExtension>
            <ns3:hr>111</ns3:hr>
            <ns3:cad>0</ns3:cad>
          </ns3:TrackPointExtension>
        </extensions>
      </trkpt>
      <trkpt lat="37.75015071965754032135009765625" lon="-107.71296299993991851806640625">
        <ele>3457.199951171875</ele>
        <time>2023-07-29T13:20:36.000Z</time>
        <extensions>
          <ns3:TrackPointExtension>
            <ns3:hr>111</ns3:hr>
            <ns3:cad>0</ns3:cad>
          </ns3:TrackPointExtension>
        </extensions>
      </trkpt>
      <trkpt lat="37.75015172548592090606689453125" lon="-107.712960653007030487060546875">
        <ele>3457.199951171875</ele>
        <time>2023-07-29T13:20:37.000Z</time>
        <extensions>
          <ns3:TrackPointExtension>
            <ns3:hr>111</ns3:hr>
            <ns3:cad>0</ns3:cad>
          </ns3:TrackPointExtension>
        </extensions>
      </trkpt>
      <trkpt lat="37.7501531504094600677490234375" lon="-107.71295763552188873291015625">
        <ele>3457.199951171875</ele>
        <time>2023-07-29T13:20:38.000Z</time>
        <extensions>
          <ns3:TrackPointExtension>
            <ns3:hr>110</ns3:hr>
            <ns3:cad>0</ns3:cad>
          </ns3:TrackPointExtension>
        </extensions>
      </trkpt>
      <trkpt lat="37.75015625171363353729248046875" lon="-107.71295671351253986358642578125">
        <ele>3457.199951171875</ele>
        <time>2023-07-29T13:20:39.000Z</time>
        <extensions>
          <ns3:TrackPointExtension>
            <ns3:hr>110</ns3:hr>
            <ns3:cad>0</ns3:cad>
          </ns3:TrackPointExtension>
        </extensions>
      </trkpt>
      <trkpt lat="37.75016480125486850738525390625" lon="-107.71296006627380847930908203125">
        <ele>3457.199951171875</ele>
        <time>2023-07-29T13:20:40.000Z</time>
        <extensions>
          <ns3:TrackPointExtension>
            <ns3:hr>110</ns3:hr>
            <ns3:cad>0</ns3:cad>
          </ns3:TrackPointExtension>
        </extensions>
      </trkpt>
      <trkpt lat="37.7501675672829151153564453125" lon="-107.7129611559212207794189453125">
        <ele>3457</ele>
        <time>2023-07-29T13:20:41.000Z</time>
        <extensions>
          <ns3:TrackPointExtension>
            <ns3:hr>110</ns3:hr>
            <ns3:cad>0</ns3:cad>
          </ns3:TrackPointExtension>
        </extensions>
      </trkpt>
      <trkpt lat="37.750170417129993438720703125" lon="-107.712962329387664794921875">
        <ele>3457</ele>
        <time>2023-07-29T13:20:42.000Z</time>
        <extensions>
          <ns3:TrackPointExtension>
            <ns3:hr>109</ns3:hr>
            <ns3:cad>0</ns3:cad>
          </ns3:TrackPointExtension>
        </extensions>
      </trkpt>
      <trkpt lat="37.7501722611486911773681640625" lon="-107.71296258084475994110107421875">
        <ele>3456.800048828125</ele>
        <time>2023-07-29T13:20:43.000Z</time>
        <extensions>
          <ns3:TrackPointExtension>
            <ns3:hr>108</ns3:hr>
            <ns3:cad>0</ns3:cad>
          </ns3:TrackPointExtension>
        </extensions>
      </trkpt>
      <trkpt lat="37.7501754462718963623046875" lon="-107.712962664663791656494140625">
        <ele>3456.800048828125</ele>
        <time>2023-07-29T13:20:44.000Z</time>
        <extensions>
          <ns3:TrackPointExtension>
            <ns3:hr>108</ns3:hr>
            <ns3:cad>0</ns3:cad>
          </ns3:TrackPointExtension>
        </extensions>
      </trkpt>
      <trkpt lat="37.75017745792865753173828125" lon="-107.712960653007030487060546875">
        <ele>3456.60009765625</ele>
        <time>2023-07-29T13:20:45.000Z</time>
        <extensions>
          <ns3:TrackPointExtension>
            <ns3:hr>107</ns3:hr>
            <ns3:cad>0</ns3:cad>
          </ns3:TrackPointExtension>
        </extensions>
      </trkpt>
      <trkpt lat="37.75017854757606983184814453125" lon="-107.71296073682606220245361328125">
        <ele>3456.60009765625</ele>
        <time>2023-07-29T13:20:46.000Z</time>
        <extensions>
          <ns3:TrackPointExtension>
            <ns3:hr>107</ns3:hr>
            <ns3:cad>0</ns3:cad>
          </ns3:TrackPointExtension>
        </extensions>
      </trkpt>
      <trkpt lat="37.7501756139099597930908203125" lon="-107.7129571326076984405517578125">
        <ele>3456.60009765625</ele>
        <time>2023-07-29T13:20:47.000Z</time>
        <extensions>
          <ns3:TrackPointExtension>
            <ns3:hr>107</ns3:hr>
            <ns3:cad>0</ns3:cad>
          </ns3:TrackPointExtension>
        </extensions>
      </trkpt>
      <trkpt lat="37.75016798637807369232177734375" lon="-107.7129556238651275634765625">
        <ele>3456.60009765625</ele>
        <time>2023-07-29T13:20:48.000Z</time>
        <extensions>
          <ns3:TrackPointExtension>
            <ns3:hr>107</ns3:hr>
            <ns3:cad>0</ns3:cad>
          </ns3:TrackPointExtension>
        </extensions>
      </trkpt>
      <trkpt lat="37.75016781874001026153564453125" lon="-107.71295520476996898651123046875">
        <ele>3456.60009765625</ele>
        <time>2023-07-29T13:20:49.000Z</time>
        <extensions>
          <ns3:TrackPointExtension>
            <ns3:hr>107</ns3:hr>
            <ns3:cad>0</ns3:cad>
          </ns3:TrackPointExtension>
        </extensions>
      </trkpt>
      <trkpt lat="37.75016270577907562255859375" lon="-107.712953947484493255615234375">
        <ele>3456.60009765625</ele>
        <time>2023-07-29T13:20:50.000Z</time>
        <extensions>
          <ns3:TrackPointExtension>
            <ns3:hr>107</ns3:hr>
            <ns3:cad>0</ns3:cad>
          </ns3:TrackPointExtension>
        </extensions>
      </trkpt>
      <trkpt lat="37.75015893392264842987060546875" lon="-107.71295151673257350921630859375">
        <ele>3456.60009765625</ele>
        <time>2023-07-29T13:20:51.000Z</time>
        <extensions>
          <ns3:TrackPointExtension>
            <ns3:hr>108</ns3:hr>
            <ns3:cad>0</ns3:cad>
          </ns3:TrackPointExtension>
        </extensions>
      </trkpt>
      <trkpt lat="37.75015943683683872222900390625" lon="-107.71295051090419292449951171875">
        <ele>3456.39990234375</ele>
        <time>2023-07-29T13:20:52.000Z</time>
        <extensions>
          <ns3:TrackPointExtension>
            <ns3:hr>109</ns3:hr>
            <ns3:cad>0</ns3:cad>
          </ns3:TrackPointExtension>
        </extensions>
      </trkpt>
      <trkpt lat="37.75016262196004390716552734375" lon="-107.7129497565329074859619140625">
        <ele>3456.39990234375</ele>
        <time>2023-07-29T13:20:53.000Z</time>
        <extensions>
          <ns3:TrackPointExtension>
            <ns3:hr>110</ns3:hr>
            <ns3:cad>0</ns3:cad>
          </ns3:TrackPointExtension>
        </extensions>
      </trkpt>
      <trkpt lat="37.7501642145216464996337890625" lon="-107.71294891834259033203125">
        <ele>3456.39990234375</ele>
        <time>2023-07-29T13:20:54.000Z</time>
        <extensions>
          <ns3:TrackPointExtension>
            <ns3:hr>111</ns3:hr>
            <ns3:cad>0</ns3:cad>
          </ns3:TrackPointExtension>
        </extensions>
      </trkpt>
      <trkpt lat="37.75016915984451770782470703125" lon="-107.71294682286679744720458984375">
        <ele>3456.39990234375</ele>
        <time>2023-07-29T13:20:55.000Z</time>
        <extensions>
          <ns3:TrackPointExtension>
            <ns3:hr>112</ns3:hr>
            <ns3:cad>0</ns3:cad>
          </ns3:TrackPointExtension>
        </extensions>
      </trkpt>
      <trkpt lat="37.75017519481480121612548828125" lon="-107.7129467390477657318115234375">
        <ele>3456.39990234375</ele>
        <time>2023-07-29T13:20:56.000Z</time>
        <extensions>
          <ns3:TrackPointExtension>
            <ns3:hr>112</ns3:hr>
            <ns3:cad>0</ns3:cad>
          </ns3:TrackPointExtension>
        </extensions>
      </trkpt>
      <trkpt lat="37.75018173269927501678466796875" lon="-107.71294095553457736968994140625">
        <ele>3456.39990234375</ele>
        <time>2023-07-29T13:20:57.000Z</time>
        <extensions>
          <ns3:TrackPointExtension>
            <ns3:hr>112</ns3:hr>
            <ns3:cad>0</ns3:cad>
          </ns3:TrackPointExtension>
        </extensions>
      </trkpt>
      <trkpt lat="37.75018475018441677093505859375" lon="-107.71293324418365955352783203125">
        <ele>3456.39990234375</ele>
        <time>2023-07-29T13:20:58.000Z</time>
        <extensions>
          <ns3:TrackPointExtension>
            <ns3:hr>113</ns3:hr>
            <ns3:cad>0</ns3:cad>
          </ns3:TrackPointExtension>
        </extensions>
      </trkpt>
      <trkpt lat="37.75018206797540187835693359375" lon="-107.712935172021389007568359375">
        <ele>3456.39990234375</ele>
        <time>2023-07-29T13:20:59.000Z</time>
        <extensions>
          <ns3:TrackPointExtension>
            <ns3:hr>113</ns3:hr>
            <ns3:cad>0</ns3:cad>
          </ns3:TrackPointExtension>
        </extensions>
      </trkpt>
      <trkpt lat="37.7501722611486911773681640625" lon="-107.7129460684955120086669921875">
        <ele>3456.39990234375</ele>
        <time>2023-07-29T13:21:00.000Z</time>
        <extensions>
          <ns3:TrackPointExtension>
            <ns3:hr>114</ns3:hr>
            <ns3:cad>0</ns3:cad>
          </ns3:TrackPointExtension>
        </extensions>
      </trkpt>
      <trkpt lat="37.75016899220645427703857421875" lon="-107.7129514329135417938232421875">
        <ele>3456.800048828125</ele>
        <time>2023-07-29T13:21:01.000Z</time>
        <extensions>
          <ns3:TrackPointExtension>
            <ns3:hr>113</ns3:hr>
            <ns3:cad>0</ns3:cad>
          </ns3:TrackPointExtension>
        </extensions>
      </trkpt>
      <trkpt lat="37.7501727640628814697265625" lon="-107.712951600551605224609375">
        <ele>3457</ele>
        <time>2023-07-29T13:21:02.000Z</time>
        <extensions>
          <ns3:TrackPointExtension>
            <ns3:hr>113</ns3:hr>
            <ns3:cad>0</ns3:cad>
          </ns3:TrackPointExtension>
        </extensions>
      </trkpt>
      <trkpt lat="37.75017821229994297027587890625" lon="-107.71295185200870037078857421875">
        <ele>3457.199951171875</ele>
        <time>2023-07-29T13:21:03.000Z</time>
        <extensions>
          <ns3:TrackPointExtension>
            <ns3:hr>113</ns3:hr>
            <ns3:cad>0</ns3:cad>
          </ns3:TrackPointExtension>
        </extensions>
      </trkpt>
      <trkpt lat="37.75017603300511837005615234375" lon="-107.71295704878866672515869140625">
        <ele>3457.199951171875</ele>
        <time>2023-07-29T13:21:04.000Z</time>
        <extensions>
          <ns3:TrackPointExtension>
            <ns3:hr>113</ns3:hr>
            <ns3:cad>0</ns3:cad>
          </ns3:TrackPointExtension>
        </extensions>
      </trkpt>
      <trkpt lat="37.75017351843416690826416015625" lon="-107.7129641734063625335693359375">
        <ele>3457.199951171875</ele>
        <time>2023-07-29T13:21:05.000Z</time>
        <extensions>
          <ns3:TrackPointExtension>
            <ns3:hr>112</ns3:hr>
            <ns3:cad>0</ns3:cad>
          </ns3:TrackPointExtension>
        </extensions>
      </trkpt>
      <trkpt lat="37.75017343461513519287109375" lon="-107.71296643652021884918212890625">
        <ele>3457.199951171875</ele>
        <time>2023-07-29T13:21:06.000Z</time>
        <extensions>
          <ns3:TrackPointExtension>
            <ns3:hr>112</ns3:hr>
            <ns3:cad>0</ns3:cad>
          </ns3:TrackPointExtension>
        </extensions>
      </trkpt>
      <trkpt lat="37.75017636828124523162841796875" lon="-107.71296425722539424896240234375">
        <ele>3457.199951171875</ele>
        <time>2023-07-29T13:21:07.000Z</time>
        <extensions>
          <ns3:TrackPointExtension>
            <ns3:hr>112</ns3:hr>
            <ns3:cad>0</ns3:cad>
          </ns3:TrackPointExtension>
        </extensions>
      </trkpt>
      <trkpt lat="37.7501769550144672393798828125" lon="-107.71296157501637935638427734375">
        <ele>3457.199951171875</ele>
        <time>2023-07-29T13:21:08.000Z</time>
        <extensions>
          <ns3:TrackPointExtension>
            <ns3:hr>112</ns3:hr>
            <ns3:cad>0</ns3:cad>
          </ns3:TrackPointExtension>
        </extensions>
      </trkpt>
      <trkpt lat="37.750179134309291839599609375" lon="-107.7129624970257282257080078125">
        <ele>3457.199951171875</ele>
        <time>2023-07-29T13:21:09.000Z</time>
        <extensions>
          <ns3:TrackPointExtension>
            <ns3:hr>112</ns3:hr>
            <ns3:cad>0</ns3:cad>
          </ns3:TrackPointExtension>
        </extensions>
      </trkpt>
      <trkpt lat="37.75018022395670413970947265625" lon="-107.71296258084475994110107421875">
        <ele>3457.199951171875</ele>
        <time>2023-07-29T13:21:10.000Z</time>
        <extensions>
          <ns3:TrackPointExtension>
            <ns3:hr>113</ns3:hr>
            <ns3:cad>0</ns3:cad>
          </ns3:TrackPointExtension>
        </extensions>
      </trkpt>
      <trkpt lat="37.75018106214702129364013671875" lon="-107.71296744234859943389892578125">
        <ele>3457.199951171875</ele>
        <time>2023-07-29T13:21:11.000Z</time>
        <extensions>
          <ns3:TrackPointExtension>
            <ns3:hr>113</ns3:hr>
            <ns3:cad>0</ns3:cad>
          </ns3:TrackPointExtension>
        </extensions>
      </trkpt>
      <trkpt lat="37.7501836605370044708251953125" lon="-107.71297029219567775726318359375">
        <ele>3457.199951171875</ele>
        <time>2023-07-29T13:21:12.000Z</time>
        <extensions>
          <ns3:TrackPointExtension>
            <ns3:hr>112</ns3:hr>
            <ns3:cad>0</ns3:cad>
          </ns3:TrackPointExtension>
        </extensions>
      </trkpt>
      <trkpt lat="37.75018793530762195587158203125" lon="-107.71297180093824863433837890625">
        <ele>3457.39990234375</ele>
        <time>2023-07-29T13:21:13.000Z</time>
        <extensions>
          <ns3:TrackPointExtension>
            <ns3:hr>111</ns3:hr>
            <ns3:cad>0</ns3:cad>
          </ns3:TrackPointExtension>
        </extensions>
      </trkpt>
      <trkpt lat="37.7501907013356685638427734375" lon="-107.712972722947597503662109375">
        <ele>3457.39990234375</ele>
        <time>2023-07-29T13:21:14.000Z</time>
        <extensions>
          <ns3:TrackPointExtension>
            <ns3:hr>101</ns3:hr>
            <ns3:cad>0</ns3:cad>
          </ns3:TrackPointExtension>
        </extensions>
      </trkpt>
      <trkpt lat="37.75018609128892421722412109375" lon="-107.712973393499851226806640625">
        <ele>3457.39990234375</ele>
        <time>2023-07-29T13:21:15.000Z</time>
        <extensions>
          <ns3:TrackPointExtension>
            <ns3:hr>95</ns3:hr>
            <ns3:cad>0</ns3:cad>
          </ns3:TrackPointExtension>
        </extensions>
      </trkpt>
      <trkpt lat="37.75018927641212940216064453125" lon="-107.71297372877597808837890625">
        <ele>3457.39990234375</ele>
        <time>2023-07-29T13:21:16.000Z</time>
        <extensions>
          <ns3:TrackPointExtension>
            <ns3:hr>94</ns3:hr>
            <ns3:cad>0</ns3:cad>
          </ns3:TrackPointExtension>
        </extensions>
      </trkpt>
      <trkpt lat="37.75018491782248020172119140625" lon="-107.71297347731888294219970703125">
        <ele>3457.39990234375</ele>
        <time>2023-07-29T13:21:17.000Z</time>
        <extensions>
          <ns3:TrackPointExtension>
            <ns3:hr>93</ns3:hr>
            <ns3:cad>0</ns3:cad>
          </ns3:TrackPointExtension>
        </extensions>
      </trkpt>
      <trkpt lat="37.75018475018441677093505859375" lon="-107.7129681967198848724365234375">
        <ele>3457.39990234375</ele>
        <time>2023-07-29T13:21:18.000Z</time>
        <extensions>
          <ns3:TrackPointExtension>
            <ns3:hr>92</ns3:hr>
            <ns3:cad>0</ns3:cad>
          </ns3:TrackPointExtension>
        </extensions>
      </trkpt>
      <trkpt lat="37.75018340907990932464599609375" lon="-107.7129636704921722412109375">
        <ele>3457.39990234375</ele>
        <time>2023-07-29T13:21:19.000Z</time>
        <extensions>
          <ns3:TrackPointExtension>
            <ns3:hr>91</ns3:hr>
            <ns3:cad>0</ns3:cad>
          </ns3:TrackPointExtension>
        </extensions>
      </trkpt>
      <trkpt lat="37.75018273852765560150146484375" lon="-107.712956629693508148193359375">
        <ele>3457.199951171875</ele>
        <time>2023-07-29T13:21:20.000Z</time>
        <extensions>
          <ns3:TrackPointExtension>
            <ns3:hr>90</ns3:hr>
            <ns3:cad>0</ns3:cad>
          </ns3:TrackPointExtension>
        </extensions>
      </trkpt>
      <trkpt lat="37.750184834003448486328125" lon="-107.71294891834259033203125">
        <ele>3457</ele>
        <time>2023-07-29T13:21:21.000Z</time>
        <extensions>
          <ns3:TrackPointExtension>
            <ns3:hr>89</ns3:hr>
            <ns3:cad>0</ns3:cad>
          </ns3:TrackPointExtension>
        </extensions>
      </trkpt>
      <trkpt lat="37.7501856721937656402587890625" lon="-107.7129413746297359466552734375">
        <ele>3457</ele>
        <time>2023-07-29T13:21:22.000Z</time>
        <extensions>
          <ns3:TrackPointExtension>
            <ns3:hr>89</ns3:hr>
            <ns3:cad>0</ns3:cad>
          </ns3:TrackPointExtension>
        </extensions>
      </trkpt>
      <trkpt lat="37.7501861751079559326171875" lon="-107.712933160364627838134765625">
        <ele>3457</ele>
        <time>2023-07-29T13:21:23.000Z</time>
        <extensions>
          <ns3:TrackPointExtension>
            <ns3:hr>88</ns3:hr>
            <ns3:cad>0</ns3:cad>
          </ns3:TrackPointExtension>
        </extensions>
      </trkpt>
      <trkpt lat="37.75018508546054363250732421875" lon="-107.71292771212756633758544921875">
        <ele>3457</ele>
        <time>2023-07-29T13:21:24.000Z</time>
        <extensions>
          <ns3:TrackPointExtension>
            <ns3:hr>88</ns3:hr>
            <ns3:cad>0</ns3:cad>
          </ns3:TrackPointExtension>
        </extensions>
      </trkpt>
      <trkpt lat="37.7501839958131313323974609375" lon="-107.71292586810886859893798828125">
        <ele>3457.199951171875</ele>
        <time>2023-07-29T13:21:25.000Z</time>
        <extensions>
          <ns3:TrackPointExtension>
            <ns3:hr>88</ns3:hr>
            <ns3:cad>0</ns3:cad>
          </ns3:TrackPointExtension>
        </extensions>
      </trkpt>
      <trkpt lat="37.75018240325152873992919921875" lon="-107.712923772633075714111328125">
        <ele>3457.199951171875</ele>
        <time>2023-07-29T13:21:26.000Z</time>
        <extensions>
          <ns3:TrackPointExtension>
            <ns3:hr>88</ns3:hr>
            <ns3:cad>0</ns3:cad>
          </ns3:TrackPointExtension>
        </extensions>
      </trkpt>
      <trkpt lat="37.750177122652530670166015625" lon="-107.71292352117598056793212890625">
        <ele>3457.39990234375</ele>
        <time>2023-07-29T13:21:27.000Z</time>
        <extensions>
          <ns3:TrackPointExtension>
            <ns3:hr>90</ns3:hr>
            <ns3:cad>0</ns3:cad>
          </ns3:TrackPointExtension>
        </extensions>
      </trkpt>
      <trkpt lat="37.7501772902905941009521484375" lon="-107.71293039433658123016357421875">
        <ele>3457.39990234375</ele>
        <time>2023-07-29T13:21:28.000Z</time>
        <extensions>
          <ns3:TrackPointExtension>
            <ns3:hr>92</ns3:hr>
            <ns3:cad>0</ns3:cad>
          </ns3:TrackPointExtension>
        </extensions>
      </trkpt>
      <trkpt lat="37.7501727640628814697265625" lon="-107.71293508820235729217529296875">
        <ele>3457.39990234375</ele>
        <time>2023-07-29T13:21:29.000Z</time>
        <extensions>
          <ns3:TrackPointExtension>
            <ns3:hr>92</ns3:hr>
            <ns3:cad>0</ns3:cad>
          </ns3:TrackPointExtension>
        </extensions>
      </trkpt>
      <trkpt lat="37.75017184205353260040283203125" lon="-107.7129475772380828857421875">
        <ele>3457.39990234375</ele>
        <time>2023-07-29T13:21:30.000Z</time>
        <extensions>
          <ns3:TrackPointExtension>
            <ns3:hr>92</ns3:hr>
            <ns3:cad>0</ns3:cad>
          </ns3:TrackPointExtension>
        </extensions>
      </trkpt>
      <trkpt lat="37.75017184205353260040283203125" lon="-107.712951600551605224609375">
        <ele>3457.199951171875</ele>
        <time>2023-07-29T13:21:31.000Z</time>
        <extensions>
          <ns3:TrackPointExtension>
            <ns3:hr>93</ns3:hr>
            <ns3:cad>0</ns3:cad>
          </ns3:TrackPointExtension>
        </extensions>
      </trkpt>
      <trkpt lat="37.75017050094902515411376953125" lon="-107.71295771934092044830322265625">
        <ele>3457.199951171875</ele>
        <time>2023-07-29T13:21:32.000Z</time>
        <extensions>
          <ns3:TrackPointExtension>
            <ns3:hr>93</ns3:hr>
            <ns3:cad>0</ns3:cad>
          </ns3:TrackPointExtension>
        </extensions>
      </trkpt>
      <trkpt lat="37.75017133913934230804443359375" lon="-107.7129604853689670562744140625">
        <ele>3457.199951171875</ele>
        <time>2023-07-29T13:21:33.000Z</time>
        <extensions>
          <ns3:TrackPointExtension>
            <ns3:hr>94</ns3:hr>
            <ns3:cad>0</ns3:cad>
          </ns3:TrackPointExtension>
        </extensions>
      </trkpt>
      <trkpt lat="37.75016983039677143096923828125" lon="-107.7129594795405864715576171875">
        <ele>3457.199951171875</ele>
        <time>2023-07-29T13:21:34.000Z</time>
        <extensions>
          <ns3:TrackPointExtension>
            <ns3:hr>94</ns3:hr>
            <ns3:cad>0</ns3:cad>
          </ns3:TrackPointExtension>
        </extensions>
      </trkpt>
      <trkpt lat="37.750167064368724822998046875" lon="-107.71295897662639617919921875">
        <ele>3457.199951171875</ele>
        <time>2023-07-29T13:21:35.000Z</time>
        <extensions>
          <ns3:TrackPointExtension>
            <ns3:hr>94</ns3:hr>
            <ns3:cad>0</ns3:cad>
          </ns3:TrackPointExtension>
        </extensions>
      </trkpt>
      <trkpt lat="37.7501632086932659149169921875" lon="-107.7129537798464298248291015625">
        <ele>3457.199951171875</ele>
        <time>2023-07-29T13:21:36.000Z</time>
        <extensions>
          <ns3:TrackPointExtension>
            <ns3:hr>94</ns3:hr>
            <ns3:cad>0</ns3:cad>
          </ns3:TrackPointExtension>
        </extensions>
      </trkpt>
      <trkpt lat="37.75016496889293193817138671875" lon="-107.7129524387419223785400390625">
        <ele>3457.199951171875</ele>
        <time>2023-07-29T13:21:37.000Z</time>
        <extensions>
          <ns3:TrackPointExtension>
            <ns3:hr>94</ns3:hr>
            <ns3:cad>0</ns3:cad>
          </ns3:TrackPointExtension>
        </extensions>
      </trkpt>
      <trkpt lat="37.75017284788191318511962890625" lon="-107.71295201964676380157470703125">
        <ele>3457.39990234375</ele>
        <time>2023-07-29T13:21:38.000Z</time>
        <extensions>
          <ns3:TrackPointExtension>
            <ns3:hr>94</ns3:hr>
            <ns3:cad>0</ns3:cad>
          </ns3:TrackPointExtension>
        </extensions>
      </trkpt>
      <trkpt lat="37.750177793204784393310546875" lon="-107.712951265275478363037109375">
        <ele>3457.39990234375</ele>
        <time>2023-07-29T13:21:39.000Z</time>
        <extensions>
          <ns3:TrackPointExtension>
            <ns3:hr>94</ns3:hr>
            <ns3:cad>0</ns3:cad>
          </ns3:TrackPointExtension>
        </extensions>
      </trkpt>
      <trkpt lat="37.75017519481480121612548828125" lon="-107.7129527740180492401123046875">
        <ele>3457.60009765625</ele>
        <time>2023-07-29T13:21:40.000Z</time>
        <extensions>
          <ns3:TrackPointExtension>
            <ns3:hr>94</ns3:hr>
            <ns3:cad>0</ns3:cad>
          </ns3:TrackPointExtension>
        </extensions>
      </trkpt>
      <trkpt lat="37.750173099339008331298828125" lon="-107.71295386366546154022216796875">
        <ele>3457.60009765625</ele>
        <time>2023-07-29T13:21:41.000Z</time>
        <extensions>
          <ns3:TrackPointExtension>
            <ns3:hr>94</ns3:hr>
            <ns3:cad>0</ns3:cad>
          </ns3:TrackPointExtension>
        </extensions>
      </trkpt>
      <trkpt lat="37.7501709200441837310791015625" lon="-107.7129556238651275634765625">
        <ele>3457.60009765625</ele>
        <time>2023-07-29T13:21:42.000Z</time>
        <extensions>
          <ns3:TrackPointExtension>
            <ns3:hr>95</ns3:hr>
            <ns3:cad>0</ns3:cad>
          </ns3:TrackPointExtension>
        </extensions>
      </trkpt>
      <trkpt lat="37.75017251260578632354736328125" lon="-107.7129557915031909942626953125">
        <ele>3457.60009765625</ele>
        <time>2023-07-29T13:21:43.000Z</time>
        <extensions>
          <ns3:TrackPointExtension>
            <ns3:hr>97</ns3:hr>
            <ns3:cad>0</ns3:cad>
          </ns3:TrackPointExtension>
        </extensions>
      </trkpt>
      <trkpt lat="37.75017217732965946197509765625" lon="-107.7129561267793178558349609375">
        <ele>3457.60009765625</ele>
        <time>2023-07-29T13:21:44.000Z</time>
        <extensions>
          <ns3:TrackPointExtension>
            <ns3:hr>100</ns3:hr>
            <ns3:cad>0</ns3:cad>
          </ns3:TrackPointExtension>
        </extensions>
      </trkpt>
      <trkpt lat="37.7501714229583740234375" lon="-107.71295621059834957122802734375">
        <ele>3457.60009765625</ele>
        <time>2023-07-29T13:21:45.000Z</time>
        <extensions>
          <ns3:TrackPointExtension>
            <ns3:hr>100</ns3:hr>
            <ns3:cad>0</ns3:cad>
          </ns3:TrackPointExtension>
        </extensions>
      </trkpt>
      <trkpt lat="37.7501700818538665771484375" lon="-107.7129531092941761016845703125">
        <ele>3457.60009765625</ele>
        <time>2023-07-29T13:21:46.000Z</time>
        <extensions>
          <ns3:TrackPointExtension>
            <ns3:hr>101</ns3:hr>
            <ns3:cad>0</ns3:cad>
          </ns3:TrackPointExtension>
        </extensions>
      </trkpt>
      <trkpt lat="37.7501702494919300079345703125" lon="-107.712951935827732086181640625">
        <ele>3457.60009765625</ele>
        <time>2023-07-29T13:21:47.000Z</time>
        <extensions>
          <ns3:TrackPointExtension>
            <ns3:hr>101</ns3:hr>
            <ns3:cad>0</ns3:cad>
          </ns3:TrackPointExtension>
        </extensions>
      </trkpt>
      <trkpt lat="37.75016999803483486175537109375" lon="-107.71295034326612949371337890625">
        <ele>3457.60009765625</ele>
        <time>2023-07-29T13:21:48.000Z</time>
        <extensions>
          <ns3:TrackPointExtension>
            <ns3:hr>101</ns3:hr>
            <ns3:cad>0</ns3:cad>
          </ns3:TrackPointExtension>
        </extensions>
      </trkpt>
      <trkpt lat="37.7501712553203105926513671875" lon="-107.7129480801522731781005859375">
        <ele>3457.60009765625</ele>
        <time>2023-07-29T13:21:49.000Z</time>
        <extensions>
          <ns3:TrackPointExtension>
            <ns3:hr>101</ns3:hr>
            <ns3:cad>0</ns3:cad>
          </ns3:TrackPointExtension>
        </extensions>
      </trkpt>
      <trkpt lat="37.7501673996448516845703125" lon="-107.71294665522873401641845703125">
        <ele>3457.60009765625</ele>
        <time>2023-07-29T13:21:50.000Z</time>
        <extensions>
          <ns3:TrackPointExtension>
            <ns3:hr>101</ns3:hr>
            <ns3:cad>0</ns3:cad>
          </ns3:TrackPointExtension>
        </extensions>
      </trkpt>
      <trkpt lat="37.75016714818775653839111328125" lon="-107.71294564940035343170166015625">
        <ele>3457.60009765625</ele>
        <time>2023-07-29T13:21:51.000Z</time>
        <extensions>
          <ns3:TrackPointExtension>
            <ns3:hr>101</ns3:hr>
            <ns3:cad>0</ns3:cad>
          </ns3:TrackPointExtension>
        </extensions>
      </trkpt>
      <trkpt lat="37.75016681291162967681884765625" lon="-107.71294430829584598541259765625">
        <ele>3457.60009765625</ele>
        <time>2023-07-29T13:21:52.000Z</time>
        <extensions>
          <ns3:TrackPointExtension>
            <ns3:hr>101</ns3:hr>
            <ns3:cad>0</ns3:cad>
          </ns3:TrackPointExtension>
        </extensions>
      </trkpt>
      <trkpt lat="37.75016731582581996917724609375" lon="-107.712941877543926239013671875">
        <ele>3457.60009765625</ele>
        <time>2023-07-29T13:21:53.000Z</time>
        <extensions>
          <ns3:TrackPointExtension>
            <ns3:hr>101</ns3:hr>
            <ns3:cad>0</ns3:cad>
          </ns3:TrackPointExtension>
        </extensions>
      </trkpt>
      <trkpt lat="37.75016630999743938446044921875" lon="-107.712940871715545654296875">
        <ele>3457.60009765625</ele>
        <time>2023-07-29T13:21:54.000Z</time>
        <extensions>
          <ns3:TrackPointExtension>
            <ns3:hr>100</ns3:hr>
            <ns3:cad>0</ns3:cad>
          </ns3:TrackPointExtension>
        </extensions>
      </trkpt>
      <trkpt lat="37.7501699142158031463623046875" lon="-107.7129427157342433929443359375">
        <ele>3457.60009765625</ele>
        <time>2023-07-29T13:21:55.000Z</time>
        <extensions>
          <ns3:TrackPointExtension>
            <ns3:hr>100</ns3:hr>
            <ns3:cad>0</ns3:cad>
          </ns3:TrackPointExtension>
        </extensions>
      </trkpt>
      <trkpt lat="37.75016999803483486175537109375" lon="-107.71294598467648029327392578125">
        <ele>3457.60009765625</ele>
        <time>2023-07-29T13:21:56.000Z</time>
        <extensions>
          <ns3:TrackPointExtension>
            <ns3:hr>100</ns3:hr>
            <ns3:cad>0</ns3:cad>
          </ns3:TrackPointExtension>
        </extensions>
      </trkpt>
      <trkpt lat="37.750175781548023223876953125" lon="-107.7129490859806537628173828125">
        <ele>3457.60009765625</ele>
        <time>2023-07-29T13:21:57.000Z</time>
        <extensions>
          <ns3:TrackPointExtension>
            <ns3:hr>100</ns3:hr>
            <ns3:cad>0</ns3:cad>
          </ns3:TrackPointExtension>
        </extensions>
      </trkpt>
      <trkpt lat="37.75017854757606983184814453125" lon="-107.71295654587447643280029296875">
        <ele>3457.60009765625</ele>
        <time>2023-07-29T13:21:58.000Z</time>
        <extensions>
          <ns3:TrackPointExtension>
            <ns3:hr>100</ns3:hr>
            <ns3:cad>0</ns3:cad>
          </ns3:TrackPointExtension>
        </extensions>
      </trkpt>
      <trkpt lat="37.750179804861545562744140625" lon="-107.71296509541571140289306640625">
        <ele>3457.60009765625</ele>
        <time>2023-07-29T13:21:59.000Z</time>
        <extensions>
          <ns3:TrackPointExtension>
            <ns3:hr>99</ns3:hr>
            <ns3:cad>0</ns3:cad>
          </ns3:TrackPointExtension>
        </extensions>
      </trkpt>
      <trkpt lat="37.7501789666712284088134765625" lon="-107.712980769574642181396484375">
        <ele>3457.60009765625</ele>
        <time>2023-07-29T13:22:00.000Z</time>
        <extensions>
          <ns3:TrackPointExtension>
            <ns3:hr>97</ns3:hr>
            <ns3:cad>0</ns3:cad>
          </ns3:TrackPointExtension>
        </extensions>
      </trkpt>
      <trkpt lat="37.75017745792865753173828125" lon="-107.7129856310784816741943359375">
        <ele>3457.60009765625</ele>
        <time>2023-07-29T13:22:01.000Z</time>
        <extensions>
          <ns3:TrackPointExtension>
            <ns3:hr>95</ns3:hr>
            <ns3:cad>0</ns3:cad>
          </ns3:TrackPointExtension>
        </extensions>
      </trkpt>
      <trkpt lat="37.7501754462718963623046875" lon="-107.713000215590000152587890625">
        <ele>3457.60009765625</ele>
        <time>2023-07-29T13:22:02.000Z</time>
        <extensions>
          <ns3:TrackPointExtension>
            <ns3:hr>93</ns3:hr>
            <ns3:cad>0</ns3:cad>
          </ns3:TrackPointExtension>
        </extensions>
      </trkpt>
      <trkpt lat="37.75017477571964263916015625" lon="-107.71301303990185260772705078125">
        <ele>3458</ele>
        <time>2023-07-29T13:22:03.000Z</time>
        <extensions>
          <ns3:TrackPointExtension>
            <ns3:hr>93</ns3:hr>
            <ns3:cad>0</ns3:cad>
          </ns3:TrackPointExtension>
        </extensions>
      </trkpt>
      <trkpt lat="37.7501766197383403778076171875" lon="-107.71302108652889728546142578125">
        <ele>3458.199951171875</ele>
        <time>2023-07-29T13:22:04.000Z</time>
        <extensions>
          <ns3:TrackPointExtension>
            <ns3:hr>93</ns3:hr>
            <ns3:cad>0</ns3:cad>
          </ns3:TrackPointExtension>
        </extensions>
      </trkpt>
      <trkpt lat="37.7501772902905941009521484375" lon="-107.71303114481270313262939453125">
        <ele>3458.199951171875</ele>
        <time>2023-07-29T13:22:05.000Z</time>
        <extensions>
          <ns3:TrackPointExtension>
            <ns3:hr>93</ns3:hr>
            <ns3:cad>0</ns3:cad>
          </ns3:TrackPointExtension>
        </extensions>
      </trkpt>
      <trkpt lat="37.750184498727321624755859375" lon="-107.7130409516394138336181640625">
        <ele>3458.39990234375</ele>
        <time>2023-07-29T13:22:06.000Z</time>
        <extensions>
          <ns3:TrackPointExtension>
            <ns3:hr>93</ns3:hr>
            <ns3:cad>0</ns3:cad>
          </ns3:TrackPointExtension>
        </extensions>
      </trkpt>
      <trkpt lat="37.75018977932631969451904296875" lon="-107.71305092610418796539306640625">
        <ele>3458.800048828125</ele>
        <time>2023-07-29T13:22:07.000Z</time>
        <extensions>
          <ns3:TrackPointExtension>
            <ns3:hr>92</ns3:hr>
            <ns3:cad>0</ns3:cad>
          </ns3:TrackPointExtension>
        </extensions>
      </trkpt>
      <trkpt lat="37.750195562839508056640625" lon="-107.7130627445876598358154296875">
        <ele>3459</ele>
        <time>2023-07-29T13:22:08.000Z</time>
        <extensions>
          <ns3:TrackPointExtension>
            <ns3:hr>92</ns3:hr>
            <ns3:cad>0</ns3:cad>
          </ns3:TrackPointExtension>
        </extensions>
      </trkpt>
      <trkpt lat="37.75020168162882328033447265625" lon="-107.71307791583240032196044921875">
        <ele>3459</ele>
        <time>2023-07-29T13:22:09.000Z</time>
        <extensions>
          <ns3:TrackPointExtension>
            <ns3:hr>92</ns3:hr>
            <ns3:cad>0</ns3:cad>
          </ns3:TrackPointExtension>
        </extensions>
      </trkpt>
      <trkpt lat="37.75020503439009189605712890625" lon="-107.71308428607881069183349609375">
        <ele>3459.39990234375</ele>
        <time>2023-07-29T13:22:10.000Z</time>
        <extensions>
          <ns3:TrackPointExtension>
            <ns3:hr>92</ns3:hr>
            <ns3:cad>0</ns3:cad>
          </ns3:TrackPointExtension>
        </extensions>
      </trkpt>
      <trkpt lat="37.7502081356942653656005859375" lon="-107.7130905725061893463134765625">
        <ele>3459.39990234375</ele>
        <time>2023-07-29T13:22:11.000Z</time>
        <extensions>
          <ns3:TrackPointExtension>
            <ns3:hr>92</ns3:hr>
            <ns3:cad>0</ns3:cad>
          </ns3:TrackPointExtension>
        </extensions>
      </trkpt>
      <trkpt lat="37.75021274574100971221923828125" lon="-107.71309233270585536956787109375">
        <ele>3459.800048828125</ele>
        <time>2023-07-29T13:22:12.000Z</time>
        <extensions>
          <ns3:TrackPointExtension>
            <ns3:hr>92</ns3:hr>
            <ns3:cad>0</ns3:cad>
          </ns3:TrackPointExtension>
        </extensions>
      </trkpt>
      <trkpt lat="37.75021743960678577423095703125" lon="-107.7130966074764728546142578125">
        <ele>3460</ele>
        <time>2023-07-29T13:22:13.000Z</time>
        <extensions>
          <ns3:TrackPointExtension>
            <ns3:hr>92</ns3:hr>
            <ns3:cad>0</ns3:cad>
          </ns3:TrackPointExtension>
        </extensions>
      </trkpt>
      <trkpt lat="37.75022464804351329803466796875" lon="-107.7131036482751369476318359375">
        <ele>3460</ele>
        <time>2023-07-29T13:22:14.000Z</time>
        <extensions>
          <ns3:TrackPointExtension>
            <ns3:hr>92</ns3:hr>
            <ns3:cad>0</ns3:cad>
          </ns3:TrackPointExtension>
        </extensions>
      </trkpt>
      <trkpt lat="37.75023286230862140655517578125" lon="-107.71310842595994472503662109375">
        <ele>3460.39990234375</ele>
        <time>2023-07-29T13:22:15.000Z</time>
        <extensions>
          <ns3:TrackPointExtension>
            <ns3:hr>93</ns3:hr>
            <ns3:cad>0</ns3:cad>
          </ns3:TrackPointExtension>
        </extensions>
      </trkpt>
      <trkpt lat="37.75023688562214374542236328125" lon="-107.7131076715886592864990234375">
        <ele>3460.60009765625</ele>
        <time>2023-07-29T13:22:16.000Z</time>
        <extensions>
          <ns3:TrackPointExtension>
            <ns3:hr>93</ns3:hr>
            <ns3:cad>0</ns3:cad>
          </ns3:TrackPointExtension>
        </extensions>
      </trkpt>
      <trkpt lat="37.75024610571563243865966796875" lon="-107.7131116949021816253662109375">
        <ele>3460.800048828125</ele>
        <time>2023-07-29T13:22:17.000Z</time>
        <extensions>
          <ns3:TrackPointExtension>
            <ns3:hr>93</ns3:hr>
            <ns3:cad>0</ns3:cad>
          </ns3:TrackPointExtension>
        </extensions>
      </trkpt>
      <trkpt lat="37.7502544037997722625732421875" lon="-107.71311362273991107940673828125">
        <ele>3461</ele>
        <time>2023-07-29T13:22:18.000Z</time>
        <extensions>
          <ns3:TrackPointExtension>
            <ns3:hr>93</ns3:hr>
            <ns3:cad>0</ns3:cad>
          </ns3:TrackPointExtension>
        </extensions>
      </trkpt>
      <trkpt lat="37.7502693235874176025390625" lon="-107.7131153829395771026611328125">
        <ele>3461.199951171875</ele>
        <time>2023-07-29T13:22:19.000Z</time>
        <extensions>
          <ns3:TrackPointExtension>
            <ns3:hr>93</ns3:hr>
            <ns3:cad>0</ns3:cad>
          </ns3:TrackPointExtension>
        </extensions>
      </trkpt>
      <trkpt lat="37.75028080679476261138916015625" lon="-107.713112868368625640869140625">
        <ele>3461.199951171875</ele>
        <time>2023-07-29T13:22:20.000Z</time>
        <extensions>
          <ns3:TrackPointExtension>
            <ns3:hr>93</ns3:hr>
            <ns3:cad>0</ns3:cad>
          </ns3:TrackPointExtension>
        </extensions>
      </trkpt>
      <trkpt lat="37.7502815611660480499267578125" lon="-107.7131073363125324249267578125">
        <ele>3461.39990234375</ele>
        <time>2023-07-29T13:22:21.000Z</time>
        <extensions>
          <ns3:TrackPointExtension>
            <ns3:hr>93</ns3:hr>
            <ns3:cad>0</ns3:cad>
          </ns3:TrackPointExtension>
        </extensions>
      </trkpt>
      <trkpt lat="37.7502839080989360809326171875" lon="-107.71310155279934406280517578125">
        <ele>3461.39990234375</ele>
        <time>2023-07-29T13:22:22.000Z</time>
        <extensions>
          <ns3:TrackPointExtension>
            <ns3:hr>94</ns3:hr>
            <ns3:cad>0</ns3:cad>
          </ns3:TrackPointExtension>
        </extensions>
      </trkpt>
      <trkpt lat="37.750287093222141265869140625" lon="-107.71309618838131427764892578125">
        <ele>3462</ele>
        <time>2023-07-29T13:22:23.000Z</time>
        <extensions>
          <ns3:TrackPointExtension>
            <ns3:hr>94</ns3:hr>
            <ns3:cad>47</ns3:cad>
          </ns3:TrackPointExtension>
        </extensions>
      </trkpt>
      <trkpt lat="37.75030058808624744415283203125" lon="-107.71308830939233303070068359375">
        <ele>3462</ele>
        <time>2023-07-29T13:22:24.000Z</time>
        <extensions>
          <ns3:TrackPointExtension>
            <ns3:hr>94</ns3:hr>
            <ns3:cad>47</ns3:cad>
          </ns3:TrackPointExtension>
        </extensions>
      </trkpt>
      <trkpt lat="37.75031081400811672210693359375" lon="-107.71307925693690776824951171875">
        <ele>3462.39990234375</ele>
        <time>2023-07-29T13:22:25.000Z</time>
        <extensions>
          <ns3:TrackPointExtension>
            <ns3:hr>94</ns3:hr>
            <ns3:cad>47</ns3:cad>
          </ns3:TrackPointExtension>
        </extensions>
      </trkpt>
      <trkpt lat="37.75031693279743194580078125" lon="-107.71307238377630710601806640625">
        <ele>3462.60009765625</ele>
        <time>2023-07-29T13:22:26.000Z</time>
        <extensions>
          <ns3:TrackPointExtension>
            <ns3:hr>96</ns3:hr>
            <ns3:cad>0</ns3:cad>
          </ns3:TrackPointExtension>
        </extensions>
      </trkpt>
      <trkpt lat="37.75032204575836658477783203125" lon="-107.7130667679011821746826171875">
        <ele>3462.60009765625</ele>
        <time>2023-07-29T13:22:27.000Z</time>
        <extensions>
          <ns3:TrackPointExtension>
            <ns3:hr>97</ns3:hr>
            <ns3:cad>0</ns3:cad>
          </ns3:TrackPointExtension>
        </extensions>
      </trkpt>
      <trkpt lat="37.7503301762044429779052734375" lon="-107.71306249313056468963623046875">
        <ele>3462.800048828125</ele>
        <time>2023-07-29T13:22:28.000Z</time>
        <extensions>
          <ns3:TrackPointExtension>
            <ns3:hr>99</ns3:hr>
            <ns3:cad>0</ns3:cad>
          </ns3:TrackPointExtension>
        </extensions>
      </trkpt>
      <trkpt lat="37.75034333579242229461669921875" lon="-107.7130543626844882965087890625">
        <ele>3463.199951171875</ele>
        <time>2023-07-29T13:22:29.000Z</time>
        <extensions>
          <ns3:TrackPointExtension>
            <ns3:hr>100</ns3:hr>
            <ns3:cad>0</ns3:cad>
          </ns3:TrackPointExtension>
        </extensions>
      </trkpt>
      <trkpt lat="37.7503559924662113189697265625" lon="-107.71304656751453876495361328125">
        <ele>3463.199951171875</ele>
        <time>2023-07-29T13:22:30.000Z</time>
        <extensions>
          <ns3:TrackPointExtension>
            <ns3:hr>102</ns3:hr>
            <ns3:cad>0</ns3:cad>
          </ns3:TrackPointExtension>
        </extensions>
      </trkpt>
      <trkpt lat="37.75036253035068511962890625" lon="-107.713043130934238433837890625">
        <ele>3463.60009765625</ele>
        <time>2023-07-29T13:22:31.000Z</time>
        <extensions>
          <ns3:TrackPointExtension>
            <ns3:hr>103</ns3:hr>
            <ns3:cad>0</ns3:cad>
          </ns3:TrackPointExtension>
        </extensions>
      </trkpt>
      <trkpt lat="37.75037099607288837432861328125" lon="-107.71303717978298664093017578125">
        <ele>3463.60009765625</ele>
        <time>2023-07-29T13:22:32.000Z</time>
        <extensions>
          <ns3:TrackPointExtension>
            <ns3:hr>104</ns3:hr>
            <ns3:cad>0</ns3:cad>
          </ns3:TrackPointExtension>
        </extensions>
      </trkpt>
      <trkpt lat="37.75037468411028385162353515625" lon="-107.7130355872213840484619140625">
        <ele>3463.800048828125</ele>
        <time>2023-07-29T13:22:33.000Z</time>
        <extensions>
          <ns3:TrackPointExtension>
            <ns3:hr>106</ns3:hr>
            <ns3:cad>0</ns3:cad>
          </ns3:TrackPointExtension>
        </extensions>
      </trkpt>
      <trkpt lat="37.75038004852831363677978515625" lon="-107.71303131245076656341552734375">
        <ele>3464</ele>
        <time>2023-07-29T13:22:34.000Z</time>
        <extensions>
          <ns3:TrackPointExtension>
            <ns3:hr>107</ns3:hr>
            <ns3:cad>0</ns3:cad>
          </ns3:TrackPointExtension>
        </extensions>
      </trkpt>
      <trkpt lat="37.75038323365151882171630859375" lon="-107.713026367127895355224609375">
        <ele>3464.199951171875</ele>
        <time>2023-07-29T13:22:35.000Z</time>
        <extensions>
          <ns3:TrackPointExtension>
            <ns3:hr>108</ns3:hr>
            <ns3:cad>0</ns3:cad>
          </ns3:TrackPointExtension>
        </extensions>
      </trkpt>
      <trkpt lat="37.75038608349859714508056640625" lon="-107.71302259527146816253662109375">
        <ele>3464.39990234375</ele>
        <time>2023-07-29T13:22:36.000Z</time>
        <extensions>
          <ns3:TrackPointExtension>
            <ns3:hr>109</ns3:hr>
            <ns3:cad>0</ns3:cad>
          </ns3:TrackPointExtension>
        </extensions>
      </trkpt>
      <trkpt lat="37.75039413012564182281494140625" lon="-107.71301337517797946929931640625">
        <ele>3464.60009765625</ele>
        <time>2023-07-29T13:22:37.000Z</time>
        <extensions>
          <ns3:TrackPointExtension>
            <ns3:hr>109</ns3:hr>
            <ns3:cad>0</ns3:cad>
          </ns3:TrackPointExtension>
        </extensions>
      </trkpt>
      <trkpt lat="37.75040267966687679290771484375" lon="-107.71300323307514190673828125">
        <ele>3464.800048828125</ele>
        <time>2023-07-29T13:22:38.000Z</time>
        <extensions>
          <ns3:TrackPointExtension>
            <ns3:hr>108</ns3:hr>
            <ns3:cad>0</ns3:cad>
          </ns3:TrackPointExtension>
        </extensions>
      </trkpt>
      <trkpt lat="37.750404439866542816162109375" lon="-107.71299879066646099090576171875">
        <ele>3465</ele>
        <time>2023-07-29T13:22:39.000Z</time>
        <extensions>
          <ns3:TrackPointExtension>
            <ns3:hr>109</ns3:hr>
            <ns3:cad>0</ns3:cad>
          </ns3:TrackPointExtension>
        </extensions>
      </trkpt>
      <trkpt lat="37.75041139684617519378662109375" lon="-107.7129920013248920440673828125">
        <ele>3465.199951171875</ele>
        <time>2023-07-29T13:22:40.000Z</time>
        <extensions>
          <ns3:TrackPointExtension>
            <ns3:hr>108</ns3:hr>
            <ns3:cad>0</ns3:cad>
          </ns3:TrackPointExtension>
        </extensions>
      </trkpt>
      <trkpt lat="37.75041282176971435546875" lon="-107.7129896543920040130615234375">
        <ele>3465.39990234375</ele>
        <time>2023-07-29T13:22:41.000Z</time>
        <extensions>
          <ns3:TrackPointExtension>
            <ns3:hr>108</ns3:hr>
            <ns3:cad>41</ns3:cad>
          </ns3:TrackPointExtension>
        </extensions>
      </trkpt>
      <trkpt lat="37.75041827000677585601806640625" lon="-107.7129866369068622589111328125">
        <ele>3465.60009765625</ele>
        <time>2023-07-29T13:22:42.000Z</time>
        <extensions>
          <ns3:TrackPointExtension>
            <ns3:hr>108</ns3:hr>
            <ns3:cad>41</ns3:cad>
          </ns3:TrackPointExtension>
        </extensions>
      </trkpt>
      <trkpt lat="37.75042396970093250274658203125" lon="-107.71298269741237163543701171875">
        <ele>3465.800048828125</ele>
        <time>2023-07-29T13:22:43.000Z</time>
        <extensions>
          <ns3:TrackPointExtension>
            <ns3:hr>109</ns3:hr>
            <ns3:cad>41</ns3:cad>
          </ns3:TrackPointExtension>
        </extensions>
      </trkpt>
      <trkpt lat="37.75043000467121601104736328125" lon="-107.7129812724888324737548828125">
        <ele>3466</ele>
        <time>2023-07-29T13:22:44.000Z</time>
        <extensions>
          <ns3:TrackPointExtension>
            <ns3:hr>109</ns3:hr>
            <ns3:cad>41</ns3:cad>
          </ns3:TrackPointExtension>
        </extensions>
      </trkpt>
      <trkpt lat="37.75043629109859466552734375" lon="-107.71298068575561046600341796875">
        <ele>3466.199951171875</ele>
        <time>2023-07-29T13:22:45.000Z</time>
        <extensions>
          <ns3:TrackPointExtension>
            <ns3:hr>110</ns3:hr>
            <ns3:cad>41</ns3:cad>
          </ns3:TrackPointExtension>
        </extensions>
      </trkpt>
      <trkpt lat="37.7504451759159564971923828125" lon="-107.712979428470134735107421875">
        <ele>3466.199951171875</ele>
        <time>2023-07-29T13:22:46.000Z</time>
        <extensions>
          <ns3:TrackPointExtension>
            <ns3:hr>111</ns3:hr>
            <ns3:cad>0</ns3:cad>
          </ns3:TrackPointExtension>
        </extensions>
      </trkpt>
      <trkpt lat="37.7504535578191280364990234375" lon="-107.71298001520335674285888671875">
        <ele>3466.199951171875</ele>
        <time>2023-07-29T13:22:47.000Z</time>
        <extensions>
          <ns3:TrackPointExtension>
            <ns3:hr>111</ns3:hr>
            <ns3:cad>0</ns3:cad>
          </ns3:TrackPointExtension>
        </extensions>
      </trkpt>
      <trkpt lat="37.750465460121631622314453125" lon="-107.712973393499851226806640625">
        <ele>3466.39990234375</ele>
        <time>2023-07-29T13:22:48.000Z</time>
        <extensions>
          <ns3:TrackPointExtension>
            <ns3:hr>112</ns3:hr>
            <ns3:cad>0</ns3:cad>
          </ns3:TrackPointExtension>
        </extensions>
      </trkpt>
      <trkpt lat="37.750476859509944915771484375" lon="-107.71297330968081951141357421875">
        <ele>3466.60009765625</ele>
        <time>2023-07-29T13:22:49.000Z</time>
        <extensions>
          <ns3:TrackPointExtension>
            <ns3:hr>112</ns3:hr>
            <ns3:cad>49</ns3:cad>
          </ns3:TrackPointExtension>
        </extensions>
      </trkpt>
      <trkpt lat="37.7504874207079410552978515625" lon="-107.712972052395343780517578125">
        <ele>3466.800048828125</ele>
        <time>2023-07-29T13:22:50.000Z</time>
        <extensions>
          <ns3:TrackPointExtension>
            <ns3:hr>113</ns3:hr>
            <ns3:cad>49</ns3:cad>
          </ns3:TrackPointExtension>
        </extensions>
      </trkpt>
      <trkpt lat="37.75049605406820774078369140625" lon="-107.712971381843090057373046875">
        <ele>3467</ele>
        <time>2023-07-29T13:22:51.000Z</time>
        <extensions>
          <ns3:TrackPointExtension>
            <ns3:hr>113</ns3:hr>
            <ns3:cad>0</ns3:cad>
          </ns3:TrackPointExtension>
        </extensions>
      </trkpt>
      <trkpt lat="37.75049739517271518707275390625" lon="-107.71297079510986804962158203125">
        <ele>3467</ele>
        <time>2023-07-29T13:22:52.000Z</time>
        <extensions>
          <ns3:TrackPointExtension>
            <ns3:hr>112</ns3:hr>
            <ns3:cad>0</ns3:cad>
          </ns3:TrackPointExtension>
        </extensions>
      </trkpt>
      <trkpt lat="37.750497646629810333251953125" lon="-107.71297096274793148040771484375">
        <ele>3467.39990234375</ele>
        <time>2023-07-29T13:22:53.000Z</time>
        <extensions>
          <ns3:TrackPointExtension>
            <ns3:hr>114</ns3:hr>
            <ns3:cad>0</ns3:cad>
          </ns3:TrackPointExtension>
        </extensions>
      </trkpt>
      <trkpt lat="37.7505045197904109954833984375" lon="-107.71296828053891658782958984375">
        <ele>3467.39990234375</ele>
        <time>2023-07-29T13:22:54.000Z</time>
        <extensions>
          <ns3:TrackPointExtension>
            <ns3:hr>113</ns3:hr>
            <ns3:cad>0</ns3:cad>
          </ns3:TrackPointExtension>
        </extensions>
      </trkpt>
      <trkpt lat="37.75050946511328220367431640625" lon="-107.7129698731005191802978515625">
        <ele>3467.800048828125</ele>
        <time>2023-07-29T13:22:55.000Z</time>
        <extensions>
          <ns3:TrackPointExtension>
            <ns3:hr>113</ns3:hr>
            <ns3:cad>0</ns3:cad>
          </ns3:TrackPointExtension>
        </extensions>
      </trkpt>
      <trkpt lat="37.7505187690258026123046875" lon="-107.7129705436527729034423828125">
        <ele>3467.800048828125</ele>
        <time>2023-07-29T13:22:56.000Z</time>
        <extensions>
          <ns3:TrackPointExtension>
            <ns3:hr>113</ns3:hr>
            <ns3:cad>0</ns3:cad>
          </ns3:TrackPointExtension>
        </extensions>
      </trkpt>
      <trkpt lat="37.75052622891962528228759765625" lon="-107.71297263912856578826904296875">
        <ele>3468</ele>
        <time>2023-07-29T13:22:57.000Z</time>
        <extensions>
          <ns3:TrackPointExtension>
            <ns3:hr>113</ns3:hr>
            <ns3:cad>0</ns3:cad>
          </ns3:TrackPointExtension>
        </extensions>
      </trkpt>
      <trkpt lat="37.7505360357463359832763671875" lon="-107.71297347731888294219970703125">
        <ele>3468.199951171875</ele>
        <time>2023-07-29T13:22:58.000Z</time>
        <extensions>
          <ns3:TrackPointExtension>
            <ns3:hr>114</ns3:hr>
            <ns3:cad>0</ns3:cad>
          </ns3:TrackPointExtension>
        </extensions>
      </trkpt>
      <trkpt lat="37.7505455911159515380859375" lon="-107.71297431550920009613037109375">
        <ele>3468.39990234375</ele>
        <time>2023-07-29T13:22:59.000Z</time>
        <extensions>
          <ns3:TrackPointExtension>
            <ns3:hr>114</ns3:hr>
            <ns3:cad>0</ns3:cad>
          </ns3:TrackPointExtension>
        </extensions>
      </trkpt>
      <trkpt lat="37.7505511231720447540283203125" lon="-107.71297532133758068084716796875">
        <ele>3468.60009765625</ele>
        <time>2023-07-29T13:23:00.000Z</time>
        <extensions>
          <ns3:TrackPointExtension>
            <ns3:hr>114</ns3:hr>
            <ns3:cad>0</ns3:cad>
          </ns3:TrackPointExtension>
        </extensions>
      </trkpt>
      <trkpt lat="37.750554643571376800537109375" lon="-107.7129752375185489654541015625">
        <ele>3468.800048828125</ele>
        <time>2023-07-29T13:23:01.000Z</time>
        <extensions>
          <ns3:TrackPointExtension>
            <ns3:hr>115</ns3:hr>
            <ns3:cad>0</ns3:cad>
          </ns3:TrackPointExtension>
        </extensions>
      </trkpt>
      <trkpt lat="37.75055975653231143951416015625" lon="-107.7129779197275638580322265625">
        <ele>3469</ele>
        <time>2023-07-29T13:23:02.000Z</time>
        <extensions>
          <ns3:TrackPointExtension>
            <ns3:hr>115</ns3:hr>
            <ns3:cad>0</ns3:cad>
          </ns3:TrackPointExtension>
        </extensions>
      </trkpt>
      <trkpt lat="37.75056361220777034759521484375" lon="-107.7129802666604518890380859375">
        <ele>3469.199951171875</ele>
        <time>2023-07-29T13:23:03.000Z</time>
        <extensions>
          <ns3:TrackPointExtension>
            <ns3:hr>114</ns3:hr>
            <ns3:cad>0</ns3:cad>
          </ns3:TrackPointExtension>
        </extensions>
      </trkpt>
      <trkpt lat="37.75056545622646808624267578125" lon="-107.712986133992671966552734375">
        <ele>3469.60009765625</ele>
        <time>2023-07-29T13:23:04.000Z</time>
        <extensions>
          <ns3:TrackPointExtension>
            <ns3:hr>114</ns3:hr>
            <ns3:cad>0</ns3:cad>
          </ns3:TrackPointExtension>
        </extensions>
      </trkpt>
      <trkpt lat="37.75056503713130950927734375" lon="-107.71298890002071857452392578125">
        <ele>3469.800048828125</ele>
        <time>2023-07-29T13:23:05.000Z</time>
        <extensions>
          <ns3:TrackPointExtension>
            <ns3:hr>115</ns3:hr>
            <ns3:cad>0</ns3:cad>
          </ns3:TrackPointExtension>
        </extensions>
      </trkpt>
      <trkpt lat="37.75056813843548297882080078125" lon="-107.7129913307726383209228515625">
        <ele>3470</ele>
        <time>2023-07-29T13:23:06.000Z</time>
        <extensions>
          <ns3:TrackPointExtension>
            <ns3:hr>115</ns3:hr>
            <ns3:cad>0</ns3:cad>
          </ns3:TrackPointExtension>
        </extensions>
      </trkpt>
      <trkpt lat="37.75056713260710239410400390625" lon="-107.712992839515209197998046875">
        <ele>3470.199951171875</ele>
        <time>2023-07-29T13:23:07.000Z</time>
        <extensions>
          <ns3:TrackPointExtension>
            <ns3:hr>115</ns3:hr>
            <ns3:cad>0</ns3:cad>
          </ns3:TrackPointExtension>
        </extensions>
      </trkpt>
      <trkpt lat="37.75056730024516582489013671875" lon="-107.7129933424293994903564453125">
        <ele>3470.199951171875</ele>
        <time>2023-07-29T13:23:08.000Z</time>
        <extensions>
          <ns3:TrackPointExtension>
            <ns3:hr>115</ns3:hr>
            <ns3:cad>0</ns3:cad>
          </ns3:TrackPointExtension>
        </extensions>
      </trkpt>
      <trkpt lat="37.750572077929973602294921875" lon="-107.71299644373357295989990234375">
        <ele>3470.199951171875</ele>
        <time>2023-07-29T13:23:09.000Z</time>
        <extensions>
          <ns3:TrackPointExtension>
            <ns3:hr>116</ns3:hr>
            <ns3:cad>0</ns3:cad>
          </ns3:TrackPointExtension>
        </extensions>
      </trkpt>
      <trkpt lat="37.75057576596736907958984375" lon="-107.71300029940903186798095703125">
        <ele>3470.60009765625</ele>
        <time>2023-07-29T13:23:10.000Z</time>
        <extensions>
          <ns3:TrackPointExtension>
            <ns3:hr>116</ns3:hr>
            <ns3:cad>0</ns3:cad>
          </ns3:TrackPointExtension>
        </extensions>
      </trkpt>
      <trkpt lat="37.75058255530893802642822265625" lon="-107.7130064181983470916748046875">
        <ele>3470.800048828125</ele>
        <time>2023-07-29T13:23:11.000Z</time>
        <extensions>
          <ns3:TrackPointExtension>
            <ns3:hr>116</ns3:hr>
            <ns3:cad>0</ns3:cad>
          </ns3:TrackPointExtension>
        </extensions>
      </trkpt>
      <trkpt lat="37.7505883388221263885498046875" lon="-107.71300750784575939178466796875">
        <ele>3470.800048828125</ele>
        <time>2023-07-29T13:23:12.000Z</time>
        <extensions>
          <ns3:TrackPointExtension>
            <ns3:hr>115</ns3:hr>
            <ns3:cad>0</ns3:cad>
          </ns3:TrackPointExtension>
        </extensions>
      </trkpt>
      <trkpt lat="37.7505980618298053741455078125" lon="-107.713010944426059722900390625">
        <ele>3471</ele>
        <time>2023-07-29T13:23:13.000Z</time>
        <extensions>
          <ns3:TrackPointExtension>
            <ns3:hr>115</ns3:hr>
            <ns3:cad>0</ns3:cad>
          </ns3:TrackPointExtension>
        </extensions>
      </trkpt>
      <trkpt lat="37.7505997382104396820068359375" lon="-107.71301454864442348480224609375">
        <ele>3471.199951171875</ele>
        <time>2023-07-29T13:23:14.000Z</time>
        <extensions>
          <ns3:TrackPointExtension>
            <ns3:hr>116</ns3:hr>
            <ns3:cad>0</ns3:cad>
          </ns3:TrackPointExtension>
        </extensions>
      </trkpt>
      <trkpt lat="37.75060661137104034423828125" lon="-107.71301806904375553131103515625">
        <ele>3471.199951171875</ele>
        <time>2023-07-29T13:23:15.000Z</time>
        <extensions>
          <ns3:TrackPointExtension>
            <ns3:hr>116</ns3:hr>
            <ns3:cad>0</ns3:cad>
          </ns3:TrackPointExtension>
        </extensions>
      </trkpt>
      <trkpt lat="37.75061868131160736083984375" lon="-107.71302460692822933197021484375">
        <ele>3471.39990234375</ele>
        <time>2023-07-29T13:23:16.000Z</time>
        <extensions>
          <ns3:TrackPointExtension>
            <ns3:hr>116</ns3:hr>
            <ns3:cad>0</ns3:cad>
          </ns3:TrackPointExtension>
        </extensions>
      </trkpt>
      <trkpt lat="37.75062580592930316925048828125" lon="-107.713028378784656524658203125">
        <ele>3471.60009765625</ele>
        <time>2023-07-29T13:23:17.000Z</time>
        <extensions>
          <ns3:TrackPointExtension>
            <ns3:hr>116</ns3:hr>
            <ns3:cad>0</ns3:cad>
          </ns3:TrackPointExtension>
        </extensions>
      </trkpt>
      <trkpt lat="37.750632762908935546875" lon="-107.7130349166691303253173828125">
        <ele>3471.800048828125</ele>
        <time>2023-07-29T13:23:18.000Z</time>
        <extensions>
          <ns3:TrackPointExtension>
            <ns3:hr>116</ns3:hr>
            <ns3:cad>0</ns3:cad>
          </ns3:TrackPointExtension>
        </extensions>
      </trkpt>
      <trkpt lat="37.7506346069276332855224609375" lon="-107.71304053254425525665283203125">
        <ele>3472</ele>
        <time>2023-07-29T13:23:19.000Z</time>
        <extensions>
          <ns3:TrackPointExtension>
            <ns3:hr>116</ns3:hr>
            <ns3:cad>47</ns3:cad>
          </ns3:TrackPointExtension>
        </extensions>
      </trkpt>
      <trkpt lat="37.7506426535546779632568359375" lon="-107.71305109374225139617919921875">
        <ele>3472</ele>
        <time>2023-07-29T13:23:20.000Z</time>
        <extensions>
          <ns3:TrackPointExtension>
            <ns3:hr>116</ns3:hr>
            <ns3:cad>47</ns3:cad>
          </ns3:TrackPointExtension>
        </extensions>
      </trkpt>
      <trkpt lat="37.75065329857170581817626953125" lon="-107.7130620740354061126708984375">
        <ele>3472.199951171875</ele>
        <time>2023-07-29T13:23:21.000Z</time>
        <extensions>
          <ns3:TrackPointExtension>
            <ns3:hr>116</ns3:hr>
            <ns3:cad>47</ns3:cad>
          </ns3:TrackPointExtension>
        </extensions>
      </trkpt>
      <trkpt lat="37.75065916590392589569091796875" lon="-107.713069282472133636474609375">
        <ele>3472.39990234375</ele>
        <time>2023-07-29T13:23:22.000Z</time>
        <extensions>
          <ns3:TrackPointExtension>
            <ns3:hr>116</ns3:hr>
            <ns3:cad>47</ns3:cad>
          </ns3:TrackPointExtension>
        </extensions>
      </trkpt>
      <trkpt lat="37.75066427886486053466796875" lon="-107.71307707764208316802978515625">
        <ele>3472.39990234375</ele>
        <time>2023-07-29T13:23:23.000Z</time>
        <extensions>
          <ns3:TrackPointExtension>
            <ns3:hr>116</ns3:hr>
            <ns3:cad>47</ns3:cad>
          </ns3:TrackPointExtension>
        </extensions>
      </trkpt>
      <trkpt lat="37.750668637454509735107421875" lon="-107.71308914758265018463134765625">
        <ele>3472.60009765625</ele>
        <time>2023-07-29T13:23:24.000Z</time>
        <extensions>
          <ns3:TrackPointExtension>
            <ns3:hr>116</ns3:hr>
            <ns3:cad>47</ns3:cad>
          </ns3:TrackPointExtension>
        </extensions>
      </trkpt>
      <trkpt lat="37.7506718225777149200439453125" lon="-107.71309635601937770843505859375">
        <ele>3472.800048828125</ele>
        <time>2023-07-29T13:23:25.000Z</time>
        <extensions>
          <ns3:TrackPointExtension>
            <ns3:hr>116</ns3:hr>
            <ns3:cad>47</ns3:cad>
          </ns3:TrackPointExtension>
        </extensions>
      </trkpt>
      <trkpt lat="37.75066738016903400421142578125" lon="-107.71310373209416866302490234375">
        <ele>3472.800048828125</ele>
        <time>2023-07-29T13:23:26.000Z</time>
        <extensions>
          <ns3:TrackPointExtension>
            <ns3:hr>116</ns3:hr>
            <ns3:cad>47</ns3:cad>
          </ns3:TrackPointExtension>
        </extensions>
      </trkpt>
      <trkpt lat="37.75066603906452655792236328125" lon="-107.7131116949021816253662109375">
        <ele>3473</ele>
        <time>2023-07-29T13:23:27.000Z</time>
        <extensions>
          <ns3:TrackPointExtension>
            <ns3:hr>116</ns3:hr>
            <ns3:cad>0</ns3:cad>
          </ns3:TrackPointExtension>
        </extensions>
      </trkpt>
      <trkpt lat="37.7506636083126068115234375" lon="-107.7131224237382411956787109375">
        <ele>3473</ele>
        <time>2023-07-29T13:23:28.000Z</time>
        <extensions>
          <ns3:TrackPointExtension>
            <ns3:hr>117</ns3:hr>
            <ns3:cad>0</ns3:cad>
          </ns3:TrackPointExtension>
        </extensions>
      </trkpt>
      <trkpt lat="37.750662602484226226806640625" lon="-107.7131368406116962432861328125">
        <ele>3473.199951171875</ele>
        <time>2023-07-29T13:23:29.000Z</time>
        <extensions>
          <ns3:TrackPointExtension>
            <ns3:hr>118</ns3:hr>
            <ns3:cad>0</ns3:cad>
          </ns3:TrackPointExtension>
        </extensions>
      </trkpt>
      <trkpt lat="37.7506631053984165191650390625" lon="-107.7131474018096923828125">
        <ele>3473.39990234375</ele>
        <time>2023-07-29T13:23:30.000Z</time>
        <extensions>
          <ns3:TrackPointExtension>
            <ns3:hr>119</ns3:hr>
            <ns3:cad>0</ns3:cad>
          </ns3:TrackPointExtension>
        </extensions>
      </trkpt>
      <trkpt lat="37.75066117756068706512451171875" lon="-107.71316005848348140716552734375">
        <ele>3473.60009765625</ele>
        <time>2023-07-29T13:23:31.000Z</time>
        <extensions>
          <ns3:TrackPointExtension>
            <ns3:hr>120</ns3:hr>
            <ns3:cad>0</ns3:cad>
          </ns3:TrackPointExtension>
        </extensions>
      </trkpt>
      <trkpt lat="37.75066000409424304962158203125" lon="-107.71317179314792156219482421875">
        <ele>3473.800048828125</ele>
        <time>2023-07-29T13:23:32.000Z</time>
        <extensions>
          <ns3:TrackPointExtension>
            <ns3:hr>121</ns3:hr>
            <ns3:cad>0</ns3:cad>
          </ns3:TrackPointExtension>
        </extensions>
      </trkpt>
      <trkpt lat="37.750659920275211334228515625" lon="-107.71318386308848857879638671875">
        <ele>3473.800048828125</ele>
        <time>2023-07-29T13:23:33.000Z</time>
        <extensions>
          <ns3:TrackPointExtension>
            <ns3:hr>121</ns3:hr>
            <ns3:cad>0</ns3:cad>
          </ns3:TrackPointExtension>
        </extensions>
      </trkpt>
      <trkpt lat="37.75066134519875049591064453125" lon="-107.71319903433322906494140625">
        <ele>3474</ele>
        <time>2023-07-29T13:23:34.000Z</time>
        <extensions>
          <ns3:TrackPointExtension>
            <ns3:hr>120</ns3:hr>
            <ns3:cad>0</ns3:cad>
          </ns3:TrackPointExtension>
        </extensions>
      </trkpt>
      <trkpt lat="37.7506600879132747650146484375" lon="-107.71320900879800319671630859375">
        <ele>3474.199951171875</ele>
        <time>2023-07-29T13:23:35.000Z</time>
        <extensions>
          <ns3:TrackPointExtension>
            <ns3:hr>116</ns3:hr>
            <ns3:cad>0</ns3:cad>
          </ns3:TrackPointExtension>
        </extensions>
      </trkpt>
      <trkpt lat="37.75066050700843334197998046875" lon="-107.71322107873857021331787109375">
        <ele>3474.199951171875</ele>
        <time>2023-07-29T13:23:36.000Z</time>
        <extensions>
          <ns3:TrackPointExtension>
            <ns3:hr>115</ns3:hr>
            <ns3:cad>0</ns3:cad>
          </ns3:TrackPointExtension>
        </extensions>
      </trkpt>
      <trkpt lat="37.75066000409424304962158203125" lon="-107.713226862251758575439453125">
        <ele>3474.39990234375</ele>
        <time>2023-07-29T13:23:37.000Z</time>
        <extensions>
          <ns3:TrackPointExtension>
            <ns3:hr>115</ns3:hr>
            <ns3:cad>70</ns3:cad>
          </ns3:TrackPointExtension>
        </extensions>
      </trkpt>
      <trkpt lat="37.75065883062779903411865234375" lon="-107.713236249983310699462890625">
        <ele>3474.60009765625</ele>
        <time>2023-07-29T13:23:38.000Z</time>
        <extensions>
          <ns3:TrackPointExtension>
            <ns3:hr>115</ns3:hr>
            <ns3:cad>70</ns3:cad>
          </ns3:TrackPointExtension>
        </extensions>
      </trkpt>
      <trkpt lat="37.750657238066196441650390625" lon="-107.7132498286664485931396484375">
        <ele>3474.60009765625</ele>
        <time>2023-07-29T13:23:39.000Z</time>
        <extensions>
          <ns3:TrackPointExtension>
            <ns3:hr>115</ns3:hr>
            <ns3:cad>70</ns3:cad>
          </ns3:TrackPointExtension>
        </extensions>
      </trkpt>
      <trkpt lat="37.75065748952329158782958984375" lon="-107.7132582105696201324462890625">
        <ele>3475</ele>
        <time>2023-07-29T13:23:40.000Z</time>
        <extensions>
          <ns3:TrackPointExtension>
            <ns3:hr>114</ns3:hr>
            <ns3:cad>70</ns3:cad>
          </ns3:TrackPointExtension>
        </extensions>
      </trkpt>
      <trkpt lat="37.750655226409435272216796875" lon="-107.71326969377696514129638671875">
        <ele>3475</ele>
        <time>2023-07-29T13:23:41.000Z</time>
        <extensions>
          <ns3:TrackPointExtension>
            <ns3:hr>114</ns3:hr>
            <ns3:cad>70</ns3:cad>
          </ns3:TrackPointExtension>
        </extensions>
      </trkpt>
      <trkpt lat="37.7506543882191181182861328125" lon="-107.713279165327548980712890625">
        <ele>3475.199951171875</ele>
        <time>2023-07-29T13:23:42.000Z</time>
        <extensions>
          <ns3:TrackPointExtension>
            <ns3:hr>113</ns3:hr>
            <ns3:cad>70</ns3:cad>
          </ns3:TrackPointExtension>
        </extensions>
      </trkpt>
      <trkpt lat="37.75065162219107151031494140625" lon="-107.71330087445676326751708984375">
        <ele>3475.39990234375</ele>
        <time>2023-07-29T13:23:43.000Z</time>
        <extensions>
          <ns3:TrackPointExtension>
            <ns3:hr>114</ns3:hr>
            <ns3:cad>70</ns3:cad>
          </ns3:TrackPointExtension>
        </extensions>
      </trkpt>
      <trkpt lat="37.75064743123948574066162109375" lon="-107.71331730298697948455810546875">
        <ele>3475.39990234375</ele>
        <time>2023-07-29T13:23:44.000Z</time>
        <extensions>
          <ns3:TrackPointExtension>
            <ns3:hr>114</ns3:hr>
            <ns3:cad>47</ns3:cad>
          </ns3:TrackPointExtension>
        </extensions>
      </trkpt>
      <trkpt lat="37.75064885616302490234375" lon="-107.71332643926143646240234375">
        <ele>3475.800048828125</ele>
        <time>2023-07-29T13:23:45.000Z</time>
        <extensions>
          <ns3:TrackPointExtension>
            <ns3:hr>115</ns3:hr>
            <ns3:cad>47</ns3:cad>
          </ns3:TrackPointExtension>
        </extensions>
      </trkpt>
      <trkpt lat="37.75064743123948574066162109375" lon="-107.713337503373622894287109375">
        <ele>3475.800048828125</ele>
        <time>2023-07-29T13:23:46.000Z</time>
        <extensions>
          <ns3:TrackPointExtension>
            <ns3:hr>115</ns3:hr>
            <ns3:cad>47</ns3:cad>
          </ns3:TrackPointExtension>
        </extensions>
      </trkpt>
      <trkpt lat="37.7506450004875659942626953125" lon="-107.71333507262170314788818359375">
        <ele>3476</ele>
        <time>2023-07-29T13:23:47.000Z</time>
        <extensions>
          <ns3:TrackPointExtension>
            <ns3:hr>116</ns3:hr>
            <ns3:cad>0</ns3:cad>
          </ns3:TrackPointExtension>
        </extensions>
      </trkpt>
      <trkpt lat="37.7506443299353122711181640625" lon="-107.71334932185709476470947265625">
        <ele>3476</ele>
        <time>2023-07-29T13:23:48.000Z</time>
        <extensions>
          <ns3:TrackPointExtension>
            <ns3:hr>116</ns3:hr>
            <ns3:cad>0</ns3:cad>
          </ns3:TrackPointExtension>
        </extensions>
      </trkpt>
      <trkpt lat="37.75064550340175628662109375" lon="-107.71336172707378864288330078125">
        <ele>3476.199951171875</ele>
        <time>2023-07-29T13:23:49.000Z</time>
        <extensions>
          <ns3:TrackPointExtension>
            <ns3:hr>116</ns3:hr>
            <ns3:cad>0</ns3:cad>
          </ns3:TrackPointExtension>
        </extensions>
      </trkpt>
      <trkpt lat="37.75064609013497829437255859375" lon="-107.71336776204407215118408203125">
        <ele>3476.39990234375</ele>
        <time>2023-07-29T13:23:50.000Z</time>
        <extensions>
          <ns3:TrackPointExtension>
            <ns3:hr>117</ns3:hr>
            <ns3:cad>0</ns3:cad>
          </ns3:TrackPointExtension>
        </extensions>
      </trkpt>
      <trkpt lat="37.750648520886898040771484375" lon="-107.7133809216320514678955078125">
        <ele>3476.39990234375</ele>
        <time>2023-07-29T13:23:51.000Z</time>
        <extensions>
          <ns3:TrackPointExtension>
            <ns3:hr>117</ns3:hr>
            <ns3:cad>76</ns3:cad>
          </ns3:TrackPointExtension>
        </extensions>
      </trkpt>
      <trkpt lat="37.75065028108656406402587890625" lon="-107.713391818106174468994140625">
        <ele>3476.60009765625</ele>
        <time>2023-07-29T13:23:52.000Z</time>
        <extensions>
          <ns3:TrackPointExtension>
            <ns3:hr>117</ns3:hr>
            <ns3:cad>76</ns3:cad>
          </ns3:TrackPointExtension>
        </extensions>
      </trkpt>
      <trkpt lat="37.75065086781978607177734375" lon="-107.7134027145802974700927734375">
        <ele>3477</ele>
        <time>2023-07-29T13:23:53.000Z</time>
        <extensions>
          <ns3:TrackPointExtension>
            <ns3:hr>118</ns3:hr>
            <ns3:cad>76</ns3:cad>
          </ns3:TrackPointExtension>
        </extensions>
      </trkpt>
      <trkpt lat="37.75064977817237377166748046875" lon="-107.71341369487345218658447265625">
        <ele>3477</ele>
        <time>2023-07-29T13:23:54.000Z</time>
        <extensions>
          <ns3:TrackPointExtension>
            <ns3:hr>118</ns3:hr>
            <ns3:cad>76</ns3:cad>
          </ns3:TrackPointExtension>
        </extensions>
      </trkpt>
      <trkpt lat="37.75064961053431034088134765625" lon="-107.713417299091815948486328125">
        <ele>3477.39990234375</ele>
        <time>2023-07-29T13:23:55.000Z</time>
        <extensions>
          <ns3:TrackPointExtension>
            <ns3:hr>118</ns3:hr>
            <ns3:cad>45</ns3:cad>
          </ns3:TrackPointExtension>
        </extensions>
      </trkpt>
      <trkpt lat="37.7506500296294689178466796875" lon="-107.7134238369762897491455078125">
        <ele>3477.39990234375</ele>
        <time>2023-07-29T13:23:56.000Z</time>
        <extensions>
          <ns3:TrackPointExtension>
            <ns3:hr>118</ns3:hr>
            <ns3:cad>45</ns3:cad>
          </ns3:TrackPointExtension>
        </extensions>
      </trkpt>
      <trkpt lat="37.75064944289624691009521484375" lon="-107.713424004614353179931640625">
        <ele>3477.39990234375</ele>
        <time>2023-07-29T13:23:57.000Z</time>
        <extensions>
          <ns3:TrackPointExtension>
            <ns3:hr>118</ns3:hr>
            <ns3:cad>44</ns3:cad>
          </ns3:TrackPointExtension>
        </extensions>
      </trkpt>
      <trkpt lat="37.7506480179727077484130859375" lon="-107.713421322405338287353515625">
        <ele>3477.60009765625</ele>
        <time>2023-07-29T13:23:58.000Z</time>
        <extensions>
          <ns3:TrackPointExtension>
            <ns3:hr>118</ns3:hr>
            <ns3:cad>44</ns3:cad>
          </ns3:TrackPointExtension>
        </extensions>
      </trkpt>
      <trkpt lat="37.750646173954010009765625" lon="-107.71342509426176548004150390625">
        <ele>3477.800048828125</ele>
        <time>2023-07-29T13:23:59.000Z</time>
        <extensions>
          <ns3:TrackPointExtension>
            <ns3:hr>117</ns3:hr>
            <ns3:cad>0</ns3:cad>
          </ns3:TrackPointExtension>
        </extensions>
      </trkpt>
      <trkpt lat="37.750643156468868255615234375" lon="-107.7134338952600955963134765625">
        <ele>3478</ele>
        <time>2023-07-29T13:24:00.000Z</time>
        <extensions>
          <ns3:TrackPointExtension>
            <ns3:hr>117</ns3:hr>
            <ns3:cad>0</ns3:cad>
          </ns3:TrackPointExtension>
        </extensions>
      </trkpt>
      <trkpt lat="37.7506409771740436553955078125" lon="-107.71343850530683994293212890625">
        <ele>3478.199951171875</ele>
        <time>2023-07-29T13:24:01.000Z</time>
        <extensions>
          <ns3:TrackPointExtension>
            <ns3:hr>116</ns3:hr>
            <ns3:cad>0</ns3:cad>
          </ns3:TrackPointExtension>
        </extensions>
      </trkpt>
      <trkpt lat="37.7506376244127750396728515625" lon="-107.71344403736293315887451171875">
        <ele>3478.199951171875</ele>
        <time>2023-07-29T13:24:02.000Z</time>
        <extensions>
          <ns3:TrackPointExtension>
            <ns3:hr>115</ns3:hr>
            <ns3:cad>0</ns3:cad>
          </ns3:TrackPointExtension>
        </extensions>
      </trkpt>
      <trkpt lat="37.75063536129891872406005859375" lon="-107.71344705484807491302490234375">
        <ele>3478.60009765625</ele>
        <time>2023-07-29T13:24:03.000Z</time>
        <extensions>
          <ns3:TrackPointExtension>
            <ns3:hr>115</ns3:hr>
            <ns3:cad>0</ns3:cad>
          </ns3:TrackPointExtension>
        </extensions>
      </trkpt>
      <trkpt lat="37.75063368491828441619873046875" lon="-107.7134580351412296295166015625">
        <ele>3478.800048828125</ele>
        <time>2023-07-29T13:24:04.000Z</time>
        <extensions>
          <ns3:TrackPointExtension>
            <ns3:hr>114</ns3:hr>
            <ns3:cad>0</ns3:cad>
          </ns3:TrackPointExtension>
        </extensions>
      </trkpt>
      <trkpt lat="37.7506336010992527008056640625" lon="-107.713471949100494384765625">
        <ele>3478.800048828125</ele>
        <time>2023-07-29T13:24:05.000Z</time>
        <extensions>
          <ns3:TrackPointExtension>
            <ns3:hr>114</ns3:hr>
            <ns3:cad>0</ns3:cad>
          </ns3:TrackPointExtension>
        </extensions>
      </trkpt>
      <trkpt lat="37.75063569657504558563232421875" lon="-107.71349265240132808685302734375">
        <ele>3478.800048828125</ele>
        <time>2023-07-29T13:24:06.000Z</time>
        <extensions>
          <ns3:TrackPointExtension>
            <ns3:hr>114</ns3:hr>
            <ns3:cad>0</ns3:cad>
          </ns3:TrackPointExtension>
        </extensions>
      </trkpt>
      <trkpt lat="37.75063519366085529327392578125" lon="-107.71351176314055919647216796875">
        <ele>3479</ele>
        <time>2023-07-29T13:24:07.000Z</time>
        <extensions>
          <ns3:TrackPointExtension>
            <ns3:hr>114</ns3:hr>
            <ns3:cad>0</ns3:cad>
          </ns3:TrackPointExtension>
        </extensions>
      </trkpt>
      <trkpt lat="37.7506367862224578857421875" lon="-107.71351729519665241241455078125">
        <ele>3479.199951171875</ele>
        <time>2023-07-29T13:24:08.000Z</time>
        <extensions>
          <ns3:TrackPointExtension>
            <ns3:hr>114</ns3:hr>
            <ns3:cad>0</ns3:cad>
          </ns3:TrackPointExtension>
        </extensions>
      </trkpt>
      <trkpt lat="37.75063854642212390899658203125" lon="-107.713536657392978668212890625">
        <ele>3479.60009765625</ele>
        <time>2023-07-29T13:24:09.000Z</time>
        <extensions>
          <ns3:TrackPointExtension>
            <ns3:hr>114</ns3:hr>
            <ns3:cad>0</ns3:cad>
          </ns3:TrackPointExtension>
        </extensions>
      </trkpt>
      <trkpt lat="37.7506421506404876708984375" lon="-107.71354772150516510009765625">
        <ele>3479.60009765625</ele>
        <time>2023-07-29T13:24:10.000Z</time>
        <extensions>
          <ns3:TrackPointExtension>
            <ns3:hr>114</ns3:hr>
            <ns3:cad>0</ns3:cad>
          </ns3:TrackPointExtension>
        </extensions>
      </trkpt>
      <trkpt lat="37.7506450004875659942626953125" lon="-107.7135623060166835784912109375">
        <ele>3479.60009765625</ele>
        <time>2023-07-29T13:24:11.000Z</time>
        <extensions>
          <ns3:TrackPointExtension>
            <ns3:hr>114</ns3:hr>
            <ns3:cad>0</ns3:cad>
          </ns3:TrackPointExtension>
        </extensions>
      </trkpt>
      <trkpt lat="37.75064793415367603302001953125" lon="-107.7135716937482357025146484375">
        <ele>3479.800048828125</ele>
        <time>2023-07-29T13:24:12.000Z</time>
        <extensions>
          <ns3:TrackPointExtension>
            <ns3:hr>114</ns3:hr>
            <ns3:cad>0</ns3:cad>
          </ns3:TrackPointExtension>
        </extensions>
      </trkpt>
      <trkpt lat="37.75064927525818347930908203125" lon="-107.71358200348913669586181640625">
        <ele>3480</ele>
        <time>2023-07-29T13:24:13.000Z</time>
        <extensions>
          <ns3:TrackPointExtension>
            <ns3:hr>114</ns3:hr>
            <ns3:cad>0</ns3:cad>
          </ns3:TrackPointExtension>
        </extensions>
      </trkpt>
      <trkpt lat="37.750651203095912933349609375" lon="-107.71359239704906940460205078125">
        <ele>3480.199951171875</ele>
        <time>2023-07-29T13:24:14.000Z</time>
        <extensions>
          <ns3:TrackPointExtension>
            <ns3:hr>114</ns3:hr>
            <ns3:cad>0</ns3:cad>
          </ns3:TrackPointExtension>
        </extensions>
      </trkpt>
      <trkpt lat="37.75065463967621326446533203125" lon="-107.71360865794122219085693359375">
        <ele>3480.39990234375</ele>
        <time>2023-07-29T13:24:15.000Z</time>
        <extensions>
          <ns3:TrackPointExtension>
            <ns3:hr>113</ns3:hr>
            <ns3:cad>0</ns3:cad>
          </ns3:TrackPointExtension>
        </extensions>
      </trkpt>
      <trkpt lat="37.7506570704281330108642578125" lon="-107.71361653693020343780517578125">
        <ele>3480.39990234375</ele>
        <time>2023-07-29T13:24:16.000Z</time>
        <extensions>
          <ns3:TrackPointExtension>
            <ns3:hr>113</ns3:hr>
            <ns3:cad>0</ns3:cad>
          </ns3:TrackPointExtension>
        </extensions>
      </trkpt>
      <trkpt lat="37.75065933354198932647705078125" lon="-107.71362458355724811553955078125">
        <ele>3480.800048828125</ele>
        <time>2023-07-29T13:24:17.000Z</time>
        <extensions>
          <ns3:TrackPointExtension>
            <ns3:hr>113</ns3:hr>
            <ns3:cad>0</ns3:cad>
          </ns3:TrackPointExtension>
        </extensions>
      </trkpt>
      <trkpt lat="37.75066184811294078826904296875" lon="-107.71363346837460994720458984375">
        <ele>3480.800048828125</ele>
        <time>2023-07-29T13:24:18.000Z</time>
        <extensions>
          <ns3:TrackPointExtension>
            <ns3:hr>113</ns3:hr>
            <ns3:cad>0</ns3:cad>
          </ns3:TrackPointExtension>
        </extensions>
      </trkpt>
      <trkpt lat="37.750665284693241119384765625" lon="-107.71364939399063587188720703125">
        <ele>3481.199951171875</ele>
        <time>2023-07-29T13:24:19.000Z</time>
        <extensions>
          <ns3:TrackPointExtension>
            <ns3:hr>114</ns3:hr>
            <ns3:cad>0</ns3:cad>
          </ns3:TrackPointExtension>
        </extensions>
      </trkpt>
      <trkpt lat="37.7506688050925731658935546875" lon="-107.71365878172218799591064453125">
        <ele>3481.199951171875</ele>
        <time>2023-07-29T13:24:20.000Z</time>
        <extensions>
          <ns3:TrackPointExtension>
            <ns3:hr>114</ns3:hr>
            <ns3:cad>0</ns3:cad>
          </ns3:TrackPointExtension>
        </extensions>
      </trkpt>
      <trkpt lat="37.750673331320285797119140625" lon="-107.71366967819631099700927734375">
        <ele>3481.39990234375</ele>
        <time>2023-07-29T13:24:21.000Z</time>
        <extensions>
          <ns3:TrackPointExtension>
            <ns3:hr>114</ns3:hr>
            <ns3:cad>0</ns3:cad>
          </ns3:TrackPointExtension>
        </extensions>
      </trkpt>
      <trkpt lat="37.75067743845283985137939453125" lon="-107.7136796526610851287841796875">
        <ele>3481.39990234375</ele>
        <time>2023-07-29T13:24:22.000Z</time>
        <extensions>
          <ns3:TrackPointExtension>
            <ns3:hr>114</ns3:hr>
            <ns3:cad>0</ns3:cad>
          </ns3:TrackPointExtension>
        </extensions>
      </trkpt>
      <trkpt lat="37.75068229995667934417724609375" lon="-107.71368929184973239898681640625">
        <ele>3481.39990234375</ele>
        <time>2023-07-29T13:24:23.000Z</time>
        <extensions>
          <ns3:TrackPointExtension>
            <ns3:hr>114</ns3:hr>
            <ns3:cad>0</ns3:cad>
          </ns3:TrackPointExtension>
        </extensions>
      </trkpt>
      <trkpt lat="37.75068598799407482147216796875" lon="-107.7136920578777790069580078125">
        <ele>3481.39990234375</ele>
        <time>2023-07-29T13:24:24.000Z</time>
        <extensions>
          <ns3:TrackPointExtension>
            <ns3:hr>114</ns3:hr>
            <ns3:cad>0</ns3:cad>
          </ns3:TrackPointExtension>
        </extensions>
      </trkpt>
      <trkpt lat="37.75069177150726318359375" lon="-107.7136974222958087921142578125">
        <ele>3481.39990234375</ele>
        <time>2023-07-29T13:24:25.000Z</time>
        <extensions>
          <ns3:TrackPointExtension>
            <ns3:hr>114</ns3:hr>
            <ns3:cad>0</ns3:cad>
          </ns3:TrackPointExtension>
        </extensions>
      </trkpt>
      <trkpt lat="37.7506969682872295379638671875" lon="-107.713704295456409454345703125">
        <ele>3481.60009765625</ele>
        <time>2023-07-29T13:24:26.000Z</time>
        <extensions>
          <ns3:TrackPointExtension>
            <ns3:hr>114</ns3:hr>
            <ns3:cad>46</ns3:cad>
          </ns3:TrackPointExtension>
        </extensions>
      </trkpt>
      <trkpt lat="37.75070107541978359222412109375" lon="-107.71370773203670978546142578125">
        <ele>3481.60009765625</ele>
        <time>2023-07-29T13:24:27.000Z</time>
        <extensions>
          <ns3:TrackPointExtension>
            <ns3:hr>114</ns3:hr>
            <ns3:cad>49</ns3:cad>
          </ns3:TrackPointExtension>
        </extensions>
      </trkpt>
      <trkpt lat="37.75070811621844768524169921875" lon="-107.71371611393988132476806640625">
        <ele>3481.60009765625</ele>
        <time>2023-07-29T13:24:28.000Z</time>
        <extensions>
          <ns3:TrackPointExtension>
            <ns3:hr>114</ns3:hr>
            <ns3:cad>49</ns3:cad>
          </ns3:TrackPointExtension>
        </extensions>
      </trkpt>
      <trkpt lat="37.75071322917938232421875" lon="-107.71372206509113311767578125">
        <ele>3481.800048828125</ele>
        <time>2023-07-29T13:24:29.000Z</time>
        <extensions>
          <ns3:TrackPointExtension>
            <ns3:hr>114</ns3:hr>
            <ns3:cad>49</ns3:cad>
          </ns3:TrackPointExtension>
        </extensions>
      </trkpt>
      <trkpt lat="37.75071867741644382476806640625" lon="-107.7137282676994800567626953125">
        <ele>3482</ele>
        <time>2023-07-29T13:24:30.000Z</time>
        <extensions>
          <ns3:TrackPointExtension>
            <ns3:hr>114</ns3:hr>
            <ns3:cad>47</ns3:cad>
          </ns3:TrackPointExtension>
        </extensions>
      </trkpt>
      <trkpt lat="37.7507258020341396331787109375" lon="-107.71373975090682506561279296875">
        <ele>3482</ele>
        <time>2023-07-29T13:24:31.000Z</time>
        <extensions>
          <ns3:TrackPointExtension>
            <ns3:hr>113</ns3:hr>
            <ns3:cad>47</ns3:cad>
          </ns3:TrackPointExtension>
        </extensions>
      </trkpt>
      <trkpt lat="37.75073577649891376495361328125" lon="-107.7137510664761066436767578125">
        <ele>3482</ele>
        <time>2023-07-29T13:24:32.000Z</time>
        <extensions>
          <ns3:TrackPointExtension>
            <ns3:hr>113</ns3:hr>
            <ns3:cad>47</ns3:cad>
          </ns3:TrackPointExtension>
        </extensions>
      </trkpt>
      <trkpt lat="37.75074072182178497314453125" lon="-107.71375684998929500579833984375">
        <ele>3482.199951171875</ele>
        <time>2023-07-29T13:24:33.000Z</time>
        <extensions>
          <ns3:TrackPointExtension>
            <ns3:hr>113</ns3:hr>
            <ns3:cad>47</ns3:cad>
          </ns3:TrackPointExtension>
        </extensions>
      </trkpt>
      <trkpt lat="37.7507435716688632965087890625" lon="-107.713758945465087890625">
        <ele>3482.199951171875</ele>
        <time>2023-07-29T13:24:34.000Z</time>
        <extensions>
          <ns3:TrackPointExtension>
            <ns3:hr>113</ns3:hr>
            <ns3:cad>45</ns3:cad>
          </ns3:TrackPointExtension>
        </extensions>
      </trkpt>
      <trkpt lat="37.75074767880141735076904296875" lon="-107.713762633502483367919921875">
        <ele>3482.199951171875</ele>
        <time>2023-07-29T13:24:35.000Z</time>
        <extensions>
          <ns3:TrackPointExtension>
            <ns3:hr>112</ns3:hr>
            <ns3:cad>45</ns3:cad>
          </ns3:TrackPointExtension>
        </extensions>
      </trkpt>
      <trkpt lat="37.75075136683881282806396484375" lon="-107.71376607008278369903564453125">
        <ele>3482.39990234375</ele>
        <time>2023-07-29T13:24:36.000Z</time>
        <extensions>
          <ns3:TrackPointExtension>
            <ns3:hr>112</ns3:hr>
            <ns3:cad>45</ns3:cad>
          </ns3:TrackPointExtension>
        </extensions>
      </trkpt>
      <trkpt lat="37.75075354613363742828369140625" lon="-107.71377143450081348419189453125">
        <ele>3482.39990234375</ele>
        <time>2023-07-29T13:24:37.000Z</time>
        <extensions>
          <ns3:TrackPointExtension>
            <ns3:hr>112</ns3:hr>
            <ns3:cad>45</ns3:cad>
          </ns3:TrackPointExtension>
        </extensions>
      </trkpt>
      <trkpt lat="37.7507566474378108978271484375" lon="-107.71377143450081348419189453125">
        <ele>3482.60009765625</ele>
        <time>2023-07-29T13:24:38.000Z</time>
        <extensions>
          <ns3:TrackPointExtension>
            <ns3:hr>111</ns3:hr>
            <ns3:cad>45</ns3:cad>
          </ns3:TrackPointExtension>
        </extensions>
      </trkpt>
      <trkpt lat="37.75076243095099925994873046875" lon="-107.71377931348979473114013671875">
        <ele>3482.800048828125</ele>
        <time>2023-07-29T13:24:39.000Z</time>
        <extensions>
          <ns3:TrackPointExtension>
            <ns3:hr>110</ns3:hr>
            <ns3:cad>45</ns3:cad>
          </ns3:TrackPointExtension>
        </extensions>
      </trkpt>
      <trkpt lat="37.75077282451093196868896484375" lon="-107.71379020996391773223876953125">
        <ele>3483</ele>
        <time>2023-07-29T13:24:40.000Z</time>
        <extensions>
          <ns3:TrackPointExtension>
            <ns3:hr>110</ns3:hr>
            <ns3:cad>45</ns3:cad>
          </ns3:TrackPointExtension>
        </extensions>
      </trkpt>
      <trkpt lat="37.7507817931473255157470703125" lon="-107.71380160935223102569580078125">
        <ele>3483</ele>
        <time>2023-07-29T13:24:41.000Z</time>
        <extensions>
          <ns3:TrackPointExtension>
            <ns3:hr>110</ns3:hr>
            <ns3:cad>45</ns3:cad>
          </ns3:TrackPointExtension>
        </extensions>
      </trkpt>
      <trkpt lat="37.75079059414565563201904296875" lon="-107.71381200291216373443603515625">
        <ele>3483</ele>
        <time>2023-07-29T13:24:42.000Z</time>
        <extensions>
          <ns3:TrackPointExtension>
            <ns3:hr>109</ns3:hr>
            <ns3:cad>45</ns3:cad>
          </ns3:TrackPointExtension>
        </extensions>
      </trkpt>
      <trkpt lat="37.75079914368689060211181640625" lon="-107.71381719969213008880615234375">
        <ele>3483.199951171875</ele>
        <time>2023-07-29T13:24:43.000Z</time>
        <extensions>
          <ns3:TrackPointExtension>
            <ns3:hr>109</ns3:hr>
            <ns3:cad>46</ns3:cad>
          </ns3:TrackPointExtension>
        </extensions>
      </trkpt>
      <trkpt lat="37.7508079446852207183837890625" lon="-107.71381996572017669677734375">
        <ele>3483.199951171875</ele>
        <time>2023-07-29T13:24:44.000Z</time>
        <extensions>
          <ns3:TrackPointExtension>
            <ns3:hr>109</ns3:hr>
            <ns3:cad>46</ns3:cad>
          </ns3:TrackPointExtension>
        </extensions>
      </trkpt>
      <trkpt lat="37.750820182263851165771484375" lon="-107.7138224802911281585693359375">
        <ele>3483.39990234375</ele>
        <time>2023-07-29T13:24:45.000Z</time>
        <extensions>
          <ns3:TrackPointExtension>
            <ns3:hr>109</ns3:hr>
            <ns3:cad>46</ns3:cad>
          </ns3:TrackPointExtension>
        </extensions>
      </trkpt>
      <trkpt lat="37.75082923471927642822265625" lon="-107.71382390521466732025146484375">
        <ele>3483.39990234375</ele>
        <time>2023-07-29T13:24:46.000Z</time>
        <extensions>
          <ns3:TrackPointExtension>
            <ns3:hr>109</ns3:hr>
            <ns3:cad>46</ns3:cad>
          </ns3:TrackPointExtension>
        </extensions>
      </trkpt>
      <trkpt lat="37.75083602406084537506103515625" lon="-107.71382239647209644317626953125">
        <ele>3483.39990234375</ele>
        <time>2023-07-29T13:24:47.000Z</time>
        <extensions>
          <ns3:TrackPointExtension>
            <ns3:hr>109</ns3:hr>
            <ns3:cad>46</ns3:cad>
          </ns3:TrackPointExtension>
        </extensions>
      </trkpt>
      <trkpt lat="37.7508448250591754913330078125" lon="-107.71381921134889125823974609375">
        <ele>3483.60009765625</ele>
        <time>2023-07-29T13:24:48.000Z</time>
        <extensions>
          <ns3:TrackPointExtension>
            <ns3:hr>109</ns3:hr>
            <ns3:cad>47</ns3:cad>
          </ns3:TrackPointExtension>
        </extensions>
      </trkpt>
      <trkpt lat="37.7508532069623470306396484375" lon="-107.7138164453208446502685546875">
        <ele>3483.60009765625</ele>
        <time>2023-07-29T13:24:49.000Z</time>
        <extensions>
          <ns3:TrackPointExtension>
            <ns3:hr>110</ns3:hr>
            <ns3:cad>49</ns3:cad>
          </ns3:TrackPointExtension>
        </extensions>
      </trkpt>
      <trkpt lat="37.75086318142712116241455078125" lon="-107.7138140983879566192626953125">
        <ele>3483.60009765625</ele>
        <time>2023-07-29T13:24:50.000Z</time>
        <extensions>
          <ns3:TrackPointExtension>
            <ns3:hr>110</ns3:hr>
            <ns3:cad>49</ns3:cad>
          </ns3:TrackPointExtension>
        </extensions>
      </trkpt>
      <trkpt lat="37.750871814787387847900390625" lon="-107.71381326019763946533203125">
        <ele>3483.60009765625</ele>
        <time>2023-07-29T13:24:51.000Z</time>
        <extensions>
          <ns3:TrackPointExtension>
            <ns3:hr>110</ns3:hr>
            <ns3:cad>49</ns3:cad>
          </ns3:TrackPointExtension>
        </extensions>
      </trkpt>
      <trkpt lat="37.75088044814765453338623046875" lon="-107.7138147689402103424072265625">
        <ele>3483.60009765625</ele>
        <time>2023-07-29T13:24:52.000Z</time>
        <extensions>
          <ns3:TrackPointExtension>
            <ns3:hr>109</ns3:hr>
            <ns3:cad>49</ns3:cad>
          </ns3:TrackPointExtension>
        </extensions>
      </trkpt>
      <trkpt lat="37.7508897520601749420166015625" lon="-107.713816277682781219482421875">
        <ele>3483.60009765625</ele>
        <time>2023-07-29T13:24:53.000Z</time>
        <extensions>
          <ns3:TrackPointExtension>
            <ns3:hr>111</ns3:hr>
            <ns3:cad>49</ns3:cad>
          </ns3:TrackPointExtension>
        </extensions>
      </trkpt>
      <trkpt lat="37.750896625220775604248046875" lon="-107.7138184569776058197021484375">
        <ele>3483.60009765625</ele>
        <time>2023-07-29T13:24:54.000Z</time>
        <extensions>
          <ns3:TrackPointExtension>
            <ns3:hr>112</ns3:hr>
            <ns3:cad>49</ns3:cad>
          </ns3:TrackPointExtension>
        </extensions>
      </trkpt>
      <trkpt lat="37.75090442039072513580322265625" lon="-107.71382398903369903564453125">
        <ele>3483.39990234375</ele>
        <time>2023-07-29T13:24:55.000Z</time>
        <extensions>
          <ns3:TrackPointExtension>
            <ns3:hr>112</ns3:hr>
            <ns3:cad>51</ns3:cad>
          </ns3:TrackPointExtension>
        </extensions>
      </trkpt>
      <trkpt lat="37.75091347284615039825439453125" lon="-107.71382809616625308990478515625">
        <ele>3483.39990234375</ele>
        <time>2023-07-29T13:24:56.000Z</time>
        <extensions>
          <ns3:TrackPointExtension>
            <ns3:hr>112</ns3:hr>
            <ns3:cad>52</ns3:cad>
          </ns3:TrackPointExtension>
        </extensions>
      </trkpt>
      <trkpt lat="37.7509199269115924835205078125" lon="-107.71383530460298061370849609375">
        <ele>3483.39990234375</ele>
        <time>2023-07-29T13:24:57.000Z</time>
        <extensions>
          <ns3:TrackPointExtension>
            <ns3:hr>111</ns3:hr>
            <ns3:cad>52</ns3:cad>
          </ns3:TrackPointExtension>
        </extensions>
      </trkpt>
      <trkpt lat="37.75092973373830318450927734375" lon="-107.7138425968587398529052734375">
        <ele>3483.39990234375</ele>
        <time>2023-07-29T13:24:58.000Z</time>
        <extensions>
          <ns3:TrackPointExtension>
            <ns3:hr>111</ns3:hr>
            <ns3:cad>52</ns3:cad>
          </ns3:TrackPointExtension>
        </extensions>
      </trkpt>
      <trkpt lat="37.7509427256882190704345703125" lon="-107.7138533256947994232177734375">
        <ele>3483.199951171875</ele>
        <time>2023-07-29T13:24:59.000Z</time>
        <extensions>
          <ns3:TrackPointExtension>
            <ns3:hr>111</ns3:hr>
            <ns3:cad>53</ns3:cad>
          </ns3:TrackPointExtension>
        </extensions>
      </trkpt>
      <trkpt lat="37.7509541250765323638916015625" lon="-107.7138653956353664398193359375">
        <ele>3483.199951171875</ele>
        <time>2023-07-29T13:25:00.000Z</time>
        <extensions>
          <ns3:TrackPointExtension>
            <ns3:hr>111</ns3:hr>
            <ns3:cad>53</ns3:cad>
          </ns3:TrackPointExtension>
        </extensions>
      </trkpt>
      <trkpt lat="37.7509665302932262420654296875" lon="-107.71387972868978977203369140625">
        <ele>3483.199951171875</ele>
        <time>2023-07-29T13:25:01.000Z</time>
        <extensions>
          <ns3:TrackPointExtension>
            <ns3:hr>110</ns3:hr>
            <ns3:cad>53</ns3:cad>
          </ns3:TrackPointExtension>
        </extensions>
      </trkpt>
      <trkpt lat="37.75096711702644824981689453125" lon="-107.71389028988778591156005859375">
        <ele>3483.199951171875</ele>
        <time>2023-07-29T13:25:02.000Z</time>
        <extensions>
          <ns3:TrackPointExtension>
            <ns3:hr>110</ns3:hr>
            <ns3:cad>53</ns3:cad>
          </ns3:TrackPointExtension>
        </extensions>
      </trkpt>
      <trkpt lat="37.75097013451159000396728515625" lon="-107.71390219219028949737548828125">
        <ele>3483.199951171875</ele>
        <time>2023-07-29T13:25:03.000Z</time>
        <extensions>
          <ns3:TrackPointExtension>
            <ns3:hr>110</ns3:hr>
            <ns3:cad>53</ns3:cad>
          </ns3:TrackPointExtension>
        </extensions>
      </trkpt>
      <trkpt lat="37.7509722299873828887939453125" lon="-107.7139160223305225372314453125">
        <ele>3483.199951171875</ele>
        <time>2023-07-29T13:25:04.000Z</time>
        <extensions>
          <ns3:TrackPointExtension>
            <ns3:hr>110</ns3:hr>
            <ns3:cad>53</ns3:cad>
          </ns3:TrackPointExtension>
        </extensions>
      </trkpt>
      <trkpt lat="37.75097566656768321990966796875" lon="-107.7139321155846118927001953125">
        <ele>3483.199951171875</ele>
        <time>2023-07-29T13:25:05.000Z</time>
        <extensions>
          <ns3:TrackPointExtension>
            <ns3:hr>110</ns3:hr>
            <ns3:cad>53</ns3:cad>
          </ns3:TrackPointExtension>
        </extensions>
      </trkpt>
      <trkpt lat="37.75098103098571300506591796875" lon="-107.71394594572484493255615234375">
        <ele>3483</ele>
        <time>2023-07-29T13:25:06.000Z</time>
        <extensions>
          <ns3:TrackPointExtension>
            <ns3:hr>110</ns3:hr>
            <ns3:cad>52</ns3:cad>
          </ns3:TrackPointExtension>
        </extensions>
      </trkpt>
      <trkpt lat="37.75098572485148906707763671875" lon="-107.713959105312824249267578125">
        <ele>3483</ele>
        <time>2023-07-29T13:25:07.000Z</time>
        <extensions>
          <ns3:TrackPointExtension>
            <ns3:hr>110</ns3:hr>
            <ns3:cad>52</ns3:cad>
          </ns3:TrackPointExtension>
        </extensions>
      </trkpt>
      <trkpt lat="37.750989161431789398193359375" lon="-107.71396857686340808868408203125">
        <ele>3483</ele>
        <time>2023-07-29T13:25:08.000Z</time>
        <extensions>
          <ns3:TrackPointExtension>
            <ns3:hr>109</ns3:hr>
            <ns3:cad>52</ns3:cad>
          </ns3:TrackPointExtension>
        </extensions>
      </trkpt>
      <trkpt lat="37.75099377147853374481201171875" lon="-107.7139802277088165283203125">
        <ele>3483</ele>
        <time>2023-07-29T13:25:09.000Z</time>
        <extensions>
          <ns3:TrackPointExtension>
            <ns3:hr>109</ns3:hr>
            <ns3:cad>52</ns3:cad>
          </ns3:TrackPointExtension>
        </extensions>
      </trkpt>
      <trkpt lat="37.7509960345923900604248046875" lon="-107.7139990031719207763671875">
        <ele>3483</ele>
        <time>2023-07-29T13:25:10.000Z</time>
        <extensions>
          <ns3:TrackPointExtension>
            <ns3:hr>109</ns3:hr>
            <ns3:cad>52</ns3:cad>
          </ns3:TrackPointExtension>
        </extensions>
      </trkpt>
      <trkpt lat="37.75100399740040302276611328125" lon="-107.714015431702136993408203125">
        <ele>3482.800048828125</ele>
        <time>2023-07-29T13:25:11.000Z</time>
        <extensions>
          <ns3:TrackPointExtension>
            <ns3:hr>108</ns3:hr>
            <ns3:cad>53</ns3:cad>
          </ns3:TrackPointExtension>
        </extensions>
      </trkpt>
      <trkpt lat="37.75101204402744770050048828125" lon="-107.7140320278704166412353515625">
        <ele>3482.800048828125</ele>
        <time>2023-07-29T13:25:12.000Z</time>
        <extensions>
          <ns3:TrackPointExtension>
            <ns3:hr>108</ns3:hr>
            <ns3:cad>54</ns3:cad>
          </ns3:TrackPointExtension>
        </extensions>
      </trkpt>
      <trkpt lat="37.7510171569883823394775390625" lon="-107.71404719911515712738037109375">
        <ele>3482.800048828125</ele>
        <time>2023-07-29T13:25:13.000Z</time>
        <extensions>
          <ns3:TrackPointExtension>
            <ns3:hr>107</ns3:hr>
            <ns3:cad>54</ns3:cad>
          </ns3:TrackPointExtension>
        </extensions>
      </trkpt>
      <trkpt lat="37.7510225214064121246337890625" lon="-107.7140588499605655670166015625">
        <ele>3482.800048828125</ele>
        <time>2023-07-29T13:25:14.000Z</time>
        <extensions>
          <ns3:TrackPointExtension>
            <ns3:hr>107</ns3:hr>
            <ns3:cad>53</ns3:cad>
          </ns3:TrackPointExtension>
        </extensions>
      </trkpt>
      <trkpt lat="37.75102679617702960968017578125" lon="-107.71407066844403743743896484375">
        <ele>3482.60009765625</ele>
        <time>2023-07-29T13:25:15.000Z</time>
        <extensions>
          <ns3:TrackPointExtension>
            <ns3:hr>107</ns3:hr>
            <ns3:cad>53</ns3:cad>
          </ns3:TrackPointExtension>
        </extensions>
      </trkpt>
      <trkpt lat="37.75103149004280567169189453125" lon="-107.71408156491816043853759765625">
        <ele>3482.60009765625</ele>
        <time>2023-07-29T13:25:16.000Z</time>
        <extensions>
          <ns3:TrackPointExtension>
            <ns3:hr>106</ns3:hr>
            <ns3:cad>53</ns3:cad>
          </ns3:TrackPointExtension>
        </extensions>
      </trkpt>
      <trkpt lat="37.75103718973696231842041015625" lon="-107.71409086883068084716796875">
        <ele>3482.39990234375</ele>
        <time>2023-07-29T13:25:17.000Z</time>
        <extensions>
          <ns3:TrackPointExtension>
            <ns3:hr>106</ns3:hr>
            <ns3:cad>55</ns3:cad>
          </ns3:TrackPointExtension>
        </extensions>
      </trkpt>
      <trkpt lat="37.75104238651692867279052734375" lon="-107.7140994183719158172607421875">
        <ele>3482.199951171875</ele>
        <time>2023-07-29T13:25:18.000Z</time>
        <extensions>
          <ns3:TrackPointExtension>
            <ns3:hr>105</ns3:hr>
            <ns3:cad>55</ns3:cad>
          </ns3:TrackPointExtension>
        </extensions>
      </trkpt>
      <trkpt lat="37.7510466612875461578369140625" lon="-107.71410536952316761016845703125">
        <ele>3482.199951171875</ele>
        <time>2023-07-29T13:25:19.000Z</time>
        <extensions>
          <ns3:TrackPointExtension>
            <ns3:hr>105</ns3:hr>
            <ns3:cad>56</ns3:cad>
          </ns3:TrackPointExtension>
        </extensions>
      </trkpt>
      <trkpt lat="37.75105311535298824310302734375" lon="-107.71411241032183170318603515625">
        <ele>3482.199951171875</ele>
        <time>2023-07-29T13:25:20.000Z</time>
        <extensions>
          <ns3:TrackPointExtension>
            <ns3:hr>104</ns3:hr>
            <ns3:cad>56</ns3:cad>
          </ns3:TrackPointExtension>
        </extensions>
      </trkpt>
      <trkpt lat="37.75106149725615978240966796875" lon="-107.71412196569144725799560546875">
        <ele>3482.199951171875</ele>
        <time>2023-07-29T13:25:21.000Z</time>
        <extensions>
          <ns3:TrackPointExtension>
            <ns3:hr>104</ns3:hr>
            <ns3:cad>56</ns3:cad>
          </ns3:TrackPointExtension>
        </extensions>
      </trkpt>
      <trkpt lat="37.7510644309222698211669921875" lon="-107.71413085050880908966064453125">
        <ele>3482.199951171875</ele>
        <time>2023-07-29T13:25:22.000Z</time>
        <extensions>
          <ns3:TrackPointExtension>
            <ns3:hr>103</ns3:hr>
            <ns3:cad>56</ns3:cad>
          </ns3:TrackPointExtension>
        </extensions>
      </trkpt>
      <trkpt lat="37.75107155553996562957763671875" lon="-107.714142166078090667724609375">
        <ele>3482.199951171875</ele>
        <time>2023-07-29T13:25:23.000Z</time>
        <extensions>
          <ns3:TrackPointExtension>
            <ns3:hr>103</ns3:hr>
            <ns3:cad>56</ns3:cad>
          </ns3:TrackPointExtension>
        </extensions>
      </trkpt>
      <trkpt lat="37.75107708759605884552001953125" lon="-107.7141460217535495758056640625">
        <ele>3482</ele>
        <time>2023-07-29T13:25:24.000Z</time>
        <extensions>
          <ns3:TrackPointExtension>
            <ns3:hr>102</ns3:hr>
            <ns3:cad>56</ns3:cad>
          </ns3:TrackPointExtension>
        </extensions>
      </trkpt>
      <trkpt lat="37.7510832063853740692138671875" lon="-107.71414987742900848388671875">
        <ele>3481.800048828125</ele>
        <time>2023-07-29T13:25:25.000Z</time>
        <extensions>
          <ns3:TrackPointExtension>
            <ns3:hr>101</ns3:hr>
            <ns3:cad>57</ns3:cad>
          </ns3:TrackPointExtension>
        </extensions>
      </trkpt>
      <trkpt lat="37.7510902471840381622314453125" lon="-107.71415633149445056915283203125">
        <ele>3481.800048828125</ele>
        <time>2023-07-29T13:25:26.000Z</time>
        <extensions>
          <ns3:TrackPointExtension>
            <ns3:hr>100</ns3:hr>
            <ns3:cad>57</ns3:cad>
          </ns3:TrackPointExtension>
        </extensions>
      </trkpt>
      <trkpt lat="37.751089744269847869873046875" lon="-107.71416035480797290802001953125">
        <ele>3481.800048828125</ele>
        <time>2023-07-29T13:25:27.000Z</time>
        <extensions>
          <ns3:TrackPointExtension>
            <ns3:hr>99</ns3:hr>
            <ns3:cad>0</ns3:cad>
          </ns3:TrackPointExtension>
        </extensions>
      </trkpt>
      <trkpt lat="37.75109267793595790863037109375" lon="-107.71416219882667064666748046875">
        <ele>3481.800048828125</ele>
        <time>2023-07-29T13:25:28.000Z</time>
        <extensions>
          <ns3:TrackPointExtension>
            <ns3:hr>99</ns3:hr>
            <ns3:cad>0</ns3:cad>
          </ns3:TrackPointExtension>
        </extensions>
      </trkpt>
      <trkpt lat="37.75109502486884593963623046875" lon="-107.71416370756924152374267578125">
        <ele>3482</ele>
        <time>2023-07-29T13:25:29.000Z</time>
        <extensions>
          <ns3:TrackPointExtension>
            <ns3:hr>99</ns3:hr>
            <ns3:cad>0</ns3:cad>
          </ns3:TrackPointExtension>
        </extensions>
      </trkpt>
      <trkpt lat="37.75109385140240192413330078125" lon="-107.71415884606540203094482421875">
        <ele>3482.199951171875</ele>
        <time>2023-07-29T13:25:30.000Z</time>
        <extensions>
          <ns3:TrackPointExtension>
            <ns3:hr>98</ns3:hr>
            <ns3:cad>0</ns3:cad>
          </ns3:TrackPointExtension>
        </extensions>
      </trkpt>
      <trkpt lat="37.7510956116020679473876953125" lon="-107.7141550742089748382568359375">
        <ele>3482.199951171875</ele>
        <time>2023-07-29T13:25:31.000Z</time>
        <extensions>
          <ns3:TrackPointExtension>
            <ns3:hr>98</ns3:hr>
            <ns3:cad>0</ns3:cad>
          </ns3:TrackPointExtension>
        </extensions>
      </trkpt>
      <trkpt lat="37.7510981261730194091796875" lon="-107.7141550742089748382568359375">
        <ele>3482.39990234375</ele>
        <time>2023-07-29T13:25:32.000Z</time>
        <extensions>
          <ns3:TrackPointExtension>
            <ns3:hr>98</ns3:hr>
            <ns3:cad>0</ns3:cad>
          </ns3:TrackPointExtension>
        </extensions>
      </trkpt>
      <trkpt lat="37.7510962821543216705322265625" lon="-107.71414811722934246063232421875">
        <ele>3482.39990234375</ele>
        <time>2023-07-29T13:25:33.000Z</time>
        <extensions>
          <ns3:TrackPointExtension>
            <ns3:hr>98</ns3:hr>
            <ns3:cad>0</ns3:cad>
          </ns3:TrackPointExtension>
        </extensions>
      </trkpt>
      <trkpt lat="37.751097120344638824462890625" lon="-107.71414442919194698333740234375">
        <ele>3482.39990234375</ele>
        <time>2023-07-29T13:25:34.000Z</time>
        <extensions>
          <ns3:TrackPointExtension>
            <ns3:hr>97</ns3:hr>
            <ns3:cad>0</ns3:cad>
          </ns3:TrackPointExtension>
        </extensions>
      </trkpt>
      <trkpt lat="37.75110013782978057861328125" lon="-107.7141453512012958526611328125">
        <ele>3482.39990234375</ele>
        <time>2023-07-29T13:25:35.000Z</time>
        <extensions>
          <ns3:TrackPointExtension>
            <ns3:hr>97</ns3:hr>
            <ns3:cad>0</ns3:cad>
          </ns3:TrackPointExtension>
        </extensions>
      </trkpt>
      <trkpt lat="37.751101143658161163330078125" lon="-107.71414409391582012176513671875">
        <ele>3482.39990234375</ele>
        <time>2023-07-29T13:25:36.000Z</time>
        <extensions>
          <ns3:TrackPointExtension>
            <ns3:hr>97</ns3:hr>
            <ns3:cad>0</ns3:cad>
          </ns3:TrackPointExtension>
        </extensions>
      </trkpt>
      <trkpt lat="37.751105166971683502197265625" lon="-107.71413906477391719818115234375">
        <ele>3482.199951171875</ele>
        <time>2023-07-29T13:25:37.000Z</time>
        <extensions>
          <ns3:TrackPointExtension>
            <ns3:hr>96</ns3:hr>
            <ns3:cad>52</ns3:cad>
          </ns3:TrackPointExtension>
        </extensions>
      </trkpt>
      <trkpt lat="37.751115895807743072509765625" lon="-107.71413235925137996673583984375">
        <ele>3482.199951171875</ele>
        <time>2023-07-29T13:25:38.000Z</time>
        <extensions>
          <ns3:TrackPointExtension>
            <ns3:hr>96</ns3:hr>
            <ns3:cad>52</ns3:cad>
          </ns3:TrackPointExtension>
        </extensions>
      </trkpt>
      <trkpt lat="37.75112838484346866607666015625" lon="-107.71412380971014499664306640625">
        <ele>3482.199951171875</ele>
        <time>2023-07-29T13:25:39.000Z</time>
        <extensions>
          <ns3:TrackPointExtension>
            <ns3:hr>95</ns3:hr>
            <ns3:cad>0</ns3:cad>
          </ns3:TrackPointExtension>
        </extensions>
      </trkpt>
      <trkpt lat="37.75113844312727451324462890625" lon="-107.7141185291111469268798828125">
        <ele>3482.199951171875</ele>
        <time>2023-07-29T13:25:40.000Z</time>
        <extensions>
          <ns3:TrackPointExtension>
            <ns3:hr>95</ns3:hr>
            <ns3:cad>0</ns3:cad>
          </ns3:TrackPointExtension>
        </extensions>
      </trkpt>
      <trkpt lat="37.75114514864981174468994140625" lon="-107.71411391906440258026123046875">
        <ele>3482.199951171875</ele>
        <time>2023-07-29T13:25:41.000Z</time>
        <extensions>
          <ns3:TrackPointExtension>
            <ns3:hr>95</ns3:hr>
            <ns3:cad>58</ns3:cad>
          </ns3:TrackPointExtension>
        </extensions>
      </trkpt>
      <trkpt lat="37.7511509321630001068115234375" lon="-107.71411442197859287261962890625">
        <ele>3482.199951171875</ele>
        <time>2023-07-29T13:25:42.000Z</time>
        <extensions>
          <ns3:TrackPointExtension>
            <ns3:hr>94</ns3:hr>
            <ns3:cad>58</ns3:cad>
          </ns3:TrackPointExtension>
        </extensions>
      </trkpt>
      <trkpt lat="37.751160822808742523193359375" lon="-107.71411207504570484161376953125">
        <ele>3482.199951171875</ele>
        <time>2023-07-29T13:25:43.000Z</time>
        <extensions>
          <ns3:TrackPointExtension>
            <ns3:hr>94</ns3:hr>
            <ns3:cad>58</ns3:cad>
          </ns3:TrackPointExtension>
        </extensions>
      </trkpt>
      <trkpt lat="37.751177586615085601806640625" lon="-107.71410964429378509521484375">
        <ele>3482.199951171875</ele>
        <time>2023-07-29T13:25:44.000Z</time>
        <extensions>
          <ns3:TrackPointExtension>
            <ns3:hr>93</ns3:hr>
            <ns3:cad>58</ns3:cad>
          </ns3:TrackPointExtension>
        </extensions>
      </trkpt>
      <trkpt lat="37.7511847950518131256103515625" lon="-107.71411039866507053375244140625">
        <ele>3482</ele>
        <time>2023-07-29T13:25:45.000Z</time>
        <extensions>
          <ns3:TrackPointExtension>
            <ns3:hr>92</ns3:hr>
            <ns3:cad>58</ns3:cad>
          </ns3:TrackPointExtension>
        </extensions>
      </trkpt>
      <trkpt lat="37.7511928416788578033447265625" lon="-107.71411090157926082611083984375">
        <ele>3481.800048828125</ele>
        <time>2023-07-29T13:25:46.000Z</time>
        <extensions>
          <ns3:TrackPointExtension>
            <ns3:hr>92</ns3:hr>
            <ns3:cad>57</ns3:cad>
          </ns3:TrackPointExtension>
        </extensions>
      </trkpt>
      <trkpt lat="37.7511982060968875885009765625" lon="-107.714114673435688018798828125">
        <ele>3481.800048828125</ele>
        <time>2023-07-29T13:25:47.000Z</time>
        <extensions>
          <ns3:TrackPointExtension>
            <ns3:hr>91</ns3:hr>
            <ns3:cad>57</ns3:cad>
          </ns3:TrackPointExtension>
        </extensions>
      </trkpt>
      <trkpt lat="37.7511992119252681732177734375" lon="-107.7141195349395275115966796875">
        <ele>3481.800048828125</ele>
        <time>2023-07-29T13:25:48.000Z</time>
        <extensions>
          <ns3:TrackPointExtension>
            <ns3:hr>90</ns3:hr>
            <ns3:cad>0</ns3:cad>
          </ns3:TrackPointExtension>
        </extensions>
      </trkpt>
      <trkpt lat="37.751201055943965911865234375" lon="-107.71412347443401813507080078125">
        <ele>3481.800048828125</ele>
        <time>2023-07-29T13:25:49.000Z</time>
        <extensions>
          <ns3:TrackPointExtension>
            <ns3:hr>90</ns3:hr>
            <ns3:cad>0</ns3:cad>
          </ns3:TrackPointExtension>
        </extensions>
      </trkpt>
      <trkpt lat="37.75120181031525135040283203125" lon="-107.7141289226710796356201171875">
        <ele>3481.800048828125</ele>
        <time>2023-07-29T13:25:50.000Z</time>
        <extensions>
          <ns3:TrackPointExtension>
            <ns3:hr>89</ns3:hr>
            <ns3:cad>0</ns3:cad>
          </ns3:TrackPointExtension>
        </extensions>
      </trkpt>
      <trkpt lat="37.75120935402810573577880859375" lon="-107.71413621492683887481689453125">
        <ele>3481.60009765625</ele>
        <time>2023-07-29T13:25:51.000Z</time>
        <extensions>
          <ns3:TrackPointExtension>
            <ns3:hr>89</ns3:hr>
            <ns3:cad>0</ns3:cad>
          </ns3:TrackPointExtension>
        </extensions>
      </trkpt>
      <trkpt lat="37.751210443675518035888671875" lon="-107.71414057351648807525634765625">
        <ele>3481.60009765625</ele>
        <time>2023-07-29T13:25:52.000Z</time>
        <extensions>
          <ns3:TrackPointExtension>
            <ns3:hr>88</ns3:hr>
            <ns3:cad>0</ns3:cad>
          </ns3:TrackPointExtension>
        </extensions>
      </trkpt>
      <trkpt lat="37.7512080967426300048828125" lon="-107.71413923241198062896728515625">
        <ele>3481.60009765625</ele>
        <time>2023-07-29T13:25:53.000Z</time>
        <extensions>
          <ns3:TrackPointExtension>
            <ns3:hr>88</ns3:hr>
            <ns3:cad>0</ns3:cad>
          </ns3:TrackPointExtension>
        </extensions>
      </trkpt>
      <trkpt lat="37.7512049116194248199462890625" lon="-107.7141416631639003753662109375">
        <ele>3481.60009765625</ele>
        <time>2023-07-29T13:25:54.000Z</time>
        <extensions>
          <ns3:TrackPointExtension>
            <ns3:hr>88</ns3:hr>
            <ns3:cad>0</ns3:cad>
          </ns3:TrackPointExtension>
        </extensions>
      </trkpt>
      <trkpt lat="37.7512069232761859893798828125" lon="-107.71414526738226413726806640625">
        <ele>3481.60009765625</ele>
        <time>2023-07-29T13:25:55.000Z</time>
        <extensions>
          <ns3:TrackPointExtension>
            <ns3:hr>88</ns3:hr>
            <ns3:cad>0</ns3:cad>
          </ns3:TrackPointExtension>
        </extensions>
      </trkpt>
      <trkpt lat="37.7512193284928798675537109375" lon="-107.7141544036567211151123046875">
        <ele>3481.60009765625</ele>
        <time>2023-07-29T13:25:56.000Z</time>
        <extensions>
          <ns3:TrackPointExtension>
            <ns3:hr>87</ns3:hr>
            <ns3:cad>0</ns3:cad>
          </ns3:TrackPointExtension>
        </extensions>
      </trkpt>
      <trkpt lat="37.75123382918536663055419921875" lon="-107.7141617797315120697021484375">
        <ele>3481.800048828125</ele>
        <time>2023-07-29T13:25:57.000Z</time>
        <extensions>
          <ns3:TrackPointExtension>
            <ns3:hr>87</ns3:hr>
            <ns3:cad>0</ns3:cad>
          </ns3:TrackPointExtension>
        </extensions>
      </trkpt>
      <trkpt lat="37.751250676810741424560546875" lon="-107.71417208947241306304931640625">
        <ele>3482</ele>
        <time>2023-07-29T13:25:58.000Z</time>
        <extensions>
          <ns3:TrackPointExtension>
            <ns3:hr>87</ns3:hr>
            <ns3:cad>0</ns3:cad>
          </ns3:TrackPointExtension>
        </extensions>
      </trkpt>
      <trkpt lat="37.75126098655164241790771484375" lon="-107.71417695097625255584716796875">
        <ele>3482</ele>
        <time>2023-07-29T13:25:59.000Z</time>
        <extensions>
          <ns3:TrackPointExtension>
            <ns3:hr>86</ns3:hr>
            <ns3:cad>0</ns3:cad>
          </ns3:TrackPointExtension>
        </extensions>
      </trkpt>
      <trkpt lat="37.75126400403678417205810546875" lon="-107.7141787111759185791015625">
        <ele>3482</ele>
        <time>2023-07-29T13:26:00.000Z</time>
        <extensions>
          <ns3:TrackPointExtension>
            <ns3:hr>86</ns3:hr>
            <ns3:cad>0</ns3:cad>
          </ns3:TrackPointExtension>
        </extensions>
      </trkpt>
      <trkpt lat="37.751270122826099395751953125" lon="-107.7141813933849334716796875">
        <ele>3482.199951171875</ele>
        <time>2023-07-29T13:26:01.000Z</time>
        <extensions>
          <ns3:TrackPointExtension>
            <ns3:hr>86</ns3:hr>
            <ns3:cad>0</ns3:cad>
          </ns3:TrackPointExtension>
        </extensions>
      </trkpt>
      <trkpt lat="37.75127339176833629608154296875" lon="-107.71418348886072635650634765625">
        <ele>3482.39990234375</ele>
        <time>2023-07-29T13:26:02.000Z</time>
        <extensions>
          <ns3:TrackPointExtension>
            <ns3:hr>86</ns3:hr>
            <ns3:cad>0</ns3:cad>
          </ns3:TrackPointExtension>
        </extensions>
      </trkpt>
      <trkpt lat="37.7512776665389537811279296875" lon="-107.71418600343167781829833984375">
        <ele>3482.60009765625</ele>
        <time>2023-07-29T13:26:03.000Z</time>
        <extensions>
          <ns3:TrackPointExtension>
            <ns3:hr>85</ns3:hr>
            <ns3:cad>0</ns3:cad>
          </ns3:TrackPointExtension>
        </extensions>
      </trkpt>
      <trkpt lat="37.75128386914730072021484375" lon="-107.714191786944866180419921875">
        <ele>3482.60009765625</ele>
        <time>2023-07-29T13:26:04.000Z</time>
        <extensions>
          <ns3:TrackPointExtension>
            <ns3:hr>84</ns3:hr>
            <ns3:cad>0</ns3:cad>
          </ns3:TrackPointExtension>
        </extensions>
      </trkpt>
      <trkpt lat="37.7512897364795207977294921875" lon="-107.714200504124164581298828125">
        <ele>3482.60009765625</ele>
        <time>2023-07-29T13:26:05.000Z</time>
        <extensions>
          <ns3:TrackPointExtension>
            <ns3:hr>84</ns3:hr>
            <ns3:cad>0</ns3:cad>
          </ns3:TrackPointExtension>
        </extensions>
      </trkpt>
      <trkpt lat="37.75129753164947032928466796875" lon="-107.71420729346573352813720703125">
        <ele>3482.800048828125</ele>
        <time>2023-07-29T13:26:06.000Z</time>
        <extensions>
          <ns3:TrackPointExtension>
            <ns3:hr>83</ns3:hr>
            <ns3:cad>0</ns3:cad>
          </ns3:TrackPointExtension>
        </extensions>
      </trkpt>
      <trkpt lat="37.7513165585696697235107421875" lon="-107.71422171033918857574462890625">
        <ele>3482.800048828125</ele>
        <time>2023-07-29T13:26:07.000Z</time>
        <extensions>
          <ns3:TrackPointExtension>
            <ns3:hr>82</ns3:hr>
            <ns3:cad>0</ns3:cad>
          </ns3:TrackPointExtension>
        </extensions>
      </trkpt>
      <trkpt lat="37.75132946670055389404296875" lon="-107.71422992460429668426513671875">
        <ele>3482.800048828125</ele>
        <time>2023-07-29T13:26:08.000Z</time>
        <extensions>
          <ns3:TrackPointExtension>
            <ns3:hr>82</ns3:hr>
            <ns3:cad>0</ns3:cad>
          </ns3:TrackPointExtension>
        </extensions>
      </trkpt>
      <trkpt lat="37.7513427101075649261474609375" lon="-107.71423847414553165435791015625">
        <ele>3483.199951171875</ele>
        <time>2023-07-29T13:26:09.000Z</time>
        <extensions>
          <ns3:TrackPointExtension>
            <ns3:hr>82</ns3:hr>
            <ns3:cad>0</ns3:cad>
          </ns3:TrackPointExtension>
        </extensions>
      </trkpt>
      <trkpt lat="37.75135201402008533477783203125" lon="-107.71424517966806888580322265625">
        <ele>3483.39990234375</ele>
        <time>2023-07-29T13:26:10.000Z</time>
        <extensions>
          <ns3:TrackPointExtension>
            <ns3:hr>81</ns3:hr>
            <ns3:cad>0</ns3:cad>
          </ns3:TrackPointExtension>
        </extensions>
      </trkpt>
      <trkpt lat="37.7513651736080646514892578125" lon="-107.71425557322800159454345703125">
        <ele>3483.60009765625</ele>
        <time>2023-07-29T13:26:11.000Z</time>
        <extensions>
          <ns3:TrackPointExtension>
            <ns3:hr>81</ns3:hr>
            <ns3:cad>0</ns3:cad>
          </ns3:TrackPointExtension>
        </extensions>
      </trkpt>
      <trkpt lat="37.75137506425380706787109375" lon="-107.7142613567411899566650390625">
        <ele>3483.800048828125</ele>
        <time>2023-07-29T13:26:12.000Z</time>
        <extensions>
          <ns3:TrackPointExtension>
            <ns3:hr>82</ns3:hr>
            <ns3:cad>0</ns3:cad>
          </ns3:TrackPointExtension>
        </extensions>
      </trkpt>
      <trkpt lat="37.751388140022754669189453125" lon="-107.71426881663501262664794921875">
        <ele>3484</ele>
        <time>2023-07-29T13:26:13.000Z</time>
        <extensions>
          <ns3:TrackPointExtension>
            <ns3:hr>82</ns3:hr>
            <ns3:cad>0</ns3:cad>
          </ns3:TrackPointExtension>
        </extensions>
      </trkpt>
      <trkpt lat="37.75140146724879741668701171875" lon="-107.71427619270980358123779296875">
        <ele>3484</ele>
        <time>2023-07-29T13:26:14.000Z</time>
        <extensions>
          <ns3:TrackPointExtension>
            <ns3:hr>82</ns3:hr>
            <ns3:cad>61</ns3:cad>
          </ns3:TrackPointExtension>
        </extensions>
      </trkpt>
      <trkpt lat="37.75141102261841297149658203125" lon="-107.7142831496894359588623046875">
        <ele>3484.199951171875</ele>
        <time>2023-07-29T13:26:15.000Z</time>
        <extensions>
          <ns3:TrackPointExtension>
            <ns3:hr>82</ns3:hr>
            <ns3:cad>61</ns3:cad>
          </ns3:TrackPointExtension>
        </extensions>
      </trkpt>
      <trkpt lat="37.75142225436866283416748046875" lon="-107.714287675917148590087890625">
        <ele>3484.39990234375</ele>
        <time>2023-07-29T13:26:16.000Z</time>
        <extensions>
          <ns3:TrackPointExtension>
            <ns3:hr>83</ns3:hr>
            <ns3:cad>61</ns3:cad>
          </ns3:TrackPointExtension>
        </extensions>
      </trkpt>
      <trkpt lat="37.75142728351056575775146484375" lon="-107.71429144777357578277587890625">
        <ele>3484.60009765625</ele>
        <time>2023-07-29T13:26:17.000Z</time>
        <extensions>
          <ns3:TrackPointExtension>
            <ns3:hr>85</ns3:hr>
            <ns3:cad>61</ns3:cad>
          </ns3:TrackPointExtension>
        </extensions>
      </trkpt>
      <trkpt lat="37.75144211947917938232421875" lon="-107.71430033259093761444091796875">
        <ele>3484.60009765625</ele>
        <time>2023-07-29T13:26:18.000Z</time>
        <extensions>
          <ns3:TrackPointExtension>
            <ns3:hr>86</ns3:hr>
            <ns3:cad>61</ns3:cad>
          </ns3:TrackPointExtension>
        </extensions>
      </trkpt>
      <trkpt lat="37.75144773535430431365966796875" lon="-107.71430251188576221466064453125">
        <ele>3484.800048828125</ele>
        <time>2023-07-29T13:26:19.000Z</time>
        <extensions>
          <ns3:TrackPointExtension>
            <ns3:hr>86</ns3:hr>
            <ns3:cad>61</ns3:cad>
          </ns3:TrackPointExtension>
        </extensions>
      </trkpt>
      <trkpt lat="37.75145863182842731475830078125" lon="-107.7143089659512042999267578125">
        <ele>3485</ele>
        <time>2023-07-29T13:26:20.000Z</time>
        <extensions>
          <ns3:TrackPointExtension>
            <ns3:hr>86</ns3:hr>
            <ns3:cad>61</ns3:cad>
          </ns3:TrackPointExtension>
        </extensions>
      </trkpt>
      <trkpt lat="37.75146734900772571563720703125" lon="-107.71431340835988521575927734375">
        <ele>3485</ele>
        <time>2023-07-29T13:26:21.000Z</time>
        <extensions>
          <ns3:TrackPointExtension>
            <ns3:hr>87</ns3:hr>
            <ns3:cad>61</ns3:cad>
          </ns3:TrackPointExtension>
        </extensions>
      </trkpt>
      <trkpt lat="37.7514781616628170013427734375" lon="-107.71431961096823215484619140625">
        <ele>3485.199951171875</ele>
        <time>2023-07-29T13:26:22.000Z</time>
        <extensions>
          <ns3:TrackPointExtension>
            <ns3:hr>87</ns3:hr>
            <ns3:cad>0</ns3:cad>
          </ns3:TrackPointExtension>
        </extensions>
      </trkpt>
      <trkpt lat="37.751493416726589202880859375" lon="-107.71432899869978427886962890625">
        <ele>3485.199951171875</ele>
        <time>2023-07-29T13:26:23.000Z</time>
        <extensions>
          <ns3:TrackPointExtension>
            <ns3:hr>88</ns3:hr>
            <ns3:cad>0</ns3:cad>
          </ns3:TrackPointExtension>
        </extensions>
      </trkpt>
      <trkpt lat="37.7515004575252532958984375" lon="-107.7143334411084651947021484375">
        <ele>3485.39990234375</ele>
        <time>2023-07-29T13:26:24.000Z</time>
        <extensions>
          <ns3:TrackPointExtension>
            <ns3:hr>88</ns3:hr>
            <ns3:cad>0</ns3:cad>
          </ns3:TrackPointExtension>
        </extensions>
      </trkpt>
      <trkpt lat="37.75151194073259830474853515625" lon="-107.7143428288400173187255859375">
        <ele>3485.60009765625</ele>
        <time>2023-07-29T13:26:25.000Z</time>
        <extensions>
          <ns3:TrackPointExtension>
            <ns3:hr>89</ns3:hr>
            <ns3:cad>0</ns3:cad>
          </ns3:TrackPointExtension>
        </extensions>
      </trkpt>
      <trkpt lat="37.75152367539703845977783203125" lon="-107.71435079164803028106689453125">
        <ele>3485.800048828125</ele>
        <time>2023-07-29T13:26:26.000Z</time>
        <extensions>
          <ns3:TrackPointExtension>
            <ns3:hr>91</ns3:hr>
            <ns3:cad>0</ns3:cad>
          </ns3:TrackPointExtension>
        </extensions>
      </trkpt>
      <trkpt lat="37.75152526795864105224609375" lon="-107.7143555693328380584716796875">
        <ele>3485.800048828125</ele>
        <time>2023-07-29T13:26:27.000Z</time>
        <extensions>
          <ns3:TrackPointExtension>
            <ns3:hr>92</ns3:hr>
            <ns3:cad>0</ns3:cad>
          </ns3:TrackPointExtension>
        </extensions>
      </trkpt>
      <trkpt lat="37.7515271119773387908935546875" lon="-107.7143616043031215667724609375">
        <ele>3486</ele>
        <time>2023-07-29T13:26:28.000Z</time>
        <extensions>
          <ns3:TrackPointExtension>
            <ns3:hr>93</ns3:hr>
            <ns3:cad>0</ns3:cad>
          </ns3:TrackPointExtension>
        </extensions>
      </trkpt>
      <trkpt lat="37.7515301294624805450439453125" lon="-107.71436789073050022125244140625">
        <ele>3486.199951171875</ele>
        <time>2023-07-29T13:26:29.000Z</time>
        <extensions>
          <ns3:TrackPointExtension>
            <ns3:hr>94</ns3:hr>
            <ns3:cad>0</ns3:cad>
          </ns3:TrackPointExtension>
        </extensions>
      </trkpt>
      <trkpt lat="37.75153541006147861480712890625" lon="-107.71437518298625946044921875">
        <ele>3486.199951171875</ele>
        <time>2023-07-29T13:26:30.000Z</time>
        <extensions>
          <ns3:TrackPointExtension>
            <ns3:hr>94</ns3:hr>
            <ns3:cad>0</ns3:cad>
          </ns3:TrackPointExtension>
        </extensions>
      </trkpt>
      <trkpt lat="37.75153926573693752288818359375" lon="-107.71438901312649250030517578125">
        <ele>3486.39990234375</ele>
        <time>2023-07-29T13:26:31.000Z</time>
        <extensions>
          <ns3:TrackPointExtension>
            <ns3:hr>95</ns3:hr>
            <ns3:cad>0</ns3:cad>
          </ns3:TrackPointExtension>
        </extensions>
      </trkpt>
      <trkpt lat="37.75153976865112781524658203125" lon="-107.71440376527607440948486328125">
        <ele>3486.60009765625</ele>
        <time>2023-07-29T13:26:32.000Z</time>
        <extensions>
          <ns3:TrackPointExtension>
            <ns3:hr>95</ns3:hr>
            <ns3:cad>0</ns3:cad>
          </ns3:TrackPointExtension>
        </extensions>
      </trkpt>
      <trkpt lat="37.7515401877462863922119140625" lon="-107.71441600285470485687255859375">
        <ele>3486.800048828125</ele>
        <time>2023-07-29T13:26:33.000Z</time>
        <extensions>
          <ns3:TrackPointExtension>
            <ns3:hr>96</ns3:hr>
            <ns3:cad>0</ns3:cad>
          </ns3:TrackPointExtension>
        </extensions>
      </trkpt>
      <trkpt lat="37.7515391819179058074951171875" lon="-107.7144253067672252655029296875">
        <ele>3487</ele>
        <time>2023-07-29T13:26:34.000Z</time>
        <extensions>
          <ns3:TrackPointExtension>
            <ns3:hr>97</ns3:hr>
            <ns3:cad>0</ns3:cad>
          </ns3:TrackPointExtension>
        </extensions>
      </trkpt>
      <trkpt lat="37.75153809227049350738525390625" lon="-107.7144373767077922821044921875">
        <ele>3487.199951171875</ele>
        <time>2023-07-29T13:26:35.000Z</time>
        <extensions>
          <ns3:TrackPointExtension>
            <ns3:hr>98</ns3:hr>
            <ns3:cad>0</ns3:cad>
          </ns3:TrackPointExtension>
        </extensions>
      </trkpt>
      <trkpt lat="37.751536332070827484130859375" lon="-107.7144527994096279144287109375">
        <ele>3487.39990234375</ele>
        <time>2023-07-29T13:26:36.000Z</time>
        <extensions>
          <ns3:TrackPointExtension>
            <ns3:hr>99</ns3:hr>
            <ns3:cad>0</ns3:cad>
          </ns3:TrackPointExtension>
        </extensions>
      </trkpt>
      <trkpt lat="37.751532979309558868408203125" lon="-107.71446076221764087677001953125">
        <ele>3487.60009765625</ele>
        <time>2023-07-29T13:26:37.000Z</time>
        <extensions>
          <ns3:TrackPointExtension>
            <ns3:hr>100</ns3:hr>
            <ns3:cad>0</ns3:cad>
          </ns3:TrackPointExtension>
        </extensions>
      </trkpt>
      <trkpt lat="37.75152736343443393707275390625" lon="-107.71447467617690563201904296875">
        <ele>3487.60009765625</ele>
        <time>2023-07-29T13:26:38.000Z</time>
        <extensions>
          <ns3:TrackPointExtension>
            <ns3:hr>101</ns3:hr>
            <ns3:cad>0</ns3:cad>
          </ns3:TrackPointExtension>
        </extensions>
      </trkpt>
      <trkpt lat="37.7515219151973724365234375" lon="-107.71448423154652118682861328125">
        <ele>3488</ele>
        <time>2023-07-29T13:26:39.000Z</time>
        <extensions>
          <ns3:TrackPointExtension>
            <ns3:hr>102</ns3:hr>
            <ns3:cad>0</ns3:cad>
          </ns3:TrackPointExtension>
        </extensions>
      </trkpt>
      <trkpt lat="37.75151512585580348968505859375" lon="-107.71450401283800601959228515625">
        <ele>3488</ele>
        <time>2023-07-29T13:26:40.000Z</time>
        <extensions>
          <ns3:TrackPointExtension>
            <ns3:hr>103</ns3:hr>
            <ns3:cad>50</ns3:cad>
          </ns3:TrackPointExtension>
        </extensions>
      </trkpt>
      <trkpt lat="37.75150909088551998138427734375" lon="-107.71450485102832317352294921875">
        <ele>3488.199951171875</ele>
        <time>2023-07-29T13:26:41.000Z</time>
        <extensions>
          <ns3:TrackPointExtension>
            <ns3:hr>103</ns3:hr>
            <ns3:cad>50</ns3:cad>
          </ns3:TrackPointExtension>
        </extensions>
      </trkpt>
      <trkpt lat="37.75150741450488567352294921875" lon="-107.7145067788660526275634765625">
        <ele>3488.39990234375</ele>
        <time>2023-07-29T13:26:42.000Z</time>
        <extensions>
          <ns3:TrackPointExtension>
            <ns3:hr>104</ns3:hr>
            <ns3:cad>50</ns3:cad>
          </ns3:TrackPointExtension>
        </extensions>
      </trkpt>
      <trkpt lat="37.75150288827717304229736328125" lon="-107.71451256237924098968505859375">
        <ele>3488.60009765625</ele>
        <time>2023-07-29T13:26:43.000Z</time>
        <extensions>
          <ns3:TrackPointExtension>
            <ns3:hr>104</ns3:hr>
            <ns3:cad>0</ns3:cad>
          </ns3:TrackPointExtension>
        </extensions>
      </trkpt>
      <trkpt lat="37.75149752385914325714111328125" lon="-107.71451876498758792877197265625">
        <ele>3488.800048828125</ele>
        <time>2023-07-29T13:26:44.000Z</time>
        <extensions>
          <ns3:TrackPointExtension>
            <ns3:hr>105</ns3:hr>
            <ns3:cad>0</ns3:cad>
          </ns3:TrackPointExtension>
        </extensions>
      </trkpt>
      <trkpt lat="37.75149065069854259490966796875" lon="-107.71452362649142742156982421875">
        <ele>3489</ele>
        <time>2023-07-29T13:26:45.000Z</time>
        <extensions>
          <ns3:TrackPointExtension>
            <ns3:hr>105</ns3:hr>
            <ns3:cad>0</ns3:cad>
          </ns3:TrackPointExtension>
        </extensions>
      </trkpt>
      <trkpt lat="37.75148092769086360931396484375" lon="-107.71453385241329669952392578125">
        <ele>3489</ele>
        <time>2023-07-29T13:26:46.000Z</time>
        <extensions>
          <ns3:TrackPointExtension>
            <ns3:hr>105</ns3:hr>
            <ns3:cad>0</ns3:cad>
          </ns3:TrackPointExtension>
        </extensions>
      </trkpt>
      <trkpt lat="37.7514724619686603546142578125" lon="-107.71454692818224430084228515625">
        <ele>3489.199951171875</ele>
        <time>2023-07-29T13:26:47.000Z</time>
        <extensions>
          <ns3:TrackPointExtension>
            <ns3:hr>105</ns3:hr>
            <ns3:cad>0</ns3:cad>
          </ns3:TrackPointExtension>
        </extensions>
      </trkpt>
      <trkpt lat="37.751464582979679107666015625" lon="-107.71455698646605014801025390625">
        <ele>3489.39990234375</ele>
        <time>2023-07-29T13:26:48.000Z</time>
        <extensions>
          <ns3:TrackPointExtension>
            <ns3:hr>106</ns3:hr>
            <ns3:cad>0</ns3:cad>
          </ns3:TrackPointExtension>
        </extensions>
      </trkpt>
      <trkpt lat="37.75145930238068103790283203125" lon="-107.71456704474985599517822265625">
        <ele>3489.60009765625</ele>
        <time>2023-07-29T13:26:49.000Z</time>
        <extensions>
          <ns3:TrackPointExtension>
            <ns3:hr>106</ns3:hr>
            <ns3:cad>0</ns3:cad>
          </ns3:TrackPointExtension>
        </extensions>
      </trkpt>
      <trkpt lat="37.7514540217816829681396484375" lon="-107.71457324735820293426513671875">
        <ele>3489.800048828125</ele>
        <time>2023-07-29T13:26:50.000Z</time>
        <extensions>
          <ns3:TrackPointExtension>
            <ns3:hr>107</ns3:hr>
            <ns3:cad>0</ns3:cad>
          </ns3:TrackPointExtension>
        </extensions>
      </trkpt>
      <trkpt lat="37.751447819173336029052734375" lon="-107.71458481438457965850830078125">
        <ele>3490</ele>
        <time>2023-07-29T13:26:51.000Z</time>
        <extensions>
          <ns3:TrackPointExtension>
            <ns3:hr>107</ns3:hr>
            <ns3:cad>0</ns3:cad>
          </ns3:TrackPointExtension>
        </extensions>
      </trkpt>
      <trkpt lat="37.75144572369754314422607421875" lon="-107.714590765535831451416015625">
        <ele>3490.199951171875</ele>
        <time>2023-07-29T13:26:52.000Z</time>
        <extensions>
          <ns3:TrackPointExtension>
            <ns3:hr>107</ns3:hr>
            <ns3:cad>51</ns3:cad>
          </ns3:TrackPointExtension>
        </extensions>
      </trkpt>
      <trkpt lat="37.75144287385046482086181640625" lon="-107.71459688432514667510986328125">
        <ele>3490.199951171875</ele>
        <time>2023-07-29T13:26:53.000Z</time>
        <extensions>
          <ns3:TrackPointExtension>
            <ns3:hr>106</ns3:hr>
            <ns3:cad>51</ns3:cad>
          </ns3:TrackPointExtension>
        </extensions>
      </trkpt>
      <trkpt lat="37.7514362521469593048095703125" lon="-107.71460811607539653778076171875">
        <ele>3490.60009765625</ele>
        <time>2023-07-29T13:26:54.000Z</time>
        <extensions>
          <ns3:TrackPointExtension>
            <ns3:hr>107</ns3:hr>
            <ns3:cad>51</ns3:cad>
          </ns3:TrackPointExtension>
        </extensions>
      </trkpt>
      <trkpt lat="37.75142862461507320404052734375" lon="-107.7146154083311557769775390625">
        <ele>3490.800048828125</ele>
        <time>2023-07-29T13:26:55.000Z</time>
        <extensions>
          <ns3:TrackPointExtension>
            <ns3:hr>107</ns3:hr>
            <ns3:cad>51</ns3:cad>
          </ns3:TrackPointExtension>
        </extensions>
      </trkpt>
      <trkpt lat="37.75142912752926349639892578125" lon="-107.714614570140838623046875">
        <ele>3491</ele>
        <time>2023-07-29T13:26:56.000Z</time>
        <extensions>
          <ns3:TrackPointExtension>
            <ns3:hr>107</ns3:hr>
            <ns3:cad>0</ns3:cad>
          </ns3:TrackPointExtension>
        </extensions>
      </trkpt>
      <trkpt lat="37.75142242200672626495361328125" lon="-107.71462739445269107818603515625">
        <ele>3491.39990234375</ele>
        <time>2023-07-29T13:26:57.000Z</time>
        <extensions>
          <ns3:TrackPointExtension>
            <ns3:hr>107</ns3:hr>
            <ns3:cad>0</ns3:cad>
          </ns3:TrackPointExtension>
        </extensions>
      </trkpt>
      <trkpt lat="37.75141672231256961822509765625" lon="-107.7146281488239765167236328125">
        <ele>3491.60009765625</ele>
        <time>2023-07-29T13:26:58.000Z</time>
        <extensions>
          <ns3:TrackPointExtension>
            <ns3:hr>108</ns3:hr>
            <ns3:cad>0</ns3:cad>
          </ns3:TrackPointExtension>
        </extensions>
      </trkpt>
      <trkpt lat="37.75141127407550811767578125" lon="-107.71463024429976940155029296875">
        <ele>3491.60009765625</ele>
        <time>2023-07-29T13:26:59.000Z</time>
        <extensions>
          <ns3:TrackPointExtension>
            <ns3:hr>108</ns3:hr>
            <ns3:cad>0</ns3:cad>
          </ns3:TrackPointExtension>
        </extensions>
      </trkpt>
      <trkpt lat="37.751406915485858917236328125" lon="-107.71463577635586261749267578125">
        <ele>3491.800048828125</ele>
        <time>2023-07-29T13:27:00.000Z</time>
        <extensions>
          <ns3:TrackPointExtension>
            <ns3:hr>108</ns3:hr>
            <ns3:cad>0</ns3:cad>
          </ns3:TrackPointExtension>
        </extensions>
      </trkpt>
      <trkpt lat="37.751401551067829132080078125" lon="-107.71464047022163867950439453125">
        <ele>3492.199951171875</ele>
        <time>2023-07-29T13:27:01.000Z</time>
        <extensions>
          <ns3:TrackPointExtension>
            <ns3:hr>108</ns3:hr>
            <ns3:cad>0</ns3:cad>
          </ns3:TrackPointExtension>
        </extensions>
      </trkpt>
      <trkpt lat="37.75139660574495792388916015625" lon="-107.71464608609676361083984375">
        <ele>3492.39990234375</ele>
        <time>2023-07-29T13:27:02.000Z</time>
        <extensions>
          <ns3:TrackPointExtension>
            <ns3:hr>109</ns3:hr>
            <ns3:cad>0</ns3:cad>
          </ns3:TrackPointExtension>
        </extensions>
      </trkpt>
      <trkpt lat="37.75139057077467441558837890625" lon="-107.7146539650857448577880859375">
        <ele>3492.39990234375</ele>
        <time>2023-07-29T13:27:03.000Z</time>
        <extensions>
          <ns3:TrackPointExtension>
            <ns3:hr>109</ns3:hr>
            <ns3:cad>0</ns3:cad>
          </ns3:TrackPointExtension>
        </extensions>
      </trkpt>
      <trkpt lat="37.75138369761407375335693359375" lon="-107.71466410718858242034912109375">
        <ele>3492.60009765625</ele>
        <time>2023-07-29T13:27:04.000Z</time>
        <extensions>
          <ns3:TrackPointExtension>
            <ns3:hr>109</ns3:hr>
            <ns3:cad>0</ns3:cad>
          </ns3:TrackPointExtension>
        </extensions>
      </trkpt>
      <trkpt lat="37.7513732202351093292236328125" lon="-107.71467684768140316009521484375">
        <ele>3492.60009765625</ele>
        <time>2023-07-29T13:27:05.000Z</time>
        <extensions>
          <ns3:TrackPointExtension>
            <ns3:hr>109</ns3:hr>
            <ns3:cad>0</ns3:cad>
          </ns3:TrackPointExtension>
        </extensions>
      </trkpt>
      <trkpt lat="37.7513671852648258209228515625" lon="-107.71468305028975009918212890625">
        <ele>3492.60009765625</ele>
        <time>2023-07-29T13:27:06.000Z</time>
        <extensions>
          <ns3:TrackPointExtension>
            <ns3:hr>109</ns3:hr>
            <ns3:cad>0</ns3:cad>
          </ns3:TrackPointExtension>
        </extensions>
      </trkpt>
      <trkpt lat="37.75135939009487628936767578125" lon="-107.7146923542022705078125">
        <ele>3492.800048828125</ele>
        <time>2023-07-29T13:27:07.000Z</time>
        <extensions>
          <ns3:TrackPointExtension>
            <ns3:hr>109</ns3:hr>
            <ns3:cad>0</ns3:cad>
          </ns3:TrackPointExtension>
        </extensions>
      </trkpt>
      <trkpt lat="37.7513556182384490966796875" lon="-107.71469746716320514678955078125">
        <ele>3493</ele>
        <time>2023-07-29T13:27:08.000Z</time>
        <extensions>
          <ns3:TrackPointExtension>
            <ns3:hr>110</ns3:hr>
            <ns3:cad>0</ns3:cad>
          </ns3:TrackPointExtension>
        </extensions>
      </trkpt>
      <trkpt lat="37.7513470686972141265869140625" lon="-107.71470886655151844024658203125">
        <ele>3493.199951171875</ele>
        <time>2023-07-29T13:27:09.000Z</time>
        <extensions>
          <ns3:TrackPointExtension>
            <ns3:hr>112</ns3:hr>
            <ns3:cad>0</ns3:cad>
          </ns3:TrackPointExtension>
        </extensions>
      </trkpt>
      <trkpt lat="37.75133625604212284088134765625" lon="-107.71471808664500713348388671875">
        <ele>3493.199951171875</ele>
        <time>2023-07-29T13:27:10.000Z</time>
        <extensions>
          <ns3:TrackPointExtension>
            <ns3:hr>112</ns3:hr>
            <ns3:cad>0</ns3:cad>
          </ns3:TrackPointExtension>
        </extensions>
      </trkpt>
      <trkpt lat="37.751327790319919586181640625" lon="-107.71472990512847900390625">
        <ele>3493.39990234375</ele>
        <time>2023-07-29T13:27:11.000Z</time>
        <extensions>
          <ns3:TrackPointExtension>
            <ns3:hr>112</ns3:hr>
            <ns3:cad>0</ns3:cad>
          </ns3:TrackPointExtension>
        </extensions>
      </trkpt>
      <trkpt lat="37.75132066570222377777099609375" lon="-107.714732587337493896484375">
        <ele>3493.60009765625</ele>
        <time>2023-07-29T13:27:12.000Z</time>
        <extensions>
          <ns3:TrackPointExtension>
            <ns3:hr>113</ns3:hr>
            <ns3:cad>0</ns3:cad>
          </ns3:TrackPointExtension>
        </extensions>
      </trkpt>
      <trkpt lat="37.7513111941516399383544921875" lon="-107.7147366106510162353515625">
        <ele>3493.60009765625</ele>
        <time>2023-07-29T13:27:13.000Z</time>
        <extensions>
          <ns3:TrackPointExtension>
            <ns3:hr>113</ns3:hr>
            <ns3:cad>0</ns3:cad>
          </ns3:TrackPointExtension>
        </extensions>
      </trkpt>
      <trkpt lat="37.75130189023911952972412109375" lon="-107.71474675275385379791259765625">
        <ele>3493.60009765625</ele>
        <time>2023-07-29T13:27:14.000Z</time>
        <extensions>
          <ns3:TrackPointExtension>
            <ns3:hr>113</ns3:hr>
            <ns3:cad>0</ns3:cad>
          </ns3:TrackPointExtension>
        </extensions>
      </trkpt>
      <trkpt lat="37.7512912452220916748046875" lon="-107.71475580520927906036376953125">
        <ele>3494</ele>
        <time>2023-07-29T13:27:15.000Z</time>
        <extensions>
          <ns3:TrackPointExtension>
            <ns3:hr>113</ns3:hr>
            <ns3:cad>0</ns3:cad>
          </ns3:TrackPointExtension>
        </extensions>
      </trkpt>
      <trkpt lat="37.75128663517534732818603515625" lon="-107.7147622592747211456298828125">
        <ele>3494</ele>
        <time>2023-07-29T13:27:16.000Z</time>
        <extensions>
          <ns3:TrackPointExtension>
            <ns3:hr>113</ns3:hr>
            <ns3:cad>0</ns3:cad>
          </ns3:TrackPointExtension>
        </extensions>
      </trkpt>
      <trkpt lat="37.75127984583377838134765625" lon="-107.71476318128407001495361328125">
        <ele>3494.199951171875</ele>
        <time>2023-07-29T13:27:17.000Z</time>
        <extensions>
          <ns3:TrackPointExtension>
            <ns3:hr>113</ns3:hr>
            <ns3:cad>0</ns3:cad>
          </ns3:TrackPointExtension>
        </extensions>
      </trkpt>
      <trkpt lat="37.75127255357801914215087890625" lon="-107.714764773845672607421875">
        <ele>3494.39990234375</ele>
        <time>2023-07-29T13:27:18.000Z</time>
        <extensions>
          <ns3:TrackPointExtension>
            <ns3:hr>112</ns3:hr>
            <ns3:cad>0</ns3:cad>
          </ns3:TrackPointExtension>
        </extensions>
      </trkpt>
      <trkpt lat="37.75126635096967220306396484375" lon="-107.7147790230810642242431640625">
        <ele>3494.39990234375</ele>
        <time>2023-07-29T13:27:19.000Z</time>
        <extensions>
          <ns3:TrackPointExtension>
            <ns3:hr>112</ns3:hr>
            <ns3:cad>0</ns3:cad>
          </ns3:TrackPointExtension>
        </extensions>
      </trkpt>
      <trkpt lat="37.7512598969042301177978515625" lon="-107.7147853933274745941162109375">
        <ele>3494.60009765625</ele>
        <time>2023-07-29T13:27:20.000Z</time>
        <extensions>
          <ns3:TrackPointExtension>
            <ns3:hr>113</ns3:hr>
            <ns3:cad>0</ns3:cad>
          </ns3:TrackPointExtension>
        </extensions>
      </trkpt>
      <trkpt lat="37.7512588910758495330810546875" lon="-107.71478690207004547119140625">
        <ele>3494.800048828125</ele>
        <time>2023-07-29T13:27:21.000Z</time>
        <extensions>
          <ns3:TrackPointExtension>
            <ns3:hr>113</ns3:hr>
            <ns3:cad>0</ns3:cad>
          </ns3:TrackPointExtension>
        </extensions>
      </trkpt>
      <trkpt lat="37.751254700124263763427734375" lon="-107.7147996425628662109375">
        <ele>3495</ele>
        <time>2023-07-29T13:27:22.000Z</time>
        <extensions>
          <ns3:TrackPointExtension>
            <ns3:hr>113</ns3:hr>
            <ns3:cad>0</ns3:cad>
          </ns3:TrackPointExtension>
        </extensions>
      </trkpt>
      <trkpt lat="37.7512464858591556549072265625" lon="-107.71480165421962738037109375">
        <ele>3495.199951171875</ele>
        <time>2023-07-29T13:27:23.000Z</time>
        <extensions>
          <ns3:TrackPointExtension>
            <ns3:hr>113</ns3:hr>
            <ns3:cad>0</ns3:cad>
          </ns3:TrackPointExtension>
        </extensions>
      </trkpt>
      <trkpt lat="37.7512404508888721466064453125" lon="-107.7148135565221309661865234375">
        <ele>3495.39990234375</ele>
        <time>2023-07-29T13:27:24.000Z</time>
        <extensions>
          <ns3:TrackPointExtension>
            <ns3:hr>113</ns3:hr>
            <ns3:cad>0</ns3:cad>
          </ns3:TrackPointExtension>
        </extensions>
      </trkpt>
      <trkpt lat="37.75123265571892261505126953125" lon="-107.7148189209401607513427734375">
        <ele>3495.39990234375</ele>
        <time>2023-07-29T13:27:25.000Z</time>
        <extensions>
          <ns3:TrackPointExtension>
            <ns3:hr>114</ns3:hr>
            <ns3:cad>0</ns3:cad>
          </ns3:TrackPointExtension>
        </extensions>
      </trkpt>
      <trkpt lat="37.75122477672994136810302734375" lon="-107.71482688374817371368408203125">
        <ele>3495.800048828125</ele>
        <time>2023-07-29T13:27:26.000Z</time>
        <extensions>
          <ns3:TrackPointExtension>
            <ns3:hr>115</ns3:hr>
            <ns3:cad>0</ns3:cad>
          </ns3:TrackPointExtension>
        </extensions>
      </trkpt>
      <trkpt lat="37.75121890939772129058837890625" lon="-107.71483719348907470703125">
        <ele>3495.800048828125</ele>
        <time>2023-07-29T13:27:27.000Z</time>
        <extensions>
          <ns3:TrackPointExtension>
            <ns3:hr>115</ns3:hr>
            <ns3:cad>0</ns3:cad>
          </ns3:TrackPointExtension>
        </extensions>
      </trkpt>
      <trkpt lat="37.75121438317000865936279296875" lon="-107.71483761258423328399658203125">
        <ele>3495.800048828125</ele>
        <time>2023-07-29T13:27:28.000Z</time>
        <extensions>
          <ns3:TrackPointExtension>
            <ns3:hr>116</ns3:hr>
            <ns3:cad>0</ns3:cad>
          </ns3:TrackPointExtension>
        </extensions>
      </trkpt>
      <trkpt lat="37.751207090914249420166015625" lon="-107.7148470841348171234130859375">
        <ele>3496.199951171875</ele>
        <time>2023-07-29T13:27:29.000Z</time>
        <extensions>
          <ns3:TrackPointExtension>
            <ns3:hr>116</ns3:hr>
            <ns3:cad>66</ns3:cad>
          </ns3:TrackPointExtension>
        </extensions>
      </trkpt>
      <trkpt lat="37.75119996629655361175537109375" lon="-107.714861333370208740234375">
        <ele>3496.39990234375</ele>
        <time>2023-07-29T13:27:30.000Z</time>
        <extensions>
          <ns3:TrackPointExtension>
            <ns3:hr>116</ns3:hr>
            <ns3:cad>66</ns3:cad>
          </ns3:TrackPointExtension>
        </extensions>
      </trkpt>
      <trkpt lat="37.7511915005743503570556640625" lon="-107.7148680388927459716796875">
        <ele>3496.39990234375</ele>
        <time>2023-07-29T13:27:31.000Z</time>
        <extensions>
          <ns3:TrackPointExtension>
            <ns3:hr>117</ns3:hr>
            <ns3:cad>66</ns3:cad>
          </ns3:TrackPointExtension>
        </extensions>
      </trkpt>
      <trkpt lat="37.751188986003398895263671875" lon="-107.71487566642463207244873046875">
        <ele>3496.800048828125</ele>
        <time>2023-07-29T13:27:32.000Z</time>
        <extensions>
          <ns3:TrackPointExtension>
            <ns3:hr>117</ns3:hr>
            <ns3:cad>60</ns3:cad>
          </ns3:TrackPointExtension>
        </extensions>
      </trkpt>
      <trkpt lat="37.7511812746524810791015625" lon="-107.71489108912646770477294921875">
        <ele>3496.800048828125</ele>
        <time>2023-07-29T13:27:33.000Z</time>
        <extensions>
          <ns3:TrackPointExtension>
            <ns3:hr>117</ns3:hr>
            <ns3:cad>60</ns3:cad>
          </ns3:TrackPointExtension>
        </extensions>
      </trkpt>
      <trkpt lat="37.7511747367680072784423828125" lon="-107.714897207915782928466796875">
        <ele>3497</ele>
        <time>2023-07-29T13:27:34.000Z</time>
        <extensions>
          <ns3:TrackPointExtension>
            <ns3:hr>118</ns3:hr>
            <ns3:cad>0</ns3:cad>
          </ns3:TrackPointExtension>
        </extensions>
      </trkpt>
      <trkpt lat="37.7511703781783580780029296875" lon="-107.714914977550506591796875">
        <ele>3497.199951171875</ele>
        <time>2023-07-29T13:27:35.000Z</time>
        <extensions>
          <ns3:TrackPointExtension>
            <ns3:hr>118</ns3:hr>
            <ns3:cad>0</ns3:cad>
          </ns3:TrackPointExtension>
        </extensions>
      </trkpt>
      <trkpt lat="37.7511653490364551544189453125" lon="-107.7149309031665325164794921875">
        <ele>3497.199951171875</ele>
        <time>2023-07-29T13:27:36.000Z</time>
        <extensions>
          <ns3:TrackPointExtension>
            <ns3:hr>118</ns3:hr>
            <ns3:cad>0</ns3:cad>
          </ns3:TrackPointExtension>
        </extensions>
      </trkpt>
      <trkpt lat="37.75116358883678913116455078125" lon="-107.71493299864232540130615234375">
        <ele>3497.60009765625</ele>
        <time>2023-07-29T13:27:37.000Z</time>
        <extensions>
          <ns3:TrackPointExtension>
            <ns3:hr>118</ns3:hr>
            <ns3:cad>0</ns3:cad>
          </ns3:TrackPointExtension>
        </extensions>
      </trkpt>
      <trkpt lat="37.751160822808742523193359375" lon="-107.71493576467037200927734375">
        <ele>3497.800048828125</ele>
        <time>2023-07-29T13:27:38.000Z</time>
        <extensions>
          <ns3:TrackPointExtension>
            <ns3:hr>118</ns3:hr>
            <ns3:cad>0</ns3:cad>
          </ns3:TrackPointExtension>
        </extensions>
      </trkpt>
      <trkpt lat="37.75115738622844219207763671875" lon="-107.714942805469036102294921875">
        <ele>3498</ele>
        <time>2023-07-29T13:27:39.000Z</time>
        <extensions>
          <ns3:TrackPointExtension>
            <ns3:hr>118</ns3:hr>
            <ns3:cad>0</ns3:cad>
          </ns3:TrackPointExtension>
        </extensions>
      </trkpt>
      <trkpt lat="37.75115386582911014556884765625" lon="-107.71495160646736621856689453125">
        <ele>3498.199951171875</ele>
        <time>2023-07-29T13:27:40.000Z</time>
        <extensions>
          <ns3:TrackPointExtension>
            <ns3:hr>118</ns3:hr>
            <ns3:cad>0</ns3:cad>
          </ns3:TrackPointExtension>
        </extensions>
      </trkpt>
      <trkpt lat="37.75115621276199817657470703125" lon="-107.71495462395250797271728515625">
        <ele>3498.39990234375</ele>
        <time>2023-07-29T13:27:41.000Z</time>
        <extensions>
          <ns3:TrackPointExtension>
            <ns3:hr>118</ns3:hr>
            <ns3:cad>0</ns3:cad>
          </ns3:TrackPointExtension>
        </extensions>
      </trkpt>
      <trkpt lat="37.75115470401942729949951171875" lon="-107.7149624191224575042724609375">
        <ele>3498.800048828125</ele>
        <time>2023-07-29T13:27:42.000Z</time>
        <extensions>
          <ns3:TrackPointExtension>
            <ns3:hr>118</ns3:hr>
            <ns3:cad>0</ns3:cad>
          </ns3:TrackPointExtension>
        </extensions>
      </trkpt>
      <trkpt lat="37.75115101598203182220458984375" lon="-107.71497725509107112884521484375">
        <ele>3498.800048828125</ele>
        <time>2023-07-29T13:27:43.000Z</time>
        <extensions>
          <ns3:TrackPointExtension>
            <ns3:hr>118</ns3:hr>
            <ns3:cad>0</ns3:cad>
          </ns3:TrackPointExtension>
        </extensions>
      </trkpt>
      <trkpt lat="37.75115235708653926849365234375" lon="-107.71498228423297405242919921875">
        <ele>3499</ele>
        <time>2023-07-29T13:27:44.000Z</time>
        <extensions>
          <ns3:TrackPointExtension>
            <ns3:hr>118</ns3:hr>
            <ns3:cad>0</ns3:cad>
          </ns3:TrackPointExtension>
        </extensions>
      </trkpt>
      <trkpt lat="37.751149423420429229736328125" lon="-107.7149949409067630767822265625">
        <ele>3499</ele>
        <time>2023-07-29T13:27:45.000Z</time>
        <extensions>
          <ns3:TrackPointExtension>
            <ns3:hr>118</ns3:hr>
            <ns3:cad>0</ns3:cad>
          </ns3:TrackPointExtension>
        </extensions>
      </trkpt>
      <trkpt lat="37.75115151889622211456298828125" lon="-107.71500441245734691619873046875">
        <ele>3499</ele>
        <time>2023-07-29T13:27:46.000Z</time>
        <extensions>
          <ns3:TrackPointExtension>
            <ns3:hr>117</ns3:hr>
            <ns3:cad>0</ns3:cad>
          </ns3:TrackPointExtension>
        </extensions>
      </trkpt>
      <trkpt lat="37.75115051306784152984619140625" lon="-107.715011872351169586181640625">
        <ele>3499.39990234375</ele>
        <time>2023-07-29T13:27:47.000Z</time>
        <extensions>
          <ns3:TrackPointExtension>
            <ns3:hr>117</ns3:hr>
            <ns3:cad>0</ns3:cad>
          </ns3:TrackPointExtension>
        </extensions>
      </trkpt>
      <trkpt lat="37.751148082315921783447265625" lon="-107.71502737887203693389892578125">
        <ele>3499.39990234375</ele>
        <time>2023-07-29T13:27:48.000Z</time>
        <extensions>
          <ns3:TrackPointExtension>
            <ns3:hr>115</ns3:hr>
            <ns3:cad>0</ns3:cad>
          </ns3:TrackPointExtension>
        </extensions>
      </trkpt>
      <trkpt lat="37.75115084834396839141845703125" lon="-107.71503710187971591949462890625">
        <ele>3499.60009765625</ele>
        <time>2023-07-29T13:27:49.000Z</time>
        <extensions>
          <ns3:TrackPointExtension>
            <ns3:hr>114</ns3:hr>
            <ns3:cad>0</ns3:cad>
          </ns3:TrackPointExtension>
        </extensions>
      </trkpt>
      <trkpt lat="37.75115051306784152984619140625" lon="-107.71505135111510753631591796875">
        <ele>3499.800048828125</ele>
        <time>2023-07-29T13:27:50.000Z</time>
        <extensions>
          <ns3:TrackPointExtension>
            <ns3:hr>114</ns3:hr>
            <ns3:cad>0</ns3:cad>
          </ns3:TrackPointExtension>
        </extensions>
      </trkpt>
      <trkpt lat="37.751150093972682952880859375" lon="-107.71506425924599170684814453125">
        <ele>3499.800048828125</ele>
        <time>2023-07-29T13:27:51.000Z</time>
        <extensions>
          <ns3:TrackPointExtension>
            <ns3:hr>114</ns3:hr>
            <ns3:cad>0</ns3:cad>
          </ns3:TrackPointExtension>
        </extensions>
      </trkpt>
      <trkpt lat="37.75115646421909332275390625" lon="-107.7150717191398143768310546875">
        <ele>3500</ele>
        <time>2023-07-29T13:27:52.000Z</time>
        <extensions>
          <ns3:TrackPointExtension>
            <ns3:hr>114</ns3:hr>
            <ns3:cad>0</ns3:cad>
          </ns3:TrackPointExtension>
        </extensions>
      </trkpt>
      <trkpt lat="37.751154117286205291748046875" lon="-107.71508538164198398590087890625">
        <ele>3500</ele>
        <time>2023-07-29T13:27:53.000Z</time>
        <extensions>
          <ns3:TrackPointExtension>
            <ns3:hr>114</ns3:hr>
            <ns3:cad>0</ns3:cad>
          </ns3:TrackPointExtension>
        </extensions>
      </trkpt>
      <trkpt lat="37.75115646421909332275390625" lon="-107.71508588455617427825927734375">
        <ele>3500.199951171875</ele>
        <time>2023-07-29T13:27:54.000Z</time>
        <extensions>
          <ns3:TrackPointExtension>
            <ns3:hr>114</ns3:hr>
            <ns3:cad>0</ns3:cad>
          </ns3:TrackPointExtension>
        </extensions>
      </trkpt>
      <trkpt lat="37.75115780532360076904296875" lon="-107.71509845741093158721923828125">
        <ele>3500.199951171875</ele>
        <time>2023-07-29T13:27:55.000Z</time>
        <extensions>
          <ns3:TrackPointExtension>
            <ns3:hr>114</ns3:hr>
            <ns3:cad>0</ns3:cad>
          </ns3:TrackPointExtension>
        </extensions>
      </trkpt>
      <trkpt lat="37.751155458390712738037109375" lon="-107.71511823870241641998291015625">
        <ele>3500.199951171875</ele>
        <time>2023-07-29T13:27:56.000Z</time>
        <extensions>
          <ns3:TrackPointExtension>
            <ns3:hr>115</ns3:hr>
            <ns3:cad>0</ns3:cad>
          </ns3:TrackPointExtension>
        </extensions>
      </trkpt>
      <trkpt lat="37.75115805678069591522216796875" lon="-107.715127207338809967041015625">
        <ele>3500.39990234375</ele>
        <time>2023-07-29T13:27:57.000Z</time>
        <extensions>
          <ns3:TrackPointExtension>
            <ns3:hr>115</ns3:hr>
            <ns3:cad>0</ns3:cad>
          </ns3:TrackPointExtension>
        </extensions>
      </trkpt>
      <trkpt lat="37.75115755386650562286376953125" lon="-107.71513433195650577545166015625">
        <ele>3500.39990234375</ele>
        <time>2023-07-29T13:27:58.000Z</time>
        <extensions>
          <ns3:TrackPointExtension>
            <ns3:hr>115</ns3:hr>
            <ns3:cad>0</ns3:cad>
          </ns3:TrackPointExtension>
        </extensions>
      </trkpt>
      <trkpt lat="37.751158811151981353759765625" lon="-107.71513651125133037567138671875">
        <ele>3500.39990234375</ele>
        <time>2023-07-29T13:27:59.000Z</time>
        <extensions>
          <ns3:TrackPointExtension>
            <ns3:hr>116</ns3:hr>
            <ns3:cad>0</ns3:cad>
          </ns3:TrackPointExtension>
        </extensions>
      </trkpt>
      <trkpt lat="37.75115822441875934600830078125" lon="-107.7151461504399776458740234375">
        <ele>3500.60009765625</ele>
        <time>2023-07-29T13:28:00.000Z</time>
        <extensions>
          <ns3:TrackPointExtension>
            <ns3:hr>116</ns3:hr>
            <ns3:cad>0</ns3:cad>
          </ns3:TrackPointExtension>
        </extensions>
      </trkpt>
      <trkpt lat="37.75115872733294963836669921875" lon="-107.71515863947570323944091796875">
        <ele>3500.800048828125</ele>
        <time>2023-07-29T13:28:01.000Z</time>
        <extensions>
          <ns3:TrackPointExtension>
            <ns3:hr>116</ns3:hr>
            <ns3:cad>0</ns3:cad>
          </ns3:TrackPointExtension>
        </extensions>
      </trkpt>
      <trkpt lat="37.7511603198945522308349609375" lon="-107.71516400389373302459716796875">
        <ele>3500.800048828125</ele>
        <time>2023-07-29T13:28:02.000Z</time>
        <extensions>
          <ns3:TrackPointExtension>
            <ns3:hr>117</ns3:hr>
            <ns3:cad>0</ns3:cad>
          </ns3:TrackPointExtension>
        </extensions>
      </trkpt>
      <trkpt lat="37.75115906260907649993896484375" lon="-107.7151870541274547576904296875">
        <ele>3500.800048828125</ele>
        <time>2023-07-29T13:28:03.000Z</time>
        <extensions>
          <ns3:TrackPointExtension>
            <ns3:hr>117</ns3:hr>
            <ns3:cad>0</ns3:cad>
          </ns3:TrackPointExtension>
        </extensions>
      </trkpt>
      <trkpt lat="37.751161493360996246337890625" lon="-107.71519887261092662811279296875">
        <ele>3500.800048828125</ele>
        <time>2023-07-29T13:28:04.000Z</time>
        <extensions>
          <ns3:TrackPointExtension>
            <ns3:hr>118</ns3:hr>
            <ns3:cad>0</ns3:cad>
          </ns3:TrackPointExtension>
        </extensions>
      </trkpt>
      <trkpt lat="37.75116090662777423858642578125" lon="-107.71520826034247875213623046875">
        <ele>3501</ele>
        <time>2023-07-29T13:28:05.000Z</time>
        <extensions>
          <ns3:TrackPointExtension>
            <ns3:hr>119</ns3:hr>
            <ns3:cad>0</ns3:cad>
          </ns3:TrackPointExtension>
        </extensions>
      </trkpt>
      <trkpt lat="37.751159481704235076904296875" lon="-107.71521882154047489166259765625">
        <ele>3501</ele>
        <time>2023-07-29T13:28:06.000Z</time>
        <extensions>
          <ns3:TrackPointExtension>
            <ns3:hr>119</ns3:hr>
            <ns3:cad>0</ns3:cad>
          </ns3:TrackPointExtension>
        </extensions>
      </trkpt>
      <trkpt lat="37.7511623315513134002685546875" lon="-107.715223766863346099853515625">
        <ele>3501</ele>
        <time>2023-07-29T13:28:07.000Z</time>
        <extensions>
          <ns3:TrackPointExtension>
            <ns3:hr>120</ns3:hr>
            <ns3:cad>0</ns3:cad>
          </ns3:TrackPointExtension>
        </extensions>
      </trkpt>
      <trkpt lat="37.75116325356066226959228515625" lon="-107.71523826755583286285400390625">
        <ele>3501.199951171875</ele>
        <time>2023-07-29T13:28:08.000Z</time>
        <extensions>
          <ns3:TrackPointExtension>
            <ns3:hr>120</ns3:hr>
            <ns3:cad>0</ns3:cad>
          </ns3:TrackPointExtension>
        </extensions>
      </trkpt>
      <trkpt lat="37.75116174481809139251708984375" lon="-107.7152484096586704254150390625">
        <ele>3501.199951171875</ele>
        <time>2023-07-29T13:28:09.000Z</time>
        <extensions>
          <ns3:TrackPointExtension>
            <ns3:hr>120</ns3:hr>
            <ns3:cad>0</ns3:cad>
          </ns3:TrackPointExtension>
        </extensions>
      </trkpt>
      <trkpt lat="37.75115973316133022308349609375" lon="-107.7152650058269500732421875">
        <ele>3501.199951171875</ele>
        <time>2023-07-29T13:28:10.000Z</time>
        <extensions>
          <ns3:TrackPointExtension>
            <ns3:hr>120</ns3:hr>
            <ns3:cad>0</ns3:cad>
          </ns3:TrackPointExtension>
        </extensions>
      </trkpt>
      <trkpt lat="37.75115889497101306915283203125" lon="-107.71528604440391063690185546875">
        <ele>3501.39990234375</ele>
        <time>2023-07-29T13:28:11.000Z</time>
        <extensions>
          <ns3:TrackPointExtension>
            <ns3:hr>120</ns3:hr>
            <ns3:cad>0</ns3:cad>
          </ns3:TrackPointExtension>
        </extensions>
      </trkpt>
      <trkpt lat="37.75115369819104671478271484375" lon="-107.715297527611255645751953125">
        <ele>3501.39990234375</ele>
        <time>2023-07-29T13:28:12.000Z</time>
        <extensions>
          <ns3:TrackPointExtension>
            <ns3:hr>120</ns3:hr>
            <ns3:cad>0</ns3:cad>
          </ns3:TrackPointExtension>
        </extensions>
      </trkpt>
      <trkpt lat="37.7511526085436344146728515625" lon="-107.7153151296079158782958984375">
        <ele>3501.60009765625</ele>
        <time>2023-07-29T13:28:13.000Z</time>
        <extensions>
          <ns3:TrackPointExtension>
            <ns3:hr>120</ns3:hr>
            <ns3:cad>0</ns3:cad>
          </ns3:TrackPointExtension>
        </extensions>
      </trkpt>
      <trkpt lat="37.75115135125815868377685546875" lon="-107.71532661281526088714599609375">
        <ele>3501.60009765625</ele>
        <time>2023-07-29T13:28:14.000Z</time>
        <extensions>
          <ns3:TrackPointExtension>
            <ns3:hr>120</ns3:hr>
            <ns3:cad>0</ns3:cad>
          </ns3:TrackPointExtension>
        </extensions>
      </trkpt>
      <trkpt lat="37.7511462382972240447998046875" lon="-107.71532694809138774871826171875">
        <ele>3502</ele>
        <time>2023-07-29T13:28:15.000Z</time>
        <extensions>
          <ns3:TrackPointExtension>
            <ns3:hr>120</ns3:hr>
            <ns3:cad>0</ns3:cad>
          </ns3:TrackPointExtension>
        </extensions>
      </trkpt>
      <trkpt lat="37.75114481337368488311767578125" lon="-107.71533298306167125701904296875">
        <ele>3502</ele>
        <time>2023-07-29T13:28:16.000Z</time>
        <extensions>
          <ns3:TrackPointExtension>
            <ns3:hr>120</ns3:hr>
            <ns3:cad>0</ns3:cad>
          </ns3:TrackPointExtension>
        </extensions>
      </trkpt>
      <trkpt lat="37.75114146061241626739501953125" lon="-107.71533683873713016510009765625">
        <ele>3502.199951171875</ele>
        <time>2023-07-29T13:28:17.000Z</time>
        <extensions>
          <ns3:TrackPointExtension>
            <ns3:hr>119</ns3:hr>
            <ns3:cad>0</ns3:cad>
          </ns3:TrackPointExtension>
        </extensions>
      </trkpt>
      <trkpt lat="37.75114011950790882110595703125" lon="-107.71535192616283893585205078125">
        <ele>3502.199951171875</ele>
        <time>2023-07-29T13:28:18.000Z</time>
        <extensions>
          <ns3:TrackPointExtension>
            <ns3:hr>118</ns3:hr>
            <ns3:cad>0</ns3:cad>
          </ns3:TrackPointExtension>
        </extensions>
      </trkpt>
      <trkpt lat="37.75113768875598907470703125" lon="-107.7153677679598331451416015625">
        <ele>3502.199951171875</ele>
        <time>2023-07-29T13:28:19.000Z</time>
        <extensions>
          <ns3:TrackPointExtension>
            <ns3:hr>117</ns3:hr>
            <ns3:cad>0</ns3:cad>
          </ns3:TrackPointExtension>
        </extensions>
      </trkpt>
      <trkpt lat="37.7511361800134181976318359375" lon="-107.71537723951041698455810546875">
        <ele>3502.199951171875</ele>
        <time>2023-07-29T13:28:20.000Z</time>
        <extensions>
          <ns3:TrackPointExtension>
            <ns3:hr>117</ns3:hr>
            <ns3:cad>0</ns3:cad>
          </ns3:TrackPointExtension>
        </extensions>
      </trkpt>
      <trkpt lat="37.75113408453762531280517578125" lon="-107.715387381613254547119140625">
        <ele>3502.39990234375</ele>
        <time>2023-07-29T13:28:21.000Z</time>
        <extensions>
          <ns3:TrackPointExtension>
            <ns3:hr>116</ns3:hr>
            <ns3:cad>0</ns3:cad>
          </ns3:TrackPointExtension>
        </extensions>
      </trkpt>
      <trkpt lat="37.7511321566998958587646484375" lon="-107.71540171466767787933349609375">
        <ele>3502.39990234375</ele>
        <time>2023-07-29T13:28:22.000Z</time>
        <extensions>
          <ns3:TrackPointExtension>
            <ns3:hr>115</ns3:hr>
            <ns3:cad>0</ns3:cad>
          </ns3:TrackPointExtension>
        </extensions>
      </trkpt>
      <trkpt lat="37.7511291392147541046142578125" lon="-107.71542099304497241973876953125">
        <ele>3502.39990234375</ele>
        <time>2023-07-29T13:28:23.000Z</time>
        <extensions>
          <ns3:TrackPointExtension>
            <ns3:hr>115</ns3:hr>
            <ns3:cad>0</ns3:cad>
          </ns3:TrackPointExtension>
        </extensions>
      </trkpt>
      <trkpt lat="37.75112620554864406585693359375" lon="-107.7154405228793621063232421875">
        <ele>3502.39990234375</ele>
        <time>2023-07-29T13:28:24.000Z</time>
        <extensions>
          <ns3:TrackPointExtension>
            <ns3:hr>115</ns3:hr>
            <ns3:cad>0</ns3:cad>
          </ns3:TrackPointExtension>
        </extensions>
      </trkpt>
      <trkpt lat="37.751123942434787750244140625" lon="-107.71545636467635631561279296875">
        <ele>3502.60009765625</ele>
        <time>2023-07-29T13:28:25.000Z</time>
        <extensions>
          <ns3:TrackPointExtension>
            <ns3:hr>114</ns3:hr>
            <ns3:cad>0</ns3:cad>
          </ns3:TrackPointExtension>
        </extensions>
      </trkpt>
      <trkpt lat="37.75112335570156574249267578125" lon="-107.71546952426433563232421875">
        <ele>3502.60009765625</ele>
        <time>2023-07-29T13:28:26.000Z</time>
        <extensions>
          <ns3:TrackPointExtension>
            <ns3:hr>113</ns3:hr>
            <ns3:cad>49</ns3:cad>
          </ns3:TrackPointExtension>
        </extensions>
      </trkpt>
      <trkpt lat="37.7511217631399631500244140625" lon="-107.7154831029474735260009765625">
        <ele>3502.800048828125</ele>
        <time>2023-07-29T13:28:27.000Z</time>
        <extensions>
          <ns3:TrackPointExtension>
            <ns3:hr>112</ns3:hr>
            <ns3:cad>49</ns3:cad>
          </ns3:TrackPointExtension>
        </extensions>
      </trkpt>
      <trkpt lat="37.75112117640674114227294921875" lon="-107.71549877710640430450439453125">
        <ele>3502.800048828125</ele>
        <time>2023-07-29T13:28:28.000Z</time>
        <extensions>
          <ns3:TrackPointExtension>
            <ns3:hr>111</ns3:hr>
            <ns3:cad>49</ns3:cad>
          </ns3:TrackPointExtension>
        </extensions>
      </trkpt>
      <trkpt lat="37.75112268514931201934814453125" lon="-107.71551084704697132110595703125">
        <ele>3503</ele>
        <time>2023-07-29T13:28:29.000Z</time>
        <extensions>
          <ns3:TrackPointExtension>
            <ns3:hr>111</ns3:hr>
            <ns3:cad>48</ns3:cad>
          </ns3:TrackPointExtension>
        </extensions>
      </trkpt>
      <trkpt lat="37.75112167932093143463134765625" lon="-107.71552409045398235321044921875">
        <ele>3503.199951171875</ele>
        <time>2023-07-29T13:28:30.000Z</time>
        <extensions>
          <ns3:TrackPointExtension>
            <ns3:hr>110</ns3:hr>
            <ns3:cad>48</ns3:cad>
          </ns3:TrackPointExtension>
        </extensions>
      </trkpt>
      <trkpt lat="37.75112025439739227294921875" lon="-107.71554060280323028564453125">
        <ele>3503.199951171875</ele>
        <time>2023-07-29T13:28:31.000Z</time>
        <extensions>
          <ns3:TrackPointExtension>
            <ns3:hr>110</ns3:hr>
            <ns3:cad>48</ns3:cad>
          </ns3:TrackPointExtension>
        </extensions>
      </trkpt>
      <trkpt lat="37.7511187456548213958740234375" lon="-107.71555040962994098663330078125">
        <ele>3503.39990234375</ele>
        <time>2023-07-29T13:28:32.000Z</time>
        <extensions>
          <ns3:TrackPointExtension>
            <ns3:hr>110</ns3:hr>
            <ns3:cad>48</ns3:cad>
          </ns3:TrackPointExtension>
        </extensions>
      </trkpt>
      <trkpt lat="37.75111732073128223419189453125" lon="-107.71555996499955654144287109375">
        <ele>3503.60009765625</ele>
        <time>2023-07-29T13:28:33.000Z</time>
        <extensions>
          <ns3:TrackPointExtension>
            <ns3:hr>109</ns3:hr>
            <ns3:cad>48</ns3:cad>
          </ns3:TrackPointExtension>
        </extensions>
      </trkpt>
      <trkpt lat="37.751116566359996795654296875" lon="-107.71556834690272808074951171875">
        <ele>3503.60009765625</ele>
        <time>2023-07-29T13:28:34.000Z</time>
        <extensions>
          <ns3:TrackPointExtension>
            <ns3:hr>108</ns3:hr>
            <ns3:cad>48</ns3:cad>
          </ns3:TrackPointExtension>
        </extensions>
      </trkpt>
      <trkpt lat="37.75111480616033077239990234375" lon="-107.715575136244297027587890625">
        <ele>3503.800048828125</ele>
        <time>2023-07-29T13:28:35.000Z</time>
        <extensions>
          <ns3:TrackPointExtension>
            <ns3:hr>107</ns3:hr>
            <ns3:cad>0</ns3:cad>
          </ns3:TrackPointExtension>
        </extensions>
      </trkpt>
      <trkpt lat="37.75111027993261814117431640625" lon="-107.715589888393878936767578125">
        <ele>3503.800048828125</ele>
        <time>2023-07-29T13:28:36.000Z</time>
        <extensions>
          <ns3:TrackPointExtension>
            <ns3:hr>106</ns3:hr>
            <ns3:cad>0</ns3:cad>
          </ns3:TrackPointExtension>
        </extensions>
      </trkpt>
      <trkpt lat="37.75110424496233463287353515625" lon="-107.71560556255280971527099609375">
        <ele>3503.800048828125</ele>
        <time>2023-07-29T13:28:37.000Z</time>
        <extensions>
          <ns3:TrackPointExtension>
            <ns3:hr>106</ns3:hr>
            <ns3:cad>0</ns3:cad>
          </ns3:TrackPointExtension>
        </extensions>
      </trkpt>
      <trkpt lat="37.75109753943979740142822265625" lon="-107.71562500856816768646240234375">
        <ele>3504.199951171875</ele>
        <time>2023-07-29T13:28:38.000Z</time>
        <extensions>
          <ns3:TrackPointExtension>
            <ns3:hr>105</ns3:hr>
            <ns3:cad>0</ns3:cad>
          </ns3:TrackPointExtension>
        </extensions>
      </trkpt>
      <trkpt lat="37.75109075009822845458984375" lon="-107.71563992835581302642822265625">
        <ele>3504.39990234375</ele>
        <time>2023-07-29T13:28:39.000Z</time>
        <extensions>
          <ns3:TrackPointExtension>
            <ns3:hr>105</ns3:hr>
            <ns3:cad>0</ns3:cad>
          </ns3:TrackPointExtension>
        </extensions>
      </trkpt>
      <trkpt lat="37.751087062060832977294921875" lon="-107.71565099246799945831298828125">
        <ele>3504.39990234375</ele>
        <time>2023-07-29T13:28:40.000Z</time>
        <extensions>
          <ns3:TrackPointExtension>
            <ns3:hr>104</ns3:hr>
            <ns3:cad>0</ns3:cad>
          </ns3:TrackPointExtension>
        </extensions>
      </trkpt>
      <trkpt lat="37.75108404457569122314453125" lon="-107.7156607992947101593017578125">
        <ele>3504.39990234375</ele>
        <time>2023-07-29T13:28:41.000Z</time>
        <extensions>
          <ns3:TrackPointExtension>
            <ns3:hr>104</ns3:hr>
            <ns3:cad>0</ns3:cad>
          </ns3:TrackPointExtension>
        </extensions>
      </trkpt>
      <trkpt lat="37.7510845474898815155029296875" lon="-107.71566691808402538299560546875">
        <ele>3504.39990234375</ele>
        <time>2023-07-29T13:28:42.000Z</time>
        <extensions>
          <ns3:TrackPointExtension>
            <ns3:hr>104</ns3:hr>
            <ns3:cad>0</ns3:cad>
          </ns3:TrackPointExtension>
        </extensions>
      </trkpt>
      <trkpt lat="37.7510838769376277923583984375" lon="-107.7156802453100681304931640625">
        <ele>3504.60009765625</ele>
        <time>2023-07-29T13:28:43.000Z</time>
        <extensions>
          <ns3:TrackPointExtension>
            <ns3:hr>104</ns3:hr>
            <ns3:cad>0</ns3:cad>
          </ns3:TrackPointExtension>
        </extensions>
      </trkpt>
      <trkpt lat="37.75108496658504009246826171875" lon="-107.71569072268903255462646484375">
        <ele>3504.60009765625</ele>
        <time>2023-07-29T13:28:44.000Z</time>
        <extensions>
          <ns3:TrackPointExtension>
            <ns3:hr>104</ns3:hr>
            <ns3:cad>0</ns3:cad>
          </ns3:TrackPointExtension>
        </extensions>
      </trkpt>
      <trkpt lat="37.75108496658504009246826171875" lon="-107.71569943986833095550537109375">
        <ele>3504.60009765625</ele>
        <time>2023-07-29T13:28:45.000Z</time>
        <extensions>
          <ns3:TrackPointExtension>
            <ns3:hr>103</ns3:hr>
            <ns3:cad>0</ns3:cad>
          </ns3:TrackPointExtension>
        </extensions>
      </trkpt>
      <trkpt lat="37.751083709299564361572265625" lon="-107.71570597775280475616455078125">
        <ele>3504.800048828125</ele>
        <time>2023-07-29T13:28:46.000Z</time>
        <extensions>
          <ns3:TrackPointExtension>
            <ns3:hr>103</ns3:hr>
            <ns3:cad>0</ns3:cad>
          </ns3:TrackPointExtension>
        </extensions>
      </trkpt>
      <trkpt lat="37.7510838769376277923583984375" lon="-107.7157198078930377960205078125">
        <ele>3505.199951171875</ele>
        <time>2023-07-29T13:28:47.000Z</time>
        <extensions>
          <ns3:TrackPointExtension>
            <ns3:hr>103</ns3:hr>
            <ns3:cad>0</ns3:cad>
          </ns3:TrackPointExtension>
        </extensions>
      </trkpt>
      <trkpt lat="37.75108094327151775360107421875" lon="-107.71573162637650966644287109375">
        <ele>3505.39990234375</ele>
        <time>2023-07-29T13:28:48.000Z</time>
        <extensions>
          <ns3:TrackPointExtension>
            <ns3:hr>103</ns3:hr>
            <ns3:cad>0</ns3:cad>
          </ns3:TrackPointExtension>
        </extensions>
      </trkpt>
      <trkpt lat="37.75107909925282001495361328125" lon="-107.71574570797383785247802734375">
        <ele>3505.39990234375</ele>
        <time>2023-07-29T13:28:49.000Z</time>
        <extensions>
          <ns3:TrackPointExtension>
            <ns3:hr>103</ns3:hr>
            <ns3:cad>0</ns3:cad>
          </ns3:TrackPointExtension>
        </extensions>
      </trkpt>
      <trkpt lat="37.75107809342443943023681640625" lon="-107.715755514800548553466796875">
        <ele>3505.800048828125</ele>
        <time>2023-07-29T13:28:50.000Z</time>
        <extensions>
          <ns3:TrackPointExtension>
            <ns3:hr>103</ns3:hr>
            <ns3:cad>0</ns3:cad>
          </ns3:TrackPointExtension>
        </extensions>
      </trkpt>
      <trkpt lat="37.75107868015766143798828125" lon="-107.71576263941824436187744140625">
        <ele>3505.800048828125</ele>
        <time>2023-07-29T13:28:51.000Z</time>
        <extensions>
          <ns3:TrackPointExtension>
            <ns3:hr>103</ns3:hr>
            <ns3:cad>0</ns3:cad>
          </ns3:TrackPointExtension>
        </extensions>
      </trkpt>
      <trkpt lat="37.7510795183479785919189453125" lon="-107.715768255293369293212890625">
        <ele>3506</ele>
        <time>2023-07-29T13:28:52.000Z</time>
        <extensions>
          <ns3:TrackPointExtension>
            <ns3:hr>103</ns3:hr>
            <ns3:cad>0</ns3:cad>
          </ns3:TrackPointExtension>
        </extensions>
      </trkpt>
      <trkpt lat="37.7510808594524860382080078125" lon="-107.7157719433307647705078125">
        <ele>3506</ele>
        <time>2023-07-29T13:28:53.000Z</time>
        <extensions>
          <ns3:TrackPointExtension>
            <ns3:hr>103</ns3:hr>
            <ns3:cad>0</ns3:cad>
          </ns3:TrackPointExtension>
        </extensions>
      </trkpt>
      <trkpt lat="37.7510820329189300537109375" lon="-107.715778313577175140380859375">
        <ele>3506.199951171875</ele>
        <time>2023-07-29T13:28:54.000Z</time>
        <extensions>
          <ns3:TrackPointExtension>
            <ns3:hr>103</ns3:hr>
            <ns3:cad>0</ns3:cad>
          </ns3:TrackPointExtension>
        </extensions>
      </trkpt>
      <trkpt lat="37.75108312256634235382080078125" lon="-107.71578661166131496429443359375">
        <ele>3506.39990234375</ele>
        <time>2023-07-29T13:28:55.000Z</time>
        <extensions>
          <ns3:TrackPointExtension>
            <ns3:hr>104</ns3:hr>
            <ns3:cad>0</ns3:cad>
          </ns3:TrackPointExtension>
        </extensions>
      </trkpt>
      <trkpt lat="37.7510862238705158233642578125" lon="-107.71579683758318424224853515625">
        <ele>3506.60009765625</ele>
        <time>2023-07-29T13:28:56.000Z</time>
        <extensions>
          <ns3:TrackPointExtension>
            <ns3:hr>104</ns3:hr>
            <ns3:cad>0</ns3:cad>
          </ns3:TrackPointExtension>
        </extensions>
      </trkpt>
      <trkpt lat="37.75108949281275272369384765625" lon="-107.71580454893410205841064453125">
        <ele>3507</ele>
        <time>2023-07-29T13:28:57.000Z</time>
        <extensions>
          <ns3:TrackPointExtension>
            <ns3:hr>104</ns3:hr>
            <ns3:cad>0</ns3:cad>
          </ns3:TrackPointExtension>
        </extensions>
      </trkpt>
      <trkpt lat="37.75109586305916309356689453125" lon="-107.71581930108368396759033203125">
        <ele>3507.199951171875</ele>
        <time>2023-07-29T13:28:58.000Z</time>
        <extensions>
          <ns3:TrackPointExtension>
            <ns3:hr>104</ns3:hr>
            <ns3:cad>0</ns3:cad>
          </ns3:TrackPointExtension>
        </extensions>
      </trkpt>
      <trkpt lat="37.75110374204814434051513671875" lon="-107.71583572961390018463134765625">
        <ele>3507.39990234375</ele>
        <time>2023-07-29T13:28:59.000Z</time>
        <extensions>
          <ns3:TrackPointExtension>
            <ns3:hr>104</ns3:hr>
            <ns3:cad>0</ns3:cad>
          </ns3:TrackPointExtension>
        </extensions>
      </trkpt>
      <trkpt lat="37.7511106990277767181396484375" lon="-107.7158472128212451934814453125">
        <ele>3507.60009765625</ele>
        <time>2023-07-29T13:29:00.000Z</time>
        <extensions>
          <ns3:TrackPointExtension>
            <ns3:hr>105</ns3:hr>
            <ns3:cad>0</ns3:cad>
          </ns3:TrackPointExtension>
        </extensions>
      </trkpt>
      <trkpt lat="37.7511170692741870880126953125" lon="-107.71586070768535137176513671875">
        <ele>3507.60009765625</ele>
        <time>2023-07-29T13:29:01.000Z</time>
        <extensions>
          <ns3:TrackPointExtension>
            <ns3:hr>105</ns3:hr>
            <ns3:cad>0</ns3:cad>
          </ns3:TrackPointExtension>
        </extensions>
      </trkpt>
      <trkpt lat="37.751120589673519134521484375" lon="-107.7158658206462860107421875">
        <ele>3507.800048828125</ele>
        <time>2023-07-29T13:29:02.000Z</time>
        <extensions>
          <ns3:TrackPointExtension>
            <ns3:hr>105</ns3:hr>
            <ns3:cad>0</ns3:cad>
          </ns3:TrackPointExtension>
        </extensions>
      </trkpt>
      <trkpt lat="37.751126624643802642822265625" lon="-107.7158736996352672576904296875">
        <ele>3508</ele>
        <time>2023-07-29T13:29:03.000Z</time>
        <extensions>
          <ns3:TrackPointExtension>
            <ns3:hr>106</ns3:hr>
            <ns3:cad>0</ns3:cad>
          </ns3:TrackPointExtension>
        </extensions>
      </trkpt>
      <trkpt lat="37.75113156996667385101318359375" lon="-107.71587780676782131195068359375">
        <ele>3508.199951171875</ele>
        <time>2023-07-29T13:29:04.000Z</time>
        <extensions>
          <ns3:TrackPointExtension>
            <ns3:hr>111</ns3:hr>
            <ns3:cad>0</ns3:cad>
          </ns3:TrackPointExtension>
        </extensions>
      </trkpt>
      <trkpt lat="37.7511368505656719207763671875" lon="-107.71588350646197795867919921875">
        <ele>3508.39990234375</ele>
        <time>2023-07-29T13:29:05.000Z</time>
        <extensions>
          <ns3:TrackPointExtension>
            <ns3:hr>129</ns3:hr>
            <ns3:cad>0</ns3:cad>
          </ns3:TrackPointExtension>
        </extensions>
      </trkpt>
      <trkpt lat="37.75114439427852630615234375" lon="-107.7158861048519611358642578125">
        <ele>3508.39990234375</ele>
        <time>2023-07-29T13:29:06.000Z</time>
        <extensions>
          <ns3:TrackPointExtension>
            <ns3:hr>132</ns3:hr>
            <ns3:cad>0</ns3:cad>
          </ns3:TrackPointExtension>
        </extensions>
      </trkpt>
      <trkpt lat="37.75114883668720722198486328125" lon="-107.71588937379419803619384765625">
        <ele>3508.800048828125</ele>
        <time>2023-07-29T13:29:07.000Z</time>
        <extensions>
          <ns3:TrackPointExtension>
            <ns3:hr>132</ns3:hr>
            <ns3:cad>0</ns3:cad>
          </ns3:TrackPointExtension>
        </extensions>
      </trkpt>
      <trkpt lat="37.75115378201007843017578125" lon="-107.71589188836514949798583984375">
        <ele>3509</ele>
        <time>2023-07-29T13:29:08.000Z</time>
        <extensions>
          <ns3:TrackPointExtension>
            <ns3:hr>133</ns3:hr>
            <ns3:cad>0</ns3:cad>
          </ns3:TrackPointExtension>
        </extensions>
      </trkpt>
      <trkpt lat="37.7511589787900447845458984375" lon="-107.7158958278596401214599609375">
        <ele>3509.199951171875</ele>
        <time>2023-07-29T13:29:09.000Z</time>
        <extensions>
          <ns3:TrackPointExtension>
            <ns3:hr>133</ns3:hr>
            <ns3:cad>0</ns3:cad>
          </ns3:TrackPointExtension>
        </extensions>
      </trkpt>
      <trkpt lat="37.751160152256488800048828125" lon="-107.71590027026832103729248046875">
        <ele>3509.199951171875</ele>
        <time>2023-07-29T13:29:10.000Z</time>
        <extensions>
          <ns3:TrackPointExtension>
            <ns3:hr>133</ns3:hr>
            <ns3:cad>0</ns3:cad>
          </ns3:TrackPointExtension>
        </extensions>
      </trkpt>
      <trkpt lat="37.75116275064647197723388671875" lon="-107.715905718505382537841796875">
        <ele>3509.39990234375</ele>
        <time>2023-07-29T13:29:11.000Z</time>
        <extensions>
          <ns3:TrackPointExtension>
            <ns3:hr>133</ns3:hr>
            <ns3:cad>0</ns3:cad>
          </ns3:TrackPointExtension>
        </extensions>
      </trkpt>
      <trkpt lat="37.75116928853094577789306640625" lon="-107.7159154415130615234375">
        <ele>3509.60009765625</ele>
        <time>2023-07-29T13:29:12.000Z</time>
        <extensions>
          <ns3:TrackPointExtension>
            <ns3:hr>133</ns3:hr>
            <ns3:cad>0</ns3:cad>
          </ns3:TrackPointExtension>
        </extensions>
      </trkpt>
      <trkpt lat="37.7511732280254364013671875" lon="-107.71592373959720134735107421875">
        <ele>3509.800048828125</ele>
        <time>2023-07-29T13:29:13.000Z</time>
        <extensions>
          <ns3:TrackPointExtension>
            <ns3:hr>132</ns3:hr>
            <ns3:cad>0</ns3:cad>
          </ns3:TrackPointExtension>
        </extensions>
      </trkpt>
      <trkpt lat="37.75117926299571990966796875" lon="-107.71593497134745121002197265625">
        <ele>3510</ele>
        <time>2023-07-29T13:29:14.000Z</time>
        <extensions>
          <ns3:TrackPointExtension>
            <ns3:hr>125</ns3:hr>
            <ns3:cad>0</ns3:cad>
          </ns3:TrackPointExtension>
        </extensions>
      </trkpt>
      <trkpt lat="37.75118588469922542572021484375" lon="-107.71594603545963764190673828125">
        <ele>3510.199951171875</ele>
        <time>2023-07-29T13:29:15.000Z</time>
        <extensions>
          <ns3:TrackPointExtension>
            <ns3:hr>123</ns3:hr>
            <ns3:cad>0</ns3:cad>
          </ns3:TrackPointExtension>
        </extensions>
      </trkpt>
      <trkpt lat="37.75119208730757236480712890625" lon="-107.715959362685680389404296875">
        <ele>3510.199951171875</ele>
        <time>2023-07-29T13:29:16.000Z</time>
        <extensions>
          <ns3:TrackPointExtension>
            <ns3:hr>122</ns3:hr>
            <ns3:cad>0</ns3:cad>
          </ns3:TrackPointExtension>
        </extensions>
      </trkpt>
      <trkpt lat="37.75119661353528499603271484375" lon="-107.71596841514110565185546875">
        <ele>3510.39990234375</ele>
        <time>2023-07-29T13:29:17.000Z</time>
        <extensions>
          <ns3:TrackPointExtension>
            <ns3:hr>123</ns3:hr>
            <ns3:cad>0</ns3:cad>
          </ns3:TrackPointExtension>
        </extensions>
      </trkpt>
      <trkpt lat="37.75120449252426624298095703125" lon="-107.7159819938242435455322265625">
        <ele>3510.39990234375</ele>
        <time>2023-07-29T13:29:18.000Z</time>
        <extensions>
          <ns3:TrackPointExtension>
            <ns3:hr>122</ns3:hr>
            <ns3:cad>0</ns3:cad>
          </ns3:TrackPointExtension>
        </extensions>
      </trkpt>
      <trkpt lat="37.75121203623712062835693359375" lon="-107.71599599160254001617431640625">
        <ele>3510.60009765625</ele>
        <time>2023-07-29T13:29:19.000Z</time>
        <extensions>
          <ns3:TrackPointExtension>
            <ns3:hr>122</ns3:hr>
            <ns3:cad>0</ns3:cad>
          </ns3:TrackPointExtension>
        </extensions>
      </trkpt>
      <trkpt lat="37.75121706537902355194091796875" lon="-107.7160081453621387481689453125">
        <ele>3510.60009765625</ele>
        <time>2023-07-29T13:29:20.000Z</time>
        <extensions>
          <ns3:TrackPointExtension>
            <ns3:hr>122</ns3:hr>
            <ns3:cad>0</ns3:cad>
          </ns3:TrackPointExtension>
        </extensions>
      </trkpt>
      <trkpt lat="37.7512216754257678985595703125" lon="-107.7160171978175640106201171875">
        <ele>3510.800048828125</ele>
        <time>2023-07-29T13:29:21.000Z</time>
        <extensions>
          <ns3:TrackPointExtension>
            <ns3:hr>122</ns3:hr>
            <ns3:cad>0</ns3:cad>
          </ns3:TrackPointExtension>
        </extensions>
      </trkpt>
      <trkpt lat="37.75122779421508312225341796875" lon="-107.71602876484394073486328125">
        <ele>3510.800048828125</ele>
        <time>2023-07-29T13:29:22.000Z</time>
        <extensions>
          <ns3:TrackPointExtension>
            <ns3:hr>121</ns3:hr>
            <ns3:cad>47</ns3:cad>
          </ns3:TrackPointExtension>
        </extensions>
      </trkpt>
      <trkpt lat="37.75123533792793750762939453125" lon="-107.71604192443192005157470703125">
        <ele>3510.800048828125</ele>
        <time>2023-07-29T13:29:23.000Z</time>
        <extensions>
          <ns3:TrackPointExtension>
            <ns3:hr>121</ns3:hr>
            <ns3:cad>48</ns3:cad>
          </ns3:TrackPointExtension>
        </extensions>
      </trkpt>
      <trkpt lat="37.7512417919933795928955078125" lon="-107.71605248562991619110107421875">
        <ele>3511</ele>
        <time>2023-07-29T13:29:24.000Z</time>
        <extensions>
          <ns3:TrackPointExtension>
            <ns3:hr>121</ns3:hr>
            <ns3:cad>48</ns3:cad>
          </ns3:TrackPointExtension>
        </extensions>
      </trkpt>
      <trkpt lat="37.75124472565948963165283203125" lon="-107.71606002934277057647705078125">
        <ele>3511</ele>
        <time>2023-07-29T13:29:25.000Z</time>
        <extensions>
          <ns3:TrackPointExtension>
            <ns3:hr>121</ns3:hr>
            <ns3:cad>48</ns3:cad>
          </ns3:TrackPointExtension>
        </extensions>
      </trkpt>
      <trkpt lat="37.75124740786850452423095703125" lon="-107.716080062091350555419921875">
        <ele>3511.199951171875</ele>
        <time>2023-07-29T13:29:26.000Z</time>
        <extensions>
          <ns3:TrackPointExtension>
            <ns3:hr>120</ns3:hr>
            <ns3:cad>0</ns3:cad>
          </ns3:TrackPointExtension>
        </extensions>
      </trkpt>
      <trkpt lat="37.75124807842075824737548828125" lon="-107.7160845883190631866455078125">
        <ele>3511.199951171875</ele>
        <time>2023-07-29T13:29:27.000Z</time>
        <extensions>
          <ns3:TrackPointExtension>
            <ns3:hr>120</ns3:hr>
            <ns3:cad>0</ns3:cad>
          </ns3:TrackPointExtension>
        </extensions>
      </trkpt>
      <trkpt lat="37.75125293992459774017333984375" lon="-107.71609313786029815673828125">
        <ele>3511.39990234375</ele>
        <time>2023-07-29T13:29:28.000Z</time>
        <extensions>
          <ns3:TrackPointExtension>
            <ns3:hr>121</ns3:hr>
            <ns3:cad>44</ns3:cad>
          </ns3:TrackPointExtension>
        </extensions>
      </trkpt>
      <trkpt lat="37.75125662796199321746826171875" lon="-107.7161040343344211578369140625">
        <ele>3511.39990234375</ele>
        <time>2023-07-29T13:29:29.000Z</time>
        <extensions>
          <ns3:TrackPointExtension>
            <ns3:hr>121</ns3:hr>
            <ns3:cad>44</ns3:cad>
          </ns3:TrackPointExtension>
        </extensions>
      </trkpt>
      <trkpt lat="37.75125838816165924072265625" lon="-107.716116942465305328369140625">
        <ele>3511.60009765625</ele>
        <time>2023-07-29T13:29:30.000Z</time>
        <extensions>
          <ns3:TrackPointExtension>
            <ns3:hr>121</ns3:hr>
            <ns3:cad>44</ns3:cad>
          </ns3:TrackPointExtension>
        </extensions>
      </trkpt>
      <trkpt lat="37.7512619085609912872314453125" lon="-107.71613471210002899169921875">
        <ele>3511.60009765625</ele>
        <time>2023-07-29T13:29:31.000Z</time>
        <extensions>
          <ns3:TrackPointExtension>
            <ns3:hr>122</ns3:hr>
            <ns3:cad>44</ns3:cad>
          </ns3:TrackPointExtension>
        </extensions>
      </trkpt>
      <trkpt lat="37.7512645907700061798095703125" lon="-107.71615105681121349334716796875">
        <ele>3511.800048828125</ele>
        <time>2023-07-29T13:29:32.000Z</time>
        <extensions>
          <ns3:TrackPointExtension>
            <ns3:hr>122</ns3:hr>
            <ns3:cad>44</ns3:cad>
          </ns3:TrackPointExtension>
        </extensions>
      </trkpt>
      <trkpt lat="37.7512655965983867645263671875" lon="-107.716163881123065948486328125">
        <ele>3511.800048828125</ele>
        <time>2023-07-29T13:29:33.000Z</time>
        <extensions>
          <ns3:TrackPointExtension>
            <ns3:hr>123</ns3:hr>
            <ns3:cad>44</ns3:cad>
          </ns3:TrackPointExtension>
        </extensions>
      </trkpt>
      <trkpt lat="37.75126509368419647216796875" lon="-107.71617134101688861846923828125">
        <ele>3512</ele>
        <time>2023-07-29T13:29:34.000Z</time>
        <extensions>
          <ns3:TrackPointExtension>
            <ns3:hr>124</ns3:hr>
            <ns3:cad>44</ns3:cad>
          </ns3:TrackPointExtension>
        </extensions>
      </trkpt>
      <trkpt lat="37.7512655965983867645263671875" lon="-107.71618726663291454315185546875">
        <ele>3512.199951171875</ele>
        <time>2023-07-29T13:29:35.000Z</time>
        <extensions>
          <ns3:TrackPointExtension>
            <ns3:hr>125</ns3:hr>
            <ns3:cad>44</ns3:cad>
          </ns3:TrackPointExtension>
        </extensions>
      </trkpt>
      <trkpt lat="37.75126484222710132598876953125" lon="-107.71620503626763820648193359375">
        <ele>3512.199951171875</ele>
        <time>2023-07-29T13:29:36.000Z</time>
        <extensions>
          <ns3:TrackPointExtension>
            <ns3:hr>126</ns3:hr>
            <ns3:cad>44</ns3:cad>
          </ns3:TrackPointExtension>
        </extensions>
      </trkpt>
      <trkpt lat="37.75126484222710132598876953125" lon="-107.7162193693220615386962890625">
        <ele>3512.39990234375</ele>
        <time>2023-07-29T13:29:37.000Z</time>
        <extensions>
          <ns3:TrackPointExtension>
            <ns3:hr>128</ns3:hr>
            <ns3:cad>44</ns3:cad>
          </ns3:TrackPointExtension>
        </extensions>
      </trkpt>
      <trkpt lat="37.75126517750322818756103515625" lon="-107.71622884087264537811279296875">
        <ele>3512.39990234375</ele>
        <time>2023-07-29T13:29:38.000Z</time>
        <extensions>
          <ns3:TrackPointExtension>
            <ns3:hr>131</ns3:hr>
            <ns3:cad>44</ns3:cad>
          </ns3:TrackPointExtension>
        </extensions>
      </trkpt>
      <trkpt lat="37.7512652613222599029541015625" lon="-107.7162413299083709716796875">
        <ele>3512.39990234375</ele>
        <time>2023-07-29T13:29:39.000Z</time>
        <extensions>
          <ns3:TrackPointExtension>
            <ns3:hr>132</ns3:hr>
            <ns3:cad>0</ns3:cad>
          </ns3:TrackPointExtension>
        </extensions>
      </trkpt>
      <trkpt lat="37.7512644231319427490234375" lon="-107.71625599823892116546630859375">
        <ele>3512.60009765625</ele>
        <time>2023-07-29T13:29:40.000Z</time>
        <extensions>
          <ns3:TrackPointExtension>
            <ns3:hr>132</ns3:hr>
            <ns3:cad>0</ns3:cad>
          </ns3:TrackPointExtension>
        </extensions>
      </trkpt>
      <trkpt lat="37.7512645907700061798095703125" lon="-107.7162736840546131134033203125">
        <ele>3512.60009765625</ele>
        <time>2023-07-29T13:29:41.000Z</time>
        <extensions>
          <ns3:TrackPointExtension>
            <ns3:hr>133</ns3:hr>
            <ns3:cad>0</ns3:cad>
          </ns3:TrackPointExtension>
        </extensions>
      </trkpt>
      <trkpt lat="37.75126333348453044891357421875" lon="-107.7162763662636280059814453125">
        <ele>3512.800048828125</ele>
        <time>2023-07-29T13:29:42.000Z</time>
        <extensions>
          <ns3:TrackPointExtension>
            <ns3:hr>133</ns3:hr>
            <ns3:cad>0</ns3:cad>
          </ns3:TrackPointExtension>
        </extensions>
      </trkpt>
      <trkpt lat="37.7512617409229278564453125" lon="-107.71628835238516330718994140625">
        <ele>3513</ele>
        <time>2023-07-29T13:29:43.000Z</time>
        <extensions>
          <ns3:TrackPointExtension>
            <ns3:hr>133</ns3:hr>
            <ns3:cad>0</ns3:cad>
          </ns3:TrackPointExtension>
        </extensions>
      </trkpt>
      <trkpt lat="37.751259393990039825439453125" lon="-107.71629891358315944671630859375">
        <ele>3513.199951171875</ele>
        <time>2023-07-29T13:29:44.000Z</time>
        <extensions>
          <ns3:TrackPointExtension>
            <ns3:hr>132</ns3:hr>
            <ns3:cad>0</ns3:cad>
          </ns3:TrackPointExtension>
        </extensions>
      </trkpt>
      <trkpt lat="37.75125796906650066375732421875" lon="-107.71631173789501190185546875">
        <ele>3513.199951171875</ele>
        <time>2023-07-29T13:29:45.000Z</time>
        <extensions>
          <ns3:TrackPointExtension>
            <ns3:hr>133</ns3:hr>
            <ns3:cad>0</ns3:cad>
          </ns3:TrackPointExtension>
        </extensions>
      </trkpt>
      <trkpt lat="37.75125704705715179443359375" lon="-107.71632389165461063385009765625">
        <ele>3513.39990234375</ele>
        <time>2023-07-29T13:29:46.000Z</time>
        <extensions>
          <ns3:TrackPointExtension>
            <ns3:hr>132</ns3:hr>
            <ns3:cad>0</ns3:cad>
          </ns3:TrackPointExtension>
        </extensions>
      </trkpt>
      <trkpt lat="37.751256711781024932861328125" lon="-107.71632875315845012664794921875">
        <ele>3513.800048828125</ele>
        <time>2023-07-29T13:29:47.000Z</time>
        <extensions>
          <ns3:TrackPointExtension>
            <ns3:hr>132</ns3:hr>
            <ns3:cad>0</ns3:cad>
          </ns3:TrackPointExtension>
        </extensions>
      </trkpt>
      <trkpt lat="37.751255370676517486572265625" lon="-107.71633990108966827392578125">
        <ele>3513.800048828125</ele>
        <time>2023-07-29T13:29:48.000Z</time>
        <extensions>
          <ns3:TrackPointExtension>
            <ns3:hr>133</ns3:hr>
            <ns3:cad>0</ns3:cad>
          </ns3:TrackPointExtension>
        </extensions>
      </trkpt>
      <trkpt lat="37.75125327520072460174560546875" lon="-107.71635758690536022186279296875">
        <ele>3514</ele>
        <time>2023-07-29T13:29:49.000Z</time>
        <extensions>
          <ns3:TrackPointExtension>
            <ns3:hr>133</ns3:hr>
            <ns3:cad>0</ns3:cad>
          </ns3:TrackPointExtension>
        </extensions>
      </trkpt>
      <trkpt lat="37.75125293992459774017333984375" lon="-107.7163756079971790313720703125">
        <ele>3514.199951171875</ele>
        <time>2023-07-29T13:29:50.000Z</time>
        <extensions>
          <ns3:TrackPointExtension>
            <ns3:hr>134</ns3:hr>
            <ns3:cad>47</ns3:cad>
          </ns3:TrackPointExtension>
        </extensions>
      </trkpt>
      <trkpt lat="37.75125025771558284759521484375" lon="-107.7163957245647907257080078125">
        <ele>3514.39990234375</ele>
        <time>2023-07-29T13:29:51.000Z</time>
        <extensions>
          <ns3:TrackPointExtension>
            <ns3:hr>134</ns3:hr>
            <ns3:cad>47</ns3:cad>
          </ns3:TrackPointExtension>
        </extensions>
      </trkpt>
      <trkpt lat="37.7512508444488048553466796875" lon="-107.71640586666762828826904296875">
        <ele>3514.60009765625</ele>
        <time>2023-07-29T13:29:52.000Z</time>
        <extensions>
          <ns3:TrackPointExtension>
            <ns3:hr>134</ns3:hr>
            <ns3:cad>47</ns3:cad>
          </ns3:TrackPointExtension>
        </extensions>
      </trkpt>
      <trkpt lat="37.7512505091726779937744140625" lon="-107.7164155058562755584716796875">
        <ele>3514.800048828125</ele>
        <time>2023-07-29T13:29:53.000Z</time>
        <extensions>
          <ns3:TrackPointExtension>
            <ns3:hr>134</ns3:hr>
            <ns3:cad>47</ns3:cad>
          </ns3:TrackPointExtension>
        </extensions>
      </trkpt>
      <trkpt lat="37.75124824605882167816162109375" lon="-107.71642564795911312103271484375">
        <ele>3514.800048828125</ele>
        <time>2023-07-29T13:29:54.000Z</time>
        <extensions>
          <ns3:TrackPointExtension>
            <ns3:hr>134</ns3:hr>
            <ns3:cad>43</ns3:cad>
          </ns3:TrackPointExtension>
        </extensions>
      </trkpt>
      <trkpt lat="37.75124791078269481658935546875" lon="-107.7164329402148723602294921875">
        <ele>3515.199951171875</ele>
        <time>2023-07-29T13:29:55.000Z</time>
        <extensions>
          <ns3:TrackPointExtension>
            <ns3:hr>134</ns3:hr>
            <ns3:cad>0</ns3:cad>
          </ns3:TrackPointExtension>
        </extensions>
      </trkpt>
      <trkpt lat="37.75124321691691875457763671875" lon="-107.71643646061420440673828125">
        <ele>3515.199951171875</ele>
        <time>2023-07-29T13:29:56.000Z</time>
        <extensions>
          <ns3:TrackPointExtension>
            <ns3:hr>135</ns3:hr>
            <ns3:cad>0</ns3:cad>
          </ns3:TrackPointExtension>
        </extensions>
      </trkpt>
      <trkpt lat="37.75124204345047473907470703125" lon="-107.71644324995577335357666015625">
        <ele>3515.60009765625</ele>
        <time>2023-07-29T13:29:57.000Z</time>
        <extensions>
          <ns3:TrackPointExtension>
            <ns3:hr>135</ns3:hr>
            <ns3:cad>0</ns3:cad>
          </ns3:TrackPointExtension>
        </extensions>
      </trkpt>
      <trkpt lat="37.7512377686798572540283203125" lon="-107.71645666100084781646728515625">
        <ele>3515.60009765625</ele>
        <time>2023-07-29T13:29:58.000Z</time>
        <extensions>
          <ns3:TrackPointExtension>
            <ns3:hr>135</ns3:hr>
            <ns3:cad>0</ns3:cad>
          </ns3:TrackPointExtension>
        </extensions>
      </trkpt>
      <trkpt lat="37.7512322366237640380859375" lon="-107.716463617980480194091796875">
        <ele>3515.800048828125</ele>
        <time>2023-07-29T13:29:59.000Z</time>
        <extensions>
          <ns3:TrackPointExtension>
            <ns3:hr>135</ns3:hr>
            <ns3:cad>0</ns3:cad>
          </ns3:TrackPointExtension>
        </extensions>
      </trkpt>
      <trkpt lat="37.7512307278811931610107421875" lon="-107.71647593937814235687255859375">
        <ele>3516</ele>
        <time>2023-07-29T13:30:00.000Z</time>
        <extensions>
          <ns3:TrackPointExtension>
            <ns3:hr>135</ns3:hr>
            <ns3:cad>0</ns3:cad>
          </ns3:TrackPointExtension>
        </extensions>
      </trkpt>
      <trkpt lat="37.75122754275798797607421875" lon="-107.7164859138429164886474609375">
        <ele>3516.199951171875</ele>
        <time>2023-07-29T13:30:01.000Z</time>
        <extensions>
          <ns3:TrackPointExtension>
            <ns3:hr>136</ns3:hr>
            <ns3:cad>0</ns3:cad>
          </ns3:TrackPointExtension>
        </extensions>
      </trkpt>
      <trkpt lat="37.75122527964413166046142578125" lon="-107.7164902724325656890869140625">
        <ele>3516.39990234375</ele>
        <time>2023-07-29T13:30:02.000Z</time>
        <extensions>
          <ns3:TrackPointExtension>
            <ns3:hr>136</ns3:hr>
            <ns3:cad>0</ns3:cad>
          </ns3:TrackPointExtension>
        </extensions>
      </trkpt>
      <trkpt lat="37.75122192688286304473876953125" lon="-107.71650091744959354400634765625">
        <ele>3516.60009765625</ele>
        <time>2023-07-29T13:30:03.000Z</time>
        <extensions>
          <ns3:TrackPointExtension>
            <ns3:hr>136</ns3:hr>
            <ns3:cad>0</ns3:cad>
          </ns3:TrackPointExtension>
        </extensions>
      </trkpt>
      <trkpt lat="37.7512166462838649749755859375" lon="-107.7165083773434162139892578125">
        <ele>3516.800048828125</ele>
        <time>2023-07-29T13:30:04.000Z</time>
        <extensions>
          <ns3:TrackPointExtension>
            <ns3:hr>136</ns3:hr>
            <ns3:cad>0</ns3:cad>
          </ns3:TrackPointExtension>
        </extensions>
      </trkpt>
      <trkpt lat="37.75121471844613552093505859375" lon="-107.71651349030435085296630859375">
        <ele>3517</ele>
        <time>2023-07-29T13:30:05.000Z</time>
        <extensions>
          <ns3:TrackPointExtension>
            <ns3:hr>136</ns3:hr>
            <ns3:cad>0</ns3:cad>
          </ns3:TrackPointExtension>
        </extensions>
      </trkpt>
      <trkpt lat="37.75121144950389862060546875" lon="-107.71652438677847385406494140625">
        <ele>3517</ele>
        <time>2023-07-29T13:30:06.000Z</time>
        <extensions>
          <ns3:TrackPointExtension>
            <ns3:hr>136</ns3:hr>
            <ns3:cad>0</ns3:cad>
          </ns3:TrackPointExtension>
        </extensions>
      </trkpt>
      <trkpt lat="37.75120533071458339691162109375" lon="-107.71653109230101108551025390625">
        <ele>3517.199951171875</ele>
        <time>2023-07-29T13:30:07.000Z</time>
        <extensions>
          <ns3:TrackPointExtension>
            <ns3:hr>137</ns3:hr>
            <ns3:cad>43</ns3:cad>
          </ns3:TrackPointExtension>
        </extensions>
      </trkpt>
      <trkpt lat="37.75119946338236331939697265625" lon="-107.71654165349900722503662109375">
        <ele>3517.39990234375</ele>
        <time>2023-07-29T13:30:08.000Z</time>
        <extensions>
          <ns3:TrackPointExtension>
            <ns3:hr>137</ns3:hr>
            <ns3:cad>43</ns3:cad>
          </ns3:TrackPointExtension>
        </extensions>
      </trkpt>
      <trkpt lat="37.751189656555652618408203125" lon="-107.7165569923818111419677734375">
        <ele>3517.39990234375</ele>
        <time>2023-07-29T13:30:09.000Z</time>
        <extensions>
          <ns3:TrackPointExtension>
            <ns3:hr>137</ns3:hr>
            <ns3:cad>43</ns3:cad>
          </ns3:TrackPointExtension>
        </extensions>
      </trkpt>
      <trkpt lat="37.75118328630924224853515625" lon="-107.71655984222888946533203125">
        <ele>3517.800048828125</ele>
        <time>2023-07-29T13:30:10.000Z</time>
        <extensions>
          <ns3:TrackPointExtension>
            <ns3:hr>137</ns3:hr>
            <ns3:cad>0</ns3:cad>
          </ns3:TrackPointExtension>
        </extensions>
      </trkpt>
      <trkpt lat="37.751176916062831878662109375" lon="-107.7165680564939975738525390625">
        <ele>3518</ele>
        <time>2023-07-29T13:30:11.000Z</time>
        <extensions>
          <ns3:TrackPointExtension>
            <ns3:hr>137</ns3:hr>
            <ns3:cad>0</ns3:cad>
          </ns3:TrackPointExtension>
        </extensions>
      </trkpt>
      <trkpt lat="37.7511670254170894622802734375" lon="-107.7165730856359004974365234375">
        <ele>3518</ele>
        <time>2023-07-29T13:30:12.000Z</time>
        <extensions>
          <ns3:TrackPointExtension>
            <ns3:hr>137</ns3:hr>
            <ns3:cad>0</ns3:cad>
          </ns3:TrackPointExtension>
        </extensions>
      </trkpt>
      <trkpt lat="37.7511630021035671234130859375" lon="-107.7165787853300571441650390625">
        <ele>3518.199951171875</ele>
        <time>2023-07-29T13:30:13.000Z</time>
        <extensions>
          <ns3:TrackPointExtension>
            <ns3:hr>137</ns3:hr>
            <ns3:cad>0</ns3:cad>
          </ns3:TrackPointExtension>
        </extensions>
      </trkpt>
      <trkpt lat="37.75115772150456905364990234375" lon="-107.7165875025093555450439453125">
        <ele>3518.199951171875</ele>
        <time>2023-07-29T13:30:14.000Z</time>
        <extensions>
          <ns3:TrackPointExtension>
            <ns3:hr>137</ns3:hr>
            <ns3:cad>0</ns3:cad>
          </ns3:TrackPointExtension>
        </extensions>
      </trkpt>
      <trkpt lat="37.75114833377301692962646484375" lon="-107.7165978960692882537841796875">
        <ele>3518.39990234375</ele>
        <time>2023-07-29T13:30:15.000Z</time>
        <extensions>
          <ns3:TrackPointExtension>
            <ns3:hr>137</ns3:hr>
            <ns3:cad>43</ns3:cad>
          </ns3:TrackPointExtension>
        </extensions>
      </trkpt>
      <trkpt lat="37.75114129297435283660888671875" lon="-107.71661004982888698577880859375">
        <ele>3518.800048828125</ele>
        <time>2023-07-29T13:30:16.000Z</time>
        <extensions>
          <ns3:TrackPointExtension>
            <ns3:hr>137</ns3:hr>
            <ns3:cad>43</ns3:cad>
          </ns3:TrackPointExtension>
        </extensions>
      </trkpt>
      <trkpt lat="37.751134335994720458984375" lon="-107.7166223712265491485595703125">
        <ele>3518.800048828125</ele>
        <time>2023-07-29T13:30:17.000Z</time>
        <extensions>
          <ns3:TrackPointExtension>
            <ns3:hr>137</ns3:hr>
            <ns3:cad>43</ns3:cad>
          </ns3:TrackPointExtension>
        </extensions>
      </trkpt>
      <trkpt lat="37.75113073177635669708251953125" lon="-107.7166302502155303955078125">
        <ele>3519</ele>
        <time>2023-07-29T13:30:18.000Z</time>
        <extensions>
          <ns3:TrackPointExtension>
            <ns3:hr>137</ns3:hr>
            <ns3:cad>43</ns3:cad>
          </ns3:TrackPointExtension>
        </extensions>
      </trkpt>
      <trkpt lat="37.75112637318670749664306640625" lon="-107.7166404761373996734619140625">
        <ele>3519.199951171875</ele>
        <time>2023-07-29T13:30:19.000Z</time>
        <extensions>
          <ns3:TrackPointExtension>
            <ns3:hr>137</ns3:hr>
            <ns3:cad>43</ns3:cad>
          </ns3:TrackPointExtension>
        </extensions>
      </trkpt>
      <trkpt lat="37.75112628936767578125" lon="-107.7166450023651123046875">
        <ele>3519.39990234375</ele>
        <time>2023-07-29T13:30:20.000Z</time>
        <extensions>
          <ns3:TrackPointExtension>
            <ns3:hr>137</ns3:hr>
            <ns3:cad>43</ns3:cad>
          </ns3:TrackPointExtension>
        </extensions>
      </trkpt>
      <trkpt lat="37.751124612987041473388671875" lon="-107.7166572399437427520751953125">
        <ele>3519.60009765625</ele>
        <time>2023-07-29T13:30:21.000Z</time>
        <extensions>
          <ns3:TrackPointExtension>
            <ns3:hr>137</ns3:hr>
            <ns3:cad>43</ns3:cad>
          </ns3:TrackPointExtension>
        </extensions>
      </trkpt>
      <trkpt lat="37.751126624643802642822265625" lon="-107.7166652865707874298095703125">
        <ele>3519.60009765625</ele>
        <time>2023-07-29T13:30:22.000Z</time>
        <extensions>
          <ns3:TrackPointExtension>
            <ns3:hr>137</ns3:hr>
            <ns3:cad>43</ns3:cad>
          </ns3:TrackPointExtension>
        </extensions>
      </trkpt>
      <trkpt lat="37.751127295196056365966796875" lon="-107.71667249500751495361328125">
        <ele>3519.800048828125</ele>
        <time>2023-07-29T13:30:23.000Z</time>
        <extensions>
          <ns3:TrackPointExtension>
            <ns3:hr>137</ns3:hr>
            <ns3:cad>43</ns3:cad>
          </ns3:TrackPointExtension>
        </extensions>
      </trkpt>
      <trkpt lat="37.7511247806251049041748046875" lon="-107.71668029017746448516845703125">
        <ele>3519.800048828125</ele>
        <time>2023-07-29T13:30:24.000Z</time>
        <extensions>
          <ns3:TrackPointExtension>
            <ns3:hr>137</ns3:hr>
            <ns3:cad>43</ns3:cad>
          </ns3:TrackPointExtension>
        </extensions>
      </trkpt>
      <trkpt lat="37.7511210925877094268798828125" lon="-107.71669269539415836334228515625">
        <ele>3520.199951171875</ele>
        <time>2023-07-29T13:30:25.000Z</time>
        <extensions>
          <ns3:TrackPointExtension>
            <ns3:hr>137</ns3:hr>
            <ns3:cad>42</ns3:cad>
          </ns3:TrackPointExtension>
        </extensions>
      </trkpt>
      <trkpt lat="37.751115895807743072509765625" lon="-107.71670761518180370330810546875">
        <ele>3520.39990234375</ele>
        <time>2023-07-29T13:30:26.000Z</time>
        <extensions>
          <ns3:TrackPointExtension>
            <ns3:hr>136</ns3:hr>
            <ns3:cad>42</ns3:cad>
          </ns3:TrackPointExtension>
        </extensions>
      </trkpt>
      <trkpt lat="37.75111162103712558746337890625" lon="-107.71672102622687816619873046875">
        <ele>3520.60009765625</ele>
        <time>2023-07-29T13:30:27.000Z</time>
        <extensions>
          <ns3:TrackPointExtension>
            <ns3:hr>135</ns3:hr>
            <ns3:cad>42</ns3:cad>
          </ns3:TrackPointExtension>
        </extensions>
      </trkpt>
      <trkpt lat="37.75110877119004726409912109375" lon="-107.71673242561519145965576171875">
        <ele>3520.60009765625</ele>
        <time>2023-07-29T13:30:28.000Z</time>
        <extensions>
          <ns3:TrackPointExtension>
            <ns3:hr>133</ns3:hr>
            <ns3:cad>42</ns3:cad>
          </ns3:TrackPointExtension>
        </extensions>
      </trkpt>
      <trkpt lat="37.75110550224781036376953125" lon="-107.71674801595509052276611328125">
        <ele>3520.800048828125</ele>
        <time>2023-07-29T13:30:29.000Z</time>
        <extensions>
          <ns3:TrackPointExtension>
            <ns3:hr>127</ns3:hr>
            <ns3:cad>0</ns3:cad>
          </ns3:TrackPointExtension>
        </extensions>
      </trkpt>
      <trkpt lat="37.751102484762668609619140625" lon="-107.71675908006727695465087890625">
        <ele>3520.800048828125</ele>
        <time>2023-07-29T13:30:30.000Z</time>
        <extensions>
          <ns3:TrackPointExtension>
            <ns3:hr>118</ns3:hr>
            <ns3:cad>0</ns3:cad>
          </ns3:TrackPointExtension>
        </extensions>
      </trkpt>
      <trkpt lat="37.751102149486541748046875" lon="-107.716772742569446563720703125">
        <ele>3521</ele>
        <time>2023-07-29T13:30:31.000Z</time>
        <extensions>
          <ns3:TrackPointExtension>
            <ns3:hr>116</ns3:hr>
            <ns3:cad>0</ns3:cad>
          </ns3:TrackPointExtension>
        </extensions>
      </trkpt>
      <trkpt lat="37.751103155314922332763671875" lon="-107.71678523160517215728759765625">
        <ele>3521.199951171875</ele>
        <time>2023-07-29T13:30:32.000Z</time>
        <extensions>
          <ns3:TrackPointExtension>
            <ns3:hr>114</ns3:hr>
            <ns3:cad>0</ns3:cad>
          </ns3:TrackPointExtension>
        </extensions>
      </trkpt>
      <trkpt lat="37.7511043287813663482666015625" lon="-107.71679445169866085052490234375">
        <ele>3521.199951171875</ele>
        <time>2023-07-29T13:30:33.000Z</time>
        <extensions>
          <ns3:TrackPointExtension>
            <ns3:hr>114</ns3:hr>
            <ns3:cad>0</ns3:cad>
          </ns3:TrackPointExtension>
        </extensions>
      </trkpt>
      <trkpt lat="37.7511063404381275177001953125" lon="-107.716797888278961181640625">
        <ele>3521.39990234375</ele>
        <time>2023-07-29T13:30:34.000Z</time>
        <extensions>
          <ns3:TrackPointExtension>
            <ns3:hr>114</ns3:hr>
            <ns3:cad>0</ns3:cad>
          </ns3:TrackPointExtension>
        </extensions>
      </trkpt>
      <trkpt lat="37.7511083520948886871337890625" lon="-107.71679344587028026580810546875">
        <ele>3521.60009765625</ele>
        <time>2023-07-29T13:30:35.000Z</time>
        <extensions>
          <ns3:TrackPointExtension>
            <ns3:hr>114</ns3:hr>
            <ns3:cad>0</ns3:cad>
          </ns3:TrackPointExtension>
        </extensions>
      </trkpt>
      <trkpt lat="37.7511093579232692718505859375" lon="-107.7167920209467411041259765625">
        <ele>3521.60009765625</ele>
        <time>2023-07-29T13:30:36.000Z</time>
        <extensions>
          <ns3:TrackPointExtension>
            <ns3:hr>114</ns3:hr>
            <ns3:cad>0</ns3:cad>
          </ns3:TrackPointExtension>
        </extensions>
      </trkpt>
      <trkpt lat="37.75110994465649127960205078125" lon="-107.7167883329093456268310546875">
        <ele>3521.800048828125</ele>
        <time>2023-07-29T13:30:37.000Z</time>
        <extensions>
          <ns3:TrackPointExtension>
            <ns3:hr>113</ns3:hr>
            <ns3:cad>0</ns3:cad>
          </ns3:TrackPointExtension>
        </extensions>
      </trkpt>
      <trkpt lat="37.75110977701842784881591796875" lon="-107.7167812921106815338134765625">
        <ele>3521.800048828125</ele>
        <time>2023-07-29T13:30:38.000Z</time>
        <extensions>
          <ns3:TrackPointExtension>
            <ns3:hr>113</ns3:hr>
            <ns3:cad>0</ns3:cad>
          </ns3:TrackPointExtension>
        </extensions>
      </trkpt>
      <trkpt lat="37.75110994465649127960205078125" lon="-107.7167708985507488250732421875">
        <ele>3521.800048828125</ele>
        <time>2023-07-29T13:30:39.000Z</time>
        <extensions>
          <ns3:TrackPointExtension>
            <ns3:hr>113</ns3:hr>
            <ns3:cad>0</ns3:cad>
          </ns3:TrackPointExtension>
        </extensions>
      </trkpt>
      <trkpt lat="37.751111201941967010498046875" lon="-107.7167705632746219635009765625">
        <ele>3521.800048828125</ele>
        <time>2023-07-29T13:30:40.000Z</time>
        <extensions>
          <ns3:TrackPointExtension>
            <ns3:hr>114</ns3:hr>
            <ns3:cad>0</ns3:cad>
          </ns3:TrackPointExtension>
        </extensions>
      </trkpt>
      <trkpt lat="37.751111201941967010498046875" lon="-107.7167725749313831329345703125">
        <ele>3521.800048828125</ele>
        <time>2023-07-29T13:30:41.000Z</time>
        <extensions>
          <ns3:TrackPointExtension>
            <ns3:hr>114</ns3:hr>
            <ns3:cad>0</ns3:cad>
          </ns3:TrackPointExtension>
        </extensions>
      </trkpt>
      <trkpt lat="37.751111872494220733642578125" lon="-107.71677441895008087158203125">
        <ele>3522</ele>
        <time>2023-07-29T13:30:42.000Z</time>
        <extensions>
          <ns3:TrackPointExtension>
            <ns3:hr>113</ns3:hr>
            <ns3:cad>0</ns3:cad>
          </ns3:TrackPointExtension>
        </extensions>
      </trkpt>
      <trkpt lat="37.75111296214163303375244140625" lon="-107.71678120829164981842041015625">
        <ele>3522</ele>
        <time>2023-07-29T13:30:43.000Z</time>
        <extensions>
          <ns3:TrackPointExtension>
            <ns3:hr>113</ns3:hr>
            <ns3:cad>0</ns3:cad>
          </ns3:TrackPointExtension>
        </extensions>
      </trkpt>
      <trkpt lat="37.7511143870651721954345703125" lon="-107.7167859859764575958251953125">
        <ele>3522</ele>
        <time>2023-07-29T13:30:44.000Z</time>
        <extensions>
          <ns3:TrackPointExtension>
            <ns3:hr>113</ns3:hr>
            <ns3:cad>0</ns3:cad>
          </ns3:TrackPointExtension>
        </extensions>
      </trkpt>
      <trkpt lat="37.7511169016361236572265625" lon="-107.71678657270967960357666015625">
        <ele>3522</ele>
        <time>2023-07-29T13:30:45.000Z</time>
        <extensions>
          <ns3:TrackPointExtension>
            <ns3:hr>113</ns3:hr>
            <ns3:cad>0</ns3:cad>
          </ns3:TrackPointExtension>
        </extensions>
      </trkpt>
      <trkpt lat="37.751117907464504241943359375" lon="-107.7167866565287113189697265625">
        <ele>3521.800048828125</ele>
        <time>2023-07-29T13:30:46.000Z</time>
        <extensions>
          <ns3:TrackPointExtension>
            <ns3:hr>113</ns3:hr>
            <ns3:cad>0</ns3:cad>
          </ns3:TrackPointExtension>
        </extensions>
      </trkpt>
      <trkpt lat="37.75111597962677478790283203125" lon="-107.71678514778614044189453125">
        <ele>3521.800048828125</ele>
        <time>2023-07-29T13:30:47.000Z</time>
        <extensions>
          <ns3:TrackPointExtension>
            <ns3:hr>112</ns3:hr>
            <ns3:cad>0</ns3:cad>
          </ns3:TrackPointExtension>
        </extensions>
      </trkpt>
      <trkpt lat="37.751115225255489349365234375" lon="-107.716786824166774749755859375">
        <ele>3521.800048828125</ele>
        <time>2023-07-29T13:30:48.000Z</time>
        <extensions>
          <ns3:TrackPointExtension>
            <ns3:hr>112</ns3:hr>
            <ns3:cad>0</ns3:cad>
          </ns3:TrackPointExtension>
        </extensions>
      </trkpt>
      <trkpt lat="37.75111354887485504150390625" lon="-107.71678456105291843414306640625">
        <ele>3521.800048828125</ele>
        <time>2023-07-29T13:30:49.000Z</time>
        <extensions>
          <ns3:TrackPointExtension>
            <ns3:hr>111</ns3:hr>
            <ns3:cad>0</ns3:cad>
          </ns3:TrackPointExtension>
        </extensions>
      </trkpt>
      <trkpt lat="37.751113213598728179931640625" lon="-107.716784141957759857177734375">
        <ele>3521.800048828125</ele>
        <time>2023-07-29T13:30:50.000Z</time>
        <extensions>
          <ns3:TrackPointExtension>
            <ns3:hr>111</ns3:hr>
            <ns3:cad>0</ns3:cad>
          </ns3:TrackPointExtension>
        </extensions>
      </trkpt>
      <trkpt lat="37.75111279450356960296630859375" lon="-107.716784141957759857177734375">
        <ele>3521.800048828125</ele>
        <time>2023-07-29T13:30:51.000Z</time>
        <extensions>
          <ns3:TrackPointExtension>
            <ns3:hr>110</ns3:hr>
            <ns3:cad>0</ns3:cad>
          </ns3:TrackPointExtension>
        </extensions>
      </trkpt>
      <trkpt lat="37.7511113695800304412841796875" lon="-107.71678372286260128021240234375">
        <ele>3521.800048828125</ele>
        <time>2023-07-29T13:30:52.000Z</time>
        <extensions>
          <ns3:TrackPointExtension>
            <ns3:hr>110</ns3:hr>
            <ns3:cad>0</ns3:cad>
          </ns3:TrackPointExtension>
        </extensions>
      </trkpt>
      <trkpt lat="37.75110810063779354095458984375" lon="-107.71678288467228412628173828125">
        <ele>3521.800048828125</ele>
        <time>2023-07-29T13:30:53.000Z</time>
        <extensions>
          <ns3:TrackPointExtension>
            <ns3:hr>110</ns3:hr>
            <ns3:cad>0</ns3:cad>
          </ns3:TrackPointExtension>
        </extensions>
      </trkpt>
      <trkpt lat="37.7511063404381275177001953125" lon="-107.7167836390435695648193359375">
        <ele>3521.800048828125</ele>
        <time>2023-07-29T13:30:54.000Z</time>
        <extensions>
          <ns3:TrackPointExtension>
            <ns3:hr>109</ns3:hr>
            <ns3:cad>0</ns3:cad>
          </ns3:TrackPointExtension>
        </extensions>
      </trkpt>
      <trkpt lat="37.75110692717134952545166015625" lon="-107.716783471405506134033203125">
        <ele>3521.800048828125</ele>
        <time>2023-07-29T13:30:55.000Z</time>
        <extensions>
          <ns3:TrackPointExtension>
            <ns3:hr>109</ns3:hr>
            <ns3:cad>0</ns3:cad>
          </ns3:TrackPointExtension>
        </extensions>
      </trkpt>
      <trkpt lat="37.751107513904571533203125" lon="-107.71678355522453784942626953125">
        <ele>3521.800048828125</ele>
        <time>2023-07-29T13:30:56.000Z</time>
        <extensions>
          <ns3:TrackPointExtension>
            <ns3:hr>108</ns3:hr>
            <ns3:cad>0</ns3:cad>
          </ns3:TrackPointExtension>
        </extensions>
      </trkpt>
      <trkpt lat="37.75110642425715923309326171875" lon="-107.71678590215742588043212890625">
        <ele>3521.800048828125</ele>
        <time>2023-07-29T13:30:57.000Z</time>
        <extensions>
          <ns3:TrackPointExtension>
            <ns3:hr>107</ns3:hr>
            <ns3:cad>0</ns3:cad>
          </ns3:TrackPointExtension>
        </extensions>
      </trkpt>
      <trkpt lat="37.75110592134296894073486328125" lon="-107.71678674034774303436279296875">
        <ele>3521.800048828125</ele>
        <time>2023-07-29T13:30:58.000Z</time>
        <extensions>
          <ns3:TrackPointExtension>
            <ns3:hr>106</ns3:hr>
            <ns3:cad>0</ns3:cad>
          </ns3:TrackPointExtension>
        </extensions>
      </trkpt>
      <trkpt lat="37.751116566359996795654296875" lon="-107.71678757853806018829345703125">
        <ele>3521.800048828125</ele>
        <time>2023-07-29T13:30:59.000Z</time>
        <extensions>
          <ns3:TrackPointExtension>
            <ns3:hr>106</ns3:hr>
            <ns3:cad>0</ns3:cad>
          </ns3:TrackPointExtension>
        </extensions>
      </trkpt>
      <trkpt lat="37.7511217631399631500244140625" lon="-107.71678221412003040313720703125">
        <ele>3521.800048828125</ele>
        <time>2023-07-29T13:31:00.000Z</time>
        <extensions>
          <ns3:TrackPointExtension>
            <ns3:hr>105</ns3:hr>
            <ns3:cad>0</ns3:cad>
          </ns3:TrackPointExtension>
        </extensions>
      </trkpt>
      <trkpt lat="37.75112628936767578125" lon="-107.71677576005458831787109375">
        <ele>3521.800048828125</ele>
        <time>2023-07-29T13:31:01.000Z</time>
        <extensions>
          <ns3:TrackPointExtension>
            <ns3:hr>104</ns3:hr>
            <ns3:cad>0</ns3:cad>
          </ns3:TrackPointExtension>
        </extensions>
      </trkpt>
      <trkpt lat="37.75113232433795928955078125" lon="-107.716768719255924224853515625">
        <ele>3521.800048828125</ele>
        <time>2023-07-29T13:31:02.000Z</time>
        <extensions>
          <ns3:TrackPointExtension>
            <ns3:hr>104</ns3:hr>
            <ns3:cad>0</ns3:cad>
          </ns3:TrackPointExtension>
        </extensions>
      </trkpt>
      <trkpt lat="37.75114439427852630615234375" lon="-107.71676042117178440093994140625">
        <ele>3521.800048828125</ele>
        <time>2023-07-29T13:31:03.000Z</time>
        <extensions>
          <ns3:TrackPointExtension>
            <ns3:hr>103</ns3:hr>
            <ns3:cad>44</ns3:cad>
          </ns3:TrackPointExtension>
        </extensions>
      </trkpt>
      <trkpt lat="37.75115369819104671478271484375" lon="-107.71675438620150089263916015625">
        <ele>3521.800048828125</ele>
        <time>2023-07-29T13:31:04.000Z</time>
        <extensions>
          <ns3:TrackPointExtension>
            <ns3:hr>103</ns3:hr>
            <ns3:cad>45</ns3:cad>
          </ns3:TrackPointExtension>
        </extensions>
      </trkpt>
      <trkpt lat="37.7511660195887088775634765625" lon="-107.71674449555575847625732421875">
        <ele>3522</ele>
        <time>2023-07-29T13:31:05.000Z</time>
        <extensions>
          <ns3:TrackPointExtension>
            <ns3:hr>103</ns3:hr>
            <ns3:cad>45</ns3:cad>
          </ns3:TrackPointExtension>
        </extensions>
      </trkpt>
      <trkpt lat="37.75117230601608753204345703125" lon="-107.71673955023288726806640625">
        <ele>3522</ele>
        <time>2023-07-29T13:31:06.000Z</time>
        <extensions>
          <ns3:TrackPointExtension>
            <ns3:hr>103</ns3:hr>
            <ns3:cad>45</ns3:cad>
          </ns3:TrackPointExtension>
        </extensions>
      </trkpt>
      <trkpt lat="37.751182951033115386962890625" lon="-107.71673225797712802886962890625">
        <ele>3522.199951171875</ele>
        <time>2023-07-29T13:31:07.000Z</time>
        <extensions>
          <ns3:TrackPointExtension>
            <ns3:hr>103</ns3:hr>
            <ns3:cad>45</ns3:cad>
          </ns3:TrackPointExtension>
        </extensions>
      </trkpt>
      <trkpt lat="37.75119309313595294952392578125" lon="-107.71672555245459079742431640625">
        <ele>3522.199951171875</ele>
        <time>2023-07-29T13:31:08.000Z</time>
        <extensions>
          <ns3:TrackPointExtension>
            <ns3:hr>103</ns3:hr>
            <ns3:cad>46</ns3:cad>
          </ns3:TrackPointExtension>
        </extensions>
      </trkpt>
      <trkpt lat="37.7511985413730144500732421875" lon="-107.71672169677913188934326171875">
        <ele>3522.39990234375</ele>
        <time>2023-07-29T13:31:09.000Z</time>
        <extensions>
          <ns3:TrackPointExtension>
            <ns3:hr>103</ns3:hr>
            <ns3:cad>48</ns3:cad>
          </ns3:TrackPointExtension>
        </extensions>
      </trkpt>
      <trkpt lat="37.7512107789516448974609375" lon="-107.71671314723789691925048828125">
        <ele>3522.39990234375</ele>
        <time>2023-07-29T13:31:10.000Z</time>
        <extensions>
          <ns3:TrackPointExtension>
            <ns3:hr>104</ns3:hr>
            <ns3:cad>48</ns3:cad>
          </ns3:TrackPointExtension>
        </extensions>
      </trkpt>
      <trkpt lat="37.7512188255786895751953125" lon="-107.71670979447662830352783203125">
        <ele>3522.60009765625</ele>
        <time>2023-07-29T13:31:11.000Z</time>
        <extensions>
          <ns3:TrackPointExtension>
            <ns3:hr>104</ns3:hr>
            <ns3:cad>47</ns3:cad>
          </ns3:TrackPointExtension>
        </extensions>
      </trkpt>
      <trkpt lat="37.75122410617768764495849609375" lon="-107.7167098782956600189208984375">
        <ele>3522.60009765625</ele>
        <time>2023-07-29T13:31:12.000Z</time>
        <extensions>
          <ns3:TrackPointExtension>
            <ns3:hr>104</ns3:hr>
            <ns3:cad>47</ns3:cad>
          </ns3:TrackPointExtension>
        </extensions>
      </trkpt>
      <trkpt lat="37.751236595213413238525390625" lon="-107.71670744754374027252197265625">
        <ele>3522.800048828125</ele>
        <time>2023-07-29T13:31:13.000Z</time>
        <extensions>
          <ns3:TrackPointExtension>
            <ns3:hr>104</ns3:hr>
            <ns3:cad>0</ns3:cad>
          </ns3:TrackPointExtension>
        </extensions>
      </trkpt>
      <trkpt lat="37.75124791078269481658935546875" lon="-107.71670401096343994140625">
        <ele>3523</ele>
        <time>2023-07-29T13:31:14.000Z</time>
        <extensions>
          <ns3:TrackPointExtension>
            <ns3:hr>104</ns3:hr>
            <ns3:cad>0</ns3:cad>
          </ns3:TrackPointExtension>
        </extensions>
      </trkpt>
      <trkpt lat="37.75125511921942234039306640625" lon="-107.7167011611163616180419921875">
        <ele>3523</ele>
        <time>2023-07-29T13:31:15.000Z</time>
        <extensions>
          <ns3:TrackPointExtension>
            <ns3:hr>104</ns3:hr>
            <ns3:cad>0</ns3:cad>
          </ns3:TrackPointExtension>
        </extensions>
      </trkpt>
      <trkpt lat="37.75126249529421329498291015625" lon="-107.71669856272637844085693359375">
        <ele>3523.199951171875</ele>
        <time>2023-07-29T13:31:16.000Z</time>
        <extensions>
          <ns3:TrackPointExtension>
            <ns3:hr>104</ns3:hr>
            <ns3:cad>0</ns3:cad>
          </ns3:TrackPointExtension>
        </extensions>
      </trkpt>
      <trkpt lat="37.75126970373094081878662109375" lon="-107.71669504232704639434814453125">
        <ele>3523.39990234375</ele>
        <time>2023-07-29T13:31:17.000Z</time>
        <extensions>
          <ns3:TrackPointExtension>
            <ns3:hr>104</ns3:hr>
            <ns3:cad>0</ns3:cad>
          </ns3:TrackPointExtension>
        </extensions>
      </trkpt>
      <trkpt lat="37.75128227658569812774658203125" lon="-107.7166887558996677398681640625">
        <ele>3523.39990234375</ele>
        <time>2023-07-29T13:31:18.000Z</time>
        <extensions>
          <ns3:TrackPointExtension>
            <ns3:hr>104</ns3:hr>
            <ns3:cad>0</ns3:cad>
          </ns3:TrackPointExtension>
        </extensions>
      </trkpt>
      <trkpt lat="37.7512920834124088287353515625" lon="-107.71668364293873310089111328125">
        <ele>3523.60009765625</ele>
        <time>2023-07-29T13:31:19.000Z</time>
        <extensions>
          <ns3:TrackPointExtension>
            <ns3:hr>104</ns3:hr>
            <ns3:cad>0</ns3:cad>
          </ns3:TrackPointExtension>
        </extensions>
      </trkpt>
      <trkpt lat="37.7512954361736774444580078125" lon="-107.7166812121868133544921875">
        <ele>3523.60009765625</ele>
        <time>2023-07-29T13:31:20.000Z</time>
        <extensions>
          <ns3:TrackPointExtension>
            <ns3:hr>104</ns3:hr>
            <ns3:cad>0</ns3:cad>
          </ns3:TrackPointExtension>
        </extensions>
      </trkpt>
      <trkpt lat="37.7513019740581512451171875" lon="-107.716676853597164154052734375">
        <ele>3523.800048828125</ele>
        <time>2023-07-29T13:31:21.000Z</time>
        <extensions>
          <ns3:TrackPointExtension>
            <ns3:hr>104</ns3:hr>
            <ns3:cad>0</ns3:cad>
          </ns3:TrackPointExtension>
        </extensions>
      </trkpt>
      <trkpt lat="37.75130708701908588409423828125" lon="-107.71667140536010265350341796875">
        <ele>3523.800048828125</ele>
        <time>2023-07-29T13:31:22.000Z</time>
        <extensions>
          <ns3:TrackPointExtension>
            <ns3:hr>104</ns3:hr>
            <ns3:cad>0</ns3:cad>
          </ns3:TrackPointExtension>
        </extensions>
      </trkpt>
      <trkpt lat="37.751311026513576507568359375" lon="-107.716666795313358306884765625">
        <ele>3524</ele>
        <time>2023-07-29T13:31:23.000Z</time>
        <extensions>
          <ns3:TrackPointExtension>
            <ns3:hr>104</ns3:hr>
            <ns3:cad>0</ns3:cad>
          </ns3:TrackPointExtension>
        </extensions>
      </trkpt>
      <trkpt lat="37.75130993686616420745849609375" lon="-107.7166639454662799835205078125">
        <ele>3524</ele>
        <time>2023-07-29T13:31:24.000Z</time>
        <extensions>
          <ns3:TrackPointExtension>
            <ns3:hr>104</ns3:hr>
            <ns3:cad>0</ns3:cad>
          </ns3:TrackPointExtension>
        </extensions>
      </trkpt>
      <trkpt lat="37.7513100206851959228515625" lon="-107.716661430895328521728515625">
        <ele>3524</ele>
        <time>2023-07-29T13:31:25.000Z</time>
        <extensions>
          <ns3:TrackPointExtension>
            <ns3:hr>101</ns3:hr>
            <ns3:cad>0</ns3:cad>
          </ns3:TrackPointExtension>
        </extensions>
      </trkpt>
      <trkpt lat="37.75132100097835063934326171875" lon="-107.7166490256786346435546875">
        <ele>3524</ele>
        <time>2023-07-29T13:31:26.000Z</time>
        <extensions>
          <ns3:TrackPointExtension>
            <ns3:hr>100</ns3:hr>
            <ns3:cad>0</ns3:cad>
          </ns3:TrackPointExtension>
        </extensions>
      </trkpt>
      <trkpt lat="37.7513292990624904632568359375" lon="-107.71663787774741649627685546875">
        <ele>3524</ele>
        <time>2023-07-29T13:31:27.000Z</time>
        <extensions>
          <ns3:TrackPointExtension>
            <ns3:hr>99</ns3:hr>
            <ns3:cad>0</ns3:cad>
          </ns3:TrackPointExtension>
        </extensions>
      </trkpt>
      <trkpt lat="37.751338183879852294921875" lon="-107.71662882529199123382568359375">
        <ele>3524</ele>
        <time>2023-07-29T13:31:28.000Z</time>
        <extensions>
          <ns3:TrackPointExtension>
            <ns3:hr>98</ns3:hr>
            <ns3:cad>0</ns3:cad>
          </ns3:TrackPointExtension>
        </extensions>
      </trkpt>
      <trkpt lat="37.7513457275927066802978515625" lon="-107.71662178449332714080810546875">
        <ele>3524</ele>
        <time>2023-07-29T13:31:29.000Z</time>
        <extensions>
          <ns3:TrackPointExtension>
            <ns3:hr>97</ns3:hr>
            <ns3:cad>0</ns3:cad>
          </ns3:TrackPointExtension>
        </extensions>
      </trkpt>
      <trkpt lat="37.75134933181107044219970703125" lon="-107.71662128157913684844970703125">
        <ele>3524</ele>
        <time>2023-07-29T13:31:30.000Z</time>
        <extensions>
          <ns3:TrackPointExtension>
            <ns3:hr>97</ns3:hr>
            <ns3:cad>0</ns3:cad>
          </ns3:TrackPointExtension>
        </extensions>
      </trkpt>
      <trkpt lat="37.7513541094958782196044921875" lon="-107.716620527207851409912109375">
        <ele>3524</ele>
        <time>2023-07-29T13:31:31.000Z</time>
        <extensions>
          <ns3:TrackPointExtension>
            <ns3:hr>97</ns3:hr>
            <ns3:cad>0</ns3:cad>
          </ns3:TrackPointExtension>
        </extensions>
      </trkpt>
      <trkpt lat="37.751361317932605743408203125" lon="-107.71661826409399509429931640625">
        <ele>3524.199951171875</ele>
        <time>2023-07-29T13:31:32.000Z</time>
        <extensions>
          <ns3:TrackPointExtension>
            <ns3:hr>97</ns3:hr>
            <ns3:cad>0</ns3:cad>
          </ns3:TrackPointExtension>
        </extensions>
      </trkpt>
      <trkpt lat="37.75136760435998439788818359375" lon="-107.716617844998836517333984375">
        <ele>3524.60009765625</ele>
        <time>2023-07-29T13:31:33.000Z</time>
        <extensions>
          <ns3:TrackPointExtension>
            <ns3:hr>96</ns3:hr>
            <ns3:cad>0</ns3:cad>
          </ns3:TrackPointExtension>
        </extensions>
      </trkpt>
      <trkpt lat="37.7513772435486316680908203125" lon="-107.71661792881786823272705078125">
        <ele>3524.60009765625</ele>
        <time>2023-07-29T13:31:34.000Z</time>
        <extensions>
          <ns3:TrackPointExtension>
            <ns3:hr>96</ns3:hr>
            <ns3:cad>0</ns3:cad>
          </ns3:TrackPointExtension>
        </extensions>
      </trkpt>
      <trkpt lat="37.75138906203210353851318359375" lon="-107.71661591716110706329345703125">
        <ele>3524.800048828125</ele>
        <time>2023-07-29T13:31:35.000Z</time>
        <extensions>
          <ns3:TrackPointExtension>
            <ns3:hr>96</ns3:hr>
            <ns3:cad>0</ns3:cad>
          </ns3:TrackPointExtension>
        </extensions>
      </trkpt>
      <trkpt lat="37.7513926662504673004150390625" lon="-107.71661658771336078643798828125">
        <ele>3525</ele>
        <time>2023-07-29T13:31:36.000Z</time>
        <extensions>
          <ns3:TrackPointExtension>
            <ns3:hr>97</ns3:hr>
            <ns3:cad>0</ns3:cad>
          </ns3:TrackPointExtension>
        </extensions>
      </trkpt>
      <trkpt lat="37.75140347890555858612060546875" lon="-107.7166149951517581939697265625">
        <ele>3525</ele>
        <time>2023-07-29T13:31:37.000Z</time>
        <extensions>
          <ns3:TrackPointExtension>
            <ns3:hr>97</ns3:hr>
            <ns3:cad>0</ns3:cad>
          </ns3:TrackPointExtension>
        </extensions>
      </trkpt>
      <trkpt lat="37.7514097653329372406005859375" lon="-107.71661139093339443206787109375">
        <ele>3525.39990234375</ele>
        <time>2023-07-29T13:31:38.000Z</time>
        <extensions>
          <ns3:TrackPointExtension>
            <ns3:hr>97</ns3:hr>
            <ns3:cad>0</ns3:cad>
          </ns3:TrackPointExtension>
        </extensions>
      </trkpt>
      <trkpt lat="37.75141152553260326385498046875" lon="-107.71660954691469669342041015625">
        <ele>3525.60009765625</ele>
        <time>2023-07-29T13:31:39.000Z</time>
        <extensions>
          <ns3:TrackPointExtension>
            <ns3:hr>97</ns3:hr>
            <ns3:cad>0</ns3:cad>
          </ns3:TrackPointExtension>
        </extensions>
      </trkpt>
      <trkpt lat="37.75142208673059940338134765625" lon="-107.71660250611603260040283203125">
        <ele>3525.60009765625</ele>
        <time>2023-07-29T13:31:40.000Z</time>
        <extensions>
          <ns3:TrackPointExtension>
            <ns3:hr>97</ns3:hr>
            <ns3:cad>0</ns3:cad>
          </ns3:TrackPointExtension>
        </extensions>
      </trkpt>
      <trkpt lat="37.75142845697700977325439453125" lon="-107.7165985666215419769287109375">
        <ele>3525.800048828125</ele>
        <time>2023-07-29T13:31:41.000Z</time>
        <extensions>
          <ns3:TrackPointExtension>
            <ns3:hr>97</ns3:hr>
            <ns3:cad>0</ns3:cad>
          </ns3:TrackPointExtension>
        </extensions>
      </trkpt>
      <trkpt lat="37.7514342404901981353759765625" lon="-107.7165958844125270843505859375">
        <ele>3526</ele>
        <time>2023-07-29T13:31:42.000Z</time>
        <extensions>
          <ns3:TrackPointExtension>
            <ns3:hr>98</ns3:hr>
            <ns3:cad>0</ns3:cad>
          </ns3:TrackPointExtension>
        </extensions>
      </trkpt>
      <trkpt lat="37.7514422871172428131103515625" lon="-107.7165908552706241607666015625">
        <ele>3526</ele>
        <time>2023-07-29T13:31:43.000Z</time>
        <extensions>
          <ns3:TrackPointExtension>
            <ns3:hr>98</ns3:hr>
            <ns3:cad>0</ns3:cad>
          </ns3:TrackPointExtension>
        </extensions>
      </trkpt>
      <trkpt lat="37.7514506690204143524169921875" lon="-107.71658825688064098358154296875">
        <ele>3526.199951171875</ele>
        <time>2023-07-29T13:31:44.000Z</time>
        <extensions>
          <ns3:TrackPointExtension>
            <ns3:hr>98</ns3:hr>
            <ns3:cad>0</ns3:cad>
          </ns3:TrackPointExtension>
        </extensions>
      </trkpt>
      <trkpt lat="37.75145779363811016082763671875" lon="-107.7165854908525943756103515625">
        <ele>3526.199951171875</ele>
        <time>2023-07-29T13:31:45.000Z</time>
        <extensions>
          <ns3:TrackPointExtension>
            <ns3:hr>99</ns3:hr>
            <ns3:cad>0</ns3:cad>
          </ns3:TrackPointExtension>
        </extensions>
      </trkpt>
      <trkpt lat="37.7514620684087276458740234375" lon="-107.71658155135810375213623046875">
        <ele>3526.39990234375</ele>
        <time>2023-07-29T13:31:46.000Z</time>
        <extensions>
          <ns3:TrackPointExtension>
            <ns3:hr>99</ns3:hr>
            <ns3:cad>41</ns3:cad>
          </ns3:TrackPointExtension>
        </extensions>
      </trkpt>
      <trkpt lat="37.75146248750388622283935546875" lon="-107.71658104844391345977783203125">
        <ele>3526.60009765625</ele>
        <time>2023-07-29T13:31:47.000Z</time>
        <extensions>
          <ns3:TrackPointExtension>
            <ns3:hr>100</ns3:hr>
            <ns3:cad>41</ns3:cad>
          </ns3:TrackPointExtension>
        </extensions>
      </trkpt>
      <trkpt lat="37.75147187523543834686279296875" lon="-107.716572917997837066650390625">
        <ele>3526.800048828125</ele>
        <time>2023-07-29T13:31:48.000Z</time>
        <extensions>
          <ns3:TrackPointExtension>
            <ns3:hr>100</ns3:hr>
            <ns3:cad>41</ns3:cad>
          </ns3:TrackPointExtension>
        </extensions>
      </trkpt>
      <trkpt lat="37.7514774911105632781982421875" lon="-107.7165670506656169891357421875">
        <ele>3527</ele>
        <time>2023-07-29T13:31:49.000Z</time>
        <extensions>
          <ns3:TrackPointExtension>
            <ns3:hr>101</ns3:hr>
            <ns3:cad>41</ns3:cad>
          </ns3:TrackPointExtension>
        </extensions>
      </trkpt>
      <trkpt lat="37.75147975422441959381103515625" lon="-107.71656361408531665802001953125">
        <ele>3527.199951171875</ele>
        <time>2023-07-29T13:31:50.000Z</time>
        <extensions>
          <ns3:TrackPointExtension>
            <ns3:hr>101</ns3:hr>
            <ns3:cad>41</ns3:cad>
          </ns3:TrackPointExtension>
        </extensions>
      </trkpt>
      <trkpt lat="37.7514865435659885406494140625" lon="-107.71655808202922344207763671875">
        <ele>3527.39990234375</ele>
        <time>2023-07-29T13:31:51.000Z</time>
        <extensions>
          <ns3:TrackPointExtension>
            <ns3:hr>102</ns3:hr>
            <ns3:cad>41</ns3:cad>
          </ns3:TrackPointExtension>
        </extensions>
      </trkpt>
      <trkpt lat="37.751492075622081756591796875" lon="-107.7165529690682888031005859375">
        <ele>3527.39990234375</ele>
        <time>2023-07-29T13:31:52.000Z</time>
        <extensions>
          <ns3:TrackPointExtension>
            <ns3:hr>102</ns3:hr>
            <ns3:cad>41</ns3:cad>
          </ns3:TrackPointExtension>
        </extensions>
      </trkpt>
      <trkpt lat="37.75149987079203128814697265625" lon="-107.716548107564449310302734375">
        <ele>3527.60009765625</ele>
        <time>2023-07-29T13:31:53.000Z</time>
        <extensions>
          <ns3:TrackPointExtension>
            <ns3:hr>102</ns3:hr>
            <ns3:cad>41</ns3:cad>
          </ns3:TrackPointExtension>
        </extensions>
      </trkpt>
      <trkpt lat="37.7515063248574733734130859375" lon="-107.71654668264091014862060546875">
        <ele>3527.60009765625</ele>
        <time>2023-07-29T13:31:54.000Z</time>
        <extensions>
          <ns3:TrackPointExtension>
            <ns3:hr>103</ns3:hr>
            <ns3:cad>41</ns3:cad>
          </ns3:TrackPointExtension>
        </extensions>
      </trkpt>
      <trkpt lat="37.7515130303800106048583984375" lon="-107.7165452577173709869384765625">
        <ele>3527.800048828125</ele>
        <time>2023-07-29T13:31:55.000Z</time>
        <extensions>
          <ns3:TrackPointExtension>
            <ns3:hr>103</ns3:hr>
            <ns3:cad>41</ns3:cad>
          </ns3:TrackPointExtension>
        </extensions>
      </trkpt>
      <trkpt lat="37.75151445530354976654052734375" lon="-107.71654777228832244873046875">
        <ele>3528</ele>
        <time>2023-07-29T13:31:56.000Z</time>
        <extensions>
          <ns3:TrackPointExtension>
            <ns3:hr>104</ns3:hr>
            <ns3:cad>0</ns3:cad>
          </ns3:TrackPointExtension>
        </extensions>
      </trkpt>
      <trkpt lat="37.75152518413960933685302734375" lon="-107.716546095907688140869140625">
        <ele>3528</ele>
        <time>2023-07-29T13:31:57.000Z</time>
        <extensions>
          <ns3:TrackPointExtension>
            <ns3:hr>104</ns3:hr>
            <ns3:cad>0</ns3:cad>
          </ns3:TrackPointExtension>
        </extensions>
      </trkpt>
      <trkpt lat="37.751537002623081207275390625" lon="-107.71653980948030948638916015625">
        <ele>3528.199951171875</ele>
        <time>2023-07-29T13:31:58.000Z</time>
        <extensions>
          <ns3:TrackPointExtension>
            <ns3:hr>104</ns3:hr>
            <ns3:cad>0</ns3:cad>
          </ns3:TrackPointExtension>
        </extensions>
      </trkpt>
      <trkpt lat="37.75154270231723785400390625" lon="-107.7165375463664531707763671875">
        <ele>3528.39990234375</ele>
        <time>2023-07-29T13:31:59.000Z</time>
        <extensions>
          <ns3:TrackPointExtension>
            <ns3:hr>105</ns3:hr>
            <ns3:cad>0</ns3:cad>
          </ns3:TrackPointExtension>
        </extensions>
      </trkpt>
      <trkpt lat="37.75155519135296344757080078125" lon="-107.7165311761200428009033203125">
        <ele>3528.60009765625</ele>
        <time>2023-07-29T13:32:00.000Z</time>
        <extensions>
          <ns3:TrackPointExtension>
            <ns3:hr>105</ns3:hr>
            <ns3:cad>0</ns3:cad>
          </ns3:TrackPointExtension>
        </extensions>
      </trkpt>
      <trkpt lat="37.7515569515526294708251953125" lon="-107.716530002653598785400390625">
        <ele>3529</ele>
        <time>2023-07-29T13:32:01.000Z</time>
        <extensions>
          <ns3:TrackPointExtension>
            <ns3:hr>105</ns3:hr>
            <ns3:cad>0</ns3:cad>
          </ns3:TrackPointExtension>
        </extensions>
      </trkpt>
      <trkpt lat="37.75156374089419841766357421875" lon="-107.71652631461620330810546875">
        <ele>3529</ele>
        <time>2023-07-29T13:32:02.000Z</time>
        <extensions>
          <ns3:TrackPointExtension>
            <ns3:hr>105</ns3:hr>
            <ns3:cad>0</ns3:cad>
          </ns3:TrackPointExtension>
        </extensions>
      </trkpt>
      <trkpt lat="37.75156742893159389495849609375" lon="-107.71652321331202983856201171875">
        <ele>3529.199951171875</ele>
        <time>2023-07-29T13:32:03.000Z</time>
        <extensions>
          <ns3:TrackPointExtension>
            <ns3:hr>106</ns3:hr>
            <ns3:cad>0</ns3:cad>
          </ns3:TrackPointExtension>
        </extensions>
      </trkpt>
      <trkpt lat="37.7515700273215770721435546875" lon="-107.7165201120078563690185546875">
        <ele>3529.199951171875</ele>
        <time>2023-07-29T13:32:04.000Z</time>
        <extensions>
          <ns3:TrackPointExtension>
            <ns3:hr>106</ns3:hr>
            <ns3:cad>0</ns3:cad>
          </ns3:TrackPointExtension>
        </extensions>
      </trkpt>
      <trkpt lat="37.75158033706247806549072265625" lon="-107.7165110595524311065673828125">
        <ele>3529.39990234375</ele>
        <time>2023-07-29T13:32:05.000Z</time>
        <extensions>
          <ns3:TrackPointExtension>
            <ns3:hr>106</ns3:hr>
            <ns3:cad>0</ns3:cad>
          </ns3:TrackPointExtension>
        </extensions>
      </trkpt>
      <trkpt lat="37.751586623489856719970703125" lon="-107.7165043540298938751220703125">
        <ele>3529.60009765625</ele>
        <time>2023-07-29T13:32:06.000Z</time>
        <extensions>
          <ns3:TrackPointExtension>
            <ns3:hr>106</ns3:hr>
            <ns3:cad>0</ns3:cad>
          </ns3:TrackPointExtension>
        </extensions>
      </trkpt>
      <trkpt lat="37.75159307755529880523681640625" lon="-107.716499827802181243896484375">
        <ele>3529.800048828125</ele>
        <time>2023-07-29T13:32:07.000Z</time>
        <extensions>
          <ns3:TrackPointExtension>
            <ns3:hr>107</ns3:hr>
            <ns3:cad>0</ns3:cad>
          </ns3:TrackPointExtension>
        </extensions>
      </trkpt>
      <trkpt lat="37.7516059018671512603759765625" lon="-107.71649102680385112762451171875">
        <ele>3529.800048828125</ele>
        <time>2023-07-29T13:32:08.000Z</time>
        <extensions>
          <ns3:TrackPointExtension>
            <ns3:hr>107</ns3:hr>
            <ns3:cad>0</ns3:cad>
          </ns3:TrackPointExtension>
        </extensions>
      </trkpt>
      <trkpt lat="37.7516132779419422149658203125" lon="-107.716486416757106781005859375">
        <ele>3530</ele>
        <time>2023-07-29T13:32:09.000Z</time>
        <extensions>
          <ns3:TrackPointExtension>
            <ns3:hr>107</ns3:hr>
            <ns3:cad>0</ns3:cad>
          </ns3:TrackPointExtension>
        </extensions>
      </trkpt>
      <trkpt lat="37.7516157925128936767578125" lon="-107.71648214198648929595947265625">
        <ele>3530.199951171875</ele>
        <time>2023-07-29T13:32:10.000Z</time>
        <extensions>
          <ns3:TrackPointExtension>
            <ns3:hr>107</ns3:hr>
            <ns3:cad>0</ns3:cad>
          </ns3:TrackPointExtension>
        </extensions>
      </trkpt>
      <trkpt lat="37.7516250126063823699951171875" lon="-107.71647761575877666473388671875">
        <ele>3530.199951171875</ele>
        <time>2023-07-29T13:32:11.000Z</time>
        <extensions>
          <ns3:TrackPointExtension>
            <ns3:hr>107</ns3:hr>
            <ns3:cad>0</ns3:cad>
          </ns3:TrackPointExtension>
        </extensions>
      </trkpt>
      <trkpt lat="37.75163230486214160919189453125" lon="-107.71647267043590545654296875">
        <ele>3530.60009765625</ele>
        <time>2023-07-29T13:32:12.000Z</time>
        <extensions>
          <ns3:TrackPointExtension>
            <ns3:hr>108</ns3:hr>
            <ns3:cad>0</ns3:cad>
          </ns3:TrackPointExtension>
        </extensions>
      </trkpt>
      <trkpt lat="37.75164127349853515625" lon="-107.71646655164659023284912109375">
        <ele>3530.60009765625</ele>
        <time>2023-07-29T13:32:13.000Z</time>
        <extensions>
          <ns3:TrackPointExtension>
            <ns3:hr>108</ns3:hr>
            <ns3:cad>0</ns3:cad>
          </ns3:TrackPointExtension>
        </extensions>
      </trkpt>
      <trkpt lat="37.7516514994204044342041015625" lon="-107.71646001376211643218994140625">
        <ele>3530.60009765625</ele>
        <time>2023-07-29T13:32:14.000Z</time>
        <extensions>
          <ns3:TrackPointExtension>
            <ns3:hr>108</ns3:hr>
            <ns3:cad>0</ns3:cad>
          </ns3:TrackPointExtension>
        </extensions>
      </trkpt>
      <trkpt lat="37.75165535509586334228515625" lon="-107.716456912457942962646484375">
        <ele>3530.800048828125</ele>
        <time>2023-07-29T13:32:15.000Z</time>
        <extensions>
          <ns3:TrackPointExtension>
            <ns3:hr>108</ns3:hr>
            <ns3:cad>0</ns3:cad>
          </ns3:TrackPointExtension>
        </extensions>
      </trkpt>
      <trkpt lat="37.75166449137032032012939453125" lon="-107.71644878201186656951904296875">
        <ele>3531.199951171875</ele>
        <time>2023-07-29T13:32:16.000Z</time>
        <extensions>
          <ns3:TrackPointExtension>
            <ns3:hr>108</ns3:hr>
            <ns3:cad>0</ns3:cad>
          </ns3:TrackPointExtension>
        </extensions>
      </trkpt>
      <trkpt lat="37.7516756393015384674072265625" lon="-107.7164383046329021453857421875">
        <ele>3531.39990234375</ele>
        <time>2023-07-29T13:32:17.000Z</time>
        <extensions>
          <ns3:TrackPointExtension>
            <ns3:hr>109</ns3:hr>
            <ns3:cad>0</ns3:cad>
          </ns3:TrackPointExtension>
        </extensions>
      </trkpt>
      <trkpt lat="37.75168192572891712188720703125" lon="-107.71643503569066524505615234375">
        <ele>3531.39990234375</ele>
        <time>2023-07-29T13:32:18.000Z</time>
        <extensions>
          <ns3:TrackPointExtension>
            <ns3:hr>109</ns3:hr>
            <ns3:cad>0</ns3:cad>
          </ns3:TrackPointExtension>
        </extensions>
      </trkpt>
      <trkpt lat="37.7516977675259113311767578125" lon="-107.71642229519784450531005859375">
        <ele>3531.39990234375</ele>
        <time>2023-07-29T13:32:19.000Z</time>
        <extensions>
          <ns3:TrackPointExtension>
            <ns3:hr>109</ns3:hr>
            <ns3:cad>0</ns3:cad>
          </ns3:TrackPointExtension>
        </extensions>
      </trkpt>
      <trkpt lat="37.75170807726681232452392578125" lon="-107.7164148353040218353271484375">
        <ele>3531.60009765625</ele>
        <time>2023-07-29T13:32:20.000Z</time>
        <extensions>
          <ns3:TrackPointExtension>
            <ns3:hr>108</ns3:hr>
            <ns3:cad>0</ns3:cad>
          </ns3:TrackPointExtension>
        </extensions>
      </trkpt>
      <trkpt lat="37.7517158724367618560791015625" lon="-107.716407962143421173095703125">
        <ele>3531.800048828125</ele>
        <time>2023-07-29T13:32:21.000Z</time>
        <extensions>
          <ns3:TrackPointExtension>
            <ns3:hr>108</ns3:hr>
            <ns3:cad>0</ns3:cad>
          </ns3:TrackPointExtension>
        </extensions>
      </trkpt>
      <trkpt lat="37.7517202310264110565185546875" lon="-107.71640368737280368804931640625">
        <ele>3532</ele>
        <time>2023-07-29T13:32:22.000Z</time>
        <extensions>
          <ns3:TrackPointExtension>
            <ns3:hr>108</ns3:hr>
            <ns3:cad>0</ns3:cad>
          </ns3:TrackPointExtension>
        </extensions>
      </trkpt>
      <trkpt lat="37.75172551162540912628173828125" lon="-107.71639714948832988739013671875">
        <ele>3532.199951171875</ele>
        <time>2023-07-29T13:32:23.000Z</time>
        <extensions>
          <ns3:TrackPointExtension>
            <ns3:hr>108</ns3:hr>
            <ns3:cad>0</ns3:cad>
          </ns3:TrackPointExtension>
        </extensions>
      </trkpt>
      <trkpt lat="37.7517326362431049346923828125" lon="-107.7163900248706340789794921875">
        <ele>3532.199951171875</ele>
        <time>2023-07-29T13:32:24.000Z</time>
        <extensions>
          <ns3:TrackPointExtension>
            <ns3:hr>108</ns3:hr>
            <ns3:cad>0</ns3:cad>
          </ns3:TrackPointExtension>
        </extensions>
      </trkpt>
      <trkpt lat="37.75174244306981563568115234375" lon="-107.7163809724152088165283203125">
        <ele>3532.39990234375</ele>
        <time>2023-07-29T13:32:25.000Z</time>
        <extensions>
          <ns3:TrackPointExtension>
            <ns3:hr>108</ns3:hr>
            <ns3:cad>0</ns3:cad>
          </ns3:TrackPointExtension>
        </extensions>
      </trkpt>
      <trkpt lat="37.751750908792018890380859375" lon="-107.7163739316165447235107421875">
        <ele>3532.39990234375</ele>
        <time>2023-07-29T13:32:26.000Z</time>
        <extensions>
          <ns3:TrackPointExtension>
            <ns3:hr>108</ns3:hr>
            <ns3:cad>0</ns3:cad>
          </ns3:TrackPointExtension>
        </extensions>
      </trkpt>
      <trkpt lat="37.75175803340971469879150390625" lon="-107.7163665555417537689208984375">
        <ele>3532.39990234375</ele>
        <time>2023-07-29T13:32:27.000Z</time>
        <extensions>
          <ns3:TrackPointExtension>
            <ns3:hr>108</ns3:hr>
            <ns3:cad>0</ns3:cad>
          </ns3:TrackPointExtension>
        </extensions>
      </trkpt>
      <trkpt lat="37.75176222436130046844482421875" lon="-107.71636395715177059173583984375">
        <ele>3532.800048828125</ele>
        <time>2023-07-29T13:32:28.000Z</time>
        <extensions>
          <ns3:TrackPointExtension>
            <ns3:hr>108</ns3:hr>
            <ns3:cad>0</ns3:cad>
          </ns3:TrackPointExtension>
        </extensions>
      </trkpt>
      <trkpt lat="37.75176943279802799224853515625" lon="-107.71636144258081912994384765625">
        <ele>3532.800048828125</ele>
        <time>2023-07-29T13:32:29.000Z</time>
        <extensions>
          <ns3:TrackPointExtension>
            <ns3:hr>108</ns3:hr>
            <ns3:cad>0</ns3:cad>
          </ns3:TrackPointExtension>
        </extensions>
      </trkpt>
      <trkpt lat="37.75177345611155033111572265625" lon="-107.71635943092405796051025390625">
        <ele>3533</ele>
        <time>2023-07-29T13:32:30.000Z</time>
        <extensions>
          <ns3:TrackPointExtension>
            <ns3:hr>108</ns3:hr>
            <ns3:cad>0</ns3:cad>
          </ns3:TrackPointExtension>
        </extensions>
      </trkpt>
      <trkpt lat="37.75177865289151668548583984375" lon="-107.71636001765727996826171875">
        <ele>3533</ele>
        <time>2023-07-29T13:32:31.000Z</time>
        <extensions>
          <ns3:TrackPointExtension>
            <ns3:hr>109</ns3:hr>
            <ns3:cad>0</ns3:cad>
          </ns3:TrackPointExtension>
        </extensions>
      </trkpt>
      <trkpt lat="37.7517896331846714019775390625" lon="-107.71635406650602817535400390625">
        <ele>3533.199951171875</ele>
        <time>2023-07-29T13:32:32.000Z</time>
        <extensions>
          <ns3:TrackPointExtension>
            <ns3:hr>110</ns3:hr>
            <ns3:cad>0</ns3:cad>
          </ns3:TrackPointExtension>
        </extensions>
      </trkpt>
      <trkpt lat="37.75180212222039699554443359375" lon="-107.71634585224092006683349609375">
        <ele>3533.199951171875</ele>
        <time>2023-07-29T13:32:33.000Z</time>
        <extensions>
          <ns3:TrackPointExtension>
            <ns3:hr>113</ns3:hr>
            <ns3:cad>0</ns3:cad>
          </ns3:TrackPointExtension>
        </extensions>
      </trkpt>
      <trkpt lat="37.7518141083419322967529296875" lon="-107.71633855998516082763671875">
        <ele>3533.199951171875</ele>
        <time>2023-07-29T13:32:34.000Z</time>
        <extensions>
          <ns3:TrackPointExtension>
            <ns3:hr>115</ns3:hr>
            <ns3:cad>0</ns3:cad>
          </ns3:TrackPointExtension>
        </extensions>
      </trkpt>
      <trkpt lat="37.75183162651956081390380859375" lon="-107.7163279987871646881103515625">
        <ele>3533.39990234375</ele>
        <time>2023-07-29T13:32:35.000Z</time>
        <extensions>
          <ns3:TrackPointExtension>
            <ns3:hr>115</ns3:hr>
            <ns3:cad>0</ns3:cad>
          </ns3:TrackPointExtension>
        </extensions>
      </trkpt>
      <trkpt lat="37.7518410980701446533203125" lon="-107.7163226343691349029541015625">
        <ele>3533.60009765625</ele>
        <time>2023-07-29T13:32:36.000Z</time>
        <extensions>
          <ns3:TrackPointExtension>
            <ns3:hr>115</ns3:hr>
            <ns3:cad>0</ns3:cad>
          </ns3:TrackPointExtension>
        </extensions>
      </trkpt>
      <trkpt lat="37.75184134952723979949951171875" lon="-107.71632221527397632598876953125">
        <ele>3533.60009765625</ele>
        <time>2023-07-29T13:32:37.000Z</time>
        <extensions>
          <ns3:TrackPointExtension>
            <ns3:hr>115</ns3:hr>
            <ns3:cad>47</ns3:cad>
          </ns3:TrackPointExtension>
        </extensions>
      </trkpt>
      <trkpt lat="37.7518446184694766998291015625" lon="-107.7163192816078662872314453125">
        <ele>3533.800048828125</ele>
        <time>2023-07-29T13:32:38.000Z</time>
        <extensions>
          <ns3:TrackPointExtension>
            <ns3:hr>115</ns3:hr>
            <ns3:cad>47</ns3:cad>
          </ns3:TrackPointExtension>
        </extensions>
      </trkpt>
      <trkpt lat="37.75184855796396732330322265625" lon="-107.7163159288465976715087890625">
        <ele>3534</ele>
        <time>2023-07-29T13:32:39.000Z</time>
        <extensions>
          <ns3:TrackPointExtension>
            <ns3:hr>115</ns3:hr>
            <ns3:cad>0</ns3:cad>
          </ns3:TrackPointExtension>
        </extensions>
      </trkpt>
      <trkpt lat="37.75184855796396732330322265625" lon="-107.71631483919918537139892578125">
        <ele>3534</ele>
        <time>2023-07-29T13:32:40.000Z</time>
        <extensions>
          <ns3:TrackPointExtension>
            <ns3:hr>114</ns3:hr>
            <ns3:cad>0</ns3:cad>
          </ns3:TrackPointExtension>
        </extensions>
      </trkpt>
      <trkpt lat="37.75185610167682170867919921875" lon="-107.71630729548633098602294921875">
        <ele>3534</ele>
        <time>2023-07-29T13:32:41.000Z</time>
        <extensions>
          <ns3:TrackPointExtension>
            <ns3:hr>114</ns3:hr>
            <ns3:cad>0</ns3:cad>
          </ns3:TrackPointExtension>
        </extensions>
      </trkpt>
      <trkpt lat="37.75186699815094470977783203125" lon="-107.71629832684993743896484375">
        <ele>3534.199951171875</ele>
        <time>2023-07-29T13:32:42.000Z</time>
        <extensions>
          <ns3:TrackPointExtension>
            <ns3:hr>114</ns3:hr>
            <ns3:cad>0</ns3:cad>
          </ns3:TrackPointExtension>
        </extensions>
      </trkpt>
      <trkpt lat="37.75187931954860687255859375" lon="-107.71628634072840213775634765625">
        <ele>3534.199951171875</ele>
        <time>2023-07-29T13:32:43.000Z</time>
        <extensions>
          <ns3:TrackPointExtension>
            <ns3:hr>114</ns3:hr>
            <ns3:cad>0</ns3:cad>
          </ns3:TrackPointExtension>
        </extensions>
      </trkpt>
      <trkpt lat="37.75189247913658618927001953125" lon="-107.716272175312042236328125">
        <ele>3534.39990234375</ele>
        <time>2023-07-29T13:32:44.000Z</time>
        <extensions>
          <ns3:TrackPointExtension>
            <ns3:hr>113</ns3:hr>
            <ns3:cad>0</ns3:cad>
          </ns3:TrackPointExtension>
        </extensions>
      </trkpt>
      <trkpt lat="37.75190572254359722137451171875" lon="-107.71626035682857036590576171875">
        <ele>3534.60009765625</ele>
        <time>2023-07-29T13:32:45.000Z</time>
        <extensions>
          <ns3:TrackPointExtension>
            <ns3:hr>113</ns3:hr>
            <ns3:cad>0</ns3:cad>
          </ns3:TrackPointExtension>
        </extensions>
      </trkpt>
      <trkpt lat="37.75192047469317913055419921875" lon="-107.7162465266883373260498046875">
        <ele>3534.60009765625</ele>
        <time>2023-07-29T13:32:46.000Z</time>
        <extensions>
          <ns3:TrackPointExtension>
            <ns3:hr>113</ns3:hr>
            <ns3:cad>0</ns3:cad>
          </ns3:TrackPointExtension>
        </extensions>
      </trkpt>
      <trkpt lat="37.7519274316728115081787109375" lon="-107.71624124608933925628662109375">
        <ele>3534.800048828125</ele>
        <time>2023-07-29T13:32:47.000Z</time>
        <extensions>
          <ns3:TrackPointExtension>
            <ns3:hr>113</ns3:hr>
            <ns3:cad>0</ns3:cad>
          </ns3:TrackPointExtension>
        </extensions>
      </trkpt>
      <trkpt lat="37.75193505920469760894775390625" lon="-107.7162332832813262939453125">
        <ele>3534.800048828125</ele>
        <time>2023-07-29T13:32:48.000Z</time>
        <extensions>
          <ns3:TrackPointExtension>
            <ns3:hr>113</ns3:hr>
            <ns3:cad>0</ns3:cad>
          </ns3:TrackPointExtension>
        </extensions>
      </trkpt>
      <trkpt lat="37.75194293819367885589599609375" lon="-107.716226913034915924072265625">
        <ele>3535</ele>
        <time>2023-07-29T13:32:49.000Z</time>
        <extensions>
          <ns3:TrackPointExtension>
            <ns3:hr>113</ns3:hr>
            <ns3:cad>0</ns3:cad>
          </ns3:TrackPointExtension>
        </extensions>
      </trkpt>
      <trkpt lat="37.7519535832107067108154296875" lon="-107.7162163518369197845458984375">
        <ele>3535</ele>
        <time>2023-07-29T13:32:50.000Z</time>
        <extensions>
          <ns3:TrackPointExtension>
            <ns3:hr>113</ns3:hr>
            <ns3:cad>0</ns3:cad>
          </ns3:TrackPointExtension>
        </extensions>
      </trkpt>
      <trkpt lat="37.75196112692356109619140625" lon="-107.71620889194309711456298828125">
        <ele>3535.199951171875</ele>
        <time>2023-07-29T13:32:51.000Z</time>
        <extensions>
          <ns3:TrackPointExtension>
            <ns3:hr>113</ns3:hr>
            <ns3:cad>0</ns3:cad>
          </ns3:TrackPointExtension>
        </extensions>
      </trkpt>
      <trkpt lat="37.7519706822931766510009765625" lon="-107.7162037789821624755859375">
        <ele>3535.199951171875</ele>
        <time>2023-07-29T13:32:52.000Z</time>
        <extensions>
          <ns3:TrackPointExtension>
            <ns3:hr>114</ns3:hr>
            <ns3:cad>0</ns3:cad>
          </ns3:TrackPointExtension>
        </extensions>
      </trkpt>
      <trkpt lat="37.75196959264576435089111328125" lon="-107.71620285697281360626220703125">
        <ele>3535.39990234375</ele>
        <time>2023-07-29T13:32:53.000Z</time>
        <extensions>
          <ns3:TrackPointExtension>
            <ns3:hr>114</ns3:hr>
            <ns3:cad>0</ns3:cad>
          </ns3:TrackPointExtension>
        </extensions>
      </trkpt>
      <trkpt lat="37.751972191035747528076171875" lon="-107.7161952294409275054931640625">
        <ele>3535.39990234375</ele>
        <time>2023-07-29T13:32:54.000Z</time>
        <extensions>
          <ns3:TrackPointExtension>
            <ns3:hr>115</ns3:hr>
            <ns3:cad>0</ns3:cad>
          </ns3:TrackPointExtension>
        </extensions>
      </trkpt>
      <trkpt lat="37.75197730399668216705322265625" lon="-107.71618709899485111236572265625">
        <ele>3535.39990234375</ele>
        <time>2023-07-29T13:32:55.000Z</time>
        <extensions>
          <ns3:TrackPointExtension>
            <ns3:hr>115</ns3:hr>
            <ns3:cad>0</ns3:cad>
          </ns3:TrackPointExtension>
        </extensions>
      </trkpt>
      <trkpt lat="37.75197856128215789794921875" lon="-107.7161811478435993194580078125">
        <ele>3535.60009765625</ele>
        <time>2023-07-29T13:32:56.000Z</time>
        <extensions>
          <ns3:TrackPointExtension>
            <ns3:hr>115</ns3:hr>
            <ns3:cad>0</ns3:cad>
          </ns3:TrackPointExtension>
        </extensions>
      </trkpt>
      <trkpt lat="37.75198149494826793670654296875" lon="-107.71617536433041095733642578125">
        <ele>3535.800048828125</ele>
        <time>2023-07-29T13:32:57.000Z</time>
        <extensions>
          <ns3:TrackPointExtension>
            <ns3:hr>115</ns3:hr>
            <ns3:cad>0</ns3:cad>
          </ns3:TrackPointExtension>
        </extensions>
      </trkpt>
      <trkpt lat="37.75198233313858509063720703125" lon="-107.71617092192173004150390625">
        <ele>3536</ele>
        <time>2023-07-29T13:32:58.000Z</time>
        <extensions>
          <ns3:TrackPointExtension>
            <ns3:hr>115</ns3:hr>
            <ns3:cad>0</ns3:cad>
          </ns3:TrackPointExtension>
        </extensions>
      </trkpt>
      <trkpt lat="37.75199188850820064544677734375" lon="-107.71616212092339992523193359375">
        <ele>3536</ele>
        <time>2023-07-29T13:32:59.000Z</time>
        <extensions>
          <ns3:TrackPointExtension>
            <ns3:hr>115</ns3:hr>
            <ns3:cad>0</ns3:cad>
          </ns3:TrackPointExtension>
        </extensions>
      </trkpt>
      <trkpt lat="37.75199892930686473846435546875" lon="-107.71615776233375072479248046875">
        <ele>3536.199951171875</ele>
        <time>2023-07-29T13:33:00.000Z</time>
        <extensions>
          <ns3:TrackPointExtension>
            <ns3:hr>115</ns3:hr>
            <ns3:cad>0</ns3:cad>
          </ns3:TrackPointExtension>
        </extensions>
      </trkpt>
      <trkpt lat="37.75200806558132171630859375" lon="-107.71615155972540378570556640625">
        <ele>3536.199951171875</ele>
        <time>2023-07-29T13:33:01.000Z</time>
        <extensions>
          <ns3:TrackPointExtension>
            <ns3:hr>115</ns3:hr>
            <ns3:cad>0</ns3:cad>
          </ns3:TrackPointExtension>
        </extensions>
      </trkpt>
      <trkpt lat="37.75201871059834957122802734375" lon="-107.71614435128867626190185546875">
        <ele>3536.39990234375</ele>
        <time>2023-07-29T13:33:02.000Z</time>
        <extensions>
          <ns3:TrackPointExtension>
            <ns3:hr>114</ns3:hr>
            <ns3:cad>0</ns3:cad>
          </ns3:TrackPointExtension>
        </extensions>
      </trkpt>
      <trkpt lat="37.7520273439586162567138671875" lon="-107.71613915450870990753173828125">
        <ele>3536.39990234375</ele>
        <time>2023-07-29T13:33:03.000Z</time>
        <extensions>
          <ns3:TrackPointExtension>
            <ns3:hr>114</ns3:hr>
            <ns3:cad>0</ns3:cad>
          </ns3:TrackPointExtension>
        </extensions>
      </trkpt>
      <trkpt lat="37.75204251520335674285888671875" lon="-107.71612725220620632171630859375">
        <ele>3536.39990234375</ele>
        <time>2023-07-29T13:33:04.000Z</time>
        <extensions>
          <ns3:TrackPointExtension>
            <ns3:hr>114</ns3:hr>
            <ns3:cad>0</ns3:cad>
          </ns3:TrackPointExtension>
        </extensions>
      </trkpt>
      <trkpt lat="37.75205391459167003631591796875" lon="-107.71611954085528850555419921875">
        <ele>3536.60009765625</ele>
        <time>2023-07-29T13:33:05.000Z</time>
        <extensions>
          <ns3:TrackPointExtension>
            <ns3:hr>114</ns3:hr>
            <ns3:cad>0</ns3:cad>
          </ns3:TrackPointExtension>
        </extensions>
      </trkpt>
      <trkpt lat="37.75206045247614383697509765625" lon="-107.716115601360797882080078125">
        <ele>3536.60009765625</ele>
        <time>2023-07-29T13:33:06.000Z</time>
        <extensions>
          <ns3:TrackPointExtension>
            <ns3:hr>113</ns3:hr>
            <ns3:cad>48</ns3:cad>
          </ns3:TrackPointExtension>
        </extensions>
      </trkpt>
      <trkpt lat="37.75206598453223705291748046875" lon="-107.7161125838756561279296875">
        <ele>3536.60009765625</ele>
        <time>2023-07-29T13:33:07.000Z</time>
        <extensions>
          <ns3:TrackPointExtension>
            <ns3:hr>113</ns3:hr>
            <ns3:cad>48</ns3:cad>
          </ns3:TrackPointExtension>
        </extensions>
      </trkpt>
      <trkpt lat="37.75207000784575939178466796875" lon="-107.71611065603792667388916015625">
        <ele>3536.800048828125</ele>
        <time>2023-07-29T13:33:08.000Z</time>
        <extensions>
          <ns3:TrackPointExtension>
            <ns3:hr>113</ns3:hr>
            <ns3:cad>48</ns3:cad>
          </ns3:TrackPointExtension>
        </extensions>
      </trkpt>
      <trkpt lat="37.7520846761763095855712890625" lon="-107.71609850227832794189453125">
        <ele>3536.800048828125</ele>
        <time>2023-07-29T13:33:09.000Z</time>
        <extensions>
          <ns3:TrackPointExtension>
            <ns3:hr>113</ns3:hr>
            <ns3:cad>48</ns3:cad>
          </ns3:TrackPointExtension>
        </extensions>
      </trkpt>
      <trkpt lat="37.75209280662238597869873046875" lon="-107.71609003655612468719482421875">
        <ele>3537</ele>
        <time>2023-07-29T13:33:10.000Z</time>
        <extensions>
          <ns3:TrackPointExtension>
            <ns3:hr>113</ns3:hr>
            <ns3:cad>47</ns3:cad>
          </ns3:TrackPointExtension>
        </extensions>
      </trkpt>
      <trkpt lat="37.752097584307193756103515625" lon="-107.716082744300365447998046875">
        <ele>3537</ele>
        <time>2023-07-29T13:33:11.000Z</time>
        <extensions>
          <ns3:TrackPointExtension>
            <ns3:hr>113</ns3:hr>
            <ns3:cad>0</ns3:cad>
          </ns3:TrackPointExtension>
        </extensions>
      </trkpt>
      <trkpt lat="37.7520994283258914947509765625" lon="-107.7160748653113842010498046875">
        <ele>3537.199951171875</ele>
        <time>2023-07-29T13:33:12.000Z</time>
        <extensions>
          <ns3:TrackPointExtension>
            <ns3:hr>113</ns3:hr>
            <ns3:cad>0</ns3:cad>
          </ns3:TrackPointExtension>
        </extensions>
      </trkpt>
      <trkpt lat="37.75210739113390445709228515625" lon="-107.71606606431305408477783203125">
        <ele>3537.199951171875</ele>
        <time>2023-07-29T13:33:13.000Z</time>
        <extensions>
          <ns3:TrackPointExtension>
            <ns3:hr>113</ns3:hr>
            <ns3:cad>50</ns3:cad>
          </ns3:TrackPointExtension>
        </extensions>
      </trkpt>
      <trkpt lat="37.75211828760802745819091796875" lon="-107.7160554192960262298583984375">
        <ele>3537.199951171875</ele>
        <time>2023-07-29T13:33:14.000Z</time>
        <extensions>
          <ns3:TrackPointExtension>
            <ns3:hr>113</ns3:hr>
            <ns3:cad>50</ns3:cad>
          </ns3:TrackPointExtension>
        </extensions>
      </trkpt>
      <trkpt lat="37.75212985463440418243408203125" lon="-107.7160453610122203826904296875">
        <ele>3537.199951171875</ele>
        <time>2023-07-29T13:33:15.000Z</time>
        <extensions>
          <ns3:TrackPointExtension>
            <ns3:hr>113</ns3:hr>
            <ns3:cad>50</ns3:cad>
          </ns3:TrackPointExtension>
        </extensions>
      </trkpt>
      <trkpt lat="37.752142511308193206787109375" lon="-107.71603253670036792755126953125">
        <ele>3537.39990234375</ele>
        <time>2023-07-29T13:33:16.000Z</time>
        <extensions>
          <ns3:TrackPointExtension>
            <ns3:hr>113</ns3:hr>
            <ns3:cad>0</ns3:cad>
          </ns3:TrackPointExtension>
        </extensions>
      </trkpt>
      <trkpt lat="37.752154581248760223388671875" lon="-107.71601912565529346466064453125">
        <ele>3537.39990234375</ele>
        <time>2023-07-29T13:33:17.000Z</time>
        <extensions>
          <ns3:TrackPointExtension>
            <ns3:hr>113</ns3:hr>
            <ns3:cad>0</ns3:cad>
          </ns3:TrackPointExtension>
        </extensions>
      </trkpt>
      <trkpt lat="37.75216271169483661651611328125" lon="-107.71601200103759765625">
        <ele>3537.60009765625</ele>
        <time>2023-07-29T13:33:18.000Z</time>
        <extensions>
          <ns3:TrackPointExtension>
            <ns3:hr>113</ns3:hr>
            <ns3:cad>0</ns3:cad>
          </ns3:TrackPointExtension>
        </extensions>
      </trkpt>
      <trkpt lat="37.752176709473133087158203125" lon="-107.71599867381155490875244140625">
        <ele>3537.60009765625</ele>
        <time>2023-07-29T13:33:19.000Z</time>
        <extensions>
          <ns3:TrackPointExtension>
            <ns3:hr>112</ns3:hr>
            <ns3:cad>0</ns3:cad>
          </ns3:TrackPointExtension>
        </extensions>
      </trkpt>
      <trkpt lat="37.75218333117663860321044921875" lon="-107.715991549193859100341796875">
        <ele>3537.800048828125</ele>
        <time>2023-07-29T13:33:20.000Z</time>
        <extensions>
          <ns3:TrackPointExtension>
            <ns3:hr>112</ns3:hr>
            <ns3:cad>0</ns3:cad>
          </ns3:TrackPointExtension>
        </extensions>
      </trkpt>
      <trkpt lat="37.75219313800334930419921875" lon="-107.71598224528133869171142578125">
        <ele>3537.800048828125</ele>
        <time>2023-07-29T13:33:21.000Z</time>
        <extensions>
          <ns3:TrackPointExtension>
            <ns3:hr>112</ns3:hr>
            <ns3:cad>0</ns3:cad>
          </ns3:TrackPointExtension>
        </extensions>
      </trkpt>
      <trkpt lat="37.7522020228207111358642578125" lon="-107.7159746177494525909423828125">
        <ele>3537.800048828125</ele>
        <time>2023-07-29T13:33:22.000Z</time>
        <extensions>
          <ns3:TrackPointExtension>
            <ns3:hr>112</ns3:hr>
            <ns3:cad>0</ns3:cad>
          </ns3:TrackPointExtension>
        </extensions>
      </trkpt>
      <trkpt lat="37.75220931507647037506103515625" lon="-107.71597034297883510589599609375">
        <ele>3538</ele>
        <time>2023-07-29T13:33:23.000Z</time>
        <extensions>
          <ns3:TrackPointExtension>
            <ns3:hr>111</ns3:hr>
            <ns3:cad>0</ns3:cad>
          </ns3:TrackPointExtension>
        </extensions>
      </trkpt>
      <trkpt lat="37.75222037918865680694580078125" lon="-107.71596296690404415130615234375">
        <ele>3538.199951171875</ele>
        <time>2023-07-29T13:33:24.000Z</time>
        <extensions>
          <ns3:TrackPointExtension>
            <ns3:hr>111</ns3:hr>
            <ns3:cad>0</ns3:cad>
          </ns3:TrackPointExtension>
        </extensions>
      </trkpt>
      <trkpt lat="37.75222775526344776153564453125" lon="-107.71595768630504608154296875">
        <ele>3538.199951171875</ele>
        <time>2023-07-29T13:33:25.000Z</time>
        <extensions>
          <ns3:TrackPointExtension>
            <ns3:hr>111</ns3:hr>
            <ns3:cad>0</ns3:cad>
          </ns3:TrackPointExtension>
        </extensions>
      </trkpt>
      <trkpt lat="37.75224066339433193206787109375" lon="-107.71594804711639881134033203125">
        <ele>3538.39990234375</ele>
        <time>2023-07-29T13:33:26.000Z</time>
        <extensions>
          <ns3:TrackPointExtension>
            <ns3:hr>110</ns3:hr>
            <ns3:cad>0</ns3:cad>
          </ns3:TrackPointExtension>
        </extensions>
      </trkpt>
      <trkpt lat="37.75225558318197727203369140625" lon="-107.7159374020993709564208984375">
        <ele>3538.39990234375</ele>
        <time>2023-07-29T13:33:27.000Z</time>
        <extensions>
          <ns3:TrackPointExtension>
            <ns3:hr>110</ns3:hr>
            <ns3:cad>0</ns3:cad>
          </ns3:TrackPointExtension>
        </extensions>
      </trkpt>
      <trkpt lat="37.75226715020835399627685546875" lon="-107.7159266732633113861083984375">
        <ele>3538.60009765625</ele>
        <time>2023-07-29T13:33:28.000Z</time>
        <extensions>
          <ns3:TrackPointExtension>
            <ns3:hr>110</ns3:hr>
            <ns3:cad>0</ns3:cad>
          </ns3:TrackPointExtension>
        </extensions>
      </trkpt>
      <trkpt lat="37.75227502919733524322509765625" lon="-107.71591720171272754669189453125">
        <ele>3538.60009765625</ele>
        <time>2023-07-29T13:33:29.000Z</time>
        <extensions>
          <ns3:TrackPointExtension>
            <ns3:hr>109</ns3:hr>
            <ns3:cad>0</ns3:cad>
          </ns3:TrackPointExtension>
        </extensions>
      </trkpt>
      <trkpt lat="37.75228173471987247467041015625" lon="-107.71590806543827056884765625">
        <ele>3538.800048828125</ele>
        <time>2023-07-29T13:33:30.000Z</time>
        <extensions>
          <ns3:TrackPointExtension>
            <ns3:hr>109</ns3:hr>
            <ns3:cad>0</ns3:cad>
          </ns3:TrackPointExtension>
        </extensions>
      </trkpt>
      <trkpt lat="37.7522905357182025909423828125" lon="-107.7158964984118938446044921875">
        <ele>3538.800048828125</ele>
        <time>2023-07-29T13:33:31.000Z</time>
        <extensions>
          <ns3:TrackPointExtension>
            <ns3:hr>109</ns3:hr>
            <ns3:cad>0</ns3:cad>
          </ns3:TrackPointExtension>
        </extensions>
      </trkpt>
      <trkpt lat="37.75229430757462978363037109375" lon="-107.71588317118585109710693359375">
        <ele>3539</ele>
        <time>2023-07-29T13:33:32.000Z</time>
        <extensions>
          <ns3:TrackPointExtension>
            <ns3:hr>109</ns3:hr>
            <ns3:cad>0</ns3:cad>
          </ns3:TrackPointExtension>
        </extensions>
      </trkpt>
      <trkpt lat="37.7522995881736278533935546875" lon="-107.715875208377838134765625">
        <ele>3539.199951171875</ele>
        <time>2023-07-29T13:33:33.000Z</time>
        <extensions>
          <ns3:TrackPointExtension>
            <ns3:hr>109</ns3:hr>
            <ns3:cad>0</ns3:cad>
          </ns3:TrackPointExtension>
        </extensions>
      </trkpt>
      <trkpt lat="37.7523079700767993927001953125" lon="-107.7158631384372711181640625">
        <ele>3539.39990234375</ele>
        <time>2023-07-29T13:33:34.000Z</time>
        <extensions>
          <ns3:TrackPointExtension>
            <ns3:hr>109</ns3:hr>
            <ns3:cad>0</ns3:cad>
          </ns3:TrackPointExtension>
        </extensions>
      </trkpt>
      <trkpt lat="37.75231677107512950897216796875" lon="-107.715852744877338409423828125">
        <ele>3539.39990234375</ele>
        <time>2023-07-29T13:33:35.000Z</time>
        <extensions>
          <ns3:TrackPointExtension>
            <ns3:hr>110</ns3:hr>
            <ns3:cad>0</ns3:cad>
          </ns3:TrackPointExtension>
        </extensions>
      </trkpt>
      <trkpt lat="37.7523254044353961944580078125" lon="-107.71584209986031055450439453125">
        <ele>3539.39990234375</ele>
        <time>2023-07-29T13:33:36.000Z</time>
        <extensions>
          <ns3:TrackPointExtension>
            <ns3:hr>110</ns3:hr>
            <ns3:cad>0</ns3:cad>
          </ns3:TrackPointExtension>
        </extensions>
      </trkpt>
      <trkpt lat="37.75233521126210689544677734375" lon="-107.71583338268101215362548828125">
        <ele>3539.60009765625</ele>
        <time>2023-07-29T13:33:37.000Z</time>
        <extensions>
          <ns3:TrackPointExtension>
            <ns3:hr>110</ns3:hr>
            <ns3:cad>0</ns3:cad>
          </ns3:TrackPointExtension>
        </extensions>
      </trkpt>
      <trkpt lat="37.75234409607946872711181640625" lon="-107.71582684479653835296630859375">
        <ele>3539.60009765625</ele>
        <time>2023-07-29T13:33:38.000Z</time>
        <extensions>
          <ns3:TrackPointExtension>
            <ns3:hr>110</ns3:hr>
            <ns3:cad>0</ns3:cad>
          </ns3:TrackPointExtension>
        </extensions>
      </trkpt>
      <trkpt lat="37.75235616602003574371337890625" lon="-107.71581779234111309051513671875">
        <ele>3539.800048828125</ele>
        <time>2023-07-29T13:33:39.000Z</time>
        <extensions>
          <ns3:TrackPointExtension>
            <ns3:hr>110</ns3:hr>
            <ns3:cad>0</ns3:cad>
          </ns3:TrackPointExtension>
        </extensions>
      </trkpt>
      <trkpt lat="37.75236287154257297515869140625" lon="-107.71581150591373443603515625">
        <ele>3539.800048828125</ele>
        <time>2023-07-29T13:33:40.000Z</time>
        <extensions>
          <ns3:TrackPointExtension>
            <ns3:hr>110</ns3:hr>
            <ns3:cad>0</ns3:cad>
          </ns3:TrackPointExtension>
        </extensions>
      </trkpt>
      <trkpt lat="37.75237427093088626861572265625" lon="-107.71580086089670658111572265625">
        <ele>3540</ele>
        <time>2023-07-29T13:33:41.000Z</time>
        <extensions>
          <ns3:TrackPointExtension>
            <ns3:hr>110</ns3:hr>
            <ns3:cad>0</ns3:cad>
          </ns3:TrackPointExtension>
        </extensions>
      </trkpt>
      <trkpt lat="37.75238080881536006927490234375" lon="-107.71579205989837646484375">
        <ele>3540</ele>
        <time>2023-07-29T13:33:42.000Z</time>
        <extensions>
          <ns3:TrackPointExtension>
            <ns3:hr>110</ns3:hr>
            <ns3:cad>0</ns3:cad>
          </ns3:TrackPointExtension>
        </extensions>
      </trkpt>
      <trkpt lat="37.7523884363472461700439453125" lon="-107.71578325890004634857177734375">
        <ele>3540.199951171875</ele>
        <time>2023-07-29T13:33:43.000Z</time>
        <extensions>
          <ns3:TrackPointExtension>
            <ns3:hr>110</ns3:hr>
            <ns3:cad>0</ns3:cad>
          </ns3:TrackPointExtension>
        </extensions>
      </trkpt>
      <trkpt lat="37.752399332821369171142578125" lon="-107.7157719433307647705078125">
        <ele>3540.199951171875</ele>
        <time>2023-07-29T13:33:44.000Z</time>
        <extensions>
          <ns3:TrackPointExtension>
            <ns3:hr>110</ns3:hr>
            <ns3:cad>0</ns3:cad>
          </ns3:TrackPointExtension>
        </extensions>
      </trkpt>
      <trkpt lat="37.7524075470864772796630859375" lon="-107.71576079539954662322998046875">
        <ele>3540.199951171875</ele>
        <time>2023-07-29T13:33:45.000Z</time>
        <extensions>
          <ns3:TrackPointExtension>
            <ns3:hr>109</ns3:hr>
            <ns3:cad>0</ns3:cad>
          </ns3:TrackPointExtension>
        </extensions>
      </trkpt>
      <trkpt lat="37.7524149231612682342529296875" lon="-107.715746462345123291015625">
        <ele>3540.39990234375</ele>
        <time>2023-07-29T13:33:46.000Z</time>
        <extensions>
          <ns3:TrackPointExtension>
            <ns3:hr>109</ns3:hr>
            <ns3:cad>0</ns3:cad>
          </ns3:TrackPointExtension>
        </extensions>
      </trkpt>
      <trkpt lat="37.75241517461836338043212890625" lon="-107.71573414094746112823486328125">
        <ele>3540.39990234375</ele>
        <time>2023-07-29T13:33:47.000Z</time>
        <extensions>
          <ns3:TrackPointExtension>
            <ns3:hr>109</ns3:hr>
            <ns3:cad>48</ns3:cad>
          </ns3:TrackPointExtension>
        </extensions>
      </trkpt>
      <trkpt lat="37.7524199523031711578369140625" lon="-107.71572240628302097320556640625">
        <ele>3540.60009765625</ele>
        <time>2023-07-29T13:33:48.000Z</time>
        <extensions>
          <ns3:TrackPointExtension>
            <ns3:hr>109</ns3:hr>
            <ns3:cad>48</ns3:cad>
          </ns3:TrackPointExtension>
        </extensions>
      </trkpt>
      <trkpt lat="37.7524169348180294036865234375" lon="-107.7157147787511348724365234375">
        <ele>3540.60009765625</ele>
        <time>2023-07-29T13:33:49.000Z</time>
        <extensions>
          <ns3:TrackPointExtension>
            <ns3:hr>109</ns3:hr>
            <ns3:cad>48</ns3:cad>
          </ns3:TrackPointExtension>
        </extensions>
      </trkpt>
      <trkpt lat="37.75241483934223651885986328125" lon="-107.71571000106632709503173828125">
        <ele>3540.60009765625</ele>
        <time>2023-07-29T13:33:50.000Z</time>
        <extensions>
          <ns3:TrackPointExtension>
            <ns3:hr>108</ns3:hr>
            <ns3:cad>48</ns3:cad>
          </ns3:TrackPointExtension>
        </extensions>
      </trkpt>
      <trkpt lat="37.752419449388980865478515625" lon="-107.71569659002125263214111328125">
        <ele>3540.800048828125</ele>
        <time>2023-07-29T13:33:51.000Z</time>
        <extensions>
          <ns3:TrackPointExtension>
            <ns3:hr>108</ns3:hr>
            <ns3:cad>0</ns3:cad>
          </ns3:TrackPointExtension>
        </extensions>
      </trkpt>
      <trkpt lat="37.75242456234991550445556640625" lon="-107.71568133495748043060302734375">
        <ele>3541</ele>
        <time>2023-07-29T13:33:52.000Z</time>
        <extensions>
          <ns3:TrackPointExtension>
            <ns3:hr>108</ns3:hr>
            <ns3:cad>0</ns3:cad>
          </ns3:TrackPointExtension>
        </extensions>
      </trkpt>
      <trkpt lat="37.7524357102811336517333984375" lon="-107.715662308037281036376953125">
        <ele>3541</ele>
        <time>2023-07-29T13:33:53.000Z</time>
        <extensions>
          <ns3:TrackPointExtension>
            <ns3:hr>108</ns3:hr>
            <ns3:cad>0</ns3:cad>
          </ns3:TrackPointExtension>
        </extensions>
      </trkpt>
      <trkpt lat="37.752446271479129791259765625" lon="-107.71564847789704799652099609375">
        <ele>3541</ele>
        <time>2023-07-29T13:33:54.000Z</time>
        <extensions>
          <ns3:TrackPointExtension>
            <ns3:hr>108</ns3:hr>
            <ns3:cad>0</ns3:cad>
          </ns3:TrackPointExtension>
        </extensions>
      </trkpt>
      <trkpt lat="37.752450294792652130126953125" lon="-107.715644538402557373046875">
        <ele>3541.199951171875</ele>
        <time>2023-07-29T13:33:55.000Z</time>
        <extensions>
          <ns3:TrackPointExtension>
            <ns3:hr>108</ns3:hr>
            <ns3:cad>0</ns3:cad>
          </ns3:TrackPointExtension>
        </extensions>
      </trkpt>
      <trkpt lat="37.7524564974009990692138671875" lon="-107.715633809566497802734375">
        <ele>3541.199951171875</ele>
        <time>2023-07-29T13:33:56.000Z</time>
        <extensions>
          <ns3:TrackPointExtension>
            <ns3:hr>108</ns3:hr>
            <ns3:cad>0</ns3:cad>
          </ns3:TrackPointExtension>
        </extensions>
      </trkpt>
      <trkpt lat="37.75246378965675830841064453125" lon="-107.715625427663326263427734375">
        <ele>3541.199951171875</ele>
        <time>2023-07-29T13:33:57.000Z</time>
        <extensions>
          <ns3:TrackPointExtension>
            <ns3:hr>107</ns3:hr>
            <ns3:cad>0</ns3:cad>
          </ns3:TrackPointExtension>
        </extensions>
      </trkpt>
      <trkpt lat="37.75247267447412014007568359375" lon="-107.7156108431518077850341796875">
        <ele>3541.199951171875</ele>
        <time>2023-07-29T13:33:58.000Z</time>
        <extensions>
          <ns3:TrackPointExtension>
            <ns3:hr>107</ns3:hr>
            <ns3:cad>0</ns3:cad>
          </ns3:TrackPointExtension>
        </extensions>
      </trkpt>
      <trkpt lat="37.75247870944440364837646484375" lon="-107.7156021259725093841552734375">
        <ele>3541.39990234375</ele>
        <time>2023-07-29T13:33:59.000Z</time>
        <extensions>
          <ns3:TrackPointExtension>
            <ns3:hr>107</ns3:hr>
            <ns3:cad>0</ns3:cad>
          </ns3:TrackPointExtension>
        </extensions>
      </trkpt>
      <trkpt lat="37.75248290039598941802978515625" lon="-107.7155935764312744140625">
        <ele>3541.39990234375</ele>
        <time>2023-07-29T13:34:00.000Z</time>
        <extensions>
          <ns3:TrackPointExtension>
            <ns3:hr>107</ns3:hr>
            <ns3:cad>0</ns3:cad>
          </ns3:TrackPointExtension>
        </extensions>
      </trkpt>
      <trkpt lat="37.7524860017001628875732421875" lon="-107.71558360196650028228759765625">
        <ele>3541.60009765625</ele>
        <time>2023-07-29T13:34:01.000Z</time>
        <extensions>
          <ns3:TrackPointExtension>
            <ns3:hr>107</ns3:hr>
            <ns3:cad>0</ns3:cad>
          </ns3:TrackPointExtension>
        </extensions>
      </trkpt>
      <trkpt lat="37.75248977355659008026123046875" lon="-107.71556876599788665771484375">
        <ele>3541.60009765625</ele>
        <time>2023-07-29T13:34:02.000Z</time>
        <extensions>
          <ns3:TrackPointExtension>
            <ns3:hr>107</ns3:hr>
            <ns3:cad>0</ns3:cad>
          </ns3:TrackPointExtension>
        </extensions>
      </trkpt>
      <trkpt lat="37.75249178521335124969482421875" lon="-107.715559713542461395263671875">
        <ele>3541.800048828125</ele>
        <time>2023-07-29T13:34:03.000Z</time>
        <extensions>
          <ns3:TrackPointExtension>
            <ns3:hr>107</ns3:hr>
            <ns3:cad>0</ns3:cad>
          </ns3:TrackPointExtension>
        </extensions>
      </trkpt>
      <trkpt lat="37.75249832309782505035400390625" lon="-107.7155414409935474395751953125">
        <ele>3541.800048828125</ele>
        <time>2023-07-29T13:34:04.000Z</time>
        <extensions>
          <ns3:TrackPointExtension>
            <ns3:hr>107</ns3:hr>
            <ns3:cad>0</ns3:cad>
          </ns3:TrackPointExtension>
        </extensions>
      </trkpt>
      <trkpt lat="37.75249815545976161956787109375" lon="-107.71553263999521732330322265625">
        <ele>3542</ele>
        <time>2023-07-29T13:34:05.000Z</time>
        <extensions>
          <ns3:TrackPointExtension>
            <ns3:hr>107</ns3:hr>
            <ns3:cad>0</ns3:cad>
          </ns3:TrackPointExtension>
        </extensions>
      </trkpt>
      <trkpt lat="37.75250167585909366607666015625" lon="-107.715522162616252899169921875">
        <ele>3542</ele>
        <time>2023-07-29T13:34:06.000Z</time>
        <extensions>
          <ns3:TrackPointExtension>
            <ns3:hr>107</ns3:hr>
            <ns3:cad>0</ns3:cad>
          </ns3:TrackPointExtension>
        </extensions>
      </trkpt>
      <trkpt lat="37.752507291734218597412109375" lon="-107.71550682373344898223876953125">
        <ele>3542.199951171875</ele>
        <time>2023-07-29T13:34:07.000Z</time>
        <extensions>
          <ns3:TrackPointExtension>
            <ns3:hr>107</ns3:hr>
            <ns3:cad>0</ns3:cad>
          </ns3:TrackPointExtension>
        </extensions>
      </trkpt>
      <trkpt lat="37.75251089595258235931396484375" lon="-107.71549458615481853485107421875">
        <ele>3542.199951171875</ele>
        <time>2023-07-29T13:34:08.000Z</time>
        <extensions>
          <ns3:TrackPointExtension>
            <ns3:hr>107</ns3:hr>
            <ns3:cad>44</ns3:cad>
          </ns3:TrackPointExtension>
        </extensions>
      </trkpt>
      <trkpt lat="37.75251776911318302154541015625" lon="-107.71548067219555377960205078125">
        <ele>3542.39990234375</ele>
        <time>2023-07-29T13:34:09.000Z</time>
        <extensions>
          <ns3:TrackPointExtension>
            <ns3:hr>107</ns3:hr>
            <ns3:cad>44</ns3:cad>
          </ns3:TrackPointExtension>
        </extensions>
      </trkpt>
      <trkpt lat="37.75252162478864192962646484375" lon="-107.71547086536884307861328125">
        <ele>3542.60009765625</ele>
        <time>2023-07-29T13:34:10.000Z</time>
        <extensions>
          <ns3:TrackPointExtension>
            <ns3:hr>107</ns3:hr>
            <ns3:cad>0</ns3:cad>
          </ns3:TrackPointExtension>
        </extensions>
      </trkpt>
      <trkpt lat="37.75252464227378368377685546875" lon="-107.715461812913417816162109375">
        <ele>3542.800048828125</ele>
        <time>2023-07-29T13:34:11.000Z</time>
        <extensions>
          <ns3:TrackPointExtension>
            <ns3:hr>107</ns3:hr>
            <ns3:cad>0</ns3:cad>
          </ns3:TrackPointExtension>
        </extensions>
      </trkpt>
      <trkpt lat="37.75253101252019405364990234375" lon="-107.71545049734413623809814453125">
        <ele>3542.800048828125</ele>
        <time>2023-07-29T13:34:12.000Z</time>
        <extensions>
          <ns3:TrackPointExtension>
            <ns3:hr>107</ns3:hr>
            <ns3:cad>0</ns3:cad>
          </ns3:TrackPointExtension>
        </extensions>
      </trkpt>
      <trkpt lat="37.7525362931191921234130859375" lon="-107.715437673032283782958984375">
        <ele>3543</ele>
        <time>2023-07-29T13:34:13.000Z</time>
        <extensions>
          <ns3:TrackPointExtension>
            <ns3:hr>107</ns3:hr>
            <ns3:cad>0</ns3:cad>
          </ns3:TrackPointExtension>
        </extensions>
      </trkpt>
      <trkpt lat="37.7525433339178562164306640625" lon="-107.7154257707297801971435546875">
        <ele>3543</ele>
        <time>2023-07-29T13:34:14.000Z</time>
        <extensions>
          <ns3:TrackPointExtension>
            <ns3:hr>107</ns3:hr>
            <ns3:cad>0</ns3:cad>
          </ns3:TrackPointExtension>
        </extensions>
      </trkpt>
      <trkpt lat="37.75254894979298114776611328125" lon="-107.7154180593788623809814453125">
        <ele>3543</ele>
        <time>2023-07-29T13:34:15.000Z</time>
        <extensions>
          <ns3:TrackPointExtension>
            <ns3:hr>107</ns3:hr>
            <ns3:cad>0</ns3:cad>
          </ns3:TrackPointExtension>
        </extensions>
      </trkpt>
      <trkpt lat="37.75255431421101093292236328125" lon="-107.71540808491408824920654296875">
        <ele>3543.199951171875</ele>
        <time>2023-07-29T13:34:16.000Z</time>
        <extensions>
          <ns3:TrackPointExtension>
            <ns3:hr>107</ns3:hr>
            <ns3:cad>0</ns3:cad>
          </ns3:TrackPointExtension>
        </extensions>
      </trkpt>
      <trkpt lat="37.7525617741048336029052734375" lon="-107.7153986133635044097900390625">
        <ele>3543.199951171875</ele>
        <time>2023-07-29T13:34:17.000Z</time>
        <extensions>
          <ns3:TrackPointExtension>
            <ns3:hr>107</ns3:hr>
            <ns3:cad>0</ns3:cad>
          </ns3:TrackPointExtension>
        </extensions>
      </trkpt>
      <trkpt lat="37.7525704912841320037841796875" lon="-107.71538981236517429351806640625">
        <ele>3543.39990234375</ele>
        <time>2023-07-29T13:34:18.000Z</time>
        <extensions>
          <ns3:TrackPointExtension>
            <ns3:hr>107</ns3:hr>
            <ns3:cad>0</ns3:cad>
          </ns3:TrackPointExtension>
        </extensions>
      </trkpt>
      <trkpt lat="37.75257409550249576568603515625" lon="-107.71538713015615940093994140625">
        <ele>3543.60009765625</ele>
        <time>2023-07-29T13:34:19.000Z</time>
        <extensions>
          <ns3:TrackPointExtension>
            <ns3:hr>107</ns3:hr>
            <ns3:cad>44</ns3:cad>
          </ns3:TrackPointExtension>
        </extensions>
      </trkpt>
      <trkpt lat="37.7525795437395572662353515625" lon="-107.71538059227168560028076171875">
        <ele>3543.60009765625</ele>
        <time>2023-07-29T13:34:20.000Z</time>
        <extensions>
          <ns3:TrackPointExtension>
            <ns3:hr>108</ns3:hr>
            <ns3:cad>44</ns3:cad>
          </ns3:TrackPointExtension>
        </extensions>
      </trkpt>
      <trkpt lat="37.7525869198143482208251953125" lon="-107.7153717912733554840087890625">
        <ele>3543.800048828125</ele>
        <time>2023-07-29T13:34:21.000Z</time>
        <extensions>
          <ns3:TrackPointExtension>
            <ns3:hr>108</ns3:hr>
            <ns3:cad>44</ns3:cad>
          </ns3:TrackPointExtension>
        </extensions>
      </trkpt>
      <trkpt lat="37.75259144604206085205078125" lon="-107.71536751650273799896240234375">
        <ele>3543.800048828125</ele>
        <time>2023-07-29T13:34:22.000Z</time>
        <extensions>
          <ns3:TrackPointExtension>
            <ns3:hr>107</ns3:hr>
            <ns3:cad>44</ns3:cad>
          </ns3:TrackPointExtension>
        </extensions>
      </trkpt>
      <trkpt lat="37.7526016719639301300048828125" lon="-107.7153575420379638671875">
        <ele>3544</ele>
        <time>2023-07-29T13:34:23.000Z</time>
        <extensions>
          <ns3:TrackPointExtension>
            <ns3:hr>106</ns3:hr>
            <ns3:cad>47</ns3:cad>
          </ns3:TrackPointExtension>
        </extensions>
      </trkpt>
      <trkpt lat="37.7526110596954822540283203125" lon="-107.7153483219444751739501953125">
        <ele>3544</ele>
        <time>2023-07-29T13:34:24.000Z</time>
        <extensions>
          <ns3:TrackPointExtension>
            <ns3:hr>106</ns3:hr>
            <ns3:cad>47</ns3:cad>
          </ns3:TrackPointExtension>
        </extensions>
      </trkpt>
      <trkpt lat="37.7526217885315418243408203125" lon="-107.7153325639665126800537109375">
        <ele>3544</ele>
        <time>2023-07-29T13:34:25.000Z</time>
        <extensions>
          <ns3:TrackPointExtension>
            <ns3:hr>106</ns3:hr>
            <ns3:cad>0</ns3:cad>
          </ns3:TrackPointExtension>
        </extensions>
      </trkpt>
      <trkpt lat="37.75263126008212566375732421875" lon="-107.71531529724597930908203125">
        <ele>3544</ele>
        <time>2023-07-29T13:34:26.000Z</time>
        <extensions>
          <ns3:TrackPointExtension>
            <ns3:hr>106</ns3:hr>
            <ns3:cad>0</ns3:cad>
          </ns3:TrackPointExtension>
        </extensions>
      </trkpt>
      <trkpt lat="37.7526390552520751953125" lon="-107.71530012600123882293701171875">
        <ele>3544</ele>
        <time>2023-07-29T13:34:27.000Z</time>
        <extensions>
          <ns3:TrackPointExtension>
            <ns3:hr>106</ns3:hr>
            <ns3:cad>0</ns3:cad>
          </ns3:TrackPointExtension>
        </extensions>
      </trkpt>
      <trkpt lat="37.752649784088134765625" lon="-107.715282440185546875">
        <ele>3544</ele>
        <time>2023-07-29T13:34:28.000Z</time>
        <extensions>
          <ns3:TrackPointExtension>
            <ns3:hr>106</ns3:hr>
            <ns3:cad>0</ns3:cad>
          </ns3:TrackPointExtension>
        </extensions>
      </trkpt>
      <trkpt lat="37.7526526339352130889892578125" lon="-107.71527682431042194366455078125">
        <ele>3544.199951171875</ele>
        <time>2023-07-29T13:34:29.000Z</time>
        <extensions>
          <ns3:TrackPointExtension>
            <ns3:hr>106</ns3:hr>
            <ns3:cad>0</ns3:cad>
          </ns3:TrackPointExtension>
        </extensions>
      </trkpt>
      <trkpt lat="37.7526559866964817047119140625" lon="-107.71527145989239215850830078125">
        <ele>3544.199951171875</ele>
        <time>2023-07-29T13:34:30.000Z</time>
        <extensions>
          <ns3:TrackPointExtension>
            <ns3:hr>106</ns3:hr>
            <ns3:cad>0</ns3:cad>
          </ns3:TrackPointExtension>
        </extensions>
      </trkpt>
      <trkpt lat="37.752659507095813751220703125" lon="-107.71526341326534748077392578125">
        <ele>3544.39990234375</ele>
        <time>2023-07-29T13:34:31.000Z</time>
        <extensions>
          <ns3:TrackPointExtension>
            <ns3:hr>107</ns3:hr>
            <ns3:cad>0</ns3:cad>
          </ns3:TrackPointExtension>
        </extensions>
      </trkpt>
      <trkpt lat="37.752663195133209228515625" lon="-107.7152507565915584564208984375">
        <ele>3544.39990234375</ele>
        <time>2023-07-29T13:34:32.000Z</time>
        <extensions>
          <ns3:TrackPointExtension>
            <ns3:hr>107</ns3:hr>
            <ns3:cad>0</ns3:cad>
          </ns3:TrackPointExtension>
        </extensions>
      </trkpt>
      <trkpt lat="37.75266612879931926727294921875" lon="-107.71524078212678432464599609375">
        <ele>3544.39990234375</ele>
        <time>2023-07-29T13:34:33.000Z</time>
        <extensions>
          <ns3:TrackPointExtension>
            <ns3:hr>107</ns3:hr>
            <ns3:cad>0</ns3:cad>
          </ns3:TrackPointExtension>
        </extensions>
      </trkpt>
      <trkpt lat="37.75267099030315876007080078125" lon="-107.71522887982428073883056640625">
        <ele>3544.39990234375</ele>
        <time>2023-07-29T13:34:34.000Z</time>
        <extensions>
          <ns3:TrackPointExtension>
            <ns3:hr>107</ns3:hr>
            <ns3:cad>0</ns3:cad>
          </ns3:TrackPointExtension>
        </extensions>
      </trkpt>
      <trkpt lat="37.7526764385402202606201171875" lon="-107.7152145467698574066162109375">
        <ele>3544.60009765625</ele>
        <time>2023-07-29T13:34:35.000Z</time>
        <extensions>
          <ns3:TrackPointExtension>
            <ns3:hr>107</ns3:hr>
            <ns3:cad>0</ns3:cad>
          </ns3:TrackPointExtension>
        </extensions>
      </trkpt>
      <trkpt lat="37.752678953111171722412109375" lon="-107.71520323120057582855224609375">
        <ele>3544.800048828125</ele>
        <time>2023-07-29T13:34:36.000Z</time>
        <extensions>
          <ns3:TrackPointExtension>
            <ns3:hr>107</ns3:hr>
            <ns3:cad>0</ns3:cad>
          </ns3:TrackPointExtension>
        </extensions>
      </trkpt>
      <trkpt lat="37.75268389843404293060302734375" lon="-107.7151917479932308197021484375">
        <ele>3544.800048828125</ele>
        <time>2023-07-29T13:34:37.000Z</time>
        <extensions>
          <ns3:TrackPointExtension>
            <ns3:hr>107</ns3:hr>
            <ns3:cad>0</ns3:cad>
          </ns3:TrackPointExtension>
        </extensions>
      </trkpt>
      <trkpt lat="37.75268976576626300811767578125" lon="-107.71517942659556865692138671875">
        <ele>3545</ele>
        <time>2023-07-29T13:34:38.000Z</time>
        <extensions>
          <ns3:TrackPointExtension>
            <ns3:hr>107</ns3:hr>
            <ns3:cad>0</ns3:cad>
          </ns3:TrackPointExtension>
        </extensions>
      </trkpt>
      <trkpt lat="37.75269362144172191619873046875" lon="-107.71517355926334857940673828125">
        <ele>3545.199951171875</ele>
        <time>2023-07-29T13:34:39.000Z</time>
        <extensions>
          <ns3:TrackPointExtension>
            <ns3:hr>107</ns3:hr>
            <ns3:cad>0</ns3:cad>
          </ns3:TrackPointExtension>
        </extensions>
      </trkpt>
      <trkpt lat="37.75269781239330768585205078125" lon="-107.71516819484531879425048828125">
        <ele>3545.199951171875</ele>
        <time>2023-07-29T13:34:40.000Z</time>
        <extensions>
          <ns3:TrackPointExtension>
            <ns3:hr>107</ns3:hr>
            <ns3:cad>0</ns3:cad>
          </ns3:TrackPointExtension>
        </extensions>
      </trkpt>
      <trkpt lat="37.7527012489736080169677734375" lon="-107.71516618318855762481689453125">
        <ele>3545.199951171875</ele>
        <time>2023-07-29T13:34:41.000Z</time>
        <extensions>
          <ns3:TrackPointExtension>
            <ns3:hr>107</ns3:hr>
            <ns3:cad>0</ns3:cad>
          </ns3:TrackPointExtension>
        </extensions>
      </trkpt>
      <trkpt lat="37.75271021761000156402587890625" lon="-107.71515696309506893157958984375">
        <ele>3545.199951171875</ele>
        <time>2023-07-29T13:34:42.000Z</time>
        <extensions>
          <ns3:TrackPointExtension>
            <ns3:hr>107</ns3:hr>
            <ns3:cad>0</ns3:cad>
          </ns3:TrackPointExtension>
        </extensions>
      </trkpt>
      <trkpt lat="37.75271826423704624176025390625" lon="-107.71514640189707279205322265625">
        <ele>3545.39990234375</ele>
        <time>2023-07-29T13:34:43.000Z</time>
        <extensions>
          <ns3:TrackPointExtension>
            <ns3:hr>107</ns3:hr>
            <ns3:cad>49</ns3:cad>
          </ns3:TrackPointExtension>
        </extensions>
      </trkpt>
      <trkpt lat="37.7527230419218540191650390625" lon="-107.7151414565742015838623046875">
        <ele>3545.60009765625</ele>
        <time>2023-07-29T13:34:44.000Z</time>
        <extensions>
          <ns3:TrackPointExtension>
            <ns3:hr>107</ns3:hr>
            <ns3:cad>49</ns3:cad>
          </ns3:TrackPointExtension>
        </extensions>
      </trkpt>
      <trkpt lat="37.75273301638662815093994140625" lon="-107.71513156592845916748046875">
        <ele>3545.60009765625</ele>
        <time>2023-07-29T13:34:45.000Z</time>
        <extensions>
          <ns3:TrackPointExtension>
            <ns3:hr>107</ns3:hr>
            <ns3:cad>49</ns3:cad>
          </ns3:TrackPointExtension>
        </extensions>
      </trkpt>
      <trkpt lat="37.75274240411818027496337890625" lon="-107.7151199989020824432373046875">
        <ele>3545.800048828125</ele>
        <time>2023-07-29T13:34:46.000Z</time>
        <extensions>
          <ns3:TrackPointExtension>
            <ns3:hr>107</ns3:hr>
            <ns3:cad>49</ns3:cad>
          </ns3:TrackPointExtension>
        </extensions>
      </trkpt>
      <trkpt lat="37.7527575753629207611083984375" lon="-107.71510248072445392608642578125">
        <ele>3545.800048828125</ele>
        <time>2023-07-29T13:34:47.000Z</time>
        <extensions>
          <ns3:TrackPointExtension>
            <ns3:hr>107</ns3:hr>
            <ns3:cad>49</ns3:cad>
          </ns3:TrackPointExtension>
        </extensions>
      </trkpt>
      <trkpt lat="37.752767466008663177490234375" lon="-107.71509426645934581756591796875">
        <ele>3546</ele>
        <time>2023-07-29T13:34:48.000Z</time>
        <extensions>
          <ns3:TrackPointExtension>
            <ns3:hr>107</ns3:hr>
            <ns3:cad>49</ns3:cad>
          </ns3:TrackPointExtension>
        </extensions>
      </trkpt>
      <trkpt lat="37.7527837269008159637451171875" lon="-107.71507901139557361602783203125">
        <ele>3546</ele>
        <time>2023-07-29T13:34:49.000Z</time>
        <extensions>
          <ns3:TrackPointExtension>
            <ns3:hr>107</ns3:hr>
            <ns3:cad>49</ns3:cad>
          </ns3:TrackPointExtension>
        </extensions>
      </trkpt>
      <trkpt lat="37.7527954615652561187744140625" lon="-107.71506442688405513763427734375">
        <ele>3546</ele>
        <time>2023-07-29T13:34:50.000Z</time>
        <extensions>
          <ns3:TrackPointExtension>
            <ns3:hr>107</ns3:hr>
            <ns3:cad>49</ns3:cad>
          </ns3:TrackPointExtension>
        </extensions>
      </trkpt>
      <trkpt lat="37.7528040111064910888671875" lon="-107.71505688317120075225830078125">
        <ele>3546.199951171875</ele>
        <time>2023-07-29T13:34:51.000Z</time>
        <extensions>
          <ns3:TrackPointExtension>
            <ns3:hr>107</ns3:hr>
            <ns3:cad>0</ns3:cad>
          </ns3:TrackPointExtension>
        </extensions>
      </trkpt>
      <trkpt lat="37.752813063561916351318359375" lon="-107.71505185402929782867431640625">
        <ele>3546.39990234375</ele>
        <time>2023-07-29T13:34:52.000Z</time>
        <extensions>
          <ns3:TrackPointExtension>
            <ns3:hr>107</ns3:hr>
            <ns3:cad>0</ns3:cad>
          </ns3:TrackPointExtension>
        </extensions>
      </trkpt>
      <trkpt lat="37.752824462950229644775390625" lon="-107.71504045464098453521728515625">
        <ele>3546.39990234375</ele>
        <time>2023-07-29T13:34:53.000Z</time>
        <extensions>
          <ns3:TrackPointExtension>
            <ns3:hr>107</ns3:hr>
            <ns3:cad>0</ns3:cad>
          </ns3:TrackPointExtension>
        </extensions>
      </trkpt>
      <trkpt lat="37.75283711962401866912841796875" lon="-107.7150257863104343414306640625">
        <ele>3546.60009765625</ele>
        <time>2023-07-29T13:34:54.000Z</time>
        <extensions>
          <ns3:TrackPointExtension>
            <ns3:hr>106</ns3:hr>
            <ns3:cad>0</ns3:cad>
          </ns3:TrackPointExtension>
        </extensions>
      </trkpt>
      <trkpt lat="37.7528430707752704620361328125" lon="-107.715017236769199371337890625">
        <ele>3546.60009765625</ele>
        <time>2023-07-29T13:34:55.000Z</time>
        <extensions>
          <ns3:TrackPointExtension>
            <ns3:hr>106</ns3:hr>
            <ns3:cad>0</ns3:cad>
          </ns3:TrackPointExtension>
        </extensions>
      </trkpt>
      <trkpt lat="37.7528434060513973236083984375" lon="-107.7150153927505016326904296875">
        <ele>3546.800048828125</ele>
        <time>2023-07-29T13:34:56.000Z</time>
        <extensions>
          <ns3:TrackPointExtension>
            <ns3:hr>105</ns3:hr>
            <ns3:cad>0</ns3:cad>
          </ns3:TrackPointExtension>
        </extensions>
      </trkpt>
      <trkpt lat="37.7528487704694271087646484375" lon="-107.71500877104699611663818359375">
        <ele>3546.800048828125</ele>
        <time>2023-07-29T13:34:57.000Z</time>
        <extensions>
          <ns3:TrackPointExtension>
            <ns3:hr>105</ns3:hr>
            <ns3:cad>0</ns3:cad>
          </ns3:TrackPointExtension>
        </extensions>
      </trkpt>
      <trkpt lat="37.75285321287810802459716796875" lon="-107.71499854512512683868408203125">
        <ele>3547.199951171875</ele>
        <time>2023-07-29T13:34:58.000Z</time>
        <extensions>
          <ns3:TrackPointExtension>
            <ns3:hr>106</ns3:hr>
            <ns3:cad>0</ns3:cad>
          </ns3:TrackPointExtension>
        </extensions>
      </trkpt>
      <trkpt lat="37.75286477990448474884033203125" lon="-107.7149805240333080291748046875">
        <ele>3547.199951171875</ele>
        <time>2023-07-29T13:34:59.000Z</time>
        <extensions>
          <ns3:TrackPointExtension>
            <ns3:hr>106</ns3:hr>
            <ns3:cad>0</ns3:cad>
          </ns3:TrackPointExtension>
        </extensions>
      </trkpt>
      <trkpt lat="37.7528682164847850799560546875" lon="-107.7149687893688678741455078125">
        <ele>3547.39990234375</ele>
        <time>2023-07-29T13:35:00.000Z</time>
        <extensions>
          <ns3:TrackPointExtension>
            <ns3:hr>107</ns3:hr>
            <ns3:cad>47</ns3:cad>
          </ns3:TrackPointExtension>
        </extensions>
      </trkpt>
      <trkpt lat="37.75287232361733913421630859375" lon="-107.71496149711310863494873046875">
        <ele>3547.39990234375</ele>
        <time>2023-07-29T13:35:01.000Z</time>
        <extensions>
          <ns3:TrackPointExtension>
            <ns3:hr>107</ns3:hr>
            <ns3:cad>47</ns3:cad>
          </ns3:TrackPointExtension>
        </extensions>
      </trkpt>
      <trkpt lat="37.752882130444049835205078125" lon="-107.71494741551578044891357421875">
        <ele>3547.60009765625</ele>
        <time>2023-07-29T13:35:02.000Z</time>
        <extensions>
          <ns3:TrackPointExtension>
            <ns3:hr>108</ns3:hr>
            <ns3:cad>47</ns3:cad>
          </ns3:TrackPointExtension>
        </extensions>
      </trkpt>
      <trkpt lat="37.752890847623348236083984375" lon="-107.71493148989975452423095703125">
        <ele>3547.60009765625</ele>
        <time>2023-07-29T13:35:03.000Z</time>
        <extensions>
          <ns3:TrackPointExtension>
            <ns3:hr>108</ns3:hr>
            <ns3:cad>47</ns3:cad>
          </ns3:TrackPointExtension>
        </extensions>
      </trkpt>
      <trkpt lat="37.7529005706310272216796875" lon="-107.714919336140155792236328125">
        <ele>3547.60009765625</ele>
        <time>2023-07-29T13:35:04.000Z</time>
        <extensions>
          <ns3:TrackPointExtension>
            <ns3:hr>108</ns3:hr>
            <ns3:cad>47</ns3:cad>
          </ns3:TrackPointExtension>
        </extensions>
      </trkpt>
      <trkpt lat="37.75291456840932369232177734375" lon="-107.714902572333812713623046875">
        <ele>3547.60009765625</ele>
        <time>2023-07-29T13:35:05.000Z</time>
        <extensions>
          <ns3:TrackPointExtension>
            <ns3:hr>108</ns3:hr>
            <ns3:cad>47</ns3:cad>
          </ns3:TrackPointExtension>
        </extensions>
      </trkpt>
      <trkpt lat="37.7529235370457172393798828125" lon="-107.7148970402777194976806640625">
        <ele>3547.800048828125</ele>
        <time>2023-07-29T13:35:06.000Z</time>
        <extensions>
          <ns3:TrackPointExtension>
            <ns3:hr>108</ns3:hr>
            <ns3:cad>47</ns3:cad>
          </ns3:TrackPointExtension>
        </extensions>
      </trkpt>
      <trkpt lat="37.75293351151049137115478515625" lon="-107.7148863114416599273681640625">
        <ele>3548</ele>
        <time>2023-07-29T13:35:07.000Z</time>
        <extensions>
          <ns3:TrackPointExtension>
            <ns3:hr>108</ns3:hr>
            <ns3:cad>47</ns3:cad>
          </ns3:TrackPointExtension>
        </extensions>
      </trkpt>
      <trkpt lat="37.75293870829045772552490234375" lon="-107.71488203667104244232177734375">
        <ele>3548</ele>
        <time>2023-07-29T13:35:08.000Z</time>
        <extensions>
          <ns3:TrackPointExtension>
            <ns3:hr>108</ns3:hr>
            <ns3:cad>47</ns3:cad>
          </ns3:TrackPointExtension>
        </extensions>
      </trkpt>
      <trkpt lat="37.75294742546975612640380859375" lon="-107.714878432452678680419921875">
        <ele>3548</ele>
        <time>2023-07-29T13:35:09.000Z</time>
        <extensions>
          <ns3:TrackPointExtension>
            <ns3:hr>108</ns3:hr>
            <ns3:cad>0</ns3:cad>
          </ns3:TrackPointExtension>
        </extensions>
      </trkpt>
      <trkpt lat="37.75295555591583251953125" lon="-107.71487139165401458740234375">
        <ele>3548.199951171875</ele>
        <time>2023-07-29T13:35:10.000Z</time>
        <extensions>
          <ns3:TrackPointExtension>
            <ns3:hr>108</ns3:hr>
            <ns3:cad>0</ns3:cad>
          </ns3:TrackPointExtension>
        </extensions>
      </trkpt>
      <trkpt lat="37.752960585057735443115234375" lon="-107.7148698829114437103271484375">
        <ele>3548.199951171875</ele>
        <time>2023-07-29T13:35:11.000Z</time>
        <extensions>
          <ns3:TrackPointExtension>
            <ns3:hr>108</ns3:hr>
            <ns3:cad>0</ns3:cad>
          </ns3:TrackPointExtension>
        </extensions>
      </trkpt>
      <trkpt lat="37.75296720676124095916748046875" lon="-107.714869044721126556396484375">
        <ele>3548.199951171875</ele>
        <time>2023-07-29T13:35:12.000Z</time>
        <extensions>
          <ns3:TrackPointExtension>
            <ns3:hr>108</ns3:hr>
            <ns3:cad>0</ns3:cad>
          </ns3:TrackPointExtension>
        </extensions>
      </trkpt>
      <trkpt lat="37.75297039188444614410400390625" lon="-107.71486661396920680999755859375">
        <ele>3548.39990234375</ele>
        <time>2023-07-29T13:35:13.000Z</time>
        <extensions>
          <ns3:TrackPointExtension>
            <ns3:hr>108</ns3:hr>
            <ns3:cad>0</ns3:cad>
          </ns3:TrackPointExtension>
        </extensions>
      </trkpt>
      <trkpt lat="37.7529823780059814453125" lon="-107.7148618362843990325927734375">
        <ele>3548.39990234375</ele>
        <time>2023-07-29T13:35:14.000Z</time>
        <extensions>
          <ns3:TrackPointExtension>
            <ns3:hr>108</ns3:hr>
            <ns3:cad>0</ns3:cad>
          </ns3:TrackPointExtension>
        </extensions>
      </trkpt>
      <trkpt lat="37.7529932744801044464111328125" lon="-107.7148532867431640625">
        <ele>3548.39990234375</ele>
        <time>2023-07-29T13:35:15.000Z</time>
        <extensions>
          <ns3:TrackPointExtension>
            <ns3:hr>108</ns3:hr>
            <ns3:cad>0</ns3:cad>
          </ns3:TrackPointExtension>
        </extensions>
      </trkpt>
      <trkpt lat="37.7530013211071491241455078125" lon="-107.7148454077541828155517578125">
        <ele>3548.39990234375</ele>
        <time>2023-07-29T13:35:16.000Z</time>
        <extensions>
          <ns3:TrackPointExtension>
            <ns3:hr>108</ns3:hr>
            <ns3:cad>0</ns3:cad>
          </ns3:TrackPointExtension>
        </extensions>
      </trkpt>
      <trkpt lat="37.7530110441148281097412109375" lon="-107.7148336730897426605224609375">
        <ele>3548.39990234375</ele>
        <time>2023-07-29T13:35:17.000Z</time>
        <extensions>
          <ns3:TrackPointExtension>
            <ns3:hr>107</ns3:hr>
            <ns3:cad>0</ns3:cad>
          </ns3:TrackPointExtension>
        </extensions>
      </trkpt>
      <trkpt lat="37.7530167438089847564697265625" lon="-107.7148251235485076904296875">
        <ele>3548.60009765625</ele>
        <time>2023-07-29T13:35:18.000Z</time>
        <extensions>
          <ns3:TrackPointExtension>
            <ns3:hr>107</ns3:hr>
            <ns3:cad>47</ns3:cad>
          </ns3:TrackPointExtension>
        </extensions>
      </trkpt>
      <trkpt lat="37.75302596390247344970703125" lon="-107.7148148976266384124755859375">
        <ele>3548.60009765625</ele>
        <time>2023-07-29T13:35:19.000Z</time>
        <extensions>
          <ns3:TrackPointExtension>
            <ns3:hr>107</ns3:hr>
            <ns3:cad>47</ns3:cad>
          </ns3:TrackPointExtension>
        </extensions>
      </trkpt>
      <trkpt lat="37.75303996168076992034912109375" lon="-107.71480274386703968048095703125">
        <ele>3548.60009765625</ele>
        <time>2023-07-29T13:35:20.000Z</time>
        <extensions>
          <ns3:TrackPointExtension>
            <ns3:hr>107</ns3:hr>
            <ns3:cad>47</ns3:cad>
          </ns3:TrackPointExtension>
        </extensions>
      </trkpt>
      <trkpt lat="37.7530556358397006988525390625" lon="-107.71478824317455291748046875">
        <ele>3548.800048828125</ele>
        <time>2023-07-29T13:35:21.000Z</time>
        <extensions>
          <ns3:TrackPointExtension>
            <ns3:hr>107</ns3:hr>
            <ns3:cad>49</ns3:cad>
          </ns3:TrackPointExtension>
        </extensions>
      </trkpt>
      <trkpt lat="37.7530740760266780853271484375" lon="-107.7147746644914150238037109375">
        <ele>3548.800048828125</ele>
        <time>2023-07-29T13:35:22.000Z</time>
        <extensions>
          <ns3:TrackPointExtension>
            <ns3:hr>107</ns3:hr>
            <ns3:cad>50</ns3:cad>
          </ns3:TrackPointExtension>
        </extensions>
      </trkpt>
      <trkpt lat="37.75308941490948200225830078125" lon="-107.71476435475051403045654296875">
        <ele>3548.800048828125</ele>
        <time>2023-07-29T13:35:23.000Z</time>
        <extensions>
          <ns3:TrackPointExtension>
            <ns3:hr>106</ns3:hr>
            <ns3:cad>50</ns3:cad>
          </ns3:TrackPointExtension>
        </extensions>
      </trkpt>
      <trkpt lat="37.7531072683632373809814453125" lon="-107.71475127898156642913818359375">
        <ele>3549</ele>
        <time>2023-07-29T13:35:24.000Z</time>
        <extensions>
          <ns3:TrackPointExtension>
            <ns3:hr>106</ns3:hr>
            <ns3:cad>50</ns3:cad>
          </ns3:TrackPointExtension>
        </extensions>
      </trkpt>
      <trkpt lat="37.7531193383038043975830078125" lon="-107.71474390290677547454833984375">
        <ele>3549</ele>
        <time>2023-07-29T13:35:25.000Z</time>
        <extensions>
          <ns3:TrackPointExtension>
            <ns3:hr>106</ns3:hr>
            <ns3:cad>50</ns3:cad>
          </ns3:TrackPointExtension>
        </extensions>
      </trkpt>
      <trkpt lat="37.75313165970146656036376953125" lon="-107.714736275374889373779296875">
        <ele>3549.199951171875</ele>
        <time>2023-07-29T13:35:26.000Z</time>
        <extensions>
          <ns3:TrackPointExtension>
            <ns3:hr>105</ns3:hr>
            <ns3:cad>50</ns3:cad>
          </ns3:TrackPointExtension>
        </extensions>
      </trkpt>
      <trkpt lat="37.75314263999462127685546875" lon="-107.71472789347171783447265625">
        <ele>3549.199951171875</ele>
        <time>2023-07-29T13:35:27.000Z</time>
        <extensions>
          <ns3:TrackPointExtension>
            <ns3:hr>105</ns3:hr>
            <ns3:cad>50</ns3:cad>
          </ns3:TrackPointExtension>
        </extensions>
      </trkpt>
      <trkpt lat="37.7531473338603973388671875" lon="-107.71472454071044921875">
        <ele>3549.39990234375</ele>
        <time>2023-07-29T13:35:28.000Z</time>
        <extensions>
          <ns3:TrackPointExtension>
            <ns3:hr>105</ns3:hr>
            <ns3:cad>48</ns3:cad>
          </ns3:TrackPointExtension>
        </extensions>
      </trkpt>
      <trkpt lat="37.7531568892300128936767578125" lon="-107.7147163264453411102294921875">
        <ele>3549.60009765625</ele>
        <time>2023-07-29T13:35:29.000Z</time>
        <extensions>
          <ns3:TrackPointExtension>
            <ns3:hr>105</ns3:hr>
            <ns3:cad>46</ns3:cad>
          </ns3:TrackPointExtension>
        </extensions>
      </trkpt>
      <trkpt lat="37.75316552259027957916259765625" lon="-107.71470786072313785552978515625">
        <ele>3549.60009765625</ele>
        <time>2023-07-29T13:35:30.000Z</time>
        <extensions>
          <ns3:TrackPointExtension>
            <ns3:hr>105</ns3:hr>
            <ns3:cad>46</ns3:cad>
          </ns3:TrackPointExtension>
        </extensions>
      </trkpt>
      <trkpt lat="37.7531820349395275115966796875" lon="-107.71469327621161937713623046875">
        <ele>3549.60009765625</ele>
        <time>2023-07-29T13:35:31.000Z</time>
        <extensions>
          <ns3:TrackPointExtension>
            <ns3:hr>105</ns3:hr>
            <ns3:cad>53</ns3:cad>
          </ns3:TrackPointExtension>
        </extensions>
      </trkpt>
      <trkpt lat="37.75318555533885955810546875" lon="-107.71468522958457469940185546875">
        <ele>3549.800048828125</ele>
        <time>2023-07-29T13:35:32.000Z</time>
        <extensions>
          <ns3:TrackPointExtension>
            <ns3:hr>105</ns3:hr>
            <ns3:cad>53</ns3:cad>
          </ns3:TrackPointExtension>
        </extensions>
      </trkpt>
      <trkpt lat="37.7531937696039676666259765625" lon="-107.71467424929141998291015625">
        <ele>3549.800048828125</ele>
        <time>2023-07-29T13:35:33.000Z</time>
        <extensions>
          <ns3:TrackPointExtension>
            <ns3:hr>105</ns3:hr>
            <ns3:cad>0</ns3:cad>
          </ns3:TrackPointExtension>
        </extensions>
      </trkpt>
      <trkpt lat="37.75319670327007770538330078125" lon="-107.714669220149517059326171875">
        <ele>3549.800048828125</ele>
        <time>2023-07-29T13:35:34.000Z</time>
        <extensions>
          <ns3:TrackPointExtension>
            <ns3:hr>105</ns3:hr>
            <ns3:cad>0</ns3:cad>
          </ns3:TrackPointExtension>
        </extensions>
      </trkpt>
      <trkpt lat="37.7532009780406951904296875" lon="-107.71466528065502643585205078125">
        <ele>3550</ele>
        <time>2023-07-29T13:35:35.000Z</time>
        <extensions>
          <ns3:TrackPointExtension>
            <ns3:hr>105</ns3:hr>
            <ns3:cad>50</ns3:cad>
          </ns3:TrackPointExtension>
        </extensions>
      </trkpt>
      <trkpt lat="37.75320525281131267547607421875" lon="-107.714663185179233551025390625">
        <ele>3550</ele>
        <time>2023-07-29T13:35:36.000Z</time>
        <extensions>
          <ns3:TrackPointExtension>
            <ns3:hr>106</ns3:hr>
            <ns3:cad>50</ns3:cad>
          </ns3:TrackPointExtension>
        </extensions>
      </trkpt>
      <trkpt lat="37.75321237742900848388671875" lon="-107.714657485485076904296875">
        <ele>3550.199951171875</ele>
        <time>2023-07-29T13:35:37.000Z</time>
        <extensions>
          <ns3:TrackPointExtension>
            <ns3:hr>106</ns3:hr>
            <ns3:cad>50</ns3:cad>
          </ns3:TrackPointExtension>
        </extensions>
      </trkpt>
      <trkpt lat="37.7532232739031314849853515625" lon="-107.71464583463966846466064453125">
        <ele>3550.199951171875</ele>
        <time>2023-07-29T13:35:38.000Z</time>
        <extensions>
          <ns3:TrackPointExtension>
            <ns3:hr>106</ns3:hr>
            <ns3:cad>50</ns3:cad>
          </ns3:TrackPointExtension>
        </extensions>
      </trkpt>
      <trkpt lat="37.75322855450212955474853515625" lon="-107.7146405540406703948974609375">
        <ele>3550.199951171875</ele>
        <time>2023-07-29T13:35:39.000Z</time>
        <extensions>
          <ns3:TrackPointExtension>
            <ns3:hr>107</ns3:hr>
            <ns3:cad>0</ns3:cad>
          </ns3:TrackPointExtension>
        </extensions>
      </trkpt>
      <trkpt lat="37.7532323263585567474365234375" lon="-107.7146351896226406097412109375">
        <ele>3550.39990234375</ele>
        <time>2023-07-29T13:35:40.000Z</time>
        <extensions>
          <ns3:TrackPointExtension>
            <ns3:hr>107</ns3:hr>
            <ns3:cad>0</ns3:cad>
          </ns3:TrackPointExtension>
        </extensions>
      </trkpt>
      <trkpt lat="37.753238193690776824951171875" lon="-107.7146304957568645477294921875">
        <ele>3550.39990234375</ele>
        <time>2023-07-29T13:35:41.000Z</time>
        <extensions>
          <ns3:TrackPointExtension>
            <ns3:hr>107</ns3:hr>
            <ns3:cad>0</ns3:cad>
          </ns3:TrackPointExtension>
        </extensions>
      </trkpt>
      <trkpt lat="37.7532464079558849334716796875" lon="-107.7146204374730587005615234375">
        <ele>3550.39990234375</ele>
        <time>2023-07-29T13:35:42.000Z</time>
        <extensions>
          <ns3:TrackPointExtension>
            <ns3:hr>108</ns3:hr>
            <ns3:cad>0</ns3:cad>
          </ns3:TrackPointExtension>
        </extensions>
      </trkpt>
      <trkpt lat="37.75325487367808818817138671875" lon="-107.71461046300828456878662109375">
        <ele>3550.39990234375</ele>
        <time>2023-07-29T13:35:43.000Z</time>
        <extensions>
          <ns3:TrackPointExtension>
            <ns3:hr>108</ns3:hr>
            <ns3:cad>0</ns3:cad>
          </ns3:TrackPointExtension>
        </extensions>
      </trkpt>
      <trkpt lat="37.7532635070383548736572265625" lon="-107.71459956653416156768798828125">
        <ele>3550.39990234375</ele>
        <time>2023-07-29T13:35:44.000Z</time>
        <extensions>
          <ns3:TrackPointExtension>
            <ns3:hr>108</ns3:hr>
            <ns3:cad>0</ns3:cad>
          </ns3:TrackPointExtension>
        </extensions>
      </trkpt>
      <trkpt lat="37.7532698772847652435302734375" lon="-107.7145926095545291900634765625">
        <ele>3550.39990234375</ele>
        <time>2023-07-29T13:35:45.000Z</time>
        <extensions>
          <ns3:TrackPointExtension>
            <ns3:hr>108</ns3:hr>
            <ns3:cad>0</ns3:cad>
          </ns3:TrackPointExtension>
        </extensions>
      </trkpt>
      <trkpt lat="37.75328236632049083709716796875" lon="-107.71458037197589874267578125">
        <ele>3550.60009765625</ele>
        <time>2023-07-29T13:35:46.000Z</time>
        <extensions>
          <ns3:TrackPointExtension>
            <ns3:hr>108</ns3:hr>
            <ns3:cad>0</ns3:cad>
          </ns3:TrackPointExtension>
        </extensions>
      </trkpt>
      <trkpt lat="37.75328991003334522247314453125" lon="-107.714578025043010711669921875">
        <ele>3550.60009765625</ele>
        <time>2023-07-29T13:35:47.000Z</time>
        <extensions>
          <ns3:TrackPointExtension>
            <ns3:hr>108</ns3:hr>
            <ns3:cad>0</ns3:cad>
          </ns3:TrackPointExtension>
        </extensions>
      </trkpt>
      <trkpt lat="37.75329812429845333099365234375" lon="-107.71457173861563205718994140625">
        <ele>3550.60009765625</ele>
        <time>2023-07-29T13:35:48.000Z</time>
        <extensions>
          <ns3:TrackPointExtension>
            <ns3:hr>108</ns3:hr>
            <ns3:cad>0</ns3:cad>
          </ns3:TrackPointExtension>
        </extensions>
      </trkpt>
      <trkpt lat="37.753306925296783447265625" lon="-107.7145627699792385101318359375">
        <ele>3550.60009765625</ele>
        <time>2023-07-29T13:35:49.000Z</time>
        <extensions>
          <ns3:TrackPointExtension>
            <ns3:hr>108</ns3:hr>
            <ns3:cad>52</ns3:cad>
          </ns3:TrackPointExtension>
        </extensions>
      </trkpt>
      <trkpt lat="37.75331656448543071746826171875" lon="-107.7145513705909252166748046875">
        <ele>3550.60009765625</ele>
        <time>2023-07-29T13:35:50.000Z</time>
        <extensions>
          <ns3:TrackPointExtension>
            <ns3:hr>107</ns3:hr>
            <ns3:cad>52</ns3:cad>
          </ns3:TrackPointExtension>
        </extensions>
      </trkpt>
      <trkpt lat="37.75332310236990451812744140625" lon="-107.7145426534116268157958984375">
        <ele>3550.60009765625</ele>
        <time>2023-07-29T13:35:51.000Z</time>
        <extensions>
          <ns3:TrackPointExtension>
            <ns3:hr>107</ns3:hr>
            <ns3:cad>52</ns3:cad>
          </ns3:TrackPointExtension>
        </extensions>
      </trkpt>
      <trkpt lat="37.753328718245029449462890625" lon="-107.71453586407005786895751953125">
        <ele>3550.800048828125</ele>
        <time>2023-07-29T13:35:52.000Z</time>
        <extensions>
          <ns3:TrackPointExtension>
            <ns3:hr>107</ns3:hr>
            <ns3:cad>52</ns3:cad>
          </ns3:TrackPointExtension>
        </extensions>
      </trkpt>
      <trkpt lat="37.7533406205475330352783203125" lon="-107.71452211774885654449462890625">
        <ele>3550.800048828125</ele>
        <time>2023-07-29T13:35:53.000Z</time>
        <extensions>
          <ns3:TrackPointExtension>
            <ns3:hr>107</ns3:hr>
            <ns3:cad>0</ns3:cad>
          </ns3:TrackPointExtension>
        </extensions>
      </trkpt>
      <trkpt lat="37.75334841571748256683349609375" lon="-107.7145121432840824127197265625">
        <ele>3550.800048828125</ele>
        <time>2023-07-29T13:35:54.000Z</time>
        <extensions>
          <ns3:TrackPointExtension>
            <ns3:hr>107</ns3:hr>
            <ns3:cad>0</ns3:cad>
          </ns3:TrackPointExtension>
        </extensions>
      </trkpt>
      <trkpt lat="37.75335059501230716705322265625" lon="-107.71451055072247982025146484375">
        <ele>3550.800048828125</ele>
        <time>2023-07-29T13:35:55.000Z</time>
        <extensions>
          <ns3:TrackPointExtension>
            <ns3:hr>106</ns3:hr>
            <ns3:cad>0</ns3:cad>
          </ns3:TrackPointExtension>
        </extensions>
      </trkpt>
      <trkpt lat="37.7533604018390178680419921875" lon="-107.71449797786772251129150390625">
        <ele>3550.800048828125</ele>
        <time>2023-07-29T13:35:56.000Z</time>
        <extensions>
          <ns3:TrackPointExtension>
            <ns3:hr>106</ns3:hr>
            <ns3:cad>0</ns3:cad>
          </ns3:TrackPointExtension>
        </extensions>
      </trkpt>
      <trkpt lat="37.75337087921798229217529296875" lon="-107.71448708139359951019287109375">
        <ele>3550.800048828125</ele>
        <time>2023-07-29T13:35:57.000Z</time>
        <extensions>
          <ns3:TrackPointExtension>
            <ns3:hr>106</ns3:hr>
            <ns3:cad>0</ns3:cad>
          </ns3:TrackPointExtension>
        </extensions>
      </trkpt>
      <trkpt lat="37.75338160805404186248779296875" lon="-107.71447601728141307830810546875">
        <ele>3551</ele>
        <time>2023-07-29T13:35:58.000Z</time>
        <extensions>
          <ns3:TrackPointExtension>
            <ns3:hr>106</ns3:hr>
            <ns3:cad>0</ns3:cad>
          </ns3:TrackPointExtension>
        </extensions>
      </trkpt>
      <trkpt lat="37.75339568965137004852294921875" lon="-107.7144608460366725921630859375">
        <ele>3551</ele>
        <time>2023-07-29T13:35:59.000Z</time>
        <extensions>
          <ns3:TrackPointExtension>
            <ns3:hr>105</ns3:hr>
            <ns3:cad>0</ns3:cad>
          </ns3:TrackPointExtension>
        </extensions>
      </trkpt>
      <trkpt lat="37.753406502306461334228515625" lon="-107.71444751881062984466552734375">
        <ele>3551</ele>
        <time>2023-07-29T13:36:00.000Z</time>
        <extensions>
          <ns3:TrackPointExtension>
            <ns3:hr>105</ns3:hr>
            <ns3:cad>0</ns3:cad>
          </ns3:TrackPointExtension>
        </extensions>
      </trkpt>
      <trkpt lat="37.7534190751612186431884765625" lon="-107.71443293429911136627197265625">
        <ele>3551.199951171875</ele>
        <time>2023-07-29T13:36:01.000Z</time>
        <extensions>
          <ns3:TrackPointExtension>
            <ns3:hr>105</ns3:hr>
            <ns3:cad>0</ns3:cad>
          </ns3:TrackPointExtension>
        </extensions>
      </trkpt>
      <trkpt lat="37.7534287981688976287841796875" lon="-107.71442388184368610382080078125">
        <ele>3551.199951171875</ele>
        <time>2023-07-29T13:36:02.000Z</time>
        <extensions>
          <ns3:TrackPointExtension>
            <ns3:hr>105</ns3:hr>
            <ns3:cad>0</ns3:cad>
          </ns3:TrackPointExtension>
        </extensions>
      </trkpt>
      <trkpt lat="37.753439359366893768310546875" lon="-107.71441114135086536407470703125">
        <ele>3551.199951171875</ele>
        <time>2023-07-29T13:36:03.000Z</time>
        <extensions>
          <ns3:TrackPointExtension>
            <ns3:hr>104</ns3:hr>
            <ns3:cad>0</ns3:cad>
          </ns3:TrackPointExtension>
        </extensions>
      </trkpt>
      <trkpt lat="37.75344631634652614593505859375" lon="-107.7143971435725688934326171875">
        <ele>3551.39990234375</ele>
        <time>2023-07-29T13:36:04.000Z</time>
        <extensions>
          <ns3:TrackPointExtension>
            <ns3:hr>104</ns3:hr>
            <ns3:cad>0</ns3:cad>
          </ns3:TrackPointExtension>
        </extensions>
      </trkpt>
      <trkpt lat="37.75344899855554103851318359375" lon="-107.71438851021230220794677734375">
        <ele>3551.60009765625</ele>
        <time>2023-07-29T13:36:05.000Z</time>
        <extensions>
          <ns3:TrackPointExtension>
            <ns3:hr>104</ns3:hr>
            <ns3:cad>0</ns3:cad>
          </ns3:TrackPointExtension>
        </extensions>
      </trkpt>
      <trkpt lat="37.7534512616693973541259765625" lon="-107.71438146941363811492919921875">
        <ele>3551.60009765625</ele>
        <time>2023-07-29T13:36:06.000Z</time>
        <extensions>
          <ns3:TrackPointExtension>
            <ns3:hr>104</ns3:hr>
            <ns3:cad>0</ns3:cad>
          </ns3:TrackPointExtension>
        </extensions>
      </trkpt>
      <trkpt lat="37.75345520116388797760009765625" lon="-107.7143709920346736907958984375">
        <ele>3551.60009765625</ele>
        <time>2023-07-29T13:36:07.000Z</time>
        <extensions>
          <ns3:TrackPointExtension>
            <ns3:hr>103</ns3:hr>
            <ns3:cad>0</ns3:cad>
          </ns3:TrackPointExtension>
        </extensions>
      </trkpt>
      <trkpt lat="37.753458805382251739501953125" lon="-107.71435900591313838958740234375">
        <ele>3551.800048828125</ele>
        <time>2023-07-29T13:36:08.000Z</time>
        <extensions>
          <ns3:TrackPointExtension>
            <ns3:hr>103</ns3:hr>
            <ns3:cad>0</ns3:cad>
          </ns3:TrackPointExtension>
        </extensions>
      </trkpt>
      <trkpt lat="37.7534603141248226165771484375" lon="-107.7143515460193157196044921875">
        <ele>3551.800048828125</ele>
        <time>2023-07-29T13:36:09.000Z</time>
        <extensions>
          <ns3:TrackPointExtension>
            <ns3:hr>103</ns3:hr>
            <ns3:cad>0</ns3:cad>
          </ns3:TrackPointExtension>
        </extensions>
      </trkpt>
      <trkpt lat="37.75346542708575725555419921875" lon="-107.71434006281197071075439453125">
        <ele>3552</ele>
        <time>2023-07-29T13:36:10.000Z</time>
        <extensions>
          <ns3:TrackPointExtension>
            <ns3:hr>103</ns3:hr>
            <ns3:cad>0</ns3:cad>
          </ns3:TrackPointExtension>
        </extensions>
      </trkpt>
      <trkpt lat="37.7534680254757404327392578125" lon="-107.71433251909911632537841796875">
        <ele>3552.199951171875</ele>
        <time>2023-07-29T13:36:11.000Z</time>
        <extensions>
          <ns3:TrackPointExtension>
            <ns3:hr>103</ns3:hr>
            <ns3:cad>0</ns3:cad>
          </ns3:TrackPointExtension>
        </extensions>
      </trkpt>
      <trkpt lat="37.75347766466438770294189453125" lon="-107.71431692875921726226806640625">
        <ele>3552.199951171875</ele>
        <time>2023-07-29T13:36:12.000Z</time>
        <extensions>
          <ns3:TrackPointExtension>
            <ns3:hr>103</ns3:hr>
            <ns3:cad>49</ns3:cad>
          </ns3:TrackPointExtension>
        </extensions>
      </trkpt>
      <trkpt lat="37.7534844540059566497802734375" lon="-107.71430276334285736083984375">
        <ele>3552.199951171875</ele>
        <time>2023-07-29T13:36:13.000Z</time>
        <extensions>
          <ns3:TrackPointExtension>
            <ns3:hr>103</ns3:hr>
            <ns3:cad>49</ns3:cad>
          </ns3:TrackPointExtension>
        </extensions>
      </trkpt>
      <trkpt lat="37.7534888125956058502197265625" lon="-107.714293710887432098388671875">
        <ele>3552.39990234375</ele>
        <time>2023-07-29T13:36:14.000Z</time>
        <extensions>
          <ns3:TrackPointExtension>
            <ns3:hr>103</ns3:hr>
            <ns3:cad>49</ns3:cad>
          </ns3:TrackPointExtension>
        </extensions>
      </trkpt>
      <trkpt lat="37.7534955181181430816650390625" lon="-107.7142838202416896820068359375">
        <ele>3552.39990234375</ele>
        <time>2023-07-29T13:36:15.000Z</time>
        <extensions>
          <ns3:TrackPointExtension>
            <ns3:hr>104</ns3:hr>
            <ns3:cad>49</ns3:cad>
          </ns3:TrackPointExtension>
        </extensions>
      </trkpt>
      <trkpt lat="37.753497026860713958740234375" lon="-107.71427552215754985809326171875">
        <ele>3552.60009765625</ele>
        <time>2023-07-29T13:36:16.000Z</time>
        <extensions>
          <ns3:TrackPointExtension>
            <ns3:hr>104</ns3:hr>
            <ns3:cad>77</ns3:cad>
          </ns3:TrackPointExtension>
        </extensions>
      </trkpt>
      <trkpt lat="37.75350364856421947479248046875" lon="-107.71426211111247539520263671875">
        <ele>3552.800048828125</ele>
        <time>2023-07-29T13:36:17.000Z</time>
        <extensions>
          <ns3:TrackPointExtension>
            <ns3:hr>104</ns3:hr>
            <ns3:cad>77</ns3:cad>
          </ns3:TrackPointExtension>
        </extensions>
      </trkpt>
      <trkpt lat="37.753507755696773529052734375" lon="-107.7142499573528766632080078125">
        <ele>3552.800048828125</ele>
        <time>2023-07-29T13:36:18.000Z</time>
        <extensions>
          <ns3:TrackPointExtension>
            <ns3:hr>104</ns3:hr>
            <ns3:cad>0</ns3:cad>
          </ns3:TrackPointExtension>
        </extensions>
      </trkpt>
      <trkpt lat="37.75350951589643955230712890625" lon="-107.714244425296783447265625">
        <ele>3553</ele>
        <time>2023-07-29T13:36:19.000Z</time>
        <extensions>
          <ns3:TrackPointExtension>
            <ns3:hr>104</ns3:hr>
            <ns3:cad>0</ns3:cad>
          </ns3:TrackPointExtension>
        </extensions>
      </trkpt>
      <trkpt lat="37.75351370684802532196044921875" lon="-107.714234702289104461669921875">
        <ele>3553.199951171875</ele>
        <time>2023-07-29T13:36:20.000Z</time>
        <extensions>
          <ns3:TrackPointExtension>
            <ns3:hr>104</ns3:hr>
            <ns3:cad>0</ns3:cad>
          </ns3:TrackPointExtension>
        </extensions>
      </trkpt>
      <trkpt lat="37.75352007709443569183349609375" lon="-107.7142243087291717529296875">
        <ele>3553.39990234375</ele>
        <time>2023-07-29T13:36:21.000Z</time>
        <extensions>
          <ns3:TrackPointExtension>
            <ns3:hr>104</ns3:hr>
            <ns3:cad>0</ns3:cad>
          </ns3:TrackPointExtension>
        </extensions>
      </trkpt>
      <trkpt lat="37.753527201712131500244140625" lon="-107.7142160944640636444091796875">
        <ele>3553.60009765625</ele>
        <time>2023-07-29T13:36:22.000Z</time>
        <extensions>
          <ns3:TrackPointExtension>
            <ns3:hr>104</ns3:hr>
            <ns3:cad>0</ns3:cad>
          </ns3:TrackPointExtension>
        </extensions>
      </trkpt>
      <trkpt lat="37.75353700853884220123291015625" lon="-107.71420628763735294342041015625">
        <ele>3553.800048828125</ele>
        <time>2023-07-29T13:36:23.000Z</time>
        <extensions>
          <ns3:TrackPointExtension>
            <ns3:hr>104</ns3:hr>
            <ns3:cad>0</ns3:cad>
          </ns3:TrackPointExtension>
        </extensions>
      </trkpt>
      <trkpt lat="37.75354237295687198638916015625" lon="-107.71420209668576717376708984375">
        <ele>3554</ele>
        <time>2023-07-29T13:36:24.000Z</time>
        <extensions>
          <ns3:TrackPointExtension>
            <ns3:hr>104</ns3:hr>
            <ns3:cad>48</ns3:cad>
          </ns3:TrackPointExtension>
        </extensions>
      </trkpt>
      <trkpt lat="37.753548324108123779296875" lon="-107.7141953073441982269287109375">
        <ele>3554</ele>
        <time>2023-07-29T13:36:25.000Z</time>
        <extensions>
          <ns3:TrackPointExtension>
            <ns3:hr>104</ns3:hr>
            <ns3:cad>48</ns3:cad>
          </ns3:TrackPointExtension>
        </extensions>
      </trkpt>
      <trkpt lat="37.7535578794777393341064453125" lon="-107.71418952383100986480712890625">
        <ele>3554</ele>
        <time>2023-07-29T13:36:26.000Z</time>
        <extensions>
          <ns3:TrackPointExtension>
            <ns3:hr>104</ns3:hr>
            <ns3:cad>48</ns3:cad>
          </ns3:TrackPointExtension>
        </extensions>
      </trkpt>
      <trkpt lat="37.7535652555525302886962890625" lon="-107.71418466232717037200927734375">
        <ele>3554.199951171875</ele>
        <time>2023-07-29T13:36:27.000Z</time>
        <extensions>
          <ns3:TrackPointExtension>
            <ns3:hr>105</ns3:hr>
            <ns3:cad>48</ns3:cad>
          </ns3:TrackPointExtension>
        </extensions>
      </trkpt>
      <trkpt lat="37.75357858277857303619384765625" lon="-107.71417544223368167877197265625">
        <ele>3554.199951171875</ele>
        <time>2023-07-29T13:36:28.000Z</time>
        <extensions>
          <ns3:TrackPointExtension>
            <ns3:hr>105</ns3:hr>
            <ns3:cad>0</ns3:cad>
          </ns3:TrackPointExtension>
        </extensions>
      </trkpt>
      <trkpt lat="37.7535924129188060760498046875" lon="-107.71416773088276386260986328125">
        <ele>3554.39990234375</ele>
        <time>2023-07-29T13:36:29.000Z</time>
        <extensions>
          <ns3:TrackPointExtension>
            <ns3:hr>105</ns3:hr>
            <ns3:cad>0</ns3:cad>
          </ns3:TrackPointExtension>
        </extensions>
      </trkpt>
      <trkpt lat="37.75359903462231159210205078125" lon="-107.71416504867374897003173828125">
        <ele>3554.60009765625</ele>
        <time>2023-07-29T13:36:30.000Z</time>
        <extensions>
          <ns3:TrackPointExtension>
            <ns3:hr>105</ns3:hr>
            <ns3:cad>0</ns3:cad>
          </ns3:TrackPointExtension>
        </extensions>
      </trkpt>
      <trkpt lat="37.753607332706451416015625" lon="-107.7141597680747509002685546875">
        <ele>3554.60009765625</ele>
        <time>2023-07-29T13:36:31.000Z</time>
        <extensions>
          <ns3:TrackPointExtension>
            <ns3:hr>105</ns3:hr>
            <ns3:cad>0</ns3:cad>
          </ns3:TrackPointExtension>
        </extensions>
      </trkpt>
      <trkpt lat="37.7536185644567012786865234375" lon="-107.71415063180029392242431640625">
        <ele>3554.800048828125</ele>
        <time>2023-07-29T13:36:32.000Z</time>
        <extensions>
          <ns3:TrackPointExtension>
            <ns3:hr>106</ns3:hr>
            <ns3:cad>0</ns3:cad>
          </ns3:TrackPointExtension>
        </extensions>
      </trkpt>
      <trkpt lat="37.75362619198858737945556640625" lon="-107.71414191462099552154541015625">
        <ele>3554.800048828125</ele>
        <time>2023-07-29T13:36:33.000Z</time>
        <extensions>
          <ns3:TrackPointExtension>
            <ns3:hr>106</ns3:hr>
            <ns3:cad>0</ns3:cad>
          </ns3:TrackPointExtension>
        </extensions>
      </trkpt>
      <trkpt lat="37.75363574735820293426513671875" lon="-107.71413302980363368988037109375">
        <ele>3555</ele>
        <time>2023-07-29T13:36:34.000Z</time>
        <extensions>
          <ns3:TrackPointExtension>
            <ns3:hr>107</ns3:hr>
            <ns3:cad>0</ns3:cad>
          </ns3:TrackPointExtension>
        </extensions>
      </trkpt>
      <trkpt lat="37.75363943539559841156005859375" lon="-107.71412883885204792022705078125">
        <ele>3555.199951171875</ele>
        <time>2023-07-29T13:36:35.000Z</time>
        <extensions>
          <ns3:TrackPointExtension>
            <ns3:hr>107</ns3:hr>
            <ns3:cad>0</ns3:cad>
          </ns3:TrackPointExtension>
        </extensions>
      </trkpt>
      <trkpt lat="37.753652594983577728271484375" lon="-107.7141188643872737884521484375">
        <ele>3555.39990234375</ele>
        <time>2023-07-29T13:36:36.000Z</time>
        <extensions>
          <ns3:TrackPointExtension>
            <ns3:hr>107</ns3:hr>
            <ns3:cad>0</ns3:cad>
          </ns3:TrackPointExtension>
        </extensions>
      </trkpt>
      <trkpt lat="37.7536638267338275909423828125" lon="-107.7141064591705799102783203125">
        <ele>3555.39990234375</ele>
        <time>2023-07-29T13:36:37.000Z</time>
        <extensions>
          <ns3:TrackPointExtension>
            <ns3:hr>108</ns3:hr>
            <ns3:cad>0</ns3:cad>
          </ns3:TrackPointExtension>
        </extensions>
      </trkpt>
      <trkpt lat="37.75367237627506256103515625" lon="-107.71409891545772552490234375">
        <ele>3555.60009765625</ele>
        <time>2023-07-29T13:36:38.000Z</time>
        <extensions>
          <ns3:TrackPointExtension>
            <ns3:hr>108</ns3:hr>
            <ns3:cad>0</ns3:cad>
          </ns3:TrackPointExtension>
        </extensions>
      </trkpt>
      <trkpt lat="37.75368335656821727752685546875" lon="-107.71409112028777599334716796875">
        <ele>3555.60009765625</ele>
        <time>2023-07-29T13:36:39.000Z</time>
        <extensions>
          <ns3:TrackPointExtension>
            <ns3:hr>108</ns3:hr>
            <ns3:cad>0</ns3:cad>
          </ns3:TrackPointExtension>
        </extensions>
      </trkpt>
      <trkpt lat="37.75369056500494480133056640625" lon="-107.71408910863101482391357421875">
        <ele>3555.60009765625</ele>
        <time>2023-07-29T13:36:40.000Z</time>
        <extensions>
          <ns3:TrackPointExtension>
            <ns3:hr>108</ns3:hr>
            <ns3:cad>0</ns3:cad>
          </ns3:TrackPointExtension>
        </extensions>
      </trkpt>
      <trkpt lat="37.753696851432323455810546875" lon="-107.7140836603939533233642578125">
        <ele>3556</ele>
        <time>2023-07-29T13:36:41.000Z</time>
        <extensions>
          <ns3:TrackPointExtension>
            <ns3:hr>109</ns3:hr>
            <ns3:cad>0</ns3:cad>
          </ns3:TrackPointExtension>
        </extensions>
      </trkpt>
      <trkpt lat="37.75370649062097072601318359375" lon="-107.71407770924270153045654296875">
        <ele>3556</ele>
        <time>2023-07-29T13:36:42.000Z</time>
        <extensions>
          <ns3:TrackPointExtension>
            <ns3:hr>109</ns3:hr>
            <ns3:cad>0</ns3:cad>
          </ns3:TrackPointExtension>
        </extensions>
      </trkpt>
      <trkpt lat="37.75371269322931766510009765625" lon="-107.714073099195957183837890625">
        <ele>3556.199951171875</ele>
        <time>2023-07-29T13:36:43.000Z</time>
        <extensions>
          <ns3:TrackPointExtension>
            <ns3:hr>110</ns3:hr>
            <ns3:cad>0</ns3:cad>
          </ns3:TrackPointExtension>
        </extensions>
      </trkpt>
      <trkpt lat="37.75371671654284000396728515625" lon="-107.714071758091449737548828125">
        <ele>3556.39990234375</ele>
        <time>2023-07-29T13:36:44.000Z</time>
        <extensions>
          <ns3:TrackPointExtension>
            <ns3:hr>110</ns3:hr>
            <ns3:cad>0</ns3:cad>
          </ns3:TrackPointExtension>
        </extensions>
      </trkpt>
      <trkpt lat="37.753720991313457489013671875" lon="-107.71406664513051509857177734375">
        <ele>3556.39990234375</ele>
        <time>2023-07-29T13:36:45.000Z</time>
        <extensions>
          <ns3:TrackPointExtension>
            <ns3:hr>110</ns3:hr>
            <ns3:cad>0</ns3:cad>
          </ns3:TrackPointExtension>
        </extensions>
      </trkpt>
      <trkpt lat="37.753722667694091796875" lon="-107.714065052568912506103515625">
        <ele>3556.60009765625</ele>
        <time>2023-07-29T13:36:46.000Z</time>
        <extensions>
          <ns3:TrackPointExtension>
            <ns3:hr>110</ns3:hr>
            <ns3:cad>0</ns3:cad>
          </ns3:TrackPointExtension>
        </extensions>
      </trkpt>
      <trkpt lat="37.7537271939218044281005859375" lon="-107.71406404674053192138671875">
        <ele>3556.60009765625</ele>
        <time>2023-07-29T13:36:47.000Z</time>
        <extensions>
          <ns3:TrackPointExtension>
            <ns3:hr>111</ns3:hr>
            <ns3:cad>47</ns3:cad>
          </ns3:TrackPointExtension>
        </extensions>
      </trkpt>
      <trkpt lat="37.75373700074851512908935546875" lon="-107.71405591629445552825927734375">
        <ele>3556.800048828125</ele>
        <time>2023-07-29T13:36:48.000Z</time>
        <extensions>
          <ns3:TrackPointExtension>
            <ns3:hr>111</ns3:hr>
            <ns3:cad>48</ns3:cad>
          </ns3:TrackPointExtension>
        </extensions>
      </trkpt>
      <trkpt lat="37.7537446282804012298583984375" lon="-107.7140486240386962890625">
        <ele>3557</ele>
        <time>2023-07-29T13:36:49.000Z</time>
        <extensions>
          <ns3:TrackPointExtension>
            <ns3:hr>111</ns3:hr>
            <ns3:cad>48</ns3:cad>
          </ns3:TrackPointExtension>
        </extensions>
      </trkpt>
      <trkpt lat="37.75375150144100189208984375" lon="-107.7140404097735881805419921875">
        <ele>3557</ele>
        <time>2023-07-29T13:36:50.000Z</time>
        <extensions>
          <ns3:TrackPointExtension>
            <ns3:hr>111</ns3:hr>
            <ns3:cad>47</ns3:cad>
          </ns3:TrackPointExtension>
        </extensions>
      </trkpt>
      <trkpt lat="37.75375694967806339263916015625" lon="-107.71403261460363864898681640625">
        <ele>3557.199951171875</ele>
        <time>2023-07-29T13:36:51.000Z</time>
        <extensions>
          <ns3:TrackPointExtension>
            <ns3:hr>111</ns3:hr>
            <ns3:cad>47</ns3:cad>
          </ns3:TrackPointExtension>
        </extensions>
      </trkpt>
      <trkpt lat="37.7537664212286472320556640625" lon="-107.71402138285338878631591796875">
        <ele>3557.39990234375</ele>
        <time>2023-07-29T13:36:52.000Z</time>
        <extensions>
          <ns3:TrackPointExtension>
            <ns3:hr>111</ns3:hr>
            <ns3:cad>47</ns3:cad>
          </ns3:TrackPointExtension>
        </extensions>
      </trkpt>
      <trkpt lat="37.7537724561989307403564453125" lon="-107.7140105701982975006103515625">
        <ele>3557.39990234375</ele>
        <time>2023-07-29T13:36:53.000Z</time>
        <extensions>
          <ns3:TrackPointExtension>
            <ns3:hr>111</ns3:hr>
            <ns3:cad>47</ns3:cad>
          </ns3:TrackPointExtension>
        </extensions>
      </trkpt>
      <trkpt lat="37.7537744678556919097900390625" lon="-107.71400646306574344635009765625">
        <ele>3557.60009765625</ele>
        <time>2023-07-29T13:36:54.000Z</time>
        <extensions>
          <ns3:TrackPointExtension>
            <ns3:hr>111</ns3:hr>
            <ns3:cad>47</ns3:cad>
          </ns3:TrackPointExtension>
        </extensions>
      </trkpt>
      <trkpt lat="37.75377857498824596405029296875" lon="-107.71400235593318939208984375">
        <ele>3557.60009765625</ele>
        <time>2023-07-29T13:36:55.000Z</time>
        <extensions>
          <ns3:TrackPointExtension>
            <ns3:hr>111</ns3:hr>
            <ns3:cad>47</ns3:cad>
          </ns3:TrackPointExtension>
        </extensions>
      </trkpt>
      <trkpt lat="37.75378393940627574920654296875" lon="-107.71399875171482563018798828125">
        <ele>3557.800048828125</ele>
        <time>2023-07-29T13:36:56.000Z</time>
        <extensions>
          <ns3:TrackPointExtension>
            <ns3:hr>110</ns3:hr>
            <ns3:cad>47</ns3:cad>
          </ns3:TrackPointExtension>
        </extensions>
      </trkpt>
      <trkpt lat="37.75378905236721038818359375" lon="-107.71399657242000102996826171875">
        <ele>3558</ele>
        <time>2023-07-29T13:36:57.000Z</time>
        <extensions>
          <ns3:TrackPointExtension>
            <ns3:hr>110</ns3:hr>
            <ns3:cad>47</ns3:cad>
          </ns3:TrackPointExtension>
        </extensions>
      </trkpt>
      <trkpt lat="37.7537976019084453582763671875" lon="-107.71399087272584438323974609375">
        <ele>3558</ele>
        <time>2023-07-29T13:36:58.000Z</time>
        <extensions>
          <ns3:TrackPointExtension>
            <ns3:hr>110</ns3:hr>
            <ns3:cad>47</ns3:cad>
          </ns3:TrackPointExtension>
        </extensions>
      </trkpt>
      <trkpt lat="37.75380020029842853546142578125" lon="-107.7139909565448760986328125">
        <ele>3558.39990234375</ele>
        <time>2023-07-29T13:36:59.000Z</time>
        <extensions>
          <ns3:TrackPointExtension>
            <ns3:hr>110</ns3:hr>
            <ns3:cad>47</ns3:cad>
          </ns3:TrackPointExtension>
        </extensions>
      </trkpt>
      <trkpt lat="37.7538071572780609130859375" lon="-107.7139860950410366058349609375">
        <ele>3558.39990234375</ele>
        <time>2023-07-29T13:37:00.000Z</time>
        <extensions>
          <ns3:TrackPointExtension>
            <ns3:hr>110</ns3:hr>
            <ns3:cad>47</ns3:cad>
          </ns3:TrackPointExtension>
        </extensions>
      </trkpt>
      <trkpt lat="37.753814198076725006103515625" lon="-107.71398148499429225921630859375">
        <ele>3558.60009765625</ele>
        <time>2023-07-29T13:37:01.000Z</time>
        <extensions>
          <ns3:TrackPointExtension>
            <ns3:hr>110</ns3:hr>
            <ns3:cad>47</ns3:cad>
          </ns3:TrackPointExtension>
        </extensions>
      </trkpt>
      <trkpt lat="37.75381813757121562957763671875" lon="-107.71398047916591167449951171875">
        <ele>3558.60009765625</ele>
        <time>2023-07-29T13:37:02.000Z</time>
        <extensions>
          <ns3:TrackPointExtension>
            <ns3:hr>110</ns3:hr>
            <ns3:cad>0</ns3:cad>
          </ns3:TrackPointExtension>
        </extensions>
      </trkpt>
      <trkpt lat="37.75383138097822666168212890625" lon="-107.71397477947175502777099609375">
        <ele>3558.800048828125</ele>
        <time>2023-07-29T13:37:03.000Z</time>
        <extensions>
          <ns3:TrackPointExtension>
            <ns3:hr>110</ns3:hr>
            <ns3:cad>0</ns3:cad>
          </ns3:TrackPointExtension>
        </extensions>
      </trkpt>
      <trkpt lat="37.75384378619492053985595703125" lon="-107.7139694988727569580078125">
        <ele>3558.800048828125</ele>
        <time>2023-07-29T13:37:04.000Z</time>
        <extensions>
          <ns3:TrackPointExtension>
            <ns3:hr>110</ns3:hr>
            <ns3:cad>45</ns3:cad>
          </ns3:TrackPointExtension>
        </extensions>
      </trkpt>
      <trkpt lat="37.75385250337421894073486328125" lon="-107.71396472118794918060302734375">
        <ele>3559</ele>
        <time>2023-07-29T13:37:05.000Z</time>
        <extensions>
          <ns3:TrackPointExtension>
            <ns3:hr>110</ns3:hr>
            <ns3:cad>45</ns3:cad>
          </ns3:TrackPointExtension>
        </extensions>
      </trkpt>
      <trkpt lat="37.75386038236320018768310546875" lon="-107.71395902149379253387451171875">
        <ele>3559.199951171875</ele>
        <time>2023-07-29T13:37:06.000Z</time>
        <extensions>
          <ns3:TrackPointExtension>
            <ns3:hr>110</ns3:hr>
            <ns3:cad>45</ns3:cad>
          </ns3:TrackPointExtension>
        </extensions>
      </trkpt>
      <trkpt lat="37.75386692024767398834228515625" lon="-107.71395483054220676422119140625">
        <ele>3559.39990234375</ele>
        <time>2023-07-29T13:37:07.000Z</time>
        <extensions>
          <ns3:TrackPointExtension>
            <ns3:hr>110</ns3:hr>
            <ns3:cad>45</ns3:cad>
          </ns3:TrackPointExtension>
        </extensions>
      </trkpt>
      <trkpt lat="37.7538757212460041046142578125" lon="-107.71395063959062099456787109375">
        <ele>3559.60009765625</ele>
        <time>2023-07-29T13:37:08.000Z</time>
        <extensions>
          <ns3:TrackPointExtension>
            <ns3:hr>110</ns3:hr>
            <ns3:cad>45</ns3:cad>
          </ns3:TrackPointExtension>
        </extensions>
      </trkpt>
      <trkpt lat="37.75388586334884166717529296875" lon="-107.7139461971819400787353515625">
        <ele>3559.800048828125</ele>
        <time>2023-07-29T13:37:09.000Z</time>
        <extensions>
          <ns3:TrackPointExtension>
            <ns3:hr>110</ns3:hr>
            <ns3:cad>47</ns3:cad>
          </ns3:TrackPointExtension>
        </extensions>
      </trkpt>
      <trkpt lat="37.75389893911778926849365234375" lon="-107.7139364741742610931396484375">
        <ele>3560</ele>
        <time>2023-07-29T13:37:10.000Z</time>
        <extensions>
          <ns3:TrackPointExtension>
            <ns3:hr>110</ns3:hr>
            <ns3:cad>47</ns3:cad>
          </ns3:TrackPointExtension>
        </extensions>
      </trkpt>
      <trkpt lat="37.75390866212546825408935546875" lon="-107.7139297686517238616943359375">
        <ele>3560</ele>
        <time>2023-07-29T13:37:11.000Z</time>
        <extensions>
          <ns3:TrackPointExtension>
            <ns3:hr>111</ns3:hr>
            <ns3:cad>47</ns3:cad>
          </ns3:TrackPointExtension>
        </extensions>
      </trkpt>
      <trkpt lat="37.7539186365902423858642578125" lon="-107.71392230875790119171142578125">
        <ele>3560.199951171875</ele>
        <time>2023-07-29T13:37:12.000Z</time>
        <extensions>
          <ns3:TrackPointExtension>
            <ns3:hr>112</ns3:hr>
            <ns3:cad>47</ns3:cad>
          </ns3:TrackPointExtension>
        </extensions>
      </trkpt>
      <trkpt lat="37.75392944924533367156982421875" lon="-107.71391459740698337554931640625">
        <ele>3560.39990234375</ele>
        <time>2023-07-29T13:37:13.000Z</time>
        <extensions>
          <ns3:TrackPointExtension>
            <ns3:hr>112</ns3:hr>
            <ns3:cad>0</ns3:cad>
          </ns3:TrackPointExtension>
        </extensions>
      </trkpt>
      <trkpt lat="37.75394269265234470367431640625" lon="-107.71390588022768497467041015625">
        <ele>3560.39990234375</ele>
        <time>2023-07-29T13:37:14.000Z</time>
        <extensions>
          <ns3:TrackPointExtension>
            <ns3:hr>113</ns3:hr>
            <ns3:cad>0</ns3:cad>
          </ns3:TrackPointExtension>
        </extensions>
      </trkpt>
      <trkpt lat="37.7539528347551822662353515625" lon="-107.7138992585241794586181640625">
        <ele>3560.39990234375</ele>
        <time>2023-07-29T13:37:15.000Z</time>
        <extensions>
          <ns3:TrackPointExtension>
            <ns3:hr>113</ns3:hr>
            <ns3:cad>0</ns3:cad>
          </ns3:TrackPointExtension>
        </extensions>
      </trkpt>
      <trkpt lat="37.75396347977221012115478515625" lon="-107.71389297209680080413818359375">
        <ele>3560.60009765625</ele>
        <time>2023-07-29T13:37:16.000Z</time>
        <extensions>
          <ns3:TrackPointExtension>
            <ns3:hr>113</ns3:hr>
            <ns3:cad>0</ns3:cad>
          </ns3:TrackPointExtension>
        </extensions>
      </trkpt>
      <trkpt lat="37.75397186167538166046142578125" lon="-107.7138871885836124420166015625">
        <ele>3560.60009765625</ele>
        <time>2023-07-29T13:37:17.000Z</time>
        <extensions>
          <ns3:TrackPointExtension>
            <ns3:hr>112</ns3:hr>
            <ns3:cad>0</ns3:cad>
          </ns3:TrackPointExtension>
        </extensions>
      </trkpt>
      <trkpt lat="37.75398552417755126953125" lon="-107.7138804830610752105712890625">
        <ele>3560.60009765625</ele>
        <time>2023-07-29T13:37:18.000Z</time>
        <extensions>
          <ns3:TrackPointExtension>
            <ns3:hr>113</ns3:hr>
            <ns3:cad>0</ns3:cad>
          </ns3:TrackPointExtension>
        </extensions>
      </trkpt>
      <trkpt lat="37.75399734266102313995361328125" lon="-107.7138741128146648406982421875">
        <ele>3560.60009765625</ele>
        <time>2023-07-29T13:37:19.000Z</time>
        <extensions>
          <ns3:TrackPointExtension>
            <ns3:hr>113</ns3:hr>
            <ns3:cad>0</ns3:cad>
          </ns3:TrackPointExtension>
        </extensions>
      </trkpt>
      <trkpt lat="37.75400723330676555633544921875" lon="-107.7138687483966350555419921875">
        <ele>3560.60009765625</ele>
        <time>2023-07-29T13:37:20.000Z</time>
        <extensions>
          <ns3:TrackPointExtension>
            <ns3:hr>113</ns3:hr>
            <ns3:cad>0</ns3:cad>
          </ns3:TrackPointExtension>
        </extensions>
      </trkpt>
      <trkpt lat="37.7540195547044277191162109375" lon="-107.71385860629379749298095703125">
        <ele>3560.60009765625</ele>
        <time>2023-07-29T13:37:21.000Z</time>
        <extensions>
          <ns3:TrackPointExtension>
            <ns3:hr>113</ns3:hr>
            <ns3:cad>0</ns3:cad>
          </ns3:TrackPointExtension>
        </extensions>
      </trkpt>
      <trkpt lat="37.75402684696018695831298828125" lon="-107.71385173313319683074951171875">
        <ele>3560.60009765625</ele>
        <time>2023-07-29T13:37:22.000Z</time>
        <extensions>
          <ns3:TrackPointExtension>
            <ns3:hr>113</ns3:hr>
            <ns3:cad>0</ns3:cad>
          </ns3:TrackPointExtension>
        </extensions>
      </trkpt>
      <trkpt lat="37.75402885861694812774658203125" lon="-107.71384485997259616851806640625">
        <ele>3560.60009765625</ele>
        <time>2023-07-29T13:37:23.000Z</time>
        <extensions>
          <ns3:TrackPointExtension>
            <ns3:hr>113</ns3:hr>
            <ns3:cad>0</ns3:cad>
          </ns3:TrackPointExtension>
        </extensions>
      </trkpt>
      <trkpt lat="37.75402936153113842010498046875" lon="-107.71384066902101039886474609375">
        <ele>3560.60009765625</ele>
        <time>2023-07-29T13:37:24.000Z</time>
        <extensions>
          <ns3:TrackPointExtension>
            <ns3:hr>113</ns3:hr>
            <ns3:cad>0</ns3:cad>
          </ns3:TrackPointExtension>
        </extensions>
      </trkpt>
      <trkpt lat="37.7540297806262969970703125" lon="-107.71383496932685375213623046875">
        <ele>3560.60009765625</ele>
        <time>2023-07-29T13:37:25.000Z</time>
        <extensions>
          <ns3:TrackPointExtension>
            <ns3:hr>113</ns3:hr>
            <ns3:cad>0</ns3:cad>
          </ns3:TrackPointExtension>
        </extensions>
      </trkpt>
      <trkpt lat="37.75402986444532871246337890625" lon="-107.71382893435657024383544921875">
        <ele>3560.800048828125</ele>
        <time>2023-07-29T13:37:26.000Z</time>
        <extensions>
          <ns3:TrackPointExtension>
            <ns3:hr>113</ns3:hr>
            <ns3:cad>0</ns3:cad>
          </ns3:TrackPointExtension>
        </extensions>
      </trkpt>
      <trkpt lat="37.7540297806262969970703125" lon="-107.71382675506174564361572265625">
        <ele>3561</ele>
        <time>2023-07-29T13:37:27.000Z</time>
        <extensions>
          <ns3:TrackPointExtension>
            <ns3:hr>113</ns3:hr>
            <ns3:cad>0</ns3:cad>
          </ns3:TrackPointExtension>
        </extensions>
      </trkpt>
      <trkpt lat="37.75403288193047046661376953125" lon="-107.71382474340498447418212890625">
        <ele>3561</ele>
        <time>2023-07-29T13:37:28.000Z</time>
        <extensions>
          <ns3:TrackPointExtension>
            <ns3:hr>112</ns3:hr>
            <ns3:cad>0</ns3:cad>
          </ns3:TrackPointExtension>
        </extensions>
      </trkpt>
      <trkpt lat="37.75403916835784912109375" lon="-107.71381937898695468902587890625">
        <ele>3561.199951171875</ele>
        <time>2023-07-29T13:37:29.000Z</time>
        <extensions>
          <ns3:TrackPointExtension>
            <ns3:hr>112</ns3:hr>
            <ns3:cad>0</ns3:cad>
          </ns3:TrackPointExtension>
        </extensions>
      </trkpt>
      <trkpt lat="37.75404461659491062164306640625" lon="-107.71381736733019351959228515625">
        <ele>3561.39990234375</ele>
        <time>2023-07-29T13:37:30.000Z</time>
        <extensions>
          <ns3:TrackPointExtension>
            <ns3:hr>111</ns3:hr>
            <ns3:cad>0</ns3:cad>
          </ns3:TrackPointExtension>
        </extensions>
      </trkpt>
      <trkpt lat="37.754048220813274383544921875" lon="-107.71381862461566925048828125">
        <ele>3561.39990234375</ele>
        <time>2023-07-29T13:37:31.000Z</time>
        <extensions>
          <ns3:TrackPointExtension>
            <ns3:hr>111</ns3:hr>
            <ns3:cad>0</ns3:cad>
          </ns3:TrackPointExtension>
        </extensions>
      </trkpt>
      <trkpt lat="37.754050903022289276123046875" lon="-107.7138181217014789581298828125">
        <ele>3561.60009765625</ele>
        <time>2023-07-29T13:37:32.000Z</time>
        <extensions>
          <ns3:TrackPointExtension>
            <ns3:hr>111</ns3:hr>
            <ns3:cad>0</ns3:cad>
          </ns3:TrackPointExtension>
        </extensions>
      </trkpt>
      <trkpt lat="37.7540520764887332916259765625" lon="-107.7138211391866207122802734375">
        <ele>3561.800048828125</ele>
        <time>2023-07-29T13:37:33.000Z</time>
        <extensions>
          <ns3:TrackPointExtension>
            <ns3:hr>110</ns3:hr>
            <ns3:cad>0</ns3:cad>
          </ns3:TrackPointExtension>
        </extensions>
      </trkpt>
      <trkpt lat="37.7540527470409870147705078125" lon="-107.71382625214755535125732421875">
        <ele>3562</ele>
        <time>2023-07-29T13:37:34.000Z</time>
        <extensions>
          <ns3:TrackPointExtension>
            <ns3:hr>110</ns3:hr>
            <ns3:cad>0</ns3:cad>
          </ns3:TrackPointExtension>
        </extensions>
      </trkpt>
      <trkpt lat="37.7540566027164459228515625" lon="-107.71382859908044338226318359375">
        <ele>3562.39990234375</ele>
        <time>2023-07-29T13:37:35.000Z</time>
        <extensions>
          <ns3:TrackPointExtension>
            <ns3:hr>109</ns3:hr>
            <ns3:cad>0</ns3:cad>
          </ns3:TrackPointExtension>
        </extensions>
      </trkpt>
      <trkpt lat="37.75406003929674625396728515625" lon="-107.7138285152614116668701171875">
        <ele>3562.39990234375</ele>
        <time>2023-07-29T13:37:36.000Z</time>
        <extensions>
          <ns3:TrackPointExtension>
            <ns3:hr>109</ns3:hr>
            <ns3:cad>0</ns3:cad>
          </ns3:TrackPointExtension>
        </extensions>
      </trkpt>
      <trkpt lat="37.75407043285667896270751953125" lon="-107.7138238213956356048583984375">
        <ele>3562.60009765625</ele>
        <time>2023-07-29T13:37:37.000Z</time>
        <extensions>
          <ns3:TrackPointExtension>
            <ns3:hr>109</ns3:hr>
            <ns3:cad>0</ns3:cad>
          </ns3:TrackPointExtension>
        </extensions>
      </trkpt>
      <trkpt lat="37.7540745399892330169677734375" lon="-107.71381703205406665802001953125">
        <ele>3562.800048828125</ele>
        <time>2023-07-29T13:37:38.000Z</time>
        <extensions>
          <ns3:TrackPointExtension>
            <ns3:hr>109</ns3:hr>
            <ns3:cad>0</ns3:cad>
          </ns3:TrackPointExtension>
        </extensions>
      </trkpt>
      <trkpt lat="37.7540825866162776947021484375" lon="-107.71381049416959285736083984375">
        <ele>3562.800048828125</ele>
        <time>2023-07-29T13:37:39.000Z</time>
        <extensions>
          <ns3:TrackPointExtension>
            <ns3:hr>110</ns3:hr>
            <ns3:cad>0</ns3:cad>
          </ns3:TrackPointExtension>
        </extensions>
      </trkpt>
      <trkpt lat="37.754082418978214263916015625" lon="-107.713798843324184417724609375">
        <ele>3563</ele>
        <time>2023-07-29T13:37:40.000Z</time>
        <extensions>
          <ns3:TrackPointExtension>
            <ns3:hr>110</ns3:hr>
            <ns3:cad>0</ns3:cad>
          </ns3:TrackPointExtension>
        </extensions>
      </trkpt>
      <trkpt lat="37.754086442291736602783203125" lon="-107.7137926407158374786376953125">
        <ele>3563.199951171875</ele>
        <time>2023-07-29T13:37:41.000Z</time>
        <extensions>
          <ns3:TrackPointExtension>
            <ns3:hr>110</ns3:hr>
            <ns3:cad>0</ns3:cad>
          </ns3:TrackPointExtension>
        </extensions>
      </trkpt>
      <trkpt lat="37.7540906332433223724365234375" lon="-107.713788449764251708984375">
        <ele>3563.199951171875</ele>
        <time>2023-07-29T13:37:42.000Z</time>
        <extensions>
          <ns3:TrackPointExtension>
            <ns3:hr>111</ns3:hr>
            <ns3:cad>0</ns3:cad>
          </ns3:TrackPointExtension>
        </extensions>
      </trkpt>
      <trkpt lat="37.75409557856619358062744140625" lon="-107.71378601901233196258544921875">
        <ele>3563.39990234375</ele>
        <time>2023-07-29T13:37:43.000Z</time>
        <extensions>
          <ns3:TrackPointExtension>
            <ns3:hr>111</ns3:hr>
            <ns3:cad>0</ns3:cad>
          </ns3:TrackPointExtension>
        </extensions>
      </trkpt>
      <trkpt lat="37.75410479865968227386474609375" lon="-107.71377705037593841552734375">
        <ele>3563.60009765625</ele>
        <time>2023-07-29T13:37:44.000Z</time>
        <extensions>
          <ns3:TrackPointExtension>
            <ns3:hr>111</ns3:hr>
            <ns3:cad>0</ns3:cad>
          </ns3:TrackPointExtension>
        </extensions>
      </trkpt>
      <trkpt lat="37.754115946590900421142578125" lon="-107.71376841701567173004150390625">
        <ele>3563.60009765625</ele>
        <time>2023-07-29T13:37:45.000Z</time>
        <extensions>
          <ns3:TrackPointExtension>
            <ns3:hr>110</ns3:hr>
            <ns3:cad>0</ns3:cad>
          </ns3:TrackPointExtension>
        </extensions>
      </trkpt>
      <trkpt lat="37.7541236579418182373046875" lon="-107.71376204676926136016845703125">
        <ele>3564</ele>
        <time>2023-07-29T13:37:46.000Z</time>
        <extensions>
          <ns3:TrackPointExtension>
            <ns3:hr>110</ns3:hr>
            <ns3:cad>0</ns3:cad>
          </ns3:TrackPointExtension>
        </extensions>
      </trkpt>
      <trkpt lat="37.7541352249681949615478515625" lon="-107.71375198848545551300048828125">
        <ele>3564</ele>
        <time>2023-07-29T13:37:47.000Z</time>
        <extensions>
          <ns3:TrackPointExtension>
            <ns3:hr>110</ns3:hr>
            <ns3:cad>0</ns3:cad>
          </ns3:TrackPointExtension>
        </extensions>
      </trkpt>
      <trkpt lat="37.75414955802261829376220703125" lon="-107.71374075673520565032958984375">
        <ele>3564.199951171875</ele>
        <time>2023-07-29T13:37:48.000Z</time>
        <extensions>
          <ns3:TrackPointExtension>
            <ns3:hr>110</ns3:hr>
            <ns3:cad>0</ns3:cad>
          </ns3:TrackPointExtension>
        </extensions>
      </trkpt>
      <trkpt lat="37.754155509173870086669921875" lon="-107.71373321302235126495361328125">
        <ele>3564.39990234375</ele>
        <time>2023-07-29T13:37:49.000Z</time>
        <extensions>
          <ns3:TrackPointExtension>
            <ns3:hr>111</ns3:hr>
            <ns3:cad>0</ns3:cad>
          </ns3:TrackPointExtension>
        </extensions>
      </trkpt>
      <trkpt lat="37.75416431017220020294189453125" lon="-107.71372566930949687957763671875">
        <ele>3564.39990234375</ele>
        <time>2023-07-29T13:37:50.000Z</time>
        <extensions>
          <ns3:TrackPointExtension>
            <ns3:hr>111</ns3:hr>
            <ns3:cad>0</ns3:cad>
          </ns3:TrackPointExtension>
        </extensions>
      </trkpt>
      <trkpt lat="37.754170596599578857421875" lon="-107.713721059262752532958984375">
        <ele>3564.800048828125</ele>
        <time>2023-07-29T13:37:51.000Z</time>
        <extensions>
          <ns3:TrackPointExtension>
            <ns3:hr>112</ns3:hr>
            <ns3:cad>0</ns3:cad>
          </ns3:TrackPointExtension>
        </extensions>
      </trkpt>
      <trkpt lat="37.75417872704565525054931640625" lon="-107.713716365396976470947265625">
        <ele>3565</ele>
        <time>2023-07-29T13:37:52.000Z</time>
        <extensions>
          <ns3:TrackPointExtension>
            <ns3:hr>112</ns3:hr>
            <ns3:cad>0</ns3:cad>
          </ns3:TrackPointExtension>
        </extensions>
      </trkpt>
      <trkpt lat="37.75418845005333423614501953125" lon="-107.713708318769931793212890625">
        <ele>3565</ele>
        <time>2023-07-29T13:37:53.000Z</time>
        <extensions>
          <ns3:TrackPointExtension>
            <ns3:hr>112</ns3:hr>
            <ns3:cad>0</ns3:cad>
          </ns3:TrackPointExtension>
        </extensions>
      </trkpt>
      <trkpt lat="37.7541925571858882904052734375" lon="-107.71370731294155120849609375">
        <ele>3565.39990234375</ele>
        <time>2023-07-29T13:37:54.000Z</time>
        <extensions>
          <ns3:TrackPointExtension>
            <ns3:hr>112</ns3:hr>
            <ns3:cad>0</ns3:cad>
          </ns3:TrackPointExtension>
        </extensions>
      </trkpt>
      <trkpt lat="37.7541962452232837677001953125" lon="-107.71371276117861270904541015625">
        <ele>3565.39990234375</ele>
        <time>2023-07-29T13:37:55.000Z</time>
        <extensions>
          <ns3:TrackPointExtension>
            <ns3:hr>113</ns3:hr>
            <ns3:cad>0</ns3:cad>
          </ns3:TrackPointExtension>
        </extensions>
      </trkpt>
      <trkpt lat="37.754202783107757568359375" lon="-107.7137115038931369781494140625">
        <ele>3565.60009765625</ele>
        <time>2023-07-29T13:37:56.000Z</time>
        <extensions>
          <ns3:TrackPointExtension>
            <ns3:hr>113</ns3:hr>
            <ns3:cad>0</ns3:cad>
          </ns3:TrackPointExtension>
        </extensions>
      </trkpt>
      <trkpt lat="37.754210494458675384521484375" lon="-107.71370840258896350860595703125">
        <ele>3565.800048828125</ele>
        <time>2023-07-29T13:37:57.000Z</time>
        <extensions>
          <ns3:TrackPointExtension>
            <ns3:hr>114</ns3:hr>
            <ns3:cad>0</ns3:cad>
          </ns3:TrackPointExtension>
        </extensions>
      </trkpt>
      <trkpt lat="37.7542237378656864166259765625" lon="-107.7137054689228534698486328125">
        <ele>3565.800048828125</ele>
        <time>2023-07-29T13:37:58.000Z</time>
        <extensions>
          <ns3:TrackPointExtension>
            <ns3:hr>114</ns3:hr>
            <ns3:cad>0</ns3:cad>
          </ns3:TrackPointExtension>
        </extensions>
      </trkpt>
      <trkpt lat="37.75423103012144565582275390625" lon="-107.71370504982769489288330078125">
        <ele>3566</ele>
        <time>2023-07-29T13:37:59.000Z</time>
        <extensions>
          <ns3:TrackPointExtension>
            <ns3:hr>114</ns3:hr>
            <ns3:cad>0</ns3:cad>
          </ns3:TrackPointExtension>
        </extensions>
      </trkpt>
      <trkpt lat="37.75423924438655376434326171875" lon="-107.7137037925422191619873046875">
        <ele>3566</ele>
        <time>2023-07-29T13:38:00.000Z</time>
        <extensions>
          <ns3:TrackPointExtension>
            <ns3:hr>113</ns3:hr>
            <ns3:cad>0</ns3:cad>
          </ns3:TrackPointExtension>
        </extensions>
      </trkpt>
      <trkpt lat="37.75425064377486705780029296875" lon="-107.7137017808854579925537109375">
        <ele>3566.199951171875</ele>
        <time>2023-07-29T13:38:01.000Z</time>
        <extensions>
          <ns3:TrackPointExtension>
            <ns3:hr>113</ns3:hr>
            <ns3:cad>0</ns3:cad>
          </ns3:TrackPointExtension>
        </extensions>
      </trkpt>
      <trkpt lat="37.75425684638321399688720703125" lon="-107.7137011103332042694091796875">
        <ele>3566.39990234375</ele>
        <time>2023-07-29T13:38:02.000Z</time>
        <extensions>
          <ns3:TrackPointExtension>
            <ns3:hr>114</ns3:hr>
            <ns3:cad>0</ns3:cad>
          </ns3:TrackPointExtension>
        </extensions>
      </trkpt>
      <trkpt lat="37.75426338426768779754638671875" lon="-107.71369867958128452301025390625">
        <ele>3566.39990234375</ele>
        <time>2023-07-29T13:38:03.000Z</time>
        <extensions>
          <ns3:TrackPointExtension>
            <ns3:hr>114</ns3:hr>
            <ns3:cad>0</ns3:cad>
          </ns3:TrackPointExtension>
        </extensions>
      </trkpt>
      <trkpt lat="37.75427008979022502899169921875" lon="-107.71369331516325473785400390625">
        <ele>3566.39990234375</ele>
        <time>2023-07-29T13:38:04.000Z</time>
        <extensions>
          <ns3:TrackPointExtension>
            <ns3:hr>114</ns3:hr>
            <ns3:cad>0</ns3:cad>
          </ns3:TrackPointExtension>
        </extensions>
      </trkpt>
      <trkpt lat="37.754275538027286529541015625" lon="-107.71369197405874729156494140625">
        <ele>3566.60009765625</ele>
        <time>2023-07-29T13:38:05.000Z</time>
        <extensions>
          <ns3:TrackPointExtension>
            <ns3:hr>114</ns3:hr>
            <ns3:cad>0</ns3:cad>
          </ns3:TrackPointExtension>
        </extensions>
      </trkpt>
      <trkpt lat="37.75428936816751956939697265625" lon="-107.71369130350649356842041015625">
        <ele>3566.800048828125</ele>
        <time>2023-07-29T13:38:06.000Z</time>
        <extensions>
          <ns3:TrackPointExtension>
            <ns3:hr>114</ns3:hr>
            <ns3:cad>0</ns3:cad>
          </ns3:TrackPointExtension>
        </extensions>
      </trkpt>
      <trkpt lat="37.75430277921259403228759765625" lon="-107.71368610672652721405029296875">
        <ele>3566.800048828125</ele>
        <time>2023-07-29T13:38:07.000Z</time>
        <extensions>
          <ns3:TrackPointExtension>
            <ns3:hr>114</ns3:hr>
            <ns3:cad>0</ns3:cad>
          </ns3:TrackPointExtension>
        </extensions>
      </trkpt>
      <trkpt lat="37.75431350804865360260009765625" lon="-107.7136803232133388519287109375">
        <ele>3567</ele>
        <time>2023-07-29T13:38:08.000Z</time>
        <extensions>
          <ns3:TrackPointExtension>
            <ns3:hr>113</ns3:hr>
            <ns3:cad>0</ns3:cad>
          </ns3:TrackPointExtension>
        </extensions>
      </trkpt>
      <trkpt lat="37.75432105176150798797607421875" lon="-107.7136736176908016204833984375">
        <ele>3567</ele>
        <time>2023-07-29T13:38:09.000Z</time>
        <extensions>
          <ns3:TrackPointExtension>
            <ns3:hr>113</ns3:hr>
            <ns3:cad>0</ns3:cad>
          </ns3:TrackPointExtension>
        </extensions>
      </trkpt>
      <trkpt lat="37.7543286792933940887451171875" lon="-107.71366775035858154296875">
        <ele>3567.199951171875</ele>
        <time>2023-07-29T13:38:10.000Z</time>
        <extensions>
          <ns3:TrackPointExtension>
            <ns3:hr>113</ns3:hr>
            <ns3:cad>0</ns3:cad>
          </ns3:TrackPointExtension>
        </extensions>
      </trkpt>
      <trkpt lat="37.75434217415750026702880859375" lon="-107.71365811116993427276611328125">
        <ele>3567.199951171875</ele>
        <time>2023-07-29T13:38:11.000Z</time>
        <extensions>
          <ns3:TrackPointExtension>
            <ns3:hr>113</ns3:hr>
            <ns3:cad>0</ns3:cad>
          </ns3:TrackPointExtension>
        </extensions>
      </trkpt>
      <trkpt lat="37.7543484605848789215087890625" lon="-107.71365425549447536468505859375">
        <ele>3567.39990234375</ele>
        <time>2023-07-29T13:38:12.000Z</time>
        <extensions>
          <ns3:TrackPointExtension>
            <ns3:hr>113</ns3:hr>
            <ns3:cad>0</ns3:cad>
          </ns3:TrackPointExtension>
        </extensions>
      </trkpt>
      <trkpt lat="37.7543544955551624298095703125" lon="-107.71365308202803134918212890625">
        <ele>3567.60009765625</ele>
        <time>2023-07-29T13:38:13.000Z</time>
        <extensions>
          <ns3:TrackPointExtension>
            <ns3:hr>113</ns3:hr>
            <ns3:cad>0</ns3:cad>
          </ns3:TrackPointExtension>
        </extensions>
      </trkpt>
      <trkpt lat="37.75436304509639739990234375" lon="-107.7136491425335407257080078125">
        <ele>3567.60009765625</ele>
        <time>2023-07-29T13:38:14.000Z</time>
        <extensions>
          <ns3:TrackPointExtension>
            <ns3:hr>113</ns3:hr>
            <ns3:cad>0</ns3:cad>
          </ns3:TrackPointExtension>
        </extensions>
      </trkpt>
      <trkpt lat="37.754372097551822662353515625" lon="-107.7136478014290332794189453125">
        <ele>3567.800048828125</ele>
        <time>2023-07-29T13:38:15.000Z</time>
        <extensions>
          <ns3:TrackPointExtension>
            <ns3:hr>112</ns3:hr>
            <ns3:cad>0</ns3:cad>
          </ns3:TrackPointExtension>
        </extensions>
      </trkpt>
      <trkpt lat="37.754384838044643402099609375" lon="-107.71364553831517696380615234375">
        <ele>3567.800048828125</ele>
        <time>2023-07-29T13:38:16.000Z</time>
        <extensions>
          <ns3:TrackPointExtension>
            <ns3:hr>112</ns3:hr>
            <ns3:cad>0</ns3:cad>
          </ns3:TrackPointExtension>
        </extensions>
      </trkpt>
      <trkpt lat="37.75439866818487644195556640625" lon="-107.713643610477447509765625">
        <ele>3567.800048828125</ele>
        <time>2023-07-29T13:38:17.000Z</time>
        <extensions>
          <ns3:TrackPointExtension>
            <ns3:hr>112</ns3:hr>
            <ns3:cad>70</ns3:cad>
          </ns3:TrackPointExtension>
        </extensions>
      </trkpt>
      <trkpt lat="37.75441107340157032012939453125" lon="-107.71363950334489345550537109375">
        <ele>3568</ele>
        <time>2023-07-29T13:38:18.000Z</time>
        <extensions>
          <ns3:TrackPointExtension>
            <ns3:hr>113</ns3:hr>
            <ns3:cad>70</ns3:cad>
          </ns3:TrackPointExtension>
        </extensions>
      </trkpt>
      <trkpt lat="37.75442062877118587493896484375" lon="-107.7136360667645931243896484375">
        <ele>3568</ele>
        <time>2023-07-29T13:38:19.000Z</time>
        <extensions>
          <ns3:TrackPointExtension>
            <ns3:hr>113</ns3:hr>
            <ns3:cad>66</ns3:cad>
          </ns3:TrackPointExtension>
        </extensions>
      </trkpt>
      <trkpt lat="37.75442867539823055267333984375" lon="-107.71363363601267337799072265625">
        <ele>3568.199951171875</ele>
        <time>2023-07-29T13:38:20.000Z</time>
        <extensions>
          <ns3:TrackPointExtension>
            <ns3:hr>113</ns3:hr>
            <ns3:cad>66</ns3:cad>
          </ns3:TrackPointExtension>
        </extensions>
      </trkpt>
      <trkpt lat="37.75442850776016712188720703125" lon="-107.71363128907978534698486328125">
        <ele>3568.39990234375</ele>
        <time>2023-07-29T13:38:21.000Z</time>
        <extensions>
          <ns3:TrackPointExtension>
            <ns3:hr>114</ns3:hr>
            <ns3:cad>65</ns3:cad>
          </ns3:TrackPointExtension>
        </extensions>
      </trkpt>
      <trkpt lat="37.7544339559972286224365234375" lon="-107.71363045088946819305419921875">
        <ele>3568.39990234375</ele>
        <time>2023-07-29T13:38:22.000Z</time>
        <extensions>
          <ns3:TrackPointExtension>
            <ns3:hr>114</ns3:hr>
            <ns3:cad>65</ns3:cad>
          </ns3:TrackPointExtension>
        </extensions>
      </trkpt>
      <trkpt lat="37.75444082915782928466796875" lon="-107.71362743340432643890380859375">
        <ele>3568.39990234375</ele>
        <time>2023-07-29T13:38:23.000Z</time>
        <extensions>
          <ns3:TrackPointExtension>
            <ns3:hr>114</ns3:hr>
            <ns3:cad>65</ns3:cad>
          </ns3:TrackPointExtension>
        </extensions>
      </trkpt>
      <trkpt lat="37.7544466964900493621826171875" lon="-107.71362508647143840789794921875">
        <ele>3568.60009765625</ele>
        <time>2023-07-29T13:38:24.000Z</time>
        <extensions>
          <ns3:TrackPointExtension>
            <ns3:hr>115</ns3:hr>
            <ns3:cad>0</ns3:cad>
          </ns3:TrackPointExtension>
        </extensions>
      </trkpt>
      <trkpt lat="37.75445692241191864013671875" lon="-107.7136199735105037689208984375">
        <ele>3568.60009765625</ele>
        <time>2023-07-29T13:38:25.000Z</time>
        <extensions>
          <ns3:TrackPointExtension>
            <ns3:hr>115</ns3:hr>
            <ns3:cad>0</ns3:cad>
          </ns3:TrackPointExtension>
        </extensions>
      </trkpt>
      <trkpt lat="37.75446304120123386383056640625" lon="-107.7136152796447277069091796875">
        <ele>3568.800048828125</ele>
        <time>2023-07-29T13:38:26.000Z</time>
        <extensions>
          <ns3:TrackPointExtension>
            <ns3:hr>115</ns3:hr>
            <ns3:cad>0</ns3:cad>
          </ns3:TrackPointExtension>
        </extensions>
      </trkpt>
      <trkpt lat="37.754463963210582733154296875" lon="-107.71361184306442737579345703125">
        <ele>3568.800048828125</ele>
        <time>2023-07-29T13:38:27.000Z</time>
        <extensions>
          <ns3:TrackPointExtension>
            <ns3:hr>115</ns3:hr>
            <ns3:cad>0</ns3:cad>
          </ns3:TrackPointExtension>
        </extensions>
      </trkpt>
      <trkpt lat="37.75447033345699310302734375" lon="-107.7136038802564144134521484375">
        <ele>3569</ele>
        <time>2023-07-29T13:38:28.000Z</time>
        <extensions>
          <ns3:TrackPointExtension>
            <ns3:hr>115</ns3:hr>
            <ns3:cad>0</ns3:cad>
          </ns3:TrackPointExtension>
        </extensions>
      </trkpt>
      <trkpt lat="37.7544777095317840576171875" lon="-107.7135954983532428741455078125">
        <ele>3569.39990234375</ele>
        <time>2023-07-29T13:38:29.000Z</time>
        <extensions>
          <ns3:TrackPointExtension>
            <ns3:hr>115</ns3:hr>
            <ns3:cad>0</ns3:cad>
          </ns3:TrackPointExtension>
        </extensions>
      </trkpt>
      <trkpt lat="37.75447905063629150390625" lon="-107.713591642677783966064453125">
        <ele>3569.39990234375</ele>
        <time>2023-07-29T13:38:30.000Z</time>
        <extensions>
          <ns3:TrackPointExtension>
            <ns3:hr>114</ns3:hr>
            <ns3:cad>0</ns3:cad>
          </ns3:TrackPointExtension>
        </extensions>
      </trkpt>
      <trkpt lat="37.754482068121433258056640625" lon="-107.71358703263103961944580078125">
        <ele>3569.60009765625</ele>
        <time>2023-07-29T13:38:31.000Z</time>
        <extensions>
          <ns3:TrackPointExtension>
            <ns3:hr>114</ns3:hr>
            <ns3:cad>0</ns3:cad>
          </ns3:TrackPointExtension>
        </extensions>
      </trkpt>
      <trkpt lat="37.75448483414947986602783203125" lon="-107.71358200348913669586181640625">
        <ele>3569.800048828125</ele>
        <time>2023-07-29T13:38:32.000Z</time>
        <extensions>
          <ns3:TrackPointExtension>
            <ns3:hr>114</ns3:hr>
            <ns3:cad>0</ns3:cad>
          </ns3:TrackPointExtension>
        </extensions>
      </trkpt>
      <trkpt lat="37.75449045002460479736328125" lon="-107.7135747112333774566650390625">
        <ele>3570</ele>
        <time>2023-07-29T13:38:33.000Z</time>
        <extensions>
          <ns3:TrackPointExtension>
            <ns3:hr>113</ns3:hr>
            <ns3:cad>0</ns3:cad>
          </ns3:TrackPointExtension>
        </extensions>
      </trkpt>
      <trkpt lat="37.754498831927776336669921875" lon="-107.713566161692142486572265625">
        <ele>3570</ele>
        <time>2023-07-29T13:38:34.000Z</time>
        <extensions>
          <ns3:TrackPointExtension>
            <ns3:hr>113</ns3:hr>
            <ns3:cad>0</ns3:cad>
          </ns3:TrackPointExtension>
        </extensions>
      </trkpt>
      <trkpt lat="37.75450126267969608306884765625" lon="-107.7135644853115081787109375">
        <ele>3570.199951171875</ele>
        <time>2023-07-29T13:38:35.000Z</time>
        <extensions>
          <ns3:TrackPointExtension>
            <ns3:hr>113</ns3:hr>
            <ns3:cad>0</ns3:cad>
          </ns3:TrackPointExtension>
        </extensions>
      </trkpt>
      <trkpt lat="37.7545098960399627685546875" lon="-107.71355635486543178558349609375">
        <ele>3570.199951171875</ele>
        <time>2023-07-29T13:38:36.000Z</time>
        <extensions>
          <ns3:TrackPointExtension>
            <ns3:hr>113</ns3:hr>
            <ns3:cad>0</ns3:cad>
          </ns3:TrackPointExtension>
        </extensions>
      </trkpt>
      <trkpt lat="37.7545124106109142303466796875" lon="-107.71355316974222660064697265625">
        <ele>3570.39990234375</ele>
        <time>2023-07-29T13:38:37.000Z</time>
        <extensions>
          <ns3:TrackPointExtension>
            <ns3:hr>112</ns3:hr>
            <ns3:cad>0</ns3:cad>
          </ns3:TrackPointExtension>
        </extensions>
      </trkpt>
      <trkpt lat="37.7545184455811977386474609375" lon="-107.71354780532419681549072265625">
        <ele>3570.60009765625</ele>
        <time>2023-07-29T13:38:38.000Z</time>
        <extensions>
          <ns3:TrackPointExtension>
            <ns3:hr>113</ns3:hr>
            <ns3:cad>0</ns3:cad>
          </ns3:TrackPointExtension>
        </extensions>
      </trkpt>
      <trkpt lat="37.7545325271785259246826171875" lon="-107.71353305317461490631103515625">
        <ele>3570.800048828125</ele>
        <time>2023-07-29T13:38:39.000Z</time>
        <extensions>
          <ns3:TrackPointExtension>
            <ns3:hr>113</ns3:hr>
            <ns3:cad>0</ns3:cad>
          </ns3:TrackPointExtension>
        </extensions>
      </trkpt>
      <trkpt lat="37.75453663431107997894287109375" lon="-107.7135311253368854522705078125">
        <ele>3571</ele>
        <time>2023-07-29T13:38:40.000Z</time>
        <extensions>
          <ns3:TrackPointExtension>
            <ns3:hr>113</ns3:hr>
            <ns3:cad>0</ns3:cad>
          </ns3:TrackPointExtension>
        </extensions>
      </trkpt>
      <trkpt lat="37.754545770585536956787109375" lon="-107.7135230787098407745361328125">
        <ele>3571.199951171875</ele>
        <time>2023-07-29T13:38:41.000Z</time>
        <extensions>
          <ns3:TrackPointExtension>
            <ns3:hr>113</ns3:hr>
            <ns3:cad>0</ns3:cad>
          </ns3:TrackPointExtension>
        </extensions>
      </trkpt>
      <trkpt lat="37.75455255992710590362548828125" lon="-107.713519223034381866455078125">
        <ele>3571.199951171875</ele>
        <time>2023-07-29T13:38:42.000Z</time>
        <extensions>
          <ns3:TrackPointExtension>
            <ns3:hr>113</ns3:hr>
            <ns3:cad>0</ns3:cad>
          </ns3:TrackPointExtension>
        </extensions>
      </trkpt>
      <trkpt lat="37.75455188937485218048095703125" lon="-107.71352081559598445892333984375">
        <ele>3571.39990234375</ele>
        <time>2023-07-29T13:38:43.000Z</time>
        <extensions>
          <ns3:TrackPointExtension>
            <ns3:hr>113</ns3:hr>
            <ns3:cad>0</ns3:cad>
          </ns3:TrackPointExtension>
        </extensions>
      </trkpt>
      <trkpt lat="37.75455758906900882720947265625" lon="-107.713517211377620697021484375">
        <ele>3571.39990234375</ele>
        <time>2023-07-29T13:38:44.000Z</time>
        <extensions>
          <ns3:TrackPointExtension>
            <ns3:hr>113</ns3:hr>
            <ns3:cad>0</ns3:cad>
          </ns3:TrackPointExtension>
        </extensions>
      </trkpt>
      <trkpt lat="37.754561863839626312255859375" lon="-107.7135140262544155120849609375">
        <ele>3571.800048828125</ele>
        <time>2023-07-29T13:38:45.000Z</time>
        <extensions>
          <ns3:TrackPointExtension>
            <ns3:hr>112</ns3:hr>
            <ns3:cad>0</ns3:cad>
          </ns3:TrackPointExtension>
        </extensions>
      </trkpt>
      <trkpt lat="37.7545640431344509124755859375" lon="-107.7135133557021617889404296875">
        <ele>3572</ele>
        <time>2023-07-29T13:38:46.000Z</time>
        <extensions>
          <ns3:TrackPointExtension>
            <ns3:hr>112</ns3:hr>
            <ns3:cad>0</ns3:cad>
          </ns3:TrackPointExtension>
        </extensions>
      </trkpt>
      <trkpt lat="37.75457921437919139862060546875" lon="-107.7135059796273708343505859375">
        <ele>3572.199951171875</ele>
        <time>2023-07-29T13:38:47.000Z</time>
        <extensions>
          <ns3:TrackPointExtension>
            <ns3:hr>112</ns3:hr>
            <ns3:cad>0</ns3:cad>
          </ns3:TrackPointExtension>
        </extensions>
      </trkpt>
      <trkpt lat="37.7545928768813610076904296875" lon="-107.7135006152093410491943359375">
        <ele>3572.39990234375</ele>
        <time>2023-07-29T13:38:48.000Z</time>
        <extensions>
          <ns3:TrackPointExtension>
            <ns3:hr>111</ns3:hr>
            <ns3:cad>41</ns3:cad>
          </ns3:TrackPointExtension>
        </extensions>
      </trkpt>
      <trkpt lat="37.75459815748035907745361328125" lon="-107.71349835209548473358154296875">
        <ele>3572.60009765625</ele>
        <time>2023-07-29T13:38:49.000Z</time>
        <extensions>
          <ns3:TrackPointExtension>
            <ns3:hr>111</ns3:hr>
            <ns3:cad>41</ns3:cad>
          </ns3:TrackPointExtension>
        </extensions>
      </trkpt>
      <trkpt lat="37.75460972450673580169677734375" lon="-107.71349332295358180999755859375">
        <ele>3572.60009765625</ele>
        <time>2023-07-29T13:38:50.000Z</time>
        <extensions>
          <ns3:TrackPointExtension>
            <ns3:hr>111</ns3:hr>
            <ns3:cad>41</ns3:cad>
          </ns3:TrackPointExtension>
        </extensions>
      </trkpt>
      <trkpt lat="37.7546146698296070098876953125" lon="-107.713493071496486663818359375">
        <ele>3572.800048828125</ele>
        <time>2023-07-29T13:38:51.000Z</time>
        <extensions>
          <ns3:TrackPointExtension>
            <ns3:hr>111</ns3:hr>
            <ns3:cad>0</ns3:cad>
          </ns3:TrackPointExtension>
        </extensions>
      </trkpt>
      <trkpt lat="37.7546207047998905181884765625" lon="-107.7134912274777889251708984375">
        <ele>3573</ele>
        <time>2023-07-29T13:38:52.000Z</time>
        <extensions>
          <ns3:TrackPointExtension>
            <ns3:hr>111</ns3:hr>
            <ns3:cad>0</ns3:cad>
          </ns3:TrackPointExtension>
        </extensions>
      </trkpt>
      <trkpt lat="37.7546264044940471649169921875" lon="-107.71348929964005947113037109375">
        <ele>3573</ele>
        <time>2023-07-29T13:38:53.000Z</time>
        <extensions>
          <ns3:TrackPointExtension>
            <ns3:hr>111</ns3:hr>
            <ns3:cad>0</ns3:cad>
          </ns3:TrackPointExtension>
        </extensions>
      </trkpt>
      <trkpt lat="37.75463235564529895782470703125" lon="-107.713487036526203155517578125">
        <ele>3573</ele>
        <time>2023-07-29T13:38:54.000Z</time>
        <extensions>
          <ns3:TrackPointExtension>
            <ns3:hr>111</ns3:hr>
            <ns3:cad>0</ns3:cad>
          </ns3:TrackPointExtension>
        </extensions>
      </trkpt>
      <trkpt lat="37.75463528931140899658203125" lon="-107.71349114365875720977783203125">
        <ele>3573.199951171875</ele>
        <time>2023-07-29T13:38:55.000Z</time>
        <extensions>
          <ns3:TrackPointExtension>
            <ns3:hr>111</ns3:hr>
            <ns3:cad>0</ns3:cad>
          </ns3:TrackPointExtension>
        </extensions>
      </trkpt>
      <trkpt lat="37.7546398155391216278076171875" lon="-107.71348997019231319427490234375">
        <ele>3573.60009765625</ele>
        <time>2023-07-29T13:38:56.000Z</time>
        <extensions>
          <ns3:TrackPointExtension>
            <ns3:hr>111</ns3:hr>
            <ns3:cad>0</ns3:cad>
          </ns3:TrackPointExtension>
        </extensions>
      </trkpt>
      <trkpt lat="37.7546475268900394439697265625" lon="-107.71348628215491771697998046875">
        <ele>3573.60009765625</ele>
        <time>2023-07-29T13:38:57.000Z</time>
        <extensions>
          <ns3:TrackPointExtension>
            <ns3:hr>111</ns3:hr>
            <ns3:cad>0</ns3:cad>
          </ns3:TrackPointExtension>
        </extensions>
      </trkpt>
      <trkpt lat="37.754653058946132659912109375" lon="-107.71348091773688793182373046875">
        <ele>3574</ele>
        <time>2023-07-29T13:38:58.000Z</time>
        <extensions>
          <ns3:TrackPointExtension>
            <ns3:hr>111</ns3:hr>
            <ns3:cad>0</ns3:cad>
          </ns3:TrackPointExtension>
        </extensions>
      </trkpt>
      <trkpt lat="37.7546622790396213531494140625" lon="-107.713472954928874969482421875">
        <ele>3574.199951171875</ele>
        <time>2023-07-29T13:38:59.000Z</time>
        <extensions>
          <ns3:TrackPointExtension>
            <ns3:hr>111</ns3:hr>
            <ns3:cad>41</ns3:cad>
          </ns3:TrackPointExtension>
        </extensions>
      </trkpt>
      <trkpt lat="37.7546733431518077850341796875" lon="-107.71346314810216426849365234375">
        <ele>3574.199951171875</ele>
        <time>2023-07-29T13:39:00.000Z</time>
        <extensions>
          <ns3:TrackPointExtension>
            <ns3:hr>111</ns3:hr>
            <ns3:cad>41</ns3:cad>
          </ns3:TrackPointExtension>
        </extensions>
      </trkpt>
      <trkpt lat="37.7546830661594867706298828125" lon="-107.71345459856092929840087890625">
        <ele>3574.199951171875</ele>
        <time>2023-07-29T13:39:01.000Z</time>
        <extensions>
          <ns3:TrackPointExtension>
            <ns3:hr>111</ns3:hr>
            <ns3:cad>0</ns3:cad>
          </ns3:TrackPointExtension>
        </extensions>
      </trkpt>
      <trkpt lat="37.75468893349170684814453125" lon="-107.71344990469515323638916015625">
        <ele>3574.39990234375</ele>
        <time>2023-07-29T13:39:02.000Z</time>
        <extensions>
          <ns3:TrackPointExtension>
            <ns3:hr>112</ns3:hr>
            <ns3:cad>0</ns3:cad>
          </ns3:TrackPointExtension>
        </extensions>
      </trkpt>
      <trkpt lat="37.75469605810940265655517578125" lon="-107.71344286389648914337158203125">
        <ele>3574.60009765625</ele>
        <time>2023-07-29T13:39:03.000Z</time>
        <extensions>
          <ns3:TrackPointExtension>
            <ns3:hr>113</ns3:hr>
            <ns3:cad>0</ns3:cad>
          </ns3:TrackPointExtension>
        </extensions>
      </trkpt>
      <trkpt lat="37.75470695458352565765380859375" lon="-107.7134315483272075653076171875">
        <ele>3574.800048828125</ele>
        <time>2023-07-29T13:39:04.000Z</time>
        <extensions>
          <ns3:TrackPointExtension>
            <ns3:hr>115</ns3:hr>
            <ns3:cad>0</ns3:cad>
          </ns3:TrackPointExtension>
        </extensions>
      </trkpt>
      <trkpt lat="37.75471416302025318145751953125" lon="-107.71342257969081401824951171875">
        <ele>3575</ele>
        <time>2023-07-29T13:39:05.000Z</time>
        <extensions>
          <ns3:TrackPointExtension>
            <ns3:hr>115</ns3:hr>
            <ns3:cad>0</ns3:cad>
          </ns3:TrackPointExtension>
        </extensions>
      </trkpt>
      <trkpt lat="37.75472220964729785919189453125" lon="-107.7134124375879764556884765625">
        <ele>3575.199951171875</ele>
        <time>2023-07-29T13:39:06.000Z</time>
        <extensions>
          <ns3:TrackPointExtension>
            <ns3:hr>116</ns3:hr>
            <ns3:cad>0</ns3:cad>
          </ns3:TrackPointExtension>
        </extensions>
      </trkpt>
      <trkpt lat="37.75473109446465969085693359375" lon="-107.71339978091418743133544921875">
        <ele>3575.199951171875</ele>
        <time>2023-07-29T13:39:07.000Z</time>
        <extensions>
          <ns3:TrackPointExtension>
            <ns3:hr>116</ns3:hr>
            <ns3:cad>0</ns3:cad>
          </ns3:TrackPointExtension>
        </extensions>
      </trkpt>
      <trkpt lat="37.754737548530101776123046875" lon="-107.71339072845876216888427734375">
        <ele>3575.39990234375</ele>
        <time>2023-07-29T13:39:08.000Z</time>
        <extensions>
          <ns3:TrackPointExtension>
            <ns3:hr>117</ns3:hr>
            <ns3:cad>0</ns3:cad>
          </ns3:TrackPointExtension>
        </extensions>
      </trkpt>
      <trkpt lat="37.75474199093878269195556640625" lon="-107.7133829332888126373291015625">
        <ele>3575.39990234375</ele>
        <time>2023-07-29T13:39:09.000Z</time>
        <extensions>
          <ns3:TrackPointExtension>
            <ns3:hr>118</ns3:hr>
            <ns3:cad>0</ns3:cad>
          </ns3:TrackPointExtension>
        </extensions>
      </trkpt>
      <trkpt lat="37.75474601425230503082275390625" lon="-107.71337899379432201385498046875">
        <ele>3575.60009765625</ele>
        <time>2023-07-29T13:39:10.000Z</time>
        <extensions>
          <ns3:TrackPointExtension>
            <ns3:hr>117</ns3:hr>
            <ns3:cad>0</ns3:cad>
          </ns3:TrackPointExtension>
        </extensions>
      </trkpt>
      <trkpt lat="37.75475070811808109283447265625" lon="-107.7133742161095142364501953125">
        <ele>3575.60009765625</ele>
        <time>2023-07-29T13:39:11.000Z</time>
        <extensions>
          <ns3:TrackPointExtension>
            <ns3:hr>117</ns3:hr>
            <ns3:cad>0</ns3:cad>
          </ns3:TrackPointExtension>
        </extensions>
      </trkpt>
      <trkpt lat="37.75475422851741313934326171875" lon="-107.71336935460567474365234375">
        <ele>3575.800048828125</ele>
        <time>2023-07-29T13:39:12.000Z</time>
        <extensions>
          <ns3:TrackPointExtension>
            <ns3:hr>117</ns3:hr>
            <ns3:cad>0</ns3:cad>
          </ns3:TrackPointExtension>
        </extensions>
      </trkpt>
      <trkpt lat="37.75476059876382350921630859375" lon="-107.71336021833121776580810546875">
        <ele>3575.800048828125</ele>
        <time>2023-07-29T13:39:13.000Z</time>
        <extensions>
          <ns3:TrackPointExtension>
            <ns3:hr>116</ns3:hr>
            <ns3:cad>0</ns3:cad>
          </ns3:TrackPointExtension>
        </extensions>
      </trkpt>
      <trkpt lat="37.75476939976215362548828125" lon="-107.71335192024707794189453125">
        <ele>3575.800048828125</ele>
        <time>2023-07-29T13:39:14.000Z</time>
        <extensions>
          <ns3:TrackPointExtension>
            <ns3:hr>116</ns3:hr>
            <ns3:cad>0</ns3:cad>
          </ns3:TrackPointExtension>
        </extensions>
      </trkpt>
      <trkpt lat="37.7547856606543064117431640625" lon="-107.71334328688681125640869140625">
        <ele>3575.800048828125</ele>
        <time>2023-07-29T13:39:15.000Z</time>
        <extensions>
          <ns3:TrackPointExtension>
            <ns3:hr>116</ns3:hr>
            <ns3:cad>0</ns3:cad>
          </ns3:TrackPointExtension>
        </extensions>
      </trkpt>
      <trkpt lat="37.75479756295680999755859375" lon="-107.71333448588848114013671875">
        <ele>3575.800048828125</ele>
        <time>2023-07-29T13:39:16.000Z</time>
        <extensions>
          <ns3:TrackPointExtension>
            <ns3:hr>115</ns3:hr>
            <ns3:cad>60</ns3:cad>
          </ns3:TrackPointExtension>
        </extensions>
      </trkpt>
      <trkpt lat="37.75480686686933040618896484375" lon="-107.71333205513656139373779296875">
        <ele>3575.800048828125</ele>
        <time>2023-07-29T13:39:17.000Z</time>
        <extensions>
          <ns3:TrackPointExtension>
            <ns3:hr>115</ns3:hr>
            <ns3:cad>60</ns3:cad>
          </ns3:TrackPointExtension>
        </extensions>
      </trkpt>
      <trkpt lat="37.75481365621089935302734375" lon="-107.71333222277462482452392578125">
        <ele>3576</ele>
        <time>2023-07-29T13:39:18.000Z</time>
        <extensions>
          <ns3:TrackPointExtension>
            <ns3:hr>115</ns3:hr>
            <ns3:cad>60</ns3:cad>
          </ns3:TrackPointExtension>
        </extensions>
      </trkpt>
      <trkpt lat="37.75481759570538997650146484375" lon="-107.71333004347980022430419921875">
        <ele>3576</ele>
        <time>2023-07-29T13:39:19.000Z</time>
        <extensions>
          <ns3:TrackPointExtension>
            <ns3:hr>116</ns3:hr>
            <ns3:cad>0</ns3:cad>
          </ns3:TrackPointExtension>
        </extensions>
      </trkpt>
      <trkpt lat="37.75481826625764369964599609375" lon="-107.71333071403205394744873046875">
        <ele>3576</ele>
        <time>2023-07-29T13:39:20.000Z</time>
        <extensions>
          <ns3:TrackPointExtension>
            <ns3:hr>116</ns3:hr>
            <ns3:cad>0</ns3:cad>
          </ns3:TrackPointExtension>
        </extensions>
      </trkpt>
      <trkpt lat="37.75481508113443851470947265625" lon="-107.713334821164608001708984375">
        <ele>3576.199951171875</ele>
        <time>2023-07-29T13:39:21.000Z</time>
        <extensions>
          <ns3:TrackPointExtension>
            <ns3:hr>117</ns3:hr>
            <ns3:cad>0</ns3:cad>
          </ns3:TrackPointExtension>
        </extensions>
      </trkpt>
      <trkpt lat="37.754811979830265045166015625" lon="-107.7133405208587646484375">
        <ele>3576.199951171875</ele>
        <time>2023-07-29T13:39:22.000Z</time>
        <extensions>
          <ns3:TrackPointExtension>
            <ns3:hr>117</ns3:hr>
            <ns3:cad>0</ns3:cad>
          </ns3:TrackPointExtension>
        </extensions>
      </trkpt>
      <trkpt lat="37.75480820797383785247802734375" lon="-107.71334965713322162628173828125">
        <ele>3576.199951171875</ele>
        <time>2023-07-29T13:39:23.000Z</time>
        <extensions>
          <ns3:TrackPointExtension>
            <ns3:hr>118</ns3:hr>
            <ns3:cad>0</ns3:cad>
          </ns3:TrackPointExtension>
        </extensions>
      </trkpt>
      <trkpt lat="37.75480787269771099090576171875" lon="-107.71335661411285400390625">
        <ele>3576.199951171875</ele>
        <time>2023-07-29T13:39:24.000Z</time>
        <extensions>
          <ns3:TrackPointExtension>
            <ns3:hr>118</ns3:hr>
            <ns3:cad>0</ns3:cad>
          </ns3:TrackPointExtension>
        </extensions>
      </trkpt>
      <trkpt lat="37.75480820797383785247802734375" lon="-107.71335787139832973480224609375">
        <ele>3576.199951171875</ele>
        <time>2023-07-29T13:39:25.000Z</time>
        <extensions>
          <ns3:TrackPointExtension>
            <ns3:hr>119</ns3:hr>
            <ns3:cad>0</ns3:cad>
          </ns3:TrackPointExtension>
        </extensions>
      </trkpt>
      <trkpt lat="37.75480502285063266754150390625" lon="-107.71336021833121776580810546875">
        <ele>3576.199951171875</ele>
        <time>2023-07-29T13:39:26.000Z</time>
        <extensions>
          <ns3:TrackPointExtension>
            <ns3:hr>118</ns3:hr>
            <ns3:cad>0</ns3:cad>
          </ns3:TrackPointExtension>
        </extensions>
      </trkpt>
      <trkpt lat="37.75479831732809543609619140625" lon="-107.71336457692086696624755859375">
        <ele>3576.199951171875</ele>
        <time>2023-07-29T13:39:27.000Z</time>
        <extensions>
          <ns3:TrackPointExtension>
            <ns3:hr>118</ns3:hr>
            <ns3:cad>0</ns3:cad>
          </ns3:TrackPointExtension>
        </extensions>
      </trkpt>
      <trkpt lat="37.75479094125330448150634765625" lon="-107.71336541511118412017822265625">
        <ele>3576.199951171875</ele>
        <time>2023-07-29T13:39:28.000Z</time>
        <extensions>
          <ns3:TrackPointExtension>
            <ns3:hr>114</ns3:hr>
            <ns3:cad>0</ns3:cad>
          </ns3:TrackPointExtension>
        </extensions>
      </trkpt>
      <trkpt lat="37.7547886781394481658935546875" lon="-107.7133660018444061279296875">
        <ele>3576.199951171875</ele>
        <time>2023-07-29T13:39:29.000Z</time>
        <extensions>
          <ns3:TrackPointExtension>
            <ns3:hr>111</ns3:hr>
            <ns3:cad>0</ns3:cad>
          </ns3:TrackPointExtension>
        </extensions>
      </trkpt>
      <trkpt lat="37.75478876195847988128662109375" lon="-107.71336533129215240478515625">
        <ele>3576.199951171875</ele>
        <time>2023-07-29T13:39:30.000Z</time>
        <extensions>
          <ns3:TrackPointExtension>
            <ns3:hr>109</ns3:hr>
            <ns3:cad>0</ns3:cad>
          </ns3:TrackPointExtension>
        </extensions>
      </trkpt>
      <trkpt lat="37.75478725321590900421142578125" lon="-107.7133644931018352508544921875">
        <ele>3576.199951171875</ele>
        <time>2023-07-29T13:39:31.000Z</time>
        <extensions>
          <ns3:TrackPointExtension>
            <ns3:hr>108</ns3:hr>
            <ns3:cad>0</ns3:cad>
          </ns3:TrackPointExtension>
        </extensions>
      </trkpt>
      <trkpt lat="37.75478960014879703521728515625" lon="-107.71336399018764495849609375">
        <ele>3576.199951171875</ele>
        <time>2023-07-29T13:39:32.000Z</time>
        <extensions>
          <ns3:TrackPointExtension>
            <ns3:hr>107</ns3:hr>
            <ns3:cad>0</ns3:cad>
          </ns3:TrackPointExtension>
        </extensions>
      </trkpt>
      <trkpt lat="37.75479513220489025115966796875" lon="-107.71336055360734462738037109375">
        <ele>3576.199951171875</ele>
        <time>2023-07-29T13:39:33.000Z</time>
        <extensions>
          <ns3:TrackPointExtension>
            <ns3:hr>106</ns3:hr>
            <ns3:cad>0</ns3:cad>
          </ns3:TrackPointExtension>
        </extensions>
      </trkpt>
      <trkpt lat="37.75481759570538997650146484375" lon="-107.71335460245609283447265625">
        <ele>3576.199951171875</ele>
        <time>2023-07-29T13:39:34.000Z</time>
        <extensions>
          <ns3:TrackPointExtension>
            <ns3:hr>105</ns3:hr>
            <ns3:cad>0</ns3:cad>
          </ns3:TrackPointExtension>
        </extensions>
      </trkpt>
      <trkpt lat="37.754810638725757598876953125" lon="-107.71335971541702747344970703125">
        <ele>3576.199951171875</ele>
        <time>2023-07-29T13:39:35.000Z</time>
        <extensions>
          <ns3:TrackPointExtension>
            <ns3:hr>105</ns3:hr>
            <ns3:cad>0</ns3:cad>
          </ns3:TrackPointExtension>
        </extensions>
      </trkpt>
      <trkpt lat="37.75480921380221843719482421875" lon="-107.71336222998797893524169921875">
        <ele>3576.199951171875</ele>
        <time>2023-07-29T13:39:36.000Z</time>
        <extensions>
          <ns3:TrackPointExtension>
            <ns3:hr>105</ns3:hr>
            <ns3:cad>0</ns3:cad>
          </ns3:TrackPointExtension>
        </extensions>
      </trkpt>
      <trkpt lat="37.75481164455413818359375" lon="-107.713360302150249481201171875">
        <ele>3576.199951171875</ele>
        <time>2023-07-29T13:39:37.000Z</time>
        <extensions>
          <ns3:TrackPointExtension>
            <ns3:hr>105</ns3:hr>
            <ns3:cad>0</ns3:cad>
          </ns3:TrackPointExtension>
        </extensions>
      </trkpt>
      <trkpt lat="37.754813320934772491455078125" lon="-107.713348232209682464599609375">
        <ele>3576.199951171875</ele>
        <time>2023-07-29T13:39:38.000Z</time>
        <extensions>
          <ns3:TrackPointExtension>
            <ns3:hr>105</ns3:hr>
            <ns3:cad>0</ns3:cad>
          </ns3:TrackPointExtension>
        </extensions>
      </trkpt>
      <trkpt lat="37.75482446886599063873291015625" lon="-107.7133366651833057403564453125">
        <ele>3576.199951171875</ele>
        <time>2023-07-29T13:39:39.000Z</time>
        <extensions>
          <ns3:TrackPointExtension>
            <ns3:hr>105</ns3:hr>
            <ns3:cad>0</ns3:cad>
          </ns3:TrackPointExtension>
        </extensions>
      </trkpt>
      <trkpt lat="37.754836790263652801513671875" lon="-107.71332384087145328521728515625">
        <ele>3576.199951171875</ele>
        <time>2023-07-29T13:39:40.000Z</time>
        <extensions>
          <ns3:TrackPointExtension>
            <ns3:hr>105</ns3:hr>
            <ns3:cad>0</ns3:cad>
          </ns3:TrackPointExtension>
        </extensions>
      </trkpt>
      <trkpt lat="37.7548493631184101104736328125" lon="-107.71331260912120342254638671875">
        <ele>3576.199951171875</ele>
        <time>2023-07-29T13:39:41.000Z</time>
        <extensions>
          <ns3:TrackPointExtension>
            <ns3:hr>105</ns3:hr>
            <ns3:cad>0</ns3:cad>
          </ns3:TrackPointExtension>
        </extensions>
      </trkpt>
      <trkpt lat="37.754856236279010772705078125" lon="-107.7133043110370635986328125">
        <ele>3576.199951171875</ele>
        <time>2023-07-29T13:39:42.000Z</time>
        <extensions>
          <ns3:TrackPointExtension>
            <ns3:hr>105</ns3:hr>
            <ns3:cad>0</ns3:cad>
          </ns3:TrackPointExtension>
        </extensions>
      </trkpt>
      <trkpt lat="37.75486151687800884246826171875" lon="-107.71329970099031925201416015625">
        <ele>3576</ele>
        <time>2023-07-29T13:39:43.000Z</time>
        <extensions>
          <ns3:TrackPointExtension>
            <ns3:hr>105</ns3:hr>
            <ns3:cad>0</ns3:cad>
          </ns3:TrackPointExtension>
        </extensions>
      </trkpt>
      <trkpt lat="37.75486889295279979705810546875" lon="-107.7132914029061794281005859375">
        <ele>3576</ele>
        <time>2023-07-29T13:39:44.000Z</time>
        <extensions>
          <ns3:TrackPointExtension>
            <ns3:hr>105</ns3:hr>
            <ns3:cad>55</ns3:cad>
          </ns3:TrackPointExtension>
        </extensions>
      </trkpt>
      <trkpt lat="37.754876352846622467041015625" lon="-107.71328561939299106597900390625">
        <ele>3576</ele>
        <time>2023-07-29T13:39:45.000Z</time>
        <extensions>
          <ns3:TrackPointExtension>
            <ns3:hr>104</ns3:hr>
            <ns3:cad>55</ns3:cad>
          </ns3:TrackPointExtension>
        </extensions>
      </trkpt>
      <trkpt lat="37.7548798732459545135498046875" lon="-107.7132800035178661346435546875">
        <ele>3576</ele>
        <time>2023-07-29T13:39:46.000Z</time>
        <extensions>
          <ns3:TrackPointExtension>
            <ns3:hr>104</ns3:hr>
            <ns3:cad>55</ns3:cad>
          </ns3:TrackPointExtension>
        </extensions>
      </trkpt>
      <trkpt lat="37.75488917715847492218017578125" lon="-107.71327019669115543365478515625">
        <ele>3576.199951171875</ele>
        <time>2023-07-29T13:39:47.000Z</time>
        <extensions>
          <ns3:TrackPointExtension>
            <ns3:hr>104</ns3:hr>
            <ns3:cad>54</ns3:cad>
          </ns3:TrackPointExtension>
        </extensions>
      </trkpt>
      <trkpt lat="37.75490225292742252349853515625" lon="-107.7132587134838104248046875">
        <ele>3576.199951171875</ele>
        <time>2023-07-29T13:39:48.000Z</time>
        <extensions>
          <ns3:TrackPointExtension>
            <ns3:hr>103</ns3:hr>
            <ns3:cad>54</ns3:cad>
          </ns3:TrackPointExtension>
        </extensions>
      </trkpt>
      <trkpt lat="37.75491164065897464752197265625" lon="-107.71325024776160717010498046875">
        <ele>3576.39990234375</ele>
        <time>2023-07-29T13:39:49.000Z</time>
        <extensions>
          <ns3:TrackPointExtension>
            <ns3:hr>101</ns3:hr>
            <ns3:cad>54</ns3:cad>
          </ns3:TrackPointExtension>
        </extensions>
      </trkpt>
      <trkpt lat="37.75492228567600250244140625" lon="-107.7132431231439113616943359375">
        <ele>3576.39990234375</ele>
        <time>2023-07-29T13:39:50.000Z</time>
        <extensions>
          <ns3:TrackPointExtension>
            <ns3:hr>101</ns3:hr>
            <ns3:cad>54</ns3:cad>
          </ns3:TrackPointExtension>
        </extensions>
      </trkpt>
      <trkpt lat="37.75492857210338115692138671875" lon="-107.71324119530618190765380859375">
        <ele>3576.39990234375</ele>
        <time>2023-07-29T13:39:51.000Z</time>
        <extensions>
          <ns3:TrackPointExtension>
            <ns3:hr>100</ns3:hr>
            <ns3:cad>51</ns3:cad>
          </ns3:TrackPointExtension>
        </extensions>
      </trkpt>
      <trkpt lat="37.75494634173810482025146484375" lon="-107.7132424525916576385498046875">
        <ele>3576.39990234375</ele>
        <time>2023-07-29T13:39:52.000Z</time>
        <extensions>
          <ns3:TrackPointExtension>
            <ns3:hr>100</ns3:hr>
            <ns3:cad>0</ns3:cad>
          </ns3:TrackPointExtension>
        </extensions>
      </trkpt>
      <trkpt lat="37.75495422072708606719970703125" lon="-107.7132399380207061767578125">
        <ele>3576.39990234375</ele>
        <time>2023-07-29T13:39:53.000Z</time>
        <extensions>
          <ns3:TrackPointExtension>
            <ns3:hr>100</ns3:hr>
            <ns3:cad>0</ns3:cad>
          </ns3:TrackPointExtension>
        </extensions>
      </trkpt>
      <trkpt lat="37.75496209971606731414794921875" lon="-107.71323599852621555328369140625">
        <ele>3576.39990234375</ele>
        <time>2023-07-29T13:39:54.000Z</time>
        <extensions>
          <ns3:TrackPointExtension>
            <ns3:hr>100</ns3:hr>
            <ns3:cad>53</ns3:cad>
          </ns3:TrackPointExtension>
        </extensions>
      </trkpt>
      <trkpt lat="37.7549697272479534149169921875" lon="-107.71323331631720066070556640625">
        <ele>3576.39990234375</ele>
        <time>2023-07-29T13:39:55.000Z</time>
        <extensions>
          <ns3:TrackPointExtension>
            <ns3:hr>100</ns3:hr>
            <ns3:cad>53</ns3:cad>
          </ns3:TrackPointExtension>
        </extensions>
      </trkpt>
      <trkpt lat="37.754974253475666046142578125" lon="-107.71323214285075664520263671875">
        <ele>3576.60009765625</ele>
        <time>2023-07-29T13:39:56.000Z</time>
        <extensions>
          <ns3:TrackPointExtension>
            <ns3:hr>100</ns3:hr>
            <ns3:cad>53</ns3:cad>
          </ns3:TrackPointExtension>
        </extensions>
      </trkpt>
      <trkpt lat="37.75498238392174243927001953125" lon="-107.71322912536561489105224609375">
        <ele>3576.60009765625</ele>
        <time>2023-07-29T13:39:57.000Z</time>
        <extensions>
          <ns3:TrackPointExtension>
            <ns3:hr>100</ns3:hr>
            <ns3:cad>53</ns3:cad>
          </ns3:TrackPointExtension>
        </extensions>
      </trkpt>
      <trkpt lat="37.75499428622424602508544921875" lon="-107.71322912536561489105224609375">
        <ele>3576.60009765625</ele>
        <time>2023-07-29T13:39:58.000Z</time>
        <extensions>
          <ns3:TrackPointExtension>
            <ns3:hr>100</ns3:hr>
            <ns3:cad>53</ns3:cad>
          </ns3:TrackPointExtension>
        </extensions>
      </trkpt>
      <trkpt lat="37.7549978904426097869873046875" lon="-107.71322879008948802947998046875">
        <ele>3576.800048828125</ele>
        <time>2023-07-29T13:39:59.000Z</time>
        <extensions>
          <ns3:TrackPointExtension>
            <ns3:hr>99</ns3:hr>
            <ns3:cad>0</ns3:cad>
          </ns3:TrackPointExtension>
        </extensions>
      </trkpt>
      <trkpt lat="37.75500836782157421112060546875" lon="-107.7132273651659488677978515625">
        <ele>3577</ele>
        <time>2023-07-29T13:40:00.000Z</time>
        <extensions>
          <ns3:TrackPointExtension>
            <ns3:hr>97</ns3:hr>
            <ns3:cad>0</ns3:cad>
          </ns3:TrackPointExtension>
        </extensions>
      </trkpt>
      <trkpt lat="37.75501742027699947357177734375" lon="-107.71322476677596569061279296875">
        <ele>3577.199951171875</ele>
        <time>2023-07-29T13:40:01.000Z</time>
        <extensions>
          <ns3:TrackPointExtension>
            <ns3:hr>96</ns3:hr>
            <ns3:cad>0</ns3:cad>
          </ns3:TrackPointExtension>
        </extensions>
      </trkpt>
      <trkpt lat="37.7550275623798370361328125" lon="-107.7132211625576019287109375">
        <ele>3577.39990234375</ele>
        <time>2023-07-29T13:40:02.000Z</time>
        <extensions>
          <ns3:TrackPointExtension>
            <ns3:hr>95</ns3:hr>
            <ns3:cad>0</ns3:cad>
          </ns3:TrackPointExtension>
        </extensions>
      </trkpt>
      <trkpt lat="37.755043320357799530029296875" lon="-107.7132166363298892974853515625">
        <ele>3577.39990234375</ele>
        <time>2023-07-29T13:40:03.000Z</time>
        <extensions>
          <ns3:TrackPointExtension>
            <ns3:hr>94</ns3:hr>
            <ns3:cad>0</ns3:cad>
          </ns3:TrackPointExtension>
        </extensions>
      </trkpt>
      <trkpt lat="37.7550491876900196075439453125" lon="-107.7132139541208744049072265625">
        <ele>3577.60009765625</ele>
        <time>2023-07-29T13:40:04.000Z</time>
        <extensions>
          <ns3:TrackPointExtension>
            <ns3:hr>95</ns3:hr>
            <ns3:cad>0</ns3:cad>
          </ns3:TrackPointExtension>
        </extensions>
      </trkpt>
      <trkpt lat="37.755056731402873992919921875" lon="-107.71321202628314495086669921875">
        <ele>3577.800048828125</ele>
        <time>2023-07-29T13:40:05.000Z</time>
        <extensions>
          <ns3:TrackPointExtension>
            <ns3:hr>95</ns3:hr>
            <ns3:cad>0</ns3:cad>
          </ns3:TrackPointExtension>
        </extensions>
      </trkpt>
      <trkpt lat="37.75506553240120410919189453125" lon="-107.71320917643606662750244140625">
        <ele>3578</ele>
        <time>2023-07-29T13:40:06.000Z</time>
        <extensions>
          <ns3:TrackPointExtension>
            <ns3:hr>96</ns3:hr>
            <ns3:cad>0</ns3:cad>
          </ns3:TrackPointExtension>
        </extensions>
      </trkpt>
      <trkpt lat="37.75507257319986820220947265625" lon="-107.7132089249789714813232421875">
        <ele>3578.199951171875</ele>
        <time>2023-07-29T13:40:07.000Z</time>
        <extensions>
          <ns3:TrackPointExtension>
            <ns3:hr>98</ns3:hr>
            <ns3:cad>0</ns3:cad>
          </ns3:TrackPointExtension>
        </extensions>
      </trkpt>
      <trkpt lat="37.75507559068500995635986328125" lon="-107.71321152336895465850830078125">
        <ele>3578.39990234375</ele>
        <time>2023-07-29T13:40:08.000Z</time>
        <extensions>
          <ns3:TrackPointExtension>
            <ns3:hr>98</ns3:hr>
            <ns3:cad>0</ns3:cad>
          </ns3:TrackPointExtension>
        </extensions>
      </trkpt>
      <trkpt lat="37.7550790272653102874755859375" lon="-107.7132146246731281280517578125">
        <ele>3578.60009765625</ele>
        <time>2023-07-29T13:40:09.000Z</time>
        <extensions>
          <ns3:TrackPointExtension>
            <ns3:hr>99</ns3:hr>
            <ns3:cad>0</ns3:cad>
          </ns3:TrackPointExtension>
        </extensions>
      </trkpt>
      <trkpt lat="37.755086235702037811279296875" lon="-107.71321554668247699737548828125">
        <ele>3578.800048828125</ele>
        <time>2023-07-29T13:40:10.000Z</time>
        <extensions>
          <ns3:TrackPointExtension>
            <ns3:hr>99</ns3:hr>
            <ns3:cad>0</ns3:cad>
          </ns3:TrackPointExtension>
        </extensions>
      </trkpt>
      <trkpt lat="37.7550890855491161346435546875" lon="-107.71321521140635013580322265625">
        <ele>3579</ele>
        <time>2023-07-29T13:40:11.000Z</time>
        <extensions>
          <ns3:TrackPointExtension>
            <ns3:hr>99</ns3:hr>
            <ns3:cad>0</ns3:cad>
          </ns3:TrackPointExtension>
        </extensions>
      </trkpt>
      <trkpt lat="37.75508866645395755767822265625" lon="-107.7132173068821430206298828125">
        <ele>3579</ele>
        <time>2023-07-29T13:40:12.000Z</time>
        <extensions>
          <ns3:TrackPointExtension>
            <ns3:hr>99</ns3:hr>
            <ns3:cad>0</ns3:cad>
          </ns3:TrackPointExtension>
        </extensions>
      </trkpt>
      <trkpt lat="37.75509218685328960418701171875" lon="-107.71321705542504787445068359375">
        <ele>3579.199951171875</ele>
        <time>2023-07-29T13:40:13.000Z</time>
        <extensions>
          <ns3:TrackPointExtension>
            <ns3:hr>99</ns3:hr>
            <ns3:cad>0</ns3:cad>
          </ns3:TrackPointExtension>
        </extensions>
      </trkpt>
      <trkpt lat="37.7550971321761608123779296875" lon="-107.71321487613022327423095703125">
        <ele>3579.60009765625</ele>
        <time>2023-07-29T13:40:14.000Z</time>
        <extensions>
          <ns3:TrackPointExtension>
            <ns3:hr>99</ns3:hr>
            <ns3:cad>0</ns3:cad>
          </ns3:TrackPointExtension>
        </extensions>
      </trkpt>
      <trkpt lat="37.7550944499671459197998046875" lon="-107.71321638487279415130615234375">
        <ele>3580</ele>
        <time>2023-07-29T13:40:15.000Z</time>
        <extensions>
          <ns3:TrackPointExtension>
            <ns3:hr>99</ns3:hr>
            <ns3:cad>0</ns3:cad>
          </ns3:TrackPointExtension>
        </extensions>
      </trkpt>
      <trkpt lat="37.75509570725262165069580078125" lon="-107.713212780654430389404296875">
        <ele>3580</ele>
        <time>2023-07-29T13:40:16.000Z</time>
        <extensions>
          <ns3:TrackPointExtension>
            <ns3:hr>100</ns3:hr>
            <ns3:cad>0</ns3:cad>
          </ns3:TrackPointExtension>
        </extensions>
      </trkpt>
      <trkpt lat="37.75509654544293880462646484375" lon="-107.71321068517863750457763671875">
        <ele>3580.199951171875</ele>
        <time>2023-07-29T13:40:17.000Z</time>
        <extensions>
          <ns3:TrackPointExtension>
            <ns3:hr>100</ns3:hr>
            <ns3:cad>0</ns3:cad>
          </ns3:TrackPointExtension>
        </extensions>
      </trkpt>
      <trkpt lat="37.755102328956127166748046875" lon="-107.71320750005543231964111328125">
        <ele>3580.39990234375</ele>
        <time>2023-07-29T13:40:18.000Z</time>
        <extensions>
          <ns3:TrackPointExtension>
            <ns3:hr>103</ns3:hr>
            <ns3:cad>0</ns3:cad>
          </ns3:TrackPointExtension>
        </extensions>
      </trkpt>
      <trkpt lat="37.75511615909636020660400390625" lon="-107.713202722370624542236328125">
        <ele>3580.60009765625</ele>
        <time>2023-07-29T13:40:19.000Z</time>
        <extensions>
          <ns3:TrackPointExtension>
            <ns3:hr>104</ns3:hr>
            <ns3:cad>0</ns3:cad>
          </ns3:TrackPointExtension>
        </extensions>
      </trkpt>
      <trkpt lat="37.75511431507766246795654296875" lon="-107.7132089249789714813232421875">
        <ele>3580.60009765625</ele>
        <time>2023-07-29T13:40:20.000Z</time>
        <extensions>
          <ns3:TrackPointExtension>
            <ns3:hr>105</ns3:hr>
            <ns3:cad>0</ns3:cad>
          </ns3:TrackPointExtension>
        </extensions>
      </trkpt>
      <trkpt lat="37.75515287183225154876708984375" lon="-107.71318922750651836395263671875">
        <ele>3581</ele>
        <time>2023-07-29T13:40:22.000Z</time>
        <extensions>
          <ns3:TrackPointExtension>
            <ns3:hr>105</ns3:hr>
            <ns3:cad>0</ns3:cad>
          </ns3:TrackPointExtension>
        </extensions>
      </trkpt>
      <trkpt lat="37.75515907444059848785400390625" lon="-107.7131807617843151092529296875">
        <ele>3581.199951171875</ele>
        <time>2023-07-29T13:40:23.000Z</time>
        <extensions>
          <ns3:TrackPointExtension>
            <ns3:hr>104</ns3:hr>
            <ns3:cad>0</ns3:cad>
          </ns3:TrackPointExtension>
        </extensions>
      </trkpt>
      <trkpt lat="37.75516427122056484222412109375" lon="-107.71317623555660247802734375">
        <ele>3581.39990234375</ele>
        <time>2023-07-29T13:40:24.000Z</time>
        <extensions>
          <ns3:TrackPointExtension>
            <ns3:hr>103</ns3:hr>
            <ns3:cad>0</ns3:cad>
          </ns3:TrackPointExtension>
        </extensions>
      </trkpt>
      <trkpt lat="37.75516829453408718109130859375" lon="-107.713178582489490509033203125">
        <ele>3581.60009765625</ele>
        <time>2023-07-29T13:40:25.000Z</time>
        <extensions>
          <ns3:TrackPointExtension>
            <ns3:hr>103</ns3:hr>
            <ns3:cad>0</ns3:cad>
          </ns3:TrackPointExtension>
        </extensions>
      </trkpt>
      <trkpt lat="37.7551705576479434967041015625" lon="-107.7131740562617778778076171875">
        <ele>3581.60009765625</ele>
        <time>2023-07-29T13:40:26.000Z</time>
        <extensions>
          <ns3:TrackPointExtension>
            <ns3:hr>103</ns3:hr>
            <ns3:cad>0</ns3:cad>
          </ns3:TrackPointExtension>
        </extensions>
      </trkpt>
      <trkpt lat="37.7551725693047046661376953125" lon="-107.7131683565676212310791015625">
        <ele>3581.800048828125</ele>
        <time>2023-07-29T13:40:27.000Z</time>
        <extensions>
          <ns3:TrackPointExtension>
            <ns3:hr>103</ns3:hr>
            <ns3:cad>0</ns3:cad>
          </ns3:TrackPointExtension>
        </extensions>
      </trkpt>
      <trkpt lat="37.7551712282001972198486328125" lon="-107.71316190250217914581298828125">
        <ele>3581.800048828125</ele>
        <time>2023-07-29T13:40:28.000Z</time>
        <extensions>
          <ns3:TrackPointExtension>
            <ns3:hr>103</ns3:hr>
            <ns3:cad>44</ns3:cad>
          </ns3:TrackPointExtension>
        </extensions>
      </trkpt>
      <trkpt lat="37.75517642498016357421875" lon="-107.71314932964742183685302734375">
        <ele>3581.800048828125</ele>
        <time>2023-07-29T13:40:29.000Z</time>
        <extensions>
          <ns3:TrackPointExtension>
            <ns3:hr>103</ns3:hr>
            <ns3:cad>44</ns3:cad>
          </ns3:TrackPointExtension>
        </extensions>
      </trkpt>
      <trkpt lat="37.755182124674320220947265625" lon="-107.71313977427780628204345703125">
        <ele>3581.800048828125</ele>
        <time>2023-07-29T13:40:30.000Z</time>
        <extensions>
          <ns3:TrackPointExtension>
            <ns3:hr>103</ns3:hr>
            <ns3:cad>44</ns3:cad>
          </ns3:TrackPointExtension>
        </extensions>
      </trkpt>
      <trkpt lat="37.75518841110169887542724609375" lon="-107.713128291070461273193359375">
        <ele>3581.800048828125</ele>
        <time>2023-07-29T13:40:31.000Z</time>
        <extensions>
          <ns3:TrackPointExtension>
            <ns3:hr>104</ns3:hr>
            <ns3:cad>0</ns3:cad>
          </ns3:TrackPointExtension>
        </extensions>
      </trkpt>
      <trkpt lat="37.75519427843391895294189453125" lon="-107.71311563439667224884033203125">
        <ele>3581.800048828125</ele>
        <time>2023-07-29T13:40:32.000Z</time>
        <extensions>
          <ns3:TrackPointExtension>
            <ns3:hr>106</ns3:hr>
            <ns3:cad>0</ns3:cad>
          </ns3:TrackPointExtension>
        </extensions>
      </trkpt>
      <trkpt lat="37.75519712828099727630615234375" lon="-107.713110186159610748291015625">
        <ele>3581.800048828125</ele>
        <time>2023-07-29T13:40:33.000Z</time>
        <extensions>
          <ns3:TrackPointExtension>
            <ns3:hr>106</ns3:hr>
            <ns3:cad>0</ns3:cad>
          </ns3:TrackPointExtension>
        </extensions>
      </trkpt>
      <trkpt lat="37.75519461371004581451416015625" lon="-107.71310658194124698638916015625">
        <ele>3581.800048828125</ele>
        <time>2023-07-29T13:40:34.000Z</time>
        <extensions>
          <ns3:TrackPointExtension>
            <ns3:hr>106</ns3:hr>
            <ns3:cad>0</ns3:cad>
          </ns3:TrackPointExtension>
        </extensions>
      </trkpt>
      <trkpt lat="37.755192853510379791259765625" lon="-107.7131058275699615478515625">
        <ele>3581.800048828125</ele>
        <time>2023-07-29T13:40:35.000Z</time>
        <extensions>
          <ns3:TrackPointExtension>
            <ns3:hr>107</ns3:hr>
            <ns3:cad>0</ns3:cad>
          </ns3:TrackPointExtension>
        </extensions>
      </trkpt>
      <trkpt lat="37.75519059039652347564697265625" lon="-107.71310515701770782470703125">
        <ele>3581.60009765625</ele>
        <time>2023-07-29T13:40:36.000Z</time>
        <extensions>
          <ns3:TrackPointExtension>
            <ns3:hr>107</ns3:hr>
            <ns3:cad>0</ns3:cad>
          </ns3:TrackPointExtension>
        </extensions>
      </trkpt>
      <trkpt lat="37.755191512405872344970703125" lon="-107.71309786476194858551025390625">
        <ele>3581.60009765625</ele>
        <time>2023-07-29T13:40:37.000Z</time>
        <extensions>
          <ns3:TrackPointExtension>
            <ns3:hr>108</ns3:hr>
            <ns3:cad>0</ns3:cad>
          </ns3:TrackPointExtension>
        </extensions>
      </trkpt>
      <trkpt lat="37.75518991984426975250244140625" lon="-107.7130977809429168701171875">
        <ele>3581.60009765625</ele>
        <time>2023-07-29T13:40:38.000Z</time>
        <extensions>
          <ns3:TrackPointExtension>
            <ns3:hr>108</ns3:hr>
            <ns3:cad>0</ns3:cad>
          </ns3:TrackPointExtension>
        </extensions>
      </trkpt>
      <trkpt lat="37.7551859803497791290283203125" lon="-107.71310272626578807830810546875">
        <ele>3581.60009765625</ele>
        <time>2023-07-29T13:40:39.000Z</time>
        <extensions>
          <ns3:TrackPointExtension>
            <ns3:hr>107</ns3:hr>
            <ns3:cad>0</ns3:cad>
          </ns3:TrackPointExtension>
        </extensions>
      </trkpt>
      <trkpt lat="37.75518287904560565948486328125" lon="-107.713110186159610748291015625">
        <ele>3581.60009765625</ele>
        <time>2023-07-29T13:40:40.000Z</time>
        <extensions>
          <ns3:TrackPointExtension>
            <ns3:hr>107</ns3:hr>
            <ns3:cad>0</ns3:cad>
          </ns3:TrackPointExtension>
        </extensions>
      </trkpt>
      <trkpt lat="37.75518187321722507476806640625" lon="-107.71311295218765735626220703125">
        <ele>3581.39990234375</ele>
        <time>2023-07-29T13:40:41.000Z</time>
        <extensions>
          <ns3:TrackPointExtension>
            <ns3:hr>107</ns3:hr>
            <ns3:cad>0</ns3:cad>
          </ns3:TrackPointExtension>
        </extensions>
      </trkpt>
      <trkpt lat="37.75518489070236682891845703125" lon="-107.71310859359800815582275390625">
        <ele>3581.199951171875</ele>
        <time>2023-07-29T13:40:42.000Z</time>
        <extensions>
          <ns3:TrackPointExtension>
            <ns3:hr>107</ns3:hr>
            <ns3:cad>0</ns3:cad>
          </ns3:TrackPointExtension>
        </extensions>
      </trkpt>
      <trkpt lat="37.75519109331071376800537109375" lon="-107.713100798428058624267578125">
        <ele>3581.199951171875</ele>
        <time>2023-07-29T13:40:43.000Z</time>
        <extensions>
          <ns3:TrackPointExtension>
            <ns3:hr>106</ns3:hr>
            <ns3:cad>0</ns3:cad>
          </ns3:TrackPointExtension>
        </extensions>
      </trkpt>
      <trkpt lat="37.7551992237567901611328125" lon="-107.71308613009750843048095703125">
        <ele>3581.199951171875</ele>
        <time>2023-07-29T13:40:44.000Z</time>
        <extensions>
          <ns3:TrackPointExtension>
            <ns3:hr>105</ns3:hr>
            <ns3:cad>0</ns3:cad>
          </ns3:TrackPointExtension>
        </extensions>
      </trkpt>
      <trkpt lat="37.755198888480663299560546875" lon="-107.71308076567947864532470703125">
        <ele>3581.199951171875</ele>
        <time>2023-07-29T13:40:45.000Z</time>
        <extensions>
          <ns3:TrackPointExtension>
            <ns3:hr>104</ns3:hr>
            <ns3:cad>0</ns3:cad>
          </ns3:TrackPointExtension>
        </extensions>
      </trkpt>
      <trkpt lat="37.7552014030516147613525390625" lon="-107.713079340755939483642578125">
        <ele>3581.199951171875</ele>
        <time>2023-07-29T13:40:46.000Z</time>
        <extensions>
          <ns3:TrackPointExtension>
            <ns3:hr>104</ns3:hr>
            <ns3:cad>0</ns3:cad>
          </ns3:TrackPointExtension>
        </extensions>
      </trkpt>
      <trkpt lat="37.75520400144159793853759765625" lon="-107.7130744792520999908447265625">
        <ele>3581.199951171875</ele>
        <time>2023-07-29T13:40:47.000Z</time>
        <extensions>
          <ns3:TrackPointExtension>
            <ns3:hr>103</ns3:hr>
            <ns3:cad>0</ns3:cad>
          </ns3:TrackPointExtension>
        </extensions>
      </trkpt>
      <trkpt lat="37.75520986877381801605224609375" lon="-107.71306718699634075164794921875">
        <ele>3581.199951171875</ele>
        <time>2023-07-29T13:40:48.000Z</time>
        <extensions>
          <ns3:TrackPointExtension>
            <ns3:hr>103</ns3:hr>
            <ns3:cad>0</ns3:cad>
          </ns3:TrackPointExtension>
        </extensions>
      </trkpt>
      <trkpt lat="37.7552151493728160858154296875" lon="-107.71305981092154979705810546875">
        <ele>3581.199951171875</ele>
        <time>2023-07-29T13:40:49.000Z</time>
        <extensions>
          <ns3:TrackPointExtension>
            <ns3:hr>103</ns3:hr>
            <ns3:cad>0</ns3:cad>
          </ns3:TrackPointExtension>
        </extensions>
      </trkpt>
      <trkpt lat="37.7552154846489429473876953125" lon="-107.713064253330230712890625">
        <ele>3581</ele>
        <time>2023-07-29T13:40:50.000Z</time>
        <extensions>
          <ns3:TrackPointExtension>
            <ns3:hr>103</ns3:hr>
            <ns3:cad>0</ns3:cad>
          </ns3:TrackPointExtension>
        </extensions>
      </trkpt>
      <trkpt lat="37.75521858595311641693115234375" lon="-107.71306668408215045928955078125">
        <ele>3581</ele>
        <time>2023-07-29T13:40:51.000Z</time>
        <extensions>
          <ns3:TrackPointExtension>
            <ns3:hr>103</ns3:hr>
            <ns3:cad>0</ns3:cad>
          </ns3:TrackPointExtension>
        </extensions>
      </trkpt>
      <trkpt lat="37.75521825067698955535888671875" lon="-107.7130597271025180816650390625">
        <ele>3580.800048828125</ele>
        <time>2023-07-29T13:40:52.000Z</time>
        <extensions>
          <ns3:TrackPointExtension>
            <ns3:hr>103</ns3:hr>
            <ns3:cad>0</ns3:cad>
          </ns3:TrackPointExtension>
        </extensions>
      </trkpt>
      <trkpt lat="37.75521908886730670928955078125" lon="-107.713056541979312896728515625">
        <ele>3580.800048828125</ele>
        <time>2023-07-29T13:40:53.000Z</time>
        <extensions>
          <ns3:TrackPointExtension>
            <ns3:hr>103</ns3:hr>
            <ns3:cad>0</ns3:cad>
          </ns3:TrackPointExtension>
        </extensions>
      </trkpt>
      <trkpt lat="37.75521992705762386322021484375" lon="-107.7130516804754734039306640625">
        <ele>3580.800048828125</ele>
        <time>2023-07-29T13:40:54.000Z</time>
        <extensions>
          <ns3:TrackPointExtension>
            <ns3:hr>104</ns3:hr>
            <ns3:cad>0</ns3:cad>
          </ns3:TrackPointExtension>
        </extensions>
      </trkpt>
      <trkpt lat="37.75521875359117984771728515625" lon="-107.71304539404809474945068359375">
        <ele>3580.60009765625</ele>
        <time>2023-07-29T13:40:55.000Z</time>
        <extensions>
          <ns3:TrackPointExtension>
            <ns3:hr>103</ns3:hr>
            <ns3:cad>0</ns3:cad>
          </ns3:TrackPointExtension>
        </extensions>
      </trkpt>
      <trkpt lat="37.7552144788205623626708984375" lon="-107.71303198300302028656005859375">
        <ele>3580.60009765625</ele>
        <time>2023-07-29T13:40:56.000Z</time>
        <extensions>
          <ns3:TrackPointExtension>
            <ns3:hr>102</ns3:hr>
            <ns3:cad>0</ns3:cad>
          </ns3:TrackPointExtension>
        </extensions>
      </trkpt>
      <trkpt lat="37.75520970113575458526611328125" lon="-107.71301689557731151580810546875">
        <ele>3580.39990234375</ele>
        <time>2023-07-29T13:40:57.000Z</time>
        <extensions>
          <ns3:TrackPointExtension>
            <ns3:hr>100</ns3:hr>
            <ns3:cad>0</ns3:cad>
          </ns3:TrackPointExtension>
        </extensions>
      </trkpt>
      <trkpt lat="37.7552099525928497314453125" lon="-107.7130064181983470916748046875">
        <ele>3580.199951171875</ele>
        <time>2023-07-29T13:40:58.000Z</time>
        <extensions>
          <ns3:TrackPointExtension>
            <ns3:hr>100</ns3:hr>
            <ns3:cad>0</ns3:cad>
          </ns3:TrackPointExtension>
        </extensions>
      </trkpt>
      <trkpt lat="37.75521489791572093963623046875" lon="-107.713002897799015045166015625">
        <ele>3580.199951171875</ele>
        <time>2023-07-29T13:40:59.000Z</time>
        <extensions>
          <ns3:TrackPointExtension>
            <ns3:hr>99</ns3:hr>
            <ns3:cad>0</ns3:cad>
          </ns3:TrackPointExtension>
        </extensions>
      </trkpt>
      <trkpt lat="37.755215652287006378173828125" lon="-107.713000886142253875732421875">
        <ele>3580</ele>
        <time>2023-07-29T13:41:00.000Z</time>
        <extensions>
          <ns3:TrackPointExtension>
            <ns3:hr>99</ns3:hr>
            <ns3:cad>0</ns3:cad>
          </ns3:TrackPointExtension>
        </extensions>
      </trkpt>
      <trkpt lat="37.755216658115386962890625" lon="-107.71299795247614383697509765625">
        <ele>3580</ele>
        <time>2023-07-29T13:41:01.000Z</time>
        <extensions>
          <ns3:TrackPointExtension>
            <ns3:hr>98</ns3:hr>
            <ns3:cad>0</ns3:cad>
          </ns3:TrackPointExtension>
        </extensions>
      </trkpt>
      <trkpt lat="37.7552201785147190093994140625" lon="-107.71299510262906551361083984375">
        <ele>3579.60009765625</ele>
        <time>2023-07-29T13:41:02.000Z</time>
        <extensions>
          <ns3:TrackPointExtension>
            <ns3:hr>98</ns3:hr>
            <ns3:cad>0</ns3:cad>
          </ns3:TrackPointExtension>
        </extensions>
      </trkpt>
      <trkpt lat="37.7552233636379241943359375" lon="-107.71299191750586032867431640625">
        <ele>3579.39990234375</ele>
        <time>2023-07-29T13:41:03.000Z</time>
        <extensions>
          <ns3:TrackPointExtension>
            <ns3:hr>98</ns3:hr>
            <ns3:cad>0</ns3:cad>
          </ns3:TrackPointExtension>
        </extensions>
      </trkpt>
      <trkpt lat="37.75523073971271514892578125" lon="-107.71299024112522602081298828125">
        <ele>3579.39990234375</ele>
        <time>2023-07-29T13:41:04.000Z</time>
        <extensions>
          <ns3:TrackPointExtension>
            <ns3:hr>97</ns3:hr>
            <ns3:cad>0</ns3:cad>
          </ns3:TrackPointExtension>
        </extensions>
      </trkpt>
      <trkpt lat="37.75523518212139606475830078125" lon="-107.71299493499100208282470703125">
        <ele>3579.39990234375</ele>
        <time>2023-07-29T13:41:05.000Z</time>
        <extensions>
          <ns3:TrackPointExtension>
            <ns3:hr>97</ns3:hr>
            <ns3:cad>0</ns3:cad>
          </ns3:TrackPointExtension>
        </extensions>
      </trkpt>
      <trkpt lat="37.755241133272647857666015625" lon="-107.7130080945789813995361328125">
        <ele>3579.39990234375</ele>
        <time>2023-07-29T13:41:06.000Z</time>
        <extensions>
          <ns3:TrackPointExtension>
            <ns3:hr>96</ns3:hr>
            <ns3:cad>0</ns3:cad>
          </ns3:TrackPointExtension>
        </extensions>
      </trkpt>
      <trkpt lat="37.7552748285233974456787109375" lon="-107.7130285464227199554443359375">
        <ele>3579.199951171875</ele>
        <time>2023-07-29T13:41:07.000Z</time>
        <extensions>
          <ns3:TrackPointExtension>
            <ns3:hr>95</ns3:hr>
            <ns3:cad>0</ns3:cad>
          </ns3:TrackPointExtension>
        </extensions>
      </trkpt>
      <trkpt lat="37.75527072139084339141845703125" lon="-107.71302871406078338623046875">
        <ele>3579.199951171875</ele>
        <time>2023-07-29T13:41:08.000Z</time>
        <extensions>
          <ns3:TrackPointExtension>
            <ns3:hr>93</ns3:hr>
            <ns3:cad>0</ns3:cad>
          </ns3:TrackPointExtension>
        </extensions>
      </trkpt>
      <trkpt lat="37.7552630938589572906494140625" lon="-107.71302108652889728546142578125">
        <ele>3579.199951171875</ele>
        <time>2023-07-29T13:41:09.000Z</time>
        <extensions>
          <ns3:TrackPointExtension>
            <ns3:hr>91</ns3:hr>
            <ns3:cad>0</ns3:cad>
          </ns3:TrackPointExtension>
        </extensions>
      </trkpt>
      <trkpt lat="37.75525462813675403594970703125" lon="-107.71301488392055034637451171875">
        <ele>3579.199951171875</ele>
        <time>2023-07-29T13:41:10.000Z</time>
        <extensions>
          <ns3:TrackPointExtension>
            <ns3:hr>90</ns3:hr>
            <ns3:cad>0</ns3:cad>
          </ns3:TrackPointExtension>
        </extensions>
      </trkpt>
      <trkpt lat="37.75525110773742198944091796875" lon="-107.71301203407347202301025390625">
        <ele>3579.199951171875</ele>
        <time>2023-07-29T13:41:11.000Z</time>
        <extensions>
          <ns3:TrackPointExtension>
            <ns3:hr>90</ns3:hr>
            <ns3:cad>0</ns3:cad>
          </ns3:TrackPointExtension>
        </extensions>
      </trkpt>
      <trkpt lat="37.75524959899485111236572265625" lon="-107.7130124531686305999755859375">
        <ele>3579.199951171875</ele>
        <time>2023-07-29T13:41:12.000Z</time>
        <extensions>
          <ns3:TrackPointExtension>
            <ns3:hr>90</ns3:hr>
            <ns3:cad>0</ns3:cad>
          </ns3:TrackPointExtension>
        </extensions>
      </trkpt>
      <trkpt lat="37.75524951517581939697265625" lon="-107.7130146324634552001953125">
        <ele>3579.199951171875</ele>
        <time>2023-07-29T13:41:13.000Z</time>
        <extensions>
          <ns3:TrackPointExtension>
            <ns3:hr>90</ns3:hr>
            <ns3:cad>0</ns3:cad>
          </ns3:TrackPointExtension>
        </extensions>
      </trkpt>
      <trkpt lat="37.75524909608066082000732421875" lon="-107.7130148001015186309814453125">
        <ele>3579</ele>
        <time>2023-07-29T13:41:14.000Z</time>
        <extensions>
          <ns3:TrackPointExtension>
            <ns3:hr>90</ns3:hr>
            <ns3:cad>0</ns3:cad>
          </ns3:TrackPointExtension>
        </extensions>
      </trkpt>
      <trkpt lat="37.755246497690677642822265625" lon="-107.713009603321552276611328125">
        <ele>3579</ele>
        <time>2023-07-29T13:41:15.000Z</time>
        <extensions>
          <ns3:TrackPointExtension>
            <ns3:hr>90</ns3:hr>
            <ns3:cad>0</ns3:cad>
          </ns3:TrackPointExtension>
        </extensions>
      </trkpt>
      <trkpt lat="37.755243480205535888671875" lon="-107.71300457417964935302734375">
        <ele>3578.800048828125</ele>
        <time>2023-07-29T13:41:16.000Z</time>
        <extensions>
          <ns3:TrackPointExtension>
            <ns3:hr>90</ns3:hr>
            <ns3:cad>0</ns3:cad>
          </ns3:TrackPointExtension>
        </extensions>
      </trkpt>
      <trkpt lat="37.7552409656345844268798828125" lon="-107.71299392916262149810791015625">
        <ele>3578.800048828125</ele>
        <time>2023-07-29T13:41:17.000Z</time>
        <extensions>
          <ns3:TrackPointExtension>
            <ns3:hr>91</ns3:hr>
            <ns3:cad>0</ns3:cad>
          </ns3:TrackPointExtension>
        </extensions>
      </trkpt>
      <trkpt lat="37.75524079799652099609375" lon="-107.71297951228916645050048828125">
        <ele>3578.60009765625</ele>
        <time>2023-07-29T13:41:18.000Z</time>
        <extensions>
          <ns3:TrackPointExtension>
            <ns3:hr>91</ns3:hr>
            <ns3:cad>0</ns3:cad>
          </ns3:TrackPointExtension>
        </extensions>
      </trkpt>
      <trkpt lat="37.75524121709167957305908203125" lon="-107.71296702325344085693359375">
        <ele>3578.39990234375</ele>
        <time>2023-07-29T13:41:19.000Z</time>
        <extensions>
          <ns3:TrackPointExtension>
            <ns3:hr>91</ns3:hr>
            <ns3:cad>0</ns3:cad>
          </ns3:TrackPointExtension>
        </extensions>
      </trkpt>
      <trkpt lat="37.75524037890136241912841796875" lon="-107.71296073682606220245361328125">
        <ele>3578.199951171875</ele>
        <time>2023-07-29T13:41:20.000Z</time>
        <extensions>
          <ns3:TrackPointExtension>
            <ns3:hr>91</ns3:hr>
            <ns3:cad>0</ns3:cad>
          </ns3:TrackPointExtension>
        </extensions>
      </trkpt>
      <trkpt lat="37.755243815481662750244140625" lon="-107.71295168437063694000244140625">
        <ele>3578.199951171875</ele>
        <time>2023-07-29T13:41:21.000Z</time>
        <extensions>
          <ns3:TrackPointExtension>
            <ns3:hr>90</ns3:hr>
            <ns3:cad>0</ns3:cad>
          </ns3:TrackPointExtension>
        </extensions>
      </trkpt>
      <trkpt lat="37.755248844623565673828125" lon="-107.71293190307915210723876953125">
        <ele>3578.199951171875</ele>
        <time>2023-07-29T13:41:22.000Z</time>
        <extensions>
          <ns3:TrackPointExtension>
            <ns3:hr>89</ns3:hr>
            <ns3:cad>0</ns3:cad>
          </ns3:TrackPointExtension>
        </extensions>
      </trkpt>
      <trkpt lat="37.755252532660961151123046875" lon="-107.71291597746312618255615234375">
        <ele>3578</ele>
        <time>2023-07-29T13:41:23.000Z</time>
        <extensions>
          <ns3:TrackPointExtension>
            <ns3:hr>89</ns3:hr>
            <ns3:cad>0</ns3:cad>
          </ns3:TrackPointExtension>
        </extensions>
      </trkpt>
      <trkpt lat="37.75525487959384918212890625" lon="-107.712907679378986358642578125">
        <ele>3578</ele>
        <time>2023-07-29T13:41:24.000Z</time>
        <extensions>
          <ns3:TrackPointExtension>
            <ns3:hr>88</ns3:hr>
            <ns3:cad>0</ns3:cad>
          </ns3:TrackPointExtension>
        </extensions>
      </trkpt>
      <trkpt lat="37.755259238183498382568359375" lon="-107.71289887838065624237060546875">
        <ele>3578</ele>
        <time>2023-07-29T13:41:25.000Z</time>
        <extensions>
          <ns3:TrackPointExtension>
            <ns3:hr>88</ns3:hr>
            <ns3:cad>0</ns3:cad>
          </ns3:TrackPointExtension>
        </extensions>
      </trkpt>
      <trkpt lat="37.75526384823024272918701171875" lon="-107.71288999356329441070556640625">
        <ele>3577.800048828125</ele>
        <time>2023-07-29T13:41:26.000Z</time>
        <extensions>
          <ns3:TrackPointExtension>
            <ns3:hr>88</ns3:hr>
            <ns3:cad>0</ns3:cad>
          </ns3:TrackPointExtension>
        </extensions>
      </trkpt>
      <trkpt lat="37.75526954792439937591552734375" lon="-107.7128778398036956787109375">
        <ele>3577.800048828125</ele>
        <time>2023-07-29T13:41:27.000Z</time>
        <extensions>
          <ns3:TrackPointExtension>
            <ns3:hr>88</ns3:hr>
            <ns3:cad>0</ns3:cad>
          </ns3:TrackPointExtension>
        </extensions>
      </trkpt>
      <trkpt lat="37.75527524761855602264404296875" lon="-107.7128696255385875701904296875">
        <ele>3577.60009765625</ele>
        <time>2023-07-29T13:41:28.000Z</time>
        <extensions>
          <ns3:TrackPointExtension>
            <ns3:hr>88</ns3:hr>
            <ns3:cad>0</ns3:cad>
          </ns3:TrackPointExtension>
        </extensions>
      </trkpt>
      <trkpt lat="37.7552796900272369384765625" lon="-107.712863422930240631103515625">
        <ele>3577.60009765625</ele>
        <time>2023-07-29T13:41:29.000Z</time>
        <extensions>
          <ns3:TrackPointExtension>
            <ns3:hr>88</ns3:hr>
            <ns3:cad>0</ns3:cad>
          </ns3:TrackPointExtension>
        </extensions>
      </trkpt>
      <trkpt lat="37.75528547354042530059814453125" lon="-107.71285705268383026123046875">
        <ele>3577.60009765625</ele>
        <time>2023-07-29T13:41:30.000Z</time>
        <extensions>
          <ns3:TrackPointExtension>
            <ns3:hr>88</ns3:hr>
            <ns3:cad>0</ns3:cad>
          </ns3:TrackPointExtension>
        </extensions>
      </trkpt>
      <trkpt lat="37.75529150851070880889892578125" lon="-107.71285302937030792236328125">
        <ele>3577.60009765625</ele>
        <time>2023-07-29T13:41:31.000Z</time>
        <extensions>
          <ns3:TrackPointExtension>
            <ns3:hr>88</ns3:hr>
            <ns3:cad>0</ns3:cad>
          </ns3:TrackPointExtension>
        </extensions>
      </trkpt>
      <trkpt lat="37.7552959509193897247314453125" lon="-107.71285177208483219146728515625">
        <ele>3577.60009765625</ele>
        <time>2023-07-29T13:41:32.000Z</time>
        <extensions>
          <ns3:TrackPointExtension>
            <ns3:hr>88</ns3:hr>
            <ns3:cad>0</ns3:cad>
          </ns3:TrackPointExtension>
        </extensions>
      </trkpt>
      <trkpt lat="37.7553039975464344024658203125" lon="-107.7128483355045318603515625">
        <ele>3577.60009765625</ele>
        <time>2023-07-29T13:41:33.000Z</time>
        <extensions>
          <ns3:TrackPointExtension>
            <ns3:hr>89</ns3:hr>
            <ns3:cad>0</ns3:cad>
          </ns3:TrackPointExtension>
        </extensions>
      </trkpt>
      <trkpt lat="37.755308859050273895263671875" lon="-107.7128491736948490142822265625">
        <ele>3577.60009765625</ele>
        <time>2023-07-29T13:41:34.000Z</time>
        <extensions>
          <ns3:TrackPointExtension>
            <ns3:hr>89</ns3:hr>
            <ns3:cad>68</ns3:cad>
          </ns3:TrackPointExtension>
        </extensions>
      </trkpt>
      <trkpt lat="37.75532059371471405029296875" lon="-107.71284875459969043731689453125">
        <ele>3577.60009765625</ele>
        <time>2023-07-29T13:41:35.000Z</time>
        <extensions>
          <ns3:TrackPointExtension>
            <ns3:hr>90</ns3:hr>
            <ns3:cad>68</ns3:cad>
          </ns3:TrackPointExtension>
        </extensions>
      </trkpt>
      <trkpt lat="37.75533257983624935150146484375" lon="-107.71284691058099269866943359375">
        <ele>3577.60009765625</ele>
        <time>2023-07-29T13:41:36.000Z</time>
        <extensions>
          <ns3:TrackPointExtension>
            <ns3:hr>91</ns3:hr>
            <ns3:cad>68</ns3:cad>
          </ns3:TrackPointExtension>
        </extensions>
      </trkpt>
      <trkpt lat="37.75532998144626617431640625" lon="-107.7128508500754833221435546875">
        <ele>3577.60009765625</ele>
        <time>2023-07-29T13:41:37.000Z</time>
        <extensions>
          <ns3:TrackPointExtension>
            <ns3:hr>91</ns3:hr>
            <ns3:cad>68</ns3:cad>
          </ns3:TrackPointExtension>
        </extensions>
      </trkpt>
      <trkpt lat="37.755334340035915374755859375" lon="-107.71284858696162700653076171875">
        <ele>3577.60009765625</ele>
        <time>2023-07-29T13:41:38.000Z</time>
        <extensions>
          <ns3:TrackPointExtension>
            <ns3:hr>92</ns3:hr>
            <ns3:cad>0</ns3:cad>
          </ns3:TrackPointExtension>
        </extensions>
      </trkpt>
      <trkpt lat="37.7553467452526092529296875" lon="-107.71284875459969043731689453125">
        <ele>3577.800048828125</ele>
        <time>2023-07-29T13:41:39.000Z</time>
        <extensions>
          <ns3:TrackPointExtension>
            <ns3:hr>93</ns3:hr>
            <ns3:cad>0</ns3:cad>
          </ns3:TrackPointExtension>
        </extensions>
      </trkpt>
      <trkpt lat="37.75535102002322673797607421875" lon="-107.7128510177135467529296875">
        <ele>3577.800048828125</ele>
        <time>2023-07-29T13:41:40.000Z</time>
        <extensions>
          <ns3:TrackPointExtension>
            <ns3:hr>94</ns3:hr>
            <ns3:cad>0</ns3:cad>
          </ns3:TrackPointExtension>
        </extensions>
      </trkpt>
      <trkpt lat="37.7553630061447620391845703125" lon="-107.71285126917064189910888671875">
        <ele>3577.800048828125</ele>
        <time>2023-07-29T13:41:41.000Z</time>
        <extensions>
          <ns3:TrackPointExtension>
            <ns3:hr>94</ns3:hr>
            <ns3:cad>0</ns3:cad>
          </ns3:TrackPointExtension>
        </extensions>
      </trkpt>
      <trkpt lat="37.7553708851337432861328125" lon="-107.712852023541927337646484375">
        <ele>3577.800048828125</ele>
        <time>2023-07-29T13:41:42.000Z</time>
        <extensions>
          <ns3:TrackPointExtension>
            <ns3:hr>94</ns3:hr>
            <ns3:cad>0</ns3:cad>
          </ns3:TrackPointExtension>
        </extensions>
      </trkpt>
      <trkpt lat="37.7553757466375827789306640625" lon="-107.71285126917064189910888671875">
        <ele>3578</ele>
        <time>2023-07-29T13:41:43.000Z</time>
        <extensions>
          <ns3:TrackPointExtension>
            <ns3:hr>95</ns3:hr>
            <ns3:cad>0</ns3:cad>
          </ns3:TrackPointExtension>
        </extensions>
      </trkpt>
      <trkpt lat="37.7553740702569484710693359375" lon="-107.71284791640937328338623046875">
        <ele>3578</ele>
        <time>2023-07-29T13:41:44.000Z</time>
        <extensions>
          <ns3:TrackPointExtension>
            <ns3:hr>95</ns3:hr>
            <ns3:cad>0</ns3:cad>
          </ns3:TrackPointExtension>
        </extensions>
      </trkpt>
      <trkpt lat="37.75537616573274135589599609375" lon="-107.7128377743065357208251953125">
        <ele>3578</ele>
        <time>2023-07-29T13:41:45.000Z</time>
        <extensions>
          <ns3:TrackPointExtension>
            <ns3:hr>94</ns3:hr>
            <ns3:cad>0</ns3:cad>
          </ns3:TrackPointExtension>
        </extensions>
      </trkpt>
      <trkpt lat="37.755380608141422271728515625" lon="-107.71282084286212921142578125">
        <ele>3578.199951171875</ele>
        <time>2023-07-29T13:41:46.000Z</time>
        <extensions>
          <ns3:TrackPointExtension>
            <ns3:hr>93</ns3:hr>
            <ns3:cad>0</ns3:cad>
          </ns3:TrackPointExtension>
        </extensions>
      </trkpt>
      <trkpt lat="37.7553871460258960723876953125" lon="-107.7128027379512786865234375">
        <ele>3578.39990234375</ele>
        <time>2023-07-29T13:41:47.000Z</time>
        <extensions>
          <ns3:TrackPointExtension>
            <ns3:hr>91</ns3:hr>
            <ns3:cad>0</ns3:cad>
          </ns3:TrackPointExtension>
        </extensions>
      </trkpt>
      <trkpt lat="37.7553911693394184112548828125" lon="-107.712791673839092254638671875">
        <ele>3578.39990234375</ele>
        <time>2023-07-29T13:41:48.000Z</time>
        <extensions>
          <ns3:TrackPointExtension>
            <ns3:hr>89</ns3:hr>
            <ns3:cad>0</ns3:cad>
          </ns3:TrackPointExtension>
        </extensions>
      </trkpt>
      <trkpt lat="37.755393683910369873046875" lon="-107.7127780951559543609619140625">
        <ele>3578.39990234375</ele>
        <time>2023-07-29T13:41:49.000Z</time>
        <extensions>
          <ns3:TrackPointExtension>
            <ns3:hr>88</ns3:hr>
            <ns3:cad>0</ns3:cad>
          </ns3:TrackPointExtension>
        </extensions>
      </trkpt>
      <trkpt lat="37.7553995512425899505615234375" lon="-107.71275722421705722808837890625">
        <ele>3578.60009765625</ele>
        <time>2023-07-29T13:41:50.000Z</time>
        <extensions>
          <ns3:TrackPointExtension>
            <ns3:hr>88</ns3:hr>
            <ns3:cad>0</ns3:cad>
          </ns3:TrackPointExtension>
        </extensions>
      </trkpt>
      <trkpt lat="37.755401395261287689208984375" lon="-107.71274046041071414947509765625">
        <ele>3578.60009765625</ele>
        <time>2023-07-29T13:41:51.000Z</time>
        <extensions>
          <ns3:TrackPointExtension>
            <ns3:hr>88</ns3:hr>
            <ns3:cad>0</ns3:cad>
          </ns3:TrackPointExtension>
        </extensions>
      </trkpt>
      <trkpt lat="37.75540231727063655853271484375" lon="-107.71272964775562286376953125">
        <ele>3578.60009765625</ele>
        <time>2023-07-29T13:41:52.000Z</time>
        <extensions>
          <ns3:TrackPointExtension>
            <ns3:hr>89</ns3:hr>
            <ns3:cad>0</ns3:cad>
          </ns3:TrackPointExtension>
        </extensions>
      </trkpt>
      <trkpt lat="37.75540080852806568145751953125" lon="-107.71272453479468822479248046875">
        <ele>3578.60009765625</ele>
        <time>2023-07-29T13:41:53.000Z</time>
        <extensions>
          <ns3:TrackPointExtension>
            <ns3:hr>89</ns3:hr>
            <ns3:cad>0</ns3:cad>
          </ns3:TrackPointExtension>
        </extensions>
      </trkpt>
      <trkpt lat="37.7554002217948436737060546875" lon="-107.71272017620503902435302734375">
        <ele>3578.60009765625</ele>
        <time>2023-07-29T13:41:54.000Z</time>
        <extensions>
          <ns3:TrackPointExtension>
            <ns3:hr>91</ns3:hr>
            <ns3:cad>0</ns3:cad>
          </ns3:TrackPointExtension>
        </extensions>
      </trkpt>
      <trkpt lat="37.75540240108966827392578125" lon="-107.712708525359630584716796875">
        <ele>3578.60009765625</ele>
        <time>2023-07-29T13:41:55.000Z</time>
        <extensions>
          <ns3:TrackPointExtension>
            <ns3:hr>92</ns3:hr>
            <ns3:cad>0</ns3:cad>
          </ns3:TrackPointExtension>
        </extensions>
      </trkpt>
      <trkpt lat="37.7554062567651271820068359375" lon="-107.7126976288855075836181640625">
        <ele>3578.60009765625</ele>
        <time>2023-07-29T13:41:56.000Z</time>
        <extensions>
          <ns3:TrackPointExtension>
            <ns3:hr>92</ns3:hr>
            <ns3:cad>0</ns3:cad>
          </ns3:TrackPointExtension>
        </extensions>
      </trkpt>
      <trkpt lat="37.75541178882122039794921875" lon="-107.71268648095428943634033203125">
        <ele>3578.60009765625</ele>
        <time>2023-07-29T13:41:57.000Z</time>
        <extensions>
          <ns3:TrackPointExtension>
            <ns3:hr>92</ns3:hr>
            <ns3:cad>0</ns3:cad>
          </ns3:TrackPointExtension>
        </extensions>
      </trkpt>
      <trkpt lat="37.75541505776345729827880859375" lon="-107.71267625503242015838623046875">
        <ele>3578.60009765625</ele>
        <time>2023-07-29T13:41:58.000Z</time>
        <extensions>
          <ns3:TrackPointExtension>
            <ns3:hr>93</ns3:hr>
            <ns3:cad>0</ns3:cad>
          </ns3:TrackPointExtension>
        </extensions>
      </trkpt>
      <trkpt lat="37.75541924871504306793212890625" lon="-107.7126753330230712890625">
        <ele>3578.800048828125</ele>
        <time>2023-07-29T13:41:59.000Z</time>
        <extensions>
          <ns3:TrackPointExtension>
            <ns3:hr>93</ns3:hr>
            <ns3:cad>0</ns3:cad>
          </ns3:TrackPointExtension>
        </extensions>
      </trkpt>
      <trkpt lat="37.75542385876178741455078125" lon="-107.7126708067953586578369140625">
        <ele>3578.800048828125</ele>
        <time>2023-07-29T13:42:00.000Z</time>
        <extensions>
          <ns3:TrackPointExtension>
            <ns3:hr>94</ns3:hr>
            <ns3:cad>0</ns3:cad>
          </ns3:TrackPointExtension>
        </extensions>
      </trkpt>
      <trkpt lat="37.75542654097080230712890625" lon="-107.71266753785312175750732421875">
        <ele>3578.800048828125</ele>
        <time>2023-07-29T13:42:01.000Z</time>
        <extensions>
          <ns3:TrackPointExtension>
            <ns3:hr>94</ns3:hr>
            <ns3:cad>0</ns3:cad>
          </ns3:TrackPointExtension>
        </extensions>
      </trkpt>
      <trkpt lat="37.755430899560451507568359375" lon="-107.7126644365489482879638671875">
        <ele>3578.800048828125</ele>
        <time>2023-07-29T13:42:02.000Z</time>
        <extensions>
          <ns3:TrackPointExtension>
            <ns3:hr>94</ns3:hr>
            <ns3:cad>0</ns3:cad>
          </ns3:TrackPointExtension>
        </extensions>
      </trkpt>
      <trkpt lat="37.7554381079971790313720703125" lon="-107.7126641012728214263916015625">
        <ele>3579</ele>
        <time>2023-07-29T13:42:03.000Z</time>
        <extensions>
          <ns3:TrackPointExtension>
            <ns3:hr>94</ns3:hr>
            <ns3:cad>0</ns3:cad>
          </ns3:TrackPointExtension>
        </extensions>
      </trkpt>
      <trkpt lat="37.7554458193480968475341796875" lon="-107.71265613846480846405029296875">
        <ele>3579</ele>
        <time>2023-07-29T13:42:04.000Z</time>
        <extensions>
          <ns3:TrackPointExtension>
            <ns3:hr>93</ns3:hr>
            <ns3:cad>0</ns3:cad>
          </ns3:TrackPointExtension>
        </extensions>
      </trkpt>
      <trkpt lat="37.75545260868966579437255859375" lon="-107.71264809183776378631591796875">
        <ele>3579</ele>
        <time>2023-07-29T13:42:05.000Z</time>
        <extensions>
          <ns3:TrackPointExtension>
            <ns3:hr>94</ns3:hr>
            <ns3:cad>0</ns3:cad>
          </ns3:TrackPointExtension>
        </extensions>
      </trkpt>
      <trkpt lat="37.75545881129801273345947265625" lon="-107.7126391232013702392578125">
        <ele>3579</ele>
        <time>2023-07-29T13:42:06.000Z</time>
        <extensions>
          <ns3:TrackPointExtension>
            <ns3:hr>94</ns3:hr>
            <ns3:cad>0</ns3:cad>
          </ns3:TrackPointExtension>
        </extensions>
      </trkpt>
      <trkpt lat="37.75546384043991565704345703125" lon="-107.7126310765743255615234375">
        <ele>3579</ele>
        <time>2023-07-29T13:42:07.000Z</time>
        <extensions>
          <ns3:TrackPointExtension>
            <ns3:hr>94</ns3:hr>
            <ns3:cad>0</ns3:cad>
          </ns3:TrackPointExtension>
        </extensions>
      </trkpt>
      <trkpt lat="37.75546769611537456512451171875" lon="-107.7126252092421054840087890625">
        <ele>3579</ele>
        <time>2023-07-29T13:42:08.000Z</time>
        <extensions>
          <ns3:TrackPointExtension>
            <ns3:hr>94</ns3:hr>
            <ns3:cad>0</ns3:cad>
          </ns3:TrackPointExtension>
        </extensions>
      </trkpt>
      <trkpt lat="37.75547523982822895050048828125" lon="-107.7126171626150608062744140625">
        <ele>3579</ele>
        <time>2023-07-29T13:42:09.000Z</time>
        <extensions>
          <ns3:TrackPointExtension>
            <ns3:hr>95</ns3:hr>
            <ns3:cad>0</ns3:cad>
          </ns3:TrackPointExtension>
        </extensions>
      </trkpt>
      <trkpt lat="37.755477167665958404541015625" lon="-107.71261489950120449066162109375">
        <ele>3579</ele>
        <time>2023-07-29T13:42:10.000Z</time>
        <extensions>
          <ns3:TrackPointExtension>
            <ns3:hr>95</ns3:hr>
            <ns3:cad>0</ns3:cad>
          </ns3:TrackPointExtension>
        </extensions>
      </trkpt>
      <trkpt lat="37.7554781734943389892578125" lon="-107.71261163055896759033203125">
        <ele>3579.199951171875</ele>
        <time>2023-07-29T13:42:11.000Z</time>
        <extensions>
          <ns3:TrackPointExtension>
            <ns3:hr>95</ns3:hr>
            <ns3:cad>0</ns3:cad>
          </ns3:TrackPointExtension>
        </extensions>
      </trkpt>
      <trkpt lat="37.75548110716044902801513671875" lon="-107.712610624730587005615234375">
        <ele>3579.199951171875</ele>
        <time>2023-07-29T13:42:12.000Z</time>
        <extensions>
          <ns3:TrackPointExtension>
            <ns3:hr>95</ns3:hr>
            <ns3:cad>0</ns3:cad>
          </ns3:TrackPointExtension>
        </extensions>
      </trkpt>
      <trkpt lat="37.75548814795911312103271484375" lon="-107.71260886453092098236083984375">
        <ele>3579.39990234375</ele>
        <time>2023-07-29T13:42:13.000Z</time>
        <extensions>
          <ns3:TrackPointExtension>
            <ns3:hr>95</ns3:hr>
            <ns3:cad>0</ns3:cad>
          </ns3:TrackPointExtension>
        </extensions>
      </trkpt>
      <trkpt lat="37.7554969489574432373046875" lon="-107.7126084454357624053955078125">
        <ele>3579.39990234375</ele>
        <time>2023-07-29T13:42:14.000Z</time>
        <extensions>
          <ns3:TrackPointExtension>
            <ns3:hr>95</ns3:hr>
            <ns3:cad>0</ns3:cad>
          </ns3:TrackPointExtension>
        </extensions>
      </trkpt>
      <trkpt lat="37.7555125392973423004150390625" lon="-107.7126000635325908660888671875">
        <ele>3579.39990234375</ele>
        <time>2023-07-29T13:42:15.000Z</time>
        <extensions>
          <ns3:TrackPointExtension>
            <ns3:hr>94</ns3:hr>
            <ns3:cad>0</ns3:cad>
          </ns3:TrackPointExtension>
        </extensions>
      </trkpt>
      <trkpt lat="37.75552284903824329376220703125" lon="-107.712593860924243927001953125">
        <ele>3579.39990234375</ele>
        <time>2023-07-29T13:42:16.000Z</time>
        <extensions>
          <ns3:TrackPointExtension>
            <ns3:hr>94</ns3:hr>
            <ns3:cad>0</ns3:cad>
          </ns3:TrackPointExtension>
        </extensions>
      </trkpt>
      <trkpt lat="37.755534835159778594970703125" lon="-107.7125896699726581573486328125">
        <ele>3579.39990234375</ele>
        <time>2023-07-29T13:42:17.000Z</time>
        <extensions>
          <ns3:TrackPointExtension>
            <ns3:hr>94</ns3:hr>
            <ns3:cad>0</ns3:cad>
          </ns3:TrackPointExtension>
        </extensions>
      </trkpt>
      <trkpt lat="37.7555396966636180877685546875" lon="-107.71258522756397724151611328125">
        <ele>3579.39990234375</ele>
        <time>2023-07-29T13:42:18.000Z</time>
        <extensions>
          <ns3:TrackPointExtension>
            <ns3:hr>94</ns3:hr>
            <ns3:cad>0</ns3:cad>
          </ns3:TrackPointExtension>
        </extensions>
      </trkpt>
      <trkpt lat="37.755552269518375396728515625" lon="-107.71257952786982059478759765625">
        <ele>3579.39990234375</ele>
        <time>2023-07-29T13:42:19.000Z</time>
        <extensions>
          <ns3:TrackPointExtension>
            <ns3:hr>95</ns3:hr>
            <ns3:cad>0</ns3:cad>
          </ns3:TrackPointExtension>
        </extensions>
      </trkpt>
      <trkpt lat="37.75556006468832492828369140625" lon="-107.7125776000320911407470703125">
        <ele>3579.60009765625</ele>
        <time>2023-07-29T13:42:20.000Z</time>
        <extensions>
          <ns3:TrackPointExtension>
            <ns3:hr>95</ns3:hr>
            <ns3:cad>0</ns3:cad>
          </ns3:TrackPointExtension>
        </extensions>
      </trkpt>
      <trkpt lat="37.75557297281920909881591796875" lon="-107.71257030777633190155029296875">
        <ele>3579.60009765625</ele>
        <time>2023-07-29T13:42:21.000Z</time>
        <extensions>
          <ns3:TrackPointExtension>
            <ns3:hr>95</ns3:hr>
            <ns3:cad>0</ns3:cad>
          </ns3:TrackPointExtension>
        </extensions>
      </trkpt>
      <trkpt lat="37.7555799297988414764404296875" lon="-107.71256511099636554718017578125">
        <ele>3579.60009765625</ele>
        <time>2023-07-29T13:42:22.000Z</time>
        <extensions>
          <ns3:TrackPointExtension>
            <ns3:hr>95</ns3:hr>
            <ns3:cad>0</ns3:cad>
          </ns3:TrackPointExtension>
        </extensions>
      </trkpt>
      <trkpt lat="37.75558370165526866912841796875" lon="-107.71255823783576488494873046875">
        <ele>3579.60009765625</ele>
        <time>2023-07-29T13:42:23.000Z</time>
        <extensions>
          <ns3:TrackPointExtension>
            <ns3:hr>95</ns3:hr>
            <ns3:cad>0</ns3:cad>
          </ns3:TrackPointExtension>
        </extensions>
      </trkpt>
      <trkpt lat="37.7555909939110279083251953125" lon="-107.7125494368374347686767578125">
        <ele>3579.60009765625</ele>
        <time>2023-07-29T13:42:24.000Z</time>
        <extensions>
          <ns3:TrackPointExtension>
            <ns3:hr>96</ns3:hr>
            <ns3:cad>0</ns3:cad>
          </ns3:TrackPointExtension>
        </extensions>
      </trkpt>
      <trkpt lat="37.75559409521520137786865234375" lon="-107.7125444076955318450927734375">
        <ele>3579.60009765625</ele>
        <time>2023-07-29T13:42:25.000Z</time>
        <extensions>
          <ns3:TrackPointExtension>
            <ns3:hr>97</ns3:hr>
            <ns3:cad>0</ns3:cad>
          </ns3:TrackPointExtension>
        </extensions>
      </trkpt>
      <trkpt lat="37.755597531795501708984375" lon="-107.71253912709653377532958984375">
        <ele>3579.60009765625</ele>
        <time>2023-07-29T13:42:26.000Z</time>
        <extensions>
          <ns3:TrackPointExtension>
            <ns3:hr>97</ns3:hr>
            <ns3:cad>0</ns3:cad>
          </ns3:TrackPointExtension>
        </extensions>
      </trkpt>
      <trkpt lat="37.755605243146419525146484375" lon="-107.7125279791653156280517578125">
        <ele>3579.60009765625</ele>
        <time>2023-07-29T13:42:27.000Z</time>
        <extensions>
          <ns3:TrackPointExtension>
            <ns3:hr>98</ns3:hr>
            <ns3:cad>0</ns3:cad>
          </ns3:TrackPointExtension>
        </extensions>
      </trkpt>
      <trkpt lat="37.7556074224412441253662109375" lon="-107.71252311766147613525390625">
        <ele>3579.60009765625</ele>
        <time>2023-07-29T13:42:28.000Z</time>
        <extensions>
          <ns3:TrackPointExtension>
            <ns3:hr>99</ns3:hr>
            <ns3:cad>0</ns3:cad>
          </ns3:TrackPointExtension>
        </extensions>
      </trkpt>
      <trkpt lat="37.75561337359249591827392578125" lon="-107.7125195972621440887451171875">
        <ele>3579.60009765625</ele>
        <time>2023-07-29T13:42:29.000Z</time>
        <extensions>
          <ns3:TrackPointExtension>
            <ns3:hr>100</ns3:hr>
            <ns3:cad>0</ns3:cad>
          </ns3:TrackPointExtension>
        </extensions>
      </trkpt>
      <trkpt lat="37.75561722926795482635498046875" lon="-107.71251800470054149627685546875">
        <ele>3579.800048828125</ele>
        <time>2023-07-29T13:42:30.000Z</time>
        <extensions>
          <ns3:TrackPointExtension>
            <ns3:hr>99</ns3:hr>
            <ns3:cad>0</ns3:cad>
          </ns3:TrackPointExtension>
        </extensions>
      </trkpt>
      <trkpt lat="37.75562209077179431915283203125" lon="-107.71251582540571689605712890625">
        <ele>3579.800048828125</ele>
        <time>2023-07-29T13:42:31.000Z</time>
        <extensions>
          <ns3:TrackPointExtension>
            <ns3:hr>99</ns3:hr>
            <ns3:cad>0</ns3:cad>
          </ns3:TrackPointExtension>
        </extensions>
      </trkpt>
      <trkpt lat="37.7556292153894901275634765625" lon="-107.7125135622918605804443359375">
        <ele>3579.800048828125</ele>
        <time>2023-07-29T13:42:32.000Z</time>
        <extensions>
          <ns3:TrackPointExtension>
            <ns3:hr>99</ns3:hr>
            <ns3:cad>0</ns3:cad>
          </ns3:TrackPointExtension>
        </extensions>
      </trkpt>
      <trkpt lat="37.755633406341075897216796875" lon="-107.71251800470054149627685546875">
        <ele>3579.800048828125</ele>
        <time>2023-07-29T13:42:33.000Z</time>
        <extensions>
          <ns3:TrackPointExtension>
            <ns3:hr>98</ns3:hr>
            <ns3:cad>0</ns3:cad>
          </ns3:TrackPointExtension>
        </extensions>
      </trkpt>
      <trkpt lat="37.75563399307429790496826171875" lon="-107.71252102218568325042724609375">
        <ele>3579.800048828125</ele>
        <time>2023-07-29T13:42:34.000Z</time>
        <extensions>
          <ns3:TrackPointExtension>
            <ns3:hr>98</ns3:hr>
            <ns3:cad>0</ns3:cad>
          </ns3:TrackPointExtension>
        </extensions>
      </trkpt>
      <trkpt lat="37.7556365914642810821533203125" lon="-107.71252504549920558929443359375">
        <ele>3580</ele>
        <time>2023-07-29T13:42:35.000Z</time>
        <extensions>
          <ns3:TrackPointExtension>
            <ns3:hr>98</ns3:hr>
            <ns3:cad>0</ns3:cad>
          </ns3:TrackPointExtension>
        </extensions>
      </trkpt>
      <trkpt lat="37.75564438663423061370849609375" lon="-107.71252437494695186614990234375">
        <ele>3580.39990234375</ele>
        <time>2023-07-29T13:42:36.000Z</time>
        <extensions>
          <ns3:TrackPointExtension>
            <ns3:hr>98</ns3:hr>
            <ns3:cad>0</ns3:cad>
          </ns3:TrackPointExtension>
        </extensions>
      </trkpt>
      <trkpt lat="37.75565545074641704559326171875" lon="-107.71252756007015705108642578125">
        <ele>3580.39990234375</ele>
        <time>2023-07-29T13:42:37.000Z</time>
        <extensions>
          <ns3:TrackPointExtension>
            <ns3:hr>100</ns3:hr>
            <ns3:cad>0</ns3:cad>
          </ns3:TrackPointExtension>
        </extensions>
      </trkpt>
      <trkpt lat="37.75565645657479763031005859375" lon="-107.7125286497175693511962890625">
        <ele>3580.60009765625</ele>
        <time>2023-07-29T13:42:38.000Z</time>
        <extensions>
          <ns3:TrackPointExtension>
            <ns3:hr>104</ns3:hr>
            <ns3:cad>0</ns3:cad>
          </ns3:TrackPointExtension>
        </extensions>
      </trkpt>
      <trkpt lat="37.755628712475299835205078125" lon="-107.71252923645079135894775390625">
        <ele>3581</ele>
        <time>2023-07-29T13:42:39.000Z</time>
        <extensions>
          <ns3:TrackPointExtension>
            <ns3:hr>106</ns3:hr>
            <ns3:cad>0</ns3:cad>
          </ns3:TrackPointExtension>
        </extensions>
      </trkpt>
      <trkpt lat="37.75565763004124164581298828125" lon="-107.7125242911279201507568359375">
        <ele>3581.199951171875</ele>
        <time>2023-07-29T13:42:40.000Z</time>
        <extensions>
          <ns3:TrackPointExtension>
            <ns3:hr>106</ns3:hr>
            <ns3:cad>0</ns3:cad>
          </ns3:TrackPointExtension>
        </extensions>
      </trkpt>
      <trkpt lat="37.75566483847796916961669921875" lon="-107.71251984871923923492431640625">
        <ele>3581.199951171875</ele>
        <time>2023-07-29T13:42:41.000Z</time>
        <extensions>
          <ns3:TrackPointExtension>
            <ns3:hr>107</ns3:hr>
            <ns3:cad>0</ns3:cad>
          </ns3:TrackPointExtension>
        </extensions>
      </trkpt>
      <trkpt lat="37.7556645870208740234375" lon="-107.7125169150531291961669921875">
        <ele>3581.39990234375</ele>
        <time>2023-07-29T13:42:42.000Z</time>
        <extensions>
          <ns3:TrackPointExtension>
            <ns3:hr>107</ns3:hr>
            <ns3:cad>0</ns3:cad>
          </ns3:TrackPointExtension>
        </extensions>
      </trkpt>
      <trkpt lat="37.7556686103343963623046875" lon="-107.71251372992992401123046875">
        <ele>3581.39990234375</ele>
        <time>2023-07-29T13:42:43.000Z</time>
        <extensions>
          <ns3:TrackPointExtension>
            <ns3:hr>107</ns3:hr>
            <ns3:cad>0</ns3:cad>
          </ns3:TrackPointExtension>
        </extensions>
      </trkpt>
      <trkpt lat="37.7556712925434112548828125" lon="-107.71250878460705280303955078125">
        <ele>3581.39990234375</ele>
        <time>2023-07-29T13:42:44.000Z</time>
        <extensions>
          <ns3:TrackPointExtension>
            <ns3:hr>106</ns3:hr>
            <ns3:cad>0</ns3:cad>
          </ns3:TrackPointExtension>
        </extensions>
      </trkpt>
      <trkpt lat="37.7556677721440792083740234375" lon="-107.712504677474498748779296875">
        <ele>3581.60009765625</ele>
        <time>2023-07-29T13:42:45.000Z</time>
        <extensions>
          <ns3:TrackPointExtension>
            <ns3:hr>106</ns3:hr>
            <ns3:cad>0</ns3:cad>
          </ns3:TrackPointExtension>
        </extensions>
      </trkpt>
      <trkpt lat="37.7556721307337284088134765625" lon="-107.71251280792057514190673828125">
        <ele>3581.60009765625</ele>
        <time>2023-07-29T13:42:46.000Z</time>
        <extensions>
          <ns3:TrackPointExtension>
            <ns3:hr>105</ns3:hr>
            <ns3:cad>0</ns3:cad>
          </ns3:TrackPointExtension>
        </extensions>
      </trkpt>
      <trkpt lat="37.75565377436578273773193359375" lon="-107.71249755285680294036865234375">
        <ele>3581.60009765625</ele>
        <time>2023-07-29T13:42:47.000Z</time>
        <extensions>
          <ns3:TrackPointExtension>
            <ns3:hr>105</ns3:hr>
            <ns3:cad>0</ns3:cad>
          </ns3:TrackPointExtension>
        </extensions>
      </trkpt>
      <trkpt lat="37.75564438663423061370849609375" lon="-107.71249269135296344757080078125">
        <ele>3581.60009765625</ele>
        <time>2023-07-29T13:42:48.000Z</time>
        <extensions>
          <ns3:TrackPointExtension>
            <ns3:hr>105</ns3:hr>
            <ns3:cad>0</ns3:cad>
          </ns3:TrackPointExtension>
        </extensions>
      </trkpt>
      <trkpt lat="37.75564036332070827484130859375" lon="-107.71249067969620227813720703125">
        <ele>3581.60009765625</ele>
        <time>2023-07-29T13:42:49.000Z</time>
        <extensions>
          <ns3:TrackPointExtension>
            <ns3:hr>104</ns3:hr>
            <ns3:cad>0</ns3:cad>
          </ns3:TrackPointExtension>
        </extensions>
      </trkpt>
      <trkpt lat="37.7556372620165348052978515625" lon="-107.7124890871345996856689453125">
        <ele>3581.60009765625</ele>
        <time>2023-07-29T13:42:50.000Z</time>
        <extensions>
          <ns3:TrackPointExtension>
            <ns3:hr>105</ns3:hr>
            <ns3:cad>0</ns3:cad>
          </ns3:TrackPointExtension>
        </extensions>
      </trkpt>
      <trkpt lat="37.7556396089494228363037109375" lon="-107.71249118261039257049560546875">
        <ele>3581.60009765625</ele>
        <time>2023-07-29T13:42:51.000Z</time>
        <extensions>
          <ns3:TrackPointExtension>
            <ns3:hr>105</ns3:hr>
            <ns3:cad>0</ns3:cad>
          </ns3:TrackPointExtension>
        </extensions>
      </trkpt>
      <trkpt lat="37.75563214905560016632080078125" lon="-107.71248766221106052398681640625">
        <ele>3581.60009765625</ele>
        <time>2023-07-29T13:42:52.000Z</time>
        <extensions>
          <ns3:TrackPointExtension>
            <ns3:hr>105</ns3:hr>
            <ns3:cad>0</ns3:cad>
          </ns3:TrackPointExtension>
        </extensions>
      </trkpt>
      <trkpt lat="37.75562963448464870452880859375" lon="-107.71248447708785533905029296875">
        <ele>3581.800048828125</ele>
        <time>2023-07-29T13:42:53.000Z</time>
        <extensions>
          <ns3:TrackPointExtension>
            <ns3:hr>105</ns3:hr>
            <ns3:cad>0</ns3:cad>
          </ns3:TrackPointExtension>
        </extensions>
      </trkpt>
      <trkpt lat="37.7556345798075199127197265625" lon="-107.71248078905045986175537109375">
        <ele>3581.60009765625</ele>
        <time>2023-07-29T13:42:54.000Z</time>
        <extensions>
          <ns3:TrackPointExtension>
            <ns3:hr>105</ns3:hr>
            <ns3:cad>0</ns3:cad>
          </ns3:TrackPointExtension>
        </extensions>
      </trkpt>
      <trkpt lat="37.7556436322629451751708984375" lon="-107.7124783582985401153564453125">
        <ele>3581.60009765625</ele>
        <time>2023-07-29T13:42:55.000Z</time>
        <extensions>
          <ns3:TrackPointExtension>
            <ns3:hr>105</ns3:hr>
            <ns3:cad>0</ns3:cad>
          </ns3:TrackPointExtension>
        </extensions>
      </trkpt>
      <trkpt lat="37.755654193460941314697265625" lon="-107.71247307769954204559326171875">
        <ele>3581.60009765625</ele>
        <time>2023-07-29T13:42:56.000Z</time>
        <extensions>
          <ns3:TrackPointExtension>
            <ns3:hr>105</ns3:hr>
            <ns3:cad>0</ns3:cad>
          </ns3:TrackPointExtension>
        </extensions>
      </trkpt>
      <trkpt lat="37.75566182099282741546630859375" lon="-107.7124674618244171142578125">
        <ele>3581.60009765625</ele>
        <time>2023-07-29T13:42:57.000Z</time>
        <extensions>
          <ns3:TrackPointExtension>
            <ns3:hr>105</ns3:hr>
            <ns3:cad>0</ns3:cad>
          </ns3:TrackPointExtension>
        </extensions>
      </trkpt>
      <trkpt lat="37.755667604506015777587890625" lon="-107.71245731972157955169677734375">
        <ele>3581.60009765625</ele>
        <time>2023-07-29T13:42:58.000Z</time>
        <extensions>
          <ns3:TrackPointExtension>
            <ns3:hr>105</ns3:hr>
            <ns3:cad>0</ns3:cad>
          </ns3:TrackPointExtension>
        </extensions>
      </trkpt>
      <trkpt lat="37.75567355565726757049560546875" lon="-107.71245111711323261260986328125">
        <ele>3581.60009765625</ele>
        <time>2023-07-29T13:42:59.000Z</time>
        <extensions>
          <ns3:TrackPointExtension>
            <ns3:hr>106</ns3:hr>
            <ns3:cad>0</ns3:cad>
          </ns3:TrackPointExtension>
        </extensions>
      </trkpt>
      <trkpt lat="37.75568227283656597137451171875" lon="-107.71244105882942676544189453125">
        <ele>3581.39990234375</ele>
        <time>2023-07-29T13:43:00.000Z</time>
        <extensions>
          <ns3:TrackPointExtension>
            <ns3:hr>106</ns3:hr>
            <ns3:cad>50</ns3:cad>
          </ns3:TrackPointExtension>
        </extensions>
      </trkpt>
      <trkpt lat="37.75568629615008831024169921875" lon="-107.71243460476398468017578125">
        <ele>3581.39990234375</ele>
        <time>2023-07-29T13:43:01.000Z</time>
        <extensions>
          <ns3:TrackPointExtension>
            <ns3:hr>107</ns3:hr>
            <ns3:cad>50</ns3:cad>
          </ns3:TrackPointExtension>
        </extensions>
      </trkpt>
      <trkpt lat="37.7556885592639446258544921875" lon="-107.7124307490885257720947265625">
        <ele>3581.39990234375</ele>
        <time>2023-07-29T13:43:02.000Z</time>
        <extensions>
          <ns3:TrackPointExtension>
            <ns3:hr>107</ns3:hr>
            <ns3:cad>50</ns3:cad>
          </ns3:TrackPointExtension>
        </extensions>
      </trkpt>
      <trkpt lat="37.75568830780684947967529296875" lon="-107.712429575622081756591796875">
        <ele>3581.39990234375</ele>
        <time>2023-07-29T13:43:03.000Z</time>
        <extensions>
          <ns3:TrackPointExtension>
            <ns3:hr>107</ns3:hr>
            <ns3:cad>0</ns3:cad>
          </ns3:TrackPointExtension>
        </extensions>
      </trkpt>
      <trkpt lat="37.7556882239878177642822265625" lon="-107.7124245464801788330078125">
        <ele>3581.60009765625</ele>
        <time>2023-07-29T13:43:04.000Z</time>
        <extensions>
          <ns3:TrackPointExtension>
            <ns3:hr>107</ns3:hr>
            <ns3:cad>0</ns3:cad>
          </ns3:TrackPointExtension>
        </extensions>
      </trkpt>
      <trkpt lat="37.7556905709207057952880859375" lon="-107.71241842769086360931396484375">
        <ele>3581.60009765625</ele>
        <time>2023-07-29T13:43:05.000Z</time>
        <extensions>
          <ns3:TrackPointExtension>
            <ns3:hr>107</ns3:hr>
            <ns3:cad>0</ns3:cad>
          </ns3:TrackPointExtension>
        </extensions>
      </trkpt>
      <trkpt lat="37.75569476187229156494140625" lon="-107.71241247653961181640625">
        <ele>3581.60009765625</ele>
        <time>2023-07-29T13:43:06.000Z</time>
        <extensions>
          <ns3:TrackPointExtension>
            <ns3:hr>106</ns3:hr>
            <ns3:cad>0</ns3:cad>
          </ns3:TrackPointExtension>
        </extensions>
      </trkpt>
      <trkpt lat="37.7556999586522579193115234375" lon="-107.7124025858938694000244140625">
        <ele>3581.800048828125</ele>
        <time>2023-07-29T13:43:07.000Z</time>
        <extensions>
          <ns3:TrackPointExtension>
            <ns3:hr>106</ns3:hr>
            <ns3:cad>0</ns3:cad>
          </ns3:TrackPointExtension>
        </extensions>
      </trkpt>
      <trkpt lat="37.75570473633706569671630859375" lon="-107.71239261142909526824951171875">
        <ele>3581.800048828125</ele>
        <time>2023-07-29T13:43:08.000Z</time>
        <extensions>
          <ns3:TrackPointExtension>
            <ns3:hr>106</ns3:hr>
            <ns3:cad>0</ns3:cad>
          </ns3:TrackPointExtension>
        </extensions>
      </trkpt>
      <trkpt lat="37.755708508193492889404296875" lon="-107.7123841457068920135498046875">
        <ele>3581.800048828125</ele>
        <time>2023-07-29T13:43:09.000Z</time>
        <extensions>
          <ns3:TrackPointExtension>
            <ns3:hr>106</ns3:hr>
            <ns3:cad>0</ns3:cad>
          </ns3:TrackPointExtension>
        </extensions>
      </trkpt>
      <trkpt lat="37.75571613572537899017333984375" lon="-107.71237165667116641998291015625">
        <ele>3581.800048828125</ele>
        <time>2023-07-29T13:43:10.000Z</time>
        <extensions>
          <ns3:TrackPointExtension>
            <ns3:hr>106</ns3:hr>
            <ns3:cad>0</ns3:cad>
          </ns3:TrackPointExtension>
        </extensions>
      </trkpt>
      <trkpt lat="37.755721248686313629150390625" lon="-107.7123583294451236724853515625">
        <ele>3581.800048828125</ele>
        <time>2023-07-29T13:43:11.000Z</time>
        <extensions>
          <ns3:TrackPointExtension>
            <ns3:hr>106</ns3:hr>
            <ns3:cad>0</ns3:cad>
          </ns3:TrackPointExtension>
        </extensions>
      </trkpt>
      <trkpt lat="37.75572401471436023712158203125" lon="-107.71235413849353790283203125">
        <ele>3581.800048828125</ele>
        <time>2023-07-29T13:43:12.000Z</time>
        <extensions>
          <ns3:TrackPointExtension>
            <ns3:hr>107</ns3:hr>
            <ns3:cad>41</ns3:cad>
          </ns3:TrackPointExtension>
        </extensions>
      </trkpt>
      <trkpt lat="37.7557257749140262603759765625" lon="-107.71235003136098384857177734375">
        <ele>3581.800048828125</ele>
        <time>2023-07-29T13:43:13.000Z</time>
        <extensions>
          <ns3:TrackPointExtension>
            <ns3:hr>107</ns3:hr>
            <ns3:cad>41</ns3:cad>
          </ns3:TrackPointExtension>
        </extensions>
      </trkpt>
      <trkpt lat="37.75572988204658031463623046875" lon="-107.71234349347651004791259765625">
        <ele>3582</ele>
        <time>2023-07-29T13:43:14.000Z</time>
        <extensions>
          <ns3:TrackPointExtension>
            <ns3:hr>107</ns3:hr>
            <ns3:cad>0</ns3:cad>
          </ns3:TrackPointExtension>
        </extensions>
      </trkpt>
      <trkpt lat="37.7557328157126903533935546875" lon="-107.712342403829097747802734375">
        <ele>3582</ele>
        <time>2023-07-29T13:43:15.000Z</time>
        <extensions>
          <ns3:TrackPointExtension>
            <ns3:hr>107</ns3:hr>
            <ns3:cad>0</ns3:cad>
          </ns3:TrackPointExtension>
        </extensions>
      </trkpt>
      <trkpt lat="37.75573357008397579193115234375" lon="-107.71234248764812946319580078125">
        <ele>3582.199951171875</ele>
        <time>2023-07-29T13:43:16.000Z</time>
        <extensions>
          <ns3:TrackPointExtension>
            <ns3:hr>107</ns3:hr>
            <ns3:cad>0</ns3:cad>
          </ns3:TrackPointExtension>
        </extensions>
      </trkpt>
      <trkpt lat="37.75573289953172206878662109375" lon="-107.71234382875263690948486328125">
        <ele>3582.199951171875</ele>
        <time>2023-07-29T13:43:17.000Z</time>
        <extensions>
          <ns3:TrackPointExtension>
            <ns3:hr>107</ns3:hr>
            <ns3:cad>0</ns3:cad>
          </ns3:TrackPointExtension>
        </extensions>
      </trkpt>
      <trkpt lat="37.75573072023689746856689453125" lon="-107.71234986372292041778564453125">
        <ele>3582.199951171875</ele>
        <time>2023-07-29T13:43:18.000Z</time>
        <extensions>
          <ns3:TrackPointExtension>
            <ns3:hr>106</ns3:hr>
            <ns3:cad>0</ns3:cad>
          </ns3:TrackPointExtension>
        </extensions>
      </trkpt>
      <trkpt lat="37.75572904385626316070556640625" lon="-107.712354473769664764404296875">
        <ele>3582.199951171875</ele>
        <time>2023-07-29T13:43:19.000Z</time>
        <extensions>
          <ns3:TrackPointExtension>
            <ns3:hr>106</ns3:hr>
            <ns3:cad>0</ns3:cad>
          </ns3:TrackPointExtension>
        </extensions>
      </trkpt>
      <trkpt lat="37.7557271160185337066650390625" lon="-107.71235975436866283416748046875">
        <ele>3582.39990234375</ele>
        <time>2023-07-29T13:43:20.000Z</time>
        <extensions>
          <ns3:TrackPointExtension>
            <ns3:hr>106</ns3:hr>
            <ns3:cad>0</ns3:cad>
          </ns3:TrackPointExtension>
        </extensions>
      </trkpt>
      <trkpt lat="37.7557247690856456756591796875" lon="-107.71236352622509002685546875">
        <ele>3582.39990234375</ele>
        <time>2023-07-29T13:43:21.000Z</time>
        <extensions>
          <ns3:TrackPointExtension>
            <ns3:hr>105</ns3:hr>
            <ns3:cad>0</ns3:cad>
          </ns3:TrackPointExtension>
        </extensions>
      </trkpt>
      <trkpt lat="37.75572854094207286834716796875" lon="-107.712366543710231781005859375">
        <ele>3582.39990234375</ele>
        <time>2023-07-29T13:43:22.000Z</time>
        <extensions>
          <ns3:TrackPointExtension>
            <ns3:hr>104</ns3:hr>
            <ns3:cad>0</ns3:cad>
          </ns3:TrackPointExtension>
        </extensions>
      </trkpt>
      <trkpt lat="37.7557324804365634918212890625" lon="-107.712366543710231781005859375">
        <ele>3582.39990234375</ele>
        <time>2023-07-29T13:43:23.000Z</time>
        <extensions>
          <ns3:TrackPointExtension>
            <ns3:hr>103</ns3:hr>
            <ns3:cad>0</ns3:cad>
          </ns3:TrackPointExtension>
        </extensions>
      </trkpt>
      <trkpt lat="37.75573558174073696136474609375" lon="-107.71235975436866283416748046875">
        <ele>3582.39990234375</ele>
        <time>2023-07-29T13:43:24.000Z</time>
        <extensions>
          <ns3:TrackPointExtension>
            <ns3:hr>103</ns3:hr>
            <ns3:cad>0</ns3:cad>
          </ns3:TrackPointExtension>
        </extensions>
      </trkpt>
      <trkpt lat="37.7557391859591007232666015625" lon="-107.7123569883406162261962890625">
        <ele>3582.39990234375</ele>
        <time>2023-07-29T13:43:25.000Z</time>
        <extensions>
          <ns3:TrackPointExtension>
            <ns3:hr>102</ns3:hr>
            <ns3:cad>0</ns3:cad>
          </ns3:TrackPointExtension>
        </extensions>
      </trkpt>
      <trkpt lat="37.75573994033038616180419921875" lon="-107.7123553119599819183349609375">
        <ele>3582.60009765625</ele>
        <time>2023-07-29T13:43:26.000Z</time>
        <extensions>
          <ns3:TrackPointExtension>
            <ns3:hr>101</ns3:hr>
            <ns3:cad>0</ns3:cad>
          </ns3:TrackPointExtension>
        </extensions>
      </trkpt>
      <trkpt lat="37.75574480183422565460205078125" lon="-107.712359167635440826416015625">
        <ele>3582.60009765625</ele>
        <time>2023-07-29T13:43:27.000Z</time>
        <extensions>
          <ns3:TrackPointExtension>
            <ns3:hr>100</ns3:hr>
            <ns3:cad>0</ns3:cad>
          </ns3:TrackPointExtension>
        </extensions>
      </trkpt>
      <trkpt lat="37.7557525970041751861572265625" lon="-107.7123636938631534576416015625">
        <ele>3582.60009765625</ele>
        <time>2023-07-29T13:43:28.000Z</time>
        <extensions>
          <ns3:TrackPointExtension>
            <ns3:hr>99</ns3:hr>
            <ns3:cad>0</ns3:cad>
          </ns3:TrackPointExtension>
        </extensions>
      </trkpt>
      <trkpt lat="37.75575888343155384063720703125" lon="-107.71236444823443889617919921875">
        <ele>3582.60009765625</ele>
        <time>2023-07-29T13:43:29.000Z</time>
        <extensions>
          <ns3:TrackPointExtension>
            <ns3:hr>98</ns3:hr>
            <ns3:cad>0</ns3:cad>
          </ns3:TrackPointExtension>
        </extensions>
      </trkpt>
      <trkpt lat="37.75576223619282245635986328125" lon="-107.712362520396709442138671875">
        <ele>3582.60009765625</ele>
        <time>2023-07-29T13:43:30.000Z</time>
        <extensions>
          <ns3:TrackPointExtension>
            <ns3:hr>97</ns3:hr>
            <ns3:cad>0</ns3:cad>
          </ns3:TrackPointExtension>
        </extensions>
      </trkpt>
      <trkpt lat="37.755762822926044464111328125" lon="-107.7123569883406162261962890625">
        <ele>3582.39990234375</ele>
        <time>2023-07-29T13:43:31.000Z</time>
        <extensions>
          <ns3:TrackPointExtension>
            <ns3:hr>97</ns3:hr>
            <ns3:cad>0</ns3:cad>
          </ns3:TrackPointExtension>
        </extensions>
      </trkpt>
      <trkpt lat="37.7557606436312198638916015625" lon="-107.7123522944748401641845703125">
        <ele>3582.60009765625</ele>
        <time>2023-07-29T13:43:32.000Z</time>
        <extensions>
          <ns3:TrackPointExtension>
            <ns3:hr>97</ns3:hr>
            <ns3:cad>0</ns3:cad>
          </ns3:TrackPointExtension>
        </extensions>
      </trkpt>
      <trkpt lat="37.75576290674507617950439453125" lon="-107.71235053427517414093017578125">
        <ele>3582.60009765625</ele>
        <time>2023-07-29T13:43:33.000Z</time>
        <extensions>
          <ns3:TrackPointExtension>
            <ns3:hr>94</ns3:hr>
            <ns3:cad>0</ns3:cad>
          </ns3:TrackPointExtension>
        </extensions>
      </trkpt>
      <trkpt lat="37.755764164030551910400390625" lon="-107.71235221065580844879150390625">
        <ele>3582.60009765625</ele>
        <time>2023-07-29T13:43:34.000Z</time>
        <extensions>
          <ns3:TrackPointExtension>
            <ns3:hr>92</ns3:hr>
            <ns3:cad>0</ns3:cad>
          </ns3:TrackPointExtension>
        </extensions>
      </trkpt>
      <trkpt lat="37.75577112101018428802490234375" lon="-107.7123533003032207489013671875">
        <ele>3582.60009765625</ele>
        <time>2023-07-29T13:43:35.000Z</time>
        <extensions>
          <ns3:TrackPointExtension>
            <ns3:hr>92</ns3:hr>
            <ns3:cad>0</ns3:cad>
          </ns3:TrackPointExtension>
        </extensions>
      </trkpt>
      <trkpt lat="37.75577128864824771881103515625" lon="-107.71235070191323757171630859375">
        <ele>3582.60009765625</ele>
        <time>2023-07-29T13:43:36.000Z</time>
        <extensions>
          <ns3:TrackPointExtension>
            <ns3:hr>92</ns3:hr>
            <ns3:cad>0</ns3:cad>
          </ns3:TrackPointExtension>
        </extensions>
      </trkpt>
      <trkpt lat="37.75577430613338947296142578125" lon="-107.7123465947806835174560546875">
        <ele>3582.800048828125</ele>
        <time>2023-07-29T13:43:37.000Z</time>
        <extensions>
          <ns3:TrackPointExtension>
            <ns3:hr>91</ns3:hr>
            <ns3:cad>0</ns3:cad>
          </ns3:TrackPointExtension>
        </extensions>
      </trkpt>
      <trkpt lat="37.75577581487596035003662109375" lon="-107.7123432420194149017333984375">
        <ele>3582.800048828125</ele>
        <time>2023-07-29T13:43:38.000Z</time>
        <extensions>
          <ns3:TrackPointExtension>
            <ns3:hr>91</ns3:hr>
            <ns3:cad>0</ns3:cad>
          </ns3:TrackPointExtension>
        </extensions>
      </trkpt>
      <trkpt lat="37.75578000582754611968994140625" lon="-107.7123415656387805938720703125">
        <ele>3582.800048828125</ele>
        <time>2023-07-29T13:43:39.000Z</time>
        <extensions>
          <ns3:TrackPointExtension>
            <ns3:hr>91</ns3:hr>
            <ns3:cad>0</ns3:cad>
          </ns3:TrackPointExtension>
        </extensions>
      </trkpt>
      <trkpt lat="37.7557817660272121429443359375" lon="-107.7123442478477954864501953125">
        <ele>3583</ele>
        <time>2023-07-29T13:43:40.000Z</time>
        <extensions>
          <ns3:TrackPointExtension>
            <ns3:hr>90</ns3:hr>
            <ns3:cad>0</ns3:cad>
          </ns3:TrackPointExtension>
        </extensions>
      </trkpt>
      <trkpt lat="37.75578503496944904327392578125" lon="-107.71234835498034954071044921875">
        <ele>3583</ele>
        <time>2023-07-29T13:43:41.000Z</time>
        <extensions>
          <ns3:TrackPointExtension>
            <ns3:hr>90</ns3:hr>
            <ns3:cad>0</ns3:cad>
          </ns3:TrackPointExtension>
        </extensions>
      </trkpt>
      <trkpt lat="37.7557867951691150665283203125" lon="-107.71235522814095020294189453125">
        <ele>3583.199951171875</ele>
        <time>2023-07-29T13:43:42.000Z</time>
        <extensions>
          <ns3:TrackPointExtension>
            <ns3:hr>89</ns3:hr>
            <ns3:cad>0</ns3:cad>
          </ns3:TrackPointExtension>
        </extensions>
      </trkpt>
      <trkpt lat="37.7557881362736225128173828125" lon="-107.71236629225313663482666015625">
        <ele>3583.199951171875</ele>
        <time>2023-07-29T13:43:43.000Z</time>
        <extensions>
          <ns3:TrackPointExtension>
            <ns3:hr>88</ns3:hr>
            <ns3:cad>0</ns3:cad>
          </ns3:TrackPointExtension>
        </extensions>
      </trkpt>
      <trkpt lat="37.7557931654155254364013671875" lon="-107.7123735845088958740234375">
        <ele>3583.39990234375</ele>
        <time>2023-07-29T13:43:44.000Z</time>
        <extensions>
          <ns3:TrackPointExtension>
            <ns3:hr>88</ns3:hr>
            <ns3:cad>0</ns3:cad>
          </ns3:TrackPointExtension>
        </extensions>
      </trkpt>
      <trkpt lat="37.755797691643238067626953125" lon="-107.71238020621240139007568359375">
        <ele>3583.60009765625</ele>
        <time>2023-07-29T13:43:45.000Z</time>
        <extensions>
          <ns3:TrackPointExtension>
            <ns3:hr>88</ns3:hr>
            <ns3:cad>0</ns3:cad>
          </ns3:TrackPointExtension>
        </extensions>
      </trkpt>
      <trkpt lat="37.75580062530934810638427734375" lon="-107.7123878337442874908447265625">
        <ele>3583.60009765625</ele>
        <time>2023-07-29T13:43:46.000Z</time>
        <extensions>
          <ns3:TrackPointExtension>
            <ns3:hr>87</ns3:hr>
            <ns3:cad>0</ns3:cad>
          </ns3:TrackPointExtension>
        </extensions>
      </trkpt>
      <trkpt lat="37.7558059059083461761474609375" lon="-107.71239294670522212982177734375">
        <ele>3584</ele>
        <time>2023-07-29T13:43:47.000Z</time>
        <extensions>
          <ns3:TrackPointExtension>
            <ns3:hr>87</ns3:hr>
            <ns3:cad>0</ns3:cad>
          </ns3:TrackPointExtension>
        </extensions>
      </trkpt>
      <trkpt lat="37.75580934248864650726318359375" lon="-107.71239177323877811431884765625">
        <ele>3584.199951171875</ele>
        <time>2023-07-29T13:43:48.000Z</time>
        <extensions>
          <ns3:TrackPointExtension>
            <ns3:hr>86</ns3:hr>
            <ns3:cad>0</ns3:cad>
          </ns3:TrackPointExtension>
        </extensions>
      </trkpt>
      <trkpt lat="37.7558095939457416534423828125" lon="-107.71238858811557292938232421875">
        <ele>3584.60009765625</ele>
        <time>2023-07-29T13:43:49.000Z</time>
        <extensions>
          <ns3:TrackPointExtension>
            <ns3:hr>86</ns3:hr>
            <ns3:cad>0</ns3:cad>
          </ns3:TrackPointExtension>
        </extensions>
      </trkpt>
      <trkpt lat="37.75580934248864650726318359375" lon="-107.7123821340501308441162109375">
        <ele>3584.60009765625</ele>
        <time>2023-07-29T13:43:50.000Z</time>
        <extensions>
          <ns3:TrackPointExtension>
            <ns3:hr>86</ns3:hr>
            <ns3:cad>0</ns3:cad>
          </ns3:TrackPointExtension>
        </extensions>
      </trkpt>
      <trkpt lat="37.755810432136058807373046875" lon="-107.712378613650798797607421875">
        <ele>3584.800048828125</ele>
        <time>2023-07-29T13:43:51.000Z</time>
        <extensions>
          <ns3:TrackPointExtension>
            <ns3:hr>86</ns3:hr>
            <ns3:cad>0</ns3:cad>
          </ns3:TrackPointExtension>
        </extensions>
      </trkpt>
      <trkpt lat="37.755816467106342315673828125" lon="-107.7123777754604816436767578125">
        <ele>3584.800048828125</ele>
        <time>2023-07-29T13:43:52.000Z</time>
        <extensions>
          <ns3:TrackPointExtension>
            <ns3:hr>86</ns3:hr>
            <ns3:cad>0</ns3:cad>
          </ns3:TrackPointExtension>
        </extensions>
      </trkpt>
      <trkpt lat="37.755817137658596038818359375" lon="-107.712375931441783905029296875">
        <ele>3585</ele>
        <time>2023-07-29T13:43:53.000Z</time>
        <extensions>
          <ns3:TrackPointExtension>
            <ns3:hr>87</ns3:hr>
            <ns3:cad>0</ns3:cad>
          </ns3:TrackPointExtension>
        </extensions>
      </trkpt>
      <trkpt lat="37.75581789202988147735595703125" lon="-107.712372243404388427734375">
        <ele>3585.39990234375</ele>
        <time>2023-07-29T13:43:54.000Z</time>
        <extensions>
          <ns3:TrackPointExtension>
            <ns3:hr>87</ns3:hr>
            <ns3:cad>0</ns3:cad>
          </ns3:TrackPointExtension>
        </extensions>
      </trkpt>
      <trkpt lat="37.75582015514373779296875" lon="-107.712369896471500396728515625">
        <ele>3585.60009765625</ele>
        <time>2023-07-29T13:43:55.000Z</time>
        <extensions>
          <ns3:TrackPointExtension>
            <ns3:hr>87</ns3:hr>
            <ns3:cad>0</ns3:cad>
          </ns3:TrackPointExtension>
        </extensions>
      </trkpt>
      <trkpt lat="37.75582325644791126251220703125" lon="-107.7123683877289295196533203125">
        <ele>3585.60009765625</ele>
        <time>2023-07-29T13:43:56.000Z</time>
        <extensions>
          <ns3:TrackPointExtension>
            <ns3:hr>88</ns3:hr>
            <ns3:cad>0</ns3:cad>
          </ns3:TrackPointExtension>
        </extensions>
      </trkpt>
      <trkpt lat="37.755826525390148162841796875" lon="-107.7123697288334369659423828125">
        <ele>3585.800048828125</ele>
        <time>2023-07-29T13:43:57.000Z</time>
        <extensions>
          <ns3:TrackPointExtension>
            <ns3:hr>88</ns3:hr>
            <ns3:cad>0</ns3:cad>
          </ns3:TrackPointExtension>
        </extensions>
      </trkpt>
      <trkpt lat="37.75581973604857921600341796875" lon="-107.71237693727016448974609375">
        <ele>3586</ele>
        <time>2023-07-29T13:43:58.000Z</time>
        <extensions>
          <ns3:TrackPointExtension>
            <ns3:hr>89</ns3:hr>
            <ns3:cad>0</ns3:cad>
          </ns3:TrackPointExtension>
        </extensions>
      </trkpt>
      <trkpt lat="37.75582593865692615509033203125" lon="-107.71237836219370365142822265625">
        <ele>3586</ele>
        <time>2023-07-29T13:43:59.000Z</time>
        <extensions>
          <ns3:TrackPointExtension>
            <ns3:hr>91</ns3:hr>
            <ns3:cad>0</ns3:cad>
          </ns3:TrackPointExtension>
        </extensions>
      </trkpt>
      <trkpt lat="37.75582979433238506317138671875" lon="-107.71237970329821109771728515625">
        <ele>3586</ele>
        <time>2023-07-29T13:44:00.000Z</time>
        <extensions>
          <ns3:TrackPointExtension>
            <ns3:hr>94</ns3:hr>
            <ns3:cad>0</ns3:cad>
          </ns3:TrackPointExtension>
        </extensions>
      </trkpt>
      <trkpt lat="37.7558354102075099945068359375" lon="-107.71238305605947971343994140625">
        <ele>3586.199951171875</ele>
        <time>2023-07-29T13:44:01.000Z</time>
        <extensions>
          <ns3:TrackPointExtension>
            <ns3:hr>95</ns3:hr>
            <ns3:cad>0</ns3:cad>
          </ns3:TrackPointExtension>
        </extensions>
      </trkpt>
      <trkpt lat="37.755842618644237518310546875" lon="-107.71238523535430431365966796875">
        <ele>3586.199951171875</ele>
        <time>2023-07-29T13:44:02.000Z</time>
        <extensions>
          <ns3:TrackPointExtension>
            <ns3:hr>96</ns3:hr>
            <ns3:cad>0</ns3:cad>
          </ns3:TrackPointExtension>
        </extensions>
      </trkpt>
      <trkpt lat="37.75584672577679157257080078125" lon="-107.71238691173493862152099609375">
        <ele>3586.199951171875</ele>
        <time>2023-07-29T13:44:03.000Z</time>
        <extensions>
          <ns3:TrackPointExtension>
            <ns3:hr>96</ns3:hr>
            <ns3:cad>0</ns3:cad>
          </ns3:TrackPointExtension>
        </extensions>
      </trkpt>
      <trkpt lat="37.75585527531802654266357421875" lon="-107.7123891748487949371337890625">
        <ele>3586.199951171875</ele>
        <time>2023-07-29T13:44:04.000Z</time>
        <extensions>
          <ns3:TrackPointExtension>
            <ns3:hr>95</ns3:hr>
            <ns3:cad>0</ns3:cad>
          </ns3:TrackPointExtension>
        </extensions>
      </trkpt>
      <trkpt lat="37.7558592148125171661376953125" lon="-107.71239101886749267578125">
        <ele>3586.199951171875</ele>
        <time>2023-07-29T13:44:05.000Z</time>
        <extensions>
          <ns3:TrackPointExtension>
            <ns3:hr>95</ns3:hr>
            <ns3:cad>0</ns3:cad>
          </ns3:TrackPointExtension>
        </extensions>
      </trkpt>
      <trkpt lat="37.7558639086782932281494140625" lon="-107.7123925276100635528564453125">
        <ele>3586.199951171875</ele>
        <time>2023-07-29T13:44:06.000Z</time>
        <extensions>
          <ns3:TrackPointExtension>
            <ns3:hr>95</ns3:hr>
            <ns3:cad>0</ns3:cad>
          </ns3:TrackPointExtension>
        </extensions>
      </trkpt>
      <trkpt lat="37.755864076316356658935546875" lon="-107.71239328198134899139404296875">
        <ele>3586.199951171875</ele>
        <time>2023-07-29T13:44:07.000Z</time>
        <extensions>
          <ns3:TrackPointExtension>
            <ns3:hr>96</ns3:hr>
            <ns3:cad>0</ns3:cad>
          </ns3:TrackPointExtension>
        </extensions>
      </trkpt>
      <trkpt lat="37.755863405764102935791015625" lon="-107.712394036352634429931640625">
        <ele>3586.199951171875</ele>
        <time>2023-07-29T13:44:08.000Z</time>
        <extensions>
          <ns3:TrackPointExtension>
            <ns3:hr>96</ns3:hr>
            <ns3:cad>0</ns3:cad>
          </ns3:TrackPointExtension>
        </extensions>
      </trkpt>
      <trkpt lat="37.755858041346073150634765625" lon="-107.7123918570578098297119140625">
        <ele>3586.199951171875</ele>
        <time>2023-07-29T13:44:09.000Z</time>
        <extensions>
          <ns3:TrackPointExtension>
            <ns3:hr>96</ns3:hr>
            <ns3:cad>0</ns3:cad>
          </ns3:TrackPointExtension>
        </extensions>
      </trkpt>
      <trkpt lat="37.75585158728063106536865234375" lon="-107.712390013039112091064453125">
        <ele>3586.199951171875</ele>
        <time>2023-07-29T13:44:10.000Z</time>
        <extensions>
          <ns3:TrackPointExtension>
            <ns3:hr>97</ns3:hr>
            <ns3:cad>0</ns3:cad>
          </ns3:TrackPointExtension>
        </extensions>
      </trkpt>
      <trkpt lat="37.75584764778614044189453125" lon="-107.71239143796265125274658203125">
        <ele>3586.199951171875</ele>
        <time>2023-07-29T13:44:11.000Z</time>
        <extensions>
          <ns3:TrackPointExtension>
            <ns3:hr>97</ns3:hr>
            <ns3:cad>0</ns3:cad>
          </ns3:TrackPointExtension>
        </extensions>
      </trkpt>
      <trkpt lat="37.7558402717113494873046875" lon="-107.71239143796265125274658203125">
        <ele>3586.199951171875</ele>
        <time>2023-07-29T13:44:12.000Z</time>
        <extensions>
          <ns3:TrackPointExtension>
            <ns3:hr>97</ns3:hr>
            <ns3:cad>0</ns3:cad>
          </ns3:TrackPointExtension>
        </extensions>
      </trkpt>
      <trkpt lat="37.75584094226360321044921875" lon="-107.712385319173336029052734375">
        <ele>3586</ele>
        <time>2023-07-29T13:44:13.000Z</time>
        <extensions>
          <ns3:TrackPointExtension>
            <ns3:hr>97</ns3:hr>
            <ns3:cad>0</ns3:cad>
          </ns3:TrackPointExtension>
        </extensions>
      </trkpt>
      <trkpt lat="37.75583750568330287933349609375" lon="-107.7123804576694965362548828125">
        <ele>3585.800048828125</ele>
        <time>2023-07-29T13:44:14.000Z</time>
        <extensions>
          <ns3:TrackPointExtension>
            <ns3:hr>97</ns3:hr>
            <ns3:cad>0</ns3:cad>
          </ns3:TrackPointExtension>
        </extensions>
      </trkpt>
      <trkpt lat="37.7558320574462413787841796875" lon="-107.712375260889530181884765625">
        <ele>3585.800048828125</ele>
        <time>2023-07-29T13:44:15.000Z</time>
        <extensions>
          <ns3:TrackPointExtension>
            <ns3:hr>98</ns3:hr>
            <ns3:cad>0</ns3:cad>
          </ns3:TrackPointExtension>
        </extensions>
      </trkpt>
      <trkpt lat="37.7558344043791294097900390625" lon="-107.712377272546291351318359375">
        <ele>3585.800048828125</ele>
        <time>2023-07-29T13:44:16.000Z</time>
        <extensions>
          <ns3:TrackPointExtension>
            <ns3:hr>99</ns3:hr>
            <ns3:cad>0</ns3:cad>
          </ns3:TrackPointExtension>
        </extensions>
      </trkpt>
      <trkpt lat="37.75583448819816112518310546875" lon="-107.71237635053694248199462890625">
        <ele>3585.800048828125</ele>
        <time>2023-07-29T13:44:17.000Z</time>
        <extensions>
          <ns3:TrackPointExtension>
            <ns3:hr>100</ns3:hr>
            <ns3:cad>0</ns3:cad>
          </ns3:TrackPointExtension>
        </extensions>
      </trkpt>
      <trkpt lat="37.75583566166460514068603515625" lon="-107.71237182430922985076904296875">
        <ele>3585.800048828125</ele>
        <time>2023-07-29T13:44:18.000Z</time>
        <extensions>
          <ns3:TrackPointExtension>
            <ns3:hr>101</ns3:hr>
            <ns3:cad>0</ns3:cad>
          </ns3:TrackPointExtension>
        </extensions>
      </trkpt>
      <trkpt lat="37.755833566188812255859375" lon="-107.71236193366348743438720703125">
        <ele>3585.800048828125</ele>
        <time>2023-07-29T13:44:19.000Z</time>
        <extensions>
          <ns3:TrackPointExtension>
            <ns3:hr>101</ns3:hr>
            <ns3:cad>0</ns3:cad>
          </ns3:TrackPointExtension>
        </extensions>
      </trkpt>
      <trkpt lat="37.7558370865881443023681640625" lon="-107.71236327476799488067626953125">
        <ele>3585.60009765625</ele>
        <time>2023-07-29T13:44:20.000Z</time>
        <extensions>
          <ns3:TrackPointExtension>
            <ns3:hr>101</ns3:hr>
            <ns3:cad>0</ns3:cad>
          </ns3:TrackPointExtension>
        </extensions>
      </trkpt>
      <trkpt lat="37.75584052316844463348388671875" lon="-107.71236344240605831146240234375">
        <ele>3585.60009765625</ele>
        <time>2023-07-29T13:44:21.000Z</time>
        <extensions>
          <ns3:TrackPointExtension>
            <ns3:hr>101</ns3:hr>
            <ns3:cad>0</ns3:cad>
          </ns3:TrackPointExtension>
        </extensions>
      </trkpt>
      <trkpt lat="37.75584764778614044189453125" lon="-107.7123633585870265960693359375">
        <ele>3585.60009765625</ele>
        <time>2023-07-29T13:44:22.000Z</time>
        <extensions>
          <ns3:TrackPointExtension>
            <ns3:hr>100</ns3:hr>
            <ns3:cad>0</ns3:cad>
          </ns3:TrackPointExtension>
        </extensions>
      </trkpt>
      <trkpt lat="37.75585192255675792694091796875" lon="-107.71236662752926349639892578125">
        <ele>3585.800048828125</ele>
        <time>2023-07-29T13:44:23.000Z</time>
        <extensions>
          <ns3:TrackPointExtension>
            <ns3:hr>98</ns3:hr>
            <ns3:cad>0</ns3:cad>
          </ns3:TrackPointExtension>
        </extensions>
      </trkpt>
      <trkpt lat="37.75586080737411975860595703125" lon="-107.7123724110424518585205078125">
        <ele>3585.800048828125</ele>
        <time>2023-07-29T13:44:24.000Z</time>
        <extensions>
          <ns3:TrackPointExtension>
            <ns3:hr>97</ns3:hr>
            <ns3:cad>0</ns3:cad>
          </ns3:TrackPointExtension>
        </extensions>
      </trkpt>
      <trkpt lat="37.75586013682186603546142578125" lon="-107.712375260889530181884765625">
        <ele>3585.800048828125</ele>
        <time>2023-07-29T13:44:25.000Z</time>
        <extensions>
          <ns3:TrackPointExtension>
            <ns3:hr>96</ns3:hr>
            <ns3:cad>0</ns3:cad>
          </ns3:TrackPointExtension>
        </extensions>
      </trkpt>
      <trkpt lat="37.7558592148125171661376953125" lon="-107.7123767696321010589599609375">
        <ele>3585.800048828125</ele>
        <time>2023-07-29T13:44:26.000Z</time>
        <extensions>
          <ns3:TrackPointExtension>
            <ns3:hr>96</ns3:hr>
            <ns3:cad>0</ns3:cad>
          </ns3:TrackPointExtension>
        </extensions>
      </trkpt>
      <trkpt lat="37.75586684234440326690673828125" lon="-107.71237953566014766693115234375">
        <ele>3585.800048828125</ele>
        <time>2023-07-29T13:44:27.000Z</time>
        <extensions>
          <ns3:TrackPointExtension>
            <ns3:hr>96</ns3:hr>
            <ns3:cad>0</ns3:cad>
          </ns3:TrackPointExtension>
        </extensions>
      </trkpt>
      <trkpt lat="37.75587187148630619049072265625" lon="-107.71238205023109912872314453125">
        <ele>3586</ele>
        <time>2023-07-29T13:44:28.000Z</time>
        <extensions>
          <ns3:TrackPointExtension>
            <ns3:hr>96</ns3:hr>
            <ns3:cad>0</ns3:cad>
          </ns3:TrackPointExtension>
        </extensions>
      </trkpt>
      <trkpt lat="37.7558749727904796600341796875" lon="-107.71238632500171661376953125">
        <ele>3586</ele>
        <time>2023-07-29T13:44:29.000Z</time>
        <extensions>
          <ns3:TrackPointExtension>
            <ns3:hr>96</ns3:hr>
            <ns3:cad>0</ns3:cad>
          </ns3:TrackPointExtension>
        </extensions>
      </trkpt>
      <trkpt lat="37.75586985982954502105712890625" lon="-107.712388671934604644775390625">
        <ele>3586</ele>
        <time>2023-07-29T13:44:30.000Z</time>
        <extensions>
          <ns3:TrackPointExtension>
            <ns3:hr>95</ns3:hr>
            <ns3:cad>0</ns3:cad>
          </ns3:TrackPointExtension>
        </extensions>
      </trkpt>
      <trkpt lat="37.755876816809177398681640625" lon="-107.71239059977233409881591796875">
        <ele>3586</ele>
        <time>2023-07-29T13:44:31.000Z</time>
        <extensions>
          <ns3:TrackPointExtension>
            <ns3:hr>95</ns3:hr>
            <ns3:cad>0</ns3:cad>
          </ns3:TrackPointExtension>
        </extensions>
      </trkpt>
      <trkpt lat="37.75587958283722400665283203125" lon="-107.71239210851490497589111328125">
        <ele>3586</ele>
        <time>2023-07-29T13:44:32.000Z</time>
        <extensions>
          <ns3:TrackPointExtension>
            <ns3:hr>95</ns3:hr>
            <ns3:cad>0</ns3:cad>
          </ns3:TrackPointExtension>
        </extensions>
      </trkpt>
      <trkpt lat="37.75588209740817546844482421875" lon="-107.71238758228719234466552734375">
        <ele>3586.199951171875</ele>
        <time>2023-07-29T13:44:33.000Z</time>
        <extensions>
          <ns3:TrackPointExtension>
            <ns3:hr>94</ns3:hr>
            <ns3:cad>0</ns3:cad>
          </ns3:TrackPointExtension>
        </extensions>
      </trkpt>
      <trkpt lat="37.7558860369026660919189453125" lon="-107.71238355897367000579833984375">
        <ele>3586.199951171875</ele>
        <time>2023-07-29T13:44:34.000Z</time>
        <extensions>
          <ns3:TrackPointExtension>
            <ns3:hr>93</ns3:hr>
            <ns3:cad>0</ns3:cad>
          </ns3:TrackPointExtension>
        </extensions>
      </trkpt>
      <trkpt lat="37.755889892578125" lon="-107.71237869746983051300048828125">
        <ele>3586.199951171875</ele>
        <time>2023-07-29T13:44:35.000Z</time>
        <extensions>
          <ns3:TrackPointExtension>
            <ns3:hr>93</ns3:hr>
            <ns3:cad>0</ns3:cad>
          </ns3:TrackPointExtension>
        </extensions>
      </trkpt>
      <trkpt lat="37.75589902885258197784423828125" lon="-107.7123749256134033203125">
        <ele>3586.39990234375</ele>
        <time>2023-07-29T13:44:36.000Z</time>
        <extensions>
          <ns3:TrackPointExtension>
            <ns3:hr>93</ns3:hr>
            <ns3:cad>0</ns3:cad>
          </ns3:TrackPointExtension>
        </extensions>
      </trkpt>
      <trkpt lat="37.75590925477445125579833984375" lon="-107.712368555366992950439453125">
        <ele>3586.39990234375</ele>
        <time>2023-07-29T13:44:37.000Z</time>
        <extensions>
          <ns3:TrackPointExtension>
            <ns3:hr>92</ns3:hr>
            <ns3:cad>0</ns3:cad>
          </ns3:TrackPointExtension>
        </extensions>
      </trkpt>
      <trkpt lat="37.75591763667762279510498046875" lon="-107.71236361004412174224853515625">
        <ele>3586.60009765625</ele>
        <time>2023-07-29T13:44:38.000Z</time>
        <extensions>
          <ns3:TrackPointExtension>
            <ns3:hr>92</ns3:hr>
            <ns3:cad>0</ns3:cad>
          </ns3:TrackPointExtension>
        </extensions>
      </trkpt>
      <trkpt lat="37.7559319697320461273193359375" lon="-107.71236008964478969573974609375">
        <ele>3586.800048828125</ele>
        <time>2023-07-29T13:44:39.000Z</time>
        <extensions>
          <ns3:TrackPointExtension>
            <ns3:hr>92</ns3:hr>
            <ns3:cad>0</ns3:cad>
          </ns3:TrackPointExtension>
        </extensions>
      </trkpt>
      <trkpt lat="37.7559430338442325592041015625" lon="-107.71235606633126735687255859375">
        <ele>3586.800048828125</ele>
        <time>2023-07-29T13:44:40.000Z</time>
        <extensions>
          <ns3:TrackPointExtension>
            <ns3:hr>92</ns3:hr>
            <ns3:cad>0</ns3:cad>
          </ns3:TrackPointExtension>
        </extensions>
      </trkpt>
      <trkpt lat="37.7559477277100086212158203125" lon="-107.71234936080873012542724609375">
        <ele>3587</ele>
        <time>2023-07-29T13:44:41.000Z</time>
        <extensions>
          <ns3:TrackPointExtension>
            <ns3:hr>92</ns3:hr>
            <ns3:cad>0</ns3:cad>
          </ns3:TrackPointExtension>
        </extensions>
      </trkpt>
      <trkpt lat="37.755953259766101837158203125" lon="-107.71234215237200260162353515625">
        <ele>3587</ele>
        <time>2023-07-29T13:44:42.000Z</time>
        <extensions>
          <ns3:TrackPointExtension>
            <ns3:hr>92</ns3:hr>
            <ns3:cad>0</ns3:cad>
          </ns3:TrackPointExtension>
        </extensions>
      </trkpt>
      <trkpt lat="37.7559581212699413299560546875" lon="-107.71233578212559223175048828125">
        <ele>3587.199951171875</ele>
        <time>2023-07-29T13:44:43.000Z</time>
        <extensions>
          <ns3:TrackPointExtension>
            <ns3:hr>92</ns3:hr>
            <ns3:cad>0</ns3:cad>
          </ns3:TrackPointExtension>
        </extensions>
      </trkpt>
      <trkpt lat="37.75595895946025848388671875" lon="-107.7123308368027210235595703125">
        <ele>3587.199951171875</ele>
        <time>2023-07-29T13:44:44.000Z</time>
        <extensions>
          <ns3:TrackPointExtension>
            <ns3:hr>92</ns3:hr>
            <ns3:cad>0</ns3:cad>
          </ns3:TrackPointExtension>
        </extensions>
      </trkpt>
      <trkpt lat="37.7559517510235309600830078125" lon="-107.71232664585113525390625">
        <ele>3587.39990234375</ele>
        <time>2023-07-29T13:44:45.000Z</time>
        <extensions>
          <ns3:TrackPointExtension>
            <ns3:hr>92</ns3:hr>
            <ns3:cad>0</ns3:cad>
          </ns3:TrackPointExtension>
        </extensions>
      </trkpt>
      <trkpt lat="37.75594764389097690582275390625" lon="-107.7123217843472957611083984375">
        <ele>3587.60009765625</ele>
        <time>2023-07-29T13:44:46.000Z</time>
        <extensions>
          <ns3:TrackPointExtension>
            <ns3:hr>92</ns3:hr>
            <ns3:cad>0</ns3:cad>
          </ns3:TrackPointExtension>
        </extensions>
      </trkpt>
      <trkpt lat="37.755951918661594390869140625" lon="-107.712316252291202545166015625">
        <ele>3587.800048828125</ele>
        <time>2023-07-29T13:44:47.000Z</time>
        <extensions>
          <ns3:TrackPointExtension>
            <ns3:hr>93</ns3:hr>
            <ns3:cad>0</ns3:cad>
          </ns3:TrackPointExtension>
        </extensions>
      </trkpt>
      <trkpt lat="37.755956612527370452880859375" lon="-107.712313570082187652587890625">
        <ele>3587.800048828125</ele>
        <time>2023-07-29T13:44:48.000Z</time>
        <extensions>
          <ns3:TrackPointExtension>
            <ns3:hr>94</ns3:hr>
            <ns3:cad>0</ns3:cad>
          </ns3:TrackPointExtension>
        </extensions>
      </trkpt>
      <trkpt lat="37.75596558116376399993896484375" lon="-107.71231063641607761383056640625">
        <ele>3587.800048828125</ele>
        <time>2023-07-29T13:44:49.000Z</time>
        <extensions>
          <ns3:TrackPointExtension>
            <ns3:hr>94</ns3:hr>
            <ns3:cad>0</ns3:cad>
          </ns3:TrackPointExtension>
        </extensions>
      </trkpt>
      <trkpt lat="37.7559716999530792236328125" lon="-107.7123134024441242218017578125">
        <ele>3587.800048828125</ele>
        <time>2023-07-29T13:44:50.000Z</time>
        <extensions>
          <ns3:TrackPointExtension>
            <ns3:hr>95</ns3:hr>
            <ns3:cad>0</ns3:cad>
          </ns3:TrackPointExtension>
        </extensions>
      </trkpt>
      <trkpt lat="37.75597865693271160125732421875" lon="-107.7123150788247585296630859375">
        <ele>3588</ele>
        <time>2023-07-29T13:44:51.000Z</time>
        <extensions>
          <ns3:TrackPointExtension>
            <ns3:hr>95</ns3:hr>
            <ns3:cad>0</ns3:cad>
          </ns3:TrackPointExtension>
        </extensions>
      </trkpt>
      <trkpt lat="37.75599391199648380279541015625" lon="-107.7123144082725048065185546875">
        <ele>3588</ele>
        <time>2023-07-29T13:44:52.000Z</time>
        <extensions>
          <ns3:TrackPointExtension>
            <ns3:hr>95</ns3:hr>
            <ns3:cad>0</ns3:cad>
          </ns3:TrackPointExtension>
        </extensions>
      </trkpt>
      <trkpt lat="37.7560020424425601959228515625" lon="-107.71231482736766338348388671875">
        <ele>3588</ele>
        <time>2023-07-29T13:44:53.000Z</time>
        <extensions>
          <ns3:TrackPointExtension>
            <ns3:hr>95</ns3:hr>
            <ns3:cad>0</ns3:cad>
          </ns3:TrackPointExtension>
        </extensions>
      </trkpt>
      <trkpt lat="37.7560134418308734893798828125" lon="-107.71231549791991710662841796875">
        <ele>3588</ele>
        <time>2023-07-29T13:44:54.000Z</time>
        <extensions>
          <ns3:TrackPointExtension>
            <ns3:hr>95</ns3:hr>
            <ns3:cad>0</ns3:cad>
          </ns3:TrackPointExtension>
        </extensions>
      </trkpt>
      <trkpt lat="37.75601335801184177398681640625" lon="-107.7123191021382808685302734375">
        <ele>3588.199951171875</ele>
        <time>2023-07-29T13:44:55.000Z</time>
        <extensions>
          <ns3:TrackPointExtension>
            <ns3:hr>94</ns3:hr>
            <ns3:cad>0</ns3:cad>
          </ns3:TrackPointExtension>
        </extensions>
      </trkpt>
      <trkpt lat="37.75602333247661590576171875" lon="-107.71232086233794689178466796875">
        <ele>3588.39990234375</ele>
        <time>2023-07-29T13:44:56.000Z</time>
        <extensions>
          <ns3:TrackPointExtension>
            <ns3:hr>94</ns3:hr>
            <ns3:cad>0</ns3:cad>
          </ns3:TrackPointExtension>
        </extensions>
      </trkpt>
      <trkpt lat="37.75602660141885280609130859375" lon="-107.71231851540505886077880859375">
        <ele>3588.39990234375</ele>
        <time>2023-07-29T13:44:57.000Z</time>
        <extensions>
          <ns3:TrackPointExtension>
            <ns3:hr>96</ns3:hr>
            <ns3:cad>0</ns3:cad>
          </ns3:TrackPointExtension>
        </extensions>
      </trkpt>
      <trkpt lat="37.7560275234282016754150390625" lon="-107.71232153289020061492919921875">
        <ele>3588.800048828125</ele>
        <time>2023-07-29T13:44:58.000Z</time>
        <extensions>
          <ns3:TrackPointExtension>
            <ns3:hr>97</ns3:hr>
            <ns3:cad>0</ns3:cad>
          </ns3:TrackPointExtension>
        </extensions>
      </trkpt>
      <trkpt lat="37.75603003799915313720703125" lon="-107.71232237108051776885986328125">
        <ele>3588.800048828125</ele>
        <time>2023-07-29T13:44:59.000Z</time>
        <extensions>
          <ns3:TrackPointExtension>
            <ns3:hr>97</ns3:hr>
            <ns3:cad>0</ns3:cad>
          </ns3:TrackPointExtension>
        </extensions>
      </trkpt>
      <trkpt lat="37.75603163056075572967529296875" lon="-107.71232354454696178436279296875">
        <ele>3589.199951171875</ele>
        <time>2023-07-29T13:45:00.000Z</time>
        <extensions>
          <ns3:TrackPointExtension>
            <ns3:hr>97</ns3:hr>
            <ns3:cad>0</ns3:cad>
          </ns3:TrackPointExtension>
        </extensions>
      </trkpt>
      <trkpt lat="37.75603062473237514495849609375" lon="-107.71232471801340579986572265625">
        <ele>3589.60009765625</ele>
        <time>2023-07-29T13:45:01.000Z</time>
        <extensions>
          <ns3:TrackPointExtension>
            <ns3:hr>99</ns3:hr>
            <ns3:cad>0</ns3:cad>
          </ns3:TrackPointExtension>
        </extensions>
      </trkpt>
      <trkpt lat="37.75603498332202434539794921875" lon="-107.7123278193175792694091796875">
        <ele>3590</ele>
        <time>2023-07-29T13:45:02.000Z</time>
        <extensions>
          <ns3:TrackPointExtension>
            <ns3:hr>100</ns3:hr>
            <ns3:cad>0</ns3:cad>
          </ns3:TrackPointExtension>
        </extensions>
      </trkpt>
      <trkpt lat="37.75603448040783405303955078125" lon="-107.7123315073549747467041015625">
        <ele>3590</ele>
        <time>2023-07-29T13:45:03.000Z</time>
        <extensions>
          <ns3:TrackPointExtension>
            <ns3:hr>101</ns3:hr>
            <ns3:cad>0</ns3:cad>
          </ns3:TrackPointExtension>
        </extensions>
      </trkpt>
      <trkpt lat="37.7560345642268657684326171875" lon="-107.71233108825981616973876953125">
        <ele>3590</ele>
        <time>2023-07-29T13:45:04.000Z</time>
        <extensions>
          <ns3:TrackPointExtension>
            <ns3:hr>102</ns3:hr>
            <ns3:cad>0</ns3:cad>
          </ns3:TrackPointExtension>
        </extensions>
      </trkpt>
      <trkpt lat="37.75603548623621463775634765625" lon="-107.712333016097545623779296875">
        <ele>3590.199951171875</ele>
        <time>2023-07-29T13:45:05.000Z</time>
        <extensions>
          <ns3:TrackPointExtension>
            <ns3:hr>103</ns3:hr>
            <ns3:cad>0</ns3:cad>
          </ns3:TrackPointExtension>
        </extensions>
      </trkpt>
      <trkpt lat="37.7560382522642612457275390625" lon="-107.71233812905848026275634765625">
        <ele>3590.199951171875</ele>
        <time>2023-07-29T13:45:06.000Z</time>
        <extensions>
          <ns3:TrackPointExtension>
            <ns3:hr>103</ns3:hr>
            <ns3:cad>0</ns3:cad>
          </ns3:TrackPointExtension>
        </extensions>
      </trkpt>
      <trkpt lat="37.756044454872608184814453125" lon="-107.712341062724590301513671875">
        <ele>3590.60009765625</ele>
        <time>2023-07-29T13:45:07.000Z</time>
        <extensions>
          <ns3:TrackPointExtension>
            <ns3:hr>104</ns3:hr>
            <ns3:cad>0</ns3:cad>
          </ns3:TrackPointExtension>
        </extensions>
      </trkpt>
      <trkpt lat="37.7560483105480670928955078125" lon="-107.7123422361910343170166015625">
        <ele>3590.60009765625</ele>
        <time>2023-07-29T13:45:08.000Z</time>
        <extensions>
          <ns3:TrackPointExtension>
            <ns3:hr>104</ns3:hr>
            <ns3:cad>0</ns3:cad>
          </ns3:TrackPointExtension>
        </extensions>
      </trkpt>
      <trkpt lat="37.756053172051906585693359375" lon="-107.7123405598104000091552734375">
        <ele>3590.800048828125</ele>
        <time>2023-07-29T13:45:09.000Z</time>
        <extensions>
          <ns3:TrackPointExtension>
            <ns3:hr>104</ns3:hr>
            <ns3:cad>0</ns3:cad>
          </ns3:TrackPointExtension>
        </extensions>
      </trkpt>
      <trkpt lat="37.75605954229831695556640625" lon="-107.71233527921140193939208984375">
        <ele>3591</ele>
        <time>2023-07-29T13:45:10.000Z</time>
        <extensions>
          <ns3:TrackPointExtension>
            <ns3:hr>103</ns3:hr>
            <ns3:cad>0</ns3:cad>
          </ns3:TrackPointExtension>
        </extensions>
      </trkpt>
      <trkpt lat="37.75606515817344188690185546875" lon="-107.71233410574495792388916015625">
        <ele>3591.39990234375</ele>
        <time>2023-07-29T13:45:11.000Z</time>
        <extensions>
          <ns3:TrackPointExtension>
            <ns3:hr>103</ns3:hr>
            <ns3:cad>0</ns3:cad>
          </ns3:TrackPointExtension>
        </extensions>
      </trkpt>
      <trkpt lat="37.75606918148696422576904296875" lon="-107.7123221196234226226806640625">
        <ele>3591.60009765625</ele>
        <time>2023-07-29T13:45:12.000Z</time>
        <extensions>
          <ns3:TrackPointExtension>
            <ns3:hr>103</ns3:hr>
            <ns3:cad>0</ns3:cad>
          </ns3:TrackPointExtension>
        </extensions>
      </trkpt>
      <trkpt lat="37.75607161223888397216796875" lon="-107.71231700666248798370361328125">
        <ele>3591.800048828125</ele>
        <time>2023-07-29T13:45:13.000Z</time>
        <extensions>
          <ns3:TrackPointExtension>
            <ns3:hr>103</ns3:hr>
            <ns3:cad>0</ns3:cad>
          </ns3:TrackPointExtension>
        </extensions>
      </trkpt>
      <trkpt lat="37.7560737915337085723876953125" lon="-107.71230929531157016754150390625">
        <ele>3592.199951171875</ele>
        <time>2023-07-29T13:45:14.000Z</time>
        <extensions>
          <ns3:TrackPointExtension>
            <ns3:hr>103</ns3:hr>
            <ns3:cad>0</ns3:cad>
          </ns3:TrackPointExtension>
        </extensions>
      </trkpt>
      <trkpt lat="37.75608091615140438079833984375" lon="-107.7122999913990497589111328125">
        <ele>3592.199951171875</ele>
        <time>2023-07-29T13:45:15.000Z</time>
        <extensions>
          <ns3:TrackPointExtension>
            <ns3:hr>103</ns3:hr>
            <ns3:cad>0</ns3:cad>
          </ns3:TrackPointExtension>
        </extensions>
      </trkpt>
      <trkpt lat="37.75608343072235584259033203125" lon="-107.7122926153242588043212890625">
        <ele>3592.39990234375</ele>
        <time>2023-07-29T13:45:16.000Z</time>
        <extensions>
          <ns3:TrackPointExtension>
            <ns3:hr>103</ns3:hr>
            <ns3:cad>0</ns3:cad>
          </ns3:TrackPointExtension>
        </extensions>
      </trkpt>
      <trkpt lat="37.7560898847877979278564453125" lon="-107.7122838981449604034423828125">
        <ele>3592.60009765625</ele>
        <time>2023-07-29T13:45:17.000Z</time>
        <extensions>
          <ns3:TrackPointExtension>
            <ns3:hr>103</ns3:hr>
            <ns3:cad>0</ns3:cad>
          </ns3:TrackPointExtension>
        </extensions>
      </trkpt>
      <trkpt lat="37.7560982666909694671630859375" lon="-107.71227945573627948760986328125">
        <ele>3592.800048828125</ele>
        <time>2023-07-29T13:45:18.000Z</time>
        <extensions>
          <ns3:TrackPointExtension>
            <ns3:hr>104</ns3:hr>
            <ns3:cad>0</ns3:cad>
          </ns3:TrackPointExtension>
        </extensions>
      </trkpt>
      <trkpt lat="37.7561059780418872833251953125" lon="-107.712274678051471710205078125">
        <ele>3593.39990234375</ele>
        <time>2023-07-29T13:45:19.000Z</time>
        <extensions>
          <ns3:TrackPointExtension>
            <ns3:hr>104</ns3:hr>
            <ns3:cad>0</ns3:cad>
          </ns3:TrackPointExtension>
        </extensions>
      </trkpt>
      <trkpt lat="37.75610757060348987579345703125" lon="-107.7122795395553112030029296875">
        <ele>3593.39990234375</ele>
        <time>2023-07-29T13:45:20.000Z</time>
        <extensions>
          <ns3:TrackPointExtension>
            <ns3:hr>105</ns3:hr>
            <ns3:cad>0</ns3:cad>
          </ns3:TrackPointExtension>
        </extensions>
      </trkpt>
      <trkpt lat="37.75611318647861480712890625" lon="-107.7122842334210872650146484375">
        <ele>3593.60009765625</ele>
        <time>2023-07-29T13:45:21.000Z</time>
        <extensions>
          <ns3:TrackPointExtension>
            <ns3:hr>106</ns3:hr>
            <ns3:cad>0</ns3:cad>
          </ns3:TrackPointExtension>
        </extensions>
      </trkpt>
      <trkpt lat="37.75612366385757923126220703125" lon="-107.71228029392659664154052734375">
        <ele>3593.60009765625</ele>
        <time>2023-07-29T13:45:22.000Z</time>
        <extensions>
          <ns3:TrackPointExtension>
            <ns3:hr>107</ns3:hr>
            <ns3:cad>0</ns3:cad>
          </ns3:TrackPointExtension>
        </extensions>
      </trkpt>
      <trkpt lat="37.75612902827560901641845703125" lon="-107.71227777935564517974853515625">
        <ele>3593.800048828125</ele>
        <time>2023-07-29T13:45:23.000Z</time>
        <extensions>
          <ns3:TrackPointExtension>
            <ns3:hr>108</ns3:hr>
            <ns3:cad>0</ns3:cad>
          </ns3:TrackPointExtension>
        </extensions>
      </trkpt>
      <trkpt lat="37.7561374939978122711181640625" lon="-107.712275683879852294921875">
        <ele>3593.800048828125</ele>
        <time>2023-07-29T13:45:24.000Z</time>
        <extensions>
          <ns3:TrackPointExtension>
            <ns3:hr>110</ns3:hr>
            <ns3:cad>0</ns3:cad>
          </ns3:TrackPointExtension>
        </extensions>
      </trkpt>
      <trkpt lat="37.75613757781684398651123046875" lon="-107.7122785337269306182861328125">
        <ele>3594.199951171875</ele>
        <time>2023-07-29T13:45:25.000Z</time>
        <extensions>
          <ns3:TrackPointExtension>
            <ns3:hr>111</ns3:hr>
            <ns3:cad>0</ns3:cad>
          </ns3:TrackPointExtension>
        </extensions>
      </trkpt>
      <trkpt lat="37.7561384998261928558349609375" lon="-107.71228046156466007232666015625">
        <ele>3594.199951171875</ele>
        <time>2023-07-29T13:45:26.000Z</time>
        <extensions>
          <ns3:TrackPointExtension>
            <ns3:hr>112</ns3:hr>
            <ns3:cad>0</ns3:cad>
          </ns3:TrackPointExtension>
        </extensions>
      </trkpt>
      <trkpt lat="37.75614813901484012603759765625" lon="-107.71227844990789890289306640625">
        <ele>3594.60009765625</ele>
        <time>2023-07-29T13:45:27.000Z</time>
        <extensions>
          <ns3:TrackPointExtension>
            <ns3:hr>112</ns3:hr>
            <ns3:cad>0</ns3:cad>
          </ns3:TrackPointExtension>
        </extensions>
      </trkpt>
      <trkpt lat="37.756154425442218780517578125" lon="-107.7122771926224231719970703125">
        <ele>3595</ele>
        <time>2023-07-29T13:45:28.000Z</time>
        <extensions>
          <ns3:TrackPointExtension>
            <ns3:hr>112</ns3:hr>
            <ns3:cad>0</ns3:cad>
          </ns3:TrackPointExtension>
        </extensions>
      </trkpt>
      <trkpt lat="37.7561599574983119964599609375" lon="-107.71227710880339145660400390625">
        <ele>3595</ele>
        <time>2023-07-29T13:45:29.000Z</time>
        <extensions>
          <ns3:TrackPointExtension>
            <ns3:hr>113</ns3:hr>
            <ns3:cad>0</ns3:cad>
          </ns3:TrackPointExtension>
        </extensions>
      </trkpt>
      <trkpt lat="37.75616859085857868194580078125" lon="-107.7122741751372814178466796875">
        <ele>3595.39990234375</ele>
        <time>2023-07-29T13:45:30.000Z</time>
        <extensions>
          <ns3:TrackPointExtension>
            <ns3:hr>113</ns3:hr>
            <ns3:cad>0</ns3:cad>
          </ns3:TrackPointExtension>
        </extensions>
      </trkpt>
      <trkpt lat="37.75617144070565700531005859375" lon="-107.71227023564279079437255859375">
        <ele>3595.60009765625</ele>
        <time>2023-07-29T13:45:31.000Z</time>
        <extensions>
          <ns3:TrackPointExtension>
            <ns3:hr>114</ns3:hr>
            <ns3:cad>0</ns3:cad>
          </ns3:TrackPointExtension>
        </extensions>
      </trkpt>
      <trkpt lat="37.7561750449240207672119140625" lon="-107.7122674696147441864013671875">
        <ele>3595.800048828125</ele>
        <time>2023-07-29T13:45:32.000Z</time>
        <extensions>
          <ns3:TrackPointExtension>
            <ns3:hr>114</ns3:hr>
            <ns3:cad>0</ns3:cad>
          </ns3:TrackPointExtension>
        </extensions>
      </trkpt>
      <trkpt lat="37.75618066079914569854736328125" lon="-107.712265290319919586181640625">
        <ele>3596</ele>
        <time>2023-07-29T13:45:33.000Z</time>
        <extensions>
          <ns3:TrackPointExtension>
            <ns3:hr>113</ns3:hr>
            <ns3:cad>0</ns3:cad>
          </ns3:TrackPointExtension>
        </extensions>
      </trkpt>
      <trkpt lat="37.7561862766742706298828125" lon="-107.71226503886282444000244140625">
        <ele>3596.199951171875</ele>
        <time>2023-07-29T13:45:34.000Z</time>
        <extensions>
          <ns3:TrackPointExtension>
            <ns3:hr>114</ns3:hr>
            <ns3:cad>0</ns3:cad>
          </ns3:TrackPointExtension>
        </extensions>
      </trkpt>
      <trkpt lat="37.756193317472934722900390625" lon="-107.7122631110250949859619140625">
        <ele>3596.39990234375</ele>
        <time>2023-07-29T13:45:35.000Z</time>
        <extensions>
          <ns3:TrackPointExtension>
            <ns3:hr>114</ns3:hr>
            <ns3:cad>0</ns3:cad>
          </ns3:TrackPointExtension>
        </extensions>
      </trkpt>
      <trkpt lat="37.7561975084245204925537109375" lon="-107.71226227283477783203125">
        <ele>3596.39990234375</ele>
        <time>2023-07-29T13:45:36.000Z</time>
        <extensions>
          <ns3:TrackPointExtension>
            <ns3:hr>114</ns3:hr>
            <ns3:cad>0</ns3:cad>
          </ns3:TrackPointExtension>
        </extensions>
      </trkpt>
      <trkpt lat="37.75619876570999622344970703125" lon="-107.71226285956799983978271484375">
        <ele>3596.60009765625</ele>
        <time>2023-07-29T13:45:37.000Z</time>
        <extensions>
          <ns3:TrackPointExtension>
            <ns3:hr>115</ns3:hr>
            <ns3:cad>0</ns3:cad>
          </ns3:TrackPointExtension>
        </extensions>
      </trkpt>
      <trkpt lat="37.75620463304221630096435546875" lon="-107.71226487122476100921630859375">
        <ele>3596.60009765625</ele>
        <time>2023-07-29T13:45:38.000Z</time>
        <extensions>
          <ns3:TrackPointExtension>
            <ns3:hr>115</ns3:hr>
            <ns3:cad>0</ns3:cad>
          </ns3:TrackPointExtension>
        </extensions>
      </trkpt>
      <trkpt lat="37.7562149427831172943115234375" lon="-107.71226453594863414764404296875">
        <ele>3596.60009765625</ele>
        <time>2023-07-29T13:45:39.000Z</time>
        <extensions>
          <ns3:TrackPointExtension>
            <ns3:hr>115</ns3:hr>
            <ns3:cad>0</ns3:cad>
          </ns3:TrackPointExtension>
        </extensions>
      </trkpt>
      <trkpt lat="37.75622005574405193328857421875" lon="-107.71226428449153900146484375">
        <ele>3596.800048828125</ele>
        <time>2023-07-29T13:45:40.000Z</time>
        <extensions>
          <ns3:TrackPointExtension>
            <ns3:hr>115</ns3:hr>
            <ns3:cad>0</ns3:cad>
          </ns3:TrackPointExtension>
        </extensions>
      </trkpt>
      <trkpt lat="37.75621670298278331756591796875" lon="-107.7122676372528076171875">
        <ele>3597</ele>
        <time>2023-07-29T13:45:41.000Z</time>
        <extensions>
          <ns3:TrackPointExtension>
            <ns3:hr>116</ns3:hr>
            <ns3:cad>0</ns3:cad>
          </ns3:TrackPointExtension>
        </extensions>
      </trkpt>
      <trkpt lat="37.75621335022151470184326171875" lon="-107.7122708223760128021240234375">
        <ele>3597</ele>
        <time>2023-07-29T13:45:42.000Z</time>
        <extensions>
          <ns3:TrackPointExtension>
            <ns3:hr>117</ns3:hr>
            <ns3:cad>0</ns3:cad>
          </ns3:TrackPointExtension>
        </extensions>
      </trkpt>
      <trkpt lat="37.75620999746024608612060546875" lon="-107.71227006800472736358642578125">
        <ele>3597.199951171875</ele>
        <time>2023-07-29T13:45:43.000Z</time>
        <extensions>
          <ns3:TrackPointExtension>
            <ns3:hr>117</ns3:hr>
            <ns3:cad>0</ns3:cad>
          </ns3:TrackPointExtension>
        </extensions>
      </trkpt>
      <trkpt lat="37.75620815344154834747314453125" lon="-107.71226738579571247100830078125">
        <ele>3597.39990234375</ele>
        <time>2023-07-29T13:45:44.000Z</time>
        <extensions>
          <ns3:TrackPointExtension>
            <ns3:hr>118</ns3:hr>
            <ns3:cad>0</ns3:cad>
          </ns3:TrackPointExtension>
        </extensions>
      </trkpt>
      <trkpt lat="37.75620681233704090118408203125" lon="-107.71226822398602962493896484375">
        <ele>3597.60009765625</ele>
        <time>2023-07-29T13:45:45.000Z</time>
        <extensions>
          <ns3:TrackPointExtension>
            <ns3:hr>118</ns3:hr>
            <ns3:cad>0</ns3:cad>
          </ns3:TrackPointExtension>
        </extensions>
      </trkpt>
      <trkpt lat="37.7562082372605800628662109375" lon="-107.71227006800472736358642578125">
        <ele>3597.60009765625</ele>
        <time>2023-07-29T13:45:46.000Z</time>
        <extensions>
          <ns3:TrackPointExtension>
            <ns3:hr>117</ns3:hr>
            <ns3:cad>0</ns3:cad>
          </ns3:TrackPointExtension>
        </extensions>
      </trkpt>
      <trkpt lat="37.7562109194695949554443359375" lon="-107.712270654737949371337890625">
        <ele>3598</ele>
        <time>2023-07-29T13:45:47.000Z</time>
        <extensions>
          <ns3:TrackPointExtension>
            <ns3:hr>118</ns3:hr>
            <ns3:cad>0</ns3:cad>
          </ns3:TrackPointExtension>
        </extensions>
      </trkpt>
      <trkpt lat="37.756210081279277801513671875" lon="-107.71227040328085422515869140625">
        <ele>3598.199951171875</ele>
        <time>2023-07-29T13:45:48.000Z</time>
        <extensions>
          <ns3:TrackPointExtension>
            <ns3:hr>118</ns3:hr>
            <ns3:cad>0</ns3:cad>
          </ns3:TrackPointExtension>
        </extensions>
      </trkpt>
      <trkpt lat="37.7562092430889606475830078125" lon="-107.71227040328085422515869140625">
        <ele>3598.39990234375</ele>
        <time>2023-07-29T13:45:49.000Z</time>
        <extensions>
          <ns3:TrackPointExtension>
            <ns3:hr>119</ns3:hr>
            <ns3:cad>0</ns3:cad>
          </ns3:TrackPointExtension>
        </extensions>
      </trkpt>
      <trkpt lat="37.75620496831834316253662109375" lon="-107.71227090619504451751708984375">
        <ele>3598.39990234375</ele>
        <time>2023-07-29T13:45:50.000Z</time>
        <extensions>
          <ns3:TrackPointExtension>
            <ns3:hr>120</ns3:hr>
            <ns3:cad>0</ns3:cad>
          </ns3:TrackPointExtension>
        </extensions>
      </trkpt>
      <trkpt lat="37.75620438158512115478515625" lon="-107.7122765220701694488525390625">
        <ele>3598.800048828125</ele>
        <time>2023-07-29T13:45:51.000Z</time>
        <extensions>
          <ns3:TrackPointExtension>
            <ns3:hr>120</ns3:hr>
            <ns3:cad>0</ns3:cad>
          </ns3:TrackPointExtension>
        </extensions>
      </trkpt>
      <trkpt lat="37.75620312429964542388916015625" lon="-107.7122783660888671875">
        <ele>3598.800048828125</ele>
        <time>2023-07-29T13:45:52.000Z</time>
        <extensions>
          <ns3:TrackPointExtension>
            <ns3:hr>119</ns3:hr>
            <ns3:cad>0</ns3:cad>
          </ns3:TrackPointExtension>
        </extensions>
      </trkpt>
      <trkpt lat="37.7562062256038188934326171875" lon="-107.7122783660888671875">
        <ele>3598.800048828125</ele>
        <time>2023-07-29T13:45:53.000Z</time>
        <extensions>
          <ns3:TrackPointExtension>
            <ns3:hr>119</ns3:hr>
            <ns3:cad>0</ns3:cad>
          </ns3:TrackPointExtension>
        </extensions>
      </trkpt>
      <trkpt lat="37.7562089078128337860107421875" lon="-107.712273336946964263916015625">
        <ele>3598.800048828125</ele>
        <time>2023-07-29T13:45:54.000Z</time>
        <extensions>
          <ns3:TrackPointExtension>
            <ns3:hr>118</ns3:hr>
            <ns3:cad>0</ns3:cad>
          </ns3:TrackPointExtension>
        </extensions>
      </trkpt>
      <trkpt lat="37.75621603243052959442138671875" lon="-107.712259925901889801025390625">
        <ele>3599</ele>
        <time>2023-07-29T13:45:55.000Z</time>
        <extensions>
          <ns3:TrackPointExtension>
            <ns3:hr>118</ns3:hr>
            <ns3:cad>0</ns3:cad>
          </ns3:TrackPointExtension>
        </extensions>
      </trkpt>
      <trkpt lat="37.7562224864959716796875" lon="-107.71225632168352603912353515625">
        <ele>3599</ele>
        <time>2023-07-29T13:45:56.000Z</time>
        <extensions>
          <ns3:TrackPointExtension>
            <ns3:hr>117</ns3:hr>
            <ns3:cad>0</ns3:cad>
          </ns3:TrackPointExtension>
        </extensions>
      </trkpt>
      <trkpt lat="37.75622642599046230316162109375" lon="-107.7122507058084011077880859375">
        <ele>3599.199951171875</ele>
        <time>2023-07-29T13:45:57.000Z</time>
        <extensions>
          <ns3:TrackPointExtension>
            <ns3:hr>117</ns3:hr>
            <ns3:cad>0</ns3:cad>
          </ns3:TrackPointExtension>
        </extensions>
      </trkpt>
      <trkpt lat="37.75622977875173091888427734375" lon="-107.71224911324679851531982421875">
        <ele>3599.39990234375</ele>
        <time>2023-07-29T13:45:58.000Z</time>
        <extensions>
          <ns3:TrackPointExtension>
            <ns3:hr>117</ns3:hr>
            <ns3:cad>0</ns3:cad>
          </ns3:TrackPointExtension>
        </extensions>
      </trkpt>
      <trkpt lat="37.756236232817173004150390625" lon="-107.7122456766664981842041015625">
        <ele>3599.39990234375</ele>
        <time>2023-07-29T13:45:59.000Z</time>
        <extensions>
          <ns3:TrackPointExtension>
            <ns3:hr>117</ns3:hr>
            <ns3:cad>0</ns3:cad>
          </ns3:TrackPointExtension>
        </extensions>
      </trkpt>
      <trkpt lat="37.7562347240746021270751953125" lon="-107.7122463472187519073486328125">
        <ele>3599.60009765625</ele>
        <time>2023-07-29T13:46:00.000Z</time>
        <extensions>
          <ns3:TrackPointExtension>
            <ns3:hr>117</ns3:hr>
            <ns3:cad>0</ns3:cad>
          </ns3:TrackPointExtension>
        </extensions>
      </trkpt>
      <trkpt lat="37.75623715482652187347412109375" lon="-107.712245844304561614990234375">
        <ele>3600</ele>
        <time>2023-07-29T13:46:01.000Z</time>
        <extensions>
          <ns3:TrackPointExtension>
            <ns3:hr>117</ns3:hr>
            <ns3:cad>0</ns3:cad>
          </ns3:TrackPointExtension>
        </extensions>
      </trkpt>
      <trkpt lat="37.75623514316976070404052734375" lon="-107.71224592812359333038330078125">
        <ele>3600</ele>
        <time>2023-07-29T13:46:02.000Z</time>
        <extensions>
          <ns3:TrackPointExtension>
            <ns3:hr>118</ns3:hr>
            <ns3:cad>75</ns3:cad>
          </ns3:TrackPointExtension>
        </extensions>
      </trkpt>
      <trkpt lat="37.7562357299029827117919921875" lon="-107.712241820991039276123046875">
        <ele>3600.199951171875</ele>
        <time>2023-07-29T13:46:03.000Z</time>
        <extensions>
          <ns3:TrackPointExtension>
            <ns3:hr>117</ns3:hr>
            <ns3:cad>75</ns3:cad>
          </ns3:TrackPointExtension>
        </extensions>
      </trkpt>
      <trkpt lat="37.7562318742275238037109375" lon="-107.71224106661975383758544921875">
        <ele>3600.199951171875</ele>
        <time>2023-07-29T13:46:04.000Z</time>
        <extensions>
          <ns3:TrackPointExtension>
            <ns3:hr>117</ns3:hr>
            <ns3:cad>0</ns3:cad>
          </ns3:TrackPointExtension>
        </extensions>
      </trkpt>
      <trkpt lat="37.75622961111366748809814453125" lon="-107.7122423239052295684814453125">
        <ele>3600.60009765625</ele>
        <time>2023-07-29T13:46:05.000Z</time>
        <extensions>
          <ns3:TrackPointExtension>
            <ns3:hr>117</ns3:hr>
            <ns3:cad>0</ns3:cad>
          </ns3:TrackPointExtension>
        </extensions>
      </trkpt>
      <trkpt lat="37.75622810237109661102294921875" lon="-107.7122406475245952606201171875">
        <ele>3601</ele>
        <time>2023-07-29T13:46:06.000Z</time>
        <extensions>
          <ns3:TrackPointExtension>
            <ns3:hr>117</ns3:hr>
            <ns3:cad>0</ns3:cad>
          </ns3:TrackPointExtension>
        </extensions>
      </trkpt>
      <trkpt lat="37.75623380206525325775146484375" lon="-107.7122383005917072296142578125">
        <ele>3601</ele>
        <time>2023-07-29T13:46:07.000Z</time>
        <extensions>
          <ns3:TrackPointExtension>
            <ns3:hr>117</ns3:hr>
            <ns3:cad>0</ns3:cad>
          </ns3:TrackPointExtension>
        </extensions>
      </trkpt>
      <trkpt lat="37.75623313151299953460693359375" lon="-107.71224492229521274566650390625">
        <ele>3601</ele>
        <time>2023-07-29T13:46:08.000Z</time>
        <extensions>
          <ns3:TrackPointExtension>
            <ns3:hr>116</ns3:hr>
            <ns3:cad>0</ns3:cad>
          </ns3:TrackPointExtension>
        </extensions>
      </trkpt>
      <trkpt lat="37.7562345564365386962890625" lon="-107.71225355565547943115234375">
        <ele>3601</ele>
        <time>2023-07-29T13:46:09.000Z</time>
        <extensions>
          <ns3:TrackPointExtension>
            <ns3:hr>116</ns3:hr>
            <ns3:cad>0</ns3:cad>
          </ns3:TrackPointExtension>
        </extensions>
      </trkpt>
      <trkpt lat="37.75623656809329986572265625" lon="-107.71226068027317523956298828125">
        <ele>3601</ele>
        <time>2023-07-29T13:46:10.000Z</time>
        <extensions>
          <ns3:TrackPointExtension>
            <ns3:hr>117</ns3:hr>
            <ns3:cad>0</ns3:cad>
          </ns3:TrackPointExtension>
        </extensions>
      </trkpt>
      <trkpt lat="37.7562457881867885589599609375" lon="-107.71226964890956878662109375">
        <ele>3601</ele>
        <time>2023-07-29T13:46:11.000Z</time>
        <extensions>
          <ns3:TrackPointExtension>
            <ns3:hr>117</ns3:hr>
            <ns3:cad>0</ns3:cad>
          </ns3:TrackPointExtension>
        </extensions>
      </trkpt>
      <trkpt lat="37.7562560141086578369140625" lon="-107.71227769553661346435546875">
        <ele>3601.199951171875</ele>
        <time>2023-07-29T13:46:12.000Z</time>
        <extensions>
          <ns3:TrackPointExtension>
            <ns3:hr>117</ns3:hr>
            <ns3:cad>0</ns3:cad>
          </ns3:TrackPointExtension>
        </extensions>
      </trkpt>
      <trkpt lat="37.756262384355068206787109375" lon="-107.712286077439785003662109375">
        <ele>3601.39990234375</ele>
        <time>2023-07-29T13:46:13.000Z</time>
        <extensions>
          <ns3:TrackPointExtension>
            <ns3:hr>117</ns3:hr>
            <ns3:cad>0</ns3:cad>
          </ns3:TrackPointExtension>
        </extensions>
      </trkpt>
      <trkpt lat="37.75627034716308116912841796875" lon="-107.7122952975332736968994140625">
        <ele>3601.60009765625</ele>
        <time>2023-07-29T13:46:14.000Z</time>
        <extensions>
          <ns3:TrackPointExtension>
            <ns3:hr>118</ns3:hr>
            <ns3:cad>0</ns3:cad>
          </ns3:TrackPointExtension>
        </extensions>
      </trkpt>
      <trkpt lat="37.75627336464822292327880859375" lon="-107.7123003266751766204833984375">
        <ele>3601.800048828125</ele>
        <time>2023-07-29T13:46:15.000Z</time>
        <extensions>
          <ns3:TrackPointExtension>
            <ns3:hr>117</ns3:hr>
            <ns3:cad>0</ns3:cad>
          </ns3:TrackPointExtension>
        </extensions>
      </trkpt>
      <trkpt lat="37.75627889670431613922119140625" lon="-107.7123013325035572052001953125">
        <ele>3602.199951171875</ele>
        <time>2023-07-29T13:46:16.000Z</time>
        <extensions>
          <ns3:TrackPointExtension>
            <ns3:hr>117</ns3:hr>
            <ns3:cad>0</ns3:cad>
          </ns3:TrackPointExtension>
        </extensions>
      </trkpt>
      <trkpt lat="37.75628409348428249359130859375" lon="-107.7123033441603183746337890625">
        <ele>3602.199951171875</ele>
        <time>2023-07-29T13:46:17.000Z</time>
        <extensions>
          <ns3:TrackPointExtension>
            <ns3:hr>118</ns3:hr>
            <ns3:cad>0</ns3:cad>
          </ns3:TrackPointExtension>
        </extensions>
      </trkpt>
      <trkpt lat="37.756285183131694793701171875" lon="-107.71230183541774749755859375">
        <ele>3602.39990234375</ele>
        <time>2023-07-29T13:46:18.000Z</time>
        <extensions>
          <ns3:TrackPointExtension>
            <ns3:hr>118</ns3:hr>
            <ns3:cad>0</ns3:cad>
          </ns3:TrackPointExtension>
        </extensions>
      </trkpt>
      <trkpt lat="37.756291218101978302001953125" lon="-107.71230049431324005126953125">
        <ele>3602.60009765625</ele>
        <time>2023-07-29T13:46:19.000Z</time>
        <extensions>
          <ns3:TrackPointExtension>
            <ns3:hr>118</ns3:hr>
            <ns3:cad>0</ns3:cad>
          </ns3:TrackPointExtension>
        </extensions>
      </trkpt>
      <trkpt lat="37.75629381649196147918701171875" lon="-107.7122912742197513580322265625">
        <ele>3603</ele>
        <time>2023-07-29T13:46:20.000Z</time>
        <extensions>
          <ns3:TrackPointExtension>
            <ns3:hr>118</ns3:hr>
            <ns3:cad>66</ns3:cad>
          </ns3:TrackPointExtension>
        </extensions>
      </trkpt>
      <trkpt lat="37.75629415176808834075927734375" lon="-107.7122815512120723724365234375">
        <ele>3603.199951171875</ele>
        <time>2023-07-29T13:46:21.000Z</time>
        <extensions>
          <ns3:TrackPointExtension>
            <ns3:hr>118</ns3:hr>
            <ns3:cad>66</ns3:cad>
          </ns3:TrackPointExtension>
        </extensions>
      </trkpt>
      <trkpt lat="37.756297253072261810302734375" lon="-107.71227593533694744110107421875">
        <ele>3603.39990234375</ele>
        <time>2023-07-29T13:46:22.000Z</time>
        <extensions>
          <ns3:TrackPointExtension>
            <ns3:hr>118</ns3:hr>
            <ns3:cad>0</ns3:cad>
          </ns3:TrackPointExtension>
        </extensions>
      </trkpt>
      <trkpt lat="37.75629700161516666412353515625" lon="-107.712277360260486602783203125">
        <ele>3603.60009765625</ele>
        <time>2023-07-29T13:46:23.000Z</time>
        <extensions>
          <ns3:TrackPointExtension>
            <ns3:hr>118</ns3:hr>
            <ns3:cad>0</ns3:cad>
          </ns3:TrackPointExtension>
        </extensions>
      </trkpt>
      <trkpt lat="37.75629783980548381805419921875" lon="-107.71227794699370861053466796875">
        <ele>3603.800048828125</ele>
        <time>2023-07-29T13:46:24.000Z</time>
        <extensions>
          <ns3:TrackPointExtension>
            <ns3:hr>118</ns3:hr>
            <ns3:cad>0</ns3:cad>
          </ns3:TrackPointExtension>
        </extensions>
      </trkpt>
      <trkpt lat="37.75629582814872264862060546875" lon="-107.712297476828098297119140625">
        <ele>3604</ele>
        <time>2023-07-29T13:46:25.000Z</time>
        <extensions>
          <ns3:TrackPointExtension>
            <ns3:hr>118</ns3:hr>
            <ns3:cad>0</ns3:cad>
          </ns3:TrackPointExtension>
        </extensions>
      </trkpt>
      <trkpt lat="37.7562962472438812255859375" lon="-107.7123046852648258209228515625">
        <ele>3604.199951171875</ele>
        <time>2023-07-29T13:46:26.000Z</time>
        <extensions>
          <ns3:TrackPointExtension>
            <ns3:hr>119</ns3:hr>
            <ns3:cad>0</ns3:cad>
          </ns3:TrackPointExtension>
        </extensions>
      </trkpt>
      <trkpt lat="37.756301276385784149169921875" lon="-107.7123053558170795440673828125">
        <ele>3604.39990234375</ele>
        <time>2023-07-29T13:46:27.000Z</time>
        <extensions>
          <ns3:TrackPointExtension>
            <ns3:hr>120</ns3:hr>
            <ns3:cad>0</ns3:cad>
          </ns3:TrackPointExtension>
        </extensions>
      </trkpt>
      <trkpt lat="37.7563084848225116729736328125" lon="-107.71230443380773067474365234375">
        <ele>3604.60009765625</ele>
        <time>2023-07-29T13:46:28.000Z</time>
        <extensions>
          <ns3:TrackPointExtension>
            <ns3:hr>120</ns3:hr>
            <ns3:cad>0</ns3:cad>
          </ns3:TrackPointExtension>
        </extensions>
      </trkpt>
      <trkpt lat="37.75630856864154338836669921875" lon="-107.71229957230389118194580078125">
        <ele>3604.800048828125</ele>
        <time>2023-07-29T13:46:29.000Z</time>
        <extensions>
          <ns3:TrackPointExtension>
            <ns3:hr>119</ns3:hr>
            <ns3:cad>0</ns3:cad>
          </ns3:TrackPointExtension>
        </extensions>
      </trkpt>
      <trkpt lat="37.75631208904087543487548828125" lon="-107.71228699944913387298583984375">
        <ele>3604.800048828125</ele>
        <time>2023-07-29T13:46:30.000Z</time>
        <extensions>
          <ns3:TrackPointExtension>
            <ns3:hr>119</ns3:hr>
            <ns3:cad>0</ns3:cad>
          </ns3:TrackPointExtension>
        </extensions>
      </trkpt>
      <trkpt lat="37.75631460361182689666748046875" lon="-107.712282724678516387939453125">
        <ele>3605</ele>
        <time>2023-07-29T13:46:31.000Z</time>
        <extensions>
          <ns3:TrackPointExtension>
            <ns3:hr>119</ns3:hr>
            <ns3:cad>0</ns3:cad>
          </ns3:TrackPointExtension>
        </extensions>
      </trkpt>
      <trkpt lat="37.756318710744380950927734375" lon="-107.71227912046015262603759765625">
        <ele>3605</ele>
        <time>2023-07-29T13:46:32.000Z</time>
        <extensions>
          <ns3:TrackPointExtension>
            <ns3:hr>119</ns3:hr>
            <ns3:cad>0</ns3:cad>
          </ns3:TrackPointExtension>
        </extensions>
      </trkpt>
      <trkpt lat="37.75631971657276153564453125" lon="-107.71227710880339145660400390625">
        <ele>3605.199951171875</ele>
        <time>2023-07-29T13:46:33.000Z</time>
        <extensions>
          <ns3:TrackPointExtension>
            <ns3:hr>119</ns3:hr>
            <ns3:cad>0</ns3:cad>
          </ns3:TrackPointExtension>
        </extensions>
      </trkpt>
      <trkpt lat="37.7563239075243473052978515625" lon="-107.7122724987566471099853515625">
        <ele>3605.60009765625</ele>
        <time>2023-07-29T13:46:34.000Z</time>
        <extensions>
          <ns3:TrackPointExtension>
            <ns3:hr>119</ns3:hr>
            <ns3:cad>0</ns3:cad>
          </ns3:TrackPointExtension>
        </extensions>
      </trkpt>
      <trkpt lat="37.75633052922785282135009765625" lon="-107.7122689783573150634765625">
        <ele>3605.800048828125</ele>
        <time>2023-07-29T13:46:35.000Z</time>
        <extensions>
          <ns3:TrackPointExtension>
            <ns3:hr>118</ns3:hr>
            <ns3:cad>0</ns3:cad>
          </ns3:TrackPointExtension>
        </extensions>
      </trkpt>
      <trkpt lat="37.75633220560848712921142578125" lon="-107.712270654737949371337890625">
        <ele>3606</ele>
        <time>2023-07-29T13:46:36.000Z</time>
        <extensions>
          <ns3:TrackPointExtension>
            <ns3:hr>118</ns3:hr>
            <ns3:cad>0</ns3:cad>
          </ns3:TrackPointExtension>
        </extensions>
      </trkpt>
      <trkpt lat="37.75633840821683406829833984375" lon="-107.71226788870990276336669921875">
        <ele>3606.199951171875</ele>
        <time>2023-07-29T13:46:37.000Z</time>
        <extensions>
          <ns3:TrackPointExtension>
            <ns3:hr>118</ns3:hr>
            <ns3:cad>0</ns3:cad>
          </ns3:TrackPointExtension>
        </extensions>
      </trkpt>
      <trkpt lat="37.75634578429162502288818359375" lon="-107.7122617699205875396728515625">
        <ele>3606.39990234375</ele>
        <time>2023-07-29T13:46:38.000Z</time>
        <extensions>
          <ns3:TrackPointExtension>
            <ns3:hr>119</ns3:hr>
            <ns3:cad>0</ns3:cad>
          </ns3:TrackPointExtension>
        </extensions>
      </trkpt>
      <trkpt lat="37.75635617785155773162841796875" lon="-107.71225933916866779327392578125">
        <ele>3606.39990234375</ele>
        <time>2023-07-29T13:46:39.000Z</time>
        <extensions>
          <ns3:TrackPointExtension>
            <ns3:hr>119</ns3:hr>
            <ns3:cad>0</ns3:cad>
          </ns3:TrackPointExtension>
        </extensions>
      </trkpt>
      <trkpt lat="37.7563570998609066009521484375" lon="-107.71225950680673122406005859375">
        <ele>3606.60009765625</ele>
        <time>2023-07-29T13:46:40.000Z</time>
        <extensions>
          <ns3:TrackPointExtension>
            <ns3:hr>120</ns3:hr>
            <ns3:cad>0</ns3:cad>
          </ns3:TrackPointExtension>
        </extensions>
      </trkpt>
      <trkpt lat="37.756363637745380401611328125" lon="-107.71225489675998687744140625">
        <ele>3606.800048828125</ele>
        <time>2023-07-29T13:46:41.000Z</time>
        <extensions>
          <ns3:TrackPointExtension>
            <ns3:hr>120</ns3:hr>
            <ns3:cad>0</ns3:cad>
          </ns3:TrackPointExtension>
        </extensions>
      </trkpt>
      <trkpt lat="37.75636808015406131744384765625" lon="-107.71225196309387683868408203125">
        <ele>3607</ele>
        <time>2023-07-29T13:46:42.000Z</time>
        <extensions>
          <ns3:TrackPointExtension>
            <ns3:hr>120</ns3:hr>
            <ns3:cad>0</ns3:cad>
          </ns3:TrackPointExtension>
        </extensions>
      </trkpt>
      <trkpt lat="37.7563721872866153717041015625" lon="-107.71224944852292537689208984375">
        <ele>3607.199951171875</ele>
        <time>2023-07-29T13:46:43.000Z</time>
        <extensions>
          <ns3:TrackPointExtension>
            <ns3:hr>119</ns3:hr>
            <ns3:cad>0</ns3:cad>
          </ns3:TrackPointExtension>
        </extensions>
      </trkpt>
      <trkpt lat="37.7563768811523914337158203125" lon="-107.71224710159003734588623046875">
        <ele>3607.39990234375</ele>
        <time>2023-07-29T13:46:44.000Z</time>
        <extensions>
          <ns3:TrackPointExtension>
            <ns3:hr>119</ns3:hr>
            <ns3:cad>0</ns3:cad>
          </ns3:TrackPointExtension>
        </extensions>
      </trkpt>
      <trkpt lat="37.7563775517046451568603515625" lon="-107.7122409828007221221923828125">
        <ele>3607.60009765625</ele>
        <time>2023-07-29T13:46:45.000Z</time>
        <extensions>
          <ns3:TrackPointExtension>
            <ns3:hr>120</ns3:hr>
            <ns3:cad>0</ns3:cad>
          </ns3:TrackPointExtension>
        </extensions>
      </trkpt>
      <trkpt lat="37.7563825808465480804443359375" lon="-107.7122372947633266448974609375">
        <ele>3607.60009765625</ele>
        <time>2023-07-29T13:46:46.000Z</time>
        <extensions>
          <ns3:TrackPointExtension>
            <ns3:hr>121</ns3:hr>
            <ns3:cad>0</ns3:cad>
          </ns3:TrackPointExtension>
        </extensions>
      </trkpt>
      <trkpt lat="37.7563832513988018035888671875" lon="-107.7122315950691699981689453125">
        <ele>3607.800048828125</ele>
        <time>2023-07-29T13:46:47.000Z</time>
        <extensions>
          <ns3:TrackPointExtension>
            <ns3:hr>121</ns3:hr>
            <ns3:cad>0</ns3:cad>
          </ns3:TrackPointExtension>
        </extensions>
      </trkpt>
      <trkpt lat="37.75638635270297527313232421875" lon="-107.71222363226115703582763671875">
        <ele>3608.199951171875</ele>
        <time>2023-07-29T13:46:48.000Z</time>
        <extensions>
          <ns3:TrackPointExtension>
            <ns3:hr>122</ns3:hr>
            <ns3:cad>0</ns3:cad>
          </ns3:TrackPointExtension>
        </extensions>
      </trkpt>
      <trkpt lat="37.75639104656875133514404296875" lon="-107.7122151665389537811279296875">
        <ele>3608.39990234375</ele>
        <time>2023-07-29T13:46:49.000Z</time>
        <extensions>
          <ns3:TrackPointExtension>
            <ns3:hr>122</ns3:hr>
            <ns3:cad>0</ns3:cad>
          </ns3:TrackPointExtension>
        </extensions>
      </trkpt>
      <trkpt lat="37.7563901245594024658203125" lon="-107.7122126519680023193359375">
        <ele>3608.60009765625</ele>
        <time>2023-07-29T13:46:50.000Z</time>
        <extensions>
          <ns3:TrackPointExtension>
            <ns3:hr>123</ns3:hr>
            <ns3:cad>0</ns3:cad>
          </ns3:TrackPointExtension>
        </extensions>
      </trkpt>
      <trkpt lat="37.75639004074037075042724609375" lon="-107.712209634482860565185546875">
        <ele>3608.60009765625</ele>
        <time>2023-07-29T13:46:51.000Z</time>
        <extensions>
          <ns3:TrackPointExtension>
            <ns3:hr>123</ns3:hr>
            <ns3:cad>0</ns3:cad>
          </ns3:TrackPointExtension>
        </extensions>
      </trkpt>
      <trkpt lat="37.7563943155109882354736328125" lon="-107.71220435388386249542236328125">
        <ele>3608.800048828125</ele>
        <time>2023-07-29T13:46:52.000Z</time>
        <extensions>
          <ns3:TrackPointExtension>
            <ns3:hr>123</ns3:hr>
            <ns3:cad>0</ns3:cad>
          </ns3:TrackPointExtension>
        </extensions>
      </trkpt>
      <trkpt lat="37.75640018284320831298828125" lon="-107.71219848655164241790771484375">
        <ele>3608.800048828125</ele>
        <time>2023-07-29T13:46:53.000Z</time>
        <extensions>
          <ns3:TrackPointExtension>
            <ns3:hr>123</ns3:hr>
            <ns3:cad>0</ns3:cad>
          </ns3:TrackPointExtension>
        </extensions>
      </trkpt>
      <trkpt lat="37.75640244595706462860107421875" lon="-107.71219722926616668701171875">
        <ele>3609</ele>
        <time>2023-07-29T13:46:54.000Z</time>
        <extensions>
          <ns3:TrackPointExtension>
            <ns3:hr>123</ns3:hr>
            <ns3:cad>0</ns3:cad>
          </ns3:TrackPointExtension>
        </extensions>
      </trkpt>
      <trkpt lat="37.7564057148993015289306640625" lon="-107.7121890150010585784912109375">
        <ele>3609</ele>
        <time>2023-07-29T13:46:55.000Z</time>
        <extensions>
          <ns3:TrackPointExtension>
            <ns3:hr>122</ns3:hr>
            <ns3:cad>0</ns3:cad>
          </ns3:TrackPointExtension>
        </extensions>
      </trkpt>
      <trkpt lat="37.75640596635639667510986328125" lon="-107.71218725480139255523681640625">
        <ele>3609</ele>
        <time>2023-07-29T13:46:56.000Z</time>
        <extensions>
          <ns3:TrackPointExtension>
            <ns3:hr>122</ns3:hr>
            <ns3:cad>0</ns3:cad>
          </ns3:TrackPointExtension>
        </extensions>
      </trkpt>
      <trkpt lat="37.75640688836574554443359375" lon="-107.71218507550656795501708984375">
        <ele>3609.199951171875</ele>
        <time>2023-07-29T13:46:57.000Z</time>
        <extensions>
          <ns3:TrackPointExtension>
            <ns3:hr>122</ns3:hr>
            <ns3:cad>0</ns3:cad>
          </ns3:TrackPointExtension>
        </extensions>
      </trkpt>
      <trkpt lat="37.7564053796231746673583984375" lon="-107.71218691952526569366455078125">
        <ele>3609.199951171875</ele>
        <time>2023-07-29T13:46:58.000Z</time>
        <extensions>
          <ns3:TrackPointExtension>
            <ns3:hr>122</ns3:hr>
            <ns3:cad>0</ns3:cad>
          </ns3:TrackPointExtension>
        </extensions>
      </trkpt>
      <trkpt lat="37.7564035356044769287109375" lon="-107.71218775771558284759521484375">
        <ele>3609.60009765625</ele>
        <time>2023-07-29T13:46:59.000Z</time>
        <extensions>
          <ns3:TrackPointExtension>
            <ns3:hr>122</ns3:hr>
            <ns3:cad>0</ns3:cad>
          </ns3:TrackPointExtension>
        </extensions>
      </trkpt>
      <trkpt lat="37.75640328414738178253173828125" lon="-107.71218691952526569366455078125">
        <ele>3609.60009765625</ele>
        <time>2023-07-29T13:47:00.000Z</time>
        <extensions>
          <ns3:TrackPointExtension>
            <ns3:hr>122</ns3:hr>
            <ns3:cad>0</ns3:cad>
          </ns3:TrackPointExtension>
        </extensions>
      </trkpt>
      <trkpt lat="37.756402194499969482421875" lon="-107.71218507550656795501708984375">
        <ele>3609.60009765625</ele>
        <time>2023-07-29T13:47:01.000Z</time>
        <extensions>
          <ns3:TrackPointExtension>
            <ns3:hr>122</ns3:hr>
            <ns3:cad>0</ns3:cad>
          </ns3:TrackPointExtension>
        </extensions>
      </trkpt>
      <trkpt lat="37.756402529776096343994140625" lon="-107.712179459631443023681640625">
        <ele>3609.60009765625</ele>
        <time>2023-07-29T13:47:02.000Z</time>
        <extensions>
          <ns3:TrackPointExtension>
            <ns3:hr>122</ns3:hr>
            <ns3:cad>0</ns3:cad>
          </ns3:TrackPointExtension>
        </extensions>
      </trkpt>
      <trkpt lat="37.7564030326902866363525390625" lon="-107.71217836998403072357177734375">
        <ele>3609.60009765625</ele>
        <time>2023-07-29T13:47:03.000Z</time>
        <extensions>
          <ns3:TrackPointExtension>
            <ns3:hr>122</ns3:hr>
            <ns3:cad>0</ns3:cad>
          </ns3:TrackPointExtension>
        </extensions>
      </trkpt>
      <trkpt lat="37.75640093721449375152587890625" lon="-107.712179124355316162109375">
        <ele>3609.60009765625</ele>
        <time>2023-07-29T13:47:04.000Z</time>
        <extensions>
          <ns3:TrackPointExtension>
            <ns3:hr>122</ns3:hr>
            <ns3:cad>0</ns3:cad>
          </ns3:TrackPointExtension>
        </extensions>
      </trkpt>
      <trkpt lat="37.75640144012868404388427734375" lon="-107.71217711269855499267578125">
        <ele>3609.60009765625</ele>
        <time>2023-07-29T13:47:05.000Z</time>
        <extensions>
          <ns3:TrackPointExtension>
            <ns3:hr>122</ns3:hr>
            <ns3:cad>0</ns3:cad>
          </ns3:TrackPointExtension>
        </extensions>
      </trkpt>
      <trkpt lat="37.7564003504812717437744140625" lon="-107.71218071691691875457763671875">
        <ele>3609.60009765625</ele>
        <time>2023-07-29T13:47:06.000Z</time>
        <extensions>
          <ns3:TrackPointExtension>
            <ns3:hr>121</ns3:hr>
            <ns3:cad>0</ns3:cad>
          </ns3:TrackPointExtension>
        </extensions>
      </trkpt>
      <trkpt lat="37.756400518119335174560546875" lon="-107.71218172274529933929443359375">
        <ele>3609.800048828125</ele>
        <time>2023-07-29T13:47:07.000Z</time>
        <extensions>
          <ns3:TrackPointExtension>
            <ns3:hr>121</ns3:hr>
            <ns3:cad>0</ns3:cad>
          </ns3:TrackPointExtension>
        </extensions>
      </trkpt>
      <trkpt lat="37.75640244595706462860107421875" lon="-107.712180800735950469970703125">
        <ele>3609.800048828125</ele>
        <time>2023-07-29T13:47:08.000Z</time>
        <extensions>
          <ns3:TrackPointExtension>
            <ns3:hr>120</ns3:hr>
            <ns3:cad>0</ns3:cad>
          </ns3:TrackPointExtension>
        </extensions>
      </trkpt>
      <trkpt lat="37.75640177540481090545654296875" lon="-107.71218004636466503143310546875">
        <ele>3609.800048828125</ele>
        <time>2023-07-29T13:47:09.000Z</time>
        <extensions>
          <ns3:TrackPointExtension>
            <ns3:hr>120</ns3:hr>
            <ns3:cad>0</ns3:cad>
          </ns3:TrackPointExtension>
        </extensions>
      </trkpt>
      <trkpt lat="37.75640026666224002838134765625" lon="-107.71218004636466503143310546875">
        <ele>3609.800048828125</ele>
        <time>2023-07-29T13:47:10.000Z</time>
        <extensions>
          <ns3:TrackPointExtension>
            <ns3:hr>121</ns3:hr>
            <ns3:cad>0</ns3:cad>
          </ns3:TrackPointExtension>
        </extensions>
      </trkpt>
      <trkpt lat="37.75639993138611316680908203125" lon="-107.7121769450604915618896484375">
        <ele>3609.800048828125</ele>
        <time>2023-07-29T13:47:11.000Z</time>
        <extensions>
          <ns3:TrackPointExtension>
            <ns3:hr>121</ns3:hr>
            <ns3:cad>0</ns3:cad>
          </ns3:TrackPointExtension>
        </extensions>
      </trkpt>
      <trkpt lat="37.75640076957643032073974609375" lon="-107.712175436317920684814453125">
        <ele>3609.800048828125</ele>
        <time>2023-07-29T13:47:12.000Z</time>
        <extensions>
          <ns3:TrackPointExtension>
            <ns3:hr>121</ns3:hr>
            <ns3:cad>0</ns3:cad>
          </ns3:TrackPointExtension>
        </extensions>
      </trkpt>
      <trkpt lat="37.75640412233769893646240234375" lon="-107.7121692337095737457275390625">
        <ele>3610</ele>
        <time>2023-07-29T13:47:13.000Z</time>
        <extensions>
          <ns3:TrackPointExtension>
            <ns3:hr>121</ns3:hr>
            <ns3:cad>0</ns3:cad>
          </ns3:TrackPointExtension>
        </extensions>
      </trkpt>
      <trkpt lat="37.75640957057476043701171875" lon="-107.7121611870825290679931640625">
        <ele>3609.800048828125</ele>
        <time>2023-07-29T13:47:14.000Z</time>
        <extensions>
          <ns3:TrackPointExtension>
            <ns3:hr>120</ns3:hr>
            <ns3:cad>0</ns3:cad>
          </ns3:TrackPointExtension>
        </extensions>
      </trkpt>
      <trkpt lat="37.75641384534537792205810546875" lon="-107.71215573884546756744384765625">
        <ele>3610</ele>
        <time>2023-07-29T13:47:15.000Z</time>
        <extensions>
          <ns3:TrackPointExtension>
            <ns3:hr>120</ns3:hr>
            <ns3:cad>0</ns3:cad>
          </ns3:TrackPointExtension>
        </extensions>
      </trkpt>
      <trkpt lat="37.75641384534537792205810546875" lon="-107.71215523593127727508544921875">
        <ele>3610</ele>
        <time>2023-07-29T13:47:16.000Z</time>
        <extensions>
          <ns3:TrackPointExtension>
            <ns3:hr>120</ns3:hr>
            <ns3:cad>0</ns3:cad>
          </ns3:TrackPointExtension>
        </extensions>
      </trkpt>
      <trkpt lat="37.756417281925678253173828125" lon="-107.71214894950389862060546875">
        <ele>3610</ele>
        <time>2023-07-29T13:47:17.000Z</time>
        <extensions>
          <ns3:TrackPointExtension>
            <ns3:hr>119</ns3:hr>
            <ns3:cad>0</ns3:cad>
          </ns3:TrackPointExtension>
        </extensions>
      </trkpt>
      <trkpt lat="37.756423316895961761474609375" lon="-107.71213880740106105804443359375">
        <ele>3610</ele>
        <time>2023-07-29T13:47:18.000Z</time>
        <extensions>
          <ns3:TrackPointExtension>
            <ns3:hr>117</ns3:hr>
            <ns3:cad>0</ns3:cad>
          </ns3:TrackPointExtension>
        </extensions>
      </trkpt>
      <trkpt lat="37.756430022418498992919921875" lon="-107.712131179869174957275390625">
        <ele>3610</ele>
        <time>2023-07-29T13:47:19.000Z</time>
        <extensions>
          <ns3:TrackPointExtension>
            <ns3:hr>115</ns3:hr>
            <ns3:cad>0</ns3:cad>
          </ns3:TrackPointExtension>
        </extensions>
      </trkpt>
      <trkpt lat="37.7564330399036407470703125" lon="-107.71212573163211345672607421875">
        <ele>3610</ele>
        <time>2023-07-29T13:47:20.000Z</time>
        <extensions>
          <ns3:TrackPointExtension>
            <ns3:hr>114</ns3:hr>
            <ns3:cad>0</ns3:cad>
          </ns3:TrackPointExtension>
        </extensions>
      </trkpt>
      <trkpt lat="37.75643127970397472381591796875" lon="-107.712131179869174957275390625">
        <ele>3610.199951171875</ele>
        <time>2023-07-29T13:47:21.000Z</time>
        <extensions>
          <ns3:TrackPointExtension>
            <ns3:hr>114</ns3:hr>
            <ns3:cad>0</ns3:cad>
          </ns3:TrackPointExtension>
        </extensions>
      </trkpt>
      <trkpt lat="37.75643228553235530853271484375" lon="-107.71213444881141185760498046875">
        <ele>3610.39990234375</ele>
        <time>2023-07-29T13:47:22.000Z</time>
        <extensions>
          <ns3:TrackPointExtension>
            <ns3:hr>113</ns3:hr>
            <ns3:cad>0</ns3:cad>
          </ns3:TrackPointExtension>
        </extensions>
      </trkpt>
      <trkpt lat="37.75643664412200450897216796875" lon="-107.71213411353528499603271484375">
        <ele>3610.39990234375</ele>
        <time>2023-07-29T13:47:23.000Z</time>
        <extensions>
          <ns3:TrackPointExtension>
            <ns3:hr>114</ns3:hr>
            <ns3:cad>0</ns3:cad>
          </ns3:TrackPointExtension>
        </extensions>
      </trkpt>
      <trkpt lat="37.75644418783485889434814453125" lon="-107.71213428117334842681884765625">
        <ele>3610.60009765625</ele>
        <time>2023-07-29T13:47:24.000Z</time>
        <extensions>
          <ns3:TrackPointExtension>
            <ns3:hr>113</ns3:hr>
            <ns3:cad>0</ns3:cad>
          </ns3:TrackPointExtension>
        </extensions>
      </trkpt>
      <trkpt lat="37.756453491747379302978515625" lon="-107.7121387235820293426513671875">
        <ele>3610.60009765625</ele>
        <time>2023-07-29T13:47:25.000Z</time>
        <extensions>
          <ns3:TrackPointExtension>
            <ns3:hr>113</ns3:hr>
            <ns3:cad>0</ns3:cad>
          </ns3:TrackPointExtension>
        </extensions>
      </trkpt>
      <trkpt lat="37.75646128691732883453369140625" lon="-107.712139226496219635009765625">
        <ele>3611</ele>
        <time>2023-07-29T13:47:26.000Z</time>
        <extensions>
          <ns3:TrackPointExtension>
            <ns3:hr>113</ns3:hr>
            <ns3:cad>0</ns3:cad>
          </ns3:TrackPointExtension>
        </extensions>
      </trkpt>
      <trkpt lat="37.75646497495472431182861328125" lon="-107.71214283071458339691162109375">
        <ele>3611</ele>
        <time>2023-07-29T13:47:27.000Z</time>
        <extensions>
          <ns3:TrackPointExtension>
            <ns3:hr>113</ns3:hr>
            <ns3:cad>0</ns3:cad>
          </ns3:TrackPointExtension>
        </extensions>
      </trkpt>
      <trkpt lat="37.75646849535405635833740234375" lon="-107.7121481113135814666748046875">
        <ele>3611.199951171875</ele>
        <time>2023-07-29T13:47:28.000Z</time>
        <extensions>
          <ns3:TrackPointExtension>
            <ns3:hr>112</ns3:hr>
            <ns3:cad>0</ns3:cad>
          </ns3:TrackPointExtension>
        </extensions>
      </trkpt>
      <trkpt lat="37.75646883063018321990966796875" lon="-107.712155990302562713623046875">
        <ele>3611.39990234375</ele>
        <time>2023-07-29T13:47:29.000Z</time>
        <extensions>
          <ns3:TrackPointExtension>
            <ns3:hr>112</ns3:hr>
            <ns3:cad>0</ns3:cad>
          </ns3:TrackPointExtension>
        </extensions>
      </trkpt>
      <trkpt lat="37.7564679086208343505859375" lon="-107.7121605165302753448486328125">
        <ele>3611.39990234375</ele>
        <time>2023-07-29T13:47:30.000Z</time>
        <extensions>
          <ns3:TrackPointExtension>
            <ns3:hr>111</ns3:hr>
            <ns3:cad>0</ns3:cad>
          </ns3:TrackPointExtension>
        </extensions>
      </trkpt>
      <trkpt lat="37.75646883063018321990966796875" lon="-107.71216261200606822967529296875">
        <ele>3611.39990234375</ele>
        <time>2023-07-29T13:47:31.000Z</time>
        <extensions>
          <ns3:TrackPointExtension>
            <ns3:hr>110</ns3:hr>
            <ns3:cad>0</ns3:cad>
          </ns3:TrackPointExtension>
        </extensions>
      </trkpt>
      <trkpt lat="37.75646983645856380462646484375" lon="-107.712164707481861114501953125">
        <ele>3611.60009765625</ele>
        <time>2023-07-29T13:47:32.000Z</time>
        <extensions>
          <ns3:TrackPointExtension>
            <ns3:hr>109</ns3:hr>
            <ns3:cad>0</ns3:cad>
          </ns3:TrackPointExtension>
        </extensions>
      </trkpt>
      <trkpt lat="37.75647000409662723541259765625" lon="-107.71216261200606822967529296875">
        <ele>3611.60009765625</ele>
        <time>2023-07-29T13:47:33.000Z</time>
        <extensions>
          <ns3:TrackPointExtension>
            <ns3:hr>109</ns3:hr>
            <ns3:cad>0</ns3:cad>
          </ns3:TrackPointExtension>
        </extensions>
      </trkpt>
      <trkpt lat="37.75647084228694438934326171875" lon="-107.712160013616085052490234375">
        <ele>3611.60009765625</ele>
        <time>2023-07-29T13:47:34.000Z</time>
        <extensions>
          <ns3:TrackPointExtension>
            <ns3:hr>110</ns3:hr>
            <ns3:cad>0</ns3:cad>
          </ns3:TrackPointExtension>
        </extensions>
      </trkpt>
      <trkpt lat="37.75647151283919811248779296875" lon="-107.71215674467384815216064453125">
        <ele>3611.800048828125</ele>
        <time>2023-07-29T13:47:35.000Z</time>
        <extensions>
          <ns3:TrackPointExtension>
            <ns3:hr>109</ns3:hr>
            <ns3:cad>0</ns3:cad>
          </ns3:TrackPointExtension>
        </extensions>
      </trkpt>
      <trkpt lat="37.75647050701081752777099609375" lon="-107.71215297281742095947265625">
        <ele>3611.800048828125</ele>
        <time>2023-07-29T13:47:36.000Z</time>
        <extensions>
          <ns3:TrackPointExtension>
            <ns3:hr>110</ns3:hr>
            <ns3:cad>0</ns3:cad>
          </ns3:TrackPointExtension>
        </extensions>
      </trkpt>
      <trkpt lat="37.756469249725341796875" lon="-107.71214299835264682769775390625">
        <ele>3611.800048828125</ele>
        <time>2023-07-29T13:47:37.000Z</time>
        <extensions>
          <ns3:TrackPointExtension>
            <ns3:hr>109</ns3:hr>
            <ns3:cad>0</ns3:cad>
          </ns3:TrackPointExtension>
        </extensions>
      </trkpt>
      <trkpt lat="37.7564690820872783660888671875" lon="-107.712142579257488250732421875">
        <ele>3611.800048828125</ele>
        <time>2023-07-29T13:47:38.000Z</time>
        <extensions>
          <ns3:TrackPointExtension>
            <ns3:hr>109</ns3:hr>
            <ns3:cad>0</ns3:cad>
          </ns3:TrackPointExtension>
        </extensions>
      </trkpt>
      <trkpt lat="37.75646933354437351226806640625" lon="-107.71214014850556850433349609375">
        <ele>3611.800048828125</ele>
        <time>2023-07-29T13:47:39.000Z</time>
        <extensions>
          <ns3:TrackPointExtension>
            <ns3:hr>109</ns3:hr>
            <ns3:cad>0</ns3:cad>
          </ns3:TrackPointExtension>
        </extensions>
      </trkpt>
      <trkpt lat="37.756471931934356689453125" lon="-107.71213822066783905029296875">
        <ele>3611.800048828125</ele>
        <time>2023-07-29T13:47:40.000Z</time>
        <extensions>
          <ns3:TrackPointExtension>
            <ns3:hr>108</ns3:hr>
            <ns3:cad>0</ns3:cad>
          </ns3:TrackPointExtension>
        </extensions>
      </trkpt>
      <trkpt lat="37.75647453032433986663818359375" lon="-107.71213595755398273468017578125">
        <ele>3611.800048828125</ele>
        <time>2023-07-29T13:47:41.000Z</time>
        <extensions>
          <ns3:TrackPointExtension>
            <ns3:hr>108</ns3:hr>
            <ns3:cad>0</ns3:cad>
          </ns3:TrackPointExtension>
        </extensions>
      </trkpt>
      <trkpt lat="37.75647738017141819000244140625" lon="-107.7121363766491413116455078125">
        <ele>3611.800048828125</ele>
        <time>2023-07-29T13:47:42.000Z</time>
        <extensions>
          <ns3:TrackPointExtension>
            <ns3:hr>108</ns3:hr>
            <ns3:cad>0</ns3:cad>
          </ns3:TrackPointExtension>
        </extensions>
      </trkpt>
      <trkpt lat="37.75648559443652629852294921875" lon="-107.71214090287685394287109375">
        <ele>3611.800048828125</ele>
        <time>2023-07-29T13:47:43.000Z</time>
        <extensions>
          <ns3:TrackPointExtension>
            <ns3:hr>109</ns3:hr>
            <ns3:cad>0</ns3:cad>
          </ns3:TrackPointExtension>
        </extensions>
      </trkpt>
      <trkpt lat="37.75648869574069976806640625" lon="-107.71214199252426624298095703125">
        <ele>3611.800048828125</ele>
        <time>2023-07-29T13:47:44.000Z</time>
        <extensions>
          <ns3:TrackPointExtension>
            <ns3:hr>109</ns3:hr>
            <ns3:cad>0</ns3:cad>
          </ns3:TrackPointExtension>
        </extensions>
      </trkpt>
      <trkpt lat="37.7564915455877780914306640625" lon="-107.71214425563812255859375">
        <ele>3611.800048828125</ele>
        <time>2023-07-29T13:47:45.000Z</time>
        <extensions>
          <ns3:TrackPointExtension>
            <ns3:hr>108</ns3:hr>
            <ns3:cad>0</ns3:cad>
          </ns3:TrackPointExtension>
        </extensions>
      </trkpt>
      <trkpt lat="37.756492383778095245361328125" lon="-107.71214651875197887420654296875">
        <ele>3611.800048828125</ele>
        <time>2023-07-29T13:47:46.000Z</time>
        <extensions>
          <ns3:TrackPointExtension>
            <ns3:hr>107</ns3:hr>
            <ns3:cad>0</ns3:cad>
          </ns3:TrackPointExtension>
        </extensions>
      </trkpt>
      <trkpt lat="37.7564928866922855377197265625" lon="-107.71214920096099376678466796875">
        <ele>3611.800048828125</ele>
        <time>2023-07-29T13:47:47.000Z</time>
        <extensions>
          <ns3:TrackPointExtension>
            <ns3:hr>107</ns3:hr>
            <ns3:cad>0</ns3:cad>
          </ns3:TrackPointExtension>
        </extensions>
      </trkpt>
      <trkpt lat="37.75649213232100009918212890625" lon="-107.712151296436786651611328125">
        <ele>3611.800048828125</ele>
        <time>2023-07-29T13:47:48.000Z</time>
        <extensions>
          <ns3:TrackPointExtension>
            <ns3:hr>106</ns3:hr>
            <ns3:cad>0</ns3:cad>
          </ns3:TrackPointExtension>
        </extensions>
      </trkpt>
      <trkpt lat="37.7564920485019683837890625" lon="-107.71215221844613552093505859375">
        <ele>3612</ele>
        <time>2023-07-29T13:47:49.000Z</time>
        <extensions>
          <ns3:TrackPointExtension>
            <ns3:hr>106</ns3:hr>
            <ns3:cad>0</ns3:cad>
          </ns3:TrackPointExtension>
        </extensions>
      </trkpt>
      <trkpt lat="37.75649129413068294525146484375" lon="-107.7121561579406261444091796875">
        <ele>3612</ele>
        <time>2023-07-29T13:47:50.000Z</time>
        <extensions>
          <ns3:TrackPointExtension>
            <ns3:hr>105</ns3:hr>
            <ns3:cad>0</ns3:cad>
          </ns3:TrackPointExtension>
        </extensions>
      </trkpt>
      <trkpt lat="37.75649297051131725311279296875" lon="-107.7121595107018947601318359375">
        <ele>3612</ele>
        <time>2023-07-29T13:47:51.000Z</time>
        <extensions>
          <ns3:TrackPointExtension>
            <ns3:hr>105</ns3:hr>
            <ns3:cad>0</ns3:cad>
          </ns3:TrackPointExtension>
        </extensions>
      </trkpt>
      <trkpt lat="37.7564935572445392608642578125" lon="-107.712159343063831329345703125">
        <ele>3612</ele>
        <time>2023-07-29T13:47:52.000Z</time>
        <extensions>
          <ns3:TrackPointExtension>
            <ns3:hr>105</ns3:hr>
            <ns3:cad>0</ns3:cad>
          </ns3:TrackPointExtension>
        </extensions>
      </trkpt>
      <trkpt lat="37.75649162940680980682373046875" lon="-107.71215909160673618316650390625">
        <ele>3612</ele>
        <time>2023-07-29T13:47:53.000Z</time>
        <extensions>
          <ns3:TrackPointExtension>
            <ns3:hr>105</ns3:hr>
            <ns3:cad>0</ns3:cad>
          </ns3:TrackPointExtension>
        </extensions>
      </trkpt>
      <trkpt lat="37.756493389606475830078125" lon="-107.71216311492025852203369140625">
        <ele>3612</ele>
        <time>2023-07-29T13:47:54.000Z</time>
        <extensions>
          <ns3:TrackPointExtension>
            <ns3:hr>105</ns3:hr>
            <ns3:cad>0</ns3:cad>
          </ns3:TrackPointExtension>
        </extensions>
      </trkpt>
      <trkpt lat="37.75649229995906352996826171875" lon="-107.71216562949120998382568359375">
        <ele>3612</ele>
        <time>2023-07-29T13:47:55.000Z</time>
        <extensions>
          <ns3:TrackPointExtension>
            <ns3:hr>105</ns3:hr>
            <ns3:cad>0</ns3:cad>
          </ns3:TrackPointExtension>
        </extensions>
      </trkpt>
      <trkpt lat="37.7564907073974609375" lon="-107.71216512657701969146728515625">
        <ele>3612.199951171875</ele>
        <time>2023-07-29T13:47:56.000Z</time>
        <extensions>
          <ns3:TrackPointExtension>
            <ns3:hr>105</ns3:hr>
            <ns3:cad>0</ns3:cad>
          </ns3:TrackPointExtension>
        </extensions>
      </trkpt>
      <trkpt lat="37.75649062357842922210693359375" lon="-107.71216504275798797607421875">
        <ele>3612.39990234375</ele>
        <time>2023-07-29T13:47:57.000Z</time>
        <extensions>
          <ns3:TrackPointExtension>
            <ns3:hr>105</ns3:hr>
            <ns3:cad>0</ns3:cad>
          </ns3:TrackPointExtension>
        </extensions>
      </trkpt>
      <trkpt lat="37.75649003684520721435546875" lon="-107.7121685631573200225830078125">
        <ele>3612.39990234375</ele>
        <time>2023-07-29T13:47:58.000Z</time>
        <extensions>
          <ns3:TrackPointExtension>
            <ns3:hr>105</ns3:hr>
            <ns3:cad>0</ns3:cad>
          </ns3:TrackPointExtension>
        </extensions>
      </trkpt>
      <trkpt lat="37.7564922161400318145751953125" lon="-107.71216998808085918426513671875">
        <ele>3612.60009765625</ele>
        <time>2023-07-29T13:47:59.000Z</time>
        <extensions>
          <ns3:TrackPointExtension>
            <ns3:hr>106</ns3:hr>
            <ns3:cad>0</ns3:cad>
          </ns3:TrackPointExtension>
        </extensions>
      </trkpt>
      <trkpt lat="37.7564945630729198455810546875" lon="-107.71216914989054203033447265625">
        <ele>3612.800048828125</ele>
        <time>2023-07-29T13:48:00.000Z</time>
        <extensions>
          <ns3:TrackPointExtension>
            <ns3:hr>105</ns3:hr>
            <ns3:cad>0</ns3:cad>
          </ns3:TrackPointExtension>
        </extensions>
      </trkpt>
      <trkpt lat="37.75649565272033214569091796875" lon="-107.7121642045676708221435546875">
        <ele>3612.800048828125</ele>
        <time>2023-07-29T13:48:01.000Z</time>
        <extensions>
          <ns3:TrackPointExtension>
            <ns3:hr>105</ns3:hr>
            <ns3:cad>0</ns3:cad>
          </ns3:TrackPointExtension>
        </extensions>
      </trkpt>
      <trkpt lat="37.7564965747296810150146484375" lon="-107.7121588401496410369873046875">
        <ele>3612.800048828125</ele>
        <time>2023-07-29T13:48:02.000Z</time>
        <extensions>
          <ns3:TrackPointExtension>
            <ns3:hr>105</ns3:hr>
            <ns3:cad>0</ns3:cad>
          </ns3:TrackPointExtension>
        </extensions>
      </trkpt>
      <trkpt lat="37.7564952336251735687255859375" lon="-107.71215691231191158294677734375">
        <ele>3612.800048828125</ele>
        <time>2023-07-29T13:48:03.000Z</time>
        <extensions>
          <ns3:TrackPointExtension>
            <ns3:hr>104</ns3:hr>
            <ns3:cad>0</ns3:cad>
          </ns3:TrackPointExtension>
        </extensions>
      </trkpt>
      <trkpt lat="37.7564948983490467071533203125" lon="-107.71216143853962421417236328125">
        <ele>3612.800048828125</ele>
        <time>2023-07-29T13:48:04.000Z</time>
        <extensions>
          <ns3:TrackPointExtension>
            <ns3:hr>104</ns3:hr>
            <ns3:cad>0</ns3:cad>
          </ns3:TrackPointExtension>
        </extensions>
      </trkpt>
      <trkpt lat="37.756497077643871307373046875" lon="-107.71217233501374721527099609375">
        <ele>3612.800048828125</ele>
        <time>2023-07-29T13:48:05.000Z</time>
        <extensions>
          <ns3:TrackPointExtension>
            <ns3:hr>104</ns3:hr>
            <ns3:cad>0</ns3:cad>
          </ns3:TrackPointExtension>
        </extensions>
      </trkpt>
      <trkpt lat="37.75650185532867908477783203125" lon="-107.71218650043010711669921875">
        <ele>3613</ele>
        <time>2023-07-29T13:48:06.000Z</time>
        <extensions>
          <ns3:TrackPointExtension>
            <ns3:hr>104</ns3:hr>
            <ns3:cad>0</ns3:cad>
          </ns3:TrackPointExtension>
        </extensions>
      </trkpt>
      <trkpt lat="37.756503783166408538818359375" lon="-107.712183482944965362548828125">
        <ele>3613</ele>
        <time>2023-07-29T13:48:07.000Z</time>
        <extensions>
          <ns3:TrackPointExtension>
            <ns3:hr>104</ns3:hr>
            <ns3:cad>0</ns3:cad>
          </ns3:TrackPointExtension>
        </extensions>
      </trkpt>
      <trkpt lat="37.75650738738477230072021484375" lon="-107.7121883444488048553466796875">
        <ele>3613.199951171875</ele>
        <time>2023-07-29T13:48:08.000Z</time>
        <extensions>
          <ns3:TrackPointExtension>
            <ns3:hr>103</ns3:hr>
            <ns3:cad>0</ns3:cad>
          </ns3:TrackPointExtension>
        </extensions>
      </trkpt>
      <trkpt lat="37.75650789029896259307861328125" lon="-107.71219127811491489410400390625">
        <ele>3613.60009765625</ele>
        <time>2023-07-29T13:48:09.000Z</time>
        <extensions>
          <ns3:TrackPointExtension>
            <ns3:hr>102</ns3:hr>
            <ns3:cad>0</ns3:cad>
          </ns3:TrackPointExtension>
        </extensions>
      </trkpt>
      <trkpt lat="37.75650654919445514678955078125" lon="-107.712192535400390625">
        <ele>3613.60009765625</ele>
        <time>2023-07-29T13:48:10.000Z</time>
        <extensions>
          <ns3:TrackPointExtension>
            <ns3:hr>101</ns3:hr>
            <ns3:cad>0</ns3:cad>
          </ns3:TrackPointExtension>
        </extensions>
      </trkpt>
      <trkpt lat="37.75650671683251857757568359375" lon="-107.7121903561055660247802734375">
        <ele>3614</ele>
        <time>2023-07-29T13:48:11.000Z</time>
        <extensions>
          <ns3:TrackPointExtension>
            <ns3:hr>101</ns3:hr>
            <ns3:cad>0</ns3:cad>
          </ns3:TrackPointExtension>
        </extensions>
      </trkpt>
      <trkpt lat="37.75650520808994770050048828125" lon="-107.712187506258487701416015625">
        <ele>3614</ele>
        <time>2023-07-29T13:48:12.000Z</time>
        <extensions>
          <ns3:TrackPointExtension>
            <ns3:hr>102</ns3:hr>
            <ns3:cad>0</ns3:cad>
          </ns3:TrackPointExtension>
        </extensions>
      </trkpt>
      <trkpt lat="37.75650168769061565399169921875" lon="-107.712184824049472808837890625">
        <ele>3614.199951171875</ele>
        <time>2023-07-29T13:48:13.000Z</time>
        <extensions>
          <ns3:TrackPointExtension>
            <ns3:hr>103</ns3:hr>
            <ns3:cad>0</ns3:cad>
          </ns3:TrackPointExtension>
        </extensions>
      </trkpt>
      <trkpt lat="37.7564972452819347381591796875" lon="-107.71218323148787021636962890625">
        <ele>3614.39990234375</ele>
        <time>2023-07-29T13:48:14.000Z</time>
        <extensions>
          <ns3:TrackPointExtension>
            <ns3:hr>103</ns3:hr>
            <ns3:cad>0</ns3:cad>
          </ns3:TrackPointExtension>
        </extensions>
      </trkpt>
      <trkpt lat="37.75649406015872955322265625" lon="-107.712180130183696746826171875">
        <ele>3614.39990234375</ele>
        <time>2023-07-29T13:48:15.000Z</time>
        <extensions>
          <ns3:TrackPointExtension>
            <ns3:hr>103</ns3:hr>
            <ns3:cad>0</ns3:cad>
          </ns3:TrackPointExtension>
        </extensions>
      </trkpt>
      <trkpt lat="37.75649313814938068389892578125" lon="-107.71217577159404754638671875">
        <ele>3614.39990234375</ele>
        <time>2023-07-29T13:48:16.000Z</time>
        <extensions>
          <ns3:TrackPointExtension>
            <ns3:hr>103</ns3:hr>
            <ns3:cad>0</ns3:cad>
          </ns3:TrackPointExtension>
        </extensions>
      </trkpt>
      <trkpt lat="37.75648995302617549896240234375" lon="-107.7121668867766857147216796875">
        <ele>3614.39990234375</ele>
        <time>2023-07-29T13:48:17.000Z</time>
        <extensions>
          <ns3:TrackPointExtension>
            <ns3:hr>103</ns3:hr>
            <ns3:cad>0</ns3:cad>
          </ns3:TrackPointExtension>
        </extensions>
      </trkpt>
      <trkpt lat="37.75649280287325382232666015625" lon="-107.71216965280473232269287109375">
        <ele>3614.39990234375</ele>
        <time>2023-07-29T13:48:18.000Z</time>
        <extensions>
          <ns3:TrackPointExtension>
            <ns3:hr>103</ns3:hr>
            <ns3:cad>0</ns3:cad>
          </ns3:TrackPointExtension>
        </extensions>
      </trkpt>
      <trkpt lat="37.7564932219684123992919921875" lon="-107.7121715806424617767333984375">
        <ele>3614.39990234375</ele>
        <time>2023-07-29T13:48:19.000Z</time>
        <extensions>
          <ns3:TrackPointExtension>
            <ns3:hr>103</ns3:hr>
            <ns3:cad>0</ns3:cad>
          </ns3:TrackPointExtension>
        </extensions>
      </trkpt>
      <trkpt lat="37.75649095885455608367919921875" lon="-107.712172754108905792236328125">
        <ele>3614.39990234375</ele>
        <time>2023-07-29T13:48:20.000Z</time>
        <extensions>
          <ns3:TrackPointExtension>
            <ns3:hr>103</ns3:hr>
            <ns3:cad>0</ns3:cad>
          </ns3:TrackPointExtension>
        </extensions>
      </trkpt>
      <trkpt lat="37.756493389606475830078125" lon="-107.712174765765666961669921875">
        <ele>3614.39990234375</ele>
        <time>2023-07-29T13:48:21.000Z</time>
        <extensions>
          <ns3:TrackPointExtension>
            <ns3:hr>103</ns3:hr>
            <ns3:cad>0</ns3:cad>
          </ns3:TrackPointExtension>
        </extensions>
      </trkpt>
      <trkpt lat="37.75649984367191791534423828125" lon="-107.71217954345047473907470703125">
        <ele>3614.39990234375</ele>
        <time>2023-07-29T13:48:22.000Z</time>
        <extensions>
          <ns3:TrackPointExtension>
            <ns3:hr>103</ns3:hr>
            <ns3:cad>0</ns3:cad>
          </ns3:TrackPointExtension>
        </extensions>
      </trkpt>
      <trkpt lat="37.75650537572801113128662109375" lon="-107.7121836505830287933349609375">
        <ele>3614.39990234375</ele>
        <time>2023-07-29T13:48:23.000Z</time>
        <extensions>
          <ns3:TrackPointExtension>
            <ns3:hr>103</ns3:hr>
            <ns3:cad>0</ns3:cad>
          </ns3:TrackPointExtension>
        </extensions>
      </trkpt>
      <trkpt lat="37.75650638155639171600341796875" lon="-107.71218423731625080108642578125">
        <ele>3614.39990234375</ele>
        <time>2023-07-29T13:48:24.000Z</time>
        <extensions>
          <ns3:TrackPointExtension>
            <ns3:hr>103</ns3:hr>
            <ns3:cad>0</ns3:cad>
          </ns3:TrackPointExtension>
        </extensions>
      </trkpt>
      <trkpt lat="37.7565039508044719696044921875" lon="-107.71218423731625080108642578125">
        <ele>3614.39990234375</ele>
        <time>2023-07-29T13:48:25.000Z</time>
        <extensions>
          <ns3:TrackPointExtension>
            <ns3:hr>103</ns3:hr>
            <ns3:cad>0</ns3:cad>
          </ns3:TrackPointExtension>
        </extensions>
      </trkpt>
      <trkpt lat="37.75651090778410434722900390625" lon="-107.7121833153069019317626953125">
        <ele>3614.60009765625</ele>
        <time>2023-07-29T13:48:26.000Z</time>
        <extensions>
          <ns3:TrackPointExtension>
            <ns3:hr>103</ns3:hr>
            <ns3:cad>0</ns3:cad>
          </ns3:TrackPointExtension>
        </extensions>
      </trkpt>
      <trkpt lat="37.75651258416473865509033203125" lon="-107.71218247711658477783203125">
        <ele>3614.60009765625</ele>
        <time>2023-07-29T13:48:27.000Z</time>
        <extensions>
          <ns3:TrackPointExtension>
            <ns3:hr>102</ns3:hr>
            <ns3:cad>0</ns3:cad>
          </ns3:TrackPointExtension>
        </extensions>
      </trkpt>
      <trkpt lat="37.75651627220213413238525390625" lon="-107.712181471288204193115234375">
        <ele>3614.800048828125</ele>
        <time>2023-07-29T13:48:28.000Z</time>
        <extensions>
          <ns3:TrackPointExtension>
            <ns3:hr>102</ns3:hr>
            <ns3:cad>0</ns3:cad>
          </ns3:TrackPointExtension>
        </extensions>
      </trkpt>
      <trkpt lat="37.756516523659229278564453125" lon="-107.71217484958469867706298828125">
        <ele>3614.800048828125</ele>
        <time>2023-07-29T13:48:29.000Z</time>
        <extensions>
          <ns3:TrackPointExtension>
            <ns3:hr>102</ns3:hr>
            <ns3:cad>0</ns3:cad>
          </ns3:TrackPointExtension>
        </extensions>
      </trkpt>
      <trkpt lat="37.7565170265734195709228515625" lon="-107.7121675573289394378662109375">
        <ele>3615</ele>
        <time>2023-07-29T13:48:30.000Z</time>
        <extensions>
          <ns3:TrackPointExtension>
            <ns3:hr>102</ns3:hr>
            <ns3:cad>0</ns3:cad>
          </ns3:TrackPointExtension>
        </extensions>
      </trkpt>
      <trkpt lat="37.7565188705921173095703125" lon="-107.7121616899967193603515625">
        <ele>3615.199951171875</ele>
        <time>2023-07-29T13:48:31.000Z</time>
        <extensions>
          <ns3:TrackPointExtension>
            <ns3:hr>103</ns3:hr>
            <ns3:cad>0</ns3:cad>
          </ns3:TrackPointExtension>
        </extensions>
      </trkpt>
      <trkpt lat="37.75652012787759304046630859375" lon="-107.71215674467384815216064453125">
        <ele>3615.199951171875</ele>
        <time>2023-07-29T13:48:32.000Z</time>
        <extensions>
          <ns3:TrackPointExtension>
            <ns3:hr>104</ns3:hr>
            <ns3:cad>0</ns3:cad>
          </ns3:TrackPointExtension>
        </extensions>
      </trkpt>
      <trkpt lat="37.75651761330664157867431640625" lon="-107.71215557120740413665771484375">
        <ele>3615.199951171875</ele>
        <time>2023-07-29T13:48:33.000Z</time>
        <extensions>
          <ns3:TrackPointExtension>
            <ns3:hr>104</ns3:hr>
            <ns3:cad>0</ns3:cad>
          </ns3:TrackPointExtension>
        </extensions>
      </trkpt>
      <trkpt lat="37.75651593692600727081298828125" lon="-107.71214987151324748992919921875">
        <ele>3615.199951171875</ele>
        <time>2023-07-29T13:48:34.000Z</time>
        <extensions>
          <ns3:TrackPointExtension>
            <ns3:hr>104</ns3:hr>
            <ns3:cad>0</ns3:cad>
          </ns3:TrackPointExtension>
        </extensions>
      </trkpt>
      <trkpt lat="37.7565156854689121246337890625" lon="-107.71215037442743778228759765625">
        <ele>3615.39990234375</ele>
        <time>2023-07-29T13:48:35.000Z</time>
        <extensions>
          <ns3:TrackPointExtension>
            <ns3:hr>105</ns3:hr>
            <ns3:cad>0</ns3:cad>
          </ns3:TrackPointExtension>
        </extensions>
      </trkpt>
      <trkpt lat="37.7565166912972927093505859375" lon="-107.712150625884532928466796875">
        <ele>3615.39990234375</ele>
        <time>2023-07-29T13:48:36.000Z</time>
        <extensions>
          <ns3:TrackPointExtension>
            <ns3:hr>105</ns3:hr>
            <ns3:cad>0</ns3:cad>
          </ns3:TrackPointExtension>
        </extensions>
      </trkpt>
      <trkpt lat="37.756518535315990447998046875" lon="-107.7121521346271038055419921875">
        <ele>3615.39990234375</ele>
        <time>2023-07-29T13:48:37.000Z</time>
        <extensions>
          <ns3:TrackPointExtension>
            <ns3:hr>105</ns3:hr>
            <ns3:cad>0</ns3:cad>
          </ns3:TrackPointExtension>
        </extensions>
      </trkpt>
      <trkpt lat="37.7565217204391956329345703125" lon="-107.71214601583778858184814453125">
        <ele>3615.199951171875</ele>
        <time>2023-07-29T13:48:38.000Z</time>
        <extensions>
          <ns3:TrackPointExtension>
            <ns3:hr>105</ns3:hr>
            <ns3:cad>0</ns3:cad>
          </ns3:TrackPointExtension>
        </extensions>
      </trkpt>
      <trkpt lat="37.7565277554094791412353515625" lon="-107.7121403999626636505126953125">
        <ele>3615.39990234375</ele>
        <time>2023-07-29T13:48:39.000Z</time>
        <extensions>
          <ns3:TrackPointExtension>
            <ns3:hr>105</ns3:hr>
            <ns3:cad>0</ns3:cad>
          </ns3:TrackPointExtension>
        </extensions>
      </trkpt>
      <trkpt lat="37.75653286837041378021240234375" lon="-107.7121340297162532806396484375">
        <ele>3615.39990234375</ele>
        <time>2023-07-29T13:48:40.000Z</time>
        <extensions>
          <ns3:TrackPointExtension>
            <ns3:hr>104</ns3:hr>
            <ns3:cad>0</ns3:cad>
          </ns3:TrackPointExtension>
        </extensions>
      </trkpt>
      <trkpt lat="37.756534628570079803466796875" lon="-107.71213210187852382659912109375">
        <ele>3615.39990234375</ele>
        <time>2023-07-29T13:48:41.000Z</time>
        <extensions>
          <ns3:TrackPointExtension>
            <ns3:hr>104</ns3:hr>
            <ns3:cad>0</ns3:cad>
          </ns3:TrackPointExtension>
        </extensions>
      </trkpt>
      <trkpt lat="37.75653622113168239593505859375" lon="-107.71212749183177947998046875">
        <ele>3615.39990234375</ele>
        <time>2023-07-29T13:48:42.000Z</time>
        <extensions>
          <ns3:TrackPointExtension>
            <ns3:hr>103</ns3:hr>
            <ns3:cad>0</ns3:cad>
          </ns3:TrackPointExtension>
        </extensions>
      </trkpt>
      <trkpt lat="37.75653588585555553436279296875" lon="-107.71212204359471797943115234375">
        <ele>3615.39990234375</ele>
        <time>2023-07-29T13:48:43.000Z</time>
        <extensions>
          <ns3:TrackPointExtension>
            <ns3:hr>103</ns3:hr>
            <ns3:cad>0</ns3:cad>
          </ns3:TrackPointExtension>
        </extensions>
      </trkpt>
      <trkpt lat="37.75653454475104808807373046875" lon="-107.71211517043411731719970703125">
        <ele>3615.39990234375</ele>
        <time>2023-07-29T13:48:44.000Z</time>
        <extensions>
          <ns3:TrackPointExtension>
            <ns3:hr>102</ns3:hr>
            <ns3:cad>0</ns3:cad>
          </ns3:TrackPointExtension>
        </extensions>
      </trkpt>
      <trkpt lat="37.75653739459812641143798828125" lon="-107.71210779435932636260986328125">
        <ele>3615.39990234375</ele>
        <time>2023-07-29T13:48:45.000Z</time>
        <extensions>
          <ns3:TrackPointExtension>
            <ns3:hr>101</ns3:hr>
            <ns3:cad>0</ns3:cad>
          </ns3:TrackPointExtension>
        </extensions>
      </trkpt>
      <trkpt lat="37.75653890334069728851318359375" lon="-107.7121035195887088775634765625">
        <ele>3615.60009765625</ele>
        <time>2023-07-29T13:48:46.000Z</time>
        <extensions>
          <ns3:TrackPointExtension>
            <ns3:hr>101</ns3:hr>
            <ns3:cad>0</ns3:cad>
          </ns3:TrackPointExtension>
        </extensions>
      </trkpt>
      <trkpt lat="37.75653907097876071929931640625" lon="-107.71209941245615482330322265625">
        <ele>3615.800048828125</ele>
        <time>2023-07-29T13:48:47.000Z</time>
        <extensions>
          <ns3:TrackPointExtension>
            <ns3:hr>100</ns3:hr>
            <ns3:cad>0</ns3:cad>
          </ns3:TrackPointExtension>
        </extensions>
      </trkpt>
      <trkpt lat="37.75653840042650699615478515625" lon="-107.7120951376855373382568359375">
        <ele>3615.800048828125</ele>
        <time>2023-07-29T13:48:48.000Z</time>
        <extensions>
          <ns3:TrackPointExtension>
            <ns3:hr>99</ns3:hr>
            <ns3:cad>0</ns3:cad>
          </ns3:TrackPointExtension>
        </extensions>
      </trkpt>
      <trkpt lat="37.7565391547977924346923828125" lon="-107.71209019236266613006591796875">
        <ele>3615.800048828125</ele>
        <time>2023-07-29T13:48:49.000Z</time>
        <extensions>
          <ns3:TrackPointExtension>
            <ns3:hr>98</ns3:hr>
            <ns3:cad>0</ns3:cad>
          </ns3:TrackPointExtension>
        </extensions>
      </trkpt>
      <trkpt lat="37.75653555057942867279052734375" lon="-107.712090946733951568603515625">
        <ele>3615.800048828125</ele>
        <time>2023-07-29T13:48:50.000Z</time>
        <extensions>
          <ns3:TrackPointExtension>
            <ns3:hr>98</ns3:hr>
            <ns3:cad>0</ns3:cad>
          </ns3:TrackPointExtension>
        </extensions>
      </trkpt>
      <trkpt lat="37.75653186254203319549560546875" lon="-107.71209874190390110015869140625">
        <ele>3615.800048828125</ele>
        <time>2023-07-29T13:48:51.000Z</time>
        <extensions>
          <ns3:TrackPointExtension>
            <ns3:hr>98</ns3:hr>
            <ns3:cad>0</ns3:cad>
          </ns3:TrackPointExtension>
        </extensions>
      </trkpt>
      <trkpt lat="37.7565301023423671722412109375" lon="-107.71210008300840854644775390625">
        <ele>3616</ele>
        <time>2023-07-29T13:48:52.000Z</time>
        <extensions>
          <ns3:TrackPointExtension>
            <ns3:hr>99</ns3:hr>
            <ns3:cad>0</ns3:cad>
          </ns3:TrackPointExtension>
        </extensions>
      </trkpt>
      <trkpt lat="37.7565264143049716949462890625" lon="-107.71210192702710628509521484375">
        <ele>3616</ele>
        <time>2023-07-29T13:48:53.000Z</time>
        <extensions>
          <ns3:TrackPointExtension>
            <ns3:hr>101</ns3:hr>
            <ns3:cad>0</ns3:cad>
          </ns3:TrackPointExtension>
        </extensions>
      </trkpt>
      <trkpt lat="37.756525240838527679443359375" lon="-107.71209530532360076904296875">
        <ele>3615.800048828125</ele>
        <time>2023-07-29T13:48:54.000Z</time>
        <extensions>
          <ns3:TrackPointExtension>
            <ns3:hr>100</ns3:hr>
            <ns3:cad>0</ns3:cad>
          </ns3:TrackPointExtension>
        </extensions>
      </trkpt>
      <trkpt lat="37.75652624666690826416015625" lon="-107.71209128201007843017578125">
        <ele>3616</ele>
        <time>2023-07-29T13:48:55.000Z</time>
        <extensions>
          <ns3:TrackPointExtension>
            <ns3:hr>100</ns3:hr>
            <ns3:cad>0</ns3:cad>
          </ns3:TrackPointExtension>
        </extensions>
      </trkpt>
      <trkpt lat="37.75652783922851085662841796875" lon="-107.712089605629444122314453125">
        <ele>3616</ele>
        <time>2023-07-29T13:48:56.000Z</time>
        <extensions>
          <ns3:TrackPointExtension>
            <ns3:hr>99</ns3:hr>
            <ns3:cad>0</ns3:cad>
          </ns3:TrackPointExtension>
        </extensions>
      </trkpt>
      <trkpt lat="37.75652968324720859527587890625" lon="-107.71208432503044605255126953125">
        <ele>3616</ele>
        <time>2023-07-29T13:48:57.000Z</time>
        <extensions>
          <ns3:TrackPointExtension>
            <ns3:hr>99</ns3:hr>
            <ns3:cad>0</ns3:cad>
          </ns3:TrackPointExtension>
        </extensions>
      </trkpt>
      <trkpt lat="37.75653387419879436492919921875" lon="-107.712077200412750244140625">
        <ele>3616</ele>
        <time>2023-07-29T13:48:58.000Z</time>
        <extensions>
          <ns3:TrackPointExtension>
            <ns3:hr>98</ns3:hr>
            <ns3:cad>0</ns3:cad>
          </ns3:TrackPointExtension>
        </extensions>
      </trkpt>
      <trkpt lat="37.7565371431410312652587890625" lon="-107.71206906996667385101318359375">
        <ele>3616</ele>
        <time>2023-07-29T13:48:59.000Z</time>
        <extensions>
          <ns3:TrackPointExtension>
            <ns3:hr>98</ns3:hr>
            <ns3:cad>0</ns3:cad>
          </ns3:TrackPointExtension>
        </extensions>
      </trkpt>
      <trkpt lat="37.7565376460552215576171875" lon="-107.712068818509578704833984375">
        <ele>3616</ele>
        <time>2023-07-29T13:49:00.000Z</time>
        <extensions>
          <ns3:TrackPointExtension>
            <ns3:hr>99</ns3:hr>
            <ns3:cad>0</ns3:cad>
          </ns3:TrackPointExtension>
        </extensions>
      </trkpt>
      <trkpt lat="37.7565351314842700958251953125" lon="-107.7120743505656719207763671875">
        <ele>3616</ele>
        <time>2023-07-29T13:49:01.000Z</time>
        <extensions>
          <ns3:TrackPointExtension>
            <ns3:hr>99</ns3:hr>
            <ns3:cad>0</ns3:cad>
          </ns3:TrackPointExtension>
        </extensions>
      </trkpt>
      <trkpt lat="37.75653504766523838043212890625" lon="-107.71207862533628940582275390625">
        <ele>3615.800048828125</ele>
        <time>2023-07-29T13:49:02.000Z</time>
        <extensions>
          <ns3:TrackPointExtension>
            <ns3:hr>99</ns3:hr>
            <ns3:cad>0</ns3:cad>
          </ns3:TrackPointExtension>
        </extensions>
      </trkpt>
      <trkpt lat="37.756536640226840972900390625" lon="-107.7120780386030673980712890625">
        <ele>3615.800048828125</ele>
        <time>2023-07-29T13:49:03.000Z</time>
        <extensions>
          <ns3:TrackPointExtension>
            <ns3:hr>99</ns3:hr>
            <ns3:cad>0</ns3:cad>
          </ns3:TrackPointExtension>
        </extensions>
      </trkpt>
      <trkpt lat="37.756537981331348419189453125" lon="-107.71207745186984539031982421875">
        <ele>3615.800048828125</ele>
        <time>2023-07-29T13:49:04.000Z</time>
        <extensions>
          <ns3:TrackPointExtension>
            <ns3:hr>98</ns3:hr>
            <ns3:cad>0</ns3:cad>
          </ns3:TrackPointExtension>
        </extensions>
      </trkpt>
      <trkpt lat="37.75654074735939502716064453125" lon="-107.71207342855632305145263671875">
        <ele>3615.60009765625</ele>
        <time>2023-07-29T13:49:05.000Z</time>
        <extensions>
          <ns3:TrackPointExtension>
            <ns3:hr>98</ns3:hr>
            <ns3:cad>0</ns3:cad>
          </ns3:TrackPointExtension>
        </extensions>
      </trkpt>
      <trkpt lat="37.756545357406139373779296875" lon="-107.71206823177635669708251953125">
        <ele>3615.60009765625</ele>
        <time>2023-07-29T13:49:06.000Z</time>
        <extensions>
          <ns3:TrackPointExtension>
            <ns3:hr>97</ns3:hr>
            <ns3:cad>0</ns3:cad>
          </ns3:TrackPointExtension>
        </extensions>
      </trkpt>
      <trkpt lat="37.7565468661487102508544921875" lon="-107.71206923760473728179931640625">
        <ele>3615.60009765625</ele>
        <time>2023-07-29T13:49:07.000Z</time>
        <extensions>
          <ns3:TrackPointExtension>
            <ns3:hr>96</ns3:hr>
            <ns3:cad>0</ns3:cad>
          </ns3:TrackPointExtension>
        </extensions>
      </trkpt>
      <trkpt lat="37.75654661469161510467529296875" lon="-107.71207158453762531280517578125">
        <ele>3615.60009765625</ele>
        <time>2023-07-29T13:49:08.000Z</time>
        <extensions>
          <ns3:TrackPointExtension>
            <ns3:hr>94</ns3:hr>
            <ns3:cad>0</ns3:cad>
          </ns3:TrackPointExtension>
        </extensions>
      </trkpt>
      <trkpt lat="37.75654510594904422760009765625" lon="-107.71207393147051334381103515625">
        <ele>3615.60009765625</ele>
        <time>2023-07-29T13:49:09.000Z</time>
        <extensions>
          <ns3:TrackPointExtension>
            <ns3:hr>93</ns3:hr>
            <ns3:cad>0</ns3:cad>
          </ns3:TrackPointExtension>
        </extensions>
      </trkpt>
      <trkpt lat="37.75654745288193225860595703125" lon="-107.71207041107118129730224609375">
        <ele>3615.60009765625</ele>
        <time>2023-07-29T13:49:10.000Z</time>
        <extensions>
          <ns3:TrackPointExtension>
            <ns3:hr>94</ns3:hr>
            <ns3:cad>0</ns3:cad>
          </ns3:TrackPointExtension>
        </extensions>
      </trkpt>
      <trkpt lat="37.75654812343418598175048828125" lon="-107.71206873469054698944091796875">
        <ele>3615.60009765625</ele>
        <time>2023-07-29T13:49:11.000Z</time>
        <extensions>
          <ns3:TrackPointExtension>
            <ns3:hr>94</ns3:hr>
            <ns3:cad>0</ns3:cad>
          </ns3:TrackPointExtension>
        </extensions>
      </trkpt>
      <trkpt lat="37.756546698510646820068359375" lon="-107.71206848323345184326171875">
        <ele>3615.60009765625</ele>
        <time>2023-07-29T13:49:12.000Z</time>
        <extensions>
          <ns3:TrackPointExtension>
            <ns3:hr>94</ns3:hr>
            <ns3:cad>0</ns3:cad>
          </ns3:TrackPointExtension>
        </extensions>
      </trkpt>
      <trkpt lat="37.7565468661487102508544921875" lon="-107.712070159614086151123046875">
        <ele>3615.60009765625</ele>
        <time>2023-07-29T13:49:13.000Z</time>
        <extensions>
          <ns3:TrackPointExtension>
            <ns3:hr>94</ns3:hr>
            <ns3:cad>0</ns3:cad>
          </ns3:TrackPointExtension>
        </extensions>
      </trkpt>
      <trkpt lat="37.75655063800513744354248046875" lon="-107.712062783539295196533203125">
        <ele>3615.60009765625</ele>
        <time>2023-07-29T13:49:14.000Z</time>
        <extensions>
          <ns3:TrackPointExtension>
            <ns3:hr>95</ns3:hr>
            <ns3:cad>0</ns3:cad>
          </ns3:TrackPointExtension>
        </extensions>
      </trkpt>
      <trkpt lat="37.75655130855739116668701171875" lon="-107.71206487901508808135986328125">
        <ele>3615.60009765625</ele>
        <time>2023-07-29T13:49:15.000Z</time>
        <extensions>
          <ns3:TrackPointExtension>
            <ns3:hr>95</ns3:hr>
            <ns3:cad>0</ns3:cad>
          </ns3:TrackPointExtension>
        </extensions>
      </trkpt>
      <trkpt lat="37.75655549950897693634033203125" lon="-107.71206320263445377349853515625">
        <ele>3615.39990234375</ele>
        <time>2023-07-29T13:49:16.000Z</time>
        <extensions>
          <ns3:TrackPointExtension>
            <ns3:hr>95</ns3:hr>
            <ns3:cad>0</ns3:cad>
          </ns3:TrackPointExtension>
        </extensions>
      </trkpt>
      <trkpt lat="37.75655843317508697509765625" lon="-107.7120569162070751190185546875">
        <ele>3615.39990234375</ele>
        <time>2023-07-29T13:49:17.000Z</time>
        <extensions>
          <ns3:TrackPointExtension>
            <ns3:hr>95</ns3:hr>
            <ns3:cad>0</ns3:cad>
          </ns3:TrackPointExtension>
        </extensions>
      </trkpt>
      <trkpt lat="37.7565626241266727447509765625" lon="-107.7120517194271087646484375">
        <ele>3615.39990234375</ele>
        <time>2023-07-29T13:49:18.000Z</time>
        <extensions>
          <ns3:TrackPointExtension>
            <ns3:hr>95</ns3:hr>
            <ns3:cad>0</ns3:cad>
          </ns3:TrackPointExtension>
        </extensions>
      </trkpt>
      <trkpt lat="37.756566144526004791259765625" lon="-107.71205113269388675689697265625">
        <ele>3615.39990234375</ele>
        <time>2023-07-29T13:49:19.000Z</time>
        <extensions>
          <ns3:TrackPointExtension>
            <ns3:hr>95</ns3:hr>
            <ns3:cad>0</ns3:cad>
          </ns3:TrackPointExtension>
        </extensions>
      </trkpt>
      <trkpt lat="37.756569497287273406982421875" lon="-107.71205238997936248779296875">
        <ele>3615.199951171875</ele>
        <time>2023-07-29T13:49:20.000Z</time>
        <extensions>
          <ns3:TrackPointExtension>
            <ns3:hr>95</ns3:hr>
            <ns3:cad>0</ns3:cad>
          </ns3:TrackPointExtension>
        </extensions>
      </trkpt>
      <trkpt lat="37.7565720118582248687744140625" lon="-107.71205507218837738037109375">
        <ele>3615</ele>
        <time>2023-07-29T13:49:21.000Z</time>
        <extensions>
          <ns3:TrackPointExtension>
            <ns3:hr>94</ns3:hr>
            <ns3:cad>0</ns3:cad>
          </ns3:TrackPointExtension>
        </extensions>
      </trkpt>
      <trkpt lat="37.75657720863819122314453125" lon="-107.7120570838451385498046875">
        <ele>3615</ele>
        <time>2023-07-29T13:49:22.000Z</time>
        <extensions>
          <ns3:TrackPointExtension>
            <ns3:hr>93</ns3:hr>
            <ns3:cad>0</ns3:cad>
          </ns3:TrackPointExtension>
        </extensions>
      </trkpt>
      <trkpt lat="37.75658081285655498504638671875" lon="-107.7120609395205974578857421875">
        <ele>3615</ele>
        <time>2023-07-29T13:49:23.000Z</time>
        <extensions>
          <ns3:TrackPointExtension>
            <ns3:hr>92</ns3:hr>
            <ns3:cad>0</ns3:cad>
          </ns3:TrackPointExtension>
        </extensions>
      </trkpt>
      <trkpt lat="37.75658584199845790863037109375" lon="-107.71206655539572238922119140625">
        <ele>3615</ele>
        <time>2023-07-29T13:49:24.000Z</time>
        <extensions>
          <ns3:TrackPointExtension>
            <ns3:hr>92</ns3:hr>
            <ns3:cad>0</ns3:cad>
          </ns3:TrackPointExtension>
        </extensions>
      </trkpt>
      <trkpt lat="37.7565921284258365631103515625" lon="-107.71207175217568874359130859375">
        <ele>3615</ele>
        <time>2023-07-29T13:49:25.000Z</time>
        <extensions>
          <ns3:TrackPointExtension>
            <ns3:hr>92</ns3:hr>
            <ns3:cad>0</ns3:cad>
          </ns3:TrackPointExtension>
        </extensions>
      </trkpt>
      <trkpt lat="37.7565974928438663482666015625" lon="-107.7120666392147541046142578125">
        <ele>3614.800048828125</ele>
        <time>2023-07-29T13:49:26.000Z</time>
        <extensions>
          <ns3:TrackPointExtension>
            <ns3:hr>92</ns3:hr>
            <ns3:cad>0</ns3:cad>
          </ns3:TrackPointExtension>
        </extensions>
      </trkpt>
      <trkpt lat="37.7566018514335155487060546875" lon="-107.712061107158660888671875">
        <ele>3615</ele>
        <time>2023-07-29T13:49:27.000Z</time>
        <extensions>
          <ns3:TrackPointExtension>
            <ns3:hr>93</ns3:hr>
            <ns3:cad>0</ns3:cad>
          </ns3:TrackPointExtension>
        </extensions>
      </trkpt>
      <trkpt lat="37.75660327635705471038818359375" lon="-107.7120438404381275177001953125">
        <ele>3615</ele>
        <time>2023-07-29T13:49:28.000Z</time>
        <extensions>
          <ns3:TrackPointExtension>
            <ns3:hr>93</ns3:hr>
            <ns3:cad>0</ns3:cad>
          </ns3:TrackPointExtension>
        </extensions>
      </trkpt>
      <trkpt lat="37.7565991692245006561279296875" lon="-107.712031267583370208740234375">
        <ele>3615</ele>
        <time>2023-07-29T13:49:29.000Z</time>
        <extensions>
          <ns3:TrackPointExtension>
            <ns3:hr>93</ns3:hr>
            <ns3:cad>0</ns3:cad>
          </ns3:TrackPointExtension>
        </extensions>
      </trkpt>
      <trkpt lat="37.75660025887191295623779296875" lon="-107.71202179603278636932373046875">
        <ele>3615</ele>
        <time>2023-07-29T13:49:30.000Z</time>
        <extensions>
          <ns3:TrackPointExtension>
            <ns3:hr>93</ns3:hr>
            <ns3:cad>0</ns3:cad>
          </ns3:TrackPointExtension>
        </extensions>
      </trkpt>
      <trkpt lat="37.7565988339483737945556640625" lon="-107.71201760508120059967041015625">
        <ele>3615.199951171875</ele>
        <time>2023-07-29T13:49:31.000Z</time>
        <extensions>
          <ns3:TrackPointExtension>
            <ns3:hr>93</ns3:hr>
            <ns3:cad>0</ns3:cad>
          </ns3:TrackPointExtension>
        </extensions>
      </trkpt>
      <trkpt lat="37.756600677967071533203125" lon="-107.71201894618570804595947265625">
        <ele>3615.199951171875</ele>
        <time>2023-07-29T13:49:32.000Z</time>
        <extensions>
          <ns3:TrackPointExtension>
            <ns3:hr>93</ns3:hr>
            <ns3:cad>0</ns3:cad>
          </ns3:TrackPointExtension>
        </extensions>
      </trkpt>
      <trkpt lat="37.7566021867096424102783203125" lon="-107.712015844881534576416015625">
        <ele>3615.199951171875</ele>
        <time>2023-07-29T13:49:33.000Z</time>
        <extensions>
          <ns3:TrackPointExtension>
            <ns3:hr>93</ns3:hr>
            <ns3:cad>0</ns3:cad>
          </ns3:TrackPointExtension>
        </extensions>
      </trkpt>
      <trkpt lat="37.756603695452213287353515625" lon="-107.71201458759605884552001953125">
        <ele>3615.39990234375</ele>
        <time>2023-07-29T13:49:34.000Z</time>
        <extensions>
          <ns3:TrackPointExtension>
            <ns3:hr>94</ns3:hr>
            <ns3:cad>0</ns3:cad>
          </ns3:TrackPointExtension>
        </extensions>
      </trkpt>
      <trkpt lat="37.7566062100231647491455078125" lon="-107.7120109833776950836181640625">
        <ele>3615.39990234375</ele>
        <time>2023-07-29T13:49:35.000Z</time>
        <extensions>
          <ns3:TrackPointExtension>
            <ns3:hr>94</ns3:hr>
            <ns3:cad>0</ns3:cad>
          </ns3:TrackPointExtension>
        </extensions>
      </trkpt>
      <trkpt lat="37.75660805404186248779296875" lon="-107.71200570277869701385498046875">
        <ele>3615.39990234375</ele>
        <time>2023-07-29T13:49:36.000Z</time>
        <extensions>
          <ns3:TrackPointExtension>
            <ns3:hr>94</ns3:hr>
            <ns3:cad>0</ns3:cad>
          </ns3:TrackPointExtension>
        </extensions>
      </trkpt>
      <trkpt lat="37.7566082216799259185791015625" lon="-107.712003104388713836669921875">
        <ele>3615.199951171875</ele>
        <time>2023-07-29T13:49:37.000Z</time>
        <extensions>
          <ns3:TrackPointExtension>
            <ns3:hr>94</ns3:hr>
            <ns3:cad>0</ns3:cad>
          </ns3:TrackPointExtension>
        </extensions>
      </trkpt>
      <trkpt lat="37.75661031715571880340576171875" lon="-107.71199916489422321319580078125">
        <ele>3615</ele>
        <time>2023-07-29T13:49:38.000Z</time>
        <extensions>
          <ns3:TrackPointExtension>
            <ns3:hr>94</ns3:hr>
            <ns3:cad>0</ns3:cad>
          </ns3:TrackPointExtension>
        </extensions>
      </trkpt>
      <trkpt lat="37.75660939514636993408203125" lon="-107.7120015956461429595947265625">
        <ele>3615</ele>
        <time>2023-07-29T13:49:39.000Z</time>
        <extensions>
          <ns3:TrackPointExtension>
            <ns3:hr>94</ns3:hr>
            <ns3:cad>0</ns3:cad>
          </ns3:TrackPointExtension>
        </extensions>
      </trkpt>
      <trkpt lat="37.7566102333366870880126953125" lon="-107.71199899725615978240966796875">
        <ele>3615</ele>
        <time>2023-07-29T13:49:40.000Z</time>
        <extensions>
          <ns3:TrackPointExtension>
            <ns3:hr>94</ns3:hr>
            <ns3:cad>0</ns3:cad>
          </ns3:TrackPointExtension>
        </extensions>
      </trkpt>
      <trkpt lat="37.75661232881247997283935546875" lon="-107.711997739970684051513671875">
        <ele>3615</ele>
        <time>2023-07-29T13:49:41.000Z</time>
        <extensions>
          <ns3:TrackPointExtension>
            <ns3:hr>94</ns3:hr>
            <ns3:cad>0</ns3:cad>
          </ns3:TrackPointExtension>
        </extensions>
      </trkpt>
      <trkpt lat="37.7566169388592243194580078125" lon="-107.71199279464781284332275390625">
        <ele>3615</ele>
        <time>2023-07-29T13:49:42.000Z</time>
        <extensions>
          <ns3:TrackPointExtension>
            <ns3:hr>94</ns3:hr>
            <ns3:cad>0</ns3:cad>
          </ns3:TrackPointExtension>
        </extensions>
      </trkpt>
      <trkpt lat="37.75662071071565151214599609375" lon="-107.71198307164013385772705078125">
        <ele>3615.199951171875</ele>
        <time>2023-07-29T13:49:43.000Z</time>
        <extensions>
          <ns3:TrackPointExtension>
            <ns3:hr>93</ns3:hr>
            <ns3:cad>0</ns3:cad>
          </ns3:TrackPointExtension>
        </extensions>
      </trkpt>
      <trkpt lat="37.75662280619144439697265625" lon="-107.711975276470184326171875">
        <ele>3615.199951171875</ele>
        <time>2023-07-29T13:49:44.000Z</time>
        <extensions>
          <ns3:TrackPointExtension>
            <ns3:hr>92</ns3:hr>
            <ns3:cad>0</ns3:cad>
          </ns3:TrackPointExtension>
        </extensions>
      </trkpt>
      <trkpt lat="37.7566223032772541046142578125" lon="-107.7119717560708522796630859375">
        <ele>3615.199951171875</ele>
        <time>2023-07-29T13:49:45.000Z</time>
        <extensions>
          <ns3:TrackPointExtension>
            <ns3:hr>91</ns3:hr>
            <ns3:cad>0</ns3:cad>
          </ns3:TrackPointExtension>
        </extensions>
      </trkpt>
      <trkpt lat="37.75662280619144439697265625" lon="-107.71196329034864902496337890625">
        <ele>3615.199951171875</ele>
        <time>2023-07-29T13:49:46.000Z</time>
        <extensions>
          <ns3:TrackPointExtension>
            <ns3:hr>91</ns3:hr>
            <ns3:cad>0</ns3:cad>
          </ns3:TrackPointExtension>
        </extensions>
      </trkpt>
      <trkpt lat="37.75662188418209552764892578125" lon="-107.711956165730953216552734375">
        <ele>3615.60009765625</ele>
        <time>2023-07-29T13:49:47.000Z</time>
        <extensions>
          <ns3:TrackPointExtension>
            <ns3:hr>91</ns3:hr>
            <ns3:cad>0</ns3:cad>
          </ns3:TrackPointExtension>
        </extensions>
      </trkpt>
      <trkpt lat="37.7566223032772541046142578125" lon="-107.711952142417430877685546875">
        <ele>3615.60009765625</ele>
        <time>2023-07-29T13:49:48.000Z</time>
        <extensions>
          <ns3:TrackPointExtension>
            <ns3:hr>92</ns3:hr>
            <ns3:cad>0</ns3:cad>
          </ns3:TrackPointExtension>
        </extensions>
      </trkpt>
      <trkpt lat="37.75662188418209552764892578125" lon="-107.71194937638938426971435546875">
        <ele>3615.60009765625</ele>
        <time>2023-07-29T13:49:49.000Z</time>
        <extensions>
          <ns3:TrackPointExtension>
            <ns3:hr>92</ns3:hr>
            <ns3:cad>0</ns3:cad>
          </ns3:TrackPointExtension>
        </extensions>
      </trkpt>
      <trkpt lat="37.756621129810810089111328125" lon="-107.71194870583713054656982421875">
        <ele>3615.60009765625</ele>
        <time>2023-07-29T13:49:50.000Z</time>
        <extensions>
          <ns3:TrackPointExtension>
            <ns3:hr>93</ns3:hr>
            <ns3:cad>0</ns3:cad>
          </ns3:TrackPointExtension>
        </extensions>
      </trkpt>
      <trkpt lat="37.7566181123256683349609375" lon="-107.71194887347519397735595703125">
        <ele>3615.60009765625</ele>
        <time>2023-07-29T13:49:51.000Z</time>
        <extensions>
          <ns3:TrackPointExtension>
            <ns3:hr>94</ns3:hr>
            <ns3:cad>0</ns3:cad>
          </ns3:TrackPointExtension>
        </extensions>
      </trkpt>
      <trkpt lat="37.75661945343017578125" lon="-107.7119499631226062774658203125">
        <ele>3615.39990234375</ele>
        <time>2023-07-29T13:49:52.000Z</time>
        <extensions>
          <ns3:TrackPointExtension>
            <ns3:hr>95</ns3:hr>
            <ns3:cad>0</ns3:cad>
          </ns3:TrackPointExtension>
        </extensions>
      </trkpt>
      <trkpt lat="37.756618447601795196533203125" lon="-107.71195180714130401611328125">
        <ele>3615.39990234375</ele>
        <time>2023-07-29T13:49:53.000Z</time>
        <extensions>
          <ns3:TrackPointExtension>
            <ns3:hr>95</ns3:hr>
            <ns3:cad>0</ns3:cad>
          </ns3:TrackPointExtension>
        </extensions>
      </trkpt>
      <trkpt lat="37.75662205182015895843505859375" lon="-107.7119539864361286163330078125">
        <ele>3615.39990234375</ele>
        <time>2023-07-29T13:49:54.000Z</time>
        <extensions>
          <ns3:TrackPointExtension>
            <ns3:hr>95</ns3:hr>
            <ns3:cad>0</ns3:cad>
          </ns3:TrackPointExtension>
        </extensions>
      </trkpt>
      <trkpt lat="37.75662624277174472808837890625" lon="-107.71195809356868267059326171875">
        <ele>3615.39990234375</ele>
        <time>2023-07-29T13:49:55.000Z</time>
        <extensions>
          <ns3:TrackPointExtension>
            <ns3:hr>95</ns3:hr>
            <ns3:cad>0</ns3:cad>
          </ns3:TrackPointExtension>
        </extensions>
      </trkpt>
      <trkpt lat="37.75662926025688648223876953125" lon="-107.71196044050157070159912109375">
        <ele>3615.39990234375</ele>
        <time>2023-07-29T13:49:56.000Z</time>
        <extensions>
          <ns3:TrackPointExtension>
            <ns3:hr>95</ns3:hr>
            <ns3:cad>0</ns3:cad>
          </ns3:TrackPointExtension>
        </extensions>
      </trkpt>
      <trkpt lat="37.7566363848745822906494140625" lon="-107.7119616977870464324951171875">
        <ele>3615.60009765625</ele>
        <time>2023-07-29T13:49:57.000Z</time>
        <extensions>
          <ns3:TrackPointExtension>
            <ns3:hr>95</ns3:hr>
            <ns3:cad>0</ns3:cad>
          </ns3:TrackPointExtension>
        </extensions>
      </trkpt>
      <trkpt lat="37.75664317421615123748779296875" lon="-107.71196362562477588653564453125">
        <ele>3616</ele>
        <time>2023-07-29T13:49:58.000Z</time>
        <extensions>
          <ns3:TrackPointExtension>
            <ns3:hr>95</ns3:hr>
            <ns3:cad>0</ns3:cad>
          </ns3:TrackPointExtension>
        </extensions>
      </trkpt>
      <trkpt lat="37.7566548250615596771240234375" lon="-107.71196228452026844024658203125">
        <ele>3616.199951171875</ele>
        <time>2023-07-29T13:49:59.000Z</time>
        <extensions>
          <ns3:TrackPointExtension>
            <ns3:hr>95</ns3:hr>
            <ns3:cad>0</ns3:cad>
          </ns3:TrackPointExtension>
        </extensions>
      </trkpt>
      <trkpt lat="37.75666169822216033935546875" lon="-107.71196060813963413238525390625">
        <ele>3616.199951171875</ele>
        <time>2023-07-29T13:50:00.000Z</time>
        <extensions>
          <ns3:TrackPointExtension>
            <ns3:hr>95</ns3:hr>
            <ns3:cad>0</ns3:cad>
          </ns3:TrackPointExtension>
        </extensions>
      </trkpt>
      <trkpt lat="37.7566702477633953094482421875" lon="-107.71195574663579463958740234375">
        <ele>3616.199951171875</ele>
        <time>2023-07-29T13:50:01.000Z</time>
        <extensions>
          <ns3:TrackPointExtension>
            <ns3:hr>95</ns3:hr>
            <ns3:cad>0</ns3:cad>
          </ns3:TrackPointExtension>
        </extensions>
      </trkpt>
      <trkpt lat="37.7566712535917758941650390625" lon="-107.7119513042271137237548828125">
        <ele>3616.199951171875</ele>
        <time>2023-07-29T13:50:02.000Z</time>
        <extensions>
          <ns3:TrackPointExtension>
            <ns3:hr>95</ns3:hr>
            <ns3:cad>0</ns3:cad>
          </ns3:TrackPointExtension>
        </extensions>
      </trkpt>
      <trkpt lat="37.75667116977274417877197265625" lon="-107.71195172332227230072021484375">
        <ele>3616.60009765625</ele>
        <time>2023-07-29T13:50:03.000Z</time>
        <extensions>
          <ns3:TrackPointExtension>
            <ns3:hr>95</ns3:hr>
            <ns3:cad>0</ns3:cad>
          </ns3:TrackPointExtension>
        </extensions>
      </trkpt>
      <trkpt lat="37.75667401961982250213623046875" lon="-107.71194778382778167724609375">
        <ele>3616.60009765625</ele>
        <time>2023-07-29T13:50:04.000Z</time>
        <extensions>
          <ns3:TrackPointExtension>
            <ns3:hr>96</ns3:hr>
            <ns3:cad>0</ns3:cad>
          </ns3:TrackPointExtension>
        </extensions>
      </trkpt>
      <trkpt lat="37.75667686946690082550048828125" lon="-107.71194602362811565399169921875">
        <ele>3616.800048828125</ele>
        <time>2023-07-29T13:50:05.000Z</time>
        <extensions>
          <ns3:TrackPointExtension>
            <ns3:hr>96</ns3:hr>
            <ns3:cad>0</ns3:cad>
          </ns3:TrackPointExtension>
        </extensions>
      </trkpt>
      <trkpt lat="37.756676785647869110107421875" lon="-107.711944095790386199951171875">
        <ele>3617.199951171875</ele>
        <time>2023-07-29T13:50:06.000Z</time>
        <extensions>
          <ns3:TrackPointExtension>
            <ns3:hr>97</ns3:hr>
            <ns3:cad>0</ns3:cad>
          </ns3:TrackPointExtension>
        </extensions>
      </trkpt>
      <trkpt lat="37.75667720474302768707275390625" lon="-107.7119432576000690460205078125">
        <ele>3617.199951171875</ele>
        <time>2023-07-29T13:50:07.000Z</time>
        <extensions>
          <ns3:TrackPointExtension>
            <ns3:hr>97</ns3:hr>
            <ns3:cad>0</ns3:cad>
          </ns3:TrackPointExtension>
        </extensions>
      </trkpt>
      <trkpt lat="37.7566799707710742950439453125" lon="-107.711944095790386199951171875">
        <ele>3617.199951171875</ele>
        <time>2023-07-29T13:50:08.000Z</time>
        <extensions>
          <ns3:TrackPointExtension>
            <ns3:hr>97</ns3:hr>
            <ns3:cad>0</ns3:cad>
          </ns3:TrackPointExtension>
        </extensions>
      </trkpt>
      <trkpt lat="37.75668357498943805694580078125" lon="-107.71194535307586193084716796875">
        <ele>3617.199951171875</ele>
        <time>2023-07-29T13:50:09.000Z</time>
        <extensions>
          <ns3:TrackPointExtension>
            <ns3:hr>98</ns3:hr>
            <ns3:cad>0</ns3:cad>
          </ns3:TrackPointExtension>
        </extensions>
      </trkpt>
      <trkpt lat="37.75668843649327754974365234375" lon="-107.7119449339807033538818359375">
        <ele>3617.199951171875</ele>
        <time>2023-07-29T13:50:10.000Z</time>
        <extensions>
          <ns3:TrackPointExtension>
            <ns3:hr>99</ns3:hr>
            <ns3:cad>0</ns3:cad>
          </ns3:TrackPointExtension>
        </extensions>
      </trkpt>
      <trkpt lat="37.75669195689260959625244140625" lon="-107.71194686181843280792236328125">
        <ele>3617.199951171875</ele>
        <time>2023-07-29T13:50:11.000Z</time>
        <extensions>
          <ns3:TrackPointExtension>
            <ns3:hr>101</ns3:hr>
            <ns3:cad>0</ns3:cad>
          </ns3:TrackPointExtension>
        </extensions>
      </trkpt>
      <trkpt lat="37.75669799186289310455322265625" lon="-107.71194753237068653106689453125">
        <ele>3617.199951171875</ele>
        <time>2023-07-29T13:50:12.000Z</time>
        <extensions>
          <ns3:TrackPointExtension>
            <ns3:hr>103</ns3:hr>
            <ns3:cad>0</ns3:cad>
          </ns3:TrackPointExtension>
        </extensions>
      </trkpt>
      <trkpt lat="37.756704278290271759033203125" lon="-107.71194820292294025421142578125">
        <ele>3617.199951171875</ele>
        <time>2023-07-29T13:50:13.000Z</time>
        <extensions>
          <ns3:TrackPointExtension>
            <ns3:hr>104</ns3:hr>
            <ns3:cad>0</ns3:cad>
          </ns3:TrackPointExtension>
        </extensions>
      </trkpt>
      <trkpt lat="37.7567024342715740203857421875" lon="-107.71195122040808200836181640625">
        <ele>3617.39990234375</ele>
        <time>2023-07-29T13:50:14.000Z</time>
        <extensions>
          <ns3:TrackPointExtension>
            <ns3:hr>104</ns3:hr>
            <ns3:cad>0</ns3:cad>
          </ns3:TrackPointExtension>
        </extensions>
      </trkpt>
      <trkpt lat="37.7567007578909397125244140625" lon="-107.71195272915065288543701171875">
        <ele>3617.39990234375</ele>
        <time>2023-07-29T13:50:15.000Z</time>
        <extensions>
          <ns3:TrackPointExtension>
            <ns3:hr>105</ns3:hr>
            <ns3:cad>0</ns3:cad>
          </ns3:TrackPointExtension>
        </extensions>
      </trkpt>
      <trkpt lat="37.75670184753835201263427734375" lon="-107.7119533158838748931884765625">
        <ele>3617.39990234375</ele>
        <time>2023-07-29T13:50:16.000Z</time>
        <extensions>
          <ns3:TrackPointExtension>
            <ns3:hr>105</ns3:hr>
            <ns3:cad>0</ns3:cad>
          </ns3:TrackPointExtension>
        </extensions>
      </trkpt>
      <trkpt lat="37.75670050643384456634521484375" lon="-107.71195692010223865509033203125">
        <ele>3617.39990234375</ele>
        <time>2023-07-29T13:50:17.000Z</time>
        <extensions>
          <ns3:TrackPointExtension>
            <ns3:hr>105</ns3:hr>
            <ns3:cad>0</ns3:cad>
          </ns3:TrackPointExtension>
        </extensions>
      </trkpt>
      <trkpt lat="37.7567017637193202972412109375" lon="-107.7119580097496509552001953125">
        <ele>3617.39990234375</ele>
        <time>2023-07-29T13:50:18.000Z</time>
        <extensions>
          <ns3:TrackPointExtension>
            <ns3:hr>106</ns3:hr>
            <ns3:cad>0</ns3:cad>
          </ns3:TrackPointExtension>
        </extensions>
      </trkpt>
      <trkpt lat="37.75670369155704975128173828125" lon="-107.711956165730953216552734375">
        <ele>3617.39990234375</ele>
        <time>2023-07-29T13:50:19.000Z</time>
        <extensions>
          <ns3:TrackPointExtension>
            <ns3:hr>106</ns3:hr>
            <ns3:cad>0</ns3:cad>
          </ns3:TrackPointExtension>
        </extensions>
      </trkpt>
      <trkpt lat="37.75670729577541351318359375" lon="-107.71195105277001857757568359375">
        <ele>3617.39990234375</ele>
        <time>2023-07-29T13:50:20.000Z</time>
        <extensions>
          <ns3:TrackPointExtension>
            <ns3:hr>107</ns3:hr>
            <ns3:cad>0</ns3:cad>
          </ns3:TrackPointExtension>
        </extensions>
      </trkpt>
      <trkpt lat="37.75671224109828472137451171875" lon="-107.71194753237068653106689453125">
        <ele>3617.39990234375</ele>
        <time>2023-07-29T13:50:21.000Z</time>
        <extensions>
          <ns3:TrackPointExtension>
            <ns3:hr>108</ns3:hr>
            <ns3:cad>0</ns3:cad>
          </ns3:TrackPointExtension>
        </extensions>
      </trkpt>
      <trkpt lat="37.75671324692666530609130859375" lon="-107.71194652654230594635009765625">
        <ele>3617.39990234375</ele>
        <time>2023-07-29T13:50:22.000Z</time>
        <extensions>
          <ns3:TrackPointExtension>
            <ns3:hr>108</ns3:hr>
            <ns3:cad>0</ns3:cad>
          </ns3:TrackPointExtension>
        </extensions>
      </trkpt>
      <trkpt lat="37.75671224109828472137451171875" lon="-107.7119482867419719696044921875">
        <ele>3617.39990234375</ele>
        <time>2023-07-29T13:50:23.000Z</time>
        <extensions>
          <ns3:TrackPointExtension>
            <ns3:hr>107</ns3:hr>
            <ns3:cad>0</ns3:cad>
          </ns3:TrackPointExtension>
        </extensions>
      </trkpt>
      <trkpt lat="37.7567077986896038055419921875" lon="-107.71194912493228912353515625">
        <ele>3617.39990234375</ele>
        <time>2023-07-29T13:50:24.000Z</time>
        <extensions>
          <ns3:TrackPointExtension>
            <ns3:hr>107</ns3:hr>
            <ns3:cad>0</ns3:cad>
          </ns3:TrackPointExtension>
        </extensions>
      </trkpt>
      <trkpt lat="37.75670302100479602813720703125" lon="-107.71195583045482635498046875">
        <ele>3617.39990234375</ele>
        <time>2023-07-29T13:50:25.000Z</time>
        <extensions>
          <ns3:TrackPointExtension>
            <ns3:hr>107</ns3:hr>
            <ns3:cad>0</ns3:cad>
          </ns3:TrackPointExtension>
        </extensions>
      </trkpt>
      <trkpt lat="37.75670100934803485870361328125" lon="-107.71195708774030208587646484375">
        <ele>3617.39990234375</ele>
        <time>2023-07-29T13:50:26.000Z</time>
        <extensions>
          <ns3:TrackPointExtension>
            <ns3:hr>107</ns3:hr>
            <ns3:cad>0</ns3:cad>
          </ns3:TrackPointExtension>
        </extensions>
      </trkpt>
      <trkpt lat="37.756699584424495697021484375" lon="-107.711954824626445770263671875">
        <ele>3617.39990234375</ele>
        <time>2023-07-29T13:50:27.000Z</time>
        <extensions>
          <ns3:TrackPointExtension>
            <ns3:hr>107</ns3:hr>
            <ns3:cad>0</ns3:cad>
          </ns3:TrackPointExtension>
        </extensions>
      </trkpt>
      <trkpt lat="37.75670486502349376678466796875" lon="-107.71195314824581146240234375">
        <ele>3617.39990234375</ele>
        <time>2023-07-29T13:50:28.000Z</time>
        <extensions>
          <ns3:TrackPointExtension>
            <ns3:hr>107</ns3:hr>
            <ns3:cad>0</ns3:cad>
          </ns3:TrackPointExtension>
        </extensions>
      </trkpt>
      <trkpt lat="37.75670872069895267486572265625" lon="-107.7119502983987331390380859375">
        <ele>3617.60009765625</ele>
        <time>2023-07-29T13:50:29.000Z</time>
        <extensions>
          <ns3:TrackPointExtension>
            <ns3:hr>107</ns3:hr>
            <ns3:cad>0</ns3:cad>
          </ns3:TrackPointExtension>
        </extensions>
      </trkpt>
      <trkpt lat="37.75670805014669895172119140625" lon="-107.71194820292294025421142578125">
        <ele>3617.60009765625</ele>
        <time>2023-07-29T13:50:30.000Z</time>
        <extensions>
          <ns3:TrackPointExtension>
            <ns3:hr>106</ns3:hr>
            <ns3:cad>0</ns3:cad>
          </ns3:TrackPointExtension>
        </extensions>
      </trkpt>
      <trkpt lat="37.75670754723250865936279296875" lon="-107.7119462750852108001708984375">
        <ele>3617.60009765625</ele>
        <time>2023-07-29T13:50:31.000Z</time>
        <extensions>
          <ns3:TrackPointExtension>
            <ns3:hr>106</ns3:hr>
            <ns3:cad>0</ns3:cad>
          </ns3:TrackPointExtension>
        </extensions>
      </trkpt>
      <trkpt lat="37.75670670904219150543212890625" lon="-107.7119466103613376617431640625">
        <ele>3617.60009765625</ele>
        <time>2023-07-29T13:50:32.000Z</time>
        <extensions>
          <ns3:TrackPointExtension>
            <ns3:hr>106</ns3:hr>
            <ns3:cad>0</ns3:cad>
          </ns3:TrackPointExtension>
        </extensions>
      </trkpt>
      <trkpt lat="37.75671089999377727508544921875" lon="-107.71194216795265674591064453125">
        <ele>3617.60009765625</ele>
        <time>2023-07-29T13:50:33.000Z</time>
        <extensions>
          <ns3:TrackPointExtension>
            <ns3:hr>105</ns3:hr>
            <ns3:cad>0</ns3:cad>
          </ns3:TrackPointExtension>
        </extensions>
      </trkpt>
      <trkpt lat="37.7567173540592193603515625" lon="-107.71193546243011951446533203125">
        <ele>3617.60009765625</ele>
        <time>2023-07-29T13:50:34.000Z</time>
        <extensions>
          <ns3:TrackPointExtension>
            <ns3:hr>104</ns3:hr>
            <ns3:cad>0</ns3:cad>
          </ns3:TrackPointExtension>
        </extensions>
      </trkpt>
      <trkpt lat="37.7567225508391857147216796875" lon="-107.711929343640804290771484375">
        <ele>3617.60009765625</ele>
        <time>2023-07-29T13:50:35.000Z</time>
        <extensions>
          <ns3:TrackPointExtension>
            <ns3:hr>103</ns3:hr>
            <ns3:cad>0</ns3:cad>
          </ns3:TrackPointExtension>
        </extensions>
      </trkpt>
      <trkpt lat="37.7567235566675662994384765625" lon="-107.71192758344113826751708984375">
        <ele>3617.60009765625</ele>
        <time>2023-07-29T13:50:36.000Z</time>
        <extensions>
          <ns3:TrackPointExtension>
            <ns3:hr>103</ns3:hr>
            <ns3:cad>0</ns3:cad>
          </ns3:TrackPointExtension>
        </extensions>
      </trkpt>
      <trkpt lat="37.75672464631497859954833984375" lon="-107.7119261585175991058349609375">
        <ele>3617.60009765625</ele>
        <time>2023-07-29T13:50:37.000Z</time>
        <extensions>
          <ns3:TrackPointExtension>
            <ns3:hr>102</ns3:hr>
            <ns3:cad>0</ns3:cad>
          </ns3:TrackPointExtension>
        </extensions>
      </trkpt>
      <trkpt lat="37.75671509094536304473876953125" lon="-107.711934708058834075927734375">
        <ele>3617.800048828125</ele>
        <time>2023-07-29T13:50:38.000Z</time>
        <extensions>
          <ns3:TrackPointExtension>
            <ns3:hr>102</ns3:hr>
            <ns3:cad>0</ns3:cad>
          </ns3:TrackPointExtension>
        </extensions>
      </trkpt>
      <trkpt lat="37.75671961717307567596435546875" lon="-107.7119310200214385986328125">
        <ele>3617.800048828125</ele>
        <time>2023-07-29T13:50:39.000Z</time>
        <extensions>
          <ns3:TrackPointExtension>
            <ns3:hr>101</ns3:hr>
            <ns3:cad>0</ns3:cad>
          </ns3:TrackPointExtension>
        </extensions>
      </trkpt>
      <trkpt lat="37.75672766380012035369873046875" lon="-107.7119229733943939208984375">
        <ele>3618</ele>
        <time>2023-07-29T13:50:40.000Z</time>
        <extensions>
          <ns3:TrackPointExtension>
            <ns3:hr>101</ns3:hr>
            <ns3:cad>0</ns3:cad>
          </ns3:TrackPointExtension>
        </extensions>
      </trkpt>
      <trkpt lat="37.75673319585621356964111328125" lon="-107.71191786043345928192138671875">
        <ele>3618.199951171875</ele>
        <time>2023-07-29T13:50:41.000Z</time>
        <extensions>
          <ns3:TrackPointExtension>
            <ns3:hr>101</ns3:hr>
            <ns3:cad>0</ns3:cad>
          </ns3:TrackPointExtension>
        </extensions>
      </trkpt>
      <trkpt lat="37.75673839263617992401123046875" lon="-107.7119147591292858123779296875">
        <ele>3618.39990234375</ele>
        <time>2023-07-29T13:50:42.000Z</time>
        <extensions>
          <ns3:TrackPointExtension>
            <ns3:hr>101</ns3:hr>
            <ns3:cad>0</ns3:cad>
          </ns3:TrackPointExtension>
        </extensions>
      </trkpt>
      <trkpt lat="37.75674476288259029388427734375" lon="-107.7119107358157634735107421875">
        <ele>3618.39990234375</ele>
        <time>2023-07-29T13:50:43.000Z</time>
        <extensions>
          <ns3:TrackPointExtension>
            <ns3:hr>101</ns3:hr>
            <ns3:cad>0</ns3:cad>
          </ns3:TrackPointExtension>
        </extensions>
      </trkpt>
      <trkpt lat="37.75674979202449321746826171875" lon="-107.711908556520938873291015625">
        <ele>3618.60009765625</ele>
        <time>2023-07-29T13:50:44.000Z</time>
        <extensions>
          <ns3:TrackPointExtension>
            <ns3:hr>100</ns3:hr>
            <ns3:cad>0</ns3:cad>
          </ns3:TrackPointExtension>
        </extensions>
      </trkpt>
      <trkpt lat="37.75675247423350811004638671875" lon="-107.71190914325416088104248046875">
        <ele>3618.60009765625</ele>
        <time>2023-07-29T13:50:45.000Z</time>
        <extensions>
          <ns3:TrackPointExtension>
            <ns3:hr>100</ns3:hr>
            <ns3:cad>0</ns3:cad>
          </ns3:TrackPointExtension>
        </extensions>
      </trkpt>
      <trkpt lat="37.75675331242382526397705078125" lon="-107.71191568113863468170166015625">
        <ele>3618.800048828125</ele>
        <time>2023-07-29T13:50:46.000Z</time>
        <extensions>
          <ns3:TrackPointExtension>
            <ns3:hr>100</ns3:hr>
            <ns3:cad>0</ns3:cad>
          </ns3:TrackPointExtension>
        </extensions>
      </trkpt>
      <trkpt lat="37.75675884447991847991943359375" lon="-107.7119154296815395355224609375">
        <ele>3618.800048828125</ele>
        <time>2023-07-29T13:50:47.000Z</time>
        <extensions>
          <ns3:TrackPointExtension>
            <ns3:hr>99</ns3:hr>
            <ns3:cad>0</ns3:cad>
          </ns3:TrackPointExtension>
        </extensions>
      </trkpt>
      <trkpt lat="37.7567668072879314422607421875" lon="-107.711915262043476104736328125">
        <ele>3619</ele>
        <time>2023-07-29T13:50:48.000Z</time>
        <extensions>
          <ns3:TrackPointExtension>
            <ns3:hr>99</ns3:hr>
            <ns3:cad>0</ns3:cad>
          </ns3:TrackPointExtension>
        </extensions>
      </trkpt>
      <trkpt lat="37.756779380142688751220703125" lon="-107.71191584877669811248779296875">
        <ele>3619</ele>
        <time>2023-07-29T13:50:49.000Z</time>
        <extensions>
          <ns3:TrackPointExtension>
            <ns3:hr>93</ns3:hr>
            <ns3:cad>0</ns3:cad>
          </ns3:TrackPointExtension>
        </extensions>
      </trkpt>
      <trkpt lat="37.7567882649600505828857421875" lon="-107.7119157649576663970947265625">
        <ele>3619.39990234375</ele>
        <time>2023-07-29T13:50:50.000Z</time>
        <extensions>
          <ns3:TrackPointExtension>
            <ns3:hr>92</ns3:hr>
            <ns3:cad>0</ns3:cad>
          </ns3:TrackPointExtension>
        </extensions>
      </trkpt>
      <trkpt lat="37.75679958052933216094970703125" lon="-107.71191333420574665069580078125">
        <ele>3619.39990234375</ele>
        <time>2023-07-29T13:50:51.000Z</time>
        <extensions>
          <ns3:TrackPointExtension>
            <ns3:hr>92</ns3:hr>
            <ns3:cad>0</ns3:cad>
          </ns3:TrackPointExtension>
        </extensions>
      </trkpt>
      <trkpt lat="37.7568026818335056304931640625" lon="-107.71191417239606380462646484375">
        <ele>3619.60009765625</ele>
        <time>2023-07-29T13:50:52.000Z</time>
        <extensions>
          <ns3:TrackPointExtension>
            <ns3:hr>92</ns3:hr>
            <ns3:cad>0</ns3:cad>
          </ns3:TrackPointExtension>
        </extensions>
      </trkpt>
      <trkpt lat="37.7568139135837554931640625" lon="-107.7119124121963977813720703125">
        <ele>3619.800048828125</ele>
        <time>2023-07-29T13:50:53.000Z</time>
        <extensions>
          <ns3:TrackPointExtension>
            <ns3:hr>92</ns3:hr>
            <ns3:cad>0</ns3:cad>
          </ns3:TrackPointExtension>
        </extensions>
      </trkpt>
      <trkpt lat="37.75682640261948108673095703125" lon="-107.7119117416441440582275390625">
        <ele>3620</ele>
        <time>2023-07-29T13:50:54.000Z</time>
        <extensions>
          <ns3:TrackPointExtension>
            <ns3:hr>93</ns3:hr>
            <ns3:cad>48</ns3:cad>
          </ns3:TrackPointExtension>
        </extensions>
      </trkpt>
      <trkpt lat="37.75683713145554065704345703125" lon="-107.71191031672060489654541015625">
        <ele>3620.199951171875</ele>
        <time>2023-07-29T13:50:55.000Z</time>
        <extensions>
          <ns3:TrackPointExtension>
            <ns3:hr>93</ns3:hr>
            <ns3:cad>48</ns3:cad>
          </ns3:TrackPointExtension>
        </extensions>
      </trkpt>
      <trkpt lat="37.7568407356739044189453125" lon="-107.7119120769202709197998046875">
        <ele>3620.199951171875</ele>
        <time>2023-07-29T13:50:56.000Z</time>
        <extensions>
          <ns3:TrackPointExtension>
            <ns3:hr>93</ns3:hr>
            <ns3:cad>48</ns3:cad>
          </ns3:TrackPointExtension>
        </extensions>
      </trkpt>
      <trkpt lat="37.75684333406388759613037109375" lon="-107.7119124121963977813720703125">
        <ele>3620.60009765625</ele>
        <time>2023-07-29T13:50:57.000Z</time>
        <extensions>
          <ns3:TrackPointExtension>
            <ns3:hr>93</ns3:hr>
            <ns3:cad>48</ns3:cad>
          </ns3:TrackPointExtension>
        </extensions>
      </trkpt>
      <trkpt lat="37.7568398974835872650146484375" lon="-107.71191316656768321990966796875">
        <ele>3620.800048828125</ele>
        <time>2023-07-29T13:50:58.000Z</time>
        <extensions>
          <ns3:TrackPointExtension>
            <ns3:hr>93</ns3:hr>
            <ns3:cad>0</ns3:cad>
          </ns3:TrackPointExtension>
        </extensions>
      </trkpt>
      <trkpt lat="37.75684316642582416534423828125" lon="-107.711913920938968658447265625">
        <ele>3620.800048828125</ele>
        <time>2023-07-29T13:50:59.000Z</time>
        <extensions>
          <ns3:TrackPointExtension>
            <ns3:hr>94</ns3:hr>
            <ns3:cad>0</ns3:cad>
          </ns3:TrackPointExtension>
        </extensions>
      </trkpt>
      <trkpt lat="37.7568512968719005584716796875" lon="-107.7119124121963977813720703125">
        <ele>3621</ele>
        <time>2023-07-29T13:51:00.000Z</time>
        <extensions>
          <ns3:TrackPointExtension>
            <ns3:hr>94</ns3:hr>
            <ns3:cad>0</ns3:cad>
          </ns3:TrackPointExtension>
        </extensions>
      </trkpt>
      <trkpt lat="37.75685121305286884307861328125" lon="-107.71191283129155635833740234375">
        <ele>3621.39990234375</ele>
        <time>2023-07-29T13:51:01.000Z</time>
        <extensions>
          <ns3:TrackPointExtension>
            <ns3:hr>95</ns3:hr>
            <ns3:cad>0</ns3:cad>
          </ns3:TrackPointExtension>
        </extensions>
      </trkpt>
      <trkpt lat="37.7568559907376766204833984375" lon="-107.71191425621509552001953125">
        <ele>3621.60009765625</ele>
        <time>2023-07-29T13:51:02.000Z</time>
        <extensions>
          <ns3:TrackPointExtension>
            <ns3:hr>95</ns3:hr>
            <ns3:cad>0</ns3:cad>
          </ns3:TrackPointExtension>
        </extensions>
      </trkpt>
      <trkpt lat="37.7568573318421840667724609375" lon="-107.71191232837736606597900390625">
        <ele>3621.800048828125</ele>
        <time>2023-07-29T13:51:03.000Z</time>
        <extensions>
          <ns3:TrackPointExtension>
            <ns3:hr>96</ns3:hr>
            <ns3:cad>0</ns3:cad>
          </ns3:TrackPointExtension>
        </extensions>
      </trkpt>
      <trkpt lat="37.75685674510896205902099609375" lon="-107.71191291511058807373046875">
        <ele>3622</ele>
        <time>2023-07-29T13:51:04.000Z</time>
        <extensions>
          <ns3:TrackPointExtension>
            <ns3:hr>97</ns3:hr>
            <ns3:cad>0</ns3:cad>
          </ns3:TrackPointExtension>
        </extensions>
      </trkpt>
      <trkpt lat="37.756861187517642974853515625" lon="-107.71191383711993694305419921875">
        <ele>3622.199951171875</ele>
        <time>2023-07-29T13:51:05.000Z</time>
        <extensions>
          <ns3:TrackPointExtension>
            <ns3:hr>98</ns3:hr>
            <ns3:cad>0</ns3:cad>
          </ns3:TrackPointExtension>
        </extensions>
      </trkpt>
      <trkpt lat="37.75686764158308506011962890625" lon="-107.71191132254898548126220703125">
        <ele>3622.39990234375</ele>
        <time>2023-07-29T13:51:06.000Z</time>
        <extensions>
          <ns3:TrackPointExtension>
            <ns3:hr>100</ns3:hr>
            <ns3:cad>0</ns3:cad>
          </ns3:TrackPointExtension>
        </extensions>
      </trkpt>
      <trkpt lat="37.7568683959543704986572265625" lon="-107.71191031672060489654541015625">
        <ele>3622.60009765625</ele>
        <time>2023-07-29T13:51:07.000Z</time>
        <extensions>
          <ns3:TrackPointExtension>
            <ns3:hr>100</ns3:hr>
            <ns3:cad>0</ns3:cad>
          </ns3:TrackPointExtension>
        </extensions>
      </trkpt>
      <trkpt lat="37.75687317363917827606201171875" lon="-107.7119073830544948577880859375">
        <ele>3622.800048828125</ele>
        <time>2023-07-29T13:51:08.000Z</time>
        <extensions>
          <ns3:TrackPointExtension>
            <ns3:hr>102</ns3:hr>
            <ns3:cad>0</ns3:cad>
          </ns3:TrackPointExtension>
        </extensions>
      </trkpt>
      <trkpt lat="37.7568804658949375152587890625" lon="-107.7119057066738605499267578125">
        <ele>3623</ele>
        <time>2023-07-29T13:51:09.000Z</time>
        <extensions>
          <ns3:TrackPointExtension>
            <ns3:hr>103</ns3:hr>
            <ns3:cad>0</ns3:cad>
          </ns3:TrackPointExtension>
        </extensions>
      </trkpt>
      <trkpt lat="37.75688407011330127716064453125" lon="-107.71190486848354339599609375">
        <ele>3623.39990234375</ele>
        <time>2023-07-29T13:51:10.000Z</time>
        <extensions>
          <ns3:TrackPointExtension>
            <ns3:hr>104</ns3:hr>
            <ns3:cad>0</ns3:cad>
          </ns3:TrackPointExtension>
        </extensions>
      </trkpt>
      <trkpt lat="37.75688976980745792388916015625" lon="-107.7119026891887187957763671875">
        <ele>3623.60009765625</ele>
        <time>2023-07-29T13:51:11.000Z</time>
        <extensions>
          <ns3:TrackPointExtension>
            <ns3:hr>105</ns3:hr>
            <ns3:cad>0</ns3:cad>
          </ns3:TrackPointExtension>
        </extensions>
      </trkpt>
      <trkpt lat="37.7568943798542022705078125" lon="-107.711900509893894195556640625">
        <ele>3623.800048828125</ele>
        <time>2023-07-29T13:51:12.000Z</time>
        <extensions>
          <ns3:TrackPointExtension>
            <ns3:hr>106</ns3:hr>
            <ns3:cad>0</ns3:cad>
          </ns3:TrackPointExtension>
        </extensions>
      </trkpt>
      <trkpt lat="37.75689815171062946319580078125" lon="-107.71189891733229160308837890625">
        <ele>3623.800048828125</ele>
        <time>2023-07-29T13:51:13.000Z</time>
        <extensions>
          <ns3:TrackPointExtension>
            <ns3:hr>107</ns3:hr>
            <ns3:cad>0</ns3:cad>
          </ns3:TrackPointExtension>
        </extensions>
      </trkpt>
      <trkpt lat="37.75690309703350067138671875" lon="-107.7118976600468158721923828125">
        <ele>3623.800048828125</ele>
        <time>2023-07-29T13:51:14.000Z</time>
        <extensions>
          <ns3:TrackPointExtension>
            <ns3:hr>108</ns3:hr>
            <ns3:cad>0</ns3:cad>
          </ns3:TrackPointExtension>
        </extensions>
      </trkpt>
      <trkpt lat="37.75690502487123012542724609375" lon="-107.71189271472394466400146484375">
        <ele>3624.199951171875</ele>
        <time>2023-07-29T13:51:15.000Z</time>
        <extensions>
          <ns3:TrackPointExtension>
            <ns3:hr>109</ns3:hr>
            <ns3:cad>0</ns3:cad>
          </ns3:TrackPointExtension>
        </extensions>
      </trkpt>
      <trkpt lat="37.75691173039376735687255859375" lon="-107.71188475191593170166015625">
        <ele>3624.39990234375</ele>
        <time>2023-07-29T13:51:16.000Z</time>
        <extensions>
          <ns3:TrackPointExtension>
            <ns3:hr>110</ns3:hr>
            <ns3:cad>0</ns3:cad>
          </ns3:TrackPointExtension>
        </extensions>
      </trkpt>
      <trkpt lat="37.75691709481179714202880859375" lon="-107.711881734430789947509765625">
        <ele>3624.39990234375</ele>
        <time>2023-07-29T13:51:17.000Z</time>
        <extensions>
          <ns3:TrackPointExtension>
            <ns3:hr>110</ns3:hr>
            <ns3:cad>0</ns3:cad>
          </ns3:TrackPointExtension>
        </extensions>
      </trkpt>
      <trkpt lat="37.7569238841533660888671875" lon="-107.71187913604080677032470703125">
        <ele>3624.60009765625</ele>
        <time>2023-07-29T13:51:18.000Z</time>
        <extensions>
          <ns3:TrackPointExtension>
            <ns3:hr>109</ns3:hr>
            <ns3:cad>0</ns3:cad>
          </ns3:TrackPointExtension>
        </extensions>
      </trkpt>
      <trkpt lat="37.75692497380077838897705078125" lon="-107.7118819020688533782958984375">
        <ele>3625</ele>
        <time>2023-07-29T13:51:19.000Z</time>
        <extensions>
          <ns3:TrackPointExtension>
            <ns3:hr>109</ns3:hr>
            <ns3:cad>0</ns3:cad>
          </ns3:TrackPointExtension>
        </extensions>
      </trkpt>
      <trkpt lat="37.75692748837172985076904296875" lon="-107.71188341081142425537109375">
        <ele>3625.199951171875</ele>
        <time>2023-07-29T13:51:20.000Z</time>
        <extensions>
          <ns3:TrackPointExtension>
            <ns3:hr>110</ns3:hr>
            <ns3:cad>0</ns3:cad>
          </ns3:TrackPointExtension>
        </extensions>
      </trkpt>
      <trkpt lat="37.75692950002849102020263671875" lon="-107.7118802256882190704345703125">
        <ele>3625.39990234375</ele>
        <time>2023-07-29T13:51:21.000Z</time>
        <extensions>
          <ns3:TrackPointExtension>
            <ns3:hr>110</ns3:hr>
            <ns3:cad>0</ns3:cad>
          </ns3:TrackPointExtension>
        </extensions>
      </trkpt>
      <trkpt lat="37.756931595504283905029296875" lon="-107.71187913604080677032470703125">
        <ele>3625.60009765625</ele>
        <time>2023-07-29T13:51:22.000Z</time>
        <extensions>
          <ns3:TrackPointExtension>
            <ns3:hr>111</ns3:hr>
            <ns3:cad>0</ns3:cad>
          </ns3:TrackPointExtension>
        </extensions>
      </trkpt>
      <trkpt lat="37.7569319307804107666015625" lon="-107.7118808962404727935791015625">
        <ele>3625.60009765625</ele>
        <time>2023-07-29T13:51:23.000Z</time>
        <extensions>
          <ns3:TrackPointExtension>
            <ns3:hr>111</ns3:hr>
            <ns3:cad>0</ns3:cad>
          </ns3:TrackPointExtension>
        </extensions>
      </trkpt>
      <trkpt lat="37.7569314278662204742431640625" lon="-107.71188232116401195526123046875">
        <ele>3625.800048828125</ele>
        <time>2023-07-29T13:51:24.000Z</time>
        <extensions>
          <ns3:TrackPointExtension>
            <ns3:hr>111</ns3:hr>
            <ns3:cad>0</ns3:cad>
          </ns3:TrackPointExtension>
        </extensions>
      </trkpt>
      <trkpt lat="37.7569344453513622283935546875" lon="-107.71188064478337764739990234375">
        <ele>3625.800048828125</ele>
        <time>2023-07-29T13:51:25.000Z</time>
        <extensions>
          <ns3:TrackPointExtension>
            <ns3:hr>111</ns3:hr>
            <ns3:cad>0</ns3:cad>
          </ns3:TrackPointExtension>
        </extensions>
      </trkpt>
      <trkpt lat="37.75693503208458423614501953125" lon="-107.71187963895499706268310546875">
        <ele>3626</ele>
        <time>2023-07-29T13:51:26.000Z</time>
        <extensions>
          <ns3:TrackPointExtension>
            <ns3:hr>111</ns3:hr>
            <ns3:cad>0</ns3:cad>
          </ns3:TrackPointExtension>
        </extensions>
      </trkpt>
      <trkpt lat="37.75694140233099460601806640625" lon="-107.71187779493629932403564453125">
        <ele>3626.199951171875</ele>
        <time>2023-07-29T13:51:27.000Z</time>
        <extensions>
          <ns3:TrackPointExtension>
            <ns3:hr>111</ns3:hr>
            <ns3:cad>0</ns3:cad>
          </ns3:TrackPointExtension>
        </extensions>
      </trkpt>
      <trkpt lat="37.7569445036351680755615234375" lon="-107.7118751965463161468505859375">
        <ele>3626.60009765625</ele>
        <time>2023-07-29T13:51:28.000Z</time>
        <extensions>
          <ns3:TrackPointExtension>
            <ns3:hr>111</ns3:hr>
            <ns3:cad>59</ns3:cad>
          </ns3:TrackPointExtension>
        </extensions>
      </trkpt>
      <trkpt lat="37.7569458447396755218505859375" lon="-107.711873687803745269775390625">
        <ele>3626.800048828125</ele>
        <time>2023-07-29T13:51:29.000Z</time>
        <extensions>
          <ns3:TrackPointExtension>
            <ns3:hr>112</ns3:hr>
            <ns3:cad>59</ns3:cad>
          </ns3:TrackPointExtension>
        </extensions>
      </trkpt>
      <trkpt lat="37.75694425217807292938232421875" lon="-107.7118735201656818389892578125">
        <ele>3626.800048828125</ele>
        <time>2023-07-29T13:51:30.000Z</time>
        <extensions>
          <ns3:TrackPointExtension>
            <ns3:hr>112</ns3:hr>
            <ns3:cad>59</ns3:cad>
          </ns3:TrackPointExtension>
        </extensions>
      </trkpt>
      <trkpt lat="37.7569520473480224609375" lon="-107.711862623691558837890625">
        <ele>3627</ele>
        <time>2023-07-29T13:51:31.000Z</time>
        <extensions>
          <ns3:TrackPointExtension>
            <ns3:hr>113</ns3:hr>
            <ns3:cad>0</ns3:cad>
          </ns3:TrackPointExtension>
        </extensions>
      </trkpt>
      <trkpt lat="37.75695548392832279205322265625" lon="-107.71185516379773616790771484375">
        <ele>3627.60009765625</ele>
        <time>2023-07-29T13:51:32.000Z</time>
        <extensions>
          <ns3:TrackPointExtension>
            <ns3:hr>115</ns3:hr>
            <ns3:cad>0</ns3:cad>
          </ns3:TrackPointExtension>
        </extensions>
      </trkpt>
      <trkpt lat="37.75695397518575191497802734375" lon="-107.7118532359600067138671875">
        <ele>3627.800048828125</ele>
        <time>2023-07-29T13:51:33.000Z</time>
        <extensions>
          <ns3:TrackPointExtension>
            <ns3:hr>115</ns3:hr>
            <ns3:cad>0</ns3:cad>
          </ns3:TrackPointExtension>
        </extensions>
      </trkpt>
      <trkpt lat="37.75695414282381534576416015625" lon="-107.71184728480875492095947265625">
        <ele>3627.800048828125</ele>
        <time>2023-07-29T13:51:34.000Z</time>
        <extensions>
          <ns3:TrackPointExtension>
            <ns3:hr>116</ns3:hr>
            <ns3:cad>0</ns3:cad>
          </ns3:TrackPointExtension>
        </extensions>
      </trkpt>
      <trkpt lat="37.75695213116705417633056640625" lon="-107.71184158511459827423095703125">
        <ele>3628.199951171875</ele>
        <time>2023-07-29T13:51:35.000Z</time>
        <extensions>
          <ns3:TrackPointExtension>
            <ns3:hr>116</ns3:hr>
            <ns3:cad>0</ns3:cad>
          </ns3:TrackPointExtension>
        </extensions>
      </trkpt>
      <trkpt lat="37.75695062242448329925537109375" lon="-107.7118371427059173583984375">
        <ele>3628.39990234375</ele>
        <time>2023-07-29T13:51:36.000Z</time>
        <extensions>
          <ns3:TrackPointExtension>
            <ns3:hr>116</ns3:hr>
            <ns3:cad>0</ns3:cad>
          </ns3:TrackPointExtension>
        </extensions>
      </trkpt>
      <trkpt lat="37.7569528855383396148681640625" lon="-107.711827754974365234375">
        <ele>3628.800048828125</ele>
        <time>2023-07-29T13:51:37.000Z</time>
        <extensions>
          <ns3:TrackPointExtension>
            <ns3:hr>116</ns3:hr>
            <ns3:cad>0</ns3:cad>
          </ns3:TrackPointExtension>
        </extensions>
      </trkpt>
      <trkpt lat="37.75695565156638622283935546875" lon="-107.71181979216635227203369140625">
        <ele>3629</ele>
        <time>2023-07-29T13:51:38.000Z</time>
        <extensions>
          <ns3:TrackPointExtension>
            <ns3:hr>117</ns3:hr>
            <ns3:cad>0</ns3:cad>
          </ns3:TrackPointExtension>
        </extensions>
      </trkpt>
      <trkpt lat="37.75695917196571826934814453125" lon="-107.7118138410151004791259765625">
        <ele>3629</ele>
        <time>2023-07-29T13:51:39.000Z</time>
        <extensions>
          <ns3:TrackPointExtension>
            <ns3:hr>118</ns3:hr>
            <ns3:cad>0</ns3:cad>
          </ns3:TrackPointExtension>
        </extensions>
      </trkpt>
      <trkpt lat="37.7569589205086231231689453125" lon="-107.71180923096835613250732421875">
        <ele>3629.199951171875</ele>
        <time>2023-07-29T13:51:40.000Z</time>
        <extensions>
          <ns3:TrackPointExtension>
            <ns3:hr>119</ns3:hr>
            <ns3:cad>0</ns3:cad>
          </ns3:TrackPointExtension>
        </extensions>
      </trkpt>
      <trkpt lat="37.75696118362247943878173828125" lon="-107.7118091471493244171142578125">
        <ele>3629.199951171875</ele>
        <time>2023-07-29T13:51:41.000Z</time>
        <extensions>
          <ns3:TrackPointExtension>
            <ns3:hr>120</ns3:hr>
            <ns3:cad>0</ns3:cad>
          </ns3:TrackPointExtension>
        </extensions>
      </trkpt>
      <trkpt lat="37.7569649554789066314697265625" lon="-107.711804620921611785888671875">
        <ele>3629.199951171875</ele>
        <time>2023-07-29T13:51:42.000Z</time>
        <extensions>
          <ns3:TrackPointExtension>
            <ns3:hr>120</ns3:hr>
            <ns3:cad>0</ns3:cad>
          </ns3:TrackPointExtension>
        </extensions>
      </trkpt>
      <trkpt lat="37.75696587748825550079345703125" lon="-107.7118049561977386474609375">
        <ele>3629.199951171875</ele>
        <time>2023-07-29T13:51:43.000Z</time>
        <extensions>
          <ns3:TrackPointExtension>
            <ns3:hr>121</ns3:hr>
            <ns3:cad>0</ns3:cad>
          </ns3:TrackPointExtension>
        </extensions>
      </trkpt>
      <trkpt lat="37.756971828639507293701171875" lon="-107.7118088118731975555419921875">
        <ele>3629.199951171875</ele>
        <time>2023-07-29T13:51:44.000Z</time>
        <extensions>
          <ns3:TrackPointExtension>
            <ns3:hr>121</ns3:hr>
            <ns3:cad>0</ns3:cad>
          </ns3:TrackPointExtension>
        </extensions>
      </trkpt>
      <trkpt lat="37.75697283446788787841796875" lon="-107.71181526593863964080810546875">
        <ele>3629.199951171875</ele>
        <time>2023-07-29T13:51:45.000Z</time>
        <extensions>
          <ns3:TrackPointExtension>
            <ns3:hr>121</ns3:hr>
            <ns3:cad>0</ns3:cad>
          </ns3:TrackPointExtension>
        </extensions>
      </trkpt>
      <trkpt lat="37.75697643868625164031982421875" lon="-107.711814008653163909912109375">
        <ele>3629.60009765625</ele>
        <time>2023-07-29T13:51:46.000Z</time>
        <extensions>
          <ns3:TrackPointExtension>
            <ns3:hr>121</ns3:hr>
            <ns3:cad>0</ns3:cad>
          </ns3:TrackPointExtension>
        </extensions>
      </trkpt>
      <trkpt lat="37.75697777979075908660888671875" lon="-107.7118138410151004791259765625">
        <ele>3629.60009765625</ele>
        <time>2023-07-29T13:51:47.000Z</time>
        <extensions>
          <ns3:TrackPointExtension>
            <ns3:hr>120</ns3:hr>
            <ns3:cad>0</ns3:cad>
          </ns3:TrackPointExtension>
        </extensions>
      </trkpt>
      <trkpt lat="37.75697945617139339447021484375" lon="-107.7118148468434810638427734375">
        <ele>3629.60009765625</ele>
        <time>2023-07-29T13:51:48.000Z</time>
        <extensions>
          <ns3:TrackPointExtension>
            <ns3:hr>120</ns3:hr>
            <ns3:cad>0</ns3:cad>
          </ns3:TrackPointExtension>
        </extensions>
      </trkpt>
      <trkpt lat="37.75698163546621799468994140625" lon="-107.71181501448154449462890625">
        <ele>3629.60009765625</ele>
        <time>2023-07-29T13:51:49.000Z</time>
        <extensions>
          <ns3:TrackPointExtension>
            <ns3:hr>120</ns3:hr>
            <ns3:cad>0</ns3:cad>
          </ns3:TrackPointExtension>
        </extensions>
      </trkpt>
      <trkpt lat="37.75699035264551639556884765625" lon="-107.71181006915867328643798828125">
        <ele>3629.60009765625</ele>
        <time>2023-07-29T13:51:50.000Z</time>
        <extensions>
          <ns3:TrackPointExtension>
            <ns3:hr>120</ns3:hr>
            <ns3:cad>0</ns3:cad>
          </ns3:TrackPointExtension>
        </extensions>
      </trkpt>
      <trkpt lat="37.7570015005767345428466796875" lon="-107.71180269308388233184814453125">
        <ele>3629.60009765625</ele>
        <time>2023-07-29T13:51:51.000Z</time>
        <extensions>
          <ns3:TrackPointExtension>
            <ns3:hr>120</ns3:hr>
            <ns3:cad>0</ns3:cad>
          </ns3:TrackPointExtension>
        </extensions>
      </trkpt>
      <trkpt lat="37.75700309313833713531494140625" lon="-107.71179950796067714691162109375">
        <ele>3629.60009765625</ele>
        <time>2023-07-29T13:51:52.000Z</time>
        <extensions>
          <ns3:TrackPointExtension>
            <ns3:hr>120</ns3:hr>
            <ns3:cad>0</ns3:cad>
          </ns3:TrackPointExtension>
        </extensions>
      </trkpt>
      <trkpt lat="37.75700426660478115081787109375" lon="-107.71179489791393280029296875">
        <ele>3629.60009765625</ele>
        <time>2023-07-29T13:51:53.000Z</time>
        <extensions>
          <ns3:TrackPointExtension>
            <ns3:hr>120</ns3:hr>
            <ns3:cad>0</ns3:cad>
          </ns3:TrackPointExtension>
        </extensions>
      </trkpt>
      <trkpt lat="37.75700544007122516632080078125" lon="-107.7117907069623470306396484375">
        <ele>3629.60009765625</ele>
        <time>2023-07-29T13:51:54.000Z</time>
        <extensions>
          <ns3:TrackPointExtension>
            <ns3:hr>119</ns3:hr>
            <ns3:cad>0</ns3:cad>
          </ns3:TrackPointExtension>
        </extensions>
      </trkpt>
      <trkpt lat="37.75700979866087436676025390625" lon="-107.71178358234465122222900390625">
        <ele>3629.800048828125</ele>
        <time>2023-07-29T13:51:55.000Z</time>
        <extensions>
          <ns3:TrackPointExtension>
            <ns3:hr>119</ns3:hr>
            <ns3:cad>0</ns3:cad>
          </ns3:TrackPointExtension>
        </extensions>
      </trkpt>
      <trkpt lat="37.75701298378407955169677734375" lon="-107.71178207360208034515380859375">
        <ele>3630</ele>
        <time>2023-07-29T13:51:56.000Z</time>
        <extensions>
          <ns3:TrackPointExtension>
            <ns3:hr>120</ns3:hr>
            <ns3:cad>0</ns3:cad>
          </ns3:TrackPointExtension>
        </extensions>
      </trkpt>
      <trkpt lat="37.75701440870761871337890625" lon="-107.71178391762077808380126953125">
        <ele>3630</ele>
        <time>2023-07-29T13:51:57.000Z</time>
        <extensions>
          <ns3:TrackPointExtension>
            <ns3:hr>120</ns3:hr>
            <ns3:cad>0</ns3:cad>
          </ns3:TrackPointExtension>
        </extensions>
      </trkpt>
      <trkpt lat="37.75701918639242649078369140625" lon="-107.71178307943046092987060546875">
        <ele>3630.199951171875</ele>
        <time>2023-07-29T13:51:58.000Z</time>
        <extensions>
          <ns3:TrackPointExtension>
            <ns3:hr>120</ns3:hr>
            <ns3:cad>0</ns3:cad>
          </ns3:TrackPointExtension>
        </extensions>
      </trkpt>
      <trkpt lat="37.7570226229727268218994140625" lon="-107.711785174906253814697265625">
        <ele>3630.39990234375</ele>
        <time>2023-07-29T13:51:59.000Z</time>
        <extensions>
          <ns3:TrackPointExtension>
            <ns3:hr>119</ns3:hr>
            <ns3:cad>0</ns3:cad>
          </ns3:TrackPointExtension>
        </extensions>
      </trkpt>
      <trkpt lat="37.757026143372058868408203125" lon="-107.71178743802011013031005859375">
        <ele>3630.39990234375</ele>
        <time>2023-07-29T13:52:00.000Z</time>
        <extensions>
          <ns3:TrackPointExtension>
            <ns3:hr>118</ns3:hr>
            <ns3:cad>0</ns3:cad>
          </ns3:TrackPointExtension>
        </extensions>
      </trkpt>
      <trkpt lat="37.75703209452331066131591796875" lon="-107.7117886953055858612060546875">
        <ele>3630.60009765625</ele>
        <time>2023-07-29T13:52:01.000Z</time>
        <extensions>
          <ns3:TrackPointExtension>
            <ns3:hr>118</ns3:hr>
            <ns3:cad>0</ns3:cad>
          </ns3:TrackPointExtension>
        </extensions>
      </trkpt>
      <trkpt lat="37.75703360326588153839111328125" lon="-107.71179095841944217681884765625">
        <ele>3630.800048828125</ele>
        <time>2023-07-29T13:52:02.000Z</time>
        <extensions>
          <ns3:TrackPointExtension>
            <ns3:hr>117</ns3:hr>
            <ns3:cad>0</ns3:cad>
          </ns3:TrackPointExtension>
        </extensions>
      </trkpt>
      <trkpt lat="37.75704399682581424713134765625" lon="-107.71179364062845706939697265625">
        <ele>3630.800048828125</ele>
        <time>2023-07-29T13:52:03.000Z</time>
        <extensions>
          <ns3:TrackPointExtension>
            <ns3:hr>116</ns3:hr>
            <ns3:cad>0</ns3:cad>
          </ns3:TrackPointExtension>
        </extensions>
      </trkpt>
      <trkpt lat="37.75705137290060520172119140625" lon="-107.711796574294567108154296875">
        <ele>3631.39990234375</ele>
        <time>2023-07-29T13:52:04.000Z</time>
        <extensions>
          <ns3:TrackPointExtension>
            <ns3:hr>116</ns3:hr>
            <ns3:cad>0</ns3:cad>
          </ns3:TrackPointExtension>
        </extensions>
      </trkpt>
      <trkpt lat="37.7570558153092861175537109375" lon="-107.711800597608089447021484375">
        <ele>3631.39990234375</ele>
        <time>2023-07-29T13:52:05.000Z</time>
        <extensions>
          <ns3:TrackPointExtension>
            <ns3:hr>116</ns3:hr>
            <ns3:cad>0</ns3:cad>
          </ns3:TrackPointExtension>
        </extensions>
      </trkpt>
      <trkpt lat="37.75706193409860134124755859375" lon="-107.7118047885596752166748046875">
        <ele>3631.60009765625</ele>
        <time>2023-07-29T13:52:06.000Z</time>
        <extensions>
          <ns3:TrackPointExtension>
            <ns3:hr>116</ns3:hr>
            <ns3:cad>0</ns3:cad>
          </ns3:TrackPointExtension>
        </extensions>
      </trkpt>
      <trkpt lat="37.75706402957439422607421875" lon="-107.7118094824254512786865234375">
        <ele>3631.800048828125</ele>
        <time>2023-07-29T13:52:07.000Z</time>
        <extensions>
          <ns3:TrackPointExtension>
            <ns3:hr>116</ns3:hr>
            <ns3:cad>0</ns3:cad>
          </ns3:TrackPointExtension>
        </extensions>
      </trkpt>
      <trkpt lat="37.7570638619363307952880859375" lon="-107.71181191317737102508544921875">
        <ele>3632</ele>
        <time>2023-07-29T13:52:08.000Z</time>
        <extensions>
          <ns3:TrackPointExtension>
            <ns3:hr>116</ns3:hr>
            <ns3:cad>0</ns3:cad>
          </ns3:TrackPointExtension>
        </extensions>
      </trkpt>
      <trkpt lat="37.75706662796437740325927734375" lon="-107.711819708347320556640625">
        <ele>3632.199951171875</ele>
        <time>2023-07-29T13:52:09.000Z</time>
        <extensions>
          <ns3:TrackPointExtension>
            <ns3:hr>116</ns3:hr>
            <ns3:cad>0</ns3:cad>
          </ns3:TrackPointExtension>
        </extensions>
      </trkpt>
      <trkpt lat="37.7570672146975994110107421875" lon="-107.71182230673730373382568359375">
        <ele>3632.60009765625</ele>
        <time>2023-07-29T13:52:10.000Z</time>
        <extensions>
          <ns3:TrackPointExtension>
            <ns3:hr>116</ns3:hr>
            <ns3:cad>0</ns3:cad>
          </ns3:TrackPointExtension>
        </extensions>
      </trkpt>
      <trkpt lat="37.75706528685986995697021484375" lon="-107.71182348020374774932861328125">
        <ele>3632.60009765625</ele>
        <time>2023-07-29T13:52:11.000Z</time>
        <extensions>
          <ns3:TrackPointExtension>
            <ns3:hr>116</ns3:hr>
            <ns3:cad>0</ns3:cad>
          </ns3:TrackPointExtension>
        </extensions>
      </trkpt>
      <trkpt lat="37.75707065127789974212646484375" lon="-107.7118309400975704193115234375">
        <ele>3632.800048828125</ele>
        <time>2023-07-29T13:52:12.000Z</time>
        <extensions>
          <ns3:TrackPointExtension>
            <ns3:hr>117</ns3:hr>
            <ns3:cad>0</ns3:cad>
          </ns3:TrackPointExtension>
        </extensions>
      </trkpt>
      <trkpt lat="37.75707266293466091156005859375" lon="-107.71183823235332965850830078125">
        <ele>3633</ele>
        <time>2023-07-29T13:52:13.000Z</time>
        <extensions>
          <ns3:TrackPointExtension>
            <ns3:hr>118</ns3:hr>
            <ns3:cad>0</ns3:cad>
          </ns3:TrackPointExtension>
        </extensions>
      </trkpt>
      <trkpt lat="37.75707534514367580413818359375" lon="-107.71184124983847141265869140625">
        <ele>3633</ele>
        <time>2023-07-29T13:52:14.000Z</time>
        <extensions>
          <ns3:TrackPointExtension>
            <ns3:hr>118</ns3:hr>
            <ns3:cad>0</ns3:cad>
          </ns3:TrackPointExtension>
        </extensions>
      </trkpt>
      <trkpt lat="37.7570759318768978118896484375" lon="-107.711838819086551666259765625">
        <ele>3633.199951171875</ele>
        <time>2023-07-29T13:52:15.000Z</time>
        <extensions>
          <ns3:TrackPointExtension>
            <ns3:hr>119</ns3:hr>
            <ns3:cad>0</ns3:cad>
          </ns3:TrackPointExtension>
        </extensions>
      </trkpt>
      <trkpt lat="37.75707702152431011199951171875" lon="-107.71183806471526622772216796875">
        <ele>3633.60009765625</ele>
        <time>2023-07-29T13:52:16.000Z</time>
        <extensions>
          <ns3:TrackPointExtension>
            <ns3:hr>120</ns3:hr>
            <ns3:cad>0</ns3:cad>
          </ns3:TrackPointExtension>
        </extensions>
      </trkpt>
      <trkpt lat="37.7570740878582000732421875" lon="-107.7118349634110927581787109375">
        <ele>3633.60009765625</ele>
        <time>2023-07-29T13:52:17.000Z</time>
        <extensions>
          <ns3:TrackPointExtension>
            <ns3:hr>120</ns3:hr>
            <ns3:cad>0</ns3:cad>
          </ns3:TrackPointExtension>
        </extensions>
      </trkpt>
      <trkpt lat="37.7570749260485172271728515625" lon="-107.71182633005082607269287109375">
        <ele>3633.800048828125</ele>
        <time>2023-07-29T13:52:18.000Z</time>
        <extensions>
          <ns3:TrackPointExtension>
            <ns3:hr>120</ns3:hr>
            <ns3:cad>0</ns3:cad>
          </ns3:TrackPointExtension>
        </extensions>
      </trkpt>
      <trkpt lat="37.757071740925312042236328125" lon="-107.71181828342378139495849609375">
        <ele>3634</ele>
        <time>2023-07-29T13:52:19.000Z</time>
        <extensions>
          <ns3:TrackPointExtension>
            <ns3:hr>120</ns3:hr>
            <ns3:cad>0</ns3:cad>
          </ns3:TrackPointExtension>
        </extensions>
      </trkpt>
      <trkpt lat="37.75708146393299102783203125" lon="-107.711814343929290771484375">
        <ele>3634.199951171875</ele>
        <time>2023-07-29T13:52:20.000Z</time>
        <extensions>
          <ns3:TrackPointExtension>
            <ns3:hr>120</ns3:hr>
            <ns3:cad>0</ns3:cad>
          </ns3:TrackPointExtension>
        </extensions>
      </trkpt>
      <trkpt lat="37.7570920251309871673583984375" lon="-107.71181224845349788665771484375">
        <ele>3634.60009765625</ele>
        <time>2023-07-29T13:52:21.000Z</time>
        <extensions>
          <ns3:TrackPointExtension>
            <ns3:hr>120</ns3:hr>
            <ns3:cad>0</ns3:cad>
          </ns3:TrackPointExtension>
        </extensions>
      </trkpt>
      <trkpt lat="37.757099904119968414306640625" lon="-107.7118128351867198944091796875">
        <ele>3634.60009765625</ele>
        <time>2023-07-29T13:52:22.000Z</time>
        <extensions>
          <ns3:TrackPointExtension>
            <ns3:hr>120</ns3:hr>
            <ns3:cad>0</ns3:cad>
          </ns3:TrackPointExtension>
        </extensions>
      </trkpt>
      <trkpt lat="37.7571057714521884918212890625" lon="-107.71181107498705387115478515625">
        <ele>3634.800048828125</ele>
        <time>2023-07-29T13:52:23.000Z</time>
        <extensions>
          <ns3:TrackPointExtension>
            <ns3:hr>120</ns3:hr>
            <ns3:cad>0</ns3:cad>
          </ns3:TrackPointExtension>
        </extensions>
      </trkpt>
      <trkpt lat="37.75711708702147006988525390625" lon="-107.71180939860641956329345703125">
        <ele>3635</ele>
        <time>2023-07-29T13:52:24.000Z</time>
        <extensions>
          <ns3:TrackPointExtension>
            <ns3:hr>120</ns3:hr>
            <ns3:cad>0</ns3:cad>
          </ns3:TrackPointExtension>
        </extensions>
      </trkpt>
      <trkpt lat="37.757127396762371063232421875" lon="-107.711809314787387847900390625">
        <ele>3635.199951171875</ele>
        <time>2023-07-29T13:52:25.000Z</time>
        <extensions>
          <ns3:TrackPointExtension>
            <ns3:hr>120</ns3:hr>
            <ns3:cad>0</ns3:cad>
          </ns3:TrackPointExtension>
        </extensions>
      </trkpt>
      <trkpt lat="37.75712840259075164794921875" lon="-107.71181275136768817901611328125">
        <ele>3635.60009765625</ele>
        <time>2023-07-29T13:52:26.000Z</time>
        <extensions>
          <ns3:TrackPointExtension>
            <ns3:hr>120</ns3:hr>
            <ns3:cad>0</ns3:cad>
          </ns3:TrackPointExtension>
        </extensions>
      </trkpt>
      <trkpt lat="37.75713368318974971771240234375" lon="-107.7118121646344661712646484375">
        <ele>3635.800048828125</ele>
        <time>2023-07-29T13:52:27.000Z</time>
        <extensions>
          <ns3:TrackPointExtension>
            <ns3:hr>120</ns3:hr>
            <ns3:cad>0</ns3:cad>
          </ns3:TrackPointExtension>
        </extensions>
      </trkpt>
      <trkpt lat="37.7571403048932552337646484375" lon="-107.7118128351867198944091796875">
        <ele>3636.199951171875</ele>
        <time>2023-07-29T13:52:28.000Z</time>
        <extensions>
          <ns3:TrackPointExtension>
            <ns3:hr>121</ns3:hr>
            <ns3:cad>0</ns3:cad>
          </ns3:TrackPointExtension>
        </extensions>
      </trkpt>
      <trkpt lat="37.75714407674968242645263671875" lon="-107.7118145115673542022705078125">
        <ele>3636.39990234375</ele>
        <time>2023-07-29T13:52:29.000Z</time>
        <extensions>
          <ns3:TrackPointExtension>
            <ns3:hr>121</ns3:hr>
            <ns3:cad>0</ns3:cad>
          </ns3:TrackPointExtension>
        </extensions>
      </trkpt>
      <trkpt lat="37.7571384608745574951171875" lon="-107.711822055280208587646484375">
        <ele>3636.60009765625</ele>
        <time>2023-07-29T13:52:30.000Z</time>
        <extensions>
          <ns3:TrackPointExtension>
            <ns3:hr>121</ns3:hr>
            <ns3:cad>0</ns3:cad>
          </ns3:TrackPointExtension>
        </extensions>
      </trkpt>
      <trkpt lat="37.757138796150684356689453125" lon="-107.71182364784181118011474609375">
        <ele>3636.800048828125</ele>
        <time>2023-07-29T13:52:31.000Z</time>
        <extensions>
          <ns3:TrackPointExtension>
            <ns3:hr>121</ns3:hr>
            <ns3:cad>0</ns3:cad>
          </ns3:TrackPointExtension>
        </extensions>
      </trkpt>
      <trkpt lat="37.75713837705552577972412109375" lon="-107.7118264138698577880859375">
        <ele>3637</ele>
        <time>2023-07-29T13:52:32.000Z</time>
        <extensions>
          <ns3:TrackPointExtension>
            <ns3:hr>121</ns3:hr>
            <ns3:cad>0</ns3:cad>
          </ns3:TrackPointExtension>
        </extensions>
      </trkpt>
      <trkpt lat="37.75713452138006687164306640625" lon="-107.71182582713663578033447265625">
        <ele>3637</ele>
        <time>2023-07-29T13:52:33.000Z</time>
        <extensions>
          <ns3:TrackPointExtension>
            <ns3:hr>122</ns3:hr>
            <ns3:cad>0</ns3:cad>
          </ns3:TrackPointExtension>
        </extensions>
      </trkpt>
      <trkpt lat="37.7571372874081134796142578125" lon="-107.71182331256568431854248046875">
        <ele>3637.199951171875</ele>
        <time>2023-07-29T13:52:34.000Z</time>
        <extensions>
          <ns3:TrackPointExtension>
            <ns3:hr>122</ns3:hr>
            <ns3:cad>0</ns3:cad>
          </ns3:TrackPointExtension>
        </extensions>
      </trkpt>
      <trkpt lat="37.7571453340351581573486328125" lon="-107.71182498894631862640380859375">
        <ele>3637.199951171875</ele>
        <time>2023-07-29T13:52:35.000Z</time>
        <extensions>
          <ns3:TrackPointExtension>
            <ns3:hr>122</ns3:hr>
            <ns3:cad>0</ns3:cad>
          </ns3:TrackPointExtension>
        </extensions>
      </trkpt>
      <trkpt lat="37.75715388357639312744140625" lon="-107.7118252404034137725830078125">
        <ele>3637.199951171875</ele>
        <time>2023-07-29T13:52:36.000Z</time>
        <extensions>
          <ns3:TrackPointExtension>
            <ns3:hr>122</ns3:hr>
            <ns3:cad>0</ns3:cad>
          </ns3:TrackPointExtension>
        </extensions>
      </trkpt>
      <trkpt lat="37.75716335512697696685791015625" lon="-107.7118205465376377105712890625">
        <ele>3637.199951171875</ele>
        <time>2023-07-29T13:52:37.000Z</time>
        <extensions>
          <ns3:TrackPointExtension>
            <ns3:hr>122</ns3:hr>
            <ns3:cad>0</ns3:cad>
          </ns3:TrackPointExtension>
        </extensions>
      </trkpt>
      <trkpt lat="37.7571664564311504364013671875" lon="-107.71181442774832248687744140625">
        <ele>3637.39990234375</ele>
        <time>2023-07-29T13:52:38.000Z</time>
        <extensions>
          <ns3:TrackPointExtension>
            <ns3:hr>123</ns3:hr>
            <ns3:cad>0</ns3:cad>
          </ns3:TrackPointExtension>
        </extensions>
      </trkpt>
      <trkpt lat="37.75716503150761127471923828125" lon="-107.711809985339641571044921875">
        <ele>3637.60009765625</ele>
        <time>2023-07-29T13:52:39.000Z</time>
        <extensions>
          <ns3:TrackPointExtension>
            <ns3:hr>123</ns3:hr>
            <ns3:cad>0</ns3:cad>
          </ns3:TrackPointExtension>
        </extensions>
      </trkpt>
      <trkpt lat="37.75716050527989864349365234375" lon="-107.71180487237870693206787109375">
        <ele>3637.60009765625</ele>
        <time>2023-07-29T13:52:40.000Z</time>
        <extensions>
          <ns3:TrackPointExtension>
            <ns3:hr>124</ns3:hr>
            <ns3:cad>0</ns3:cad>
          </ns3:TrackPointExtension>
        </extensions>
      </trkpt>
      <trkpt lat="37.75716167874634265899658203125" lon="-107.7117994241416454315185546875">
        <ele>3637.800048828125</ele>
        <time>2023-07-29T13:52:41.000Z</time>
        <extensions>
          <ns3:TrackPointExtension>
            <ns3:hr>124</ns3:hr>
            <ns3:cad>0</ns3:cad>
          </ns3:TrackPointExtension>
        </extensions>
      </trkpt>
      <trkpt lat="37.7571620978415012359619140625" lon="-107.71179833449423313140869140625">
        <ele>3638.199951171875</ele>
        <time>2023-07-29T13:52:42.000Z</time>
        <extensions>
          <ns3:TrackPointExtension>
            <ns3:hr>124</ns3:hr>
            <ns3:cad>0</ns3:cad>
          </ns3:TrackPointExtension>
        </extensions>
      </trkpt>
      <trkpt lat="37.75717173703014850616455078125" lon="-107.711790539324283599853515625">
        <ele>3638.39990234375</ele>
        <time>2023-07-29T13:52:43.000Z</time>
        <extensions>
          <ns3:TrackPointExtension>
            <ns3:hr>124</ns3:hr>
            <ns3:cad>0</ns3:cad>
          </ns3:TrackPointExtension>
        </extensions>
      </trkpt>
      <trkpt lat="37.7571761794388294219970703125" lon="-107.7117880247533321380615234375">
        <ele>3638.39990234375</ele>
        <time>2023-07-29T13:52:44.000Z</time>
        <extensions>
          <ns3:TrackPointExtension>
            <ns3:hr>123</ns3:hr>
            <ns3:cad>0</ns3:cad>
          </ns3:TrackPointExtension>
        </extensions>
      </trkpt>
      <trkpt lat="37.75718565098941326141357421875" lon="-107.71178173832595348358154296875">
        <ele>3638.39990234375</ele>
        <time>2023-07-29T13:52:45.000Z</time>
        <extensions>
          <ns3:TrackPointExtension>
            <ns3:hr>123</ns3:hr>
            <ns3:cad>0</ns3:cad>
          </ns3:TrackPointExtension>
        </extensions>
      </trkpt>
      <trkpt lat="37.75719403289258480072021484375" lon="-107.71177821792662143707275390625">
        <ele>3638.39990234375</ele>
        <time>2023-07-29T13:52:46.000Z</time>
        <extensions>
          <ns3:TrackPointExtension>
            <ns3:hr>122</ns3:hr>
            <ns3:cad>0</ns3:cad>
          </ns3:TrackPointExtension>
        </extensions>
      </trkpt>
      <trkpt lat="37.75720559991896152496337890625" lon="-107.71177100948989391326904296875">
        <ele>3638.60009765625</ele>
        <time>2023-07-29T13:52:47.000Z</time>
        <extensions>
          <ns3:TrackPointExtension>
            <ns3:hr>122</ns3:hr>
            <ns3:cad>0</ns3:cad>
          </ns3:TrackPointExtension>
        </extensions>
      </trkpt>
      <trkpt lat="37.7572167478501796722412109375" lon="-107.7117665670812129974365234375">
        <ele>3638.800048828125</ele>
        <time>2023-07-29T13:52:48.000Z</time>
        <extensions>
          <ns3:TrackPointExtension>
            <ns3:hr>122</ns3:hr>
            <ns3:cad>0</ns3:cad>
          </ns3:TrackPointExtension>
        </extensions>
      </trkpt>
      <trkpt lat="37.75722253136336803436279296875" lon="-107.71176137030124664306640625">
        <ele>3638.800048828125</ele>
        <time>2023-07-29T13:52:49.000Z</time>
        <extensions>
          <ns3:TrackPointExtension>
            <ns3:hr>123</ns3:hr>
            <ns3:cad>0</ns3:cad>
          </ns3:TrackPointExtension>
        </extensions>
      </trkpt>
      <trkpt lat="37.7572291530668735504150390625" lon="-107.71176296286284923553466796875">
        <ele>3639</ele>
        <time>2023-07-29T13:52:50.000Z</time>
        <extensions>
          <ns3:TrackPointExtension>
            <ns3:hr>123</ns3:hr>
            <ns3:cad>0</ns3:cad>
          </ns3:TrackPointExtension>
        </extensions>
      </trkpt>
      <trkpt lat="37.75723141618072986602783203125" lon="-107.7117628790438175201416015625">
        <ele>3639.199951171875</ele>
        <time>2023-07-29T13:52:51.000Z</time>
        <extensions>
          <ns3:TrackPointExtension>
            <ns3:hr>122</ns3:hr>
            <ns3:cad>0</ns3:cad>
          </ns3:TrackPointExtension>
        </extensions>
      </trkpt>
      <trkpt lat="37.75723409838974475860595703125" lon="-107.7117622084915637969970703125">
        <ele>3639.39990234375</ele>
        <time>2023-07-29T13:52:52.000Z</time>
        <extensions>
          <ns3:TrackPointExtension>
            <ns3:hr>122</ns3:hr>
            <ns3:cad>0</ns3:cad>
          </ns3:TrackPointExtension>
        </extensions>
      </trkpt>
      <trkpt lat="37.7572371996939182281494140625" lon="-107.71176128648221492767333984375">
        <ele>3639.39990234375</ele>
        <time>2023-07-29T13:52:53.000Z</time>
        <extensions>
          <ns3:TrackPointExtension>
            <ns3:hr>122</ns3:hr>
            <ns3:cad>0</ns3:cad>
          </ns3:TrackPointExtension>
        </extensions>
      </trkpt>
      <trkpt lat="37.75723569095134735107421875" lon="-107.71176430396735668182373046875">
        <ele>3639.39990234375</ele>
        <time>2023-07-29T13:52:54.000Z</time>
        <extensions>
          <ns3:TrackPointExtension>
            <ns3:hr>122</ns3:hr>
            <ns3:cad>0</ns3:cad>
          </ns3:TrackPointExtension>
        </extensions>
      </trkpt>
      <trkpt lat="37.75723946280777454376220703125" lon="-107.71176195703446865081787109375">
        <ele>3639.39990234375</ele>
        <time>2023-07-29T13:52:55.000Z</time>
        <extensions>
          <ns3:TrackPointExtension>
            <ns3:hr>122</ns3:hr>
            <ns3:cad>0</ns3:cad>
          </ns3:TrackPointExtension>
        </extensions>
      </trkpt>
      <trkpt lat="37.7572489343583583831787109375" lon="-107.711757682263851165771484375">
        <ele>3639.39990234375</ele>
        <time>2023-07-29T13:52:56.000Z</time>
        <extensions>
          <ns3:TrackPointExtension>
            <ns3:hr>122</ns3:hr>
            <ns3:cad>0</ns3:cad>
          </ns3:TrackPointExtension>
        </extensions>
      </trkpt>
      <trkpt lat="37.757256813347339630126953125" lon="-107.7117534913122653961181640625">
        <ele>3639.39990234375</ele>
        <time>2023-07-29T13:52:57.000Z</time>
        <extensions>
          <ns3:TrackPointExtension>
            <ns3:hr>122</ns3:hr>
            <ns3:cad>0</ns3:cad>
          </ns3:TrackPointExtension>
        </extensions>
      </trkpt>
      <trkpt lat="37.7572690509259700775146484375" lon="-107.7117437683045864105224609375">
        <ele>3639.39990234375</ele>
        <time>2023-07-29T13:52:58.000Z</time>
        <extensions>
          <ns3:TrackPointExtension>
            <ns3:hr>122</ns3:hr>
            <ns3:cad>0</ns3:cad>
          </ns3:TrackPointExtension>
        </extensions>
      </trkpt>
      <trkpt lat="37.7572807855904102325439453125" lon="-107.7117370627820491790771484375">
        <ele>3639.199951171875</ele>
        <time>2023-07-29T13:52:59.000Z</time>
        <extensions>
          <ns3:TrackPointExtension>
            <ns3:hr>122</ns3:hr>
            <ns3:cad>0</ns3:cad>
          </ns3:TrackPointExtension>
        </extensions>
      </trkpt>
      <trkpt lat="37.75728271342813968658447265625" lon="-107.71173127926886081695556640625">
        <ele>3639.199951171875</ele>
        <time>2023-07-29T13:53:00.000Z</time>
        <extensions>
          <ns3:TrackPointExtension>
            <ns3:hr>122</ns3:hr>
            <ns3:cad>0</ns3:cad>
          </ns3:TrackPointExtension>
        </extensions>
      </trkpt>
      <trkpt lat="37.7572851441800594329833984375" lon="-107.71172423847019672393798828125">
        <ele>3639.199951171875</ele>
        <time>2023-07-29T13:53:01.000Z</time>
        <extensions>
          <ns3:TrackPointExtension>
            <ns3:hr>122</ns3:hr>
            <ns3:cad>0</ns3:cad>
          </ns3:TrackPointExtension>
        </extensions>
      </trkpt>
      <trkpt lat="37.7572962082922458648681640625" lon="-107.71171300671994686126708984375">
        <ele>3639</ele>
        <time>2023-07-29T13:53:02.000Z</time>
        <extensions>
          <ns3:TrackPointExtension>
            <ns3:hr>122</ns3:hr>
            <ns3:cad>0</ns3:cad>
          </ns3:TrackPointExtension>
        </extensions>
      </trkpt>
      <trkpt lat="37.75729394517838954925537109375" lon="-107.71171040832996368408203125">
        <ele>3639</ele>
        <time>2023-07-29T13:53:03.000Z</time>
        <extensions>
          <ns3:TrackPointExtension>
            <ns3:hr>122</ns3:hr>
            <ns3:cad>0</ns3:cad>
          </ns3:TrackPointExtension>
        </extensions>
      </trkpt>
      <trkpt lat="37.757294364273548126220703125" lon="-107.71170680411159992218017578125">
        <ele>3638.800048828125</ele>
        <time>2023-07-29T13:53:04.000Z</time>
        <extensions>
          <ns3:TrackPointExtension>
            <ns3:hr>122</ns3:hr>
            <ns3:cad>0</ns3:cad>
          </ns3:TrackPointExtension>
        </extensions>
      </trkpt>
      <trkpt lat="37.75729872286319732666015625" lon="-107.71169431507587432861328125">
        <ele>3638.800048828125</ele>
        <time>2023-07-29T13:53:05.000Z</time>
        <extensions>
          <ns3:TrackPointExtension>
            <ns3:hr>121</ns3:hr>
            <ns3:cad>0</ns3:cad>
          </ns3:TrackPointExtension>
        </extensions>
      </trkpt>
      <trkpt lat="37.75730199180543422698974609375" lon="-107.711683921515941619873046875">
        <ele>3638.60009765625</ele>
        <time>2023-07-29T13:53:06.000Z</time>
        <extensions>
          <ns3:TrackPointExtension>
            <ns3:hr>120</ns3:hr>
            <ns3:cad>41</ns3:cad>
          </ns3:TrackPointExtension>
        </extensions>
      </trkpt>
      <trkpt lat="37.757307775318622589111328125" lon="-107.71167017519474029541015625">
        <ele>3638.60009765625</ele>
        <time>2023-07-29T13:53:07.000Z</time>
        <extensions>
          <ns3:TrackPointExtension>
            <ns3:hr>120</ns3:hr>
            <ns3:cad>41</ns3:cad>
          </ns3:TrackPointExtension>
        </extensions>
      </trkpt>
      <trkpt lat="37.7573092840611934661865234375" lon="-107.7116654813289642333984375">
        <ele>3638.60009765625</ele>
        <time>2023-07-29T13:53:08.000Z</time>
        <extensions>
          <ns3:TrackPointExtension>
            <ns3:hr>119</ns3:hr>
            <ns3:cad>0</ns3:cad>
          </ns3:TrackPointExtension>
        </extensions>
      </trkpt>
      <trkpt lat="37.75730785913765430450439453125" lon="-107.7116626314818859100341796875">
        <ele>3638.60009765625</ele>
        <time>2023-07-29T13:53:09.000Z</time>
        <extensions>
          <ns3:TrackPointExtension>
            <ns3:hr>118</ns3:hr>
            <ns3:cad>0</ns3:cad>
          </ns3:TrackPointExtension>
        </extensions>
      </trkpt>
      <trkpt lat="37.75731020607054233551025390625" lon="-107.711658440530300140380859375">
        <ele>3638.39990234375</ele>
        <time>2023-07-29T13:53:10.000Z</time>
        <extensions>
          <ns3:TrackPointExtension>
            <ns3:hr>118</ns3:hr>
            <ns3:cad>0</ns3:cad>
          </ns3:TrackPointExtension>
        </extensions>
      </trkpt>
      <trkpt lat="37.75731372646987438201904296875" lon="-107.71165282465517520904541015625">
        <ele>3638.199951171875</ele>
        <time>2023-07-29T13:53:11.000Z</time>
        <extensions>
          <ns3:TrackPointExtension>
            <ns3:hr>117</ns3:hr>
            <ns3:cad>0</ns3:cad>
          </ns3:TrackPointExtension>
        </extensions>
      </trkpt>
      <trkpt lat="37.757316492497920989990234375" lon="-107.71164762787520885467529296875">
        <ele>3638.199951171875</ele>
        <time>2023-07-29T13:53:12.000Z</time>
        <extensions>
          <ns3:TrackPointExtension>
            <ns3:hr>117</ns3:hr>
            <ns3:cad>0</ns3:cad>
          </ns3:TrackPointExtension>
        </extensions>
      </trkpt>
      <trkpt lat="37.75732420384883880615234375" lon="-107.71163773722946643829345703125">
        <ele>3638.199951171875</ele>
        <time>2023-07-29T13:53:13.000Z</time>
        <extensions>
          <ns3:TrackPointExtension>
            <ns3:hr>116</ns3:hr>
            <ns3:cad>0</ns3:cad>
          </ns3:TrackPointExtension>
        </extensions>
      </trkpt>
      <trkpt lat="37.7573304064571857452392578125" lon="-107.71162927150726318359375">
        <ele>3638</ele>
        <time>2023-07-29T13:53:14.000Z</time>
        <extensions>
          <ns3:TrackPointExtension>
            <ns3:hr>116</ns3:hr>
            <ns3:cad>0</ns3:cad>
          </ns3:TrackPointExtension>
        </extensions>
      </trkpt>
      <trkpt lat="37.75733836926519870758056640625" lon="-107.71161879412829875946044921875">
        <ele>3637.800048828125</ele>
        <time>2023-07-29T13:53:15.000Z</time>
        <extensions>
          <ns3:TrackPointExtension>
            <ns3:hr>115</ns3:hr>
            <ns3:cad>0</ns3:cad>
          </ns3:TrackPointExtension>
        </extensions>
      </trkpt>
      <trkpt lat="37.7573449909687042236328125" lon="-107.71161292679607868194580078125">
        <ele>3637.800048828125</ele>
        <time>2023-07-29T13:53:16.000Z</time>
        <extensions>
          <ns3:TrackPointExtension>
            <ns3:hr>114</ns3:hr>
            <ns3:cad>0</ns3:cad>
          </ns3:TrackPointExtension>
        </extensions>
      </trkpt>
      <trkpt lat="37.7573475055396556854248046875" lon="-107.711610831320285797119140625">
        <ele>3637.800048828125</ele>
        <time>2023-07-29T13:53:17.000Z</time>
        <extensions>
          <ns3:TrackPointExtension>
            <ns3:hr>112</ns3:hr>
            <ns3:cad>0</ns3:cad>
          </ns3:TrackPointExtension>
        </extensions>
      </trkpt>
      <trkpt lat="37.7573532052338123321533203125" lon="-107.71160404197871685028076171875">
        <ele>3637.60009765625</ele>
        <time>2023-07-29T13:53:18.000Z</time>
        <extensions>
          <ns3:TrackPointExtension>
            <ns3:hr>111</ns3:hr>
            <ns3:cad>0</ns3:cad>
          </ns3:TrackPointExtension>
        </extensions>
      </trkpt>
      <trkpt lat="37.75735714472830295562744140625" lon="-107.71160186268389225006103515625">
        <ele>3637.60009765625</ele>
        <time>2023-07-29T13:53:19.000Z</time>
        <extensions>
          <ns3:TrackPointExtension>
            <ns3:hr>111</ns3:hr>
            <ns3:cad>0</ns3:cad>
          </ns3:TrackPointExtension>
        </extensions>
      </trkpt>
      <trkpt lat="37.75735932402312755584716796875" lon="-107.71160018630325794219970703125">
        <ele>3637.60009765625</ele>
        <time>2023-07-29T13:53:20.000Z</time>
        <extensions>
          <ns3:TrackPointExtension>
            <ns3:hr>111</ns3:hr>
            <ns3:cad>0</ns3:cad>
          </ns3:TrackPointExtension>
        </extensions>
      </trkpt>
      <trkpt lat="37.75735848583281040191650390625" lon="-107.7116037905216217041015625">
        <ele>3637.39990234375</ele>
        <time>2023-07-29T13:53:21.000Z</time>
        <extensions>
          <ns3:TrackPointExtension>
            <ns3:hr>110</ns3:hr>
            <ns3:cad>0</ns3:cad>
          </ns3:TrackPointExtension>
        </extensions>
      </trkpt>
      <trkpt lat="37.7573622576892375946044921875" lon="-107.71159918047487735748291015625">
        <ele>3637.39990234375</ele>
        <time>2023-07-29T13:53:22.000Z</time>
        <extensions>
          <ns3:TrackPointExtension>
            <ns3:hr>109</ns3:hr>
            <ns3:cad>0</ns3:cad>
          </ns3:TrackPointExtension>
        </extensions>
      </trkpt>
      <trkpt lat="37.7573713101446628570556640625" lon="-107.7115915529429912567138671875">
        <ele>3637.39990234375</ele>
        <time>2023-07-29T13:53:23.000Z</time>
        <extensions>
          <ns3:TrackPointExtension>
            <ns3:hr>109</ns3:hr>
            <ns3:cad>0</ns3:cad>
          </ns3:TrackPointExtension>
        </extensions>
      </trkpt>
      <trkpt lat="37.75738229043781757354736328125" lon="-107.711582668125629425048828125">
        <ele>3637.39990234375</ele>
        <time>2023-07-29T13:53:24.000Z</time>
        <extensions>
          <ns3:TrackPointExtension>
            <ns3:hr>109</ns3:hr>
            <ns3:cad>0</ns3:cad>
          </ns3:TrackPointExtension>
        </extensions>
      </trkpt>
      <trkpt lat="37.75738882832229137420654296875" lon="-107.71158174611628055572509765625">
        <ele>3637.39990234375</ele>
        <time>2023-07-29T13:53:25.000Z</time>
        <extensions>
          <ns3:TrackPointExtension>
            <ns3:hr>109</ns3:hr>
            <ns3:cad>0</ns3:cad>
          </ns3:TrackPointExtension>
        </extensions>
      </trkpt>
      <trkpt lat="37.75739016942679882049560546875" lon="-107.7115861885249614715576171875">
        <ele>3637.39990234375</ele>
        <time>2023-07-29T13:53:26.000Z</time>
        <extensions>
          <ns3:TrackPointExtension>
            <ns3:hr>109</ns3:hr>
            <ns3:cad>0</ns3:cad>
          </ns3:TrackPointExtension>
        </extensions>
      </trkpt>
      <trkpt lat="37.75739729404449462890625" lon="-107.7115875296294689178466796875">
        <ele>3637.39990234375</ele>
        <time>2023-07-29T13:53:27.000Z</time>
        <extensions>
          <ns3:TrackPointExtension>
            <ns3:hr>108</ns3:hr>
            <ns3:cad>0</ns3:cad>
          </ns3:TrackPointExtension>
        </extensions>
      </trkpt>
      <trkpt lat="37.75740601122379302978515625" lon="-107.71158979274332523345947265625">
        <ele>3637.39990234375</ele>
        <time>2023-07-29T13:53:28.000Z</time>
        <extensions>
          <ns3:TrackPointExtension>
            <ns3:hr>108</ns3:hr>
            <ns3:cad>0</ns3:cad>
          </ns3:TrackPointExtension>
        </extensions>
      </trkpt>
      <trkpt lat="37.75741062127053737640380859375" lon="-107.71159113384783267974853515625">
        <ele>3637.39990234375</ele>
        <time>2023-07-29T13:53:29.000Z</time>
        <extensions>
          <ns3:TrackPointExtension>
            <ns3:hr>108</ns3:hr>
            <ns3:cad>0</ns3:cad>
          </ns3:TrackPointExtension>
        </extensions>
      </trkpt>
      <trkpt lat="37.75741062127053737640380859375" lon="-107.71159348078072071075439453125">
        <ele>3637.39990234375</ele>
        <time>2023-07-29T13:53:30.000Z</time>
        <extensions>
          <ns3:TrackPointExtension>
            <ns3:hr>109</ns3:hr>
            <ns3:cad>0</ns3:cad>
          </ns3:TrackPointExtension>
        </extensions>
      </trkpt>
      <trkpt lat="37.757410369813442230224609375" lon="-107.711594738066196441650390625">
        <ele>3637.39990234375</ele>
        <time>2023-07-29T13:53:31.000Z</time>
        <extensions>
          <ns3:TrackPointExtension>
            <ns3:hr>109</ns3:hr>
            <ns3:cad>0</ns3:cad>
          </ns3:TrackPointExtension>
        </extensions>
      </trkpt>
      <trkpt lat="37.75741296820342540740966796875" lon="-107.711595408618450164794921875">
        <ele>3637.39990234375</ele>
        <time>2023-07-29T13:53:32.000Z</time>
        <extensions>
          <ns3:TrackPointExtension>
            <ns3:hr>109</ns3:hr>
            <ns3:cad>0</ns3:cad>
          </ns3:TrackPointExtension>
        </extensions>
      </trkpt>
      <trkpt lat="37.75741699151694774627685546875" lon="-107.711600102484226226806640625">
        <ele>3637.60009765625</ele>
        <time>2023-07-29T13:53:33.000Z</time>
        <extensions>
          <ns3:TrackPointExtension>
            <ns3:hr>109</ns3:hr>
            <ns3:cad>0</ns3:cad>
          </ns3:TrackPointExtension>
        </extensions>
      </trkpt>
      <trkpt lat="37.7574262954294681549072265625" lon="-107.71160471253097057342529296875">
        <ele>3637.800048828125</ele>
        <time>2023-07-29T13:53:34.000Z</time>
        <extensions>
          <ns3:TrackPointExtension>
            <ns3:hr>108</ns3:hr>
            <ns3:cad>0</ns3:cad>
          </ns3:TrackPointExtension>
        </extensions>
      </trkpt>
      <trkpt lat="37.75743207894265651702880859375" lon="-107.71160672418773174285888671875">
        <ele>3637.800048828125</ele>
        <time>2023-07-29T13:53:35.000Z</time>
        <extensions>
          <ns3:TrackPointExtension>
            <ns3:hr>107</ns3:hr>
            <ns3:cad>0</ns3:cad>
          </ns3:TrackPointExtension>
        </extensions>
      </trkpt>
      <trkpt lat="37.7574376948177814483642578125" lon="-107.7116059698164463043212890625">
        <ele>3638</ele>
        <time>2023-07-29T13:53:36.000Z</time>
        <extensions>
          <ns3:TrackPointExtension>
            <ns3:hr>106</ns3:hr>
            <ns3:cad>0</ns3:cad>
          </ns3:TrackPointExtension>
        </extensions>
      </trkpt>
      <trkpt lat="37.7574427239596843719482421875" lon="-107.71160580217838287353515625">
        <ele>3638.199951171875</ele>
        <time>2023-07-29T13:53:37.000Z</time>
        <extensions>
          <ns3:TrackPointExtension>
            <ns3:hr>104</ns3:hr>
            <ns3:cad>0</ns3:cad>
          </ns3:TrackPointExtension>
        </extensions>
      </trkpt>
      <trkpt lat="37.75744817219674587249755859375" lon="-107.7116037905216217041015625">
        <ele>3638.199951171875</ele>
        <time>2023-07-29T13:53:38.000Z</time>
        <extensions>
          <ns3:TrackPointExtension>
            <ns3:hr>102</ns3:hr>
            <ns3:cad>0</ns3:cad>
          </ns3:TrackPointExtension>
        </extensions>
      </trkpt>
      <trkpt lat="37.757452614605426788330078125" lon="-107.71159985102713108062744140625">
        <ele>3638.39990234375</ele>
        <time>2023-07-29T13:53:39.000Z</time>
        <extensions>
          <ns3:TrackPointExtension>
            <ns3:hr>102</ns3:hr>
            <ns3:cad>0</ns3:cad>
          </ns3:TrackPointExtension>
        </extensions>
      </trkpt>
      <trkpt lat="37.7574651874601840972900390625" lon="-107.7115918882191181182861328125">
        <ele>3638.39990234375</ele>
        <time>2023-07-29T13:53:40.000Z</time>
        <extensions>
          <ns3:TrackPointExtension>
            <ns3:hr>102</ns3:hr>
            <ns3:cad>0</ns3:cad>
          </ns3:TrackPointExtension>
        </extensions>
      </trkpt>
      <trkpt lat="37.7574742399156093597412109375" lon="-107.71158426068723201751708984375">
        <ele>3638.39990234375</ele>
        <time>2023-07-29T13:53:41.000Z</time>
        <extensions>
          <ns3:TrackPointExtension>
            <ns3:hr>102</ns3:hr>
            <ns3:cad>0</ns3:cad>
          </ns3:TrackPointExtension>
        </extensions>
      </trkpt>
      <trkpt lat="37.75748505257070064544677734375" lon="-107.71157856099307537078857421875">
        <ele>3638.60009765625</ele>
        <time>2023-07-29T13:53:42.000Z</time>
        <extensions>
          <ns3:TrackPointExtension>
            <ns3:hr>102</ns3:hr>
            <ns3:cad>0</ns3:cad>
          </ns3:TrackPointExtension>
        </extensions>
      </trkpt>
      <trkpt lat="37.7574920095503330230712890625" lon="-107.7115747891366481781005859375">
        <ele>3638.60009765625</ele>
        <time>2023-07-29T13:53:43.000Z</time>
        <extensions>
          <ns3:TrackPointExtension>
            <ns3:hr>102</ns3:hr>
            <ns3:cad>0</ns3:cad>
          </ns3:TrackPointExtension>
        </extensions>
      </trkpt>
      <trkpt lat="37.75749963708221912384033203125" lon="-107.71157537586987018585205078125">
        <ele>3638.60009765625</ele>
        <time>2023-07-29T13:53:44.000Z</time>
        <extensions>
          <ns3:TrackPointExtension>
            <ns3:hr>102</ns3:hr>
            <ns3:cad>0</ns3:cad>
          </ns3:TrackPointExtension>
        </extensions>
      </trkpt>
      <trkpt lat="37.75750231929123401641845703125" lon="-107.71157495677471160888671875">
        <ele>3638.60009765625</ele>
        <time>2023-07-29T13:53:45.000Z</time>
        <extensions>
          <ns3:TrackPointExtension>
            <ns3:hr>102</ns3:hr>
            <ns3:cad>0</ns3:cad>
          </ns3:TrackPointExtension>
        </extensions>
      </trkpt>
      <trkpt lat="37.75750500150024890899658203125" lon="-107.711575292050838470458984375">
        <ele>3638.800048828125</ele>
        <time>2023-07-29T13:53:46.000Z</time>
        <extensions>
          <ns3:TrackPointExtension>
            <ns3:hr>102</ns3:hr>
            <ns3:cad>0</ns3:cad>
          </ns3:TrackPointExtension>
        </extensions>
      </trkpt>
      <trkpt lat="37.7575114555656909942626953125" lon="-107.7115761302411556243896484375">
        <ele>3638.800048828125</ele>
        <time>2023-07-29T13:53:47.000Z</time>
        <extensions>
          <ns3:TrackPointExtension>
            <ns3:hr>102</ns3:hr>
            <ns3:cad>0</ns3:cad>
          </ns3:TrackPointExtension>
        </extensions>
      </trkpt>
      <trkpt lat="37.75751925073564052581787109375" lon="-107.71157654933631420135498046875">
        <ele>3639.199951171875</ele>
        <time>2023-07-29T13:53:48.000Z</time>
        <extensions>
          <ns3:TrackPointExtension>
            <ns3:hr>102</ns3:hr>
            <ns3:cad>0</ns3:cad>
          </ns3:TrackPointExtension>
        </extensions>
      </trkpt>
      <trkpt lat="37.7575315721333026885986328125" lon="-107.71157537586987018585205078125">
        <ele>3639.199951171875</ele>
        <time>2023-07-29T13:53:49.000Z</time>
        <extensions>
          <ns3:TrackPointExtension>
            <ns3:hr>102</ns3:hr>
            <ns3:cad>0</ns3:cad>
          </ns3:TrackPointExtension>
        </extensions>
      </trkpt>
      <trkpt lat="37.7575382776558399200439453125" lon="-107.71157302893698215484619140625">
        <ele>3639.39990234375</ele>
        <time>2023-07-29T13:53:50.000Z</time>
        <extensions>
          <ns3:TrackPointExtension>
            <ns3:hr>103</ns3:hr>
            <ns3:cad>0</ns3:cad>
          </ns3:TrackPointExtension>
        </extensions>
      </trkpt>
      <trkpt lat="37.75754121132194995880126953125" lon="-107.71157068200409412384033203125">
        <ele>3639.39990234375</ele>
        <time>2023-07-29T13:53:51.000Z</time>
        <extensions>
          <ns3:TrackPointExtension>
            <ns3:hr>104</ns3:hr>
            <ns3:cad>0</ns3:cad>
          </ns3:TrackPointExtension>
        </extensions>
      </trkpt>
      <trkpt lat="37.75754640810191631317138671875" lon="-107.71156850270926952362060546875">
        <ele>3639.39990234375</ele>
        <time>2023-07-29T13:53:52.000Z</time>
        <extensions>
          <ns3:TrackPointExtension>
            <ns3:hr>105</ns3:hr>
            <ns3:cad>0</ns3:cad>
          </ns3:TrackPointExtension>
        </extensions>
      </trkpt>
      <trkpt lat="37.7575486712157726287841796875" lon="-107.71156514994800090789794921875">
        <ele>3639.800048828125</ele>
        <time>2023-07-29T13:53:53.000Z</time>
        <extensions>
          <ns3:TrackPointExtension>
            <ns3:hr>105</ns3:hr>
            <ns3:cad>0</ns3:cad>
          </ns3:TrackPointExtension>
        </extensions>
      </trkpt>
      <trkpt lat="37.75755093432962894439697265625" lon="-107.71156280301511287689208984375">
        <ele>3639.800048828125</ele>
        <time>2023-07-29T13:53:54.000Z</time>
        <extensions>
          <ns3:TrackPointExtension>
            <ns3:hr>105</ns3:hr>
            <ns3:cad>0</ns3:cad>
          </ns3:TrackPointExtension>
        </extensions>
      </trkpt>
      <trkpt lat="37.7575547061860561370849609375" lon="-107.7115627191960811614990234375">
        <ele>3639.800048828125</ele>
        <time>2023-07-29T13:53:55.000Z</time>
        <extensions>
          <ns3:TrackPointExtension>
            <ns3:hr>105</ns3:hr>
            <ns3:cad>0</ns3:cad>
          </ns3:TrackPointExtension>
        </extensions>
      </trkpt>
      <trkpt lat="37.7575594000518321990966796875" lon="-107.71156288683414459228515625">
        <ele>3640.199951171875</ele>
        <time>2023-07-29T13:53:56.000Z</time>
        <extensions>
          <ns3:TrackPointExtension>
            <ns3:hr>106</ns3:hr>
            <ns3:cad>0</ns3:cad>
          </ns3:TrackPointExtension>
        </extensions>
      </trkpt>
      <trkpt lat="37.7575597353279590606689453125" lon="-107.71156422793865203857421875">
        <ele>3640.39990234375</ele>
        <time>2023-07-29T13:53:57.000Z</time>
        <extensions>
          <ns3:TrackPointExtension>
            <ns3:hr>106</ns3:hr>
            <ns3:cad>0</ns3:cad>
          </ns3:TrackPointExtension>
        </extensions>
      </trkpt>
      <trkpt lat="37.757560573518276214599609375" lon="-107.71156699396669864654541015625">
        <ele>3640.60009765625</ele>
        <time>2023-07-29T13:53:58.000Z</time>
        <extensions>
          <ns3:TrackPointExtension>
            <ns3:hr>107</ns3:hr>
            <ns3:cad>0</ns3:cad>
          </ns3:TrackPointExtension>
        </extensions>
      </trkpt>
      <trkpt lat="37.75756266899406909942626953125" lon="-107.71156716160476207733154296875">
        <ele>3640.60009765625</ele>
        <time>2023-07-29T13:53:59.000Z</time>
        <extensions>
          <ns3:TrackPointExtension>
            <ns3:hr>108</ns3:hr>
            <ns3:cad>0</ns3:cad>
          </ns3:TrackPointExtension>
        </extensions>
      </trkpt>
      <trkpt lat="37.75756149552762508392333984375" lon="-107.71157353185117244720458984375">
        <ele>3640.800048828125</ele>
        <time>2023-07-29T13:54:00.000Z</time>
        <extensions>
          <ns3:TrackPointExtension>
            <ns3:hr>108</ns3:hr>
            <ns3:cad>0</ns3:cad>
          </ns3:TrackPointExtension>
        </extensions>
      </trkpt>
      <trkpt lat="37.75756099261343479156494140625" lon="-107.7115742862224578857421875">
        <ele>3640.800048828125</ele>
        <time>2023-07-29T13:54:01.000Z</time>
        <extensions>
          <ns3:TrackPointExtension>
            <ns3:hr>107</ns3:hr>
            <ns3:cad>0</ns3:cad>
          </ns3:TrackPointExtension>
        </extensions>
      </trkpt>
      <trkpt lat="37.75756417773663997650146484375" lon="-107.71157638169825077056884765625">
        <ele>3641.199951171875</ele>
        <time>2023-07-29T13:54:02.000Z</time>
        <extensions>
          <ns3:TrackPointExtension>
            <ns3:hr>107</ns3:hr>
            <ns3:cad>0</ns3:cad>
          </ns3:TrackPointExtension>
        </extensions>
      </trkpt>
      <trkpt lat="37.7575677819550037384033203125" lon="-107.71157856099307537078857421875">
        <ele>3641.39990234375</ele>
        <time>2023-07-29T13:54:03.000Z</time>
        <extensions>
          <ns3:TrackPointExtension>
            <ns3:hr>107</ns3:hr>
            <ns3:cad>0</ns3:cad>
          </ns3:TrackPointExtension>
        </extensions>
      </trkpt>
      <trkpt lat="37.75756954215466976165771484375" lon="-107.71157554350793361663818359375">
        <ele>3641.60009765625</ele>
        <time>2023-07-29T13:54:04.000Z</time>
        <extensions>
          <ns3:TrackPointExtension>
            <ns3:hr>107</ns3:hr>
            <ns3:cad>0</ns3:cad>
          </ns3:TrackPointExtension>
        </extensions>
      </trkpt>
      <trkpt lat="37.75757038034498691558837890625" lon="-107.711573280394077301025390625">
        <ele>3641.60009765625</ele>
        <time>2023-07-29T13:54:05.000Z</time>
        <extensions>
          <ns3:TrackPointExtension>
            <ns3:hr>108</ns3:hr>
            <ns3:cad>0</ns3:cad>
          </ns3:TrackPointExtension>
        </extensions>
      </trkpt>
      <trkpt lat="37.7575761638581752777099609375" lon="-107.71157470531761646270751953125">
        <ele>3641.60009765625</ele>
        <time>2023-07-29T13:54:06.000Z</time>
        <extensions>
          <ns3:TrackPointExtension>
            <ns3:hr>108</ns3:hr>
            <ns3:cad>0</ns3:cad>
          </ns3:TrackPointExtension>
        </extensions>
      </trkpt>
      <trkpt lat="37.75757943280041217803955078125" lon="-107.71157420240342617034912109375">
        <ele>3641.800048828125</ele>
        <time>2023-07-29T13:54:07.000Z</time>
        <extensions>
          <ns3:TrackPointExtension>
            <ns3:hr>109</ns3:hr>
            <ns3:cad>0</ns3:cad>
          </ns3:TrackPointExtension>
        </extensions>
      </trkpt>
      <trkpt lat="37.757586054503917694091796875" lon="-107.7115744538605213165283203125">
        <ele>3642</ele>
        <time>2023-07-29T13:54:08.000Z</time>
        <extensions>
          <ns3:TrackPointExtension>
            <ns3:hr>110</ns3:hr>
            <ns3:cad>0</ns3:cad>
          </ns3:TrackPointExtension>
        </extensions>
      </trkpt>
      <trkpt lat="37.75758848525583744049072265625" lon="-107.71157629787921905517578125">
        <ele>3642.199951171875</ele>
        <time>2023-07-29T13:54:09.000Z</time>
        <extensions>
          <ns3:TrackPointExtension>
            <ns3:hr>110</ns3:hr>
            <ns3:cad>0</ns3:cad>
          </ns3:TrackPointExtension>
        </extensions>
      </trkpt>
      <trkpt lat="37.7575971186161041259765625" lon="-107.7115768007934093475341796875">
        <ele>3642.199951171875</ele>
        <time>2023-07-29T13:54:10.000Z</time>
        <extensions>
          <ns3:TrackPointExtension>
            <ns3:hr>111</ns3:hr>
            <ns3:cad>0</ns3:cad>
          </ns3:TrackPointExtension>
        </extensions>
      </trkpt>
      <trkpt lat="37.75760793127119541168212890625" lon="-107.71157621406018733978271484375">
        <ele>3642.39990234375</ele>
        <time>2023-07-29T13:54:11.000Z</time>
        <extensions>
          <ns3:TrackPointExtension>
            <ns3:hr>112</ns3:hr>
            <ns3:cad>0</ns3:cad>
          </ns3:TrackPointExtension>
        </extensions>
      </trkpt>
      <trkpt lat="37.757619582116603851318359375" lon="-107.71157654933631420135498046875">
        <ele>3642.60009765625</ele>
        <time>2023-07-29T13:54:12.000Z</time>
        <extensions>
          <ns3:TrackPointExtension>
            <ns3:hr>113</ns3:hr>
            <ns3:cad>0</ns3:cad>
          </ns3:TrackPointExtension>
        </extensions>
      </trkpt>
      <trkpt lat="37.75762536562979221343994140625" lon="-107.7115771360695362091064453125">
        <ele>3642.800048828125</ele>
        <time>2023-07-29T13:54:13.000Z</time>
        <extensions>
          <ns3:TrackPointExtension>
            <ns3:hr>113</ns3:hr>
            <ns3:cad>0</ns3:cad>
          </ns3:TrackPointExtension>
        </extensions>
      </trkpt>
      <trkpt lat="37.7576348371803760528564453125" lon="-107.71157721988856792449951171875">
        <ele>3642.800048828125</ele>
        <time>2023-07-29T13:54:14.000Z</time>
        <extensions>
          <ns3:TrackPointExtension>
            <ns3:hr>114</ns3:hr>
            <ns3:cad>0</ns3:cad>
          </ns3:TrackPointExtension>
        </extensions>
      </trkpt>
      <trkpt lat="37.75763810612261295318603515625" lon="-107.71157554350793361663818359375">
        <ele>3643</ele>
        <time>2023-07-29T13:54:15.000Z</time>
        <extensions>
          <ns3:TrackPointExtension>
            <ns3:hr>114</ns3:hr>
            <ns3:cad>65</ns3:cad>
          </ns3:TrackPointExtension>
        </extensions>
      </trkpt>
      <trkpt lat="37.75763894431293010711669921875" lon="-107.71157252602279186248779296875">
        <ele>3643</ele>
        <time>2023-07-29T13:54:16.000Z</time>
        <extensions>
          <ns3:TrackPointExtension>
            <ns3:hr>114</ns3:hr>
            <ns3:cad>65</ns3:cad>
          </ns3:TrackPointExtension>
        </extensions>
      </trkpt>
      <trkpt lat="37.75764112360775470733642578125" lon="-107.71156632341444492340087890625">
        <ele>3643.199951171875</ele>
        <time>2023-07-29T13:54:17.000Z</time>
        <extensions>
          <ns3:TrackPointExtension>
            <ns3:hr>115</ns3:hr>
            <ns3:cad>65</ns3:cad>
          </ns3:TrackPointExtension>
        </extensions>
      </trkpt>
      <trkpt lat="37.75764514692127704620361328125" lon="-107.71156330592930316925048828125">
        <ele>3643.39990234375</ele>
        <time>2023-07-29T13:54:18.000Z</time>
        <extensions>
          <ns3:TrackPointExtension>
            <ns3:hr>115</ns3:hr>
            <ns3:cad>0</ns3:cad>
          </ns3:TrackPointExtension>
        </extensions>
      </trkpt>
      <trkpt lat="37.75765202008187770843505859375" lon="-107.7115620486438274383544921875">
        <ele>3643.60009765625</ele>
        <time>2023-07-29T13:54:19.000Z</time>
        <extensions>
          <ns3:TrackPointExtension>
            <ns3:hr>115</ns3:hr>
            <ns3:cad>0</ns3:cad>
          </ns3:TrackPointExtension>
        </extensions>
      </trkpt>
      <trkpt lat="37.757657468318939208984375" lon="-107.71155727095901966094970703125">
        <ele>3643.60009765625</ele>
        <time>2023-07-29T13:54:20.000Z</time>
        <extensions>
          <ns3:TrackPointExtension>
            <ns3:hr>116</ns3:hr>
            <ns3:cad>0</ns3:cad>
          </ns3:TrackPointExtension>
        </extensions>
      </trkpt>
      <trkpt lat="37.75766844861209392547607421875" lon="-107.711552493274211883544921875">
        <ele>3643.800048828125</ele>
        <time>2023-07-29T13:54:21.000Z</time>
        <extensions>
          <ns3:TrackPointExtension>
            <ns3:hr>116</ns3:hr>
            <ns3:cad>0</ns3:cad>
          </ns3:TrackPointExtension>
        </extensions>
      </trkpt>
      <trkpt lat="37.75767532177269458770751953125" lon="-107.71154838614165782928466796875">
        <ele>3643.800048828125</ele>
        <time>2023-07-29T13:54:22.000Z</time>
        <extensions>
          <ns3:TrackPointExtension>
            <ns3:hr>116</ns3:hr>
            <ns3:cad>0</ns3:cad>
          </ns3:TrackPointExtension>
        </extensions>
      </trkpt>
      <trkpt lat="37.7576824463903903961181640625" lon="-107.7115420997142791748046875">
        <ele>3643.800048828125</ele>
        <time>2023-07-29T13:54:23.000Z</time>
        <extensions>
          <ns3:TrackPointExtension>
            <ns3:hr>117</ns3:hr>
            <ns3:cad>0</ns3:cad>
          </ns3:TrackPointExtension>
        </extensions>
      </trkpt>
      <trkpt lat="37.75769300758838653564453125" lon="-107.7115395851433277130126953125">
        <ele>3644</ele>
        <time>2023-07-29T13:54:24.000Z</time>
        <extensions>
          <ns3:TrackPointExtension>
            <ns3:hr>117</ns3:hr>
            <ns3:cad>0</ns3:cad>
          </ns3:TrackPointExtension>
        </extensions>
      </trkpt>
      <trkpt lat="37.7576988749206066131591796875" lon="-107.7115355618298053741455078125">
        <ele>3644.199951171875</ele>
        <time>2023-07-29T13:54:25.000Z</time>
        <extensions>
          <ns3:TrackPointExtension>
            <ns3:hr>117</ns3:hr>
            <ns3:cad>0</ns3:cad>
          </ns3:TrackPointExtension>
        </extensions>
      </trkpt>
      <trkpt lat="37.7577079273760318756103515625" lon="-107.71153111942112445831298828125">
        <ele>3644.199951171875</ele>
        <time>2023-07-29T13:54:26.000Z</time>
        <extensions>
          <ns3:TrackPointExtension>
            <ns3:hr>117</ns3:hr>
            <ns3:cad>0</ns3:cad>
          </ns3:TrackPointExtension>
        </extensions>
      </trkpt>
      <trkpt lat="37.75770918466150760650634765625" lon="-107.711529023945331573486328125">
        <ele>3644.60009765625</ele>
        <time>2023-07-29T13:54:27.000Z</time>
        <extensions>
          <ns3:TrackPointExtension>
            <ns3:hr>116</ns3:hr>
            <ns3:cad>0</ns3:cad>
          </ns3:TrackPointExtension>
        </extensions>
      </trkpt>
      <trkpt lat="37.75771044194698333740234375" lon="-107.71152659319341182708740234375">
        <ele>3644.800048828125</ele>
        <time>2023-07-29T13:54:28.000Z</time>
        <extensions>
          <ns3:TrackPointExtension>
            <ns3:hr>116</ns3:hr>
            <ns3:cad>0</ns3:cad>
          </ns3:TrackPointExtension>
        </extensions>
      </trkpt>
      <trkpt lat="37.7577142976224422454833984375" lon="-107.71152399480342864990234375">
        <ele>3644.800048828125</ele>
        <time>2023-07-29T13:54:29.000Z</time>
        <extensions>
          <ns3:TrackPointExtension>
            <ns3:hr>116</ns3:hr>
            <ns3:cad>0</ns3:cad>
          </ns3:TrackPointExtension>
        </extensions>
      </trkpt>
      <trkpt lat="37.75771874003112316131591796875" lon="-107.71151997148990631103515625">
        <ele>3645</ele>
        <time>2023-07-29T13:54:30.000Z</time>
        <extensions>
          <ns3:TrackPointExtension>
            <ns3:hr>116</ns3:hr>
            <ns3:cad>0</ns3:cad>
          </ns3:TrackPointExtension>
        </extensions>
      </trkpt>
      <trkpt lat="37.7577260322868824005126953125" lon="-107.71151418797671794891357421875">
        <ele>3645</ele>
        <time>2023-07-29T13:54:31.000Z</time>
        <extensions>
          <ns3:TrackPointExtension>
            <ns3:hr>116</ns3:hr>
            <ns3:cad>0</ns3:cad>
          </ns3:TrackPointExtension>
        </extensions>
      </trkpt>
      <trkpt lat="37.75772930122911930084228515625" lon="-107.7115073986351490020751953125">
        <ele>3645</ele>
        <time>2023-07-29T13:54:32.000Z</time>
        <extensions>
          <ns3:TrackPointExtension>
            <ns3:hr>116</ns3:hr>
            <ns3:cad>0</ns3:cad>
          </ns3:TrackPointExtension>
        </extensions>
      </trkpt>
      <trkpt lat="37.75773265399038791656494140625" lon="-107.71150178276002407073974609375">
        <ele>3645.199951171875</ele>
        <time>2023-07-29T13:54:33.000Z</time>
        <extensions>
          <ns3:TrackPointExtension>
            <ns3:hr>116</ns3:hr>
            <ns3:cad>0</ns3:cad>
          </ns3:TrackPointExtension>
        </extensions>
      </trkpt>
      <trkpt lat="37.75773567147552967071533203125" lon="-107.7114983461797237396240234375">
        <ele>3645.199951171875</ele>
        <time>2023-07-29T13:54:34.000Z</time>
        <extensions>
          <ns3:TrackPointExtension>
            <ns3:hr>117</ns3:hr>
            <ns3:cad>0</ns3:cad>
          </ns3:TrackPointExtension>
        </extensions>
      </trkpt>
      <trkpt lat="37.7577344141900539398193359375" lon="-107.71149742417037487030029296875">
        <ele>3645.199951171875</ele>
        <time>2023-07-29T13:54:35.000Z</time>
        <extensions>
          <ns3:TrackPointExtension>
            <ns3:hr>117</ns3:hr>
            <ns3:cad>0</ns3:cad>
          </ns3:TrackPointExtension>
        </extensions>
      </trkpt>
      <trkpt lat="37.757734246551990509033203125" lon="-107.7114956639707088470458984375">
        <ele>3645.199951171875</ele>
        <time>2023-07-29T13:54:36.000Z</time>
        <extensions>
          <ns3:TrackPointExtension>
            <ns3:hr>117</ns3:hr>
            <ns3:cad>0</ns3:cad>
          </ns3:TrackPointExtension>
        </extensions>
      </trkpt>
      <trkpt lat="37.75773399509489536285400390625" lon="-107.71149273030459880828857421875">
        <ele>3645</ele>
        <time>2023-07-29T13:54:37.000Z</time>
        <extensions>
          <ns3:TrackPointExtension>
            <ns3:hr>117</ns3:hr>
            <ns3:cad>0</ns3:cad>
          </ns3:TrackPointExtension>
        </extensions>
      </trkpt>
      <trkpt lat="37.75773382745683193206787109375" lon="-107.7114936523139476776123046875">
        <ele>3645</ele>
        <time>2023-07-29T13:54:38.000Z</time>
        <extensions>
          <ns3:TrackPointExtension>
            <ns3:hr>117</ns3:hr>
            <ns3:cad>0</ns3:cad>
          </ns3:TrackPointExtension>
        </extensions>
      </trkpt>
      <trkpt lat="37.75773349218070507049560546875" lon="-107.711495496332645416259765625">
        <ele>3644.800048828125</ele>
        <time>2023-07-29T13:54:39.000Z</time>
        <extensions>
          <ns3:TrackPointExtension>
            <ns3:hr>117</ns3:hr>
            <ns3:cad>0</ns3:cad>
          </ns3:TrackPointExtension>
        </extensions>
      </trkpt>
      <trkpt lat="37.75773500092327594757080078125" lon="-107.71149708889424800872802734375">
        <ele>3644.800048828125</ele>
        <time>2023-07-29T13:54:40.000Z</time>
        <extensions>
          <ns3:TrackPointExtension>
            <ns3:hr>117</ns3:hr>
            <ns3:cad>0</ns3:cad>
          </ns3:TrackPointExtension>
        </extensions>
      </trkpt>
      <trkpt lat="37.75773592293262481689453125" lon="-107.7114993520081043243408203125">
        <ele>3644.800048828125</ele>
        <time>2023-07-29T13:54:41.000Z</time>
        <extensions>
          <ns3:TrackPointExtension>
            <ns3:hr>117</ns3:hr>
            <ns3:cad>0</ns3:cad>
          </ns3:TrackPointExtension>
        </extensions>
      </trkpt>
      <trkpt lat="37.7577360905706882476806640625" lon="-107.71150144748389720916748046875">
        <ele>3644.800048828125</ele>
        <time>2023-07-29T13:54:42.000Z</time>
        <extensions>
          <ns3:TrackPointExtension>
            <ns3:hr>117</ns3:hr>
            <ns3:cad>0</ns3:cad>
          </ns3:TrackPointExtension>
        </extensions>
      </trkpt>
      <trkpt lat="37.75773617438971996307373046875" lon="-107.7115023694932460784912109375">
        <ele>3644.800048828125</ele>
        <time>2023-07-29T13:54:43.000Z</time>
        <extensions>
          <ns3:TrackPointExtension>
            <ns3:hr>117</ns3:hr>
            <ns3:cad>0</ns3:cad>
          </ns3:TrackPointExtension>
        </extensions>
      </trkpt>
      <trkpt lat="37.7577350847423076629638671875" lon="-107.711504213511943817138671875">
        <ele>3644.800048828125</ele>
        <time>2023-07-29T13:54:44.000Z</time>
        <extensions>
          <ns3:TrackPointExtension>
            <ns3:hr>116</ns3:hr>
            <ns3:cad>0</ns3:cad>
          </ns3:TrackPointExtension>
        </extensions>
      </trkpt>
      <trkpt lat="37.75773550383746623992919921875" lon="-107.7115057222545146942138671875">
        <ele>3644.800048828125</ele>
        <time>2023-07-29T13:54:45.000Z</time>
        <extensions>
          <ns3:TrackPointExtension>
            <ns3:hr>115</ns3:hr>
            <ns3:cad>0</ns3:cad>
          </ns3:TrackPointExtension>
        </extensions>
      </trkpt>
      <trkpt lat="37.75773365981876850128173828125" lon="-107.71151125431060791015625">
        <ele>3644.800048828125</ele>
        <time>2023-07-29T13:54:46.000Z</time>
        <extensions>
          <ns3:TrackPointExtension>
            <ns3:hr>115</ns3:hr>
            <ns3:cad>0</ns3:cad>
          </ns3:TrackPointExtension>
        </extensions>
      </trkpt>
      <trkpt lat="37.7577324025332927703857421875" lon="-107.71151653490960597991943359375">
        <ele>3644.800048828125</ele>
        <time>2023-07-29T13:54:47.000Z</time>
        <extensions>
          <ns3:TrackPointExtension>
            <ns3:hr>114</ns3:hr>
            <ns3:cad>0</ns3:cad>
          </ns3:TrackPointExtension>
        </extensions>
      </trkpt>
      <trkpt lat="37.7577360905706882476806640625" lon="-107.7115157805383205413818359375">
        <ele>3644.800048828125</ele>
        <time>2023-07-29T13:54:48.000Z</time>
        <extensions>
          <ns3:TrackPointExtension>
            <ns3:hr>114</ns3:hr>
            <ns3:cad>0</ns3:cad>
          </ns3:TrackPointExtension>
        </extensions>
      </trkpt>
      <trkpt lat="37.75774061679840087890625" lon="-107.7115167863667011260986328125">
        <ele>3644.800048828125</ele>
        <time>2023-07-29T13:54:49.000Z</time>
        <extensions>
          <ns3:TrackPointExtension>
            <ns3:hr>114</ns3:hr>
            <ns3:cad>0</ns3:cad>
          </ns3:TrackPointExtension>
        </extensions>
      </trkpt>
      <trkpt lat="37.75774338282644748687744140625" lon="-107.7115177921950817108154296875">
        <ele>3644.800048828125</ele>
        <time>2023-07-29T13:54:50.000Z</time>
        <extensions>
          <ns3:TrackPointExtension>
            <ns3:hr>114</ns3:hr>
            <ns3:cad>0</ns3:cad>
          </ns3:TrackPointExtension>
        </extensions>
      </trkpt>
      <trkpt lat="37.75774388574063777923583984375" lon="-107.71152424626052379608154296875">
        <ele>3644.800048828125</ele>
        <time>2023-07-29T13:54:51.000Z</time>
        <extensions>
          <ns3:TrackPointExtension>
            <ns3:hr>113</ns3:hr>
            <ns3:cad>0</ns3:cad>
          </ns3:TrackPointExtension>
        </extensions>
      </trkpt>
      <trkpt lat="37.75774539448320865631103515625" lon="-107.71152944304049015045166015625">
        <ele>3644.800048828125</ele>
        <time>2023-07-29T13:54:52.000Z</time>
        <extensions>
          <ns3:TrackPointExtension>
            <ns3:hr>113</ns3:hr>
            <ns3:cad>0</ns3:cad>
          </ns3:TrackPointExtension>
        </extensions>
      </trkpt>
      <trkpt lat="37.75774891488254070281982421875" lon="-107.71153212524950504302978515625">
        <ele>3644.800048828125</ele>
        <time>2023-07-29T13:54:53.000Z</time>
        <extensions>
          <ns3:TrackPointExtension>
            <ns3:hr>112</ns3:hr>
            <ns3:cad>0</ns3:cad>
          </ns3:TrackPointExtension>
        </extensions>
      </trkpt>
      <trkpt lat="37.75775243528187274932861328125" lon="-107.7115367352962493896484375">
        <ele>3644.800048828125</ele>
        <time>2023-07-29T13:54:54.000Z</time>
        <extensions>
          <ns3:TrackPointExtension>
            <ns3:hr>111</ns3:hr>
            <ns3:cad>0</ns3:cad>
          </ns3:TrackPointExtension>
        </extensions>
      </trkpt>
      <trkpt lat="37.7577518485486507415771484375" lon="-107.711539082229137420654296875">
        <ele>3644.60009765625</ele>
        <time>2023-07-29T13:54:55.000Z</time>
        <extensions>
          <ns3:TrackPointExtension>
            <ns3:hr>110</ns3:hr>
            <ns3:cad>0</ns3:cad>
          </ns3:TrackPointExtension>
        </extensions>
      </trkpt>
      <trkpt lat="37.75775277055799961090087890625" lon="-107.71154352463781833648681640625">
        <ele>3644.60009765625</ele>
        <time>2023-07-29T13:54:56.000Z</time>
        <extensions>
          <ns3:TrackPointExtension>
            <ns3:hr>109</ns3:hr>
            <ns3:cad>0</ns3:cad>
          </ns3:TrackPointExtension>
        </extensions>
      </trkpt>
      <trkpt lat="37.7577528543770313262939453125" lon="-107.71154654212296009063720703125">
        <ele>3644.60009765625</ele>
        <time>2023-07-29T13:54:57.000Z</time>
        <extensions>
          <ns3:TrackPointExtension>
            <ns3:hr>108</ns3:hr>
            <ns3:cad>0</ns3:cad>
          </ns3:TrackPointExtension>
        </extensions>
      </trkpt>
      <trkpt lat="37.7577526867389678955078125" lon="-107.71154738031327724456787109375">
        <ele>3644.60009765625</ele>
        <time>2023-07-29T13:54:58.000Z</time>
        <extensions>
          <ns3:TrackPointExtension>
            <ns3:hr>108</ns3:hr>
            <ns3:cad>0</ns3:cad>
          </ns3:TrackPointExtension>
        </extensions>
      </trkpt>
      <trkpt lat="37.7577535249292850494384765625" lon="-107.7115496434271335601806640625">
        <ele>3644.60009765625</ele>
        <time>2023-07-29T13:54:59.000Z</time>
        <extensions>
          <ns3:TrackPointExtension>
            <ns3:hr>108</ns3:hr>
            <ns3:cad>0</ns3:cad>
          </ns3:TrackPointExtension>
        </extensions>
      </trkpt>
      <trkpt lat="37.75775210000574588775634765625" lon="-107.711549811065196990966796875">
        <ele>3644.60009765625</ele>
        <time>2023-07-29T13:55:00.000Z</time>
        <extensions>
          <ns3:TrackPointExtension>
            <ns3:hr>108</ns3:hr>
            <ns3:cad>0</ns3:cad>
          </ns3:TrackPointExtension>
        </extensions>
      </trkpt>
      <trkpt lat="37.75774975307285785675048828125" lon="-107.7115479670464992523193359375">
        <ele>3644.60009765625</ele>
        <time>2023-07-29T13:55:01.000Z</time>
        <extensions>
          <ns3:TrackPointExtension>
            <ns3:hr>107</ns3:hr>
            <ns3:cad>0</ns3:cad>
          </ns3:TrackPointExtension>
        </extensions>
      </trkpt>
      <trkpt lat="37.7577481605112552642822265625" lon="-107.7115456201136112213134765625">
        <ele>3644.60009765625</ele>
        <time>2023-07-29T13:55:02.000Z</time>
        <extensions>
          <ns3:TrackPointExtension>
            <ns3:hr>107</ns3:hr>
            <ns3:cad>0</ns3:cad>
          </ns3:TrackPointExtension>
        </extensions>
      </trkpt>
      <trkpt lat="37.75774723850190639495849609375" lon="-107.71154285408556461334228515625">
        <ele>3644.60009765625</ele>
        <time>2023-07-29T13:55:03.000Z</time>
        <extensions>
          <ns3:TrackPointExtension>
            <ns3:hr>106</ns3:hr>
            <ns3:cad>0</ns3:cad>
          </ns3:TrackPointExtension>
        </extensions>
      </trkpt>
      <trkpt lat="37.7577454783022403717041015625" lon="-107.71154142916202545166015625">
        <ele>3644.60009765625</ele>
        <time>2023-07-29T13:55:04.000Z</time>
        <extensions>
          <ns3:TrackPointExtension>
            <ns3:hr>106</ns3:hr>
            <ns3:cad>0</ns3:cad>
          </ns3:TrackPointExtension>
        </extensions>
      </trkpt>
      <trkpt lat="37.7577431313693523406982421875" lon="-107.7115365676581859588623046875">
        <ele>3644.60009765625</ele>
        <time>2023-07-29T13:55:05.000Z</time>
        <extensions>
          <ns3:TrackPointExtension>
            <ns3:hr>105</ns3:hr>
            <ns3:cad>0</ns3:cad>
          </ns3:TrackPointExtension>
        </extensions>
      </trkpt>
      <trkpt lat="37.7577414549887180328369140625" lon="-107.71153095178306102752685546875">
        <ele>3644.60009765625</ele>
        <time>2023-07-29T13:55:06.000Z</time>
        <extensions>
          <ns3:TrackPointExtension>
            <ns3:hr>104</ns3:hr>
            <ns3:cad>0</ns3:cad>
          </ns3:TrackPointExtension>
        </extensions>
      </trkpt>
      <trkpt lat="37.757739610970020294189453125" lon="-107.711525000631809234619140625">
        <ele>3644.60009765625</ele>
        <time>2023-07-29T13:55:07.000Z</time>
        <extensions>
          <ns3:TrackPointExtension>
            <ns3:hr>103</ns3:hr>
            <ns3:cad>0</ns3:cad>
          </ns3:TrackPointExtension>
        </extensions>
      </trkpt>
      <trkpt lat="37.75774036534130573272705078125" lon="-107.71152273751795291900634765625">
        <ele>3644.60009765625</ele>
        <time>2023-07-29T13:55:08.000Z</time>
        <extensions>
          <ns3:TrackPointExtension>
            <ns3:hr>102</ns3:hr>
            <ns3:cad>0</ns3:cad>
          </ns3:TrackPointExtension>
        </extensions>
      </trkpt>
      <trkpt lat="37.7577419579029083251953125" lon="-107.7115201391279697418212890625">
        <ele>3644.60009765625</ele>
        <time>2023-07-29T13:55:09.000Z</time>
        <extensions>
          <ns3:TrackPointExtension>
            <ns3:hr>100</ns3:hr>
            <ns3:cad>0</ns3:cad>
          </ns3:TrackPointExtension>
        </extensions>
      </trkpt>
      <trkpt lat="37.7577438019216060638427734375" lon="-107.71151821129024028778076171875">
        <ele>3644.60009765625</ele>
        <time>2023-07-29T13:55:10.000Z</time>
        <extensions>
          <ns3:TrackPointExtension>
            <ns3:hr>101</ns3:hr>
            <ns3:cad>0</ns3:cad>
          </ns3:TrackPointExtension>
        </extensions>
      </trkpt>
      <trkpt lat="37.75774799287319183349609375" lon="-107.7115161158144474029541015625">
        <ele>3644.60009765625</ele>
        <time>2023-07-29T13:55:11.000Z</time>
        <extensions>
          <ns3:TrackPointExtension>
            <ns3:hr>101</ns3:hr>
            <ns3:cad>0</ns3:cad>
          </ns3:TrackPointExtension>
        </extensions>
      </trkpt>
      <trkpt lat="37.757753692567348480224609375" lon="-107.71151619963347911834716796875">
        <ele>3644.60009765625</ele>
        <time>2023-07-29T13:55:12.000Z</time>
        <extensions>
          <ns3:TrackPointExtension>
            <ns3:hr>101</ns3:hr>
            <ns3:cad>0</ns3:cad>
          </ns3:TrackPointExtension>
        </extensions>
      </trkpt>
      <trkpt lat="37.75775863789021968841552734375" lon="-107.71151636727154254913330078125">
        <ele>3644.60009765625</ele>
        <time>2023-07-29T13:55:13.000Z</time>
        <extensions>
          <ns3:TrackPointExtension>
            <ns3:hr>99</ns3:hr>
            <ns3:cad>0</ns3:cad>
          </ns3:TrackPointExtension>
        </extensions>
      </trkpt>
      <trkpt lat="37.7577649243175983428955078125" lon="-107.71151351742446422576904296875">
        <ele>3644.60009765625</ele>
        <time>2023-07-29T13:55:14.000Z</time>
        <extensions>
          <ns3:TrackPointExtension>
            <ns3:hr>96</ns3:hr>
            <ns3:cad>0</ns3:cad>
          </ns3:TrackPointExtension>
        </extensions>
      </trkpt>
      <trkpt lat="37.757769785821437835693359375" lon="-107.71151284687221050262451171875">
        <ele>3644.60009765625</ele>
        <time>2023-07-29T13:55:15.000Z</time>
        <extensions>
          <ns3:TrackPointExtension>
            <ns3:hr>92</ns3:hr>
            <ns3:cad>0</ns3:cad>
          </ns3:TrackPointExtension>
        </extensions>
      </trkpt>
      <trkpt lat="37.75777422823011875152587890625" lon="-107.71151100285351276397705078125">
        <ele>3644.60009765625</ele>
        <time>2023-07-29T13:55:16.000Z</time>
        <extensions>
          <ns3:TrackPointExtension>
            <ns3:hr>91</ns3:hr>
            <ns3:cad>0</ns3:cad>
          </ns3:TrackPointExtension>
        </extensions>
      </trkpt>
      <trkpt lat="37.7577723003923892974853515625" lon="-107.71151184104382991790771484375">
        <ele>3644.60009765625</ele>
        <time>2023-07-29T13:55:17.000Z</time>
        <extensions>
          <ns3:TrackPointExtension>
            <ns3:hr>89</ns3:hr>
            <ns3:cad>0</ns3:cad>
          </ns3:TrackPointExtension>
        </extensions>
      </trkpt>
      <trkpt lat="37.75776752270758152008056640625" lon="-107.711511589586734771728515625">
        <ele>3644.60009765625</ele>
        <time>2023-07-29T13:55:18.000Z</time>
        <extensions>
          <ns3:TrackPointExtension>
            <ns3:hr>89</ns3:hr>
            <ns3:cad>0</ns3:cad>
          </ns3:TrackPointExtension>
        </extensions>
      </trkpt>
      <trkpt lat="37.7577635832130908966064453125" lon="-107.71151502616703510284423828125">
        <ele>3644.60009765625</ele>
        <time>2023-07-29T13:55:19.000Z</time>
        <extensions>
          <ns3:TrackPointExtension>
            <ns3:hr>89</ns3:hr>
            <ns3:cad>0</ns3:cad>
          </ns3:TrackPointExtension>
        </extensions>
      </trkpt>
      <trkpt lat="37.75776383467018604278564453125" lon="-107.7115152776241302490234375">
        <ele>3644.60009765625</ele>
        <time>2023-07-29T13:55:20.000Z</time>
        <extensions>
          <ns3:TrackPointExtension>
            <ns3:hr>89</ns3:hr>
            <ns3:cad>0</ns3:cad>
          </ns3:TrackPointExtension>
        </extensions>
      </trkpt>
      <trkpt lat="37.75776500813663005828857421875" lon="-107.71151326596736907958984375">
        <ele>3644.60009765625</ele>
        <time>2023-07-29T13:55:21.000Z</time>
        <extensions>
          <ns3:TrackPointExtension>
            <ns3:hr>88</ns3:hr>
            <ns3:cad>0</ns3:cad>
          </ns3:TrackPointExtension>
        </extensions>
      </trkpt>
      <trkpt lat="37.75776903145015239715576171875" lon="-107.71151326596736907958984375">
        <ele>3644.39990234375</ele>
        <time>2023-07-29T13:55:22.000Z</time>
        <extensions>
          <ns3:TrackPointExtension>
            <ns3:hr>88</ns3:hr>
            <ns3:cad>0</ns3:cad>
          </ns3:TrackPointExtension>
        </extensions>
      </trkpt>
      <trkpt lat="37.75777213275432586669921875" lon="-107.71150932647287845611572265625">
        <ele>3644.39990234375</ele>
        <time>2023-07-29T13:55:23.000Z</time>
        <extensions>
          <ns3:TrackPointExtension>
            <ns3:hr>88</ns3:hr>
            <ns3:cad>0</ns3:cad>
          </ns3:TrackPointExtension>
        </extensions>
      </trkpt>
      <trkpt lat="37.75776869617402553558349609375" lon="-107.7115045487880706787109375">
        <ele>3644.199951171875</ele>
        <time>2023-07-29T13:55:24.000Z</time>
        <extensions>
          <ns3:TrackPointExtension>
            <ns3:hr>88</ns3:hr>
            <ns3:cad>0</ns3:cad>
          </ns3:TrackPointExtension>
        </extensions>
      </trkpt>
      <trkpt lat="37.757770121097564697265625" lon="-107.71150161512196063995361328125">
        <ele>3644.199951171875</ele>
        <time>2023-07-29T13:55:25.000Z</time>
        <extensions>
          <ns3:TrackPointExtension>
            <ns3:hr>88</ns3:hr>
            <ns3:cad>0</ns3:cad>
          </ns3:TrackPointExtension>
        </extensions>
      </trkpt>
      <trkpt lat="37.75777590461075305938720703125" lon="-107.7114956639707088470458984375">
        <ele>3644.199951171875</ele>
        <time>2023-07-29T13:55:26.000Z</time>
        <extensions>
          <ns3:TrackPointExtension>
            <ns3:hr>88</ns3:hr>
            <ns3:cad>0</ns3:cad>
          </ns3:TrackPointExtension>
        </extensions>
      </trkpt>
      <trkpt lat="37.7577860467135906219482421875" lon="-107.71149155683815479278564453125">
        <ele>3644</ele>
        <time>2023-07-29T13:55:27.000Z</time>
        <extensions>
          <ns3:TrackPointExtension>
            <ns3:hr>87</ns3:hr>
            <ns3:cad>79</ns3:cad>
          </ns3:TrackPointExtension>
        </extensions>
      </trkpt>
      <trkpt lat="37.7577981166541576385498046875" lon="-107.711485438048839569091796875">
        <ele>3644</ele>
        <time>2023-07-29T13:55:28.000Z</time>
        <extensions>
          <ns3:TrackPointExtension>
            <ns3:hr>86</ns3:hr>
            <ns3:cad>79</ns3:cad>
          </ns3:TrackPointExtension>
        </extensions>
      </trkpt>
      <trkpt lat="37.75781211443245410919189453125" lon="-107.7114775590598583221435546875">
        <ele>3644</ele>
        <time>2023-07-29T13:55:29.000Z</time>
        <extensions>
          <ns3:TrackPointExtension>
            <ns3:hr>83</ns3:hr>
            <ns3:cad>0</ns3:cad>
          </ns3:TrackPointExtension>
        </extensions>
      </trkpt>
      <trkpt lat="37.75782108306884765625" lon="-107.71147328428924083709716796875">
        <ele>3644</ele>
        <time>2023-07-29T13:55:30.000Z</time>
        <extensions>
          <ns3:TrackPointExtension>
            <ns3:hr>82</ns3:hr>
            <ns3:cad>0</ns3:cad>
          </ns3:TrackPointExtension>
        </extensions>
      </trkpt>
      <trkpt lat="37.757823430001735687255859375" lon="-107.71147437393665313720703125">
        <ele>3644</ele>
        <time>2023-07-29T13:55:31.000Z</time>
        <extensions>
          <ns3:TrackPointExtension>
            <ns3:hr>81</ns3:hr>
            <ns3:cad>0</ns3:cad>
          </ns3:TrackPointExtension>
        </extensions>
      </trkpt>
      <trkpt lat="37.757828123867511749267578125" lon="-107.71147211082279682159423828125">
        <ele>3643.800048828125</ele>
        <time>2023-07-29T13:55:32.000Z</time>
        <extensions>
          <ns3:TrackPointExtension>
            <ns3:hr>81</ns3:hr>
            <ns3:cad>0</ns3:cad>
          </ns3:TrackPointExtension>
        </extensions>
      </trkpt>
      <trkpt lat="37.757831476628780364990234375" lon="-107.7114715240895748138427734375">
        <ele>3643.39990234375</ele>
        <time>2023-07-29T13:55:33.000Z</time>
        <extensions>
          <ns3:TrackPointExtension>
            <ns3:hr>81</ns3:hr>
            <ns3:cad>0</ns3:cad>
          </ns3:TrackPointExtension>
        </extensions>
      </trkpt>
      <trkpt lat="37.75784631259739398956298828125" lon="-107.7114651538431644439697265625">
        <ele>3643.199951171875</ele>
        <time>2023-07-29T13:55:34.000Z</time>
        <extensions>
          <ns3:TrackPointExtension>
            <ns3:hr>80</ns3:hr>
            <ns3:cad>51</ns3:cad>
          </ns3:TrackPointExtension>
        </extensions>
      </trkpt>
      <trkpt lat="37.75786441750824451446533203125" lon="-107.7114574424922466278076171875">
        <ele>3643</ele>
        <time>2023-07-29T13:55:35.000Z</time>
        <extensions>
          <ns3:TrackPointExtension>
            <ns3:hr>80</ns3:hr>
            <ns3:cad>51</ns3:cad>
          </ns3:TrackPointExtension>
        </extensions>
      </trkpt>
      <trkpt lat="37.757880426943302154541015625" lon="-107.711448557674884796142578125">
        <ele>3642.800048828125</ele>
        <time>2023-07-29T13:55:36.000Z</time>
        <extensions>
          <ns3:TrackPointExtension>
            <ns3:hr>80</ns3:hr>
            <ns3:cad>51</ns3:cad>
          </ns3:TrackPointExtension>
        </extensions>
      </trkpt>
      <trkpt lat="37.7578960172832012176513671875" lon="-107.7114376612007617950439453125">
        <ele>3642.60009765625</ele>
        <time>2023-07-29T13:55:37.000Z</time>
        <extensions>
          <ns3:TrackPointExtension>
            <ns3:hr>80</ns3:hr>
            <ns3:cad>52</ns3:cad>
          </ns3:TrackPointExtension>
        </extensions>
      </trkpt>
      <trkpt lat="37.7579084224998950958251953125" lon="-107.7114267647266387939453125">
        <ele>3642.60009765625</ele>
        <time>2023-07-29T13:55:38.000Z</time>
        <extensions>
          <ns3:TrackPointExtension>
            <ns3:hr>81</ns3:hr>
            <ns3:cad>52</ns3:cad>
          </ns3:TrackPointExtension>
        </extensions>
      </trkpt>
      <trkpt lat="37.7579218335449695587158203125" lon="-107.71141712553799152374267578125">
        <ele>3642.60009765625</ele>
        <time>2023-07-29T13:55:39.000Z</time>
        <extensions>
          <ns3:TrackPointExtension>
            <ns3:hr>80</ns3:hr>
            <ns3:cad>54</ns3:cad>
          </ns3:TrackPointExtension>
        </extensions>
      </trkpt>
      <trkpt lat="37.7579288743436336517333984375" lon="-107.71141192875802516937255859375">
        <ele>3642.60009765625</ele>
        <time>2023-07-29T13:55:40.000Z</time>
        <extensions>
          <ns3:TrackPointExtension>
            <ns3:hr>80</ns3:hr>
            <ns3:cad>54</ns3:cad>
          </ns3:TrackPointExtension>
        </extensions>
      </trkpt>
      <trkpt lat="37.75794203393161296844482421875" lon="-107.7114041335880756378173828125">
        <ele>3642.60009765625</ele>
        <time>2023-07-29T13:55:41.000Z</time>
        <extensions>
          <ns3:TrackPointExtension>
            <ns3:hr>80</ns3:hr>
            <ns3:cad>54</ns3:cad>
          </ns3:TrackPointExtension>
        </extensions>
      </trkpt>
      <trkpt lat="37.7579469792544841766357421875" lon="-107.71140086464583873748779296875">
        <ele>3642.60009765625</ele>
        <time>2023-07-29T13:55:42.000Z</time>
        <extensions>
          <ns3:TrackPointExtension>
            <ns3:hr>80</ns3:hr>
            <ns3:cad>0</ns3:cad>
          </ns3:TrackPointExtension>
        </extensions>
      </trkpt>
      <trkpt lat="37.75795343331992626190185546875" lon="-107.7114001102745532989501953125">
        <ele>3642.60009765625</ele>
        <time>2023-07-29T13:55:43.000Z</time>
        <extensions>
          <ns3:TrackPointExtension>
            <ns3:hr>80</ns3:hr>
            <ns3:cad>0</ns3:cad>
          </ns3:TrackPointExtension>
        </extensions>
      </trkpt>
      <trkpt lat="37.75795980356633663177490234375" lon="-107.71140086464583873748779296875">
        <ele>3642.60009765625</ele>
        <time>2023-07-29T13:55:44.000Z</time>
        <extensions>
          <ns3:TrackPointExtension>
            <ns3:hr>80</ns3:hr>
            <ns3:cad>0</ns3:cad>
          </ns3:TrackPointExtension>
        </extensions>
      </trkpt>
      <trkpt lat="37.7579672634601593017578125" lon="-107.7114007808268070220947265625">
        <ele>3642.60009765625</ele>
        <time>2023-07-29T13:55:45.000Z</time>
        <extensions>
          <ns3:TrackPointExtension>
            <ns3:hr>80</ns3:hr>
            <ns3:cad>0</ns3:cad>
          </ns3:TrackPointExtension>
        </extensions>
      </trkpt>
      <trkpt lat="37.75797656737267971038818359375" lon="-107.71140036173164844512939453125">
        <ele>3642.60009765625</ele>
        <time>2023-07-29T13:55:46.000Z</time>
        <extensions>
          <ns3:TrackPointExtension>
            <ns3:hr>80</ns3:hr>
            <ns3:cad>0</ns3:cad>
          </ns3:TrackPointExtension>
        </extensions>
      </trkpt>
      <trkpt lat="37.75798763148486614227294921875" lon="-107.71140329539775848388671875">
        <ele>3642.60009765625</ele>
        <time>2023-07-29T13:55:47.000Z</time>
        <extensions>
          <ns3:TrackPointExtension>
            <ns3:hr>79</ns3:hr>
            <ns3:cad>0</ns3:cad>
          </ns3:TrackPointExtension>
        </extensions>
      </trkpt>
      <trkpt lat="37.7580009587109088897705078125" lon="-107.71140505559742450714111328125">
        <ele>3642.60009765625</ele>
        <time>2023-07-29T13:55:48.000Z</time>
        <extensions>
          <ns3:TrackPointExtension>
            <ns3:hr>78</ns3:hr>
            <ns3:cad>0</ns3:cad>
          </ns3:TrackPointExtension>
        </extensions>
      </trkpt>
      <trkpt lat="37.75800908915698528289794921875" lon="-107.7114053070545196533203125">
        <ele>3642.39990234375</ele>
        <time>2023-07-29T13:55:49.000Z</time>
        <extensions>
          <ns3:TrackPointExtension>
            <ns3:hr>77</ns3:hr>
            <ns3:cad>0</ns3:cad>
          </ns3:TrackPointExtension>
        </extensions>
      </trkpt>
      <trkpt lat="37.75801361538469791412353515625" lon="-107.7114071510732173919677734375">
        <ele>3642.39990234375</ele>
        <time>2023-07-29T13:55:50.000Z</time>
        <extensions>
          <ns3:TrackPointExtension>
            <ns3:hr>77</ns3:hr>
            <ns3:cad>0</ns3:cad>
          </ns3:TrackPointExtension>
        </extensions>
      </trkpt>
      <trkpt lat="37.758023925125598907470703125" lon="-107.7114068157970905303955078125">
        <ele>3642.199951171875</ele>
        <time>2023-07-29T13:55:51.000Z</time>
        <extensions>
          <ns3:TrackPointExtension>
            <ns3:hr>77</ns3:hr>
            <ns3:cad>0</ns3:cad>
          </ns3:TrackPointExtension>
        </extensions>
      </trkpt>
      <trkpt lat="37.7580297924578189849853515625" lon="-107.71140874363481998443603515625">
        <ele>3642.199951171875</ele>
        <time>2023-07-29T13:55:52.000Z</time>
        <extensions>
          <ns3:TrackPointExtension>
            <ns3:hr>76</ns3:hr>
            <ns3:cad>0</ns3:cad>
          </ns3:TrackPointExtension>
        </extensions>
      </trkpt>
      <trkpt lat="37.7580338157713413238525390625" lon="-107.71140924654901027679443359375">
        <ele>3642.199951171875</ele>
        <time>2023-07-29T13:55:53.000Z</time>
        <extensions>
          <ns3:TrackPointExtension>
            <ns3:hr>76</ns3:hr>
            <ns3:cad>0</ns3:cad>
          </ns3:TrackPointExtension>
        </extensions>
      </trkpt>
      <trkpt lat="37.75804580189287662506103515625" lon="-107.7114133536815643310546875">
        <ele>3642</ele>
        <time>2023-07-29T13:55:54.000Z</time>
        <extensions>
          <ns3:TrackPointExtension>
            <ns3:hr>76</ns3:hr>
            <ns3:cad>0</ns3:cad>
          </ns3:TrackPointExtension>
        </extensions>
      </trkpt>
      <trkpt lat="37.75806005112826824188232421875" lon="-107.71141477860510349273681640625">
        <ele>3641.60009765625</ele>
        <time>2023-07-29T13:55:55.000Z</time>
        <extensions>
          <ns3:TrackPointExtension>
            <ns3:hr>75</ns3:hr>
            <ns3:cad>0</ns3:cad>
          </ns3:TrackPointExtension>
        </extensions>
      </trkpt>
      <trkpt lat="37.75806642137467861175537109375" lon="-107.71141142584383487701416015625">
        <ele>3641.39990234375</ele>
        <time>2023-07-29T13:55:56.000Z</time>
        <extensions>
          <ns3:TrackPointExtension>
            <ns3:hr>75</ns3:hr>
            <ns3:cad>0</ns3:cad>
          </ns3:TrackPointExtension>
        </extensions>
      </trkpt>
      <trkpt lat="37.758068181574344635009765625" lon="-107.7114024572074413299560546875">
        <ele>3641.39990234375</ele>
        <time>2023-07-29T13:55:57.000Z</time>
        <extensions>
          <ns3:TrackPointExtension>
            <ns3:hr>75</ns3:hr>
            <ns3:cad>0</ns3:cad>
          </ns3:TrackPointExtension>
        </extensions>
      </trkpt>
      <trkpt lat="37.75806893594563007354736328125" lon="-107.7113913930952548980712890625">
        <ele>3641.39990234375</ele>
        <time>2023-07-29T13:55:58.000Z</time>
        <extensions>
          <ns3:TrackPointExtension>
            <ns3:hr>75</ns3:hr>
            <ns3:cad>0</ns3:cad>
          </ns3:TrackPointExtension>
        </extensions>
      </trkpt>
      <trkpt lat="37.758075892925262451171875" lon="-107.71138141863048076629638671875">
        <ele>3641.39990234375</ele>
        <time>2023-07-29T13:55:59.000Z</time>
        <extensions>
          <ns3:TrackPointExtension>
            <ns3:hr>75</ns3:hr>
            <ns3:cad>0</ns3:cad>
          </ns3:TrackPointExtension>
        </extensions>
      </trkpt>
      <trkpt lat="37.75808452628552913665771484375" lon="-107.711374126374721527099609375">
        <ele>3641.39990234375</ele>
        <time>2023-07-29T13:56:00.000Z</time>
        <extensions>
          <ns3:TrackPointExtension>
            <ns3:hr>75</ns3:hr>
            <ns3:cad>0</ns3:cad>
          </ns3:TrackPointExtension>
        </extensions>
      </trkpt>
      <trkpt lat="37.75809542275965213775634765625" lon="-107.7113692648708820343017578125">
        <ele>3641.60009765625</ele>
        <time>2023-07-29T13:56:01.000Z</time>
        <extensions>
          <ns3:TrackPointExtension>
            <ns3:hr>75</ns3:hr>
            <ns3:cad>0</ns3:cad>
          </ns3:TrackPointExtension>
        </extensions>
      </trkpt>
      <trkpt lat="37.758098356425762176513671875" lon="-107.711366750299930572509765625">
        <ele>3641.800048828125</ele>
        <time>2023-07-29T13:56:02.000Z</time>
        <extensions>
          <ns3:TrackPointExtension>
            <ns3:hr>76</ns3:hr>
            <ns3:cad>0</ns3:cad>
          </ns3:TrackPointExtension>
        </extensions>
      </trkpt>
      <trkpt lat="37.7581059001386165618896484375" lon="-107.71136297844350337982177734375">
        <ele>3641.800048828125</ele>
        <time>2023-07-29T13:56:03.000Z</time>
        <extensions>
          <ns3:TrackPointExtension>
            <ns3:hr>77</ns3:hr>
            <ns3:cad>0</ns3:cad>
          </ns3:TrackPointExtension>
        </extensions>
      </trkpt>
      <trkpt lat="37.75811520405113697052001953125" lon="-107.71135577000677585601806640625">
        <ele>3641.800048828125</ele>
        <time>2023-07-29T13:56:04.000Z</time>
        <extensions>
          <ns3:TrackPointExtension>
            <ns3:hr>78</ns3:hr>
            <ns3:cad>0</ns3:cad>
          </ns3:TrackPointExtension>
        </extensions>
      </trkpt>
      <trkpt lat="37.7581236697733402252197265625" lon="-107.71135325543582439422607421875">
        <ele>3642</ele>
        <time>2023-07-29T13:56:05.000Z</time>
        <extensions>
          <ns3:TrackPointExtension>
            <ns3:hr>78</ns3:hr>
            <ns3:cad>0</ns3:cad>
          </ns3:TrackPointExtension>
        </extensions>
      </trkpt>
      <trkpt lat="37.758129201829433441162109375" lon="-107.71135493181645870208740234375">
        <ele>3642.199951171875</ele>
        <time>2023-07-29T13:56:06.000Z</time>
        <extensions>
          <ns3:TrackPointExtension>
            <ns3:hr>79</ns3:hr>
            <ns3:cad>0</ns3:cad>
          </ns3:TrackPointExtension>
        </extensions>
      </trkpt>
      <trkpt lat="37.75813733227550983428955078125" lon="-107.71135442890226840972900390625">
        <ele>3642.199951171875</ele>
        <time>2023-07-29T13:56:07.000Z</time>
        <extensions>
          <ns3:TrackPointExtension>
            <ns3:hr>79</ns3:hr>
            <ns3:cad>0</ns3:cad>
          </ns3:TrackPointExtension>
        </extensions>
      </trkpt>
      <trkpt lat="37.75814898312091827392578125" lon="-107.71135845221579074859619140625">
        <ele>3642.39990234375</ele>
        <time>2023-07-29T13:56:08.000Z</time>
        <extensions>
          <ns3:TrackPointExtension>
            <ns3:hr>79</ns3:hr>
            <ns3:cad>0</ns3:cad>
          </ns3:TrackPointExtension>
        </extensions>
      </trkpt>
      <trkpt lat="37.75815962813794612884521484375" lon="-107.71136046387255191802978515625">
        <ele>3642.60009765625</ele>
        <time>2023-07-29T13:56:09.000Z</time>
        <extensions>
          <ns3:TrackPointExtension>
            <ns3:hr>79</ns3:hr>
            <ns3:cad>0</ns3:cad>
          </ns3:TrackPointExtension>
        </extensions>
      </trkpt>
      <trkpt lat="37.75817270390689373016357421875" lon="-107.7113628946244716644287109375">
        <ele>3642.60009765625</ele>
        <time>2023-07-29T13:56:10.000Z</time>
        <extensions>
          <ns3:TrackPointExtension>
            <ns3:hr>79</ns3:hr>
            <ns3:cad>0</ns3:cad>
          </ns3:TrackPointExtension>
        </extensions>
      </trkpt>
      <trkpt lat="37.75818049907684326171875" lon="-107.71136666648089885711669921875">
        <ele>3642.60009765625</ele>
        <time>2023-07-29T13:56:11.000Z</time>
        <extensions>
          <ns3:TrackPointExtension>
            <ns3:hr>79</ns3:hr>
            <ns3:cad>0</ns3:cad>
          </ns3:TrackPointExtension>
        </extensions>
      </trkpt>
      <trkpt lat="37.7581954188644886016845703125" lon="-107.71137320436537265777587890625">
        <ele>3642.800048828125</ele>
        <time>2023-07-29T13:56:12.000Z</time>
        <extensions>
          <ns3:TrackPointExtension>
            <ns3:hr>80</ns3:hr>
            <ns3:cad>0</ns3:cad>
          </ns3:TrackPointExtension>
        </extensions>
      </trkpt>
      <trkpt lat="37.75820530951023101806640625" lon="-107.711375467479228973388671875">
        <ele>3642.800048828125</ele>
        <time>2023-07-29T13:56:13.000Z</time>
        <extensions>
          <ns3:TrackPointExtension>
            <ns3:hr>81</ns3:hr>
            <ns3:cad>0</ns3:cad>
          </ns3:TrackPointExtension>
        </extensions>
      </trkpt>
      <trkpt lat="37.7582195587456226348876953125" lon="-107.71137421019375324249267578125">
        <ele>3643</ele>
        <time>2023-07-29T13:56:14.000Z</time>
        <extensions>
          <ns3:TrackPointExtension>
            <ns3:hr>82</ns3:hr>
            <ns3:cad>0</ns3:cad>
          </ns3:TrackPointExtension>
        </extensions>
      </trkpt>
      <trkpt lat="37.75823053903877735137939453125" lon="-107.71137052215635776519775390625">
        <ele>3643.199951171875</ele>
        <time>2023-07-29T13:56:15.000Z</time>
        <extensions>
          <ns3:TrackPointExtension>
            <ns3:hr>85</ns3:hr>
            <ns3:cad>0</ns3:cad>
          </ns3:TrackPointExtension>
        </extensions>
      </trkpt>
      <trkpt lat="37.758241184055805206298828125" lon="-107.71136515773832798004150390625">
        <ele>3643.39990234375</ele>
        <time>2023-07-29T13:56:16.000Z</time>
        <extensions>
          <ns3:TrackPointExtension>
            <ns3:hr>88</ns3:hr>
            <ns3:cad>0</ns3:cad>
          </ns3:TrackPointExtension>
        </extensions>
      </trkpt>
      <trkpt lat="37.7582488954067230224609375" lon="-107.711358703672885894775390625">
        <ele>3643.60009765625</ele>
        <time>2023-07-29T13:56:17.000Z</time>
        <extensions>
          <ns3:TrackPointExtension>
            <ns3:hr>93</ns3:hr>
            <ns3:cad>0</ns3:cad>
          </ns3:TrackPointExtension>
        </extensions>
      </trkpt>
      <trkpt lat="37.75825384072959423065185546875" lon="-107.7113488130271434783935546875">
        <ele>3643.60009765625</ele>
        <time>2023-07-29T13:56:18.000Z</time>
        <extensions>
          <ns3:TrackPointExtension>
            <ns3:hr>94</ns3:hr>
            <ns3:cad>0</ns3:cad>
          </ns3:TrackPointExtension>
        </extensions>
      </trkpt>
      <trkpt lat="37.7582634799182415008544921875" lon="-107.71134017966687679290771484375">
        <ele>3643.60009765625</ele>
        <time>2023-07-29T13:56:19.000Z</time>
        <extensions>
          <ns3:TrackPointExtension>
            <ns3:hr>94</ns3:hr>
            <ns3:cad>0</ns3:cad>
          </ns3:TrackPointExtension>
        </extensions>
      </trkpt>
      <trkpt lat="37.75826842524111270904541015625" lon="-107.7113337256014347076416015625">
        <ele>3643.60009765625</ele>
        <time>2023-07-29T13:56:20.000Z</time>
        <extensions>
          <ns3:TrackPointExtension>
            <ns3:hr>94</ns3:hr>
            <ns3:cad>0</ns3:cad>
          </ns3:TrackPointExtension>
        </extensions>
      </trkpt>
      <trkpt lat="37.7582725323736667633056640625" lon="-107.7113302052021026611328125">
        <ele>3643.60009765625</ele>
        <time>2023-07-29T13:56:21.000Z</time>
        <extensions>
          <ns3:TrackPointExtension>
            <ns3:hr>94</ns3:hr>
            <ns3:cad>0</ns3:cad>
          </ns3:TrackPointExtension>
        </extensions>
      </trkpt>
      <trkpt lat="37.75827638804912567138671875" lon="-107.7113303728401660919189453125">
        <ele>3643.60009765625</ele>
        <time>2023-07-29T13:56:22.000Z</time>
        <extensions>
          <ns3:TrackPointExtension>
            <ns3:hr>94</ns3:hr>
            <ns3:cad>0</ns3:cad>
          </ns3:TrackPointExtension>
        </extensions>
      </trkpt>
      <trkpt lat="37.75828485377132892608642578125" lon="-107.711329869925975799560546875">
        <ele>3643.60009765625</ele>
        <time>2023-07-29T13:56:23.000Z</time>
        <extensions>
          <ns3:TrackPointExtension>
            <ns3:hr>94</ns3:hr>
            <ns3:cad>0</ns3:cad>
          </ns3:TrackPointExtension>
        </extensions>
      </trkpt>
      <trkpt lat="37.75829155929386615753173828125" lon="-107.711331211030483245849609375">
        <ele>3643.60009765625</ele>
        <time>2023-07-29T13:56:24.000Z</time>
        <extensions>
          <ns3:TrackPointExtension>
            <ns3:hr>94</ns3:hr>
            <ns3:cad>0</ns3:cad>
          </ns3:TrackPointExtension>
        </extensions>
      </trkpt>
      <trkpt lat="37.75829658843576908111572265625" lon="-107.71133347414433956146240234375">
        <ele>3643.60009765625</ele>
        <time>2023-07-29T13:56:25.000Z</time>
        <extensions>
          <ns3:TrackPointExtension>
            <ns3:hr>95</ns3:hr>
            <ns3:cad>0</ns3:cad>
          </ns3:TrackPointExtension>
        </extensions>
      </trkpt>
      <trkpt lat="37.75830580852925777435302734375" lon="-107.71133397705852985382080078125">
        <ele>3643.39990234375</ele>
        <time>2023-07-29T13:56:26.000Z</time>
        <extensions>
          <ns3:TrackPointExtension>
            <ns3:hr>95</ns3:hr>
            <ns3:cad>0</ns3:cad>
          </ns3:TrackPointExtension>
        </extensions>
      </trkpt>
      <trkpt lat="37.75831351988017559051513671875" lon="-107.711333893239498138427734375">
        <ele>3643.39990234375</ele>
        <time>2023-07-29T13:56:27.000Z</time>
        <extensions>
          <ns3:TrackPointExtension>
            <ns3:hr>94</ns3:hr>
            <ns3:cad>0</ns3:cad>
          </ns3:TrackPointExtension>
        </extensions>
      </trkpt>
      <trkpt lat="37.758320309221744537353515625" lon="-107.7113327197730541229248046875">
        <ele>3643.199951171875</ele>
        <time>2023-07-29T13:56:28.000Z</time>
        <extensions>
          <ns3:TrackPointExtension>
            <ns3:hr>94</ns3:hr>
            <ns3:cad>0</ns3:cad>
          </ns3:TrackPointExtension>
        </extensions>
      </trkpt>
      <trkpt lat="37.75832735002040863037109375" lon="-107.7113250084221363067626953125">
        <ele>3642.800048828125</ele>
        <time>2023-07-29T13:56:29.000Z</time>
        <extensions>
          <ns3:TrackPointExtension>
            <ns3:hr>94</ns3:hr>
            <ns3:cad>0</ns3:cad>
          </ns3:TrackPointExtension>
        </extensions>
      </trkpt>
      <trkpt lat="37.75833179242908954620361328125" lon="-107.71132123656570911407470703125">
        <ele>3642.800048828125</ele>
        <time>2023-07-29T13:56:30.000Z</time>
        <extensions>
          <ns3:TrackPointExtension>
            <ns3:hr>94</ns3:hr>
            <ns3:cad>0</ns3:cad>
          </ns3:TrackPointExtension>
        </extensions>
      </trkpt>
      <trkpt lat="37.75833833031356334686279296875" lon="-107.71131184883415699005126953125">
        <ele>3642.60009765625</ele>
        <time>2023-07-29T13:56:31.000Z</time>
        <extensions>
          <ns3:TrackPointExtension>
            <ns3:hr>93</ns3:hr>
            <ns3:cad>0</ns3:cad>
          </ns3:TrackPointExtension>
        </extensions>
      </trkpt>
      <trkpt lat="37.75834403000771999359130859375" lon="-107.71130430512130260467529296875">
        <ele>3642.39990234375</ele>
        <time>2023-07-29T13:56:32.000Z</time>
        <extensions>
          <ns3:TrackPointExtension>
            <ns3:hr>93</ns3:hr>
            <ns3:cad>0</ns3:cad>
          </ns3:TrackPointExtension>
        </extensions>
      </trkpt>
      <trkpt lat="37.7583472989499568939208984375" lon="-107.71129877306520938873291015625">
        <ele>3642.199951171875</ele>
        <time>2023-07-29T13:56:33.000Z</time>
        <extensions>
          <ns3:TrackPointExtension>
            <ns3:hr>93</ns3:hr>
            <ns3:cad>0</ns3:cad>
          </ns3:TrackPointExtension>
        </extensions>
      </trkpt>
      <trkpt lat="37.758349142968654632568359375" lon="-107.71129466593265533447265625">
        <ele>3642</ele>
        <time>2023-07-29T13:56:34.000Z</time>
        <extensions>
          <ns3:TrackPointExtension>
            <ns3:hr>93</ns3:hr>
            <ns3:cad>0</ns3:cad>
          </ns3:TrackPointExtension>
        </extensions>
      </trkpt>
      <trkpt lat="37.75835073553025722503662109375" lon="-107.71128905005753040313720703125">
        <ele>3641.800048828125</ele>
        <time>2023-07-29T13:56:35.000Z</time>
        <extensions>
          <ns3:TrackPointExtension>
            <ns3:hr>94</ns3:hr>
            <ns3:cad>0</ns3:cad>
          </ns3:TrackPointExtension>
        </extensions>
      </trkpt>
      <trkpt lat="37.75835056789219379425048828125" lon="-107.71128594875335693359375">
        <ele>3641.800048828125</ele>
        <time>2023-07-29T13:56:36.000Z</time>
        <extensions>
          <ns3:TrackPointExtension>
            <ns3:hr>95</ns3:hr>
            <ns3:cad>0</ns3:cad>
          </ns3:TrackPointExtension>
        </extensions>
      </trkpt>
      <trkpt lat="37.75835207663476467132568359375" lon="-107.71128133870661258697509765625">
        <ele>3641.60009765625</ele>
        <time>2023-07-29T13:56:37.000Z</time>
        <extensions>
          <ns3:TrackPointExtension>
            <ns3:hr>95</ns3:hr>
            <ns3:cad>0</ns3:cad>
          </ns3:TrackPointExtension>
        </extensions>
      </trkpt>
      <trkpt lat="37.758357524871826171875" lon="-107.7112685143947601318359375">
        <ele>3641.39990234375</ele>
        <time>2023-07-29T13:56:38.000Z</time>
        <extensions>
          <ns3:TrackPointExtension>
            <ns3:hr>95</ns3:hr>
            <ns3:cad>0</ns3:cad>
          </ns3:TrackPointExtension>
        </extensions>
      </trkpt>
      <trkpt lat="37.75835660286247730255126953125" lon="-107.71126650273799896240234375">
        <ele>3641.199951171875</ele>
        <time>2023-07-29T13:56:39.000Z</time>
        <extensions>
          <ns3:TrackPointExtension>
            <ns3:hr>96</ns3:hr>
            <ns3:cad>0</ns3:cad>
          </ns3:TrackPointExtension>
        </extensions>
      </trkpt>
      <trkpt lat="37.758353166282176971435546875" lon="-107.71126004867255687713623046875">
        <ele>3641</ele>
        <time>2023-07-29T13:56:40.000Z</time>
        <extensions>
          <ns3:TrackPointExtension>
            <ns3:hr>96</ns3:hr>
            <ns3:cad>0</ns3:cad>
          </ns3:TrackPointExtension>
        </extensions>
      </trkpt>
      <trkpt lat="37.75835073553025722503662109375" lon="-107.71125309169292449951171875">
        <ele>3641</ele>
        <time>2023-07-29T13:56:41.000Z</time>
        <extensions>
          <ns3:TrackPointExtension>
            <ns3:hr>96</ns3:hr>
            <ns3:cad>0</ns3:cad>
          </ns3:TrackPointExtension>
        </extensions>
      </trkpt>
      <trkpt lat="37.75834738276898860931396484375" lon="-107.711254768073558807373046875">
        <ele>3640.800048828125</ele>
        <time>2023-07-29T13:56:42.000Z</time>
        <extensions>
          <ns3:TrackPointExtension>
            <ns3:hr>96</ns3:hr>
            <ns3:cad>0</ns3:cad>
          </ns3:TrackPointExtension>
        </extensions>
      </trkpt>
      <trkpt lat="37.75833833031356334686279296875" lon="-107.71126113831996917724609375">
        <ele>3640.800048828125</ele>
        <time>2023-07-29T13:56:43.000Z</time>
        <extensions>
          <ns3:TrackPointExtension>
            <ns3:hr>95</ns3:hr>
            <ns3:cad>0</ns3:cad>
          </ns3:TrackPointExtension>
        </extensions>
      </trkpt>
      <trkpt lat="37.75833405554294586181640625" lon="-107.71126859821379184722900390625">
        <ele>3640.800048828125</ele>
        <time>2023-07-29T13:56:44.000Z</time>
        <extensions>
          <ns3:TrackPointExtension>
            <ns3:hr>95</ns3:hr>
            <ns3:cad>0</ns3:cad>
          </ns3:TrackPointExtension>
        </extensions>
      </trkpt>
      <trkpt lat="37.7583266794681549072265625" lon="-107.71126926876604557037353515625">
        <ele>3640.800048828125</ele>
        <time>2023-07-29T13:56:45.000Z</time>
        <extensions>
          <ns3:TrackPointExtension>
            <ns3:hr>95</ns3:hr>
            <ns3:cad>0</ns3:cad>
          </ns3:TrackPointExtension>
        </extensions>
      </trkpt>
      <trkpt lat="37.758326344192028045654296875" lon="-107.71127128042280673980712890625">
        <ele>3640.60009765625</ele>
        <time>2023-07-29T13:56:46.000Z</time>
        <extensions>
          <ns3:TrackPointExtension>
            <ns3:hr>95</ns3:hr>
            <ns3:cad>0</ns3:cad>
          </ns3:TrackPointExtension>
        </extensions>
      </trkpt>
      <trkpt lat="37.7583218179643154144287109375" lon="-107.71127060987055301666259765625">
        <ele>3640.60009765625</ele>
        <time>2023-07-29T13:56:47.000Z</time>
        <extensions>
          <ns3:TrackPointExtension>
            <ns3:hr>94</ns3:hr>
            <ns3:cad>0</ns3:cad>
          </ns3:TrackPointExtension>
        </extensions>
      </trkpt>
      <trkpt lat="37.7583194710314273834228515625" lon="-107.71127320826053619384765625">
        <ele>3640.60009765625</ele>
        <time>2023-07-29T13:56:48.000Z</time>
        <extensions>
          <ns3:TrackPointExtension>
            <ns3:hr>94</ns3:hr>
            <ns3:cad>0</ns3:cad>
          </ns3:TrackPointExtension>
        </extensions>
      </trkpt>
      <trkpt lat="37.7583253383636474609375" lon="-107.71127211861312389373779296875">
        <ele>3640.60009765625</ele>
        <time>2023-07-29T13:56:49.000Z</time>
        <extensions>
          <ns3:TrackPointExtension>
            <ns3:hr>90</ns3:hr>
            <ns3:cad>0</ns3:cad>
          </ns3:TrackPointExtension>
        </extensions>
      </trkpt>
      <trkpt lat="37.75833464227616786956787109375" lon="-107.71126893348991870880126953125">
        <ele>3640.60009765625</ele>
        <time>2023-07-29T13:56:50.000Z</time>
        <extensions>
          <ns3:TrackPointExtension>
            <ns3:hr>88</ns3:hr>
            <ns3:cad>0</ns3:cad>
          </ns3:TrackPointExtension>
        </extensions>
      </trkpt>
      <trkpt lat="37.758345790207386016845703125" lon="-107.71126189269125461578369140625">
        <ele>3640.60009765625</ele>
        <time>2023-07-29T13:56:51.000Z</time>
        <extensions>
          <ns3:TrackPointExtension>
            <ns3:hr>87</ns3:hr>
            <ns3:cad>0</ns3:cad>
          </ns3:TrackPointExtension>
        </extensions>
      </trkpt>
      <trkpt lat="37.75835526175796985626220703125" lon="-107.71125317551195621490478515625">
        <ele>3640.60009765625</ele>
        <time>2023-07-29T13:56:52.000Z</time>
        <extensions>
          <ns3:TrackPointExtension>
            <ns3:hr>86</ns3:hr>
            <ns3:cad>0</ns3:cad>
          </ns3:TrackPointExtension>
        </extensions>
      </trkpt>
      <trkpt lat="37.75836397893726825714111328125" lon="-107.71124546416103839874267578125">
        <ele>3640.60009765625</ele>
        <time>2023-07-29T13:56:53.000Z</time>
        <extensions>
          <ns3:TrackPointExtension>
            <ns3:hr>85</ns3:hr>
            <ns3:cad>0</ns3:cad>
          </ns3:TrackPointExtension>
        </extensions>
      </trkpt>
      <trkpt lat="37.7583677507936954498291015625" lon="-107.7112438715994358062744140625">
        <ele>3640.60009765625</ele>
        <time>2023-07-29T13:56:54.000Z</time>
        <extensions>
          <ns3:TrackPointExtension>
            <ns3:hr>84</ns3:hr>
            <ns3:cad>0</ns3:cad>
          </ns3:TrackPointExtension>
        </extensions>
      </trkpt>
      <trkpt lat="37.75836716406047344207763671875" lon="-107.71124043501913547515869140625">
        <ele>3640.60009765625</ele>
        <time>2023-07-29T13:56:55.000Z</time>
        <extensions>
          <ns3:TrackPointExtension>
            <ns3:hr>84</ns3:hr>
            <ns3:cad>0</ns3:cad>
          </ns3:TrackPointExtension>
        </extensions>
      </trkpt>
      <trkpt lat="37.75836867280304431915283203125" lon="-107.7112371660768985748291015625">
        <ele>3640.800048828125</ele>
        <time>2023-07-29T13:56:56.000Z</time>
        <extensions>
          <ns3:TrackPointExtension>
            <ns3:hr>83</ns3:hr>
            <ns3:cad>0</ns3:cad>
          </ns3:TrackPointExtension>
        </extensions>
      </trkpt>
      <trkpt lat="37.75836733169853687286376953125" lon="-107.7112363278865814208984375">
        <ele>3640.800048828125</ele>
        <time>2023-07-29T13:56:57.000Z</time>
        <extensions>
          <ns3:TrackPointExtension>
            <ns3:hr>83</ns3:hr>
            <ns3:cad>0</ns3:cad>
          </ns3:TrackPointExtension>
        </extensions>
      </trkpt>
      <trkpt lat="37.75836666114628314971923828125" lon="-107.71123507060110569000244140625">
        <ele>3640.800048828125</ele>
        <time>2023-07-29T13:56:58.000Z</time>
        <extensions>
          <ns3:TrackPointExtension>
            <ns3:hr>83</ns3:hr>
            <ns3:cad>0</ns3:cad>
          </ns3:TrackPointExtension>
        </extensions>
      </trkpt>
      <trkpt lat="37.7583660744130611419677734375" lon="-107.71123565733432769775390625">
        <ele>3640.800048828125</ele>
        <time>2023-07-29T13:56:59.000Z</time>
        <extensions>
          <ns3:TrackPointExtension>
            <ns3:hr>84</ns3:hr>
            <ns3:cad>0</ns3:cad>
          </ns3:TrackPointExtension>
        </extensions>
      </trkpt>
      <trkpt lat="37.758367247879505157470703125" lon="-107.7112348191440105438232421875">
        <ele>3640.800048828125</ele>
        <time>2023-07-29T13:57:00.000Z</time>
        <extensions>
          <ns3:TrackPointExtension>
            <ns3:hr>84</ns3:hr>
            <ns3:cad>0</ns3:cad>
          </ns3:TrackPointExtension>
        </extensions>
      </trkpt>
      <trkpt lat="37.75836716406047344207763671875" lon="-107.71123708225786685943603515625">
        <ele>3640.800048828125</ele>
        <time>2023-07-29T13:57:01.000Z</time>
        <extensions>
          <ns3:TrackPointExtension>
            <ns3:hr>84</ns3:hr>
            <ns3:cad>0</ns3:cad>
          </ns3:TrackPointExtension>
        </extensions>
      </trkpt>
      <trkpt lat="37.7583680860698223114013671875" lon="-107.71123808808624744415283203125">
        <ele>3640.800048828125</ele>
        <time>2023-07-29T13:57:02.000Z</time>
        <extensions>
          <ns3:TrackPointExtension>
            <ns3:hr>85</ns3:hr>
            <ns3:cad>0</ns3:cad>
          </ns3:TrackPointExtension>
        </extensions>
      </trkpt>
      <trkpt lat="37.7583694271743297576904296875" lon="-107.7112378366291522979736328125">
        <ele>3640.800048828125</ele>
        <time>2023-07-29T13:57:03.000Z</time>
        <extensions>
          <ns3:TrackPointExtension>
            <ns3:hr>87</ns3:hr>
            <ns3:cad>0</ns3:cad>
          </ns3:TrackPointExtension>
        </extensions>
      </trkpt>
      <trkpt lat="37.7583704330027103424072265625" lon="-107.71123842336237430572509765625">
        <ele>3640.800048828125</ele>
        <time>2023-07-29T13:57:04.000Z</time>
        <extensions>
          <ns3:TrackPointExtension>
            <ns3:hr>87</ns3:hr>
            <ns3:cad>0</ns3:cad>
          </ns3:TrackPointExtension>
        </extensions>
      </trkpt>
      <trkpt lat="37.75836984626948833465576171875" lon="-107.711243368685245513916015625">
        <ele>3640.800048828125</ele>
        <time>2023-07-29T13:57:05.000Z</time>
        <extensions>
          <ns3:TrackPointExtension>
            <ns3:hr>86</ns3:hr>
            <ns3:cad>0</ns3:cad>
          </ns3:TrackPointExtension>
        </extensions>
      </trkpt>
      <trkpt lat="37.75837085209786891937255859375" lon="-107.71124345250427722930908203125">
        <ele>3641</ele>
        <time>2023-07-29T13:57:06.000Z</time>
        <extensions>
          <ns3:TrackPointExtension>
            <ns3:hr>86</ns3:hr>
            <ns3:cad>0</ns3:cad>
          </ns3:TrackPointExtension>
        </extensions>
      </trkpt>
      <trkpt lat="37.75836288928985595703125" lon="-107.711247391998767852783203125">
        <ele>3641</ele>
        <time>2023-07-29T13:57:07.000Z</time>
        <extensions>
          <ns3:TrackPointExtension>
            <ns3:hr>86</ns3:hr>
            <ns3:cad>0</ns3:cad>
          </ns3:TrackPointExtension>
        </extensions>
      </trkpt>
      <trkpt lat="37.75836464948952198028564453125" lon="-107.71125284023582935333251953125">
        <ele>3641</ele>
        <time>2023-07-29T13:57:08.000Z</time>
        <extensions>
          <ns3:TrackPointExtension>
            <ns3:hr>86</ns3:hr>
            <ns3:cad>0</ns3:cad>
          </ns3:TrackPointExtension>
        </extensions>
      </trkpt>
      <trkpt lat="37.75836951099336147308349609375" lon="-107.71125770173966884613037109375">
        <ele>3641</ele>
        <time>2023-07-29T13:57:09.000Z</time>
        <extensions>
          <ns3:TrackPointExtension>
            <ns3:hr>86</ns3:hr>
            <ns3:cad>0</ns3:cad>
          </ns3:TrackPointExtension>
        </extensions>
      </trkpt>
      <trkpt lat="37.75837923400104045867919921875" lon="-107.71126323379576206207275390625">
        <ele>3641</ele>
        <time>2023-07-29T13:57:10.000Z</time>
        <extensions>
          <ns3:TrackPointExtension>
            <ns3:hr>86</ns3:hr>
            <ns3:cad>0</ns3:cad>
          </ns3:TrackPointExtension>
        </extensions>
      </trkpt>
      <trkpt lat="37.7583821676671504974365234375" lon="-107.7112658321857452392578125">
        <ele>3641</ele>
        <time>2023-07-29T13:57:11.000Z</time>
        <extensions>
          <ns3:TrackPointExtension>
            <ns3:hr>87</ns3:hr>
            <ns3:cad>0</ns3:cad>
          </ns3:TrackPointExtension>
        </extensions>
      </trkpt>
      <trkpt lat="37.7583868615329265594482421875" lon="-107.711265496909618377685546875">
        <ele>3641</ele>
        <time>2023-07-29T13:57:12.000Z</time>
        <extensions>
          <ns3:TrackPointExtension>
            <ns3:hr>87</ns3:hr>
            <ns3:cad>50</ns3:cad>
          </ns3:TrackPointExtension>
        </extensions>
      </trkpt>
      <trkpt lat="37.758398763835430145263671875" lon="-107.71126574836671352386474609375">
        <ele>3641</ele>
        <time>2023-07-29T13:57:13.000Z</time>
        <extensions>
          <ns3:TrackPointExtension>
            <ns3:hr>86</ns3:hr>
            <ns3:cad>50</ns3:cad>
          </ns3:TrackPointExtension>
        </extensions>
      </trkpt>
      <trkpt lat="37.758403122425079345703125" lon="-107.7112599648535251617431640625">
        <ele>3641</ele>
        <time>2023-07-29T13:57:14.000Z</time>
        <extensions>
          <ns3:TrackPointExtension>
            <ns3:hr>86</ns3:hr>
            <ns3:cad>50</ns3:cad>
          </ns3:TrackPointExtension>
        </extensions>
      </trkpt>
      <trkpt lat="37.758407481014728546142578125" lon="-107.71125485189259052276611328125">
        <ele>3641</ele>
        <time>2023-07-29T13:57:15.000Z</time>
        <extensions>
          <ns3:TrackPointExtension>
            <ns3:hr>86</ns3:hr>
            <ns3:cad>50</ns3:cad>
          </ns3:TrackPointExtension>
        </extensions>
      </trkpt>
      <trkpt lat="37.7584116719663143157958984375" lon="-107.711250744760036468505859375">
        <ele>3641.39990234375</ele>
        <time>2023-07-29T13:57:16.000Z</time>
        <extensions>
          <ns3:TrackPointExtension>
            <ns3:hr>87</ns3:hr>
            <ns3:cad>50</ns3:cad>
          </ns3:TrackPointExtension>
        </extensions>
      </trkpt>
      <trkpt lat="37.75841376744210720062255859375" lon="-107.71124613471329212188720703125">
        <ele>3641.60009765625</ele>
        <time>2023-07-29T13:57:17.000Z</time>
        <extensions>
          <ns3:TrackPointExtension>
            <ns3:hr>88</ns3:hr>
            <ns3:cad>46</ns3:cad>
          </ns3:TrackPointExtension>
        </extensions>
      </trkpt>
      <trkpt lat="37.7584230713546276092529296875" lon="-107.7112421952188014984130859375">
        <ele>3641.60009765625</ele>
        <time>2023-07-29T13:57:18.000Z</time>
        <extensions>
          <ns3:TrackPointExtension>
            <ns3:hr>89</ns3:hr>
            <ns3:cad>0</ns3:cad>
          </ns3:TrackPointExtension>
        </extensions>
      </trkpt>
      <trkpt lat="37.7584327943623065948486328125" lon="-107.71123775281012058258056640625">
        <ele>3641.800048828125</ele>
        <time>2023-07-29T13:57:19.000Z</time>
        <extensions>
          <ns3:TrackPointExtension>
            <ns3:hr>90</ns3:hr>
            <ns3:cad>0</ns3:cad>
          </ns3:TrackPointExtension>
        </extensions>
      </trkpt>
      <trkpt lat="37.75843388400971889495849609375" lon="-107.71123691461980342864990234375">
        <ele>3641.800048828125</ele>
        <time>2023-07-29T13:57:20.000Z</time>
        <extensions>
          <ns3:TrackPointExtension>
            <ns3:hr>91</ns3:hr>
            <ns3:cad>0</ns3:cad>
          </ns3:TrackPointExtension>
        </extensions>
      </trkpt>
      <trkpt lat="37.75843338109552860260009765625" lon="-107.71123792044818401336669921875">
        <ele>3641.800048828125</ele>
        <time>2023-07-29T13:57:21.000Z</time>
        <extensions>
          <ns3:TrackPointExtension>
            <ns3:hr>92</ns3:hr>
            <ns3:cad>0</ns3:cad>
          </ns3:TrackPointExtension>
        </extensions>
      </trkpt>
      <trkpt lat="37.75843488983809947967529296875" lon="-107.71123833954334259033203125">
        <ele>3642</ele>
        <time>2023-07-29T13:57:22.000Z</time>
        <extensions>
          <ns3:TrackPointExtension>
            <ns3:hr>93</ns3:hr>
            <ns3:cad>0</ns3:cad>
          </ns3:TrackPointExtension>
        </extensions>
      </trkpt>
      <trkpt lat="37.7584339678287506103515625" lon="-107.7112388424575328826904296875">
        <ele>3642.199951171875</ele>
        <time>2023-07-29T13:57:23.000Z</time>
        <extensions>
          <ns3:TrackPointExtension>
            <ns3:hr>94</ns3:hr>
            <ns3:cad>0</ns3:cad>
          </ns3:TrackPointExtension>
        </extensions>
      </trkpt>
      <trkpt lat="37.758438326418399810791015625" lon="-107.71123792044818401336669921875">
        <ele>3642.199951171875</ele>
        <time>2023-07-29T13:57:24.000Z</time>
        <extensions>
          <ns3:TrackPointExtension>
            <ns3:hr>94</ns3:hr>
            <ns3:cad>0</ns3:cad>
          </ns3:TrackPointExtension>
        </extensions>
      </trkpt>
      <trkpt lat="37.75844511575996875762939453125" lon="-107.71123289130628108978271484375">
        <ele>3642.39990234375</ele>
        <time>2023-07-29T13:57:25.000Z</time>
        <extensions>
          <ns3:TrackPointExtension>
            <ns3:hr>94</ns3:hr>
            <ns3:cad>0</ns3:cad>
          </ns3:TrackPointExtension>
        </extensions>
      </trkpt>
      <trkpt lat="37.75845182128250598907470703125" lon="-107.71122937090694904327392578125">
        <ele>3642.39990234375</ele>
        <time>2023-07-29T13:57:26.000Z</time>
        <extensions>
          <ns3:TrackPointExtension>
            <ns3:hr>93</ns3:hr>
            <ns3:cad>0</ns3:cad>
          </ns3:TrackPointExtension>
        </extensions>
      </trkpt>
      <trkpt lat="37.75846070609986782073974609375" lon="-107.71122903563082218170166015625">
        <ele>3642.39990234375</ele>
        <time>2023-07-29T13:57:27.000Z</time>
        <extensions>
          <ns3:TrackPointExtension>
            <ns3:hr>93</ns3:hr>
            <ns3:cad>0</ns3:cad>
          </ns3:TrackPointExtension>
        </extensions>
      </trkpt>
      <trkpt lat="37.75846925564110279083251953125" lon="-107.7112281136214733123779296875">
        <ele>3642.199951171875</ele>
        <time>2023-07-29T13:57:28.000Z</time>
        <extensions>
          <ns3:TrackPointExtension>
            <ns3:hr>92</ns3:hr>
            <ns3:cad>0</ns3:cad>
          </ns3:TrackPointExtension>
        </extensions>
      </trkpt>
      <trkpt lat="37.75847897864878177642822265625" lon="-107.71122735925018787384033203125">
        <ele>3642.199951171875</ele>
        <time>2023-07-29T13:57:29.000Z</time>
        <extensions>
          <ns3:TrackPointExtension>
            <ns3:hr>91</ns3:hr>
            <ns3:cad>0</ns3:cad>
          </ns3:TrackPointExtension>
        </extensions>
      </trkpt>
      <trkpt lat="37.758486606180667877197265625" lon="-107.711226604878902435302734375">
        <ele>3642.199951171875</ele>
        <time>2023-07-29T13:57:30.000Z</time>
        <extensions>
          <ns3:TrackPointExtension>
            <ns3:hr>90</ns3:hr>
            <ns3:cad>0</ns3:cad>
          </ns3:TrackPointExtension>
        </extensions>
      </trkpt>
      <trkpt lat="37.7584934793412685394287109375" lon="-107.711229287087917327880859375">
        <ele>3642.199951171875</ele>
        <time>2023-07-29T13:57:31.000Z</time>
        <extensions>
          <ns3:TrackPointExtension>
            <ns3:hr>90</ns3:hr>
            <ns3:cad>0</ns3:cad>
          </ns3:TrackPointExtension>
        </extensions>
      </trkpt>
      <trkpt lat="37.75850035250186920166015625" lon="-107.7112264372408390045166015625">
        <ele>3642.199951171875</ele>
        <time>2023-07-29T13:57:32.000Z</time>
        <extensions>
          <ns3:TrackPointExtension>
            <ns3:hr>90</ns3:hr>
            <ns3:cad>0</ns3:cad>
          </ns3:TrackPointExtension>
        </extensions>
      </trkpt>
      <trkpt lat="37.75850479491055011749267578125" lon="-107.71122417412698268890380859375">
        <ele>3642.199951171875</ele>
        <time>2023-07-29T13:57:33.000Z</time>
        <extensions>
          <ns3:TrackPointExtension>
            <ns3:hr>90</ns3:hr>
            <ns3:cad>0</ns3:cad>
          </ns3:TrackPointExtension>
        </extensions>
      </trkpt>
      <trkpt lat="37.75850580073893070220947265625" lon="-107.711223252117633819580078125">
        <ele>3642.199951171875</ele>
        <time>2023-07-29T13:57:34.000Z</time>
        <extensions>
          <ns3:TrackPointExtension>
            <ns3:hr>90</ns3:hr>
            <ns3:cad>0</ns3:cad>
          </ns3:TrackPointExtension>
        </extensions>
      </trkpt>
      <trkpt lat="37.758510746061801910400390625" lon="-107.7112214080989360809326171875">
        <ele>3642.199951171875</ele>
        <time>2023-07-29T13:57:35.000Z</time>
        <extensions>
          <ns3:TrackPointExtension>
            <ns3:hr>90</ns3:hr>
            <ns3:cad>0</ns3:cad>
          </ns3:TrackPointExtension>
        </extensions>
      </trkpt>
      <trkpt lat="37.758520133793354034423828125" lon="-107.711218558251857757568359375">
        <ele>3642.199951171875</ele>
        <time>2023-07-29T13:57:36.000Z</time>
        <extensions>
          <ns3:TrackPointExtension>
            <ns3:hr>89</ns3:hr>
            <ns3:cad>0</ns3:cad>
          </ns3:TrackPointExtension>
        </extensions>
      </trkpt>
      <trkpt lat="37.75853396393358707427978515625" lon="-107.7112153731286525726318359375">
        <ele>3642.199951171875</ele>
        <time>2023-07-29T13:57:37.000Z</time>
        <extensions>
          <ns3:TrackPointExtension>
            <ns3:hr>89</ns3:hr>
            <ns3:cad>0</ns3:cad>
          </ns3:TrackPointExtension>
        </extensions>
      </trkpt>
      <trkpt lat="37.758547961711883544921875" lon="-107.7112100087106227874755859375">
        <ele>3642.199951171875</ele>
        <time>2023-07-29T13:57:38.000Z</time>
        <extensions>
          <ns3:TrackPointExtension>
            <ns3:hr>88</ns3:hr>
            <ns3:cad>0</ns3:cad>
          </ns3:TrackPointExtension>
        </extensions>
      </trkpt>
      <trkpt lat="37.75856263004243373870849609375" lon="-107.71120388992130756378173828125">
        <ele>3642</ele>
        <time>2023-07-29T13:57:39.000Z</time>
        <extensions>
          <ns3:TrackPointExtension>
            <ns3:hr>88</ns3:hr>
            <ns3:cad>0</ns3:cad>
          </ns3:TrackPointExtension>
        </extensions>
      </trkpt>
      <trkpt lat="37.75857101194560527801513671875" lon="-107.71119835786521434783935546875">
        <ele>3642</ele>
        <time>2023-07-29T13:57:40.000Z</time>
        <extensions>
          <ns3:TrackPointExtension>
            <ns3:hr>87</ns3:hr>
            <ns3:cad>0</ns3:cad>
          </ns3:TrackPointExtension>
        </extensions>
      </trkpt>
      <trkpt lat="37.75857570581138134002685546875" lon="-107.71119500510394573211669921875">
        <ele>3642</ele>
        <time>2023-07-29T13:57:41.000Z</time>
        <extensions>
          <ns3:TrackPointExtension>
            <ns3:hr>87</ns3:hr>
            <ns3:cad>0</ns3:cad>
          </ns3:TrackPointExtension>
        </extensions>
      </trkpt>
      <trkpt lat="37.75858559645712375640869140625" lon="-107.71119005978107452392578125">
        <ele>3641.800048828125</ele>
        <time>2023-07-29T13:57:42.000Z</time>
        <extensions>
          <ns3:TrackPointExtension>
            <ns3:hr>87</ns3:hr>
            <ns3:cad>0</ns3:cad>
          </ns3:TrackPointExtension>
        </extensions>
      </trkpt>
      <trkpt lat="37.75859515182673931121826171875" lon="-107.71118544973433017730712890625">
        <ele>3641.800048828125</ele>
        <time>2023-07-29T13:57:43.000Z</time>
        <extensions>
          <ns3:TrackPointExtension>
            <ns3:hr>87</ns3:hr>
            <ns3:cad>0</ns3:cad>
          </ns3:TrackPointExtension>
        </extensions>
      </trkpt>
      <trkpt lat="37.75859783403575420379638671875" lon="-107.71118327043950557708740234375">
        <ele>3641.800048828125</ele>
        <time>2023-07-29T13:57:44.000Z</time>
        <extensions>
          <ns3:TrackPointExtension>
            <ns3:hr>89</ns3:hr>
            <ns3:cad>0</ns3:cad>
          </ns3:TrackPointExtension>
        </extensions>
      </trkpt>
      <trkpt lat="37.75860789231956005096435546875" lon="-107.71117807365953922271728515625">
        <ele>3641.800048828125</ele>
        <time>2023-07-29T13:57:45.000Z</time>
        <extensions>
          <ns3:TrackPointExtension>
            <ns3:hr>90</ns3:hr>
            <ns3:cad>0</ns3:cad>
          </ns3:TrackPointExtension>
        </extensions>
      </trkpt>
      <trkpt lat="37.75861577130854129791259765625" lon="-107.71117421798408031463623046875">
        <ele>3641.800048828125</ele>
        <time>2023-07-29T13:57:46.000Z</time>
        <extensions>
          <ns3:TrackPointExtension>
            <ns3:hr>89</ns3:hr>
            <ns3:cad>0</ns3:cad>
          </ns3:TrackPointExtension>
        </extensions>
      </trkpt>
      <trkpt lat="37.75862867943942546844482421875" lon="-107.71117036230862140655517578125">
        <ele>3641.800048828125</ele>
        <time>2023-07-29T13:57:47.000Z</time>
        <extensions>
          <ns3:TrackPointExtension>
            <ns3:hr>88</ns3:hr>
            <ns3:cad>0</ns3:cad>
          </ns3:TrackPointExtension>
        </extensions>
      </trkpt>
      <trkpt lat="37.75864259339869022369384765625" lon="-107.71116466261446475982666015625">
        <ele>3641.800048828125</ele>
        <time>2023-07-29T13:57:48.000Z</time>
        <extensions>
          <ns3:TrackPointExtension>
            <ns3:hr>88</ns3:hr>
            <ns3:cad>0</ns3:cad>
          </ns3:TrackPointExtension>
        </extensions>
      </trkpt>
      <trkpt lat="37.7586564235389232635498046875" lon="-107.71115980111062526702880859375">
        <ele>3641.800048828125</ele>
        <time>2023-07-29T13:57:49.000Z</time>
        <extensions>
          <ns3:TrackPointExtension>
            <ns3:hr>88</ns3:hr>
            <ns3:cad>0</ns3:cad>
          </ns3:TrackPointExtension>
        </extensions>
      </trkpt>
      <trkpt lat="37.7586637996137142181396484375" lon="-107.71115410141646862030029296875">
        <ele>3641.800048828125</ele>
        <time>2023-07-29T13:57:50.000Z</time>
        <extensions>
          <ns3:TrackPointExtension>
            <ns3:hr>87</ns3:hr>
            <ns3:cad>0</ns3:cad>
          </ns3:TrackPointExtension>
        </extensions>
      </trkpt>
      <trkpt lat="37.75867712683975696563720703125" lon="-107.7111451327800750732421875">
        <ele>3641.800048828125</ele>
        <time>2023-07-29T13:57:51.000Z</time>
        <extensions>
          <ns3:TrackPointExtension>
            <ns3:hr>87</ns3:hr>
            <ns3:cad>0</ns3:cad>
          </ns3:TrackPointExtension>
        </extensions>
      </trkpt>
      <trkpt lat="37.7586862631142139434814453125" lon="-107.71113909780979156494140625">
        <ele>3641.800048828125</ele>
        <time>2023-07-29T13:57:52.000Z</time>
        <extensions>
          <ns3:TrackPointExtension>
            <ns3:hr>87</ns3:hr>
            <ns3:cad>0</ns3:cad>
          </ns3:TrackPointExtension>
        </extensions>
      </trkpt>
      <trkpt lat="37.7586896158754825592041015625" lon="-107.7111359126865863800048828125">
        <ele>3641.800048828125</ele>
        <time>2023-07-29T13:57:53.000Z</time>
        <extensions>
          <ns3:TrackPointExtension>
            <ns3:hr>87</ns3:hr>
            <ns3:cad>0</ns3:cad>
          </ns3:TrackPointExtension>
        </extensions>
      </trkpt>
      <trkpt lat="37.75869523175060749053955078125" lon="-107.71113239228725433349609375">
        <ele>3641.800048828125</ele>
        <time>2023-07-29T13:57:54.000Z</time>
        <extensions>
          <ns3:TrackPointExtension>
            <ns3:hr>87</ns3:hr>
            <ns3:cad>0</ns3:cad>
          </ns3:TrackPointExtension>
        </extensions>
      </trkpt>
      <trkpt lat="37.75870285928249359130859375" lon="-107.7111245132982730865478515625">
        <ele>3641.800048828125</ele>
        <time>2023-07-29T13:57:55.000Z</time>
        <extensions>
          <ns3:TrackPointExtension>
            <ns3:hr>86</ns3:hr>
            <ns3:cad>0</ns3:cad>
          </ns3:TrackPointExtension>
        </extensions>
      </trkpt>
      <trkpt lat="37.75871635414659976959228515625" lon="-107.71111487410962581634521484375">
        <ele>3641.800048828125</ele>
        <time>2023-07-29T13:57:56.000Z</time>
        <extensions>
          <ns3:TrackPointExtension>
            <ns3:hr>85</ns3:hr>
            <ns3:cad>0</ns3:cad>
          </ns3:TrackPointExtension>
        </extensions>
      </trkpt>
      <trkpt lat="37.75873563252389430999755859375" lon="-107.711105234920978546142578125">
        <ele>3641.800048828125</ele>
        <time>2023-07-29T13:57:57.000Z</time>
        <extensions>
          <ns3:TrackPointExtension>
            <ns3:hr>85</ns3:hr>
            <ns3:cad>0</ns3:cad>
          </ns3:TrackPointExtension>
        </extensions>
      </trkpt>
      <trkpt lat="37.7587392367422580718994140625" lon="-107.711099199950695037841796875">
        <ele>3641.800048828125</ele>
        <time>2023-07-29T13:57:58.000Z</time>
        <extensions>
          <ns3:TrackPointExtension>
            <ns3:hr>84</ns3:hr>
            <ns3:cad>0</ns3:cad>
          </ns3:TrackPointExtension>
        </extensions>
      </trkpt>
      <trkpt lat="37.7587489597499370574951171875" lon="-107.711095511913299560546875">
        <ele>3641.60009765625</ele>
        <time>2023-07-29T13:57:59.000Z</time>
        <extensions>
          <ns3:TrackPointExtension>
            <ns3:hr>83</ns3:hr>
            <ns3:cad>0</ns3:cad>
          </ns3:TrackPointExtension>
        </extensions>
      </trkpt>
      <trkpt lat="37.75876295752823352813720703125" lon="-107.7110869623720645904541015625">
        <ele>3641.60009765625</ele>
        <time>2023-07-29T13:58:00.000Z</time>
        <extensions>
          <ns3:TrackPointExtension>
            <ns3:hr>83</ns3:hr>
            <ns3:cad>0</ns3:cad>
          </ns3:TrackPointExtension>
        </extensions>
      </trkpt>
      <trkpt lat="37.758773602545261383056640625" lon="-107.71108210086822509765625">
        <ele>3641.60009765625</ele>
        <time>2023-07-29T13:58:01.000Z</time>
        <extensions>
          <ns3:TrackPointExtension>
            <ns3:hr>83</ns3:hr>
            <ns3:cad>50</ns3:cad>
          </ns3:TrackPointExtension>
        </extensions>
      </trkpt>
      <trkpt lat="37.75878064334392547607421875" lon="-107.7110795862972736358642578125">
        <ele>3641.60009765625</ele>
        <time>2023-07-29T13:58:02.000Z</time>
        <extensions>
          <ns3:TrackPointExtension>
            <ns3:hr>83</ns3:hr>
            <ns3:cad>50</ns3:cad>
          </ns3:TrackPointExtension>
        </extensions>
      </trkpt>
      <trkpt lat="37.7587898634374141693115234375" lon="-107.7110795862972736358642578125">
        <ele>3641.60009765625</ele>
        <time>2023-07-29T13:58:03.000Z</time>
        <extensions>
          <ns3:TrackPointExtension>
            <ns3:hr>83</ns3:hr>
            <ns3:cad>51</ns3:cad>
          </ns3:TrackPointExtension>
        </extensions>
      </trkpt>
      <trkpt lat="37.75879849679768085479736328125" lon="-107.71108034066855907440185546875">
        <ele>3641.60009765625</ele>
        <time>2023-07-29T13:58:04.000Z</time>
        <extensions>
          <ns3:TrackPointExtension>
            <ns3:hr>83</ns3:hr>
            <ns3:cad>51</ns3:cad>
          </ns3:TrackPointExtension>
        </extensions>
      </trkpt>
      <trkpt lat="37.7588089741766452789306640625" lon="-107.711081765592098236083984375">
        <ele>3641.800048828125</ele>
        <time>2023-07-29T13:58:05.000Z</time>
        <extensions>
          <ns3:TrackPointExtension>
            <ns3:hr>83</ns3:hr>
            <ns3:cad>51</ns3:cad>
          </ns3:TrackPointExtension>
        </extensions>
      </trkpt>
      <trkpt lat="37.758821882307529449462890625" lon="-107.71108101122081279754638671875">
        <ele>3641.800048828125</ele>
        <time>2023-07-29T13:58:06.000Z</time>
        <extensions>
          <ns3:TrackPointExtension>
            <ns3:hr>84</ns3:hr>
            <ns3:cad>51</ns3:cad>
          </ns3:TrackPointExtension>
        </extensions>
      </trkpt>
      <trkpt lat="37.7588277496397495269775390625" lon="-107.71108143031597137451171875">
        <ele>3641.800048828125</ele>
        <time>2023-07-29T13:58:07.000Z</time>
        <extensions>
          <ns3:TrackPointExtension>
            <ns3:hr>83</ns3:hr>
            <ns3:cad>51</ns3:cad>
          </ns3:TrackPointExtension>
        </extensions>
      </trkpt>
      <trkpt lat="37.7588414959609508514404296875" lon="-107.7110809274017810821533203125">
        <ele>3641.800048828125</ele>
        <time>2023-07-29T13:58:08.000Z</time>
        <extensions>
          <ns3:TrackPointExtension>
            <ns3:hr>83</ns3:hr>
            <ns3:cad>51</ns3:cad>
          </ns3:TrackPointExtension>
        </extensions>
      </trkpt>
      <trkpt lat="37.75885046459734439849853515625" lon="-107.71108017303049564361572265625">
        <ele>3641.800048828125</ele>
        <time>2023-07-29T13:58:09.000Z</time>
        <extensions>
          <ns3:TrackPointExtension>
            <ns3:hr>83</ns3:hr>
            <ns3:cad>51</ns3:cad>
          </ns3:TrackPointExtension>
        </extensions>
      </trkpt>
      <trkpt lat="37.75885800831019878387451171875" lon="-107.7110789157450199127197265625">
        <ele>3641.800048828125</ele>
        <time>2023-07-29T13:58:10.000Z</time>
        <extensions>
          <ns3:TrackPointExtension>
            <ns3:hr>84</ns3:hr>
            <ns3:cad>0</ns3:cad>
          </ns3:TrackPointExtension>
        </extensions>
      </trkpt>
      <trkpt lat="37.7588689886033535003662109375" lon="-107.711079418659210205078125">
        <ele>3641.800048828125</ele>
        <time>2023-07-29T13:58:11.000Z</time>
        <extensions>
          <ns3:TrackPointExtension>
            <ns3:hr>84</ns3:hr>
            <ns3:cad>0</ns3:cad>
          </ns3:TrackPointExtension>
        </extensions>
      </trkpt>
      <trkpt lat="37.75888181291520595550537109375" lon="-107.71107883192598819732666015625">
        <ele>3641.800048828125</ele>
        <time>2023-07-29T13:58:12.000Z</time>
        <extensions>
          <ns3:TrackPointExtension>
            <ns3:hr>84</ns3:hr>
            <ns3:cad>0</ns3:cad>
          </ns3:TrackPointExtension>
        </extensions>
      </trkpt>
      <trkpt lat="37.75888768024742603302001953125" lon="-107.71108084358274936676025390625">
        <ele>3641.800048828125</ele>
        <time>2023-07-29T13:58:13.000Z</time>
        <extensions>
          <ns3:TrackPointExtension>
            <ns3:hr>84</ns3:hr>
            <ns3:cad>0</ns3:cad>
          </ns3:TrackPointExtension>
        </extensions>
      </trkpt>
      <trkpt lat="37.75889773853123188018798828125" lon="-107.71107983775436878204345703125">
        <ele>3641.800048828125</ele>
        <time>2023-07-29T13:58:14.000Z</time>
        <extensions>
          <ns3:TrackPointExtension>
            <ns3:hr>84</ns3:hr>
            <ns3:cad>0</ns3:cad>
          </ns3:TrackPointExtension>
        </extensions>
      </trkpt>
      <trkpt lat="37.7589035220444202423095703125" lon="-107.711079083383083343505859375">
        <ele>3641.800048828125</ele>
        <time>2023-07-29T13:58:15.000Z</time>
        <extensions>
          <ns3:TrackPointExtension>
            <ns3:hr>84</ns3:hr>
            <ns3:cad>0</ns3:cad>
          </ns3:TrackPointExtension>
        </extensions>
      </trkpt>
      <trkpt lat="37.75891651399433612823486328125" lon="-107.7110765688121318817138671875">
        <ele>3641.800048828125</ele>
        <time>2023-07-29T13:58:16.000Z</time>
        <extensions>
          <ns3:TrackPointExtension>
            <ns3:hr>85</ns3:hr>
            <ns3:cad>0</ns3:cad>
          </ns3:TrackPointExtension>
        </extensions>
      </trkpt>
      <trkpt lat="37.7589330263435840606689453125" lon="-107.71107581444084644317626953125">
        <ele>3641.800048828125</ele>
        <time>2023-07-29T13:58:17.000Z</time>
        <extensions>
          <ns3:TrackPointExtension>
            <ns3:hr>85</ns3:hr>
            <ns3:cad>0</ns3:cad>
          </ns3:TrackPointExtension>
        </extensions>
      </trkpt>
      <trkpt lat="37.75894182734191417694091796875" lon="-107.7110775746405124664306640625">
        <ele>3641.800048828125</ele>
        <time>2023-07-29T13:58:18.000Z</time>
        <extensions>
          <ns3:TrackPointExtension>
            <ns3:hr>86</ns3:hr>
            <ns3:cad>0</ns3:cad>
          </ns3:TrackPointExtension>
        </extensions>
      </trkpt>
      <trkpt lat="37.75895305909216403961181640625" lon="-107.711075060069561004638671875">
        <ele>3641.800048828125</ele>
        <time>2023-07-29T13:58:19.000Z</time>
        <extensions>
          <ns3:TrackPointExtension>
            <ns3:hr>86</ns3:hr>
            <ns3:cad>0</ns3:cad>
          </ns3:TrackPointExtension>
        </extensions>
      </trkpt>
      <trkpt lat="37.75896144099533557891845703125" lon="-107.7110708691179752349853515625">
        <ele>3641.800048828125</ele>
        <time>2023-07-29T13:58:20.000Z</time>
        <extensions>
          <ns3:TrackPointExtension>
            <ns3:hr>86</ns3:hr>
            <ns3:cad>0</ns3:cad>
          </ns3:TrackPointExtension>
        </extensions>
      </trkpt>
      <trkpt lat="37.75897552259266376495361328125" lon="-107.71106676198542118072509765625">
        <ele>3642</ele>
        <time>2023-07-29T13:58:21.000Z</time>
        <extensions>
          <ns3:TrackPointExtension>
            <ns3:hr>86</ns3:hr>
            <ns3:cad>0</ns3:cad>
          </ns3:TrackPointExtension>
        </extensions>
      </trkpt>
      <trkpt lat="37.75898859836161136627197265625" lon="-107.711063660681247711181640625">
        <ele>3642</ele>
        <time>2023-07-29T13:58:22.000Z</time>
        <extensions>
          <ns3:TrackPointExtension>
            <ns3:hr>87</ns3:hr>
            <ns3:cad>47</ns3:cad>
          </ns3:TrackPointExtension>
        </extensions>
      </trkpt>
      <trkpt lat="37.75900133885443210601806640625" lon="-107.7110594697296619415283203125">
        <ele>3642</ele>
        <time>2023-07-29T13:58:23.000Z</time>
        <extensions>
          <ns3:TrackPointExtension>
            <ns3:hr>87</ns3:hr>
            <ns3:cad>47</ns3:cad>
          </ns3:TrackPointExtension>
        </extensions>
      </trkpt>
      <trkpt lat="37.75901793502271175384521484375" lon="-107.7110557816922664642333984375">
        <ele>3642</ele>
        <time>2023-07-29T13:58:24.000Z</time>
        <extensions>
          <ns3:TrackPointExtension>
            <ns3:hr>87</ns3:hr>
            <ns3:cad>47</ns3:cad>
          </ns3:TrackPointExtension>
        </extensions>
      </trkpt>
      <trkpt lat="37.7590295858681201934814453125" lon="-107.7110544405877590179443359375">
        <ele>3642.199951171875</ele>
        <time>2023-07-29T13:58:25.000Z</time>
        <extensions>
          <ns3:TrackPointExtension>
            <ns3:hr>87</ns3:hr>
            <ns3:cad>47</ns3:cad>
          </ns3:TrackPointExtension>
        </extensions>
      </trkpt>
      <trkpt lat="37.759043835103511810302734375" lon="-107.7110517583787441253662109375">
        <ele>3642.199951171875</ele>
        <time>2023-07-29T13:58:26.000Z</time>
        <extensions>
          <ns3:TrackPointExtension>
            <ns3:hr>87</ns3:hr>
            <ns3:cad>0</ns3:cad>
          </ns3:TrackPointExtension>
        </extensions>
      </trkpt>
      <trkpt lat="37.75905883871018886566162109375" lon="-107.7110485732555389404296875">
        <ele>3642.199951171875</ele>
        <time>2023-07-29T13:58:27.000Z</time>
        <extensions>
          <ns3:TrackPointExtension>
            <ns3:hr>87</ns3:hr>
            <ns3:cad>0</ns3:cad>
          </ns3:TrackPointExtension>
        </extensions>
      </trkpt>
      <trkpt lat="37.75907174684107303619384765625" lon="-107.71104781888425350189208984375">
        <ele>3642.199951171875</ele>
        <time>2023-07-29T13:58:28.000Z</time>
        <extensions>
          <ns3:TrackPointExtension>
            <ns3:hr>87</ns3:hr>
            <ns3:cad>0</ns3:cad>
          </ns3:TrackPointExtension>
        </extensions>
      </trkpt>
      <trkpt lat="37.75908314622938632965087890625" lon="-107.71104714833199977874755859375">
        <ele>3642.199951171875</ele>
        <time>2023-07-29T13:58:29.000Z</time>
        <extensions>
          <ns3:TrackPointExtension>
            <ns3:hr>87</ns3:hr>
            <ns3:cad>0</ns3:cad>
          </ns3:TrackPointExtension>
        </extensions>
      </trkpt>
      <trkpt lat="37.759095467627048492431640625" lon="-107.71104530431330204010009765625">
        <ele>3642.199951171875</ele>
        <time>2023-07-29T13:58:30.000Z</time>
        <extensions>
          <ns3:TrackPointExtension>
            <ns3:hr>88</ns3:hr>
            <ns3:cad>48</ns3:cad>
          </ns3:TrackPointExtension>
        </extensions>
      </trkpt>
      <trkpt lat="37.75910695083439350128173828125" lon="-107.71104329265654087066650390625">
        <ele>3642.39990234375</ele>
        <time>2023-07-29T13:58:31.000Z</time>
        <extensions>
          <ns3:TrackPointExtension>
            <ns3:hr>88</ns3:hr>
            <ns3:cad>48</ns3:cad>
          </ns3:TrackPointExtension>
        </extensions>
      </trkpt>
      <trkpt lat="37.75911684148013591766357421875" lon="-107.71103960461914539337158203125">
        <ele>3642.39990234375</ele>
        <time>2023-07-29T13:58:32.000Z</time>
        <extensions>
          <ns3:TrackPointExtension>
            <ns3:hr>89</ns3:hr>
            <ns3:cad>47</ns3:cad>
          </ns3:TrackPointExtension>
        </extensions>
      </trkpt>
      <trkpt lat="37.75912002660334110260009765625" lon="-107.71103717386722564697265625">
        <ele>3642.39990234375</ele>
        <time>2023-07-29T13:58:33.000Z</time>
        <extensions>
          <ns3:TrackPointExtension>
            <ns3:hr>90</ns3:hr>
            <ns3:cad>47</ns3:cad>
          </ns3:TrackPointExtension>
        </extensions>
      </trkpt>
      <trkpt lat="37.7591355331242084503173828125" lon="-107.71103315055370330810546875">
        <ele>3642.39990234375</ele>
        <time>2023-07-29T13:58:34.000Z</time>
        <extensions>
          <ns3:TrackPointExtension>
            <ns3:hr>91</ns3:hr>
            <ns3:cad>47</ns3:cad>
          </ns3:TrackPointExtension>
        </extensions>
      </trkpt>
      <trkpt lat="37.7591405622661113739013671875" lon="-107.71103139035403728485107421875">
        <ele>3642.39990234375</ele>
        <time>2023-07-29T13:58:35.000Z</time>
        <extensions>
          <ns3:TrackPointExtension>
            <ns3:hr>93</ns3:hr>
            <ns3:cad>0</ns3:cad>
          </ns3:TrackPointExtension>
        </extensions>
      </trkpt>
      <trkpt lat="37.75915388949215412139892578125" lon="-107.7110286243259906768798828125">
        <ele>3642.39990234375</ele>
        <time>2023-07-29T13:58:36.000Z</time>
        <extensions>
          <ns3:TrackPointExtension>
            <ns3:hr>94</ns3:hr>
            <ns3:cad>0</ns3:cad>
          </ns3:TrackPointExtension>
        </extensions>
      </trkpt>
      <trkpt lat="37.7591636963188648223876953125" lon="-107.71102317608892917633056640625">
        <ele>3642.39990234375</ele>
        <time>2023-07-29T13:58:37.000Z</time>
        <extensions>
          <ns3:TrackPointExtension>
            <ns3:hr>94</ns3:hr>
            <ns3:cad>0</ns3:cad>
          </ns3:TrackPointExtension>
        </extensions>
      </trkpt>
      <trkpt lat="37.75917450897395610809326171875" lon="-107.7110189013183116912841796875">
        <ele>3642.39990234375</ele>
        <time>2023-07-29T13:58:38.000Z</time>
        <extensions>
          <ns3:TrackPointExtension>
            <ns3:hr>94</ns3:hr>
            <ns3:cad>0</ns3:cad>
          </ns3:TrackPointExtension>
        </extensions>
      </trkpt>
      <trkpt lat="37.75918590836226940155029296875" lon="-107.7110135369002819061279296875">
        <ele>3642.39990234375</ele>
        <time>2023-07-29T13:58:39.000Z</time>
        <extensions>
          <ns3:TrackPointExtension>
            <ns3:hr>95</ns3:hr>
            <ns3:cad>0</ns3:cad>
          </ns3:TrackPointExtension>
        </extensions>
      </trkpt>
      <trkpt lat="37.75919546373188495635986328125" lon="-107.71101010031998157501220703125">
        <ele>3642.39990234375</ele>
        <time>2023-07-29T13:58:40.000Z</time>
        <extensions>
          <ns3:TrackPointExtension>
            <ns3:hr>95</ns3:hr>
            <ns3:cad>0</ns3:cad>
          </ns3:TrackPointExtension>
        </extensions>
      </trkpt>
      <trkpt lat="37.7592032589018344879150390625" lon="-107.71100825630128383636474609375">
        <ele>3642.39990234375</ele>
        <time>2023-07-29T13:58:41.000Z</time>
        <extensions>
          <ns3:TrackPointExtension>
            <ns3:hr>95</ns3:hr>
            <ns3:cad>0</ns3:cad>
          </ns3:TrackPointExtension>
        </extensions>
      </trkpt>
      <trkpt lat="37.7592069469392299652099609375" lon="-107.71100792102515697479248046875">
        <ele>3642.39990234375</ele>
        <time>2023-07-29T13:58:42.000Z</time>
        <extensions>
          <ns3:TrackPointExtension>
            <ns3:hr>95</ns3:hr>
            <ns3:cad>50</ns3:cad>
          </ns3:TrackPointExtension>
        </extensions>
      </trkpt>
      <trkpt lat="37.7592200227081775665283203125" lon="-107.711006663739681243896484375">
        <ele>3642.39990234375</ele>
        <time>2023-07-29T13:58:43.000Z</time>
        <extensions>
          <ns3:TrackPointExtension>
            <ns3:hr>95</ns3:hr>
            <ns3:cad>50</ns3:cad>
          </ns3:TrackPointExtension>
        </extensions>
      </trkpt>
      <trkpt lat="37.75923418812453746795654296875" lon="-107.71100699901580810546875">
        <ele>3642.60009765625</ele>
        <time>2023-07-29T13:58:44.000Z</time>
        <extensions>
          <ns3:TrackPointExtension>
            <ns3:hr>95</ns3:hr>
            <ns3:cad>50</ns3:cad>
          </ns3:TrackPointExtension>
        </extensions>
      </trkpt>
      <trkpt lat="37.759250700473785400390625" lon="-107.71100540645420551300048828125">
        <ele>3642.60009765625</ele>
        <time>2023-07-29T13:58:45.000Z</time>
        <extensions>
          <ns3:TrackPointExtension>
            <ns3:hr>94</ns3:hr>
            <ns3:cad>50</ns3:cad>
          </ns3:TrackPointExtension>
        </extensions>
      </trkpt>
      <trkpt lat="37.75926318950951099395751953125" lon="-107.7110041491687297821044921875">
        <ele>3642.60009765625</ele>
        <time>2023-07-29T13:58:46.000Z</time>
        <extensions>
          <ns3:TrackPointExtension>
            <ns3:hr>94</ns3:hr>
            <ns3:cad>50</ns3:cad>
          </ns3:TrackPointExtension>
        </extensions>
      </trkpt>
      <trkpt lat="37.75927207432687282562255859375" lon="-107.71100490354001522064208984375">
        <ele>3642.60009765625</ele>
        <time>2023-07-29T13:58:47.000Z</time>
        <extensions>
          <ns3:TrackPointExtension>
            <ns3:hr>94</ns3:hr>
            <ns3:cad>50</ns3:cad>
          </ns3:TrackPointExtension>
        </extensions>
      </trkpt>
      <trkpt lat="37.7592803724110126495361328125" lon="-107.71100624464452266693115234375">
        <ele>3642.60009765625</ele>
        <time>2023-07-29T13:58:48.000Z</time>
        <extensions>
          <ns3:TrackPointExtension>
            <ns3:hr>94</ns3:hr>
            <ns3:cad>50</ns3:cad>
          </ns3:TrackPointExtension>
        </extensions>
      </trkpt>
      <trkpt lat="37.75928716175258159637451171875" lon="-107.7110075019299983978271484375">
        <ele>3642.60009765625</ele>
        <time>2023-07-29T13:58:49.000Z</time>
        <extensions>
          <ns3:TrackPointExtension>
            <ns3:hr>94</ns3:hr>
            <ns3:cad>50</ns3:cad>
          </ns3:TrackPointExtension>
        </extensions>
      </trkpt>
      <trkpt lat="37.75929722003638744354248046875" lon="-107.7110075019299983978271484375">
        <ele>3642.60009765625</ele>
        <time>2023-07-29T13:58:50.000Z</time>
        <extensions>
          <ns3:TrackPointExtension>
            <ns3:hr>94</ns3:hr>
            <ns3:cad>50</ns3:cad>
          </ns3:TrackPointExtension>
        </extensions>
      </trkpt>
      <trkpt lat="37.7593071945011615753173828125" lon="-107.7110078372061252593994140625">
        <ele>3642.60009765625</ele>
        <time>2023-07-29T13:58:51.000Z</time>
        <extensions>
          <ns3:TrackPointExtension>
            <ns3:hr>94</ns3:hr>
            <ns3:cad>50</ns3:cad>
          </ns3:TrackPointExtension>
        </extensions>
      </trkpt>
      <trkpt lat="37.7593217790126800537109375" lon="-107.7110058255493640899658203125">
        <ele>3642.60009765625</ele>
        <time>2023-07-29T13:58:52.000Z</time>
        <extensions>
          <ns3:TrackPointExtension>
            <ns3:hr>94</ns3:hr>
            <ns3:cad>50</ns3:cad>
          </ns3:TrackPointExtension>
        </extensions>
      </trkpt>
      <trkpt lat="37.759338878095149993896484375" lon="-107.711005322635173797607421875">
        <ele>3642.60009765625</ele>
        <time>2023-07-29T13:58:53.000Z</time>
        <extensions>
          <ns3:TrackPointExtension>
            <ns3:hr>94</ns3:hr>
            <ns3:cad>50</ns3:cad>
          </ns3:TrackPointExtension>
        </extensions>
      </trkpt>
      <trkpt lat="37.7593566477298736572265625" lon="-107.71100523881614208221435546875">
        <ele>3642.60009765625</ele>
        <time>2023-07-29T13:58:54.000Z</time>
        <extensions>
          <ns3:TrackPointExtension>
            <ns3:hr>94</ns3:hr>
            <ns3:cad>50</ns3:cad>
          </ns3:TrackPointExtension>
        </extensions>
      </trkpt>
      <trkpt lat="37.75937282480299472808837890625" lon="-107.711002640426158905029296875">
        <ele>3642.60009765625</ele>
        <time>2023-07-29T13:58:55.000Z</time>
        <extensions>
          <ns3:TrackPointExtension>
            <ns3:hr>94</ns3:hr>
            <ns3:cad>50</ns3:cad>
          </ns3:TrackPointExtension>
        </extensions>
      </trkpt>
      <trkpt lat="37.75938573293387889862060546875" lon="-107.71100188605487346649169921875">
        <ele>3642.60009765625</ele>
        <time>2023-07-29T13:58:56.000Z</time>
        <extensions>
          <ns3:TrackPointExtension>
            <ns3:hr>94</ns3:hr>
            <ns3:cad>50</ns3:cad>
          </ns3:TrackPointExtension>
        </extensions>
      </trkpt>
      <trkpt lat="37.75940115563571453094482421875" lon="-107.71100037731230258941650390625">
        <ele>3642.800048828125</ele>
        <time>2023-07-29T13:58:57.000Z</time>
        <extensions>
          <ns3:TrackPointExtension>
            <ns3:hr>94</ns3:hr>
            <ns3:cad>50</ns3:cad>
          </ns3:TrackPointExtension>
        </extensions>
      </trkpt>
      <trkpt lat="37.75941641069948673248291015625" lon="-107.71099635399878025054931640625">
        <ele>3642.800048828125</ele>
        <time>2023-07-29T13:58:58.000Z</time>
        <extensions>
          <ns3:TrackPointExtension>
            <ns3:hr>94</ns3:hr>
            <ns3:cad>50</ns3:cad>
          </ns3:TrackPointExtension>
        </extensions>
      </trkpt>
      <trkpt lat="37.75943501852452754974365234375" lon="-107.71098813973367214202880859375">
        <ele>3642.800048828125</ele>
        <time>2023-07-29T13:58:59.000Z</time>
        <extensions>
          <ns3:TrackPointExtension>
            <ns3:hr>93</ns3:hr>
            <ns3:cad>50</ns3:cad>
          </ns3:TrackPointExtension>
        </extensions>
      </trkpt>
      <trkpt lat="37.75945144705474376678466796875" lon="-107.71098562516272068023681640625">
        <ele>3642.800048828125</ele>
        <time>2023-07-29T13:59:00.000Z</time>
        <extensions>
          <ns3:TrackPointExtension>
            <ns3:hr>93</ns3:hr>
            <ns3:cad>50</ns3:cad>
          </ns3:TrackPointExtension>
        </extensions>
      </trkpt>
      <trkpt lat="37.75946284644305706024169921875" lon="-107.71098260767757892608642578125">
        <ele>3642.800048828125</ele>
        <time>2023-07-29T13:59:01.000Z</time>
        <extensions>
          <ns3:TrackPointExtension>
            <ns3:hr>93</ns3:hr>
            <ns3:cad>50</ns3:cad>
          </ns3:TrackPointExtension>
        </extensions>
      </trkpt>
      <trkpt lat="37.759477682411670684814453125" lon="-107.71097858436405658721923828125">
        <ele>3642.800048828125</ele>
        <time>2023-07-29T13:59:02.000Z</time>
        <extensions>
          <ns3:TrackPointExtension>
            <ns3:hr>94</ns3:hr>
            <ns3:cad>50</ns3:cad>
          </ns3:TrackPointExtension>
        </extensions>
      </trkpt>
      <trkpt lat="37.75948849506676197052001953125" lon="-107.71097489632666110992431640625">
        <ele>3642.800048828125</ele>
        <time>2023-07-29T13:59:03.000Z</time>
        <extensions>
          <ns3:TrackPointExtension>
            <ns3:hr>94</ns3:hr>
            <ns3:cad>50</ns3:cad>
          </ns3:TrackPointExtension>
        </extensions>
      </trkpt>
      <trkpt lat="37.7594976313412189483642578125" lon="-107.71097439341247081756591796875">
        <ele>3643</ele>
        <time>2023-07-29T13:59:04.000Z</time>
        <extensions>
          <ns3:TrackPointExtension>
            <ns3:hr>94</ns3:hr>
            <ns3:cad>50</ns3:cad>
          </ns3:TrackPointExtension>
        </extensions>
      </trkpt>
      <trkpt lat="37.75950576178729534149169921875" lon="-107.71097405813634395599365234375">
        <ele>3643</ele>
        <time>2023-07-29T13:59:05.000Z</time>
        <extensions>
          <ns3:TrackPointExtension>
            <ns3:hr>94</ns3:hr>
            <ns3:cad>50</ns3:cad>
          </ns3:TrackPointExtension>
        </extensions>
      </trkpt>
      <trkpt lat="37.75951062329113483428955078125" lon="-107.71097573451697826385498046875">
        <ele>3643</ele>
        <time>2023-07-29T13:59:06.000Z</time>
        <extensions>
          <ns3:TrackPointExtension>
            <ns3:hr>94</ns3:hr>
            <ns3:cad>50</ns3:cad>
          </ns3:TrackPointExtension>
        </extensions>
      </trkpt>
      <trkpt lat="37.7595194242894649505615234375" lon="-107.7109769918024539947509765625">
        <ele>3643</ele>
        <time>2023-07-29T13:59:07.000Z</time>
        <extensions>
          <ns3:TrackPointExtension>
            <ns3:hr>95</ns3:hr>
            <ns3:cad>50</ns3:cad>
          </ns3:TrackPointExtension>
        </extensions>
      </trkpt>
      <trkpt lat="37.7595251239836215972900390625" lon="-107.71097791381180286407470703125">
        <ele>3643</ele>
        <time>2023-07-29T13:59:08.000Z</time>
        <extensions>
          <ns3:TrackPointExtension>
            <ns3:hr>95</ns3:hr>
            <ns3:cad>0</ns3:cad>
          </ns3:TrackPointExtension>
        </extensions>
      </trkpt>
      <trkpt lat="37.75954306125640869140625" lon="-107.71097724325954914093017578125">
        <ele>3643</ele>
        <time>2023-07-29T13:59:09.000Z</time>
        <extensions>
          <ns3:TrackPointExtension>
            <ns3:hr>95</ns3:hr>
            <ns3:cad>0</ns3:cad>
          </ns3:TrackPointExtension>
        </extensions>
      </trkpt>
      <trkpt lat="37.7595593221485614776611328125" lon="-107.710973136126995086669921875">
        <ele>3643</ele>
        <time>2023-07-29T13:59:10.000Z</time>
        <extensions>
          <ns3:TrackPointExtension>
            <ns3:hr>95</ns3:hr>
            <ns3:cad>0</ns3:cad>
          </ns3:TrackPointExtension>
        </extensions>
      </trkpt>
      <trkpt lat="37.759567201137542724609375" lon="-107.71097154356539249420166015625">
        <ele>3643</ele>
        <time>2023-07-29T13:59:11.000Z</time>
        <extensions>
          <ns3:TrackPointExtension>
            <ns3:hr>95</ns3:hr>
            <ns3:cad>0</ns3:cad>
          </ns3:TrackPointExtension>
        </extensions>
      </trkpt>
      <trkpt lat="37.759573571383953094482421875" lon="-107.71097154356539249420166015625">
        <ele>3643.199951171875</ele>
        <time>2023-07-29T13:59:12.000Z</time>
        <extensions>
          <ns3:TrackPointExtension>
            <ns3:hr>95</ns3:hr>
            <ns3:cad>0</ns3:cad>
          </ns3:TrackPointExtension>
        </extensions>
      </trkpt>
      <trkpt lat="37.7595806121826171875" lon="-107.71097154356539249420166015625">
        <ele>3643</ele>
        <time>2023-07-29T13:59:13.000Z</time>
        <extensions>
          <ns3:TrackPointExtension>
            <ns3:hr>95</ns3:hr>
            <ns3:cad>0</ns3:cad>
          </ns3:TrackPointExtension>
        </extensions>
      </trkpt>
      <trkpt lat="37.75958891026675701141357421875" lon="-107.7109722979366779327392578125">
        <ele>3643</ele>
        <time>2023-07-29T13:59:14.000Z</time>
        <extensions>
          <ns3:TrackPointExtension>
            <ns3:hr>95</ns3:hr>
            <ns3:cad>0</ns3:cad>
          </ns3:TrackPointExtension>
        </extensions>
      </trkpt>
      <trkpt lat="37.7595928497612476348876953125" lon="-107.710975147783756256103515625">
        <ele>3643</ele>
        <time>2023-07-29T13:59:15.000Z</time>
        <extensions>
          <ns3:TrackPointExtension>
            <ns3:hr>95</ns3:hr>
            <ns3:cad>0</ns3:cad>
          </ns3:TrackPointExtension>
        </extensions>
      </trkpt>
      <trkpt lat="37.759600393474102020263671875" lon="-107.710977494716644287109375">
        <ele>3643.199951171875</ele>
        <time>2023-07-29T13:59:16.000Z</time>
        <extensions>
          <ns3:TrackPointExtension>
            <ns3:hr>95</ns3:hr>
            <ns3:cad>0</ns3:cad>
          </ns3:TrackPointExtension>
        </extensions>
      </trkpt>
      <trkpt lat="37.75959930382668972015380859375" lon="-107.7109796740114688873291015625">
        <ele>3643.199951171875</ele>
        <time>2023-07-29T13:59:17.000Z</time>
        <extensions>
          <ns3:TrackPointExtension>
            <ns3:hr>95</ns3:hr>
            <ns3:cad>0</ns3:cad>
          </ns3:TrackPointExtension>
        </extensions>
      </trkpt>
      <trkpt lat="37.759608440101146697998046875" lon="-107.7109749801456928253173828125">
        <ele>3643.199951171875</ele>
        <time>2023-07-29T13:59:18.000Z</time>
        <extensions>
          <ns3:TrackPointExtension>
            <ns3:hr>95</ns3:hr>
            <ns3:cad>51</ns3:cad>
          </ns3:TrackPointExtension>
        </extensions>
      </trkpt>
      <trkpt lat="37.75962017476558685302734375" lon="-107.7109733037650585174560546875">
        <ele>3643.199951171875</ele>
        <time>2023-07-29T13:59:19.000Z</time>
        <extensions>
          <ns3:TrackPointExtension>
            <ns3:hr>95</ns3:hr>
            <ns3:cad>51</ns3:cad>
          </ns3:TrackPointExtension>
        </extensions>
      </trkpt>
      <trkpt lat="37.759626545011997222900390625" lon="-107.71097321994602680206298828125">
        <ele>3643.199951171875</ele>
        <time>2023-07-29T13:59:20.000Z</time>
        <extensions>
          <ns3:TrackPointExtension>
            <ns3:hr>96</ns3:hr>
            <ns3:cad>51</ns3:cad>
          </ns3:TrackPointExtension>
        </extensions>
      </trkpt>
      <trkpt lat="37.75964104570448398590087890625" lon="-107.710969448089599609375">
        <ele>3643.199951171875</ele>
        <time>2023-07-29T13:59:21.000Z</time>
        <extensions>
          <ns3:TrackPointExtension>
            <ns3:hr>95</ns3:hr>
            <ns3:cad>51</ns3:cad>
          </ns3:TrackPointExtension>
        </extensions>
      </trkpt>
      <trkpt lat="37.75965747423470020294189453125" lon="-107.71096467040479183197021484375">
        <ele>3643.199951171875</ele>
        <time>2023-07-29T13:59:22.000Z</time>
        <extensions>
          <ns3:TrackPointExtension>
            <ns3:hr>95</ns3:hr>
            <ns3:cad>48</ns3:cad>
          </ns3:TrackPointExtension>
        </extensions>
      </trkpt>
      <trkpt lat="37.759666778147220611572265625" lon="-107.710959054529666900634765625">
        <ele>3643</ele>
        <time>2023-07-29T13:59:23.000Z</time>
        <extensions>
          <ns3:TrackPointExtension>
            <ns3:hr>95</ns3:hr>
            <ns3:cad>48</ns3:cad>
          </ns3:TrackPointExtension>
        </extensions>
      </trkpt>
      <trkpt lat="37.7596803568303585052490234375" lon="-107.7109528519213199615478515625">
        <ele>3643</ele>
        <time>2023-07-29T13:59:24.000Z</time>
        <extensions>
          <ns3:TrackPointExtension>
            <ns3:hr>96</ns3:hr>
            <ns3:cad>48</ns3:cad>
          </ns3:TrackPointExtension>
        </extensions>
      </trkpt>
      <trkpt lat="37.75968882255256175994873046875" lon="-107.7109464816749095916748046875">
        <ele>3643</ele>
        <time>2023-07-29T13:59:25.000Z</time>
        <extensions>
          <ns3:TrackPointExtension>
            <ns3:hr>96</ns3:hr>
            <ns3:cad>48</ns3:cad>
          </ns3:TrackPointExtension>
        </extensions>
      </trkpt>
      <trkpt lat="37.75970743037760257720947265625" lon="-107.7109360881149768829345703125">
        <ele>3643</ele>
        <time>2023-07-29T13:59:26.000Z</time>
        <extensions>
          <ns3:TrackPointExtension>
            <ns3:hr>96</ns3:hr>
            <ns3:cad>48</ns3:cad>
          </ns3:TrackPointExtension>
        </extensions>
      </trkpt>
      <trkpt lat="37.75971539318561553955078125" lon="-107.7109305560588836669921875">
        <ele>3642.800048828125</ele>
        <time>2023-07-29T13:59:27.000Z</time>
        <extensions>
          <ns3:TrackPointExtension>
            <ns3:hr>96</ns3:hr>
            <ns3:cad>48</ns3:cad>
          </ns3:TrackPointExtension>
        </extensions>
      </trkpt>
      <trkpt lat="37.759730815887451171875" lon="-107.71091957576572895050048828125">
        <ele>3642.800048828125</ele>
        <time>2023-07-29T13:59:28.000Z</time>
        <extensions>
          <ns3:TrackPointExtension>
            <ns3:hr>96</ns3:hr>
            <ns3:cad>48</ns3:cad>
          </ns3:TrackPointExtension>
        </extensions>
      </trkpt>
      <trkpt lat="37.75974062271416187286376953125" lon="-107.7109159715473651885986328125">
        <ele>3642.800048828125</ele>
        <time>2023-07-29T13:59:29.000Z</time>
        <extensions>
          <ns3:TrackPointExtension>
            <ns3:hr>96</ns3:hr>
            <ns3:cad>48</ns3:cad>
          </ns3:TrackPointExtension>
        </extensions>
      </trkpt>
      <trkpt lat="37.75974699296057224273681640625" lon="-107.71091287024319171905517578125">
        <ele>3642.800048828125</ele>
        <time>2023-07-29T13:59:30.000Z</time>
        <extensions>
          <ns3:TrackPointExtension>
            <ns3:hr>96</ns3:hr>
            <ns3:cad>48</ns3:cad>
          </ns3:TrackPointExtension>
        </extensions>
      </trkpt>
      <trkpt lat="37.75976107455790042877197265625" lon="-107.71090700291097164154052734375">
        <ele>3642.60009765625</ele>
        <time>2023-07-29T13:59:31.000Z</time>
        <extensions>
          <ns3:TrackPointExtension>
            <ns3:hr>95</ns3:hr>
            <ns3:cad>48</ns3:cad>
          </ns3:TrackPointExtension>
        </extensions>
      </trkpt>
      <trkpt lat="37.75977565906941890716552734375" lon="-107.7109008841216564178466796875">
        <ele>3642.60009765625</ele>
        <time>2023-07-29T13:59:32.000Z</time>
        <extensions>
          <ns3:TrackPointExtension>
            <ns3:hr>95</ns3:hr>
            <ns3:cad>0</ns3:cad>
          </ns3:TrackPointExtension>
        </extensions>
      </trkpt>
      <trkpt lat="37.75979225523769855499267578125" lon="-107.71088873036205768585205078125">
        <ele>3642.60009765625</ele>
        <time>2023-07-29T13:59:33.000Z</time>
        <extensions>
          <ns3:TrackPointExtension>
            <ns3:hr>94</ns3:hr>
            <ns3:cad>0</ns3:cad>
          </ns3:TrackPointExtension>
        </extensions>
      </trkpt>
      <trkpt lat="37.759797871112823486328125" lon="-107.71088118664920330047607421875">
        <ele>3642.199951171875</ele>
        <time>2023-07-29T13:59:34.000Z</time>
        <extensions>
          <ns3:TrackPointExtension>
            <ns3:hr>93</ns3:hr>
            <ns3:cad>0</ns3:cad>
          </ns3:TrackPointExtension>
        </extensions>
      </trkpt>
      <trkpt lat="37.75980122387409210205078125" lon="-107.7108715474605560302734375">
        <ele>3642.199951171875</ele>
        <time>2023-07-29T13:59:35.000Z</time>
        <extensions>
          <ns3:TrackPointExtension>
            <ns3:hr>91</ns3:hr>
            <ns3:cad>0</ns3:cad>
          </ns3:TrackPointExtension>
        </extensions>
      </trkpt>
      <trkpt lat="37.75980717502534389495849609375" lon="-107.71085788495838642120361328125">
        <ele>3642</ele>
        <time>2023-07-29T13:59:36.000Z</time>
        <extensions>
          <ns3:TrackPointExtension>
            <ns3:hr>90</ns3:hr>
            <ns3:cad>0</ns3:cad>
          </ns3:TrackPointExtension>
        </extensions>
      </trkpt>
      <trkpt lat="37.75981329381465911865234375" lon="-107.710847742855548858642578125">
        <ele>3642</ele>
        <time>2023-07-29T13:59:37.000Z</time>
        <extensions>
          <ns3:TrackPointExtension>
            <ns3:hr>90</ns3:hr>
            <ns3:cad>0</ns3:cad>
          </ns3:TrackPointExtension>
        </extensions>
      </trkpt>
      <trkpt lat="37.75981639511883258819580078125" lon="-107.7108391933143138885498046875">
        <ele>3641.800048828125</ele>
        <time>2023-07-29T13:59:38.000Z</time>
        <extensions>
          <ns3:TrackPointExtension>
            <ns3:hr>90</ns3:hr>
            <ns3:cad>0</ns3:cad>
          </ns3:TrackPointExtension>
        </extensions>
      </trkpt>
      <trkpt lat="37.75981941260397434234619140625" lon="-107.71082838065922260284423828125">
        <ele>3641.60009765625</ele>
        <time>2023-07-29T13:59:39.000Z</time>
        <extensions>
          <ns3:TrackPointExtension>
            <ns3:hr>90</ns3:hr>
            <ns3:cad>0</ns3:cad>
          </ns3:TrackPointExtension>
        </extensions>
      </trkpt>
      <trkpt lat="37.759825028479099273681640625" lon="-107.71081144921481609344482421875">
        <ele>3641.60009765625</ele>
        <time>2023-07-29T13:59:40.000Z</time>
        <extensions>
          <ns3:TrackPointExtension>
            <ns3:hr>89</ns3:hr>
            <ns3:cad>0</ns3:cad>
          </ns3:TrackPointExtension>
        </extensions>
      </trkpt>
      <trkpt lat="37.75982628576457500457763671875" lon="-107.710800804197788238525390625">
        <ele>3641.39990234375</ele>
        <time>2023-07-29T13:59:41.000Z</time>
        <extensions>
          <ns3:TrackPointExtension>
            <ns3:hr>89</ns3:hr>
            <ns3:cad>0</ns3:cad>
          </ns3:TrackPointExtension>
        </extensions>
      </trkpt>
      <trkpt lat="37.7598305605351924896240234375" lon="-107.71079032681882381439208984375">
        <ele>3641.199951171875</ele>
        <time>2023-07-29T13:59:42.000Z</time>
        <extensions>
          <ns3:TrackPointExtension>
            <ns3:hr>89</ns3:hr>
            <ns3:cad>0</ns3:cad>
          </ns3:TrackPointExtension>
        </extensions>
      </trkpt>
      <trkpt lat="37.759833075106143951416015625" lon="-107.71078663878142833709716796875">
        <ele>3641.199951171875</ele>
        <time>2023-07-29T13:59:43.000Z</time>
        <extensions>
          <ns3:TrackPointExtension>
            <ns3:hr>89</ns3:hr>
            <ns3:cad>0</ns3:cad>
          </ns3:TrackPointExtension>
        </extensions>
      </trkpt>
      <trkpt lat="37.75983751751482486724853515625" lon="-107.71077859215438365936279296875">
        <ele>3640.800048828125</ele>
        <time>2023-07-29T13:59:44.000Z</time>
        <extensions>
          <ns3:TrackPointExtension>
            <ns3:hr>89</ns3:hr>
            <ns3:cad>53</ns3:cad>
          </ns3:TrackPointExtension>
        </extensions>
      </trkpt>
      <trkpt lat="37.75983852334320545196533203125" lon="-107.71077775396406650543212890625">
        <ele>3640.800048828125</ele>
        <time>2023-07-29T13:59:45.000Z</time>
        <extensions>
          <ns3:TrackPointExtension>
            <ns3:hr>89</ns3:hr>
            <ns3:cad>53</ns3:cad>
          </ns3:TrackPointExtension>
        </extensions>
      </trkpt>
      <trkpt lat="37.75983952917158603668212890625" lon="-107.710780017077922821044921875">
        <ele>3640.800048828125</ele>
        <time>2023-07-29T13:59:46.000Z</time>
        <extensions>
          <ns3:TrackPointExtension>
            <ns3:hr>89</ns3:hr>
            <ns3:cad>0</ns3:cad>
          </ns3:TrackPointExtension>
        </extensions>
      </trkpt>
      <trkpt lat="37.75983919389545917510986328125" lon="-107.71078144200146198272705078125">
        <ele>3640.39990234375</ele>
        <time>2023-07-29T13:59:47.000Z</time>
        <extensions>
          <ns3:TrackPointExtension>
            <ns3:hr>89</ns3:hr>
            <ns3:cad>0</ns3:cad>
          </ns3:TrackPointExtension>
        </extensions>
      </trkpt>
      <trkpt lat="37.759837098419666290283203125" lon="-107.7107835374772548675537109375">
        <ele>3640.39990234375</ele>
        <time>2023-07-29T13:59:48.000Z</time>
        <extensions>
          <ns3:TrackPointExtension>
            <ns3:hr>89</ns3:hr>
            <ns3:cad>0</ns3:cad>
          </ns3:TrackPointExtension>
        </extensions>
      </trkpt>
      <trkpt lat="37.759835422039031982421875" lon="-107.71078160963952541351318359375">
        <ele>3640.199951171875</ele>
        <time>2023-07-29T13:59:49.000Z</time>
        <extensions>
          <ns3:TrackPointExtension>
            <ns3:hr>88</ns3:hr>
            <ns3:cad>0</ns3:cad>
          </ns3:TrackPointExtension>
        </extensions>
      </trkpt>
      <trkpt lat="37.75983475148677825927734375" lon="-107.7107798494398593902587890625">
        <ele>3640.199951171875</ele>
        <time>2023-07-29T13:59:50.000Z</time>
        <extensions>
          <ns3:TrackPointExtension>
            <ns3:hr>88</ns3:hr>
            <ns3:cad>0</ns3:cad>
          </ns3:TrackPointExtension>
        </extensions>
      </trkpt>
      <trkpt lat="37.759834416210651397705078125" lon="-107.7107778377830982208251953125">
        <ele>3640</ele>
        <time>2023-07-29T13:59:51.000Z</time>
        <extensions>
          <ns3:TrackPointExtension>
            <ns3:hr>88</ns3:hr>
            <ns3:cad>0</ns3:cad>
          </ns3:TrackPointExtension>
        </extensions>
      </trkpt>
      <trkpt lat="37.75983114726841449737548828125" lon="-107.71077373065054416656494140625">
        <ele>3640</ele>
        <time>2023-07-29T13:59:52.000Z</time>
        <extensions>
          <ns3:TrackPointExtension>
            <ns3:hr>87</ns3:hr>
            <ns3:cad>0</ns3:cad>
          </ns3:TrackPointExtension>
        </extensions>
      </trkpt>
      <trkpt lat="37.7598332427442073822021484375" lon="-107.7107684500515460968017578125">
        <ele>3640</ele>
        <time>2023-07-29T13:59:53.000Z</time>
        <extensions>
          <ns3:TrackPointExtension>
            <ns3:hr>86</ns3:hr>
            <ns3:cad>0</ns3:cad>
          </ns3:TrackPointExtension>
        </extensions>
      </trkpt>
      <trkpt lat="37.75983349420130252838134765625" lon="-107.7107654325664043426513671875">
        <ele>3640</ele>
        <time>2023-07-29T13:59:54.000Z</time>
        <extensions>
          <ns3:TrackPointExtension>
            <ns3:hr>84</ns3:hr>
            <ns3:cad>0</ns3:cad>
          </ns3:TrackPointExtension>
        </extensions>
      </trkpt>
      <trkpt lat="37.75983399711549282073974609375" lon="-107.710762582719326019287109375">
        <ele>3640</ele>
        <time>2023-07-29T13:59:55.000Z</time>
        <extensions>
          <ns3:TrackPointExtension>
            <ns3:hr>83</ns3:hr>
            <ns3:cad>0</ns3:cad>
          </ns3:TrackPointExtension>
        </extensions>
      </trkpt>
      <trkpt lat="37.75983349420130252838134765625" lon="-107.710767276585102081298828125">
        <ele>3640</ele>
        <time>2023-07-29T13:59:56.000Z</time>
        <extensions>
          <ns3:TrackPointExtension>
            <ns3:hr>82</ns3:hr>
            <ns3:cad>0</ns3:cad>
          </ns3:TrackPointExtension>
        </extensions>
      </trkpt>
      <trkpt lat="37.75983014144003391265869140625" lon="-107.71077021025121212005615234375">
        <ele>3640</ele>
        <time>2023-07-29T13:59:57.000Z</time>
        <extensions>
          <ns3:TrackPointExtension>
            <ns3:hr>81</ns3:hr>
            <ns3:cad>0</ns3:cad>
          </ns3:TrackPointExtension>
        </extensions>
      </trkpt>
      <trkpt lat="37.7598302252590656280517578125" lon="-107.710771970450878143310546875">
        <ele>3640</ele>
        <time>2023-07-29T13:59:58.000Z</time>
        <extensions>
          <ns3:TrackPointExtension>
            <ns3:hr>80</ns3:hr>
            <ns3:cad>0</ns3:cad>
          </ns3:TrackPointExtension>
        </extensions>
      </trkpt>
      <trkpt lat="37.759830057621002197265625" lon="-107.7107718028128147125244140625">
        <ele>3640</ele>
        <time>2023-07-29T13:59:59.000Z</time>
        <extensions>
          <ns3:TrackPointExtension>
            <ns3:hr>79</ns3:hr>
            <ns3:cad>0</ns3:cad>
          </ns3:TrackPointExtension>
        </extensions>
      </trkpt>
      <trkpt lat="37.75983014144003391265869140625" lon="-107.71076803095638751983642578125">
        <ele>3640.199951171875</ele>
        <time>2023-07-29T14:00:00.000Z</time>
        <extensions>
          <ns3:TrackPointExtension>
            <ns3:hr>77</ns3:hr>
            <ns3:cad>0</ns3:cad>
          </ns3:TrackPointExtension>
        </extensions>
      </trkpt>
      <trkpt lat="37.75983215309679508209228515625" lon="-107.7107654325664043426513671875">
        <ele>3640.199951171875</ele>
        <time>2023-07-29T14:00:01.000Z</time>
        <extensions>
          <ns3:TrackPointExtension>
            <ns3:hr>77</ns3:hr>
            <ns3:cad>0</ns3:cad>
          </ns3:TrackPointExtension>
        </extensions>
      </trkpt>
      <trkpt lat="37.75983349420130252838134765625" lon="-107.71076618693768978118896484375">
        <ele>3640.199951171875</ele>
        <time>2023-07-29T14:00:02.000Z</time>
        <extensions>
          <ns3:TrackPointExtension>
            <ns3:hr>76</ns3:hr>
            <ns3:cad>0</ns3:cad>
          </ns3:TrackPointExtension>
        </extensions>
      </trkpt>
      <trkpt lat="37.7598369307816028594970703125" lon="-107.71077406592667102813720703125">
        <ele>3640.199951171875</ele>
        <time>2023-07-29T14:00:03.000Z</time>
        <extensions>
          <ns3:TrackPointExtension>
            <ns3:hr>76</ns3:hr>
            <ns3:cad>0</ns3:cad>
          </ns3:TrackPointExtension>
        </extensions>
      </trkpt>
      <trkpt lat="37.7598394453525543212890625" lon="-107.7107761614024639129638671875">
        <ele>3640.199951171875</ele>
        <time>2023-07-29T14:00:04.000Z</time>
        <extensions>
          <ns3:TrackPointExtension>
            <ns3:hr>76</ns3:hr>
            <ns3:cad>0</ns3:cad>
          </ns3:TrackPointExtension>
        </extensions>
      </trkpt>
      <trkpt lat="37.75984279811382293701171875" lon="-107.71077423356473445892333984375">
        <ele>3640.199951171875</ele>
        <time>2023-07-29T14:00:05.000Z</time>
        <extensions>
          <ns3:TrackPointExtension>
            <ns3:hr>77</ns3:hr>
            <ns3:cad>0</ns3:cad>
          </ns3:TrackPointExtension>
        </extensions>
      </trkpt>
      <trkpt lat="37.75984321720898151397705078125" lon="-107.71077792160212993621826171875">
        <ele>3640.199951171875</ele>
        <time>2023-07-29T14:00:06.000Z</time>
        <extensions>
          <ns3:TrackPointExtension>
            <ns3:hr>77</ns3:hr>
            <ns3:cad>0</ns3:cad>
          </ns3:TrackPointExtension>
        </extensions>
      </trkpt>
      <trkpt lat="37.7598459832370281219482421875" lon="-107.7107791788876056671142578125">
        <ele>3640</ele>
        <time>2023-07-29T14:00:07.000Z</time>
        <extensions>
          <ns3:TrackPointExtension>
            <ns3:hr>77</ns3:hr>
            <ns3:cad>0</ns3:cad>
          </ns3:TrackPointExtension>
        </extensions>
      </trkpt>
      <trkpt lat="37.759849168360233306884765625" lon="-107.71077758632600307464599609375">
        <ele>3640</ele>
        <time>2023-07-29T14:00:08.000Z</time>
        <extensions>
          <ns3:TrackPointExtension>
            <ns3:hr>77</ns3:hr>
            <ns3:cad>0</ns3:cad>
          </ns3:TrackPointExtension>
        </extensions>
      </trkpt>
      <trkpt lat="37.759853862226009368896484375" lon="-107.71077406592667102813720703125">
        <ele>3639.800048828125</ele>
        <time>2023-07-29T14:00:09.000Z</time>
        <extensions>
          <ns3:TrackPointExtension>
            <ns3:hr>76</ns3:hr>
            <ns3:cad>0</ns3:cad>
          </ns3:TrackPointExtension>
        </extensions>
      </trkpt>
      <trkpt lat="37.7598627470433712005615234375" lon="-107.71076761186122894287109375">
        <ele>3639.60009765625</ele>
        <time>2023-07-29T14:00:10.000Z</time>
        <extensions>
          <ns3:TrackPointExtension>
            <ns3:hr>76</ns3:hr>
            <ns3:cad>0</ns3:cad>
          </ns3:TrackPointExtension>
        </extensions>
      </trkpt>
      <trkpt lat="37.7598689496517181396484375" lon="-107.7107587270438671112060546875">
        <ele>3639.60009765625</ele>
        <time>2023-07-29T14:00:11.000Z</time>
        <extensions>
          <ns3:TrackPointExtension>
            <ns3:hr>76</ns3:hr>
            <ns3:cad>50</ns3:cad>
          </ns3:TrackPointExtension>
        </extensions>
      </trkpt>
      <trkpt lat="37.759875990450382232666015625" lon="-107.7107500098645687103271484375">
        <ele>3639.39990234375</ele>
        <time>2023-07-29T14:00:12.000Z</time>
        <extensions>
          <ns3:TrackPointExtension>
            <ns3:hr>76</ns3:hr>
            <ns3:cad>50</ns3:cad>
          </ns3:TrackPointExtension>
        </extensions>
      </trkpt>
      <trkpt lat="37.7598788402974605560302734375" lon="-107.71073902957141399383544921875">
        <ele>3639.39990234375</ele>
        <time>2023-07-29T14:00:13.000Z</time>
        <extensions>
          <ns3:TrackPointExtension>
            <ns3:hr>76</ns3:hr>
            <ns3:cad>43</ns3:cad>
          </ns3:TrackPointExtension>
        </extensions>
      </trkpt>
      <trkpt lat="37.75988277979195117950439453125" lon="-107.71072846837341785430908203125">
        <ele>3639.39990234375</ele>
        <time>2023-07-29T14:00:14.000Z</time>
        <extensions>
          <ns3:TrackPointExtension>
            <ns3:hr>76</ns3:hr>
            <ns3:cad>43</ns3:cad>
          </ns3:TrackPointExtension>
        </extensions>
      </trkpt>
      <trkpt lat="37.7598895691335201263427734375" lon="-107.7107121236622333526611328125">
        <ele>3639.199951171875</ele>
        <time>2023-07-29T14:00:15.000Z</time>
        <extensions>
          <ns3:TrackPointExtension>
            <ns3:hr>77</ns3:hr>
            <ns3:cad>0</ns3:cad>
          </ns3:TrackPointExtension>
        </extensions>
      </trkpt>
      <trkpt lat="37.75988764129579067230224609375" lon="-107.7107111178338527679443359375">
        <ele>3639.199951171875</ele>
        <time>2023-07-29T14:00:16.000Z</time>
        <extensions>
          <ns3:TrackPointExtension>
            <ns3:hr>77</ns3:hr>
            <ns3:cad>0</ns3:cad>
          </ns3:TrackPointExtension>
        </extensions>
      </trkpt>
      <trkpt lat="37.7598885633051395416259765625" lon="-107.7107106149196624755859375">
        <ele>3639.199951171875</ele>
        <time>2023-07-29T14:00:17.000Z</time>
        <extensions>
          <ns3:TrackPointExtension>
            <ns3:hr>78</ns3:hr>
            <ns3:cad>0</ns3:cad>
          </ns3:TrackPointExtension>
        </extensions>
      </trkpt>
      <trkpt lat="37.75989216752350330352783203125" lon="-107.710705585777759552001953125">
        <ele>3639</ele>
        <time>2023-07-29T14:00:18.000Z</time>
        <extensions>
          <ns3:TrackPointExtension>
            <ns3:hr>78</ns3:hr>
            <ns3:cad>0</ns3:cad>
          </ns3:TrackPointExtension>
        </extensions>
      </trkpt>
      <trkpt lat="37.75989568792283535003662109375" lon="-107.7107000537216663360595703125">
        <ele>3638.800048828125</ele>
        <time>2023-07-29T14:00:19.000Z</time>
        <extensions>
          <ns3:TrackPointExtension>
            <ns3:hr>79</ns3:hr>
            <ns3:cad>0</ns3:cad>
          </ns3:TrackPointExtension>
        </extensions>
      </trkpt>
      <trkpt lat="37.75990021415054798126220703125" lon="-107.710697539150714874267578125">
        <ele>3638.800048828125</ele>
        <time>2023-07-29T14:00:20.000Z</time>
        <extensions>
          <ns3:TrackPointExtension>
            <ns3:hr>79</ns3:hr>
            <ns3:cad>0</ns3:cad>
          </ns3:TrackPointExtension>
        </extensions>
      </trkpt>
      <trkpt lat="37.75990507565438747406005859375" lon="-107.71069586277008056640625">
        <ele>3638.800048828125</ele>
        <time>2023-07-29T14:00:21.000Z</time>
        <extensions>
          <ns3:TrackPointExtension>
            <ns3:hr>79</ns3:hr>
            <ns3:cad>0</ns3:cad>
          </ns3:TrackPointExtension>
        </extensions>
      </trkpt>
      <trkpt lat="37.75991127826273441314697265625" lon="-107.71069795824587345123291015625">
        <ele>3638.800048828125</ele>
        <time>2023-07-29T14:00:22.000Z</time>
        <extensions>
          <ns3:TrackPointExtension>
            <ns3:hr>79</ns3:hr>
            <ns3:cad>0</ns3:cad>
          </ns3:TrackPointExtension>
        </extensions>
      </trkpt>
      <trkpt lat="37.75992401875555515289306640625" lon="-107.7106980420649051666259765625">
        <ele>3638.60009765625</ele>
        <time>2023-07-29T14:00:23.000Z</time>
        <extensions>
          <ns3:TrackPointExtension>
            <ns3:hr>79</ns3:hr>
            <ns3:cad>0</ns3:cad>
          </ns3:TrackPointExtension>
        </extensions>
      </trkpt>
      <trkpt lat="37.75993223302066326141357421875" lon="-107.71069728769361972808837890625">
        <ele>3638.60009765625</ele>
        <time>2023-07-29T14:00:24.000Z</time>
        <extensions>
          <ns3:TrackPointExtension>
            <ns3:hr>80</ns3:hr>
            <ns3:cad>0</ns3:cad>
          </ns3:TrackPointExtension>
        </extensions>
      </trkpt>
      <trkpt lat="37.7599361725151538848876953125" lon="-107.71069359965622425079345703125">
        <ele>3638.39990234375</ele>
        <time>2023-07-29T14:00:25.000Z</time>
        <extensions>
          <ns3:TrackPointExtension>
            <ns3:hr>80</ns3:hr>
            <ns3:cad>0</ns3:cad>
          </ns3:TrackPointExtension>
        </extensions>
      </trkpt>
      <trkpt lat="37.75994162075221538543701171875" lon="-107.71069443784654140472412109375">
        <ele>3638.199951171875</ele>
        <time>2023-07-29T14:00:26.000Z</time>
        <extensions>
          <ns3:TrackPointExtension>
            <ns3:hr>80</ns3:hr>
            <ns3:cad>0</ns3:cad>
          </ns3:TrackPointExtension>
        </extensions>
      </trkpt>
      <trkpt lat="37.7599520981311798095703125" lon="-107.71069175563752651214599609375">
        <ele>3638.199951171875</ele>
        <time>2023-07-29T14:00:27.000Z</time>
        <extensions>
          <ns3:TrackPointExtension>
            <ns3:hr>80</ns3:hr>
            <ns3:cad>0</ns3:cad>
          </ns3:TrackPointExtension>
        </extensions>
      </trkpt>
      <trkpt lat="37.75995855219662189483642578125" lon="-107.71068848669528961181640625">
        <ele>3638</ele>
        <time>2023-07-29T14:00:28.000Z</time>
        <extensions>
          <ns3:TrackPointExtension>
            <ns3:hr>80</ns3:hr>
            <ns3:cad>0</ns3:cad>
          </ns3:TrackPointExtension>
        </extensions>
      </trkpt>
      <trkpt lat="37.75996676646173000335693359375" lon="-107.710684798657894134521484375">
        <ele>3638</ele>
        <time>2023-07-29T14:00:29.000Z</time>
        <extensions>
          <ns3:TrackPointExtension>
            <ns3:hr>80</ns3:hr>
            <ns3:cad>0</ns3:cad>
          </ns3:TrackPointExtension>
        </extensions>
      </trkpt>
      <trkpt lat="37.7599700354039669036865234375" lon="-107.7106809429824352264404296875">
        <ele>3637.800048828125</ele>
        <time>2023-07-29T14:00:30.000Z</time>
        <extensions>
          <ns3:TrackPointExtension>
            <ns3:hr>79</ns3:hr>
            <ns3:cad>0</ns3:cad>
          </ns3:TrackPointExtension>
        </extensions>
      </trkpt>
      <trkpt lat="37.759971879422664642333984375" lon="-107.71067851223051548004150390625">
        <ele>3637.800048828125</ele>
        <time>2023-07-29T14:00:31.000Z</time>
        <extensions>
          <ns3:TrackPointExtension>
            <ns3:hr>78</ns3:hr>
            <ns3:cad>0</ns3:cad>
          </ns3:TrackPointExtension>
        </extensions>
      </trkpt>
      <trkpt lat="37.75997062213718891143798828125" lon="-107.7106784284114837646484375">
        <ele>3637.60009765625</ele>
        <time>2023-07-29T14:00:32.000Z</time>
        <extensions>
          <ns3:TrackPointExtension>
            <ns3:hr>78</ns3:hr>
            <ns3:cad>0</ns3:cad>
          </ns3:TrackPointExtension>
        </extensions>
      </trkpt>
      <trkpt lat="37.7599700354039669036865234375" lon="-107.7106802724301815032958984375">
        <ele>3637.60009765625</ele>
        <time>2023-07-29T14:00:33.000Z</time>
        <extensions>
          <ns3:TrackPointExtension>
            <ns3:hr>78</ns3:hr>
            <ns3:cad>0</ns3:cad>
          </ns3:TrackPointExtension>
        </extensions>
      </trkpt>
      <trkpt lat="37.75997414253652095794677734375" lon="-107.710678763687610626220703125">
        <ele>3637.60009765625</ele>
        <time>2023-07-29T14:00:34.000Z</time>
        <extensions>
          <ns3:TrackPointExtension>
            <ns3:hr>77</ns3:hr>
            <ns3:cad>0</ns3:cad>
          </ns3:TrackPointExtension>
        </extensions>
      </trkpt>
      <trkpt lat="37.759985625743865966796875" lon="-107.71067365072667598724365234375">
        <ele>3637.60009765625</ele>
        <time>2023-07-29T14:00:35.000Z</time>
        <extensions>
          <ns3:TrackPointExtension>
            <ns3:hr>77</ns3:hr>
            <ns3:cad>0</ns3:cad>
          </ns3:TrackPointExtension>
        </extensions>
      </trkpt>
      <trkpt lat="37.7599931694567203521728515625" lon="-107.7106715552508831024169921875">
        <ele>3637.60009765625</ele>
        <time>2023-07-29T14:00:36.000Z</time>
        <extensions>
          <ns3:TrackPointExtension>
            <ns3:hr>77</ns3:hr>
            <ns3:cad>0</ns3:cad>
          </ns3:TrackPointExtension>
        </extensions>
      </trkpt>
      <trkpt lat="37.76000012643635272979736328125" lon="-107.71066795103251934051513671875">
        <ele>3637.60009765625</ele>
        <time>2023-07-29T14:00:37.000Z</time>
        <extensions>
          <ns3:TrackPointExtension>
            <ns3:hr>76</ns3:hr>
            <ns3:cad>0</ns3:cad>
          </ns3:TrackPointExtension>
        </extensions>
      </trkpt>
      <trkpt lat="37.760006077587604522705078125" lon="-107.71066443063318729400634765625">
        <ele>3637.60009765625</ele>
        <time>2023-07-29T14:00:38.000Z</time>
        <extensions>
          <ns3:TrackPointExtension>
            <ns3:hr>74</ns3:hr>
            <ns3:cad>0</ns3:cad>
          </ns3:TrackPointExtension>
        </extensions>
      </trkpt>
      <trkpt lat="37.76000884361565113067626953125" lon="-107.7106604911386966705322265625">
        <ele>3637.60009765625</ele>
        <time>2023-07-29T14:00:39.000Z</time>
        <extensions>
          <ns3:TrackPointExtension>
            <ns3:hr>73</ns3:hr>
            <ns3:cad>0</ns3:cad>
          </ns3:TrackPointExtension>
        </extensions>
      </trkpt>
      <trkpt lat="37.76001454330980777740478515625" lon="-107.71065940149128437042236328125">
        <ele>3637.60009765625</ele>
        <time>2023-07-29T14:00:40.000Z</time>
        <extensions>
          <ns3:TrackPointExtension>
            <ns3:hr>73</ns3:hr>
            <ns3:cad>47</ns3:cad>
          </ns3:TrackPointExtension>
        </extensions>
      </trkpt>
      <trkpt lat="37.76001990772783756256103515625" lon="-107.71065923385322093963623046875">
        <ele>3637.39990234375</ele>
        <time>2023-07-29T14:00:41.000Z</time>
        <extensions>
          <ns3:TrackPointExtension>
            <ns3:hr>73</ns3:hr>
            <ns3:cad>47</ns3:cad>
          </ns3:TrackPointExtension>
        </extensions>
      </trkpt>
      <trkpt lat="37.76002384722232818603515625" lon="-107.7106623351573944091796875">
        <ele>3637.199951171875</ele>
        <time>2023-07-29T14:00:42.000Z</time>
        <extensions>
          <ns3:TrackPointExtension>
            <ns3:hr>73</ns3:hr>
            <ns3:cad>47</ns3:cad>
          </ns3:TrackPointExtension>
        </extensions>
      </trkpt>
      <trkpt lat="37.76003533042967319488525390625" lon="-107.7106611616909503936767578125">
        <ele>3637</ele>
        <time>2023-07-29T14:00:43.000Z</time>
        <extensions>
          <ns3:TrackPointExtension>
            <ns3:hr>73</ns3:hr>
            <ns3:cad>47</ns3:cad>
          </ns3:TrackPointExtension>
        </extensions>
      </trkpt>
      <trkpt lat="37.7600448019802570343017578125" lon="-107.71065898239612579345703125">
        <ele>3637</ele>
        <time>2023-07-29T14:00:44.000Z</time>
        <extensions>
          <ns3:TrackPointExtension>
            <ns3:hr>73</ns3:hr>
            <ns3:cad>0</ns3:cad>
          </ns3:TrackPointExtension>
        </extensions>
      </trkpt>
      <trkpt lat="37.7600535191595554351806640625" lon="-107.71065554581582546234130859375">
        <ele>3637</ele>
        <time>2023-07-29T14:00:45.000Z</time>
        <extensions>
          <ns3:TrackPointExtension>
            <ns3:hr>73</ns3:hr>
            <ns3:cad>0</ns3:cad>
          </ns3:TrackPointExtension>
        </extensions>
      </trkpt>
      <trkpt lat="37.76005871593952178955078125" lon="-107.71065453998744487762451171875">
        <ele>3637</ele>
        <time>2023-07-29T14:00:46.000Z</time>
        <extensions>
          <ns3:TrackPointExtension>
            <ns3:hr>73</ns3:hr>
            <ns3:cad>0</ns3:cad>
          </ns3:TrackPointExtension>
        </extensions>
      </trkpt>
      <trkpt lat="37.76007170788943767547607421875" lon="-107.71065093576908111572265625">
        <ele>3637</ele>
        <time>2023-07-29T14:00:47.000Z</time>
        <extensions>
          <ns3:TrackPointExtension>
            <ns3:hr>73</ns3:hr>
            <ns3:cad>0</ns3:cad>
          </ns3:TrackPointExtension>
        </extensions>
      </trkpt>
      <trkpt lat="37.7600808441638946533203125" lon="-107.71064749918878078460693359375">
        <ele>3637</ele>
        <time>2023-07-29T14:00:48.000Z</time>
        <extensions>
          <ns3:TrackPointExtension>
            <ns3:hr>73</ns3:hr>
            <ns3:cad>0</ns3:cad>
          </ns3:TrackPointExtension>
        </extensions>
      </trkpt>
      <trkpt lat="37.7600947581231594085693359375" lon="-107.710646577179431915283203125">
        <ele>3636.800048828125</ele>
        <time>2023-07-29T14:00:49.000Z</time>
        <extensions>
          <ns3:TrackPointExtension>
            <ns3:hr>73</ns3:hr>
            <ns3:cad>0</ns3:cad>
          </ns3:TrackPointExtension>
        </extensions>
      </trkpt>
      <trkpt lat="37.7601058222353458404541015625" lon="-107.71064531989395618438720703125">
        <ele>3636.800048828125</ele>
        <time>2023-07-29T14:00:50.000Z</time>
        <extensions>
          <ns3:TrackPointExtension>
            <ns3:hr>73</ns3:hr>
            <ns3:cad>0</ns3:cad>
          </ns3:TrackPointExtension>
        </extensions>
      </trkpt>
      <trkpt lat="37.76011110283434391021728515625" lon="-107.71064464934170246124267578125">
        <ele>3636.800048828125</ele>
        <time>2023-07-29T14:00:51.000Z</time>
        <extensions>
          <ns3:TrackPointExtension>
            <ns3:hr>73</ns3:hr>
            <ns3:cad>0</ns3:cad>
          </ns3:TrackPointExtension>
        </extensions>
      </trkpt>
      <trkpt lat="37.76012082584202289581298828125" lon="-107.7106437273323535919189453125">
        <ele>3636.60009765625</ele>
        <time>2023-07-29T14:00:52.000Z</time>
        <extensions>
          <ns3:TrackPointExtension>
            <ns3:hr>73</ns3:hr>
            <ns3:cad>0</ns3:cad>
          </ns3:TrackPointExtension>
        </extensions>
      </trkpt>
      <trkpt lat="37.7601299621164798736572265625" lon="-107.7106427215039730072021484375">
        <ele>3636.60009765625</ele>
        <time>2023-07-29T14:00:53.000Z</time>
        <extensions>
          <ns3:TrackPointExtension>
            <ns3:hr>73</ns3:hr>
            <ns3:cad>0</ns3:cad>
          </ns3:TrackPointExtension>
        </extensions>
      </trkpt>
      <trkpt lat="37.76014161296188831329345703125" lon="-107.7106420509517192840576171875">
        <ele>3636.60009765625</ele>
        <time>2023-07-29T14:00:54.000Z</time>
        <extensions>
          <ns3:TrackPointExtension>
            <ns3:hr>73</ns3:hr>
            <ns3:cad>0</ns3:cad>
          </ns3:TrackPointExtension>
        </extensions>
      </trkpt>
      <trkpt lat="37.76015234179794788360595703125" lon="-107.7106417156755924224853515625">
        <ele>3636.39990234375</ele>
        <time>2023-07-29T14:00:55.000Z</time>
        <extensions>
          <ns3:TrackPointExtension>
            <ns3:hr>73</ns3:hr>
            <ns3:cad>0</ns3:cad>
          </ns3:TrackPointExtension>
        </extensions>
      </trkpt>
      <trkpt lat="37.760157287120819091796875" lon="-107.71064213477075099945068359375">
        <ele>3636.39990234375</ele>
        <time>2023-07-29T14:00:56.000Z</time>
        <extensions>
          <ns3:TrackPointExtension>
            <ns3:hr>73</ns3:hr>
            <ns3:cad>0</ns3:cad>
          </ns3:TrackPointExtension>
        </extensions>
      </trkpt>
      <trkpt lat="37.7601639926433563232421875" lon="-107.7106440626084804534912109375">
        <ele>3636.39990234375</ele>
        <time>2023-07-29T14:00:57.000Z</time>
        <extensions>
          <ns3:TrackPointExtension>
            <ns3:hr>73</ns3:hr>
            <ns3:cad>0</ns3:cad>
          </ns3:TrackPointExtension>
        </extensions>
      </trkpt>
      <trkpt lat="37.76017270982265472412109375" lon="-107.71064062602818012237548828125">
        <ele>3636.39990234375</ele>
        <time>2023-07-29T14:00:58.000Z</time>
        <extensions>
          <ns3:TrackPointExtension>
            <ns3:hr>73</ns3:hr>
            <ns3:cad>0</ns3:cad>
          </ns3:TrackPointExtension>
        </extensions>
      </trkpt>
      <trkpt lat="37.7601792477071285247802734375" lon="-107.710637860000133514404296875">
        <ele>3636.39990234375</ele>
        <time>2023-07-29T14:00:59.000Z</time>
        <extensions>
          <ns3:TrackPointExtension>
            <ns3:hr>74</ns3:hr>
            <ns3:cad>0</ns3:cad>
          </ns3:TrackPointExtension>
        </extensions>
      </trkpt>
      <trkpt lat="37.760191150009632110595703125" lon="-107.71063408814370632171630859375">
        <ele>3636.199951171875</ele>
        <time>2023-07-29T14:01:00.000Z</time>
        <extensions>
          <ns3:TrackPointExtension>
            <ns3:hr>75</ns3:hr>
            <ns3:cad>0</ns3:cad>
          </ns3:TrackPointExtension>
        </extensions>
      </trkpt>
      <trkpt lat="37.76020489633083343505859375" lon="-107.71063123829662799835205078125">
        <ele>3636.199951171875</ele>
        <time>2023-07-29T14:01:01.000Z</time>
        <extensions>
          <ns3:TrackPointExtension>
            <ns3:hr>79</ns3:hr>
            <ns3:cad>0</ns3:cad>
          </ns3:TrackPointExtension>
        </extensions>
      </trkpt>
      <trkpt lat="37.76021420024335384368896484375" lon="-107.71062972955405712127685546875">
        <ele>3636.199951171875</ele>
        <time>2023-07-29T14:01:02.000Z</time>
        <extensions>
          <ns3:TrackPointExtension>
            <ns3:hr>79</ns3:hr>
            <ns3:cad>0</ns3:cad>
          </ns3:TrackPointExtension>
        </extensions>
      </trkpt>
      <trkpt lat="37.76022501289844512939453125" lon="-107.71062989719212055206298828125">
        <ele>3636</ele>
        <time>2023-07-29T14:01:03.000Z</time>
        <extensions>
          <ns3:TrackPointExtension>
            <ns3:hr>80</ns3:hr>
            <ns3:cad>0</ns3:cad>
          </ns3:TrackPointExtension>
        </extensions>
      </trkpt>
      <trkpt lat="37.76023381389677524566650390625" lon="-107.71062805317342281341552734375">
        <ele>3636</ele>
        <time>2023-07-29T14:01:04.000Z</time>
        <extensions>
          <ns3:TrackPointExtension>
            <ns3:hr>80</ns3:hr>
            <ns3:cad>0</ns3:cad>
          </ns3:TrackPointExtension>
        </extensions>
      </trkpt>
      <trkpt lat="37.76024001650512218475341796875" lon="-107.71062905900180339813232421875">
        <ele>3636</ele>
        <time>2023-07-29T14:01:05.000Z</time>
        <extensions>
          <ns3:TrackPointExtension>
            <ns3:hr>80</ns3:hr>
            <ns3:cad>0</ns3:cad>
          </ns3:TrackPointExtension>
        </extensions>
      </trkpt>
      <trkpt lat="37.76025317609310150146484375" lon="-107.71062738262116909027099609375">
        <ele>3636</ele>
        <time>2023-07-29T14:01:06.000Z</time>
        <extensions>
          <ns3:TrackPointExtension>
            <ns3:hr>79</ns3:hr>
            <ns3:cad>0</ns3:cad>
          </ns3:TrackPointExtension>
        </extensions>
      </trkpt>
      <trkpt lat="37.76025854051113128662109375" lon="-107.71062520332634449005126953125">
        <ele>3636</ele>
        <time>2023-07-29T14:01:07.000Z</time>
        <extensions>
          <ns3:TrackPointExtension>
            <ns3:hr>79</ns3:hr>
            <ns3:cad>0</ns3:cad>
          </ns3:TrackPointExtension>
        </extensions>
      </trkpt>
      <trkpt lat="37.76026801206171512603759765625" lon="-107.71062553860247135162353515625">
        <ele>3635.800048828125</ele>
        <time>2023-07-29T14:01:08.000Z</time>
        <extensions>
          <ns3:TrackPointExtension>
            <ns3:hr>79</ns3:hr>
            <ns3:cad>0</ns3:cad>
          </ns3:TrackPointExtension>
        </extensions>
      </trkpt>
      <trkpt lat="37.7602831833064556121826171875" lon="-107.71062503568828105926513671875">
        <ele>3635.800048828125</ele>
        <time>2023-07-29T14:01:09.000Z</time>
        <extensions>
          <ns3:TrackPointExtension>
            <ns3:hr>79</ns3:hr>
            <ns3:cad>0</ns3:cad>
          </ns3:TrackPointExtension>
        </extensions>
      </trkpt>
      <trkpt lat="37.76029014028608798980712890625" lon="-107.71062545478343963623046875">
        <ele>3635.800048828125</ele>
        <time>2023-07-29T14:01:10.000Z</time>
        <extensions>
          <ns3:TrackPointExtension>
            <ns3:hr>79</ns3:hr>
            <ns3:cad>0</ns3:cad>
          </ns3:TrackPointExtension>
        </extensions>
      </trkpt>
      <trkpt lat="37.76029609143733978271484375" lon="-107.71062369458377361297607421875">
        <ele>3635.60009765625</ele>
        <time>2023-07-29T14:01:11.000Z</time>
        <extensions>
          <ns3:TrackPointExtension>
            <ns3:hr>79</ns3:hr>
            <ns3:cad>0</ns3:cad>
          </ns3:TrackPointExtension>
        </extensions>
      </trkpt>
      <trkpt lat="37.7603016234934329986572265625" lon="-107.710623107850551605224609375">
        <ele>3635.60009765625</ele>
        <time>2023-07-29T14:01:12.000Z</time>
        <extensions>
          <ns3:TrackPointExtension>
            <ns3:hr>79</ns3:hr>
            <ns3:cad>0</ns3:cad>
          </ns3:TrackPointExtension>
        </extensions>
      </trkpt>
      <trkpt lat="37.76031218469142913818359375" lon="-107.71062453277409076690673828125">
        <ele>3635.60009765625</ele>
        <time>2023-07-29T14:01:13.000Z</time>
        <extensions>
          <ns3:TrackPointExtension>
            <ns3:hr>79</ns3:hr>
            <ns3:cad>0</ns3:cad>
          </ns3:TrackPointExtension>
        </extensions>
      </trkpt>
      <trkpt lat="37.7603234164416790008544921875" lon="-107.71062620915472507476806640625">
        <ele>3635.39990234375</ele>
        <time>2023-07-29T14:01:14.000Z</time>
        <extensions>
          <ns3:TrackPointExtension>
            <ns3:hr>79</ns3:hr>
            <ns3:cad>0</ns3:cad>
          </ns3:TrackPointExtension>
        </extensions>
      </trkpt>
      <trkpt lat="37.76032266207039356231689453125" lon="-107.71063040010631084442138671875">
        <ele>3635.39990234375</ele>
        <time>2023-07-29T14:01:15.000Z</time>
        <extensions>
          <ns3:TrackPointExtension>
            <ns3:hr>78</ns3:hr>
            <ns3:cad>0</ns3:cad>
          </ns3:TrackPointExtension>
        </extensions>
      </trkpt>
      <trkpt lat="37.7603287808597087860107421875" lon="-107.71063459105789661407470703125">
        <ele>3635.39990234375</ele>
        <time>2023-07-29T14:01:16.000Z</time>
        <extensions>
          <ns3:TrackPointExtension>
            <ns3:hr>78</ns3:hr>
            <ns3:cad>0</ns3:cad>
          </ns3:TrackPointExtension>
        </extensions>
      </trkpt>
      <trkpt lat="37.76033992879092693328857421875" lon="-107.7106381952762603759765625">
        <ele>3635.39990234375</ele>
        <time>2023-07-29T14:01:17.000Z</time>
        <extensions>
          <ns3:TrackPointExtension>
            <ns3:hr>78</ns3:hr>
            <ns3:cad>0</ns3:cad>
          </ns3:TrackPointExtension>
        </extensions>
      </trkpt>
      <trkpt lat="37.76034780777990818023681640625" lon="-107.71064079366624355316162109375">
        <ele>3635.39990234375</ele>
        <time>2023-07-29T14:01:18.000Z</time>
        <extensions>
          <ns3:TrackPointExtension>
            <ns3:hr>78</ns3:hr>
            <ns3:cad>0</ns3:cad>
          </ns3:TrackPointExtension>
        </extensions>
      </trkpt>
      <trkpt lat="37.76035401038825511932373046875" lon="-107.71064749918878078460693359375">
        <ele>3635.39990234375</ele>
        <time>2023-07-29T14:01:19.000Z</time>
        <extensions>
          <ns3:TrackPointExtension>
            <ns3:hr>78</ns3:hr>
            <ns3:cad>0</ns3:cad>
          </ns3:TrackPointExtension>
        </extensions>
      </trkpt>
      <trkpt lat="37.76035954244434833526611328125" lon="-107.71065303124487400054931640625">
        <ele>3635.39990234375</ele>
        <time>2023-07-29T14:01:20.000Z</time>
        <extensions>
          <ns3:TrackPointExtension>
            <ns3:hr>78</ns3:hr>
            <ns3:cad>0</ns3:cad>
          </ns3:TrackPointExtension>
        </extensions>
      </trkpt>
      <trkpt lat="37.76036775670945644378662109375" lon="-107.71065990440547466278076171875">
        <ele>3635.39990234375</ele>
        <time>2023-07-29T14:01:21.000Z</time>
        <extensions>
          <ns3:TrackPointExtension>
            <ns3:hr>79</ns3:hr>
            <ns3:cad>0</ns3:cad>
          </ns3:TrackPointExtension>
        </extensions>
      </trkpt>
      <trkpt lat="37.7603750489652156829833984375" lon="-107.7106638438999652862548828125">
        <ele>3635.39990234375</ele>
        <time>2023-07-29T14:01:22.000Z</time>
        <extensions>
          <ns3:TrackPointExtension>
            <ns3:hr>79</ns3:hr>
            <ns3:cad>0</ns3:cad>
          </ns3:TrackPointExtension>
        </extensions>
      </trkpt>
      <trkpt lat="37.76038250885903835296630859375" lon="-107.71067230962216854095458984375">
        <ele>3635.39990234375</ele>
        <time>2023-07-29T14:01:23.000Z</time>
        <extensions>
          <ns3:TrackPointExtension>
            <ns3:hr>79</ns3:hr>
            <ns3:cad>0</ns3:cad>
          </ns3:TrackPointExtension>
        </extensions>
      </trkpt>
      <trkpt lat="37.76039374060928821563720703125" lon="-107.710678093135356903076171875">
        <ele>3635.39990234375</ele>
        <time>2023-07-29T14:01:24.000Z</time>
        <extensions>
          <ns3:TrackPointExtension>
            <ns3:hr>79</ns3:hr>
            <ns3:cad>0</ns3:cad>
          </ns3:TrackPointExtension>
        </extensions>
      </trkpt>
      <trkpt lat="37.76040715165436267852783203125" lon="-107.71068521775305271148681640625">
        <ele>3635.39990234375</ele>
        <time>2023-07-29T14:01:25.000Z</time>
        <extensions>
          <ns3:TrackPointExtension>
            <ns3:hr>78</ns3:hr>
            <ns3:cad>0</ns3:cad>
          </ns3:TrackPointExtension>
        </extensions>
      </trkpt>
      <trkpt lat="37.76041218079626560211181640625" lon="-107.71068672649562358856201171875">
        <ele>3635.60009765625</ele>
        <time>2023-07-29T14:01:26.000Z</time>
        <extensions>
          <ns3:TrackPointExtension>
            <ns3:hr>78</ns3:hr>
            <ns3:cad>0</ns3:cad>
          </ns3:TrackPointExtension>
        </extensions>
      </trkpt>
      <trkpt lat="37.76042123325169086456298828125" lon="-107.71068848669528961181640625">
        <ele>3635.60009765625</ele>
        <time>2023-07-29T14:01:27.000Z</time>
        <extensions>
          <ns3:TrackPointExtension>
            <ns3:hr>78</ns3:hr>
            <ns3:cad>0</ns3:cad>
          </ns3:TrackPointExtension>
        </extensions>
      </trkpt>
      <trkpt lat="37.76043296791613101959228515625" lon="-107.7106918394565582275390625">
        <ele>3635.800048828125</ele>
        <time>2023-07-29T14:01:28.000Z</time>
        <extensions>
          <ns3:TrackPointExtension>
            <ns3:hr>79</ns3:hr>
            <ns3:cad>0</ns3:cad>
          </ns3:TrackPointExtension>
        </extensions>
      </trkpt>
      <trkpt lat="37.760443277657032012939453125" lon="-107.71069561131298542022705078125">
        <ele>3635.800048828125</ele>
        <time>2023-07-29T14:01:29.000Z</time>
        <extensions>
          <ns3:TrackPointExtension>
            <ns3:hr>78</ns3:hr>
            <ns3:cad>0</ns3:cad>
          </ns3:TrackPointExtension>
        </extensions>
      </trkpt>
      <trkpt lat="37.76045031845569610595703125" lon="-107.71069712005555629730224609375">
        <ele>3635.800048828125</ele>
        <time>2023-07-29T14:01:30.000Z</time>
        <extensions>
          <ns3:TrackPointExtension>
            <ns3:hr>78</ns3:hr>
            <ns3:cad>48</ns3:cad>
          </ns3:TrackPointExtension>
        </extensions>
      </trkpt>
      <trkpt lat="37.76045970618724822998046875" lon="-107.71070080809295177459716796875">
        <ele>3636</ele>
        <time>2023-07-29T14:01:31.000Z</time>
        <extensions>
          <ns3:TrackPointExtension>
            <ns3:hr>79</ns3:hr>
            <ns3:cad>48</ns3:cad>
          </ns3:TrackPointExtension>
        </extensions>
      </trkpt>
      <trkpt lat="37.76046909391880035400390625" lon="-107.7107030712068080902099609375">
        <ele>3636</ele>
        <time>2023-07-29T14:01:32.000Z</time>
        <extensions>
          <ns3:TrackPointExtension>
            <ns3:hr>79</ns3:hr>
            <ns3:cad>48</ns3:cad>
          </ns3:TrackPointExtension>
        </extensions>
      </trkpt>
      <trkpt lat="37.760473452508449554443359375" lon="-107.71070315502583980560302734375">
        <ele>3636.199951171875</ele>
        <time>2023-07-29T14:01:33.000Z</time>
        <extensions>
          <ns3:TrackPointExtension>
            <ns3:hr>79</ns3:hr>
            <ns3:cad>48</ns3:cad>
          </ns3:TrackPointExtension>
        </extensions>
      </trkpt>
      <trkpt lat="37.7604830078780651092529296875" lon="-107.71070189774036407470703125">
        <ele>3636.199951171875</ele>
        <time>2023-07-29T14:01:34.000Z</time>
        <extensions>
          <ns3:TrackPointExtension>
            <ns3:hr>79</ns3:hr>
            <ns3:cad>48</ns3:cad>
          </ns3:TrackPointExtension>
        </extensions>
      </trkpt>
      <trkpt lat="37.76048359461128711700439453125" lon="-107.7106970362365245819091796875">
        <ele>3636.199951171875</ele>
        <time>2023-07-29T14:01:35.000Z</time>
        <extensions>
          <ns3:TrackPointExtension>
            <ns3:hr>79</ns3:hr>
            <ns3:cad>48</ns3:cad>
          </ns3:TrackPointExtension>
        </extensions>
      </trkpt>
      <trkpt lat="37.76048962958157062530517578125" lon="-107.7106920070946216583251953125">
        <ele>3636.39990234375</ele>
        <time>2023-07-29T14:01:36.000Z</time>
        <extensions>
          <ns3:TrackPointExtension>
            <ns3:hr>79</ns3:hr>
            <ns3:cad>48</ns3:cad>
          </ns3:TrackPointExtension>
        </extensions>
      </trkpt>
      <trkpt lat="37.7604944072663784027099609375" lon="-107.71068513393402099609375">
        <ele>3636.39990234375</ele>
        <time>2023-07-29T14:01:37.000Z</time>
        <extensions>
          <ns3:TrackPointExtension>
            <ns3:hr>80</ns3:hr>
            <ns3:cad>48</ns3:cad>
          </ns3:TrackPointExtension>
        </extensions>
      </trkpt>
      <trkpt lat="37.76049952022731304168701171875" lon="-107.71067784167826175689697265625">
        <ele>3636.60009765625</ele>
        <time>2023-07-29T14:01:38.000Z</time>
        <extensions>
          <ns3:TrackPointExtension>
            <ns3:hr>80</ns3:hr>
            <ns3:cad>0</ns3:cad>
          </ns3:TrackPointExtension>
        </extensions>
      </trkpt>
      <trkpt lat="37.76050656102597713470458984375" lon="-107.7106735669076442718505859375">
        <ele>3636.60009765625</ele>
        <time>2023-07-29T14:01:39.000Z</time>
        <extensions>
          <ns3:TrackPointExtension>
            <ns3:hr>80</ns3:hr>
            <ns3:cad>0</ns3:cad>
          </ns3:TrackPointExtension>
        </extensions>
      </trkpt>
      <trkpt lat="37.76051561348140239715576171875" lon="-107.71066837012767791748046875">
        <ele>3636.60009765625</ele>
        <time>2023-07-29T14:01:40.000Z</time>
        <extensions>
          <ns3:TrackPointExtension>
            <ns3:hr>81</ns3:hr>
            <ns3:cad>0</ns3:cad>
          </ns3:TrackPointExtension>
        </extensions>
      </trkpt>
      <trkpt lat="37.76052047498524188995361328125" lon="-107.71066426299512386322021484375">
        <ele>3636.800048828125</ele>
        <time>2023-07-29T14:01:41.000Z</time>
        <extensions>
          <ns3:TrackPointExtension>
            <ns3:hr>81</ns3:hr>
            <ns3:cad>0</ns3:cad>
          </ns3:TrackPointExtension>
        </extensions>
      </trkpt>
      <trkpt lat="37.76052810251712799072265625" lon="-107.7106588147580623626708984375">
        <ele>3636.800048828125</ele>
        <time>2023-07-29T14:01:42.000Z</time>
        <extensions>
          <ns3:TrackPointExtension>
            <ns3:hr>81</ns3:hr>
            <ns3:cad>0</ns3:cad>
          </ns3:TrackPointExtension>
        </extensions>
      </trkpt>
      <trkpt lat="37.76053254492580890655517578125" lon="-107.71065521053969860076904296875">
        <ele>3636.800048828125</ele>
        <time>2023-07-29T14:01:43.000Z</time>
        <extensions>
          <ns3:TrackPointExtension>
            <ns3:hr>82</ns3:hr>
            <ns3:cad>0</ns3:cad>
          </ns3:TrackPointExtension>
        </extensions>
      </trkpt>
      <trkpt lat="37.7605369873344898223876953125" lon="-107.71065185777842998504638671875">
        <ele>3636.800048828125</ele>
        <time>2023-07-29T14:01:44.000Z</time>
        <extensions>
          <ns3:TrackPointExtension>
            <ns3:hr>83</ns3:hr>
            <ns3:cad>0</ns3:cad>
          </ns3:TrackPointExtension>
        </extensions>
      </trkpt>
      <trkpt lat="37.7605446986854076385498046875" lon="-107.7106464095413684844970703125">
        <ele>3636.800048828125</ele>
        <time>2023-07-29T14:01:45.000Z</time>
        <extensions>
          <ns3:TrackPointExtension>
            <ns3:hr>83</ns3:hr>
            <ns3:cad>0</ns3:cad>
          </ns3:TrackPointExtension>
        </extensions>
      </trkpt>
      <trkpt lat="37.760553248226642608642578125" lon="-107.71064079366624355316162109375">
        <ele>3636.800048828125</ele>
        <time>2023-07-29T14:01:46.000Z</time>
        <extensions>
          <ns3:TrackPointExtension>
            <ns3:hr>84</ns3:hr>
            <ns3:cad>0</ns3:cad>
          </ns3:TrackPointExtension>
        </extensions>
      </trkpt>
      <trkpt lat="37.76056070812046527862548828125" lon="-107.7106373570859432220458984375">
        <ele>3636.800048828125</ele>
        <time>2023-07-29T14:01:47.000Z</time>
        <extensions>
          <ns3:TrackPointExtension>
            <ns3:hr>84</ns3:hr>
            <ns3:cad>0</ns3:cad>
          </ns3:TrackPointExtension>
        </extensions>
      </trkpt>
      <trkpt lat="37.760566659271717071533203125" lon="-107.7106370218098163604736328125">
        <ele>3636.60009765625</ele>
        <time>2023-07-29T14:01:48.000Z</time>
        <extensions>
          <ns3:TrackPointExtension>
            <ns3:hr>84</ns3:hr>
            <ns3:cad>0</ns3:cad>
          </ns3:TrackPointExtension>
        </extensions>
      </trkpt>
      <trkpt lat="37.7605716884136199951171875" lon="-107.71063844673335552215576171875">
        <ele>3636.60009765625</ele>
        <time>2023-07-29T14:01:49.000Z</time>
        <extensions>
          <ns3:TrackPointExtension>
            <ns3:hr>84</ns3:hr>
            <ns3:cad>0</ns3:cad>
          </ns3:TrackPointExtension>
        </extensions>
      </trkpt>
      <trkpt lat="37.76057562790811061859130859375" lon="-107.71063811145722866058349609375">
        <ele>3636.60009765625</ele>
        <time>2023-07-29T14:01:50.000Z</time>
        <extensions>
          <ns3:TrackPointExtension>
            <ns3:hr>85</ns3:hr>
            <ns3:cad>0</ns3:cad>
          </ns3:TrackPointExtension>
        </extensions>
      </trkpt>
      <trkpt lat="37.76058417744934558868408203125" lon="-107.7106363512575626373291015625">
        <ele>3636.60009765625</ele>
        <time>2023-07-29T14:01:51.000Z</time>
        <extensions>
          <ns3:TrackPointExtension>
            <ns3:hr>86</ns3:hr>
            <ns3:cad>0</ns3:cad>
          </ns3:TrackPointExtension>
        </extensions>
      </trkpt>
      <trkpt lat="37.76059289462864398956298828125" lon="-107.7106328308582305908203125">
        <ele>3636.60009765625</ele>
        <time>2023-07-29T14:01:52.000Z</time>
        <extensions>
          <ns3:TrackPointExtension>
            <ns3:hr>85</ns3:hr>
            <ns3:cad>0</ns3:cad>
          </ns3:TrackPointExtension>
        </extensions>
      </trkpt>
      <trkpt lat="37.76060186326503753662109375" lon="-107.71062905900180339813232421875">
        <ele>3636.60009765625</ele>
        <time>2023-07-29T14:01:53.000Z</time>
        <extensions>
          <ns3:TrackPointExtension>
            <ns3:hr>85</ns3:hr>
            <ns3:cad>0</ns3:cad>
          </ns3:TrackPointExtension>
        </extensions>
      </trkpt>
      <trkpt lat="37.76061200536787509918212890625" lon="-107.71062277257442474365234375">
        <ele>3636.60009765625</ele>
        <time>2023-07-29T14:01:54.000Z</time>
        <extensions>
          <ns3:TrackPointExtension>
            <ns3:hr>86</ns3:hr>
            <ns3:cad>0</ns3:cad>
          </ns3:TrackPointExtension>
        </extensions>
      </trkpt>
      <trkpt lat="37.76062893681228160858154296875" lon="-107.710615061223506927490234375">
        <ele>3636.60009765625</ele>
        <time>2023-07-29T14:01:55.000Z</time>
        <extensions>
          <ns3:TrackPointExtension>
            <ns3:hr>87</ns3:hr>
            <ns3:cad>0</ns3:cad>
          </ns3:TrackPointExtension>
        </extensions>
      </trkpt>
      <trkpt lat="37.76063765399158000946044921875" lon="-107.71060927771031856536865234375">
        <ele>3636.39990234375</ele>
        <time>2023-07-29T14:01:56.000Z</time>
        <extensions>
          <ns3:TrackPointExtension>
            <ns3:hr>87</ns3:hr>
            <ns3:cad>0</ns3:cad>
          </ns3:TrackPointExtension>
        </extensions>
      </trkpt>
      <trkpt lat="37.76064536534249782562255859375" lon="-107.71060089580714702606201171875">
        <ele>3636.39990234375</ele>
        <time>2023-07-29T14:01:57.000Z</time>
        <extensions>
          <ns3:TrackPointExtension>
            <ns3:hr>88</ns3:hr>
            <ns3:cad>0</ns3:cad>
          </ns3:TrackPointExtension>
        </extensions>
      </trkpt>
      <trkpt lat="37.760655172169208526611328125" lon="-107.71059326827526092529296875">
        <ele>3636.39990234375</ele>
        <time>2023-07-29T14:01:58.000Z</time>
        <extensions>
          <ns3:TrackPointExtension>
            <ns3:hr>89</ns3:hr>
            <ns3:cad>0</ns3:cad>
          </ns3:TrackPointExtension>
        </extensions>
      </trkpt>
      <trkpt lat="37.76066162623465061187744140625" lon="-107.7105872333049774169921875">
        <ele>3636.60009765625</ele>
        <time>2023-07-29T14:01:59.000Z</time>
        <extensions>
          <ns3:TrackPointExtension>
            <ns3:hr>90</ns3:hr>
            <ns3:cad>0</ns3:cad>
          </ns3:TrackPointExtension>
        </extensions>
      </trkpt>
      <trkpt lat="37.7606677450239658355712890625" lon="-107.71058446727693080902099609375">
        <ele>3636.60009765625</ele>
        <time>2023-07-29T14:02:00.000Z</time>
        <extensions>
          <ns3:TrackPointExtension>
            <ns3:hr>91</ns3:hr>
            <ns3:cad>0</ns3:cad>
          </ns3:TrackPointExtension>
        </extensions>
      </trkpt>
      <trkpt lat="37.76066447608172893524169921875" lon="-107.7105850540101528167724609375">
        <ele>3636.39990234375</ele>
        <time>2023-07-29T14:02:01.000Z</time>
        <extensions>
          <ns3:TrackPointExtension>
            <ns3:hr>91</ns3:hr>
            <ns3:cad>0</ns3:cad>
          </ns3:TrackPointExtension>
        </extensions>
      </trkpt>
      <trkpt lat="37.7606628835201263427734375" lon="-107.71058656275272369384765625">
        <ele>3636.39990234375</ele>
        <time>2023-07-29T14:02:02.000Z</time>
        <extensions>
          <ns3:TrackPointExtension>
            <ns3:hr>91</ns3:hr>
            <ns3:cad>0</ns3:cad>
          </ns3:TrackPointExtension>
        </extensions>
      </trkpt>
      <trkpt lat="37.7606600336730480194091796875" lon="-107.7105890773236751556396484375">
        <ele>3636.39990234375</ele>
        <time>2023-07-29T14:02:03.000Z</time>
        <extensions>
          <ns3:TrackPointExtension>
            <ns3:hr>91</ns3:hr>
            <ns3:cad>0</ns3:cad>
          </ns3:TrackPointExtension>
        </extensions>
      </trkpt>
      <trkpt lat="37.7606546692550182342529296875" lon="-107.7105931006371974945068359375">
        <ele>3636.39990234375</ele>
        <time>2023-07-29T14:02:04.000Z</time>
        <extensions>
          <ns3:TrackPointExtension>
            <ns3:hr>91</ns3:hr>
            <ns3:cad>0</ns3:cad>
          </ns3:TrackPointExtension>
        </extensions>
      </trkpt>
      <trkpt lat="37.76064704172313213348388671875" lon="-107.7105979621410369873046875">
        <ele>3636.39990234375</ele>
        <time>2023-07-29T14:02:05.000Z</time>
        <extensions>
          <ns3:TrackPointExtension>
            <ns3:hr>91</ns3:hr>
            <ns3:cad>0</ns3:cad>
          </ns3:TrackPointExtension>
        </extensions>
      </trkpt>
      <trkpt lat="37.76063966564834117889404296875" lon="-107.7106021530926227569580078125">
        <ele>3636.39990234375</ele>
        <time>2023-07-29T14:02:06.000Z</time>
        <extensions>
          <ns3:TrackPointExtension>
            <ns3:hr>91</ns3:hr>
            <ns3:cad>0</ns3:cad>
          </ns3:TrackPointExtension>
        </extensions>
      </trkpt>
      <trkpt lat="37.760634720325469970703125" lon="-107.7106088586151599884033203125">
        <ele>3636.39990234375</ele>
        <time>2023-07-29T14:02:07.000Z</time>
        <extensions>
          <ns3:TrackPointExtension>
            <ns3:hr>91</ns3:hr>
            <ns3:cad>0</ns3:cad>
          </ns3:TrackPointExtension>
        </extensions>
      </trkpt>
      <trkpt lat="37.76063262484967708587646484375" lon="-107.71061338484287261962890625">
        <ele>3636.39990234375</ele>
        <time>2023-07-29T14:02:08.000Z</time>
        <extensions>
          <ns3:TrackPointExtension>
            <ns3:hr>91</ns3:hr>
            <ns3:cad>0</ns3:cad>
          </ns3:TrackPointExtension>
        </extensions>
      </trkpt>
      <trkpt lat="37.7606325410306453704833984375" lon="-107.710616402328014373779296875">
        <ele>3636.39990234375</ele>
        <time>2023-07-29T14:02:09.000Z</time>
        <extensions>
          <ns3:TrackPointExtension>
            <ns3:hr>91</ns3:hr>
            <ns3:cad>0</ns3:cad>
          </ns3:TrackPointExtension>
        </extensions>
      </trkpt>
      <trkpt lat="37.76062977500259876251220703125" lon="-107.7106189168989658355712890625">
        <ele>3636.39990234375</ele>
        <time>2023-07-29T14:02:10.000Z</time>
        <extensions>
          <ns3:TrackPointExtension>
            <ns3:hr>89</ns3:hr>
            <ns3:cad>0</ns3:cad>
          </ns3:TrackPointExtension>
        </extensions>
      </trkpt>
      <trkpt lat="37.7606288529932498931884765625" lon="-107.7106232754886150360107421875">
        <ele>3636.39990234375</ele>
        <time>2023-07-29T14:02:11.000Z</time>
        <extensions>
          <ns3:TrackPointExtension>
            <ns3:hr>88</ns3:hr>
            <ns3:cad>0</ns3:cad>
          </ns3:TrackPointExtension>
        </extensions>
      </trkpt>
      <trkpt lat="37.760623656213283538818359375" lon="-107.7106301486492156982421875">
        <ele>3636.39990234375</ele>
        <time>2023-07-29T14:02:12.000Z</time>
        <extensions>
          <ns3:TrackPointExtension>
            <ns3:hr>88</ns3:hr>
            <ns3:cad>0</ns3:cad>
          </ns3:TrackPointExtension>
        </extensions>
      </trkpt>
      <trkpt lat="37.7606198005378246307373046875" lon="-107.71063459105789661407470703125">
        <ele>3636.39990234375</ele>
        <time>2023-07-29T14:02:13.000Z</time>
        <extensions>
          <ns3:TrackPointExtension>
            <ns3:hr>88</ns3:hr>
            <ns3:cad>0</ns3:cad>
          </ns3:TrackPointExtension>
        </extensions>
      </trkpt>
      <trkpt lat="37.7606211416423320770263671875" lon="-107.71063526161015033721923828125">
        <ele>3636.39990234375</ele>
        <time>2023-07-29T14:02:14.000Z</time>
        <extensions>
          <ns3:TrackPointExtension>
            <ns3:hr>88</ns3:hr>
            <ns3:cad>0</ns3:cad>
          </ns3:TrackPointExtension>
        </extensions>
      </trkpt>
      <trkpt lat="37.76062223128974437713623046875" lon="-107.71063291467726230621337890625">
        <ele>3636.39990234375</ele>
        <time>2023-07-29T14:02:15.000Z</time>
        <extensions>
          <ns3:TrackPointExtension>
            <ns3:hr>88</ns3:hr>
            <ns3:cad>0</ns3:cad>
          </ns3:TrackPointExtension>
        </extensions>
      </trkpt>
      <trkpt lat="37.76061954908072948455810546875" lon="-107.7106283046305179595947265625">
        <ele>3636.39990234375</ele>
        <time>2023-07-29T14:02:16.000Z</time>
        <extensions>
          <ns3:TrackPointExtension>
            <ns3:hr>88</ns3:hr>
            <ns3:cad>0</ns3:cad>
          </ns3:TrackPointExtension>
        </extensions>
      </trkpt>
      <trkpt lat="37.760616950690746307373046875" lon="-107.7106209285557270050048828125">
        <ele>3636.39990234375</ele>
        <time>2023-07-29T14:02:17.000Z</time>
        <extensions>
          <ns3:TrackPointExtension>
            <ns3:hr>87</ns3:hr>
            <ns3:cad>0</ns3:cad>
          </ns3:TrackPointExtension>
        </extensions>
      </trkpt>
      <trkpt lat="37.76061150245368480682373046875" lon="-107.71061363629996776580810546875">
        <ele>3636.60009765625</ele>
        <time>2023-07-29T14:02:18.000Z</time>
        <extensions>
          <ns3:TrackPointExtension>
            <ns3:hr>87</ns3:hr>
            <ns3:cad>0</ns3:cad>
          </ns3:TrackPointExtension>
        </extensions>
      </trkpt>
      <trkpt lat="37.76061317883431911468505859375" lon="-107.71060944534838199615478515625">
        <ele>3636.60009765625</ele>
        <time>2023-07-29T14:02:19.000Z</time>
        <extensions>
          <ns3:TrackPointExtension>
            <ns3:hr>87</ns3:hr>
            <ns3:cad>0</ns3:cad>
          </ns3:TrackPointExtension>
        </extensions>
      </trkpt>
      <trkpt lat="37.76061418466269969940185546875" lon="-107.7106112055480480194091796875">
        <ele>3636.60009765625</ele>
        <time>2023-07-29T14:02:20.000Z</time>
        <extensions>
          <ns3:TrackPointExtension>
            <ns3:hr>87</ns3:hr>
            <ns3:cad>0</ns3:cad>
          </ns3:TrackPointExtension>
        </extensions>
      </trkpt>
      <trkpt lat="37.760613597929477691650390625" lon="-107.71061682142317295074462890625">
        <ele>3636.60009765625</ele>
        <time>2023-07-29T14:02:21.000Z</time>
        <extensions>
          <ns3:TrackPointExtension>
            <ns3:hr>87</ns3:hr>
            <ns3:cad>0</ns3:cad>
          </ns3:TrackPointExtension>
        </extensions>
      </trkpt>
      <trkpt lat="37.76061217300593852996826171875" lon="-107.71062587387859821319580078125">
        <ele>3636.60009765625</ele>
        <time>2023-07-29T14:02:22.000Z</time>
        <extensions>
          <ns3:TrackPointExtension>
            <ns3:hr>87</ns3:hr>
            <ns3:cad>0</ns3:cad>
          </ns3:TrackPointExtension>
        </extensions>
      </trkpt>
      <trkpt lat="37.76061586104333400726318359375" lon="-107.7106269635260105133056640625">
        <ele>3636.39990234375</ele>
        <time>2023-07-29T14:02:23.000Z</time>
        <extensions>
          <ns3:TrackPointExtension>
            <ns3:hr>88</ns3:hr>
            <ns3:cad>0</ns3:cad>
          </ns3:TrackPointExtension>
        </extensions>
      </trkpt>
      <trkpt lat="37.7606184594333171844482421875" lon="-107.7106279693543910980224609375">
        <ele>3636.199951171875</ele>
        <time>2023-07-29T14:02:24.000Z</time>
        <extensions>
          <ns3:TrackPointExtension>
            <ns3:hr>88</ns3:hr>
            <ns3:cad>0</ns3:cad>
          </ns3:TrackPointExtension>
        </extensions>
      </trkpt>
      <trkpt lat="37.76062089018523693084716796875" lon="-107.7106286399066448211669921875">
        <ele>3636</ele>
        <time>2023-07-29T14:02:25.000Z</time>
        <extensions>
          <ns3:TrackPointExtension>
            <ns3:hr>88</ns3:hr>
            <ns3:cad>0</ns3:cad>
          </ns3:TrackPointExtension>
        </extensions>
      </trkpt>
      <trkpt lat="37.76062457822263240814208984375" lon="-107.7106283046305179595947265625">
        <ele>3636</ele>
        <time>2023-07-29T14:02:26.000Z</time>
        <extensions>
          <ns3:TrackPointExtension>
            <ns3:hr>88</ns3:hr>
            <ns3:cad>0</ns3:cad>
          </ns3:TrackPointExtension>
        </extensions>
      </trkpt>
      <trkpt lat="37.76062524877488613128662109375" lon="-107.7106340043246746063232421875">
        <ele>3636</ele>
        <time>2023-07-29T14:02:27.000Z</time>
        <extensions>
          <ns3:TrackPointExtension>
            <ns3:hr>88</ns3:hr>
            <ns3:cad>0</ns3:cad>
          </ns3:TrackPointExtension>
        </extensions>
      </trkpt>
      <trkpt lat="37.76062642224133014678955078125" lon="-107.7106403745710849761962890625">
        <ele>3636</ele>
        <time>2023-07-29T14:02:28.000Z</time>
        <extensions>
          <ns3:TrackPointExtension>
            <ns3:hr>88</ns3:hr>
            <ns3:cad>0</ns3:cad>
          </ns3:TrackPointExtension>
        </extensions>
      </trkpt>
      <trkpt lat="37.7606265060603618621826171875" lon="-107.71064682863652706146240234375">
        <ele>3636.199951171875</ele>
        <time>2023-07-29T14:02:29.000Z</time>
        <extensions>
          <ns3:TrackPointExtension>
            <ns3:hr>88</ns3:hr>
            <ns3:cad>0</ns3:cad>
          </ns3:TrackPointExtension>
        </extensions>
      </trkpt>
      <trkpt lat="37.76063296012580394744873046875" lon="-107.710657306015491485595703125">
        <ele>3636.199951171875</ele>
        <time>2023-07-29T14:02:30.000Z</time>
        <extensions>
          <ns3:TrackPointExtension>
            <ns3:hr>87</ns3:hr>
            <ns3:cad>0</ns3:cad>
          </ns3:TrackPointExtension>
        </extensions>
      </trkpt>
      <trkpt lat="37.76063270866870880126953125" lon="-107.71065856330096721649169921875">
        <ele>3636.199951171875</ele>
        <time>2023-07-29T14:02:31.000Z</time>
        <extensions>
          <ns3:TrackPointExtension>
            <ns3:hr>86</ns3:hr>
            <ns3:cad>0</ns3:cad>
          </ns3:TrackPointExtension>
        </extensions>
      </trkpt>
      <trkpt lat="37.76062893681228160858154296875" lon="-107.7106604911386966705322265625">
        <ele>3636.199951171875</ele>
        <time>2023-07-29T14:02:32.000Z</time>
        <extensions>
          <ns3:TrackPointExtension>
            <ns3:hr>84</ns3:hr>
            <ns3:cad>0</ns3:cad>
          </ns3:TrackPointExtension>
        </extensions>
      </trkpt>
      <trkpt lat="37.76062658987939357757568359375" lon="-107.710660994052886962890625">
        <ele>3636.199951171875</ele>
        <time>2023-07-29T14:02:33.000Z</time>
        <extensions>
          <ns3:TrackPointExtension>
            <ns3:hr>83</ns3:hr>
            <ns3:cad>0</ns3:cad>
          </ns3:TrackPointExtension>
        </extensions>
      </trkpt>
      <trkpt lat="37.76062424294650554656982421875" lon="-107.71065940149128437042236328125">
        <ele>3636.199951171875</ele>
        <time>2023-07-29T14:02:34.000Z</time>
        <extensions>
          <ns3:TrackPointExtension>
            <ns3:hr>83</ns3:hr>
            <ns3:cad>0</ns3:cad>
          </ns3:TrackPointExtension>
        </extensions>
      </trkpt>
      <trkpt lat="37.76062239892780780792236328125" lon="-107.71065588109195232391357421875">
        <ele>3636.199951171875</ele>
        <time>2023-07-29T14:02:35.000Z</time>
        <extensions>
          <ns3:TrackPointExtension>
            <ns3:hr>82</ns3:hr>
            <ns3:cad>0</ns3:cad>
          </ns3:TrackPointExtension>
        </extensions>
      </trkpt>
      <trkpt lat="37.76062323711812496185302734375" lon="-107.710651941597461700439453125">
        <ele>3636.199951171875</ele>
        <time>2023-07-29T14:02:36.000Z</time>
        <extensions>
          <ns3:TrackPointExtension>
            <ns3:hr>81</ns3:hr>
            <ns3:cad>0</ns3:cad>
          </ns3:TrackPointExtension>
        </extensions>
      </trkpt>
      <trkpt lat="37.76062122546136379241943359375" lon="-107.7106450684368610382080078125">
        <ele>3636.39990234375</ele>
        <time>2023-07-29T14:02:37.000Z</time>
        <extensions>
          <ns3:TrackPointExtension>
            <ns3:hr>81</ns3:hr>
            <ns3:cad>0</ns3:cad>
          </ns3:TrackPointExtension>
        </extensions>
      </trkpt>
      <trkpt lat="37.76061837561428546905517578125" lon="-107.71063509397208690643310546875">
        <ele>3636.39990234375</ele>
        <time>2023-07-29T14:02:38.000Z</time>
        <extensions>
          <ns3:TrackPointExtension>
            <ns3:hr>81</ns3:hr>
            <ns3:cad>0</ns3:cad>
          </ns3:TrackPointExtension>
        </extensions>
      </trkpt>
      <trkpt lat="37.76061938144266605377197265625" lon="-107.710626460611820220947265625">
        <ele>3636.39990234375</ele>
        <time>2023-07-29T14:02:39.000Z</time>
        <extensions>
          <ns3:TrackPointExtension>
            <ns3:hr>81</ns3:hr>
            <ns3:cad>0</ns3:cad>
          </ns3:TrackPointExtension>
        </extensions>
      </trkpt>
      <trkpt lat="37.760619632899761199951171875" lon="-107.7106167376041412353515625">
        <ele>3636.39990234375</ele>
        <time>2023-07-29T14:02:40.000Z</time>
        <extensions>
          <ns3:TrackPointExtension>
            <ns3:hr>81</ns3:hr>
            <ns3:cad>0</ns3:cad>
          </ns3:TrackPointExtension>
        </extensions>
      </trkpt>
      <trkpt lat="37.76061787270009517669677734375" lon="-107.710606344044208526611328125">
        <ele>3636.39990234375</ele>
        <time>2023-07-29T14:02:41.000Z</time>
        <extensions>
          <ns3:TrackPointExtension>
            <ns3:hr>81</ns3:hr>
            <ns3:cad>0</ns3:cad>
          </ns3:TrackPointExtension>
        </extensions>
      </trkpt>
      <trkpt lat="37.76061787270009517669677734375" lon="-107.71059854887425899505615234375">
        <ele>3636.39990234375</ele>
        <time>2023-07-29T14:02:42.000Z</time>
        <extensions>
          <ns3:TrackPointExtension>
            <ns3:hr>81</ns3:hr>
            <ns3:cad>0</ns3:cad>
          </ns3:TrackPointExtension>
        </extensions>
      </trkpt>
      <trkpt lat="37.7606255002319812774658203125" lon="-107.7106028236448764801025390625">
        <ele>3636.39990234375</ele>
        <time>2023-07-29T14:02:43.000Z</time>
        <extensions>
          <ns3:TrackPointExtension>
            <ns3:hr>81</ns3:hr>
            <ns3:cad>0</ns3:cad>
          </ns3:TrackPointExtension>
        </extensions>
      </trkpt>
      <trkpt lat="37.76062943972647190093994140625" lon="-107.71060441620647907257080078125">
        <ele>3636.39990234375</ele>
        <time>2023-07-29T14:02:44.000Z</time>
        <extensions>
          <ns3:TrackPointExtension>
            <ns3:hr>81</ns3:hr>
            <ns3:cad>0</ns3:cad>
          </ns3:TrackPointExtension>
        </extensions>
      </trkpt>
      <trkpt lat="37.760632373392581939697265625" lon="-107.7106068469583988189697265625">
        <ele>3636.39990234375</ele>
        <time>2023-07-29T14:02:45.000Z</time>
        <extensions>
          <ns3:TrackPointExtension>
            <ns3:hr>81</ns3:hr>
            <ns3:cad>0</ns3:cad>
          </ns3:TrackPointExtension>
        </extensions>
      </trkpt>
      <trkpt lat="37.7606315352022647857666015625" lon="-107.71060466766357421875">
        <ele>3636.39990234375</ele>
        <time>2023-07-29T14:02:46.000Z</time>
        <extensions>
          <ns3:TrackPointExtension>
            <ns3:hr>81</ns3:hr>
            <ns3:cad>0</ns3:cad>
          </ns3:TrackPointExtension>
        </extensions>
      </trkpt>
      <trkpt lat="37.76062910445034503936767578125" lon="-107.7106031589210033416748046875">
        <ele>3636.39990234375</ele>
        <time>2023-07-29T14:02:47.000Z</time>
        <extensions>
          <ns3:TrackPointExtension>
            <ns3:hr>81</ns3:hr>
            <ns3:cad>0</ns3:cad>
          </ns3:TrackPointExtension>
        </extensions>
      </trkpt>
      <trkpt lat="37.7606248296797275543212890625" lon="-107.71060324274003505706787109375">
        <ele>3636.39990234375</ele>
        <time>2023-07-29T14:02:48.000Z</time>
        <extensions>
          <ns3:TrackPointExtension>
            <ns3:hr>81</ns3:hr>
            <ns3:cad>0</ns3:cad>
          </ns3:TrackPointExtension>
        </extensions>
      </trkpt>
      <trkpt lat="37.7606221474707126617431640625" lon="-107.71060676313936710357666015625">
        <ele>3636.39990234375</ele>
        <time>2023-07-29T14:02:49.000Z</time>
        <extensions>
          <ns3:TrackPointExtension>
            <ns3:hr>80</ns3:hr>
            <ns3:cad>0</ns3:cad>
          </ns3:TrackPointExtension>
        </extensions>
      </trkpt>
      <trkpt lat="37.7606172859668731689453125" lon="-107.7106135524809360504150390625">
        <ele>3636.39990234375</ele>
        <time>2023-07-29T14:02:50.000Z</time>
        <extensions>
          <ns3:TrackPointExtension>
            <ns3:hr>75</ns3:hr>
            <ns3:cad>0</ns3:cad>
          </ns3:TrackPointExtension>
        </extensions>
      </trkpt>
      <trkpt lat="37.76061317883431911468505859375" lon="-107.7106182463467121124267578125">
        <ele>3636.39990234375</ele>
        <time>2023-07-29T14:02:51.000Z</time>
        <extensions>
          <ns3:TrackPointExtension>
            <ns3:hr>72</ns3:hr>
            <ns3:cad>0</ns3:cad>
          </ns3:TrackPointExtension>
        </extensions>
      </trkpt>
      <trkpt lat="37.76060965843498706817626953125" lon="-107.71061782725155353546142578125">
        <ele>3636.39990234375</ele>
        <time>2023-07-29T14:02:52.000Z</time>
        <extensions>
          <ns3:TrackPointExtension>
            <ns3:hr>71</ns3:hr>
            <ns3:cad>0</ns3:cad>
          </ns3:TrackPointExtension>
        </extensions>
      </trkpt>
      <trkpt lat="37.76060110889375209808349609375" lon="-107.71062520332634449005126953125">
        <ele>3636.39990234375</ele>
        <time>2023-07-29T14:02:53.000Z</time>
        <extensions>
          <ns3:TrackPointExtension>
            <ns3:hr>70</ns3:hr>
            <ns3:cad>0</ns3:cad>
          </ns3:TrackPointExtension>
        </extensions>
      </trkpt>
      <trkpt lat="37.7605949901044368743896484375" lon="-107.710633166134357452392578125">
        <ele>3636.199951171875</ele>
        <time>2023-07-29T14:02:54.000Z</time>
        <extensions>
          <ns3:TrackPointExtension>
            <ns3:hr>70</ns3:hr>
            <ns3:cad>0</ns3:cad>
          </ns3:TrackPointExtension>
        </extensions>
      </trkpt>
      <trkpt lat="37.76059339754283428192138671875" lon="-107.71063324995338916778564453125">
        <ele>3636.199951171875</ele>
        <time>2023-07-29T14:02:55.000Z</time>
        <extensions>
          <ns3:TrackPointExtension>
            <ns3:hr>70</ns3:hr>
            <ns3:cad>0</ns3:cad>
          </ns3:TrackPointExtension>
        </extensions>
      </trkpt>
      <trkpt lat="37.76059289462864398956298828125" lon="-107.7106326632201671600341796875">
        <ele>3636</ele>
        <time>2023-07-29T14:02:56.000Z</time>
        <extensions>
          <ns3:TrackPointExtension>
            <ns3:hr>71</ns3:hr>
            <ns3:cad>0</ns3:cad>
          </ns3:TrackPointExtension>
        </extensions>
      </trkpt>
      <trkpt lat="37.760592140257358551025390625" lon="-107.710629813373088836669921875">
        <ele>3636</ele>
        <time>2023-07-29T14:02:57.000Z</time>
        <extensions>
          <ns3:TrackPointExtension>
            <ns3:hr>72</ns3:hr>
            <ns3:cad>0</ns3:cad>
          </ns3:TrackPointExtension>
        </extensions>
      </trkpt>
      <trkpt lat="37.7605886198580265045166015625" lon="-107.7106274664402008056640625">
        <ele>3635.800048828125</ele>
        <time>2023-07-29T14:02:58.000Z</time>
        <extensions>
          <ns3:TrackPointExtension>
            <ns3:hr>73</ns3:hr>
            <ns3:cad>0</ns3:cad>
          </ns3:TrackPointExtension>
        </extensions>
      </trkpt>
      <trkpt lat="37.76059138588607311248779296875" lon="-107.7106306515634059906005859375">
        <ele>3635.800048828125</ele>
        <time>2023-07-29T14:02:59.000Z</time>
        <extensions>
          <ns3:TrackPointExtension>
            <ns3:hr>74</ns3:hr>
            <ns3:cad>0</ns3:cad>
          </ns3:TrackPointExtension>
        </extensions>
      </trkpt>
      <trkpt lat="37.7606011927127838134765625" lon="-107.7106319926679134368896484375">
        <ele>3635.800048828125</ele>
        <time>2023-07-29T14:03:00.000Z</time>
        <extensions>
          <ns3:TrackPointExtension>
            <ns3:hr>74</ns3:hr>
            <ns3:cad>0</ns3:cad>
          </ns3:TrackPointExtension>
        </extensions>
      </trkpt>
      <trkpt lat="37.76060714386403560638427734375" lon="-107.71063693799078464508056640625">
        <ele>3635.800048828125</ele>
        <time>2023-07-29T14:03:01.000Z</time>
        <extensions>
          <ns3:TrackPointExtension>
            <ns3:hr>74</ns3:hr>
            <ns3:cad>0</ns3:cad>
          </ns3:TrackPointExtension>
        </extensions>
      </trkpt>
      <trkpt lat="37.76061234064400196075439453125" lon="-107.71063174121081829071044921875">
        <ele>3636</ele>
        <time>2023-07-29T14:03:02.000Z</time>
        <extensions>
          <ns3:TrackPointExtension>
            <ns3:hr>75</ns3:hr>
            <ns3:cad>0</ns3:cad>
          </ns3:TrackPointExtension>
        </extensions>
      </trkpt>
      <trkpt lat="37.76062868535518646240234375" lon="-107.71062252111732959747314453125">
        <ele>3636</ele>
        <time>2023-07-29T14:03:03.000Z</time>
        <extensions>
          <ns3:TrackPointExtension>
            <ns3:hr>74</ns3:hr>
            <ns3:cad>0</ns3:cad>
          </ns3:TrackPointExtension>
        </extensions>
      </trkpt>
      <trkpt lat="37.760640084743499755859375" lon="-107.7106113731861114501953125">
        <ele>3636</ele>
        <time>2023-07-29T14:03:04.000Z</time>
        <extensions>
          <ns3:TrackPointExtension>
            <ns3:hr>74</ns3:hr>
            <ns3:cad>0</ns3:cad>
          </ns3:TrackPointExtension>
        </extensions>
      </trkpt>
      <trkpt lat="37.76065022684633731842041015625" lon="-107.71060131490230560302734375">
        <ele>3636</ele>
        <time>2023-07-29T14:03:05.000Z</time>
        <extensions>
          <ns3:TrackPointExtension>
            <ns3:hr>73</ns3:hr>
            <ns3:cad>0</ns3:cad>
          </ns3:TrackPointExtension>
        </extensions>
      </trkpt>
      <trkpt lat="37.7606516517698764801025390625" lon="-107.71058446727693080902099609375">
        <ele>3636</ele>
        <time>2023-07-29T14:03:06.000Z</time>
        <extensions>
          <ns3:TrackPointExtension>
            <ns3:hr>71</ns3:hr>
            <ns3:cad>0</ns3:cad>
          </ns3:TrackPointExtension>
        </extensions>
      </trkpt>
      <trkpt lat="37.7606556750833988189697265625" lon="-107.7105713076889514923095703125">
        <ele>3636</ele>
        <time>2023-07-29T14:03:07.000Z</time>
        <extensions>
          <ns3:TrackPointExtension>
            <ns3:hr>69</ns3:hr>
            <ns3:cad>0</ns3:cad>
          </ns3:TrackPointExtension>
        </extensions>
      </trkpt>
      <trkpt lat="37.76065140031278133392333984375" lon="-107.7105649374425411224365234375">
        <ele>3636</ele>
        <time>2023-07-29T14:03:08.000Z</time>
        <extensions>
          <ns3:TrackPointExtension>
            <ns3:hr>69</ns3:hr>
            <ns3:cad>0</ns3:cad>
          </ns3:TrackPointExtension>
        </extensions>
      </trkpt>
      <trkpt lat="37.7606516517698764801025390625" lon="-107.7105635963380336761474609375">
        <ele>3636</ele>
        <time>2023-07-29T14:03:09.000Z</time>
        <extensions>
          <ns3:TrackPointExtension>
            <ns3:hr>69</ns3:hr>
            <ns3:cad>0</ns3:cad>
          </ns3:TrackPointExtension>
        </extensions>
      </trkpt>
      <trkpt lat="37.7606513164937496185302734375" lon="-107.7105617523193359375">
        <ele>3636</ele>
        <time>2023-07-29T14:03:10.000Z</time>
        <extensions>
          <ns3:TrackPointExtension>
            <ns3:hr>71</ns3:hr>
            <ns3:cad>0</ns3:cad>
          </ns3:TrackPointExtension>
        </extensions>
      </trkpt>
      <trkpt lat="37.76065282523632049560546875" lon="-107.71056300960481166839599609375">
        <ele>3636</ele>
        <time>2023-07-29T14:03:11.000Z</time>
        <extensions>
          <ns3:TrackPointExtension>
            <ns3:hr>78</ns3:hr>
            <ns3:cad>0</ns3:cad>
          </ns3:TrackPointExtension>
        </extensions>
      </trkpt>
      <trkpt lat="37.76064519770443439483642578125" lon="-107.7105642668902873992919921875">
        <ele>3636</ele>
        <time>2023-07-29T14:03:12.000Z</time>
        <extensions>
          <ns3:TrackPointExtension>
            <ns3:hr>80</ns3:hr>
            <ns3:cad>0</ns3:cad>
          </ns3:TrackPointExtension>
        </extensions>
      </trkpt>
      <trkpt lat="37.76064301840960979461669921875" lon="-107.71057088859379291534423828125">
        <ele>3636</ele>
        <time>2023-07-29T14:03:13.000Z</time>
        <extensions>
          <ns3:TrackPointExtension>
            <ns3:hr>80</ns3:hr>
            <ns3:cad>0</ns3:cad>
          </ns3:TrackPointExtension>
        </extensions>
      </trkpt>
      <trkpt lat="37.7606387436389923095703125" lon="-107.7105756662786006927490234375">
        <ele>3636</ele>
        <time>2023-07-29T14:03:14.000Z</time>
        <extensions>
          <ns3:TrackPointExtension>
            <ns3:hr>80</ns3:hr>
            <ns3:cad>0</ns3:cad>
          </ns3:TrackPointExtension>
        </extensions>
      </trkpt>
      <trkpt lat="37.76063731871545314788818359375" lon="-107.710574828088283538818359375">
        <ele>3636</ele>
        <time>2023-07-29T14:03:15.000Z</time>
        <extensions>
          <ns3:TrackPointExtension>
            <ns3:hr>79</ns3:hr>
            <ns3:cad>0</ns3:cad>
          </ns3:TrackPointExtension>
        </extensions>
      </trkpt>
      <trkpt lat="37.76064016856253147125244140625" lon="-107.71057088859379291534423828125">
        <ele>3635.800048828125</ele>
        <time>2023-07-29T14:03:16.000Z</time>
        <extensions>
          <ns3:TrackPointExtension>
            <ns3:hr>79</ns3:hr>
            <ns3:cad>0</ns3:cad>
          </ns3:TrackPointExtension>
        </extensions>
      </trkpt>
      <trkpt lat="37.7606494724750518798828125" lon="-107.71056753583252429962158203125">
        <ele>3635.800048828125</ele>
        <time>2023-07-29T14:03:17.000Z</time>
        <extensions>
          <ns3:TrackPointExtension>
            <ns3:hr>79</ns3:hr>
            <ns3:cad>0</ns3:cad>
          </ns3:TrackPointExtension>
        </extensions>
      </trkpt>
      <trkpt lat="37.760651148855686187744140625" lon="-107.71056636236608028411865234375">
        <ele>3635.800048828125</ele>
        <time>2023-07-29T14:03:18.000Z</time>
        <extensions>
          <ns3:TrackPointExtension>
            <ns3:hr>79</ns3:hr>
            <ns3:cad>0</ns3:cad>
          </ns3:TrackPointExtension>
        </extensions>
      </trkpt>
      <trkpt lat="37.760648466646671295166015625" lon="-107.7105692960321903228759765625">
        <ele>3635.800048828125</ele>
        <time>2023-07-29T14:03:19.000Z</time>
        <extensions>
          <ns3:TrackPointExtension>
            <ns3:hr>79</ns3:hr>
            <ns3:cad>0</ns3:cad>
          </ns3:TrackPointExtension>
        </extensions>
      </trkpt>
      <trkpt lat="37.760641090571880340576171875" lon="-107.71057507954537868499755859375">
        <ele>3635.800048828125</ele>
        <time>2023-07-29T14:03:20.000Z</time>
        <extensions>
          <ns3:TrackPointExtension>
            <ns3:hr>79</ns3:hr>
            <ns3:cad>0</ns3:cad>
          </ns3:TrackPointExtension>
        </extensions>
      </trkpt>
      <trkpt lat="37.7606368996202945709228515625" lon="-107.71057675592601299285888671875">
        <ele>3635.60009765625</ele>
        <time>2023-07-29T14:03:21.000Z</time>
        <extensions>
          <ns3:TrackPointExtension>
            <ns3:hr>79</ns3:hr>
            <ns3:cad>0</ns3:cad>
          </ns3:TrackPointExtension>
        </extensions>
      </trkpt>
      <trkpt lat="37.76063396595418453216552734375" lon="-107.71057792939245700836181640625">
        <ele>3635.60009765625</ele>
        <time>2023-07-29T14:03:22.000Z</time>
        <extensions>
          <ns3:TrackPointExtension>
            <ns3:hr>79</ns3:hr>
            <ns3:cad>0</ns3:cad>
          </ns3:TrackPointExtension>
        </extensions>
      </trkpt>
      <trkpt lat="37.76063396595418453216552734375" lon="-107.7105790190398693084716796875">
        <ele>3635.60009765625</ele>
        <time>2023-07-29T14:03:23.000Z</time>
        <extensions>
          <ns3:TrackPointExtension>
            <ns3:hr>79</ns3:hr>
            <ns3:cad>0</ns3:cad>
          </ns3:TrackPointExtension>
        </extensions>
      </trkpt>
      <trkpt lat="37.76063245721161365509033203125" lon="-107.710580863058567047119140625">
        <ele>3635.60009765625</ele>
        <time>2023-07-29T14:03:24.000Z</time>
        <extensions>
          <ns3:TrackPointExtension>
            <ns3:hr>78</ns3:hr>
            <ns3:cad>0</ns3:cad>
          </ns3:TrackPointExtension>
        </extensions>
      </trkpt>
      <trkpt lat="37.760634385049343109130859375" lon="-107.7105823718011379241943359375">
        <ele>3635.60009765625</ele>
        <time>2023-07-29T14:03:25.000Z</time>
        <extensions>
          <ns3:TrackPointExtension>
            <ns3:hr>78</ns3:hr>
            <ns3:cad>0</ns3:cad>
          </ns3:TrackPointExtension>
        </extensions>
      </trkpt>
      <trkpt lat="37.76063731871545314788818359375" lon="-107.71058396436274051666259765625">
        <ele>3635.800048828125</ele>
        <time>2023-07-29T14:03:26.000Z</time>
        <extensions>
          <ns3:TrackPointExtension>
            <ns3:hr>78</ns3:hr>
            <ns3:cad>0</ns3:cad>
          </ns3:TrackPointExtension>
        </extensions>
      </trkpt>
      <trkpt lat="37.7606412582099437713623046875" lon="-107.7105853892862796783447265625">
        <ele>3635.800048828125</ele>
        <time>2023-07-29T14:03:27.000Z</time>
        <extensions>
          <ns3:TrackPointExtension>
            <ns3:hr>78</ns3:hr>
            <ns3:cad>0</ns3:cad>
          </ns3:TrackPointExtension>
        </extensions>
      </trkpt>
      <trkpt lat="37.76064637117087841033935546875" lon="-107.71058631129562854766845703125">
        <ele>3636</ele>
        <time>2023-07-29T14:03:28.000Z</time>
        <extensions>
          <ns3:TrackPointExtension>
            <ns3:hr>78</ns3:hr>
            <ns3:cad>0</ns3:cad>
          </ns3:TrackPointExtension>
        </extensions>
      </trkpt>
      <trkpt lat="37.76065282523632049560546875" lon="-107.71058547310531139373779296875">
        <ele>3636</ele>
        <time>2023-07-29T14:03:29.000Z</time>
        <extensions>
          <ns3:TrackPointExtension>
            <ns3:hr>78</ns3:hr>
            <ns3:cad>0</ns3:cad>
          </ns3:TrackPointExtension>
        </extensions>
      </trkpt>
      <trkpt lat="37.76065827347338199615478515625" lon="-107.71058195270597934722900390625">
        <ele>3636</ele>
        <time>2023-07-29T14:03:30.000Z</time>
        <extensions>
          <ns3:TrackPointExtension>
            <ns3:hr>78</ns3:hr>
            <ns3:cad>0</ns3:cad>
          </ns3:TrackPointExtension>
        </extensions>
      </trkpt>
      <trkpt lat="37.76065894402563571929931640625" lon="-107.7105800248682498931884765625">
        <ele>3636</ele>
        <time>2023-07-29T14:03:31.000Z</time>
        <extensions>
          <ns3:TrackPointExtension>
            <ns3:hr>78</ns3:hr>
            <ns3:cad>0</ns3:cad>
          </ns3:TrackPointExtension>
        </extensions>
      </trkpt>
      <trkpt lat="37.7606583572924137115478515625" lon="-107.7105820365250110626220703125">
        <ele>3636</ele>
        <time>2023-07-29T14:03:32.000Z</time>
        <extensions>
          <ns3:TrackPointExtension>
            <ns3:hr>78</ns3:hr>
            <ns3:cad>0</ns3:cad>
          </ns3:TrackPointExtension>
        </extensions>
      </trkpt>
      <trkpt lat="37.760655172169208526611328125" lon="-107.71058329381048679351806640625">
        <ele>3636</ele>
        <time>2023-07-29T14:03:33.000Z</time>
        <extensions>
          <ns3:TrackPointExtension>
            <ns3:hr>78</ns3:hr>
            <ns3:cad>0</ns3:cad>
          </ns3:TrackPointExtension>
        </extensions>
      </trkpt>
      <trkpt lat="37.7606516517698764801025390625" lon="-107.7105803601443767547607421875">
        <ele>3636</ele>
        <time>2023-07-29T14:03:34.000Z</time>
        <extensions>
          <ns3:TrackPointExtension>
            <ns3:hr>78</ns3:hr>
            <ns3:cad>0</ns3:cad>
          </ns3:TrackPointExtension>
        </extensions>
      </trkpt>
      <trkpt lat="37.76064855046570301055908203125" lon="-107.71058396436274051666259765625">
        <ele>3635.800048828125</ele>
        <time>2023-07-29T14:03:35.000Z</time>
        <extensions>
          <ns3:TrackPointExtension>
            <ns3:hr>77</ns3:hr>
            <ns3:cad>0</ns3:cad>
          </ns3:TrackPointExtension>
        </extensions>
      </trkpt>
      <trkpt lat="37.760644443333148956298828125" lon="-107.71058530546724796295166015625">
        <ele>3635.800048828125</ele>
        <time>2023-07-29T14:03:36.000Z</time>
        <extensions>
          <ns3:TrackPointExtension>
            <ns3:hr>76</ns3:hr>
            <ns3:cad>0</ns3:cad>
          </ns3:TrackPointExtension>
        </extensions>
      </trkpt>
      <trkpt lat="37.7606412582099437713623046875" lon="-107.71059268154203891754150390625">
        <ele>3635.800048828125</ele>
        <time>2023-07-29T14:03:37.000Z</time>
        <extensions>
          <ns3:TrackPointExtension>
            <ns3:hr>76</ns3:hr>
            <ns3:cad>0</ns3:cad>
          </ns3:TrackPointExtension>
        </extensions>
      </trkpt>
      <trkpt lat="37.76063815690577030181884765625" lon="-107.710604332387447357177734375">
        <ele>3635.800048828125</ele>
        <time>2023-07-29T14:03:38.000Z</time>
        <extensions>
          <ns3:TrackPointExtension>
            <ns3:hr>75</ns3:hr>
            <ns3:cad>0</ns3:cad>
          </ns3:TrackPointExtension>
        </extensions>
      </trkpt>
      <trkpt lat="37.76063597761094570159912109375" lon="-107.71061698906123638153076171875">
        <ele>3635.800048828125</ele>
        <time>2023-07-29T14:03:39.000Z</time>
        <extensions>
          <ns3:TrackPointExtension>
            <ns3:hr>75</ns3:hr>
            <ns3:cad>0</ns3:cad>
          </ns3:TrackPointExtension>
        </extensions>
      </trkpt>
      <trkpt lat="37.76063564233481884002685546875" lon="-107.7106175757944583892822265625">
        <ele>3635.60009765625</ele>
        <time>2023-07-29T14:03:40.000Z</time>
        <extensions>
          <ns3:TrackPointExtension>
            <ns3:hr>76</ns3:hr>
            <ns3:cad>0</ns3:cad>
          </ns3:TrackPointExtension>
        </extensions>
      </trkpt>
      <trkpt lat="37.7606387436389923095703125" lon="-107.71060927771031856536865234375">
        <ele>3635.39990234375</ele>
        <time>2023-07-29T14:03:41.000Z</time>
        <extensions>
          <ns3:TrackPointExtension>
            <ns3:hr>76</ns3:hr>
            <ns3:cad>0</ns3:cad>
          </ns3:TrackPointExtension>
        </extensions>
      </trkpt>
      <trkpt lat="37.76063807308673858642578125" lon="-107.71060273982584476470947265625">
        <ele>3635.39990234375</ele>
        <time>2023-07-29T14:03:42.000Z</time>
        <extensions>
          <ns3:TrackPointExtension>
            <ns3:hr>77</ns3:hr>
            <ns3:cad>0</ns3:cad>
          </ns3:TrackPointExtension>
        </extensions>
      </trkpt>
      <trkpt lat="37.76064201258122920989990234375" lon="-107.71058924496173858642578125">
        <ele>3635.39990234375</ele>
        <time>2023-07-29T14:03:43.000Z</time>
        <extensions>
          <ns3:TrackPointExtension>
            <ns3:hr>77</ns3:hr>
            <ns3:cad>0</ns3:cad>
          </ns3:TrackPointExtension>
        </extensions>
      </trkpt>
      <trkpt lat="37.76064469479024410247802734375" lon="-107.71058497019112110137939453125">
        <ele>3635.39990234375</ele>
        <time>2023-07-29T14:03:44.000Z</time>
        <extensions>
          <ns3:TrackPointExtension>
            <ns3:hr>77</ns3:hr>
            <ns3:cad>0</ns3:cad>
          </ns3:TrackPointExtension>
        </extensions>
      </trkpt>
      <trkpt lat="37.76064067147672176361083984375" lon="-107.710585892200469970703125">
        <ele>3635.39990234375</ele>
        <time>2023-07-29T14:03:45.000Z</time>
        <extensions>
          <ns3:TrackPointExtension>
            <ns3:hr>77</ns3:hr>
            <ns3:cad>0</ns3:cad>
          </ns3:TrackPointExtension>
        </extensions>
      </trkpt>
      <trkpt lat="37.76063933037221431732177734375" lon="-107.7105863951146602630615234375">
        <ele>3635.199951171875</ele>
        <time>2023-07-29T14:03:46.000Z</time>
        <extensions>
          <ns3:TrackPointExtension>
            <ns3:hr>77</ns3:hr>
            <ns3:cad>0</ns3:cad>
          </ns3:TrackPointExtension>
        </extensions>
      </trkpt>
      <trkpt lat="37.76064033620059490203857421875" lon="-107.71058429963886737823486328125">
        <ele>3635.199951171875</ele>
        <time>2023-07-29T14:03:47.000Z</time>
        <extensions>
          <ns3:TrackPointExtension>
            <ns3:hr>78</ns3:hr>
            <ns3:cad>0</ns3:cad>
          </ns3:TrackPointExtension>
        </extensions>
      </trkpt>
      <trkpt lat="37.76064343750476837158203125" lon="-107.71058061160147190093994140625">
        <ele>3635.199951171875</ele>
        <time>2023-07-29T14:03:48.000Z</time>
        <extensions>
          <ns3:TrackPointExtension>
            <ns3:hr>78</ns3:hr>
            <ns3:cad>0</ns3:cad>
          </ns3:TrackPointExtension>
        </extensions>
      </trkpt>
      <trkpt lat="37.76064603589475154876708984375" lon="-107.71057826466858386993408203125">
        <ele>3635.199951171875</ele>
        <time>2023-07-29T14:03:49.000Z</time>
        <extensions>
          <ns3:TrackPointExtension>
            <ns3:hr>79</ns3:hr>
            <ns3:cad>0</ns3:cad>
          </ns3:TrackPointExtension>
        </extensions>
      </trkpt>
      <trkpt lat="37.7606467902660369873046875" lon="-107.7105763368308544158935546875">
        <ele>3635.199951171875</ele>
        <time>2023-07-29T14:03:50.000Z</time>
        <extensions>
          <ns3:TrackPointExtension>
            <ns3:hr>79</ns3:hr>
            <ns3:cad>0</ns3:cad>
          </ns3:TrackPointExtension>
        </extensions>
      </trkpt>
      <trkpt lat="37.760644443333148956298828125" lon="-107.71057642064988613128662109375">
        <ele>3635.199951171875</ele>
        <time>2023-07-29T14:03:51.000Z</time>
        <extensions>
          <ns3:TrackPointExtension>
            <ns3:hr>79</ns3:hr>
            <ns3:cad>0</ns3:cad>
          </ns3:TrackPointExtension>
        </extensions>
      </trkpt>
      <trkpt lat="37.76064368896186351776123046875" lon="-107.71057608537375926971435546875">
        <ele>3635.199951171875</ele>
        <time>2023-07-29T14:03:52.000Z</time>
        <extensions>
          <ns3:TrackPointExtension>
            <ns3:hr>79</ns3:hr>
            <ns3:cad>0</ns3:cad>
          </ns3:TrackPointExtension>
        </extensions>
      </trkpt>
      <trkpt lat="37.76064218021929264068603515625" lon="-107.71057608537375926971435546875">
        <ele>3635.199951171875</ele>
        <time>2023-07-29T14:03:53.000Z</time>
        <extensions>
          <ns3:TrackPointExtension>
            <ns3:hr>79</ns3:hr>
            <ns3:cad>0</ns3:cad>
          </ns3:TrackPointExtension>
        </extensions>
      </trkpt>
      <trkpt lat="37.7606439404189586639404296875" lon="-107.710576839745044708251953125">
        <ele>3635.199951171875</ele>
        <time>2023-07-29T14:03:54.000Z</time>
        <extensions>
          <ns3:TrackPointExtension>
            <ns3:hr>78</ns3:hr>
            <ns3:cad>0</ns3:cad>
          </ns3:TrackPointExtension>
        </extensions>
      </trkpt>
      <trkpt lat="37.76064670644700527191162109375" lon="-107.71057390607893466949462890625">
        <ele>3635.39990234375</ele>
        <time>2023-07-29T14:03:55.000Z</time>
        <extensions>
          <ns3:TrackPointExtension>
            <ns3:hr>76</ns3:hr>
            <ns3:cad>0</ns3:cad>
          </ns3:TrackPointExtension>
        </extensions>
      </trkpt>
      <trkpt lat="37.760653831064701080322265625" lon="-107.710572816431522369384765625">
        <ele>3635.39990234375</ele>
        <time>2023-07-29T14:03:56.000Z</time>
        <extensions>
          <ns3:TrackPointExtension>
            <ns3:hr>74</ns3:hr>
            <ns3:cad>0</ns3:cad>
          </ns3:TrackPointExtension>
        </extensions>
      </trkpt>
      <trkpt lat="37.76066028513014316558837890625" lon="-107.71057206206023693084716796875">
        <ele>3635.39990234375</ele>
        <time>2023-07-29T14:03:57.000Z</time>
        <extensions>
          <ns3:TrackPointExtension>
            <ns3:hr>72</ns3:hr>
            <ns3:cad>0</ns3:cad>
          </ns3:TrackPointExtension>
        </extensions>
      </trkpt>
      <trkpt lat="37.760661542415618896484375" lon="-107.710571475327014923095703125">
        <ele>3635.39990234375</ele>
        <time>2023-07-29T14:03:58.000Z</time>
        <extensions>
          <ns3:TrackPointExtension>
            <ns3:hr>72</ns3:hr>
            <ns3:cad>0</ns3:cad>
          </ns3:TrackPointExtension>
        </extensions>
      </trkpt>
      <trkpt lat="37.76066464371979236602783203125" lon="-107.71056887693703174591064453125">
        <ele>3635.800048828125</ele>
        <time>2023-07-29T14:03:59.000Z</time>
        <extensions>
          <ns3:TrackPointExtension>
            <ns3:hr>73</ns3:hr>
            <ns3:cad>0</ns3:cad>
          </ns3:TrackPointExtension>
        </extensions>
      </trkpt>
      <trkpt lat="37.76066564954817295074462890625" lon="-107.71056720055639743804931640625">
        <ele>3635.800048828125</ele>
        <time>2023-07-29T14:04:00.000Z</time>
        <extensions>
          <ns3:TrackPointExtension>
            <ns3:hr>74</ns3:hr>
            <ns3:cad>0</ns3:cad>
          </ns3:TrackPointExtension>
        </extensions>
      </trkpt>
      <trkpt lat="37.76066891849040985107421875" lon="-107.71056376397609710693359375">
        <ele>3635.800048828125</ele>
        <time>2023-07-29T14:04:01.000Z</time>
        <extensions>
          <ns3:TrackPointExtension>
            <ns3:hr>75</ns3:hr>
            <ns3:cad>44</ns3:cad>
          </ns3:TrackPointExtension>
        </extensions>
      </trkpt>
      <trkpt lat="37.76067470200359821319580078125" lon="-107.7105599083006381988525390625">
        <ele>3635.800048828125</ele>
        <time>2023-07-29T14:04:02.000Z</time>
        <extensions>
          <ns3:TrackPointExtension>
            <ns3:hr>76</ns3:hr>
            <ns3:cad>44</ns3:cad>
          </ns3:TrackPointExtension>
        </extensions>
      </trkpt>
      <trkpt lat="37.760680653154850006103515625" lon="-107.71055630408227443695068359375">
        <ele>3635.800048828125</ele>
        <time>2023-07-29T14:04:03.000Z</time>
        <extensions>
          <ns3:TrackPointExtension>
            <ns3:hr>76</ns3:hr>
            <ns3:cad>44</ns3:cad>
          </ns3:TrackPointExtension>
        </extensions>
      </trkpt>
      <trkpt lat="37.7606892026960849761962890625" lon="-107.7105496823787689208984375">
        <ele>3635.800048828125</ele>
        <time>2023-07-29T14:04:04.000Z</time>
        <extensions>
          <ns3:TrackPointExtension>
            <ns3:hr>77</ns3:hr>
            <ns3:cad>44</ns3:cad>
          </ns3:TrackPointExtension>
        </extensions>
      </trkpt>
      <trkpt lat="37.7607063017785549163818359375" lon="-107.710545323789119720458984375">
        <ele>3635.60009765625</ele>
        <time>2023-07-29T14:04:05.000Z</time>
        <extensions>
          <ns3:TrackPointExtension>
            <ns3:hr>76</ns3:hr>
            <ns3:cad>46</ns3:cad>
          </ns3:TrackPointExtension>
        </extensions>
      </trkpt>
      <trkpt lat="37.760713510215282440185546875" lon="-107.7105428092181682586669921875">
        <ele>3635.60009765625</ele>
        <time>2023-07-29T14:04:06.000Z</time>
        <extensions>
          <ns3:TrackPointExtension>
            <ns3:hr>76</ns3:hr>
            <ns3:cad>46</ns3:cad>
          </ns3:TrackPointExtension>
        </extensions>
      </trkpt>
      <trkpt lat="37.76072390377521514892578125" lon="-107.71054054610431194305419921875">
        <ele>3635.39990234375</ele>
        <time>2023-07-29T14:04:07.000Z</time>
        <extensions>
          <ns3:TrackPointExtension>
            <ns3:hr>76</ns3:hr>
            <ns3:cad>46</ns3:cad>
          </ns3:TrackPointExtension>
        </extensions>
      </trkpt>
      <trkpt lat="37.760731279850006103515625" lon="-107.7105374448001384735107421875">
        <ele>3635.39990234375</ele>
        <time>2023-07-29T14:04:08.000Z</time>
        <extensions>
          <ns3:TrackPointExtension>
            <ns3:hr>76</ns3:hr>
            <ns3:cad>46</ns3:cad>
          </ns3:TrackPointExtension>
        </extensions>
      </trkpt>
      <trkpt lat="37.76074242778122425079345703125" lon="-107.71053417585790157318115234375">
        <ele>3635.199951171875</ele>
        <time>2023-07-29T14:04:09.000Z</time>
        <extensions>
          <ns3:TrackPointExtension>
            <ns3:hr>76</ns3:hr>
            <ns3:cad>46</ns3:cad>
          </ns3:TrackPointExtension>
        </extensions>
      </trkpt>
      <trkpt lat="37.7607539109885692596435546875" lon="-107.710530571639537811279296875">
        <ele>3635</ele>
        <time>2023-07-29T14:04:10.000Z</time>
        <extensions>
          <ns3:TrackPointExtension>
            <ns3:hr>77</ns3:hr>
            <ns3:cad>46</ns3:cad>
          </ns3:TrackPointExtension>
        </extensions>
      </trkpt>
      <trkpt lat="37.76076816022396087646484375" lon="-107.71052562631666660308837890625">
        <ele>3635</ele>
        <time>2023-07-29T14:04:11.000Z</time>
        <extensions>
          <ns3:TrackPointExtension>
            <ns3:hr>78</ns3:hr>
            <ns3:cad>0</ns3:cad>
          </ns3:TrackPointExtension>
        </extensions>
      </trkpt>
      <trkpt lat="37.7607809007167816162109375" lon="-107.710523195564746856689453125">
        <ele>3635</ele>
        <time>2023-07-29T14:04:12.000Z</time>
        <extensions>
          <ns3:TrackPointExtension>
            <ns3:hr>78</ns3:hr>
            <ns3:cad>0</ns3:cad>
          </ns3:TrackPointExtension>
        </extensions>
      </trkpt>
      <trkpt lat="37.7607921324670314788818359375" lon="-107.7105243690311908721923828125">
        <ele>3635</ele>
        <time>2023-07-29T14:04:13.000Z</time>
        <extensions>
          <ns3:TrackPointExtension>
            <ns3:hr>78</ns3:hr>
            <ns3:cad>0</ns3:cad>
          </ns3:TrackPointExtension>
        </extensions>
      </trkpt>
      <trkpt lat="37.76079875417053699493408203125" lon="-107.71052612923085689544677734375">
        <ele>3635</ele>
        <time>2023-07-29T14:04:14.000Z</time>
        <extensions>
          <ns3:TrackPointExtension>
            <ns3:hr>78</ns3:hr>
            <ns3:cad>0</ns3:cad>
          </ns3:TrackPointExtension>
        </extensions>
      </trkpt>
      <trkpt lat="37.760806716978549957275390625" lon="-107.71052730269730091094970703125">
        <ele>3635</ele>
        <time>2023-07-29T14:04:15.000Z</time>
        <extensions>
          <ns3:TrackPointExtension>
            <ns3:hr>78</ns3:hr>
            <ns3:cad>0</ns3:cad>
          </ns3:TrackPointExtension>
        </extensions>
      </trkpt>
      <trkpt lat="37.7608099021017551422119140625" lon="-107.7105287276208400726318359375">
        <ele>3634.800048828125</ele>
        <time>2023-07-29T14:04:16.000Z</time>
        <extensions>
          <ns3:TrackPointExtension>
            <ns3:hr>78</ns3:hr>
            <ns3:cad>0</ns3:cad>
          </ns3:TrackPointExtension>
        </extensions>
      </trkpt>
      <trkpt lat="37.76081300340592861175537109375" lon="-107.71052797324955463409423828125">
        <ele>3634.800048828125</ele>
        <time>2023-07-29T14:04:17.000Z</time>
        <extensions>
          <ns3:TrackPointExtension>
            <ns3:hr>78</ns3:hr>
            <ns3:cad>0</ns3:cad>
          </ns3:TrackPointExtension>
        </extensions>
      </trkpt>
      <trkpt lat="37.76081736199557781219482421875" lon="-107.71052998490631580352783203125">
        <ele>3634.800048828125</ele>
        <time>2023-07-29T14:04:18.000Z</time>
        <extensions>
          <ns3:TrackPointExtension>
            <ns3:hr>79</ns3:hr>
            <ns3:cad>0</ns3:cad>
          </ns3:TrackPointExtension>
        </extensions>
      </trkpt>
      <trkpt lat="37.76082440279424190521240234375" lon="-107.71053149364888668060302734375">
        <ele>3634.800048828125</ele>
        <time>2023-07-29T14:04:19.000Z</time>
        <extensions>
          <ns3:TrackPointExtension>
            <ns3:hr>83</ns3:hr>
            <ns3:cad>0</ns3:cad>
          </ns3:TrackPointExtension>
        </extensions>
      </trkpt>
      <trkpt lat="37.760827839374542236328125" lon="-107.7105357684195041656494140625">
        <ele>3634.800048828125</ele>
        <time>2023-07-29T14:04:20.000Z</time>
        <extensions>
          <ns3:TrackPointExtension>
            <ns3:hr>85</ns3:hr>
            <ns3:cad>0</ns3:cad>
          </ns3:TrackPointExtension>
        </extensions>
      </trkpt>
      <trkpt lat="37.76083253324031829833984375" lon="-107.71053870208561420440673828125">
        <ele>3634.60009765625</ele>
        <time>2023-07-29T14:04:21.000Z</time>
        <extensions>
          <ns3:TrackPointExtension>
            <ns3:hr>85</ns3:hr>
            <ns3:cad>0</ns3:cad>
          </ns3:TrackPointExtension>
        </extensions>
      </trkpt>
      <trkpt lat="37.7608377300202846527099609375" lon="-107.71054188720881938934326171875">
        <ele>3634.60009765625</ele>
        <time>2023-07-29T14:04:22.000Z</time>
        <extensions>
          <ns3:TrackPointExtension>
            <ns3:hr>85</ns3:hr>
            <ns3:cad>0</ns3:cad>
          </ns3:TrackPointExtension>
        </extensions>
      </trkpt>
      <trkpt lat="37.76084586046636104583740234375" lon="-107.71054842509329319000244140625">
        <ele>3634.39990234375</ele>
        <time>2023-07-29T14:04:23.000Z</time>
        <extensions>
          <ns3:TrackPointExtension>
            <ns3:hr>85</ns3:hr>
            <ns3:cad>0</ns3:cad>
          </ns3:TrackPointExtension>
        </extensions>
      </trkpt>
      <trkpt lat="37.76085105724632740020751953125" lon="-107.71055261604487895965576171875">
        <ele>3634.39990234375</ele>
        <time>2023-07-29T14:04:24.000Z</time>
        <extensions>
          <ns3:TrackPointExtension>
            <ns3:hr>85</ns3:hr>
            <ns3:cad>0</ns3:cad>
          </ns3:TrackPointExtension>
        </extensions>
      </trkpt>
      <trkpt lat="37.76085323654115200042724609375" lon="-107.71055446006357669830322265625">
        <ele>3634.39990234375</ele>
        <time>2023-07-29T14:04:25.000Z</time>
        <extensions>
          <ns3:TrackPointExtension>
            <ns3:hr>85</ns3:hr>
            <ns3:cad>0</ns3:cad>
          </ns3:TrackPointExtension>
        </extensions>
      </trkpt>
      <trkpt lat="37.760858349502086639404296875" lon="-107.71055705845355987548828125">
        <ele>3634.39990234375</ele>
        <time>2023-07-29T14:04:26.000Z</time>
        <extensions>
          <ns3:TrackPointExtension>
            <ns3:hr>85</ns3:hr>
            <ns3:cad>0</ns3:cad>
          </ns3:TrackPointExtension>
        </extensions>
      </trkpt>
      <trkpt lat="37.76085725985467433929443359375" lon="-107.71055663935840129852294921875">
        <ele>3634</ele>
        <time>2023-07-29T14:04:27.000Z</time>
        <extensions>
          <ns3:TrackPointExtension>
            <ns3:hr>85</ns3:hr>
            <ns3:cad>0</ns3:cad>
          </ns3:TrackPointExtension>
        </extensions>
      </trkpt>
      <trkpt lat="37.7608598582446575164794921875" lon="-107.71055647172033786773681640625">
        <ele>3634</ele>
        <time>2023-07-29T14:04:28.000Z</time>
        <extensions>
          <ns3:TrackPointExtension>
            <ns3:hr>85</ns3:hr>
            <ns3:cad>0</ns3:cad>
          </ns3:TrackPointExtension>
        </extensions>
      </trkpt>
      <trkpt lat="37.7608667314052581787109375" lon="-107.71055948920547962188720703125">
        <ele>3633.800048828125</ele>
        <time>2023-07-29T14:04:29.000Z</time>
        <extensions>
          <ns3:TrackPointExtension>
            <ns3:hr>85</ns3:hr>
            <ns3:cad>0</ns3:cad>
          </ns3:TrackPointExtension>
        </extensions>
      </trkpt>
      <trkpt lat="37.76087678968906402587890625" lon="-107.71056066267192363739013671875">
        <ele>3633.800048828125</ele>
        <time>2023-07-29T14:04:30.000Z</time>
        <extensions>
          <ns3:TrackPointExtension>
            <ns3:hr>85</ns3:hr>
            <ns3:cad>0</ns3:cad>
          </ns3:TrackPointExtension>
        </extensions>
      </trkpt>
      <trkpt lat="37.76088072918355464935302734375" lon="-107.71055714227259159088134765625">
        <ele>3633.60009765625</ele>
        <time>2023-07-29T14:04:31.000Z</time>
        <extensions>
          <ns3:TrackPointExtension>
            <ns3:hr>85</ns3:hr>
            <ns3:cad>0</ns3:cad>
          </ns3:TrackPointExtension>
        </extensions>
      </trkpt>
      <trkpt lat="37.76088424958288669586181640625" lon="-107.7105542086064815521240234375">
        <ele>3633.39990234375</ele>
        <time>2023-07-29T14:04:32.000Z</time>
        <extensions>
          <ns3:TrackPointExtension>
            <ns3:hr>85</ns3:hr>
            <ns3:cad>0</ns3:cad>
          </ns3:TrackPointExtension>
        </extensions>
      </trkpt>
      <trkpt lat="37.76089212857186794281005859375" lon="-107.71055010147392749786376953125">
        <ele>3633.199951171875</ele>
        <time>2023-07-29T14:04:33.000Z</time>
        <extensions>
          <ns3:TrackPointExtension>
            <ns3:hr>85</ns3:hr>
            <ns3:cad>0</ns3:cad>
          </ns3:TrackPointExtension>
        </extensions>
      </trkpt>
      <trkpt lat="37.76090302504599094390869140625" lon="-107.710544653236865997314453125">
        <ele>3633.199951171875</ele>
        <time>2023-07-29T14:04:34.000Z</time>
        <extensions>
          <ns3:TrackPointExtension>
            <ns3:hr>84</ns3:hr>
            <ns3:cad>0</ns3:cad>
          </ns3:TrackPointExtension>
        </extensions>
      </trkpt>
      <trkpt lat="37.7609101496636867523193359375" lon="-107.71053937263786792755126953125">
        <ele>3633.199951171875</ele>
        <time>2023-07-29T14:04:35.000Z</time>
        <extensions>
          <ns3:TrackPointExtension>
            <ns3:hr>83</ns3:hr>
            <ns3:cad>0</ns3:cad>
          </ns3:TrackPointExtension>
        </extensions>
      </trkpt>
      <trkpt lat="37.76091895066201686859130859375" lon="-107.71053467877209186553955078125">
        <ele>3633.199951171875</ele>
        <time>2023-07-29T14:04:36.000Z</time>
        <extensions>
          <ns3:TrackPointExtension>
            <ns3:hr>83</ns3:hr>
            <ns3:cad>0</ns3:cad>
          </ns3:TrackPointExtension>
        </extensions>
      </trkpt>
      <trkpt lat="37.760929428040981292724609375" lon="-107.71052629686892032623291015625">
        <ele>3633</ele>
        <time>2023-07-29T14:04:37.000Z</time>
        <extensions>
          <ns3:TrackPointExtension>
            <ns3:hr>83</ns3:hr>
            <ns3:cad>0</ns3:cad>
          </ns3:TrackPointExtension>
        </extensions>
      </trkpt>
      <trkpt lat="37.76093755848705768585205078125" lon="-107.71051682531833648681640625">
        <ele>3633</ele>
        <time>2023-07-29T14:04:38.000Z</time>
        <extensions>
          <ns3:TrackPointExtension>
            <ns3:hr>83</ns3:hr>
            <ns3:cad>0</ns3:cad>
          </ns3:TrackPointExtension>
        </extensions>
      </trkpt>
      <trkpt lat="37.760950215160846710205078125" lon="-107.71050701849162578582763671875">
        <ele>3633</ele>
        <time>2023-07-29T14:04:39.000Z</time>
        <extensions>
          <ns3:TrackPointExtension>
            <ns3:hr>83</ns3:hr>
            <ns3:cad>0</ns3:cad>
          </ns3:TrackPointExtension>
        </extensions>
      </trkpt>
      <trkpt lat="37.7609606087207794189453125" lon="-107.71049779839813709259033203125">
        <ele>3633</ele>
        <time>2023-07-29T14:04:40.000Z</time>
        <extensions>
          <ns3:TrackPointExtension>
            <ns3:hr>83</ns3:hr>
            <ns3:cad>0</ns3:cad>
          </ns3:TrackPointExtension>
        </extensions>
      </trkpt>
      <trkpt lat="37.760971672832965850830078125" lon="-107.7104941941797733306884765625">
        <ele>3633</ele>
        <time>2023-07-29T14:04:41.000Z</time>
        <extensions>
          <ns3:TrackPointExtension>
            <ns3:hr>83</ns3:hr>
            <ns3:cad>0</ns3:cad>
          </ns3:TrackPointExtension>
        </extensions>
      </trkpt>
      <trkpt lat="37.76097678579390048980712890625" lon="-107.71049411036074161529541015625">
        <ele>3633</ele>
        <time>2023-07-29T14:04:42.000Z</time>
        <extensions>
          <ns3:TrackPointExtension>
            <ns3:hr>82</ns3:hr>
            <ns3:cad>0</ns3:cad>
          </ns3:TrackPointExtension>
        </extensions>
      </trkpt>
      <trkpt lat="37.760979719460010528564453125" lon="-107.710496373474597930908203125">
        <ele>3633</ele>
        <time>2023-07-29T14:04:43.000Z</time>
        <extensions>
          <ns3:TrackPointExtension>
            <ns3:hr>82</ns3:hr>
            <ns3:cad>0</ns3:cad>
          </ns3:TrackPointExtension>
        </extensions>
      </trkpt>
      <trkpt lat="37.76098483242094516754150390625" lon="-107.7104998938739299774169921875">
        <ele>3633.199951171875</ele>
        <time>2023-07-29T14:04:44.000Z</time>
        <extensions>
          <ns3:TrackPointExtension>
            <ns3:hr>81</ns3:hr>
            <ns3:cad>48</ns3:cad>
          </ns3:TrackPointExtension>
        </extensions>
      </trkpt>
      <trkpt lat="37.76099656708538532257080078125" lon="-107.7104933559894561767578125">
        <ele>3633.199951171875</ele>
        <time>2023-07-29T14:04:45.000Z</time>
        <extensions>
          <ns3:TrackPointExtension>
            <ns3:hr>81</ns3:hr>
            <ns3:cad>54</ns3:cad>
          </ns3:TrackPointExtension>
        </extensions>
      </trkpt>
      <trkpt lat="37.76100528426468372344970703125" lon="-107.710488326847553253173828125">
        <ele>3633.199951171875</ele>
        <time>2023-07-29T14:04:46.000Z</time>
        <extensions>
          <ns3:TrackPointExtension>
            <ns3:hr>81</ns3:hr>
            <ns3:cad>54</ns3:cad>
          </ns3:TrackPointExtension>
        </extensions>
      </trkpt>
      <trkpt lat="37.7610147558152675628662109375" lon="-107.71049000322818756103515625">
        <ele>3633.199951171875</ele>
        <time>2023-07-29T14:04:47.000Z</time>
        <extensions>
          <ns3:TrackPointExtension>
            <ns3:hr>81</ns3:hr>
            <ns3:cad>54</ns3:cad>
          </ns3:TrackPointExtension>
        </extensions>
      </trkpt>
      <trkpt lat="37.76102204807102680206298828125" lon="-107.71048891358077526092529296875">
        <ele>3633.199951171875</ele>
        <time>2023-07-29T14:04:48.000Z</time>
        <extensions>
          <ns3:TrackPointExtension>
            <ns3:hr>81</ns3:hr>
            <ns3:cad>54</ns3:cad>
          </ns3:TrackPointExtension>
        </extensions>
      </trkpt>
      <trkpt lat="37.7610261552035808563232421875" lon="-107.7104853093624114990234375">
        <ele>3633.199951171875</ele>
        <time>2023-07-29T14:04:49.000Z</time>
        <extensions>
          <ns3:TrackPointExtension>
            <ns3:hr>81</ns3:hr>
            <ns3:cad>0</ns3:cad>
          </ns3:TrackPointExtension>
        </extensions>
      </trkpt>
      <trkpt lat="37.76103579439222812652587890625" lon="-107.71047818474471569061279296875">
        <ele>3633.199951171875</ele>
        <time>2023-07-29T14:04:50.000Z</time>
        <extensions>
          <ns3:TrackPointExtension>
            <ns3:hr>81</ns3:hr>
            <ns3:cad>0</ns3:cad>
          </ns3:TrackPointExtension>
        </extensions>
      </trkpt>
      <trkpt lat="37.76104048825800418853759765625" lon="-107.71047030575573444366455078125">
        <ele>3633.199951171875</ele>
        <time>2023-07-29T14:04:51.000Z</time>
        <extensions>
          <ns3:TrackPointExtension>
            <ns3:hr>81</ns3:hr>
            <ns3:cad>0</ns3:cad>
          </ns3:TrackPointExtension>
        </extensions>
      </trkpt>
      <trkpt lat="37.761048115789890289306640625" lon="-107.71046075038611888885498046875">
        <ele>3633.199951171875</ele>
        <time>2023-07-29T14:04:52.000Z</time>
        <extensions>
          <ns3:TrackPointExtension>
            <ns3:hr>81</ns3:hr>
            <ns3:cad>0</ns3:cad>
          </ns3:TrackPointExtension>
        </extensions>
      </trkpt>
      <trkpt lat="37.76106010191142559051513671875" lon="-107.71044884808361530303955078125">
        <ele>3633.199951171875</ele>
        <time>2023-07-29T14:04:53.000Z</time>
        <extensions>
          <ns3:TrackPointExtension>
            <ns3:hr>81</ns3:hr>
            <ns3:cad>0</ns3:cad>
          </ns3:TrackPointExtension>
        </extensions>
      </trkpt>
      <trkpt lat="37.76106898672878742218017578125" lon="-107.71043661050498485565185546875">
        <ele>3633.199951171875</ele>
        <time>2023-07-29T14:04:54.000Z</time>
        <extensions>
          <ns3:TrackPointExtension>
            <ns3:hr>81</ns3:hr>
            <ns3:cad>0</ns3:cad>
          </ns3:TrackPointExtension>
        </extensions>
      </trkpt>
      <trkpt lat="37.76107753627002239227294921875" lon="-107.71042487584054470062255859375">
        <ele>3633.199951171875</ele>
        <time>2023-07-29T14:04:55.000Z</time>
        <extensions>
          <ns3:TrackPointExtension>
            <ns3:hr>81</ns3:hr>
            <ns3:cad>48</ns3:cad>
          </ns3:TrackPointExtension>
        </extensions>
      </trkpt>
      <trkpt lat="37.76108977384865283966064453125" lon="-107.710409201681613922119140625">
        <ele>3633.199951171875</ele>
        <time>2023-07-29T14:04:56.000Z</time>
        <extensions>
          <ns3:TrackPointExtension>
            <ns3:hr>81</ns3:hr>
            <ns3:cad>48</ns3:cad>
          </ns3:TrackPointExtension>
        </extensions>
      </trkpt>
      <trkpt lat="37.7610995806753635406494140625" lon="-107.7103946171700954437255859375">
        <ele>3633.199951171875</ele>
        <time>2023-07-29T14:04:57.000Z</time>
        <extensions>
          <ns3:TrackPointExtension>
            <ns3:hr>81</ns3:hr>
            <ns3:cad>48</ns3:cad>
          </ns3:TrackPointExtension>
        </extensions>
      </trkpt>
      <trkpt lat="37.7611049450933933258056640625" lon="-107.71038380451500415802001953125">
        <ele>3633</ele>
        <time>2023-07-29T14:04:58.000Z</time>
        <extensions>
          <ns3:TrackPointExtension>
            <ns3:hr>81</ns3:hr>
            <ns3:cad>45</ns3:cad>
          </ns3:TrackPointExtension>
        </extensions>
      </trkpt>
      <trkpt lat="37.76111374609172344207763671875" lon="-107.71036854945123195648193359375">
        <ele>3632.800048828125</ele>
        <time>2023-07-29T14:04:59.000Z</time>
        <extensions>
          <ns3:TrackPointExtension>
            <ns3:hr>82</ns3:hr>
            <ns3:cad>45</ns3:cad>
          </ns3:TrackPointExtension>
        </extensions>
      </trkpt>
      <trkpt lat="37.761121876537799835205078125" lon="-107.71035765297710895538330078125">
        <ele>3632.800048828125</ele>
        <time>2023-07-29T14:05:00.000Z</time>
        <extensions>
          <ns3:TrackPointExtension>
            <ns3:hr>82</ns3:hr>
            <ns3:cad>45</ns3:cad>
          </ns3:TrackPointExtension>
        </extensions>
      </trkpt>
      <trkpt lat="37.76113084517419338226318359375" lon="-107.71034575067460536956787109375">
        <ele>3632.800048828125</ele>
        <time>2023-07-29T14:05:01.000Z</time>
        <extensions>
          <ns3:TrackPointExtension>
            <ns3:hr>83</ns3:hr>
            <ns3:cad>0</ns3:cad>
          </ns3:TrackPointExtension>
        </extensions>
      </trkpt>
      <trkpt lat="37.7611321024596691131591796875" lon="-107.71034575067460536956787109375">
        <ele>3632.800048828125</ele>
        <time>2023-07-29T14:05:02.000Z</time>
        <extensions>
          <ns3:TrackPointExtension>
            <ns3:hr>84</ns3:hr>
            <ns3:cad>0</ns3:cad>
          </ns3:TrackPointExtension>
        </extensions>
      </trkpt>
      <trkpt lat="37.76113838888704776763916015625" lon="-107.710339464247226715087890625">
        <ele>3632.800048828125</ele>
        <time>2023-07-29T14:05:03.000Z</time>
        <extensions>
          <ns3:TrackPointExtension>
            <ns3:hr>87</ns3:hr>
            <ns3:cad>0</ns3:cad>
          </ns3:TrackPointExtension>
        </extensions>
      </trkpt>
      <trkpt lat="37.76114911772310733795166015625" lon="-107.71033502183854579925537109375">
        <ele>3632.800048828125</ele>
        <time>2023-07-29T14:05:04.000Z</time>
        <extensions>
          <ns3:TrackPointExtension>
            <ns3:hr>87</ns3:hr>
            <ns3:cad>0</ns3:cad>
          </ns3:TrackPointExtension>
        </extensions>
      </trkpt>
      <trkpt lat="37.76115615852177143096923828125" lon="-107.7103366144001483917236328125">
        <ele>3632.800048828125</ele>
        <time>2023-07-29T14:05:05.000Z</time>
        <extensions>
          <ns3:TrackPointExtension>
            <ns3:hr>88</ns3:hr>
            <ns3:cad>0</ns3:cad>
          </ns3:TrackPointExtension>
        </extensions>
      </trkpt>
      <trkpt lat="37.76117183268070220947265625" lon="-107.71032747812569141387939453125">
        <ele>3632.60009765625</ele>
        <time>2023-07-29T14:05:06.000Z</time>
        <extensions>
          <ns3:TrackPointExtension>
            <ns3:hr>89</ns3:hr>
            <ns3:cad>0</ns3:cad>
          </ns3:TrackPointExtension>
        </extensions>
      </trkpt>
      <trkpt lat="37.76118113659322261810302734375" lon="-107.710325382649898529052734375">
        <ele>3632.60009765625</ele>
        <time>2023-07-29T14:05:07.000Z</time>
        <extensions>
          <ns3:TrackPointExtension>
            <ns3:hr>89</ns3:hr>
            <ns3:cad>0</ns3:cad>
          </ns3:TrackPointExtension>
        </extensions>
      </trkpt>
      <trkpt lat="37.76118935085833072662353515625" lon="-107.710324712097644805908203125">
        <ele>3632.60009765625</ele>
        <time>2023-07-29T14:05:08.000Z</time>
        <extensions>
          <ns3:TrackPointExtension>
            <ns3:hr>89</ns3:hr>
            <ns3:cad>0</ns3:cad>
          </ns3:TrackPointExtension>
        </extensions>
      </trkpt>
      <trkpt lat="37.76119387708604335784912109375" lon="-107.71032362245023250579833984375">
        <ele>3632.60009765625</ele>
        <time>2023-07-29T14:05:09.000Z</time>
        <extensions>
          <ns3:TrackPointExtension>
            <ns3:hr>89</ns3:hr>
            <ns3:cad>0</ns3:cad>
          </ns3:TrackPointExtension>
        </extensions>
      </trkpt>
      <trkpt lat="37.761199660599231719970703125" lon="-107.71032328717410564422607421875">
        <ele>3632.60009765625</ele>
        <time>2023-07-29T14:05:10.000Z</time>
        <extensions>
          <ns3:TrackPointExtension>
            <ns3:hr>89</ns3:hr>
            <ns3:cad>0</ns3:cad>
          </ns3:TrackPointExtension>
        </extensions>
      </trkpt>
      <trkpt lat="37.76120577938854694366455078125" lon="-107.7103228680789470672607421875">
        <ele>3632.60009765625</ele>
        <time>2023-07-29T14:05:11.000Z</time>
        <extensions>
          <ns3:TrackPointExtension>
            <ns3:hr>89</ns3:hr>
            <ns3:cad>0</ns3:cad>
          </ns3:TrackPointExtension>
        </extensions>
      </trkpt>
      <trkpt lat="37.76120745576918125152587890625" lon="-107.71032010205090045928955078125">
        <ele>3632.60009765625</ele>
        <time>2023-07-29T14:05:12.000Z</time>
        <extensions>
          <ns3:TrackPointExtension>
            <ns3:hr>89</ns3:hr>
            <ns3:cad>0</ns3:cad>
          </ns3:TrackPointExtension>
        </extensions>
      </trkpt>
      <trkpt lat="37.76121064089238643646240234375" lon="-107.7103168331086635589599609375">
        <ele>3632.60009765625</ele>
        <time>2023-07-29T14:05:13.000Z</time>
        <extensions>
          <ns3:TrackPointExtension>
            <ns3:hr>90</ns3:hr>
            <ns3:cad>0</ns3:cad>
          </ns3:TrackPointExtension>
        </extensions>
      </trkpt>
      <trkpt lat="37.76122011244297027587890625" lon="-107.71031004376709461212158203125">
        <ele>3632.60009765625</ele>
        <time>2023-07-29T14:05:14.000Z</time>
        <extensions>
          <ns3:TrackPointExtension>
            <ns3:hr>91</ns3:hr>
            <ns3:cad>0</ns3:cad>
          </ns3:TrackPointExtension>
        </extensions>
      </trkpt>
      <trkpt lat="37.76122321374714374542236328125" lon="-107.7103057689964771270751953125">
        <ele>3632.60009765625</ele>
        <time>2023-07-29T14:05:15.000Z</time>
        <extensions>
          <ns3:TrackPointExtension>
            <ns3:hr>92</ns3:hr>
            <ns3:cad>46</ns3:cad>
          </ns3:TrackPointExtension>
        </extensions>
      </trkpt>
      <trkpt lat="37.761229164898395538330078125" lon="-107.71029981784522533416748046875">
        <ele>3632.60009765625</ele>
        <time>2023-07-29T14:05:16.000Z</time>
        <extensions>
          <ns3:TrackPointExtension>
            <ns3:hr>93</ns3:hr>
            <ns3:cad>46</ns3:cad>
          </ns3:TrackPointExtension>
        </extensions>
      </trkpt>
      <trkpt lat="37.7612326852977275848388671875" lon="-107.710291855037212371826171875">
        <ele>3632.60009765625</ele>
        <time>2023-07-29T14:05:17.000Z</time>
        <extensions>
          <ns3:TrackPointExtension>
            <ns3:hr>93</ns3:hr>
            <ns3:cad>46</ns3:cad>
          </ns3:TrackPointExtension>
        </extensions>
      </trkpt>
      <trkpt lat="37.76124785654246807098388671875" lon="-107.7102816291153430938720703125">
        <ele>3632.60009765625</ele>
        <time>2023-07-29T14:05:18.000Z</time>
        <extensions>
          <ns3:TrackPointExtension>
            <ns3:hr>93</ns3:hr>
            <ns3:cad>51</ns3:cad>
          </ns3:TrackPointExtension>
        </extensions>
      </trkpt>
      <trkpt lat="37.76126244105398654937744140625" lon="-107.71027282811701297760009765625">
        <ele>3632.60009765625</ele>
        <time>2023-07-29T14:05:19.000Z</time>
        <extensions>
          <ns3:TrackPointExtension>
            <ns3:hr>93</ns3:hr>
            <ns3:cad>51</ns3:cad>
          </ns3:TrackPointExtension>
        </extensions>
      </trkpt>
      <trkpt lat="37.76127467863261699676513671875" lon="-107.710265703499317169189453125">
        <ele>3632.39990234375</ele>
        <time>2023-07-29T14:05:20.000Z</time>
        <extensions>
          <ns3:TrackPointExtension>
            <ns3:hr>93</ns3:hr>
            <ns3:cad>51</ns3:cad>
          </ns3:TrackPointExtension>
        </extensions>
      </trkpt>
      <trkpt lat="37.7612836472690105438232421875" lon="-107.71026142872869968414306640625">
        <ele>3632.39990234375</ele>
        <time>2023-07-29T14:05:21.000Z</time>
        <extensions>
          <ns3:TrackPointExtension>
            <ns3:hr>93</ns3:hr>
            <ns3:cad>51</ns3:cad>
          </ns3:TrackPointExtension>
        </extensions>
      </trkpt>
      <trkpt lat="37.76129010133445262908935546875" lon="-107.710259668529033660888671875">
        <ele>3632.39990234375</ele>
        <time>2023-07-29T14:05:22.000Z</time>
        <extensions>
          <ns3:TrackPointExtension>
            <ns3:hr>93</ns3:hr>
            <ns3:cad>51</ns3:cad>
          </ns3:TrackPointExtension>
        </extensions>
      </trkpt>
      <trkpt lat="37.76129378937184810638427734375" lon="-107.710263021290302276611328125">
        <ele>3632.39990234375</ele>
        <time>2023-07-29T14:05:23.000Z</time>
        <extensions>
          <ns3:TrackPointExtension>
            <ns3:hr>93</ns3:hr>
            <ns3:cad>41</ns3:cad>
          </ns3:TrackPointExtension>
        </extensions>
      </trkpt>
      <trkpt lat="37.7612987346947193145751953125" lon="-107.71026595495641231536865234375">
        <ele>3632.39990234375</ele>
        <time>2023-07-29T14:05:24.000Z</time>
        <extensions>
          <ns3:TrackPointExtension>
            <ns3:hr>93</ns3:hr>
            <ns3:cad>0</ns3:cad>
          </ns3:TrackPointExtension>
        </extensions>
      </trkpt>
      <trkpt lat="37.76130233891308307647705078125" lon="-107.7102631889283657073974609375">
        <ele>3632.39990234375</ele>
        <time>2023-07-29T14:05:25.000Z</time>
        <extensions>
          <ns3:TrackPointExtension>
            <ns3:hr>92</ns3:hr>
            <ns3:cad>0</ns3:cad>
          </ns3:TrackPointExtension>
        </extensions>
      </trkpt>
      <trkpt lat="37.76130585931241512298583984375" lon="-107.71026335656642913818359375">
        <ele>3632.39990234375</ele>
        <time>2023-07-29T14:05:26.000Z</time>
        <extensions>
          <ns3:TrackPointExtension>
            <ns3:hr>92</ns3:hr>
            <ns3:cad>0</ns3:cad>
          </ns3:TrackPointExtension>
        </extensions>
      </trkpt>
      <trkpt lat="37.76131558232009410858154296875" lon="-107.71026042290031909942626953125">
        <ele>3632.39990234375</ele>
        <time>2023-07-29T14:05:27.000Z</time>
        <extensions>
          <ns3:TrackPointExtension>
            <ns3:hr>91</ns3:hr>
            <ns3:cad>0</ns3:cad>
          </ns3:TrackPointExtension>
        </extensions>
      </trkpt>
      <trkpt lat="37.76132262311875820159912109375" lon="-107.71025807596743106842041015625">
        <ele>3632.39990234375</ele>
        <time>2023-07-29T14:05:28.000Z</time>
        <extensions>
          <ns3:TrackPointExtension>
            <ns3:hr>90</ns3:hr>
            <ns3:cad>0</ns3:cad>
          </ns3:TrackPointExtension>
        </extensions>
      </trkpt>
      <trkpt lat="37.76133284904062747955322265625" lon="-107.710254974663257598876953125">
        <ele>3632.199951171875</ele>
        <time>2023-07-29T14:05:29.000Z</time>
        <extensions>
          <ns3:TrackPointExtension>
            <ns3:hr>89</ns3:hr>
            <ns3:cad>0</ns3:cad>
          </ns3:TrackPointExtension>
        </extensions>
      </trkpt>
      <trkpt lat="37.76134558953344821929931640625" lon="-107.71024986170232295989990234375">
        <ele>3632.199951171875</ele>
        <time>2023-07-29T14:05:30.000Z</time>
        <extensions>
          <ns3:TrackPointExtension>
            <ns3:hr>88</ns3:hr>
            <ns3:cad>0</ns3:cad>
          </ns3:TrackPointExtension>
        </extensions>
      </trkpt>
      <trkpt lat="37.76135581545531749725341796875" lon="-107.71024382673203945159912109375">
        <ele>3632.199951171875</ele>
        <time>2023-07-29T14:05:31.000Z</time>
        <extensions>
          <ns3:TrackPointExtension>
            <ns3:hr>87</ns3:hr>
            <ns3:cad>0</ns3:cad>
          </ns3:TrackPointExtension>
        </extensions>
      </trkpt>
      <trkpt lat="37.76136763393878936767578125" lon="-107.71023527719080448150634765625">
        <ele>3632.199951171875</ele>
        <time>2023-07-29T14:05:32.000Z</time>
        <extensions>
          <ns3:TrackPointExtension>
            <ns3:hr>87</ns3:hr>
            <ns3:cad>0</ns3:cad>
          </ns3:TrackPointExtension>
        </extensions>
      </trkpt>
      <trkpt lat="37.7613818831741809844970703125" lon="-107.710226476192474365234375">
        <ele>3632.199951171875</ele>
        <time>2023-07-29T14:05:33.000Z</time>
        <extensions>
          <ns3:TrackPointExtension>
            <ns3:hr>87</ns3:hr>
            <ns3:cad>0</ns3:cad>
          </ns3:TrackPointExtension>
        </extensions>
      </trkpt>
      <trkpt lat="37.76138842105865478515625" lon="-107.71022270433604717254638671875">
        <ele>3632.199951171875</ele>
        <time>2023-07-29T14:05:34.000Z</time>
        <extensions>
          <ns3:TrackPointExtension>
            <ns3:hr>86</ns3:hr>
            <ns3:cad>0</ns3:cad>
          </ns3:TrackPointExtension>
        </extensions>
      </trkpt>
      <trkpt lat="37.761396467685699462890625" lon="-107.7102142386138439178466796875">
        <ele>3632.199951171875</ele>
        <time>2023-07-29T14:05:35.000Z</time>
        <extensions>
          <ns3:TrackPointExtension>
            <ns3:hr>86</ns3:hr>
            <ns3:cad>0</ns3:cad>
          </ns3:TrackPointExtension>
        </extensions>
      </trkpt>
      <trkpt lat="37.7613996528089046478271484375" lon="-107.7102102153003215789794921875">
        <ele>3632.39990234375</ele>
        <time>2023-07-29T14:05:36.000Z</time>
        <extensions>
          <ns3:TrackPointExtension>
            <ns3:hr>86</ns3:hr>
            <ns3:cad>0</ns3:cad>
          </ns3:TrackPointExtension>
        </extensions>
      </trkpt>
      <trkpt lat="37.76140308938920497894287109375" lon="-107.710205353796482086181640625">
        <ele>3632.39990234375</ele>
        <time>2023-07-29T14:05:37.000Z</time>
        <extensions>
          <ns3:TrackPointExtension>
            <ns3:hr>86</ns3:hr>
            <ns3:cad>0</ns3:cad>
          </ns3:TrackPointExtension>
        </extensions>
      </trkpt>
      <trkpt lat="37.76140208356082439422607421875" lon="-107.71020459942519664764404296875">
        <ele>3632.39990234375</ele>
        <time>2023-07-29T14:05:38.000Z</time>
        <extensions>
          <ns3:TrackPointExtension>
            <ns3:hr>85</ns3:hr>
            <ns3:cad>0</ns3:cad>
          </ns3:TrackPointExtension>
        </extensions>
      </trkpt>
      <trkpt lat="37.7614050172269344329833984375" lon="-107.7102004922926425933837890625">
        <ele>3632.39990234375</ele>
        <time>2023-07-29T14:05:39.000Z</time>
        <extensions>
          <ns3:TrackPointExtension>
            <ns3:hr>85</ns3:hr>
            <ns3:cad>43</ns3:cad>
          </ns3:TrackPointExtension>
        </extensions>
      </trkpt>
      <trkpt lat="37.761414907872676849365234375" lon="-107.71019320003688335418701171875">
        <ele>3632.39990234375</ele>
        <time>2023-07-29T14:05:40.000Z</time>
        <extensions>
          <ns3:TrackPointExtension>
            <ns3:hr>85</ns3:hr>
            <ns3:cad>43</ns3:cad>
          </ns3:TrackPointExtension>
        </extensions>
      </trkpt>
      <trkpt lat="37.76142530143260955810546875" lon="-107.71018213592469692230224609375">
        <ele>3632.199951171875</ele>
        <time>2023-07-29T14:05:41.000Z</time>
        <extensions>
          <ns3:TrackPointExtension>
            <ns3:hr>86</ns3:hr>
            <ns3:cad>43</ns3:cad>
          </ns3:TrackPointExtension>
        </extensions>
      </trkpt>
      <trkpt lat="37.76143577881157398223876953125" lon="-107.71017073653638362884521484375">
        <ele>3632.199951171875</ele>
        <time>2023-07-29T14:05:42.000Z</time>
        <extensions>
          <ns3:TrackPointExtension>
            <ns3:hr>86</ns3:hr>
            <ns3:cad>43</ns3:cad>
          </ns3:TrackPointExtension>
        </extensions>
      </trkpt>
      <trkpt lat="37.761447429656982421875" lon="-107.71015875041484832763671875">
        <ele>3632.199951171875</ele>
        <time>2023-07-29T14:05:43.000Z</time>
        <extensions>
          <ns3:TrackPointExtension>
            <ns3:hr>86</ns3:hr>
            <ns3:cad>45</ns3:cad>
          </ns3:TrackPointExtension>
        </extensions>
      </trkpt>
      <trkpt lat="37.7614569850265979766845703125" lon="-107.710147686302661895751953125">
        <ele>3632.199951171875</ele>
        <time>2023-07-29T14:05:44.000Z</time>
        <extensions>
          <ns3:TrackPointExtension>
            <ns3:hr>86</ns3:hr>
            <ns3:cad>45</ns3:cad>
          </ns3:TrackPointExtension>
        </extensions>
      </trkpt>
      <trkpt lat="37.7614657022058963775634765625" lon="-107.710138969123363494873046875">
        <ele>3632.199951171875</ele>
        <time>2023-07-29T14:05:45.000Z</time>
        <extensions>
          <ns3:TrackPointExtension>
            <ns3:hr>86</ns3:hr>
            <ns3:cad>0</ns3:cad>
          </ns3:TrackPointExtension>
        </extensions>
      </trkpt>
      <trkpt lat="37.7614750899374485015869140625" lon="-107.71013234741985797882080078125">
        <ele>3632.199951171875</ele>
        <time>2023-07-29T14:05:46.000Z</time>
        <extensions>
          <ns3:TrackPointExtension>
            <ns3:hr>85</ns3:hr>
            <ns3:cad>0</ns3:cad>
          </ns3:TrackPointExtension>
        </extensions>
      </trkpt>
      <trkpt lat="37.76148489676415920257568359375" lon="-107.71012782119214534759521484375">
        <ele>3632.199951171875</ele>
        <time>2023-07-29T14:05:47.000Z</time>
        <extensions>
          <ns3:TrackPointExtension>
            <ns3:hr>85</ns3:hr>
            <ns3:cad>0</ns3:cad>
          </ns3:TrackPointExtension>
        </extensions>
      </trkpt>
      <trkpt lat="37.76149461977183818817138671875" lon="-107.71012379787862300872802734375">
        <ele>3632</ele>
        <time>2023-07-29T14:05:48.000Z</time>
        <extensions>
          <ns3:TrackPointExtension>
            <ns3:hr>85</ns3:hr>
            <ns3:cad>0</ns3:cad>
          </ns3:TrackPointExtension>
        </extensions>
      </trkpt>
      <trkpt lat="37.76150484569370746612548828125" lon="-107.7101193554699420928955078125">
        <ele>3632</ele>
        <time>2023-07-29T14:05:49.000Z</time>
        <extensions>
          <ns3:TrackPointExtension>
            <ns3:hr>84</ns3:hr>
            <ns3:cad>0</ns3:cad>
          </ns3:TrackPointExtension>
        </extensions>
      </trkpt>
      <trkpt lat="37.76150635443627834320068359375" lon="-107.71012061275541782379150390625">
        <ele>3632</ele>
        <time>2023-07-29T14:05:50.000Z</time>
        <extensions>
          <ns3:TrackPointExtension>
            <ns3:hr>84</ns3:hr>
            <ns3:cad>0</ns3:cad>
          </ns3:TrackPointExtension>
        </extensions>
      </trkpt>
      <trkpt lat="37.76151708327233791351318359375" lon="-107.7101156674325466156005859375">
        <ele>3632</ele>
        <time>2023-07-29T14:05:51.000Z</time>
        <extensions>
          <ns3:TrackPointExtension>
            <ns3:hr>84</ns3:hr>
            <ns3:cad>0</ns3:cad>
          </ns3:TrackPointExtension>
        </extensions>
      </trkpt>
      <trkpt lat="37.761524207890033721923828125" lon="-107.710114158689975738525390625">
        <ele>3632.199951171875</ele>
        <time>2023-07-29T14:05:52.000Z</time>
        <extensions>
          <ns3:TrackPointExtension>
            <ns3:hr>84</ns3:hr>
            <ns3:cad>0</ns3:cad>
          </ns3:TrackPointExtension>
        </extensions>
      </trkpt>
      <trkpt lat="37.76153485290706157684326171875" lon="-107.7101139910519123077392578125">
        <ele>3632.199951171875</ele>
        <time>2023-07-29T14:05:53.000Z</time>
        <extensions>
          <ns3:TrackPointExtension>
            <ns3:hr>84</ns3:hr>
            <ns3:cad>0</ns3:cad>
          </ns3:TrackPointExtension>
        </extensions>
      </trkpt>
      <trkpt lat="37.76154155842959880828857421875" lon="-107.7101116441190242767333984375">
        <ele>3632.199951171875</ele>
        <time>2023-07-29T14:05:54.000Z</time>
        <extensions>
          <ns3:TrackPointExtension>
            <ns3:hr>84</ns3:hr>
            <ns3:cad>0</ns3:cad>
          </ns3:TrackPointExtension>
        </extensions>
      </trkpt>
      <trkpt lat="37.76155178435146808624267578125" lon="-107.71010904572904109954833984375">
        <ele>3632.39990234375</ele>
        <time>2023-07-29T14:05:55.000Z</time>
        <extensions>
          <ns3:TrackPointExtension>
            <ns3:hr>84</ns3:hr>
            <ns3:cad>0</ns3:cad>
          </ns3:TrackPointExtension>
        </extensions>
      </trkpt>
      <trkpt lat="37.761561758816242218017578125" lon="-107.71010586060583591461181640625">
        <ele>3632.39990234375</ele>
        <time>2023-07-29T14:05:56.000Z</time>
        <extensions>
          <ns3:TrackPointExtension>
            <ns3:hr>84</ns3:hr>
            <ns3:cad>67</ns3:cad>
          </ns3:TrackPointExtension>
        </extensions>
      </trkpt>
      <trkpt lat="37.7615729905664920806884765625" lon="-107.71010351367294788360595703125">
        <ele>3632.60009765625</ele>
        <time>2023-07-29T14:05:57.000Z</time>
        <extensions>
          <ns3:TrackPointExtension>
            <ns3:hr>84</ns3:hr>
            <ns3:cad>67</ns3:cad>
          </ns3:TrackPointExtension>
        </extensions>
      </trkpt>
      <trkpt lat="37.7615783549845218658447265625" lon="-107.71010510623455047607421875">
        <ele>3632.60009765625</ele>
        <time>2023-07-29T14:05:58.000Z</time>
        <extensions>
          <ns3:TrackPointExtension>
            <ns3:hr>85</ns3:hr>
            <ns3:cad>67</ns3:cad>
          </ns3:TrackPointExtension>
        </extensions>
      </trkpt>
      <trkpt lat="37.7615894190967082977294921875" lon="-107.710104100406169891357421875">
        <ele>3632.800048828125</ele>
        <time>2023-07-29T14:05:59.000Z</time>
        <extensions>
          <ns3:TrackPointExtension>
            <ns3:hr>85</ns3:hr>
            <ns3:cad>67</ns3:cad>
          </ns3:TrackPointExtension>
        </extensions>
      </trkpt>
      <trkpt lat="37.76159696280956268310546875" lon="-107.7101042680442333221435546875">
        <ele>3632.800048828125</ele>
        <time>2023-07-29T14:06:00.000Z</time>
        <extensions>
          <ns3:TrackPointExtension>
            <ns3:hr>85</ns3:hr>
            <ns3:cad>67</ns3:cad>
          </ns3:TrackPointExtension>
        </extensions>
      </trkpt>
      <trkpt lat="37.7616035006940364837646484375" lon="-107.71010200493037700653076171875">
        <ele>3632.800048828125</ele>
        <time>2023-07-29T14:06:01.000Z</time>
        <extensions>
          <ns3:TrackPointExtension>
            <ns3:hr>86</ns3:hr>
            <ns3:cad>0</ns3:cad>
          </ns3:TrackPointExtension>
        </extensions>
      </trkpt>
      <trkpt lat="37.7616108767688274383544921875" lon="-107.71010032854974269866943359375">
        <ele>3632.800048828125</ele>
        <time>2023-07-29T14:06:02.000Z</time>
        <extensions>
          <ns3:TrackPointExtension>
            <ns3:hr>86</ns3:hr>
            <ns3:cad>0</ns3:cad>
          </ns3:TrackPointExtension>
        </extensions>
      </trkpt>
      <trkpt lat="37.7616182528436183929443359375" lon="-107.7101002447307109832763671875">
        <ele>3633</ele>
        <time>2023-07-29T14:06:03.000Z</time>
        <extensions>
          <ns3:TrackPointExtension>
            <ns3:hr>86</ns3:hr>
            <ns3:cad>0</ns3:cad>
          </ns3:TrackPointExtension>
        </extensions>
      </trkpt>
      <trkpt lat="37.76162537746131420135498046875" lon="-107.7101049385964870452880859375">
        <ele>3633</ele>
        <time>2023-07-29T14:06:04.000Z</time>
        <extensions>
          <ns3:TrackPointExtension>
            <ns3:hr>86</ns3:hr>
            <ns3:cad>0</ns3:cad>
          </ns3:TrackPointExtension>
        </extensions>
      </trkpt>
      <trkpt lat="37.761631496250629425048828125" lon="-107.71010317839682102203369140625">
        <ele>3633</ele>
        <time>2023-07-29T14:06:05.000Z</time>
        <extensions>
          <ns3:TrackPointExtension>
            <ns3:hr>86</ns3:hr>
            <ns3:cad>0</ns3:cad>
          </ns3:TrackPointExtension>
        </extensions>
      </trkpt>
      <trkpt lat="37.7616423927247524261474609375" lon="-107.71010234020650386810302734375">
        <ele>3632.800048828125</ele>
        <time>2023-07-29T14:06:06.000Z</time>
        <extensions>
          <ns3:TrackPointExtension>
            <ns3:hr>86</ns3:hr>
            <ns3:cad>0</ns3:cad>
          </ns3:TrackPointExtension>
        </extensions>
      </trkpt>
      <trkpt lat="37.76164649985730648040771484375" lon="-107.7101049385964870452880859375">
        <ele>3632.60009765625</ele>
        <time>2023-07-29T14:06:07.000Z</time>
        <extensions>
          <ns3:TrackPointExtension>
            <ns3:hr>85</ns3:hr>
            <ns3:cad>51</ns3:cad>
          </ns3:TrackPointExtension>
        </extensions>
      </trkpt>
      <trkpt lat="37.7616526186466217041015625" lon="-107.7101032622158527374267578125">
        <ele>3632.60009765625</ele>
        <time>2023-07-29T14:06:08.000Z</time>
        <extensions>
          <ns3:TrackPointExtension>
            <ns3:hr>85</ns3:hr>
            <ns3:cad>51</ns3:cad>
          </ns3:TrackPointExtension>
        </extensions>
      </trkpt>
      <trkpt lat="37.76166410185396671295166015625" lon="-107.71010133437812328338623046875">
        <ele>3632.60009765625</ele>
        <time>2023-07-29T14:06:09.000Z</time>
        <extensions>
          <ns3:TrackPointExtension>
            <ns3:hr>86</ns3:hr>
            <ns3:cad>0</ns3:cad>
          </ns3:TrackPointExtension>
        </extensions>
      </trkpt>
      <trkpt lat="37.7616601623594760894775390625" lon="-107.7100975625216960906982421875">
        <ele>3632.60009765625</ele>
        <time>2023-07-29T14:06:10.000Z</time>
        <extensions>
          <ns3:TrackPointExtension>
            <ns3:hr>86</ns3:hr>
            <ns3:cad>0</ns3:cad>
          </ns3:TrackPointExtension>
        </extensions>
      </trkpt>
      <trkpt lat="37.76166309602558612823486328125" lon="-107.7100952155888080596923828125">
        <ele>3632.60009765625</ele>
        <time>2023-07-29T14:06:11.000Z</time>
        <extensions>
          <ns3:TrackPointExtension>
            <ns3:hr>86</ns3:hr>
            <ns3:cad>0</ns3:cad>
          </ns3:TrackPointExtension>
        </extensions>
      </trkpt>
      <trkpt lat="37.76167483069002628326416015625" lon="-107.710085995495319366455078125">
        <ele>3632.60009765625</ele>
        <time>2023-07-29T14:06:12.000Z</time>
        <extensions>
          <ns3:TrackPointExtension>
            <ns3:hr>86</ns3:hr>
            <ns3:cad>0</ns3:cad>
          </ns3:TrackPointExtension>
        </extensions>
      </trkpt>
      <trkpt lat="37.76167809963226318359375" lon="-107.71009035408496856689453125">
        <ele>3632.60009765625</ele>
        <time>2023-07-29T14:06:13.000Z</time>
        <extensions>
          <ns3:TrackPointExtension>
            <ns3:hr>86</ns3:hr>
            <ns3:cad>0</ns3:cad>
          </ns3:TrackPointExtension>
        </extensions>
      </trkpt>
      <trkpt lat="37.76167583651840686798095703125" lon="-107.7100942097604274749755859375">
        <ele>3632.60009765625</ele>
        <time>2023-07-29T14:06:14.000Z</time>
        <extensions>
          <ns3:TrackPointExtension>
            <ns3:hr>87</ns3:hr>
            <ns3:cad>0</ns3:cad>
          </ns3:TrackPointExtension>
        </extensions>
      </trkpt>
      <trkpt lat="37.7616755850613117218017578125" lon="-107.710092701017856597900390625">
        <ele>3632.60009765625</ele>
        <time>2023-07-29T14:06:15.000Z</time>
        <extensions>
          <ns3:TrackPointExtension>
            <ns3:hr>87</ns3:hr>
            <ns3:cad>0</ns3:cad>
          </ns3:TrackPointExtension>
        </extensions>
      </trkpt>
      <trkpt lat="37.76167348958551883697509765625" lon="-107.71009060554206371307373046875">
        <ele>3632.60009765625</ele>
        <time>2023-07-29T14:06:16.000Z</time>
        <extensions>
          <ns3:TrackPointExtension>
            <ns3:hr>88</ns3:hr>
            <ns3:cad>0</ns3:cad>
          </ns3:TrackPointExtension>
        </extensions>
      </trkpt>
      <trkpt lat="37.761675752699375152587890625" lon="-107.71008507348597049713134765625">
        <ele>3632.60009765625</ele>
        <time>2023-07-29T14:06:17.000Z</time>
        <extensions>
          <ns3:TrackPointExtension>
            <ns3:hr>88</ns3:hr>
            <ns3:cad>0</ns3:cad>
          </ns3:TrackPointExtension>
        </extensions>
      </trkpt>
      <trkpt lat="37.7616759203374385833740234375" lon="-107.71007820032536983489990234375">
        <ele>3632.800048828125</ele>
        <time>2023-07-29T14:06:18.000Z</time>
        <extensions>
          <ns3:TrackPointExtension>
            <ns3:hr>88</ns3:hr>
            <ns3:cad>0</ns3:cad>
          </ns3:TrackPointExtension>
        </extensions>
      </trkpt>
      <trkpt lat="37.76167583651840686798095703125" lon="-107.71007082425057888031005859375">
        <ele>3632.800048828125</ele>
        <time>2023-07-29T14:06:19.000Z</time>
        <extensions>
          <ns3:TrackPointExtension>
            <ns3:hr>87</ns3:hr>
            <ns3:cad>0</ns3:cad>
          </ns3:TrackPointExtension>
        </extensions>
      </trkpt>
      <trkpt lat="37.7616772614419460296630859375" lon="-107.71006193943321704864501953125">
        <ele>3632.800048828125</ele>
        <time>2023-07-29T14:06:20.000Z</time>
        <extensions>
          <ns3:TrackPointExtension>
            <ns3:hr>87</ns3:hr>
            <ns3:cad>0</ns3:cad>
          </ns3:TrackPointExtension>
        </extensions>
      </trkpt>
      <trkpt lat="37.76167835108935832977294921875" lon="-107.71005338989198207855224609375">
        <ele>3632.800048828125</ele>
        <time>2023-07-29T14:06:21.000Z</time>
        <extensions>
          <ns3:TrackPointExtension>
            <ns3:hr>86</ns3:hr>
            <ns3:cad>0</ns3:cad>
          </ns3:TrackPointExtension>
        </extensions>
      </trkpt>
      <trkpt lat="37.76167784817516803741455078125" lon="-107.710049450397491455078125">
        <ele>3632.800048828125</ele>
        <time>2023-07-29T14:06:22.000Z</time>
        <extensions>
          <ns3:TrackPointExtension>
            <ns3:hr>86</ns3:hr>
            <ns3:cad>0</ns3:cad>
          </ns3:TrackPointExtension>
        </extensions>
      </trkpt>
      <trkpt lat="37.76167742908000946044921875" lon="-107.7100445888936519622802734375">
        <ele>3632.800048828125</ele>
        <time>2023-07-29T14:06:23.000Z</time>
        <extensions>
          <ns3:TrackPointExtension>
            <ns3:hr>85</ns3:hr>
            <ns3:cad>0</ns3:cad>
          </ns3:TrackPointExtension>
        </extensions>
      </trkpt>
      <trkpt lat="37.76167835108935832977294921875" lon="-107.71004165522754192352294921875">
        <ele>3632.800048828125</ele>
        <time>2023-07-29T14:06:24.000Z</time>
        <extensions>
          <ns3:TrackPointExtension>
            <ns3:hr>85</ns3:hr>
            <ns3:cad>0</ns3:cad>
          </ns3:TrackPointExtension>
        </extensions>
      </trkpt>
      <trkpt lat="37.76168338023126125335693359375" lon="-107.71003629080951213836669921875">
        <ele>3633</ele>
        <time>2023-07-29T14:06:25.000Z</time>
        <extensions>
          <ns3:TrackPointExtension>
            <ns3:hr>86</ns3:hr>
            <ns3:cad>0</ns3:cad>
          </ns3:TrackPointExtension>
        </extensions>
      </trkpt>
      <trkpt lat="37.7616843022406101226806640625" lon="-107.71002656780183315277099609375">
        <ele>3633</ele>
        <time>2023-07-29T14:06:26.000Z</time>
        <extensions>
          <ns3:TrackPointExtension>
            <ns3:hr>86</ns3:hr>
            <ns3:cad>0</ns3:cad>
          </ns3:TrackPointExtension>
        </extensions>
      </trkpt>
      <trkpt lat="37.76168522424995899200439453125" lon="-107.710024975240230560302734375">
        <ele>3633</ele>
        <time>2023-07-29T14:06:27.000Z</time>
        <extensions>
          <ns3:TrackPointExtension>
            <ns3:hr>86</ns3:hr>
            <ns3:cad>0</ns3:cad>
          </ns3:TrackPointExtension>
        </extensions>
      </trkpt>
      <trkpt lat="37.7616900019347667694091796875" lon="-107.71001550368964672088623046875">
        <ele>3633</ele>
        <time>2023-07-29T14:06:28.000Z</time>
        <extensions>
          <ns3:TrackPointExtension>
            <ns3:hr>86</ns3:hr>
            <ns3:cad>0</ns3:cad>
          </ns3:TrackPointExtension>
        </extensions>
      </trkpt>
      <trkpt lat="37.7616973780095577239990234375" lon="-107.71000326611101627349853515625">
        <ele>3632.800048828125</ele>
        <time>2023-07-29T14:06:29.000Z</time>
        <extensions>
          <ns3:TrackPointExtension>
            <ns3:hr>86</ns3:hr>
            <ns3:cad>0</ns3:cad>
          </ns3:TrackPointExtension>
        </extensions>
      </trkpt>
      <trkpt lat="37.76170265860855579376220703125" lon="-107.7099979855120182037353515625">
        <ele>3632.60009765625</ele>
        <time>2023-07-29T14:06:30.000Z</time>
        <extensions>
          <ns3:TrackPointExtension>
            <ns3:hr>86</ns3:hr>
            <ns3:cad>0</ns3:cad>
          </ns3:TrackPointExtension>
        </extensions>
      </trkpt>
      <trkpt lat="37.76170852594077587127685546875" lon="-107.70999220199882984161376953125">
        <ele>3632.60009765625</ele>
        <time>2023-07-29T14:06:31.000Z</time>
        <extensions>
          <ns3:TrackPointExtension>
            <ns3:hr>86</ns3:hr>
            <ns3:cad>0</ns3:cad>
          </ns3:TrackPointExtension>
        </extensions>
      </trkpt>
      <trkpt lat="37.76171724312007427215576171875" lon="-107.7099842391908168792724609375">
        <ele>3632.60009765625</ele>
        <time>2023-07-29T14:06:32.000Z</time>
        <extensions>
          <ns3:TrackPointExtension>
            <ns3:hr>86</ns3:hr>
            <ns3:cad>54</ns3:cad>
          </ns3:TrackPointExtension>
        </extensions>
      </trkpt>
      <trkpt lat="37.76172160170972347259521484375" lon="-107.7099832333624362945556640625">
        <ele>3632.60009765625</ele>
        <time>2023-07-29T14:06:33.000Z</time>
        <extensions>
          <ns3:TrackPointExtension>
            <ns3:hr>86</ns3:hr>
            <ns3:cad>54</ns3:cad>
          </ns3:TrackPointExtension>
        </extensions>
      </trkpt>
      <trkpt lat="37.76172839105129241943359375" lon="-107.70998314954340457916259765625">
        <ele>3632.60009765625</ele>
        <time>2023-07-29T14:06:34.000Z</time>
        <extensions>
          <ns3:TrackPointExtension>
            <ns3:hr>86</ns3:hr>
            <ns3:cad>52</ns3:cad>
          </ns3:TrackPointExtension>
        </extensions>
      </trkpt>
      <trkpt lat="37.7617298997938632965087890625" lon="-107.70998817868530750274658203125">
        <ele>3632.60009765625</ele>
        <time>2023-07-29T14:06:35.000Z</time>
        <extensions>
          <ns3:TrackPointExtension>
            <ns3:hr>86</ns3:hr>
            <ns3:cad>51</ns3:cad>
          </ns3:TrackPointExtension>
        </extensions>
      </trkpt>
      <trkpt lat="37.7617392875254154205322265625" lon="-107.7099859155714511871337890625">
        <ele>3632.60009765625</ele>
        <time>2023-07-29T14:06:36.000Z</time>
        <extensions>
          <ns3:TrackPointExtension>
            <ns3:hr>85</ns3:hr>
            <ns3:cad>51</ns3:cad>
          </ns3:TrackPointExtension>
        </extensions>
      </trkpt>
      <trkpt lat="37.761742137372493743896484375" lon="-107.70998700521886348724365234375">
        <ele>3632.60009765625</ele>
        <time>2023-07-29T14:06:37.000Z</time>
        <extensions>
          <ns3:TrackPointExtension>
            <ns3:hr>85</ns3:hr>
            <ns3:cad>51</ns3:cad>
          </ns3:TrackPointExtension>
        </extensions>
      </trkpt>
      <trkpt lat="37.76175647042691707611083984375" lon="-107.70998063497245311737060546875">
        <ele>3632.60009765625</ele>
        <time>2023-07-29T14:06:38.000Z</time>
        <extensions>
          <ns3:TrackPointExtension>
            <ns3:hr>83</ns3:hr>
            <ns3:cad>51</ns3:cad>
          </ns3:TrackPointExtension>
        </extensions>
      </trkpt>
      <trkpt lat="37.7617651037871837615966796875" lon="-107.70997703075408935546875">
        <ele>3632.800048828125</ele>
        <time>2023-07-29T14:06:39.000Z</time>
        <extensions>
          <ns3:TrackPointExtension>
            <ns3:hr>82</ns3:hr>
            <ns3:cad>48</ns3:cad>
          </ns3:TrackPointExtension>
        </extensions>
      </trkpt>
      <trkpt lat="37.761769630014896392822265625" lon="-107.70997392944991588592529296875">
        <ele>3632.800048828125</ele>
        <time>2023-07-29T14:06:40.000Z</time>
        <extensions>
          <ns3:TrackPointExtension>
            <ns3:hr>82</ns3:hr>
            <ns3:cad>48</ns3:cad>
          </ns3:TrackPointExtension>
        </extensions>
      </trkpt>
      <trkpt lat="37.7617748267948627471923828125" lon="-107.7099731750786304473876953125">
        <ele>3632.800048828125</ele>
        <time>2023-07-29T14:06:41.000Z</time>
        <extensions>
          <ns3:TrackPointExtension>
            <ns3:hr>82</ns3:hr>
            <ns3:cad>48</ns3:cad>
          </ns3:TrackPointExtension>
        </extensions>
      </trkpt>
      <trkpt lat="37.76178245432674884796142578125" lon="-107.7099681459367275238037109375">
        <ele>3632.800048828125</ele>
        <time>2023-07-29T14:06:42.000Z</time>
        <extensions>
          <ns3:TrackPointExtension>
            <ns3:hr>82</ns3:hr>
            <ns3:cad>0</ns3:cad>
          </ns3:TrackPointExtension>
        </extensions>
      </trkpt>
      <trkpt lat="37.7617929317057132720947265625" lon="-107.70996018312871456146240234375">
        <ele>3632.800048828125</ele>
        <time>2023-07-29T14:06:43.000Z</time>
        <extensions>
          <ns3:TrackPointExtension>
            <ns3:hr>83</ns3:hr>
            <ns3:cad>0</ns3:cad>
          </ns3:TrackPointExtension>
        </extensions>
      </trkpt>
      <trkpt lat="37.7618055045604705810546875" lon="-107.709948532283306121826171875">
        <ele>3632.800048828125</ele>
        <time>2023-07-29T14:06:44.000Z</time>
        <extensions>
          <ns3:TrackPointExtension>
            <ns3:hr>84</ns3:hr>
            <ns3:cad>0</ns3:cad>
          </ns3:TrackPointExtension>
        </extensions>
      </trkpt>
      <trkpt lat="37.76181564666330814361572265625" lon="-107.70993771962821483612060546875">
        <ele>3632.800048828125</ele>
        <time>2023-07-29T14:06:45.000Z</time>
        <extensions>
          <ns3:TrackPointExtension>
            <ns3:hr>84</ns3:hr>
            <ns3:cad>0</ns3:cad>
          </ns3:TrackPointExtension>
        </extensions>
      </trkpt>
      <trkpt lat="37.76183207519352436065673828125" lon="-107.7099220454692840576171875">
        <ele>3632.800048828125</ele>
        <time>2023-07-29T14:06:46.000Z</time>
        <extensions>
          <ns3:TrackPointExtension>
            <ns3:hr>84</ns3:hr>
            <ns3:cad>0</ns3:cad>
          </ns3:TrackPointExtension>
        </extensions>
      </trkpt>
      <trkpt lat="37.7618457376956939697265625" lon="-107.70990469492971897125244140625">
        <ele>3633</ele>
        <time>2023-07-29T14:06:47.000Z</time>
        <extensions>
          <ns3:TrackPointExtension>
            <ns3:hr>84</ns3:hr>
            <ns3:cad>0</ns3:cad>
          </ns3:TrackPointExtension>
        </extensions>
      </trkpt>
      <trkpt lat="37.76185579597949981689453125" lon="-107.7098923735320568084716796875">
        <ele>3633</ele>
        <time>2023-07-29T14:06:48.000Z</time>
        <extensions>
          <ns3:TrackPointExtension>
            <ns3:hr>84</ns3:hr>
            <ns3:cad>0</ns3:cad>
          </ns3:TrackPointExtension>
        </extensions>
      </trkpt>
      <trkpt lat="37.761862166225910186767578125" lon="-107.70988374017179012298583984375">
        <ele>3633</ele>
        <time>2023-07-29T14:06:49.000Z</time>
        <extensions>
          <ns3:TrackPointExtension>
            <ns3:hr>84</ns3:hr>
            <ns3:cad>0</ns3:cad>
          </ns3:TrackPointExtension>
        </extensions>
      </trkpt>
      <trkpt lat="37.7618744038045406341552734375" lon="-107.7098699100315570831298828125">
        <ele>3633</ele>
        <time>2023-07-29T14:06:50.000Z</time>
        <extensions>
          <ns3:TrackPointExtension>
            <ns3:hr>83</ns3:hr>
            <ns3:cad>0</ns3:cad>
          </ns3:TrackPointExtension>
        </extensions>
      </trkpt>
      <trkpt lat="37.76188588701188564300537109375" lon="-107.70985909737646579742431640625">
        <ele>3633</ele>
        <time>2023-07-29T14:06:51.000Z</time>
        <extensions>
          <ns3:TrackPointExtension>
            <ns3:hr>83</ns3:hr>
            <ns3:cad>0</ns3:cad>
          </ns3:TrackPointExtension>
        </extensions>
      </trkpt>
      <trkpt lat="37.76189795695245265960693359375" lon="-107.70984895527362823486328125">
        <ele>3633</ele>
        <time>2023-07-29T14:06:52.000Z</time>
        <extensions>
          <ns3:TrackPointExtension>
            <ns3:hr>83</ns3:hr>
            <ns3:cad>0</ns3:cad>
          </ns3:TrackPointExtension>
        </extensions>
      </trkpt>
      <trkpt lat="37.7619065903127193450927734375" lon="-107.70984266884624958038330078125">
        <ele>3633</ele>
        <time>2023-07-29T14:06:53.000Z</time>
        <extensions>
          <ns3:TrackPointExtension>
            <ns3:hr>83</ns3:hr>
            <ns3:cad>0</ns3:cad>
          </ns3:TrackPointExtension>
        </extensions>
      </trkpt>
      <trkpt lat="37.7619156427681446075439453125" lon="-107.70983763970434665679931640625">
        <ele>3633.199951171875</ele>
        <time>2023-07-29T14:06:54.000Z</time>
        <extensions>
          <ns3:TrackPointExtension>
            <ns3:hr>83</ns3:hr>
            <ns3:cad>0</ns3:cad>
          </ns3:TrackPointExtension>
        </extensions>
      </trkpt>
      <trkpt lat="37.7619246952235698699951171875" lon="-107.7098362147808074951171875">
        <ele>3633.199951171875</ele>
        <time>2023-07-29T14:06:55.000Z</time>
        <extensions>
          <ns3:TrackPointExtension>
            <ns3:hr>84</ns3:hr>
            <ns3:cad>0</ns3:cad>
          </ns3:TrackPointExtension>
        </extensions>
      </trkpt>
      <trkpt lat="37.76193232275545597076416015625" lon="-107.70983755588531494140625">
        <ele>3633.199951171875</ele>
        <time>2023-07-29T14:06:56.000Z</time>
        <extensions>
          <ns3:TrackPointExtension>
            <ns3:hr>84</ns3:hr>
            <ns3:cad>0</ns3:cad>
          </ns3:TrackPointExtension>
        </extensions>
      </trkpt>
      <trkpt lat="37.76194238103926181793212890625" lon="-107.7098362147808074951171875">
        <ele>3633.199951171875</ele>
        <time>2023-07-29T14:06:57.000Z</time>
        <extensions>
          <ns3:TrackPointExtension>
            <ns3:hr>84</ns3:hr>
            <ns3:cad>0</ns3:cad>
          </ns3:TrackPointExtension>
        </extensions>
      </trkpt>
      <trkpt lat="37.76195277459919452667236328125" lon="-107.7098390646278858184814453125">
        <ele>3633.199951171875</ele>
        <time>2023-07-29T14:06:58.000Z</time>
        <extensions>
          <ns3:TrackPointExtension>
            <ns3:hr>84</ns3:hr>
            <ns3:cad>0</ns3:cad>
          </ns3:TrackPointExtension>
        </extensions>
      </trkpt>
      <trkpt lat="37.76196065358817577362060546875" lon="-107.70984451286494731903076171875">
        <ele>3633.60009765625</ele>
        <time>2023-07-29T14:06:59.000Z</time>
        <extensions>
          <ns3:TrackPointExtension>
            <ns3:hr>84</ns3:hr>
            <ns3:cad>0</ns3:cad>
          </ns3:TrackPointExtension>
        </extensions>
      </trkpt>
      <trkpt lat="37.76197540573775768280029296875" lon="-107.70984099246561527252197265625">
        <ele>3633.60009765625</ele>
        <time>2023-07-29T14:07:00.000Z</time>
        <extensions>
          <ns3:TrackPointExtension>
            <ns3:hr>84</ns3:hr>
            <ns3:cad>0</ns3:cad>
          </ns3:TrackPointExtension>
        </extensions>
      </trkpt>
      <trkpt lat="37.7619883976876735687255859375" lon="-107.70984627306461334228515625">
        <ele>3633.800048828125</ele>
        <time>2023-07-29T14:07:01.000Z</time>
        <extensions>
          <ns3:TrackPointExtension>
            <ns3:hr>84</ns3:hr>
            <ns3:cad>0</ns3:cad>
          </ns3:TrackPointExtension>
        </extensions>
      </trkpt>
      <trkpt lat="37.76199661195278167724609375" lon="-107.70984836854040622711181640625">
        <ele>3634</ele>
        <time>2023-07-29T14:07:02.000Z</time>
        <extensions>
          <ns3:TrackPointExtension>
            <ns3:hr>85</ns3:hr>
            <ns3:cad>0</ns3:cad>
          </ns3:TrackPointExtension>
        </extensions>
      </trkpt>
      <trkpt lat="37.762004993855953216552734375" lon="-107.709849290549755096435546875">
        <ele>3634</ele>
        <time>2023-07-29T14:07:03.000Z</time>
        <extensions>
          <ns3:TrackPointExtension>
            <ns3:hr>85</ns3:hr>
            <ns3:cad>0</ns3:cad>
          </ns3:TrackPointExtension>
        </extensions>
      </trkpt>
      <trkpt lat="37.7620091848075389862060546875" lon="-107.7098511345684528350830078125">
        <ele>3634.199951171875</ele>
        <time>2023-07-29T14:07:04.000Z</time>
        <extensions>
          <ns3:TrackPointExtension>
            <ns3:hr>85</ns3:hr>
            <ns3:cad>0</ns3:cad>
          </ns3:TrackPointExtension>
        </extensions>
      </trkpt>
      <trkpt lat="37.76201463304460048675537109375" lon="-107.7098538167774677276611328125">
        <ele>3634.39990234375</ele>
        <time>2023-07-29T14:07:05.000Z</time>
        <extensions>
          <ns3:TrackPointExtension>
            <ns3:hr>85</ns3:hr>
            <ns3:cad>0</ns3:cad>
          </ns3:TrackPointExtension>
        </extensions>
      </trkpt>
      <trkpt lat="37.76202620007097721099853515625" lon="-107.70985540933907032012939453125">
        <ele>3634.60009765625</ele>
        <time>2023-07-29T14:07:06.000Z</time>
        <extensions>
          <ns3:TrackPointExtension>
            <ns3:hr>85</ns3:hr>
            <ns3:cad>0</ns3:cad>
          </ns3:TrackPointExtension>
        </extensions>
      </trkpt>
      <trkpt lat="37.76203290559351444244384765625" lon="-107.70985323004424571990966796875">
        <ele>3634.800048828125</ele>
        <time>2023-07-29T14:07:07.000Z</time>
        <extensions>
          <ns3:TrackPointExtension>
            <ns3:hr>86</ns3:hr>
            <ns3:cad>0</ns3:cad>
          </ns3:TrackPointExtension>
        </extensions>
      </trkpt>
      <trkpt lat="37.76204346679151058197021484375" lon="-107.7098548226058483123779296875">
        <ele>3635</ele>
        <time>2023-07-29T14:07:08.000Z</time>
        <extensions>
          <ns3:TrackPointExtension>
            <ns3:hr>86</ns3:hr>
            <ns3:cad>0</ns3:cad>
          </ns3:TrackPointExtension>
        </extensions>
      </trkpt>
      <trkpt lat="37.76204757392406463623046875" lon="-107.70985473878681659698486328125">
        <ele>3635</ele>
        <time>2023-07-29T14:07:09.000Z</time>
        <extensions>
          <ns3:TrackPointExtension>
            <ns3:hr>87</ns3:hr>
            <ns3:cad>0</ns3:cad>
          </ns3:TrackPointExtension>
        </extensions>
      </trkpt>
      <trkpt lat="37.76205503381788730621337890625" lon="-107.70985440351068973541259765625">
        <ele>3635</ele>
        <time>2023-07-29T14:07:10.000Z</time>
        <extensions>
          <ns3:TrackPointExtension>
            <ns3:hr>87</ns3:hr>
            <ns3:cad>0</ns3:cad>
          </ns3:TrackPointExtension>
        </extensions>
      </trkpt>
      <trkpt lat="37.76206810958683490753173828125" lon="-107.70985457114875316619873046875">
        <ele>3635.199951171875</ele>
        <time>2023-07-29T14:07:11.000Z</time>
        <extensions>
          <ns3:TrackPointExtension>
            <ns3:hr>88</ns3:hr>
            <ns3:cad>0</ns3:cad>
          </ns3:TrackPointExtension>
        </extensions>
      </trkpt>
      <trkpt lat="37.76207079179584980010986328125" lon="-107.70985323004424571990966796875">
        <ele>3635.199951171875</ele>
        <time>2023-07-29T14:07:12.000Z</time>
        <extensions>
          <ns3:TrackPointExtension>
            <ns3:hr>89</ns3:hr>
            <ns3:cad>0</ns3:cad>
          </ns3:TrackPointExtension>
        </extensions>
      </trkpt>
      <trkpt lat="37.7620790898799896240234375" lon="-107.70985490642488002777099609375">
        <ele>3635.199951171875</ele>
        <time>2023-07-29T14:07:13.000Z</time>
        <extensions>
          <ns3:TrackPointExtension>
            <ns3:hr>89</ns3:hr>
            <ns3:cad>0</ns3:cad>
          </ns3:TrackPointExtension>
        </extensions>
      </trkpt>
      <trkpt lat="37.7620919980108737945556640625" lon="-107.70985172130167484283447265625">
        <ele>3635.39990234375</ele>
        <time>2023-07-29T14:07:14.000Z</time>
        <extensions>
          <ns3:TrackPointExtension>
            <ns3:hr>89</ns3:hr>
            <ns3:cad>0</ns3:cad>
          </ns3:TrackPointExtension>
        </extensions>
      </trkpt>
      <trkpt lat="37.76210255920886993408203125" lon="-107.7098444290459156036376953125">
        <ele>3635.39990234375</ele>
        <time>2023-07-29T14:07:15.000Z</time>
        <extensions>
          <ns3:TrackPointExtension>
            <ns3:hr>90</ns3:hr>
            <ns3:cad>0</ns3:cad>
          </ns3:TrackPointExtension>
        </extensions>
      </trkpt>
      <trkpt lat="37.76211018674075603485107421875" lon="-107.70984317176043987274169921875">
        <ele>3635.39990234375</ele>
        <time>2023-07-29T14:07:16.000Z</time>
        <extensions>
          <ns3:TrackPointExtension>
            <ns3:hr>90</ns3:hr>
            <ns3:cad>0</ns3:cad>
          </ns3:TrackPointExtension>
        </extensions>
      </trkpt>
      <trkpt lat="37.76211840100586414337158203125" lon="-107.7098387293517589569091796875">
        <ele>3635.60009765625</ele>
        <time>2023-07-29T14:07:17.000Z</time>
        <extensions>
          <ns3:TrackPointExtension>
            <ns3:hr>91</ns3:hr>
            <ns3:cad>0</ns3:cad>
          </ns3:TrackPointExtension>
        </extensions>
      </trkpt>
      <trkpt lat="37.7621295489370822906494140625" lon="-107.70983755588531494140625">
        <ele>3635.800048828125</ele>
        <time>2023-07-29T14:07:18.000Z</time>
        <extensions>
          <ns3:TrackPointExtension>
            <ns3:hr>91</ns3:hr>
            <ns3:cad>0</ns3:cad>
          </ns3:TrackPointExtension>
        </extensions>
      </trkpt>
      <trkpt lat="37.76214187033474445343017578125" lon="-107.70983629859983921051025390625">
        <ele>3635.800048828125</ele>
        <time>2023-07-29T14:07:19.000Z</time>
        <extensions>
          <ns3:TrackPointExtension>
            <ns3:hr>92</ns3:hr>
            <ns3:cad>0</ns3:cad>
          </ns3:TrackPointExtension>
        </extensions>
      </trkpt>
      <trkpt lat="37.76215125806629657745361328125" lon="-107.70982942543923854827880859375">
        <ele>3636</ele>
        <time>2023-07-29T14:07:20.000Z</time>
        <extensions>
          <ns3:TrackPointExtension>
            <ns3:hr>92</ns3:hr>
            <ns3:cad>44</ns3:cad>
          </ns3:TrackPointExtension>
        </extensions>
      </trkpt>
      <trkpt lat="37.76216383092105388641357421875" lon="-107.70982439629733562469482421875">
        <ele>3636</ele>
        <time>2023-07-29T14:07:21.000Z</time>
        <extensions>
          <ns3:TrackPointExtension>
            <ns3:hr>93</ns3:hr>
            <ns3:cad>44</ns3:cad>
          </ns3:TrackPointExtension>
        </extensions>
      </trkpt>
      <trkpt lat="37.762169279158115386962890625" lon="-107.70982121117413043975830078125">
        <ele>3636</ele>
        <time>2023-07-29T14:07:22.000Z</time>
        <extensions>
          <ns3:TrackPointExtension>
            <ns3:hr>93</ns3:hr>
            <ns3:cad>44</ns3:cad>
          </ns3:TrackPointExtension>
        </extensions>
      </trkpt>
      <trkpt lat="37.76217908598482608795166015625" lon="-107.7098172716796398162841796875">
        <ele>3636</ele>
        <time>2023-07-29T14:07:23.000Z</time>
        <extensions>
          <ns3:TrackPointExtension>
            <ns3:hr>94</ns3:hr>
            <ns3:cad>44</ns3:cad>
          </ns3:TrackPointExtension>
        </extensions>
      </trkpt>
      <trkpt lat="37.7621868811547756195068359375" lon="-107.70981484092772006988525390625">
        <ele>3636.199951171875</ele>
        <time>2023-07-29T14:07:24.000Z</time>
        <extensions>
          <ns3:TrackPointExtension>
            <ns3:hr>95</ns3:hr>
            <ns3:cad>44</ns3:cad>
          </ns3:TrackPointExtension>
        </extensions>
      </trkpt>
      <trkpt lat="37.7621976099908351898193359375" lon="-107.7098120748996734619140625">
        <ele>3636.199951171875</ele>
        <time>2023-07-29T14:07:25.000Z</time>
        <extensions>
          <ns3:TrackPointExtension>
            <ns3:hr>95</ns3:hr>
            <ns3:cad>44</ns3:cad>
          </ns3:TrackPointExtension>
        </extensions>
      </trkpt>
      <trkpt lat="37.7622063271701335906982421875" lon="-107.70980880595743656158447265625">
        <ele>3636.199951171875</ele>
        <time>2023-07-29T14:07:26.000Z</time>
        <extensions>
          <ns3:TrackPointExtension>
            <ns3:hr>96</ns3:hr>
            <ns3:cad>44</ns3:cad>
          </ns3:TrackPointExtension>
        </extensions>
      </trkpt>
      <trkpt lat="37.762219570577144622802734375" lon="-107.7098021842539310455322265625">
        <ele>3636.39990234375</ele>
        <time>2023-07-29T14:07:27.000Z</time>
        <extensions>
          <ns3:TrackPointExtension>
            <ns3:hr>96</ns3:hr>
            <ns3:cad>0</ns3:cad>
          </ns3:TrackPointExtension>
        </extensions>
      </trkpt>
      <trkpt lat="37.76222283951938152313232421875" lon="-107.70979841239750385284423828125">
        <ele>3636.39990234375</ele>
        <time>2023-07-29T14:07:28.000Z</time>
        <extensions>
          <ns3:TrackPointExtension>
            <ns3:hr>96</ns3:hr>
            <ns3:cad>0</ns3:cad>
          </ns3:TrackPointExtension>
        </extensions>
      </trkpt>
      <trkpt lat="37.76222418062388896942138671875" lon="-107.70979438908398151397705078125">
        <ele>3636.60009765625</ele>
        <time>2023-07-29T14:07:29.000Z</time>
        <extensions>
          <ns3:TrackPointExtension>
            <ns3:hr>97</ns3:hr>
            <ns3:cad>0</ns3:cad>
          </ns3:TrackPointExtension>
        </extensions>
      </trkpt>
      <trkpt lat="37.76222267188131809234619140625" lon="-107.70978902466595172882080078125">
        <ele>3636.60009765625</ele>
        <time>2023-07-29T14:07:30.000Z</time>
        <extensions>
          <ns3:TrackPointExtension>
            <ns3:hr>97</ns3:hr>
            <ns3:cad>0</ns3:cad>
          </ns3:TrackPointExtension>
        </extensions>
      </trkpt>
      <trkpt lat="37.762224934995174407958984375" lon="-107.7097824029624462127685546875">
        <ele>3636.60009765625</ele>
        <time>2023-07-29T14:07:31.000Z</time>
        <extensions>
          <ns3:TrackPointExtension>
            <ns3:hr>97</ns3:hr>
            <ns3:cad>0</ns3:cad>
          </ns3:TrackPointExtension>
        </extensions>
      </trkpt>
      <trkpt lat="37.76223398745059967041015625" lon="-107.70977477543056011199951171875">
        <ele>3636.60009765625</ele>
        <time>2023-07-29T14:07:32.000Z</time>
        <extensions>
          <ns3:TrackPointExtension>
            <ns3:hr>97</ns3:hr>
            <ns3:cad>0</ns3:cad>
          </ns3:TrackPointExtension>
        </extensions>
      </trkpt>
      <trkpt lat="37.76224044151604175567626953125" lon="-107.70976806990802288055419921875">
        <ele>3636.800048828125</ele>
        <time>2023-07-29T14:07:33.000Z</time>
        <extensions>
          <ns3:TrackPointExtension>
            <ns3:hr>97</ns3:hr>
            <ns3:cad>0</ns3:cad>
          </ns3:TrackPointExtension>
        </extensions>
      </trkpt>
      <trkpt lat="37.76224865578114986419677734375" lon="-107.70976253785192966461181640625">
        <ele>3636.800048828125</ele>
        <time>2023-07-29T14:07:34.000Z</time>
        <extensions>
          <ns3:TrackPointExtension>
            <ns3:hr>97</ns3:hr>
            <ns3:cad>0</ns3:cad>
          </ns3:TrackPointExtension>
        </extensions>
      </trkpt>
      <trkpt lat="37.7622614800930023193359375" lon="-107.70975449122488498687744140625">
        <ele>3636.800048828125</ele>
        <time>2023-07-29T14:07:35.000Z</time>
        <extensions>
          <ns3:TrackPointExtension>
            <ns3:hr>97</ns3:hr>
            <ns3:cad>0</ns3:cad>
          </ns3:TrackPointExtension>
        </extensions>
      </trkpt>
      <trkpt lat="37.7622703649103641510009765625" lon="-107.709747366607189178466796875">
        <ele>3637</ele>
        <time>2023-07-29T14:07:36.000Z</time>
        <extensions>
          <ns3:TrackPointExtension>
            <ns3:hr>98</ns3:hr>
            <ns3:cad>0</ns3:cad>
          </ns3:TrackPointExtension>
        </extensions>
      </trkpt>
      <trkpt lat="37.76227958500385284423828125" lon="-107.7097445167601108551025390625">
        <ele>3637</ele>
        <time>2023-07-29T14:07:37.000Z</time>
        <extensions>
          <ns3:TrackPointExtension>
            <ns3:hr>98</ns3:hr>
            <ns3:cad>0</ns3:cad>
          </ns3:TrackPointExtension>
        </extensions>
      </trkpt>
      <trkpt lat="37.76229039765894412994384765625" lon="-107.70974158309400081634521484375">
        <ele>3637.199951171875</ele>
        <time>2023-07-29T14:07:38.000Z</time>
        <extensions>
          <ns3:TrackPointExtension>
            <ns3:hr>98</ns3:hr>
            <ns3:cad>0</ns3:cad>
          </ns3:TrackPointExtension>
        </extensions>
      </trkpt>
      <trkpt lat="37.76229978539049625396728515625" lon="-107.70973672159016132354736328125">
        <ele>3637.199951171875</ele>
        <time>2023-07-29T14:07:39.000Z</time>
        <extensions>
          <ns3:TrackPointExtension>
            <ns3:hr>98</ns3:hr>
            <ns3:cad>0</ns3:cad>
          </ns3:TrackPointExtension>
        </extensions>
      </trkpt>
      <trkpt lat="37.76230883784592151641845703125" lon="-107.709737978875637054443359375">
        <ele>3637.199951171875</ele>
        <time>2023-07-29T14:07:40.000Z</time>
        <extensions>
          <ns3:TrackPointExtension>
            <ns3:hr>98</ns3:hr>
            <ns3:cad>0</ns3:cad>
          </ns3:TrackPointExtension>
        </extensions>
      </trkpt>
      <trkpt lat="37.76231420226395130157470703125" lon="-107.7097368054091930389404296875">
        <ele>3637.199951171875</ele>
        <time>2023-07-29T14:07:41.000Z</time>
        <extensions>
          <ns3:TrackPointExtension>
            <ns3:hr>98</ns3:hr>
            <ns3:cad>0</ns3:cad>
          </ns3:TrackPointExtension>
        </extensions>
      </trkpt>
      <trkpt lat="37.76232861913740634918212890625" lon="-107.70973605103790760040283203125">
        <ele>3637.199951171875</ele>
        <time>2023-07-29T14:07:42.000Z</time>
        <extensions>
          <ns3:TrackPointExtension>
            <ns3:hr>98</ns3:hr>
            <ns3:cad>0</ns3:cad>
          </ns3:TrackPointExtension>
        </extensions>
      </trkpt>
      <trkpt lat="37.7623427845537662506103515625" lon="-107.7097341232001781463623046875">
        <ele>3637.199951171875</ele>
        <time>2023-07-29T14:07:43.000Z</time>
        <extensions>
          <ns3:TrackPointExtension>
            <ns3:hr>97</ns3:hr>
            <ns3:cad>0</ns3:cad>
          </ns3:TrackPointExtension>
        </extensions>
      </trkpt>
      <trkpt lat="37.76235024444758892059326171875" lon="-107.70973169244825839996337890625">
        <ele>3637.199951171875</ele>
        <time>2023-07-29T14:07:44.000Z</time>
        <extensions>
          <ns3:TrackPointExtension>
            <ns3:hr>97</ns3:hr>
            <ns3:cad>0</ns3:cad>
          </ns3:TrackPointExtension>
        </extensions>
      </trkpt>
      <trkpt lat="37.7623575367033481597900390625" lon="-107.70972557365894317626953125">
        <ele>3637.199951171875</ele>
        <time>2023-07-29T14:07:45.000Z</time>
        <extensions>
          <ns3:TrackPointExtension>
            <ns3:hr>97</ns3:hr>
            <ns3:cad>0</ns3:cad>
          </ns3:TrackPointExtension>
        </extensions>
      </trkpt>
      <trkpt lat="37.7623608894646167755126953125" lon="-107.709721215069293975830078125">
        <ele>3637.39990234375</ele>
        <time>2023-07-29T14:07:46.000Z</time>
        <extensions>
          <ns3:TrackPointExtension>
            <ns3:hr>96</ns3:hr>
            <ns3:cad>0</ns3:cad>
          </ns3:TrackPointExtension>
        </extensions>
      </trkpt>
      <trkpt lat="37.76237421669065952301025390625" lon="-107.7097099833190441131591796875">
        <ele>3637.39990234375</ele>
        <time>2023-07-29T14:07:47.000Z</time>
        <extensions>
          <ns3:TrackPointExtension>
            <ns3:hr>97</ns3:hr>
            <ns3:cad>0</ns3:cad>
          </ns3:TrackPointExtension>
        </extensions>
      </trkpt>
      <trkpt lat="37.76237840764224529266357421875" lon="-107.70970067940652370452880859375">
        <ele>3637.60009765625</ele>
        <time>2023-07-29T14:07:48.000Z</time>
        <extensions>
          <ns3:TrackPointExtension>
            <ns3:hr>97</ns3:hr>
            <ns3:cad>0</ns3:cad>
          </ns3:TrackPointExtension>
        </extensions>
      </trkpt>
      <trkpt lat="37.76238209567964076995849609375" lon="-107.70969313569366931915283203125">
        <ele>3637.800048828125</ele>
        <time>2023-07-29T14:07:49.000Z</time>
        <extensions>
          <ns3:TrackPointExtension>
            <ns3:hr>97</ns3:hr>
            <ns3:cad>0</ns3:cad>
          </ns3:TrackPointExtension>
        </extensions>
      </trkpt>
      <trkpt lat="37.76238645426928997039794921875" lon="-107.70968676544725894927978515625">
        <ele>3637.800048828125</ele>
        <time>2023-07-29T14:07:50.000Z</time>
        <extensions>
          <ns3:TrackPointExtension>
            <ns3:hr>97</ns3:hr>
            <ns3:cad>47</ns3:cad>
          </ns3:TrackPointExtension>
        </extensions>
      </trkpt>
      <trkpt lat="37.76239064522087574005126953125" lon="-107.70968391560018062591552734375">
        <ele>3638</ele>
        <time>2023-07-29T14:07:51.000Z</time>
        <extensions>
          <ns3:TrackPointExtension>
            <ns3:hr>97</ns3:hr>
            <ns3:cad>47</ns3:cad>
          </ns3:TrackPointExtension>
        </extensions>
      </trkpt>
      <trkpt lat="37.76239693164825439453125" lon="-107.70968140102922916412353515625">
        <ele>3638</ele>
        <time>2023-07-29T14:07:52.000Z</time>
        <extensions>
          <ns3:TrackPointExtension>
            <ns3:hr>97</ns3:hr>
            <ns3:cad>47</ns3:cad>
          </ns3:TrackPointExtension>
        </extensions>
      </trkpt>
      <trkpt lat="37.76240472681820392608642578125" lon="-107.70967997610569000244140625">
        <ele>3638</ele>
        <time>2023-07-29T14:07:53.000Z</time>
        <extensions>
          <ns3:TrackPointExtension>
            <ns3:hr>97</ns3:hr>
            <ns3:cad>47</ns3:cad>
          </ns3:TrackPointExtension>
        </extensions>
      </trkpt>
      <trkpt lat="37.76240623556077480316162109375" lon="-107.7096855081617832183837890625">
        <ele>3638.199951171875</ele>
        <time>2023-07-29T14:07:54.000Z</time>
        <extensions>
          <ns3:TrackPointExtension>
            <ns3:hr>97</ns3:hr>
            <ns3:cad>47</ns3:cad>
          </ns3:TrackPointExtension>
        </extensions>
      </trkpt>
      <trkpt lat="37.76240967214107513427734375" lon="-107.70968475379049777984619140625">
        <ele>3638.199951171875</ele>
        <time>2023-07-29T14:07:55.000Z</time>
        <extensions>
          <ns3:TrackPointExtension>
            <ns3:hr>97</ns3:hr>
            <ns3:cad>0</ns3:cad>
          </ns3:TrackPointExtension>
        </extensions>
      </trkpt>
      <trkpt lat="37.7624152041971683502197265625" lon="-107.709689028561115264892578125">
        <ele>3638.199951171875</ele>
        <time>2023-07-29T14:07:56.000Z</time>
        <extensions>
          <ns3:TrackPointExtension>
            <ns3:hr>97</ns3:hr>
            <ns3:cad>0</ns3:cad>
          </ns3:TrackPointExtension>
        </extensions>
      </trkpt>
      <trkpt lat="37.76242710649967193603515625" lon="-107.7096860110759735107421875">
        <ele>3638.39990234375</ele>
        <time>2023-07-29T14:07:57.000Z</time>
        <extensions>
          <ns3:TrackPointExtension>
            <ns3:hr>97</ns3:hr>
            <ns3:cad>0</ns3:cad>
          </ns3:TrackPointExtension>
        </extensions>
      </trkpt>
      <trkpt lat="37.76243657805025577545166015625" lon="-107.7096888609230518341064453125">
        <ele>3638.60009765625</ele>
        <time>2023-07-29T14:07:58.000Z</time>
        <extensions>
          <ns3:TrackPointExtension>
            <ns3:hr>97</ns3:hr>
            <ns3:cad>0</ns3:cad>
          </ns3:TrackPointExtension>
        </extensions>
      </trkpt>
      <trkpt lat="37.762446887791156768798828125" lon="-107.7096860110759735107421875">
        <ele>3638.60009765625</ele>
        <time>2023-07-29T14:07:59.000Z</time>
        <extensions>
          <ns3:TrackPointExtension>
            <ns3:hr>97</ns3:hr>
            <ns3:cad>0</ns3:cad>
          </ns3:TrackPointExtension>
        </extensions>
      </trkpt>
      <trkpt lat="37.762458622455596923828125" lon="-107.70968156866729259490966796875">
        <ele>3638.800048828125</ele>
        <time>2023-07-29T14:08:00.000Z</time>
        <extensions>
          <ns3:TrackPointExtension>
            <ns3:hr>97</ns3:hr>
            <ns3:cad>0</ns3:cad>
          </ns3:TrackPointExtension>
        </extensions>
      </trkpt>
      <trkpt lat="37.76246960274875164031982421875" lon="-107.70967704243957996368408203125">
        <ele>3638.800048828125</ele>
        <time>2023-07-29T14:08:01.000Z</time>
        <extensions>
          <ns3:TrackPointExtension>
            <ns3:hr>97</ns3:hr>
            <ns3:cad>0</ns3:cad>
          </ns3:TrackPointExtension>
        </extensions>
      </trkpt>
      <trkpt lat="37.76247781701385974884033203125" lon="-107.70967327058315277099609375">
        <ele>3639</ele>
        <time>2023-07-29T14:08:02.000Z</time>
        <extensions>
          <ns3:TrackPointExtension>
            <ns3:hr>97</ns3:hr>
            <ns3:cad>0</ns3:cad>
          </ns3:TrackPointExtension>
        </extensions>
      </trkpt>
      <trkpt lat="37.76247949339449405670166015625" lon="-107.7096717618405818939208984375">
        <ele>3639</ele>
        <time>2023-07-29T14:08:03.000Z</time>
        <extensions>
          <ns3:TrackPointExtension>
            <ns3:hr>98</ns3:hr>
            <ns3:cad>41</ns3:cad>
          </ns3:TrackPointExtension>
        </extensions>
      </trkpt>
      <trkpt lat="37.762485444545745849609375" lon="-107.70966882817447185516357421875">
        <ele>3639.199951171875</ele>
        <time>2023-07-29T14:08:04.000Z</time>
        <extensions>
          <ns3:TrackPointExtension>
            <ns3:hr>98</ns3:hr>
            <ns3:cad>41</ns3:cad>
          </ns3:TrackPointExtension>
        </extensions>
      </trkpt>
      <trkpt lat="37.76249391026794910430908203125" lon="-107.709663212299346923828125">
        <ele>3639.199951171875</ele>
        <time>2023-07-29T14:08:05.000Z</time>
        <extensions>
          <ns3:TrackPointExtension>
            <ns3:hr>98</ns3:hr>
            <ns3:cad>0</ns3:cad>
          </ns3:TrackPointExtension>
        </extensions>
      </trkpt>
      <trkpt lat="37.7625017054378986358642578125" lon="-107.70965826697647571563720703125">
        <ele>3639.39990234375</ele>
        <time>2023-07-29T14:08:06.000Z</time>
        <extensions>
          <ns3:TrackPointExtension>
            <ns3:hr>99</ns3:hr>
            <ns3:cad>0</ns3:cad>
          </ns3:TrackPointExtension>
        </extensions>
      </trkpt>
      <trkpt lat="37.76250732131302356719970703125" lon="-107.70965390838682651519775390625">
        <ele>3639.39990234375</ele>
        <time>2023-07-29T14:08:07.000Z</time>
        <extensions>
          <ns3:TrackPointExtension>
            <ns3:hr>99</ns3:hr>
            <ns3:cad>0</ns3:cad>
          </ns3:TrackPointExtension>
        </extensions>
      </trkpt>
      <trkpt lat="37.76250530965626239776611328125" lon="-107.70965256728231906890869140625">
        <ele>3639.39990234375</ele>
        <time>2023-07-29T14:08:08.000Z</time>
        <extensions>
          <ns3:TrackPointExtension>
            <ns3:hr>99</ns3:hr>
            <ns3:cad>0</ns3:cad>
          </ns3:TrackPointExtension>
        </extensions>
      </trkpt>
      <trkpt lat="37.7625141106545925140380859375" lon="-107.7096499688923358917236328125">
        <ele>3639.39990234375</ele>
        <time>2023-07-29T14:08:09.000Z</time>
        <extensions>
          <ns3:TrackPointExtension>
            <ns3:hr>99</ns3:hr>
            <ns3:cad>0</ns3:cad>
          </ns3:TrackPointExtension>
        </extensions>
      </trkpt>
      <trkpt lat="37.762521319091320037841796875" lon="-107.70964669995009899139404296875">
        <ele>3639.60009765625</ele>
        <time>2023-07-29T14:08:10.000Z</time>
        <extensions>
          <ns3:TrackPointExtension>
            <ns3:hr>99</ns3:hr>
            <ns3:cad>0</ns3:cad>
          </ns3:TrackPointExtension>
        </extensions>
      </trkpt>
      <trkpt lat="37.762523330748081207275390625" lon="-107.70964376628398895263671875">
        <ele>3639.60009765625</ele>
        <time>2023-07-29T14:08:11.000Z</time>
        <extensions>
          <ns3:TrackPointExtension>
            <ns3:hr>99</ns3:hr>
            <ns3:cad>0</ns3:cad>
          </ns3:TrackPointExtension>
        </extensions>
      </trkpt>
      <trkpt lat="37.76253364048898220062255859375" lon="-107.70963580347597599029541015625">
        <ele>3639.60009765625</ele>
        <time>2023-07-29T14:08:12.000Z</time>
        <extensions>
          <ns3:TrackPointExtension>
            <ns3:hr>99</ns3:hr>
            <ns3:cad>0</ns3:cad>
          </ns3:TrackPointExtension>
        </extensions>
      </trkpt>
      <trkpt lat="37.762540765106678009033203125" lon="-107.70962775684893131256103515625">
        <ele>3639.60009765625</ele>
        <time>2023-07-29T14:08:13.000Z</time>
        <extensions>
          <ns3:TrackPointExtension>
            <ns3:hr>99</ns3:hr>
            <ns3:cad>0</ns3:cad>
          </ns3:TrackPointExtension>
        </extensions>
      </trkpt>
      <trkpt lat="37.7625560201704502105712890625" lon="-107.7096191234886646270751953125">
        <ele>3639.800048828125</ele>
        <time>2023-07-29T14:08:14.000Z</time>
        <extensions>
          <ns3:TrackPointExtension>
            <ns3:hr>99</ns3:hr>
            <ns3:cad>0</ns3:cad>
          </ns3:TrackPointExtension>
        </extensions>
      </trkpt>
      <trkpt lat="37.76256850920617580413818359375" lon="-107.709613926708698272705078125">
        <ele>3639.800048828125</ele>
        <time>2023-07-29T14:08:15.000Z</time>
        <extensions>
          <ns3:TrackPointExtension>
            <ns3:hr>99</ns3:hr>
            <ns3:cad>0</ns3:cad>
          </ns3:TrackPointExtension>
        </extensions>
      </trkpt>
      <trkpt lat="37.76258024387061595916748046875" lon="-107.709608562290668487548828125">
        <ele>3640</ele>
        <time>2023-07-29T14:08:16.000Z</time>
        <extensions>
          <ns3:TrackPointExtension>
            <ns3:hr>99</ns3:hr>
            <ns3:cad>0</ns3:cad>
          </ns3:TrackPointExtension>
        </extensions>
      </trkpt>
      <trkpt lat="37.7625999413430690765380859375" lon="-107.70959540270268917083740234375">
        <ele>3640</ele>
        <time>2023-07-29T14:08:17.000Z</time>
        <extensions>
          <ns3:TrackPointExtension>
            <ns3:hr>99</ns3:hr>
            <ns3:cad>0</ns3:cad>
          </ns3:TrackPointExtension>
        </extensions>
      </trkpt>
      <trkpt lat="37.76261243037879467010498046875" lon="-107.70959054119884967803955078125">
        <ele>3640</ele>
        <time>2023-07-29T14:08:18.000Z</time>
        <extensions>
          <ns3:TrackPointExtension>
            <ns3:hr>99</ns3:hr>
            <ns3:cad>0</ns3:cad>
          </ns3:TrackPointExtension>
        </extensions>
      </trkpt>
      <trkpt lat="37.76262131519615650177001953125" lon="-107.709588110446929931640625">
        <ele>3640.39990234375</ele>
        <time>2023-07-29T14:08:19.000Z</time>
        <extensions>
          <ns3:TrackPointExtension>
            <ns3:hr>98</ns3:hr>
            <ns3:cad>0</ns3:cad>
          </ns3:TrackPointExtension>
        </extensions>
      </trkpt>
      <trkpt lat="37.7626200579106807708740234375" lon="-107.70959020592272281646728515625">
        <ele>3640.39990234375</ele>
        <time>2023-07-29T14:08:20.000Z</time>
        <extensions>
          <ns3:TrackPointExtension>
            <ns3:hr>98</ns3:hr>
            <ns3:cad>0</ns3:cad>
          </ns3:TrackPointExtension>
        </extensions>
      </trkpt>
      <trkpt lat="37.76262349449098110198974609375" lon="-107.7095902897417545318603515625">
        <ele>3640.60009765625</ele>
        <time>2023-07-29T14:08:21.000Z</time>
        <extensions>
          <ns3:TrackPointExtension>
            <ns3:hr>98</ns3:hr>
            <ns3:cad>0</ns3:cad>
          </ns3:TrackPointExtension>
        </extensions>
      </trkpt>
      <trkpt lat="37.7626277692615985870361328125" lon="-107.70959154702723026275634765625">
        <ele>3640.60009765625</ele>
        <time>2023-07-29T14:08:22.000Z</time>
        <extensions>
          <ns3:TrackPointExtension>
            <ns3:hr>98</ns3:hr>
            <ns3:cad>0</ns3:cad>
          </ns3:TrackPointExtension>
        </extensions>
      </trkpt>
      <trkpt lat="37.76263103820383548736572265625" lon="-107.70959506742656230926513671875">
        <ele>3640.800048828125</ele>
        <time>2023-07-29T14:08:23.000Z</time>
        <extensions>
          <ns3:TrackPointExtension>
            <ns3:hr>98</ns3:hr>
            <ns3:cad>0</ns3:cad>
          </ns3:TrackPointExtension>
        </extensions>
      </trkpt>
      <trkpt lat="37.7626368217170238494873046875" lon="-107.709598504006862640380859375">
        <ele>3641</ele>
        <time>2023-07-29T14:08:24.000Z</time>
        <extensions>
          <ns3:TrackPointExtension>
            <ns3:hr>98</ns3:hr>
            <ns3:cad>0</ns3:cad>
          </ns3:TrackPointExtension>
        </extensions>
      </trkpt>
      <trkpt lat="37.762644030153751373291015625" lon="-107.709594480693340301513671875">
        <ele>3641.199951171875</ele>
        <time>2023-07-29T14:08:25.000Z</time>
        <extensions>
          <ns3:TrackPointExtension>
            <ns3:hr>98</ns3:hr>
            <ns3:cad>0</ns3:cad>
          </ns3:TrackPointExtension>
        </extensions>
      </trkpt>
      <trkpt lat="37.762650735676288604736328125" lon="-107.7095973305404186248779296875">
        <ele>3641.199951171875</ele>
        <time>2023-07-29T14:08:26.000Z</time>
        <extensions>
          <ns3:TrackPointExtension>
            <ns3:hr>98</ns3:hr>
            <ns3:cad>0</ns3:cad>
          </ns3:TrackPointExtension>
        </extensions>
      </trkpt>
      <trkpt lat="37.76265132240951061248779296875" lon="-107.70959087647497653961181640625">
        <ele>3641.39990234375</ele>
        <time>2023-07-29T14:08:27.000Z</time>
        <extensions>
          <ns3:TrackPointExtension>
            <ns3:hr>98</ns3:hr>
            <ns3:cad>0</ns3:cad>
          </ns3:TrackPointExtension>
        </extensions>
      </trkpt>
      <trkpt lat="37.76266372762620449066162109375" lon="-107.709585092961788177490234375">
        <ele>3641.39990234375</ele>
        <time>2023-07-29T14:08:28.000Z</time>
        <extensions>
          <ns3:TrackPointExtension>
            <ns3:hr>98</ns3:hr>
            <ns3:cad>0</ns3:cad>
          </ns3:TrackPointExtension>
        </extensions>
      </trkpt>
      <trkpt lat="37.76267160661518573760986328125" lon="-107.709581069648265838623046875">
        <ele>3641.60009765625</ele>
        <time>2023-07-29T14:08:29.000Z</time>
        <extensions>
          <ns3:TrackPointExtension>
            <ns3:hr>99</ns3:hr>
            <ns3:cad>0</ns3:cad>
          </ns3:TrackPointExtension>
        </extensions>
      </trkpt>
      <trkpt lat="37.7626743726432323455810546875" lon="-107.70957226864993572235107421875">
        <ele>3641.60009765625</ele>
        <time>2023-07-29T14:08:30.000Z</time>
        <extensions>
          <ns3:TrackPointExtension>
            <ns3:hr>99</ns3:hr>
            <ns3:cad>0</ns3:cad>
          </ns3:TrackPointExtension>
        </extensions>
      </trkpt>
      <trkpt lat="37.762680239975452423095703125" lon="-107.70956221036612987518310546875">
        <ele>3641.800048828125</ele>
        <time>2023-07-29T14:08:31.000Z</time>
        <extensions>
          <ns3:TrackPointExtension>
            <ns3:hr>99</ns3:hr>
            <ns3:cad>0</ns3:cad>
          </ns3:TrackPointExtension>
        </extensions>
      </trkpt>
      <trkpt lat="37.76268837042152881622314453125" lon="-107.70955391228199005126953125">
        <ele>3642</ele>
        <time>2023-07-29T14:08:32.000Z</time>
        <extensions>
          <ns3:TrackPointExtension>
            <ns3:hr>99</ns3:hr>
            <ns3:cad>0</ns3:cad>
          </ns3:TrackPointExtension>
        </extensions>
      </trkpt>
      <trkpt lat="37.76269524358212947845458984375" lon="-107.7095456980168819427490234375">
        <ele>3642.199951171875</ele>
        <time>2023-07-29T14:08:33.000Z</time>
        <extensions>
          <ns3:TrackPointExtension>
            <ns3:hr>99</ns3:hr>
            <ns3:cad>0</ns3:cad>
          </ns3:TrackPointExtension>
        </extensions>
      </trkpt>
      <trkpt lat="37.76270546950399875640869140625" lon="-107.70953639410436153411865234375">
        <ele>3642.199951171875</ele>
        <time>2023-07-29T14:08:34.000Z</time>
        <extensions>
          <ns3:TrackPointExtension>
            <ns3:hr>99</ns3:hr>
            <ns3:cad>0</ns3:cad>
          </ns3:TrackPointExtension>
        </extensions>
      </trkpt>
      <trkpt lat="37.76271301321685314178466796875" lon="-107.7095306105911731719970703125">
        <ele>3642.39990234375</ele>
        <time>2023-07-29T14:08:35.000Z</time>
        <extensions>
          <ns3:TrackPointExtension>
            <ns3:hr>100</ns3:hr>
            <ns3:cad>0</ns3:cad>
          </ns3:TrackPointExtension>
        </extensions>
      </trkpt>
      <trkpt lat="37.762722484767436981201171875" lon="-107.70952449180185794830322265625">
        <ele>3642.39990234375</ele>
        <time>2023-07-29T14:08:36.000Z</time>
        <extensions>
          <ns3:TrackPointExtension>
            <ns3:hr>100</ns3:hr>
            <ns3:cad>0</ns3:cad>
          </ns3:TrackPointExtension>
        </extensions>
      </trkpt>
      <trkpt lat="37.7627249993383884429931640625" lon="-107.7095225639641284942626953125">
        <ele>3642.60009765625</ele>
        <time>2023-07-29T14:08:37.000Z</time>
        <extensions>
          <ns3:TrackPointExtension>
            <ns3:hr>100</ns3:hr>
            <ns3:cad>0</ns3:cad>
          </ns3:TrackPointExtension>
        </extensions>
      </trkpt>
      <trkpt lat="37.76273597963154315948486328125" lon="-107.7095168642699718475341796875">
        <ele>3642.60009765625</ele>
        <time>2023-07-29T14:08:38.000Z</time>
        <extensions>
          <ns3:TrackPointExtension>
            <ns3:hr>100</ns3:hr>
            <ns3:cad>0</ns3:cad>
          </ns3:TrackPointExtension>
        </extensions>
      </trkpt>
      <trkpt lat="37.7627441100776195526123046875" lon="-107.70951225422322750091552734375">
        <ele>3643</ele>
        <time>2023-07-29T14:08:39.000Z</time>
        <extensions>
          <ns3:TrackPointExtension>
            <ns3:hr>100</ns3:hr>
            <ns3:cad>0</ns3:cad>
          </ns3:TrackPointExtension>
        </extensions>
      </trkpt>
      <trkpt lat="37.76274754665791988372802734375" lon="-107.7095104940235614776611328125">
        <ele>3643.199951171875</ele>
        <time>2023-07-29T14:08:40.000Z</time>
        <extensions>
          <ns3:TrackPointExtension>
            <ns3:hr>100</ns3:hr>
            <ns3:cad>0</ns3:cad>
          </ns3:TrackPointExtension>
        </extensions>
      </trkpt>
      <trkpt lat="37.762753665447235107421875" lon="-107.70950839854776859283447265625">
        <ele>3643.199951171875</ele>
        <time>2023-07-29T14:08:41.000Z</time>
        <extensions>
          <ns3:TrackPointExtension>
            <ns3:hr>101</ns3:hr>
            <ns3:cad>0</ns3:cad>
          </ns3:TrackPointExtension>
        </extensions>
      </trkpt>
      <trkpt lat="37.76276171207427978515625" lon="-107.70950336940586566925048828125">
        <ele>3643.39990234375</ele>
        <time>2023-07-29T14:08:42.000Z</time>
        <extensions>
          <ns3:TrackPointExtension>
            <ns3:hr>101</ns3:hr>
            <ns3:cad>0</ns3:cad>
          </ns3:TrackPointExtension>
        </extensions>
      </trkpt>
      <trkpt lat="37.76277177035808563232421875" lon="-107.70949984900653362274169921875">
        <ele>3643.800048828125</ele>
        <time>2023-07-29T14:08:43.000Z</time>
        <extensions>
          <ns3:TrackPointExtension>
            <ns3:hr>101</ns3:hr>
            <ns3:cad>0</ns3:cad>
          </ns3:TrackPointExtension>
        </extensions>
      </trkpt>
      <trkpt lat="37.76278174482285976409912109375" lon="-107.70949599333107471466064453125">
        <ele>3643.800048828125</ele>
        <time>2023-07-29T14:08:44.000Z</time>
        <extensions>
          <ns3:TrackPointExtension>
            <ns3:hr>101</ns3:hr>
            <ns3:cad>0</ns3:cad>
          </ns3:TrackPointExtension>
        </extensions>
      </trkpt>
      <trkpt lat="37.76278912089765071868896484375" lon="-107.7094920538365840911865234375">
        <ele>3644.199951171875</ele>
        <time>2023-07-29T14:08:45.000Z</time>
        <extensions>
          <ns3:TrackPointExtension>
            <ns3:hr>101</ns3:hr>
            <ns3:cad>0</ns3:cad>
          </ns3:TrackPointExtension>
        </extensions>
      </trkpt>
      <trkpt lat="37.7627977542579174041748046875" lon="-107.7094893716275691986083984375">
        <ele>3644.199951171875</ele>
        <time>2023-07-29T14:08:46.000Z</time>
        <extensions>
          <ns3:TrackPointExtension>
            <ns3:hr>101</ns3:hr>
            <ns3:cad>0</ns3:cad>
          </ns3:TrackPointExtension>
        </extensions>
      </trkpt>
      <trkpt lat="37.7628032863140106201171875" lon="-107.70948828198015689849853515625">
        <ele>3644.199951171875</ele>
        <time>2023-07-29T14:08:47.000Z</time>
        <extensions>
          <ns3:TrackPointExtension>
            <ns3:hr>102</ns3:hr>
            <ns3:cad>73</ns3:cad>
          </ns3:TrackPointExtension>
        </extensions>
      </trkpt>
      <trkpt lat="37.7628118358552455902099609375" lon="-107.7094876952469348907470703125">
        <ele>3644.60009765625</ele>
        <time>2023-07-29T14:08:48.000Z</time>
        <extensions>
          <ns3:TrackPointExtension>
            <ns3:hr>103</ns3:hr>
            <ns3:cad>73</ns3:cad>
          </ns3:TrackPointExtension>
        </extensions>
      </trkpt>
      <trkpt lat="37.76281896047294139862060546875" lon="-107.70948828198015689849853515625">
        <ele>3644.60009765625</ele>
        <time>2023-07-29T14:08:49.000Z</time>
        <extensions>
          <ns3:TrackPointExtension>
            <ns3:hr>103</ns3:hr>
            <ns3:cad>73</ns3:cad>
          </ns3:TrackPointExtension>
        </extensions>
      </trkpt>
      <trkpt lat="37.76282466016709804534912109375" lon="-107.70948844961822032928466796875">
        <ele>3644.800048828125</ele>
        <time>2023-07-29T14:08:50.000Z</time>
        <extensions>
          <ns3:TrackPointExtension>
            <ns3:hr>104</ns3:hr>
            <ns3:cad>73</ns3:cad>
          </ns3:TrackPointExtension>
        </extensions>
      </trkpt>
      <trkpt lat="37.76282667182385921478271484375" lon="-107.70948953926563262939453125">
        <ele>3645.199951171875</ele>
        <time>2023-07-29T14:08:51.000Z</time>
        <extensions>
          <ns3:TrackPointExtension>
            <ns3:hr>104</ns3:hr>
            <ns3:cad>70</ns3:cad>
          </ns3:TrackPointExtension>
        </extensions>
      </trkpt>
      <trkpt lat="37.762832455337047576904296875" lon="-107.70949012599885463714599609375">
        <ele>3645.39990234375</ele>
        <time>2023-07-29T14:08:52.000Z</time>
        <extensions>
          <ns3:TrackPointExtension>
            <ns3:hr>104</ns3:hr>
            <ns3:cad>0</ns3:cad>
          </ns3:TrackPointExtension>
        </extensions>
      </trkpt>
      <trkpt lat="37.7628342993557453155517578125" lon="-107.70949247293174266815185546875">
        <ele>3645.800048828125</ele>
        <time>2023-07-29T14:08:53.000Z</time>
        <extensions>
          <ns3:TrackPointExtension>
            <ns3:hr>105</ns3:hr>
            <ns3:cad>0</ns3:cad>
          </ns3:TrackPointExtension>
        </extensions>
      </trkpt>
      <trkpt lat="37.762844525277614593505859375" lon="-107.70949431695044040679931640625">
        <ele>3645.800048828125</ele>
        <time>2023-07-29T14:08:54.000Z</time>
        <extensions>
          <ns3:TrackPointExtension>
            <ns3:hr>105</ns3:hr>
            <ns3:cad>0</ns3:cad>
          </ns3:TrackPointExtension>
        </extensions>
      </trkpt>
      <trkpt lat="37.7628488838672637939453125" lon="-107.70949465222656726837158203125">
        <ele>3646</ele>
        <time>2023-07-29T14:08:55.000Z</time>
        <extensions>
          <ns3:TrackPointExtension>
            <ns3:hr>106</ns3:hr>
            <ns3:cad>0</ns3:cad>
          </ns3:TrackPointExtension>
        </extensions>
      </trkpt>
      <trkpt lat="37.76286271400749683380126953125" lon="-107.7094928920269012451171875">
        <ele>3646</ele>
        <time>2023-07-29T14:08:56.000Z</time>
        <extensions>
          <ns3:TrackPointExtension>
            <ns3:hr>107</ns3:hr>
            <ns3:cad>0</ns3:cad>
          </ns3:TrackPointExtension>
        </extensions>
      </trkpt>
      <trkpt lat="37.7628688327968120574951171875" lon="-107.7094910480082035064697265625">
        <ele>3646</ele>
        <time>2023-07-29T14:08:57.000Z</time>
        <extensions>
          <ns3:TrackPointExtension>
            <ns3:hr>108</ns3:hr>
            <ns3:cad>0</ns3:cad>
          </ns3:TrackPointExtension>
        </extensions>
      </trkpt>
      <trkpt lat="37.7628718502819538116455078125" lon="-107.70948727615177631378173828125">
        <ele>3646.199951171875</ele>
        <time>2023-07-29T14:08:58.000Z</time>
        <extensions>
          <ns3:TrackPointExtension>
            <ns3:hr>109</ns3:hr>
            <ns3:cad>0</ns3:cad>
          </ns3:TrackPointExtension>
        </extensions>
      </trkpt>
      <trkpt lat="37.76288584806025028228759765625" lon="-107.70948358811438083648681640625">
        <ele>3646.199951171875</ele>
        <time>2023-07-29T14:08:59.000Z</time>
        <extensions>
          <ns3:TrackPointExtension>
            <ns3:hr>109</ns3:hr>
            <ns3:cad>47</ns3:cad>
          </ns3:TrackPointExtension>
        </extensions>
      </trkpt>
      <trkpt lat="37.76288601569831371307373046875" lon="-107.70948325283825397491455078125">
        <ele>3646.39990234375</ele>
        <time>2023-07-29T14:09:00.000Z</time>
        <extensions>
          <ns3:TrackPointExtension>
            <ns3:hr>110</ns3:hr>
            <ns3:cad>47</ns3:cad>
          </ns3:TrackPointExtension>
        </extensions>
      </trkpt>
      <trkpt lat="37.76288853026926517486572265625" lon="-107.70947654731571674346923828125">
        <ele>3646.60009765625</ele>
        <time>2023-07-29T14:09:01.000Z</time>
        <extensions>
          <ns3:TrackPointExtension>
            <ns3:hr>109</ns3:hr>
            <ns3:cad>0</ns3:cad>
          </ns3:TrackPointExtension>
        </extensions>
      </trkpt>
      <trkpt lat="37.7628983370959758758544921875" lon="-107.70947269164025783538818359375">
        <ele>3646.800048828125</ele>
        <time>2023-07-29T14:09:02.000Z</time>
        <extensions>
          <ns3:TrackPointExtension>
            <ns3:hr>109</ns3:hr>
            <ns3:cad>0</ns3:cad>
          </ns3:TrackPointExtension>
        </extensions>
      </trkpt>
      <trkpt lat="37.762903533875942230224609375" lon="-107.70946715958416461944580078125">
        <ele>3646.800048828125</ele>
        <time>2023-07-29T14:09:03.000Z</time>
        <extensions>
          <ns3:TrackPointExtension>
            <ns3:hr>109</ns3:hr>
            <ns3:cad>0</ns3:cad>
          </ns3:TrackPointExtension>
        </extensions>
      </trkpt>
      <trkpt lat="37.76290814392268657684326171875" lon="-107.7094655670225620269775390625">
        <ele>3647.199951171875</ele>
        <time>2023-07-29T14:09:04.000Z</time>
        <extensions>
          <ns3:TrackPointExtension>
            <ns3:hr>108</ns3:hr>
            <ns3:cad>0</ns3:cad>
          </ns3:TrackPointExtension>
        </extensions>
      </trkpt>
      <trkpt lat="37.762915603816509246826171875" lon="-107.7094612084329128265380859375">
        <ele>3647.199951171875</ele>
        <time>2023-07-29T14:09:05.000Z</time>
        <extensions>
          <ns3:TrackPointExtension>
            <ns3:hr>108</ns3:hr>
            <ns3:cad>0</ns3:cad>
          </ns3:TrackPointExtension>
        </extensions>
      </trkpt>
      <trkpt lat="37.76292172260582447052001953125" lon="-107.709459364414215087890625">
        <ele>3647.39990234375</ele>
        <time>2023-07-29T14:09:06.000Z</time>
        <extensions>
          <ns3:TrackPointExtension>
            <ns3:hr>109</ns3:hr>
            <ns3:cad>0</ns3:cad>
          </ns3:TrackPointExtension>
        </extensions>
      </trkpt>
      <trkpt lat="37.762937061488628387451171875" lon="-107.70945106633007526397705078125">
        <ele>3647.800048828125</ele>
        <time>2023-07-29T14:09:07.000Z</time>
        <extensions>
          <ns3:TrackPointExtension>
            <ns3:hr>109</ns3:hr>
            <ns3:cad>0</ns3:cad>
          </ns3:TrackPointExtension>
        </extensions>
      </trkpt>
      <trkpt lat="37.76294435374438762664794921875" lon="-107.7094481326639652252197265625">
        <ele>3647.800048828125</ele>
        <time>2023-07-29T14:09:08.000Z</time>
        <extensions>
          <ns3:TrackPointExtension>
            <ns3:hr>110</ns3:hr>
            <ns3:cad>0</ns3:cad>
          </ns3:TrackPointExtension>
        </extensions>
      </trkpt>
      <trkpt lat="37.76294586248695850372314453125" lon="-107.7094472944736480712890625">
        <ele>3648</ele>
        <time>2023-07-29T14:09:09.000Z</time>
        <extensions>
          <ns3:TrackPointExtension>
            <ns3:hr>111</ns3:hr>
            <ns3:cad>0</ns3:cad>
          </ns3:TrackPointExtension>
        </extensions>
      </trkpt>
      <trkpt lat="37.76294753886759281158447265625" lon="-107.7094484679400920867919921875">
        <ele>3648</ele>
        <time>2023-07-29T14:09:10.000Z</time>
        <extensions>
          <ns3:TrackPointExtension>
            <ns3:hr>111</ns3:hr>
            <ns3:cad>0</ns3:cad>
          </ns3:TrackPointExtension>
        </extensions>
      </trkpt>
      <trkpt lat="37.762947119772434234619140625" lon="-107.7094521559774875640869140625">
        <ele>3648.199951171875</ele>
        <time>2023-07-29T14:09:11.000Z</time>
        <extensions>
          <ns3:TrackPointExtension>
            <ns3:hr>110</ns3:hr>
            <ns3:cad>0</ns3:cad>
          </ns3:TrackPointExtension>
        </extensions>
      </trkpt>
      <trkpt lat="37.76295608840882778167724609375" lon="-107.70944930613040924072265625">
        <ele>3648.199951171875</ele>
        <time>2023-07-29T14:09:12.000Z</time>
        <extensions>
          <ns3:TrackPointExtension>
            <ns3:hr>110</ns3:hr>
            <ns3:cad>0</ns3:cad>
          </ns3:TrackPointExtension>
        </extensions>
      </trkpt>
      <trkpt lat="37.7629657275974750518798828125" lon="-107.7094484679400920867919921875">
        <ele>3648.39990234375</ele>
        <time>2023-07-29T14:09:13.000Z</time>
        <extensions>
          <ns3:TrackPointExtension>
            <ns3:hr>111</ns3:hr>
            <ns3:cad>0</ns3:cad>
          </ns3:TrackPointExtension>
        </extensions>
      </trkpt>
      <trkpt lat="37.762973941862583160400390625" lon="-107.709447629749774932861328125">
        <ele>3648.800048828125</ele>
        <time>2023-07-29T14:09:14.000Z</time>
        <extensions>
          <ns3:TrackPointExtension>
            <ns3:hr>111</ns3:hr>
            <ns3:cad>0</ns3:cad>
          </ns3:TrackPointExtension>
        </extensions>
      </trkpt>
      <trkpt lat="37.76297737844288349151611328125" lon="-107.709446959197521209716796875">
        <ele>3648.800048828125</ele>
        <time>2023-07-29T14:09:15.000Z</time>
        <extensions>
          <ns3:TrackPointExtension>
            <ns3:hr>111</ns3:hr>
            <ns3:cad>0</ns3:cad>
          </ns3:TrackPointExtension>
        </extensions>
      </trkpt>
      <trkpt lat="37.76298307813704013824462890625" lon="-107.70944620482623577117919921875">
        <ele>3649</ele>
        <time>2023-07-29T14:09:16.000Z</time>
        <extensions>
          <ns3:TrackPointExtension>
            <ns3:hr>112</ns3:hr>
            <ns3:cad>0</ns3:cad>
          </ns3:TrackPointExtension>
        </extensions>
      </trkpt>
      <trkpt lat="37.7629925496876239776611328125" lon="-107.7094444446265697479248046875">
        <ele>3649.199951171875</ele>
        <time>2023-07-29T14:09:17.000Z</time>
        <extensions>
          <ns3:TrackPointExtension>
            <ns3:hr>112</ns3:hr>
            <ns3:cad>0</ns3:cad>
          </ns3:TrackPointExtension>
        </extensions>
      </trkpt>
      <trkpt lat="37.76299984194338321685791015625" lon="-107.7094419300556182861328125">
        <ele>3649.199951171875</ele>
        <time>2023-07-29T14:09:18.000Z</time>
        <extensions>
          <ns3:TrackPointExtension>
            <ns3:hr>112</ns3:hr>
            <ns3:cad>0</ns3:cad>
          </ns3:TrackPointExtension>
        </extensions>
      </trkpt>
      <trkpt lat="37.76300847530364990234375" lon="-107.70944050513207912445068359375">
        <ele>3649.39990234375</ele>
        <time>2023-07-29T14:09:19.000Z</time>
        <extensions>
          <ns3:TrackPointExtension>
            <ns3:hr>111</ns3:hr>
            <ns3:cad>0</ns3:cad>
          </ns3:TrackPointExtension>
        </extensions>
      </trkpt>
      <trkpt lat="37.76301375590264797210693359375" lon="-107.7094384096562862396240234375">
        <ele>3649.60009765625</ele>
        <time>2023-07-29T14:09:20.000Z</time>
        <extensions>
          <ns3:TrackPointExtension>
            <ns3:hr>111</ns3:hr>
            <ns3:cad>0</ns3:cad>
          </ns3:TrackPointExtension>
        </extensions>
      </trkpt>
      <trkpt lat="37.7630284242331981658935546875" lon="-107.7094387449324131011962890625">
        <ele>3649.800048828125</ele>
        <time>2023-07-29T14:09:21.000Z</time>
        <extensions>
          <ns3:TrackPointExtension>
            <ns3:hr>111</ns3:hr>
            <ns3:cad>0</ns3:cad>
          </ns3:TrackPointExtension>
        </extensions>
      </trkpt>
      <trkpt lat="37.76303739286959171295166015625" lon="-107.70943732000887393951416015625">
        <ele>3649.800048828125</ele>
        <time>2023-07-29T14:09:22.000Z</time>
        <extensions>
          <ns3:TrackPointExtension>
            <ns3:hr>111</ns3:hr>
            <ns3:cad>0</ns3:cad>
          </ns3:TrackPointExtension>
        </extensions>
      </trkpt>
      <trkpt lat="37.7630428411066532135009765625" lon="-107.70943799056112766265869140625">
        <ele>3650</ele>
        <time>2023-07-29T14:09:23.000Z</time>
        <extensions>
          <ns3:TrackPointExtension>
            <ns3:hr>111</ns3:hr>
            <ns3:cad>0</ns3:cad>
          </ns3:TrackPointExtension>
        </extensions>
      </trkpt>
      <trkpt lat="37.76304711587727069854736328125" lon="-107.70944100804626941680908203125">
        <ele>3650.199951171875</ele>
        <time>2023-07-29T14:09:24.000Z</time>
        <extensions>
          <ns3:TrackPointExtension>
            <ns3:hr>111</ns3:hr>
            <ns3:cad>0</ns3:cad>
          </ns3:TrackPointExtension>
        </extensions>
      </trkpt>
      <trkpt lat="37.76305348612368106842041015625" lon="-107.7094447799026966094970703125">
        <ele>3650.39990234375</ele>
        <time>2023-07-29T14:09:25.000Z</time>
        <extensions>
          <ns3:TrackPointExtension>
            <ns3:hr>111</ns3:hr>
            <ns3:cad>0</ns3:cad>
          </ns3:TrackPointExtension>
        </extensions>
      </trkpt>
      <trkpt lat="37.76305767707526683807373046875" lon="-107.70945559255778789520263671875">
        <ele>3650.60009765625</ele>
        <time>2023-07-29T14:09:26.000Z</time>
        <extensions>
          <ns3:TrackPointExtension>
            <ns3:hr>110</ns3:hr>
            <ns3:cad>0</ns3:cad>
          </ns3:TrackPointExtension>
        </extensions>
      </trkpt>
      <trkpt lat="37.76306069456040859222412109375" lon="-107.70945944823324680328369140625">
        <ele>3650.60009765625</ele>
        <time>2023-07-29T14:09:27.000Z</time>
        <extensions>
          <ns3:TrackPointExtension>
            <ns3:hr>110</ns3:hr>
            <ns3:cad>0</ns3:cad>
          </ns3:TrackPointExtension>
        </extensions>
      </trkpt>
      <trkpt lat="37.763071171939373016357421875" lon="-107.70946581847965717315673828125">
        <ele>3650.800048828125</ele>
        <time>2023-07-29T14:09:28.000Z</time>
        <extensions>
          <ns3:TrackPointExtension>
            <ns3:hr>110</ns3:hr>
            <ns3:cad>0</ns3:cad>
          </ns3:TrackPointExtension>
        </extensions>
      </trkpt>
      <trkpt lat="37.7630720101296901702880859375" lon="-107.70947067998349666595458984375">
        <ele>3651</ele>
        <time>2023-07-29T14:09:29.000Z</time>
        <extensions>
          <ns3:TrackPointExtension>
            <ns3:hr>110</ns3:hr>
            <ns3:cad>0</ns3:cad>
          </ns3:TrackPointExtension>
        </extensions>
      </trkpt>
      <trkpt lat="37.76308248750865459442138671875" lon="-107.70947772078216075897216796875">
        <ele>3651.199951171875</ele>
        <time>2023-07-29T14:09:30.000Z</time>
        <extensions>
          <ns3:TrackPointExtension>
            <ns3:hr>110</ns3:hr>
            <ns3:cad>0</ns3:cad>
          </ns3:TrackPointExtension>
        </extensions>
      </trkpt>
      <trkpt lat="37.76308424770832061767578125" lon="-107.7094793133437633514404296875">
        <ele>3651.199951171875</ele>
        <time>2023-07-29T14:09:31.000Z</time>
        <extensions>
          <ns3:TrackPointExtension>
            <ns3:hr>111</ns3:hr>
            <ns3:cad>0</ns3:cad>
          </ns3:TrackPointExtension>
        </extensions>
      </trkpt>
      <trkpt lat="37.7630876004695892333984375" lon="-107.709480486810207366943359375">
        <ele>3651.60009765625</ele>
        <time>2023-07-29T14:09:32.000Z</time>
        <extensions>
          <ns3:TrackPointExtension>
            <ns3:hr>111</ns3:hr>
            <ns3:cad>0</ns3:cad>
          </ns3:TrackPointExtension>
        </extensions>
      </trkpt>
      <trkpt lat="37.76309371925890445709228515625" lon="-107.70948157645761966705322265625">
        <ele>3651.60009765625</ele>
        <time>2023-07-29T14:09:33.000Z</time>
        <extensions>
          <ns3:TrackPointExtension>
            <ns3:hr>110</ns3:hr>
            <ns3:cad>0</ns3:cad>
          </ns3:TrackPointExtension>
        </extensions>
      </trkpt>
      <trkpt lat="37.76310411281883716583251953125" lon="-107.70948685705661773681640625">
        <ele>3651.800048828125</ele>
        <time>2023-07-29T14:09:34.000Z</time>
        <extensions>
          <ns3:TrackPointExtension>
            <ns3:hr>110</ns3:hr>
            <ns3:cad>0</ns3:cad>
          </ns3:TrackPointExtension>
        </extensions>
      </trkpt>
      <trkpt lat="37.76310813613235950469970703125" lon="-107.70947906188666820526123046875">
        <ele>3652</ele>
        <time>2023-07-29T14:09:35.000Z</time>
        <extensions>
          <ns3:TrackPointExtension>
            <ns3:hr>110</ns3:hr>
            <ns3:cad>0</ns3:cad>
          </ns3:TrackPointExtension>
        </extensions>
      </trkpt>
      <trkpt lat="37.76311417110264301300048828125" lon="-107.7094766311347484588623046875">
        <ele>3652.199951171875</ele>
        <time>2023-07-29T14:09:36.000Z</time>
        <extensions>
          <ns3:TrackPointExtension>
            <ns3:hr>109</ns3:hr>
            <ns3:cad>0</ns3:cad>
          </ns3:TrackPointExtension>
        </extensions>
      </trkpt>
      <trkpt lat="37.76312205009162425994873046875" lon="-107.7094607055187225341796875">
        <ele>3652.199951171875</ele>
        <time>2023-07-29T14:09:37.000Z</time>
        <extensions>
          <ns3:TrackPointExtension>
            <ns3:hr>109</ns3:hr>
            <ns3:cad>0</ns3:cad>
          </ns3:TrackPointExtension>
        </extensions>
      </trkpt>
      <trkpt lat="37.76312992908060550689697265625" lon="-107.70945039577782154083251953125">
        <ele>3652.39990234375</ele>
        <time>2023-07-29T14:09:38.000Z</time>
        <extensions>
          <ns3:TrackPointExtension>
            <ns3:hr>110</ns3:hr>
            <ns3:cad>0</ns3:cad>
          </ns3:TrackPointExtension>
        </extensions>
      </trkpt>
      <trkpt lat="37.76313680224120616912841796875" lon="-107.70943966694176197052001953125">
        <ele>3652.800048828125</ele>
        <time>2023-07-29T14:09:39.000Z</time>
        <extensions>
          <ns3:TrackPointExtension>
            <ns3:hr>110</ns3:hr>
            <ns3:cad>0</ns3:cad>
          </ns3:TrackPointExtension>
        </extensions>
      </trkpt>
      <trkpt lat="37.7631400711834430694580078125" lon="-107.70943455398082733154296875">
        <ele>3653</ele>
        <time>2023-07-29T14:09:40.000Z</time>
        <extensions>
          <ns3:TrackPointExtension>
            <ns3:hr>110</ns3:hr>
            <ns3:cad>0</ns3:cad>
          </ns3:TrackPointExtension>
        </extensions>
      </trkpt>
      <trkpt lat="37.76314568705856800079345703125" lon="-107.709426842629909515380859375">
        <ele>3653</ele>
        <time>2023-07-29T14:09:41.000Z</time>
        <extensions>
          <ns3:TrackPointExtension>
            <ns3:hr>110</ns3:hr>
            <ns3:cad>0</ns3:cad>
          </ns3:TrackPointExtension>
        </extensions>
      </trkpt>
      <trkpt lat="37.7631511352956295013427734375" lon="-107.70942516624927520751953125">
        <ele>3653.39990234375</ele>
        <time>2023-07-29T14:09:42.000Z</time>
        <extensions>
          <ns3:TrackPointExtension>
            <ns3:hr>110</ns3:hr>
            <ns3:cad>0</ns3:cad>
          </ns3:TrackPointExtension>
        </extensions>
      </trkpt>
      <trkpt lat="37.76316203176975250244140625" lon="-107.70941980183124542236328125">
        <ele>3653.60009765625</ele>
        <time>2023-07-29T14:09:43.000Z</time>
        <extensions>
          <ns3:TrackPointExtension>
            <ns3:hr>110</ns3:hr>
            <ns3:cad>0</ns3:cad>
          </ns3:TrackPointExtension>
        </extensions>
      </trkpt>
      <trkpt lat="37.763170413672924041748046875" lon="-107.70941720344126224517822265625">
        <ele>3653.60009765625</ele>
        <time>2023-07-29T14:09:44.000Z</time>
        <extensions>
          <ns3:TrackPointExtension>
            <ns3:hr>110</ns3:hr>
            <ns3:cad>0</ns3:cad>
          </ns3:TrackPointExtension>
        </extensions>
      </trkpt>
      <trkpt lat="37.76317854411900043487548828125" lon="-107.709418125450611114501953125">
        <ele>3653.60009765625</ele>
        <time>2023-07-29T14:09:45.000Z</time>
        <extensions>
          <ns3:TrackPointExtension>
            <ns3:hr>110</ns3:hr>
            <ns3:cad>0</ns3:cad>
          </ns3:TrackPointExtension>
        </extensions>
      </trkpt>
      <trkpt lat="37.7631886862218379974365234375" lon="-107.70941636525094509124755859375">
        <ele>3653.60009765625</ele>
        <time>2023-07-29T14:09:46.000Z</time>
        <extensions>
          <ns3:TrackPointExtension>
            <ns3:hr>111</ns3:hr>
            <ns3:cad>0</ns3:cad>
          </ns3:TrackPointExtension>
        </extensions>
      </trkpt>
      <trkpt lat="37.76319681666791439056396484375" lon="-107.7094146050512790679931640625">
        <ele>3653.800048828125</ele>
        <time>2023-07-29T14:09:47.000Z</time>
        <extensions>
          <ns3:TrackPointExtension>
            <ns3:hr>111</ns3:hr>
            <ns3:cad>67</ns3:cad>
          </ns3:TrackPointExtension>
        </extensions>
      </trkpt>
      <trkpt lat="37.7631947211921215057373046875" lon="-107.7094203047454357147216796875">
        <ele>3653.800048828125</ele>
        <time>2023-07-29T14:09:48.000Z</time>
        <extensions>
          <ns3:TrackPointExtension>
            <ns3:hr>112</ns3:hr>
            <ns3:cad>67</ns3:cad>
          </ns3:TrackPointExtension>
        </extensions>
      </trkpt>
      <trkpt lat="37.76319966651499271392822265625" lon="-107.70941980183124542236328125">
        <ele>3653.800048828125</ele>
        <time>2023-07-29T14:09:49.000Z</time>
        <extensions>
          <ns3:TrackPointExtension>
            <ns3:hr>112</ns3:hr>
            <ns3:cad>67</ns3:cad>
          </ns3:TrackPointExtension>
        </extensions>
      </trkpt>
      <trkpt lat="37.7632077969610691070556640625" lon="-107.70941921509802341461181640625">
        <ele>3653.800048828125</ele>
        <time>2023-07-29T14:09:50.000Z</time>
        <extensions>
          <ns3:TrackPointExtension>
            <ns3:hr>112</ns3:hr>
            <ns3:cad>67</ns3:cad>
          </ns3:TrackPointExtension>
        </extensions>
      </trkpt>
      <trkpt lat="37.763206958770751953125" lon="-107.7094166167080402374267578125">
        <ele>3654</ele>
        <time>2023-07-29T14:09:51.000Z</time>
        <extensions>
          <ns3:TrackPointExtension>
            <ns3:hr>112</ns3:hr>
            <ns3:cad>0</ns3:cad>
          </ns3:TrackPointExtension>
        </extensions>
      </trkpt>
      <trkpt lat="37.763206623494625091552734375" lon="-107.70940898917615413665771484375">
        <ele>3654</ele>
        <time>2023-07-29T14:09:52.000Z</time>
        <extensions>
          <ns3:TrackPointExtension>
            <ns3:hr>112</ns3:hr>
            <ns3:cad>0</ns3:cad>
          </ns3:TrackPointExtension>
        </extensions>
      </trkpt>
      <trkpt lat="37.76320754550397396087646484375" lon="-107.70940144546329975128173828125">
        <ele>3654.199951171875</ele>
        <time>2023-07-29T14:09:53.000Z</time>
        <extensions>
          <ns3:TrackPointExtension>
            <ns3:hr>112</ns3:hr>
            <ns3:cad>0</ns3:cad>
          </ns3:TrackPointExtension>
        </extensions>
      </trkpt>
      <trkpt lat="37.76321575976908206939697265625" lon="-107.709395997226238250732421875">
        <ele>3654.39990234375</ele>
        <time>2023-07-29T14:09:54.000Z</time>
        <extensions>
          <ns3:TrackPointExtension>
            <ns3:hr>112</ns3:hr>
            <ns3:cad>0</ns3:cad>
          </ns3:TrackPointExtension>
        </extensions>
      </trkpt>
      <trkpt lat="37.76322213001549243927001953125" lon="-107.70939054898917675018310546875">
        <ele>3654.39990234375</ele>
        <time>2023-07-29T14:09:55.000Z</time>
        <extensions>
          <ns3:TrackPointExtension>
            <ns3:hr>111</ns3:hr>
            <ns3:cad>0</ns3:cad>
          </ns3:TrackPointExtension>
        </extensions>
      </trkpt>
      <trkpt lat="37.76322682388126850128173828125" lon="-107.70938501693308353424072265625">
        <ele>3654.60009765625</ele>
        <time>2023-07-29T14:09:56.000Z</time>
        <extensions>
          <ns3:TrackPointExtension>
            <ns3:hr>111</ns3:hr>
            <ns3:cad>0</ns3:cad>
          </ns3:TrackPointExtension>
        </extensions>
      </trkpt>
      <trkpt lat="37.76323386467993259429931640625" lon="-107.70938015542924404144287109375">
        <ele>3654.800048828125</ele>
        <time>2023-07-29T14:09:57.000Z</time>
        <extensions>
          <ns3:TrackPointExtension>
            <ns3:hr>112</ns3:hr>
            <ns3:cad>0</ns3:cad>
          </ns3:TrackPointExtension>
        </extensions>
      </trkpt>
      <trkpt lat="37.76324006728827953338623046875" lon="-107.70937881432473659515380859375">
        <ele>3655</ele>
        <time>2023-07-29T14:09:58.000Z</time>
        <extensions>
          <ns3:TrackPointExtension>
            <ns3:hr>112</ns3:hr>
            <ns3:cad>0</ns3:cad>
          </ns3:TrackPointExtension>
        </extensions>
      </trkpt>
      <trkpt lat="37.763244844973087310791015625" lon="-107.709379903972148895263671875">
        <ele>3655</ele>
        <time>2023-07-29T14:09:59.000Z</time>
        <extensions>
          <ns3:TrackPointExtension>
            <ns3:hr>112</ns3:hr>
            <ns3:cad>0</ns3:cad>
          </ns3:TrackPointExtension>
        </extensions>
      </trkpt>
      <trkpt lat="37.76325716637074947357177734375" lon="-107.70937646739184856414794921875">
        <ele>3655.199951171875</ele>
        <time>2023-07-29T14:10:00.000Z</time>
        <extensions>
          <ns3:TrackPointExtension>
            <ns3:hr>112</ns3:hr>
            <ns3:cad>0</ns3:cad>
          </ns3:TrackPointExtension>
        </extensions>
      </trkpt>
      <trkpt lat="37.7632621116936206817626953125" lon="-107.70937680266797542572021484375">
        <ele>3655.199951171875</ele>
        <time>2023-07-29T14:10:01.000Z</time>
        <extensions>
          <ns3:TrackPointExtension>
            <ns3:hr>113</ns3:hr>
            <ns3:cad>0</ns3:cad>
          </ns3:TrackPointExtension>
        </extensions>
      </trkpt>
      <trkpt lat="37.7632735110819339752197265625" lon="-107.70937629975378513336181640625">
        <ele>3655.60009765625</ele>
        <time>2023-07-29T14:10:02.000Z</time>
        <extensions>
          <ns3:TrackPointExtension>
            <ns3:hr>113</ns3:hr>
            <ns3:cad>0</ns3:cad>
          </ns3:TrackPointExtension>
        </extensions>
      </trkpt>
      <trkpt lat="37.763281054794788360595703125" lon="-107.70937965251505374908447265625">
        <ele>3655.800048828125</ele>
        <time>2023-07-29T14:10:03.000Z</time>
        <extensions>
          <ns3:TrackPointExtension>
            <ns3:hr>113</ns3:hr>
            <ns3:cad>0</ns3:cad>
          </ns3:TrackPointExtension>
        </extensions>
      </trkpt>
      <trkpt lat="37.763288430869579315185546875" lon="-107.7093820832669734954833984375">
        <ele>3655.800048828125</ele>
        <time>2023-07-29T14:10:04.000Z</time>
        <extensions>
          <ns3:TrackPointExtension>
            <ns3:hr>113</ns3:hr>
            <ns3:cad>0</ns3:cad>
          </ns3:TrackPointExtension>
        </extensions>
      </trkpt>
      <trkpt lat="37.7632939629256725311279296875" lon="-107.70938535220921039581298828125">
        <ele>3656</ele>
        <time>2023-07-29T14:10:05.000Z</time>
        <extensions>
          <ns3:TrackPointExtension>
            <ns3:hr>113</ns3:hr>
            <ns3:cad>0</ns3:cad>
          </ns3:TrackPointExtension>
        </extensions>
      </trkpt>
      <trkpt lat="37.76329522021114826202392578125" lon="-107.709388621151447296142578125">
        <ele>3656</ele>
        <time>2023-07-29T14:10:06.000Z</time>
        <extensions>
          <ns3:TrackPointExtension>
            <ns3:hr>114</ns3:hr>
            <ns3:cad>0</ns3:cad>
          </ns3:TrackPointExtension>
        </extensions>
      </trkpt>
      <trkpt lat="37.7633026801049709320068359375" lon="-107.709394991397857666015625">
        <ele>3656.199951171875</ele>
        <time>2023-07-29T14:10:07.000Z</time>
        <extensions>
          <ns3:TrackPointExtension>
            <ns3:hr>114</ns3:hr>
            <ns3:cad>0</ns3:cad>
          </ns3:TrackPointExtension>
        </extensions>
      </trkpt>
      <trkpt lat="37.76330611668527126312255859375" lon="-107.70940027199685573577880859375">
        <ele>3656.39990234375</ele>
        <time>2023-07-29T14:10:08.000Z</time>
        <extensions>
          <ns3:TrackPointExtension>
            <ns3:hr>114</ns3:hr>
            <ns3:cad>0</ns3:cad>
          </ns3:TrackPointExtension>
        </extensions>
      </trkpt>
      <trkpt lat="37.76331097818911075592041015625" lon="-107.70940161310136318206787109375">
        <ele>3656.60009765625</ele>
        <time>2023-07-29T14:10:09.000Z</time>
        <extensions>
          <ns3:TrackPointExtension>
            <ns3:hr>114</ns3:hr>
            <ns3:cad>0</ns3:cad>
          </ns3:TrackPointExtension>
        </extensions>
      </trkpt>
      <trkpt lat="37.76331265456974506378173828125" lon="-107.709400691092014312744140625">
        <ele>3656.800048828125</ele>
        <time>2023-07-29T14:10:10.000Z</time>
        <extensions>
          <ns3:TrackPointExtension>
            <ns3:hr>114</ns3:hr>
            <ns3:cad>0</ns3:cad>
          </ns3:TrackPointExtension>
        </extensions>
      </trkpt>
      <trkpt lat="37.76331852190196514129638671875" lon="-107.70940546877682209014892578125">
        <ele>3657.199951171875</ele>
        <time>2023-07-29T14:10:11.000Z</time>
        <extensions>
          <ns3:TrackPointExtension>
            <ns3:hr>114</ns3:hr>
            <ns3:cad>0</ns3:cad>
          </ns3:TrackPointExtension>
        </extensions>
      </trkpt>
      <trkpt lat="37.7633224613964557647705078125" lon="-107.7094065584242343902587890625">
        <ele>3657.199951171875</ele>
        <time>2023-07-29T14:10:12.000Z</time>
        <extensions>
          <ns3:TrackPointExtension>
            <ns3:hr>114</ns3:hr>
            <ns3:cad>0</ns3:cad>
          </ns3:TrackPointExtension>
        </extensions>
      </trkpt>
      <trkpt lat="37.76333176530897617340087890625" lon="-107.709411419928073883056640625">
        <ele>3657.39990234375</ele>
        <time>2023-07-29T14:10:13.000Z</time>
        <extensions>
          <ns3:TrackPointExtension>
            <ns3:hr>115</ns3:hr>
            <ns3:cad>0</ns3:cad>
          </ns3:TrackPointExtension>
        </extensions>
      </trkpt>
      <trkpt lat="37.7633412368595600128173828125" lon="-107.70941485650837421417236328125">
        <ele>3657.60009765625</ele>
        <time>2023-07-29T14:10:14.000Z</time>
        <extensions>
          <ns3:TrackPointExtension>
            <ns3:hr>115</ns3:hr>
            <ns3:cad>0</ns3:cad>
          </ns3:TrackPointExtension>
        </extensions>
      </trkpt>
      <trkpt lat="37.76334710419178009033203125" lon="-107.70941318012773990631103515625">
        <ele>3657.800048828125</ele>
        <time>2023-07-29T14:10:15.000Z</time>
        <extensions>
          <ns3:TrackPointExtension>
            <ns3:hr>115</ns3:hr>
            <ns3:cad>0</ns3:cad>
          </ns3:TrackPointExtension>
        </extensions>
      </trkpt>
      <trkpt lat="37.7633559890091419219970703125" lon="-107.70941569469869136810302734375">
        <ele>3657.800048828125</ele>
        <time>2023-07-29T14:10:16.000Z</time>
        <extensions>
          <ns3:TrackPointExtension>
            <ns3:hr>115</ns3:hr>
            <ns3:cad>0</ns3:cad>
          </ns3:TrackPointExtension>
        </extensions>
      </trkpt>
      <trkpt lat="37.7633663825690746307373046875" lon="-107.70941670052707195281982421875">
        <ele>3658</ele>
        <time>2023-07-29T14:10:17.000Z</time>
        <extensions>
          <ns3:TrackPointExtension>
            <ns3:hr>115</ns3:hr>
            <ns3:cad>0</ns3:cad>
          </ns3:TrackPointExtension>
        </extensions>
      </trkpt>
      <trkpt lat="37.7633744291961193084716796875" lon="-107.70941837690770626068115234375">
        <ele>3658.199951171875</ele>
        <time>2023-07-29T14:10:18.000Z</time>
        <extensions>
          <ns3:TrackPointExtension>
            <ns3:hr>114</ns3:hr>
            <ns3:cad>0</ns3:cad>
          </ns3:TrackPointExtension>
        </extensions>
      </trkpt>
      <trkpt lat="37.763377614319324493408203125" lon="-107.7094192989170551300048828125">
        <ele>3658.199951171875</ele>
        <time>2023-07-29T14:10:19.000Z</time>
        <extensions>
          <ns3:TrackPointExtension>
            <ns3:hr>114</ns3:hr>
            <ns3:cad>0</ns3:cad>
          </ns3:TrackPointExtension>
        </extensions>
      </trkpt>
      <trkpt lat="37.76337116025388240814208984375" lon="-107.70941686816513538360595703125">
        <ele>3658.199951171875</ele>
        <time>2023-07-29T14:10:20.000Z</time>
        <extensions>
          <ns3:TrackPointExtension>
            <ns3:hr>113</ns3:hr>
            <ns3:cad>0</ns3:cad>
          </ns3:TrackPointExtension>
        </extensions>
      </trkpt>
      <trkpt lat="37.7633767761290073394775390625" lon="-107.70941636525094509124755859375">
        <ele>3658.39990234375</ele>
        <time>2023-07-29T14:10:21.000Z</time>
        <extensions>
          <ns3:TrackPointExtension>
            <ns3:hr>113</ns3:hr>
            <ns3:cad>0</ns3:cad>
          </ns3:TrackPointExtension>
        </extensions>
      </trkpt>
      <trkpt lat="37.7633838169276714324951171875" lon="-107.70942156203091144561767578125">
        <ele>3658.60009765625</ele>
        <time>2023-07-29T14:10:22.000Z</time>
        <extensions>
          <ns3:TrackPointExtension>
            <ns3:hr>112</ns3:hr>
            <ns3:cad>0</ns3:cad>
          </ns3:TrackPointExtension>
        </extensions>
      </trkpt>
      <trkpt lat="37.76339471340179443359375" lon="-107.70942382514476776123046875">
        <ele>3658.800048828125</ele>
        <time>2023-07-29T14:10:23.000Z</time>
        <extensions>
          <ns3:TrackPointExtension>
            <ns3:hr>113</ns3:hr>
            <ns3:cad>0</ns3:cad>
          </ns3:TrackPointExtension>
        </extensions>
      </trkpt>
      <trkpt lat="37.7633968926966190338134765625" lon="-107.709427177906036376953125">
        <ele>3659</ele>
        <time>2023-07-29T14:10:24.000Z</time>
        <extensions>
          <ns3:TrackPointExtension>
            <ns3:hr>114</ns3:hr>
            <ns3:cad>65</ns3:cad>
          </ns3:TrackPointExtension>
        </extensions>
      </trkpt>
      <trkpt lat="37.76339781470596790313720703125" lon="-107.70942826755344867706298828125">
        <ele>3659.199951171875</ele>
        <time>2023-07-29T14:10:25.000Z</time>
        <extensions>
          <ns3:TrackPointExtension>
            <ns3:hr>114</ns3:hr>
            <ns3:cad>65</ns3:cad>
          </ns3:TrackPointExtension>
        </extensions>
      </trkpt>
      <trkpt lat="37.7634015865623950958251953125" lon="-107.709430865943431854248046875">
        <ele>3659.39990234375</ele>
        <time>2023-07-29T14:10:26.000Z</time>
        <extensions>
          <ns3:TrackPointExtension>
            <ns3:hr>114</ns3:hr>
            <ns3:cad>65</ns3:cad>
          </ns3:TrackPointExtension>
        </extensions>
      </trkpt>
      <trkpt lat="37.76340368203818798065185546875" lon="-107.70943187177181243896484375">
        <ele>3659.60009765625</ele>
        <time>2023-07-29T14:10:27.000Z</time>
        <extensions>
          <ns3:TrackPointExtension>
            <ns3:hr>114</ns3:hr>
            <ns3:cad>65</ns3:cad>
          </ns3:TrackPointExtension>
        </extensions>
      </trkpt>
      <trkpt lat="37.76341021992266178131103515625" lon="-107.70943229086697101593017578125">
        <ele>3659.800048828125</ele>
        <time>2023-07-29T14:10:28.000Z</time>
        <extensions>
          <ns3:TrackPointExtension>
            <ns3:hr>115</ns3:hr>
            <ns3:cad>62</ns3:cad>
          </ns3:TrackPointExtension>
        </extensions>
      </trkpt>
      <trkpt lat="37.76341256685554981231689453125" lon="-107.70943162031471729278564453125">
        <ele>3660</ele>
        <time>2023-07-29T14:10:29.000Z</time>
        <extensions>
          <ns3:TrackPointExtension>
            <ns3:hr>114</ns3:hr>
            <ns3:cad>0</ns3:cad>
          </ns3:TrackPointExtension>
        </extensions>
      </trkpt>
      <trkpt lat="37.76341675780713558197021484375" lon="-107.70943229086697101593017578125">
        <ele>3660.199951171875</ele>
        <time>2023-07-29T14:10:30.000Z</time>
        <extensions>
          <ns3:TrackPointExtension>
            <ns3:hr>114</ns3:hr>
            <ns3:cad>0</ns3:cad>
          </ns3:TrackPointExtension>
        </extensions>
      </trkpt>
      <trkpt lat="37.76342329569160938262939453125" lon="-107.70943547599017620086669921875">
        <ele>3660.39990234375</ele>
        <time>2023-07-29T14:10:31.000Z</time>
        <extensions>
          <ns3:TrackPointExtension>
            <ns3:hr>113</ns3:hr>
            <ns3:cad>0</ns3:cad>
          </ns3:TrackPointExtension>
        </extensions>
      </trkpt>
      <trkpt lat="37.76342430151998996734619140625" lon="-107.70943547599017620086669921875">
        <ele>3660.39990234375</ele>
        <time>2023-07-29T14:10:32.000Z</time>
        <extensions>
          <ns3:TrackPointExtension>
            <ns3:hr>113</ns3:hr>
            <ns3:cad>0</ns3:cad>
          </ns3:TrackPointExtension>
        </extensions>
      </trkpt>
      <trkpt lat="37.7634280733764171600341796875" lon="-107.70943765528500080108642578125">
        <ele>3660.60009765625</ele>
        <time>2023-07-29T14:10:33.000Z</time>
        <extensions>
          <ns3:TrackPointExtension>
            <ns3:hr>113</ns3:hr>
            <ns3:cad>0</ns3:cad>
          </ns3:TrackPointExtension>
        </extensions>
      </trkpt>
      <trkpt lat="37.76343586854636669158935546875" lon="-107.709439583122730255126953125">
        <ele>3660.60009765625</ele>
        <time>2023-07-29T14:10:34.000Z</time>
        <extensions>
          <ns3:TrackPointExtension>
            <ns3:hr>112</ns3:hr>
            <ns3:cad>0</ns3:cad>
          </ns3:TrackPointExtension>
        </extensions>
      </trkpt>
      <trkpt lat="37.76343762874603271484375" lon="-107.70944436080753803253173828125">
        <ele>3661</ele>
        <time>2023-07-29T14:10:35.000Z</time>
        <extensions>
          <ns3:TrackPointExtension>
            <ns3:hr>112</ns3:hr>
            <ns3:cad>0</ns3:cad>
          </ns3:TrackPointExtension>
        </extensions>
      </trkpt>
      <trkpt lat="37.763439305126667022705078125" lon="-107.709448300302028656005859375">
        <ele>3661.199951171875</ele>
        <time>2023-07-29T14:10:36.000Z</time>
        <extensions>
          <ns3:TrackPointExtension>
            <ns3:hr>111</ns3:hr>
            <ns3:cad>0</ns3:cad>
          </ns3:TrackPointExtension>
        </extensions>
      </trkpt>
      <trkpt lat="37.76344441808760166168212890625" lon="-107.70945559255778789520263671875">
        <ele>3661.39990234375</ele>
        <time>2023-07-29T14:10:37.000Z</time>
        <extensions>
          <ns3:TrackPointExtension>
            <ns3:hr>111</ns3:hr>
            <ns3:cad>0</ns3:cad>
          </ns3:TrackPointExtension>
        </extensions>
      </trkpt>
      <trkpt lat="37.76344634592533111572265625" lon="-107.7094632200896739959716796875">
        <ele>3661.39990234375</ele>
        <time>2023-07-29T14:10:38.000Z</time>
        <extensions>
          <ns3:TrackPointExtension>
            <ns3:hr>111</ns3:hr>
            <ns3:cad>0</ns3:cad>
          </ns3:TrackPointExtension>
        </extensions>
      </trkpt>
      <trkpt lat="37.7634461782872676849365234375" lon="-107.70946665666997432708740234375">
        <ele>3661.60009765625</ele>
        <time>2023-07-29T14:10:39.000Z</time>
        <extensions>
          <ns3:TrackPointExtension>
            <ns3:hr>111</ns3:hr>
            <ns3:cad>0</ns3:cad>
          </ns3:TrackPointExtension>
        </extensions>
      </trkpt>
      <trkpt lat="37.76345036923885345458984375" lon="-107.7094719372689723968505859375">
        <ele>3661.800048828125</ele>
        <time>2023-07-29T14:10:40.000Z</time>
        <extensions>
          <ns3:TrackPointExtension>
            <ns3:hr>111</ns3:hr>
            <ns3:cad>0</ns3:cad>
          </ns3:TrackPointExtension>
        </extensions>
      </trkpt>
      <trkpt lat="37.76345305144786834716796875" lon="-107.709475792944431304931640625">
        <ele>3661.800048828125</ele>
        <time>2023-07-29T14:10:41.000Z</time>
        <extensions>
          <ns3:TrackPointExtension>
            <ns3:hr>111</ns3:hr>
            <ns3:cad>0</ns3:cad>
          </ns3:TrackPointExtension>
        </extensions>
      </trkpt>
      <trkpt lat="37.7634528838098049163818359375" lon="-107.70947688259184360504150390625">
        <ele>3662</ele>
        <time>2023-07-29T14:10:42.000Z</time>
        <extensions>
          <ns3:TrackPointExtension>
            <ns3:hr>111</ns3:hr>
            <ns3:cad>0</ns3:cad>
          </ns3:TrackPointExtension>
        </extensions>
      </trkpt>
      <trkpt lat="37.76346386410295963287353515625" lon="-107.7094923891127109527587890625">
        <ele>3662</ele>
        <time>2023-07-29T14:10:43.000Z</time>
        <extensions>
          <ns3:TrackPointExtension>
            <ns3:hr>111</ns3:hr>
            <ns3:cad>0</ns3:cad>
          </ns3:TrackPointExtension>
        </extensions>
      </trkpt>
      <trkpt lat="37.76347056962549686431884765625" lon="-107.70949901081621646881103515625">
        <ele>3662.199951171875</ele>
        <time>2023-07-29T14:10:44.000Z</time>
        <extensions>
          <ns3:TrackPointExtension>
            <ns3:hr>111</ns3:hr>
            <ns3:cad>0</ns3:cad>
          </ns3:TrackPointExtension>
        </extensions>
      </trkpt>
      <trkpt lat="37.7634818851947784423828125" lon="-107.70950437523424625396728515625">
        <ele>3662.199951171875</ele>
        <time>2023-07-29T14:10:45.000Z</time>
        <extensions>
          <ns3:TrackPointExtension>
            <ns3:hr>112</ns3:hr>
            <ns3:cad>0</ns3:cad>
          </ns3:TrackPointExtension>
        </extensions>
      </trkpt>
      <trkpt lat="37.7634897641837596893310546875" lon="-107.70950370468199253082275390625">
        <ele>3662.39990234375</ele>
        <time>2023-07-29T14:10:46.000Z</time>
        <extensions>
          <ns3:TrackPointExtension>
            <ns3:hr>112</ns3:hr>
            <ns3:cad>0</ns3:cad>
          </ns3:TrackPointExtension>
        </extensions>
      </trkpt>
      <trkpt lat="37.76349722407758235931396484375" lon="-107.70950806327164173126220703125">
        <ele>3662.60009765625</ele>
        <time>2023-07-29T14:10:47.000Z</time>
        <extensions>
          <ns3:TrackPointExtension>
            <ns3:hr>112</ns3:hr>
            <ns3:cad>0</ns3:cad>
          </ns3:TrackPointExtension>
        </extensions>
      </trkpt>
      <trkpt lat="37.76350091211497783660888671875" lon="-107.70950772799551486968994140625">
        <ele>3662.60009765625</ele>
        <time>2023-07-29T14:10:48.000Z</time>
        <extensions>
          <ns3:TrackPointExtension>
            <ns3:hr>112</ns3:hr>
            <ns3:cad>0</ns3:cad>
          </ns3:TrackPointExtension>
        </extensions>
      </trkpt>
      <trkpt lat="37.76350895874202251434326171875" lon="-107.70950756035745143890380859375">
        <ele>3662.800048828125</ele>
        <time>2023-07-29T14:10:49.000Z</time>
        <extensions>
          <ns3:TrackPointExtension>
            <ns3:hr>112</ns3:hr>
            <ns3:cad>0</ns3:cad>
          </ns3:TrackPointExtension>
        </extensions>
      </trkpt>
      <trkpt lat="37.76352144777774810791015625" lon="-107.7095089852809906005859375">
        <ele>3663</ele>
        <time>2023-07-29T14:10:50.000Z</time>
        <extensions>
          <ns3:TrackPointExtension>
            <ns3:hr>112</ns3:hr>
            <ns3:cad>0</ns3:cad>
          </ns3:TrackPointExtension>
        </extensions>
      </trkpt>
      <trkpt lat="37.76352689601480960845947265625" lon="-107.709509991109371185302734375">
        <ele>3663</ele>
        <time>2023-07-29T14:10:51.000Z</time>
        <extensions>
          <ns3:TrackPointExtension>
            <ns3:hr>113</ns3:hr>
            <ns3:cad>0</ns3:cad>
          </ns3:TrackPointExtension>
        </extensions>
      </trkpt>
      <trkpt lat="37.7635333500802516937255859375" lon="-107.70951158367097377777099609375">
        <ele>3663</ele>
        <time>2023-07-29T14:10:52.000Z</time>
        <extensions>
          <ns3:TrackPointExtension>
            <ns3:hr>113</ns3:hr>
            <ns3:cad>0</ns3:cad>
          </ns3:TrackPointExtension>
        </extensions>
      </trkpt>
      <trkpt lat="37.763538546860218048095703125" lon="-107.7095131762325763702392578125">
        <ele>3663.39990234375</ele>
        <time>2023-07-29T14:10:53.000Z</time>
        <extensions>
          <ns3:TrackPointExtension>
            <ns3:hr>113</ns3:hr>
            <ns3:cad>0</ns3:cad>
          </ns3:TrackPointExtension>
        </extensions>
      </trkpt>
      <trkpt lat="37.76353946886956691741943359375" lon="-107.70951502025127410888671875">
        <ele>3663.60009765625</ele>
        <time>2023-07-29T14:10:54.000Z</time>
        <extensions>
          <ns3:TrackPointExtension>
            <ns3:hr>113</ns3:hr>
            <ns3:cad>0</ns3:cad>
          </ns3:TrackPointExtension>
        </extensions>
      </trkpt>
      <trkpt lat="37.76354533620178699493408203125" lon="-107.7095202170312404632568359375">
        <ele>3663.60009765625</ele>
        <time>2023-07-29T14:10:55.000Z</time>
        <extensions>
          <ns3:TrackPointExtension>
            <ns3:hr>114</ns3:hr>
            <ns3:cad>0</ns3:cad>
          </ns3:TrackPointExtension>
        </extensions>
      </trkpt>
      <trkpt lat="37.763550616800785064697265625" lon="-107.7095205523073673248291015625">
        <ele>3663.800048828125</ele>
        <time>2023-07-29T14:10:56.000Z</time>
        <extensions>
          <ns3:TrackPointExtension>
            <ns3:hr>114</ns3:hr>
            <ns3:cad>0</ns3:cad>
          </ns3:TrackPointExtension>
        </extensions>
      </trkpt>
      <trkpt lat="37.76355656795203685760498046875" lon="-107.70952231250703334808349609375">
        <ele>3664.199951171875</ele>
        <time>2023-07-29T14:10:57.000Z</time>
        <extensions>
          <ns3:TrackPointExtension>
            <ns3:hr>113</ns3:hr>
            <ns3:cad>0</ns3:cad>
          </ns3:TrackPointExtension>
        </extensions>
      </trkpt>
      <trkpt lat="37.76355857960879802703857421875" lon="-107.70952331833541393280029296875">
        <ele>3664.199951171875</ele>
        <time>2023-07-29T14:10:58.000Z</time>
        <extensions>
          <ns3:TrackPointExtension>
            <ns3:hr>113</ns3:hr>
            <ns3:cad>0</ns3:cad>
          </ns3:TrackPointExtension>
        </extensions>
      </trkpt>
      <trkpt lat="37.7635650336742401123046875" lon="-107.709524072706699371337890625">
        <ele>3664.60009765625</ele>
        <time>2023-07-29T14:10:59.000Z</time>
        <extensions>
          <ns3:TrackPointExtension>
            <ns3:hr>113</ns3:hr>
            <ns3:cad>0</ns3:cad>
          </ns3:TrackPointExtension>
        </extensions>
      </trkpt>
      <trkpt lat="37.76357132010161876678466796875" lon="-107.70952382124960422515869140625">
        <ele>3664.800048828125</ele>
        <time>2023-07-29T14:11:00.000Z</time>
        <extensions>
          <ns3:TrackPointExtension>
            <ns3:hr>114</ns3:hr>
            <ns3:cad>0</ns3:cad>
          </ns3:TrackPointExtension>
        </extensions>
      </trkpt>
      <trkpt lat="37.76357752270996570587158203125" lon="-107.70952365361154079437255859375">
        <ele>3665</ele>
        <time>2023-07-29T14:11:01.000Z</time>
        <extensions>
          <ns3:TrackPointExtension>
            <ns3:hr>114</ns3:hr>
            <ns3:cad>0</ns3:cad>
          </ns3:TrackPointExtension>
        </extensions>
      </trkpt>
      <trkpt lat="37.76358473114669322967529296875" lon="-107.7095245756208896636962890625">
        <ele>3665.199951171875</ele>
        <time>2023-07-29T14:11:02.000Z</time>
        <extensions>
          <ns3:TrackPointExtension>
            <ns3:hr>115</ns3:hr>
            <ns3:cad>0</ns3:cad>
          </ns3:TrackPointExtension>
        </extensions>
      </trkpt>
      <trkpt lat="37.7635891735553741455078125" lon="-107.709523737430572509765625">
        <ele>3665.39990234375</ele>
        <time>2023-07-29T14:11:03.000Z</time>
        <extensions>
          <ns3:TrackPointExtension>
            <ns3:hr>115</ns3:hr>
            <ns3:cad>0</ns3:cad>
          </ns3:TrackPointExtension>
        </extensions>
      </trkpt>
      <trkpt lat="37.76358984410762786865234375" lon="-107.70952415652573108673095703125">
        <ele>3665.39990234375</ele>
        <time>2023-07-29T14:11:04.000Z</time>
        <extensions>
          <ns3:TrackPointExtension>
            <ns3:hr>115</ns3:hr>
            <ns3:cad>0</ns3:cad>
          </ns3:TrackPointExtension>
        </extensions>
      </trkpt>
      <trkpt lat="37.763592191040515899658203125" lon="-107.7095249108970165252685546875">
        <ele>3665.60009765625</ele>
        <time>2023-07-29T14:11:05.000Z</time>
        <extensions>
          <ns3:TrackPointExtension>
            <ns3:hr>114</ns3:hr>
            <ns3:cad>0</ns3:cad>
          </ns3:TrackPointExtension>
        </extensions>
      </trkpt>
      <trkpt lat="37.7635945379734039306640625" lon="-107.70952834747731685638427734375">
        <ele>3665.800048828125</ele>
        <time>2023-07-29T14:11:06.000Z</time>
        <extensions>
          <ns3:TrackPointExtension>
            <ns3:hr>114</ns3:hr>
            <ns3:cad>0</ns3:cad>
          </ns3:TrackPointExtension>
        </extensions>
      </trkpt>
      <trkpt lat="37.7635957114398479461669921875" lon="-107.70952784456312656402587890625">
        <ele>3665.800048828125</ele>
        <time>2023-07-29T14:11:07.000Z</time>
        <extensions>
          <ns3:TrackPointExtension>
            <ns3:hr>115</ns3:hr>
            <ns3:cad>0</ns3:cad>
          </ns3:TrackPointExtension>
        </extensions>
      </trkpt>
      <trkpt lat="37.763602249324321746826171875" lon="-107.70952667109668254852294921875">
        <ele>3666</ele>
        <time>2023-07-29T14:11:08.000Z</time>
        <extensions>
          <ns3:TrackPointExtension>
            <ns3:hr>115</ns3:hr>
            <ns3:cad>0</ns3:cad>
          </ns3:TrackPointExtension>
        </extensions>
      </trkpt>
      <trkpt lat="37.7636040933430194854736328125" lon="-107.70952600054442882537841796875">
        <ele>3666.39990234375</ele>
        <time>2023-07-29T14:11:09.000Z</time>
        <extensions>
          <ns3:TrackPointExtension>
            <ns3:hr>115</ns3:hr>
            <ns3:cad>0</ns3:cad>
          </ns3:TrackPointExtension>
        </extensions>
      </trkpt>
      <trkpt lat="37.76360652409493923187255859375" lon="-107.7095262520015239715576171875">
        <ele>3666.60009765625</ele>
        <time>2023-07-29T14:11:10.000Z</time>
        <extensions>
          <ns3:TrackPointExtension>
            <ns3:hr>116</ns3:hr>
            <ns3:cad>0</ns3:cad>
          </ns3:TrackPointExtension>
        </extensions>
      </trkpt>
      <trkpt lat="37.763612307608127593994140625" lon="-107.7095272578299045562744140625">
        <ele>3666.60009765625</ele>
        <time>2023-07-29T14:11:11.000Z</time>
        <extensions>
          <ns3:TrackPointExtension>
            <ns3:hr>116</ns3:hr>
            <ns3:cad>67</ns3:cad>
          </ns3:TrackPointExtension>
        </extensions>
      </trkpt>
      <trkpt lat="37.76362177915871143341064453125" lon="-107.7095262520015239715576171875">
        <ele>3666.800048828125</ele>
        <time>2023-07-29T14:11:12.000Z</time>
        <extensions>
          <ns3:TrackPointExtension>
            <ns3:hr>116</ns3:hr>
            <ns3:cad>67</ns3:cad>
          </ns3:TrackPointExtension>
        </extensions>
      </trkpt>
      <trkpt lat="37.763627730309963226318359375" lon="-107.70952097140252590179443359375">
        <ele>3666.800048828125</ele>
        <time>2023-07-29T14:11:13.000Z</time>
        <extensions>
          <ns3:TrackPointExtension>
            <ns3:hr>116</ns3:hr>
            <ns3:cad>67</ns3:cad>
          </ns3:TrackPointExtension>
        </extensions>
      </trkpt>
      <trkpt lat="37.763630412518978118896484375" lon="-107.709516026079654693603515625">
        <ele>3667</ele>
        <time>2023-07-29T14:11:14.000Z</time>
        <extensions>
          <ns3:TrackPointExtension>
            <ns3:hr>116</ns3:hr>
            <ns3:cad>0</ns3:cad>
          </ns3:TrackPointExtension>
        </extensions>
      </trkpt>
      <trkpt lat="37.76363502256572246551513671875" lon="-107.709513343870639801025390625">
        <ele>3667</ele>
        <time>2023-07-29T14:11:15.000Z</time>
        <extensions>
          <ns3:TrackPointExtension>
            <ns3:hr>116</ns3:hr>
            <ns3:cad>0</ns3:cad>
          </ns3:TrackPointExtension>
        </extensions>
      </trkpt>
      <trkpt lat="37.76363653130829334259033203125" lon="-107.70950454287230968475341796875">
        <ele>3667.199951171875</ele>
        <time>2023-07-29T14:11:16.000Z</time>
        <extensions>
          <ns3:TrackPointExtension>
            <ns3:hr>116</ns3:hr>
            <ns3:cad>0</ns3:cad>
          </ns3:TrackPointExtension>
        </extensions>
      </trkpt>
      <trkpt lat="37.763636447489261627197265625" lon="-107.709489874541759490966796875">
        <ele>3667.199951171875</ele>
        <time>2023-07-29T14:11:17.000Z</time>
        <extensions>
          <ns3:TrackPointExtension>
            <ns3:hr>116</ns3:hr>
            <ns3:cad>0</ns3:cad>
          </ns3:TrackPointExtension>
        </extensions>
      </trkpt>
      <trkpt lat="37.7636428177356719970703125" lon="-107.70948886871337890625">
        <ele>3667.199951171875</ele>
        <time>2023-07-29T14:11:18.000Z</time>
        <extensions>
          <ns3:TrackPointExtension>
            <ns3:hr>116</ns3:hr>
            <ns3:cad>0</ns3:cad>
          </ns3:TrackPointExtension>
        </extensions>
      </trkpt>
      <trkpt lat="37.76364692486822605133056640625" lon="-107.709485180675983428955078125">
        <ele>3667.39990234375</ele>
        <time>2023-07-29T14:11:19.000Z</time>
        <extensions>
          <ns3:TrackPointExtension>
            <ns3:hr>116</ns3:hr>
            <ns3:cad>0</ns3:cad>
          </ns3:TrackPointExtension>
        </extensions>
      </trkpt>
      <trkpt lat="37.76365564204752445220947265625" lon="-107.70948124118149280548095703125">
        <ele>3667.39990234375</ele>
        <time>2023-07-29T14:11:20.000Z</time>
        <extensions>
          <ns3:TrackPointExtension>
            <ns3:hr>116</ns3:hr>
            <ns3:cad>0</ns3:cad>
          </ns3:TrackPointExtension>
        </extensions>
      </trkpt>
      <trkpt lat="37.7636614255607128143310546875" lon="-107.7094823308289051055908203125">
        <ele>3667.39990234375</ele>
        <time>2023-07-29T14:11:21.000Z</time>
        <extensions>
          <ns3:TrackPointExtension>
            <ns3:hr>116</ns3:hr>
            <ns3:cad>0</ns3:cad>
          </ns3:TrackPointExtension>
        </extensions>
      </trkpt>
      <trkpt lat="37.7636667899787425994873046875" lon="-107.70948149263858795166015625">
        <ele>3667.60009765625</ele>
        <time>2023-07-29T14:11:22.000Z</time>
        <extensions>
          <ns3:TrackPointExtension>
            <ns3:hr>116</ns3:hr>
            <ns3:cad>0</ns3:cad>
          </ns3:TrackPointExtension>
        </extensions>
      </trkpt>
      <trkpt lat="37.763673998415470123291015625" lon="-107.7094819955527782440185546875">
        <ele>3667.800048828125</ele>
        <time>2023-07-29T14:11:23.000Z</time>
        <extensions>
          <ns3:TrackPointExtension>
            <ns3:hr>115</ns3:hr>
            <ns3:cad>0</ns3:cad>
          </ns3:TrackPointExtension>
        </extensions>
      </trkpt>
      <trkpt lat="37.76368062011897563934326171875" lon="-107.709485180675983428955078125">
        <ele>3667.800048828125</ele>
        <time>2023-07-29T14:11:24.000Z</time>
        <extensions>
          <ns3:TrackPointExtension>
            <ns3:hr>114</ns3:hr>
            <ns3:cad>0</ns3:cad>
          </ns3:TrackPointExtension>
        </extensions>
      </trkpt>
      <trkpt lat="37.763687074184417724609375" lon="-107.70948677323758602142333984375">
        <ele>3668</ele>
        <time>2023-07-29T14:11:25.000Z</time>
        <extensions>
          <ns3:TrackPointExtension>
            <ns3:hr>114</ns3:hr>
            <ns3:cad>0</ns3:cad>
          </ns3:TrackPointExtension>
        </extensions>
      </trkpt>
      <trkpt lat="37.76369503699243068695068359375" lon="-107.7094890363514423370361328125">
        <ele>3668</ele>
        <time>2023-07-29T14:11:26.000Z</time>
        <extensions>
          <ns3:TrackPointExtension>
            <ns3:hr>114</ns3:hr>
            <ns3:cad>0</ns3:cad>
          </ns3:TrackPointExtension>
        </extensions>
      </trkpt>
      <trkpt lat="37.76370140723884105682373046875" lon="-107.7094913832843303680419921875">
        <ele>3668.39990234375</ele>
        <time>2023-07-29T14:11:27.000Z</time>
        <extensions>
          <ns3:TrackPointExtension>
            <ns3:hr>114</ns3:hr>
            <ns3:cad>0</ns3:cad>
          </ns3:TrackPointExtension>
        </extensions>
      </trkpt>
      <trkpt lat="37.76370249688625335693359375" lon="-107.709491215646266937255859375">
        <ele>3668.60009765625</ele>
        <time>2023-07-29T14:11:28.000Z</time>
        <extensions>
          <ns3:TrackPointExtension>
            <ns3:hr>114</ns3:hr>
            <ns3:cad>0</ns3:cad>
          </ns3:TrackPointExtension>
        </extensions>
      </trkpt>
      <trkpt lat="37.763708531856536865234375" lon="-107.70949280820786952972412109375">
        <ele>3668.800048828125</ele>
        <time>2023-07-29T14:11:29.000Z</time>
        <extensions>
          <ns3:TrackPointExtension>
            <ns3:hr>114</ns3:hr>
            <ns3:cad>0</ns3:cad>
          </ns3:TrackPointExtension>
        </extensions>
      </trkpt>
      <trkpt lat="37.7637157402932643890380859375" lon="-107.70949213765561580657958984375">
        <ele>3669</ele>
        <time>2023-07-29T14:11:30.000Z</time>
        <extensions>
          <ns3:TrackPointExtension>
            <ns3:hr>113</ns3:hr>
            <ns3:cad>0</ns3:cad>
          </ns3:TrackPointExtension>
        </extensions>
      </trkpt>
      <trkpt lat="37.76372387073934078216552734375" lon="-107.709491550922393798828125">
        <ele>3669</ele>
        <time>2023-07-29T14:11:31.000Z</time>
        <extensions>
          <ns3:TrackPointExtension>
            <ns3:hr>113</ns3:hr>
            <ns3:cad>0</ns3:cad>
          </ns3:TrackPointExtension>
        </extensions>
      </trkpt>
      <trkpt lat="37.763729654252529144287109375" lon="-107.70949230529367923736572265625">
        <ele>3669.199951171875</ele>
        <time>2023-07-29T14:11:32.000Z</time>
        <extensions>
          <ns3:TrackPointExtension>
            <ns3:hr>114</ns3:hr>
            <ns3:cad>0</ns3:cad>
          </ns3:TrackPointExtension>
        </extensions>
      </trkpt>
      <trkpt lat="37.76374264620244503021240234375" lon="-107.70949096418917179107666015625">
        <ele>3669.39990234375</ele>
        <time>2023-07-29T14:11:33.000Z</time>
        <extensions>
          <ns3:TrackPointExtension>
            <ns3:hr>113</ns3:hr>
            <ns3:cad>0</ns3:cad>
          </ns3:TrackPointExtension>
        </extensions>
      </trkpt>
      <trkpt lat="37.76374700479209423065185546875" lon="-107.709489203989505767822265625">
        <ele>3669.800048828125</ele>
        <time>2023-07-29T14:11:34.000Z</time>
        <extensions>
          <ns3:TrackPointExtension>
            <ns3:hr>113</ns3:hr>
            <ns3:cad>0</ns3:cad>
          </ns3:TrackPointExtension>
        </extensions>
      </trkpt>
      <trkpt lat="37.76374583132565021514892578125" lon="-107.70948559977114200592041015625">
        <ele>3669.800048828125</ele>
        <time>2023-07-29T14:11:35.000Z</time>
        <extensions>
          <ns3:TrackPointExtension>
            <ns3:hr>112</ns3:hr>
            <ns3:cad>0</ns3:cad>
          </ns3:TrackPointExtension>
        </extensions>
      </trkpt>
      <trkpt lat="37.763749770820140838623046875" lon="-107.70948350429534912109375">
        <ele>3669.800048828125</ele>
        <time>2023-07-29T14:11:36.000Z</time>
        <extensions>
          <ns3:TrackPointExtension>
            <ns3:hr>112</ns3:hr>
            <ns3:cad>0</ns3:cad>
          </ns3:TrackPointExtension>
        </extensions>
      </trkpt>
      <trkpt lat="37.76374817825853824615478515625" lon="-107.70948417484760284423828125">
        <ele>3670</ele>
        <time>2023-07-29T14:11:37.000Z</time>
        <extensions>
          <ns3:TrackPointExtension>
            <ns3:hr>112</ns3:hr>
            <ns3:cad>0</ns3:cad>
          </ns3:TrackPointExtension>
        </extensions>
      </trkpt>
      <trkpt lat="37.76374951936304569244384765625" lon="-107.70948610268533229827880859375">
        <ele>3670.199951171875</ele>
        <time>2023-07-29T14:11:38.000Z</time>
        <extensions>
          <ns3:TrackPointExtension>
            <ns3:hr>112</ns3:hr>
            <ns3:cad>0</ns3:cad>
          </ns3:TrackPointExtension>
        </extensions>
      </trkpt>
      <trkpt lat="37.76374951936304569244384765625" lon="-107.70948828198015689849853515625">
        <ele>3670.39990234375</ele>
        <time>2023-07-29T14:11:39.000Z</time>
        <extensions>
          <ns3:TrackPointExtension>
            <ns3:hr>112</ns3:hr>
            <ns3:cad>0</ns3:cad>
          </ns3:TrackPointExtension>
        </extensions>
      </trkpt>
      <trkpt lat="37.76375639252364635467529296875" lon="-107.70948777906596660614013671875">
        <ele>3670.60009765625</ele>
        <time>2023-07-29T14:11:40.000Z</time>
        <extensions>
          <ns3:TrackPointExtension>
            <ns3:hr>113</ns3:hr>
            <ns3:cad>0</ns3:cad>
          </ns3:TrackPointExtension>
        </extensions>
      </trkpt>
      <trkpt lat="37.7637635171413421630859375" lon="-107.70948677323758602142333984375">
        <ele>3671</ele>
        <time>2023-07-29T14:11:41.000Z</time>
        <extensions>
          <ns3:TrackPointExtension>
            <ns3:hr>113</ns3:hr>
            <ns3:cad>0</ns3:cad>
          </ns3:TrackPointExtension>
        </extensions>
      </trkpt>
      <trkpt lat="37.7637717314064502716064453125" lon="-107.709480822086334228515625">
        <ele>3671</ele>
        <time>2023-07-29T14:11:42.000Z</time>
        <extensions>
          <ns3:TrackPointExtension>
            <ns3:hr>113</ns3:hr>
            <ns3:cad>0</ns3:cad>
          </ns3:TrackPointExtension>
        </extensions>
      </trkpt>
      <trkpt lat="37.76377500034868717193603515625" lon="-107.70947990007698535919189453125">
        <ele>3671.199951171875</ele>
        <time>2023-07-29T14:11:43.000Z</time>
        <extensions>
          <ns3:TrackPointExtension>
            <ns3:hr>113</ns3:hr>
            <ns3:cad>0</ns3:cad>
          </ns3:TrackPointExtension>
        </extensions>
      </trkpt>
      <trkpt lat="37.76378036476671695709228515625" lon="-107.70947587676346302032470703125">
        <ele>3671.39990234375</ele>
        <time>2023-07-29T14:11:44.000Z</time>
        <extensions>
          <ns3:TrackPointExtension>
            <ns3:hr>113</ns3:hr>
            <ns3:cad>0</ns3:cad>
          </ns3:TrackPointExtension>
        </extensions>
      </trkpt>
      <trkpt lat="37.76378832757472991943359375" lon="-107.709471099078655242919921875">
        <ele>3671.60009765625</ele>
        <time>2023-07-29T14:11:45.000Z</time>
        <extensions>
          <ns3:TrackPointExtension>
            <ns3:hr>113</ns3:hr>
            <ns3:cad>0</ns3:cad>
          </ns3:TrackPointExtension>
        </extensions>
      </trkpt>
      <trkpt lat="37.76379444636404514312744140625" lon="-107.7094665728509426116943359375">
        <ele>3671.800048828125</ele>
        <time>2023-07-29T14:11:46.000Z</time>
        <extensions>
          <ns3:TrackPointExtension>
            <ns3:hr>113</ns3:hr>
            <ns3:cad>0</ns3:cad>
          </ns3:TrackPointExtension>
        </extensions>
      </trkpt>
      <trkpt lat="37.763799391686916351318359375" lon="-107.70945777185261249542236328125">
        <ele>3671.800048828125</ele>
        <time>2023-07-29T14:11:47.000Z</time>
        <extensions>
          <ns3:TrackPointExtension>
            <ns3:hr>113</ns3:hr>
            <ns3:cad>0</ns3:cad>
          </ns3:TrackPointExtension>
        </extensions>
      </trkpt>
      <trkpt lat="37.76380467228591442108154296875" lon="-107.709451653063297271728515625">
        <ele>3671.800048828125</ele>
        <time>2023-07-29T14:11:48.000Z</time>
        <extensions>
          <ns3:TrackPointExtension>
            <ns3:hr>113</ns3:hr>
            <ns3:cad>0</ns3:cad>
          </ns3:TrackPointExtension>
        </extensions>
      </trkpt>
      <trkpt lat="37.76381238363683223724365234375" lon="-107.70944486372172832489013671875">
        <ele>3672</ele>
        <time>2023-07-29T14:11:49.000Z</time>
        <extensions>
          <ns3:TrackPointExtension>
            <ns3:hr>113</ns3:hr>
            <ns3:cad>0</ns3:cad>
          </ns3:TrackPointExtension>
        </extensions>
      </trkpt>
      <trkpt lat="37.76382462121546268463134765625" lon="-107.70943514071404933929443359375">
        <ele>3672.199951171875</ele>
        <time>2023-07-29T14:11:50.000Z</time>
        <extensions>
          <ns3:TrackPointExtension>
            <ns3:hr>113</ns3:hr>
            <ns3:cad>0</ns3:cad>
          </ns3:TrackPointExtension>
        </extensions>
      </trkpt>
      <trkpt lat="37.76382914744317531585693359375" lon="-107.70943094976246356964111328125">
        <ele>3672.60009765625</ele>
        <time>2023-07-29T14:11:51.000Z</time>
        <extensions>
          <ns3:TrackPointExtension>
            <ns3:hr>113</ns3:hr>
            <ns3:cad>0</ns3:cad>
          </ns3:TrackPointExtension>
        </extensions>
      </trkpt>
      <trkpt lat="37.76383300311863422393798828125" lon="-107.70942692644894123077392578125">
        <ele>3672.800048828125</ele>
        <time>2023-07-29T14:11:52.000Z</time>
        <extensions>
          <ns3:TrackPointExtension>
            <ns3:hr>113</ns3:hr>
            <ns3:cad>0</ns3:cad>
          </ns3:TrackPointExtension>
        </extensions>
      </trkpt>
      <trkpt lat="37.7638387866318225860595703125" lon="-107.70942340604960918426513671875">
        <ele>3672.800048828125</ele>
        <time>2023-07-29T14:11:53.000Z</time>
        <extensions>
          <ns3:TrackPointExtension>
            <ns3:hr>113</ns3:hr>
            <ns3:cad>0</ns3:cad>
          </ns3:TrackPointExtension>
        </extensions>
      </trkpt>
      <trkpt lat="37.763841636478900909423828125" lon="-107.70942105911672115325927734375">
        <ele>3673</ele>
        <time>2023-07-29T14:11:54.000Z</time>
        <extensions>
          <ns3:TrackPointExtension>
            <ns3:hr>113</ns3:hr>
            <ns3:cad>0</ns3:cad>
          </ns3:TrackPointExtension>
        </extensions>
      </trkpt>
      <trkpt lat="37.76384741999208927154541015625" lon="-107.709416784346103668212890625">
        <ele>3673</ele>
        <time>2023-07-29T14:11:55.000Z</time>
        <extensions>
          <ns3:TrackPointExtension>
            <ns3:hr>114</ns3:hr>
            <ns3:cad>0</ns3:cad>
          </ns3:TrackPointExtension>
        </extensions>
      </trkpt>
      <trkpt lat="37.7638515271246433258056640625" lon="-107.709412761032581329345703125">
        <ele>3673.199951171875</ele>
        <time>2023-07-29T14:11:56.000Z</time>
        <extensions>
          <ns3:TrackPointExtension>
            <ns3:hr>114</ns3:hr>
            <ns3:cad>0</ns3:cad>
          </ns3:TrackPointExtension>
        </extensions>
      </trkpt>
      <trkpt lat="37.76385496370494365692138671875" lon="-107.70941485650837421417236328125">
        <ele>3673.39990234375</ele>
        <time>2023-07-29T14:11:57.000Z</time>
        <extensions>
          <ns3:TrackPointExtension>
            <ns3:hr>113</ns3:hr>
            <ns3:cad>0</ns3:cad>
          </ns3:TrackPointExtension>
        </extensions>
      </trkpt>
      <trkpt lat="37.76386477053165435791015625" lon="-107.70940915681421756744384765625">
        <ele>3673.39990234375</ele>
        <time>2023-07-29T14:11:58.000Z</time>
        <extensions>
          <ns3:TrackPointExtension>
            <ns3:hr>113</ns3:hr>
            <ns3:cad>0</ns3:cad>
          </ns3:TrackPointExtension>
        </extensions>
      </trkpt>
      <trkpt lat="37.76386602781713008880615234375" lon="-107.70941049791872501373291015625">
        <ele>3673.60009765625</ele>
        <time>2023-07-29T14:11:59.000Z</time>
        <extensions>
          <ns3:TrackPointExtension>
            <ns3:hr>113</ns3:hr>
            <ns3:cad>0</ns3:cad>
          </ns3:TrackPointExtension>
        </extensions>
      </trkpt>
      <trkpt lat="37.76386703364551067352294921875" lon="-107.709407396614551544189453125">
        <ele>3673.800048828125</ele>
        <time>2023-07-29T14:12:00.000Z</time>
        <extensions>
          <ns3:TrackPointExtension>
            <ns3:hr>113</ns3:hr>
            <ns3:cad>0</ns3:cad>
          </ns3:TrackPointExtension>
        </extensions>
      </trkpt>
      <trkpt lat="37.76387021876871585845947265625" lon="-107.70940328948199748992919921875">
        <ele>3673.800048828125</ele>
        <time>2023-07-29T14:12:01.000Z</time>
        <extensions>
          <ns3:TrackPointExtension>
            <ns3:hr>113</ns3:hr>
            <ns3:cad>0</ns3:cad>
          </ns3:TrackPointExtension>
        </extensions>
      </trkpt>
      <trkpt lat="37.763871140778064727783203125" lon="-107.7094016969203948974609375">
        <ele>3674.199951171875</ele>
        <time>2023-07-29T14:12:02.000Z</time>
        <extensions>
          <ns3:TrackPointExtension>
            <ns3:hr>114</ns3:hr>
            <ns3:cad>0</ns3:cad>
          </ns3:TrackPointExtension>
        </extensions>
      </trkpt>
      <trkpt lat="37.763873152434825897216796875" lon="-107.70939893089234828948974609375">
        <ele>3674.39990234375</ele>
        <time>2023-07-29T14:12:03.000Z</time>
        <extensions>
          <ns3:TrackPointExtension>
            <ns3:hr>114</ns3:hr>
            <ns3:cad>0</ns3:cad>
          </ns3:TrackPointExtension>
        </extensions>
      </trkpt>
      <trkpt lat="37.763872481882572174072265625" lon="-107.70939473994076251983642578125">
        <ele>3674.800048828125</ele>
        <time>2023-07-29T14:12:04.000Z</time>
        <extensions>
          <ns3:TrackPointExtension>
            <ns3:hr>113</ns3:hr>
            <ns3:cad>0</ns3:cad>
          </ns3:TrackPointExtension>
        </extensions>
      </trkpt>
      <trkpt lat="37.7638761699199676513671875" lon="-107.70939373411238193511962890625">
        <ele>3674.800048828125</ele>
        <time>2023-07-29T14:12:05.000Z</time>
        <extensions>
          <ns3:TrackPointExtension>
            <ns3:hr>113</ns3:hr>
            <ns3:cad>0</ns3:cad>
          </ns3:TrackPointExtension>
        </extensions>
      </trkpt>
      <trkpt lat="37.76387818157672882080078125" lon="-107.7093921415507793426513671875">
        <ele>3675</ele>
        <time>2023-07-29T14:12:06.000Z</time>
        <extensions>
          <ns3:TrackPointExtension>
            <ns3:hr>113</ns3:hr>
            <ns3:cad>0</ns3:cad>
          </ns3:TrackPointExtension>
        </extensions>
      </trkpt>
      <trkpt lat="37.76387751102447509765625" lon="-107.70938803441822528839111328125">
        <ele>3675</ele>
        <time>2023-07-29T14:12:07.000Z</time>
        <extensions>
          <ns3:TrackPointExtension>
            <ns3:hr>113</ns3:hr>
            <ns3:cad>0</ns3:cad>
          </ns3:TrackPointExtension>
        </extensions>
      </trkpt>
      <trkpt lat="37.76388212107121944427490234375" lon="-107.70938686095178127288818359375">
        <ele>3675.199951171875</ele>
        <time>2023-07-29T14:12:08.000Z</time>
        <extensions>
          <ns3:TrackPointExtension>
            <ns3:hr>113</ns3:hr>
            <ns3:cad>0</ns3:cad>
          </ns3:TrackPointExtension>
        </extensions>
      </trkpt>
      <trkpt lat="37.76388396508991718292236328125" lon="-107.70938627421855926513671875">
        <ele>3675.199951171875</ele>
        <time>2023-07-29T14:12:09.000Z</time>
        <extensions>
          <ns3:TrackPointExtension>
            <ns3:hr>113</ns3:hr>
            <ns3:cad>0</ns3:cad>
          </ns3:TrackPointExtension>
        </extensions>
      </trkpt>
      <trkpt lat="37.76388262398540973663330078125" lon="-107.709391303360462188720703125">
        <ele>3675.60009765625</ele>
        <time>2023-07-29T14:12:10.000Z</time>
        <extensions>
          <ns3:TrackPointExtension>
            <ns3:hr>113</ns3:hr>
            <ns3:cad>0</ns3:cad>
          </ns3:TrackPointExtension>
        </extensions>
      </trkpt>
      <trkpt lat="37.763883881270885467529296875" lon="-107.7093918062746524810791015625">
        <ele>3675.60009765625</ele>
        <time>2023-07-29T14:12:11.000Z</time>
        <extensions>
          <ns3:TrackPointExtension>
            <ns3:hr>113</ns3:hr>
            <ns3:cad>0</ns3:cad>
          </ns3:TrackPointExtension>
        </extensions>
      </trkpt>
      <trkpt lat="37.7638867311179637908935546875" lon="-107.70939038135111331939697265625">
        <ele>3675.800048828125</ele>
        <time>2023-07-29T14:12:12.000Z</time>
        <extensions>
          <ns3:TrackPointExtension>
            <ns3:hr>113</ns3:hr>
            <ns3:cad>0</ns3:cad>
          </ns3:TrackPointExtension>
        </extensions>
      </trkpt>
      <trkpt lat="37.7638914249837398529052734375" lon="-107.70938971079885959625244140625">
        <ele>3676</ele>
        <time>2023-07-29T14:12:13.000Z</time>
        <extensions>
          <ns3:TrackPointExtension>
            <ns3:hr>113</ns3:hr>
            <ns3:cad>0</ns3:cad>
          </ns3:TrackPointExtension>
        </extensions>
      </trkpt>
      <trkpt lat="37.76389720849692821502685546875" lon="-107.709385268390178680419921875">
        <ele>3676.199951171875</ele>
        <time>2023-07-29T14:12:14.000Z</time>
        <extensions>
          <ns3:TrackPointExtension>
            <ns3:hr>113</ns3:hr>
            <ns3:cad>0</ns3:cad>
          </ns3:TrackPointExtension>
        </extensions>
      </trkpt>
      <trkpt lat="37.7638984657824039459228515625" lon="-107.709388621151447296142578125">
        <ele>3676.39990234375</ele>
        <time>2023-07-29T14:12:15.000Z</time>
        <extensions>
          <ns3:TrackPointExtension>
            <ns3:hr>113</ns3:hr>
            <ns3:cad>0</ns3:cad>
          </ns3:TrackPointExtension>
        </extensions>
      </trkpt>
      <trkpt lat="37.7639014832675457000732421875" lon="-107.709388621151447296142578125">
        <ele>3676.39990234375</ele>
        <time>2023-07-29T14:12:16.000Z</time>
        <extensions>
          <ns3:TrackPointExtension>
            <ns3:hr>113</ns3:hr>
            <ns3:cad>0</ns3:cad>
          </ns3:TrackPointExtension>
        </extensions>
      </trkpt>
      <trkpt lat="37.7639004774391651153564453125" lon="-107.70939071662724018096923828125">
        <ele>3676.39990234375</ele>
        <time>2023-07-29T14:12:17.000Z</time>
        <extensions>
          <ns3:TrackPointExtension>
            <ns3:hr>113</ns3:hr>
            <ns3:cad>0</ns3:cad>
          </ns3:TrackPointExtension>
        </extensions>
      </trkpt>
      <trkpt lat="37.7639011479914188385009765625" lon="-107.7093936502933502197265625">
        <ele>3676.39990234375</ele>
        <time>2023-07-29T14:12:18.000Z</time>
        <extensions>
          <ns3:TrackPointExtension>
            <ns3:hr>113</ns3:hr>
            <ns3:cad>0</ns3:cad>
          </ns3:TrackPointExtension>
        </extensions>
      </trkpt>
      <trkpt lat="37.76390642859041690826416015625" lon="-107.7093914709985256195068359375">
        <ele>3676.60009765625</ele>
        <time>2023-07-29T14:12:19.000Z</time>
        <extensions>
          <ns3:TrackPointExtension>
            <ns3:hr>113</ns3:hr>
            <ns3:cad>0</ns3:cad>
          </ns3:TrackPointExtension>
        </extensions>
      </trkpt>
      <trkpt lat="37.7639118768274784088134765625" lon="-107.709389291703701019287109375">
        <ele>3676.800048828125</ele>
        <time>2023-07-29T14:12:20.000Z</time>
        <extensions>
          <ns3:TrackPointExtension>
            <ns3:hr>112</ns3:hr>
            <ns3:cad>0</ns3:cad>
          </ns3:TrackPointExtension>
        </extensions>
      </trkpt>
      <trkpt lat="37.76391648687422275543212890625" lon="-107.70938652567565441131591796875">
        <ele>3676.800048828125</ele>
        <time>2023-07-29T14:12:21.000Z</time>
        <extensions>
          <ns3:TrackPointExtension>
            <ns3:hr>112</ns3:hr>
            <ns3:cad>0</ns3:cad>
          </ns3:TrackPointExtension>
        </extensions>
      </trkpt>
      <trkpt lat="37.76392285712063312530517578125" lon="-107.70938350819051265716552734375">
        <ele>3677.199951171875</ele>
        <time>2023-07-29T14:12:22.000Z</time>
        <extensions>
          <ns3:TrackPointExtension>
            <ns3:hr>111</ns3:hr>
            <ns3:cad>56</ns3:cad>
          </ns3:TrackPointExtension>
        </extensions>
      </trkpt>
      <trkpt lat="37.7639172412455081939697265625" lon="-107.7093770541250705718994140625">
        <ele>3677.39990234375</ele>
        <time>2023-07-29T14:12:23.000Z</time>
        <extensions>
          <ns3:TrackPointExtension>
            <ns3:hr>111</ns3:hr>
            <ns3:cad>56</ns3:cad>
          </ns3:TrackPointExtension>
        </extensions>
      </trkpt>
      <trkpt lat="37.76391380466520786285400390625" lon="-107.70937277935445308685302734375">
        <ele>3677.39990234375</ele>
        <time>2023-07-29T14:12:24.000Z</time>
        <extensions>
          <ns3:TrackPointExtension>
            <ns3:hr>111</ns3:hr>
            <ns3:cad>0</ns3:cad>
          </ns3:TrackPointExtension>
        </extensions>
      </trkpt>
      <trkpt lat="37.763914726674556732177734375" lon="-107.709368504583835601806640625">
        <ele>3677.60009765625</ele>
        <time>2023-07-29T14:12:25.000Z</time>
        <extensions>
          <ns3:TrackPointExtension>
            <ns3:hr>111</ns3:hr>
            <ns3:cad>0</ns3:cad>
          </ns3:TrackPointExtension>
        </extensions>
      </trkpt>
      <trkpt lat="37.7639169059693813323974609375" lon="-107.7093633078038692474365234375">
        <ele>3678</ele>
        <time>2023-07-29T14:12:26.000Z</time>
        <extensions>
          <ns3:TrackPointExtension>
            <ns3:hr>112</ns3:hr>
            <ns3:cad>0</ns3:cad>
          </ns3:TrackPointExtension>
        </extensions>
      </trkpt>
      <trkpt lat="37.76392218656837940216064453125" lon="-107.70935635082423686981201171875">
        <ele>3678</ele>
        <time>2023-07-29T14:12:27.000Z</time>
        <extensions>
          <ns3:TrackPointExtension>
            <ns3:hr>112</ns3:hr>
            <ns3:cad>0</ns3:cad>
          </ns3:TrackPointExtension>
        </extensions>
      </trkpt>
      <trkpt lat="37.763927467167377471923828125" lon="-107.7093525789678096771240234375">
        <ele>3678.199951171875</ele>
        <time>2023-07-29T14:12:28.000Z</time>
        <extensions>
          <ns3:TrackPointExtension>
            <ns3:hr>112</ns3:hr>
            <ns3:cad>0</ns3:cad>
          </ns3:TrackPointExtension>
        </extensions>
      </trkpt>
      <trkpt lat="37.7639309875667095184326171875" lon="-107.7093572728335857391357421875">
        <ele>3678.39990234375</ele>
        <time>2023-07-29T14:12:29.000Z</time>
        <extensions>
          <ns3:TrackPointExtension>
            <ns3:hr>112</ns3:hr>
            <ns3:cad>0</ns3:cad>
          </ns3:TrackPointExtension>
        </extensions>
      </trkpt>
      <trkpt lat="37.76393392123281955718994140625" lon="-107.7093592844903469085693359375">
        <ele>3678.39990234375</ele>
        <time>2023-07-29T14:12:30.000Z</time>
        <extensions>
          <ns3:TrackPointExtension>
            <ns3:hr>112</ns3:hr>
            <ns3:cad>0</ns3:cad>
          </ns3:TrackPointExtension>
        </extensions>
      </trkpt>
      <trkpt lat="37.76392604224383831024169921875" lon="-107.7093448676168918609619140625">
        <ele>3678.60009765625</ele>
        <time>2023-07-29T14:12:31.000Z</time>
        <extensions>
          <ns3:TrackPointExtension>
            <ns3:hr>111</ns3:hr>
            <ns3:cad>0</ns3:cad>
          </ns3:TrackPointExtension>
        </extensions>
      </trkpt>
      <trkpt lat="37.76395202614367008209228515625" lon="-107.70935987122356891632080078125">
        <ele>3678.800048828125</ele>
        <time>2023-07-29T14:12:32.000Z</time>
        <extensions>
          <ns3:TrackPointExtension>
            <ns3:hr>111</ns3:hr>
            <ns3:cad>0</ns3:cad>
          </ns3:TrackPointExtension>
        </extensions>
      </trkpt>
      <trkpt lat="37.76395822875201702117919921875" lon="-107.70935811102390289306640625">
        <ele>3679.199951171875</ele>
        <time>2023-07-29T14:12:33.000Z</time>
        <extensions>
          <ns3:TrackPointExtension>
            <ns3:hr>111</ns3:hr>
            <ns3:cad>60</ns3:cad>
          </ns3:TrackPointExtension>
        </extensions>
      </trkpt>
      <trkpt lat="37.7639621682465076446533203125" lon="-107.709357105195522308349609375">
        <ele>3679.39990234375</ele>
        <time>2023-07-29T14:12:34.000Z</time>
        <extensions>
          <ns3:TrackPointExtension>
            <ns3:hr>111</ns3:hr>
            <ns3:cad>60</ns3:cad>
          </ns3:TrackPointExtension>
        </extensions>
      </trkpt>
      <trkpt lat="37.76396728120744228363037109375" lon="-107.70935081876814365386962890625">
        <ele>3679.39990234375</ele>
        <time>2023-07-29T14:12:35.000Z</time>
        <extensions>
          <ns3:TrackPointExtension>
            <ns3:hr>111</ns3:hr>
            <ns3:cad>0</ns3:cad>
          </ns3:TrackPointExtension>
        </extensions>
      </trkpt>
      <trkpt lat="37.76397407054901123046875" lon="-107.70934679545462131500244140625">
        <ele>3679.39990234375</ele>
        <time>2023-07-29T14:12:36.000Z</time>
        <extensions>
          <ns3:TrackPointExtension>
            <ns3:hr>111</ns3:hr>
            <ns3:cad>0</ns3:cad>
          </ns3:TrackPointExtension>
        </extensions>
      </trkpt>
      <trkpt lat="37.76397499255836009979248046875" lon="-107.7093480527400970458984375">
        <ele>3679.60009765625</ele>
        <time>2023-07-29T14:12:37.000Z</time>
        <extensions>
          <ns3:TrackPointExtension>
            <ns3:hr>111</ns3:hr>
            <ns3:cad>0</ns3:cad>
          </ns3:TrackPointExtension>
        </extensions>
      </trkpt>
      <trkpt lat="37.76397851295769214630126953125" lon="-107.70934763364493846893310546875">
        <ele>3679.60009765625</ele>
        <time>2023-07-29T14:12:38.000Z</time>
        <extensions>
          <ns3:TrackPointExtension>
            <ns3:hr>111</ns3:hr>
            <ns3:cad>0</ns3:cad>
          </ns3:TrackPointExtension>
        </extensions>
      </trkpt>
      <trkpt lat="37.76398253627121448516845703125" lon="-107.70934562198817729949951171875">
        <ele>3679.800048828125</ele>
        <time>2023-07-29T14:12:39.000Z</time>
        <extensions>
          <ns3:TrackPointExtension>
            <ns3:hr>111</ns3:hr>
            <ns3:cad>0</ns3:cad>
          </ns3:TrackPointExtension>
        </extensions>
      </trkpt>
      <trkpt lat="37.7639876492321491241455078125" lon="-107.7093441970646381378173828125">
        <ele>3679.800048828125</ele>
        <time>2023-07-29T14:12:40.000Z</time>
        <extensions>
          <ns3:TrackPointExtension>
            <ns3:hr>111</ns3:hr>
            <ns3:cad>0</ns3:cad>
          </ns3:TrackPointExtension>
        </extensions>
      </trkpt>
      <trkpt lat="37.76399041526019573211669921875" lon="-107.7093431912362575531005859375">
        <ele>3680.199951171875</ele>
        <time>2023-07-29T14:12:41.000Z</time>
        <extensions>
          <ns3:TrackPointExtension>
            <ns3:hr>111</ns3:hr>
            <ns3:cad>0</ns3:cad>
          </ns3:TrackPointExtension>
        </extensions>
      </trkpt>
      <trkpt lat="37.7639941871166229248046875" lon="-107.709339670836925506591796875">
        <ele>3680.39990234375</ele>
        <time>2023-07-29T14:12:42.000Z</time>
        <extensions>
          <ns3:TrackPointExtension>
            <ns3:hr>111</ns3:hr>
            <ns3:cad>0</ns3:cad>
          </ns3:TrackPointExtension>
        </extensions>
      </trkpt>
      <trkpt lat="37.764005251228809356689453125" lon="-107.70933338440954685211181640625">
        <ele>3680.39990234375</ele>
        <time>2023-07-29T14:12:43.000Z</time>
        <extensions>
          <ns3:TrackPointExtension>
            <ns3:hr>111</ns3:hr>
            <ns3:cad>0</ns3:cad>
          </ns3:TrackPointExtension>
        </extensions>
      </trkpt>
      <trkpt lat="37.76401220820844173431396484375" lon="-107.70933221094310283660888671875">
        <ele>3680.60009765625</ele>
        <time>2023-07-29T14:12:44.000Z</time>
        <extensions>
          <ns3:TrackPointExtension>
            <ns3:hr>112</ns3:hr>
            <ns3:cad>0</ns3:cad>
          </ns3:TrackPointExtension>
        </extensions>
      </trkpt>
      <trkpt lat="37.76401874609291553497314453125" lon="-107.7093291096389293670654296875">
        <ele>3680.60009765625</ele>
        <time>2023-07-29T14:12:45.000Z</time>
        <extensions>
          <ns3:TrackPointExtension>
            <ns3:hr>112</ns3:hr>
            <ns3:cad>0</ns3:cad>
          </ns3:TrackPointExtension>
        </extensions>
      </trkpt>
      <trkpt lat="37.7640245296061038970947265625" lon="-107.70932726562023162841796875">
        <ele>3681</ele>
        <time>2023-07-29T14:12:46.000Z</time>
        <extensions>
          <ns3:TrackPointExtension>
            <ns3:hr>113</ns3:hr>
            <ns3:cad>0</ns3:cad>
          </ns3:TrackPointExtension>
        </extensions>
      </trkpt>
      <trkpt lat="37.76402411051094532012939453125" lon="-107.7093277685344219207763671875">
        <ele>3681</ele>
        <time>2023-07-29T14:12:47.000Z</time>
        <extensions>
          <ns3:TrackPointExtension>
            <ns3:hr>113</ns3:hr>
            <ns3:cad>0</ns3:cad>
          </ns3:TrackPointExtension>
        </extensions>
      </trkpt>
      <trkpt lat="37.76402427814900875091552734375" lon="-107.70932835526764392852783203125">
        <ele>3681.199951171875</ele>
        <time>2023-07-29T14:12:48.000Z</time>
        <extensions>
          <ns3:TrackPointExtension>
            <ns3:hr>113</ns3:hr>
            <ns3:cad>0</ns3:cad>
          </ns3:TrackPointExtension>
        </extensions>
      </trkpt>
      <trkpt lat="37.76402377523481845855712890625" lon="-107.70933221094310283660888671875">
        <ele>3681.39990234375</ele>
        <time>2023-07-29T14:12:49.000Z</time>
        <extensions>
          <ns3:TrackPointExtension>
            <ns3:hr>113</ns3:hr>
            <ns3:cad>0</ns3:cad>
          </ns3:TrackPointExtension>
        </extensions>
      </trkpt>
      <trkpt lat="37.764022685587406158447265625" lon="-107.70933958701789379119873046875">
        <ele>3681.60009765625</ele>
        <time>2023-07-29T14:12:50.000Z</time>
        <extensions>
          <ns3:TrackPointExtension>
            <ns3:hr>113</ns3:hr>
            <ns3:cad>0</ns3:cad>
          </ns3:TrackPointExtension>
        </extensions>
      </trkpt>
      <trkpt lat="37.764022350311279296875" lon="-107.70934377796947956085205078125">
        <ele>3681.60009765625</ele>
        <time>2023-07-29T14:12:51.000Z</time>
        <extensions>
          <ns3:TrackPointExtension>
            <ns3:hr>114</ns3:hr>
            <ns3:cad>0</ns3:cad>
          </ns3:TrackPointExtension>
        </extensions>
      </trkpt>
      <trkpt lat="37.7640215121209621429443359375" lon="-107.70935132168233394622802734375">
        <ele>3681.60009765625</ele>
        <time>2023-07-29T14:12:52.000Z</time>
        <extensions>
          <ns3:TrackPointExtension>
            <ns3:hr>114</ns3:hr>
            <ns3:cad>0</ns3:cad>
          </ns3:TrackPointExtension>
        </extensions>
      </trkpt>
      <trkpt lat="37.76401589624583721160888671875" lon="-107.70936322398483753204345703125">
        <ele>3682</ele>
        <time>2023-07-29T14:12:53.000Z</time>
        <extensions>
          <ns3:TrackPointExtension>
            <ns3:hr>115</ns3:hr>
            <ns3:cad>0</ns3:cad>
          </ns3:TrackPointExtension>
        </extensions>
      </trkpt>
      <trkpt lat="37.7640124596655368804931640625" lon="-107.709371857345104217529296875">
        <ele>3682.199951171875</ele>
        <time>2023-07-29T14:12:54.000Z</time>
        <extensions>
          <ns3:TrackPointExtension>
            <ns3:hr>115</ns3:hr>
            <ns3:cad>0</ns3:cad>
          </ns3:TrackPointExtension>
        </extensions>
      </trkpt>
      <trkpt lat="37.76400885544717311859130859375" lon="-107.70937629975378513336181640625">
        <ele>3682.199951171875</ele>
        <time>2023-07-29T14:12:55.000Z</time>
        <extensions>
          <ns3:TrackPointExtension>
            <ns3:hr>117</ns3:hr>
            <ns3:cad>0</ns3:cad>
          </ns3:TrackPointExtension>
        </extensions>
      </trkpt>
      <trkpt lat="37.76400717906653881072998046875" lon="-107.70937210880219936370849609375">
        <ele>3682.39990234375</ele>
        <time>2023-07-29T14:12:56.000Z</time>
        <extensions>
          <ns3:TrackPointExtension>
            <ns3:hr>116</ns3:hr>
            <ns3:cad>0</ns3:cad>
          </ns3:TrackPointExtension>
        </extensions>
      </trkpt>
      <trkpt lat="37.7640047483146190643310546875" lon="-107.7093649841845035552978515625">
        <ele>3682.39990234375</ele>
        <time>2023-07-29T14:12:57.000Z</time>
        <extensions>
          <ns3:TrackPointExtension>
            <ns3:hr>116</ns3:hr>
            <ns3:cad>0</ns3:cad>
          </ns3:TrackPointExtension>
        </extensions>
      </trkpt>
      <trkpt lat="37.764001898467540740966796875" lon="-107.70935769192874431610107421875">
        <ele>3682.39990234375</ele>
        <time>2023-07-29T14:12:58.000Z</time>
        <extensions>
          <ns3:TrackPointExtension>
            <ns3:hr>115</ns3:hr>
            <ns3:cad>0</ns3:cad>
          </ns3:TrackPointExtension>
        </extensions>
      </trkpt>
      <trkpt lat="37.76400181464850902557373046875" lon="-107.7093502320349216461181640625">
        <ele>3682.39990234375</ele>
        <time>2023-07-29T14:12:59.000Z</time>
        <extensions>
          <ns3:TrackPointExtension>
            <ns3:hr>113</ns3:hr>
            <ns3:cad>0</ns3:cad>
          </ns3:TrackPointExtension>
        </extensions>
      </trkpt>
      <trkpt lat="37.7640017308294773101806640625" lon="-107.70933958701789379119873046875">
        <ele>3682.39990234375</ele>
        <time>2023-07-29T14:13:00.000Z</time>
        <extensions>
          <ns3:TrackPointExtension>
            <ns3:hr>111</ns3:hr>
            <ns3:cad>0</ns3:cad>
          </ns3:TrackPointExtension>
        </extensions>
      </trkpt>
      <trkpt lat="37.7640010602772235870361328125" lon="-107.70933338440954685211181640625">
        <ele>3682.39990234375</ele>
        <time>2023-07-29T14:13:01.000Z</time>
        <extensions>
          <ns3:TrackPointExtension>
            <ns3:hr>110</ns3:hr>
            <ns3:cad>0</ns3:cad>
          </ns3:TrackPointExtension>
        </extensions>
      </trkpt>
      <trkpt lat="37.76400013826787471771240234375" lon="-107.709324918687343597412109375">
        <ele>3682.39990234375</ele>
        <time>2023-07-29T14:13:02.000Z</time>
        <extensions>
          <ns3:TrackPointExtension>
            <ns3:hr>110</ns3:hr>
            <ns3:cad>0</ns3:cad>
          </ns3:TrackPointExtension>
        </extensions>
      </trkpt>
      <trkpt lat="37.7640024013817310333251953125" lon="-107.70932014100253582000732421875">
        <ele>3682.39990234375</ele>
        <time>2023-07-29T14:13:03.000Z</time>
        <extensions>
          <ns3:TrackPointExtension>
            <ns3:hr>109</ns3:hr>
            <ns3:cad>0</ns3:cad>
          </ns3:TrackPointExtension>
        </extensions>
      </trkpt>
      <trkpt lat="37.76400617323815822601318359375" lon="-107.709322907030582427978515625">
        <ele>3682.39990234375</ele>
        <time>2023-07-29T14:13:04.000Z</time>
        <extensions>
          <ns3:TrackPointExtension>
            <ns3:hr>108</ns3:hr>
            <ns3:cad>45</ns3:cad>
          </ns3:TrackPointExtension>
        </extensions>
      </trkpt>
      <trkpt lat="37.76400416158139705657958984375" lon="-107.7093140222132205963134765625">
        <ele>3682.39990234375</ele>
        <time>2023-07-29T14:13:05.000Z</time>
        <extensions>
          <ns3:TrackPointExtension>
            <ns3:hr>108</ns3:hr>
            <ns3:cad>45</ns3:cad>
          </ns3:TrackPointExtension>
        </extensions>
      </trkpt>
      <trkpt lat="37.76401623152196407318115234375" lon="-107.70933841355144977569580078125">
        <ele>3682.60009765625</ele>
        <time>2023-07-29T14:13:07.000Z</time>
        <extensions>
          <ns3:TrackPointExtension>
            <ns3:hr>107</ns3:hr>
            <ns3:cad>0</ns3:cad>
          </ns3:TrackPointExtension>
        </extensions>
      </trkpt>
      <trkpt lat="37.76402377523481845855712890625" lon="-107.70933724008500576019287109375">
        <ele>3682.60009765625</ele>
        <time>2023-07-29T14:13:08.000Z</time>
        <extensions>
          <ns3:TrackPointExtension>
            <ns3:hr>107</ns3:hr>
            <ns3:cad>0</ns3:cad>
          </ns3:TrackPointExtension>
        </extensions>
      </trkpt>
      <trkpt lat="37.764028050005435943603515625" lon="-107.709330618381500244140625">
        <ele>3682.800048828125</ele>
        <time>2023-07-29T14:13:09.000Z</time>
        <extensions>
          <ns3:TrackPointExtension>
            <ns3:hr>107</ns3:hr>
            <ns3:cad>0</ns3:cad>
          </ns3:TrackPointExtension>
        </extensions>
      </trkpt>
      <trkpt lat="37.76403131894767284393310546875" lon="-107.7093284390866756439208984375">
        <ele>3683</ele>
        <time>2023-07-29T14:13:10.000Z</time>
        <extensions>
          <ns3:TrackPointExtension>
            <ns3:hr>107</ns3:hr>
            <ns3:cad>0</ns3:cad>
          </ns3:TrackPointExtension>
        </extensions>
      </trkpt>
      <trkpt lat="37.76404070667922496795654296875" lon="-107.70932592451572418212890625">
        <ele>3683</ele>
        <time>2023-07-29T14:13:11.000Z</time>
        <extensions>
          <ns3:TrackPointExtension>
            <ns3:hr>107</ns3:hr>
            <ns3:cad>0</ns3:cad>
          </ns3:TrackPointExtension>
        </extensions>
      </trkpt>
      <trkpt lat="37.76405160315334796905517578125" lon="-107.709321565926074981689453125">
        <ele>3683.199951171875</ele>
        <time>2023-07-29T14:13:12.000Z</time>
        <extensions>
          <ns3:TrackPointExtension>
            <ns3:hr>106</ns3:hr>
            <ns3:cad>0</ns3:cad>
          </ns3:TrackPointExtension>
        </extensions>
      </trkpt>
      <trkpt lat="37.7640607394278049468994140625" lon="-107.7093170396983623504638671875">
        <ele>3683.39990234375</ele>
        <time>2023-07-29T14:13:13.000Z</time>
        <extensions>
          <ns3:TrackPointExtension>
            <ns3:hr>105</ns3:hr>
            <ns3:cad>0</ns3:cad>
          </ns3:TrackPointExtension>
        </extensions>
      </trkpt>
      <trkpt lat="37.7640692889690399169921875" lon="-107.7093105018138885498046875">
        <ele>3683.39990234375</ele>
        <time>2023-07-29T14:13:14.000Z</time>
        <extensions>
          <ns3:TrackPointExtension>
            <ns3:hr>105</ns3:hr>
            <ns3:cad>0</ns3:cad>
          </ns3:TrackPointExtension>
        </extensions>
      </trkpt>
      <trkpt lat="37.7640800178050994873046875" lon="-107.70930538885295391082763671875">
        <ele>3683.800048828125</ele>
        <time>2023-07-29T14:13:15.000Z</time>
        <extensions>
          <ns3:TrackPointExtension>
            <ns3:hr>105</ns3:hr>
            <ns3:cad>0</ns3:cad>
          </ns3:TrackPointExtension>
        </extensions>
      </trkpt>
      <trkpt lat="37.76408672332763671875" lon="-107.70930304192006587982177734375">
        <ele>3683.800048828125</ele>
        <time>2023-07-29T14:13:16.000Z</time>
        <extensions>
          <ns3:TrackPointExtension>
            <ns3:hr>105</ns3:hr>
            <ns3:cad>18</ns3:cad>
          </ns3:TrackPointExtension>
        </extensions>
      </trkpt>
      <trkpt lat="37.7640972845256328582763671875" lon="-107.70929935388267040252685546875">
        <ele>3684.199951171875</ele>
        <time>2023-07-29T14:13:17.000Z</time>
        <extensions>
          <ns3:TrackPointExtension>
            <ns3:hr>105</ns3:hr>
            <ns3:cad>18</ns3:cad>
          </ns3:TrackPointExtension>
        </extensions>
      </trkpt>
      <trkpt lat="37.76410910300910472869873046875" lon="-107.7092996053397655487060546875">
        <ele>3684.199951171875</ele>
        <time>2023-07-29T14:13:18.000Z</time>
        <extensions>
          <ns3:TrackPointExtension>
            <ns3:hr>105</ns3:hr>
            <ns3:cad>0</ns3:cad>
          </ns3:TrackPointExtension>
        </extensions>
      </trkpt>
      <trkpt lat="37.76411932893097400665283203125" lon="-107.70929952152073383331298828125">
        <ele>3684.39990234375</ele>
        <time>2023-07-29T14:13:19.000Z</time>
        <extensions>
          <ns3:TrackPointExtension>
            <ns3:hr>105</ns3:hr>
            <ns3:cad>0</ns3:cad>
          </ns3:TrackPointExtension>
        </extensions>
      </trkpt>
      <trkpt lat="37.76413039304316043853759765625" lon="-107.70930253900587558746337890625">
        <ele>3684.60009765625</ele>
        <time>2023-07-29T14:13:20.000Z</time>
        <extensions>
          <ns3:TrackPointExtension>
            <ns3:hr>104</ns3:hr>
            <ns3:cad>0</ns3:cad>
          </ns3:TrackPointExtension>
        </extensions>
      </trkpt>
      <trkpt lat="37.764132320880889892578125" lon="-107.7093029581010341644287109375">
        <ele>3684.800048828125</ele>
        <time>2023-07-29T14:13:21.000Z</time>
        <extensions>
          <ns3:TrackPointExtension>
            <ns3:hr>104</ns3:hr>
            <ns3:cad>0</ns3:cad>
          </ns3:TrackPointExtension>
        </extensions>
      </trkpt>
      <trkpt lat="37.7641334943473339080810546875" lon="-107.7093110047280788421630859375">
        <ele>3685</ele>
        <time>2023-07-29T14:13:22.000Z</time>
        <extensions>
          <ns3:TrackPointExtension>
            <ns3:hr>104</ns3:hr>
            <ns3:cad>0</ns3:cad>
          </ns3:TrackPointExtension>
        </extensions>
      </trkpt>
      <trkpt lat="37.764136679470539093017578125" lon="-107.70931997336447238922119140625">
        <ele>3685.199951171875</ele>
        <time>2023-07-29T14:13:23.000Z</time>
        <extensions>
          <ns3:TrackPointExtension>
            <ns3:hr>103</ns3:hr>
            <ns3:cad>0</ns3:cad>
          </ns3:TrackPointExtension>
        </extensions>
      </trkpt>
      <trkpt lat="37.7641408704221248626708984375" lon="-107.709327600896358489990234375">
        <ele>3685.60009765625</ele>
        <time>2023-07-29T14:13:24.000Z</time>
        <extensions>
          <ns3:TrackPointExtension>
            <ns3:hr>103</ns3:hr>
            <ns3:cad>0</ns3:cad>
          </ns3:TrackPointExtension>
        </extensions>
      </trkpt>
      <trkpt lat="37.76415034197270870208740234375" lon="-107.7093371562659740447998046875">
        <ele>3685.60009765625</ele>
        <time>2023-07-29T14:13:25.000Z</time>
        <extensions>
          <ns3:TrackPointExtension>
            <ns3:hr>103</ns3:hr>
            <ns3:cad>0</ns3:cad>
          </ns3:TrackPointExtension>
        </extensions>
      </trkpt>
      <trkpt lat="37.76415738277137279510498046875" lon="-107.70934469997882843017578125">
        <ele>3685.60009765625</ele>
        <time>2023-07-29T14:13:26.000Z</time>
        <extensions>
          <ns3:TrackPointExtension>
            <ns3:hr>103</ns3:hr>
            <ns3:cad>0</ns3:cad>
          </ns3:TrackPointExtension>
        </extensions>
      </trkpt>
      <trkpt lat="37.76415738277137279510498046875" lon="-107.70934746600687503814697265625">
        <ele>3686</ele>
        <time>2023-07-29T14:13:27.000Z</time>
        <extensions>
          <ns3:TrackPointExtension>
            <ns3:hr>103</ns3:hr>
            <ns3:cad>0</ns3:cad>
          </ns3:TrackPointExtension>
        </extensions>
      </trkpt>
      <trkpt lat="37.76415838859975337982177734375" lon="-107.70935165695846080780029296875">
        <ele>3686.199951171875</ele>
        <time>2023-07-29T14:13:28.000Z</time>
        <extensions>
          <ns3:TrackPointExtension>
            <ns3:hr>103</ns3:hr>
            <ns3:cad>0</ns3:cad>
          </ns3:TrackPointExtension>
        </extensions>
      </trkpt>
      <trkpt lat="37.76415151543915271759033203125" lon="-107.7093559317290782928466796875">
        <ele>3686.39990234375</ele>
        <time>2023-07-29T14:13:29.000Z</time>
        <extensions>
          <ns3:TrackPointExtension>
            <ns3:hr>103</ns3:hr>
            <ns3:cad>0</ns3:cad>
          </ns3:TrackPointExtension>
        </extensions>
      </trkpt>
      <trkpt lat="37.76415444910526275634765625" lon="-107.70935811102390289306640625">
        <ele>3686.60009765625</ele>
        <time>2023-07-29T14:13:30.000Z</time>
        <extensions>
          <ns3:TrackPointExtension>
            <ns3:hr>103</ns3:hr>
            <ns3:cad>0</ns3:cad>
          </ns3:TrackPointExtension>
        </extensions>
      </trkpt>
      <trkpt lat="37.7641589753329753875732421875" lon="-107.70935920067131519317626953125">
        <ele>3686.800048828125</ele>
        <time>2023-07-29T14:13:31.000Z</time>
        <extensions>
          <ns3:TrackPointExtension>
            <ns3:hr>103</ns3:hr>
            <ns3:cad>0</ns3:cad>
          </ns3:TrackPointExtension>
        </extensions>
      </trkpt>
      <trkpt lat="37.7641556225717067718505859375" lon="-107.709354422986507415771484375">
        <ele>3686.800048828125</ele>
        <time>2023-07-29T14:13:32.000Z</time>
        <extensions>
          <ns3:TrackPointExtension>
            <ns3:hr>104</ns3:hr>
            <ns3:cad>0</ns3:cad>
          </ns3:TrackPointExtension>
        </extensions>
      </trkpt>
      <trkpt lat="37.76416249573230743408203125" lon="-107.709357440471649169921875">
        <ele>3687.199951171875</ele>
        <time>2023-07-29T14:13:33.000Z</time>
        <extensions>
          <ns3:TrackPointExtension>
            <ns3:hr>105</ns3:hr>
            <ns3:cad>0</ns3:cad>
          </ns3:TrackPointExtension>
        </extensions>
      </trkpt>
      <trkpt lat="37.76416660286486148834228515625" lon="-107.70935953594744205474853515625">
        <ele>3687.39990234375</ele>
        <time>2023-07-29T14:13:34.000Z</time>
        <extensions>
          <ns3:TrackPointExtension>
            <ns3:hr>105</ns3:hr>
            <ns3:cad>0</ns3:cad>
          </ns3:TrackPointExtension>
        </extensions>
      </trkpt>
      <trkpt lat="37.76417163200676441192626953125" lon="-107.709360457956790924072265625">
        <ele>3687.60009765625</ele>
        <time>2023-07-29T14:13:35.000Z</time>
        <extensions>
          <ns3:TrackPointExtension>
            <ns3:hr>105</ns3:hr>
            <ns3:cad>0</ns3:cad>
          </ns3:TrackPointExtension>
        </extensions>
      </trkpt>
      <trkpt lat="37.76416861452162265777587890625" lon="-107.70935534499585628509521484375">
        <ele>3687.800048828125</ele>
        <time>2023-07-29T14:13:36.000Z</time>
        <extensions>
          <ns3:TrackPointExtension>
            <ns3:hr>105</ns3:hr>
            <ns3:cad>0</ns3:cad>
          </ns3:TrackPointExtension>
        </extensions>
      </trkpt>
      <trkpt lat="37.764169536530971527099609375" lon="-107.709352411329746246337890625">
        <ele>3688</ele>
        <time>2023-07-29T14:13:37.000Z</time>
        <extensions>
          <ns3:TrackPointExtension>
            <ns3:hr>105</ns3:hr>
            <ns3:cad>0</ns3:cad>
          </ns3:TrackPointExtension>
        </extensions>
      </trkpt>
      <trkpt lat="37.7641757391393184661865234375" lon="-107.7093532495200634002685546875">
        <ele>3688.199951171875</ele>
        <time>2023-07-29T14:13:38.000Z</time>
        <extensions>
          <ns3:TrackPointExtension>
            <ns3:hr>105</ns3:hr>
            <ns3:cad>0</ns3:cad>
          </ns3:TrackPointExtension>
        </extensions>
      </trkpt>
      <trkpt lat="37.76418537832796573638916015625" lon="-107.70935316570103168487548828125">
        <ele>3688.39990234375</ele>
        <time>2023-07-29T14:13:39.000Z</time>
        <extensions>
          <ns3:TrackPointExtension>
            <ns3:hr>106</ns3:hr>
            <ns3:cad>79</ns3:cad>
          </ns3:TrackPointExtension>
        </extensions>
      </trkpt>
      <trkpt lat="37.76419191621243953704833984375" lon="-107.70934897474944591522216796875">
        <ele>3688.39990234375</ele>
        <time>2023-07-29T14:13:40.000Z</time>
        <extensions>
          <ns3:TrackPointExtension>
            <ns3:hr>106</ns3:hr>
            <ns3:cad>79</ns3:cad>
          </ns3:TrackPointExtension>
        </extensions>
      </trkpt>
      <trkpt lat="37.76419845409691333770751953125" lon="-107.70934310741722583770751953125">
        <ele>3688.60009765625</ele>
        <time>2023-07-29T14:13:41.000Z</time>
        <extensions>
          <ns3:TrackPointExtension>
            <ns3:hr>106</ns3:hr>
            <ns3:cad>0</ns3:cad>
          </ns3:TrackPointExtension>
        </extensions>
      </trkpt>
      <trkpt lat="37.76421085931360721588134765625" lon="-107.70933472551405429840087890625">
        <ele>3688.60009765625</ele>
        <time>2023-07-29T14:13:42.000Z</time>
        <extensions>
          <ns3:TrackPointExtension>
            <ns3:hr>107</ns3:hr>
            <ns3:cad>0</ns3:cad>
          </ns3:TrackPointExtension>
        </extensions>
      </trkpt>
      <trkpt lat="37.7642186544835567474365234375" lon="-107.70933103747665882110595703125">
        <ele>3688.800048828125</ele>
        <time>2023-07-29T14:13:43.000Z</time>
        <extensions>
          <ns3:TrackPointExtension>
            <ns3:hr>107</ns3:hr>
            <ns3:cad>0</ns3:cad>
          </ns3:TrackPointExtension>
        </extensions>
      </trkpt>
      <trkpt lat="37.76422083377838134765625" lon="-107.7093297801911830902099609375">
        <ele>3689</ele>
        <time>2023-07-29T14:13:44.000Z</time>
        <extensions>
          <ns3:TrackPointExtension>
            <ns3:hr>109</ns3:hr>
            <ns3:cad>0</ns3:cad>
          </ns3:TrackPointExtension>
        </extensions>
      </trkpt>
      <trkpt lat="37.764225192368030548095703125" lon="-107.70932936109602451324462890625">
        <ele>3689.199951171875</ele>
        <time>2023-07-29T14:13:45.000Z</time>
        <extensions>
          <ns3:TrackPointExtension>
            <ns3:hr>110</ns3:hr>
            <ns3:cad>0</ns3:cad>
          </ns3:TrackPointExtension>
        </extensions>
      </trkpt>
      <trkpt lat="37.76422460563480854034423828125" lon="-107.70932835526764392852783203125">
        <ele>3689.39990234375</ele>
        <time>2023-07-29T14:13:46.000Z</time>
        <extensions>
          <ns3:TrackPointExtension>
            <ns3:hr>112</ns3:hr>
            <ns3:cad>0</ns3:cad>
          </ns3:TrackPointExtension>
        </extensions>
      </trkpt>
      <trkpt lat="37.76422712020576000213623046875" lon="-107.7093292772769927978515625">
        <ele>3690</ele>
        <time>2023-07-29T14:13:47.000Z</time>
        <extensions>
          <ns3:TrackPointExtension>
            <ns3:hr>113</ns3:hr>
            <ns3:cad>0</ns3:cad>
          </ns3:TrackPointExtension>
        </extensions>
      </trkpt>
      <trkpt lat="37.76423064060509204864501953125" lon="-107.709324918687343597412109375">
        <ele>3690.199951171875</ele>
        <time>2023-07-29T14:13:48.000Z</time>
        <extensions>
          <ns3:TrackPointExtension>
            <ns3:hr>113</ns3:hr>
            <ns3:cad>0</ns3:cad>
          </ns3:TrackPointExtension>
        </extensions>
      </trkpt>
      <trkpt lat="37.764239609241485595703125" lon="-107.70932449959218502044677734375">
        <ele>3690.39990234375</ele>
        <time>2023-07-29T14:13:49.000Z</time>
        <extensions>
          <ns3:TrackPointExtension>
            <ns3:hr>113</ns3:hr>
            <ns3:cad>0</ns3:cad>
          </ns3:TrackPointExtension>
        </extensions>
      </trkpt>
      <trkpt lat="37.76424296200275421142578125" lon="-107.7093217335641384124755859375">
        <ele>3690.60009765625</ele>
        <time>2023-07-29T14:13:50.000Z</time>
        <extensions>
          <ns3:TrackPointExtension>
            <ns3:hr>113</ns3:hr>
            <ns3:cad>0</ns3:cad>
          </ns3:TrackPointExtension>
        </extensions>
      </trkpt>
      <trkpt lat="37.76425008662045001983642578125" lon="-107.70932198502123355865478515625">
        <ele>3691</ele>
        <time>2023-07-29T14:13:51.000Z</time>
        <extensions>
          <ns3:TrackPointExtension>
            <ns3:hr>113</ns3:hr>
            <ns3:cad>0</ns3:cad>
          </ns3:TrackPointExtension>
        </extensions>
      </trkpt>
      <trkpt lat="37.76425293646752834320068359375" lon="-107.70932600833475589752197265625">
        <ele>3691</ele>
        <time>2023-07-29T14:13:52.000Z</time>
        <extensions>
          <ns3:TrackPointExtension>
            <ns3:hr>113</ns3:hr>
            <ns3:cad>0</ns3:cad>
          </ns3:TrackPointExtension>
        </extensions>
      </trkpt>
      <trkpt lat="37.76425595395267009735107421875" lon="-107.709328271448612213134765625">
        <ele>3691</ele>
        <time>2023-07-29T14:13:53.000Z</time>
        <extensions>
          <ns3:TrackPointExtension>
            <ns3:hr>114</ns3:hr>
            <ns3:cad>0</ns3:cad>
          </ns3:TrackPointExtension>
        </extensions>
      </trkpt>
      <trkpt lat="37.76426232419908046722412109375" lon="-107.70932885818183422088623046875">
        <ele>3691</ele>
        <time>2023-07-29T14:13:54.000Z</time>
        <extensions>
          <ns3:TrackPointExtension>
            <ns3:hr>114</ns3:hr>
            <ns3:cad>0</ns3:cad>
          </ns3:TrackPointExtension>
        </extensions>
      </trkpt>
      <trkpt lat="37.76426307857036590576171875" lon="-107.709325253963470458984375">
        <ele>3691.39990234375</ele>
        <time>2023-07-29T14:13:55.000Z</time>
        <extensions>
          <ns3:TrackPointExtension>
            <ns3:hr>115</ns3:hr>
            <ns3:cad>0</ns3:cad>
          </ns3:TrackPointExtension>
        </extensions>
      </trkpt>
      <trkpt lat="37.76425838470458984375" lon="-107.7093220688402652740478515625">
        <ele>3691.800048828125</ele>
        <time>2023-07-29T14:13:56.000Z</time>
        <extensions>
          <ns3:TrackPointExtension>
            <ns3:hr>115</ns3:hr>
            <ns3:cad>0</ns3:cad>
          </ns3:TrackPointExtension>
        </extensions>
      </trkpt>
      <trkpt lat="37.7642575465142726898193359375" lon="-107.70931846462190151214599609375">
        <ele>3692</ele>
        <time>2023-07-29T14:13:57.000Z</time>
        <extensions>
          <ns3:TrackPointExtension>
            <ns3:hr>115</ns3:hr>
            <ns3:cad>0</ns3:cad>
          </ns3:TrackPointExtension>
        </extensions>
      </trkpt>
      <trkpt lat="37.76425796560943126678466796875" lon="-107.70931159146130084991455078125">
        <ele>3692</ele>
        <time>2023-07-29T14:13:58.000Z</time>
        <extensions>
          <ns3:TrackPointExtension>
            <ns3:hr>115</ns3:hr>
            <ns3:cad>0</ns3:cad>
          </ns3:TrackPointExtension>
        </extensions>
      </trkpt>
      <trkpt lat="37.76425997726619243621826171875" lon="-107.7093049697577953338623046875">
        <ele>3692.199951171875</ele>
        <time>2023-07-29T14:13:59.000Z</time>
        <extensions>
          <ns3:TrackPointExtension>
            <ns3:hr>115</ns3:hr>
            <ns3:cad>0</ns3:cad>
          </ns3:TrackPointExtension>
        </extensions>
      </trkpt>
      <trkpt lat="37.76426182128489017486572265625" lon="-107.70929885096848011016845703125">
        <ele>3692.39990234375</ele>
        <time>2023-07-29T14:14:00.000Z</time>
        <extensions>
          <ns3:TrackPointExtension>
            <ns3:hr>115</ns3:hr>
            <ns3:cad>0</ns3:cad>
          </ns3:TrackPointExtension>
        </extensions>
      </trkpt>
      <trkpt lat="37.764266431331634521484375" lon="-107.7092922292649745941162109375">
        <ele>3692.60009765625</ele>
        <time>2023-07-29T14:14:01.000Z</time>
        <extensions>
          <ns3:TrackPointExtension>
            <ns3:hr>114</ns3:hr>
            <ns3:cad>0</ns3:cad>
          </ns3:TrackPointExtension>
        </extensions>
      </trkpt>
      <trkpt lat="37.76427590288221836090087890625" lon="-107.7092825062572956085205078125">
        <ele>3692.800048828125</ele>
        <time>2023-07-29T14:14:02.000Z</time>
        <extensions>
          <ns3:TrackPointExtension>
            <ns3:hr>114</ns3:hr>
            <ns3:cad>0</ns3:cad>
          </ns3:TrackPointExtension>
        </extensions>
      </trkpt>
      <trkpt lat="37.76427992619574069976806640625" lon="-107.709279321134090423583984375">
        <ele>3692.800048828125</ele>
        <time>2023-07-29T14:14:03.000Z</time>
        <extensions>
          <ns3:TrackPointExtension>
            <ns3:hr>114</ns3:hr>
            <ns3:cad>0</ns3:cad>
          </ns3:TrackPointExtension>
        </extensions>
      </trkpt>
      <trkpt lat="37.76428721845149993896484375" lon="-107.709273956716060638427734375">
        <ele>3692.800048828125</ele>
        <time>2023-07-29T14:14:04.000Z</time>
        <extensions>
          <ns3:TrackPointExtension>
            <ns3:hr>114</ns3:hr>
            <ns3:cad>0</ns3:cad>
          </ns3:TrackPointExtension>
        </extensions>
      </trkpt>
      <trkpt lat="37.76428780518472194671630859375" lon="-107.7092741243541240692138671875">
        <ele>3692.800048828125</ele>
        <time>2023-07-29T14:14:05.000Z</time>
        <extensions>
          <ns3:TrackPointExtension>
            <ns3:hr>115</ns3:hr>
            <ns3:cad>0</ns3:cad>
          </ns3:TrackPointExtension>
        </extensions>
      </trkpt>
      <trkpt lat="37.76428931392729282379150390625" lon="-107.7092741243541240692138671875">
        <ele>3693.199951171875</ele>
        <time>2023-07-29T14:14:06.000Z</time>
        <extensions>
          <ns3:TrackPointExtension>
            <ns3:hr>116</ns3:hr>
            <ns3:cad>0</ns3:cad>
          </ns3:TrackPointExtension>
        </extensions>
      </trkpt>
      <trkpt lat="37.764293588697910308837890625" lon="-107.7092741243541240692138671875">
        <ele>3693.39990234375</ele>
        <time>2023-07-29T14:14:07.000Z</time>
        <extensions>
          <ns3:TrackPointExtension>
            <ns3:hr>116</ns3:hr>
            <ns3:cad>0</ns3:cad>
          </ns3:TrackPointExtension>
        </extensions>
      </trkpt>
      <trkpt lat="37.76429484598338603973388671875" lon="-107.709275297820568084716796875">
        <ele>3693.39990234375</ele>
        <time>2023-07-29T14:14:08.000Z</time>
        <extensions>
          <ns3:TrackPointExtension>
            <ns3:hr>117</ns3:hr>
            <ns3:cad>0</ns3:cad>
          </ns3:TrackPointExtension>
        </extensions>
      </trkpt>
      <trkpt lat="37.76429350487887859344482421875" lon="-107.70928024314343929290771484375">
        <ele>3693.800048828125</ele>
        <time>2023-07-29T14:14:09.000Z</time>
        <extensions>
          <ns3:TrackPointExtension>
            <ns3:hr>118</ns3:hr>
            <ns3:cad>0</ns3:cad>
          </ns3:TrackPointExtension>
        </extensions>
      </trkpt>
      <trkpt lat="37.76429451070725917816162109375" lon="-107.70928627811372280120849609375">
        <ele>3694</ele>
        <time>2023-07-29T14:14:10.000Z</time>
        <extensions>
          <ns3:TrackPointExtension>
            <ns3:hr>118</ns3:hr>
            <ns3:cad>0</ns3:cad>
          </ns3:TrackPointExtension>
        </extensions>
      </trkpt>
      <trkpt lat="37.76430037803947925567626953125" lon="-107.70928703248500823974609375">
        <ele>3694.199951171875</ele>
        <time>2023-07-29T14:14:11.000Z</time>
        <extensions>
          <ns3:TrackPointExtension>
            <ns3:hr>118</ns3:hr>
            <ns3:cad>0</ns3:cad>
          </ns3:TrackPointExtension>
        </extensions>
      </trkpt>
      <trkpt lat="37.7643048204481601715087890625" lon="-107.70928745158016681671142578125">
        <ele>3694.199951171875</ele>
        <time>2023-07-29T14:14:12.000Z</time>
        <extensions>
          <ns3:TrackPointExtension>
            <ns3:hr>118</ns3:hr>
            <ns3:cad>0</ns3:cad>
          </ns3:TrackPointExtension>
        </extensions>
      </trkpt>
      <trkpt lat="37.76430993340909481048583984375" lon="-107.70928703248500823974609375">
        <ele>3694.60009765625</ele>
        <time>2023-07-29T14:14:13.000Z</time>
        <extensions>
          <ns3:TrackPointExtension>
            <ns3:hr>118</ns3:hr>
            <ns3:cad>0</ns3:cad>
          </ns3:TrackPointExtension>
        </extensions>
      </trkpt>
      <trkpt lat="37.7643145434558391571044921875" lon="-107.7092890441417694091796875">
        <ele>3694.60009765625</ele>
        <time>2023-07-29T14:14:14.000Z</time>
        <extensions>
          <ns3:TrackPointExtension>
            <ns3:hr>118</ns3:hr>
            <ns3:cad>0</ns3:cad>
          </ns3:TrackPointExtension>
        </extensions>
      </trkpt>
      <trkpt lat="37.764322422444820404052734375" lon="-107.70928795449435710906982421875">
        <ele>3694.800048828125</ele>
        <time>2023-07-29T14:14:15.000Z</time>
        <extensions>
          <ns3:TrackPointExtension>
            <ns3:hr>119</ns3:hr>
            <ns3:cad>0</ns3:cad>
          </ns3:TrackPointExtension>
        </extensions>
      </trkpt>
      <trkpt lat="37.76432753540575504302978515625" lon="-107.7092861942946910858154296875">
        <ele>3695</ele>
        <time>2023-07-29T14:14:16.000Z</time>
        <extensions>
          <ns3:TrackPointExtension>
            <ns3:hr>119</ns3:hr>
            <ns3:cad>0</ns3:cad>
          </ns3:TrackPointExtension>
        </extensions>
      </trkpt>
      <trkpt lat="37.76433507911860942840576171875" lon="-107.70928476937115192413330078125">
        <ele>3695</ele>
        <time>2023-07-29T14:14:17.000Z</time>
        <extensions>
          <ns3:TrackPointExtension>
            <ns3:hr>118</ns3:hr>
            <ns3:cad>0</ns3:cad>
          </ns3:TrackPointExtension>
        </extensions>
      </trkpt>
      <trkpt lat="37.7643326483666896820068359375" lon="-107.70928510464727878570556640625">
        <ele>3695</ele>
        <time>2023-07-29T14:14:18.000Z</time>
        <extensions>
          <ns3:TrackPointExtension>
            <ns3:hr>118</ns3:hr>
            <ns3:cad>0</ns3:cad>
          </ns3:TrackPointExtension>
        </extensions>
      </trkpt>
      <trkpt lat="37.76433491148054599761962890625" lon="-107.70927890203893184661865234375">
        <ele>3695.199951171875</ele>
        <time>2023-07-29T14:14:19.000Z</time>
        <extensions>
          <ns3:TrackPointExtension>
            <ns3:hr>118</ns3:hr>
            <ns3:cad>0</ns3:cad>
          </ns3:TrackPointExtension>
        </extensions>
      </trkpt>
      <trkpt lat="37.764337174594402313232421875" lon="-107.70927689038217067718505859375">
        <ele>3695.199951171875</ele>
        <time>2023-07-29T14:14:20.000Z</time>
        <extensions>
          <ns3:TrackPointExtension>
            <ns3:hr>118</ns3:hr>
            <ns3:cad>0</ns3:cad>
          </ns3:TrackPointExtension>
        </extensions>
      </trkpt>
      <trkpt lat="37.76433952152729034423828125" lon="-107.7092758007347583770751953125">
        <ele>3695.39990234375</ele>
        <time>2023-07-29T14:14:21.000Z</time>
        <extensions>
          <ns3:TrackPointExtension>
            <ns3:hr>119</ns3:hr>
            <ns3:cad>0</ns3:cad>
          </ns3:TrackPointExtension>
        </extensions>
      </trkpt>
      <trkpt lat="37.764345891773700714111328125" lon="-107.70927303470671176910400390625">
        <ele>3695.60009765625</ele>
        <time>2023-07-29T14:14:22.000Z</time>
        <extensions>
          <ns3:TrackPointExtension>
            <ns3:hr>119</ns3:hr>
            <ns3:cad>0</ns3:cad>
          </ns3:TrackPointExtension>
        </extensions>
      </trkpt>
      <trkpt lat="37.76434731669723987579345703125" lon="-107.7092694304883480072021484375">
        <ele>3696</ele>
        <time>2023-07-29T14:14:23.000Z</time>
        <extensions>
          <ns3:TrackPointExtension>
            <ns3:hr>119</ns3:hr>
            <ns3:cad>0</ns3:cad>
          </ns3:TrackPointExtension>
        </extensions>
      </trkpt>
      <trkpt lat="37.76435418985784053802490234375" lon="-107.70926817320287227630615234375">
        <ele>3696</ele>
        <time>2023-07-29T14:14:24.000Z</time>
        <extensions>
          <ns3:TrackPointExtension>
            <ns3:hr>119</ns3:hr>
            <ns3:cad>0</ns3:cad>
          </ns3:TrackPointExtension>
        </extensions>
      </trkpt>
      <trkpt lat="37.76436273939907550811767578125" lon="-107.7092687599360942840576171875">
        <ele>3696.199951171875</ele>
        <time>2023-07-29T14:14:25.000Z</time>
        <extensions>
          <ns3:TrackPointExtension>
            <ns3:hr>119</ns3:hr>
            <ns3:cad>0</ns3:cad>
          </ns3:TrackPointExtension>
        </extensions>
      </trkpt>
      <trkpt lat="37.76436366140842437744140625" lon="-107.70927068777382373809814453125">
        <ele>3696.39990234375</ele>
        <time>2023-07-29T14:14:26.000Z</time>
        <extensions>
          <ns3:TrackPointExtension>
            <ns3:hr>119</ns3:hr>
            <ns3:cad>0</ns3:cad>
          </ns3:TrackPointExtension>
        </extensions>
      </trkpt>
      <trkpt lat="37.764360643923282623291015625" lon="-107.7092781476676464080810546875">
        <ele>3696.60009765625</ele>
        <time>2023-07-29T14:14:27.000Z</time>
        <extensions>
          <ns3:TrackPointExtension>
            <ns3:hr>119</ns3:hr>
            <ns3:cad>0</ns3:cad>
          </ns3:TrackPointExtension>
        </extensions>
      </trkpt>
      <trkpt lat="37.76435829699039459228515625" lon="-107.70928460173308849334716796875">
        <ele>3696.60009765625</ele>
        <time>2023-07-29T14:14:28.000Z</time>
        <extensions>
          <ns3:TrackPointExtension>
            <ns3:hr>120</ns3:hr>
            <ns3:cad>0</ns3:cad>
          </ns3:TrackPointExtension>
        </extensions>
      </trkpt>
      <trkpt lat="37.76435737498104572296142578125" lon="-107.7092898823320865631103515625">
        <ele>3696.800048828125</ele>
        <time>2023-07-29T14:14:29.000Z</time>
        <extensions>
          <ns3:TrackPointExtension>
            <ns3:hr>120</ns3:hr>
            <ns3:cad>0</ns3:cad>
          </ns3:TrackPointExtension>
        </extensions>
      </trkpt>
      <trkpt lat="37.76435955427587032318115234375" lon="-107.709296084940433502197265625">
        <ele>3697</ele>
        <time>2023-07-29T14:14:30.000Z</time>
        <extensions>
          <ns3:TrackPointExtension>
            <ns3:hr>120</ns3:hr>
            <ns3:cad>0</ns3:cad>
          </ns3:TrackPointExtension>
        </extensions>
      </trkpt>
      <trkpt lat="37.76436173357069492340087890625" lon="-107.7093016169965267181396484375">
        <ele>3697.199951171875</ele>
        <time>2023-07-29T14:14:31.000Z</time>
        <extensions>
          <ns3:TrackPointExtension>
            <ns3:hr>120</ns3:hr>
            <ns3:cad>0</ns3:cad>
          </ns3:TrackPointExtension>
        </extensions>
      </trkpt>
      <trkpt lat="37.76436089538037776947021484375" lon="-107.70930689759552478790283203125">
        <ele>3697.199951171875</ele>
        <time>2023-07-29T14:14:32.000Z</time>
        <extensions>
          <ns3:TrackPointExtension>
            <ns3:hr>120</ns3:hr>
            <ns3:cad>0</ns3:cad>
          </ns3:TrackPointExtension>
        </extensions>
      </trkpt>
      <trkpt lat="37.7643564529716968536376953125" lon="-107.7093131840229034423828125">
        <ele>3697.199951171875</ele>
        <time>2023-07-29T14:14:33.000Z</time>
        <extensions>
          <ns3:TrackPointExtension>
            <ns3:hr>119</ns3:hr>
            <ns3:cad>0</ns3:cad>
          </ns3:TrackPointExtension>
        </extensions>
      </trkpt>
      <trkpt lat="37.76436240412294864654541015625" lon="-107.7093016169965267181396484375">
        <ele>3697.199951171875</ele>
        <time>2023-07-29T14:14:34.000Z</time>
        <extensions>
          <ns3:TrackPointExtension>
            <ns3:hr>119</ns3:hr>
            <ns3:cad>0</ns3:cad>
          </ns3:TrackPointExtension>
        </extensions>
      </trkpt>
      <trkpt lat="37.7643443830311298370361328125" lon="-107.709320895373821258544921875">
        <ele>3697.199951171875</ele>
        <time>2023-07-29T14:14:37.000Z</time>
        <extensions>
          <ns3:TrackPointExtension>
            <ns3:hr>110</ns3:hr>
            <ns3:cad>0</ns3:cad>
          </ns3:TrackPointExtension>
        </extensions>
      </trkpt>
      <trkpt lat="37.764340527355670928955078125" lon="-107.70933070220053195953369140625">
        <ele>3697.199951171875</ele>
        <time>2023-07-29T14:14:38.000Z</time>
        <extensions>
          <ns3:TrackPointExtension>
            <ns3:hr>107</ns3:hr>
            <ns3:cad>0</ns3:cad>
          </ns3:TrackPointExtension>
        </extensions>
      </trkpt>
      <trkpt lat="37.76433709077537059783935546875" lon="-107.70934578962624073028564453125">
        <ele>3697.199951171875</ele>
        <time>2023-07-29T14:14:39.000Z</time>
        <extensions>
          <ns3:TrackPointExtension>
            <ns3:hr>106</ns3:hr>
            <ns3:cad>0</ns3:cad>
          </ns3:TrackPointExtension>
        </extensions>
      </trkpt>
      <trkpt lat="37.7643360011279582977294921875" lon="-107.7093462087213993072509765625">
        <ele>3697.199951171875</ele>
        <time>2023-07-29T14:14:40.000Z</time>
        <extensions>
          <ns3:TrackPointExtension>
            <ns3:hr>106</ns3:hr>
            <ns3:cad>0</ns3:cad>
          </ns3:TrackPointExtension>
        </extensions>
      </trkpt>
      <trkpt lat="37.76433390565216541290283203125" lon="-107.70934662781655788421630859375">
        <ele>3697.199951171875</ele>
        <time>2023-07-29T14:14:41.000Z</time>
        <extensions>
          <ns3:TrackPointExtension>
            <ns3:hr>107</ns3:hr>
            <ns3:cad>0</ns3:cad>
          </ns3:TrackPointExtension>
        </extensions>
      </trkpt>
      <trkpt lat="37.76432921178638935089111328125" lon="-107.70936171524226665496826171875">
        <ele>3697.199951171875</ele>
        <time>2023-07-29T14:14:42.000Z</time>
        <extensions>
          <ns3:TrackPointExtension>
            <ns3:hr>107</ns3:hr>
            <ns3:cad>0</ns3:cad>
          </ns3:TrackPointExtension>
        </extensions>
      </trkpt>
      <trkpt lat="37.76433709077537059783935546875" lon="-107.70935065113008022308349609375">
        <ele>3697.199951171875</ele>
        <time>2023-07-29T14:14:43.000Z</time>
        <extensions>
          <ns3:TrackPointExtension>
            <ns3:hr>107</ns3:hr>
            <ns3:cad>0</ns3:cad>
          </ns3:TrackPointExtension>
        </extensions>
      </trkpt>
      <trkpt lat="37.7643410302698612213134765625" lon="-107.70933824591338634490966796875">
        <ele>3697.199951171875</ele>
        <time>2023-07-29T14:14:44.000Z</time>
        <extensions>
          <ns3:TrackPointExtension>
            <ns3:hr>107</ns3:hr>
            <ns3:cad>0</ns3:cad>
          </ns3:TrackPointExtension>
        </extensions>
      </trkpt>
      <trkpt lat="37.76434631086885929107666015625" lon="-107.7093346416950225830078125">
        <ele>3697.39990234375</ele>
        <time>2023-07-29T14:14:45.000Z</time>
        <extensions>
          <ns3:TrackPointExtension>
            <ns3:hr>107</ns3:hr>
            <ns3:cad>0</ns3:cad>
          </ns3:TrackPointExtension>
        </extensions>
      </trkpt>
      <trkpt lat="37.76435050182044506072998046875" lon="-107.70932550542056560516357421875">
        <ele>3697.39990234375</ele>
        <time>2023-07-29T14:14:46.000Z</time>
        <extensions>
          <ns3:TrackPointExtension>
            <ns3:hr>106</ns3:hr>
            <ns3:cad>0</ns3:cad>
          </ns3:TrackPointExtension>
        </extensions>
      </trkpt>
      <trkpt lat="37.764353267848491668701171875" lon="-107.709323577582836151123046875">
        <ele>3697.60009765625</ele>
        <time>2023-07-29T14:14:47.000Z</time>
        <extensions>
          <ns3:TrackPointExtension>
            <ns3:hr>106</ns3:hr>
            <ns3:cad>0</ns3:cad>
          </ns3:TrackPointExtension>
        </extensions>
      </trkpt>
      <trkpt lat="37.7643549442291259765625" lon="-107.709325589239597320556640625">
        <ele>3697.60009765625</ele>
        <time>2023-07-29T14:14:48.000Z</time>
        <extensions>
          <ns3:TrackPointExtension>
            <ns3:hr>106</ns3:hr>
            <ns3:cad>0</ns3:cad>
          </ns3:TrackPointExtension>
        </extensions>
      </trkpt>
      <trkpt lat="37.7643685229122638702392578125" lon="-107.7093224041163921356201171875">
        <ele>3697.800048828125</ele>
        <time>2023-07-29T14:14:49.000Z</time>
        <extensions>
          <ns3:TrackPointExtension>
            <ns3:hr>107</ns3:hr>
            <ns3:cad>0</ns3:cad>
          </ns3:TrackPointExtension>
        </extensions>
      </trkpt>
      <trkpt lat="37.7643782459199428558349609375" lon="-107.7093239128589630126953125">
        <ele>3698</ele>
        <time>2023-07-29T14:14:50.000Z</time>
        <extensions>
          <ns3:TrackPointExtension>
            <ns3:hr>107</ns3:hr>
            <ns3:cad>0</ns3:cad>
          </ns3:TrackPointExtension>
        </extensions>
      </trkpt>
      <trkpt lat="37.76438335888087749481201171875" lon="-107.70932064391672611236572265625">
        <ele>3698.199951171875</ele>
        <time>2023-07-29T14:14:51.000Z</time>
        <extensions>
          <ns3:TrackPointExtension>
            <ns3:hr>107</ns3:hr>
            <ns3:cad>0</ns3:cad>
          </ns3:TrackPointExtension>
        </extensions>
      </trkpt>
      <trkpt lat="37.7643832750618457794189453125" lon="-107.709318213164806365966796875">
        <ele>3698.60009765625</ele>
        <time>2023-07-29T14:14:52.000Z</time>
        <extensions>
          <ns3:TrackPointExtension>
            <ns3:hr>107</ns3:hr>
            <ns3:cad>0</ns3:cad>
          </ns3:TrackPointExtension>
        </extensions>
      </trkpt>
      <trkpt lat="37.7643906511366367340087890625" lon="-107.70931745879352092742919921875">
        <ele>3698.800048828125</ele>
        <time>2023-07-29T14:14:53.000Z</time>
        <extensions>
          <ns3:TrackPointExtension>
            <ns3:hr>107</ns3:hr>
            <ns3:cad>0</ns3:cad>
          </ns3:TrackPointExtension>
        </extensions>
      </trkpt>
      <trkpt lat="37.7643940038979053497314453125" lon="-107.70931460894644260406494140625">
        <ele>3699.199951171875</ele>
        <time>2023-07-29T14:14:54.000Z</time>
        <extensions>
          <ns3:TrackPointExtension>
            <ns3:hr>107</ns3:hr>
            <ns3:cad>0</ns3:cad>
          </ns3:TrackPointExtension>
        </extensions>
      </trkpt>
      <trkpt lat="37.76439559645950794219970703125" lon="-107.70931175909936428070068359375">
        <ele>3699.39990234375</ele>
        <time>2023-07-29T14:14:55.000Z</time>
        <extensions>
          <ns3:TrackPointExtension>
            <ns3:hr>107</ns3:hr>
            <ns3:cad>0</ns3:cad>
          </ns3:TrackPointExtension>
        </extensions>
      </trkpt>
      <trkpt lat="37.76440381072461605072021484375" lon="-107.709299437701702117919921875">
        <ele>3699.60009765625</ele>
        <time>2023-07-29T14:14:56.000Z</time>
        <extensions>
          <ns3:TrackPointExtension>
            <ns3:hr>107</ns3:hr>
            <ns3:cad>0</ns3:cad>
          </ns3:TrackPointExtension>
        </extensions>
      </trkpt>
      <trkpt lat="37.7644047327339649200439453125" lon="-107.70929214544594287872314453125">
        <ele>3699.60009765625</ele>
        <time>2023-07-29T14:14:57.000Z</time>
        <extensions>
          <ns3:TrackPointExtension>
            <ns3:hr>107</ns3:hr>
            <ns3:cad>0</ns3:cad>
          </ns3:TrackPointExtension>
        </extensions>
      </trkpt>
      <trkpt lat="37.76440565474331378936767578125" lon="-107.709288708865642547607421875">
        <ele>3699.800048828125</ele>
        <time>2023-07-29T14:14:58.000Z</time>
        <extensions>
          <ns3:TrackPointExtension>
            <ns3:hr>107</ns3:hr>
            <ns3:cad>0</ns3:cad>
          </ns3:TrackPointExtension>
        </extensions>
      </trkpt>
      <trkpt lat="37.76440733112394809722900390625" lon="-107.709286026656627655029296875">
        <ele>3700</ele>
        <time>2023-07-29T14:14:59.000Z</time>
        <extensions>
          <ns3:TrackPointExtension>
            <ns3:hr>107</ns3:hr>
            <ns3:cad>0</ns3:cad>
          </ns3:TrackPointExtension>
        </extensions>
      </trkpt>
      <trkpt lat="37.7644094265997409820556640625" lon="-107.70928275771439075469970703125">
        <ele>3700</ele>
        <time>2023-07-29T14:15:00.000Z</time>
        <extensions>
          <ns3:TrackPointExtension>
            <ns3:hr>107</ns3:hr>
            <ns3:cad>0</ns3:cad>
          </ns3:TrackPointExtension>
        </extensions>
      </trkpt>
      <trkpt lat="37.7644030563533306121826171875" lon="-107.70928577519953250885009765625">
        <ele>3700.199951171875</ele>
        <time>2023-07-29T14:15:01.000Z</time>
        <extensions>
          <ns3:TrackPointExtension>
            <ns3:hr>107</ns3:hr>
            <ns3:cad>0</ns3:cad>
          </ns3:TrackPointExtension>
        </extensions>
      </trkpt>
      <trkpt lat="37.7644104324281215667724609375" lon="-107.7092825062572956085205078125">
        <ele>3700.39990234375</ele>
        <time>2023-07-29T14:15:02.000Z</time>
        <extensions>
          <ns3:TrackPointExtension>
            <ns3:hr>107</ns3:hr>
            <ns3:cad>0</ns3:cad>
          </ns3:TrackPointExtension>
        </extensions>
      </trkpt>
      <trkpt lat="37.76440917514264583587646484375" lon="-107.70928493700921535491943359375">
        <ele>3700.39990234375</ele>
        <time>2023-07-29T14:15:03.000Z</time>
        <extensions>
          <ns3:TrackPointExtension>
            <ns3:hr>107</ns3:hr>
            <ns3:cad>0</ns3:cad>
          </ns3:TrackPointExtension>
        </extensions>
      </trkpt>
      <trkpt lat="37.76442342437803745269775390625" lon="-107.70927655510604381561279296875">
        <ele>3700.60009765625</ele>
        <time>2023-07-29T14:15:04.000Z</time>
        <extensions>
          <ns3:TrackPointExtension>
            <ns3:hr>107</ns3:hr>
            <ns3:cad>0</ns3:cad>
          </ns3:TrackPointExtension>
        </extensions>
      </trkpt>
      <trkpt lat="37.7644287049770355224609375" lon="-107.7092758007347583770751953125">
        <ele>3700.800048828125</ele>
        <time>2023-07-29T14:15:05.000Z</time>
        <extensions>
          <ns3:TrackPointExtension>
            <ns3:hr>107</ns3:hr>
            <ns3:cad>0</ns3:cad>
          </ns3:TrackPointExtension>
        </extensions>
      </trkpt>
      <trkpt lat="37.764443457126617431640625" lon="-107.7092684246599674224853515625">
        <ele>3701</ele>
        <time>2023-07-29T14:15:06.000Z</time>
        <extensions>
          <ns3:TrackPointExtension>
            <ns3:hr>107</ns3:hr>
            <ns3:cad>0</ns3:cad>
          </ns3:TrackPointExtension>
        </extensions>
      </trkpt>
      <trkpt lat="37.764453850686550140380859375" lon="-107.7092644013464450836181640625">
        <ele>3701.199951171875</ele>
        <time>2023-07-29T14:15:07.000Z</time>
        <extensions>
          <ns3:TrackPointExtension>
            <ns3:hr>108</ns3:hr>
            <ns3:cad>0</ns3:cad>
          </ns3:TrackPointExtension>
        </extensions>
      </trkpt>
      <trkpt lat="37.7644582092761993408203125" lon="-107.7092633955180644989013671875">
        <ele>3701.39990234375</ele>
        <time>2023-07-29T14:15:08.000Z</time>
        <extensions>
          <ns3:TrackPointExtension>
            <ns3:hr>109</ns3:hr>
            <ns3:cad>0</ns3:cad>
          </ns3:TrackPointExtension>
        </extensions>
      </trkpt>
      <trkpt lat="37.76445862837135791778564453125" lon="-107.70926381461322307586669921875">
        <ele>3701.39990234375</ele>
        <time>2023-07-29T14:15:09.000Z</time>
        <extensions>
          <ns3:TrackPointExtension>
            <ns3:hr>109</ns3:hr>
            <ns3:cad>0</ns3:cad>
          </ns3:TrackPointExtension>
        </extensions>
      </trkpt>
      <trkpt lat="37.76446650736033916473388671875" lon="-107.70925995893776416778564453125">
        <ele>3701.60009765625</ele>
        <time>2023-07-29T14:15:10.000Z</time>
        <extensions>
          <ns3:TrackPointExtension>
            <ns3:hr>109</ns3:hr>
            <ns3:cad>0</ns3:cad>
          </ns3:TrackPointExtension>
        </extensions>
      </trkpt>
      <trkpt lat="37.76447187177836894989013671875" lon="-107.70925878547132015228271484375">
        <ele>3701.800048828125</ele>
        <time>2023-07-29T14:15:11.000Z</time>
        <extensions>
          <ns3:TrackPointExtension>
            <ns3:hr>110</ns3:hr>
            <ns3:cad>0</ns3:cad>
          </ns3:TrackPointExtension>
        </extensions>
      </trkpt>
      <trkpt lat="37.764480002224445343017578125" lon="-107.709259204566478729248046875">
        <ele>3701.800048828125</ele>
        <time>2023-07-29T14:15:12.000Z</time>
        <extensions>
          <ns3:TrackPointExtension>
            <ns3:hr>110</ns3:hr>
            <ns3:cad>0</ns3:cad>
          </ns3:TrackPointExtension>
        </extensions>
      </trkpt>
      <trkpt lat="37.764489389955997467041015625" lon="-107.7092610485851764678955078125">
        <ele>3702</ele>
        <time>2023-07-29T14:15:13.000Z</time>
        <extensions>
          <ns3:TrackPointExtension>
            <ns3:hr>110</ns3:hr>
            <ns3:cad>0</ns3:cad>
          </ns3:TrackPointExtension>
        </extensions>
      </trkpt>
      <trkpt lat="37.76449483819305896759033203125" lon="-107.7092613838613033294677734375">
        <ele>3702.199951171875</ele>
        <time>2023-07-29T14:15:14.000Z</time>
        <extensions>
          <ns3:TrackPointExtension>
            <ns3:hr>110</ns3:hr>
            <ns3:cad>0</ns3:cad>
          </ns3:TrackPointExtension>
        </extensions>
      </trkpt>
      <trkpt lat="37.7644999511539936065673828125" lon="-107.70926163531839847564697265625">
        <ele>3702.39990234375</ele>
        <time>2023-07-29T14:15:15.000Z</time>
        <extensions>
          <ns3:TrackPointExtension>
            <ns3:hr>110</ns3:hr>
            <ns3:cad>0</ns3:cad>
          </ns3:TrackPointExtension>
        </extensions>
      </trkpt>
      <trkpt lat="37.7645059861242771148681640625" lon="-107.709260880947113037109375">
        <ele>3702.60009765625</ele>
        <time>2023-07-29T14:15:16.000Z</time>
        <extensions>
          <ns3:TrackPointExtension>
            <ns3:hr>110</ns3:hr>
            <ns3:cad>0</ns3:cad>
          </ns3:TrackPointExtension>
        </extensions>
      </trkpt>
      <trkpt lat="37.7645140327513217926025390625" lon="-107.709262557327747344970703125">
        <ele>3702.800048828125</ele>
        <time>2023-07-29T14:15:17.000Z</time>
        <extensions>
          <ns3:TrackPointExtension>
            <ns3:hr>110</ns3:hr>
            <ns3:cad>0</ns3:cad>
          </ns3:TrackPointExtension>
        </extensions>
      </trkpt>
      <trkpt lat="37.7645172178745269775390625" lon="-107.7092630602419376373291015625">
        <ele>3702.800048828125</ele>
        <time>2023-07-29T14:15:18.000Z</time>
        <extensions>
          <ns3:TrackPointExtension>
            <ns3:hr>110</ns3:hr>
            <ns3:cad>0</ns3:cad>
          </ns3:TrackPointExtension>
        </extensions>
      </trkpt>
      <trkpt lat="37.7645200677216053009033203125" lon="-107.709266580641269683837890625">
        <ele>3703</ele>
        <time>2023-07-29T14:15:19.000Z</time>
        <extensions>
          <ns3:TrackPointExtension>
            <ns3:hr>110</ns3:hr>
            <ns3:cad>0</ns3:cad>
          </ns3:TrackPointExtension>
        </extensions>
      </trkpt>
      <trkpt lat="37.76452191174030303955078125" lon="-107.7092687599360942840576171875">
        <ele>3703.39990234375</ele>
        <time>2023-07-29T14:15:20.000Z</time>
        <extensions>
          <ns3:TrackPointExtension>
            <ns3:hr>110</ns3:hr>
            <ns3:cad>0</ns3:cad>
          </ns3:TrackPointExtension>
        </extensions>
      </trkpt>
      <trkpt lat="37.764522917568683624267578125" lon="-107.70927052013576030731201171875">
        <ele>3703.60009765625</ele>
        <time>2023-07-29T14:15:21.000Z</time>
        <extensions>
          <ns3:TrackPointExtension>
            <ns3:hr>111</ns3:hr>
            <ns3:cad>0</ns3:cad>
          </ns3:TrackPointExtension>
        </extensions>
      </trkpt>
      <trkpt lat="37.7645240910351276397705078125" lon="-107.7092747949063777923583984375">
        <ele>3703.800048828125</ele>
        <time>2023-07-29T14:15:22.000Z</time>
        <extensions>
          <ns3:TrackPointExtension>
            <ns3:hr>111</ns3:hr>
            <ns3:cad>0</ns3:cad>
          </ns3:TrackPointExtension>
        </extensions>
      </trkpt>
      <trkpt lat="37.764531634747982025146484375" lon="-107.7092794887721538543701171875">
        <ele>3703.800048828125</ele>
        <time>2023-07-29T14:15:23.000Z</time>
        <extensions>
          <ns3:TrackPointExtension>
            <ns3:hr>111</ns3:hr>
            <ns3:cad>0</ns3:cad>
          </ns3:TrackPointExtension>
        </extensions>
      </trkpt>
      <trkpt lat="37.764533646404743194580078125" lon="-107.70928191952407360076904296875">
        <ele>3703.800048828125</ele>
        <time>2023-07-29T14:15:24.000Z</time>
        <extensions>
          <ns3:TrackPointExtension>
            <ns3:hr>111</ns3:hr>
            <ns3:cad>0</ns3:cad>
          </ns3:TrackPointExtension>
        </extensions>
      </trkpt>
      <trkpt lat="37.764532305300235748291015625" lon="-107.70928896032273769378662109375">
        <ele>3704</ele>
        <time>2023-07-29T14:15:25.000Z</time>
        <extensions>
          <ns3:TrackPointExtension>
            <ns3:hr>111</ns3:hr>
            <ns3:cad>0</ns3:cad>
          </ns3:TrackPointExtension>
        </extensions>
      </trkpt>
      <trkpt lat="37.7645351551473140716552734375" lon="-107.70929482765495777130126953125">
        <ele>3704</ele>
        <time>2023-07-29T14:15:26.000Z</time>
        <extensions>
          <ns3:TrackPointExtension>
            <ns3:hr>111</ns3:hr>
            <ns3:cad>0</ns3:cad>
          </ns3:TrackPointExtension>
        </extensions>
      </trkpt>
      <trkpt lat="37.76454345323145389556884765625" lon="-107.70930044353008270263671875">
        <ele>3704.39990234375</ele>
        <time>2023-07-29T14:15:27.000Z</time>
        <extensions>
          <ns3:TrackPointExtension>
            <ns3:hr>111</ns3:hr>
            <ns3:cad>0</ns3:cad>
          </ns3:TrackPointExtension>
        </extensions>
      </trkpt>
      <trkpt lat="37.7645478956401348114013671875" lon="-107.7093042992055416107177734375">
        <ele>3704.39990234375</ele>
        <time>2023-07-29T14:15:28.000Z</time>
        <extensions>
          <ns3:TrackPointExtension>
            <ns3:hr>111</ns3:hr>
            <ns3:cad>0</ns3:cad>
          </ns3:TrackPointExtension>
        </extensions>
      </trkpt>
      <trkpt lat="37.764550410211086273193359375" lon="-107.70930488593876361846923828125">
        <ele>3704.60009765625</ele>
        <time>2023-07-29T14:15:29.000Z</time>
        <extensions>
          <ns3:TrackPointExtension>
            <ns3:hr>111</ns3:hr>
            <ns3:cad>0</ns3:cad>
          </ns3:TrackPointExtension>
        </extensions>
      </trkpt>
      <trkpt lat="37.7645502425730228424072265625" lon="-107.709304131567478179931640625">
        <ele>3704.60009765625</ele>
        <time>2023-07-29T14:15:30.000Z</time>
        <extensions>
          <ns3:TrackPointExtension>
            <ns3:hr>111</ns3:hr>
            <ns3:cad>0</ns3:cad>
          </ns3:TrackPointExtension>
        </extensions>
      </trkpt>
      <trkpt lat="37.7645542658865451812744140625" lon="-107.7093051373958587646484375">
        <ele>3705</ele>
        <time>2023-07-29T14:15:31.000Z</time>
        <extensions>
          <ns3:TrackPointExtension>
            <ns3:hr>111</ns3:hr>
            <ns3:cad>0</ns3:cad>
          </ns3:TrackPointExtension>
        </extensions>
      </trkpt>
      <trkpt lat="37.76455954648554325103759765625" lon="-107.70930714905261993408203125">
        <ele>3705.39990234375</ele>
        <time>2023-07-29T14:15:32.000Z</time>
        <extensions>
          <ns3:TrackPointExtension>
            <ns3:hr>111</ns3:hr>
            <ns3:cad>0</ns3:cad>
          </ns3:TrackPointExtension>
        </extensions>
      </trkpt>
      <trkpt lat="37.7645572833716869354248046875" lon="-107.7093056403100490570068359375">
        <ele>3705.60009765625</ele>
        <time>2023-07-29T14:15:33.000Z</time>
        <extensions>
          <ns3:TrackPointExtension>
            <ns3:hr>111</ns3:hr>
            <ns3:cad>0</ns3:cad>
          </ns3:TrackPointExtension>
        </extensions>
      </trkpt>
      <trkpt lat="37.76456692256033420562744140625" lon="-107.7093093283474445343017578125">
        <ele>3705.60009765625</ele>
        <time>2023-07-29T14:15:34.000Z</time>
        <extensions>
          <ns3:TrackPointExtension>
            <ns3:hr>110</ns3:hr>
            <ns3:cad>0</ns3:cad>
          </ns3:TrackPointExtension>
        </extensions>
      </trkpt>
      <trkpt lat="37.76457278989255428314208984375" lon="-107.7093093283474445343017578125">
        <ele>3705.800048828125</ele>
        <time>2023-07-29T14:15:35.000Z</time>
        <extensions>
          <ns3:TrackPointExtension>
            <ns3:hr>110</ns3:hr>
            <ns3:cad>0</ns3:cad>
          </ns3:TrackPointExtension>
        </extensions>
      </trkpt>
      <trkpt lat="37.76457916013896465301513671875" lon="-107.70930974744260311126708984375">
        <ele>3706.199951171875</ele>
        <time>2023-07-29T14:15:36.000Z</time>
        <extensions>
          <ns3:TrackPointExtension>
            <ns3:hr>110</ns3:hr>
            <ns3:cad>0</ns3:cad>
          </ns3:TrackPointExtension>
        </extensions>
      </trkpt>
      <trkpt lat="37.76457916013896465301513671875" lon="-107.70930924452841281890869140625">
        <ele>3706.199951171875</ele>
        <time>2023-07-29T14:15:37.000Z</time>
        <extensions>
          <ns3:TrackPointExtension>
            <ns3:hr>110</ns3:hr>
            <ns3:cad>0</ns3:cad>
          </ns3:TrackPointExtension>
        </extensions>
      </trkpt>
      <trkpt lat="37.76457899250090122222900390625" lon="-107.70930723287165164947509765625">
        <ele>3706.39990234375</ele>
        <time>2023-07-29T14:15:38.000Z</time>
        <extensions>
          <ns3:TrackPointExtension>
            <ns3:hr>111</ns3:hr>
            <ns3:cad>0</ns3:cad>
          </ns3:TrackPointExtension>
        </extensions>
      </trkpt>
      <trkpt lat="37.7645789086818695068359375" lon="-107.70930455066263675689697265625">
        <ele>3706.800048828125</ele>
        <time>2023-07-29T14:15:39.000Z</time>
        <extensions>
          <ns3:TrackPointExtension>
            <ns3:hr>113</ns3:hr>
            <ns3:cad>0</ns3:cad>
          </ns3:TrackPointExtension>
        </extensions>
      </trkpt>
      <trkpt lat="37.76457823812961578369140625" lon="-107.70930019207298755645751953125">
        <ele>3707</ele>
        <time>2023-07-29T14:15:40.000Z</time>
        <extensions>
          <ns3:TrackPointExtension>
            <ns3:hr>114</ns3:hr>
            <ns3:cad>0</ns3:cad>
          </ns3:TrackPointExtension>
        </extensions>
      </trkpt>
      <trkpt lat="37.76458184234797954559326171875" lon="-107.70929750986397266387939453125">
        <ele>3707</ele>
        <time>2023-07-29T14:15:41.000Z</time>
        <extensions>
          <ns3:TrackPointExtension>
            <ns3:hr>115</ns3:hr>
            <ns3:cad>0</ns3:cad>
          </ns3:TrackPointExtension>
        </extensions>
      </trkpt>
      <trkpt lat="37.764586620032787322998046875" lon="-107.70929616875946521759033203125">
        <ele>3707</ele>
        <time>2023-07-29T14:15:42.000Z</time>
        <extensions>
          <ns3:TrackPointExtension>
            <ns3:hr>115</ns3:hr>
            <ns3:cad>0</ns3:cad>
          </ns3:TrackPointExtension>
        </extensions>
      </trkpt>
      <trkpt lat="37.76458921842277050018310546875" lon="-107.70929298363626003265380859375">
        <ele>3707.199951171875</ele>
        <time>2023-07-29T14:15:43.000Z</time>
        <extensions>
          <ns3:TrackPointExtension>
            <ns3:hr>115</ns3:hr>
            <ns3:cad>0</ns3:cad>
          </ns3:TrackPointExtension>
        </extensions>
      </trkpt>
      <trkpt lat="37.76458787731826305389404296875" lon="-107.70929248072206974029541015625">
        <ele>3707.39990234375</ele>
        <time>2023-07-29T14:15:44.000Z</time>
        <extensions>
          <ns3:TrackPointExtension>
            <ns3:hr>115</ns3:hr>
            <ns3:cad>0</ns3:cad>
          </ns3:TrackPointExtension>
        </extensions>
      </trkpt>
      <trkpt lat="37.76459164917469024658203125" lon="-107.70929298363626003265380859375">
        <ele>3707.39990234375</ele>
        <time>2023-07-29T14:15:45.000Z</time>
        <extensions>
          <ns3:TrackPointExtension>
            <ns3:hr>115</ns3:hr>
            <ns3:cad>0</ns3:cad>
          </ns3:TrackPointExtension>
        </extensions>
      </trkpt>
      <trkpt lat="37.764596007764339447021484375" lon="-107.709295749664306640625">
        <ele>3707.39990234375</ele>
        <time>2023-07-29T14:15:46.000Z</time>
        <extensions>
          <ns3:TrackPointExtension>
            <ns3:hr>115</ns3:hr>
            <ns3:cad>0</ns3:cad>
          </ns3:TrackPointExtension>
        </extensions>
      </trkpt>
      <trkpt lat="37.76459860615432262420654296875" lon="-107.7092962525784969329833984375">
        <ele>3707.800048828125</ele>
        <time>2023-07-29T14:15:47.000Z</time>
        <extensions>
          <ns3:TrackPointExtension>
            <ns3:hr>115</ns3:hr>
            <ns3:cad>0</ns3:cad>
          </ns3:TrackPointExtension>
        </extensions>
      </trkpt>
      <trkpt lat="37.76459843851625919342041015625" lon="-107.70929901860654354095458984375">
        <ele>3708</ele>
        <time>2023-07-29T14:15:48.000Z</time>
        <extensions>
          <ns3:TrackPointExtension>
            <ns3:hr>114</ns3:hr>
            <ns3:cad>0</ns3:cad>
          </ns3:TrackPointExtension>
        </extensions>
      </trkpt>
      <trkpt lat="37.764598019421100616455078125" lon="-107.70930086262524127960205078125">
        <ele>3708.199951171875</ele>
        <time>2023-07-29T14:15:49.000Z</time>
        <extensions>
          <ns3:TrackPointExtension>
            <ns3:hr>114</ns3:hr>
            <ns3:cad>0</ns3:cad>
          </ns3:TrackPointExtension>
        </extensions>
      </trkpt>
      <trkpt lat="37.7646042220294475555419921875" lon="-107.70930170081555843353271484375">
        <ele>3708.199951171875</ele>
        <time>2023-07-29T14:15:50.000Z</time>
        <extensions>
          <ns3:TrackPointExtension>
            <ns3:hr>113</ns3:hr>
            <ns3:cad>0</ns3:cad>
          </ns3:TrackPointExtension>
        </extensions>
      </trkpt>
      <trkpt lat="37.7646084129810333251953125" lon="-107.7093053050339221954345703125">
        <ele>3708.39990234375</ele>
        <time>2023-07-29T14:15:51.000Z</time>
        <extensions>
          <ns3:TrackPointExtension>
            <ns3:hr>112</ns3:hr>
            <ns3:cad>0</ns3:cad>
          </ns3:TrackPointExtension>
        </extensions>
      </trkpt>
      <trkpt lat="37.76461184956133365631103515625" lon="-107.70930656231939792633056640625">
        <ele>3708.60009765625</ele>
        <time>2023-07-29T14:15:52.000Z</time>
        <extensions>
          <ns3:TrackPointExtension>
            <ns3:hr>112</ns3:hr>
            <ns3:cad>0</ns3:cad>
          </ns3:TrackPointExtension>
        </extensions>
      </trkpt>
      <trkpt lat="37.76460799388587474822998046875" lon="-107.70930941216647624969482421875">
        <ele>3709</ele>
        <time>2023-07-29T14:15:53.000Z</time>
        <extensions>
          <ns3:TrackPointExtension>
            <ns3:hr>113</ns3:hr>
            <ns3:cad>0</ns3:cad>
          </ns3:TrackPointExtension>
        </extensions>
      </trkpt>
      <trkpt lat="37.76460799388587474822998046875" lon="-107.70931477658450603485107421875">
        <ele>3709.199951171875</ele>
        <time>2023-07-29T14:15:54.000Z</time>
        <extensions>
          <ns3:TrackPointExtension>
            <ns3:hr>113</ns3:hr>
            <ns3:cad>0</ns3:cad>
          </ns3:TrackPointExtension>
        </extensions>
      </trkpt>
      <trkpt lat="37.7646095864474773406982421875" lon="-107.709321565926074981689453125">
        <ele>3709.199951171875</ele>
        <time>2023-07-29T14:15:55.000Z</time>
        <extensions>
          <ns3:TrackPointExtension>
            <ns3:hr>113</ns3:hr>
            <ns3:cad>0</ns3:cad>
          </ns3:TrackPointExtension>
        </extensions>
      </trkpt>
      <trkpt lat="37.76461578905582427978515625" lon="-107.70932902581989765167236328125">
        <ele>3709.199951171875</ele>
        <time>2023-07-29T14:15:56.000Z</time>
        <extensions>
          <ns3:TrackPointExtension>
            <ns3:hr>113</ns3:hr>
            <ns3:cad>0</ns3:cad>
          </ns3:TrackPointExtension>
        </extensions>
      </trkpt>
      <trkpt lat="37.7646126039326190948486328125" lon="-107.709322907030582427978515625">
        <ele>3709.39990234375</ele>
        <time>2023-07-29T14:15:57.000Z</time>
        <extensions>
          <ns3:TrackPointExtension>
            <ns3:hr>113</ns3:hr>
            <ns3:cad>0</ns3:cad>
          </ns3:TrackPointExtension>
        </extensions>
      </trkpt>
      <trkpt lat="37.76463163085281848907470703125" lon="-107.70934880711138248443603515625">
        <ele>3709.60009765625</ele>
        <time>2023-07-29T14:16:00.000Z</time>
        <extensions>
          <ns3:TrackPointExtension>
            <ns3:hr>113</ns3:hr>
            <ns3:cad>0</ns3:cad>
          </ns3:TrackPointExtension>
        </extensions>
      </trkpt>
      <trkpt lat="37.764631547033786773681640625" lon="-107.70935584791004657745361328125">
        <ele>3710</ele>
        <time>2023-07-29T14:16:01.000Z</time>
        <extensions>
          <ns3:TrackPointExtension>
            <ns3:hr>113</ns3:hr>
            <ns3:cad>0</ns3:cad>
          </ns3:TrackPointExtension>
        </extensions>
      </trkpt>
      <trkpt lat="37.7646370790898799896240234375" lon="-107.7093602903187274932861328125">
        <ele>3710.199951171875</ele>
        <time>2023-07-29T14:16:02.000Z</time>
        <extensions>
          <ns3:TrackPointExtension>
            <ns3:hr>113</ns3:hr>
            <ns3:cad>0</ns3:cad>
          </ns3:TrackPointExtension>
        </extensions>
      </trkpt>
      <trkpt lat="37.76463934220373630523681640625" lon="-107.70935869775712490081787109375">
        <ele>3710.199951171875</ele>
        <time>2023-07-29T14:16:03.000Z</time>
        <extensions>
          <ns3:TrackPointExtension>
            <ns3:hr>113</ns3:hr>
            <ns3:cad>0</ns3:cad>
          </ns3:TrackPointExtension>
        </extensions>
      </trkpt>
      <trkpt lat="37.76464336551725864410400390625" lon="-107.7093619666993618011474609375">
        <ele>3710.39990234375</ele>
        <time>2023-07-29T14:16:04.000Z</time>
        <extensions>
          <ns3:TrackPointExtension>
            <ns3:hr>113</ns3:hr>
            <ns3:cad>0</ns3:cad>
          </ns3:TrackPointExtension>
        </extensions>
      </trkpt>
      <trkpt lat="37.7646491490304470062255859375" lon="-107.70936791785061359405517578125">
        <ele>3710.60009765625</ele>
        <time>2023-07-29T14:16:05.000Z</time>
        <extensions>
          <ns3:TrackPointExtension>
            <ns3:hr>113</ns3:hr>
            <ns3:cad>0</ns3:cad>
          </ns3:TrackPointExtension>
        </extensions>
      </trkpt>
      <trkpt lat="37.76465124450623989105224609375" lon="-107.70938065834343433380126953125">
        <ele>3710.800048828125</ele>
        <time>2023-07-29T14:16:06.000Z</time>
        <extensions>
          <ns3:TrackPointExtension>
            <ns3:hr>113</ns3:hr>
            <ns3:cad>0</ns3:cad>
          </ns3:TrackPointExtension>
        </extensions>
      </trkpt>
      <trkpt lat="37.764653675258159637451171875" lon="-107.7093840949237346649169921875">
        <ele>3711.199951171875</ele>
        <time>2023-07-29T14:16:07.000Z</time>
        <extensions>
          <ns3:TrackPointExtension>
            <ns3:hr>113</ns3:hr>
            <ns3:cad>0</ns3:cad>
          </ns3:TrackPointExtension>
        </extensions>
      </trkpt>
      <trkpt lat="37.76465644128620624542236328125" lon="-107.70938417874276638031005859375">
        <ele>3711.39990234375</ele>
        <time>2023-07-29T14:16:08.000Z</time>
        <extensions>
          <ns3:TrackPointExtension>
            <ns3:hr>113</ns3:hr>
            <ns3:cad>0</ns3:cad>
          </ns3:TrackPointExtension>
        </extensions>
      </trkpt>
      <trkpt lat="37.76465912349522113800048828125" lon="-107.70938300527632236480712890625">
        <ele>3711.39990234375</ele>
        <time>2023-07-29T14:16:09.000Z</time>
        <extensions>
          <ns3:TrackPointExtension>
            <ns3:hr>113</ns3:hr>
            <ns3:cad>0</ns3:cad>
          </ns3:TrackPointExtension>
        </extensions>
      </trkpt>
      <trkpt lat="37.76465711183845996856689453125" lon="-107.70938468165695667266845703125">
        <ele>3711.60009765625</ele>
        <time>2023-07-29T14:16:10.000Z</time>
        <extensions>
          <ns3:TrackPointExtension>
            <ns3:hr>113</ns3:hr>
            <ns3:cad>0</ns3:cad>
          </ns3:TrackPointExtension>
        </extensions>
      </trkpt>
      <trkpt lat="37.76465124450623989105224609375" lon="-107.7093847654759883880615234375">
        <ele>3711.800048828125</ele>
        <time>2023-07-29T14:16:11.000Z</time>
        <extensions>
          <ns3:TrackPointExtension>
            <ns3:hr>113</ns3:hr>
            <ns3:cad>0</ns3:cad>
          </ns3:TrackPointExtension>
        </extensions>
      </trkpt>
      <trkpt lat="37.7646511606872081756591796875" lon="-107.70938082598149776458740234375">
        <ele>3711.800048828125</ele>
        <time>2023-07-29T14:16:12.000Z</time>
        <extensions>
          <ns3:TrackPointExtension>
            <ns3:hr>113</ns3:hr>
            <ns3:cad>0</ns3:cad>
          </ns3:TrackPointExtension>
        </extensions>
      </trkpt>
      <trkpt lat="37.764653675258159637451171875" lon="-107.70938384346663951873779296875">
        <ele>3712</ele>
        <time>2023-07-29T14:16:13.000Z</time>
        <extensions>
          <ns3:TrackPointExtension>
            <ns3:hr>113</ns3:hr>
            <ns3:cad>0</ns3:cad>
          </ns3:TrackPointExtension>
        </extensions>
      </trkpt>
      <trkpt lat="37.76465526781976222991943359375" lon="-107.7093847654759883880615234375">
        <ele>3712</ele>
        <time>2023-07-29T14:16:14.000Z</time>
        <extensions>
          <ns3:TrackPointExtension>
            <ns3:hr>113</ns3:hr>
            <ns3:cad>0</ns3:cad>
          </ns3:TrackPointExtension>
        </extensions>
      </trkpt>
      <trkpt lat="37.764659039676189422607421875" lon="-107.70938535220921039581298828125">
        <ele>3712.199951171875</ele>
        <time>2023-07-29T14:16:15.000Z</time>
        <extensions>
          <ns3:TrackPointExtension>
            <ns3:hr>113</ns3:hr>
            <ns3:cad>0</ns3:cad>
          </ns3:TrackPointExtension>
        </extensions>
      </trkpt>
      <trkpt lat="37.76466297917068004608154296875" lon="-107.709389291703701019287109375">
        <ele>3712.199951171875</ele>
        <time>2023-07-29T14:16:16.000Z</time>
        <extensions>
          <ns3:TrackPointExtension>
            <ns3:hr>113</ns3:hr>
            <ns3:cad>0</ns3:cad>
          </ns3:TrackPointExtension>
        </extensions>
      </trkpt>
      <trkpt lat="37.76466834358870983123779296875" lon="-107.70939323119819164276123046875">
        <ele>3712.39990234375</ele>
        <time>2023-07-29T14:16:17.000Z</time>
        <extensions>
          <ns3:TrackPointExtension>
            <ns3:hr>113</ns3:hr>
            <ns3:cad>0</ns3:cad>
          </ns3:TrackPointExtension>
        </extensions>
      </trkpt>
      <trkpt lat="37.76467890478670597076416015625" lon="-107.70939742214977741241455078125">
        <ele>3712.60009765625</ele>
        <time>2023-07-29T14:16:18.000Z</time>
        <extensions>
          <ns3:TrackPointExtension>
            <ns3:hr>113</ns3:hr>
            <ns3:cad>0</ns3:cad>
          </ns3:TrackPointExtension>
        </extensions>
      </trkpt>
      <trkpt lat="37.76468686759471893310546875" lon="-107.7093981765210628509521484375">
        <ele>3712.800048828125</ele>
        <time>2023-07-29T14:16:19.000Z</time>
        <extensions>
          <ns3:TrackPointExtension>
            <ns3:hr>114</ns3:hr>
            <ns3:cad>0</ns3:cad>
          </ns3:TrackPointExtension>
        </extensions>
      </trkpt>
      <trkpt lat="37.7646915614604949951171875" lon="-107.70939557813107967376708984375">
        <ele>3713</ele>
        <time>2023-07-29T14:16:20.000Z</time>
        <extensions>
          <ns3:TrackPointExtension>
            <ns3:hr>114</ns3:hr>
            <ns3:cad>0</ns3:cad>
          </ns3:TrackPointExtension>
        </extensions>
      </trkpt>
      <trkpt lat="37.76469449512660503387451171875" lon="-107.70939675159752368927001953125">
        <ele>3713</ele>
        <time>2023-07-29T14:16:21.000Z</time>
        <extensions>
          <ns3:TrackPointExtension>
            <ns3:hr>114</ns3:hr>
            <ns3:cad>0</ns3:cad>
          </ns3:TrackPointExtension>
        </extensions>
      </trkpt>
      <trkpt lat="37.7646991051733493804931640625" lon="-107.70939708687365055084228515625">
        <ele>3713.199951171875</ele>
        <time>2023-07-29T14:16:22.000Z</time>
        <extensions>
          <ns3:TrackPointExtension>
            <ns3:hr>114</ns3:hr>
            <ns3:cad>0</ns3:cad>
          </ns3:TrackPointExtension>
        </extensions>
      </trkpt>
      <trkpt lat="37.7646942436695098876953125" lon="-107.7093911357223987579345703125">
        <ele>3713.39990234375</ele>
        <time>2023-07-29T14:16:23.000Z</time>
        <extensions>
          <ns3:TrackPointExtension>
            <ns3:hr>114</ns3:hr>
            <ns3:cad>0</ns3:cad>
          </ns3:TrackPointExtension>
        </extensions>
      </trkpt>
      <trkpt lat="37.76469223201274871826171875" lon="-107.70938895642757415771484375">
        <ele>3713.60009765625</ele>
        <time>2023-07-29T14:16:24.000Z</time>
        <extensions>
          <ns3:TrackPointExtension>
            <ns3:hr>114</ns3:hr>
            <ns3:cad>0</ns3:cad>
          </ns3:TrackPointExtension>
        </extensions>
      </trkpt>
      <trkpt lat="37.76468460448086261749267578125" lon="-107.7093877829611301422119140625">
        <ele>3713.800048828125</ele>
        <time>2023-07-29T14:16:25.000Z</time>
        <extensions>
          <ns3:TrackPointExtension>
            <ns3:hr>114</ns3:hr>
            <ns3:cad>0</ns3:cad>
          </ns3:TrackPointExtension>
        </extensions>
      </trkpt>
      <trkpt lat="37.76468686759471893310546875" lon="-107.7093829214572906494140625">
        <ele>3714</ele>
        <time>2023-07-29T14:16:26.000Z</time>
        <extensions>
          <ns3:TrackPointExtension>
            <ns3:hr>114</ns3:hr>
            <ns3:cad>0</ns3:cad>
          </ns3:TrackPointExtension>
        </extensions>
      </trkpt>
      <trkpt lat="37.76468678377568721771240234375" lon="-107.709381580352783203125">
        <ele>3714</ele>
        <time>2023-07-29T14:16:27.000Z</time>
        <extensions>
          <ns3:TrackPointExtension>
            <ns3:hr>115</ns3:hr>
            <ns3:cad>0</ns3:cad>
          </ns3:TrackPointExtension>
        </extensions>
      </trkpt>
      <trkpt lat="37.7646980993449687957763671875" lon="-107.70935542881488800048828125">
        <ele>3714.199951171875</ele>
        <time>2023-07-29T14:16:28.000Z</time>
        <extensions>
          <ns3:TrackPointExtension>
            <ns3:hr>116</ns3:hr>
            <ns3:cad>0</ns3:cad>
          </ns3:TrackPointExtension>
        </extensions>
      </trkpt>
      <trkpt lat="37.76470203883945941925048828125" lon="-107.709375210106372833251953125">
        <ele>3715.199951171875</ele>
        <time>2023-07-29T14:16:33.000Z</time>
        <extensions>
          <ns3:TrackPointExtension>
            <ns3:hr>117</ns3:hr>
            <ns3:cad>0</ns3:cad>
          </ns3:TrackPointExtension>
        </extensions>
      </trkpt>
      <trkpt lat="37.7647034637629985809326171875" lon="-107.70938049070537090301513671875">
        <ele>3715.199951171875</ele>
        <time>2023-07-29T14:16:34.000Z</time>
        <extensions>
          <ns3:TrackPointExtension>
            <ns3:hr>117</ns3:hr>
            <ns3:cad>0</ns3:cad>
          </ns3:TrackPointExtension>
        </extensions>
      </trkpt>
      <trkpt lat="37.7647011168301105499267578125" lon="-107.7093856036663055419921875">
        <ele>3715.39990234375</ele>
        <time>2023-07-29T14:16:35.000Z</time>
        <extensions>
          <ns3:TrackPointExtension>
            <ns3:hr>117</ns3:hr>
            <ns3:cad>0</ns3:cad>
          </ns3:TrackPointExtension>
        </extensions>
      </trkpt>
      <trkpt lat="37.764703296124935150146484375" lon="-107.70939172245562076568603515625">
        <ele>3715.39990234375</ele>
        <time>2023-07-29T14:16:36.000Z</time>
        <extensions>
          <ns3:TrackPointExtension>
            <ns3:hr>117</ns3:hr>
            <ns3:cad>0</ns3:cad>
          </ns3:TrackPointExtension>
        </extensions>
      </trkpt>
      <trkpt lat="37.76470363140106201171875" lon="-107.70939457230269908905029296875">
        <ele>3715.39990234375</ele>
        <time>2023-07-29T14:16:37.000Z</time>
        <extensions>
          <ns3:TrackPointExtension>
            <ns3:hr>117</ns3:hr>
            <ns3:cad>0</ns3:cad>
          </ns3:TrackPointExtension>
        </extensions>
      </trkpt>
      <trkpt lat="37.76471025310456752777099609375" lon="-107.70940144546329975128173828125">
        <ele>3715.60009765625</ele>
        <time>2023-07-29T14:16:38.000Z</time>
        <extensions>
          <ns3:TrackPointExtension>
            <ns3:hr>118</ns3:hr>
            <ns3:cad>0</ns3:cad>
          </ns3:TrackPointExtension>
        </extensions>
      </trkpt>
      <trkpt lat="37.7647125162184238433837890625" lon="-107.709401361644268035888671875">
        <ele>3715.60009765625</ele>
        <time>2023-07-29T14:16:39.000Z</time>
        <extensions>
          <ns3:TrackPointExtension>
            <ns3:hr>117</ns3:hr>
            <ns3:cad>0</ns3:cad>
          </ns3:TrackPointExtension>
        </extensions>
      </trkpt>
      <trkpt lat="37.76470539160072803497314453125" lon="-107.70941502414643764495849609375">
        <ele>3715.800048828125</ele>
        <time>2023-07-29T14:16:40.000Z</time>
        <extensions>
          <ns3:TrackPointExtension>
            <ns3:hr>117</ns3:hr>
            <ns3:cad>0</ns3:cad>
          </ns3:TrackPointExtension>
        </extensions>
      </trkpt>
      <trkpt lat="37.7647292800247669219970703125" lon="-107.70939541049301624298095703125">
        <ele>3716</ele>
        <time>2023-07-29T14:16:45.000Z</time>
        <extensions>
          <ns3:TrackPointExtension>
            <ns3:hr>116</ns3:hr>
            <ns3:cad>0</ns3:cad>
          </ns3:TrackPointExtension>
        </extensions>
      </trkpt>
      <trkpt lat="37.7647369913756847381591796875" lon="-107.70940278656780719757080078125">
        <ele>3716.199951171875</ele>
        <time>2023-07-29T14:16:46.000Z</time>
        <extensions>
          <ns3:TrackPointExtension>
            <ns3:hr>116</ns3:hr>
            <ns3:cad>0</ns3:cad>
          </ns3:TrackPointExtension>
        </extensions>
      </trkpt>
      <trkpt lat="37.76474185287952423095703125" lon="-107.70939960144460201263427734375">
        <ele>3716.39990234375</ele>
        <time>2023-07-29T14:16:47.000Z</time>
        <extensions>
          <ns3:TrackPointExtension>
            <ns3:hr>116</ns3:hr>
            <ns3:cad>0</ns3:cad>
          </ns3:TrackPointExtension>
        </extensions>
      </trkpt>
      <trkpt lat="37.764743864536285400390625" lon="-107.709398679435253143310546875">
        <ele>3716.60009765625</ele>
        <time>2023-07-29T14:16:48.000Z</time>
        <extensions>
          <ns3:TrackPointExtension>
            <ns3:hr>116</ns3:hr>
            <ns3:cad>0</ns3:cad>
          </ns3:TrackPointExtension>
        </extensions>
      </trkpt>
      <trkpt lat="37.76474361307919025421142578125" lon="-107.70939943380653858184814453125">
        <ele>3716.800048828125</ele>
        <time>2023-07-29T14:16:49.000Z</time>
        <extensions>
          <ns3:TrackPointExtension>
            <ns3:hr>115</ns3:hr>
            <ns3:cad>0</ns3:cad>
          </ns3:TrackPointExtension>
        </extensions>
      </trkpt>
      <trkpt lat="37.76474327780306339263916015625" lon="-107.70939708687365055084228515625">
        <ele>3717</ele>
        <time>2023-07-29T14:16:50.000Z</time>
        <extensions>
          <ns3:TrackPointExtension>
            <ns3:hr>115</ns3:hr>
            <ns3:cad>0</ns3:cad>
          </ns3:TrackPointExtension>
        </extensions>
      </trkpt>
      <trkpt lat="37.76474260725080966949462890625" lon="-107.70939256064593791961669921875">
        <ele>3717.199951171875</ele>
        <time>2023-07-29T14:16:51.000Z</time>
        <extensions>
          <ns3:TrackPointExtension>
            <ns3:hr>115</ns3:hr>
            <ns3:cad>0</ns3:cad>
          </ns3:TrackPointExtension>
        </extensions>
      </trkpt>
      <trkpt lat="37.764740847051143646240234375" lon="-107.709390632808208465576171875">
        <ele>3717.39990234375</ele>
        <time>2023-07-29T14:16:52.000Z</time>
        <extensions>
          <ns3:TrackPointExtension>
            <ns3:hr>115</ns3:hr>
            <ns3:cad>0</ns3:cad>
          </ns3:TrackPointExtension>
        </extensions>
      </trkpt>
      <trkpt lat="37.76474579237401485443115234375" lon="-107.7093931473791599273681640625">
        <ele>3717.39990234375</ele>
        <time>2023-07-29T14:16:53.000Z</time>
        <extensions>
          <ns3:TrackPointExtension>
            <ns3:hr>115</ns3:hr>
            <ns3:cad>0</ns3:cad>
          </ns3:TrackPointExtension>
        </extensions>
      </trkpt>
      <trkpt lat="37.76474813930690288543701171875" lon="-107.709397338330745697021484375">
        <ele>3717.60009765625</ele>
        <time>2023-07-29T14:16:54.000Z</time>
        <extensions>
          <ns3:TrackPointExtension>
            <ns3:hr>115</ns3:hr>
            <ns3:cad>0</ns3:cad>
          </ns3:TrackPointExtension>
        </extensions>
      </trkpt>
      <trkpt lat="37.7647478878498077392578125" lon="-107.7094070613384246826171875">
        <ele>3717.800048828125</ele>
        <time>2023-07-29T14:16:55.000Z</time>
        <extensions>
          <ns3:TrackPointExtension>
            <ns3:hr>115</ns3:hr>
            <ns3:cad>0</ns3:cad>
          </ns3:TrackPointExtension>
        </extensions>
      </trkpt>
      <trkpt lat="37.76474528945982456207275390625" lon="-107.7094152756035327911376953125">
        <ele>3717.800048828125</ele>
        <time>2023-07-29T14:16:56.000Z</time>
        <extensions>
          <ns3:TrackPointExtension>
            <ns3:hr>115</ns3:hr>
            <ns3:cad>0</ns3:cad>
          </ns3:TrackPointExtension>
        </extensions>
      </trkpt>
      <trkpt lat="37.7647396735846996307373046875" lon="-107.7094229869544506072998046875">
        <ele>3717.800048828125</ele>
        <time>2023-07-29T14:16:57.000Z</time>
        <extensions>
          <ns3:TrackPointExtension>
            <ns3:hr>115</ns3:hr>
            <ns3:cad>0</ns3:cad>
          </ns3:TrackPointExtension>
        </extensions>
      </trkpt>
      <trkpt lat="37.7647326327860355377197265625" lon="-107.7094390802085399627685546875">
        <ele>3718.199951171875</ele>
        <time>2023-07-29T14:16:58.000Z</time>
        <extensions>
          <ns3:TrackPointExtension>
            <ns3:hr>115</ns3:hr>
            <ns3:cad>0</ns3:cad>
          </ns3:TrackPointExtension>
        </extensions>
      </trkpt>
      <trkpt lat="37.7647316269576549530029296875" lon="-107.70944369025528430938720703125">
        <ele>3718.39990234375</ele>
        <time>2023-07-29T14:16:59.000Z</time>
        <extensions>
          <ns3:TrackPointExtension>
            <ns3:hr>115</ns3:hr>
            <ns3:cad>0</ns3:cad>
          </ns3:TrackPointExtension>
        </extensions>
      </trkpt>
      <trkpt lat="37.764729447662830352783203125" lon="-107.70944721065461635589599609375">
        <ele>3718.39990234375</ele>
        <time>2023-07-29T14:17:00.000Z</time>
        <extensions>
          <ns3:TrackPointExtension>
            <ns3:hr>115</ns3:hr>
            <ns3:cad>0</ns3:cad>
          </ns3:TrackPointExtension>
        </extensions>
      </trkpt>
      <trkpt lat="37.764727436006069183349609375" lon="-107.70944586955010890960693359375">
        <ele>3718.60009765625</ele>
        <time>2023-07-29T14:17:01.000Z</time>
        <extensions>
          <ns3:TrackPointExtension>
            <ns3:hr>116</ns3:hr>
            <ns3:cad>0</ns3:cad>
          </ns3:TrackPointExtension>
        </extensions>
      </trkpt>
      <trkpt lat="37.76472684927284717559814453125" lon="-107.7094444446265697479248046875">
        <ele>3718.800048828125</ele>
        <time>2023-07-29T14:17:02.000Z</time>
        <extensions>
          <ns3:TrackPointExtension>
            <ns3:hr>116</ns3:hr>
            <ns3:cad>0</ns3:cad>
          </ns3:TrackPointExtension>
        </extensions>
      </trkpt>
      <trkpt lat="37.76472869329154491424560546875" lon="-107.70944888703525066375732421875">
        <ele>3719</ele>
        <time>2023-07-29T14:17:03.000Z</time>
        <extensions>
          <ns3:TrackPointExtension>
            <ns3:hr>116</ns3:hr>
            <ns3:cad>0</ns3:cad>
          </ns3:TrackPointExtension>
        </extensions>
      </trkpt>
      <trkpt lat="37.7647339738905429840087890625" lon="-107.70944989286363124847412109375">
        <ele>3719</ele>
        <time>2023-07-29T14:17:04.000Z</time>
        <extensions>
          <ns3:TrackPointExtension>
            <ns3:hr>115</ns3:hr>
            <ns3:cad>0</ns3:cad>
          </ns3:TrackPointExtension>
        </extensions>
      </trkpt>
      <trkpt lat="37.76473640464246273040771484375" lon="-107.709452994167804718017578125">
        <ele>3719.199951171875</ele>
        <time>2023-07-29T14:17:05.000Z</time>
        <extensions>
          <ns3:TrackPointExtension>
            <ns3:hr>115</ns3:hr>
            <ns3:cad>0</ns3:cad>
          </ns3:TrackPointExtension>
        </extensions>
      </trkpt>
      <trkpt lat="37.76474185287952423095703125" lon="-107.70945307798683643341064453125">
        <ele>3719.39990234375</ele>
        <time>2023-07-29T14:17:06.000Z</time>
        <extensions>
          <ns3:TrackPointExtension>
            <ns3:hr>115</ns3:hr>
            <ns3:cad>0</ns3:cad>
          </ns3:TrackPointExtension>
        </extensions>
      </trkpt>
      <trkpt lat="37.76474478654563426971435546875" lon="-107.7094531618058681488037109375">
        <ele>3719.60009765625</ele>
        <time>2023-07-29T14:17:07.000Z</time>
        <extensions>
          <ns3:TrackPointExtension>
            <ns3:hr>115</ns3:hr>
            <ns3:cad>0</ns3:cad>
          </ns3:TrackPointExtension>
        </extensions>
      </trkpt>
      <trkpt lat="37.76474713347852230072021484375" lon="-107.70945240743458271026611328125">
        <ele>3719.800048828125</ele>
        <time>2023-07-29T14:17:08.000Z</time>
        <extensions>
          <ns3:TrackPointExtension>
            <ns3:hr>114</ns3:hr>
            <ns3:cad>0</ns3:cad>
          </ns3:TrackPointExtension>
        </extensions>
      </trkpt>
      <trkpt lat="37.76475115679204463958740234375" lon="-107.709457017481327056884765625">
        <ele>3719.800048828125</ele>
        <time>2023-07-29T14:17:09.000Z</time>
        <extensions>
          <ns3:TrackPointExtension>
            <ns3:hr>115</ns3:hr>
            <ns3:cad>0</ns3:cad>
          </ns3:TrackPointExtension>
        </extensions>
      </trkpt>
      <trkpt lat="37.764752246439456939697265625" lon="-107.70946045406162738800048828125">
        <ele>3720</ele>
        <time>2023-07-29T14:17:10.000Z</time>
        <extensions>
          <ns3:TrackPointExtension>
            <ns3:hr>115</ns3:hr>
            <ns3:cad>0</ns3:cad>
          </ns3:TrackPointExtension>
        </extensions>
      </trkpt>
      <trkpt lat="37.7647537551820278167724609375" lon="-107.7094628848135471343994140625">
        <ele>3720.199951171875</ele>
        <time>2023-07-29T14:17:11.000Z</time>
        <extensions>
          <ns3:TrackPointExtension>
            <ns3:hr>115</ns3:hr>
            <ns3:cad>0</ns3:cad>
          </ns3:TrackPointExtension>
        </extensions>
      </trkpt>
      <trkpt lat="37.76475233025848865509033203125" lon="-107.70946430973708629608154296875">
        <ele>3720.199951171875</ele>
        <time>2023-07-29T14:17:12.000Z</time>
        <extensions>
          <ns3:TrackPointExtension>
            <ns3:hr>114</ns3:hr>
            <ns3:cad>0</ns3:cad>
          </ns3:TrackPointExtension>
        </extensions>
      </trkpt>
      <trkpt lat="37.76475199498236179351806640625" lon="-107.70946380682289600372314453125">
        <ele>3720.60009765625</ele>
        <time>2023-07-29T14:17:13.000Z</time>
        <extensions>
          <ns3:TrackPointExtension>
            <ns3:hr>114</ns3:hr>
            <ns3:cad>0</ns3:cad>
          </ns3:TrackPointExtension>
        </extensions>
      </trkpt>
      <trkpt lat="37.76475124061107635498046875" lon="-107.70946648903191089630126953125">
        <ele>3720.800048828125</ele>
        <time>2023-07-29T14:17:14.000Z</time>
        <extensions>
          <ns3:TrackPointExtension>
            <ns3:hr>114</ns3:hr>
            <ns3:cad>0</ns3:cad>
          </ns3:TrackPointExtension>
        </extensions>
      </trkpt>
      <trkpt lat="37.7647540904581546783447265625" lon="-107.70946682430803775787353515625">
        <ele>3720.800048828125</ele>
        <time>2023-07-29T14:17:15.000Z</time>
        <extensions>
          <ns3:TrackPointExtension>
            <ns3:hr>114</ns3:hr>
            <ns3:cad>0</ns3:cad>
          </ns3:TrackPointExtension>
        </extensions>
      </trkpt>
      <trkpt lat="37.7647571079432964324951171875" lon="-107.7094622142612934112548828125">
        <ele>3721.199951171875</ele>
        <time>2023-07-29T14:17:16.000Z</time>
        <extensions>
          <ns3:TrackPointExtension>
            <ns3:hr>114</ns3:hr>
            <ns3:cad>0</ns3:cad>
          </ns3:TrackPointExtension>
        </extensions>
      </trkpt>
      <trkpt lat="37.76476054452359676361083984375" lon="-107.70945894531905651092529296875">
        <ele>3721.199951171875</ele>
        <time>2023-07-29T14:17:17.000Z</time>
        <extensions>
          <ns3:TrackPointExtension>
            <ns3:hr>114</ns3:hr>
            <ns3:cad>0</ns3:cad>
          </ns3:TrackPointExtension>
        </extensions>
      </trkpt>
      <trkpt lat="37.764762304723262786865234375" lon="-107.7094514854252338409423828125">
        <ele>3721.39990234375</ele>
        <time>2023-07-29T14:17:18.000Z</time>
        <extensions>
          <ns3:TrackPointExtension>
            <ns3:hr>114</ns3:hr>
            <ns3:cad>0</ns3:cad>
          </ns3:TrackPointExtension>
        </extensions>
      </trkpt>
      <trkpt lat="37.76476473547518253326416015625" lon="-107.70944603718817234039306640625">
        <ele>3721.39990234375</ele>
        <time>2023-07-29T14:17:19.000Z</time>
        <extensions>
          <ns3:TrackPointExtension>
            <ns3:hr>114</ns3:hr>
            <ns3:cad>0</ns3:cad>
          </ns3:TrackPointExtension>
        </extensions>
      </trkpt>
      <trkpt lat="37.7647685073316097259521484375" lon="-107.70943866111338138580322265625">
        <ele>3721.60009765625</ele>
        <time>2023-07-29T14:17:20.000Z</time>
        <extensions>
          <ns3:TrackPointExtension>
            <ns3:hr>114</ns3:hr>
            <ns3:cad>0</ns3:cad>
          </ns3:TrackPointExtension>
        </extensions>
      </trkpt>
      <trkpt lat="37.764770686626434326171875" lon="-107.7094312012195587158203125">
        <ele>3721.60009765625</ele>
        <time>2023-07-29T14:17:21.000Z</time>
        <extensions>
          <ns3:TrackPointExtension>
            <ns3:hr>114</ns3:hr>
            <ns3:cad>0</ns3:cad>
          </ns3:TrackPointExtension>
        </extensions>
      </trkpt>
      <trkpt lat="37.7647772245109081268310546875" lon="-107.70942189730703830718994140625">
        <ele>3721.800048828125</ele>
        <time>2023-07-29T14:17:22.000Z</time>
        <extensions>
          <ns3:TrackPointExtension>
            <ns3:hr>114</ns3:hr>
            <ns3:cad>0</ns3:cad>
          </ns3:TrackPointExtension>
        </extensions>
      </trkpt>
      <trkpt lat="37.76478854008018970489501953125" lon="-107.709411084651947021484375">
        <ele>3722</ele>
        <time>2023-07-29T14:17:23.000Z</time>
        <extensions>
          <ns3:TrackPointExtension>
            <ns3:hr>114</ns3:hr>
            <ns3:cad>0</ns3:cad>
          </ns3:TrackPointExtension>
        </extensions>
      </trkpt>
      <trkpt lat="37.76479373686015605926513671875" lon="-107.70940764807164669036865234375">
        <ele>3722</ele>
        <time>2023-07-29T14:17:24.000Z</time>
        <extensions>
          <ns3:TrackPointExtension>
            <ns3:hr>114</ns3:hr>
            <ns3:cad>0</ns3:cad>
          </ns3:TrackPointExtension>
        </extensions>
      </trkpt>
      <trkpt lat="37.76480496861040592193603515625" lon="-107.70940178073942661285400390625">
        <ele>3722.199951171875</ele>
        <time>2023-07-29T14:17:25.000Z</time>
        <extensions>
          <ns3:TrackPointExtension>
            <ns3:hr>114</ns3:hr>
            <ns3:cad>0</ns3:cad>
          </ns3:TrackPointExtension>
        </extensions>
      </trkpt>
      <trkpt lat="37.7648090757429599761962890625" lon="-107.7094008587300777435302734375">
        <ele>3722.39990234375</ele>
        <time>2023-07-29T14:17:26.000Z</time>
        <extensions>
          <ns3:TrackPointExtension>
            <ns3:hr>114</ns3:hr>
            <ns3:cad>0</ns3:cad>
          </ns3:TrackPointExtension>
        </extensions>
      </trkpt>
      <trkpt lat="37.764811255037784576416015625" lon="-107.70940295420587062835693359375">
        <ele>3722.39990234375</ele>
        <time>2023-07-29T14:17:27.000Z</time>
        <extensions>
          <ns3:TrackPointExtension>
            <ns3:hr>114</ns3:hr>
            <ns3:cad>0</ns3:cad>
          </ns3:TrackPointExtension>
        </extensions>
      </trkpt>
      <trkpt lat="37.764809243381023406982421875" lon="-107.7094135992228984832763671875">
        <ele>3722.60009765625</ele>
        <time>2023-07-29T14:17:28.000Z</time>
        <extensions>
          <ns3:TrackPointExtension>
            <ns3:hr>114</ns3:hr>
            <ns3:cad>0</ns3:cad>
          </ns3:TrackPointExtension>
        </extensions>
      </trkpt>
      <trkpt lat="37.764811255037784576416015625" lon="-107.70942592062056064605712890625">
        <ele>3722.60009765625</ele>
        <time>2023-07-29T14:17:29.000Z</time>
        <extensions>
          <ns3:TrackPointExtension>
            <ns3:hr>114</ns3:hr>
            <ns3:cad>0</ns3:cad>
          </ns3:TrackPointExtension>
        </extensions>
      </trkpt>
      <trkpt lat="37.7648221515119075775146484375" lon="-107.70936087705194950103759765625">
        <ele>3722.60009765625</ele>
        <time>2023-07-29T14:17:30.000Z</time>
        <extensions>
          <ns3:TrackPointExtension>
            <ns3:hr>114</ns3:hr>
            <ns3:cad>0</ns3:cad>
          </ns3:TrackPointExtension>
        </extensions>
      </trkpt>
      <trkpt lat="37.76482424698770046234130859375" lon="-107.70944084040820598602294921875">
        <ele>3723.800048828125</ele>
        <time>2023-07-29T14:17:37.000Z</time>
        <extensions>
          <ns3:TrackPointExtension>
            <ns3:hr>113</ns3:hr>
            <ns3:cad>0</ns3:cad>
          </ns3:TrackPointExtension>
        </extensions>
      </trkpt>
      <trkpt lat="37.76482223533093929290771484375" lon="-107.70946246571838855743408203125">
        <ele>3724</ele>
        <time>2023-07-29T14:17:38.000Z</time>
        <extensions>
          <ns3:TrackPointExtension>
            <ns3:hr>113</ns3:hr>
            <ns3:cad>0</ns3:cad>
          </ns3:TrackPointExtension>
        </extensions>
      </trkpt>
      <trkpt lat="37.764818631112575531005859375" lon="-107.70947922952473163604736328125">
        <ele>3724.199951171875</ele>
        <time>2023-07-29T14:17:39.000Z</time>
        <extensions>
          <ns3:TrackPointExtension>
            <ns3:hr>113</ns3:hr>
            <ns3:cad>0</ns3:cad>
          </ns3:TrackPointExtension>
        </extensions>
      </trkpt>
      <trkpt lat="37.76482164859771728515625" lon="-107.70948350429534912109375">
        <ele>3724.199951171875</ele>
        <time>2023-07-29T14:17:40.000Z</time>
        <extensions>
          <ns3:TrackPointExtension>
            <ns3:hr>113</ns3:hr>
            <ns3:cad>0</ns3:cad>
          </ns3:TrackPointExtension>
        </extensions>
      </trkpt>
      <trkpt lat="37.76482709683477878570556640625" lon="-107.709491886198520660400390625">
        <ele>3724.39990234375</ele>
        <time>2023-07-29T14:17:41.000Z</time>
        <extensions>
          <ns3:TrackPointExtension>
            <ns3:hr>112</ns3:hr>
            <ns3:cad>0</ns3:cad>
          </ns3:TrackPointExtension>
        </extensions>
      </trkpt>
      <trkpt lat="37.76483170688152313232421875" lon="-107.70949532277882099151611328125">
        <ele>3724.39990234375</ele>
        <time>2023-07-29T14:17:42.000Z</time>
        <extensions>
          <ns3:TrackPointExtension>
            <ns3:hr>112</ns3:hr>
            <ns3:cad>0</ns3:cad>
          </ns3:TrackPointExtension>
        </extensions>
      </trkpt>
      <trkpt lat="37.76483438909053802490234375" lon="-107.70949867554008960723876953125">
        <ele>3724.800048828125</ele>
        <time>2023-07-29T14:17:43.000Z</time>
        <extensions>
          <ns3:TrackPointExtension>
            <ns3:hr>112</ns3:hr>
            <ns3:cad>0</ns3:cad>
          </ns3:TrackPointExtension>
        </extensions>
      </trkpt>
      <trkpt lat="37.76483531109988689422607421875" lon="-107.70949683152139186859130859375">
        <ele>3724.800048828125</ele>
        <time>2023-07-29T14:17:44.000Z</time>
        <extensions>
          <ns3:TrackPointExtension>
            <ns3:hr>112</ns3:hr>
            <ns3:cad>0</ns3:cad>
          </ns3:TrackPointExtension>
        </extensions>
      </trkpt>
      <trkpt lat="37.76483950205147266387939453125" lon="-107.709499932825565338134765625">
        <ele>3725</ele>
        <time>2023-07-29T14:17:45.000Z</time>
        <extensions>
          <ns3:TrackPointExtension>
            <ns3:hr>113</ns3:hr>
            <ns3:cad>0</ns3:cad>
          </ns3:TrackPointExtension>
        </extensions>
      </trkpt>
      <trkpt lat="37.76484067551791667938232421875" lon="-107.7094997651875019073486328125">
        <ele>3725</ele>
        <time>2023-07-29T14:17:46.000Z</time>
        <extensions>
          <ns3:TrackPointExtension>
            <ns3:hr>113</ns3:hr>
            <ns3:cad>0</ns3:cad>
          </ns3:TrackPointExtension>
        </extensions>
      </trkpt>
      <trkpt lat="37.7648389153182506561279296875" lon="-107.7094977535307407379150390625">
        <ele>3725.199951171875</ele>
        <time>2023-07-29T14:17:47.000Z</time>
        <extensions>
          <ns3:TrackPointExtension>
            <ns3:hr>113</ns3:hr>
            <ns3:cad>0</ns3:cad>
          </ns3:TrackPointExtension>
        </extensions>
      </trkpt>
      <trkpt lat="37.764837741851806640625" lon="-107.70949565805494785308837890625">
        <ele>3725.39990234375</ele>
        <time>2023-07-29T14:17:48.000Z</time>
        <extensions>
          <ns3:TrackPointExtension>
            <ns3:hr>113</ns3:hr>
            <ns3:cad>0</ns3:cad>
          </ns3:TrackPointExtension>
        </extensions>
      </trkpt>
      <trkpt lat="37.76484419591724872589111328125" lon="-107.70950135774910449981689453125">
        <ele>3725.800048828125</ele>
        <time>2023-07-29T14:17:49.000Z</time>
        <extensions>
          <ns3:TrackPointExtension>
            <ns3:hr>113</ns3:hr>
            <ns3:cad>0</ns3:cad>
          </ns3:TrackPointExtension>
        </extensions>
      </trkpt>
      <trkpt lat="37.76484821923077106475830078125" lon="-107.709504626691341400146484375">
        <ele>3725.800048828125</ele>
        <time>2023-07-29T14:17:50.000Z</time>
        <extensions>
          <ns3:TrackPointExtension>
            <ns3:hr>113</ns3:hr>
            <ns3:cad>0</ns3:cad>
          </ns3:TrackPointExtension>
        </extensions>
      </trkpt>
      <trkpt lat="37.76485676877200603485107421875" lon="-107.70951141603291034698486328125">
        <ele>3726</ele>
        <time>2023-07-29T14:17:51.000Z</time>
        <extensions>
          <ns3:TrackPointExtension>
            <ns3:hr>113</ns3:hr>
            <ns3:cad>0</ns3:cad>
          </ns3:TrackPointExtension>
        </extensions>
      </trkpt>
      <trkpt lat="37.76486062444746494293212890625" lon="-107.709512002766132354736328125">
        <ele>3726.199951171875</ele>
        <time>2023-07-29T14:17:52.000Z</time>
        <extensions>
          <ns3:TrackPointExtension>
            <ns3:hr>113</ns3:hr>
            <ns3:cad>0</ns3:cad>
          </ns3:TrackPointExtension>
        </extensions>
      </trkpt>
      <trkpt lat="37.76486649177968502044677734375" lon="-107.70951476879417896270751953125">
        <ele>3726.60009765625</ele>
        <time>2023-07-29T14:17:53.000Z</time>
        <extensions>
          <ns3:TrackPointExtension>
            <ns3:hr>113</ns3:hr>
            <ns3:cad>0</ns3:cad>
          </ns3:TrackPointExtension>
        </extensions>
      </trkpt>
      <trkpt lat="37.76486699469387531280517578125" lon="-107.70951141603291034698486328125">
        <ele>3726.60009765625</ele>
        <time>2023-07-29T14:17:54.000Z</time>
        <extensions>
          <ns3:TrackPointExtension>
            <ns3:hr>113</ns3:hr>
            <ns3:cad>0</ns3:cad>
          </ns3:TrackPointExtension>
        </extensions>
      </trkpt>
      <trkpt lat="37.76487168855965137481689453125" lon="-107.7095148526132106781005859375">
        <ele>3726.800048828125</ele>
        <time>2023-07-29T14:17:55.000Z</time>
        <extensions>
          <ns3:TrackPointExtension>
            <ns3:hr>113</ns3:hr>
            <ns3:cad>0</ns3:cad>
          </ns3:TrackPointExtension>
        </extensions>
      </trkpt>
      <trkpt lat="37.76486867107450962066650390625" lon="-107.70951594226062297821044921875">
        <ele>3726.800048828125</ele>
        <time>2023-07-29T14:17:56.000Z</time>
        <extensions>
          <ns3:TrackPointExtension>
            <ns3:hr>113</ns3:hr>
            <ns3:cad>0</ns3:cad>
          </ns3:TrackPointExtension>
        </extensions>
      </trkpt>
      <trkpt lat="37.76486883871257305145263671875" lon="-107.7095202170312404632568359375">
        <ele>3727</ele>
        <time>2023-07-29T14:17:57.000Z</time>
        <extensions>
          <ns3:TrackPointExtension>
            <ns3:hr>113</ns3:hr>
            <ns3:cad>0</ns3:cad>
          </ns3:TrackPointExtension>
        </extensions>
      </trkpt>
      <trkpt lat="37.76487403549253940582275390625" lon="-107.70952574908733367919921875">
        <ele>3727.199951171875</ele>
        <time>2023-07-29T14:17:58.000Z</time>
        <extensions>
          <ns3:TrackPointExtension>
            <ns3:hr>113</ns3:hr>
            <ns3:cad>0</ns3:cad>
          </ns3:TrackPointExtension>
        </extensions>
      </trkpt>
      <trkpt lat="37.7648727782070636749267578125" lon="-107.70952499471604824066162109375">
        <ele>3727.199951171875</ele>
        <time>2023-07-29T14:17:59.000Z</time>
        <extensions>
          <ns3:TrackPointExtension>
            <ns3:hr>113</ns3:hr>
            <ns3:cad>0</ns3:cad>
          </ns3:TrackPointExtension>
        </extensions>
      </trkpt>
      <trkpt lat="37.76488426141440868377685546875" lon="-107.70952918566763401031494140625">
        <ele>3728.60009765625</ele>
        <time>2023-07-29T14:18:11.000Z</time>
        <extensions>
          <ns3:TrackPointExtension>
            <ns3:hr>113</ns3:hr>
            <ns3:cad>0</ns3:cad>
          </ns3:TrackPointExtension>
        </extensions>
      </trkpt>
      <trkpt lat="37.76488845236599445343017578125" lon="-107.7095269225537776947021484375">
        <ele>3728.800048828125</ele>
        <time>2023-07-29T14:18:12.000Z</time>
        <extensions>
          <ns3:TrackPointExtension>
            <ns3:hr>113</ns3:hr>
            <ns3:cad>0</ns3:cad>
          </ns3:TrackPointExtension>
        </extensions>
      </trkpt>
      <trkpt lat="37.7648949064314365386962890625" lon="-107.70952348597347736358642578125">
        <ele>3729.199951171875</ele>
        <time>2023-07-29T14:18:13.000Z</time>
        <extensions>
          <ns3:TrackPointExtension>
            <ns3:hr>113</ns3:hr>
            <ns3:cad>0</ns3:cad>
          </ns3:TrackPointExtension>
        </extensions>
      </trkpt>
      <trkpt lat="37.76489784009754657745361328125" lon="-107.70951996557414531707763671875">
        <ele>3729.199951171875</ele>
        <time>2023-07-29T14:18:14.000Z</time>
        <extensions>
          <ns3:TrackPointExtension>
            <ns3:hr>113</ns3:hr>
            <ns3:cad>0</ns3:cad>
          </ns3:TrackPointExtension>
        </extensions>
      </trkpt>
      <trkpt lat="37.7648999355733394622802734375" lon="-107.7095198817551136016845703125">
        <ele>3729.39990234375</ele>
        <time>2023-07-29T14:18:15.000Z</time>
        <extensions>
          <ns3:TrackPointExtension>
            <ns3:hr>113</ns3:hr>
            <ns3:cad>0</ns3:cad>
          </ns3:TrackPointExtension>
        </extensions>
      </trkpt>
      <trkpt lat="37.76490571908652782440185546875" lon="-107.7095210552215576171875">
        <ele>3729.60009765625</ele>
        <time>2023-07-29T14:18:16.000Z</time>
        <extensions>
          <ns3:TrackPointExtension>
            <ns3:hr>113</ns3:hr>
            <ns3:cad>0</ns3:cad>
          </ns3:TrackPointExtension>
        </extensions>
      </trkpt>
      <trkpt lat="37.7649021148681640625" lon="-107.70952315069735050201416015625">
        <ele>3729.800048828125</ele>
        <time>2023-07-29T14:18:17.000Z</time>
        <extensions>
          <ns3:TrackPointExtension>
            <ns3:hr>113</ns3:hr>
            <ns3:cad>0</ns3:cad>
          </ns3:TrackPointExtension>
        </extensions>
      </trkpt>
      <trkpt lat="37.7649039588868618011474609375" lon="-107.70952499471604824066162109375">
        <ele>3729.800048828125</ele>
        <time>2023-07-29T14:18:18.000Z</time>
        <extensions>
          <ns3:TrackPointExtension>
            <ns3:hr>113</ns3:hr>
            <ns3:cad>0</ns3:cad>
          </ns3:TrackPointExtension>
        </extensions>
      </trkpt>
      <trkpt lat="37.764907144010066986083984375" lon="-107.709526084363460540771484375">
        <ele>3729.800048828125</ele>
        <time>2023-07-29T14:18:19.000Z</time>
        <extensions>
          <ns3:TrackPointExtension>
            <ns3:hr>113</ns3:hr>
            <ns3:cad>0</ns3:cad>
          </ns3:TrackPointExtension>
        </extensions>
      </trkpt>
      <trkpt lat="37.76490437798202037811279296875" lon="-107.70952164195477962493896484375">
        <ele>3730</ele>
        <time>2023-07-29T14:18:20.000Z</time>
        <extensions>
          <ns3:TrackPointExtension>
            <ns3:hr>114</ns3:hr>
            <ns3:cad>0</ns3:cad>
          </ns3:TrackPointExtension>
        </extensions>
      </trkpt>
      <trkpt lat="37.7649195492267608642578125" lon="-107.70953874103724956512451171875">
        <ele>3730.60009765625</ele>
        <time>2023-07-29T14:18:25.000Z</time>
        <extensions>
          <ns3:TrackPointExtension>
            <ns3:hr>113</ns3:hr>
            <ns3:cad>0</ns3:cad>
          </ns3:TrackPointExtension>
        </extensions>
      </trkpt>
      <trkpt lat="37.76492181234061717987060546875" lon="-107.7095363102853298187255859375">
        <ele>3730.800048828125</ele>
        <time>2023-07-29T14:18:26.000Z</time>
        <extensions>
          <ns3:TrackPointExtension>
            <ns3:hr>113</ns3:hr>
            <ns3:cad>0</ns3:cad>
          </ns3:TrackPointExtension>
        </extensions>
      </trkpt>
      <trkpt lat="37.764926254749298095703125" lon="-107.70953186787664890289306640625">
        <ele>3730.800048828125</ele>
        <time>2023-07-29T14:18:27.000Z</time>
        <extensions>
          <ns3:TrackPointExtension>
            <ns3:hr>113</ns3:hr>
            <ns3:cad>0</ns3:cad>
          </ns3:TrackPointExtension>
        </extensions>
      </trkpt>
      <trkpt lat="37.7649294398725032806396484375" lon="-107.70952650345861911773681640625">
        <ele>3731</ele>
        <time>2023-07-29T14:18:28.000Z</time>
        <extensions>
          <ns3:TrackPointExtension>
            <ns3:hr>113</ns3:hr>
            <ns3:cad>0</ns3:cad>
          </ns3:TrackPointExtension>
        </extensions>
      </trkpt>
      <trkpt lat="37.76492935605347156524658203125" lon="-107.70952365361154079437255859375">
        <ele>3731.199951171875</ele>
        <time>2023-07-29T14:18:29.000Z</time>
        <extensions>
          <ns3:TrackPointExtension>
            <ns3:hr>113</ns3:hr>
            <ns3:cad>0</ns3:cad>
          </ns3:TrackPointExtension>
        </extensions>
      </trkpt>
      <trkpt lat="37.76492332108318805694580078125" lon="-107.7095279283821582794189453125">
        <ele>3731.199951171875</ele>
        <time>2023-07-29T14:18:30.000Z</time>
        <extensions>
          <ns3:TrackPointExtension>
            <ns3:hr>113</ns3:hr>
            <ns3:cad>0</ns3:cad>
          </ns3:TrackPointExtension>
        </extensions>
      </trkpt>
      <trkpt lat="37.764923572540283203125" lon="-107.709528766572475433349609375">
        <ele>3731.199951171875</ele>
        <time>2023-07-29T14:18:31.000Z</time>
        <extensions>
          <ns3:TrackPointExtension>
            <ns3:hr>113</ns3:hr>
            <ns3:cad>0</ns3:cad>
          </ns3:TrackPointExtension>
        </extensions>
      </trkpt>
      <trkpt lat="37.76492583565413951873779296875" lon="-107.70952801220118999481201171875">
        <ele>3731.39990234375</ele>
        <time>2023-07-29T14:18:32.000Z</time>
        <extensions>
          <ns3:TrackPointExtension>
            <ns3:hr>114</ns3:hr>
            <ns3:cad>0</ns3:cad>
          </ns3:TrackPointExtension>
        </extensions>
      </trkpt>
      <trkpt lat="37.76492633856832981109619140625" lon="-107.70952817983925342559814453125">
        <ele>3731.39990234375</ele>
        <time>2023-07-29T14:18:33.000Z</time>
        <extensions>
          <ns3:TrackPointExtension>
            <ns3:hr>114</ns3:hr>
            <ns3:cad>0</ns3:cad>
          </ns3:TrackPointExtension>
        </extensions>
      </trkpt>
      <trkpt lat="37.76492667384445667266845703125" lon="-107.70953337661921977996826171875">
        <ele>3731.39990234375</ele>
        <time>2023-07-29T14:18:34.000Z</time>
        <extensions>
          <ns3:TrackPointExtension>
            <ns3:hr>114</ns3:hr>
            <ns3:cad>0</ns3:cad>
          </ns3:TrackPointExtension>
        </extensions>
      </trkpt>
      <trkpt lat="37.764927260577678680419921875" lon="-107.70953170023858547210693359375">
        <ele>3731.39990234375</ele>
        <time>2023-07-29T14:18:35.000Z</time>
        <extensions>
          <ns3:TrackPointExtension>
            <ns3:hr>113</ns3:hr>
            <ns3:cad>47</ns3:cad>
          </ns3:TrackPointExtension>
        </extensions>
      </trkpt>
      <trkpt lat="37.764941342175006866455078125" lon="-107.7095497213304042816162109375">
        <ele>3732.199951171875</ele>
        <time>2023-07-29T14:18:40.000Z</time>
        <extensions>
          <ns3:TrackPointExtension>
            <ns3:hr>111</ns3:hr>
            <ns3:cad>0</ns3:cad>
          </ns3:TrackPointExtension>
        </extensions>
      </trkpt>
      <trkpt lat="37.76494695805013179779052734375" lon="-107.70954318344593048095703125">
        <ele>3732.39990234375</ele>
        <time>2023-07-29T14:18:41.000Z</time>
        <extensions>
          <ns3:TrackPointExtension>
            <ns3:hr>111</ns3:hr>
            <ns3:cad>0</ns3:cad>
          </ns3:TrackPointExtension>
        </extensions>
      </trkpt>
      <trkpt lat="37.7649475447833538055419921875" lon="-107.709540836513042449951171875">
        <ele>3732.60009765625</ele>
        <time>2023-07-29T14:18:42.000Z</time>
        <extensions>
          <ns3:TrackPointExtension>
            <ns3:hr>110</ns3:hr>
            <ns3:cad>0</ns3:cad>
          </ns3:TrackPointExtension>
        </extensions>
      </trkpt>
      <trkpt lat="37.764949388802051544189453125" lon="-107.709539495408535003662109375">
        <ele>3732.60009765625</ele>
        <time>2023-07-29T14:18:43.000Z</time>
        <extensions>
          <ns3:TrackPointExtension>
            <ns3:hr>110</ns3:hr>
            <ns3:cad>0</ns3:cad>
          </ns3:TrackPointExtension>
        </extensions>
      </trkpt>
      <trkpt lat="37.76494846679270267486572265625" lon="-107.70953857339918613433837890625">
        <ele>3732.800048828125</ele>
        <time>2023-07-29T14:18:44.000Z</time>
        <extensions>
          <ns3:TrackPointExtension>
            <ns3:hr>110</ns3:hr>
            <ns3:cad>0</ns3:cad>
          </ns3:TrackPointExtension>
        </extensions>
      </trkpt>
      <trkpt lat="37.76494377292692661285400390625" lon="-107.70953907631337642669677734375">
        <ele>3732.800048828125</ele>
        <time>2023-07-29T14:18:45.000Z</time>
        <extensions>
          <ns3:TrackPointExtension>
            <ns3:hr>110</ns3:hr>
            <ns3:cad>0</ns3:cad>
          </ns3:TrackPointExtension>
        </extensions>
      </trkpt>
      <trkpt lat="37.76494360528886318206787109375" lon="-107.7095403335988521575927734375">
        <ele>3733</ele>
        <time>2023-07-29T14:18:46.000Z</time>
        <extensions>
          <ns3:TrackPointExtension>
            <ns3:hr>110</ns3:hr>
            <ns3:cad>0</ns3:cad>
          </ns3:TrackPointExtension>
        </extensions>
      </trkpt>
      <trkpt lat="37.76494444347918033599853515625" lon="-107.7095426805317401885986328125">
        <ele>3733.199951171875</ele>
        <time>2023-07-29T14:18:47.000Z</time>
        <extensions>
          <ns3:TrackPointExtension>
            <ns3:hr>110</ns3:hr>
            <ns3:cad>0</ns3:cad>
          </ns3:TrackPointExtension>
        </extensions>
      </trkpt>
      <trkpt lat="37.76494695805013179779052734375" lon="-107.70954276435077190399169921875">
        <ele>3733.39990234375</ele>
        <time>2023-07-29T14:18:48.000Z</time>
        <extensions>
          <ns3:TrackPointExtension>
            <ns3:hr>110</ns3:hr>
            <ns3:cad>0</ns3:cad>
          </ns3:TrackPointExtension>
        </extensions>
      </trkpt>
      <trkpt lat="37.76494896970689296722412109375" lon="-107.70954444073140621185302734375">
        <ele>3733.39990234375</ele>
        <time>2023-07-29T14:18:49.000Z</time>
        <extensions>
          <ns3:TrackPointExtension>
            <ns3:hr>110</ns3:hr>
            <ns3:cad>0</ns3:cad>
          </ns3:TrackPointExtension>
        </extensions>
      </trkpt>
      <trkpt lat="37.764953076839447021484375" lon="-107.709540836513042449951171875">
        <ele>3733.39990234375</ele>
        <time>2023-07-29T14:18:50.000Z</time>
        <extensions>
          <ns3:TrackPointExtension>
            <ns3:hr>111</ns3:hr>
            <ns3:cad>0</ns3:cad>
          </ns3:TrackPointExtension>
        </extensions>
      </trkpt>
      <trkpt lat="37.7649539150297641754150390625" lon="-107.7095436863601207733154296875">
        <ele>3733.800048828125</ele>
        <time>2023-07-29T14:18:51.000Z</time>
        <extensions>
          <ns3:TrackPointExtension>
            <ns3:hr>111</ns3:hr>
            <ns3:cad>0</ns3:cad>
          </ns3:TrackPointExtension>
        </extensions>
      </trkpt>
      <trkpt lat="37.7649609558284282684326171875" lon="-107.7095413394272327423095703125">
        <ele>3734</ele>
        <time>2023-07-29T14:18:52.000Z</time>
        <extensions>
          <ns3:TrackPointExtension>
            <ns3:hr>111</ns3:hr>
            <ns3:cad>0</ns3:cad>
          </ns3:TrackPointExtension>
        </extensions>
      </trkpt>
      <trkpt lat="37.7649609558284282684326171875" lon="-107.70954209379851818084716796875">
        <ele>3734.199951171875</ele>
        <time>2023-07-29T14:18:53.000Z</time>
        <extensions>
          <ns3:TrackPointExtension>
            <ns3:hr>111</ns3:hr>
            <ns3:cad>0</ns3:cad>
          </ns3:TrackPointExtension>
        </extensions>
      </trkpt>
      <trkpt lat="37.764964140951633453369140625" lon="-107.7095425128936767578125">
        <ele>3734.199951171875</ele>
        <time>2023-07-29T14:18:54.000Z</time>
        <extensions>
          <ns3:TrackPointExtension>
            <ns3:hr>110</ns3:hr>
            <ns3:cad>0</ns3:cad>
          </ns3:TrackPointExtension>
        </extensions>
      </trkpt>
      <trkpt lat="37.76496824808418750762939453125" lon="-107.70953974686563014984130859375">
        <ele>3734.39990234375</ele>
        <time>2023-07-29T14:18:55.000Z</time>
        <extensions>
          <ns3:TrackPointExtension>
            <ns3:hr>110</ns3:hr>
            <ns3:cad>0</ns3:cad>
          </ns3:TrackPointExtension>
        </extensions>
      </trkpt>
      <trkpt lat="37.76497260667383670806884765625" lon="-107.70953790284693241119384765625">
        <ele>3734.39990234375</ele>
        <time>2023-07-29T14:18:56.000Z</time>
        <extensions>
          <ns3:TrackPointExtension>
            <ns3:hr>110</ns3:hr>
            <ns3:cad>0</ns3:cad>
          </ns3:TrackPointExtension>
        </extensions>
      </trkpt>
      <trkpt lat="37.76497411541640758514404296875" lon="-107.70953605882823467254638671875">
        <ele>3734.60009765625</ele>
        <time>2023-07-29T14:18:57.000Z</time>
        <extensions>
          <ns3:TrackPointExtension>
            <ns3:hr>110</ns3:hr>
            <ns3:cad>0</ns3:cad>
          </ns3:TrackPointExtension>
        </extensions>
      </trkpt>
      <trkpt lat="37.76497386395931243896484375" lon="-107.70953589119017124176025390625">
        <ele>3734.800048828125</ele>
        <time>2023-07-29T14:18:58.000Z</time>
        <extensions>
          <ns3:TrackPointExtension>
            <ns3:hr>110</ns3:hr>
            <ns3:cad>0</ns3:cad>
          </ns3:TrackPointExtension>
        </extensions>
      </trkpt>
      <trkpt lat="37.76497118175029754638671875" lon="-107.7095383219420909881591796875">
        <ele>3735.199951171875</ele>
        <time>2023-07-29T14:18:59.000Z</time>
        <extensions>
          <ns3:TrackPointExtension>
            <ns3:hr>110</ns3:hr>
            <ns3:cad>0</ns3:cad>
          </ns3:TrackPointExtension>
        </extensions>
      </trkpt>
      <trkpt lat="37.7649731934070587158203125" lon="-107.7095369808375835418701171875">
        <ele>3735.199951171875</ele>
        <time>2023-07-29T14:19:00.000Z</time>
        <extensions>
          <ns3:TrackPointExtension>
            <ns3:hr>110</ns3:hr>
            <ns3:cad>0</ns3:cad>
          </ns3:TrackPointExtension>
        </extensions>
      </trkpt>
      <trkpt lat="37.764971517026424407958984375" lon="-107.70953924395143985748291015625">
        <ele>3735.199951171875</ele>
        <time>2023-07-29T14:19:01.000Z</time>
        <extensions>
          <ns3:TrackPointExtension>
            <ns3:hr>111</ns3:hr>
            <ns3:cad>42</ns3:cad>
          </ns3:TrackPointExtension>
        </extensions>
      </trkpt>
      <trkpt lat="37.76497227139770984649658203125" lon="-107.7095416747033596038818359375">
        <ele>3735.39990234375</ele>
        <time>2023-07-29T14:19:02.000Z</time>
        <extensions>
          <ns3:TrackPointExtension>
            <ns3:hr>111</ns3:hr>
            <ns3:cad>42</ns3:cad>
          </ns3:TrackPointExtension>
        </extensions>
      </trkpt>
      <trkpt lat="37.76497176848351955413818359375" lon="-107.70954527892172336578369140625">
        <ele>3735.39990234375</ele>
        <time>2023-07-29T14:19:03.000Z</time>
        <extensions>
          <ns3:TrackPointExtension>
            <ns3:hr>111</ns3:hr>
            <ns3:cad>0</ns3:cad>
          </ns3:TrackPointExtension>
        </extensions>
      </trkpt>
      <trkpt lat="37.76497176848351955413818359375" lon="-107.70954527892172336578369140625">
        <ele>3735.39990234375</ele>
        <time>2023-07-29T14:19:04.000Z</time>
        <extensions>
          <ns3:TrackPointExtension>
            <ns3:hr>111</ns3:hr>
            <ns3:cad>0</ns3:cad>
          </ns3:TrackPointExtension>
        </extensions>
      </trkpt>
      <trkpt lat="37.76502407155930995941162109375" lon="-107.70959020592272281646728515625">
        <ele>3737.800048828125</ele>
        <time>2023-07-29T14:19:40.000Z</time>
        <extensions>
          <ns3:TrackPointExtension>
            <ns3:hr>109</ns3:hr>
            <ns3:cad>0</ns3:cad>
          </ns3:TrackPointExtension>
        </extensions>
      </trkpt>
      <trkpt lat="37.7650226466357707977294921875" lon="-107.70958685316145420074462890625">
        <ele>3738.199951171875</ele>
        <time>2023-07-29T14:19:41.000Z</time>
        <extensions>
          <ns3:TrackPointExtension>
            <ns3:hr>109</ns3:hr>
            <ns3:cad>0</ns3:cad>
          </ns3:TrackPointExtension>
        </extensions>
      </trkpt>
      <trkpt lat="37.7650209702551364898681640625" lon="-107.70955986343324184417724609375">
        <ele>3738.39990234375</ele>
        <time>2023-07-29T14:19:42.000Z</time>
        <extensions>
          <ns3:TrackPointExtension>
            <ns3:hr>110</ns3:hr>
            <ns3:cad>0</ns3:cad>
          </ns3:TrackPointExtension>
        </extensions>
      </trkpt>
      <trkpt lat="37.765017114579677581787109375" lon="-107.7095339633524417877197265625">
        <ele>3738.39990234375</ele>
        <time>2023-07-29T14:19:46.000Z</time>
        <extensions>
          <ns3:TrackPointExtension>
            <ns3:hr>110</ns3:hr>
            <ns3:cad>0</ns3:cad>
          </ns3:TrackPointExtension>
        </extensions>
      </trkpt>
      <trkpt lat="37.7650156058371067047119140625" lon="-107.70953170023858547210693359375">
        <ele>3738.60009765625</ele>
        <time>2023-07-29T14:19:47.000Z</time>
        <extensions>
          <ns3:TrackPointExtension>
            <ns3:hr>109</ns3:hr>
            <ns3:cad>0</ns3:cad>
          </ns3:TrackPointExtension>
        </extensions>
      </trkpt>
      <trkpt lat="37.76501887477934360504150390625" lon="-107.70953102968633174896240234375">
        <ele>3738.60009765625</ele>
        <time>2023-07-29T14:19:48.000Z</time>
        <extensions>
          <ns3:TrackPointExtension>
            <ns3:hr>109</ns3:hr>
            <ns3:cad>0</ns3:cad>
          </ns3:TrackPointExtension>
        </extensions>
      </trkpt>
      <trkpt lat="37.765012085437774658203125" lon="-107.7095178700983524322509765625">
        <ele>3738.60009765625</ele>
        <time>2023-07-29T14:19:49.000Z</time>
        <extensions>
          <ns3:TrackPointExtension>
            <ns3:hr>109</ns3:hr>
            <ns3:cad>0</ns3:cad>
          </ns3:TrackPointExtension>
        </extensions>
      </trkpt>
      <trkpt lat="37.7650199644267559051513671875" lon="-107.70953102968633174896240234375">
        <ele>3738.60009765625</ele>
        <time>2023-07-29T14:19:50.000Z</time>
        <extensions>
          <ns3:TrackPointExtension>
            <ns3:hr>109</ns3:hr>
            <ns3:cad>0</ns3:cad>
          </ns3:TrackPointExtension>
        </extensions>
      </trkpt>
      <trkpt lat="37.7650226466357707977294921875" lon="-107.709533460438251495361328125">
        <ele>3738.800048828125</ele>
        <time>2023-07-29T14:19:51.000Z</time>
        <extensions>
          <ns3:TrackPointExtension>
            <ns3:hr>108</ns3:hr>
            <ns3:cad>0</ns3:cad>
          </ns3:TrackPointExtension>
        </extensions>
      </trkpt>
      <trkpt lat="37.76502591557800769805908203125" lon="-107.70953823812305927276611328125">
        <ele>3738.800048828125</ele>
        <time>2023-07-29T14:19:52.000Z</time>
        <extensions>
          <ns3:TrackPointExtension>
            <ns3:hr>108</ns3:hr>
            <ns3:cad>0</ns3:cad>
          </ns3:TrackPointExtension>
        </extensions>
      </trkpt>
      <trkpt lat="37.765029184520244598388671875" lon="-107.70954293198883533477783203125">
        <ele>3738.800048828125</ele>
        <time>2023-07-29T14:19:53.000Z</time>
        <extensions>
          <ns3:TrackPointExtension>
            <ns3:hr>108</ns3:hr>
            <ns3:cad>0</ns3:cad>
          </ns3:TrackPointExtension>
        </extensions>
      </trkpt>
      <trkpt lat="37.765029184520244598388671875" lon="-107.70954209379851818084716796875">
        <ele>3739</ele>
        <time>2023-07-29T14:19:54.000Z</time>
        <extensions>
          <ns3:TrackPointExtension>
            <ns3:hr>108</ns3:hr>
            <ns3:cad>0</ns3:cad>
          </ns3:TrackPointExtension>
        </extensions>
      </trkpt>
      <trkpt lat="37.7650310285389423370361328125" lon="-107.70954578183591365814208984375">
        <ele>3739</ele>
        <time>2023-07-29T14:19:55.000Z</time>
        <extensions>
          <ns3:TrackPointExtension>
            <ns3:hr>108</ns3:hr>
            <ns3:cad>0</ns3:cad>
          </ns3:TrackPointExtension>
        </extensions>
      </trkpt>
      <trkpt lat="37.765030525624752044677734375" lon="-107.7095467038452625274658203125">
        <ele>3739.199951171875</ele>
        <time>2023-07-29T14:19:56.000Z</time>
        <extensions>
          <ns3:TrackPointExtension>
            <ns3:hr>108</ns3:hr>
            <ns3:cad>0</ns3:cad>
          </ns3:TrackPointExtension>
        </extensions>
      </trkpt>
      <trkpt lat="37.765028513967990875244140625" lon="-107.70954494364559650421142578125">
        <ele>3739.39990234375</ele>
        <time>2023-07-29T14:19:57.000Z</time>
        <extensions>
          <ns3:TrackPointExtension>
            <ns3:hr>108</ns3:hr>
            <ns3:cad>0</ns3:cad>
          </ns3:TrackPointExtension>
        </extensions>
      </trkpt>
      <trkpt lat="37.7650273405015468597412109375" lon="-107.7095436863601207733154296875">
        <ele>3739.60009765625</ele>
        <time>2023-07-29T14:19:58.000Z</time>
        <extensions>
          <ns3:TrackPointExtension>
            <ns3:hr>107</ns3:hr>
            <ns3:cad>0</ns3:cad>
          </ns3:TrackPointExtension>
        </extensions>
      </trkpt>
      <trkpt lat="37.7650268375873565673828125" lon="-107.7095423452556133270263671875">
        <ele>3739.60009765625</ele>
        <time>2023-07-29T14:19:59.000Z</time>
        <extensions>
          <ns3:TrackPointExtension>
            <ns3:hr>107</ns3:hr>
            <ns3:cad>0</ns3:cad>
          </ns3:TrackPointExtension>
        </extensions>
      </trkpt>
      <trkpt lat="37.76502725668251514434814453125" lon="-107.70954343490302562713623046875">
        <ele>3739.800048828125</ele>
        <time>2023-07-29T14:20:00.000Z</time>
        <extensions>
          <ns3:TrackPointExtension>
            <ns3:hr>105</ns3:hr>
            <ns3:cad>0</ns3:cad>
          </ns3:TrackPointExtension>
        </extensions>
      </trkpt>
      <trkpt lat="37.76502859778702259063720703125" lon="-107.70954586565494537353515625">
        <ele>3740</ele>
        <time>2023-07-29T14:20:01.000Z</time>
        <extensions>
          <ns3:TrackPointExtension>
            <ns3:hr>103</ns3:hr>
            <ns3:cad>0</ns3:cad>
          </ns3:TrackPointExtension>
        </extensions>
      </trkpt>
      <trkpt lat="37.76503144763410091400146484375" lon="-107.7095500566065311431884765625">
        <ele>3740</ele>
        <time>2023-07-29T14:20:02.000Z</time>
        <extensions>
          <ns3:TrackPointExtension>
            <ns3:hr>101</ns3:hr>
            <ns3:cad>0</ns3:cad>
          </ns3:TrackPointExtension>
        </extensions>
      </trkpt>
      <trkpt lat="37.765033207833766937255859375" lon="-107.70955525338649749755859375">
        <ele>3740</ele>
        <time>2023-07-29T14:20:03.000Z</time>
        <extensions>
          <ns3:TrackPointExtension>
            <ns3:hr>99</ns3:hr>
            <ns3:cad>0</ns3:cad>
          </ns3:TrackPointExtension>
        </extensions>
      </trkpt>
      <trkpt lat="37.765033207833766937255859375" lon="-107.70955818705260753631591796875">
        <ele>3740</ele>
        <time>2023-07-29T14:20:04.000Z</time>
        <extensions>
          <ns3:TrackPointExtension>
            <ns3:hr>98</ns3:hr>
            <ns3:cad>0</ns3:cad>
          </ns3:TrackPointExtension>
        </extensions>
      </trkpt>
      <trkpt lat="37.76503178291022777557373046875" lon="-107.7095614559948444366455078125">
        <ele>3740</ele>
        <time>2023-07-29T14:20:05.000Z</time>
        <extensions>
          <ns3:TrackPointExtension>
            <ns3:hr>98</ns3:hr>
            <ns3:cad>0</ns3:cad>
          </ns3:TrackPointExtension>
        </extensions>
      </trkpt>
      <trkpt lat="37.765033543109893798828125" lon="-107.70957243628799915313720703125">
        <ele>3740</ele>
        <time>2023-07-29T14:20:06.000Z</time>
        <extensions>
          <ns3:TrackPointExtension>
            <ns3:hr>97</ns3:hr>
            <ns3:cad>0</ns3:cad>
          </ns3:TrackPointExtension>
        </extensions>
      </trkpt>
      <trkpt lat="37.7650337107479572296142578125" lon="-107.7095792256295680999755859375">
        <ele>3740</ele>
        <time>2023-07-29T14:20:07.000Z</time>
        <extensions>
          <ns3:TrackPointExtension>
            <ns3:hr>97</ns3:hr>
            <ns3:cad>0</ns3:cad>
          </ns3:TrackPointExtension>
        </extensions>
      </trkpt>
      <trkpt lat="37.7650363929569721221923828125" lon="-107.70958668552339076995849609375">
        <ele>3740</ele>
        <time>2023-07-29T14:20:08.000Z</time>
        <extensions>
          <ns3:TrackPointExtension>
            <ns3:hr>98</ns3:hr>
            <ns3:cad>0</ns3:cad>
          </ns3:TrackPointExtension>
        </extensions>
      </trkpt>
      <trkpt lat="37.765035219490528106689453125" lon="-107.70958685316145420074462890625">
        <ele>3740</ele>
        <time>2023-07-29T14:20:09.000Z</time>
        <extensions>
          <ns3:TrackPointExtension>
            <ns3:hr>97</ns3:hr>
            <ns3:cad>0</ns3:cad>
          </ns3:TrackPointExtension>
        </extensions>
      </trkpt>
      <trkpt lat="37.7650337107479572296142578125" lon="-107.70958802662789821624755859375">
        <ele>3740.199951171875</ele>
        <time>2023-07-29T14:20:10.000Z</time>
        <extensions>
          <ns3:TrackPointExtension>
            <ns3:hr>97</ns3:hr>
            <ns3:cad>0</ns3:cad>
          </ns3:TrackPointExtension>
        </extensions>
      </trkpt>
      <trkpt lat="37.76503010652959346771240234375" lon="-107.709591127932071685791015625">
        <ele>3740.199951171875</ele>
        <time>2023-07-29T14:20:11.000Z</time>
        <extensions>
          <ns3:TrackPointExtension>
            <ns3:hr>96</ns3:hr>
            <ns3:cad>0</ns3:cad>
          </ns3:TrackPointExtension>
        </extensions>
      </trkpt>
      <trkpt lat="37.76502742432057857513427734375" lon="-107.70959255285561084747314453125">
        <ele>3740.39990234375</ele>
        <time>2023-07-29T14:20:12.000Z</time>
        <extensions>
          <ns3:TrackPointExtension>
            <ns3:hr>96</ns3:hr>
            <ns3:cad>0</ns3:cad>
          </ns3:TrackPointExtension>
        </extensions>
      </trkpt>
      <trkpt lat="37.7650434337556362152099609375" lon="-107.70957645960152149200439453125">
        <ele>3740.39990234375</ele>
        <time>2023-07-29T14:20:13.000Z</time>
        <extensions>
          <ns3:TrackPointExtension>
            <ns3:hr>95</ns3:hr>
            <ns3:cad>0</ns3:cad>
          </ns3:TrackPointExtension>
        </extensions>
      </trkpt>
      <trkpt lat="37.76502859778702259063720703125" lon="-107.70960462279617786407470703125">
        <ele>3740.39990234375</ele>
        <time>2023-07-29T14:20:15.000Z</time>
        <extensions>
          <ns3:TrackPointExtension>
            <ns3:hr>95</ns3:hr>
            <ns3:cad>0</ns3:cad>
          </ns3:TrackPointExtension>
        </extensions>
      </trkpt>
      <trkpt lat="37.76502549648284912109375" lon="-107.70960395224392414093017578125">
        <ele>3740.39990234375</ele>
        <time>2023-07-29T14:20:16.000Z</time>
        <extensions>
          <ns3:TrackPointExtension>
            <ns3:hr>95</ns3:hr>
            <ns3:cad>0</ns3:cad>
          </ns3:TrackPointExtension>
        </extensions>
      </trkpt>
      <trkpt lat="37.7650236524641513824462890625" lon="-107.70959825254976749420166015625">
        <ele>3740.39990234375</ele>
        <time>2023-07-29T14:20:17.000Z</time>
        <extensions>
          <ns3:TrackPointExtension>
            <ns3:hr>94</ns3:hr>
            <ns3:cad>0</ns3:cad>
          </ns3:TrackPointExtension>
        </extensions>
      </trkpt>
      <trkpt lat="37.7650202997028827667236328125" lon="-107.7095876075327396392822265625">
        <ele>3740.39990234375</ele>
        <time>2023-07-29T14:20:18.000Z</time>
        <extensions>
          <ns3:TrackPointExtension>
            <ns3:hr>94</ns3:hr>
            <ns3:cad>0</ns3:cad>
          </ns3:TrackPointExtension>
        </extensions>
      </trkpt>
      <trkpt lat="37.76502205990254878997802734375" lon="-107.709586434066295623779296875">
        <ele>3740.39990234375</ele>
        <time>2023-07-29T14:20:19.000Z</time>
        <extensions>
          <ns3:TrackPointExtension>
            <ns3:hr>93</ns3:hr>
            <ns3:cad>0</ns3:cad>
          </ns3:TrackPointExtension>
        </extensions>
      </trkpt>
      <trkpt lat="37.7650236524641513824462890625" lon="-107.70959003828465938568115234375">
        <ele>3740.39990234375</ele>
        <time>2023-07-29T14:20:20.000Z</time>
        <extensions>
          <ns3:TrackPointExtension>
            <ns3:hr>93</ns3:hr>
            <ns3:cad>0</ns3:cad>
          </ns3:TrackPointExtension>
        </extensions>
      </trkpt>
      <trkpt lat="37.76502155698835849761962890625" lon="-107.70958836190402507781982421875">
        <ele>3740.60009765625</ele>
        <time>2023-07-29T14:20:21.000Z</time>
        <extensions>
          <ns3:TrackPointExtension>
            <ns3:hr>93</ns3:hr>
            <ns3:cad>0</ns3:cad>
          </ns3:TrackPointExtension>
        </extensions>
      </trkpt>
      <trkpt lat="37.76501971296966075897216796875" lon="-107.70959079265594482421875">
        <ele>3740.60009765625</ele>
        <time>2023-07-29T14:20:22.000Z</time>
        <extensions>
          <ns3:TrackPointExtension>
            <ns3:hr>93</ns3:hr>
            <ns3:cad>0</ns3:cad>
          </ns3:TrackPointExtension>
        </extensions>
      </trkpt>
      <trkpt lat="37.7650192938745021820068359375" lon="-107.70958878099918365478515625">
        <ele>3741</ele>
        <time>2023-07-29T14:20:23.000Z</time>
        <extensions>
          <ns3:TrackPointExtension>
            <ns3:hr>94</ns3:hr>
            <ns3:cad>0</ns3:cad>
          </ns3:TrackPointExtension>
        </extensions>
      </trkpt>
      <trkpt lat="37.7650166116654872894287109375" lon="-107.70958785898983478546142578125">
        <ele>3741</ele>
        <time>2023-07-29T14:20:24.000Z</time>
        <extensions>
          <ns3:TrackPointExtension>
            <ns3:hr>94</ns3:hr>
            <ns3:cad>0</ns3:cad>
          </ns3:TrackPointExtension>
        </extensions>
      </trkpt>
      <trkpt lat="37.765015773475170135498046875" lon="-107.70958936773240566253662109375">
        <ele>3741</ele>
        <time>2023-07-29T14:20:25.000Z</time>
        <extensions>
          <ns3:TrackPointExtension>
            <ns3:hr>95</ns3:hr>
            <ns3:cad>0</ns3:cad>
          </ns3:TrackPointExtension>
        </extensions>
      </trkpt>
      <trkpt lat="37.765013091266155242919921875" lon="-107.709593810141086578369140625">
        <ele>3741.199951171875</ele>
        <time>2023-07-29T14:20:26.000Z</time>
        <extensions>
          <ns3:TrackPointExtension>
            <ns3:hr>95</ns3:hr>
            <ns3:cad>0</ns3:cad>
          </ns3:TrackPointExtension>
        </extensions>
      </trkpt>
      <trkpt lat="37.76501032523810863494873046875" lon="-107.70959557034075260162353515625">
        <ele>3741.199951171875</ele>
        <time>2023-07-29T14:20:27.000Z</time>
        <extensions>
          <ns3:TrackPointExtension>
            <ns3:hr>94</ns3:hr>
            <ns3:cad>0</ns3:cad>
          </ns3:TrackPointExtension>
        </extensions>
      </trkpt>
      <trkpt lat="37.76499942876398563385009765625" lon="-107.70959992893040180206298828125">
        <ele>3741.199951171875</ele>
        <time>2023-07-29T14:20:28.000Z</time>
        <extensions>
          <ns3:TrackPointExtension>
            <ns3:hr>94</ns3:hr>
            <ns3:cad>0</ns3:cad>
          </ns3:TrackPointExtension>
        </extensions>
      </trkpt>
      <trkpt lat="37.76500278152525424957275390625" lon="-107.70960629917681217193603515625">
        <ele>3741.39990234375</ele>
        <time>2023-07-29T14:20:29.000Z</time>
        <extensions>
          <ns3:TrackPointExtension>
            <ns3:hr>93</ns3:hr>
            <ns3:cad>0</ns3:cad>
          </ns3:TrackPointExtension>
        </extensions>
      </trkpt>
      <trkpt lat="37.76500311680138111114501953125" lon="-107.7096043713390827178955078125">
        <ele>3741.60009765625</ele>
        <time>2023-07-29T14:20:30.000Z</time>
        <extensions>
          <ns3:TrackPointExtension>
            <ns3:hr>93</ns3:hr>
            <ns3:cad>0</ns3:cad>
          </ns3:TrackPointExtension>
        </extensions>
      </trkpt>
      <trkpt lat="37.765002362430095672607421875" lon="-107.70961535163223743438720703125">
        <ele>3741.60009765625</ele>
        <time>2023-07-29T14:20:31.000Z</time>
        <extensions>
          <ns3:TrackPointExtension>
            <ns3:hr>93</ns3:hr>
            <ns3:cad>0</ns3:cad>
          </ns3:TrackPointExtension>
        </extensions>
      </trkpt>
      <trkpt lat="37.76500278152525424957275390625" lon="-107.70961828529834747314453125">
        <ele>3741.800048828125</ele>
        <time>2023-07-29T14:20:32.000Z</time>
        <extensions>
          <ns3:TrackPointExtension>
            <ns3:hr>93</ns3:hr>
            <ns3:cad>0</ns3:cad>
          </ns3:TrackPointExtension>
        </extensions>
      </trkpt>
      <trkpt lat="37.76500093750655651092529296875" lon="-107.709619291126728057861328125">
        <ele>3742</ele>
        <time>2023-07-29T14:20:33.000Z</time>
        <extensions>
          <ns3:TrackPointExtension>
            <ns3:hr>93</ns3:hr>
            <ns3:cad>0</ns3:cad>
          </ns3:TrackPointExtension>
        </extensions>
      </trkpt>
      <trkpt lat="37.7650052122771739959716796875" lon="-107.70961853675544261932373046875">
        <ele>3742.199951171875</ele>
        <time>2023-07-29T14:20:34.000Z</time>
        <extensions>
          <ns3:TrackPointExtension>
            <ns3:hr>93</ns3:hr>
            <ns3:cad>0</ns3:cad>
          </ns3:TrackPointExtension>
        </extensions>
      </trkpt>
      <trkpt lat="37.76500605046749114990234375" lon="-107.70961853675544261932373046875">
        <ele>3742.199951171875</ele>
        <time>2023-07-29T14:20:35.000Z</time>
        <extensions>
          <ns3:TrackPointExtension>
            <ns3:hr>93</ns3:hr>
            <ns3:cad>0</ns3:cad>
          </ns3:TrackPointExtension>
        </extensions>
      </trkpt>
      <trkpt lat="37.76500915177166461944580078125" lon="-107.7096161060035228729248046875">
        <ele>3742.39990234375</ele>
        <time>2023-07-29T14:20:36.000Z</time>
        <extensions>
          <ns3:TrackPointExtension>
            <ns3:hr>93</ns3:hr>
            <ns3:cad>0</ns3:cad>
          </ns3:TrackPointExtension>
        </extensions>
      </trkpt>
      <trkpt lat="37.76501434855163097381591796875" lon="-107.70961535163223743438720703125">
        <ele>3742.60009765625</ele>
        <time>2023-07-29T14:20:37.000Z</time>
        <extensions>
          <ns3:TrackPointExtension>
            <ns3:hr>93</ns3:hr>
            <ns3:cad>0</ns3:cad>
          </ns3:TrackPointExtension>
        </extensions>
      </trkpt>
      <trkpt lat="37.76501602493226528167724609375" lon="-107.7096154354512691497802734375">
        <ele>3743</ele>
        <time>2023-07-29T14:20:38.000Z</time>
        <extensions>
          <ns3:TrackPointExtension>
            <ns3:hr>93</ns3:hr>
            <ns3:cad>0</ns3:cad>
          </ns3:TrackPointExtension>
        </extensions>
      </trkpt>
      <trkpt lat="37.76501887477934360504150390625" lon="-107.7096171118319034576416015625">
        <ele>3743</ele>
        <time>2023-07-29T14:20:39.000Z</time>
        <extensions>
          <ns3:TrackPointExtension>
            <ns3:hr>93</ns3:hr>
            <ns3:cad>0</ns3:cad>
          </ns3:TrackPointExtension>
        </extensions>
      </trkpt>
      <trkpt lat="37.76501602493226528167724609375" lon="-107.7096243202686309814453125">
        <ele>3743.199951171875</ele>
        <time>2023-07-29T14:20:40.000Z</time>
        <extensions>
          <ns3:TrackPointExtension>
            <ns3:hr>92</ns3:hr>
            <ns3:cad>0</ns3:cad>
          </ns3:TrackPointExtension>
        </extensions>
      </trkpt>
      <trkpt lat="37.76501552201807498931884765625" lon="-107.709627337753772735595703125">
        <ele>3743.199951171875</ele>
        <time>2023-07-29T14:20:41.000Z</time>
        <extensions>
          <ns3:TrackPointExtension>
            <ns3:hr>91</ns3:hr>
            <ns3:cad>0</ns3:cad>
          </ns3:TrackPointExtension>
        </extensions>
      </trkpt>
      <trkpt lat="37.76501904241740703582763671875" lon="-107.709628678858280181884765625">
        <ele>3743.199951171875</ele>
        <time>2023-07-29T14:20:42.000Z</time>
        <extensions>
          <ns3:TrackPointExtension>
            <ns3:hr>91</ns3:hr>
            <ns3:cad>0</ns3:cad>
          </ns3:TrackPointExtension>
        </extensions>
      </trkpt>
      <trkpt lat="37.76502122171223163604736328125" lon="-107.7096321992576122283935546875">
        <ele>3743.39990234375</ele>
        <time>2023-07-29T14:20:43.000Z</time>
        <extensions>
          <ns3:TrackPointExtension>
            <ns3:hr>93</ns3:hr>
            <ns3:cad>0</ns3:cad>
          </ns3:TrackPointExtension>
        </extensions>
      </trkpt>
      <trkpt lat="37.76502490974962711334228515625" lon="-107.7096315287053585052490234375">
        <ele>3743.39990234375</ele>
        <time>2023-07-29T14:20:44.000Z</time>
        <extensions>
          <ns3:TrackPointExtension>
            <ns3:hr>95</ns3:hr>
            <ns3:cad>0</ns3:cad>
          </ns3:TrackPointExtension>
        </extensions>
      </trkpt>
      <trkpt lat="37.76503412984311580657958984375" lon="-107.709630019962787628173828125">
        <ele>3743.60009765625</ele>
        <time>2023-07-29T14:20:45.000Z</time>
        <extensions>
          <ns3:TrackPointExtension>
            <ns3:hr>96</ns3:hr>
            <ns3:cad>0</ns3:cad>
          </ns3:TrackPointExtension>
        </extensions>
      </trkpt>
      <trkpt lat="37.76504226028919219970703125" lon="-107.70962767302989959716796875">
        <ele>3743.60009765625</ele>
        <time>2023-07-29T14:20:46.000Z</time>
        <extensions>
          <ns3:TrackPointExtension>
            <ns3:hr>97</ns3:hr>
            <ns3:cad>0</ns3:cad>
          </ns3:TrackPointExtension>
        </extensions>
      </trkpt>
      <trkpt lat="37.76505407877266407012939453125" lon="-107.70962423644959926605224609375">
        <ele>3743.60009765625</ele>
        <time>2023-07-29T14:20:47.000Z</time>
        <extensions>
          <ns3:TrackPointExtension>
            <ns3:hr>98</ns3:hr>
            <ns3:cad>0</ns3:cad>
          </ns3:TrackPointExtension>
        </extensions>
      </trkpt>
      <trkpt lat="37.76506480760872364044189453125" lon="-107.709621302783489227294921875">
        <ele>3744</ele>
        <time>2023-07-29T14:20:48.000Z</time>
        <extensions>
          <ns3:TrackPointExtension>
            <ns3:hr>98</ns3:hr>
            <ns3:cad>0</ns3:cad>
          </ns3:TrackPointExtension>
        </extensions>
      </trkpt>
      <trkpt lat="37.76507000438868999481201171875" lon="-107.70961903966963291168212890625">
        <ele>3744</ele>
        <time>2023-07-29T14:20:49.000Z</time>
        <extensions>
          <ns3:TrackPointExtension>
            <ns3:hr>98</ns3:hr>
            <ns3:cad>0</ns3:cad>
          </ns3:TrackPointExtension>
        </extensions>
      </trkpt>
      <trkpt lat="37.7650751173496246337890625" lon="-107.7096184529364109039306640625">
        <ele>3744.199951171875</ele>
        <time>2023-07-29T14:20:50.000Z</time>
        <extensions>
          <ns3:TrackPointExtension>
            <ns3:hr>98</ns3:hr>
            <ns3:cad>0</ns3:cad>
          </ns3:TrackPointExtension>
        </extensions>
      </trkpt>
      <trkpt lat="37.765080146491527557373046875" lon="-107.70961803384125232696533203125">
        <ele>3744.39990234375</ele>
        <time>2023-07-29T14:20:51.000Z</time>
        <extensions>
          <ns3:TrackPointExtension>
            <ns3:hr>99</ns3:hr>
            <ns3:cad>0</ns3:cad>
          </ns3:TrackPointExtension>
        </extensions>
      </trkpt>
      <trkpt lat="37.76508626528084278106689453125" lon="-107.70961920730769634246826171875">
        <ele>3744.60009765625</ele>
        <time>2023-07-29T14:20:52.000Z</time>
        <extensions>
          <ns3:TrackPointExtension>
            <ns3:hr>99</ns3:hr>
            <ns3:cad>0</ns3:cad>
          </ns3:TrackPointExtension>
        </extensions>
      </trkpt>
      <trkpt lat="37.76509129442274570465087890625" lon="-107.70961786620318889617919921875">
        <ele>3744.60009765625</ele>
        <time>2023-07-29T14:20:53.000Z</time>
        <extensions>
          <ns3:TrackPointExtension>
            <ns3:hr>99</ns3:hr>
            <ns3:cad>0</ns3:cad>
          </ns3:TrackPointExtension>
        </extensions>
      </trkpt>
      <trkpt lat="37.76509213261306285858154296875" lon="-107.70961903966963291168212890625">
        <ele>3744.60009765625</ele>
        <time>2023-07-29T14:20:54.000Z</time>
        <extensions>
          <ns3:TrackPointExtension>
            <ns3:hr>99</ns3:hr>
            <ns3:cad>0</ns3:cad>
          </ns3:TrackPointExtension>
        </extensions>
      </trkpt>
      <trkpt lat="37.7650917135179042816162109375" lon="-107.70961903966963291168212890625">
        <ele>3744.60009765625</ele>
        <time>2023-07-29T14:20:55.000Z</time>
        <extensions>
          <ns3:TrackPointExtension>
            <ns3:hr>99</ns3:hr>
            <ns3:cad>0</ns3:cad>
          </ns3:TrackPointExtension>
        </extensions>
      </trkpt>
      <trkpt lat="37.7650826610624790191650390625" lon="-107.7096248231828212738037109375">
        <ele>3744.800048828125</ele>
        <time>2023-07-29T14:20:56.000Z</time>
        <extensions>
          <ns3:TrackPointExtension>
            <ns3:hr>100</ns3:hr>
            <ns3:cad>0</ns3:cad>
          </ns3:TrackPointExtension>
        </extensions>
      </trkpt>
      <trkpt lat="37.7650846727192401885986328125" lon="-107.7096228115260601043701171875">
        <ele>3744.800048828125</ele>
        <time>2023-07-29T14:20:57.000Z</time>
        <extensions>
          <ns3:TrackPointExtension>
            <ns3:hr>100</ns3:hr>
            <ns3:cad>0</ns3:cad>
          </ns3:TrackPointExtension>
        </extensions>
      </trkpt>
      <trkpt lat="37.7650845050811767578125" lon="-107.70962423644959926605224609375">
        <ele>3744.800048828125</ele>
        <time>2023-07-29T14:20:58.000Z</time>
        <extensions>
          <ns3:TrackPointExtension>
            <ns3:hr>101</ns3:hr>
            <ns3:cad>0</ns3:cad>
          </ns3:TrackPointExtension>
        </extensions>
      </trkpt>
      <trkpt lat="37.7650856785476207733154296875" lon="-107.70962356589734554290771484375">
        <ele>3745</ele>
        <time>2023-07-29T14:20:59.000Z</time>
        <extensions>
          <ns3:TrackPointExtension>
            <ns3:hr>101</ns3:hr>
            <ns3:cad>0</ns3:cad>
          </ns3:TrackPointExtension>
        </extensions>
      </trkpt>
      <trkpt lat="37.76508190669119358062744140625" lon="-107.70962540991604328155517578125">
        <ele>3745</ele>
        <time>2023-07-29T14:21:00.000Z</time>
        <extensions>
          <ns3:TrackPointExtension>
            <ns3:hr>101</ns3:hr>
            <ns3:cad>0</ns3:cad>
          </ns3:TrackPointExtension>
        </extensions>
      </trkpt>
      <trkpt lat="37.76508383452892303466796875" lon="-107.7096228115260601043701171875">
        <ele>3745.39990234375</ele>
        <time>2023-07-29T14:21:01.000Z</time>
        <extensions>
          <ns3:TrackPointExtension>
            <ns3:hr>101</ns3:hr>
            <ns3:cad>0</ns3:cad>
          </ns3:TrackPointExtension>
        </extensions>
      </trkpt>
      <trkpt lat="37.76508609764277935028076171875" lon="-107.70962121896445751190185546875">
        <ele>3745.60009765625</ele>
        <time>2023-07-29T14:21:02.000Z</time>
        <extensions>
          <ns3:TrackPointExtension>
            <ns3:hr>101</ns3:hr>
            <ns3:cad>0</ns3:cad>
          </ns3:TrackPointExtension>
        </extensions>
      </trkpt>
      <trkpt lat="37.76509079150855541229248046875" lon="-107.70961987785995006561279296875">
        <ele>3745.60009765625</ele>
        <time>2023-07-29T14:21:03.000Z</time>
        <extensions>
          <ns3:TrackPointExtension>
            <ns3:hr>101</ns3:hr>
            <ns3:cad>0</ns3:cad>
          </ns3:TrackPointExtension>
        </extensions>
      </trkpt>
      <trkpt lat="37.7650947310030460357666015625" lon="-107.70961903966963291168212890625">
        <ele>3746</ele>
        <time>2023-07-29T14:21:04.000Z</time>
        <extensions>
          <ns3:TrackPointExtension>
            <ns3:hr>101</ns3:hr>
            <ns3:cad>0</ns3:cad>
          </ns3:TrackPointExtension>
        </extensions>
      </trkpt>
      <trkpt lat="37.765094898641109466552734375" lon="-107.70961828529834747314453125">
        <ele>3746</ele>
        <time>2023-07-29T14:21:05.000Z</time>
        <extensions>
          <ns3:TrackPointExtension>
            <ns3:hr>102</ns3:hr>
            <ns3:cad>0</ns3:cad>
          </ns3:TrackPointExtension>
        </extensions>
      </trkpt>
      <trkpt lat="37.76509548537433147430419921875" lon="-107.70961828529834747314453125">
        <ele>3746.199951171875</ele>
        <time>2023-07-29T14:21:06.000Z</time>
        <extensions>
          <ns3:TrackPointExtension>
            <ns3:hr>102</ns3:hr>
            <ns3:cad>0</ns3:cad>
          </ns3:TrackPointExtension>
        </extensions>
      </trkpt>
      <trkpt lat="37.76510084979236125946044921875" lon="-107.709617950022220611572265625">
        <ele>3746.39990234375</ele>
        <time>2023-07-29T14:21:07.000Z</time>
        <extensions>
          <ns3:TrackPointExtension>
            <ns3:hr>102</ns3:hr>
            <ns3:cad>0</ns3:cad>
          </ns3:TrackPointExtension>
        </extensions>
      </trkpt>
      <trkpt lat="37.76510470546782016754150390625" lon="-107.7096157707273960113525390625">
        <ele>3746.39990234375</ele>
        <time>2023-07-29T14:21:08.000Z</time>
        <extensions>
          <ns3:TrackPointExtension>
            <ns3:hr>103</ns3:hr>
            <ns3:cad>0</ns3:cad>
          </ns3:TrackPointExtension>
        </extensions>
      </trkpt>
      <trkpt lat="37.76510302908718585968017578125" lon="-107.7096194587647914886474609375">
        <ele>3746.60009765625</ele>
        <time>2023-07-29T14:21:09.000Z</time>
        <extensions>
          <ns3:TrackPointExtension>
            <ns3:hr>103</ns3:hr>
            <ns3:cad>0</ns3:cad>
          </ns3:TrackPointExtension>
        </extensions>
      </trkpt>
      <trkpt lat="37.76511224918067455291748046875" lon="-107.70961920730769634246826171875">
        <ele>3746.60009765625</ele>
        <time>2023-07-29T14:21:10.000Z</time>
        <extensions>
          <ns3:TrackPointExtension>
            <ns3:hr>103</ns3:hr>
            <ns3:cad>0</ns3:cad>
          </ns3:TrackPointExtension>
        </extensions>
      </trkpt>
      <trkpt lat="37.76511694304645061492919921875" lon="-107.70961954258382320404052734375">
        <ele>3746.60009765625</ele>
        <time>2023-07-29T14:21:11.000Z</time>
        <extensions>
          <ns3:TrackPointExtension>
            <ns3:hr>103</ns3:hr>
            <ns3:cad>0</ns3:cad>
          </ns3:TrackPointExtension>
        </extensions>
      </trkpt>
      <trkpt lat="37.76512029580771923065185546875" lon="-107.709620632231235504150390625">
        <ele>3746.800048828125</ele>
        <time>2023-07-29T14:21:12.000Z</time>
        <extensions>
          <ns3:TrackPointExtension>
            <ns3:hr>103</ns3:hr>
            <ns3:cad>0</ns3:cad>
          </ns3:TrackPointExtension>
        </extensions>
      </trkpt>
      <trkpt lat="37.7651207149028778076171875" lon="-107.7096216380596160888671875">
        <ele>3747</ele>
        <time>2023-07-29T14:21:13.000Z</time>
        <extensions>
          <ns3:TrackPointExtension>
            <ns3:hr>103</ns3:hr>
            <ns3:cad>0</ns3:cad>
          </ns3:TrackPointExtension>
        </extensions>
      </trkpt>
      <trkpt lat="37.76512331329286098480224609375" lon="-107.70962205715477466583251953125">
        <ele>3747</ele>
        <time>2023-07-29T14:21:14.000Z</time>
        <extensions>
          <ns3:TrackPointExtension>
            <ns3:hr>103</ns3:hr>
            <ns3:cad>0</ns3:cad>
          </ns3:TrackPointExtension>
        </extensions>
      </trkpt>
      <trkpt lat="37.76512599550187587738037109375" lon="-107.7096224762499332427978515625">
        <ele>3747.199951171875</ele>
        <time>2023-07-29T14:21:15.000Z</time>
        <extensions>
          <ns3:TrackPointExtension>
            <ns3:hr>103</ns3:hr>
            <ns3:cad>0</ns3:cad>
          </ns3:TrackPointExtension>
        </extensions>
      </trkpt>
      <trkpt lat="37.76513035409152507781982421875" lon="-107.70962524227797985076904296875">
        <ele>3747.199951171875</ele>
        <time>2023-07-29T14:21:16.000Z</time>
        <extensions>
          <ns3:TrackPointExtension>
            <ns3:hr>104</ns3:hr>
            <ns3:cad>0</ns3:cad>
          </ns3:TrackPointExtension>
        </extensions>
      </trkpt>
      <trkpt lat="37.76513353921473026275634765625" lon="-107.709627337753772735595703125">
        <ele>3747.39990234375</ele>
        <time>2023-07-29T14:21:17.000Z</time>
        <extensions>
          <ns3:TrackPointExtension>
            <ns3:hr>104</ns3:hr>
            <ns3:cad>0</ns3:cad>
          </ns3:TrackPointExtension>
        </extensions>
      </trkpt>
      <trkpt lat="37.76512901298701763153076171875" lon="-107.7096228115260601043701171875">
        <ele>3747.39990234375</ele>
        <time>2023-07-29T14:21:18.000Z</time>
        <extensions>
          <ns3:TrackPointExtension>
            <ns3:hr>104</ns3:hr>
            <ns3:cad>0</ns3:cad>
          </ns3:TrackPointExtension>
        </extensions>
      </trkpt>
      <trkpt lat="37.76513169519603252410888671875" lon="-107.709625326097011566162109375">
        <ele>3747.60009765625</ele>
        <time>2023-07-29T14:21:19.000Z</time>
        <extensions>
          <ns3:TrackPointExtension>
            <ns3:hr>104</ns3:hr>
            <ns3:cad>0</ns3:cad>
          </ns3:TrackPointExtension>
        </extensions>
      </trkpt>
      <trkpt lat="37.76513303630053997039794921875" lon="-107.70962524227797985076904296875">
        <ele>3747.60009765625</ele>
        <time>2023-07-29T14:21:20.000Z</time>
        <extensions>
          <ns3:TrackPointExtension>
            <ns3:hr>104</ns3:hr>
            <ns3:cad>0</ns3:cad>
          </ns3:TrackPointExtension>
        </extensions>
      </trkpt>
      <trkpt lat="37.7651376463472843170166015625" lon="-107.70963010378181934356689453125">
        <ele>3747.60009765625</ele>
        <time>2023-07-29T14:21:21.000Z</time>
        <extensions>
          <ns3:TrackPointExtension>
            <ns3:hr>104</ns3:hr>
            <ns3:cad>0</ns3:cad>
          </ns3:TrackPointExtension>
        </extensions>
      </trkpt>
      <trkpt lat="37.76513789780437946319580078125" lon="-107.70963043905794620513916015625">
        <ele>3747.800048828125</ele>
        <time>2023-07-29T14:21:22.000Z</time>
        <extensions>
          <ns3:TrackPointExtension>
            <ns3:hr>104</ns3:hr>
            <ns3:cad>0</ns3:cad>
          </ns3:TrackPointExtension>
        </extensions>
      </trkpt>
      <trkpt lat="37.76513588614761829376220703125" lon="-107.709628008306026458740234375">
        <ele>3748</ele>
        <time>2023-07-29T14:21:23.000Z</time>
        <extensions>
          <ns3:TrackPointExtension>
            <ns3:hr>104</ns3:hr>
            <ns3:cad>0</ns3:cad>
          </ns3:TrackPointExtension>
        </extensions>
      </trkpt>
      <trkpt lat="37.765137143433094024658203125" lon="-107.7096285112202167510986328125">
        <ele>3748.199951171875</ele>
        <time>2023-07-29T14:21:24.000Z</time>
        <extensions>
          <ns3:TrackPointExtension>
            <ns3:hr>104</ns3:hr>
            <ns3:cad>0</ns3:cad>
          </ns3:TrackPointExtension>
        </extensions>
      </trkpt>
      <trkpt lat="37.76513823308050632476806640625" lon="-107.70962767302989959716796875">
        <ele>3748.199951171875</ele>
        <time>2023-07-29T14:21:25.000Z</time>
        <extensions>
          <ns3:TrackPointExtension>
            <ns3:hr>104</ns3:hr>
            <ns3:cad>0</ns3:cad>
          </ns3:TrackPointExtension>
        </extensions>
      </trkpt>
      <trkpt lat="37.7651366405189037322998046875" lon="-107.7096275053918361663818359375">
        <ele>3748.199951171875</ele>
        <time>2023-07-29T14:21:26.000Z</time>
        <extensions>
          <ns3:TrackPointExtension>
            <ns3:hr>104</ns3:hr>
            <ns3:cad>0</ns3:cad>
          </ns3:TrackPointExtension>
        </extensions>
      </trkpt>
      <trkpt lat="37.765137813985347747802734375" lon="-107.70962608046829700469970703125">
        <ele>3748.39990234375</ele>
        <time>2023-07-29T14:21:27.000Z</time>
        <extensions>
          <ns3:TrackPointExtension>
            <ns3:hr>104</ns3:hr>
            <ns3:cad>0</ns3:cad>
          </ns3:TrackPointExtension>
        </extensions>
      </trkpt>
      <trkpt lat="37.765138484537601470947265625" lon="-107.7096244879066944122314453125">
        <ele>3748.39990234375</ele>
        <time>2023-07-29T14:21:28.000Z</time>
        <extensions>
          <ns3:TrackPointExtension>
            <ns3:hr>104</ns3:hr>
            <ns3:cad>0</ns3:cad>
          </ns3:TrackPointExtension>
        </extensions>
      </trkpt>
      <trkpt lat="37.7651399932801723480224609375" lon="-107.7096271701157093048095703125">
        <ele>3748.39990234375</ele>
        <time>2023-07-29T14:21:29.000Z</time>
        <extensions>
          <ns3:TrackPointExtension>
            <ns3:hr>104</ns3:hr>
            <ns3:cad>0</ns3:cad>
          </ns3:TrackPointExtension>
        </extensions>
      </trkpt>
      <trkpt lat="37.76514208875596523284912109375" lon="-107.70962809212505817413330078125">
        <ele>3748.39990234375</ele>
        <time>2023-07-29T14:21:30.000Z</time>
        <extensions>
          <ns3:TrackPointExtension>
            <ns3:hr>104</ns3:hr>
            <ns3:cad>0</ns3:cad>
          </ns3:TrackPointExtension>
        </extensions>
      </trkpt>
      <trkpt lat="37.76514745317399501800537109375" lon="-107.70963127724826335906982421875">
        <ele>3748.39990234375</ele>
        <time>2023-07-29T14:21:31.000Z</time>
        <extensions>
          <ns3:TrackPointExtension>
            <ns3:hr>104</ns3:hr>
            <ns3:cad>0</ns3:cad>
          </ns3:TrackPointExtension>
        </extensions>
      </trkpt>
      <trkpt lat="37.7651513926684856414794921875" lon="-107.709635384380817413330078125">
        <ele>3748.39990234375</ele>
        <time>2023-07-29T14:21:32.000Z</time>
        <extensions>
          <ns3:TrackPointExtension>
            <ns3:hr>104</ns3:hr>
            <ns3:cad>0</ns3:cad>
          </ns3:TrackPointExtension>
        </extensions>
      </trkpt>
      <trkpt lat="37.76515399105846881866455078125" lon="-107.7096372283995151519775390625">
        <ele>3748.60009765625</ele>
        <time>2023-07-29T14:21:33.000Z</time>
        <extensions>
          <ns3:TrackPointExtension>
            <ns3:hr>104</ns3:hr>
            <ns3:cad>0</ns3:cad>
          </ns3:TrackPointExtension>
        </extensions>
      </trkpt>
      <trkpt lat="37.76515449397265911102294921875" lon="-107.70963747985661029815673828125">
        <ele>3748.60009765625</ele>
        <time>2023-07-29T14:21:34.000Z</time>
        <extensions>
          <ns3:TrackPointExtension>
            <ns3:hr>104</ns3:hr>
            <ns3:cad>0</ns3:cad>
          </ns3:TrackPointExtension>
        </extensions>
      </trkpt>
      <trkpt lat="37.76515700854361057281494140625" lon="-107.7096378989517688751220703125">
        <ele>3748.800048828125</ele>
        <time>2023-07-29T14:21:35.000Z</time>
        <extensions>
          <ns3:TrackPointExtension>
            <ns3:hr>104</ns3:hr>
            <ns3:cad>0</ns3:cad>
          </ns3:TrackPointExtension>
        </extensions>
      </trkpt>
      <trkpt lat="37.76515482924878597259521484375" lon="-107.70963513292372226715087890625">
        <ele>3748.800048828125</ele>
        <time>2023-07-29T14:21:36.000Z</time>
        <extensions>
          <ns3:TrackPointExtension>
            <ns3:hr>104</ns3:hr>
            <ns3:cad>0</ns3:cad>
          </ns3:TrackPointExtension>
        </extensions>
      </trkpt>
      <trkpt lat="37.76515197940170764923095703125" lon="-107.709629349410533905029296875">
        <ele>3748.800048828125</ele>
        <time>2023-07-29T14:21:37.000Z</time>
        <extensions>
          <ns3:TrackPointExtension>
            <ns3:hr>104</ns3:hr>
            <ns3:cad>0</ns3:cad>
          </ns3:TrackPointExtension>
        </extensions>
      </trkpt>
      <trkpt lat="37.7651537396013736724853515625" lon="-107.7096288464963436126708984375">
        <ele>3748.800048828125</ele>
        <time>2023-07-29T14:21:38.000Z</time>
        <extensions>
          <ns3:TrackPointExtension>
            <ns3:hr>103</ns3:hr>
            <ns3:cad>0</ns3:cad>
          </ns3:TrackPointExtension>
        </extensions>
      </trkpt>
      <trkpt lat="37.765152566134929656982421875" lon="-107.70962364971637725830078125">
        <ele>3748.800048828125</ele>
        <time>2023-07-29T14:21:39.000Z</time>
        <extensions>
          <ns3:TrackPointExtension>
            <ns3:hr>103</ns3:hr>
            <ns3:cad>0</ns3:cad>
          </ns3:TrackPointExtension>
        </extensions>
      </trkpt>
      <trkpt lat="37.76515114121139049530029296875" lon="-107.70961987785995006561279296875">
        <ele>3748.800048828125</ele>
        <time>2023-07-29T14:21:40.000Z</time>
        <extensions>
          <ns3:TrackPointExtension>
            <ns3:hr>103</ns3:hr>
            <ns3:cad>0</ns3:cad>
          </ns3:TrackPointExtension>
        </extensions>
      </trkpt>
      <trkpt lat="37.7651547454297542572021484375" lon="-107.709624655544757843017578125">
        <ele>3749</ele>
        <time>2023-07-29T14:21:41.000Z</time>
        <extensions>
          <ns3:TrackPointExtension>
            <ns3:hr>102</ns3:hr>
            <ns3:cad>0</ns3:cad>
          </ns3:TrackPointExtension>
        </extensions>
      </trkpt>
      <trkpt lat="37.765153907239437103271484375" lon="-107.7096218056976795196533203125">
        <ele>3749</ele>
        <time>2023-07-29T14:21:42.000Z</time>
        <extensions>
          <ns3:TrackPointExtension>
            <ns3:hr>102</ns3:hr>
            <ns3:cad>0</ns3:cad>
          </ns3:TrackPointExtension>
        </extensions>
      </trkpt>
      <trkpt lat="37.76515315286815166473388671875" lon="-107.7096216380596160888671875">
        <ele>3749</ele>
        <time>2023-07-29T14:21:43.000Z</time>
        <extensions>
          <ns3:TrackPointExtension>
            <ns3:hr>102</ns3:hr>
            <ns3:cad>0</ns3:cad>
          </ns3:TrackPointExtension>
        </extensions>
      </trkpt>
      <trkpt lat="37.7651527337729930877685546875" lon="-107.70962038077414035797119140625">
        <ele>3749</ele>
        <time>2023-07-29T14:21:44.000Z</time>
        <extensions>
          <ns3:TrackPointExtension>
            <ns3:hr>102</ns3:hr>
            <ns3:cad>0</ns3:cad>
          </ns3:TrackPointExtension>
        </extensions>
      </trkpt>
      <trkpt lat="37.7651557512581348419189453125" lon="-107.709628008306026458740234375">
        <ele>3749</ele>
        <time>2023-07-29T14:21:45.000Z</time>
        <extensions>
          <ns3:TrackPointExtension>
            <ns3:hr>102</ns3:hr>
            <ns3:cad>0</ns3:cad>
          </ns3:TrackPointExtension>
        </extensions>
      </trkpt>
      <trkpt lat="37.7651582658290863037109375" lon="-107.70963680930435657501220703125">
        <ele>3749.199951171875</ele>
        <time>2023-07-29T14:21:46.000Z</time>
        <extensions>
          <ns3:TrackPointExtension>
            <ns3:hr>102</ns3:hr>
            <ns3:cad>0</ns3:cad>
          </ns3:TrackPointExtension>
        </extensions>
      </trkpt>
      <trkpt lat="37.765161283314228057861328125" lon="-107.7096392400562763214111328125">
        <ele>3749.199951171875</ele>
        <time>2023-07-29T14:21:47.000Z</time>
        <extensions>
          <ns3:TrackPointExtension>
            <ns3:hr>102</ns3:hr>
            <ns3:cad>0</ns3:cad>
          </ns3:TrackPointExtension>
        </extensions>
      </trkpt>
      <trkpt lat="37.76516606099903583526611328125" lon="-107.70964301191270351409912109375">
        <ele>3749.39990234375</ele>
        <time>2023-07-29T14:21:48.000Z</time>
        <extensions>
          <ns3:TrackPointExtension>
            <ns3:hr>102</ns3:hr>
            <ns3:cad>0</ns3:cad>
          </ns3:TrackPointExtension>
        </extensions>
      </trkpt>
      <trkpt lat="37.76517092250287532806396484375" lon="-107.7096511423587799072265625">
        <ele>3749.39990234375</ele>
        <time>2023-07-29T14:21:49.000Z</time>
        <extensions>
          <ns3:TrackPointExtension>
            <ns3:hr>102</ns3:hr>
            <ns3:cad>0</ns3:cad>
          </ns3:TrackPointExtension>
        </extensions>
      </trkpt>
      <trkpt lat="37.765174694359302520751953125" lon="-107.70965474657714366912841796875">
        <ele>3749.60009765625</ele>
        <time>2023-07-29T14:21:50.000Z</time>
        <extensions>
          <ns3:TrackPointExtension>
            <ns3:hr>102</ns3:hr>
            <ns3:cad>0</ns3:cad>
          </ns3:TrackPointExtension>
        </extensions>
      </trkpt>
      <trkpt lat="37.765174023807048797607421875" lon="-107.70965223200619220733642578125">
        <ele>3749.60009765625</ele>
        <time>2023-07-29T14:21:51.000Z</time>
        <extensions>
          <ns3:TrackPointExtension>
            <ns3:hr>102</ns3:hr>
            <ns3:cad>0</ns3:cad>
          </ns3:TrackPointExtension>
        </extensions>
      </trkpt>
      <trkpt lat="37.7651731856167316436767578125" lon="-107.709648795425891876220703125">
        <ele>3749.60009765625</ele>
        <time>2023-07-29T14:21:52.000Z</time>
        <extensions>
          <ns3:TrackPointExtension>
            <ns3:hr>102</ns3:hr>
            <ns3:cad>0</ns3:cad>
          </ns3:TrackPointExtension>
        </extensions>
      </trkpt>
      <trkpt lat="37.76517226360738277435302734375" lon="-107.7096429280936717987060546875">
        <ele>3749.800048828125</ele>
        <time>2023-07-29T14:21:53.000Z</time>
        <extensions>
          <ns3:TrackPointExtension>
            <ns3:hr>102</ns3:hr>
            <ns3:cad>0</ns3:cad>
          </ns3:TrackPointExtension>
        </extensions>
      </trkpt>
      <trkpt lat="37.7651718445122241973876953125" lon="-107.70964116789400577545166015625">
        <ele>3750</ele>
        <time>2023-07-29T14:21:54.000Z</time>
        <extensions>
          <ns3:TrackPointExtension>
            <ns3:hr>102</ns3:hr>
            <ns3:cad>0</ns3:cad>
          </ns3:TrackPointExtension>
        </extensions>
      </trkpt>
      <trkpt lat="37.7651738561689853668212890625" lon="-107.7096412517130374908447265625">
        <ele>3750.199951171875</ele>
        <time>2023-07-29T14:21:55.000Z</time>
        <extensions>
          <ns3:TrackPointExtension>
            <ns3:hr>102</ns3:hr>
            <ns3:cad>0</ns3:cad>
          </ns3:TrackPointExtension>
        </extensions>
      </trkpt>
      <trkpt lat="37.76517846621572971343994140625" lon="-107.70964351482689380645751953125">
        <ele>3750.199951171875</ele>
        <time>2023-07-29T14:21:56.000Z</time>
        <extensions>
          <ns3:TrackPointExtension>
            <ns3:hr>102</ns3:hr>
            <ns3:cad>0</ns3:cad>
          </ns3:TrackPointExtension>
        </extensions>
      </trkpt>
      <trkpt lat="37.765181399881839752197265625" lon="-107.70964351482689380645751953125">
        <ele>3750.199951171875</ele>
        <time>2023-07-29T14:21:57.000Z</time>
        <extensions>
          <ns3:TrackPointExtension>
            <ns3:hr>103</ns3:hr>
            <ns3:cad>0</ns3:cad>
          </ns3:TrackPointExtension>
        </extensions>
      </trkpt>
      <trkpt lat="37.7651815675199031829833984375" lon="-107.70964183844625949859619140625">
        <ele>3750.39990234375</ele>
        <time>2023-07-29T14:21:58.000Z</time>
        <extensions>
          <ns3:TrackPointExtension>
            <ns3:hr>102</ns3:hr>
            <ns3:cad>0</ns3:cad>
          </ns3:TrackPointExtension>
        </extensions>
      </trkpt>
      <trkpt lat="37.7651798911392688751220703125" lon="-107.70963781513273715972900390625">
        <ele>3750.39990234375</ele>
        <time>2023-07-29T14:21:59.000Z</time>
        <extensions>
          <ns3:TrackPointExtension>
            <ns3:hr>102</ns3:hr>
            <ns3:cad>0</ns3:cad>
          </ns3:TrackPointExtension>
        </extensions>
      </trkpt>
      <trkpt lat="37.76517796330153942108154296875" lon="-107.70963463000953197479248046875">
        <ele>3750.60009765625</ele>
        <time>2023-07-29T14:22:00.000Z</time>
        <extensions>
          <ns3:TrackPointExtension>
            <ns3:hr>102</ns3:hr>
            <ns3:cad>0</ns3:cad>
          </ns3:TrackPointExtension>
        </extensions>
      </trkpt>
      <trkpt lat="37.76517863385379314422607421875" lon="-107.709628678858280181884765625">
        <ele>3750.60009765625</ele>
        <time>2023-07-29T14:22:01.000Z</time>
        <extensions>
          <ns3:TrackPointExtension>
            <ns3:hr>102</ns3:hr>
            <ns3:cad>0</ns3:cad>
          </ns3:TrackPointExtension>
        </extensions>
      </trkpt>
      <trkpt lat="37.76518047787249088287353515625" lon="-107.70963060669600963592529296875">
        <ele>3750.800048828125</ele>
        <time>2023-07-29T14:22:02.000Z</time>
        <extensions>
          <ns3:TrackPointExtension>
            <ns3:hr>102</ns3:hr>
            <ns3:cad>0</ns3:cad>
          </ns3:TrackPointExtension>
        </extensions>
      </trkpt>
      <trkpt lat="37.7651849202811717987060546875" lon="-107.7096425928175449371337890625">
        <ele>3750.800048828125</ele>
        <time>2023-07-29T14:22:03.000Z</time>
        <extensions>
          <ns3:TrackPointExtension>
            <ns3:hr>102</ns3:hr>
            <ns3:cad>0</ns3:cad>
          </ns3:TrackPointExtension>
        </extensions>
      </trkpt>
      <trkpt lat="37.7651852555572986602783203125" lon="-107.70964418537914752960205078125">
        <ele>3750.800048828125</ele>
        <time>2023-07-29T14:22:04.000Z</time>
        <extensions>
          <ns3:TrackPointExtension>
            <ns3:hr>102</ns3:hr>
            <ns3:cad>0</ns3:cad>
          </ns3:TrackPointExtension>
        </extensions>
      </trkpt>
      <trkpt lat="37.76518768630921840667724609375" lon="-107.70964385010302066802978515625">
        <ele>3751</ele>
        <time>2023-07-29T14:22:05.000Z</time>
        <extensions>
          <ns3:TrackPointExtension>
            <ns3:hr>103</ns3:hr>
            <ns3:cad>0</ns3:cad>
          </ns3:TrackPointExtension>
        </extensions>
      </trkpt>
      <trkpt lat="37.76518818922340869903564453125" lon="-107.709641754627227783203125">
        <ele>3751</ele>
        <time>2023-07-29T14:22:06.000Z</time>
        <extensions>
          <ns3:TrackPointExtension>
            <ns3:hr>103</ns3:hr>
            <ns3:cad>0</ns3:cad>
          </ns3:TrackPointExtension>
        </extensions>
      </trkpt>
      <trkpt lat="37.7651850879192352294921875" lon="-107.70963932387530803680419921875">
        <ele>3751</ele>
        <time>2023-07-29T14:22:07.000Z</time>
        <extensions>
          <ns3:TrackPointExtension>
            <ns3:hr>103</ns3:hr>
            <ns3:cad>0</ns3:cad>
          </ns3:TrackPointExtension>
        </extensions>
      </trkpt>
      <trkpt lat="37.7651839144527912139892578125" lon="-107.70963664166629314422607421875">
        <ele>3751.199951171875</ele>
        <time>2023-07-29T14:22:08.000Z</time>
        <extensions>
          <ns3:TrackPointExtension>
            <ns3:hr>103</ns3:hr>
            <ns3:cad>0</ns3:cad>
          </ns3:TrackPointExtension>
        </extensions>
      </trkpt>
      <trkpt lat="37.76518466882407665252685546875" lon="-107.7096362225711345672607421875">
        <ele>3751.199951171875</ele>
        <time>2023-07-29T14:22:09.000Z</time>
        <extensions>
          <ns3:TrackPointExtension>
            <ns3:hr>103</ns3:hr>
            <ns3:cad>0</ns3:cad>
          </ns3:TrackPointExtension>
        </extensions>
      </trkpt>
      <trkpt lat="37.765189446508884429931640625" lon="-107.70964351482689380645751953125">
        <ele>3751.199951171875</ele>
        <time>2023-07-29T14:22:10.000Z</time>
        <extensions>
          <ns3:TrackPointExtension>
            <ns3:hr>103</ns3:hr>
            <ns3:cad>0</ns3:cad>
          </ns3:TrackPointExtension>
        </extensions>
      </trkpt>
      <trkpt lat="37.7651929669082164764404296875" lon="-107.7096486277878284454345703125">
        <ele>3751.60009765625</ele>
        <time>2023-07-29T14:22:11.000Z</time>
        <extensions>
          <ns3:TrackPointExtension>
            <ns3:hr>104</ns3:hr>
            <ns3:cad>0</ns3:cad>
          </ns3:TrackPointExtension>
        </extensions>
      </trkpt>
      <trkpt lat="37.76519724167883396148681640625" lon="-107.7096543274819850921630859375">
        <ele>3751.800048828125</ele>
        <time>2023-07-29T14:22:12.000Z</time>
        <extensions>
          <ns3:TrackPointExtension>
            <ns3:hr>103</ns3:hr>
            <ns3:cad>0</ns3:cad>
          </ns3:TrackPointExtension>
        </extensions>
      </trkpt>
      <trkpt lat="37.76520176790654659271240234375" lon="-107.70965960808098316192626953125">
        <ele>3751.800048828125</ele>
        <time>2023-07-29T14:22:13.000Z</time>
        <extensions>
          <ns3:TrackPointExtension>
            <ns3:hr>103</ns3:hr>
            <ns3:cad>0</ns3:cad>
          </ns3:TrackPointExtension>
        </extensions>
      </trkpt>
      <trkpt lat="37.76519791223108768463134765625" lon="-107.7096529863774776458740234375">
        <ele>3751.800048828125</ele>
        <time>2023-07-29T14:22:14.000Z</time>
        <extensions>
          <ns3:TrackPointExtension>
            <ns3:hr>103</ns3:hr>
            <ns3:cad>0</ns3:cad>
          </ns3:TrackPointExtension>
        </extensions>
      </trkpt>
      <trkpt lat="37.7652013488113880157470703125" lon="-107.70965759642422199249267578125">
        <ele>3751.800048828125</ele>
        <time>2023-07-29T14:22:15.000Z</time>
        <extensions>
          <ns3:TrackPointExtension>
            <ns3:hr>103</ns3:hr>
            <ns3:cad>0</ns3:cad>
          </ns3:TrackPointExtension>
        </extensions>
      </trkpt>
      <trkpt lat="37.7652016840875148773193359375" lon="-107.70965541712939739227294921875">
        <ele>3751.800048828125</ele>
        <time>2023-07-29T14:22:16.000Z</time>
        <extensions>
          <ns3:TrackPointExtension>
            <ns3:hr>102</ns3:hr>
            <ns3:cad>0</ns3:cad>
          </ns3:TrackPointExtension>
        </extensions>
      </trkpt>
      <trkpt lat="37.76519992388784885406494140625" lon="-107.7096499688923358917236328125">
        <ele>3751.800048828125</ele>
        <time>2023-07-29T14:22:17.000Z</time>
        <extensions>
          <ns3:TrackPointExtension>
            <ns3:hr>102</ns3:hr>
            <ns3:cad>0</ns3:cad>
          </ns3:TrackPointExtension>
        </extensions>
      </trkpt>
      <trkpt lat="37.76519875042140483856201171875" lon="-107.7096479572355747222900390625">
        <ele>3752</ele>
        <time>2023-07-29T14:22:18.000Z</time>
        <extensions>
          <ns3:TrackPointExtension>
            <ns3:hr>103</ns3:hr>
            <ns3:cad>0</ns3:cad>
          </ns3:TrackPointExtension>
        </extensions>
      </trkpt>
      <trkpt lat="37.76519623585045337677001953125" lon="-107.70964284427464008331298828125">
        <ele>3752.199951171875</ele>
        <time>2023-07-29T14:22:19.000Z</time>
        <extensions>
          <ns3:TrackPointExtension>
            <ns3:hr>103</ns3:hr>
            <ns3:cad>0</ns3:cad>
          </ns3:TrackPointExtension>
        </extensions>
      </trkpt>
      <trkpt lat="37.76519648730754852294921875" lon="-107.70964234136044979095458984375">
        <ele>3752.199951171875</ele>
        <time>2023-07-29T14:22:20.000Z</time>
        <extensions>
          <ns3:TrackPointExtension>
            <ns3:hr>103</ns3:hr>
            <ns3:cad>0</ns3:cad>
          </ns3:TrackPointExtension>
        </extensions>
      </trkpt>
      <trkpt lat="37.76519782841205596923828125" lon="-107.7096462808549404144287109375">
        <ele>3752.199951171875</ele>
        <time>2023-07-29T14:22:21.000Z</time>
        <extensions>
          <ns3:TrackPointExtension>
            <ns3:hr>103</ns3:hr>
            <ns3:cad>0</ns3:cad>
          </ns3:TrackPointExtension>
        </extensions>
      </trkpt>
      <trkpt lat="37.76519757695496082305908203125" lon="-107.709646113216876983642578125">
        <ele>3752.199951171875</ele>
        <time>2023-07-29T14:22:22.000Z</time>
        <extensions>
          <ns3:TrackPointExtension>
            <ns3:hr>103</ns3:hr>
            <ns3:cad>0</ns3:cad>
          </ns3:TrackPointExtension>
        </extensions>
      </trkpt>
      <trkpt lat="37.7652000077068805694580078125" lon="-107.70965206436812877655029296875">
        <ele>3752.39990234375</ele>
        <time>2023-07-29T14:22:23.000Z</time>
        <extensions>
          <ns3:TrackPointExtension>
            <ns3:hr>103</ns3:hr>
            <ns3:cad>0</ns3:cad>
          </ns3:TrackPointExtension>
        </extensions>
      </trkpt>
      <trkpt lat="37.76520042680203914642333984375" lon="-107.70964686758816242218017578125">
        <ele>3752.60009765625</ele>
        <time>2023-07-29T14:22:24.000Z</time>
        <extensions>
          <ns3:TrackPointExtension>
            <ns3:hr>104</ns3:hr>
            <ns3:cad>0</ns3:cad>
          </ns3:TrackPointExtension>
        </extensions>
      </trkpt>
      <trkpt lat="37.7652020193636417388916015625" lon="-107.70964686758816242218017578125">
        <ele>3752.60009765625</ele>
        <time>2023-07-29T14:22:25.000Z</time>
        <extensions>
          <ns3:TrackPointExtension>
            <ns3:hr>105</ns3:hr>
            <ns3:cad>0</ns3:cad>
          </ns3:TrackPointExtension>
        </extensions>
      </trkpt>
      <trkpt lat="37.76520587503910064697265625" lon="-107.70965256728231906890869140625">
        <ele>3752.800048828125</ele>
        <time>2023-07-29T14:22:26.000Z</time>
        <extensions>
          <ns3:TrackPointExtension>
            <ns3:hr>105</ns3:hr>
            <ns3:cad>0</ns3:cad>
          </ns3:TrackPointExtension>
        </extensions>
      </trkpt>
      <trkpt lat="37.76521014980971813201904296875" lon="-107.7096610330045223236083984375">
        <ele>3752.800048828125</ele>
        <time>2023-07-29T14:22:27.000Z</time>
        <extensions>
          <ns3:TrackPointExtension>
            <ns3:hr>105</ns3:hr>
            <ns3:cad>0</ns3:cad>
          </ns3:TrackPointExtension>
        </extensions>
      </trkpt>
      <trkpt lat="37.765216268599033355712890625" lon="-107.7096734382212162017822265625">
        <ele>3753</ele>
        <time>2023-07-29T14:22:28.000Z</time>
        <extensions>
          <ns3:TrackPointExtension>
            <ns3:hr>105</ns3:hr>
            <ns3:cad>0</ns3:cad>
          </ns3:TrackPointExtension>
        </extensions>
      </trkpt>
      <trkpt lat="37.76522205211222171783447265625" lon="-107.70968659780919551849365234375">
        <ele>3753.199951171875</ele>
        <time>2023-07-29T14:22:29.000Z</time>
        <extensions>
          <ns3:TrackPointExtension>
            <ns3:hr>106</ns3:hr>
            <ns3:cad>0</ns3:cad>
          </ns3:TrackPointExtension>
        </extensions>
      </trkpt>
      <trkpt lat="37.76522540487349033355712890625" lon="-107.709689699113368988037109375">
        <ele>3753.199951171875</ele>
        <time>2023-07-29T14:22:30.000Z</time>
        <extensions>
          <ns3:TrackPointExtension>
            <ns3:hr>106</ns3:hr>
            <ns3:cad>0</ns3:cad>
          </ns3:TrackPointExtension>
        </extensions>
      </trkpt>
      <trkpt lat="37.7652228064835071563720703125" lon="-107.70968592725694179534912109375">
        <ele>3753.199951171875</ele>
        <time>2023-07-29T14:22:31.000Z</time>
        <extensions>
          <ns3:TrackPointExtension>
            <ns3:hr>106</ns3:hr>
            <ns3:cad>0</ns3:cad>
          </ns3:TrackPointExtension>
        </extensions>
      </trkpt>
      <trkpt lat="37.76522372849285602569580078125" lon="-107.709706127643585205078125">
        <ele>3753.199951171875</ele>
        <time>2023-07-29T14:22:32.000Z</time>
        <extensions>
          <ns3:TrackPointExtension>
            <ns3:hr>106</ns3:hr>
            <ns3:cad>0</ns3:cad>
          </ns3:TrackPointExtension>
        </extensions>
      </trkpt>
      <trkpt lat="37.7652244828641414642333984375" lon="-107.709703110158443450927734375">
        <ele>3753.199951171875</ele>
        <time>2023-07-29T14:22:33.000Z</time>
        <extensions>
          <ns3:TrackPointExtension>
            <ns3:hr>106</ns3:hr>
            <ns3:cad>0</ns3:cad>
          </ns3:TrackPointExtension>
        </extensions>
      </trkpt>
      <trkpt lat="37.76522724889218807220458984375" lon="-107.70963370800018310546875">
        <ele>3755</ele>
        <time>2023-07-29T14:22:47.000Z</time>
        <extensions>
          <ns3:TrackPointExtension>
            <ns3:hr>108</ns3:hr>
            <ns3:cad>0</ns3:cad>
          </ns3:TrackPointExtension>
        </extensions>
      </trkpt>
      <trkpt lat="37.76522808708250522613525390625" lon="-107.70964242517948150634765625">
        <ele>3755</ele>
        <time>2023-07-29T14:22:48.000Z</time>
        <extensions>
          <ns3:TrackPointExtension>
            <ns3:hr>108</ns3:hr>
            <ns3:cad>0</ns3:cad>
          </ns3:TrackPointExtension>
        </extensions>
      </trkpt>
      <trkpt lat="37.76523127220571041107177734375" lon="-107.7096566744148731231689453125">
        <ele>3755</ele>
        <time>2023-07-29T14:22:49.000Z</time>
        <extensions>
          <ns3:TrackPointExtension>
            <ns3:hr>108</ns3:hr>
            <ns3:cad>0</ns3:cad>
          </ns3:TrackPointExtension>
        </extensions>
      </trkpt>
      <trkpt lat="37.76525507681071758270263671875" lon="-107.709726579487323760986328125">
        <ele>3754.60009765625</ele>
        <time>2023-07-29T14:22:54.000Z</time>
        <extensions>
          <ns3:TrackPointExtension>
            <ns3:hr>107</ns3:hr>
            <ns3:cad>0</ns3:cad>
          </ns3:TrackPointExtension>
        </extensions>
      </trkpt>
      <trkpt lat="37.76525775901973247528076171875" lon="-107.7097423374652862548828125">
        <ele>3754.60009765625</ele>
        <time>2023-07-29T14:22:55.000Z</time>
        <extensions>
          <ns3:TrackPointExtension>
            <ns3:hr>107</ns3:hr>
            <ns3:cad>0</ns3:cad>
          </ns3:TrackPointExtension>
        </extensions>
      </trkpt>
      <trkpt lat="37.76525993831455707550048828125" lon="-107.70973286591470241546630859375">
        <ele>3754.60009765625</ele>
        <time>2023-07-29T14:22:58.000Z</time>
        <extensions>
          <ns3:TrackPointExtension>
            <ns3:hr>106</ns3:hr>
            <ns3:cad>0</ns3:cad>
          </ns3:TrackPointExtension>
        </extensions>
      </trkpt>
      <trkpt lat="37.7652603574097156524658203125" lon="-107.70973638631403446197509765625">
        <ele>3754.800048828125</ele>
        <time>2023-07-29T14:22:59.000Z</time>
        <extensions>
          <ns3:TrackPointExtension>
            <ns3:hr>106</ns3:hr>
            <ns3:cad>0</ns3:cad>
          </ns3:TrackPointExtension>
        </extensions>
      </trkpt>
      <trkpt lat="37.7652600221335887908935546875" lon="-107.70973605103790760040283203125">
        <ele>3755</ele>
        <time>2023-07-29T14:23:00.000Z</time>
        <extensions>
          <ns3:TrackPointExtension>
            <ns3:hr>106</ns3:hr>
            <ns3:cad>0</ns3:cad>
          </ns3:TrackPointExtension>
        </extensions>
      </trkpt>
      <trkpt lat="37.76525675319135189056396484375" lon="-107.7097311057150363922119140625">
        <ele>3755.199951171875</ele>
        <time>2023-07-29T14:23:01.000Z</time>
        <extensions>
          <ns3:TrackPointExtension>
            <ns3:hr>106</ns3:hr>
            <ns3:cad>0</ns3:cad>
          </ns3:TrackPointExtension>
        </extensions>
      </trkpt>
      <trkpt lat="37.76525373570621013641357421875" lon="-107.70972448401153087615966796875">
        <ele>3755.60009765625</ele>
        <time>2023-07-29T14:23:02.000Z</time>
        <extensions>
          <ns3:TrackPointExtension>
            <ns3:hr>106</ns3:hr>
            <ns3:cad>0</ns3:cad>
          </ns3:TrackPointExtension>
        </extensions>
      </trkpt>
      <trkpt lat="37.7652472816407680511474609375" lon="-107.709719873964786529541015625">
        <ele>3755.800048828125</ele>
        <time>2023-07-29T14:23:03.000Z</time>
        <extensions>
          <ns3:TrackPointExtension>
            <ns3:hr>107</ns3:hr>
            <ns3:cad>0</ns3:cad>
          </ns3:TrackPointExtension>
        </extensions>
      </trkpt>
      <trkpt lat="37.76524602435529232025146484375" lon="-107.70971752703189849853515625">
        <ele>3756</ele>
        <time>2023-07-29T14:23:04.000Z</time>
        <extensions>
          <ns3:TrackPointExtension>
            <ns3:hr>107</ns3:hr>
            <ns3:cad>0</ns3:cad>
          </ns3:TrackPointExtension>
        </extensions>
      </trkpt>
      <trkpt lat="37.7652445994317531585693359375" lon="-107.70971492864191532135009765625">
        <ele>3756</ele>
        <time>2023-07-29T14:23:05.000Z</time>
        <extensions>
          <ns3:TrackPointExtension>
            <ns3:hr>109</ns3:hr>
            <ns3:cad>0</ns3:cad>
          </ns3:TrackPointExtension>
        </extensions>
      </trkpt>
      <trkpt lat="37.76524065993726253509521484375" lon="-107.70970889367163181304931640625">
        <ele>3756.199951171875</ele>
        <time>2023-07-29T14:23:06.000Z</time>
        <extensions>
          <ns3:TrackPointExtension>
            <ns3:hr>109</ns3:hr>
            <ns3:cad>0</ns3:cad>
          </ns3:TrackPointExtension>
        </extensions>
      </trkpt>
      <trkpt lat="37.765237726271152496337890625" lon="-107.70970487035810947418212890625">
        <ele>3756.199951171875</ele>
        <time>2023-07-29T14:23:07.000Z</time>
        <extensions>
          <ns3:TrackPointExtension>
            <ns3:hr>109</ns3:hr>
            <ns3:cad>0</ns3:cad>
          </ns3:TrackPointExtension>
        </extensions>
      </trkpt>
      <trkpt lat="37.76523831300437450408935546875" lon="-107.70970336161553859710693359375">
        <ele>3756.39990234375</ele>
        <time>2023-07-29T14:23:08.000Z</time>
        <extensions>
          <ns3:TrackPointExtension>
            <ns3:hr>109</ns3:hr>
            <ns3:cad>0</ns3:cad>
          </ns3:TrackPointExtension>
        </extensions>
      </trkpt>
      <trkpt lat="37.76523915119469165802001953125" lon="-107.70970034413039684295654296875">
        <ele>3756.39990234375</ele>
        <time>2023-07-29T14:23:09.000Z</time>
        <extensions>
          <ns3:TrackPointExtension>
            <ns3:hr>109</ns3:hr>
            <ns3:cad>0</ns3:cad>
          </ns3:TrackPointExtension>
        </extensions>
      </trkpt>
      <trkpt lat="37.7652385644614696502685546875" lon="-107.70969900302588939666748046875">
        <ele>3756.39990234375</ele>
        <time>2023-07-29T14:23:10.000Z</time>
        <extensions>
          <ns3:TrackPointExtension>
            <ns3:hr>108</ns3:hr>
            <ns3:cad>0</ns3:cad>
          </ns3:TrackPointExtension>
        </extensions>
      </trkpt>
      <trkpt lat="37.7652409113943576812744140625" lon="-107.70970034413039684295654296875">
        <ele>3756.39990234375</ele>
        <time>2023-07-29T14:23:11.000Z</time>
        <extensions>
          <ns3:TrackPointExtension>
            <ns3:hr>108</ns3:hr>
            <ns3:cad>0</ns3:cad>
          </ns3:TrackPointExtension>
        </extensions>
      </trkpt>
      <trkpt lat="37.7652414143085479736328125" lon="-107.7096979133784770965576171875">
        <ele>3756.60009765625</ele>
        <time>2023-07-29T14:23:12.000Z</time>
        <extensions>
          <ns3:TrackPointExtension>
            <ns3:hr>107</ns3:hr>
            <ns3:cad>0</ns3:cad>
          </ns3:TrackPointExtension>
        </extensions>
      </trkpt>
      <trkpt lat="37.76523931883275508880615234375" lon="-107.70969070494174957275390625">
        <ele>3756.60009765625</ele>
        <time>2023-07-29T14:23:13.000Z</time>
        <extensions>
          <ns3:TrackPointExtension>
            <ns3:hr>106</ns3:hr>
            <ns3:cad>0</ns3:cad>
          </ns3:TrackPointExtension>
        </extensions>
      </trkpt>
      <trkpt lat="37.76524065993726253509521484375" lon="-107.709689699113368988037109375">
        <ele>3756.800048828125</ele>
        <time>2023-07-29T14:23:14.000Z</time>
        <extensions>
          <ns3:TrackPointExtension>
            <ns3:hr>106</ns3:hr>
            <ns3:cad>0</ns3:cad>
          </ns3:TrackPointExtension>
        </extensions>
      </trkpt>
      <trkpt lat="37.76523630134761333465576171875" lon="-107.7096771262586116790771484375">
        <ele>3756.800048828125</ele>
        <time>2023-07-29T14:23:15.000Z</time>
        <extensions>
          <ns3:TrackPointExtension>
            <ns3:hr>105</ns3:hr>
            <ns3:cad>0</ns3:cad>
          </ns3:TrackPointExtension>
        </extensions>
      </trkpt>
      <trkpt lat="37.76523940265178680419921875" lon="-107.709680981934070587158203125">
        <ele>3756.800048828125</ele>
        <time>2023-07-29T14:23:16.000Z</time>
        <extensions>
          <ns3:TrackPointExtension>
            <ns3:hr>104</ns3:hr>
            <ns3:cad>0</ns3:cad>
          </ns3:TrackPointExtension>
        </extensions>
      </trkpt>
      <trkpt lat="37.76524149812757968902587890625" lon="-107.7096757851541042327880859375">
        <ele>3757</ele>
        <time>2023-07-29T14:23:17.000Z</time>
        <extensions>
          <ns3:TrackPointExtension>
            <ns3:hr>103</ns3:hr>
            <ns3:cad>0</ns3:cad>
          </ns3:TrackPointExtension>
        </extensions>
      </trkpt>
      <trkpt lat="37.765242755413055419921875" lon="-107.70967335440218448638916015625">
        <ele>3757.39990234375</ele>
        <time>2023-07-29T14:23:18.000Z</time>
        <extensions>
          <ns3:TrackPointExtension>
            <ns3:hr>103</ns3:hr>
            <ns3:cad>0</ns3:cad>
          </ns3:TrackPointExtension>
        </extensions>
      </trkpt>
      <trkpt lat="37.76524501852691173553466796875" lon="-107.709673605859279632568359375">
        <ele>3757.60009765625</ele>
        <time>2023-07-29T14:23:19.000Z</time>
        <extensions>
          <ns3:TrackPointExtension>
            <ns3:hr>103</ns3:hr>
            <ns3:cad>0</ns3:cad>
          </ns3:TrackPointExtension>
        </extensions>
      </trkpt>
      <trkpt lat="37.76525055058300495147705078125" lon="-107.70967653952538967132568359375">
        <ele>3757.800048828125</ele>
        <time>2023-07-29T14:23:20.000Z</time>
        <extensions>
          <ns3:TrackPointExtension>
            <ns3:hr>103</ns3:hr>
            <ns3:cad>0</ns3:cad>
          </ns3:TrackPointExtension>
        </extensions>
      </trkpt>
      <trkpt lat="37.7652576752007007598876953125" lon="-107.70968156866729259490966796875">
        <ele>3757.800048828125</ele>
        <time>2023-07-29T14:23:21.000Z</time>
        <extensions>
          <ns3:TrackPointExtension>
            <ns3:hr>103</ns3:hr>
            <ns3:cad>0</ns3:cad>
          </ns3:TrackPointExtension>
        </extensions>
      </trkpt>
      <trkpt lat="37.76525826193392276763916015625" lon="-107.70968307740986347198486328125">
        <ele>3758</ele>
        <time>2023-07-29T14:23:22.000Z</time>
        <extensions>
          <ns3:TrackPointExtension>
            <ns3:hr>103</ns3:hr>
            <ns3:cad>0</ns3:cad>
          </ns3:TrackPointExtension>
        </extensions>
      </trkpt>
      <trkpt lat="37.76526161469519138336181640625" lon="-107.70968693308532238006591796875">
        <ele>3758.199951171875</ele>
        <time>2023-07-29T14:23:23.000Z</time>
        <extensions>
          <ns3:TrackPointExtension>
            <ns3:hr>103</ns3:hr>
            <ns3:cad>0</ns3:cad>
          </ns3:TrackPointExtension>
        </extensions>
      </trkpt>
      <trkpt lat="37.76526412926614284515380859375" lon="-107.70968735218048095703125">
        <ele>3758.39990234375</ele>
        <time>2023-07-29T14:23:24.000Z</time>
        <extensions>
          <ns3:TrackPointExtension>
            <ns3:hr>104</ns3:hr>
            <ns3:cad>0</ns3:cad>
          </ns3:TrackPointExtension>
        </extensions>
      </trkpt>
      <trkpt lat="37.7652710862457752227783203125" lon="-107.70969414152204990386962890625">
        <ele>3758.60009765625</ele>
        <time>2023-07-29T14:23:25.000Z</time>
        <extensions>
          <ns3:TrackPointExtension>
            <ns3:hr>104</ns3:hr>
            <ns3:cad>0</ns3:cad>
          </ns3:TrackPointExtension>
        </extensions>
      </trkpt>
      <trkpt lat="37.7652762830257415771484375" lon="-107.7096989192068576812744140625">
        <ele>3758.800048828125</ele>
        <time>2023-07-29T14:23:26.000Z</time>
        <extensions>
          <ns3:TrackPointExtension>
            <ns3:hr>105</ns3:hr>
            <ns3:cad>0</ns3:cad>
          </ns3:TrackPointExtension>
        </extensions>
      </trkpt>
      <trkpt lat="37.765281982719898223876953125" lon="-107.70970235578715801239013671875">
        <ele>3758.800048828125</ele>
        <time>2023-07-29T14:23:27.000Z</time>
        <extensions>
          <ns3:TrackPointExtension>
            <ns3:hr>106</ns3:hr>
            <ns3:cad>0</ns3:cad>
          </ns3:TrackPointExtension>
        </extensions>
      </trkpt>
      <trkpt lat="37.7652861736714839935302734375" lon="-107.709703780710697174072265625">
        <ele>3759.199951171875</ele>
        <time>2023-07-29T14:23:28.000Z</time>
        <extensions>
          <ns3:TrackPointExtension>
            <ns3:hr>107</ns3:hr>
            <ns3:cad>0</ns3:cad>
          </ns3:TrackPointExtension>
        </extensions>
      </trkpt>
      <trkpt lat="37.765291035175323486328125" lon="-107.70970872603356838226318359375">
        <ele>3759.60009765625</ele>
        <time>2023-07-29T14:23:29.000Z</time>
        <extensions>
          <ns3:TrackPointExtension>
            <ns3:hr>108</ns3:hr>
            <ns3:cad>0</ns3:cad>
          </ns3:TrackPointExtension>
        </extensions>
      </trkpt>
      <trkpt lat="37.7652932144701480865478515625" lon="-107.7097093127667903900146484375">
        <ele>3759.800048828125</ele>
        <time>2023-07-29T14:23:30.000Z</time>
        <extensions>
          <ns3:TrackPointExtension>
            <ns3:hr>109</ns3:hr>
            <ns3:cad>0</ns3:cad>
          </ns3:TrackPointExtension>
        </extensions>
      </trkpt>
      <trkpt lat="37.765295393764972686767578125" lon="-107.7097106538712978363037109375">
        <ele>3759.800048828125</ele>
        <time>2023-07-29T14:23:31.000Z</time>
        <extensions>
          <ns3:TrackPointExtension>
            <ns3:hr>110</ns3:hr>
            <ns3:cad>0</ns3:cad>
          </ns3:TrackPointExtension>
        </extensions>
      </trkpt>
      <trkpt lat="37.76529832743108272552490234375" lon="-107.70971073769032955169677734375">
        <ele>3760.199951171875</ele>
        <time>2023-07-29T14:23:32.000Z</time>
        <extensions>
          <ns3:TrackPointExtension>
            <ns3:hr>110</ns3:hr>
            <ns3:cad>0</ns3:cad>
          </ns3:TrackPointExtension>
        </extensions>
      </trkpt>
      <trkpt lat="37.765301428735256195068359375" lon="-107.70971040241420269012451171875">
        <ele>3760.60009765625</ele>
        <time>2023-07-29T14:23:33.000Z</time>
        <extensions>
          <ns3:TrackPointExtension>
            <ns3:hr>111</ns3:hr>
            <ns3:cad>0</ns3:cad>
          </ns3:TrackPointExtension>
        </extensions>
      </trkpt>
      <trkpt lat="37.76529983617365360260009765625" lon="-107.7097036130726337432861328125">
        <ele>3761</ele>
        <time>2023-07-29T14:23:34.000Z</time>
        <extensions>
          <ns3:TrackPointExtension>
            <ns3:hr>112</ns3:hr>
            <ns3:cad>0</ns3:cad>
          </ns3:TrackPointExtension>
        </extensions>
      </trkpt>
      <trkpt lat="37.76529983617365360260009765625" lon="-107.70969581790268421173095703125">
        <ele>3761</ele>
        <time>2023-07-29T14:23:35.000Z</time>
        <extensions>
          <ns3:TrackPointExtension>
            <ns3:hr>113</ns3:hr>
            <ns3:cad>0</ns3:cad>
          </ns3:TrackPointExtension>
        </extensions>
      </trkpt>
      <trkpt lat="37.7652972377836704254150390625" lon="-107.7096915431320667266845703125">
        <ele>3761.199951171875</ele>
        <time>2023-07-29T14:23:36.000Z</time>
        <extensions>
          <ns3:TrackPointExtension>
            <ns3:hr>114</ns3:hr>
            <ns3:cad>0</ns3:cad>
          </ns3:TrackPointExtension>
        </extensions>
      </trkpt>
      <trkpt lat="37.7652982436120510101318359375" lon="-107.70969430916011333465576171875">
        <ele>3761.39990234375</ele>
        <time>2023-07-29T14:23:37.000Z</time>
        <extensions>
          <ns3:TrackPointExtension>
            <ns3:hr>115</ns3:hr>
            <ns3:cad>0</ns3:cad>
          </ns3:TrackPointExtension>
        </extensions>
      </trkpt>
      <trkpt lat="37.765302769839763641357421875" lon="-107.70969565026462078094482421875">
        <ele>3761.60009765625</ele>
        <time>2023-07-29T14:23:38.000Z</time>
        <extensions>
          <ns3:TrackPointExtension>
            <ns3:hr>117</ns3:hr>
            <ns3:cad>0</ns3:cad>
          </ns3:TrackPointExtension>
        </extensions>
      </trkpt>
      <trkpt lat="37.76530520059168338775634765625" lon="-107.70969481207430362701416015625">
        <ele>3761.60009765625</ele>
        <time>2023-07-29T14:23:39.000Z</time>
        <extensions>
          <ns3:TrackPointExtension>
            <ns3:hr>117</ns3:hr>
            <ns3:cad>0</ns3:cad>
          </ns3:TrackPointExtension>
        </extensions>
      </trkpt>
      <trkpt lat="37.76530805043876171112060546875" lon="-107.7096975781023502349853515625">
        <ele>3761.800048828125</ele>
        <time>2023-07-29T14:23:40.000Z</time>
        <extensions>
          <ns3:TrackPointExtension>
            <ns3:hr>118</ns3:hr>
            <ns3:cad>0</ns3:cad>
          </ns3:TrackPointExtension>
        </extensions>
      </trkpt>
      <trkpt lat="37.76530939154326915740966796875" lon="-107.70970051176846027374267578125">
        <ele>3761.800048828125</ele>
        <time>2023-07-29T14:23:41.000Z</time>
        <extensions>
          <ns3:TrackPointExtension>
            <ns3:hr>118</ns3:hr>
            <ns3:cad>0</ns3:cad>
          </ns3:TrackPointExtension>
        </extensions>
      </trkpt>
      <trkpt lat="37.76531182229518890380859375" lon="-107.709703780710697174072265625">
        <ele>3762</ele>
        <time>2023-07-29T14:23:42.000Z</time>
        <extensions>
          <ns3:TrackPointExtension>
            <ns3:hr>118</ns3:hr>
            <ns3:cad>0</ns3:cad>
          </ns3:TrackPointExtension>
        </extensions>
      </trkpt>
      <trkpt lat="37.765311487019062042236328125" lon="-107.70970235578715801239013671875">
        <ele>3762</ele>
        <time>2023-07-29T14:23:43.000Z</time>
        <extensions>
          <ns3:TrackPointExtension>
            <ns3:hr>118</ns3:hr>
            <ns3:cad>0</ns3:cad>
          </ns3:TrackPointExtension>
        </extensions>
      </trkpt>
      <trkpt lat="37.76530637405812740325927734375" lon="-107.709696404635906219482421875">
        <ele>3762</ele>
        <time>2023-07-29T14:23:44.000Z</time>
        <extensions>
          <ns3:TrackPointExtension>
            <ns3:hr>118</ns3:hr>
            <ns3:cad>0</ns3:cad>
          </ns3:TrackPointExtension>
        </extensions>
      </trkpt>
      <trkpt lat="37.765310145914554595947265625" lon="-107.7097039483487606048583984375">
        <ele>3762.199951171875</ele>
        <time>2023-07-29T14:23:45.000Z</time>
        <extensions>
          <ns3:TrackPointExtension>
            <ns3:hr>118</ns3:hr>
            <ns3:cad>0</ns3:cad>
          </ns3:TrackPointExtension>
        </extensions>
      </trkpt>
      <trkpt lat="37.7653109841048717498779296875" lon="-107.709703780710697174072265625">
        <ele>3762.39990234375</ele>
        <time>2023-07-29T14:23:46.000Z</time>
        <extensions>
          <ns3:TrackPointExtension>
            <ns3:hr>117</ns3:hr>
            <ns3:cad>0</ns3:cad>
          </ns3:TrackPointExtension>
        </extensions>
      </trkpt>
      <trkpt lat="37.765312828123569488525390625" lon="-107.70970554091036319732666015625">
        <ele>3762.39990234375</ele>
        <time>2023-07-29T14:23:47.000Z</time>
        <extensions>
          <ns3:TrackPointExtension>
            <ns3:hr>116</ns3:hr>
            <ns3:cad>0</ns3:cad>
          </ns3:TrackPointExtension>
        </extensions>
      </trkpt>
      <trkpt lat="37.76531307958066463470458984375" lon="-107.70970679819583892822265625">
        <ele>3762.60009765625</ele>
        <time>2023-07-29T14:23:48.000Z</time>
        <extensions>
          <ns3:TrackPointExtension>
            <ns3:hr>116</ns3:hr>
            <ns3:cad>0</ns3:cad>
          </ns3:TrackPointExtension>
        </extensions>
      </trkpt>
      <trkpt lat="37.7653129957616329193115234375" lon="-107.70970621146261692047119140625">
        <ele>3762.60009765625</ele>
        <time>2023-07-29T14:23:49.000Z</time>
        <extensions>
          <ns3:TrackPointExtension>
            <ns3:hr>116</ns3:hr>
            <ns3:cad>0</ns3:cad>
          </ns3:TrackPointExtension>
        </extensions>
      </trkpt>
      <trkpt lat="37.76531391777098178863525390625" lon="-107.70970704965293407440185546875">
        <ele>3762.800048828125</ele>
        <time>2023-07-29T14:23:50.000Z</time>
        <extensions>
          <ns3:TrackPointExtension>
            <ns3:hr>116</ns3:hr>
            <ns3:cad>0</ns3:cad>
          </ns3:TrackPointExtension>
        </extensions>
      </trkpt>
      <trkpt lat="37.76531291194260120391845703125" lon="-107.7097089774906635284423828125">
        <ele>3763</ele>
        <time>2023-07-29T14:23:51.000Z</time>
        <extensions>
          <ns3:TrackPointExtension>
            <ns3:hr>116</ns3:hr>
            <ns3:cad>0</ns3:cad>
          </ns3:TrackPointExtension>
        </extensions>
      </trkpt>
      <trkpt lat="37.76531173847615718841552734375" lon="-107.70971157588064670562744140625">
        <ele>3763.199951171875</ele>
        <time>2023-07-29T14:23:52.000Z</time>
        <extensions>
          <ns3:TrackPointExtension>
            <ns3:hr>117</ns3:hr>
            <ns3:cad>0</ns3:cad>
          </ns3:TrackPointExtension>
        </extensions>
      </trkpt>
      <trkpt lat="37.76530914008617401123046875" lon="-107.7097126655280590057373046875">
        <ele>3763.199951171875</ele>
        <time>2023-07-29T14:23:53.000Z</time>
        <extensions>
          <ns3:TrackPointExtension>
            <ns3:hr>117</ns3:hr>
            <ns3:cad>0</ns3:cad>
          </ns3:TrackPointExtension>
        </extensions>
      </trkpt>
      <trkpt lat="37.76530486531555652618408203125" lon="-107.70971224643290042877197265625">
        <ele>3763.199951171875</ele>
        <time>2023-07-29T14:23:54.000Z</time>
        <extensions>
          <ns3:TrackPointExtension>
            <ns3:hr>117</ns3:hr>
            <ns3:cad>0</ns3:cad>
          </ns3:TrackPointExtension>
        </extensions>
      </trkpt>
      <trkpt lat="37.76530587114393711090087890625" lon="-107.70971484482288360595703125">
        <ele>3763.39990234375</ele>
        <time>2023-07-29T14:23:55.000Z</time>
        <extensions>
          <ns3:TrackPointExtension>
            <ns3:hr>118</ns3:hr>
            <ns3:cad>0</ns3:cad>
          </ns3:TrackPointExtension>
        </extensions>
      </trkpt>
      <trkpt lat="37.7653072960674762725830078125" lon="-107.7097166888415813446044921875">
        <ele>3763.39990234375</ele>
        <time>2023-07-29T14:23:56.000Z</time>
        <extensions>
          <ns3:TrackPointExtension>
            <ns3:hr>118</ns3:hr>
            <ns3:cad>0</ns3:cad>
          </ns3:TrackPointExtension>
        </extensions>
      </trkpt>
      <trkpt lat="37.7653160132467746734619140625" lon="-107.7097247354686260223388671875">
        <ele>3763.39990234375</ele>
        <time>2023-07-29T14:23:57.000Z</time>
        <extensions>
          <ns3:TrackPointExtension>
            <ns3:hr>119</ns3:hr>
            <ns3:cad>0</ns3:cad>
          </ns3:TrackPointExtension>
        </extensions>
      </trkpt>
      <trkpt lat="37.76532431133091449737548828125" lon="-107.7097327820956707000732421875">
        <ele>3763.39990234375</ele>
        <time>2023-07-29T14:23:58.000Z</time>
        <extensions>
          <ns3:TrackPointExtension>
            <ns3:hr>119</ns3:hr>
            <ns3:cad>0</ns3:cad>
          </ns3:TrackPointExtension>
        </extensions>
      </trkpt>
      <trkpt lat="37.76532615534961223602294921875" lon="-107.7097351290285587310791015625">
        <ele>3763.39990234375</ele>
        <time>2023-07-29T14:23:59.000Z</time>
        <extensions>
          <ns3:TrackPointExtension>
            <ns3:hr>118</ns3:hr>
            <ns3:cad>0</ns3:cad>
          </ns3:TrackPointExtension>
        </extensions>
      </trkpt>
      <trkpt lat="37.76533118449151515960693359375" lon="-107.709741331636905670166015625">
        <ele>3763.39990234375</ele>
        <time>2023-07-29T14:24:00.000Z</time>
        <extensions>
          <ns3:TrackPointExtension>
            <ns3:hr>118</ns3:hr>
            <ns3:cad>0</ns3:cad>
          </ns3:TrackPointExtension>
        </extensions>
      </trkpt>
      <trkpt lat="37.76533219031989574432373046875" lon="-107.7097435109317302703857421875">
        <ele>3763.60009765625</ele>
        <time>2023-07-29T14:24:01.000Z</time>
        <extensions>
          <ns3:TrackPointExtension>
            <ns3:hr>118</ns3:hr>
            <ns3:cad>0</ns3:cad>
          </ns3:TrackPointExtension>
        </extensions>
      </trkpt>
      <trkpt lat="37.76533269323408603668212890625" lon="-107.7097401581704616546630859375">
        <ele>3763.60009765625</ele>
        <time>2023-07-29T14:24:02.000Z</time>
        <extensions>
          <ns3:TrackPointExtension>
            <ns3:hr>119</ns3:hr>
            <ns3:cad>0</ns3:cad>
          </ns3:TrackPointExtension>
        </extensions>
      </trkpt>
      <trkpt lat="37.76533403433859348297119140625" lon="-107.7097421698272228240966796875">
        <ele>3763.800048828125</ele>
        <time>2023-07-29T14:24:03.000Z</time>
        <extensions>
          <ns3:TrackPointExtension>
            <ns3:hr>119</ns3:hr>
            <ns3:cad>0</ns3:cad>
          </ns3:TrackPointExtension>
        </extensions>
      </trkpt>
      <trkpt lat="37.765335626900196075439453125" lon="-107.7097458578646183013916015625">
        <ele>3763.800048828125</ele>
        <time>2023-07-29T14:24:04.000Z</time>
        <extensions>
          <ns3:TrackPointExtension>
            <ns3:hr>119</ns3:hr>
            <ns3:cad>0</ns3:cad>
          </ns3:TrackPointExtension>
        </extensions>
      </trkpt>
      <trkpt lat="37.765339314937591552734375" lon="-107.70974460057914257049560546875">
        <ele>3763.800048828125</ele>
        <time>2023-07-29T14:24:05.000Z</time>
        <extensions>
          <ns3:TrackPointExtension>
            <ns3:hr>119</ns3:hr>
            <ns3:cad>0</ns3:cad>
          </ns3:TrackPointExtension>
        </extensions>
      </trkpt>
      <trkpt lat="37.765338979661464691162109375" lon="-107.70974074490368366241455078125">
        <ele>3763.800048828125</ele>
        <time>2023-07-29T14:24:06.000Z</time>
        <extensions>
          <ns3:TrackPointExtension>
            <ns3:hr>118</ns3:hr>
            <ns3:cad>0</ns3:cad>
          </ns3:TrackPointExtension>
        </extensions>
      </trkpt>
      <trkpt lat="37.76534174568951129913330078125" lon="-107.70974393002688884735107421875">
        <ele>3763.800048828125</ele>
        <time>2023-07-29T14:24:07.000Z</time>
        <extensions>
          <ns3:TrackPointExtension>
            <ns3:hr>117</ns3:hr>
            <ns3:cad>0</ns3:cad>
          </ns3:TrackPointExtension>
        </extensions>
      </trkpt>
      <trkpt lat="37.7653435058891773223876953125" lon="-107.70974376238882541656494140625">
        <ele>3764</ele>
        <time>2023-07-29T14:24:08.000Z</time>
        <extensions>
          <ns3:TrackPointExtension>
            <ns3:hr>116</ns3:hr>
            <ns3:cad>0</ns3:cad>
          </ns3:TrackPointExtension>
        </extensions>
      </trkpt>
      <trkpt lat="37.76534677483141422271728515625" lon="-107.7097414992749691009521484375">
        <ele>3764</ele>
        <time>2023-07-29T14:24:09.000Z</time>
        <extensions>
          <ns3:TrackPointExtension>
            <ns3:hr>114</ns3:hr>
            <ns3:cad>0</ns3:cad>
          </ns3:TrackPointExtension>
        </extensions>
      </trkpt>
      <trkpt lat="37.76535012759268283843994140625" lon="-107.70974493585526943206787109375">
        <ele>3764</ele>
        <time>2023-07-29T14:24:10.000Z</time>
        <extensions>
          <ns3:TrackPointExtension>
            <ns3:hr>113</ns3:hr>
            <ns3:cad>0</ns3:cad>
          </ns3:TrackPointExtension>
        </extensions>
      </trkpt>
      <trkpt lat="37.76535398326814174652099609375" lon="-107.7097468636929988861083984375">
        <ele>3764.199951171875</ele>
        <time>2023-07-29T14:24:11.000Z</time>
        <extensions>
          <ns3:TrackPointExtension>
            <ns3:hr>113</ns3:hr>
            <ns3:cad>0</ns3:cad>
          </ns3:TrackPointExtension>
        </extensions>
      </trkpt>
      <trkpt lat="37.765357755124568939208984375" lon="-107.70974258892238140106201171875">
        <ele>3764.39990234375</ele>
        <time>2023-07-29T14:24:12.000Z</time>
        <extensions>
          <ns3:TrackPointExtension>
            <ns3:hr>113</ns3:hr>
            <ns3:cad>0</ns3:cad>
          </ns3:TrackPointExtension>
        </extensions>
      </trkpt>
      <trkpt lat="37.76536219753324985504150390625" lon="-107.70974175073206424713134765625">
        <ele>3764.39990234375</ele>
        <time>2023-07-29T14:24:13.000Z</time>
        <extensions>
          <ns3:TrackPointExtension>
            <ns3:hr>113</ns3:hr>
            <ns3:cad>0</ns3:cad>
          </ns3:TrackPointExtension>
        </extensions>
      </trkpt>
      <trkpt lat="37.7653652988374233245849609375" lon="-107.70974359475076198577880859375">
        <ele>3764.60009765625</ele>
        <time>2023-07-29T14:24:14.000Z</time>
        <extensions>
          <ns3:TrackPointExtension>
            <ns3:hr>113</ns3:hr>
            <ns3:cad>0</ns3:cad>
          </ns3:TrackPointExtension>
        </extensions>
      </trkpt>
      <trkpt lat="37.76537083089351654052734375" lon="-107.70975046791136264801025390625">
        <ele>3764.60009765625</ele>
        <time>2023-07-29T14:24:15.000Z</time>
        <extensions>
          <ns3:TrackPointExtension>
            <ns3:hr>113</ns3:hr>
            <ns3:cad>0</ns3:cad>
          </ns3:TrackPointExtension>
        </extensions>
      </trkpt>
      <trkpt lat="37.76537217199802398681640625" lon="-107.7097450196743011474609375">
        <ele>3764.60009765625</ele>
        <time>2023-07-29T14:24:16.000Z</time>
        <extensions>
          <ns3:TrackPointExtension>
            <ns3:hr>113</ns3:hr>
            <ns3:cad>0</ns3:cad>
          </ns3:TrackPointExtension>
        </extensions>
      </trkpt>
      <trkpt lat="37.76537979952991008758544921875" lon="-107.70974694751203060150146484375">
        <ele>3764.800048828125</ele>
        <time>2023-07-29T14:24:17.000Z</time>
        <extensions>
          <ns3:TrackPointExtension>
            <ns3:hr>113</ns3:hr>
            <ns3:cad>0</ns3:cad>
          </ns3:TrackPointExtension>
        </extensions>
      </trkpt>
      <trkpt lat="37.76539321057498455047607421875" lon="-107.70974057726562023162841796875">
        <ele>3764.800048828125</ele>
        <time>2023-07-29T14:24:18.000Z</time>
        <extensions>
          <ns3:TrackPointExtension>
            <ns3:hr>113</ns3:hr>
            <ns3:cad>0</ns3:cad>
          </ns3:TrackPointExtension>
        </extensions>
      </trkpt>
      <trkpt lat="37.76540041901171207427978515625" lon="-107.70973320119082927703857421875">
        <ele>3764.800048828125</ele>
        <time>2023-07-29T14:24:19.000Z</time>
        <extensions>
          <ns3:TrackPointExtension>
            <ns3:hr>112</ns3:hr>
            <ns3:cad>0</ns3:cad>
          </ns3:TrackPointExtension>
        </extensions>
      </trkpt>
      <trkpt lat="37.76541047729551792144775390625" lon="-107.70972423255443572998046875">
        <ele>3765</ele>
        <time>2023-07-29T14:24:20.000Z</time>
        <extensions>
          <ns3:TrackPointExtension>
            <ns3:hr>111</ns3:hr>
            <ns3:cad>0</ns3:cad>
          </ns3:TrackPointExtension>
        </extensions>
      </trkpt>
      <trkpt lat="37.76541617698967456817626953125" lon="-107.70971425808966159820556640625">
        <ele>3765.199951171875</ele>
        <time>2023-07-29T14:24:21.000Z</time>
        <extensions>
          <ns3:TrackPointExtension>
            <ns3:hr>111</ns3:hr>
            <ns3:cad>0</ns3:cad>
          </ns3:TrackPointExtension>
        </extensions>
      </trkpt>
      <trkpt lat="37.76541701517999172210693359375" lon="-107.70970084704458713531494140625">
        <ele>3765.199951171875</ele>
        <time>2023-07-29T14:24:22.000Z</time>
        <extensions>
          <ns3:TrackPointExtension>
            <ns3:hr>110</ns3:hr>
            <ns3:cad>0</ns3:cad>
          </ns3:TrackPointExtension>
        </extensions>
      </trkpt>
      <trkpt lat="37.76541508734226226806640625" lon="-107.70969204604625701904296875">
        <ele>3765.199951171875</ele>
        <time>2023-07-29T14:24:23.000Z</time>
        <extensions>
          <ns3:TrackPointExtension>
            <ns3:hr>110</ns3:hr>
            <ns3:cad>0</ns3:cad>
          </ns3:TrackPointExtension>
        </extensions>
      </trkpt>
      <trkpt lat="37.7654145844280719757080078125" lon="-107.7096814848482608795166015625">
        <ele>3765.39990234375</ele>
        <time>2023-07-29T14:24:24.000Z</time>
        <extensions>
          <ns3:TrackPointExtension>
            <ns3:hr>109</ns3:hr>
            <ns3:cad>0</ns3:cad>
          </ns3:TrackPointExtension>
        </extensions>
      </trkpt>
      <trkpt lat="37.76541098020970821380615234375" lon="-107.70967855118215084075927734375">
        <ele>3765.39990234375</ele>
        <time>2023-07-29T14:24:25.000Z</time>
        <extensions>
          <ns3:TrackPointExtension>
            <ns3:hr>109</ns3:hr>
            <ns3:cad>0</ns3:cad>
          </ns3:TrackPointExtension>
        </extensions>
      </trkpt>
      <trkpt lat="37.76540460996329784393310546875" lon="-107.70967327058315277099609375">
        <ele>3765.60009765625</ele>
        <time>2023-07-29T14:24:26.000Z</time>
        <extensions>
          <ns3:TrackPointExtension>
            <ns3:hr>109</ns3:hr>
            <ns3:cad>0</ns3:cad>
          </ns3:TrackPointExtension>
        </extensions>
      </trkpt>
      <trkpt lat="37.7654005028307437896728515625" lon="-107.70966388285160064697265625">
        <ele>3765.60009765625</ele>
        <time>2023-07-29T14:24:27.000Z</time>
        <extensions>
          <ns3:TrackPointExtension>
            <ns3:hr>108</ns3:hr>
            <ns3:cad>0</ns3:cad>
          </ns3:TrackPointExtension>
        </extensions>
      </trkpt>
      <trkpt lat="37.76539840735495090484619140625" lon="-107.7096479572355747222900390625">
        <ele>3765.800048828125</ele>
        <time>2023-07-29T14:24:28.000Z</time>
        <extensions>
          <ns3:TrackPointExtension>
            <ns3:hr>108</ns3:hr>
            <ns3:cad>0</ns3:cad>
          </ns3:TrackPointExtension>
        </extensions>
      </trkpt>
      <trkpt lat="37.76539538986980915069580078125" lon="-107.7096311934292316436767578125">
        <ele>3765.800048828125</ele>
        <time>2023-07-29T14:24:29.000Z</time>
        <extensions>
          <ns3:TrackPointExtension>
            <ns3:hr>107</ns3:hr>
            <ns3:cad>0</ns3:cad>
          </ns3:TrackPointExtension>
        </extensions>
      </trkpt>
      <trkpt lat="37.76539237238466739654541015625" lon="-107.70961954258382320404052734375">
        <ele>3765.800048828125</ele>
        <time>2023-07-29T14:24:30.000Z</time>
        <extensions>
          <ns3:TrackPointExtension>
            <ns3:hr>107</ns3:hr>
            <ns3:cad>0</ns3:cad>
          </ns3:TrackPointExtension>
        </extensions>
      </trkpt>
      <trkpt lat="37.76538901962339878082275390625" lon="-107.7096010185778141021728515625">
        <ele>3765.800048828125</ele>
        <time>2023-07-29T14:24:31.000Z</time>
        <extensions>
          <ns3:TrackPointExtension>
            <ns3:hr>107</ns3:hr>
            <ns3:cad>0</ns3:cad>
          </ns3:TrackPointExtension>
        </extensions>
      </trkpt>
      <trkpt lat="37.76538499630987644195556640625" lon="-107.70957629196345806121826171875">
        <ele>3765.800048828125</ele>
        <time>2023-07-29T14:24:32.000Z</time>
        <extensions>
          <ns3:TrackPointExtension>
            <ns3:hr>107</ns3:hr>
            <ns3:cad>0</ns3:cad>
          </ns3:TrackPointExtension>
        </extensions>
      </trkpt>
      <trkpt lat="37.76537954807281494140625" lon="-107.70956858061254024505615234375">
        <ele>3766</ele>
        <time>2023-07-29T14:24:33.000Z</time>
        <extensions>
          <ns3:TrackPointExtension>
            <ns3:hr>106</ns3:hr>
            <ns3:cad>0</ns3:cad>
          </ns3:TrackPointExtension>
        </extensions>
      </trkpt>
      <trkpt lat="37.7653770335018634796142578125" lon="-107.7095691673457622528076171875">
        <ele>3766</ele>
        <time>2023-07-29T14:24:34.000Z</time>
        <extensions>
          <ns3:TrackPointExtension>
            <ns3:hr>106</ns3:hr>
            <ns3:cad>0</ns3:cad>
          </ns3:TrackPointExtension>
        </extensions>
      </trkpt>
      <trkpt lat="37.765376865863800048828125" lon="-107.70956941880285739898681640625">
        <ele>3766</ele>
        <time>2023-07-29T14:24:35.000Z</time>
        <extensions>
          <ns3:TrackPointExtension>
            <ns3:hr>106</ns3:hr>
            <ns3:cad>0</ns3:cad>
          </ns3:TrackPointExtension>
        </extensions>
      </trkpt>
      <trkpt lat="37.76537225581705570220947265625" lon="-107.7095805667340755462646484375">
        <ele>3766</ele>
        <time>2023-07-29T14:24:36.000Z</time>
        <extensions>
          <ns3:TrackPointExtension>
            <ns3:hr>105</ns3:hr>
            <ns3:cad>0</ns3:cad>
          </ns3:TrackPointExtension>
        </extensions>
      </trkpt>
      <trkpt lat="37.76536957360804080963134765625" lon="-107.7095896191895008087158203125">
        <ele>3766</ele>
        <time>2023-07-29T14:24:37.000Z</time>
        <extensions>
          <ns3:TrackPointExtension>
            <ns3:hr>105</ns3:hr>
            <ns3:cad>0</ns3:cad>
          </ns3:TrackPointExtension>
        </extensions>
      </trkpt>
      <trkpt lat="37.7653674781322479248046875" lon="-107.7095973305404186248779296875">
        <ele>3766.199951171875</ele>
        <time>2023-07-29T14:24:38.000Z</time>
        <extensions>
          <ns3:TrackPointExtension>
            <ns3:hr>105</ns3:hr>
            <ns3:cad>0</ns3:cad>
          </ns3:TrackPointExtension>
        </extensions>
      </trkpt>
      <trkpt lat="37.7653649635612964630126953125" lon="-107.70960210822522640228271484375">
        <ele>3766</ele>
        <time>2023-07-29T14:24:39.000Z</time>
        <extensions>
          <ns3:TrackPointExtension>
            <ns3:hr>105</ns3:hr>
            <ns3:cad>0</ns3:cad>
          </ns3:TrackPointExtension>
        </extensions>
      </trkpt>
      <trkpt lat="37.76536521501839160919189453125" lon="-107.709609232842922210693359375">
        <ele>3766.199951171875</ele>
        <time>2023-07-29T14:24:40.000Z</time>
        <extensions>
          <ns3:TrackPointExtension>
            <ns3:hr>105</ns3:hr>
            <ns3:cad>0</ns3:cad>
          </ns3:TrackPointExtension>
        </extensions>
      </trkpt>
      <trkpt lat="37.7653669752180576324462890625" lon="-107.7096181176602840423583984375">
        <ele>3766.199951171875</ele>
        <time>2023-07-29T14:24:41.000Z</time>
        <extensions>
          <ns3:TrackPointExtension>
            <ns3:hr>105</ns3:hr>
            <ns3:cad>0</ns3:cad>
          </ns3:TrackPointExtension>
        </extensions>
      </trkpt>
      <trkpt lat="37.7653669752180576324462890625" lon="-107.70962096750736236572265625">
        <ele>3766</ele>
        <time>2023-07-29T14:24:42.000Z</time>
        <extensions>
          <ns3:TrackPointExtension>
            <ns3:hr>105</ns3:hr>
            <ns3:cad>0</ns3:cad>
          </ns3:TrackPointExtension>
        </extensions>
      </trkpt>
      <trkpt lat="37.765366472303867340087890625" lon="-107.70962205715477466583251953125">
        <ele>3766</ele>
        <time>2023-07-29T14:24:43.000Z</time>
        <extensions>
          <ns3:TrackPointExtension>
            <ns3:hr>105</ns3:hr>
            <ns3:cad>0</ns3:cad>
          </ns3:TrackPointExtension>
        </extensions>
      </trkpt>
      <trkpt lat="37.76536337099969387054443359375" lon="-107.70961736328899860382080078125">
        <ele>3766</ele>
        <time>2023-07-29T14:24:44.000Z</time>
        <extensions>
          <ns3:TrackPointExtension>
            <ns3:hr>105</ns3:hr>
            <ns3:cad>0</ns3:cad>
          </ns3:TrackPointExtension>
        </extensions>
      </trkpt>
      <trkpt lat="37.7653595991432666778564453125" lon="-107.70961736328899860382080078125">
        <ele>3766</ele>
        <time>2023-07-29T14:24:45.000Z</time>
        <extensions>
          <ns3:TrackPointExtension>
            <ns3:hr>105</ns3:hr>
            <ns3:cad>0</ns3:cad>
          </ns3:TrackPointExtension>
        </extensions>
      </trkpt>
      <trkpt lat="37.7653616108000278472900390625" lon="-107.70962105132639408111572265625">
        <ele>3766</ele>
        <time>2023-07-29T14:24:46.000Z</time>
        <extensions>
          <ns3:TrackPointExtension>
            <ns3:hr>105</ns3:hr>
            <ns3:cad>0</ns3:cad>
          </ns3:TrackPointExtension>
        </extensions>
      </trkpt>
      <trkpt lat="37.7653612755239009857177734375" lon="-107.7096127532422542572021484375">
        <ele>3766</ele>
        <time>2023-07-29T14:24:47.000Z</time>
        <extensions>
          <ns3:TrackPointExtension>
            <ns3:hr>105</ns3:hr>
            <ns3:cad>0</ns3:cad>
          </ns3:TrackPointExtension>
        </extensions>
      </trkpt>
      <trkpt lat="37.76536337099969387054443359375" lon="-107.70962155424058437347412109375">
        <ele>3766</ele>
        <time>2023-07-29T14:24:48.000Z</time>
        <extensions>
          <ns3:TrackPointExtension>
            <ns3:hr>106</ns3:hr>
            <ns3:cad>0</ns3:cad>
          </ns3:TrackPointExtension>
        </extensions>
      </trkpt>
      <trkpt lat="37.7653647959232330322265625" lon="-107.7096395753324031829833984375">
        <ele>3766</ele>
        <time>2023-07-29T14:24:49.000Z</time>
        <extensions>
          <ns3:TrackPointExtension>
            <ns3:hr>106</ns3:hr>
            <ns3:cad>0</ns3:cad>
          </ns3:TrackPointExtension>
        </extensions>
      </trkpt>
      <trkpt lat="37.76537351310253143310546875" lon="-107.7096479572355747222900390625">
        <ele>3766</ele>
        <time>2023-07-29T14:24:50.000Z</time>
        <extensions>
          <ns3:TrackPointExtension>
            <ns3:hr>106</ns3:hr>
            <ns3:cad>0</ns3:cad>
          </ns3:TrackPointExtension>
        </extensions>
      </trkpt>
      <trkpt lat="37.76538097299635410308837890625" lon="-107.7096543274819850921630859375">
        <ele>3766.199951171875</ele>
        <time>2023-07-29T14:24:51.000Z</time>
        <extensions>
          <ns3:TrackPointExtension>
            <ns3:hr>106</ns3:hr>
            <ns3:cad>0</ns3:cad>
          </ns3:TrackPointExtension>
        </extensions>
      </trkpt>
      <trkpt lat="37.76538382284343242645263671875" lon="-107.709664218127727508544921875">
        <ele>3766.199951171875</ele>
        <time>2023-07-29T14:24:52.000Z</time>
        <extensions>
          <ns3:TrackPointExtension>
            <ns3:hr>106</ns3:hr>
            <ns3:cad>0</ns3:cad>
          </ns3:TrackPointExtension>
        </extensions>
      </trkpt>
      <trkpt lat="37.76538885198533535003662109375" lon="-107.70966648124158382415771484375">
        <ele>3766.199951171875</ele>
        <time>2023-07-29T14:24:53.000Z</time>
        <extensions>
          <ns3:TrackPointExtension>
            <ns3:hr>107</ns3:hr>
            <ns3:cad>0</ns3:cad>
          </ns3:TrackPointExtension>
        </extensions>
      </trkpt>
      <trkpt lat="37.76539002545177936553955078125" lon="-107.709646783769130706787109375">
        <ele>3766.199951171875</ele>
        <time>2023-07-29T14:24:54.000Z</time>
        <extensions>
          <ns3:TrackPointExtension>
            <ns3:hr>107</ns3:hr>
            <ns3:cad>0</ns3:cad>
          </ns3:TrackPointExtension>
        </extensions>
      </trkpt>
      <trkpt lat="37.765387259423732757568359375" lon="-107.70962758921086788177490234375">
        <ele>3766.199951171875</ele>
        <time>2023-07-29T14:24:55.000Z</time>
        <extensions>
          <ns3:TrackPointExtension>
            <ns3:hr>107</ns3:hr>
            <ns3:cad>0</ns3:cad>
          </ns3:TrackPointExtension>
        </extensions>
      </trkpt>
      <trkpt lat="37.76538650505244731903076171875" lon="-107.70960093475878238677978515625">
        <ele>3766</ele>
        <time>2023-07-29T14:24:56.000Z</time>
        <extensions>
          <ns3:TrackPointExtension>
            <ns3:hr>106</ns3:hr>
            <ns3:cad>0</ns3:cad>
          </ns3:TrackPointExtension>
        </extensions>
      </trkpt>
      <trkpt lat="37.76538583450019359588623046875" lon="-107.70957813598215579986572265625">
        <ele>3766</ele>
        <time>2023-07-29T14:24:57.000Z</time>
        <extensions>
          <ns3:TrackPointExtension>
            <ns3:hr>106</ns3:hr>
            <ns3:cad>0</ns3:cad>
          </ns3:TrackPointExtension>
        </extensions>
      </trkpt>
      <trkpt lat="37.7653830684721469879150390625" lon="-107.7095601148903369903564453125">
        <ele>3766</ele>
        <time>2023-07-29T14:24:58.000Z</time>
        <extensions>
          <ns3:TrackPointExtension>
            <ns3:hr>106</ns3:hr>
            <ns3:cad>0</ns3:cad>
          </ns3:TrackPointExtension>
        </extensions>
      </trkpt>
      <trkpt lat="37.765380553901195526123046875" lon="-107.7095463685691356658935546875">
        <ele>3766</ele>
        <time>2023-07-29T14:24:59.000Z</time>
        <extensions>
          <ns3:TrackPointExtension>
            <ns3:hr>106</ns3:hr>
            <ns3:cad>0</ns3:cad>
          </ns3:TrackPointExtension>
        </extensions>
      </trkpt>
      <trkpt lat="37.76538197882473468780517578125" lon="-107.70953471772372722625732421875">
        <ele>3766</ele>
        <time>2023-07-29T14:25:00.000Z</time>
        <extensions>
          <ns3:TrackPointExtension>
            <ns3:hr>106</ns3:hr>
            <ns3:cad>0</ns3:cad>
          </ns3:TrackPointExtension>
        </extensions>
      </trkpt>
      <trkpt lat="37.765383906662464141845703125" lon="-107.70952214486896991729736328125">
        <ele>3766</ele>
        <time>2023-07-29T14:25:01.000Z</time>
        <extensions>
          <ns3:TrackPointExtension>
            <ns3:hr>106</ns3:hr>
            <ns3:cad>0</ns3:cad>
          </ns3:TrackPointExtension>
        </extensions>
      </trkpt>
      <trkpt lat="37.765385918319225311279296875" lon="-107.70951569080352783203125">
        <ele>3766</ele>
        <time>2023-07-29T14:25:02.000Z</time>
        <extensions>
          <ns3:TrackPointExtension>
            <ns3:hr>106</ns3:hr>
            <ns3:cad>0</ns3:cad>
          </ns3:TrackPointExtension>
        </extensions>
      </trkpt>
      <trkpt lat="37.76539170183241367340087890625" lon="-107.70950756035745143890380859375">
        <ele>3766</ele>
        <time>2023-07-29T14:25:03.000Z</time>
        <extensions>
          <ns3:TrackPointExtension>
            <ns3:hr>107</ns3:hr>
            <ns3:cad>0</ns3:cad>
          </ns3:TrackPointExtension>
        </extensions>
      </trkpt>
      <trkpt lat="37.76539656333625316619873046875" lon="-107.7095084823668003082275390625">
        <ele>3766.199951171875</ele>
        <time>2023-07-29T14:25:04.000Z</time>
        <extensions>
          <ns3:TrackPointExtension>
            <ns3:hr>107</ns3:hr>
            <ns3:cad>0</ns3:cad>
          </ns3:TrackPointExtension>
        </extensions>
      </trkpt>
      <trkpt lat="37.76540326885879039764404296875" lon="-107.70950722508132457733154296875">
        <ele>3766.199951171875</ele>
        <time>2023-07-29T14:25:05.000Z</time>
        <extensions>
          <ns3:TrackPointExtension>
            <ns3:hr>107</ns3:hr>
            <ns3:cad>0</ns3:cad>
          </ns3:TrackPointExtension>
        </extensions>
      </trkpt>
      <trkpt lat="37.76541215367615222930908203125" lon="-107.70950420759618282318115234375">
        <ele>3766.199951171875</ele>
        <time>2023-07-29T14:25:06.000Z</time>
        <extensions>
          <ns3:TrackPointExtension>
            <ns3:hr>107</ns3:hr>
            <ns3:cad>0</ns3:cad>
          </ns3:TrackPointExtension>
        </extensions>
      </trkpt>
      <trkpt lat="37.7654216252267360687255859375" lon="-107.70949783734977245330810546875">
        <ele>3766</ele>
        <time>2023-07-29T14:25:07.000Z</time>
        <extensions>
          <ns3:TrackPointExtension>
            <ns3:hr>106</ns3:hr>
            <ns3:cad>0</ns3:cad>
          </ns3:TrackPointExtension>
        </extensions>
      </trkpt>
      <trkpt lat="37.76542690582573413848876953125" lon="-107.70950018428266048431396484375">
        <ele>3766</ele>
        <time>2023-07-29T14:25:08.000Z</time>
        <extensions>
          <ns3:TrackPointExtension>
            <ns3:hr>106</ns3:hr>
            <ns3:cad>0</ns3:cad>
          </ns3:TrackPointExtension>
        </extensions>
      </trkpt>
      <trkpt lat="37.765432186424732208251953125" lon="-107.7094984240829944610595703125">
        <ele>3766</ele>
        <time>2023-07-29T14:25:09.000Z</time>
        <extensions>
          <ns3:TrackPointExtension>
            <ns3:hr>106</ns3:hr>
            <ns3:cad>0</ns3:cad>
          </ns3:TrackPointExtension>
        </extensions>
      </trkpt>
      <trkpt lat="37.7654440887272357940673828125" lon="-107.7094964124262332916259765625">
        <ele>3766</ele>
        <time>2023-07-29T14:25:10.000Z</time>
        <extensions>
          <ns3:TrackPointExtension>
            <ns3:hr>106</ns3:hr>
            <ns3:cad>0</ns3:cad>
          </ns3:TrackPointExtension>
        </extensions>
      </trkpt>
      <trkpt lat="37.76545607484877109527587890625" lon="-107.70949197001755237579345703125">
        <ele>3766.199951171875</ele>
        <time>2023-07-29T14:25:11.000Z</time>
        <extensions>
          <ns3:TrackPointExtension>
            <ns3:hr>106</ns3:hr>
            <ns3:cad>0</ns3:cad>
          </ns3:TrackPointExtension>
        </extensions>
      </trkpt>
      <trkpt lat="37.7654658816754817962646484375" lon="-107.7094923891127109527587890625">
        <ele>3766.199951171875</ele>
        <time>2023-07-29T14:25:12.000Z</time>
        <extensions>
          <ns3:TrackPointExtension>
            <ns3:hr>105</ns3:hr>
            <ns3:cad>0</ns3:cad>
          </ns3:TrackPointExtension>
        </extensions>
      </trkpt>
      <trkpt lat="37.76546965353190898895263671875" lon="-107.70950068719685077667236328125">
        <ele>3766.199951171875</ele>
        <time>2023-07-29T14:25:13.000Z</time>
        <extensions>
          <ns3:TrackPointExtension>
            <ns3:hr>105</ns3:hr>
            <ns3:cad>0</ns3:cad>
          </ns3:TrackPointExtension>
        </extensions>
      </trkpt>
      <trkpt lat="37.76548205874860286712646484375" lon="-107.70950152538716793060302734375">
        <ele>3766.39990234375</ele>
        <time>2023-07-29T14:25:14.000Z</time>
        <extensions>
          <ns3:TrackPointExtension>
            <ns3:hr>105</ns3:hr>
            <ns3:cad>0</ns3:cad>
          </ns3:TrackPointExtension>
        </extensions>
      </trkpt>
      <trkpt lat="37.76548490859568119049072265625" lon="-107.709507979452610015869140625">
        <ele>3766.39990234375</ele>
        <time>2023-07-29T14:25:15.000Z</time>
        <extensions>
          <ns3:TrackPointExtension>
            <ns3:hr>104</ns3:hr>
            <ns3:cad>0</ns3:cad>
          </ns3:TrackPointExtension>
        </extensions>
      </trkpt>
      <trkpt lat="37.76548977009952068328857421875" lon="-107.709514014422893524169921875">
        <ele>3766.39990234375</ele>
        <time>2023-07-29T14:25:16.000Z</time>
        <extensions>
          <ns3:TrackPointExtension>
            <ns3:hr>104</ns3:hr>
            <ns3:cad>0</ns3:cad>
          </ns3:TrackPointExtension>
        </extensions>
      </trkpt>
      <trkpt lat="37.76549479924142360687255859375" lon="-107.70952616818249225616455078125">
        <ele>3766.60009765625</ele>
        <time>2023-07-29T14:25:17.000Z</time>
        <extensions>
          <ns3:TrackPointExtension>
            <ns3:hr>104</ns3:hr>
            <ns3:cad>0</ns3:cad>
          </ns3:TrackPointExtension>
        </extensions>
      </trkpt>
      <trkpt lat="37.76549999602138996124267578125" lon="-107.70953773520886898040771484375">
        <ele>3766.800048828125</ele>
        <time>2023-07-29T14:25:18.000Z</time>
        <extensions>
          <ns3:TrackPointExtension>
            <ns3:hr>104</ns3:hr>
            <ns3:cad>0</ns3:cad>
          </ns3:TrackPointExtension>
        </extensions>
      </trkpt>
      <trkpt lat="37.76550401933491230010986328125" lon="-107.709544859826564788818359375">
        <ele>3767</ele>
        <time>2023-07-29T14:25:19.000Z</time>
        <extensions>
          <ns3:TrackPointExtension>
            <ns3:hr>104</ns3:hr>
            <ns3:cad>0</ns3:cad>
          </ns3:TrackPointExtension>
        </extensions>
      </trkpt>
      <trkpt lat="37.76550829410552978515625" lon="-107.7095510624349117279052734375">
        <ele>3767.199951171875</ele>
        <time>2023-07-29T14:25:20.000Z</time>
        <extensions>
          <ns3:TrackPointExtension>
            <ns3:hr>104</ns3:hr>
            <ns3:cad>0</ns3:cad>
          </ns3:TrackPointExtension>
        </extensions>
      </trkpt>
      <trkpt lat="37.76551189832389354705810546875" lon="-107.7095570974051952362060546875">
        <ele>3767.39990234375</ele>
        <time>2023-07-29T14:25:21.000Z</time>
        <extensions>
          <ns3:TrackPointExtension>
            <ns3:hr>103</ns3:hr>
            <ns3:cad>0</ns3:cad>
          </ns3:TrackPointExtension>
        </extensions>
      </trkpt>
      <trkpt lat="37.76551843620836734771728515625" lon="-107.7095668204128742218017578125">
        <ele>3767.60009765625</ele>
        <time>2023-07-29T14:25:22.000Z</time>
        <extensions>
          <ns3:TrackPointExtension>
            <ns3:hr>103</ns3:hr>
            <ns3:cad>0</ns3:cad>
          </ns3:TrackPointExtension>
        </extensions>
      </trkpt>
      <trkpt lat="37.7655185200273990631103515625" lon="-107.70956371910870075225830078125">
        <ele>3768</ele>
        <time>2023-07-29T14:25:23.000Z</time>
        <extensions>
          <ns3:TrackPointExtension>
            <ns3:hr>103</ns3:hr>
            <ns3:cad>0</ns3:cad>
          </ns3:TrackPointExtension>
        </extensions>
      </trkpt>
      <trkpt lat="37.7655155025422573089599609375" lon="-107.70956036634743213653564453125">
        <ele>3768.199951171875</ele>
        <time>2023-07-29T14:25:24.000Z</time>
        <extensions>
          <ns3:TrackPointExtension>
            <ns3:hr>103</ns3:hr>
            <ns3:cad>0</ns3:cad>
          </ns3:TrackPointExtension>
        </extensions>
      </trkpt>
      <trkpt lat="37.76551709510385990142822265625" lon="-107.709565646946430206298828125">
        <ele>3768.39990234375</ele>
        <time>2023-07-29T14:25:25.000Z</time>
        <extensions>
          <ns3:TrackPointExtension>
            <ns3:hr>103</ns3:hr>
            <ns3:cad>0</ns3:cad>
          </ns3:TrackPointExtension>
        </extensions>
      </trkpt>
      <trkpt lat="37.76551592163741588592529296875" lon="-107.70956455729901790618896484375">
        <ele>3768.60009765625</ele>
        <time>2023-07-29T14:25:26.000Z</time>
        <extensions>
          <ns3:TrackPointExtension>
            <ns3:hr>103</ns3:hr>
            <ns3:cad>0</ns3:cad>
          </ns3:TrackPointExtension>
        </extensions>
      </trkpt>
      <trkpt lat="37.76551675982773303985595703125" lon="-107.709561623632907867431640625">
        <ele>3768.60009765625</ele>
        <time>2023-07-29T14:25:27.000Z</time>
        <extensions>
          <ns3:TrackPointExtension>
            <ns3:hr>103</ns3:hr>
            <ns3:cad>0</ns3:cad>
          </ns3:TrackPointExtension>
        </extensions>
      </trkpt>
      <trkpt lat="37.7655181847512722015380859375" lon="-107.709561623632907867431640625">
        <ele>3768.800048828125</ele>
        <time>2023-07-29T14:25:28.000Z</time>
        <extensions>
          <ns3:TrackPointExtension>
            <ns3:hr>102</ns3:hr>
            <ns3:cad>0</ns3:cad>
          </ns3:TrackPointExtension>
        </extensions>
      </trkpt>
      <trkpt lat="37.7655138261616230010986328125" lon="-107.70955391228199005126953125">
        <ele>3769</ele>
        <time>2023-07-29T14:25:29.000Z</time>
        <extensions>
          <ns3:TrackPointExtension>
            <ns3:hr>103</ns3:hr>
            <ns3:cad>0</ns3:cad>
          </ns3:TrackPointExtension>
        </extensions>
      </trkpt>
      <trkpt lat="37.76551022194325923919677734375" lon="-107.7095601148903369903564453125">
        <ele>3769.199951171875</ele>
        <time>2023-07-29T14:25:30.000Z</time>
        <extensions>
          <ns3:TrackPointExtension>
            <ns3:hr>103</ns3:hr>
            <ns3:cad>0</ns3:cad>
          </ns3:TrackPointExtension>
        </extensions>
      </trkpt>
      <trkpt lat="37.765509299933910369873046875" lon="-107.709562964737415313720703125">
        <ele>3769.39990234375</ele>
        <time>2023-07-29T14:25:31.000Z</time>
        <extensions>
          <ns3:TrackPointExtension>
            <ns3:hr>103</ns3:hr>
            <ns3:cad>0</ns3:cad>
          </ns3:TrackPointExtension>
        </extensions>
      </trkpt>
      <trkpt lat="37.7655091322958469390869140625" lon="-107.70956338383257389068603515625">
        <ele>3769.60009765625</ele>
        <time>2023-07-29T14:25:32.000Z</time>
        <extensions>
          <ns3:TrackPointExtension>
            <ns3:hr>103</ns3:hr>
            <ns3:cad>0</ns3:cad>
          </ns3:TrackPointExtension>
        </extensions>
      </trkpt>
      <trkpt lat="37.7655061148107051849365234375" lon="-107.7095627970993518829345703125">
        <ele>3769.60009765625</ele>
        <time>2023-07-29T14:25:33.000Z</time>
        <extensions>
          <ns3:TrackPointExtension>
            <ns3:hr>104</ns3:hr>
            <ns3:cad>0</ns3:cad>
          </ns3:TrackPointExtension>
        </extensions>
      </trkpt>
      <trkpt lat="37.7655020914971828460693359375" lon="-107.70956656895577907562255859375">
        <ele>3769.800048828125</ele>
        <time>2023-07-29T14:25:34.000Z</time>
        <extensions>
          <ns3:TrackPointExtension>
            <ns3:hr>104</ns3:hr>
            <ns3:cad>0</ns3:cad>
          </ns3:TrackPointExtension>
        </extensions>
      </trkpt>
      <trkpt lat="37.76549647562205791473388671875" lon="-107.70956866443157196044921875">
        <ele>3770</ele>
        <time>2023-07-29T14:25:35.000Z</time>
        <extensions>
          <ns3:TrackPointExtension>
            <ns3:hr>105</ns3:hr>
            <ns3:cad>0</ns3:cad>
          </ns3:TrackPointExtension>
        </extensions>
      </trkpt>
      <trkpt lat="37.7654987387359142303466796875" lon="-107.7095668204128742218017578125">
        <ele>3770</ele>
        <time>2023-07-29T14:25:36.000Z</time>
        <extensions>
          <ns3:TrackPointExtension>
            <ns3:hr>105</ns3:hr>
            <ns3:cad>0</ns3:cad>
          </ns3:TrackPointExtension>
        </extensions>
      </trkpt>
      <trkpt lat="37.7655027620494365692138671875" lon="-107.7095668204128742218017578125">
        <ele>3770</ele>
        <time>2023-07-29T14:25:37.000Z</time>
        <extensions>
          <ns3:TrackPointExtension>
            <ns3:hr>105</ns3:hr>
            <ns3:cad>0</ns3:cad>
          </ns3:TrackPointExtension>
        </extensions>
      </trkpt>
      <trkpt lat="37.7655108086764812469482421875" lon="-107.70956472493708133697509765625">
        <ele>3770</ele>
        <time>2023-07-29T14:25:38.000Z</time>
        <extensions>
          <ns3:TrackPointExtension>
            <ns3:hr>105</ns3:hr>
            <ns3:cad>0</ns3:cad>
          </ns3:TrackPointExtension>
        </extensions>
      </trkpt>
      <trkpt lat="37.76552882976830005645751953125" lon="-107.70955785177648067474365234375">
        <ele>3770</ele>
        <time>2023-07-29T14:25:39.000Z</time>
        <extensions>
          <ns3:TrackPointExtension>
            <ns3:hr>104</ns3:hr>
            <ns3:cad>0</ns3:cad>
          </ns3:TrackPointExtension>
        </extensions>
      </trkpt>
      <trkpt lat="37.76553972624242305755615234375" lon="-107.709552235901355743408203125">
        <ele>3770</ele>
        <time>2023-07-29T14:25:40.000Z</time>
        <extensions>
          <ns3:TrackPointExtension>
            <ns3:hr>103</ns3:hr>
            <ns3:cad>0</ns3:cad>
          </ns3:TrackPointExtension>
        </extensions>
      </trkpt>
      <trkpt lat="37.76554710231721401214599609375" lon="-107.709550224244594573974609375">
        <ele>3770.199951171875</ele>
        <time>2023-07-29T14:25:41.000Z</time>
        <extensions>
          <ns3:TrackPointExtension>
            <ns3:hr>103</ns3:hr>
            <ns3:cad>0</ns3:cad>
          </ns3:TrackPointExtension>
        </extensions>
      </trkpt>
      <trkpt lat="37.76555313728749752044677734375" lon="-107.7095497213304042816162109375">
        <ele>3770.199951171875</ele>
        <time>2023-07-29T14:25:42.000Z</time>
        <extensions>
          <ns3:TrackPointExtension>
            <ns3:hr>103</ns3:hr>
            <ns3:cad>0</ns3:cad>
          </ns3:TrackPointExtension>
        </extensions>
      </trkpt>
      <trkpt lat="37.76555263437330722808837890625" lon="-107.70955123007297515869140625">
        <ele>3770.199951171875</ele>
        <time>2023-07-29T14:25:43.000Z</time>
        <extensions>
          <ns3:TrackPointExtension>
            <ns3:hr>103</ns3:hr>
            <ns3:cad>0</ns3:cad>
          </ns3:TrackPointExtension>
        </extensions>
      </trkpt>
      <trkpt lat="37.765560932457447052001953125" lon="-107.70955198444426059722900390625">
        <ele>3770.39990234375</ele>
        <time>2023-07-29T14:25:44.000Z</time>
        <extensions>
          <ns3:TrackPointExtension>
            <ns3:hr>103</ns3:hr>
            <ns3:cad>0</ns3:cad>
          </ns3:TrackPointExtension>
        </extensions>
      </trkpt>
      <trkpt lat="37.76556034572422504425048828125" lon="-107.7095527388155460357666015625">
        <ele>3770.800048828125</ele>
        <time>2023-07-29T14:25:45.000Z</time>
        <extensions>
          <ns3:TrackPointExtension>
            <ns3:hr>104</ns3:hr>
            <ns3:cad>0</ns3:cad>
          </ns3:TrackPointExtension>
        </extensions>
      </trkpt>
      <trkpt lat="37.76556470431387424468994140625" lon="-107.7095544151961803436279296875">
        <ele>3770.800048828125</ele>
        <time>2023-07-29T14:25:46.000Z</time>
        <extensions>
          <ns3:TrackPointExtension>
            <ns3:hr>104</ns3:hr>
            <ns3:cad>0</ns3:cad>
          </ns3:TrackPointExtension>
        </extensions>
      </trkpt>
      <trkpt lat="37.76556855998933315277099609375" lon="-107.70955483429133892059326171875">
        <ele>3771</ele>
        <time>2023-07-29T14:25:47.000Z</time>
        <extensions>
          <ns3:TrackPointExtension>
            <ns3:hr>105</ns3:hr>
            <ns3:cad>0</ns3:cad>
          </ns3:TrackPointExtension>
        </extensions>
      </trkpt>
      <trkpt lat="37.76556805707514286041259765625" lon="-107.7095540799200534820556640625">
        <ele>3771.199951171875</ele>
        <time>2023-07-29T14:25:48.000Z</time>
        <extensions>
          <ns3:TrackPointExtension>
            <ns3:hr>105</ns3:hr>
            <ns3:cad>0</ns3:cad>
          </ns3:TrackPointExtension>
        </extensions>
      </trkpt>
      <trkpt lat="37.765575684607028961181640625" lon="-107.70955315791070461273193359375">
        <ele>3771.199951171875</ele>
        <time>2023-07-29T14:25:49.000Z</time>
        <extensions>
          <ns3:TrackPointExtension>
            <ns3:hr>105</ns3:hr>
            <ns3:cad>0</ns3:cad>
          </ns3:TrackPointExtension>
        </extensions>
      </trkpt>
      <trkpt lat="37.76558029465377330780029296875" lon="-107.70955315791070461273193359375">
        <ele>3771.39990234375</ele>
        <time>2023-07-29T14:25:50.000Z</time>
        <extensions>
          <ns3:TrackPointExtension>
            <ns3:hr>105</ns3:hr>
            <ns3:cad>0</ns3:cad>
          </ns3:TrackPointExtension>
        </extensions>
      </trkpt>
      <trkpt lat="37.7655901014804840087890625" lon="-107.70955030806362628936767578125">
        <ele>3771.60009765625</ele>
        <time>2023-07-29T14:25:51.000Z</time>
        <extensions>
          <ns3:TrackPointExtension>
            <ns3:hr>105</ns3:hr>
            <ns3:cad>0</ns3:cad>
          </ns3:TrackPointExtension>
        </extensions>
      </trkpt>
      <trkpt lat="37.7655906043946743011474609375" lon="-107.7095477096736431121826171875">
        <ele>3771.800048828125</ele>
        <time>2023-07-29T14:25:52.000Z</time>
        <extensions>
          <ns3:TrackPointExtension>
            <ns3:hr>105</ns3:hr>
            <ns3:cad>0</ns3:cad>
          </ns3:TrackPointExtension>
        </extensions>
      </trkpt>
      <trkpt lat="37.7655999921262264251708984375" lon="-107.70954477600753307342529296875">
        <ele>3772</ele>
        <time>2023-07-29T14:25:53.000Z</time>
        <extensions>
          <ns3:TrackPointExtension>
            <ns3:hr>105</ns3:hr>
            <ns3:cad>0</ns3:cad>
          </ns3:TrackPointExtension>
        </extensions>
      </trkpt>
      <trkpt lat="37.7656063623726367950439453125" lon="-107.7095450274646282196044921875">
        <ele>3772</ele>
        <time>2023-07-29T14:25:54.000Z</time>
        <extensions>
          <ns3:TrackPointExtension>
            <ns3:hr>106</ns3:hr>
            <ns3:cad>0</ns3:cad>
          </ns3:TrackPointExtension>
        </extensions>
      </trkpt>
      <trkpt lat="37.76561080478131771087646484375" lon="-107.70954611711204051971435546875">
        <ele>3772.39990234375</ele>
        <time>2023-07-29T14:25:55.000Z</time>
        <extensions>
          <ns3:TrackPointExtension>
            <ns3:hr>106</ns3:hr>
            <ns3:cad>0</ns3:cad>
          </ns3:TrackPointExtension>
        </extensions>
      </trkpt>
      <trkpt lat="37.7656113915145397186279296875" lon="-107.7095477096736431121826171875">
        <ele>3772.39990234375</ele>
        <time>2023-07-29T14:25:56.000Z</time>
        <extensions>
          <ns3:TrackPointExtension>
            <ns3:hr>106</ns3:hr>
            <ns3:cad>0</ns3:cad>
          </ns3:TrackPointExtension>
        </extensions>
      </trkpt>
      <trkpt lat="37.7656120620667934417724609375" lon="-107.70954879932105541229248046875">
        <ele>3772.60009765625</ele>
        <time>2023-07-29T14:25:57.000Z</time>
        <extensions>
          <ns3:TrackPointExtension>
            <ns3:hr>106</ns3:hr>
            <ns3:cad>0</ns3:cad>
          </ns3:TrackPointExtension>
        </extensions>
      </trkpt>
      <trkpt lat="37.7656157501041889190673828125" lon="-107.70955064333975315093994140625">
        <ele>3772.60009765625</ele>
        <time>2023-07-29T14:25:58.000Z</time>
        <extensions>
          <ns3:TrackPointExtension>
            <ns3:hr>107</ns3:hr>
            <ns3:cad>0</ns3:cad>
          </ns3:TrackPointExtension>
        </extensions>
      </trkpt>
      <trkpt lat="37.765616588294506072998046875" lon="-107.70955131389200687408447265625">
        <ele>3773</ele>
        <time>2023-07-29T14:25:59.000Z</time>
        <extensions>
          <ns3:TrackPointExtension>
            <ns3:hr>107</ns3:hr>
            <ns3:cad>0</ns3:cad>
          </ns3:TrackPointExtension>
        </extensions>
      </trkpt>
      <trkpt lat="37.7656251378357410430908203125" lon="-107.70955215208232402801513671875">
        <ele>3773.199951171875</ele>
        <time>2023-07-29T14:26:00.000Z</time>
        <extensions>
          <ns3:TrackPointExtension>
            <ns3:hr>107</ns3:hr>
            <ns3:cad>0</ns3:cad>
          </ns3:TrackPointExtension>
        </extensions>
      </trkpt>
      <trkpt lat="37.76563578285276889801025390625" lon="-107.7095490507781505584716796875">
        <ele>3773.199951171875</ele>
        <time>2023-07-29T14:26:01.000Z</time>
        <extensions>
          <ns3:TrackPointExtension>
            <ns3:hr>107</ns3:hr>
            <ns3:cad>0</ns3:cad>
          </ns3:TrackPointExtension>
        </extensions>
      </trkpt>
      <trkpt lat="37.76563997380435466766357421875" lon="-107.70955030806362628936767578125">
        <ele>3773.39990234375</ele>
        <time>2023-07-29T14:26:02.000Z</time>
        <extensions>
          <ns3:TrackPointExtension>
            <ns3:hr>107</ns3:hr>
            <ns3:cad>0</ns3:cad>
          </ns3:TrackPointExtension>
        </extensions>
      </trkpt>
      <trkpt lat="37.7656479366123676300048828125" lon="-107.7095503918826580047607421875">
        <ele>3773.39990234375</ele>
        <time>2023-07-29T14:26:03.000Z</time>
        <extensions>
          <ns3:TrackPointExtension>
            <ns3:hr>107</ns3:hr>
            <ns3:cad>0</ns3:cad>
          </ns3:TrackPointExtension>
        </extensions>
      </trkpt>
      <trkpt lat="37.76565120555460453033447265625" lon="-107.709550224244594573974609375">
        <ele>3773.800048828125</ele>
        <time>2023-07-29T14:26:04.000Z</time>
        <extensions>
          <ns3:TrackPointExtension>
            <ns3:hr>107</ns3:hr>
            <ns3:cad>0</ns3:cad>
          </ns3:TrackPointExtension>
        </extensions>
      </trkpt>
      <trkpt lat="37.76565690524876117706298828125" lon="-107.70955366082489490509033203125">
        <ele>3774</ele>
        <time>2023-07-29T14:26:05.000Z</time>
        <extensions>
          <ns3:TrackPointExtension>
            <ns3:hr>107</ns3:hr>
            <ns3:cad>0</ns3:cad>
          </ns3:TrackPointExtension>
        </extensions>
      </trkpt>
      <trkpt lat="37.7656680531799793243408203125" lon="-107.7095653116703033447265625">
        <ele>3774.199951171875</ele>
        <time>2023-07-29T14:26:06.000Z</time>
        <extensions>
          <ns3:TrackPointExtension>
            <ns3:hr>107</ns3:hr>
            <ns3:cad>0</ns3:cad>
          </ns3:TrackPointExtension>
        </extensions>
      </trkpt>
      <trkpt lat="37.76567526161670684814453125" lon="-107.70956598222255706787109375">
        <ele>3774.39990234375</ele>
        <time>2023-07-29T14:26:07.000Z</time>
        <extensions>
          <ns3:TrackPointExtension>
            <ns3:hr>107</ns3:hr>
            <ns3:cad>0</ns3:cad>
          </ns3:TrackPointExtension>
        </extensions>
      </trkpt>
      <trkpt lat="37.7656834758818149566650390625" lon="-107.70956858061254024505615234375">
        <ele>3774.60009765625</ele>
        <time>2023-07-29T14:26:08.000Z</time>
        <extensions>
          <ns3:TrackPointExtension>
            <ns3:hr>107</ns3:hr>
            <ns3:cad>0</ns3:cad>
          </ns3:TrackPointExtension>
        </extensions>
      </trkpt>
      <trkpt lat="37.76569244451820850372314453125" lon="-107.70957260392606258392333984375">
        <ele>3774.60009765625</ele>
        <time>2023-07-29T14:26:09.000Z</time>
        <extensions>
          <ns3:TrackPointExtension>
            <ns3:hr>108</ns3:hr>
            <ns3:cad>0</ns3:cad>
          </ns3:TrackPointExtension>
        </extensions>
      </trkpt>
      <trkpt lat="37.7656958810985088348388671875" lon="-107.7095755375921726226806640625">
        <ele>3774.800048828125</ele>
        <time>2023-07-29T14:26:10.000Z</time>
        <extensions>
          <ns3:TrackPointExtension>
            <ns3:hr>108</ns3:hr>
            <ns3:cad>0</ns3:cad>
          </ns3:TrackPointExtension>
        </extensions>
      </trkpt>
      <trkpt lat="37.76570099405944347381591796875" lon="-107.70957578904926776885986328125">
        <ele>3775</ele>
        <time>2023-07-29T14:26:11.000Z</time>
        <extensions>
          <ns3:TrackPointExtension>
            <ns3:hr>108</ns3:hr>
            <ns3:cad>0</ns3:cad>
          </ns3:TrackPointExtension>
        </extensions>
      </trkpt>
      <trkpt lat="37.7657005749642848968505859375" lon="-107.70957528613507747650146484375">
        <ele>3775</ele>
        <time>2023-07-29T14:26:12.000Z</time>
        <extensions>
          <ns3:TrackPointExtension>
            <ns3:hr>108</ns3:hr>
            <ns3:cad>0</ns3:cad>
          </ns3:TrackPointExtension>
        </extensions>
      </trkpt>
      <trkpt lat="37.7657066099345684051513671875" lon="-107.70957511849701404571533203125">
        <ele>3775.199951171875</ele>
        <time>2023-07-29T14:26:13.000Z</time>
        <extensions>
          <ns3:TrackPointExtension>
            <ns3:hr>109</ns3:hr>
            <ns3:cad>0</ns3:cad>
          </ns3:TrackPointExtension>
        </extensions>
      </trkpt>
      <trkpt lat="37.765715159475803375244140625" lon="-107.70957268774509429931640625">
        <ele>3775.39990234375</ele>
        <time>2023-07-29T14:26:14.000Z</time>
        <extensions>
          <ns3:TrackPointExtension>
            <ns3:hr>109</ns3:hr>
            <ns3:cad>0</ns3:cad>
          </ns3:TrackPointExtension>
        </extensions>
      </trkpt>
      <trkpt lat="37.76572328992187976837158203125" lon="-107.7095679938793182373046875">
        <ele>3775.39990234375</ele>
        <time>2023-07-29T14:26:15.000Z</time>
        <extensions>
          <ns3:TrackPointExtension>
            <ns3:hr>109</ns3:hr>
            <ns3:cad>0</ns3:cad>
          </ns3:TrackPointExtension>
        </extensions>
      </trkpt>
      <trkpt lat="37.765730917453765869140625" lon="-107.7095634676516056060791015625">
        <ele>3775.800048828125</ele>
        <time>2023-07-29T14:26:16.000Z</time>
        <extensions>
          <ns3:TrackPointExtension>
            <ns3:hr>109</ns3:hr>
            <ns3:cad>0</ns3:cad>
          </ns3:TrackPointExtension>
        </extensions>
      </trkpt>
      <trkpt lat="37.76573963463306427001953125" lon="-107.709555923938751220703125">
        <ele>3776</ele>
        <time>2023-07-29T14:26:17.000Z</time>
        <extensions>
          <ns3:TrackPointExtension>
            <ns3:hr>109</ns3:hr>
            <ns3:cad>0</ns3:cad>
          </ns3:TrackPointExtension>
        </extensions>
      </trkpt>
      <trkpt lat="37.7657483518123626708984375" lon="-107.7095497213304042816162109375">
        <ele>3776.199951171875</ele>
        <time>2023-07-29T14:26:18.000Z</time>
        <extensions>
          <ns3:TrackPointExtension>
            <ns3:hr>109</ns3:hr>
            <ns3:cad>0</ns3:cad>
          </ns3:TrackPointExtension>
        </extensions>
      </trkpt>
      <trkpt lat="37.76575572788715362548828125" lon="-107.7095436863601207733154296875">
        <ele>3776.199951171875</ele>
        <time>2023-07-29T14:26:19.000Z</time>
        <extensions>
          <ns3:TrackPointExtension>
            <ns3:hr>109</ns3:hr>
            <ns3:cad>0</ns3:cad>
          </ns3:TrackPointExtension>
        </extensions>
      </trkpt>
      <trkpt lat="37.76576109230518341064453125" lon="-107.709540836513042449951171875">
        <ele>3776.60009765625</ele>
        <time>2023-07-29T14:26:20.000Z</time>
        <extensions>
          <ns3:TrackPointExtension>
            <ns3:hr>109</ns3:hr>
            <ns3:cad>0</ns3:cad>
          </ns3:TrackPointExtension>
        </extensions>
      </trkpt>
      <trkpt lat="37.76576922275125980377197265625" lon="-107.7095359750092029571533203125">
        <ele>3776.60009765625</ele>
        <time>2023-07-29T14:26:21.000Z</time>
        <extensions>
          <ns3:TrackPointExtension>
            <ns3:hr>109</ns3:hr>
            <ns3:cad>0</ns3:cad>
          </ns3:TrackPointExtension>
        </extensions>
      </trkpt>
      <trkpt lat="37.7657671272754669189453125" lon="-107.70953555591404438018798828125">
        <ele>3776.800048828125</ele>
        <time>2023-07-29T14:26:22.000Z</time>
        <extensions>
          <ns3:TrackPointExtension>
            <ns3:hr>109</ns3:hr>
            <ns3:cad>0</ns3:cad>
          </ns3:TrackPointExtension>
        </extensions>
      </trkpt>
      <trkpt lat="37.7657716535031795501708984375" lon="-107.7095309458673000335693359375">
        <ele>3776.800048828125</ele>
        <time>2023-07-29T14:26:23.000Z</time>
        <extensions>
          <ns3:TrackPointExtension>
            <ns3:hr>109</ns3:hr>
            <ns3:cad>0</ns3:cad>
          </ns3:TrackPointExtension>
        </extensions>
      </trkpt>
      <trkpt lat="37.7657713182270526885986328125" lon="-107.709529437124729156494140625">
        <ele>3777</ele>
        <time>2023-07-29T14:26:24.000Z</time>
        <extensions>
          <ns3:TrackPointExtension>
            <ns3:hr>110</ns3:hr>
            <ns3:cad>0</ns3:cad>
          </ns3:TrackPointExtension>
        </extensions>
      </trkpt>
      <trkpt lat="37.765772826969623565673828125" lon="-107.70952516235411167144775390625">
        <ele>3777.199951171875</ele>
        <time>2023-07-29T14:26:25.000Z</time>
        <extensions>
          <ns3:TrackPointExtension>
            <ns3:hr>110</ns3:hr>
            <ns3:cad>0</ns3:cad>
          </ns3:TrackPointExtension>
        </extensions>
      </trkpt>
      <trkpt lat="37.76577056385576725006103515625" lon="-107.7095245756208896636962890625">
        <ele>3777.199951171875</ele>
        <time>2023-07-29T14:26:26.000Z</time>
        <extensions>
          <ns3:TrackPointExtension>
            <ns3:hr>110</ns3:hr>
            <ns3:cad>0</ns3:cad>
          </ns3:TrackPointExtension>
        </extensions>
      </trkpt>
      <trkpt lat="37.76577240787446498870849609375" lon="-107.70952449180185794830322265625">
        <ele>3777.199951171875</ele>
        <time>2023-07-29T14:26:27.000Z</time>
        <extensions>
          <ns3:TrackPointExtension>
            <ns3:hr>110</ns3:hr>
            <ns3:cad>0</ns3:cad>
          </ns3:TrackPointExtension>
        </extensions>
      </trkpt>
      <trkpt lat="37.7657723240554332733154296875" lon="-107.70952214486896991729736328125">
        <ele>3777.199951171875</ele>
        <time>2023-07-29T14:26:28.000Z</time>
        <extensions>
          <ns3:TrackPointExtension>
            <ns3:hr>110</ns3:hr>
            <ns3:cad>0</ns3:cad>
          </ns3:TrackPointExtension>
        </extensions>
      </trkpt>
      <trkpt lat="37.7657709829509258270263671875" lon="-107.7095228992402553558349609375">
        <ele>3777.199951171875</ele>
        <time>2023-07-29T14:26:29.000Z</time>
        <extensions>
          <ns3:TrackPointExtension>
            <ns3:hr>110</ns3:hr>
            <ns3:cad>0</ns3:cad>
          </ns3:TrackPointExtension>
        </extensions>
      </trkpt>
      <trkpt lat="37.7657659538090229034423828125" lon="-107.70952709019184112548828125">
        <ele>3777.199951171875</ele>
        <time>2023-07-29T14:26:30.000Z</time>
        <extensions>
          <ns3:TrackPointExtension>
            <ns3:hr>110</ns3:hr>
            <ns3:cad>0</ns3:cad>
          </ns3:TrackPointExtension>
        </extensions>
      </trkpt>
      <trkpt lat="37.7657644450664520263671875" lon="-107.7095296047627925872802734375">
        <ele>3777.199951171875</ele>
        <time>2023-07-29T14:26:31.000Z</time>
        <extensions>
          <ns3:TrackPointExtension>
            <ns3:hr>110</ns3:hr>
            <ns3:cad>0</ns3:cad>
          </ns3:TrackPointExtension>
        </extensions>
      </trkpt>
      <trkpt lat="37.76576352305710315704345703125" lon="-107.70953019149601459503173828125">
        <ele>3777.199951171875</ele>
        <time>2023-07-29T14:26:32.000Z</time>
        <extensions>
          <ns3:TrackPointExtension>
            <ns3:hr>110</ns3:hr>
            <ns3:cad>0</ns3:cad>
          </ns3:TrackPointExtension>
        </extensions>
      </trkpt>
      <trkpt lat="37.76576570235192775726318359375" lon="-107.70953069441020488739013671875">
        <ele>3777.199951171875</ele>
        <time>2023-07-29T14:26:33.000Z</time>
        <extensions>
          <ns3:TrackPointExtension>
            <ns3:hr>110</ns3:hr>
            <ns3:cad>0</ns3:cad>
          </ns3:TrackPointExtension>
        </extensions>
      </trkpt>
      <trkpt lat="37.76576704345643520355224609375" lon="-107.7095304429531097412109375">
        <ele>3777.199951171875</ele>
        <time>2023-07-29T14:26:34.000Z</time>
        <extensions>
          <ns3:TrackPointExtension>
            <ns3:hr>110</ns3:hr>
            <ns3:cad>0</ns3:cad>
          </ns3:TrackPointExtension>
        </extensions>
      </trkpt>
      <trkpt lat="37.76576645672321319580078125" lon="-107.70953186787664890289306640625">
        <ele>3777.199951171875</ele>
        <time>2023-07-29T14:26:35.000Z</time>
        <extensions>
          <ns3:TrackPointExtension>
            <ns3:hr>110</ns3:hr>
            <ns3:cad>0</ns3:cad>
          </ns3:TrackPointExtension>
        </extensions>
      </trkpt>
      <trkpt lat="37.76576687581837177276611328125" lon="-107.70953739993274211883544921875">
        <ele>3777.199951171875</ele>
        <time>2023-07-29T14:26:36.000Z</time>
        <extensions>
          <ns3:TrackPointExtension>
            <ns3:hr>110</ns3:hr>
            <ns3:cad>0</ns3:cad>
          </ns3:TrackPointExtension>
        </extensions>
      </trkpt>
      <trkpt lat="37.76576570235192775726318359375" lon="-107.7095423452556133270263671875">
        <ele>3777.199951171875</ele>
        <time>2023-07-29T14:26:37.000Z</time>
        <extensions>
          <ns3:TrackPointExtension>
            <ns3:hr>110</ns3:hr>
            <ns3:cad>0</ns3:cad>
          </ns3:TrackPointExtension>
        </extensions>
      </trkpt>
      <trkpt lat="37.76576251722872257232666015625" lon="-107.7095460332930088043212890625">
        <ele>3777.199951171875</ele>
        <time>2023-07-29T14:26:38.000Z</time>
        <extensions>
          <ns3:TrackPointExtension>
            <ns3:hr>110</ns3:hr>
            <ns3:cad>0</ns3:cad>
          </ns3:TrackPointExtension>
        </extensions>
      </trkpt>
      <trkpt lat="37.765758745372295379638671875" lon="-107.70954662002623081207275390625">
        <ele>3777.39990234375</ele>
        <time>2023-07-29T14:26:39.000Z</time>
        <extensions>
          <ns3:TrackPointExtension>
            <ns3:hr>110</ns3:hr>
            <ns3:cad>0</ns3:cad>
          </ns3:TrackPointExtension>
        </extensions>
      </trkpt>
      <trkpt lat="37.765758745372295379638671875" lon="-107.7095411717891693115234375">
        <ele>3777.39990234375</ele>
        <time>2023-07-29T14:26:40.000Z</time>
        <extensions>
          <ns3:TrackPointExtension>
            <ns3:hr>110</ns3:hr>
            <ns3:cad>0</ns3:cad>
          </ns3:TrackPointExtension>
        </extensions>
      </trkpt>
      <trkpt lat="37.7657579071819782257080078125" lon="-107.70952885039150714874267578125">
        <ele>3777.60009765625</ele>
        <time>2023-07-29T14:26:41.000Z</time>
        <extensions>
          <ns3:TrackPointExtension>
            <ns3:hr>110</ns3:hr>
            <ns3:cad>0</ns3:cad>
          </ns3:TrackPointExtension>
        </extensions>
      </trkpt>
      <trkpt lat="37.76575966738164424896240234375" lon="-107.70952331833541393280029296875">
        <ele>3777.60009765625</ele>
        <time>2023-07-29T14:26:42.000Z</time>
        <extensions>
          <ns3:TrackPointExtension>
            <ns3:hr>111</ns3:hr>
            <ns3:cad>0</ns3:cad>
          </ns3:TrackPointExtension>
        </extensions>
      </trkpt>
      <trkpt lat="37.7657617628574371337890625" lon="-107.7095208875834941864013671875">
        <ele>3777.60009765625</ele>
        <time>2023-07-29T14:26:43.000Z</time>
        <extensions>
          <ns3:TrackPointExtension>
            <ns3:hr>111</ns3:hr>
            <ns3:cad>0</ns3:cad>
          </ns3:TrackPointExtension>
        </extensions>
      </trkpt>
      <trkpt lat="37.76576268486678600311279296875" lon="-107.70951946265995502471923828125">
        <ele>3777.60009765625</ele>
        <time>2023-07-29T14:26:44.000Z</time>
        <extensions>
          <ns3:TrackPointExtension>
            <ns3:hr>111</ns3:hr>
            <ns3:cad>0</ns3:cad>
          </ns3:TrackPointExtension>
        </extensions>
      </trkpt>
      <trkpt lat="37.765761427581310272216796875" lon="-107.709520049393177032470703125">
        <ele>3777.39990234375</ele>
        <time>2023-07-29T14:26:45.000Z</time>
        <extensions>
          <ns3:TrackPointExtension>
            <ns3:hr>111</ns3:hr>
            <ns3:cad>0</ns3:cad>
          </ns3:TrackPointExtension>
        </extensions>
      </trkpt>
      <trkpt lat="37.76575966738164424896240234375" lon="-107.70952717401087284088134765625">
        <ele>3777.39990234375</ele>
        <time>2023-07-29T14:26:46.000Z</time>
        <extensions>
          <ns3:TrackPointExtension>
            <ns3:hr>111</ns3:hr>
            <ns3:cad>0</ns3:cad>
          </ns3:TrackPointExtension>
        </extensions>
      </trkpt>
      <trkpt lat="37.7657575719058513641357421875" lon="-107.70952532999217510223388671875">
        <ele>3777.39990234375</ele>
        <time>2023-07-29T14:26:47.000Z</time>
        <extensions>
          <ns3:TrackPointExtension>
            <ns3:hr>111</ns3:hr>
            <ns3:cad>0</ns3:cad>
          </ns3:TrackPointExtension>
        </extensions>
      </trkpt>
      <trkpt lat="37.765755392611026763916015625" lon="-107.7095155231654644012451171875">
        <ele>3777.60009765625</ele>
        <time>2023-07-29T14:26:48.000Z</time>
        <extensions>
          <ns3:TrackPointExtension>
            <ns3:hr>111</ns3:hr>
            <ns3:cad>0</ns3:cad>
          </ns3:TrackPointExtension>
        </extensions>
      </trkpt>
      <trkpt lat="37.765762098133563995361328125" lon="-107.7095245756208896636962890625">
        <ele>3777.60009765625</ele>
        <time>2023-07-29T14:26:49.000Z</time>
        <extensions>
          <ns3:TrackPointExtension>
            <ns3:hr>110</ns3:hr>
            <ns3:cad>0</ns3:cad>
          </ns3:TrackPointExtension>
        </extensions>
      </trkpt>
      <trkpt lat="37.765756063163280487060546875" lon="-107.709514014422893524169921875">
        <ele>3777.60009765625</ele>
        <time>2023-07-29T14:26:51.000Z</time>
        <extensions>
          <ns3:TrackPointExtension>
            <ns3:hr>110</ns3:hr>
            <ns3:cad>0</ns3:cad>
          </ns3:TrackPointExtension>
        </extensions>
      </trkpt>
      <trkpt lat="37.76575514115393161773681640625" lon="-107.70950638689100742340087890625">
        <ele>3777.60009765625</ele>
        <time>2023-07-29T14:26:52.000Z</time>
        <extensions>
          <ns3:TrackPointExtension>
            <ns3:hr>110</ns3:hr>
            <ns3:cad>0</ns3:cad>
          </ns3:TrackPointExtension>
        </extensions>
      </trkpt>
      <trkpt lat="37.7657599188387393951416015625" lon="-107.70954720675945281982421875">
        <ele>3777.60009765625</ele>
        <time>2023-07-29T14:26:58.000Z</time>
        <extensions>
          <ns3:TrackPointExtension>
            <ns3:hr>107</ns3:hr>
            <ns3:cad>0</ns3:cad>
          </ns3:TrackPointExtension>
        </extensions>
      </trkpt>
      <trkpt lat="37.76575815863907337188720703125" lon="-107.70953991450369358062744140625">
        <ele>3777.60009765625</ele>
        <time>2023-07-29T14:26:59.000Z</time>
        <extensions>
          <ns3:TrackPointExtension>
            <ns3:hr>106</ns3:hr>
            <ns3:cad>0</ns3:cad>
          </ns3:TrackPointExtension>
        </extensions>
      </trkpt>
      <trkpt lat="37.7657617628574371337890625" lon="-107.70953488536179065704345703125">
        <ele>3777.60009765625</ele>
        <time>2023-07-29T14:27:00.000Z</time>
        <extensions>
          <ns3:TrackPointExtension>
            <ns3:hr>105</ns3:hr>
            <ns3:cad>0</ns3:cad>
          </ns3:TrackPointExtension>
        </extensions>
      </trkpt>
      <trkpt lat="37.76576779782772064208984375" lon="-107.709529101848602294921875">
        <ele>3777.60009765625</ele>
        <time>2023-07-29T14:27:01.000Z</time>
        <extensions>
          <ns3:TrackPointExtension>
            <ns3:hr>105</ns3:hr>
            <ns3:cad>0</ns3:cad>
          </ns3:TrackPointExtension>
        </extensions>
      </trkpt>
      <trkpt lat="37.76577089913189411163330078125" lon="-107.709529101848602294921875">
        <ele>3777.60009765625</ele>
        <time>2023-07-29T14:27:02.000Z</time>
        <extensions>
          <ns3:TrackPointExtension>
            <ns3:hr>104</ns3:hr>
            <ns3:cad>0</ns3:cad>
          </ns3:TrackPointExtension>
        </extensions>
      </trkpt>
      <trkpt lat="37.76577307842671871185302734375" lon="-107.7095312811434268951416015625">
        <ele>3777.60009765625</ele>
        <time>2023-07-29T14:27:03.000Z</time>
        <extensions>
          <ns3:TrackPointExtension>
            <ns3:hr>104</ns3:hr>
            <ns3:cad>0</ns3:cad>
          </ns3:TrackPointExtension>
        </extensions>
      </trkpt>
      <trkpt lat="37.76577374897897243499755859375" lon="-107.709530107676982879638671875">
        <ele>3777.60009765625</ele>
        <time>2023-07-29T14:27:04.000Z</time>
        <extensions>
          <ns3:TrackPointExtension>
            <ns3:hr>103</ns3:hr>
            <ns3:cad>0</ns3:cad>
          </ns3:TrackPointExtension>
        </extensions>
      </trkpt>
      <trkpt lat="37.76577190496027469635009765625" lon="-107.7095346339046955108642578125">
        <ele>3777.800048828125</ele>
        <time>2023-07-29T14:27:05.000Z</time>
        <extensions>
          <ns3:TrackPointExtension>
            <ns3:hr>103</ns3:hr>
            <ns3:cad>0</ns3:cad>
          </ns3:TrackPointExtension>
        </extensions>
      </trkpt>
      <trkpt lat="37.76576586998999118804931640625" lon="-107.7095386572182178497314453125">
        <ele>3777.800048828125</ele>
        <time>2023-07-29T14:27:06.000Z</time>
        <extensions>
          <ns3:TrackPointExtension>
            <ns3:hr>102</ns3:hr>
            <ns3:cad>0</ns3:cad>
          </ns3:TrackPointExtension>
        </extensions>
      </trkpt>
      <trkpt lat="37.76576184667646884918212890625" lon="-107.70954192616045475006103515625">
        <ele>3777.800048828125</ele>
        <time>2023-07-29T14:27:07.000Z</time>
        <extensions>
          <ns3:TrackPointExtension>
            <ns3:hr>102</ns3:hr>
            <ns3:cad>0</ns3:cad>
          </ns3:TrackPointExtension>
        </extensions>
      </trkpt>
      <trkpt lat="37.76576109230518341064453125" lon="-107.70953957922756671905517578125">
        <ele>3777.800048828125</ele>
        <time>2023-07-29T14:27:08.000Z</time>
        <extensions>
          <ns3:TrackPointExtension>
            <ns3:hr>101</ns3:hr>
            <ns3:cad>0</ns3:cad>
          </ns3:TrackPointExtension>
        </extensions>
      </trkpt>
      <trkpt lat="37.7657590806484222412109375" lon="-107.70953890867531299591064453125">
        <ele>3777.800048828125</ele>
        <time>2023-07-29T14:27:09.000Z</time>
        <extensions>
          <ns3:TrackPointExtension>
            <ns3:hr>101</ns3:hr>
            <ns3:cad>0</ns3:cad>
          </ns3:TrackPointExtension>
        </extensions>
      </trkpt>
      <trkpt lat="37.76575882919132709503173828125" lon="-107.70953622646629810333251953125">
        <ele>3777.60009765625</ele>
        <time>2023-07-29T14:27:10.000Z</time>
        <extensions>
          <ns3:TrackPointExtension>
            <ns3:hr>101</ns3:hr>
            <ns3:cad>0</ns3:cad>
          </ns3:TrackPointExtension>
        </extensions>
      </trkpt>
      <trkpt lat="37.76576134376227855682373046875" lon="-107.70953153260052204132080078125">
        <ele>3777.60009765625</ele>
        <time>2023-07-29T14:27:11.000Z</time>
        <extensions>
          <ns3:TrackPointExtension>
            <ns3:hr>100</ns3:hr>
            <ns3:cad>0</ns3:cad>
          </ns3:TrackPointExtension>
        </extensions>
      </trkpt>
      <trkpt lat="37.76576352305710315704345703125" lon="-107.7095252461731433868408203125">
        <ele>3777.60009765625</ele>
        <time>2023-07-29T14:27:12.000Z</time>
        <extensions>
          <ns3:TrackPointExtension>
            <ns3:hr>100</ns3:hr>
            <ns3:cad>0</ns3:cad>
          </ns3:TrackPointExtension>
        </extensions>
      </trkpt>
      <trkpt lat="37.765764109790325164794921875" lon="-107.709519378840923309326171875">
        <ele>3777.60009765625</ele>
        <time>2023-07-29T14:27:13.000Z</time>
        <extensions>
          <ns3:TrackPointExtension>
            <ns3:hr>99</ns3:hr>
            <ns3:cad>0</ns3:cad>
          </ns3:TrackPointExtension>
        </extensions>
      </trkpt>
      <trkpt lat="37.76576511561870574951171875" lon="-107.7095101587474346160888671875">
        <ele>3777.60009765625</ele>
        <time>2023-07-29T14:27:14.000Z</time>
        <extensions>
          <ns3:TrackPointExtension>
            <ns3:hr>99</ns3:hr>
            <ns3:cad>0</ns3:cad>
          </ns3:TrackPointExtension>
        </extensions>
      </trkpt>
      <trkpt lat="37.76576369069516658782958984375" lon="-107.70950588397681713104248046875">
        <ele>3777.39990234375</ele>
        <time>2023-07-29T14:27:15.000Z</time>
        <extensions>
          <ns3:TrackPointExtension>
            <ns3:hr>99</ns3:hr>
            <ns3:cad>0</ns3:cad>
          </ns3:TrackPointExtension>
        </extensions>
      </trkpt>
      <trkpt lat="37.76576017029583454132080078125" lon="-107.70950655452907085418701171875">
        <ele>3777.39990234375</ele>
        <time>2023-07-29T14:27:16.000Z</time>
        <extensions>
          <ns3:TrackPointExtension>
            <ns3:hr>98</ns3:hr>
            <ns3:cad>0</ns3:cad>
          </ns3:TrackPointExtension>
        </extensions>
      </trkpt>
      <trkpt lat="37.76575799100100994110107421875" lon="-107.70950387232005596160888671875">
        <ele>3777.39990234375</ele>
        <time>2023-07-29T14:27:17.000Z</time>
        <extensions>
          <ns3:TrackPointExtension>
            <ns3:hr>98</ns3:hr>
            <ns3:cad>0</ns3:cad>
          </ns3:TrackPointExtension>
        </extensions>
      </trkpt>
      <trkpt lat="37.76575430296361446380615234375" lon="-107.70950026810169219970703125">
        <ele>3777.39990234375</ele>
        <time>2023-07-29T14:27:18.000Z</time>
        <extensions>
          <ns3:TrackPointExtension>
            <ns3:hr>97</ns3:hr>
            <ns3:cad>0</ns3:cad>
          </ns3:TrackPointExtension>
        </extensions>
      </trkpt>
      <trkpt lat="37.7657522074878215789794921875" lon="-107.70949364639818668365478515625">
        <ele>3777.60009765625</ele>
        <time>2023-07-29T14:27:19.000Z</time>
        <extensions>
          <ns3:TrackPointExtension>
            <ns3:hr>97</ns3:hr>
            <ns3:cad>0</ns3:cad>
          </ns3:TrackPointExtension>
        </extensions>
      </trkpt>
      <trkpt lat="37.76575145311653614044189453125" lon="-107.70949934609234333038330078125">
        <ele>3777.800048828125</ele>
        <time>2023-07-29T14:27:20.000Z</time>
        <extensions>
          <ns3:TrackPointExtension>
            <ns3:hr>96</ns3:hr>
            <ns3:cad>0</ns3:cad>
          </ns3:TrackPointExtension>
        </extensions>
      </trkpt>
      <trkpt lat="37.765749357640743255615234375" lon="-107.709501944482326507568359375">
        <ele>3778</ele>
        <time>2023-07-29T14:27:21.000Z</time>
        <extensions>
          <ns3:TrackPointExtension>
            <ns3:hr>96</ns3:hr>
            <ns3:cad>0</ns3:cad>
          </ns3:TrackPointExtension>
        </extensions>
      </trkpt>
      <trkpt lat="37.765751369297504425048828125" lon="-107.70950202830135822296142578125">
        <ele>3778</ele>
        <time>2023-07-29T14:27:22.000Z</time>
        <extensions>
          <ns3:TrackPointExtension>
            <ns3:hr>96</ns3:hr>
            <ns3:cad>0</ns3:cad>
          </ns3:TrackPointExtension>
        </extensions>
      </trkpt>
      <trkpt lat="37.76575480587780475616455078125" lon="-107.7095044590532779693603515625">
        <ele>3778</ele>
        <time>2023-07-29T14:27:23.000Z</time>
        <extensions>
          <ns3:TrackPointExtension>
            <ns3:hr>96</ns3:hr>
            <ns3:cad>0</ns3:cad>
          </ns3:TrackPointExtension>
        </extensions>
      </trkpt>
      <trkpt lat="37.7657602541148662567138671875" lon="-107.70949364639818668365478515625">
        <ele>3778</ele>
        <time>2023-07-29T14:27:24.000Z</time>
        <extensions>
          <ns3:TrackPointExtension>
            <ns3:hr>96</ns3:hr>
            <ns3:cad>0</ns3:cad>
          </ns3:TrackPointExtension>
        </extensions>
      </trkpt>
      <trkpt lat="37.7657602541148662567138671875" lon="-107.70948006771504878997802734375">
        <ele>3778.199951171875</ele>
        <time>2023-07-29T14:27:25.000Z</time>
        <extensions>
          <ns3:TrackPointExtension>
            <ns3:hr>96</ns3:hr>
            <ns3:cad>0</ns3:cad>
          </ns3:TrackPointExtension>
        </extensions>
      </trkpt>
      <trkpt lat="37.76576687581837177276611328125" lon="-107.7094659022986888885498046875">
        <ele>3778.199951171875</ele>
        <time>2023-07-29T14:27:26.000Z</time>
        <extensions>
          <ns3:TrackPointExtension>
            <ns3:hr>96</ns3:hr>
            <ns3:cad>0</ns3:cad>
          </ns3:TrackPointExtension>
        </extensions>
      </trkpt>
      <trkpt lat="37.76577341370284557342529296875" lon="-107.70946137607097625732421875">
        <ele>3778.199951171875</ele>
        <time>2023-07-29T14:27:27.000Z</time>
        <extensions>
          <ns3:TrackPointExtension>
            <ns3:hr>96</ns3:hr>
            <ns3:cad>0</ns3:cad>
          </ns3:TrackPointExtension>
        </extensions>
      </trkpt>
      <trkpt lat="37.7657783590257167816162109375" lon="-107.7094662375748157501220703125">
        <ele>3778.60009765625</ele>
        <time>2023-07-29T14:27:28.000Z</time>
        <extensions>
          <ns3:TrackPointExtension>
            <ns3:hr>96</ns3:hr>
            <ns3:cad>0</ns3:cad>
          </ns3:TrackPointExtension>
        </extensions>
      </trkpt>
      <trkpt lat="37.765784226357936859130859375" lon="-107.70946808159351348876953125">
        <ele>3778.60009765625</ele>
        <time>2023-07-29T14:27:29.000Z</time>
        <extensions>
          <ns3:TrackPointExtension>
            <ns3:hr>96</ns3:hr>
            <ns3:cad>75</ns3:cad>
          </ns3:TrackPointExtension>
        </extensions>
      </trkpt>
      <trkpt lat="37.7657924406230449676513671875" lon="-107.7094687521457672119140625">
        <ele>3779</ele>
        <time>2023-07-29T14:27:30.000Z</time>
        <extensions>
          <ns3:TrackPointExtension>
            <ns3:hr>96</ns3:hr>
            <ns3:cad>75</ns3:cad>
          </ns3:TrackPointExtension>
        </extensions>
      </trkpt>
      <trkpt lat="37.7657921053469181060791015625" lon="-107.7094762958586215972900390625">
        <ele>3779</ele>
        <time>2023-07-29T14:27:31.000Z</time>
        <extensions>
          <ns3:TrackPointExtension>
            <ns3:hr>96</ns3:hr>
            <ns3:cad>75</ns3:cad>
          </ns3:TrackPointExtension>
        </extensions>
      </trkpt>
      <trkpt lat="37.76579738594591617584228515625" lon="-107.709482498466968536376953125">
        <ele>3779.39990234375</ele>
        <time>2023-07-29T14:27:32.000Z</time>
        <extensions>
          <ns3:TrackPointExtension>
            <ns3:hr>96</ns3:hr>
            <ns3:cad>75</ns3:cad>
          </ns3:TrackPointExtension>
        </extensions>
      </trkpt>
      <trkpt lat="37.76580400764942169189453125" lon="-107.70949197001755237579345703125">
        <ele>3779.39990234375</ele>
        <time>2023-07-29T14:27:33.000Z</time>
        <extensions>
          <ns3:TrackPointExtension>
            <ns3:hr>96</ns3:hr>
            <ns3:cad>0</ns3:cad>
          </ns3:TrackPointExtension>
        </extensions>
      </trkpt>
      <trkpt lat="37.76580895297229290008544921875" lon="-107.709499932825565338134765625">
        <ele>3779.60009765625</ele>
        <time>2023-07-29T14:27:34.000Z</time>
        <extensions>
          <ns3:TrackPointExtension>
            <ns3:hr>96</ns3:hr>
            <ns3:cad>0</ns3:cad>
          </ns3:TrackPointExtension>
        </extensions>
      </trkpt>
      <trkpt lat="37.765812389552593231201171875" lon="-107.70950554870069026947021484375">
        <ele>3779.60009765625</ele>
        <time>2023-07-29T14:27:35.000Z</time>
        <extensions>
          <ns3:TrackPointExtension>
            <ns3:hr>96</ns3:hr>
            <ns3:cad>0</ns3:cad>
          </ns3:TrackPointExtension>
        </extensions>
      </trkpt>
      <trkpt lat="37.76582010090351104736328125" lon="-107.7095143496990203857421875">
        <ele>3779.800048828125</ele>
        <time>2023-07-29T14:27:36.000Z</time>
        <extensions>
          <ns3:TrackPointExtension>
            <ns3:hr>96</ns3:hr>
            <ns3:cad>0</ns3:cad>
          </ns3:TrackPointExtension>
        </extensions>
      </trkpt>
      <trkpt lat="37.76582404039800167083740234375" lon="-107.709518708288669586181640625">
        <ele>3780.199951171875</ele>
        <time>2023-07-29T14:27:37.000Z</time>
        <extensions>
          <ns3:TrackPointExtension>
            <ns3:hr>96</ns3:hr>
            <ns3:cad>0</ns3:cad>
          </ns3:TrackPointExtension>
        </extensions>
      </trkpt>
      <trkpt lat="37.76582546532154083251953125" lon="-107.7095178700983524322509765625">
        <ele>3780.199951171875</ele>
        <time>2023-07-29T14:27:38.000Z</time>
        <extensions>
          <ns3:TrackPointExtension>
            <ns3:hr>96</ns3:hr>
            <ns3:cad>0</ns3:cad>
          </ns3:TrackPointExtension>
        </extensions>
      </trkpt>
      <trkpt lat="37.765830494463443756103515625" lon="-107.7095223963260650634765625">
        <ele>3780.199951171875</ele>
        <time>2023-07-29T14:27:39.000Z</time>
        <extensions>
          <ns3:TrackPointExtension>
            <ns3:hr>95</ns3:hr>
            <ns3:cad>0</ns3:cad>
          </ns3:TrackPointExtension>
        </extensions>
      </trkpt>
      <trkpt lat="37.7658427320420742034912109375" lon="-107.70953354425728321075439453125">
        <ele>3780.199951171875</ele>
        <time>2023-07-29T14:27:40.000Z</time>
        <extensions>
          <ns3:TrackPointExtension>
            <ns3:hr>94</ns3:hr>
            <ns3:cad>45</ns3:cad>
          </ns3:TrackPointExtension>
        </extensions>
      </trkpt>
      <trkpt lat="37.76585086248815059661865234375" lon="-107.7095436863601207733154296875">
        <ele>3780.60009765625</ele>
        <time>2023-07-29T14:27:41.000Z</time>
        <extensions>
          <ns3:TrackPointExtension>
            <ns3:hr>92</ns3:hr>
            <ns3:cad>45</ns3:cad>
          </ns3:TrackPointExtension>
        </extensions>
      </trkpt>
      <trkpt lat="37.76585622690618038177490234375" lon="-107.7095503918826580047607421875">
        <ele>3780.800048828125</ele>
        <time>2023-07-29T14:27:42.000Z</time>
        <extensions>
          <ns3:TrackPointExtension>
            <ns3:hr>91</ns3:hr>
            <ns3:cad>45</ns3:cad>
          </ns3:TrackPointExtension>
        </extensions>
      </trkpt>
      <trkpt lat="37.765862010419368743896484375" lon="-107.709556259214878082275390625">
        <ele>3781</ele>
        <time>2023-07-29T14:27:43.000Z</time>
        <extensions>
          <ns3:TrackPointExtension>
            <ns3:hr>90</ns3:hr>
            <ns3:cad>0</ns3:cad>
          </ns3:TrackPointExtension>
        </extensions>
      </trkpt>
      <trkpt lat="37.7658692188560962677001953125" lon="-107.70956237800419330596923828125">
        <ele>3781.199951171875</ele>
        <time>2023-07-29T14:27:44.000Z</time>
        <extensions>
          <ns3:TrackPointExtension>
            <ns3:hr>90</ns3:hr>
            <ns3:cad>0</ns3:cad>
          </ns3:TrackPointExtension>
        </extensions>
      </trkpt>
      <trkpt lat="37.7658784389495849609375" lon="-107.7095679938793182373046875">
        <ele>3781.199951171875</ele>
        <time>2023-07-29T14:27:45.000Z</time>
        <extensions>
          <ns3:TrackPointExtension>
            <ns3:hr>90</ns3:hr>
            <ns3:cad>0</ns3:cad>
          </ns3:TrackPointExtension>
        </extensions>
      </trkpt>
      <trkpt lat="37.76588070206344127655029296875" lon="-107.70957109518349170684814453125">
        <ele>3781.39990234375</ele>
        <time>2023-07-29T14:27:46.000Z</time>
        <extensions>
          <ns3:TrackPointExtension>
            <ns3:hr>91</ns3:hr>
            <ns3:cad>0</ns3:cad>
          </ns3:TrackPointExtension>
        </extensions>
      </trkpt>
      <trkpt lat="37.76588723994791507720947265625" lon="-107.70957478322088718414306640625">
        <ele>3781.60009765625</ele>
        <time>2023-07-29T14:27:47.000Z</time>
        <extensions>
          <ns3:TrackPointExtension>
            <ns3:hr>91</ns3:hr>
            <ns3:cad>0</ns3:cad>
          </ns3:TrackPointExtension>
        </extensions>
      </trkpt>
      <trkpt lat="37.76589243672788143157958984375" lon="-107.70957662723958492279052734375">
        <ele>3782</ele>
        <time>2023-07-29T14:27:48.000Z</time>
        <extensions>
          <ns3:TrackPointExtension>
            <ns3:hr>92</ns3:hr>
            <ns3:cad>0</ns3:cad>
          </ns3:TrackPointExtension>
        </extensions>
      </trkpt>
      <trkpt lat="37.7659012377262115478515625" lon="-107.70958065055310726165771484375">
        <ele>3782.199951171875</ele>
        <time>2023-07-29T14:27:49.000Z</time>
        <extensions>
          <ns3:TrackPointExtension>
            <ns3:hr>92</ns3:hr>
            <ns3:cad>0</ns3:cad>
          </ns3:TrackPointExtension>
        </extensions>
      </trkpt>
      <trkpt lat="37.7659034170210361480712890625" lon="-107.709579728543758392333984375">
        <ele>3782.199951171875</ele>
        <time>2023-07-29T14:27:50.000Z</time>
        <extensions>
          <ns3:TrackPointExtension>
            <ns3:hr>93</ns3:hr>
            <ns3:cad>0</ns3:cad>
          </ns3:TrackPointExtension>
        </extensions>
      </trkpt>
      <trkpt lat="37.765908949077129364013671875" lon="-107.70958299748599529266357421875">
        <ele>3782.199951171875</ele>
        <time>2023-07-29T14:27:51.000Z</time>
        <extensions>
          <ns3:TrackPointExtension>
            <ns3:hr>93</ns3:hr>
            <ns3:cad>0</ns3:cad>
          </ns3:TrackPointExtension>
        </extensions>
      </trkpt>
      <trkpt lat="37.76591607369482517242431640625" lon="-107.7095840871334075927734375">
        <ele>3782.39990234375</ele>
        <time>2023-07-29T14:27:52.000Z</time>
        <extensions>
          <ns3:TrackPointExtension>
            <ns3:hr>94</ns3:hr>
            <ns3:cad>0</ns3:cad>
          </ns3:TrackPointExtension>
        </extensions>
      </trkpt>
      <trkpt lat="37.765925042331218719482421875" lon="-107.709588110446929931640625">
        <ele>3782.60009765625</ele>
        <time>2023-07-29T14:27:53.000Z</time>
        <extensions>
          <ns3:TrackPointExtension>
            <ns3:hr>95</ns3:hr>
            <ns3:cad>0</ns3:cad>
          </ns3:TrackPointExtension>
        </extensions>
      </trkpt>
      <trkpt lat="37.76592697016894817352294921875" lon="-107.70958819426596164703369140625">
        <ele>3782.800048828125</ele>
        <time>2023-07-29T14:27:54.000Z</time>
        <extensions>
          <ns3:TrackPointExtension>
            <ns3:hr>95</ns3:hr>
            <ns3:cad>0</ns3:cad>
          </ns3:TrackPointExtension>
        </extensions>
      </trkpt>
      <trkpt lat="37.7659352682530879974365234375" lon="-107.70958936773240566253662109375">
        <ele>3783</ele>
        <time>2023-07-29T14:27:55.000Z</time>
        <extensions>
          <ns3:TrackPointExtension>
            <ns3:hr>96</ns3:hr>
            <ns3:cad>0</ns3:cad>
          </ns3:TrackPointExtension>
        </extensions>
      </trkpt>
      <trkpt lat="37.76594038121402263641357421875" lon="-107.7095949836075305938720703125">
        <ele>3783.199951171875</ele>
        <time>2023-07-29T14:27:56.000Z</time>
        <extensions>
          <ns3:TrackPointExtension>
            <ns3:hr>96</ns3:hr>
            <ns3:cad>0</ns3:cad>
          </ns3:TrackPointExtension>
        </extensions>
      </trkpt>
      <trkpt lat="37.76594214141368865966796875" lon="-107.70960143767297267913818359375">
        <ele>3783.39990234375</ele>
        <time>2023-07-29T14:27:57.000Z</time>
        <extensions>
          <ns3:TrackPointExtension>
            <ns3:hr>97</ns3:hr>
            <ns3:cad>0</ns3:cad>
          </ns3:TrackPointExtension>
        </extensions>
      </trkpt>
      <trkpt lat="37.76594884693622589111328125" lon="-107.70961032249033451080322265625">
        <ele>3783.60009765625</ele>
        <time>2023-07-29T14:27:58.000Z</time>
        <extensions>
          <ns3:TrackPointExtension>
            <ns3:hr>97</ns3:hr>
            <ns3:cad>0</ns3:cad>
          </ns3:TrackPointExtension>
        </extensions>
      </trkpt>
      <trkpt lat="37.76595890522003173828125" lon="-107.7096197940409183502197265625">
        <ele>3783.800048828125</ele>
        <time>2023-07-29T14:27:59.000Z</time>
        <extensions>
          <ns3:TrackPointExtension>
            <ns3:hr>98</ns3:hr>
            <ns3:cad>0</ns3:cad>
          </ns3:TrackPointExtension>
        </extensions>
      </trkpt>
      <trkpt lat="37.7659647725522518157958984375" lon="-107.7096261642873287200927734375">
        <ele>3783.800048828125</ele>
        <time>2023-07-29T14:28:00.000Z</time>
        <extensions>
          <ns3:TrackPointExtension>
            <ns3:hr>99</ns3:hr>
            <ns3:cad>0</ns3:cad>
          </ns3:TrackPointExtension>
        </extensions>
      </trkpt>
      <trkpt lat="37.76596586219966411590576171875" lon="-107.7096270024776458740234375">
        <ele>3784</ele>
        <time>2023-07-29T14:28:01.000Z</time>
        <extensions>
          <ns3:TrackPointExtension>
            <ns3:hr>100</ns3:hr>
            <ns3:cad>53</ns3:cad>
          </ns3:TrackPointExtension>
        </extensions>
      </trkpt>
      <trkpt lat="37.7659711427986621856689453125" lon="-107.7096355520188808441162109375">
        <ele>3784</ele>
        <time>2023-07-29T14:28:02.000Z</time>
        <extensions>
          <ns3:TrackPointExtension>
            <ns3:hr>101</ns3:hr>
            <ns3:cad>53</ns3:cad>
          </ns3:TrackPointExtension>
        </extensions>
      </trkpt>
      <trkpt lat="37.76597960852086544036865234375" lon="-107.70964049734175205230712890625">
        <ele>3784</ele>
        <time>2023-07-29T14:28:03.000Z</time>
        <extensions>
          <ns3:TrackPointExtension>
            <ns3:hr>102</ns3:hr>
            <ns3:cad>53</ns3:cad>
          </ns3:TrackPointExtension>
        </extensions>
      </trkpt>
      <trkpt lat="37.76598262600600719451904296875" lon="-107.70964100025594234466552734375">
        <ele>3784.39990234375</ele>
        <time>2023-07-29T14:28:04.000Z</time>
        <extensions>
          <ns3:TrackPointExtension>
            <ns3:hr>104</ns3:hr>
            <ns3:cad>53</ns3:cad>
          </ns3:TrackPointExtension>
        </extensions>
      </trkpt>
      <trkpt lat="37.7659889124333858489990234375" lon="-107.70964183844625949859619140625">
        <ele>3784.39990234375</ele>
        <time>2023-07-29T14:28:05.000Z</time>
        <extensions>
          <ns3:TrackPointExtension>
            <ns3:hr>105</ns3:hr>
            <ns3:cad>53</ns3:cad>
          </ns3:TrackPointExtension>
        </extensions>
      </trkpt>
      <trkpt lat="37.76599821634590625762939453125" lon="-107.70964217372238636016845703125">
        <ele>3784.60009765625</ele>
        <time>2023-07-29T14:28:06.000Z</time>
        <extensions>
          <ns3:TrackPointExtension>
            <ns3:hr>106</ns3:hr>
            <ns3:cad>0</ns3:cad>
          </ns3:TrackPointExtension>
        </extensions>
      </trkpt>
      <trkpt lat="37.7660036645829677581787109375" lon="-107.70964234136044979095458984375">
        <ele>3784.60009765625</ele>
        <time>2023-07-29T14:28:07.000Z</time>
        <extensions>
          <ns3:TrackPointExtension>
            <ns3:hr>107</ns3:hr>
            <ns3:cad>0</ns3:cad>
          </ns3:TrackPointExtension>
        </extensions>
      </trkpt>
      <trkpt lat="37.7660164050757884979248046875" lon="-107.70963949151337146759033203125">
        <ele>3784.60009765625</ele>
        <time>2023-07-29T14:28:08.000Z</time>
        <extensions>
          <ns3:TrackPointExtension>
            <ns3:hr>107</ns3:hr>
            <ns3:cad>0</ns3:cad>
          </ns3:TrackPointExtension>
        </extensions>
      </trkpt>
      <trkpt lat="37.7660264633595943450927734375" lon="-107.70964133553206920623779296875">
        <ele>3785</ele>
        <time>2023-07-29T14:28:09.000Z</time>
        <extensions>
          <ns3:TrackPointExtension>
            <ns3:hr>107</ns3:hr>
            <ns3:cad>0</ns3:cad>
          </ns3:TrackPointExtension>
        </extensions>
      </trkpt>
      <trkpt lat="37.766039706766605377197265625" lon="-107.709637396037578582763671875">
        <ele>3785</ele>
        <time>2023-07-29T14:28:10.000Z</time>
        <extensions>
          <ns3:TrackPointExtension>
            <ns3:hr>107</ns3:hr>
            <ns3:cad>0</ns3:cad>
          </ns3:TrackPointExtension>
        </extensions>
      </trkpt>
      <trkpt lat="37.76605169288814067840576171875" lon="-107.7096345461905002593994140625">
        <ele>3785.199951171875</ele>
        <time>2023-07-29T14:28:11.000Z</time>
        <extensions>
          <ns3:TrackPointExtension>
            <ns3:hr>107</ns3:hr>
            <ns3:cad>0</ns3:cad>
          </ns3:TrackPointExtension>
        </extensions>
      </trkpt>
      <trkpt lat="37.76606007479131221771240234375" lon="-107.709632702171802520751953125">
        <ele>3785.39990234375</ele>
        <time>2023-07-29T14:28:12.000Z</time>
        <extensions>
          <ns3:TrackPointExtension>
            <ns3:hr>107</ns3:hr>
            <ns3:cad>0</ns3:cad>
          </ns3:TrackPointExtension>
        </extensions>
      </trkpt>
      <trkpt lat="37.7660633437335491180419921875" lon="-107.70962859503924846649169921875">
        <ele>3785.60009765625</ele>
        <time>2023-07-29T14:28:13.000Z</time>
        <extensions>
          <ns3:TrackPointExtension>
            <ns3:hr>107</ns3:hr>
            <ns3:cad>0</ns3:cad>
          </ns3:TrackPointExtension>
        </extensions>
      </trkpt>
      <trkpt lat="37.7660673670470714569091796875" lon="-107.70962641574442386627197265625">
        <ele>3785.60009765625</ele>
        <time>2023-07-29T14:28:14.000Z</time>
        <extensions>
          <ns3:TrackPointExtension>
            <ns3:hr>107</ns3:hr>
            <ns3:cad>0</ns3:cad>
          </ns3:TrackPointExtension>
        </extensions>
      </trkpt>
      <trkpt lat="37.76606862433254718780517578125" lon="-107.70962423644959926605224609375">
        <ele>3786</ele>
        <time>2023-07-29T14:28:15.000Z</time>
        <extensions>
          <ns3:TrackPointExtension>
            <ns3:hr>108</ns3:hr>
            <ns3:cad>0</ns3:cad>
          </ns3:TrackPointExtension>
        </extensions>
      </trkpt>
      <trkpt lat="37.7660774253308773040771484375" lon="-107.70962096750736236572265625">
        <ele>3786.199951171875</ele>
        <time>2023-07-29T14:28:16.000Z</time>
        <extensions>
          <ns3:TrackPointExtension>
            <ns3:hr>108</ns3:hr>
            <ns3:cad>0</ns3:cad>
          </ns3:TrackPointExtension>
        </extensions>
      </trkpt>
      <trkpt lat="37.76608605869114398956298828125" lon="-107.7096197940409183502197265625">
        <ele>3786.199951171875</ele>
        <time>2023-07-29T14:28:17.000Z</time>
        <extensions>
          <ns3:TrackPointExtension>
            <ns3:hr>108</ns3:hr>
            <ns3:cad>0</ns3:cad>
          </ns3:TrackPointExtension>
        </extensions>
      </trkpt>
      <trkpt lat="37.76608555577695369720458984375" lon="-107.7096238173544406890869140625">
        <ele>3786.39990234375</ele>
        <time>2023-07-29T14:28:18.000Z</time>
        <extensions>
          <ns3:TrackPointExtension>
            <ns3:hr>108</ns3:hr>
            <ns3:cad>0</ns3:cad>
          </ns3:TrackPointExtension>
        </extensions>
      </trkpt>
      <trkpt lat="37.76608765125274658203125" lon="-107.70963362418115139007568359375">
        <ele>3786.39990234375</ele>
        <time>2023-07-29T14:28:19.000Z</time>
        <extensions>
          <ns3:TrackPointExtension>
            <ns3:hr>108</ns3:hr>
            <ns3:cad>0</ns3:cad>
          </ns3:TrackPointExtension>
        </extensions>
      </trkpt>
      <trkpt lat="37.76609008200466632843017578125" lon="-107.7096402458846569061279296875">
        <ele>3786.60009765625</ele>
        <time>2023-07-29T14:28:20.000Z</time>
        <extensions>
          <ns3:TrackPointExtension>
            <ns3:hr>109</ns3:hr>
            <ns3:cad>0</ns3:cad>
          </ns3:TrackPointExtension>
        </extensions>
      </trkpt>
      <trkpt lat="37.76608823798596858978271484375" lon="-107.70964921452105045318603515625">
        <ele>3786.60009765625</ele>
        <time>2023-07-29T14:28:21.000Z</time>
        <extensions>
          <ns3:TrackPointExtension>
            <ns3:hr>109</ns3:hr>
            <ns3:cad>0</ns3:cad>
          </ns3:TrackPointExtension>
        </extensions>
      </trkpt>
      <trkpt lat="37.7660941891372203826904296875" lon="-107.70966195501387119293212890625">
        <ele>3786.800048828125</ele>
        <time>2023-07-29T14:28:22.000Z</time>
        <extensions>
          <ns3:TrackPointExtension>
            <ns3:hr>109</ns3:hr>
            <ns3:cad>0</ns3:cad>
          </ns3:TrackPointExtension>
        </extensions>
      </trkpt>
      <trkpt lat="37.76610382832586765289306640625" lon="-107.70967586897313594818115234375">
        <ele>3787</ele>
        <time>2023-07-29T14:28:23.000Z</time>
        <extensions>
          <ns3:TrackPointExtension>
            <ns3:hr>109</ns3:hr>
            <ns3:cad>0</ns3:cad>
          </ns3:TrackPointExtension>
        </extensions>
      </trkpt>
      <trkpt lat="37.7661089412868022918701171875" lon="-107.70968659780919551849365234375">
        <ele>3787.39990234375</ele>
        <time>2023-07-29T14:28:24.000Z</time>
        <extensions>
          <ns3:TrackPointExtension>
            <ns3:hr>110</ns3:hr>
            <ns3:cad>0</ns3:cad>
          </ns3:TrackPointExtension>
        </extensions>
      </trkpt>
      <trkpt lat="37.76611606590449810028076171875" lon="-107.70970034413039684295654296875">
        <ele>3787.60009765625</ele>
        <time>2023-07-29T14:28:25.000Z</time>
        <extensions>
          <ns3:TrackPointExtension>
            <ns3:hr>110</ns3:hr>
            <ns3:cad>0</ns3:cad>
          </ns3:TrackPointExtension>
        </extensions>
      </trkpt>
      <trkpt lat="37.76611740700900554656982421875" lon="-107.70970654673874378204345703125">
        <ele>3787.800048828125</ele>
        <time>2023-07-29T14:28:26.000Z</time>
        <extensions>
          <ns3:TrackPointExtension>
            <ns3:hr>110</ns3:hr>
            <ns3:cad>0</ns3:cad>
          </ns3:TrackPointExtension>
        </extensions>
      </trkpt>
      <trkpt lat="37.7661196701228618621826171875" lon="-107.709713168442249298095703125">
        <ele>3787.800048828125</ele>
        <time>2023-07-29T14:28:27.000Z</time>
        <extensions>
          <ns3:TrackPointExtension>
            <ns3:hr>110</ns3:hr>
            <ns3:cad>49</ns3:cad>
          </ns3:TrackPointExtension>
        </extensions>
      </trkpt>
      <trkpt lat="37.76612327434122562408447265625" lon="-107.70972699858248233795166015625">
        <ele>3788</ele>
        <time>2023-07-29T14:28:28.000Z</time>
        <extensions>
          <ns3:TrackPointExtension>
            <ns3:hr>111</ns3:hr>
            <ns3:cad>49</ns3:cad>
          </ns3:TrackPointExtension>
        </extensions>
      </trkpt>
      <trkpt lat="37.76612897403538227081298828125" lon="-107.709737308323383331298828125">
        <ele>3788.199951171875</ele>
        <time>2023-07-29T14:28:29.000Z</time>
        <extensions>
          <ns3:TrackPointExtension>
            <ns3:hr>110</ns3:hr>
            <ns3:cad>0</ns3:cad>
          </ns3:TrackPointExtension>
        </extensions>
      </trkpt>
      <trkpt lat="37.76613794267177581787109375" lon="-107.70975030027329921722412109375">
        <ele>3788.199951171875</ele>
        <time>2023-07-29T14:28:30.000Z</time>
        <extensions>
          <ns3:TrackPointExtension>
            <ns3:hr>110</ns3:hr>
            <ns3:cad>0</ns3:cad>
          </ns3:TrackPointExtension>
        </extensions>
      </trkpt>
      <trkpt lat="37.76614330708980560302734375" lon="-107.7097582630813121795654296875">
        <ele>3788.39990234375</ele>
        <time>2023-07-29T14:28:31.000Z</time>
        <extensions>
          <ns3:TrackPointExtension>
            <ns3:hr>109</ns3:hr>
            <ns3:cad>0</ns3:cad>
          </ns3:TrackPointExtension>
        </extensions>
      </trkpt>
      <trkpt lat="37.7661461569368839263916015625" lon="-107.70976052619516849517822265625">
        <ele>3788.60009765625</ele>
        <time>2023-07-29T14:28:32.000Z</time>
        <extensions>
          <ns3:TrackPointExtension>
            <ns3:hr>109</ns3:hr>
            <ns3:cad>0</ns3:cad>
          </ns3:TrackPointExtension>
        </extensions>
      </trkpt>
      <trkpt lat="37.76615395210683345794677734375" lon="-107.7097659744322299957275390625">
        <ele>3788.60009765625</ele>
        <time>2023-07-29T14:28:33.000Z</time>
        <extensions>
          <ns3:TrackPointExtension>
            <ns3:hr>109</ns3:hr>
            <ns3:cad>0</ns3:cad>
          </ns3:TrackPointExtension>
        </extensions>
      </trkpt>
      <trkpt lat="37.76616233401000499725341796875" lon="-107.70977125503122806549072265625">
        <ele>3788.800048828125</ele>
        <time>2023-07-29T14:28:34.000Z</time>
        <extensions>
          <ns3:TrackPointExtension>
            <ns3:hr>110</ns3:hr>
            <ns3:cad>0</ns3:cad>
          </ns3:TrackPointExtension>
        </extensions>
      </trkpt>
      <trkpt lat="37.76616551913321018218994140625" lon="-107.70977142266929149627685546875">
        <ele>3789</ele>
        <time>2023-07-29T14:28:35.000Z</time>
        <extensions>
          <ns3:TrackPointExtension>
            <ns3:hr>110</ns3:hr>
            <ns3:cad>0</ns3:cad>
          </ns3:TrackPointExtension>
        </extensions>
      </trkpt>
      <trkpt lat="37.7661699615418910980224609375" lon="-107.70977276377379894256591796875">
        <ele>3789</ele>
        <time>2023-07-29T14:28:36.000Z</time>
        <extensions>
          <ns3:TrackPointExtension>
            <ns3:hr>111</ns3:hr>
            <ns3:cad>0</ns3:cad>
          </ns3:TrackPointExtension>
        </extensions>
      </trkpt>
      <trkpt lat="37.76617473922669887542724609375" lon="-107.7097730152308940887451171875">
        <ele>3789.199951171875</ele>
        <time>2023-07-29T14:28:37.000Z</time>
        <extensions>
          <ns3:TrackPointExtension>
            <ns3:hr>112</ns3:hr>
            <ns3:cad>0</ns3:cad>
          </ns3:TrackPointExtension>
        </extensions>
      </trkpt>
      <trkpt lat="37.76618354022502899169921875" lon="-107.7097718417644500732421875">
        <ele>3789.39990234375</ele>
        <time>2023-07-29T14:28:38.000Z</time>
        <extensions>
          <ns3:TrackPointExtension>
            <ns3:hr>113</ns3:hr>
            <ns3:cad>0</ns3:cad>
          </ns3:TrackPointExtension>
        </extensions>
      </trkpt>
      <trkpt lat="37.76618354022502899169921875" lon="-107.70976941101253032684326171875">
        <ele>3789.60009765625</ele>
        <time>2023-07-29T14:28:39.000Z</time>
        <extensions>
          <ns3:TrackPointExtension>
            <ns3:hr>113</ns3:hr>
            <ns3:cad>0</ns3:cad>
          </ns3:TrackPointExtension>
        </extensions>
      </trkpt>
      <trkpt lat="37.7661830373108386993408203125" lon="-107.70976714789867401123046875">
        <ele>3789.800048828125</ele>
        <time>2023-07-29T14:28:40.000Z</time>
        <extensions>
          <ns3:TrackPointExtension>
            <ns3:hr>113</ns3:hr>
            <ns3:cad>0</ns3:cad>
          </ns3:TrackPointExtension>
        </extensions>
      </trkpt>
      <trkpt lat="37.7661837078630924224853515625" lon="-107.7097639627754688262939453125">
        <ele>3790</ele>
        <time>2023-07-29T14:28:41.000Z</time>
        <extensions>
          <ns3:TrackPointExtension>
            <ns3:hr>113</ns3:hr>
            <ns3:cad>0</ns3:cad>
          </ns3:TrackPointExtension>
        </extensions>
      </trkpt>
      <trkpt lat="37.7661855518817901611328125" lon="-107.70975918509066104888916015625">
        <ele>3790</ele>
        <time>2023-07-29T14:28:42.000Z</time>
        <extensions>
          <ns3:TrackPointExtension>
            <ns3:hr>113</ns3:hr>
            <ns3:cad>0</ns3:cad>
          </ns3:TrackPointExtension>
        </extensions>
      </trkpt>
      <trkpt lat="37.766185887157917022705078125" lon="-107.709760107100009918212890625">
        <ele>3790</ele>
        <time>2023-07-29T14:28:43.000Z</time>
        <extensions>
          <ns3:TrackPointExtension>
            <ns3:hr>112</ns3:hr>
            <ns3:cad>0</ns3:cad>
          </ns3:TrackPointExtension>
        </extensions>
      </trkpt>
      <trkpt lat="37.7661894075572490692138671875" lon="-107.70976438187062740325927734375">
        <ele>3790</ele>
        <time>2023-07-29T14:28:44.000Z</time>
        <extensions>
          <ns3:TrackPointExtension>
            <ns3:hr>112</ns3:hr>
            <ns3:cad>0</ns3:cad>
          </ns3:TrackPointExtension>
        </extensions>
      </trkpt>
      <trkpt lat="37.76619418524205684661865234375" lon="-107.70976178348064422607421875">
        <ele>3790</ele>
        <time>2023-07-29T14:28:45.000Z</time>
        <extensions>
          <ns3:TrackPointExtension>
            <ns3:hr>112</ns3:hr>
            <ns3:cad>0</ns3:cad>
          </ns3:TrackPointExtension>
        </extensions>
      </trkpt>
      <trkpt lat="37.766201309859752655029296875" lon="-107.70976002328097820281982421875">
        <ele>3790.199951171875</ele>
        <time>2023-07-29T14:28:46.000Z</time>
        <extensions>
          <ns3:TrackPointExtension>
            <ns3:hr>111</ns3:hr>
            <ns3:cad>0</ns3:cad>
          </ns3:TrackPointExtension>
        </extensions>
      </trkpt>
      <trkpt lat="37.76620633900165557861328125" lon="-107.70976136438548564910888671875">
        <ele>3790.199951171875</ele>
        <time>2023-07-29T14:28:47.000Z</time>
        <extensions>
          <ns3:TrackPointExtension>
            <ns3:hr>111</ns3:hr>
            <ns3:cad>0</ns3:cad>
          </ns3:TrackPointExtension>
        </extensions>
      </trkpt>
      <trkpt lat="37.7662135474383831024169921875" lon="-107.7097569219768047332763671875">
        <ele>3790.39990234375</ele>
        <time>2023-07-29T14:28:48.000Z</time>
        <extensions>
          <ns3:TrackPointExtension>
            <ns3:hr>111</ns3:hr>
            <ns3:cad>0</ns3:cad>
          </ns3:TrackPointExtension>
        </extensions>
      </trkpt>
      <trkpt lat="37.7662179060280323028564453125" lon="-107.7097532339394092559814453125">
        <ele>3790.60009765625</ele>
        <time>2023-07-29T14:28:49.000Z</time>
        <extensions>
          <ns3:TrackPointExtension>
            <ns3:hr>111</ns3:hr>
            <ns3:cad>0</ns3:cad>
          </ns3:TrackPointExtension>
        </extensions>
      </trkpt>
      <trkpt lat="37.7662236057221889495849609375" lon="-107.70974929444491863250732421875">
        <ele>3790.60009765625</ele>
        <time>2023-07-29T14:28:50.000Z</time>
        <extensions>
          <ns3:TrackPointExtension>
            <ns3:hr>111</ns3:hr>
            <ns3:cad>0</ns3:cad>
          </ns3:TrackPointExtension>
        </extensions>
      </trkpt>
      <trkpt lat="37.7662289701402187347412109375" lon="-107.70975097082555294036865234375">
        <ele>3790.60009765625</ele>
        <time>2023-07-29T14:28:51.000Z</time>
        <extensions>
          <ns3:TrackPointExtension>
            <ns3:hr>111</ns3:hr>
            <ns3:cad>0</ns3:cad>
          </ns3:TrackPointExtension>
        </extensions>
      </trkpt>
      <trkpt lat="37.76623190380632877349853515625" lon="-107.709744684398174285888671875">
        <ele>3790.800048828125</ele>
        <time>2023-07-29T14:28:52.000Z</time>
        <extensions>
          <ns3:TrackPointExtension>
            <ns3:hr>110</ns3:hr>
            <ns3:cad>0</ns3:cad>
          </ns3:TrackPointExtension>
        </extensions>
      </trkpt>
      <trkpt lat="37.76623659767210483551025390625" lon="-107.70974074490368366241455078125">
        <ele>3790.800048828125</ele>
        <time>2023-07-29T14:28:53.000Z</time>
        <extensions>
          <ns3:TrackPointExtension>
            <ns3:hr>110</ns3:hr>
            <ns3:cad>0</ns3:cad>
          </ns3:TrackPointExtension>
        </extensions>
      </trkpt>
      <trkpt lat="37.76623827405273914337158203125" lon="-107.70973655395209789276123046875">
        <ele>3790.800048828125</ele>
        <time>2023-07-29T14:28:54.000Z</time>
        <extensions>
          <ns3:TrackPointExtension>
            <ns3:hr>110</ns3:hr>
            <ns3:cad>0</ns3:cad>
          </ns3:TrackPointExtension>
        </extensions>
      </trkpt>
      <trkpt lat="37.76623047888278961181640625" lon="-107.70974141545593738555908203125">
        <ele>3791</ele>
        <time>2023-07-29T14:28:55.000Z</time>
        <extensions>
          <ns3:TrackPointExtension>
            <ns3:hr>110</ns3:hr>
            <ns3:cad>0</ns3:cad>
          </ns3:TrackPointExtension>
        </extensions>
      </trkpt>
      <trkpt lat="37.76622888632118701934814453125" lon="-107.7097441814839839935302734375">
        <ele>3791.199951171875</ele>
        <time>2023-07-29T14:28:56.000Z</time>
        <extensions>
          <ns3:TrackPointExtension>
            <ns3:hr>110</ns3:hr>
            <ns3:cad>0</ns3:cad>
          </ns3:TrackPointExtension>
        </extensions>
      </trkpt>
      <trkpt lat="37.7662232704460620880126953125" lon="-107.709748037159442901611328125">
        <ele>3791.199951171875</ele>
        <time>2023-07-29T14:28:57.000Z</time>
        <extensions>
          <ns3:TrackPointExtension>
            <ns3:hr>110</ns3:hr>
            <ns3:cad>0</ns3:cad>
          </ns3:TrackPointExtension>
        </extensions>
      </trkpt>
      <trkpt lat="37.76622838340699672698974609375" lon="-107.70974778570234775543212890625">
        <ele>3791.199951171875</ele>
        <time>2023-07-29T14:28:58.000Z</time>
        <extensions>
          <ns3:TrackPointExtension>
            <ns3:hr>110</ns3:hr>
            <ns3:cad>0</ns3:cad>
          </ns3:TrackPointExtension>
        </extensions>
      </trkpt>
      <trkpt lat="37.76623609475791454315185546875" lon="-107.709748707711696624755859375">
        <ele>3791.199951171875</ele>
        <time>2023-07-29T14:28:59.000Z</time>
        <extensions>
          <ns3:TrackPointExtension>
            <ns3:hr>110</ns3:hr>
            <ns3:cad>0</ns3:cad>
          </ns3:TrackPointExtension>
        </extensions>
      </trkpt>
      <trkpt lat="37.76623760350048542022705078125" lon="-107.709754072129726409912109375">
        <ele>3791.199951171875</ele>
        <time>2023-07-29T14:29:00.000Z</time>
        <extensions>
          <ns3:TrackPointExtension>
            <ns3:hr>110</ns3:hr>
            <ns3:cad>0</ns3:cad>
          </ns3:TrackPointExtension>
        </extensions>
      </trkpt>
      <trkpt lat="37.76623852550983428955078125" lon="-107.7097611129283905029296875">
        <ele>3791.39990234375</ele>
        <time>2023-07-29T14:29:01.000Z</time>
        <extensions>
          <ns3:TrackPointExtension>
            <ns3:hr>110</ns3:hr>
            <ns3:cad>0</ns3:cad>
          </ns3:TrackPointExtension>
        </extensions>
      </trkpt>
      <trkpt lat="37.76624212972819805145263671875" lon="-107.709763459861278533935546875">
        <ele>3791.39990234375</ele>
        <time>2023-07-29T14:29:02.000Z</time>
        <extensions>
          <ns3:TrackPointExtension>
            <ns3:hr>110</ns3:hr>
            <ns3:cad>0</ns3:cad>
          </ns3:TrackPointExtension>
        </extensions>
      </trkpt>
      <trkpt lat="37.76624263264238834381103515625" lon="-107.7097649686038494110107421875">
        <ele>3791.60009765625</ele>
        <time>2023-07-29T14:29:03.000Z</time>
        <extensions>
          <ns3:TrackPointExtension>
            <ns3:hr>110</ns3:hr>
            <ns3:cad>0</ns3:cad>
          </ns3:TrackPointExtension>
        </extensions>
      </trkpt>
      <trkpt lat="37.766248919069766998291015625" lon="-107.70976857282221317291259765625">
        <ele>3791.60009765625</ele>
        <time>2023-07-29T14:29:04.000Z</time>
        <extensions>
          <ns3:TrackPointExtension>
            <ns3:hr>110</ns3:hr>
            <ns3:cad>0</ns3:cad>
          </ns3:TrackPointExtension>
        </extensions>
      </trkpt>
      <trkpt lat="37.76625537313520908355712890625" lon="-107.70976505242288112640380859375">
        <ele>3791.800048828125</ele>
        <time>2023-07-29T14:29:05.000Z</time>
        <extensions>
          <ns3:TrackPointExtension>
            <ns3:hr>109</ns3:hr>
            <ns3:cad>0</ns3:cad>
          </ns3:TrackPointExtension>
        </extensions>
      </trkpt>
      <trkpt lat="37.7662641741335391998291015625" lon="-107.70976857282221317291259765625">
        <ele>3791.800048828125</ele>
        <time>2023-07-29T14:29:06.000Z</time>
        <extensions>
          <ns3:TrackPointExtension>
            <ns3:hr>109</ns3:hr>
            <ns3:cad>0</ns3:cad>
          </ns3:TrackPointExtension>
        </extensions>
      </trkpt>
      <trkpt lat="37.766271717846393585205078125" lon="-107.70977251231670379638671875">
        <ele>3792</ele>
        <time>2023-07-29T14:29:07.000Z</time>
        <extensions>
          <ns3:TrackPointExtension>
            <ns3:hr>109</ns3:hr>
            <ns3:cad>0</ns3:cad>
          </ns3:TrackPointExtension>
        </extensions>
      </trkpt>
      <trkpt lat="37.7662816084921360015869140625" lon="-107.709773518145084381103515625">
        <ele>3792</ele>
        <time>2023-07-29T14:29:08.000Z</time>
        <extensions>
          <ns3:TrackPointExtension>
            <ns3:hr>108</ns3:hr>
            <ns3:cad>0</ns3:cad>
          </ns3:TrackPointExtension>
        </extensions>
      </trkpt>
      <trkpt lat="37.76628873310983180999755859375" lon="-107.7097736857831478118896484375">
        <ele>3792</ele>
        <time>2023-07-29T14:29:09.000Z</time>
        <extensions>
          <ns3:TrackPointExtension>
            <ns3:hr>108</ns3:hr>
            <ns3:cad>0</ns3:cad>
          </ns3:TrackPointExtension>
        </extensions>
      </trkpt>
      <trkpt lat="37.76629946194589138031005859375" lon="-107.709776870906352996826171875">
        <ele>3792</ele>
        <time>2023-07-29T14:29:10.000Z</time>
        <extensions>
          <ns3:TrackPointExtension>
            <ns3:hr>108</ns3:hr>
            <ns3:cad>0</ns3:cad>
          </ns3:TrackPointExtension>
        </extensions>
      </trkpt>
      <trkpt lat="37.7663062512874603271484375" lon="-107.709775865077972412109375">
        <ele>3792</ele>
        <time>2023-07-29T14:29:11.000Z</time>
        <extensions>
          <ns3:TrackPointExtension>
            <ns3:hr>108</ns3:hr>
            <ns3:cad>0</ns3:cad>
          </ns3:TrackPointExtension>
        </extensions>
      </trkpt>
      <trkpt lat="37.76631052605807781219482421875" lon="-107.7097763679921627044677734375">
        <ele>3792.199951171875</ele>
        <time>2023-07-29T14:29:12.000Z</time>
        <extensions>
          <ns3:TrackPointExtension>
            <ns3:hr>108</ns3:hr>
            <ns3:cad>0</ns3:cad>
          </ns3:TrackPointExtension>
        </extensions>
      </trkpt>
      <trkpt lat="37.76631974615156650543212890625" lon="-107.709780223667621612548828125">
        <ele>3792.39990234375</ele>
        <time>2023-07-29T14:29:13.000Z</time>
        <extensions>
          <ns3:TrackPointExtension>
            <ns3:hr>108</ns3:hr>
            <ns3:cad>0</ns3:cad>
          </ns3:TrackPointExtension>
        </extensions>
      </trkpt>
      <trkpt lat="37.76632796041667461395263671875" lon="-107.7097857557237148284912109375">
        <ele>3792.39990234375</ele>
        <time>2023-07-29T14:29:14.000Z</time>
        <extensions>
          <ns3:TrackPointExtension>
            <ns3:hr>107</ns3:hr>
            <ns3:cad>45</ns3:cad>
          </ns3:TrackPointExtension>
        </extensions>
      </trkpt>
      <trkpt lat="37.7663342468440532684326171875" lon="-107.7097894437611103057861328125">
        <ele>3792.60009765625</ele>
        <time>2023-07-29T14:29:15.000Z</time>
        <extensions>
          <ns3:TrackPointExtension>
            <ns3:hr>107</ns3:hr>
            <ns3:cad>45</ns3:cad>
          </ns3:TrackPointExtension>
        </extensions>
      </trkpt>
      <trkpt lat="37.7663399465382099151611328125" lon="-107.70978952758014202117919921875">
        <ele>3792.60009765625</ele>
        <time>2023-07-29T14:29:16.000Z</time>
        <extensions>
          <ns3:TrackPointExtension>
            <ns3:hr>105</ns3:hr>
            <ns3:cad>45</ns3:cad>
          </ns3:TrackPointExtension>
        </extensions>
      </trkpt>
      <trkpt lat="37.76634715497493743896484375" lon="-107.7097911201417446136474609375">
        <ele>3792.60009765625</ele>
        <time>2023-07-29T14:29:17.000Z</time>
        <extensions>
          <ns3:TrackPointExtension>
            <ns3:hr>104</ns3:hr>
            <ns3:cad>45</ns3:cad>
          </ns3:TrackPointExtension>
        </extensions>
      </trkpt>
      <trkpt lat="37.76635226793587207794189453125" lon="-107.70978768356144428253173828125">
        <ele>3793</ele>
        <time>2023-07-29T14:29:18.000Z</time>
        <extensions>
          <ns3:TrackPointExtension>
            <ns3:hr>103</ns3:hr>
            <ns3:cad>45</ns3:cad>
          </ns3:TrackPointExtension>
        </extensions>
      </trkpt>
      <trkpt lat="37.76635788381099700927734375" lon="-107.70977921783924102783203125">
        <ele>3793</ele>
        <time>2023-07-29T14:29:19.000Z</time>
        <extensions>
          <ns3:TrackPointExtension>
            <ns3:hr>102</ns3:hr>
            <ns3:cad>45</ns3:cad>
          </ns3:TrackPointExtension>
        </extensions>
      </trkpt>
      <trkpt lat="37.76636685244739055633544921875" lon="-107.7097793854773044586181640625">
        <ele>3793.199951171875</ele>
        <time>2023-07-29T14:29:20.000Z</time>
        <extensions>
          <ns3:TrackPointExtension>
            <ns3:hr>102</ns3:hr>
            <ns3:cad>0</ns3:cad>
          </ns3:TrackPointExtension>
        </extensions>
      </trkpt>
      <trkpt lat="37.7663687802851200103759765625" lon="-107.7097810618579387664794921875">
        <ele>3793.39990234375</ele>
        <time>2023-07-29T14:29:21.000Z</time>
        <extensions>
          <ns3:TrackPointExtension>
            <ns3:hr>103</ns3:hr>
            <ns3:cad>0</ns3:cad>
          </ns3:TrackPointExtension>
        </extensions>
      </trkpt>
      <trkpt lat="37.76637104339897632598876953125" lon="-107.70978500135242938995361328125">
        <ele>3793.39990234375</ele>
        <time>2023-07-29T14:29:22.000Z</time>
        <extensions>
          <ns3:TrackPointExtension>
            <ns3:hr>103</ns3:hr>
            <ns3:cad>0</ns3:cad>
          </ns3:TrackPointExtension>
        </extensions>
      </trkpt>
      <trkpt lat="37.76636936701834201812744140625" lon="-107.70978718064725399017333984375">
        <ele>3793.39990234375</ele>
        <time>2023-07-29T14:29:23.000Z</time>
        <extensions>
          <ns3:TrackPointExtension>
            <ns3:hr>103</ns3:hr>
            <ns3:cad>0</ns3:cad>
          </ns3:TrackPointExtension>
        </extensions>
      </trkpt>
      <trkpt lat="37.766374312341213226318359375" lon="-107.7097891084849834442138671875">
        <ele>3793.60009765625</ele>
        <time>2023-07-29T14:29:24.000Z</time>
        <extensions>
          <ns3:TrackPointExtension>
            <ns3:hr>104</ns3:hr>
            <ns3:cad>0</ns3:cad>
          </ns3:TrackPointExtension>
        </extensions>
      </trkpt>
      <trkpt lat="37.7663811855018138885498046875" lon="-107.70979187451303005218505859375">
        <ele>3793.60009765625</ele>
        <time>2023-07-29T14:29:25.000Z</time>
        <extensions>
          <ns3:TrackPointExtension>
            <ns3:hr>104</ns3:hr>
            <ns3:cad>0</ns3:cad>
          </ns3:TrackPointExtension>
        </extensions>
      </trkpt>
      <trkpt lat="37.76638780720531940460205078125" lon="-107.7097932994365692138671875">
        <ele>3793.800048828125</ele>
        <time>2023-07-29T14:29:26.000Z</time>
        <extensions>
          <ns3:TrackPointExtension>
            <ns3:hr>104</ns3:hr>
            <ns3:cad>0</ns3:cad>
          </ns3:TrackPointExtension>
        </extensions>
      </trkpt>
      <trkpt lat="37.7663996256887912750244140625" lon="-107.7097944729030132293701171875">
        <ele>3793.800048828125</ele>
        <time>2023-07-29T14:29:27.000Z</time>
        <extensions>
          <ns3:TrackPointExtension>
            <ns3:hr>104</ns3:hr>
            <ns3:cad>0</ns3:cad>
          </ns3:TrackPointExtension>
        </extensions>
      </trkpt>
      <trkpt lat="37.76640884578227996826171875" lon="-107.709792293608188629150390625">
        <ele>3793.800048828125</ele>
        <time>2023-07-29T14:29:28.000Z</time>
        <extensions>
          <ns3:TrackPointExtension>
            <ns3:hr>104</ns3:hr>
            <ns3:cad>0</ns3:cad>
          </ns3:TrackPointExtension>
        </extensions>
      </trkpt>
      <trkpt lat="37.76641697622835636138916015625" lon="-107.7097894437611103057861328125">
        <ele>3794</ele>
        <time>2023-07-29T14:29:29.000Z</time>
        <extensions>
          <ns3:TrackPointExtension>
            <ns3:hr>104</ns3:hr>
            <ns3:cad>0</ns3:cad>
          </ns3:TrackPointExtension>
        </extensions>
      </trkpt>
      <trkpt lat="37.76642167009413242340087890625" lon="-107.7097854204475879669189453125">
        <ele>3794</ele>
        <time>2023-07-29T14:29:30.000Z</time>
        <extensions>
          <ns3:TrackPointExtension>
            <ns3:hr>104</ns3:hr>
            <ns3:cad>0</ns3:cad>
          </ns3:TrackPointExtension>
        </extensions>
      </trkpt>
      <trkpt lat="37.7664237655699253082275390625" lon="-107.70977997221052646636962890625">
        <ele>3794.199951171875</ele>
        <time>2023-07-29T14:29:31.000Z</time>
        <extensions>
          <ns3:TrackPointExtension>
            <ns3:hr>103</ns3:hr>
            <ns3:cad>0</ns3:cad>
          </ns3:TrackPointExtension>
        </extensions>
      </trkpt>
      <trkpt lat="37.76642451994121074676513671875" lon="-107.70977385342121124267578125">
        <ele>3794.39990234375</ele>
        <time>2023-07-29T14:29:32.000Z</time>
        <extensions>
          <ns3:TrackPointExtension>
            <ns3:hr>103</ns3:hr>
            <ns3:cad>0</ns3:cad>
          </ns3:TrackPointExtension>
        </extensions>
      </trkpt>
      <trkpt lat="37.76643021963536739349365234375" lon="-107.7097679860889911651611328125">
        <ele>3794.39990234375</ele>
        <time>2023-07-29T14:29:33.000Z</time>
        <extensions>
          <ns3:TrackPointExtension>
            <ns3:hr>103</ns3:hr>
            <ns3:cad>0</ns3:cad>
          </ns3:TrackPointExtension>
        </extensions>
      </trkpt>
      <trkpt lat="37.76642971672117710113525390625" lon="-107.70976639352738857269287109375">
        <ele>3794.39990234375</ele>
        <time>2023-07-29T14:29:34.000Z</time>
        <extensions>
          <ns3:TrackPointExtension>
            <ns3:hr>103</ns3:hr>
            <ns3:cad>0</ns3:cad>
          </ns3:TrackPointExtension>
        </extensions>
      </trkpt>
      <trkpt lat="37.76642871089279651641845703125" lon="-107.709765471518039703369140625">
        <ele>3794.39990234375</ele>
        <time>2023-07-29T14:29:35.000Z</time>
        <extensions>
          <ns3:TrackPointExtension>
            <ns3:hr>104</ns3:hr>
            <ns3:cad>0</ns3:cad>
          </ns3:TrackPointExtension>
        </extensions>
      </trkpt>
      <trkpt lat="37.76642368175089359283447265625" lon="-107.7097720094025135040283203125">
        <ele>3794.60009765625</ele>
        <time>2023-07-29T14:29:36.000Z</time>
        <extensions>
          <ns3:TrackPointExtension>
            <ns3:hr>104</ns3:hr>
            <ns3:cad>0</ns3:cad>
          </ns3:TrackPointExtension>
        </extensions>
      </trkpt>
      <trkpt lat="37.766416557133197784423828125" lon="-107.70978567190468311309814453125">
        <ele>3794.60009765625</ele>
        <time>2023-07-29T14:29:37.000Z</time>
        <extensions>
          <ns3:TrackPointExtension>
            <ns3:hr>104</ns3:hr>
            <ns3:cad>0</ns3:cad>
          </ns3:TrackPointExtension>
        </extensions>
      </trkpt>
      <trkpt lat="37.766408510506153106689453125" lon="-107.70979304797947406768798828125">
        <ele>3794.60009765625</ele>
        <time>2023-07-29T14:29:38.000Z</time>
        <extensions>
          <ns3:TrackPointExtension>
            <ns3:hr>104</ns3:hr>
            <ns3:cad>0</ns3:cad>
          </ns3:TrackPointExtension>
        </extensions>
      </trkpt>
      <trkpt lat="37.766411863267421722412109375" lon="-107.70979321561753749847412109375">
        <ele>3794.60009765625</ele>
        <time>2023-07-29T14:29:39.000Z</time>
        <extensions>
          <ns3:TrackPointExtension>
            <ns3:hr>103</ns3:hr>
            <ns3:cad>0</ns3:cad>
          </ns3:TrackPointExtension>
        </extensions>
      </trkpt>
      <trkpt lat="37.76641747914254665374755859375" lon="-107.7097981609404087066650390625">
        <ele>3794.60009765625</ele>
        <time>2023-07-29T14:29:40.000Z</time>
        <extensions>
          <ns3:TrackPointExtension>
            <ns3:hr>103</ns3:hr>
            <ns3:cad>0</ns3:cad>
          </ns3:TrackPointExtension>
        </extensions>
      </trkpt>
      <trkpt lat="37.7664217539131641387939453125" lon="-107.7098021842539310455322265625">
        <ele>3794.60009765625</ele>
        <time>2023-07-29T14:29:41.000Z</time>
        <extensions>
          <ns3:TrackPointExtension>
            <ns3:hr>103</ns3:hr>
            <ns3:cad>0</ns3:cad>
          </ns3:TrackPointExtension>
        </extensions>
      </trkpt>
      <trkpt lat="37.76642653159797191619873046875" lon="-107.70981081761419773101806640625">
        <ele>3794.60009765625</ele>
        <time>2023-07-29T14:29:42.000Z</time>
        <extensions>
          <ns3:TrackPointExtension>
            <ns3:hr>103</ns3:hr>
            <ns3:cad>0</ns3:cad>
          </ns3:TrackPointExtension>
        </extensions>
      </trkpt>
      <trkpt lat="37.76643239893019199371337890625" lon="-107.70981349982321262359619140625">
        <ele>3794.60009765625</ele>
        <time>2023-07-29T14:29:43.000Z</time>
        <extensions>
          <ns3:TrackPointExtension>
            <ns3:hr>103</ns3:hr>
            <ns3:cad>57</ns3:cad>
          </ns3:TrackPointExtension>
        </extensions>
      </trkpt>
      <trkpt lat="37.76644078083336353302001953125" lon="-107.70981567911803722381591796875">
        <ele>3794.60009765625</ele>
        <time>2023-07-29T14:29:44.000Z</time>
        <extensions>
          <ns3:TrackPointExtension>
            <ns3:hr>103</ns3:hr>
            <ns3:cad>57</ns3:cad>
          </ns3:TrackPointExtension>
        </extensions>
      </trkpt>
      <trkpt lat="37.76644916273653507232666015625" lon="-107.7098212949931621551513671875">
        <ele>3794.60009765625</ele>
        <time>2023-07-29T14:29:45.000Z</time>
        <extensions>
          <ns3:TrackPointExtension>
            <ns3:hr>104</ns3:hr>
            <ns3:cad>57</ns3:cad>
          </ns3:TrackPointExtension>
        </extensions>
      </trkpt>
      <trkpt lat="37.76646324433386325836181640625" lon="-107.709821127355098724365234375">
        <ele>3794.800048828125</ele>
        <time>2023-07-29T14:29:46.000Z</time>
        <extensions>
          <ns3:TrackPointExtension>
            <ns3:hr>104</ns3:hr>
            <ns3:cad>57</ns3:cad>
          </ns3:TrackPointExtension>
        </extensions>
      </trkpt>
      <trkpt lat="37.76647481136023998260498046875" lon="-107.70982121117413043975830078125">
        <ele>3794.800048828125</ele>
        <time>2023-07-29T14:29:47.000Z</time>
        <extensions>
          <ns3:TrackPointExtension>
            <ns3:hr>104</ns3:hr>
            <ns3:cad>57</ns3:cad>
          </ns3:TrackPointExtension>
        </extensions>
      </trkpt>
      <trkpt lat="37.76647858321666717529296875" lon="-107.70982188172638416290283203125">
        <ele>3794.800048828125</ele>
        <time>2023-07-29T14:29:48.000Z</time>
        <extensions>
          <ns3:TrackPointExtension>
            <ns3:hr>104</ns3:hr>
            <ns3:cad>57</ns3:cad>
          </ns3:TrackPointExtension>
        </extensions>
      </trkpt>
      <trkpt lat="37.76648386381566524505615234375" lon="-107.7098219655454158782958984375">
        <ele>3794.800048828125</ele>
        <time>2023-07-29T14:29:49.000Z</time>
        <extensions>
          <ns3:TrackPointExtension>
            <ns3:hr>104</ns3:hr>
            <ns3:cad>43</ns3:cad>
          </ns3:TrackPointExtension>
        </extensions>
      </trkpt>
      <trkpt lat="37.7664861269295215606689453125" lon="-107.709822468459606170654296875">
        <ele>3794.800048828125</ele>
        <time>2023-07-29T14:29:50.000Z</time>
        <extensions>
          <ns3:TrackPointExtension>
            <ns3:hr>104</ns3:hr>
            <ns3:cad>43</ns3:cad>
          </ns3:TrackPointExtension>
        </extensions>
      </trkpt>
      <trkpt lat="37.766491658985614776611328125" lon="-107.709824144840240478515625">
        <ele>3795.199951171875</ele>
        <time>2023-07-29T14:29:51.000Z</time>
        <extensions>
          <ns3:TrackPointExtension>
            <ns3:hr>104</ns3:hr>
            <ns3:cad>43</ns3:cad>
          </ns3:TrackPointExtension>
        </extensions>
      </trkpt>
      <trkpt lat="37.76649995706975460052490234375" lon="-107.70982615649700164794921875">
        <ele>3795.199951171875</ele>
        <time>2023-07-29T14:29:52.000Z</time>
        <extensions>
          <ns3:TrackPointExtension>
            <ns3:hr>104</ns3:hr>
            <ns3:cad>0</ns3:cad>
          </ns3:TrackPointExtension>
        </extensions>
      </trkpt>
      <trkpt lat="37.76651613414287567138671875" lon="-107.7098276652395725250244140625">
        <ele>3795.199951171875</ele>
        <time>2023-07-29T14:29:53.000Z</time>
        <extensions>
          <ns3:TrackPointExtension>
            <ns3:hr>104</ns3:hr>
            <ns3:cad>0</ns3:cad>
          </ns3:TrackPointExtension>
        </extensions>
      </trkpt>
      <trkpt lat="37.7665209956467151641845703125" lon="-107.70982741378247737884521484375">
        <ele>3795.199951171875</ele>
        <time>2023-07-29T14:29:54.000Z</time>
        <extensions>
          <ns3:TrackPointExtension>
            <ns3:hr>105</ns3:hr>
            <ns3:cad>0</ns3:cad>
          </ns3:TrackPointExtension>
        </extensions>
      </trkpt>
      <trkpt lat="37.7665283717215061187744140625" lon="-107.709827832877635955810546875">
        <ele>3795.39990234375</ele>
        <time>2023-07-29T14:29:55.000Z</time>
        <extensions>
          <ns3:TrackPointExtension>
            <ns3:hr>106</ns3:hr>
            <ns3:cad>0</ns3:cad>
          </ns3:TrackPointExtension>
        </extensions>
      </trkpt>
      <trkpt lat="37.76652795262634754180908203125" lon="-107.709826491773128509521484375">
        <ele>3795.39990234375</ele>
        <time>2023-07-29T14:29:56.000Z</time>
        <extensions>
          <ns3:TrackPointExtension>
            <ns3:hr>106</ns3:hr>
            <ns3:cad>0</ns3:cad>
          </ns3:TrackPointExtension>
        </extensions>
      </trkpt>
      <trkpt lat="37.7665327303111553192138671875" lon="-107.70982556976377964019775390625">
        <ele>3795.39990234375</ele>
        <time>2023-07-29T14:29:57.000Z</time>
        <extensions>
          <ns3:TrackPointExtension>
            <ns3:hr>106</ns3:hr>
            <ns3:cad>0</ns3:cad>
          </ns3:TrackPointExtension>
        </extensions>
      </trkpt>
      <trkpt lat="37.7665337361395359039306640625" lon="-107.709824144840240478515625">
        <ele>3795.39990234375</ele>
        <time>2023-07-29T14:29:58.000Z</time>
        <extensions>
          <ns3:TrackPointExtension>
            <ns3:hr>107</ns3:hr>
            <ns3:cad>0</ns3:cad>
          </ns3:TrackPointExtension>
        </extensions>
      </trkpt>
      <trkpt lat="37.76653331704437732696533203125" lon="-107.7098223008215427398681640625">
        <ele>3795.60009765625</ele>
        <time>2023-07-29T14:29:59.000Z</time>
        <extensions>
          <ns3:TrackPointExtension>
            <ns3:hr>107</ns3:hr>
            <ns3:cad>0</ns3:cad>
          </ns3:TrackPointExtension>
        </extensions>
      </trkpt>
      <trkpt lat="37.76653348468244075775146484375" lon="-107.7098212949931621551513671875">
        <ele>3795.60009765625</ele>
        <time>2023-07-29T14:30:00.000Z</time>
        <extensions>
          <ns3:TrackPointExtension>
            <ns3:hr>107</ns3:hr>
            <ns3:cad>0</ns3:cad>
          </ns3:TrackPointExtension>
        </extensions>
      </trkpt>
      <trkpt lat="37.7665340714156627655029296875" lon="-107.70981970243155956268310546875">
        <ele>3795.800048828125</ele>
        <time>2023-07-29T14:30:01.000Z</time>
        <extensions>
          <ns3:TrackPointExtension>
            <ns3:hr>106</ns3:hr>
            <ns3:cad>0</ns3:cad>
          </ns3:TrackPointExtension>
        </extensions>
      </trkpt>
      <trkpt lat="37.7665327303111553192138671875" lon="-107.709819115698337554931640625">
        <ele>3795.800048828125</ele>
        <time>2023-07-29T14:30:02.000Z</time>
        <extensions>
          <ns3:TrackPointExtension>
            <ns3:hr>105</ns3:hr>
            <ns3:cad>0</ns3:cad>
          </ns3:TrackPointExtension>
        </extensions>
      </trkpt>
      <trkpt lat="37.76652560569345951080322265625" lon="-107.70981735549867153167724609375">
        <ele>3795.800048828125</ele>
        <time>2023-07-29T14:30:03.000Z</time>
        <extensions>
          <ns3:TrackPointExtension>
            <ns3:hr>103</ns3:hr>
            <ns3:cad>0</ns3:cad>
          </ns3:TrackPointExtension>
        </extensions>
      </trkpt>
      <trkpt lat="37.7665220014750957489013671875" lon="-107.7098129130899906158447265625">
        <ele>3795.800048828125</ele>
        <time>2023-07-29T14:30:04.000Z</time>
        <extensions>
          <ns3:TrackPointExtension>
            <ns3:hr>102</ns3:hr>
            <ns3:cad>0</ns3:cad>
          </ns3:TrackPointExtension>
        </extensions>
      </trkpt>
      <trkpt lat="37.7665149606764316558837890625" lon="-107.70980142988264560699462890625">
        <ele>3795.800048828125</ele>
        <time>2023-07-29T14:30:05.000Z</time>
        <extensions>
          <ns3:TrackPointExtension>
            <ns3:hr>100</ns3:hr>
            <ns3:cad>0</ns3:cad>
          </ns3:TrackPointExtension>
        </extensions>
      </trkpt>
      <trkpt lat="37.76651370339095592498779296875" lon="-107.7097974903881549835205078125">
        <ele>3796</ele>
        <time>2023-07-29T14:30:06.000Z</time>
        <extensions>
          <ns3:TrackPointExtension>
            <ns3:hr>99</ns3:hr>
            <ns3:cad>0</ns3:cad>
          </ns3:TrackPointExtension>
        </extensions>
      </trkpt>
      <trkpt lat="37.76651521213352680206298828125" lon="-107.70979665219783782958984375">
        <ele>3796</ele>
        <time>2023-07-29T14:30:07.000Z</time>
        <extensions>
          <ns3:TrackPointExtension>
            <ns3:hr>98</ns3:hr>
            <ns3:cad>0</ns3:cad>
          </ns3:TrackPointExtension>
        </extensions>
      </trkpt>
      <trkpt lat="37.7665169723331928253173828125" lon="-107.70980025641620159149169921875">
        <ele>3796.199951171875</ele>
        <time>2023-07-29T14:30:08.000Z</time>
        <extensions>
          <ns3:TrackPointExtension>
            <ns3:hr>98</ns3:hr>
            <ns3:cad>0</ns3:cad>
          </ns3:TrackPointExtension>
        </extensions>
      </trkpt>
      <trkpt lat="37.7665166370570659637451171875" lon="-107.70980159752070903778076171875">
        <ele>3796.199951171875</ele>
        <time>2023-07-29T14:30:09.000Z</time>
        <extensions>
          <ns3:TrackPointExtension>
            <ns3:hr>98</ns3:hr>
            <ns3:cad>0</ns3:cad>
          </ns3:TrackPointExtension>
        </extensions>
      </trkpt>
      <trkpt lat="37.7665152959525585174560546875" lon="-107.70980059169232845306396484375">
        <ele>3796.199951171875</ele>
        <time>2023-07-29T14:30:10.000Z</time>
        <extensions>
          <ns3:TrackPointExtension>
            <ns3:hr>97</ns3:hr>
            <ns3:cad>0</ns3:cad>
          </ns3:TrackPointExtension>
        </extensions>
      </trkpt>
      <trkpt lat="37.7665112726390361785888671875" lon="-107.7098005078732967376708984375">
        <ele>3796.199951171875</ele>
        <time>2023-07-29T14:30:11.000Z</time>
        <extensions>
          <ns3:TrackPointExtension>
            <ns3:hr>97</ns3:hr>
            <ns3:cad>0</ns3:cad>
          </ns3:TrackPointExtension>
        </extensions>
      </trkpt>
      <trkpt lat="37.76650649495422840118408203125" lon="-107.70979874767363071441650390625">
        <ele>3796.199951171875</ele>
        <time>2023-07-29T14:30:12.000Z</time>
        <extensions>
          <ns3:TrackPointExtension>
            <ns3:hr>96</ns3:hr>
            <ns3:cad>0</ns3:cad>
          </ns3:TrackPointExtension>
        </extensions>
      </trkpt>
      <trkpt lat="37.76649878360331058502197265625" lon="-107.70979690365493297576904296875">
        <ele>3796</ele>
        <time>2023-07-29T14:30:13.000Z</time>
        <extensions>
          <ns3:TrackPointExtension>
            <ns3:hr>95</ns3:hr>
            <ns3:cad>0</ns3:cad>
          </ns3:TrackPointExtension>
        </extensions>
      </trkpt>
      <trkpt lat="37.76649534702301025390625" lon="-107.70979958586394786834716796875">
        <ele>3796</ele>
        <time>2023-07-29T14:30:14.000Z</time>
        <extensions>
          <ns3:TrackPointExtension>
            <ns3:hr>94</ns3:hr>
            <ns3:cad>0</ns3:cad>
          </ns3:TrackPointExtension>
        </extensions>
      </trkpt>
      <trkpt lat="37.76650079526007175445556640625" lon="-107.70980210043489933013916015625">
        <ele>3796</ele>
        <time>2023-07-29T14:30:15.000Z</time>
        <extensions>
          <ns3:TrackPointExtension>
            <ns3:hr>93</ns3:hr>
            <ns3:cad>0</ns3:cad>
          </ns3:TrackPointExtension>
        </extensions>
      </trkpt>
      <trkpt lat="37.76651185937225818634033203125" lon="-107.7098192833364009857177734375">
        <ele>3796</ele>
        <time>2023-07-29T14:30:16.000Z</time>
        <extensions>
          <ns3:TrackPointExtension>
            <ns3:hr>92</ns3:hr>
            <ns3:cad>0</ns3:cad>
          </ns3:TrackPointExtension>
        </extensions>
      </trkpt>
      <trkpt lat="37.766517810523509979248046875" lon="-107.70982347428798675537109375">
        <ele>3796</ele>
        <time>2023-07-29T14:30:17.000Z</time>
        <extensions>
          <ns3:TrackPointExtension>
            <ns3:hr>91</ns3:hr>
            <ns3:cad>0</ns3:cad>
          </ns3:TrackPointExtension>
        </extensions>
      </trkpt>
      <trkpt lat="37.7665246836841106414794921875" lon="-107.70982657559216022491455078125">
        <ele>3796</ele>
        <time>2023-07-29T14:30:18.000Z</time>
        <extensions>
          <ns3:TrackPointExtension>
            <ns3:hr>91</ns3:hr>
            <ns3:cad>0</ns3:cad>
          </ns3:TrackPointExtension>
        </extensions>
      </trkpt>
      <trkpt lat="37.76653381995856761932373046875" lon="-107.70983512513339519500732421875">
        <ele>3796</ele>
        <time>2023-07-29T14:30:19.000Z</time>
        <extensions>
          <ns3:TrackPointExtension>
            <ns3:hr>91</ns3:hr>
            <ns3:cad>0</ns3:cad>
          </ns3:TrackPointExtension>
        </extensions>
      </trkpt>
      <trkpt lat="37.76654421351850032806396484375" lon="-107.70983831025660037994384765625">
        <ele>3796</ele>
        <time>2023-07-29T14:30:20.000Z</time>
        <extensions>
          <ns3:TrackPointExtension>
            <ns3:hr>91</ns3:hr>
            <ns3:cad>0</ns3:cad>
          </ns3:TrackPointExtension>
        </extensions>
      </trkpt>
      <trkpt lat="37.766556032001972198486328125" lon="-107.70984417758882045745849609375">
        <ele>3796</ele>
        <time>2023-07-29T14:30:21.000Z</time>
        <extensions>
          <ns3:TrackPointExtension>
            <ns3:hr>91</ns3:hr>
            <ns3:cad>0</ns3:cad>
          </ns3:TrackPointExtension>
        </extensions>
      </trkpt>
      <trkpt lat="37.76656919158995151519775390625" lon="-107.7098504640161991119384765625">
        <ele>3796</ele>
        <time>2023-07-29T14:30:22.000Z</time>
        <extensions>
          <ns3:TrackPointExtension>
            <ns3:hr>91</ns3:hr>
            <ns3:cad>0</ns3:cad>
          </ns3:TrackPointExtension>
        </extensions>
      </trkpt>
      <trkpt lat="37.76657287962734699249267578125" lon="-107.709850631654262542724609375">
        <ele>3796.199951171875</ele>
        <time>2023-07-29T14:30:23.000Z</time>
        <extensions>
          <ns3:TrackPointExtension>
            <ns3:hr>91</ns3:hr>
            <ns3:cad>0</ns3:cad>
          </ns3:TrackPointExtension>
        </extensions>
      </trkpt>
      <trkpt lat="37.766583524644374847412109375" lon="-107.70985524170100688934326171875">
        <ele>3796.199951171875</ele>
        <time>2023-07-29T14:30:24.000Z</time>
        <extensions>
          <ns3:TrackPointExtension>
            <ns3:hr>90</ns3:hr>
            <ns3:cad>0</ns3:cad>
          </ns3:TrackPointExtension>
        </extensions>
      </trkpt>
      <trkpt lat="37.76659349910914897918701171875" lon="-107.70986027084290981292724609375">
        <ele>3796.199951171875</ele>
        <time>2023-07-29T14:30:25.000Z</time>
        <extensions>
          <ns3:TrackPointExtension>
            <ns3:hr>90</ns3:hr>
            <ns3:cad>52</ns3:cad>
          </ns3:TrackPointExtension>
        </extensions>
      </trkpt>
      <trkpt lat="37.766606993973255157470703125" lon="-107.70986773073673248291015625">
        <ele>3796.199951171875</ele>
        <time>2023-07-29T14:30:26.000Z</time>
        <extensions>
          <ns3:TrackPointExtension>
            <ns3:hr>90</ns3:hr>
            <ns3:cad>52</ns3:cad>
          </ns3:TrackPointExtension>
        </extensions>
      </trkpt>
      <trkpt lat="37.76660867035388946533203125" lon="-107.70987284369766712188720703125">
        <ele>3796.199951171875</ele>
        <time>2023-07-29T14:30:27.000Z</time>
        <extensions>
          <ns3:TrackPointExtension>
            <ns3:hr>90</ns3:hr>
            <ns3:cad>52</ns3:cad>
          </ns3:TrackPointExtension>
        </extensions>
      </trkpt>
      <trkpt lat="37.76661814190447330474853515625" lon="-107.70988072268664836883544921875">
        <ele>3796.199951171875</ele>
        <time>2023-07-29T14:30:28.000Z</time>
        <extensions>
          <ns3:TrackPointExtension>
            <ns3:hr>90</ns3:hr>
            <ns3:cad>0</ns3:cad>
          </ns3:TrackPointExtension>
        </extensions>
      </trkpt>
      <trkpt lat="37.76662610471248626708984375" lon="-107.70989564247429370880126953125">
        <ele>3796.199951171875</ele>
        <time>2023-07-29T14:30:29.000Z</time>
        <extensions>
          <ns3:TrackPointExtension>
            <ns3:hr>89</ns3:hr>
            <ns3:cad>0</ns3:cad>
          </ns3:TrackPointExtension>
        </extensions>
      </trkpt>
      <trkpt lat="37.7666336484253406524658203125" lon="-107.709904946386814117431640625">
        <ele>3796.199951171875</ele>
        <time>2023-07-29T14:30:30.000Z</time>
        <extensions>
          <ns3:TrackPointExtension>
            <ns3:hr>90</ns3:hr>
            <ns3:cad>0</ns3:cad>
          </ns3:TrackPointExtension>
        </extensions>
      </trkpt>
      <trkpt lat="37.766645215451717376708984375" lon="-107.70991810597479343414306640625">
        <ele>3796.39990234375</ele>
        <time>2023-07-29T14:30:31.000Z</time>
        <extensions>
          <ns3:TrackPointExtension>
            <ns3:hr>90</ns3:hr>
            <ns3:cad>0</ns3:cad>
          </ns3:TrackPointExtension>
        </extensions>
      </trkpt>
      <trkpt lat="37.76664915494620800018310546875" lon="-107.7099287509918212890625">
        <ele>3796.39990234375</ele>
        <time>2023-07-29T14:30:32.000Z</time>
        <extensions>
          <ns3:TrackPointExtension>
            <ns3:hr>89</ns3:hr>
            <ns3:cad>0</ns3:cad>
          </ns3:TrackPointExtension>
        </extensions>
      </trkpt>
      <trkpt lat="37.7666534297168254852294921875" lon="-107.70994006656110286712646484375">
        <ele>3796.39990234375</ele>
        <time>2023-07-29T14:30:33.000Z</time>
        <extensions>
          <ns3:TrackPointExtension>
            <ns3:hr>89</ns3:hr>
            <ns3:cad>0</ns3:cad>
          </ns3:TrackPointExtension>
        </extensions>
      </trkpt>
      <trkpt lat="37.7666641585528850555419921875" lon="-107.70995046012103557586669921875">
        <ele>3796.39990234375</ele>
        <time>2023-07-29T14:30:34.000Z</time>
        <extensions>
          <ns3:TrackPointExtension>
            <ns3:hr>89</ns3:hr>
            <ns3:cad>0</ns3:cad>
          </ns3:TrackPointExtension>
        </extensions>
      </trkpt>
      <trkpt lat="37.76666742749512195587158203125" lon="-107.7099580876529216766357421875">
        <ele>3796.60009765625</ele>
        <time>2023-07-29T14:30:35.000Z</time>
        <extensions>
          <ns3:TrackPointExtension>
            <ns3:hr>88</ns3:hr>
            <ns3:cad>0</ns3:cad>
          </ns3:TrackPointExtension>
        </extensions>
      </trkpt>
      <trkpt lat="37.7666763961315155029296875" lon="-107.70996822975575923919677734375">
        <ele>3796.60009765625</ele>
        <time>2023-07-29T14:30:36.000Z</time>
        <extensions>
          <ns3:TrackPointExtension>
            <ns3:hr>88</ns3:hr>
            <ns3:cad>0</ns3:cad>
          </ns3:TrackPointExtension>
        </extensions>
      </trkpt>
      <trkpt lat="37.76668067090213298797607421875" lon="-107.70997409708797931671142578125">
        <ele>3796.800048828125</ele>
        <time>2023-07-29T14:30:37.000Z</time>
        <extensions>
          <ns3:TrackPointExtension>
            <ns3:hr>88</ns3:hr>
            <ns3:cad>0</ns3:cad>
          </ns3:TrackPointExtension>
        </extensions>
      </trkpt>
      <trkpt lat="37.76668653823435306549072265625" lon="-107.70998314954340457916259765625">
        <ele>3796.800048828125</ele>
        <time>2023-07-29T14:30:38.000Z</time>
        <extensions>
          <ns3:TrackPointExtension>
            <ns3:hr>87</ns3:hr>
            <ns3:cad>0</ns3:cad>
          </ns3:TrackPointExtension>
        </extensions>
      </trkpt>
      <trkpt lat="37.76669274084270000457763671875" lon="-107.70999002270400524139404296875">
        <ele>3796.800048828125</ele>
        <time>2023-07-29T14:30:39.000Z</time>
        <extensions>
          <ns3:TrackPointExtension>
            <ns3:hr>87</ns3:hr>
            <ns3:cad>0</ns3:cad>
          </ns3:TrackPointExtension>
        </extensions>
      </trkpt>
      <trkpt lat="37.76669860817492008209228515625" lon="-107.7099971473217010498046875">
        <ele>3796.800048828125</ele>
        <time>2023-07-29T14:30:40.000Z</time>
        <extensions>
          <ns3:TrackPointExtension>
            <ns3:hr>86</ns3:hr>
            <ns3:cad>0</ns3:cad>
          </ns3:TrackPointExtension>
        </extensions>
      </trkpt>
      <trkpt lat="37.76670916937291622161865234375" lon="-107.7100056968629360198974609375">
        <ele>3796.800048828125</ele>
        <time>2023-07-29T14:30:41.000Z</time>
        <extensions>
          <ns3:TrackPointExtension>
            <ns3:hr>86</ns3:hr>
            <ns3:cad>0</ns3:cad>
          </ns3:TrackPointExtension>
        </extensions>
      </trkpt>
      <trkpt lat="37.766712270677089691162109375" lon="-107.71001198329031467437744140625">
        <ele>3796.60009765625</ele>
        <time>2023-07-29T14:30:42.000Z</time>
        <extensions>
          <ns3:TrackPointExtension>
            <ns3:hr>86</ns3:hr>
            <ns3:cad>0</ns3:cad>
          </ns3:TrackPointExtension>
        </extensions>
      </trkpt>
      <trkpt lat="37.7667193114757537841796875" lon="-107.710022293031215667724609375">
        <ele>3796.60009765625</ele>
        <time>2023-07-29T14:30:43.000Z</time>
        <extensions>
          <ns3:TrackPointExtension>
            <ns3:hr>86</ns3:hr>
            <ns3:cad>0</ns3:cad>
          </ns3:TrackPointExtension>
        </extensions>
      </trkpt>
      <trkpt lat="37.7667251788079738616943359375" lon="-107.710031010210514068603515625">
        <ele>3796.60009765625</ele>
        <time>2023-07-29T14:30:44.000Z</time>
        <extensions>
          <ns3:TrackPointExtension>
            <ns3:hr>86</ns3:hr>
            <ns3:cad>0</ns3:cad>
          </ns3:TrackPointExtension>
        </extensions>
      </trkpt>
      <trkpt lat="37.7667308785021305084228515625" lon="-107.71003805100917816162109375">
        <ele>3796.60009765625</ele>
        <time>2023-07-29T14:30:45.000Z</time>
        <extensions>
          <ns3:TrackPointExtension>
            <ns3:hr>86</ns3:hr>
            <ns3:cad>0</ns3:cad>
          </ns3:TrackPointExtension>
        </extensions>
      </trkpt>
      <trkpt lat="37.76673465035855770111083984375" lon="-107.7100405655801296234130859375">
        <ele>3796.60009765625</ele>
        <time>2023-07-29T14:30:46.000Z</time>
        <extensions>
          <ns3:TrackPointExtension>
            <ns3:hr>86</ns3:hr>
            <ns3:cad>0</ns3:cad>
          </ns3:TrackPointExtension>
        </extensions>
      </trkpt>
      <trkpt lat="37.76673884131014347076416015625" lon="-107.7100425772368907928466796875">
        <ele>3796.39990234375</ele>
        <time>2023-07-29T14:30:47.000Z</time>
        <extensions>
          <ns3:TrackPointExtension>
            <ns3:hr>85</ns3:hr>
            <ns3:cad>0</ns3:cad>
          </ns3:TrackPointExtension>
        </extensions>
      </trkpt>
      <trkpt lat="37.76674387045204639434814453125" lon="-107.71005037240684032440185546875">
        <ele>3796.39990234375</ele>
        <time>2023-07-29T14:30:48.000Z</time>
        <extensions>
          <ns3:TrackPointExtension>
            <ns3:hr>84</ns3:hr>
            <ns3:cad>0</ns3:cad>
          </ns3:TrackPointExtension>
        </extensions>
      </trkpt>
      <trkpt lat="37.76675342582166194915771484375" lon="-107.710056491196155548095703125">
        <ele>3796.39990234375</ele>
        <time>2023-07-29T14:30:49.000Z</time>
        <extensions>
          <ns3:TrackPointExtension>
            <ns3:hr>84</ns3:hr>
            <ns3:cad>0</ns3:cad>
          </ns3:TrackPointExtension>
        </extensions>
      </trkpt>
      <trkpt lat="37.76676499284803867340087890625" lon="-107.71006495691835880279541015625">
        <ele>3796.39990234375</ele>
        <time>2023-07-29T14:30:50.000Z</time>
        <extensions>
          <ns3:TrackPointExtension>
            <ns3:hr>84</ns3:hr>
            <ns3:cad>0</ns3:cad>
          </ns3:TrackPointExtension>
        </extensions>
      </trkpt>
      <trkpt lat="37.76677253656089305877685546875" lon="-107.710067890584468841552734375">
        <ele>3796.39990234375</ele>
        <time>2023-07-29T14:30:51.000Z</time>
        <extensions>
          <ns3:TrackPointExtension>
            <ns3:hr>84</ns3:hr>
            <ns3:cad>0</ns3:cad>
          </ns3:TrackPointExtension>
        </extensions>
      </trkpt>
      <trkpt lat="37.7667756378650665283203125" lon="-107.71007015369832515716552734375">
        <ele>3796.39990234375</ele>
        <time>2023-07-29T14:30:52.000Z</time>
        <extensions>
          <ns3:TrackPointExtension>
            <ns3:hr>84</ns3:hr>
            <ns3:cad>17</ns3:cad>
          </ns3:TrackPointExtension>
        </extensions>
      </trkpt>
      <trkpt lat="37.76678024791181087493896484375" lon="-107.7100761048495769500732421875">
        <ele>3796.39990234375</ele>
        <time>2023-07-29T14:30:53.000Z</time>
        <extensions>
          <ns3:TrackPointExtension>
            <ns3:hr>84</ns3:hr>
            <ns3:cad>17</ns3:cad>
          </ns3:TrackPointExtension>
        </extensions>
      </trkpt>
      <trkpt lat="37.76678460650146007537841796875" lon="-107.71008004434406757354736328125">
        <ele>3796.39990234375</ele>
        <time>2023-07-29T14:30:54.000Z</time>
        <extensions>
          <ns3:TrackPointExtension>
            <ns3:hr>84</ns3:hr>
            <ns3:cad>17</ns3:cad>
          </ns3:TrackPointExtension>
        </extensions>
      </trkpt>
      <trkpt lat="37.76679416187107563018798828125" lon="-107.71008339710533618927001953125">
        <ele>3796.39990234375</ele>
        <time>2023-07-29T14:30:55.000Z</time>
        <extensions>
          <ns3:TrackPointExtension>
            <ns3:hr>84</ns3:hr>
            <ns3:cad>50</ns3:cad>
          </ns3:TrackPointExtension>
        </extensions>
      </trkpt>
      <trkpt lat="37.76680740527808666229248046875" lon="-107.7100891806185245513916015625">
        <ele>3796.39990234375</ele>
        <time>2023-07-29T14:30:56.000Z</time>
        <extensions>
          <ns3:TrackPointExtension>
            <ns3:hr>84</ns3:hr>
            <ns3:cad>50</ns3:cad>
          </ns3:TrackPointExtension>
        </extensions>
      </trkpt>
      <trkpt lat="37.76682366617023944854736328125" lon="-107.71009412594139575958251953125">
        <ele>3796.39990234375</ele>
        <time>2023-07-29T14:30:57.000Z</time>
        <extensions>
          <ns3:TrackPointExtension>
            <ns3:hr>84</ns3:hr>
            <ns3:cad>50</ns3:cad>
          </ns3:TrackPointExtension>
        </extensions>
      </trkpt>
      <trkpt lat="37.76683087460696697235107421875" lon="-107.710095383226871490478515625">
        <ele>3796.39990234375</ele>
        <time>2023-07-29T14:30:58.000Z</time>
        <extensions>
          <ns3:TrackPointExtension>
            <ns3:hr>84</ns3:hr>
            <ns3:cad>50</ns3:cad>
          </ns3:TrackPointExtension>
        </extensions>
      </trkpt>
      <trkpt lat="37.7668426930904388427734375" lon="-107.7100965566933155059814453125">
        <ele>3796.39990234375</ele>
        <time>2023-07-29T14:30:59.000Z</time>
        <extensions>
          <ns3:TrackPointExtension>
            <ns3:hr>84</ns3:hr>
            <ns3:cad>0</ns3:cad>
          </ns3:TrackPointExtension>
        </extensions>
      </trkpt>
      <trkpt lat="37.76684981770813465118408203125" lon="-107.71009831689298152923583984375">
        <ele>3796.60009765625</ele>
        <time>2023-07-29T14:31:00.000Z</time>
        <extensions>
          <ns3:TrackPointExtension>
            <ns3:hr>83</ns3:hr>
            <ns3:cad>0</ns3:cad>
          </ns3:TrackPointExtension>
        </extensions>
      </trkpt>
      <trkpt lat="37.76686004363000392913818359375" lon="-107.7100989036262035369873046875">
        <ele>3797</ele>
        <time>2023-07-29T14:31:01.000Z</time>
        <extensions>
          <ns3:TrackPointExtension>
            <ns3:hr>83</ns3:hr>
            <ns3:cad>0</ns3:cad>
          </ns3:TrackPointExtension>
        </extensions>
      </trkpt>
      <trkpt lat="37.766869850456714630126953125" lon="-107.7100978977978229522705078125">
        <ele>3797</ele>
        <time>2023-07-29T14:31:02.000Z</time>
        <extensions>
          <ns3:TrackPointExtension>
            <ns3:hr>83</ns3:hr>
            <ns3:cad>0</ns3:cad>
          </ns3:TrackPointExtension>
        </extensions>
      </trkpt>
      <trkpt lat="37.76688250713050365447998046875" lon="-107.710097730159759521484375">
        <ele>3797.199951171875</ele>
        <time>2023-07-29T14:31:03.000Z</time>
        <extensions>
          <ns3:TrackPointExtension>
            <ns3:hr>83</ns3:hr>
            <ns3:cad>0</ns3:cad>
          </ns3:TrackPointExtension>
        </extensions>
      </trkpt>
      <trkpt lat="37.76689424179494380950927734375" lon="-107.71009798161685466766357421875">
        <ele>3797.199951171875</ele>
        <time>2023-07-29T14:31:04.000Z</time>
        <extensions>
          <ns3:TrackPointExtension>
            <ns3:hr>84</ns3:hr>
            <ns3:cad>0</ns3:cad>
          </ns3:TrackPointExtension>
        </extensions>
      </trkpt>
      <trkpt lat="37.7669048868119716644287109375" lon="-107.71010083146393299102783203125">
        <ele>3797.199951171875</ele>
        <time>2023-07-29T14:31:05.000Z</time>
        <extensions>
          <ns3:TrackPointExtension>
            <ns3:hr>84</ns3:hr>
            <ns3:cad>0</ns3:cad>
          </ns3:TrackPointExtension>
        </extensions>
      </trkpt>
      <trkpt lat="37.7669132687151432037353515625" lon="-107.7101032622158527374267578125">
        <ele>3797.39990234375</ele>
        <time>2023-07-29T14:31:06.000Z</time>
        <extensions>
          <ns3:TrackPointExtension>
            <ns3:hr>84</ns3:hr>
            <ns3:cad>0</ns3:cad>
          </ns3:TrackPointExtension>
        </extensions>
      </trkpt>
      <trkpt lat="37.766926847398281097412109375" lon="-107.710106782615184783935546875">
        <ele>3797.60009765625</ele>
        <time>2023-07-29T14:31:07.000Z</time>
        <extensions>
          <ns3:TrackPointExtension>
            <ns3:hr>84</ns3:hr>
            <ns3:cad>51</ns3:cad>
          </ns3:TrackPointExtension>
        </extensions>
      </trkpt>
      <trkpt lat="37.76693665422499179840087890625" lon="-107.71010938100516796112060546875">
        <ele>3797.60009765625</ele>
        <time>2023-07-29T14:31:08.000Z</time>
        <extensions>
          <ns3:TrackPointExtension>
            <ns3:hr>84</ns3:hr>
            <ns3:cad>51</ns3:cad>
          </ns3:TrackPointExtension>
        </extensions>
      </trkpt>
      <trkpt lat="37.7669424377381801605224609375" lon="-107.710112817585468292236328125">
        <ele>3797.800048828125</ele>
        <time>2023-07-29T14:31:09.000Z</time>
        <extensions>
          <ns3:TrackPointExtension>
            <ns3:hr>84</ns3:hr>
            <ns3:cad>51</ns3:cad>
          </ns3:TrackPointExtension>
        </extensions>
      </trkpt>
      <trkpt lat="37.76694989763200283050537109375" lon="-107.710115499794483184814453125">
        <ele>3798.199951171875</ele>
        <time>2023-07-29T14:31:10.000Z</time>
        <extensions>
          <ns3:TrackPointExtension>
            <ns3:hr>84</ns3:hr>
            <ns3:cad>51</ns3:cad>
          </ns3:TrackPointExtension>
        </extensions>
      </trkpt>
      <trkpt lat="37.76695794425904750823974609375" lon="-107.71011843346059322357177734375">
        <ele>3798.39990234375</ele>
        <time>2023-07-29T14:31:11.000Z</time>
        <extensions>
          <ns3:TrackPointExtension>
            <ns3:hr>84</ns3:hr>
            <ns3:cad>51</ns3:cad>
          </ns3:TrackPointExtension>
        </extensions>
      </trkpt>
      <trkpt lat="37.7669652365148067474365234375" lon="-107.71012061275541782379150390625">
        <ele>3798.60009765625</ele>
        <time>2023-07-29T14:31:12.000Z</time>
        <extensions>
          <ns3:TrackPointExtension>
            <ns3:hr>85</ns3:hr>
            <ns3:cad>0</ns3:cad>
          </ns3:TrackPointExtension>
        </extensions>
      </trkpt>
      <trkpt lat="37.76697755791246891021728515625" lon="-107.7101257257163524627685546875">
        <ele>3798.60009765625</ele>
        <time>2023-07-29T14:31:13.000Z</time>
        <extensions>
          <ns3:TrackPointExtension>
            <ns3:hr>86</ns3:hr>
            <ns3:cad>0</ns3:cad>
          </ns3:TrackPointExtension>
        </extensions>
      </trkpt>
      <trkpt lat="37.7669890411198139190673828125" lon="-107.710126228630542755126953125">
        <ele>3798.60009765625</ele>
        <time>2023-07-29T14:31:14.000Z</time>
        <extensions>
          <ns3:TrackPointExtension>
            <ns3:hr>86</ns3:hr>
            <ns3:cad>0</ns3:cad>
          </ns3:TrackPointExtension>
        </extensions>
      </trkpt>
      <trkpt lat="37.76699214242398738861083984375" lon="-107.71012882702052593231201171875">
        <ele>3798.60009765625</ele>
        <time>2023-07-29T14:31:15.000Z</time>
        <extensions>
          <ns3:TrackPointExtension>
            <ns3:hr>86</ns3:hr>
            <ns3:cad>0</ns3:cad>
          </ns3:TrackPointExtension>
        </extensions>
      </trkpt>
      <trkpt lat="37.76699750684201717376708984375" lon="-107.7101327665150165557861328125">
        <ele>3798.60009765625</ele>
        <time>2023-07-29T14:31:16.000Z</time>
        <extensions>
          <ns3:TrackPointExtension>
            <ns3:hr>87</ns3:hr>
            <ns3:cad>0</ns3:cad>
          </ns3:TrackPointExtension>
        </extensions>
      </trkpt>
      <trkpt lat="37.76700387708842754364013671875" lon="-107.71013637073338031768798828125">
        <ele>3798.60009765625</ele>
        <time>2023-07-29T14:31:17.000Z</time>
        <extensions>
          <ns3:TrackPointExtension>
            <ns3:hr>87</ns3:hr>
            <ns3:cad>0</ns3:cad>
          </ns3:TrackPointExtension>
        </extensions>
      </trkpt>
      <trkpt lat="37.76701460592448711395263671875" lon="-107.710136957466602325439453125">
        <ele>3799</ele>
        <time>2023-07-29T14:31:18.000Z</time>
        <extensions>
          <ns3:TrackPointExtension>
            <ns3:hr>88</ns3:hr>
            <ns3:cad>0</ns3:cad>
          </ns3:TrackPointExtension>
        </extensions>
      </trkpt>
      <trkpt lat="37.767019383609294891357421875" lon="-107.710133604705333709716796875">
        <ele>3799</ele>
        <time>2023-07-29T14:31:19.000Z</time>
        <extensions>
          <ns3:TrackPointExtension>
            <ns3:hr>88</ns3:hr>
            <ns3:cad>0</ns3:cad>
          </ns3:TrackPointExtension>
        </extensions>
      </trkpt>
      <trkpt lat="37.7670272625982761383056640625" lon="-107.71013368852436542510986328125">
        <ele>3799.199951171875</ele>
        <time>2023-07-29T14:31:20.000Z</time>
        <extensions>
          <ns3:TrackPointExtension>
            <ns3:hr>88</ns3:hr>
            <ns3:cad>0</ns3:cad>
          </ns3:TrackPointExtension>
        </extensions>
      </trkpt>
      <trkpt lat="37.767028771340847015380859375" lon="-107.7101277373731136322021484375">
        <ele>3799.199951171875</ele>
        <time>2023-07-29T14:31:21.000Z</time>
        <extensions>
          <ns3:TrackPointExtension>
            <ns3:hr>89</ns3:hr>
            <ns3:cad>0</ns3:cad>
          </ns3:TrackPointExtension>
        </extensions>
      </trkpt>
      <trkpt lat="37.76703807525336742401123046875" lon="-107.7101257257163524627685546875">
        <ele>3799.39990234375</ele>
        <time>2023-07-29T14:31:22.000Z</time>
        <extensions>
          <ns3:TrackPointExtension>
            <ns3:hr>90</ns3:hr>
            <ns3:cad>0</ns3:cad>
          </ns3:TrackPointExtension>
        </extensions>
      </trkpt>
      <trkpt lat="37.767052240669727325439453125" lon="-107.71012463606894016265869140625">
        <ele>3799.39990234375</ele>
        <time>2023-07-29T14:31:23.000Z</time>
        <extensions>
          <ns3:TrackPointExtension>
            <ns3:hr>91</ns3:hr>
            <ns3:cad>0</ns3:cad>
          </ns3:TrackPointExtension>
        </extensions>
      </trkpt>
      <trkpt lat="37.76706104166805744171142578125" lon="-107.710124552249908447265625">
        <ele>3799.60009765625</ele>
        <time>2023-07-29T14:31:24.000Z</time>
        <extensions>
          <ns3:TrackPointExtension>
            <ns3:hr>92</ns3:hr>
            <ns3:cad>0</ns3:cad>
          </ns3:TrackPointExtension>
        </extensions>
      </trkpt>
      <trkpt lat="37.7670698426663875579833984375" lon="-107.71012363024055957794189453125">
        <ele>3799.800048828125</ele>
        <time>2023-07-29T14:31:25.000Z</time>
        <extensions>
          <ns3:TrackPointExtension>
            <ns3:hr>93</ns3:hr>
            <ns3:cad>0</ns3:cad>
          </ns3:TrackPointExtension>
        </extensions>
      </trkpt>
      <trkpt lat="37.7670778892934322357177734375" lon="-107.71012329496443271636962890625">
        <ele>3800</ele>
        <time>2023-07-29T14:31:26.000Z</time>
        <extensions>
          <ns3:TrackPointExtension>
            <ns3:hr>94</ns3:hr>
            <ns3:cad>0</ns3:cad>
          </ns3:TrackPointExtension>
        </extensions>
      </trkpt>
      <trkpt lat="37.767090462148189544677734375" lon="-107.71012178622186183929443359375">
        <ele>3800</ele>
        <time>2023-07-29T14:31:27.000Z</time>
        <extensions>
          <ns3:TrackPointExtension>
            <ns3:hr>94</ns3:hr>
            <ns3:cad>0</ns3:cad>
          </ns3:TrackPointExtension>
        </extensions>
      </trkpt>
      <trkpt lat="37.767097167670726776123046875" lon="-107.71012094803154468536376953125">
        <ele>3800.199951171875</ele>
        <time>2023-07-29T14:31:28.000Z</time>
        <extensions>
          <ns3:TrackPointExtension>
            <ns3:hr>94</ns3:hr>
            <ns3:cad>0</ns3:cad>
          </ns3:TrackPointExtension>
        </extensions>
      </trkpt>
      <trkpt lat="37.76710747741162776947021484375" lon="-107.7101196907460689544677734375">
        <ele>3800.39990234375</ele>
        <time>2023-07-29T14:31:29.000Z</time>
        <extensions>
          <ns3:TrackPointExtension>
            <ns3:hr>95</ns3:hr>
            <ns3:cad>0</ns3:cad>
          </ns3:TrackPointExtension>
        </extensions>
      </trkpt>
      <trkpt lat="37.76711401529610157012939453125" lon="-107.71011809818446636199951171875">
        <ele>3800.39990234375</ele>
        <time>2023-07-29T14:31:30.000Z</time>
        <extensions>
          <ns3:TrackPointExtension>
            <ns3:hr>95</ns3:hr>
            <ns3:cad>0</ns3:cad>
          </ns3:TrackPointExtension>
        </extensions>
      </trkpt>
      <trkpt lat="37.76711854152381420135498046875" lon="-107.71011709235608577728271484375">
        <ele>3800.60009765625</ele>
        <time>2023-07-29T14:31:31.000Z</time>
        <extensions>
          <ns3:TrackPointExtension>
            <ns3:hr>95</ns3:hr>
            <ns3:cad>0</ns3:cad>
          </ns3:TrackPointExtension>
        </extensions>
      </trkpt>
      <trkpt lat="37.76712759397923946380615234375" lon="-107.710115499794483184814453125">
        <ele>3800.800048828125</ele>
        <time>2023-07-29T14:31:32.000Z</time>
        <extensions>
          <ns3:TrackPointExtension>
            <ns3:hr>96</ns3:hr>
            <ns3:cad>0</ns3:cad>
          </ns3:TrackPointExtension>
        </extensions>
      </trkpt>
      <trkpt lat="37.767134718596935272216796875" lon="-107.7101126499474048614501953125">
        <ele>3801</ele>
        <time>2023-07-29T14:31:33.000Z</time>
        <extensions>
          <ns3:TrackPointExtension>
            <ns3:hr>96</ns3:hr>
            <ns3:cad>52</ns3:cad>
          </ns3:TrackPointExtension>
        </extensions>
      </trkpt>
      <trkpt lat="37.767135389149188995361328125" lon="-107.7101116441190242767333984375">
        <ele>3801</ele>
        <time>2023-07-29T14:31:34.000Z</time>
        <extensions>
          <ns3:TrackPointExtension>
            <ns3:hr>98</ns3:hr>
            <ns3:cad>52</ns3:cad>
          </ns3:TrackPointExtension>
        </extensions>
      </trkpt>
      <trkpt lat="37.7671446092426776885986328125" lon="-107.7101096324622631072998046875">
        <ele>3801.199951171875</ele>
        <time>2023-07-29T14:31:35.000Z</time>
        <extensions>
          <ns3:TrackPointExtension>
            <ns3:hr>99</ns3:hr>
            <ns3:cad>0</ns3:cad>
          </ns3:TrackPointExtension>
        </extensions>
      </trkpt>
      <trkpt lat="37.767147459089756011962890625" lon="-107.710108794271945953369140625">
        <ele>3801.199951171875</ele>
        <time>2023-07-29T14:31:36.000Z</time>
        <extensions>
          <ns3:TrackPointExtension>
            <ns3:hr>99</ns3:hr>
            <ns3:cad>0</ns3:cad>
          </ns3:TrackPointExtension>
        </extensions>
      </trkpt>
      <trkpt lat="37.76715558953583240509033203125" lon="-107.71010552532970905303955078125">
        <ele>3801.39990234375</ele>
        <time>2023-07-29T14:31:37.000Z</time>
        <extensions>
          <ns3:TrackPointExtension>
            <ns3:hr>99</ns3:hr>
            <ns3:cad>0</ns3:cad>
          </ns3:TrackPointExtension>
        </extensions>
      </trkpt>
      <trkpt lat="37.76716246269643306732177734375" lon="-107.7101035974919795989990234375">
        <ele>3801.39990234375</ele>
        <time>2023-07-29T14:31:38.000Z</time>
        <extensions>
          <ns3:TrackPointExtension>
            <ns3:hr>100</ns3:hr>
            <ns3:cad>0</ns3:cad>
          </ns3:TrackPointExtension>
        </extensions>
      </trkpt>
      <trkpt lat="37.76717252098023891448974609375" lon="-107.71009965799748897552490234375">
        <ele>3801.60009765625</ele>
        <time>2023-07-29T14:31:39.000Z</time>
        <extensions>
          <ns3:TrackPointExtension>
            <ns3:hr>100</ns3:hr>
            <ns3:cad>0</ns3:cad>
          </ns3:TrackPointExtension>
        </extensions>
      </trkpt>
      <trkpt lat="37.76717050932347774505615234375" lon="-107.71009898744523525238037109375">
        <ele>3801.800048828125</ele>
        <time>2023-07-29T14:31:40.000Z</time>
        <extensions>
          <ns3:TrackPointExtension>
            <ns3:hr>100</ns3:hr>
            <ns3:cad>0</ns3:cad>
          </ns3:TrackPointExtension>
        </extensions>
      </trkpt>
      <trkpt lat="37.7671721018850803375244140625" lon="-107.71009848453104496002197265625">
        <ele>3801.800048828125</ele>
        <time>2023-07-29T14:31:41.000Z</time>
        <extensions>
          <ns3:TrackPointExtension>
            <ns3:hr>101</ns3:hr>
            <ns3:cad>0</ns3:cad>
          </ns3:TrackPointExtension>
        </extensions>
      </trkpt>
      <trkpt lat="37.767175622284412384033203125" lon="-107.71009974181652069091796875">
        <ele>3802</ele>
        <time>2023-07-29T14:31:42.000Z</time>
        <extensions>
          <ns3:TrackPointExtension>
            <ns3:hr>101</ns3:hr>
            <ns3:cad>0</ns3:cad>
          </ns3:TrackPointExtension>
        </extensions>
      </trkpt>
      <trkpt lat="37.7671764604747295379638671875" lon="-107.71009974181652069091796875">
        <ele>3802</ele>
        <time>2023-07-29T14:31:43.000Z</time>
        <extensions>
          <ns3:TrackPointExtension>
            <ns3:hr>101</ns3:hr>
            <ns3:cad>0</ns3:cad>
          </ns3:TrackPointExtension>
        </extensions>
      </trkpt>
      <trkpt lat="37.767182998359203338623046875" lon="-107.7101004123687744140625">
        <ele>3802.199951171875</ele>
        <time>2023-07-29T14:31:44.000Z</time>
        <extensions>
          <ns3:TrackPointExtension>
            <ns3:hr>101</ns3:hr>
            <ns3:cad>0</ns3:cad>
          </ns3:TrackPointExtension>
        </extensions>
      </trkpt>
      <trkpt lat="37.7671875245869159698486328125" lon="-107.71010032854974269866943359375">
        <ele>3802.199951171875</ele>
        <time>2023-07-29T14:31:45.000Z</time>
        <extensions>
          <ns3:TrackPointExtension>
            <ns3:hr>102</ns3:hr>
            <ns3:cad>0</ns3:cad>
          </ns3:TrackPointExtension>
        </extensions>
      </trkpt>
      <trkpt lat="37.76719397865235805511474609375" lon="-107.71009764634072780609130859375">
        <ele>3802.39990234375</ele>
        <time>2023-07-29T14:31:46.000Z</time>
        <extensions>
          <ns3:TrackPointExtension>
            <ns3:hr>102</ns3:hr>
            <ns3:cad>0</ns3:cad>
          </ns3:TrackPointExtension>
        </extensions>
      </trkpt>
      <trkpt lat="37.7672026120126247406005859375" lon="-107.71009395830333232879638671875">
        <ele>3802.39990234375</ele>
        <time>2023-07-29T14:31:47.000Z</time>
        <extensions>
          <ns3:TrackPointExtension>
            <ns3:hr>103</ns3:hr>
            <ns3:cad>0</ns3:cad>
          </ns3:TrackPointExtension>
        </extensions>
      </trkpt>
      <trkpt lat="37.76721091009676456451416015625" lon="-107.71008909679949283599853515625">
        <ele>3802.60009765625</ele>
        <time>2023-07-29T14:31:48.000Z</time>
        <extensions>
          <ns3:TrackPointExtension>
            <ns3:hr>104</ns3:hr>
            <ns3:cad>0</ns3:cad>
          </ns3:TrackPointExtension>
        </extensions>
      </trkpt>
      <trkpt lat="37.7672140114009380340576171875" lon="-107.7100861631333827972412109375">
        <ele>3802.800048828125</ele>
        <time>2023-07-29T14:31:49.000Z</time>
        <extensions>
          <ns3:TrackPointExtension>
            <ns3:hr>104</ns3:hr>
            <ns3:cad>0</ns3:cad>
          </ns3:TrackPointExtension>
        </extensions>
      </trkpt>
      <trkpt lat="37.76721845380961894989013671875" lon="-107.71008322946727275848388671875">
        <ele>3803</ele>
        <time>2023-07-29T14:31:50.000Z</time>
        <extensions>
          <ns3:TrackPointExtension>
            <ns3:hr>104</ns3:hr>
            <ns3:cad>0</ns3:cad>
          </ns3:TrackPointExtension>
        </extensions>
      </trkpt>
      <trkpt lat="37.76722750626504421234130859375" lon="-107.7100764401257038116455078125">
        <ele>3803.199951171875</ele>
        <time>2023-07-29T14:31:51.000Z</time>
        <extensions>
          <ns3:TrackPointExtension>
            <ns3:hr>105</ns3:hr>
            <ns3:cad>17</ns3:cad>
          </ns3:TrackPointExtension>
        </extensions>
      </trkpt>
      <trkpt lat="37.7672327868640422821044921875" lon="-107.710071243345737457275390625">
        <ele>3803.199951171875</ele>
        <time>2023-07-29T14:31:52.000Z</time>
        <extensions>
          <ns3:TrackPointExtension>
            <ns3:hr>105</ns3:hr>
            <ns3:cad>17</ns3:cad>
          </ns3:TrackPointExtension>
        </extensions>
      </trkpt>
      <trkpt lat="37.7672396600246429443359375" lon="-107.710068561136722564697265625">
        <ele>3803.39990234375</ele>
        <time>2023-07-29T14:31:53.000Z</time>
        <extensions>
          <ns3:TrackPointExtension>
            <ns3:hr>105</ns3:hr>
            <ns3:cad>17</ns3:cad>
          </ns3:TrackPointExtension>
        </extensions>
      </trkpt>
      <trkpt lat="37.7672425098717212677001953125" lon="-107.71006713621318340301513671875">
        <ele>3803.39990234375</ele>
        <time>2023-07-29T14:31:54.000Z</time>
        <extensions>
          <ns3:TrackPointExtension>
            <ns3:hr>108</ns3:hr>
            <ns3:cad>0</ns3:cad>
          </ns3:TrackPointExtension>
        </extensions>
      </trkpt>
      <trkpt lat="37.7672517299652099609375" lon="-107.71006596274673938751220703125">
        <ele>3803.60009765625</ele>
        <time>2023-07-29T14:31:55.000Z</time>
        <extensions>
          <ns3:TrackPointExtension>
            <ns3:hr>114</ns3:hr>
            <ns3:cad>0</ns3:cad>
          </ns3:TrackPointExtension>
        </extensions>
      </trkpt>
      <trkpt lat="37.7672589384019374847412109375" lon="-107.71006378345191478729248046875">
        <ele>3803.800048828125</ele>
        <time>2023-07-29T14:31:56.000Z</time>
        <extensions>
          <ns3:TrackPointExtension>
            <ns3:hr>118</ns3:hr>
            <ns3:cad>0</ns3:cad>
          </ns3:TrackPointExtension>
        </extensions>
      </trkpt>
      <trkpt lat="37.7672616206109523773193359375" lon="-107.7100630290806293487548828125">
        <ele>3804</ele>
        <time>2023-07-29T14:31:57.000Z</time>
        <extensions>
          <ns3:TrackPointExtension>
            <ns3:hr>120</ns3:hr>
            <ns3:cad>64</ns3:cad>
          </ns3:TrackPointExtension>
        </extensions>
      </trkpt>
      <trkpt lat="37.7672731876373291015625" lon="-107.71006126888096332550048828125">
        <ele>3804.199951171875</ele>
        <time>2023-07-29T14:31:58.000Z</time>
        <extensions>
          <ns3:TrackPointExtension>
            <ns3:hr>121</ns3:hr>
            <ns3:cad>64</ns3:cad>
          </ns3:TrackPointExtension>
        </extensions>
      </trkpt>
      <trkpt lat="37.767274864017963409423828125" lon="-107.7100593410432338714599609375">
        <ele>3804.39990234375</ele>
        <time>2023-07-29T14:31:59.000Z</time>
        <extensions>
          <ns3:TrackPointExtension>
            <ns3:hr>121</ns3:hr>
            <ns3:cad>0</ns3:cad>
          </ns3:TrackPointExtension>
        </extensions>
      </trkpt>
      <trkpt lat="37.76728282682597637176513671875" lon="-107.7100526355206966400146484375">
        <ele>3804.39990234375</ele>
        <time>2023-07-29T14:32:00.000Z</time>
        <extensions>
          <ns3:TrackPointExtension>
            <ns3:hr>121</ns3:hr>
            <ns3:cad>0</ns3:cad>
          </ns3:TrackPointExtension>
        </extensions>
      </trkpt>
      <trkpt lat="37.76729137636721134185791015625" lon="-107.7100415714085102081298828125">
        <ele>3804.60009765625</ele>
        <time>2023-07-29T14:32:01.000Z</time>
        <extensions>
          <ns3:TrackPointExtension>
            <ns3:hr>121</ns3:hr>
            <ns3:cad>0</ns3:cad>
          </ns3:TrackPointExtension>
        </extensions>
      </trkpt>
      <trkpt lat="37.767304368317127227783203125" lon="-107.71002606488764286041259765625">
        <ele>3804.60009765625</ele>
        <time>2023-07-29T14:32:02.000Z</time>
        <extensions>
          <ns3:TrackPointExtension>
            <ns3:hr>121</ns3:hr>
            <ns3:cad>0</ns3:cad>
          </ns3:TrackPointExtension>
        </extensions>
      </trkpt>
      <trkpt lat="37.76730914600193500518798828125" lon="-107.71001801826059818267822265625">
        <ele>3804.800048828125</ele>
        <time>2023-07-29T14:32:03.000Z</time>
        <extensions>
          <ns3:TrackPointExtension>
            <ns3:hr>121</ns3:hr>
            <ns3:cad>0</ns3:cad>
          </ns3:TrackPointExtension>
        </extensions>
      </trkpt>
      <trkpt lat="37.767306379973888397216796875" lon="-107.710010893642902374267578125">
        <ele>3805</ele>
        <time>2023-07-29T14:32:04.000Z</time>
        <extensions>
          <ns3:TrackPointExtension>
            <ns3:hr>121</ns3:hr>
            <ns3:cad>0</ns3:cad>
          </ns3:TrackPointExtension>
        </extensions>
      </trkpt>
      <trkpt lat="37.767301015555858612060546875" lon="-107.7100051939487457275390625">
        <ele>3805.199951171875</ele>
        <time>2023-07-29T14:32:05.000Z</time>
        <extensions>
          <ns3:TrackPointExtension>
            <ns3:hr>121</ns3:hr>
            <ns3:cad>0</ns3:cad>
          </ns3:TrackPointExtension>
        </extensions>
      </trkpt>
      <trkpt lat="37.7672961540520191192626953125" lon="-107.7099946327507495880126953125">
        <ele>3805.39990234375</ele>
        <time>2023-07-29T14:32:06.000Z</time>
        <extensions>
          <ns3:TrackPointExtension>
            <ns3:hr>121</ns3:hr>
            <ns3:cad>0</ns3:cad>
          </ns3:TrackPointExtension>
        </extensions>
      </trkpt>
      <trkpt lat="37.76729288510978221893310546875" lon="-107.70998868159949779510498046875">
        <ele>3805.60009765625</ele>
        <time>2023-07-29T14:32:07.000Z</time>
        <extensions>
          <ns3:TrackPointExtension>
            <ns3:hr>121</ns3:hr>
            <ns3:cad>0</ns3:cad>
          </ns3:TrackPointExtension>
        </extensions>
      </trkpt>
      <trkpt lat="37.7672938071191310882568359375" lon="-107.7099755220115184783935546875">
        <ele>3805.800048828125</ele>
        <time>2023-07-29T14:32:08.000Z</time>
        <extensions>
          <ns3:TrackPointExtension>
            <ns3:hr>121</ns3:hr>
            <ns3:cad>0</ns3:cad>
          </ns3:TrackPointExtension>
        </extensions>
      </trkpt>
      <trkpt lat="37.76729472912847995758056640625" lon="-107.70997091196477413177490234375">
        <ele>3806</ele>
        <time>2023-07-29T14:32:09.000Z</time>
        <extensions>
          <ns3:TrackPointExtension>
            <ns3:hr>121</ns3:hr>
            <ns3:cad>0</ns3:cad>
          </ns3:TrackPointExtension>
        </extensions>
      </trkpt>
      <trkpt lat="37.76729607023298740386962890625" lon="-107.7099631167948246002197265625">
        <ele>3806.199951171875</ele>
        <time>2023-07-29T14:32:10.000Z</time>
        <extensions>
          <ns3:TrackPointExtension>
            <ns3:hr>122</ns3:hr>
            <ns3:cad>0</ns3:cad>
          </ns3:TrackPointExtension>
        </extensions>
      </trkpt>
      <trkpt lat="37.76729791425168514251708984375" lon="-107.70995046012103557586669921875">
        <ele>3806.39990234375</ele>
        <time>2023-07-29T14:32:11.000Z</time>
        <extensions>
          <ns3:TrackPointExtension>
            <ns3:hr>122</ns3:hr>
            <ns3:cad>0</ns3:cad>
          </ns3:TrackPointExtension>
        </extensions>
      </trkpt>
      <trkpt lat="37.76729992590844631195068359375" lon="-107.7099461853504180908203125">
        <ele>3806.60009765625</ele>
        <time>2023-07-29T14:32:12.000Z</time>
        <extensions>
          <ns3:TrackPointExtension>
            <ns3:hr>122</ns3:hr>
            <ns3:cad>0</ns3:cad>
          </ns3:TrackPointExtension>
        </extensions>
      </trkpt>
      <trkpt lat="37.76729841716587543487548828125" lon="-107.7099450118839740753173828125">
        <ele>3806.60009765625</ele>
        <time>2023-07-29T14:32:13.000Z</time>
        <extensions>
          <ns3:TrackPointExtension>
            <ns3:hr>122</ns3:hr>
            <ns3:cad>0</ns3:cad>
          </ns3:TrackPointExtension>
        </extensions>
      </trkpt>
      <trkpt lat="37.7672959864139556884765625" lon="-107.7099502086639404296875">
        <ele>3807</ele>
        <time>2023-07-29T14:32:14.000Z</time>
        <extensions>
          <ns3:TrackPointExtension>
            <ns3:hr>122</ns3:hr>
            <ns3:cad>0</ns3:cad>
          </ns3:TrackPointExtension>
        </extensions>
      </trkpt>
      <trkpt lat="37.76729539968073368072509765625" lon="-107.70995046012103557586669921875">
        <ele>3807</ele>
        <time>2023-07-29T14:32:15.000Z</time>
        <extensions>
          <ns3:TrackPointExtension>
            <ns3:hr>121</ns3:hr>
            <ns3:cad>0</ns3:cad>
          </ns3:TrackPointExtension>
        </extensions>
      </trkpt>
      <trkpt lat="37.76729531586170196533203125" lon="-107.70994777791202068328857421875">
        <ele>3807.39990234375</ele>
        <time>2023-07-29T14:32:16.000Z</time>
        <extensions>
          <ns3:TrackPointExtension>
            <ns3:hr>121</ns3:hr>
            <ns3:cad>0</ns3:cad>
          </ns3:TrackPointExtension>
        </extensions>
      </trkpt>
      <trkpt lat="37.76729707606136798858642578125" lon="-107.709942497313022613525390625">
        <ele>3807.39990234375</ele>
        <time>2023-07-29T14:32:17.000Z</time>
        <extensions>
          <ns3:TrackPointExtension>
            <ns3:hr>121</ns3:hr>
            <ns3:cad>0</ns3:cad>
          </ns3:TrackPointExtension>
        </extensions>
      </trkpt>
      <trkpt lat="37.7673015184700489044189453125" lon="-107.70993411540985107421875">
        <ele>3807.60009765625</ele>
        <time>2023-07-29T14:32:18.000Z</time>
        <extensions>
          <ns3:TrackPointExtension>
            <ns3:hr>121</ns3:hr>
            <ns3:cad>0</ns3:cad>
          </ns3:TrackPointExtension>
        </extensions>
      </trkpt>
      <trkpt lat="37.76731048710644245147705078125" lon="-107.7099193632602691650390625">
        <ele>3807.60009765625</ele>
        <time>2023-07-29T14:32:19.000Z</time>
        <extensions>
          <ns3:TrackPointExtension>
            <ns3:hr>120</ns3:hr>
            <ns3:cad>0</ns3:cad>
          </ns3:TrackPointExtension>
        </extensions>
      </trkpt>
      <trkpt lat="37.76731275022029876708984375" lon="-107.70991961471736431121826171875">
        <ele>3807.60009765625</ele>
        <time>2023-07-29T14:32:20.000Z</time>
        <extensions>
          <ns3:TrackPointExtension>
            <ns3:hr>119</ns3:hr>
            <ns3:cad>0</ns3:cad>
          </ns3:TrackPointExtension>
        </extensions>
      </trkpt>
      <trkpt lat="37.76732004247605800628662109375" lon="-107.70990972407162189483642578125">
        <ele>3807.60009765625</ele>
        <time>2023-07-29T14:32:21.000Z</time>
        <extensions>
          <ns3:TrackPointExtension>
            <ns3:hr>117</ns3:hr>
            <ns3:cad>0</ns3:cad>
          </ns3:TrackPointExtension>
        </extensions>
      </trkpt>
      <trkpt lat="37.7673239819705486297607421875" lon="-107.7099024318158626556396484375">
        <ele>3807.800048828125</ele>
        <time>2023-07-29T14:32:22.000Z</time>
        <extensions>
          <ns3:TrackPointExtension>
            <ns3:hr>114</ns3:hr>
            <ns3:cad>0</ns3:cad>
          </ns3:TrackPointExtension>
        </extensions>
      </trkpt>
      <trkpt lat="37.7673296816647052764892578125" lon="-107.70989723503589630126953125">
        <ele>3808</ele>
        <time>2023-07-29T14:32:23.000Z</time>
        <extensions>
          <ns3:TrackPointExtension>
            <ns3:hr>113</ns3:hr>
            <ns3:cad>0</ns3:cad>
          </ns3:TrackPointExtension>
        </extensions>
      </trkpt>
      <trkpt lat="37.76733546517789363861083984375" lon="-107.70989379845559597015380859375">
        <ele>3808</ele>
        <time>2023-07-29T14:32:24.000Z</time>
        <extensions>
          <ns3:TrackPointExtension>
            <ns3:hr>112</ns3:hr>
            <ns3:cad>0</ns3:cad>
          </ns3:TrackPointExtension>
        </extensions>
      </trkpt>
      <trkpt lat="37.76733881793916225433349609375" lon="-107.70989011041820049285888671875">
        <ele>3808.199951171875</ele>
        <time>2023-07-29T14:32:25.000Z</time>
        <extensions>
          <ns3:TrackPointExtension>
            <ns3:hr>111</ns3:hr>
            <ns3:cad>0</ns3:cad>
          </ns3:TrackPointExtension>
        </extensions>
      </trkpt>
      <trkpt lat="37.76734669692814350128173828125" lon="-107.70988826639950275421142578125">
        <ele>3808.199951171875</ele>
        <time>2023-07-29T14:32:26.000Z</time>
        <extensions>
          <ns3:TrackPointExtension>
            <ns3:hr>111</ns3:hr>
            <ns3:cad>0</ns3:cad>
          </ns3:TrackPointExtension>
        </extensions>
      </trkpt>
      <trkpt lat="37.76734870858490467071533203125" lon="-107.70988625474274158477783203125">
        <ele>3808.39990234375</ele>
        <time>2023-07-29T14:32:27.000Z</time>
        <extensions>
          <ns3:TrackPointExtension>
            <ns3:hr>111</ns3:hr>
            <ns3:cad>0</ns3:cad>
          </ns3:TrackPointExtension>
        </extensions>
      </trkpt>
      <trkpt lat="37.76735507883131504058837890625" lon="-107.7098764479160308837890625">
        <ele>3808.60009765625</ele>
        <time>2023-07-29T14:32:28.000Z</time>
        <extensions>
          <ns3:TrackPointExtension>
            <ns3:hr>111</ns3:hr>
            <ns3:cad>0</ns3:cad>
          </ns3:TrackPointExtension>
        </extensions>
      </trkpt>
      <trkpt lat="37.76735725812613964080810546875" lon="-107.7098710834980010986328125">
        <ele>3808.60009765625</ele>
        <time>2023-07-29T14:32:29.000Z</time>
        <extensions>
          <ns3:TrackPointExtension>
            <ns3:hr>111</ns3:hr>
            <ns3:cad>0</ns3:cad>
          </ns3:TrackPointExtension>
        </extensions>
      </trkpt>
      <trkpt lat="37.76735968887805938720703125" lon="-107.7098618634045124053955078125">
        <ele>3809</ele>
        <time>2023-07-29T14:32:30.000Z</time>
        <extensions>
          <ns3:TrackPointExtension>
            <ns3:hr>112</ns3:hr>
            <ns3:cad>0</ns3:cad>
          </ns3:TrackPointExtension>
        </extensions>
      </trkpt>
      <trkpt lat="37.76735910214483737945556640625" lon="-107.70985121838748455047607421875">
        <ele>3809</ele>
        <time>2023-07-29T14:32:31.000Z</time>
        <extensions>
          <ns3:TrackPointExtension>
            <ns3:hr>112</ns3:hr>
            <ns3:cad>0</ns3:cad>
          </ns3:TrackPointExtension>
        </extensions>
      </trkpt>
      <trkpt lat="37.76735968887805938720703125" lon="-107.709846608340740203857421875">
        <ele>3809.199951171875</ele>
        <time>2023-07-29T14:32:32.000Z</time>
        <extensions>
          <ns3:TrackPointExtension>
            <ns3:hr>113</ns3:hr>
            <ns3:cad>0</ns3:cad>
          </ns3:TrackPointExtension>
        </extensions>
      </trkpt>
      <trkpt lat="37.76735968887805938720703125" lon="-107.70983126945793628692626953125">
        <ele>3809.39990234375</ele>
        <time>2023-07-29T14:32:33.000Z</time>
        <extensions>
          <ns3:TrackPointExtension>
            <ns3:hr>113</ns3:hr>
            <ns3:cad>0</ns3:cad>
          </ns3:TrackPointExtension>
        </extensions>
      </trkpt>
      <trkpt lat="37.767358012497425079345703125" lon="-107.70983017981052398681640625">
        <ele>3809.60009765625</ele>
        <time>2023-07-29T14:32:34.000Z</time>
        <extensions>
          <ns3:TrackPointExtension>
            <ns3:hr>114</ns3:hr>
            <ns3:cad>0</ns3:cad>
          </ns3:TrackPointExtension>
        </extensions>
      </trkpt>
      <trkpt lat="37.767358012497425079345703125" lon="-107.70981970243155956268310546875">
        <ele>3810</ele>
        <time>2023-07-29T14:32:35.000Z</time>
        <extensions>
          <ns3:TrackPointExtension>
            <ns3:hr>114</ns3:hr>
            <ns3:cad>0</ns3:cad>
          </ns3:TrackPointExtension>
        </extensions>
      </trkpt>
      <trkpt lat="37.7673578448593616485595703125" lon="-107.70981987006962299346923828125">
        <ele>3810.199951171875</ele>
        <time>2023-07-29T14:32:36.000Z</time>
        <extensions>
          <ns3:TrackPointExtension>
            <ns3:hr>115</ns3:hr>
            <ns3:cad>0</ns3:cad>
          </ns3:TrackPointExtension>
        </extensions>
      </trkpt>
      <trkpt lat="37.76735809631645679473876953125" lon="-107.709808051586151123046875">
        <ele>3810.60009765625</ele>
        <time>2023-07-29T14:32:37.000Z</time>
        <extensions>
          <ns3:TrackPointExtension>
            <ns3:hr>115</ns3:hr>
            <ns3:cad>0</ns3:cad>
          </ns3:TrackPointExtension>
        </extensions>
      </trkpt>
      <trkpt lat="37.76735859923064708709716796875" lon="-107.70979908294975757598876953125">
        <ele>3810.60009765625</ele>
        <time>2023-07-29T14:32:38.000Z</time>
        <extensions>
          <ns3:TrackPointExtension>
            <ns3:hr>115</ns3:hr>
            <ns3:cad>0</ns3:cad>
          </ns3:TrackPointExtension>
        </extensions>
      </trkpt>
      <trkpt lat="37.7673608623445034027099609375" lon="-107.70978215150535106658935546875">
        <ele>3810.60009765625</ele>
        <time>2023-07-29T14:32:39.000Z</time>
        <extensions>
          <ns3:TrackPointExtension>
            <ns3:hr>116</ns3:hr>
            <ns3:cad>47</ns3:cad>
          </ns3:TrackPointExtension>
        </extensions>
      </trkpt>
      <trkpt lat="37.76736396364867687225341796875" lon="-107.70976572297513484954833984375">
        <ele>3810.800048828125</ele>
        <time>2023-07-29T14:32:40.000Z</time>
        <extensions>
          <ns3:TrackPointExtension>
            <ns3:hr>115</ns3:hr>
            <ns3:cad>47</ns3:cad>
          </ns3:TrackPointExtension>
        </extensions>
      </trkpt>
      <trkpt lat="37.76736496947705745697021484375" lon="-107.70975507795810699462890625">
        <ele>3810.800048828125</ele>
        <time>2023-07-29T14:32:41.000Z</time>
        <extensions>
          <ns3:TrackPointExtension>
            <ns3:hr>115</ns3:hr>
            <ns3:cad>0</ns3:cad>
          </ns3:TrackPointExtension>
        </extensions>
      </trkpt>
      <trkpt lat="37.76736698113381862640380859375" lon="-107.709740661084651947021484375">
        <ele>3811</ele>
        <time>2023-07-29T14:32:42.000Z</time>
        <extensions>
          <ns3:TrackPointExtension>
            <ns3:hr>116</ns3:hr>
            <ns3:cad>0</ns3:cad>
          </ns3:TrackPointExtension>
        </extensions>
      </trkpt>
      <trkpt lat="37.76736664585769176483154296875" lon="-107.7097297646105289459228515625">
        <ele>3811.199951171875</ele>
        <time>2023-07-29T14:32:43.000Z</time>
        <extensions>
          <ns3:TrackPointExtension>
            <ns3:hr>116</ns3:hr>
            <ns3:cad>0</ns3:cad>
          </ns3:TrackPointExtension>
        </extensions>
      </trkpt>
      <trkpt lat="37.76736681349575519561767578125" lon="-107.70971953868865966796875">
        <ele>3811.199951171875</ele>
        <time>2023-07-29T14:32:44.000Z</time>
        <extensions>
          <ns3:TrackPointExtension>
            <ns3:hr>116</ns3:hr>
            <ns3:cad>0</ns3:cad>
          </ns3:TrackPointExtension>
        </extensions>
      </trkpt>
      <trkpt lat="37.767367064952850341796875" lon="-107.7097089774906635284423828125">
        <ele>3811.199951171875</ele>
        <time>2023-07-29T14:32:45.000Z</time>
        <extensions>
          <ns3:TrackPointExtension>
            <ns3:hr>116</ns3:hr>
            <ns3:cad>0</ns3:cad>
          </ns3:TrackPointExtension>
        </extensions>
      </trkpt>
      <trkpt lat="37.767368741333484649658203125" lon="-107.709695063531398773193359375">
        <ele>3811.60009765625</ele>
        <time>2023-07-29T14:32:46.000Z</time>
        <extensions>
          <ns3:TrackPointExtension>
            <ns3:hr>117</ns3:hr>
            <ns3:cad>0</ns3:cad>
          </ns3:TrackPointExtension>
        </extensions>
      </trkpt>
      <trkpt lat="37.76737033389508724212646484375" lon="-107.70968257449567317962646484375">
        <ele>3811.800048828125</ele>
        <time>2023-07-29T14:32:47.000Z</time>
        <extensions>
          <ns3:TrackPointExtension>
            <ns3:hr>117</ns3:hr>
            <ns3:cad>0</ns3:cad>
          </ns3:TrackPointExtension>
        </extensions>
      </trkpt>
      <trkpt lat="37.7673709206283092498779296875" lon="-107.7096779644489288330078125">
        <ele>3811.800048828125</ele>
        <time>2023-07-29T14:32:48.000Z</time>
        <extensions>
          <ns3:TrackPointExtension>
            <ns3:hr>117</ns3:hr>
            <ns3:cad>0</ns3:cad>
          </ns3:TrackPointExtension>
        </extensions>
      </trkpt>
      <trkpt lat="37.7673710882663726806640625" lon="-107.709683664143085479736328125">
        <ele>3812.199951171875</ele>
        <time>2023-07-29T14:32:49.000Z</time>
        <extensions>
          <ns3:TrackPointExtension>
            <ns3:hr>117</ns3:hr>
            <ns3:cad>0</ns3:cad>
          </ns3:TrackPointExtension>
        </extensions>
      </trkpt>
      <trkpt lat="37.767377793788909912109375" lon="-107.70967821590602397918701171875">
        <ele>3812.199951171875</ele>
        <time>2023-07-29T14:32:50.000Z</time>
        <extensions>
          <ns3:TrackPointExtension>
            <ns3:hr>118</ns3:hr>
            <ns3:cad>0</ns3:cad>
          </ns3:TrackPointExtension>
        </extensions>
      </trkpt>
      <trkpt lat="37.7673856727778911590576171875" lon="-107.70966463722288608551025390625">
        <ele>3812.39990234375</ele>
        <time>2023-07-29T14:32:51.000Z</time>
        <extensions>
          <ns3:TrackPointExtension>
            <ns3:hr>118</ns3:hr>
            <ns3:cad>0</ns3:cad>
          </ns3:TrackPointExtension>
        </extensions>
      </trkpt>
      <trkpt lat="37.7673898637294769287109375" lon="-107.70966078154742717742919921875">
        <ele>3812.60009765625</ele>
        <time>2023-07-29T14:32:52.000Z</time>
        <extensions>
          <ns3:TrackPointExtension>
            <ns3:hr>119</ns3:hr>
            <ns3:cad>0</ns3:cad>
          </ns3:TrackPointExtension>
        </extensions>
      </trkpt>
      <trkpt lat="37.76739531196653842926025390625" lon="-107.70965893752872943878173828125">
        <ele>3812.60009765625</ele>
        <time>2023-07-29T14:32:53.000Z</time>
        <extensions>
          <ns3:TrackPointExtension>
            <ns3:hr>119</ns3:hr>
            <ns3:cad>0</ns3:cad>
          </ns3:TrackPointExtension>
        </extensions>
      </trkpt>
      <trkpt lat="37.7674021013081073760986328125" lon="-107.7096538245677947998046875">
        <ele>3812.60009765625</ele>
        <time>2023-07-29T14:32:54.000Z</time>
        <extensions>
          <ns3:TrackPointExtension>
            <ns3:hr>119</ns3:hr>
            <ns3:cad>0</ns3:cad>
          </ns3:TrackPointExtension>
        </extensions>
      </trkpt>
      <trkpt lat="37.76741023175418376922607421875" lon="-107.7096484601497650146484375">
        <ele>3812.800048828125</ele>
        <time>2023-07-29T14:32:55.000Z</time>
        <extensions>
          <ns3:TrackPointExtension>
            <ns3:hr>119</ns3:hr>
            <ns3:cad>0</ns3:cad>
          </ns3:TrackPointExtension>
        </extensions>
      </trkpt>
      <trkpt lat="37.76742146350443363189697265625" lon="-107.7096415869891643524169921875">
        <ele>3813</ele>
        <time>2023-07-29T14:32:56.000Z</time>
        <extensions>
          <ns3:TrackPointExtension>
            <ns3:hr>119</ns3:hr>
            <ns3:cad>0</ns3:cad>
          </ns3:TrackPointExtension>
        </extensions>
      </trkpt>
      <trkpt lat="37.7674295939505100250244140625" lon="-107.70963697694242000579833984375">
        <ele>3813</ele>
        <time>2023-07-29T14:32:57.000Z</time>
        <extensions>
          <ns3:TrackPointExtension>
            <ns3:hr>118</ns3:hr>
            <ns3:cad>0</ns3:cad>
          </ns3:TrackPointExtension>
        </extensions>
      </trkpt>
      <trkpt lat="37.76743805967271327972412109375" lon="-107.70963035523891448974609375">
        <ele>3813</ele>
        <time>2023-07-29T14:32:58.000Z</time>
        <extensions>
          <ns3:TrackPointExtension>
            <ns3:hr>118</ns3:hr>
            <ns3:cad>0</ns3:cad>
          </ns3:TrackPointExtension>
        </extensions>
      </trkpt>
      <trkpt lat="37.76745230890810489654541015625" lon="-107.7096204645931720733642578125">
        <ele>3813.199951171875</ele>
        <time>2023-07-29T14:32:59.000Z</time>
        <extensions>
          <ns3:TrackPointExtension>
            <ns3:hr>118</ns3:hr>
            <ns3:cad>0</ns3:cad>
          </ns3:TrackPointExtension>
        </extensions>
      </trkpt>
      <trkpt lat="37.7674611099064350128173828125" lon="-107.70961300469934940338134765625">
        <ele>3813.199951171875</ele>
        <time>2023-07-29T14:33:00.000Z</time>
        <extensions>
          <ns3:TrackPointExtension>
            <ns3:hr>118</ns3:hr>
            <ns3:cad>0</ns3:cad>
          </ns3:TrackPointExtension>
        </extensions>
      </trkpt>
      <trkpt lat="37.76747091673314571380615234375" lon="-107.7096068859100341796875">
        <ele>3813.39990234375</ele>
        <time>2023-07-29T14:33:01.000Z</time>
        <extensions>
          <ns3:TrackPointExtension>
            <ns3:hr>117</ns3:hr>
            <ns3:cad>45</ns3:cad>
          </ns3:TrackPointExtension>
        </extensions>
      </trkpt>
      <trkpt lat="37.7674782089889049530029296875" lon="-107.70959875546395778656005859375">
        <ele>3813.39990234375</ele>
        <time>2023-07-29T14:33:02.000Z</time>
        <extensions>
          <ns3:TrackPointExtension>
            <ns3:hr>117</ns3:hr>
            <ns3:cad>45</ns3:cad>
          </ns3:TrackPointExtension>
        </extensions>
      </trkpt>
      <trkpt lat="37.7674877643585205078125" lon="-107.70958635024726390838623046875">
        <ele>3813.60009765625</ele>
        <time>2023-07-29T14:33:03.000Z</time>
        <extensions>
          <ns3:TrackPointExtension>
            <ns3:hr>117</ns3:hr>
            <ns3:cad>50</ns3:cad>
          </ns3:TrackPointExtension>
        </extensions>
      </trkpt>
      <trkpt lat="37.76749623008072376251220703125" lon="-107.7095755375921726226806640625">
        <ele>3813.60009765625</ele>
        <time>2023-07-29T14:33:04.000Z</time>
        <extensions>
          <ns3:TrackPointExtension>
            <ns3:hr>117</ns3:hr>
            <ns3:cad>50</ns3:cad>
          </ns3:TrackPointExtension>
        </extensions>
      </trkpt>
      <trkpt lat="37.76750360615551471710205078125" lon="-107.70956707186996936798095703125">
        <ele>3813.800048828125</ele>
        <time>2023-07-29T14:33:05.000Z</time>
        <extensions>
          <ns3:TrackPointExtension>
            <ns3:hr>117</ns3:hr>
            <ns3:cad>50</ns3:cad>
          </ns3:TrackPointExtension>
        </extensions>
      </trkpt>
      <trkpt lat="37.76751064695417881011962890625" lon="-107.70955634303390979766845703125">
        <ele>3813.800048828125</ele>
        <time>2023-07-29T14:33:06.000Z</time>
        <extensions>
          <ns3:TrackPointExtension>
            <ns3:hr>117</ns3:hr>
            <ns3:cad>50</ns3:cad>
          </ns3:TrackPointExtension>
        </extensions>
      </trkpt>
      <trkpt lat="37.767520956695079803466796875" lon="-107.70954544655978679656982421875">
        <ele>3814</ele>
        <time>2023-07-29T14:33:07.000Z</time>
        <extensions>
          <ns3:TrackPointExtension>
            <ns3:hr>117</ns3:hr>
            <ns3:cad>50</ns3:cad>
          </ns3:TrackPointExtension>
        </extensions>
      </trkpt>
      <trkpt lat="37.767532356083393096923828125" lon="-107.70953907631337642669677734375">
        <ele>3814.199951171875</ele>
        <time>2023-07-29T14:33:08.000Z</time>
        <extensions>
          <ns3:TrackPointExtension>
            <ns3:hr>116</ns3:hr>
            <ns3:cad>50</ns3:cad>
          </ns3:TrackPointExtension>
        </extensions>
      </trkpt>
      <trkpt lat="37.76754434220492839813232421875" lon="-107.70952935330569744110107421875">
        <ele>3814.199951171875</ele>
        <time>2023-07-29T14:33:09.000Z</time>
        <extensions>
          <ns3:TrackPointExtension>
            <ns3:hr>116</ns3:hr>
            <ns3:cad>50</ns3:cad>
          </ns3:TrackPointExtension>
        </extensions>
      </trkpt>
      <trkpt lat="37.7675556577742099761962890625" lon="-107.70952038466930389404296875">
        <ele>3814.39990234375</ele>
        <time>2023-07-29T14:33:10.000Z</time>
        <extensions>
          <ns3:TrackPointExtension>
            <ns3:hr>116</ns3:hr>
            <ns3:cad>0</ns3:cad>
          </ns3:TrackPointExtension>
        </extensions>
      </trkpt>
      <trkpt lat="37.7675663866102695465087890625" lon="-107.7095104940235614776611328125">
        <ele>3814.39990234375</ele>
        <time>2023-07-29T14:33:11.000Z</time>
        <extensions>
          <ns3:TrackPointExtension>
            <ns3:hr>116</ns3:hr>
            <ns3:cad>0</ns3:cad>
          </ns3:TrackPointExtension>
        </extensions>
      </trkpt>
      <trkpt lat="37.76756663806736469268798828125" lon="-107.70951057784259319305419921875">
        <ele>3814.60009765625</ele>
        <time>2023-07-29T14:33:12.000Z</time>
        <extensions>
          <ns3:TrackPointExtension>
            <ns3:hr>116</ns3:hr>
            <ns3:cad>0</ns3:cad>
          </ns3:TrackPointExtension>
        </extensions>
      </trkpt>
      <trkpt lat="37.76757166720926761627197265625" lon="-107.7095027826726436614990234375">
        <ele>3814.60009765625</ele>
        <time>2023-07-29T14:33:13.000Z</time>
        <extensions>
          <ns3:TrackPointExtension>
            <ns3:hr>116</ns3:hr>
            <ns3:cad>41</ns3:cad>
          </ns3:TrackPointExtension>
        </extensions>
      </trkpt>
      <trkpt lat="37.76757937856018543243408203125" lon="-107.7094910480082035064697265625">
        <ele>3814.60009765625</ele>
        <time>2023-07-29T14:33:14.000Z</time>
        <extensions>
          <ns3:TrackPointExtension>
            <ns3:hr>116</ns3:hr>
            <ns3:cad>41</ns3:cad>
          </ns3:TrackPointExtension>
        </extensions>
      </trkpt>
      <trkpt lat="37.76758139021694660186767578125" lon="-107.709481827914714813232421875">
        <ele>3814.800048828125</ele>
        <time>2023-07-29T14:33:15.000Z</time>
        <extensions>
          <ns3:TrackPointExtension>
            <ns3:hr>116</ns3:hr>
            <ns3:cad>41</ns3:cad>
          </ns3:TrackPointExtension>
        </extensions>
      </trkpt>
      <trkpt lat="37.76758474297821521759033203125" lon="-107.70947369746863842010498046875">
        <ele>3815</ele>
        <time>2023-07-29T14:33:16.000Z</time>
        <extensions>
          <ns3:TrackPointExtension>
            <ns3:hr>116</ns3:hr>
            <ns3:cad>41</ns3:cad>
          </ns3:TrackPointExtension>
        </extensions>
      </trkpt>
      <trkpt lat="37.76758876629173755645751953125" lon="-107.70946145989000797271728515625">
        <ele>3815</ele>
        <time>2023-07-29T14:33:17.000Z</time>
        <extensions>
          <ns3:TrackPointExtension>
            <ns3:hr>116</ns3:hr>
            <ns3:cad>46</ns3:cad>
          </ns3:TrackPointExtension>
        </extensions>
      </trkpt>
      <trkpt lat="37.7675942145287990570068359375" lon="-107.7094471268355846405029296875">
        <ele>3815.199951171875</ele>
        <time>2023-07-29T14:33:18.000Z</time>
        <extensions>
          <ns3:TrackPointExtension>
            <ns3:hr>116</ns3:hr>
            <ns3:cad>46</ns3:cad>
          </ns3:TrackPointExtension>
        </extensions>
      </trkpt>
      <trkpt lat="37.7676019258797168731689453125" lon="-107.70943379960954189300537109375">
        <ele>3815.199951171875</ele>
        <time>2023-07-29T14:33:19.000Z</time>
        <extensions>
          <ns3:TrackPointExtension>
            <ns3:hr>116</ns3:hr>
            <ns3:cad>0</ns3:cad>
          </ns3:TrackPointExtension>
        </extensions>
      </trkpt>
      <trkpt lat="37.76760703884065151214599609375" lon="-107.7094263397157192230224609375">
        <ele>3815.39990234375</ele>
        <time>2023-07-29T14:33:20.000Z</time>
        <extensions>
          <ns3:TrackPointExtension>
            <ns3:hr>116</ns3:hr>
            <ns3:cad>0</ns3:cad>
          </ns3:TrackPointExtension>
        </extensions>
      </trkpt>
      <trkpt lat="37.76760921813547611236572265625" lon="-107.7094263397157192230224609375">
        <ele>3815.39990234375</ele>
        <time>2023-07-29T14:33:21.000Z</time>
        <extensions>
          <ns3:TrackPointExtension>
            <ns3:hr>116</ns3:hr>
            <ns3:cad>0</ns3:cad>
          </ns3:TrackPointExtension>
        </extensions>
      </trkpt>
      <trkpt lat="37.76761852204799652099609375" lon="-107.70941200666129589080810546875">
        <ele>3815.39990234375</ele>
        <time>2023-07-29T14:33:22.000Z</time>
        <extensions>
          <ns3:TrackPointExtension>
            <ns3:hr>116</ns3:hr>
            <ns3:cad>0</ns3:cad>
          </ns3:TrackPointExtension>
        </extensions>
      </trkpt>
      <trkpt lat="37.76762581430375576019287109375" lon="-107.7094058878719806671142578125">
        <ele>3815.60009765625</ele>
        <time>2023-07-29T14:33:23.000Z</time>
        <extensions>
          <ns3:TrackPointExtension>
            <ns3:hr>116</ns3:hr>
            <ns3:cad>0</ns3:cad>
          </ns3:TrackPointExtension>
        </extensions>
      </trkpt>
      <trkpt lat="37.7676321007311344146728515625" lon="-107.709394991397857666015625">
        <ele>3815.800048828125</ele>
        <time>2023-07-29T14:33:24.000Z</time>
        <extensions>
          <ns3:TrackPointExtension>
            <ns3:hr>116</ns3:hr>
            <ns3:cad>0</ns3:cad>
          </ns3:TrackPointExtension>
        </extensions>
      </trkpt>
      <trkpt lat="37.7676401473581790924072265625" lon="-107.7093840949237346649169921875">
        <ele>3815.800048828125</ele>
        <time>2023-07-29T14:33:25.000Z</time>
        <extensions>
          <ns3:TrackPointExtension>
            <ns3:hr>116</ns3:hr>
            <ns3:cad>0</ns3:cad>
          </ns3:TrackPointExtension>
        </extensions>
      </trkpt>
      <trkpt lat="37.76764936745166778564453125" lon="-107.709374539554119110107421875">
        <ele>3815.800048828125</ele>
        <time>2023-07-29T14:33:26.000Z</time>
        <extensions>
          <ns3:TrackPointExtension>
            <ns3:hr>116</ns3:hr>
            <ns3:cad>0</ns3:cad>
          </ns3:TrackPointExtension>
        </extensions>
      </trkpt>
      <trkpt lat="37.76766252703964710235595703125" lon="-107.70936456508934497833251953125">
        <ele>3816</ele>
        <time>2023-07-29T14:33:27.000Z</time>
        <extensions>
          <ns3:TrackPointExtension>
            <ns3:hr>116</ns3:hr>
            <ns3:cad>0</ns3:cad>
          </ns3:TrackPointExtension>
        </extensions>
      </trkpt>
      <trkpt lat="37.767675183713436126708984375" lon="-107.7093596197664737701416015625">
        <ele>3816.199951171875</ele>
        <time>2023-07-29T14:33:28.000Z</time>
        <extensions>
          <ns3:TrackPointExtension>
            <ns3:hr>116</ns3:hr>
            <ns3:cad>0</ns3:cad>
          </ns3:TrackPointExtension>
        </extensions>
      </trkpt>
      <trkpt lat="37.76768214069306850433349609375" lon="-107.709355093538761138916015625">
        <ele>3816.199951171875</ele>
        <time>2023-07-29T14:33:29.000Z</time>
        <extensions>
          <ns3:TrackPointExtension>
            <ns3:hr>115</ns3:hr>
            <ns3:cad>0</ns3:cad>
          </ns3:TrackPointExtension>
        </extensions>
      </trkpt>
      <trkpt lat="37.767690606415271759033203125" lon="-107.70935031585395336151123046875">
        <ele>3816.39990234375</ele>
        <time>2023-07-29T14:33:30.000Z</time>
        <extensions>
          <ns3:TrackPointExtension>
            <ns3:hr>115</ns3:hr>
            <ns3:cad>0</ns3:cad>
          </ns3:TrackPointExtension>
        </extensions>
      </trkpt>
      <trkpt lat="37.76769974268972873687744140625" lon="-107.70934176631271839141845703125">
        <ele>3816.39990234375</ele>
        <time>2023-07-29T14:33:31.000Z</time>
        <extensions>
          <ns3:TrackPointExtension>
            <ns3:hr>115</ns3:hr>
            <ns3:cad>0</ns3:cad>
          </ns3:TrackPointExtension>
        </extensions>
      </trkpt>
      <trkpt lat="37.76770770549774169921875" lon="-107.70933330059051513671875">
        <ele>3816.60009765625</ele>
        <time>2023-07-29T14:33:32.000Z</time>
        <extensions>
          <ns3:TrackPointExtension>
            <ns3:hr>115</ns3:hr>
            <ns3:cad>0</ns3:cad>
          </ns3:TrackPointExtension>
        </extensions>
      </trkpt>
      <trkpt lat="37.76771550066769123077392578125" lon="-107.70932458341121673583984375">
        <ele>3816.60009765625</ele>
        <time>2023-07-29T14:33:33.000Z</time>
        <extensions>
          <ns3:TrackPointExtension>
            <ns3:hr>115</ns3:hr>
            <ns3:cad>0</ns3:cad>
          </ns3:TrackPointExtension>
        </extensions>
      </trkpt>
      <trkpt lat="37.7677224576473236083984375" lon="-107.709316201508045196533203125">
        <ele>3817</ele>
        <time>2023-07-29T14:33:34.000Z</time>
        <extensions>
          <ns3:TrackPointExtension>
            <ns3:hr>115</ns3:hr>
            <ns3:cad>0</ns3:cad>
          </ns3:TrackPointExtension>
        </extensions>
      </trkpt>
      <trkpt lat="37.76772589422762393951416015625" lon="-107.7093123458325862884521484375">
        <ele>3817</ele>
        <time>2023-07-29T14:33:35.000Z</time>
        <extensions>
          <ns3:TrackPointExtension>
            <ns3:hr>115</ns3:hr>
            <ns3:cad>0</ns3:cad>
          </ns3:TrackPointExtension>
        </extensions>
      </trkpt>
      <trkpt lat="37.76772824116051197052001953125" lon="-107.70930807106196880340576171875">
        <ele>3817</ele>
        <time>2023-07-29T14:33:36.000Z</time>
        <extensions>
          <ns3:TrackPointExtension>
            <ns3:hr>115</ns3:hr>
            <ns3:cad>0</ns3:cad>
          </ns3:TrackPointExtension>
        </extensions>
      </trkpt>
      <trkpt lat="37.76773511432111263275146484375" lon="-107.709298431873321533203125">
        <ele>3817</ele>
        <time>2023-07-29T14:33:37.000Z</time>
        <extensions>
          <ns3:TrackPointExtension>
            <ns3:hr>115</ns3:hr>
            <ns3:cad>0</ns3:cad>
          </ns3:TrackPointExtension>
        </extensions>
      </trkpt>
      <trkpt lat="37.76774056255817413330078125" lon="-107.70928979851305484771728515625">
        <ele>3817.199951171875</ele>
        <time>2023-07-29T14:33:38.000Z</time>
        <extensions>
          <ns3:TrackPointExtension>
            <ns3:hr>115</ns3:hr>
            <ns3:cad>0</ns3:cad>
          </ns3:TrackPointExtension>
        </extensions>
      </trkpt>
      <trkpt lat="37.76774852536618709564208984375" lon="-107.70927387289702892303466796875">
        <ele>3817.199951171875</ele>
        <time>2023-07-29T14:33:39.000Z</time>
        <extensions>
          <ns3:TrackPointExtension>
            <ns3:hr>114</ns3:hr>
            <ns3:cad>0</ns3:cad>
          </ns3:TrackPointExtension>
        </extensions>
      </trkpt>
      <trkpt lat="37.76775305159389972686767578125" lon="-107.709258534014225006103515625">
        <ele>3817.199951171875</ele>
        <time>2023-07-29T14:33:40.000Z</time>
        <extensions>
          <ns3:TrackPointExtension>
            <ns3:hr>114</ns3:hr>
            <ns3:cad>0</ns3:cad>
          </ns3:TrackPointExtension>
        </extensions>
      </trkpt>
      <trkpt lat="37.76775556616485118865966796875" lon="-107.7092473022639751434326171875">
        <ele>3817.39990234375</ele>
        <time>2023-07-29T14:33:41.000Z</time>
        <extensions>
          <ns3:TrackPointExtension>
            <ns3:hr>114</ns3:hr>
            <ns3:cad>0</ns3:cad>
          </ns3:TrackPointExtension>
        </extensions>
      </trkpt>
      <trkpt lat="37.76776193641126155853271484375" lon="-107.70923615433275699615478515625">
        <ele>3817.60009765625</ele>
        <time>2023-07-29T14:33:42.000Z</time>
        <extensions>
          <ns3:TrackPointExtension>
            <ns3:hr>114</ns3:hr>
            <ns3:cad>0</ns3:cad>
          </ns3:TrackPointExtension>
        </extensions>
      </trkpt>
      <trkpt lat="37.76776629500091075897216796875" lon="-107.70922408439218997955322265625">
        <ele>3817.60009765625</ele>
        <time>2023-07-29T14:33:43.000Z</time>
        <extensions>
          <ns3:TrackPointExtension>
            <ns3:hr>114</ns3:hr>
            <ns3:cad>0</ns3:cad>
          </ns3:TrackPointExtension>
        </extensions>
      </trkpt>
      <trkpt lat="37.7677695639431476593017578125" lon="-107.70921721123158931732177734375">
        <ele>3817.60009765625</ele>
        <time>2023-07-29T14:33:44.000Z</time>
        <extensions>
          <ns3:TrackPointExtension>
            <ns3:hr>114</ns3:hr>
            <ns3:cad>0</ns3:cad>
          </ns3:TrackPointExtension>
        </extensions>
      </trkpt>
      <trkpt lat="37.76777333579957485198974609375" lon="-107.70921100862324237823486328125">
        <ele>3817.800048828125</ele>
        <time>2023-07-29T14:33:45.000Z</time>
        <extensions>
          <ns3:TrackPointExtension>
            <ns3:hr>114</ns3:hr>
            <ns3:cad>0</ns3:cad>
          </ns3:TrackPointExtension>
        </extensions>
      </trkpt>
      <trkpt lat="37.767775766551494598388671875" lon="-107.70920665003359317779541015625">
        <ele>3817.800048828125</ele>
        <time>2023-07-29T14:33:46.000Z</time>
        <extensions>
          <ns3:TrackPointExtension>
            <ns3:hr>114</ns3:hr>
            <ns3:cad>0</ns3:cad>
          </ns3:TrackPointExtension>
        </extensions>
      </trkpt>
      <trkpt lat="37.76777786202728748321533203125" lon="-107.70920530892908573150634765625">
        <ele>3818</ele>
        <time>2023-07-29T14:33:47.000Z</time>
        <extensions>
          <ns3:TrackPointExtension>
            <ns3:hr>114</ns3:hr>
            <ns3:cad>0</ns3:cad>
          </ns3:TrackPointExtension>
        </extensions>
      </trkpt>
      <trkpt lat="37.76777786202728748321533203125" lon="-107.7092010341584682464599609375">
        <ele>3818</ele>
        <time>2023-07-29T14:33:48.000Z</time>
        <extensions>
          <ns3:TrackPointExtension>
            <ns3:hr>114</ns3:hr>
            <ns3:cad>0</ns3:cad>
          </ns3:TrackPointExtension>
        </extensions>
      </trkpt>
      <trkpt lat="37.76778439991176128387451171875" lon="-107.709188126027584075927734375">
        <ele>3818</ele>
        <time>2023-07-29T14:33:49.000Z</time>
        <extensions>
          <ns3:TrackPointExtension>
            <ns3:hr>113</ns3:hr>
            <ns3:cad>0</ns3:cad>
          </ns3:TrackPointExtension>
        </extensions>
      </trkpt>
      <trkpt lat="37.7677923627197742462158203125" lon="-107.70917496643960475921630859375">
        <ele>3818.199951171875</ele>
        <time>2023-07-29T14:33:50.000Z</time>
        <extensions>
          <ns3:TrackPointExtension>
            <ns3:hr>113</ns3:hr>
            <ns3:cad>0</ns3:cad>
          </ns3:TrackPointExtension>
        </extensions>
      </trkpt>
      <trkpt lat="37.76780317537486553192138671875" lon="-107.7091597951948642730712890625">
        <ele>3818.199951171875</ele>
        <time>2023-07-29T14:33:51.000Z</time>
        <extensions>
          <ns3:TrackPointExtension>
            <ns3:hr>113</ns3:hr>
            <ns3:cad>0</ns3:cad>
          </ns3:TrackPointExtension>
        </extensions>
      </trkpt>
      <trkpt lat="37.7678118087351322174072265625" lon="-107.70914512686431407928466796875">
        <ele>3818.39990234375</ele>
        <time>2023-07-29T14:33:52.000Z</time>
        <extensions>
          <ns3:TrackPointExtension>
            <ns3:hr>113</ns3:hr>
            <ns3:cad>0</ns3:cad>
          </ns3:TrackPointExtension>
        </extensions>
      </trkpt>
      <trkpt lat="37.76781759224832057952880859375" lon="-107.70913976244628429412841796875">
        <ele>3818.39990234375</ele>
        <time>2023-07-29T14:33:53.000Z</time>
        <extensions>
          <ns3:TrackPointExtension>
            <ns3:hr>112</ns3:hr>
            <ns3:cad>0</ns3:cad>
          </ns3:TrackPointExtension>
        </extensions>
      </trkpt>
      <trkpt lat="37.7678275667130947113037109375" lon="-107.70913188345730304718017578125">
        <ele>3818.39990234375</ele>
        <time>2023-07-29T14:33:54.000Z</time>
        <extensions>
          <ns3:TrackPointExtension>
            <ns3:hr>112</ns3:hr>
            <ns3:cad>0</ns3:cad>
          </ns3:TrackPointExtension>
        </extensions>
      </trkpt>
      <trkpt lat="37.7678319253027439117431640625" lon="-107.70912802778184413909912109375">
        <ele>3818.39990234375</ele>
        <time>2023-07-29T14:33:55.000Z</time>
        <extensions>
          <ns3:TrackPointExtension>
            <ns3:hr>111</ns3:hr>
            <ns3:cad>52</ns3:cad>
          </ns3:TrackPointExtension>
        </extensions>
      </trkpt>
      <trkpt lat="37.76784156449139118194580078125" lon="-107.7091205678880214691162109375">
        <ele>3818.60009765625</ele>
        <time>2023-07-29T14:33:56.000Z</time>
        <extensions>
          <ns3:TrackPointExtension>
            <ns3:hr>111</ns3:hr>
            <ns3:cad>52</ns3:cad>
          </ns3:TrackPointExtension>
        </extensions>
      </trkpt>
      <trkpt lat="37.76785262860357761383056640625" lon="-107.70911126397550106048583984375">
        <ele>3818.60009765625</ele>
        <time>2023-07-29T14:33:57.000Z</time>
        <extensions>
          <ns3:TrackPointExtension>
            <ns3:hr>111</ns3:hr>
            <ns3:cad>52</ns3:cad>
          </ns3:TrackPointExtension>
        </extensions>
      </trkpt>
      <trkpt lat="37.76786352507770061492919921875" lon="-107.7090984396636486053466796875">
        <ele>3818.60009765625</ele>
        <time>2023-07-29T14:33:58.000Z</time>
        <extensions>
          <ns3:TrackPointExtension>
            <ns3:hr>112</ns3:hr>
            <ns3:cad>51</ns3:cad>
          </ns3:TrackPointExtension>
        </extensions>
      </trkpt>
      <trkpt lat="37.767872326076030731201171875" lon="-107.709088213741779327392578125">
        <ele>3818.60009765625</ele>
        <time>2023-07-29T14:33:59.000Z</time>
        <extensions>
          <ns3:TrackPointExtension>
            <ns3:hr>112</ns3:hr>
            <ns3:cad>51</ns3:cad>
          </ns3:TrackPointExtension>
        </extensions>
      </trkpt>
      <trkpt lat="37.76787978596985340118408203125" lon="-107.7090771496295928955078125">
        <ele>3818.800048828125</ele>
        <time>2023-07-29T14:34:00.000Z</time>
        <extensions>
          <ns3:TrackPointExtension>
            <ns3:hr>112</ns3:hr>
            <ns3:cad>51</ns3:cad>
          </ns3:TrackPointExtension>
        </extensions>
      </trkpt>
      <trkpt lat="37.76788766495883464813232421875" lon="-107.7090672589838504791259765625">
        <ele>3818.800048828125</ele>
        <time>2023-07-29T14:34:01.000Z</time>
        <extensions>
          <ns3:TrackPointExtension>
            <ns3:hr>112</ns3:hr>
            <ns3:cad>51</ns3:cad>
          </ns3:TrackPointExtension>
        </extensions>
      </trkpt>
      <trkpt lat="37.76789420284330844879150390625" lon="-107.7090612240135669708251953125">
        <ele>3818.800048828125</ele>
        <time>2023-07-29T14:34:02.000Z</time>
        <extensions>
          <ns3:TrackPointExtension>
            <ns3:hr>113</ns3:hr>
            <ns3:cad>51</ns3:cad>
          </ns3:TrackPointExtension>
        </extensions>
      </trkpt>
      <trkpt lat="37.76790794916450977325439453125" lon="-107.7090474776923656463623046875">
        <ele>3819</ele>
        <time>2023-07-29T14:34:03.000Z</time>
        <extensions>
          <ns3:TrackPointExtension>
            <ns3:hr>113</ns3:hr>
            <ns3:cad>51</ns3:cad>
          </ns3:TrackPointExtension>
        </extensions>
      </trkpt>
      <trkpt lat="37.7679194323718547821044921875" lon="-107.7090360783040523529052734375">
        <ele>3819</ele>
        <time>2023-07-29T14:34:04.000Z</time>
        <extensions>
          <ns3:TrackPointExtension>
            <ns3:hr>113</ns3:hr>
            <ns3:cad>47</ns3:cad>
          </ns3:TrackPointExtension>
        </extensions>
      </trkpt>
      <trkpt lat="37.76792907156050205230712890625" lon="-107.7090253494679927825927734375">
        <ele>3819</ele>
        <time>2023-07-29T14:34:05.000Z</time>
        <extensions>
          <ns3:TrackPointExtension>
            <ns3:hr>113</ns3:hr>
            <ns3:cad>47</ns3:cad>
          </ns3:TrackPointExtension>
        </extensions>
      </trkpt>
      <trkpt lat="37.7679383754730224609375" lon="-107.70901587791740894317626953125">
        <ele>3819.199951171875</ele>
        <time>2023-07-29T14:34:06.000Z</time>
        <extensions>
          <ns3:TrackPointExtension>
            <ns3:hr>113</ns3:hr>
            <ns3:cad>47</ns3:cad>
          </ns3:TrackPointExtension>
        </extensions>
      </trkpt>
      <trkpt lat="37.76795036159455776214599609375" lon="-107.70900447852909564971923828125">
        <ele>3819.199951171875</ele>
        <time>2023-07-29T14:34:07.000Z</time>
        <extensions>
          <ns3:TrackPointExtension>
            <ns3:hr>113</ns3:hr>
            <ns3:cad>47</ns3:cad>
          </ns3:TrackPointExtension>
        </extensions>
      </trkpt>
      <trkpt lat="37.76796394027769565582275390625" lon="-107.70899341441690921783447265625">
        <ele>3819.39990234375</ele>
        <time>2023-07-29T14:34:08.000Z</time>
        <extensions>
          <ns3:TrackPointExtension>
            <ns3:hr>113</ns3:hr>
            <ns3:cad>47</ns3:cad>
          </ns3:TrackPointExtension>
        </extensions>
      </trkpt>
      <trkpt lat="37.7679767645895481109619140625" lon="-107.70898302085697650909423828125">
        <ele>3819.39990234375</ele>
        <time>2023-07-29T14:34:09.000Z</time>
        <extensions>
          <ns3:TrackPointExtension>
            <ns3:hr>113</ns3:hr>
            <ns3:cad>47</ns3:cad>
          </ns3:TrackPointExtension>
        </extensions>
      </trkpt>
      <trkpt lat="37.7679824642837047576904296875" lon="-107.708976566791534423828125">
        <ele>3819.60009765625</ele>
        <time>2023-07-29T14:34:10.000Z</time>
        <extensions>
          <ns3:TrackPointExtension>
            <ns3:hr>112</ns3:hr>
            <ns3:cad>47</ns3:cad>
          </ns3:TrackPointExtension>
        </extensions>
      </trkpt>
      <trkpt lat="37.76798958890140056610107421875" lon="-107.70896726287901401519775390625">
        <ele>3819.60009765625</ele>
        <time>2023-07-29T14:34:11.000Z</time>
        <extensions>
          <ns3:TrackPointExtension>
            <ns3:hr>112</ns3:hr>
            <ns3:cad>47</ns3:cad>
          </ns3:TrackPointExtension>
        </extensions>
      </trkpt>
      <trkpt lat="37.76799646206200122833251953125" lon="-107.70895971916615962982177734375">
        <ele>3819.60009765625</ele>
        <time>2023-07-29T14:34:12.000Z</time>
        <extensions>
          <ns3:TrackPointExtension>
            <ns3:hr>112</ns3:hr>
            <ns3:cad>47</ns3:cad>
          </ns3:TrackPointExtension>
        </extensions>
      </trkpt>
      <trkpt lat="37.7680045925080776214599609375" lon="-107.70895049907267093658447265625">
        <ele>3819.800048828125</ele>
        <time>2023-07-29T14:34:13.000Z</time>
        <extensions>
          <ns3:TrackPointExtension>
            <ns3:hr>112</ns3:hr>
            <ns3:cad>47</ns3:cad>
          </ns3:TrackPointExtension>
        </extensions>
      </trkpt>
      <trkpt lat="37.7680082805454730987548828125" lon="-107.70894370973110198974609375">
        <ele>3819.800048828125</ele>
        <time>2023-07-29T14:34:14.000Z</time>
        <extensions>
          <ns3:TrackPointExtension>
            <ns3:hr>112</ns3:hr>
            <ns3:cad>47</ns3:cad>
          </ns3:TrackPointExtension>
        </extensions>
      </trkpt>
      <trkpt lat="37.7680099569261074066162109375" lon="-107.70893960259854793548583984375">
        <ele>3820</ele>
        <time>2023-07-29T14:34:15.000Z</time>
        <extensions>
          <ns3:TrackPointExtension>
            <ns3:hr>111</ns3:hr>
            <ns3:cad>0</ns3:cad>
          </ns3:TrackPointExtension>
        </extensions>
      </trkpt>
      <trkpt lat="37.7680166624486446380615234375" lon="-107.708931975066661834716796875">
        <ele>3820.199951171875</ele>
        <time>2023-07-29T14:34:16.000Z</time>
        <extensions>
          <ns3:TrackPointExtension>
            <ns3:hr>111</ns3:hr>
            <ns3:cad>0</ns3:cad>
          </ns3:TrackPointExtension>
        </extensions>
      </trkpt>
      <trkpt lat="37.7680253796279430389404296875" lon="-107.7089242637157440185546875">
        <ele>3820.39990234375</ele>
        <time>2023-07-29T14:34:17.000Z</time>
        <extensions>
          <ns3:TrackPointExtension>
            <ns3:hr>111</ns3:hr>
            <ns3:cad>0</ns3:cad>
          </ns3:TrackPointExtension>
        </extensions>
      </trkpt>
      <trkpt lat="37.76803434826433658599853515625" lon="-107.7089167200028896331787109375">
        <ele>3820.39990234375</ele>
        <time>2023-07-29T14:34:18.000Z</time>
        <extensions>
          <ns3:TrackPointExtension>
            <ns3:hr>111</ns3:hr>
            <ns3:cad>0</ns3:cad>
          </ns3:TrackPointExtension>
        </extensions>
      </trkpt>
      <trkpt lat="37.76804055087268352508544921875" lon="-107.7089110203087329864501953125">
        <ele>3820.39990234375</ele>
        <time>2023-07-29T14:34:19.000Z</time>
        <extensions>
          <ns3:TrackPointExtension>
            <ns3:hr>111</ns3:hr>
            <ns3:cad>0</ns3:cad>
          </ns3:TrackPointExtension>
        </extensions>
      </trkpt>
      <trkpt lat="37.76804507710039615631103515625" lon="-107.708906494081020355224609375">
        <ele>3820.60009765625</ele>
        <time>2023-07-29T14:34:20.000Z</time>
        <extensions>
          <ns3:TrackPointExtension>
            <ns3:hr>111</ns3:hr>
            <ns3:cad>0</ns3:cad>
          </ns3:TrackPointExtension>
        </extensions>
      </trkpt>
      <trkpt lat="37.76805379427969455718994140625" lon="-107.7088969387114048004150390625">
        <ele>3820.800048828125</ele>
        <time>2023-07-29T14:34:21.000Z</time>
        <extensions>
          <ns3:TrackPointExtension>
            <ns3:hr>109</ns3:hr>
            <ns3:cad>0</ns3:cad>
          </ns3:TrackPointExtension>
        </extensions>
      </trkpt>
      <trkpt lat="37.7680656127631664276123046875" lon="-107.7088815160095691680908203125">
        <ele>3820.800048828125</ele>
        <time>2023-07-29T14:34:22.000Z</time>
        <extensions>
          <ns3:TrackPointExtension>
            <ns3:hr>109</ns3:hr>
            <ns3:cad>0</ns3:cad>
          </ns3:TrackPointExtension>
        </extensions>
      </trkpt>
      <trkpt lat="37.7680679596960544586181640625" lon="-107.70887757651507854461669921875">
        <ele>3821</ele>
        <time>2023-07-29T14:34:23.000Z</time>
        <extensions>
          <ns3:TrackPointExtension>
            <ns3:hr>109</ns3:hr>
            <ns3:cad>0</ns3:cad>
          </ns3:TrackPointExtension>
        </extensions>
      </trkpt>
      <trkpt lat="37.7680765092372894287109375" lon="-107.7088679373264312744140625">
        <ele>3821.199951171875</ele>
        <time>2023-07-29T14:34:24.000Z</time>
        <extensions>
          <ns3:TrackPointExtension>
            <ns3:hr>109</ns3:hr>
            <ns3:cad>0</ns3:cad>
          </ns3:TrackPointExtension>
        </extensions>
      </trkpt>
      <trkpt lat="37.768082208931446075439453125" lon="-107.70886047743260860443115234375">
        <ele>3821.39990234375</ele>
        <time>2023-07-29T14:34:25.000Z</time>
        <extensions>
          <ns3:TrackPointExtension>
            <ns3:hr>109</ns3:hr>
            <ns3:cad>0</ns3:cad>
          </ns3:TrackPointExtension>
        </extensions>
      </trkpt>
      <trkpt lat="37.76809000410139560699462890625" lon="-107.708853520452976226806640625">
        <ele>3821.39990234375</ele>
        <time>2023-07-29T14:34:26.000Z</time>
        <extensions>
          <ns3:TrackPointExtension>
            <ns3:hr>109</ns3:hr>
            <ns3:cad>0</ns3:cad>
          </ns3:TrackPointExtension>
        </extensions>
      </trkpt>
      <trkpt lat="37.76809922419488430023193359375" lon="-107.7088436298072338104248046875">
        <ele>3821.39990234375</ele>
        <time>2023-07-29T14:34:27.000Z</time>
        <extensions>
          <ns3:TrackPointExtension>
            <ns3:hr>109</ns3:hr>
            <ns3:cad>0</ns3:cad>
          </ns3:TrackPointExtension>
        </extensions>
      </trkpt>
      <trkpt lat="37.7681065164506435394287109375" lon="-107.7088396064937114715576171875">
        <ele>3821.60009765625</ele>
        <time>2023-07-29T14:34:28.000Z</time>
        <extensions>
          <ns3:TrackPointExtension>
            <ns3:hr>109</ns3:hr>
            <ns3:cad>0</ns3:cad>
          </ns3:TrackPointExtension>
        </extensions>
      </trkpt>
      <trkpt lat="37.7681205980479717254638671875" lon="-107.70882946439087390899658203125">
        <ele>3821.60009765625</ele>
        <time>2023-07-29T14:34:29.000Z</time>
        <extensions>
          <ns3:TrackPointExtension>
            <ns3:hr>109</ns3:hr>
            <ns3:cad>0</ns3:cad>
          </ns3:TrackPointExtension>
        </extensions>
      </trkpt>
      <trkpt lat="37.7681314945220947265625" lon="-107.708823345601558685302734375">
        <ele>3821.800048828125</ele>
        <time>2023-07-29T14:34:30.000Z</time>
        <extensions>
          <ns3:TrackPointExtension>
            <ns3:hr>109</ns3:hr>
            <ns3:cad>0</ns3:cad>
          </ns3:TrackPointExtension>
        </extensions>
      </trkpt>
      <trkpt lat="37.76814155280590057373046875" lon="-107.7088188193738460540771484375">
        <ele>3822</ele>
        <time>2023-07-29T14:34:31.000Z</time>
        <extensions>
          <ns3:TrackPointExtension>
            <ns3:hr>109</ns3:hr>
            <ns3:cad>0</ns3:cad>
          </ns3:TrackPointExtension>
        </extensions>
      </trkpt>
      <trkpt lat="37.76815370656549930572509765625" lon="-107.70881496369838714599609375">
        <ele>3822</ele>
        <time>2023-07-29T14:34:32.000Z</time>
        <extensions>
          <ns3:TrackPointExtension>
            <ns3:hr>109</ns3:hr>
            <ns3:cad>0</ns3:cad>
          </ns3:TrackPointExtension>
        </extensions>
      </trkpt>
      <trkpt lat="37.7681611664593219757080078125" lon="-107.70881135948002338409423828125">
        <ele>3822.199951171875</ele>
        <time>2023-07-29T14:34:33.000Z</time>
        <extensions>
          <ns3:TrackPointExtension>
            <ns3:hr>109</ns3:hr>
            <ns3:cad>0</ns3:cad>
          </ns3:TrackPointExtension>
        </extensions>
      </trkpt>
      <trkpt lat="37.76817248202860355377197265625" lon="-107.70880431868135929107666015625">
        <ele>3822.199951171875</ele>
        <time>2023-07-29T14:34:34.000Z</time>
        <extensions>
          <ns3:TrackPointExtension>
            <ns3:hr>109</ns3:hr>
            <ns3:cad>0</ns3:cad>
          </ns3:TrackPointExtension>
        </extensions>
      </trkpt>
      <trkpt lat="37.7681812830269336700439453125" lon="-107.70879744552075862884521484375">
        <ele>3822.199951171875</ele>
        <time>2023-07-29T14:34:35.000Z</time>
        <extensions>
          <ns3:TrackPointExtension>
            <ns3:hr>109</ns3:hr>
            <ns3:cad>0</ns3:cad>
          </ns3:TrackPointExtension>
        </extensions>
      </trkpt>
      <trkpt lat="37.76819729246199131011962890625" lon="-107.70878680050373077392578125">
        <ele>3822.39990234375</ele>
        <time>2023-07-29T14:34:36.000Z</time>
        <extensions>
          <ns3:TrackPointExtension>
            <ns3:hr>109</ns3:hr>
            <ns3:cad>0</ns3:cad>
          </ns3:TrackPointExtension>
        </extensions>
      </trkpt>
      <trkpt lat="37.7682074345648288726806640625" lon="-107.70878034643828868865966796875">
        <ele>3822.39990234375</ele>
        <time>2023-07-29T14:34:37.000Z</time>
        <extensions>
          <ns3:TrackPointExtension>
            <ns3:hr>109</ns3:hr>
            <ns3:cad>0</ns3:cad>
          </ns3:TrackPointExtension>
        </extensions>
      </trkpt>
      <trkpt lat="37.76820994913578033447265625" lon="-107.70877498202025890350341796875">
        <ele>3822.60009765625</ele>
        <time>2023-07-29T14:34:38.000Z</time>
        <extensions>
          <ns3:TrackPointExtension>
            <ns3:hr>109</ns3:hr>
            <ns3:cad>0</ns3:cad>
          </ns3:TrackPointExtension>
        </extensions>
      </trkpt>
      <trkpt lat="37.76821657083928585052490234375" lon="-107.7087681926786899566650390625">
        <ele>3822.800048828125</ele>
        <time>2023-07-29T14:34:39.000Z</time>
        <extensions>
          <ns3:TrackPointExtension>
            <ns3:hr>108</ns3:hr>
            <ns3:cad>0</ns3:cad>
          </ns3:TrackPointExtension>
        </extensions>
      </trkpt>
      <trkpt lat="37.7682225219905376434326171875" lon="-107.7087634988129138946533203125">
        <ele>3822.800048828125</ele>
        <time>2023-07-29T14:34:40.000Z</time>
        <extensions>
          <ns3:TrackPointExtension>
            <ns3:hr>108</ns3:hr>
            <ns3:cad>0</ns3:cad>
          </ns3:TrackPointExtension>
        </extensions>
      </trkpt>
      <trkpt lat="37.7682342566549777984619140625" lon="-107.70875335671007633209228515625">
        <ele>3823</ele>
        <time>2023-07-29T14:34:41.000Z</time>
        <extensions>
          <ns3:TrackPointExtension>
            <ns3:hr>108</ns3:hr>
            <ns3:cad>0</ns3:cad>
          </ns3:TrackPointExtension>
        </extensions>
      </trkpt>
      <trkpt lat="37.768242470920085906982421875" lon="-107.7087437175214290618896484375">
        <ele>3823</ele>
        <time>2023-07-29T14:34:42.000Z</time>
        <extensions>
          <ns3:TrackPointExtension>
            <ns3:hr>107</ns3:hr>
            <ns3:cad>0</ns3:cad>
          </ns3:TrackPointExtension>
        </extensions>
      </trkpt>
      <trkpt lat="37.76824557222425937652587890625" lon="-107.7087380178272724151611328125">
        <ele>3823.199951171875</ele>
        <time>2023-07-29T14:34:43.000Z</time>
        <extensions>
          <ns3:TrackPointExtension>
            <ns3:hr>106</ns3:hr>
            <ns3:cad>0</ns3:cad>
          </ns3:TrackPointExtension>
        </extensions>
      </trkpt>
      <trkpt lat="37.76825487613677978515625" lon="-107.7087289653718471527099609375">
        <ele>3823.199951171875</ele>
        <time>2023-07-29T14:34:44.000Z</time>
        <extensions>
          <ns3:TrackPointExtension>
            <ns3:hr>106</ns3:hr>
            <ns3:cad>0</ns3:cad>
          </ns3:TrackPointExtension>
        </extensions>
      </trkpt>
      <trkpt lat="37.7682588994503021240234375" lon="-107.7087229304015636444091796875">
        <ele>3823.39990234375</ele>
        <time>2023-07-29T14:34:45.000Z</time>
        <extensions>
          <ns3:TrackPointExtension>
            <ns3:hr>105</ns3:hr>
            <ns3:cad>0</ns3:cad>
          </ns3:TrackPointExtension>
        </extensions>
      </trkpt>
      <trkpt lat="37.76826736517250537872314453125" lon="-107.70871144719421863555908203125">
        <ele>3823.60009765625</ele>
        <time>2023-07-29T14:34:46.000Z</time>
        <extensions>
          <ns3:TrackPointExtension>
            <ns3:hr>106</ns3:hr>
            <ns3:cad>0</ns3:cad>
          </ns3:TrackPointExtension>
        </extensions>
      </trkpt>
      <trkpt lat="37.76827122084796428680419921875" lon="-107.7087014727294445037841796875">
        <ele>3823.60009765625</ele>
        <time>2023-07-29T14:34:47.000Z</time>
        <extensions>
          <ns3:TrackPointExtension>
            <ns3:hr>105</ns3:hr>
            <ns3:cad>0</ns3:cad>
          </ns3:TrackPointExtension>
        </extensions>
      </trkpt>
      <trkpt lat="37.76827557943761348724365234375" lon="-107.70869292318820953369140625">
        <ele>3823.60009765625</ele>
        <time>2023-07-29T14:34:48.000Z</time>
        <extensions>
          <ns3:TrackPointExtension>
            <ns3:hr>105</ns3:hr>
            <ns3:cad>0</ns3:cad>
          </ns3:TrackPointExtension>
        </extensions>
      </trkpt>
      <trkpt lat="37.7682815305888652801513671875" lon="-107.7086816914379596710205078125">
        <ele>3823.800048828125</ele>
        <time>2023-07-29T14:34:49.000Z</time>
        <extensions>
          <ns3:TrackPointExtension>
            <ns3:hr>105</ns3:hr>
            <ns3:cad>0</ns3:cad>
          </ns3:TrackPointExtension>
        </extensions>
      </trkpt>
      <trkpt lat="37.7682862244546413421630859375" lon="-107.70867691375315189361572265625">
        <ele>3824</ele>
        <time>2023-07-29T14:34:50.000Z</time>
        <extensions>
          <ns3:TrackPointExtension>
            <ns3:hr>105</ns3:hr>
            <ns3:cad>49</ns3:cad>
          </ns3:TrackPointExtension>
        </extensions>
      </trkpt>
      <trkpt lat="37.76829636655747890472412109375" lon="-107.7086676098406314849853515625">
        <ele>3824.199951171875</ele>
        <time>2023-07-29T14:34:51.000Z</time>
        <extensions>
          <ns3:TrackPointExtension>
            <ns3:hr>105</ns3:hr>
            <ns3:cad>49</ns3:cad>
          </ns3:TrackPointExtension>
        </extensions>
      </trkpt>
      <trkpt lat="37.76830374263226985931396484375" lon="-107.70865612663328647613525390625">
        <ele>3824.199951171875</ele>
        <time>2023-07-29T14:34:52.000Z</time>
        <extensions>
          <ns3:TrackPointExtension>
            <ns3:hr>105</ns3:hr>
            <ns3:cad>0</ns3:cad>
          </ns3:TrackPointExtension>
        </extensions>
      </trkpt>
      <trkpt lat="37.7683056704699993133544921875" lon="-107.70865176804363727569580078125">
        <ele>3824.199951171875</ele>
        <time>2023-07-29T14:34:53.000Z</time>
        <extensions>
          <ns3:TrackPointExtension>
            <ns3:hr>105</ns3:hr>
            <ns3:cad>0</ns3:cad>
          </ns3:TrackPointExtension>
        </extensions>
      </trkpt>
      <trkpt lat="37.7683143876492977142333984375" lon="-107.70864254795014858245849609375">
        <ele>3824.39990234375</ele>
        <time>2023-07-29T14:34:54.000Z</time>
        <extensions>
          <ns3:TrackPointExtension>
            <ns3:hr>105</ns3:hr>
            <ns3:cad>0</ns3:cad>
          </ns3:TrackPointExtension>
        </extensions>
      </trkpt>
      <trkpt lat="37.76832033880054950714111328125" lon="-107.7086364291608333587646484375">
        <ele>3824.39990234375</ele>
        <time>2023-07-29T14:34:55.000Z</time>
        <extensions>
          <ns3:TrackPointExtension>
            <ns3:hr>105</ns3:hr>
            <ns3:cad>47</ns3:cad>
          </ns3:TrackPointExtension>
        </extensions>
      </trkpt>
      <trkpt lat="37.7683355100452899932861328125" lon="-107.7086203359067440032958984375">
        <ele>3824.60009765625</ele>
        <time>2023-07-29T14:34:56.000Z</time>
        <extensions>
          <ns3:TrackPointExtension>
            <ns3:hr>105</ns3:hr>
            <ns3:cad>47</ns3:cad>
          </ns3:TrackPointExtension>
        </extensions>
      </trkpt>
      <trkpt lat="37.76834548451006412506103515625" lon="-107.7086136303842067718505859375">
        <ele>3824.800048828125</ele>
        <time>2023-07-29T14:34:57.000Z</time>
        <extensions>
          <ns3:TrackPointExtension>
            <ns3:hr>105</ns3:hr>
            <ns3:cad>47</ns3:cad>
          </ns3:TrackPointExtension>
        </extensions>
      </trkpt>
      <trkpt lat="37.76835235767066478729248046875" lon="-107.708608768880367279052734375">
        <ele>3824.800048828125</ele>
        <time>2023-07-29T14:34:58.000Z</time>
        <extensions>
          <ns3:TrackPointExtension>
            <ns3:hr>105</ns3:hr>
            <ns3:cad>47</ns3:cad>
          </ns3:TrackPointExtension>
        </extensions>
      </trkpt>
      <trkpt lat="37.76836308650672435760498046875" lon="-107.708600051701068878173828125">
        <ele>3825</ele>
        <time>2023-07-29T14:34:59.000Z</time>
        <extensions>
          <ns3:TrackPointExtension>
            <ns3:hr>106</ns3:hr>
            <ns3:cad>47</ns3:cad>
          </ns3:TrackPointExtension>
        </extensions>
      </trkpt>
      <trkpt lat="37.76837297715246677398681640625" lon="-107.70859502255916595458984375">
        <ele>3825</ele>
        <time>2023-07-29T14:35:00.000Z</time>
        <extensions>
          <ns3:TrackPointExtension>
            <ns3:hr>107</ns3:hr>
            <ns3:cad>0</ns3:cad>
          </ns3:TrackPointExtension>
        </extensions>
      </trkpt>
      <trkpt lat="37.768377922475337982177734375" lon="-107.70858974196016788482666015625">
        <ele>3825.199951171875</ele>
        <time>2023-07-29T14:35:01.000Z</time>
        <extensions>
          <ns3:TrackPointExtension>
            <ns3:hr>107</ns3:hr>
            <ns3:cad>0</ns3:cad>
          </ns3:TrackPointExtension>
        </extensions>
      </trkpt>
      <trkpt lat="37.76838672347366809844970703125" lon="-107.70858068950474262237548828125">
        <ele>3825.199951171875</ele>
        <time>2023-07-29T14:35:02.000Z</time>
        <extensions>
          <ns3:TrackPointExtension>
            <ns3:hr>107</ns3:hr>
            <ns3:cad>0</ns3:cad>
          </ns3:TrackPointExtension>
        </extensions>
      </trkpt>
      <trkpt lat="37.76839644648134708404541015625" lon="-107.7085700444877147674560546875">
        <ele>3825.39990234375</ele>
        <time>2023-07-29T14:35:03.000Z</time>
        <extensions>
          <ns3:TrackPointExtension>
            <ns3:hr>107</ns3:hr>
            <ns3:cad>0</ns3:cad>
          </ns3:TrackPointExtension>
        </extensions>
      </trkpt>
      <trkpt lat="37.7683982066810131072998046875" lon="-107.70856828428804874420166015625">
        <ele>3825.60009765625</ele>
        <time>2023-07-29T14:35:04.000Z</time>
        <extensions>
          <ns3:TrackPointExtension>
            <ns3:hr>107</ns3:hr>
            <ns3:cad>0</ns3:cad>
          </ns3:TrackPointExtension>
        </extensions>
      </trkpt>
      <trkpt lat="37.7684010565280914306640625" lon="-107.708561159670352935791015625">
        <ele>3825.60009765625</ele>
        <time>2023-07-29T14:35:05.000Z</time>
        <extensions>
          <ns3:TrackPointExtension>
            <ns3:hr>107</ns3:hr>
            <ns3:cad>0</ns3:cad>
          </ns3:TrackPointExtension>
        </extensions>
      </trkpt>
      <trkpt lat="37.76840331964194774627685546875" lon="-107.70855554379522800445556640625">
        <ele>3825.800048828125</ele>
        <time>2023-07-29T14:35:06.000Z</time>
        <extensions>
          <ns3:TrackPointExtension>
            <ns3:hr>107</ns3:hr>
            <ns3:cad>0</ns3:cad>
          </ns3:TrackPointExtension>
        </extensions>
      </trkpt>
      <trkpt lat="37.7684116177260875701904296875" lon="-107.708544395864009857177734375">
        <ele>3825.800048828125</ele>
        <time>2023-07-29T14:35:07.000Z</time>
        <extensions>
          <ns3:TrackPointExtension>
            <ns3:hr>107</ns3:hr>
            <ns3:cad>0</ns3:cad>
          </ns3:TrackPointExtension>
        </extensions>
      </trkpt>
      <trkpt lat="37.7684189938008785247802734375" lon="-107.70852939225733280181884765625">
        <ele>3825.800048828125</ele>
        <time>2023-07-29T14:35:08.000Z</time>
        <extensions>
          <ns3:TrackPointExtension>
            <ns3:hr>108</ns3:hr>
            <ns3:cad>0</ns3:cad>
          </ns3:TrackPointExtension>
        </extensions>
      </trkpt>
      <trkpt lat="37.7684246934950351715087890625" lon="-107.70852084271609783172607421875">
        <ele>3826</ele>
        <time>2023-07-29T14:35:09.000Z</time>
        <extensions>
          <ns3:TrackPointExtension>
            <ns3:hr>110</ns3:hr>
            <ns3:cad>0</ns3:cad>
          </ns3:TrackPointExtension>
        </extensions>
      </trkpt>
      <trkpt lat="37.768434248864650726318359375" lon="-107.708506844937801361083984375">
        <ele>3826.199951171875</ele>
        <time>2023-07-29T14:35:10.000Z</time>
        <extensions>
          <ns3:TrackPointExtension>
            <ns3:hr>110</ns3:hr>
            <ns3:cad>0</ns3:cad>
          </ns3:TrackPointExtension>
        </extensions>
      </trkpt>
      <trkpt lat="37.7684374339878559112548828125" lon="-107.70849787630140781402587890625">
        <ele>3826.199951171875</ele>
        <time>2023-07-29T14:35:11.000Z</time>
        <extensions>
          <ns3:TrackPointExtension>
            <ns3:hr>110</ns3:hr>
            <ns3:cad>0</ns3:cad>
          </ns3:TrackPointExtension>
        </extensions>
      </trkpt>
      <trkpt lat="37.7684454806149005889892578125" lon="-107.70848563872277736663818359375">
        <ele>3826.39990234375</ele>
        <time>2023-07-29T14:35:12.000Z</time>
        <extensions>
          <ns3:TrackPointExtension>
            <ns3:hr>110</ns3:hr>
            <ns3:cad>0</ns3:cad>
          </ns3:TrackPointExtension>
        </extensions>
      </trkpt>
      <trkpt lat="37.76845176704227924346923828125" lon="-107.70847088657319545745849609375">
        <ele>3826.39990234375</ele>
        <time>2023-07-29T14:35:13.000Z</time>
        <extensions>
          <ns3:TrackPointExtension>
            <ns3:hr>110</ns3:hr>
            <ns3:cad>0</ns3:cad>
          </ns3:TrackPointExtension>
        </extensions>
      </trkpt>
      <trkpt lat="37.76845746673643589019775390625" lon="-107.70845822989940643310546875">
        <ele>3826.60009765625</ele>
        <time>2023-07-29T14:35:14.000Z</time>
        <extensions>
          <ns3:TrackPointExtension>
            <ns3:hr>110</ns3:hr>
            <ns3:cad>0</ns3:cad>
          </ns3:TrackPointExtension>
        </extensions>
      </trkpt>
      <trkpt lat="37.7684632502496242523193359375" lon="-107.7084496803581714630126953125">
        <ele>3826.60009765625</ele>
        <time>2023-07-29T14:35:15.000Z</time>
        <extensions>
          <ns3:TrackPointExtension>
            <ns3:hr>110</ns3:hr>
            <ns3:cad>0</ns3:cad>
          </ns3:TrackPointExtension>
        </extensions>
      </trkpt>
      <trkpt lat="37.7684652619063854217529296875" lon="-107.70844280719757080078125">
        <ele>3826.800048828125</ele>
        <time>2023-07-29T14:35:16.000Z</time>
        <extensions>
          <ns3:TrackPointExtension>
            <ns3:hr>109</ns3:hr>
            <ns3:cad>0</ns3:cad>
          </ns3:TrackPointExtension>
        </extensions>
      </trkpt>
      <trkpt lat="37.7684719674289226531982421875" lon="-107.70843207836151123046875">
        <ele>3826.800048828125</ele>
        <time>2023-07-29T14:35:17.000Z</time>
        <extensions>
          <ns3:TrackPointExtension>
            <ns3:hr>109</ns3:hr>
            <ns3:cad>0</ns3:cad>
          </ns3:TrackPointExtension>
        </extensions>
      </trkpt>
      <trkpt lat="37.768477499485015869140625" lon="-107.70842277444899082183837890625">
        <ele>3826.800048828125</ele>
        <time>2023-07-29T14:35:18.000Z</time>
        <extensions>
          <ns3:TrackPointExtension>
            <ns3:hr>109</ns3:hr>
            <ns3:cad>46</ns3:cad>
          </ns3:TrackPointExtension>
        </extensions>
      </trkpt>
      <trkpt lat="37.7684823609888553619384765625" lon="-107.70841422490775585174560546875">
        <ele>3826.800048828125</ele>
        <time>2023-07-29T14:35:19.000Z</time>
        <extensions>
          <ns3:TrackPointExtension>
            <ns3:hr>108</ns3:hr>
            <ns3:cad>49</ns3:cad>
          </ns3:TrackPointExtension>
        </extensions>
      </trkpt>
      <trkpt lat="37.76849065907299518585205078125" lon="-107.70840517245233058929443359375">
        <ele>3826.800048828125</ele>
        <time>2023-07-29T14:35:20.000Z</time>
        <extensions>
          <ns3:TrackPointExtension>
            <ns3:hr>106</ns3:hr>
            <ns3:cad>49</ns3:cad>
          </ns3:TrackPointExtension>
        </extensions>
      </trkpt>
      <trkpt lat="37.7684954367578029632568359375" lon="-107.70840031094849109649658203125">
        <ele>3826.800048828125</ele>
        <time>2023-07-29T14:35:21.000Z</time>
        <extensions>
          <ns3:TrackPointExtension>
            <ns3:hr>106</ns3:hr>
            <ns3:cad>48</ns3:cad>
          </ns3:TrackPointExtension>
        </extensions>
      </trkpt>
      <trkpt lat="37.76850407011806964874267578125" lon="-107.70839360542595386505126953125">
        <ele>3826.800048828125</ele>
        <time>2023-07-29T14:35:22.000Z</time>
        <extensions>
          <ns3:TrackPointExtension>
            <ns3:hr>106</ns3:hr>
            <ns3:cad>48</ns3:cad>
          </ns3:TrackPointExtension>
        </extensions>
      </trkpt>
      <trkpt lat="37.7685168944299221038818359375" lon="-107.7083878219127655029296875">
        <ele>3826.800048828125</ele>
        <time>2023-07-29T14:35:23.000Z</time>
        <extensions>
          <ns3:TrackPointExtension>
            <ns3:hr>106</ns3:hr>
            <ns3:cad>48</ns3:cad>
          </ns3:TrackPointExtension>
        </extensions>
      </trkpt>
      <trkpt lat="37.76852468959987163543701171875" lon="-107.70838572643697261810302734375">
        <ele>3826.800048828125</ele>
        <time>2023-07-29T14:35:24.000Z</time>
        <extensions>
          <ns3:TrackPointExtension>
            <ns3:hr>106</ns3:hr>
            <ns3:cad>49</ns3:cad>
          </ns3:TrackPointExtension>
        </extensions>
      </trkpt>
      <trkpt lat="37.7685336582362651824951171875" lon="-107.70838354714214801788330078125">
        <ele>3826.800048828125</ele>
        <time>2023-07-29T14:35:25.000Z</time>
        <extensions>
          <ns3:TrackPointExtension>
            <ns3:hr>106</ns3:hr>
            <ns3:cad>49</ns3:cad>
          </ns3:TrackPointExtension>
        </extensions>
      </trkpt>
      <trkpt lat="37.76854329742491245269775390625" lon="-107.7083799429237842559814453125">
        <ele>3826.800048828125</ele>
        <time>2023-07-29T14:35:26.000Z</time>
        <extensions>
          <ns3:TrackPointExtension>
            <ns3:hr>106</ns3:hr>
            <ns3:cad>49</ns3:cad>
          </ns3:TrackPointExtension>
        </extensions>
      </trkpt>
      <trkpt lat="37.7685539424419403076171875" lon="-107.70837482996284961700439453125">
        <ele>3827</ele>
        <time>2023-07-29T14:35:27.000Z</time>
        <extensions>
          <ns3:TrackPointExtension>
            <ns3:hr>105</ns3:hr>
            <ns3:cad>50</ns3:cad>
          </ns3:TrackPointExtension>
        </extensions>
      </trkpt>
      <trkpt lat="37.76856726966798305511474609375" lon="-107.70836963318288326263427734375">
        <ele>3827</ele>
        <time>2023-07-29T14:35:28.000Z</time>
        <extensions>
          <ns3:TrackPointExtension>
            <ns3:hr>105</ns3:hr>
            <ns3:cad>50</ns3:cad>
          </ns3:TrackPointExtension>
        </extensions>
      </trkpt>
      <trkpt lat="37.76857414282858371734619140625" lon="-107.70836426876485347747802734375">
        <ele>3827</ele>
        <time>2023-07-29T14:35:29.000Z</time>
        <extensions>
          <ns3:TrackPointExtension>
            <ns3:hr>105</ns3:hr>
            <ns3:cad>49</ns3:cad>
          </ns3:TrackPointExtension>
        </extensions>
      </trkpt>
      <trkpt lat="37.76858151890337467193603515625" lon="-107.7083581499755382537841796875">
        <ele>3827.199951171875</ele>
        <time>2023-07-29T14:35:30.000Z</time>
        <extensions>
          <ns3:TrackPointExtension>
            <ns3:hr>104</ns3:hr>
            <ns3:cad>48</ns3:cad>
          </ns3:TrackPointExtension>
        </extensions>
      </trkpt>
      <trkpt lat="37.768583782017230987548828125" lon="-107.708354629576206207275390625">
        <ele>3827.199951171875</ele>
        <time>2023-07-29T14:35:31.000Z</time>
        <extensions>
          <ns3:TrackPointExtension>
            <ns3:hr>104</ns3:hr>
            <ns3:cad>48</ns3:cad>
          </ns3:TrackPointExtension>
        </extensions>
      </trkpt>
      <trkpt lat="37.768592499196529388427734375" lon="-107.70834851078689098358154296875">
        <ele>3827.199951171875</ele>
        <time>2023-07-29T14:35:32.000Z</time>
        <extensions>
          <ns3:TrackPointExtension>
            <ns3:hr>104</ns3:hr>
            <ns3:cad>48</ns3:cad>
          </ns3:TrackPointExtension>
        </extensions>
      </trkpt>
      <trkpt lat="37.76860163547098636627197265625" lon="-107.7083408832550048828125">
        <ele>3827.199951171875</ele>
        <time>2023-07-29T14:35:33.000Z</time>
        <extensions>
          <ns3:TrackPointExtension>
            <ns3:hr>104</ns3:hr>
            <ns3:cad>48</ns3:cad>
          </ns3:TrackPointExtension>
        </extensions>
      </trkpt>
      <trkpt lat="37.7686087600886821746826171875" lon="-107.70833828486502170562744140625">
        <ele>3827.199951171875</ele>
        <time>2023-07-29T14:35:34.000Z</time>
        <extensions>
          <ns3:TrackPointExtension>
            <ns3:hr>104</ns3:hr>
            <ns3:cad>49</ns3:cad>
          </ns3:TrackPointExtension>
        </extensions>
      </trkpt>
      <trkpt lat="37.76861898601055145263671875" lon="-107.70833174698054790496826171875">
        <ele>3827.199951171875</ele>
        <time>2023-07-29T14:35:35.000Z</time>
        <extensions>
          <ns3:TrackPointExtension>
            <ns3:hr>103</ns3:hr>
            <ns3:cad>49</ns3:cad>
          </ns3:TrackPointExtension>
        </extensions>
      </trkpt>
      <trkpt lat="37.76862678118050098419189453125" lon="-107.7083256281912326812744140625">
        <ele>3827.60009765625</ele>
        <time>2023-07-29T14:35:36.000Z</time>
        <extensions>
          <ns3:TrackPointExtension>
            <ns3:hr>103</ns3:hr>
            <ns3:cad>49</ns3:cad>
          </ns3:TrackPointExtension>
        </extensions>
      </trkpt>
      <trkpt lat="37.768640108406543731689453125" lon="-107.70831665955483913421630859375">
        <ele>3827.60009765625</ele>
        <time>2023-07-29T14:35:37.000Z</time>
        <extensions>
          <ns3:TrackPointExtension>
            <ns3:hr>103</ns3:hr>
            <ns3:cad>49</ns3:cad>
          </ns3:TrackPointExtension>
        </extensions>
      </trkpt>
      <trkpt lat="37.76865326799452304840087890625" lon="-107.70830442197620868682861328125">
        <ele>3827.800048828125</ele>
        <time>2023-07-29T14:35:38.000Z</time>
        <extensions>
          <ns3:TrackPointExtension>
            <ns3:hr>103</ns3:hr>
            <ns3:cad>49</ns3:cad>
          </ns3:TrackPointExtension>
        </extensions>
      </trkpt>
      <trkpt lat="37.7686587162315845489501953125" lon="-107.70829587243497371673583984375">
        <ele>3827.800048828125</ele>
        <time>2023-07-29T14:35:39.000Z</time>
        <extensions>
          <ns3:TrackPointExtension>
            <ns3:hr>104</ns3:hr>
            <ns3:cad>49</ns3:cad>
          </ns3:TrackPointExtension>
        </extensions>
      </trkpt>
      <trkpt lat="37.76866592466831207275390625" lon="-107.7082837186753749847412109375">
        <ele>3828</ele>
        <time>2023-07-29T14:35:40.000Z</time>
        <extensions>
          <ns3:TrackPointExtension>
            <ns3:hr>104</ns3:hr>
            <ns3:cad>49</ns3:cad>
          </ns3:TrackPointExtension>
        </extensions>
      </trkpt>
      <trkpt lat="37.7686746418476104736328125" lon="-107.70827475003898143768310546875">
        <ele>3828</ele>
        <time>2023-07-29T14:35:41.000Z</time>
        <extensions>
          <ns3:TrackPointExtension>
            <ns3:hr>106</ns3:hr>
            <ns3:cad>49</ns3:cad>
          </ns3:TrackPointExtension>
        </extensions>
      </trkpt>
      <trkpt lat="37.76868629269301891326904296875" lon="-107.70826041698455810546875">
        <ele>3828.199951171875</ele>
        <time>2023-07-29T14:35:42.000Z</time>
        <extensions>
          <ns3:TrackPointExtension>
            <ns3:hr>109</ns3:hr>
            <ns3:cad>49</ns3:cad>
          </ns3:TrackPointExtension>
        </extensions>
      </trkpt>
      <trkpt lat="37.76869584806263446807861328125" lon="-107.70824809558689594268798828125">
        <ele>3828.199951171875</ele>
        <time>2023-07-29T14:35:43.000Z</time>
        <extensions>
          <ns3:TrackPointExtension>
            <ns3:hr>113</ns3:hr>
            <ns3:cad>0</ns3:cad>
          </ns3:TrackPointExtension>
        </extensions>
      </trkpt>
      <trkpt lat="37.76870070956647396087646484375" lon="-107.70824055187404155731201171875">
        <ele>3828.199951171875</ele>
        <time>2023-07-29T14:35:44.000Z</time>
        <extensions>
          <ns3:TrackPointExtension>
            <ns3:hr>114</ns3:hr>
            <ns3:cad>0</ns3:cad>
          </ns3:TrackPointExtension>
        </extensions>
      </trkpt>
      <trkpt lat="37.7687108516693115234375" lon="-107.708229236304759979248046875">
        <ele>3828.199951171875</ele>
        <time>2023-07-29T14:35:45.000Z</time>
        <extensions>
          <ns3:TrackPointExtension>
            <ns3:hr>114</ns3:hr>
            <ns3:cad>0</ns3:cad>
          </ns3:TrackPointExtension>
        </extensions>
      </trkpt>
      <trkpt lat="37.76871529407799243927001953125" lon="-107.708225548267364501953125">
        <ele>3828.199951171875</ele>
        <time>2023-07-29T14:35:46.000Z</time>
        <extensions>
          <ns3:TrackPointExtension>
            <ns3:hr>115</ns3:hr>
            <ns3:cad>0</ns3:cad>
          </ns3:TrackPointExtension>
        </extensions>
      </trkpt>
      <trkpt lat="37.7687229216098785400390625" lon="-107.7082190103828907012939453125">
        <ele>3828.199951171875</ele>
        <time>2023-07-29T14:35:47.000Z</time>
        <extensions>
          <ns3:TrackPointExtension>
            <ns3:hr>115</ns3:hr>
            <ns3:cad>0</ns3:cad>
          </ns3:TrackPointExtension>
        </extensions>
      </trkpt>
      <trkpt lat="37.76873021386563777923583984375" lon="-107.70821104757487773895263671875">
        <ele>3828.199951171875</ele>
        <time>2023-07-29T14:35:48.000Z</time>
        <extensions>
          <ns3:TrackPointExtension>
            <ns3:hr>116</ns3:hr>
            <ns3:cad>0</ns3:cad>
          </ns3:TrackPointExtension>
        </extensions>
      </trkpt>
      <trkpt lat="37.76873423717916011810302734375" lon="-107.70820735953748226165771484375">
        <ele>3828.39990234375</ele>
        <time>2023-07-29T14:35:49.000Z</time>
        <extensions>
          <ns3:TrackPointExtension>
            <ns3:hr>116</ns3:hr>
            <ns3:cad>0</ns3:cad>
          </ns3:TrackPointExtension>
        </extensions>
      </trkpt>
      <trkpt lat="37.7687415294349193572998046875" lon="-107.70820098929107189178466796875">
        <ele>3828.39990234375</ele>
        <time>2023-07-29T14:35:50.000Z</time>
        <extensions>
          <ns3:TrackPointExtension>
            <ns3:hr>117</ns3:hr>
            <ns3:cad>0</ns3:cad>
          </ns3:TrackPointExtension>
        </extensions>
      </trkpt>
      <trkpt lat="37.76875066570937633514404296875" lon="-107.708193361759185791015625">
        <ele>3828.60009765625</ele>
        <time>2023-07-29T14:35:51.000Z</time>
        <extensions>
          <ns3:TrackPointExtension>
            <ns3:hr>117</ns3:hr>
            <ns3:cad>0</ns3:cad>
          </ns3:TrackPointExtension>
        </extensions>
      </trkpt>
      <trkpt lat="37.76875837706029415130615234375" lon="-107.70818724296987056732177734375">
        <ele>3828.800048828125</ele>
        <time>2023-07-29T14:35:52.000Z</time>
        <extensions>
          <ns3:TrackPointExtension>
            <ns3:hr>117</ns3:hr>
            <ns3:cad>0</ns3:cad>
          </ns3:TrackPointExtension>
        </extensions>
      </trkpt>
      <trkpt lat="37.768768183887004852294921875" lon="-107.70817718468606472015380859375">
        <ele>3828.800048828125</ele>
        <time>2023-07-29T14:35:53.000Z</time>
        <extensions>
          <ns3:TrackPointExtension>
            <ns3:hr>117</ns3:hr>
            <ns3:cad>0</ns3:cad>
          </ns3:TrackPointExtension>
        </extensions>
      </trkpt>
      <trkpt lat="37.7687770687043666839599609375" lon="-107.70816989243030548095703125">
        <ele>3829</ele>
        <time>2023-07-29T14:35:54.000Z</time>
        <extensions>
          <ns3:TrackPointExtension>
            <ns3:hr>116</ns3:hr>
            <ns3:cad>69</ns3:cad>
          </ns3:TrackPointExtension>
        </extensions>
      </trkpt>
      <trkpt lat="37.76878922246396541595458984375" lon="-107.70815874449908733367919921875">
        <ele>3829.199951171875</ele>
        <time>2023-07-29T14:35:55.000Z</time>
        <extensions>
          <ns3:TrackPointExtension>
            <ns3:hr>116</ns3:hr>
            <ns3:cad>69</ns3:cad>
          </ns3:TrackPointExtension>
        </extensions>
      </trkpt>
      <trkpt lat="37.768801040947437286376953125" lon="-107.70815053023397922515869140625">
        <ele>3829.39990234375</ele>
        <time>2023-07-29T14:35:56.000Z</time>
        <extensions>
          <ns3:TrackPointExtension>
            <ns3:hr>116</ns3:hr>
            <ns3:cad>69</ns3:cad>
          </ns3:TrackPointExtension>
        </extensions>
      </trkpt>
      <trkpt lat="37.768809087574481964111328125" lon="-107.70814307034015655517578125">
        <ele>3829.39990234375</ele>
        <time>2023-07-29T14:35:57.000Z</time>
        <extensions>
          <ns3:TrackPointExtension>
            <ns3:hr>116</ns3:hr>
            <ns3:cad>69</ns3:cad>
          </ns3:TrackPointExtension>
        </extensions>
      </trkpt>
      <trkpt lat="37.76881453581154346466064453125" lon="-107.7081355266273021697998046875">
        <ele>3829.60009765625</ele>
        <time>2023-07-29T14:35:58.000Z</time>
        <extensions>
          <ns3:TrackPointExtension>
            <ns3:hr>116</ns3:hr>
            <ns3:cad>69</ns3:cad>
          </ns3:TrackPointExtension>
        </extensions>
      </trkpt>
      <trkpt lat="37.76881906203925609588623046875" lon="-107.70812789909541606903076171875">
        <ele>3829.60009765625</ele>
        <time>2023-07-29T14:35:59.000Z</time>
        <extensions>
          <ns3:TrackPointExtension>
            <ns3:hr>116</ns3:hr>
            <ns3:cad>69</ns3:cad>
          </ns3:TrackPointExtension>
        </extensions>
      </trkpt>
      <trkpt lat="37.76882643811404705047607421875" lon="-107.7081184275448322296142578125">
        <ele>3829.60009765625</ele>
        <time>2023-07-29T14:36:00.000Z</time>
        <extensions>
          <ns3:TrackPointExtension>
            <ns3:hr>116</ns3:hr>
            <ns3:cad>69</ns3:cad>
          </ns3:TrackPointExtension>
        </extensions>
      </trkpt>
      <trkpt lat="37.76883347891271114349365234375" lon="-107.7081076987087726593017578125">
        <ele>3829.800048828125</ele>
        <time>2023-07-29T14:36:01.000Z</time>
        <extensions>
          <ns3:TrackPointExtension>
            <ns3:hr>116</ns3:hr>
            <ns3:cad>69</ns3:cad>
          </ns3:TrackPointExtension>
        </extensions>
      </trkpt>
      <trkpt lat="37.76884001679718494415283203125" lon="-107.7081019990146160125732421875">
        <ele>3830</ele>
        <time>2023-07-29T14:36:02.000Z</time>
        <extensions>
          <ns3:TrackPointExtension>
            <ns3:hr>115</ns3:hr>
            <ns3:cad>47</ns3:cad>
          </ns3:TrackPointExtension>
        </extensions>
      </trkpt>
      <trkpt lat="37.76884504593908786773681640625" lon="-107.70809856243431568145751953125">
        <ele>3830.199951171875</ele>
        <time>2023-07-29T14:36:03.000Z</time>
        <extensions>
          <ns3:TrackPointExtension>
            <ns3:hr>115</ns3:hr>
            <ns3:cad>45</ns3:cad>
          </ns3:TrackPointExtension>
        </extensions>
      </trkpt>
      <trkpt lat="37.76885007508099079132080078125" lon="-107.70809604786336421966552734375">
        <ele>3830.199951171875</ele>
        <time>2023-07-29T14:36:04.000Z</time>
        <extensions>
          <ns3:TrackPointExtension>
            <ns3:hr>114</ns3:hr>
            <ns3:cad>45</ns3:cad>
          </ns3:TrackPointExtension>
        </extensions>
      </trkpt>
      <trkpt lat="37.768859378993511199951171875" lon="-107.708090431988239288330078125">
        <ele>3830.199951171875</ele>
        <time>2023-07-29T14:36:05.000Z</time>
        <extensions>
          <ns3:TrackPointExtension>
            <ns3:hr>113</ns3:hr>
            <ns3:cad>45</ns3:cad>
          </ns3:TrackPointExtension>
        </extensions>
      </trkpt>
      <trkpt lat="37.76886918582022190093994140625" lon="-107.70808163098990917205810546875">
        <ele>3830.39990234375</ele>
        <time>2023-07-29T14:36:06.000Z</time>
        <extensions>
          <ns3:TrackPointExtension>
            <ns3:hr>112</ns3:hr>
            <ns3:cad>45</ns3:cad>
          </ns3:TrackPointExtension>
        </extensions>
      </trkpt>
      <trkpt lat="37.768874801695346832275390625" lon="-107.70807978697121143341064453125">
        <ele>3830.39990234375</ele>
        <time>2023-07-29T14:36:07.000Z</time>
        <extensions>
          <ns3:TrackPointExtension>
            <ns3:hr>111</ns3:hr>
            <ns3:cad>0</ns3:cad>
          </ns3:TrackPointExtension>
        </extensions>
      </trkpt>
      <trkpt lat="37.768885195255279541015625" lon="-107.70807391963899135589599609375">
        <ele>3830.39990234375</ele>
        <time>2023-07-29T14:36:08.000Z</time>
        <extensions>
          <ns3:TrackPointExtension>
            <ns3:hr>111</ns3:hr>
            <ns3:cad>0</ns3:cad>
          </ns3:TrackPointExtension>
        </extensions>
      </trkpt>
      <trkpt lat="37.76889164932072162628173828125" lon="-107.70806704647839069366455078125">
        <ele>3830.60009765625</ele>
        <time>2023-07-29T14:36:09.000Z</time>
        <extensions>
          <ns3:TrackPointExtension>
            <ns3:hr>109</ns3:hr>
            <ns3:cad>0</ns3:cad>
          </ns3:TrackPointExtension>
        </extensions>
      </trkpt>
      <trkpt lat="37.76889659464359283447265625" lon="-107.70806268788874149322509765625">
        <ele>3830.800048828125</ele>
        <time>2023-07-29T14:36:10.000Z</time>
        <extensions>
          <ns3:TrackPointExtension>
            <ns3:hr>109</ns3:hr>
            <ns3:cad>0</ns3:cad>
          </ns3:TrackPointExtension>
        </extensions>
      </trkpt>
      <trkpt lat="37.7689048089087009429931640625" lon="-107.70805497653782367706298828125">
        <ele>3830.800048828125</ele>
        <time>2023-07-29T14:36:11.000Z</time>
        <extensions>
          <ns3:TrackPointExtension>
            <ns3:hr>108</ns3:hr>
            <ns3:cad>0</ns3:cad>
          </ns3:TrackPointExtension>
        </extensions>
      </trkpt>
      <trkpt lat="37.7689111791551113128662109375" lon="-107.7080496959388256072998046875">
        <ele>3831</ele>
        <time>2023-07-29T14:36:12.000Z</time>
        <extensions>
          <ns3:TrackPointExtension>
            <ns3:hr>108</ns3:hr>
            <ns3:cad>0</ns3:cad>
          </ns3:TrackPointExtension>
        </extensions>
      </trkpt>
      <trkpt lat="37.76892383582890033721923828125" lon="-107.70804039202630519866943359375">
        <ele>3831.199951171875</ele>
        <time>2023-07-29T14:36:13.000Z</time>
        <extensions>
          <ns3:TrackPointExtension>
            <ns3:hr>108</ns3:hr>
            <ns3:cad>0</ns3:cad>
          </ns3:TrackPointExtension>
        </extensions>
      </trkpt>
      <trkpt lat="37.76893322356045246124267578125" lon="-107.708031423389911651611328125">
        <ele>3831.199951171875</ele>
        <time>2023-07-29T14:36:14.000Z</time>
        <extensions>
          <ns3:TrackPointExtension>
            <ns3:hr>107</ns3:hr>
            <ns3:cad>0</ns3:cad>
          </ns3:TrackPointExtension>
        </extensions>
      </trkpt>
      <trkpt lat="37.768943198025226593017578125" lon="-107.708023376762866973876953125">
        <ele>3831.199951171875</ele>
        <time>2023-07-29T14:36:15.000Z</time>
        <extensions>
          <ns3:TrackPointExtension>
            <ns3:hr>107</ns3:hr>
            <ns3:cad>0</ns3:cad>
          </ns3:TrackPointExtension>
        </extensions>
      </trkpt>
      <trkpt lat="37.76895451359450817108154296875" lon="-107.70801122300326824188232421875">
        <ele>3831.39990234375</ele>
        <time>2023-07-29T14:36:16.000Z</time>
        <extensions>
          <ns3:TrackPointExtension>
            <ns3:hr>107</ns3:hr>
            <ns3:cad>45</ns3:cad>
          </ns3:TrackPointExtension>
        </extensions>
      </trkpt>
      <trkpt lat="37.7689715288579463958740234375" lon="-107.70799982361495494842529296875">
        <ele>3831.39990234375</ele>
        <time>2023-07-29T14:36:17.000Z</time>
        <extensions>
          <ns3:TrackPointExtension>
            <ns3:hr>108</ns3:hr>
            <ns3:cad>45</ns3:cad>
          </ns3:TrackPointExtension>
        </extensions>
      </trkpt>
      <trkpt lat="37.76897907257080078125" lon="-107.7079943753778934478759765625">
        <ele>3831.39990234375</ele>
        <time>2023-07-29T14:36:18.000Z</time>
        <extensions>
          <ns3:TrackPointExtension>
            <ns3:hr>108</ns3:hr>
            <ns3:cad>45</ns3:cad>
          </ns3:TrackPointExtension>
        </extensions>
      </trkpt>
      <trkpt lat="37.76899239979684352874755859375" lon="-107.7079846523702144622802734375">
        <ele>3831.60009765625</ele>
        <time>2023-07-29T14:36:19.000Z</time>
        <extensions>
          <ns3:TrackPointExtension>
            <ns3:hr>108</ns3:hr>
            <ns3:cad>45</ns3:cad>
          </ns3:TrackPointExtension>
        </extensions>
      </trkpt>
      <trkpt lat="37.76899944059550762176513671875" lon="-107.70798213779926300048828125">
        <ele>3831.60009765625</ele>
        <time>2023-07-29T14:36:20.000Z</time>
        <extensions>
          <ns3:TrackPointExtension>
            <ns3:hr>108</ns3:hr>
            <ns3:cad>0</ns3:cad>
          </ns3:TrackPointExtension>
        </extensions>
      </trkpt>
      <trkpt lat="37.7690080739557743072509765625" lon="-107.7079769410192966461181640625">
        <ele>3831.800048828125</ele>
        <time>2023-07-29T14:36:21.000Z</time>
        <extensions>
          <ns3:TrackPointExtension>
            <ns3:hr>109</ns3:hr>
            <ns3:cad>0</ns3:cad>
          </ns3:TrackPointExtension>
        </extensions>
      </trkpt>
      <trkpt lat="37.76901335455477237701416015625" lon="-107.70797568373382091522216796875">
        <ele>3831.800048828125</ele>
        <time>2023-07-29T14:36:22.000Z</time>
        <extensions>
          <ns3:TrackPointExtension>
            <ns3:hr>109</ns3:hr>
            <ns3:cad>0</ns3:cad>
          </ns3:TrackPointExtension>
        </extensions>
      </trkpt>
      <trkpt lat="37.769020311534404754638671875" lon="-107.70797082222998142242431640625">
        <ele>3832</ele>
        <time>2023-07-29T14:36:23.000Z</time>
        <extensions>
          <ns3:TrackPointExtension>
            <ns3:hr>109</ns3:hr>
            <ns3:cad>0</ns3:cad>
          </ns3:TrackPointExtension>
        </extensions>
      </trkpt>
      <trkpt lat="37.7690278552472591400146484375" lon="-107.70796411670744419097900390625">
        <ele>3832</ele>
        <time>2023-07-29T14:36:24.000Z</time>
        <extensions>
          <ns3:TrackPointExtension>
            <ns3:hr>109</ns3:hr>
            <ns3:cad>0</ns3:cad>
          </ns3:TrackPointExtension>
        </extensions>
      </trkpt>
      <trkpt lat="37.7690322138369083404541015625" lon="-107.7079608477652072906494140625">
        <ele>3832.199951171875</ele>
        <time>2023-07-29T14:36:25.000Z</time>
        <extensions>
          <ns3:TrackPointExtension>
            <ns3:hr>109</ns3:hr>
            <ns3:cad>0</ns3:cad>
          </ns3:TrackPointExtension>
        </extensions>
      </trkpt>
      <trkpt lat="37.7690375782549381256103515625" lon="-107.70795389078557491302490234375">
        <ele>3832.199951171875</ele>
        <time>2023-07-29T14:36:26.000Z</time>
        <extensions>
          <ns3:TrackPointExtension>
            <ns3:hr>109</ns3:hr>
            <ns3:cad>0</ns3:cad>
          </ns3:TrackPointExtension>
        </extensions>
      </trkpt>
      <trkpt lat="37.7690442837774753570556640625" lon="-107.7079450897872447967529296875">
        <ele>3832.39990234375</ele>
        <time>2023-07-29T14:36:27.000Z</time>
        <extensions>
          <ns3:TrackPointExtension>
            <ns3:hr>110</ns3:hr>
            <ns3:cad>0</ns3:cad>
          </ns3:TrackPointExtension>
        </extensions>
      </trkpt>
      <trkpt lat="37.76905995793640613555908203125" lon="-107.70793628878891468048095703125">
        <ele>3832.39990234375</ele>
        <time>2023-07-29T14:36:28.000Z</time>
        <extensions>
          <ns3:TrackPointExtension>
            <ns3:hr>110</ns3:hr>
            <ns3:cad>0</ns3:cad>
          </ns3:TrackPointExtension>
        </extensions>
      </trkpt>
      <trkpt lat="37.7690707705914974212646484375" lon="-107.70792773924767971038818359375">
        <ele>3832.39990234375</ele>
        <time>2023-07-29T14:36:29.000Z</time>
        <extensions>
          <ns3:TrackPointExtension>
            <ns3:hr>111</ns3:hr>
            <ns3:cad>0</ns3:cad>
          </ns3:TrackPointExtension>
        </extensions>
      </trkpt>
      <trkpt lat="37.76907672174274921417236328125" lon="-107.707924805581569671630859375">
        <ele>3832.60009765625</ele>
        <time>2023-07-29T14:36:30.000Z</time>
        <extensions>
          <ns3:TrackPointExtension>
            <ns3:hr>111</ns3:hr>
            <ns3:cad>0</ns3:cad>
          </ns3:TrackPointExtension>
        </extensions>
      </trkpt>
      <trkpt lat="37.769084684550762176513671875" lon="-107.7079202793538570404052734375">
        <ele>3832.800048828125</ele>
        <time>2023-07-29T14:36:31.000Z</time>
        <extensions>
          <ns3:TrackPointExtension>
            <ns3:hr>111</ns3:hr>
            <ns3:cad>0</ns3:cad>
          </ns3:TrackPointExtension>
        </extensions>
      </trkpt>
      <trkpt lat="37.76909281499683856964111328125" lon="-107.70791449584066867828369140625">
        <ele>3832.800048828125</ele>
        <time>2023-07-29T14:36:32.000Z</time>
        <extensions>
          <ns3:TrackPointExtension>
            <ns3:hr>111</ns3:hr>
            <ns3:cad>0</ns3:cad>
          </ns3:TrackPointExtension>
        </extensions>
      </trkpt>
      <trkpt lat="37.769099771976470947265625" lon="-107.70791147835552692413330078125">
        <ele>3833</ele>
        <time>2023-07-29T14:36:33.000Z</time>
        <extensions>
          <ns3:TrackPointExtension>
            <ns3:hr>112</ns3:hr>
            <ns3:cad>0</ns3:cad>
          </ns3:TrackPointExtension>
        </extensions>
      </trkpt>
      <trkpt lat="37.769104130566120147705078125" lon="-107.7079085446894168853759765625">
        <ele>3833</ele>
        <time>2023-07-29T14:36:34.000Z</time>
        <extensions>
          <ns3:TrackPointExtension>
            <ns3:hr>112</ns3:hr>
            <ns3:cad>0</ns3:cad>
          </ns3:TrackPointExtension>
        </extensions>
      </trkpt>
      <trkpt lat="37.76911318302154541015625" lon="-107.707903347909450531005859375">
        <ele>3833.39990234375</ele>
        <time>2023-07-29T14:36:35.000Z</time>
        <extensions>
          <ns3:TrackPointExtension>
            <ns3:hr>112</ns3:hr>
            <ns3:cad>0</ns3:cad>
          </ns3:TrackPointExtension>
        </extensions>
      </trkpt>
      <trkpt lat="37.7691220678389072418212890625" lon="-107.707898318767547607421875">
        <ele>3833.39990234375</ele>
        <time>2023-07-29T14:36:36.000Z</time>
        <extensions>
          <ns3:TrackPointExtension>
            <ns3:hr>112</ns3:hr>
            <ns3:cad>43</ns3:cad>
          </ns3:TrackPointExtension>
        </extensions>
      </trkpt>
      <trkpt lat="37.7691291086375713348388671875" lon="-107.70789362490177154541015625">
        <ele>3833.39990234375</ele>
        <time>2023-07-29T14:36:37.000Z</time>
        <extensions>
          <ns3:TrackPointExtension>
            <ns3:hr>112</ns3:hr>
            <ns3:cad>43</ns3:cad>
          </ns3:TrackPointExtension>
        </extensions>
      </trkpt>
      <trkpt lat="37.76914377696812152862548828125" lon="-107.70788549445569515228271484375">
        <ele>3833.60009765625</ele>
        <time>2023-07-29T14:36:38.000Z</time>
        <extensions>
          <ns3:TrackPointExtension>
            <ns3:hr>112</ns3:hr>
            <ns3:cad>46</ns3:cad>
          </ns3:TrackPointExtension>
        </extensions>
      </trkpt>
      <trkpt lat="37.76915048249065876007080078125" lon="-107.7078787051141262054443359375">
        <ele>3833.60009765625</ele>
        <time>2023-07-29T14:36:39.000Z</time>
        <extensions>
          <ns3:TrackPointExtension>
            <ns3:hr>112</ns3:hr>
            <ns3:cad>46</ns3:cad>
          </ns3:TrackPointExtension>
        </extensions>
      </trkpt>
      <trkpt lat="37.76916322298347949981689453125" lon="-107.70787158049643039703369140625">
        <ele>3833.800048828125</ele>
        <time>2023-07-29T14:36:40.000Z</time>
        <extensions>
          <ns3:TrackPointExtension>
            <ns3:hr>112</ns3:hr>
            <ns3:cad>46</ns3:cad>
          </ns3:TrackPointExtension>
        </extensions>
      </trkpt>
      <trkpt lat="37.76917730458080768585205078125" lon="-107.707863785326480865478515625">
        <ele>3833.800048828125</ele>
        <time>2023-07-29T14:36:41.000Z</time>
        <extensions>
          <ns3:TrackPointExtension>
            <ns3:hr>112</ns3:hr>
            <ns3:cad>46</ns3:cad>
          </ns3:TrackPointExtension>
        </extensions>
      </trkpt>
      <trkpt lat="37.76918786577880382537841796875" lon="-107.70785917527973651885986328125">
        <ele>3834</ele>
        <time>2023-07-29T14:36:42.000Z</time>
        <extensions>
          <ns3:TrackPointExtension>
            <ns3:hr>112</ns3:hr>
            <ns3:cad>46</ns3:cad>
          </ns3:TrackPointExtension>
        </extensions>
      </trkpt>
      <trkpt lat="37.76919608004391193389892578125" lon="-107.707854397594928741455078125">
        <ele>3834.199951171875</ele>
        <time>2023-07-29T14:36:43.000Z</time>
        <extensions>
          <ns3:TrackPointExtension>
            <ns3:hr>112</ns3:hr>
            <ns3:cad>46</ns3:cad>
          </ns3:TrackPointExtension>
        </extensions>
      </trkpt>
      <trkpt lat="37.76920563541352748870849609375" lon="-107.70785146392881870269775390625">
        <ele>3834.39990234375</ele>
        <time>2023-07-29T14:36:44.000Z</time>
        <extensions>
          <ns3:TrackPointExtension>
            <ns3:hr>112</ns3:hr>
            <ns3:cad>0</ns3:cad>
          </ns3:TrackPointExtension>
        </extensions>
      </trkpt>
      <trkpt lat="37.76921284385025501251220703125" lon="-107.70784660242497920989990234375">
        <ele>3834.39990234375</ele>
        <time>2023-07-29T14:36:45.000Z</time>
        <extensions>
          <ns3:TrackPointExtension>
            <ns3:hr>113</ns3:hr>
            <ns3:cad>0</ns3:cad>
          </ns3:TrackPointExtension>
        </extensions>
      </trkpt>
      <trkpt lat="37.7692132629454135894775390625" lon="-107.70784425549209117889404296875">
        <ele>3834.39990234375</ele>
        <time>2023-07-29T14:36:46.000Z</time>
        <extensions>
          <ns3:TrackPointExtension>
            <ns3:hr>113</ns3:hr>
            <ns3:cad>0</ns3:cad>
          </ns3:TrackPointExtension>
        </extensions>
      </trkpt>
      <trkpt lat="37.76921099983155727386474609375" lon="-107.707839645445346832275390625">
        <ele>3834.39990234375</ele>
        <time>2023-07-29T14:36:47.000Z</time>
        <extensions>
          <ns3:TrackPointExtension>
            <ns3:hr>112</ns3:hr>
            <ns3:cad>0</ns3:cad>
          </ns3:TrackPointExtension>
        </extensions>
      </trkpt>
      <trkpt lat="37.76920747943222522735595703125" lon="-107.70783419720828533172607421875">
        <ele>3834.60009765625</ele>
        <time>2023-07-29T14:36:48.000Z</time>
        <extensions>
          <ns3:TrackPointExtension>
            <ns3:hr>110</ns3:hr>
            <ns3:cad>0</ns3:cad>
          </ns3:TrackPointExtension>
        </extensions>
      </trkpt>
      <trkpt lat="37.7692089043557643890380859375" lon="-107.707829587161540985107421875">
        <ele>3834.60009765625</ele>
        <time>2023-07-29T14:36:49.000Z</time>
        <extensions>
          <ns3:TrackPointExtension>
            <ns3:hr>108</ns3:hr>
            <ns3:cad>0</ns3:cad>
          </ns3:TrackPointExtension>
        </extensions>
      </trkpt>
      <trkpt lat="37.76921368204057216644287109375" lon="-107.70782522857189178466796875">
        <ele>3834.800048828125</ele>
        <time>2023-07-29T14:36:50.000Z</time>
        <extensions>
          <ns3:TrackPointExtension>
            <ns3:hr>107</ns3:hr>
            <ns3:cad>0</ns3:cad>
          </ns3:TrackPointExtension>
        </extensions>
      </trkpt>
      <trkpt lat="37.7692162804305553436279296875" lon="-107.70782464183866977691650390625">
        <ele>3835</ele>
        <time>2023-07-29T14:36:51.000Z</time>
        <extensions>
          <ns3:TrackPointExtension>
            <ns3:hr>106</ns3:hr>
            <ns3:cad>0</ns3:cad>
          </ns3:TrackPointExtension>
        </extensions>
      </trkpt>
      <trkpt lat="37.76921854354441165924072265625" lon="-107.70781852304935455322265625">
        <ele>3835.199951171875</ele>
        <time>2023-07-29T14:36:52.000Z</time>
        <extensions>
          <ns3:TrackPointExtension>
            <ns3:hr>106</ns3:hr>
            <ns3:cad>0</ns3:cad>
          </ns3:TrackPointExtension>
        </extensions>
      </trkpt>
      <trkpt lat="37.76922248303890228271484375" lon="-107.70781391300261020660400390625">
        <ele>3835.199951171875</ele>
        <time>2023-07-29T14:36:53.000Z</time>
        <extensions>
          <ns3:TrackPointExtension>
            <ns3:hr>105</ns3:hr>
            <ns3:cad>0</ns3:cad>
          </ns3:TrackPointExtension>
        </extensions>
      </trkpt>
      <trkpt lat="37.76922675780951976776123046875" lon="-107.7078049443662166595458984375">
        <ele>3835.199951171875</ele>
        <time>2023-07-29T14:36:54.000Z</time>
        <extensions>
          <ns3:TrackPointExtension>
            <ns3:hr>105</ns3:hr>
            <ns3:cad>0</ns3:cad>
          </ns3:TrackPointExtension>
        </extensions>
      </trkpt>
      <trkpt lat="37.7692263387143611907958984375" lon="-107.70780636928975582122802734375">
        <ele>3835.199951171875</ele>
        <time>2023-07-29T14:36:55.000Z</time>
        <extensions>
          <ns3:TrackPointExtension>
            <ns3:hr>105</ns3:hr>
            <ns3:cad>0</ns3:cad>
          </ns3:TrackPointExtension>
        </extensions>
      </trkpt>
      <trkpt lat="37.76922524906694889068603515625" lon="-107.7078052796423435211181640625">
        <ele>3835</ele>
        <time>2023-07-29T14:36:56.000Z</time>
        <extensions>
          <ns3:TrackPointExtension>
            <ns3:hr>105</ns3:hr>
            <ns3:cad>0</ns3:cad>
          </ns3:TrackPointExtension>
        </extensions>
      </trkpt>
      <trkpt lat="37.7692253328859806060791015625" lon="-107.70780268125236034393310546875">
        <ele>3835</ele>
        <time>2023-07-29T14:36:57.000Z</time>
        <extensions>
          <ns3:TrackPointExtension>
            <ns3:hr>105</ns3:hr>
            <ns3:cad>0</ns3:cad>
          </ns3:TrackPointExtension>
        </extensions>
      </trkpt>
      <trkpt lat="37.769221477210521697998046875" lon="-107.70780645310878753662109375">
        <ele>3835</ele>
        <time>2023-07-29T14:36:58.000Z</time>
        <extensions>
          <ns3:TrackPointExtension>
            <ns3:hr>105</ns3:hr>
            <ns3:cad>0</ns3:cad>
          </ns3:TrackPointExtension>
        </extensions>
      </trkpt>
      <trkpt lat="37.769216112792491912841796875" lon="-107.7078057825565338134765625">
        <ele>3834.800048828125</ele>
        <time>2023-07-29T14:36:59.000Z</time>
        <extensions>
          <ns3:TrackPointExtension>
            <ns3:hr>104</ns3:hr>
            <ns3:cad>0</ns3:cad>
          </ns3:TrackPointExtension>
        </extensions>
      </trkpt>
      <trkpt lat="37.76920949108898639678955078125" lon="-107.7078119851648807525634765625">
        <ele>3834.800048828125</ele>
        <time>2023-07-29T14:37:00.000Z</time>
        <extensions>
          <ns3:TrackPointExtension>
            <ns3:hr>104</ns3:hr>
            <ns3:cad>0</ns3:cad>
          </ns3:TrackPointExtension>
        </extensions>
      </trkpt>
      <trkpt lat="37.7692068926990032196044921875" lon="-107.70781290717422962188720703125">
        <ele>3834.60009765625</ele>
        <time>2023-07-29T14:37:01.000Z</time>
        <extensions>
          <ns3:TrackPointExtension>
            <ns3:hr>103</ns3:hr>
            <ns3:cad>0</ns3:cad>
          </ns3:TrackPointExtension>
        </extensions>
      </trkpt>
      <trkpt lat="37.76920345611870288848876953125" lon="-107.7078160084784030914306640625">
        <ele>3834.60009765625</ele>
        <time>2023-07-29T14:37:02.000Z</time>
        <extensions>
          <ns3:TrackPointExtension>
            <ns3:hr>103</ns3:hr>
            <ns3:cad>0</ns3:cad>
          </ns3:TrackPointExtension>
        </extensions>
      </trkpt>
      <trkpt lat="37.76920110918581485748291015625" lon="-107.70781609229743480682373046875">
        <ele>3834.60009765625</ele>
        <time>2023-07-29T14:37:03.000Z</time>
        <extensions>
          <ns3:TrackPointExtension>
            <ns3:hr>102</ns3:hr>
            <ns3:cad>0</ns3:cad>
          </ns3:TrackPointExtension>
        </extensions>
      </trkpt>
      <trkpt lat="37.76919792406260967254638671875" lon="-107.70781525410711765289306640625">
        <ele>3834.60009765625</ele>
        <time>2023-07-29T14:37:04.000Z</time>
        <extensions>
          <ns3:TrackPointExtension>
            <ns3:hr>101</ns3:hr>
            <ns3:cad>0</ns3:cad>
          </ns3:TrackPointExtension>
        </extensions>
      </trkpt>
      <trkpt lat="37.7691951580345630645751953125" lon="-107.7078139968216419219970703125">
        <ele>3834.60009765625</ele>
        <time>2023-07-29T14:37:05.000Z</time>
        <extensions>
          <ns3:TrackPointExtension>
            <ns3:hr>100</ns3:hr>
            <ns3:cad>0</ns3:cad>
          </ns3:TrackPointExtension>
        </extensions>
      </trkpt>
      <trkpt lat="37.76919859461486339569091796875" lon="-107.7078076265752315521240234375">
        <ele>3834.60009765625</ele>
        <time>2023-07-29T14:37:06.000Z</time>
        <extensions>
          <ns3:TrackPointExtension>
            <ns3:hr>99</ns3:hr>
            <ns3:cad>0</ns3:cad>
          </ns3:TrackPointExtension>
        </extensions>
      </trkpt>
      <trkpt lat="37.76920395903289318084716796875" lon="-107.70780335180461406707763671875">
        <ele>3834.39990234375</ele>
        <time>2023-07-29T14:37:07.000Z</time>
        <extensions>
          <ns3:TrackPointExtension>
            <ns3:hr>99</ns3:hr>
            <ns3:cad>0</ns3:cad>
          </ns3:TrackPointExtension>
        </extensions>
      </trkpt>
      <trkpt lat="37.76920907199382781982421875" lon="-107.70780050195753574371337890625">
        <ele>3834.39990234375</ele>
        <time>2023-07-29T14:37:08.000Z</time>
        <extensions>
          <ns3:TrackPointExtension>
            <ns3:hr>98</ns3:hr>
            <ns3:cad>0</ns3:cad>
          </ns3:TrackPointExtension>
        </extensions>
      </trkpt>
      <trkpt lat="37.76921384967863559722900390625" lon="-107.7077968977391719818115234375">
        <ele>3834.39990234375</ele>
        <time>2023-07-29T14:37:09.000Z</time>
        <extensions>
          <ns3:TrackPointExtension>
            <ns3:hr>97</ns3:hr>
            <ns3:cad>0</ns3:cad>
          </ns3:TrackPointExtension>
        </extensions>
      </trkpt>
      <trkpt lat="37.7692109160125255584716796875" lon="-107.70779597572982311248779296875">
        <ele>3834.39990234375</ele>
        <time>2023-07-29T14:37:10.000Z</time>
        <extensions>
          <ns3:TrackPointExtension>
            <ns3:hr>95</ns3:hr>
            <ns3:cad>0</ns3:cad>
          </ns3:TrackPointExtension>
        </extensions>
      </trkpt>
      <trkpt lat="37.76920161210000514984130859375" lon="-107.70779664628207683563232421875">
        <ele>3834.39990234375</ele>
        <time>2023-07-29T14:37:11.000Z</time>
        <extensions>
          <ns3:TrackPointExtension>
            <ns3:hr>93</ns3:hr>
            <ns3:cad>0</ns3:cad>
          </ns3:TrackPointExtension>
        </extensions>
      </trkpt>
      <trkpt lat="37.76918954215943813323974609375" lon="-107.70779832266271114349365234375">
        <ele>3834.39990234375</ele>
        <time>2023-07-29T14:37:12.000Z</time>
        <extensions>
          <ns3:TrackPointExtension>
            <ns3:hr>93</ns3:hr>
            <ns3:cad>0</ns3:cad>
          </ns3:TrackPointExtension>
        </extensions>
      </trkpt>
      <trkpt lat="37.76918551884591579437255859375" lon="-107.7077995799481868743896484375">
        <ele>3834.39990234375</ele>
        <time>2023-07-29T14:37:13.000Z</time>
        <extensions>
          <ns3:TrackPointExtension>
            <ns3:hr>92</ns3:hr>
            <ns3:cad>0</ns3:cad>
          </ns3:TrackPointExtension>
        </extensions>
      </trkpt>
      <trkpt lat="37.7691901288926601409912109375" lon="-107.70780335180461406707763671875">
        <ele>3834.39990234375</ele>
        <time>2023-07-29T14:37:14.000Z</time>
        <extensions>
          <ns3:TrackPointExtension>
            <ns3:hr>92</ns3:hr>
            <ns3:cad>0</ns3:cad>
          </ns3:TrackPointExtension>
        </extensions>
      </trkpt>
      <trkpt lat="37.76919976808130741119384765625" lon="-107.707808129489421844482421875">
        <ele>3834.39990234375</ele>
        <time>2023-07-29T14:37:15.000Z</time>
        <extensions>
          <ns3:TrackPointExtension>
            <ns3:hr>91</ns3:hr>
            <ns3:cad>0</ns3:cad>
          </ns3:TrackPointExtension>
        </extensions>
      </trkpt>
      <trkpt lat="37.76920479722321033477783203125" lon="-107.70781072787940502166748046875">
        <ele>3834.39990234375</ele>
        <time>2023-07-29T14:37:16.000Z</time>
        <extensions>
          <ns3:TrackPointExtension>
            <ns3:hr>90</ns3:hr>
            <ns3:cad>0</ns3:cad>
          </ns3:TrackPointExtension>
        </extensions>
      </trkpt>
      <trkpt lat="37.769213430583477020263671875" lon="-107.70781693048775196075439453125">
        <ele>3834.39990234375</ele>
        <time>2023-07-29T14:37:17.000Z</time>
        <extensions>
          <ns3:TrackPointExtension>
            <ns3:hr>89</ns3:hr>
            <ns3:cad>0</ns3:cad>
          </ns3:TrackPointExtension>
        </extensions>
      </trkpt>
      <trkpt lat="37.76922038756310939788818359375" lon="-107.70781894214451313018798828125">
        <ele>3834.39990234375</ele>
        <time>2023-07-29T14:37:18.000Z</time>
        <extensions>
          <ns3:TrackPointExtension>
            <ns3:hr>89</ns3:hr>
            <ns3:cad>0</ns3:cad>
          </ns3:TrackPointExtension>
        </extensions>
      </trkpt>
      <trkpt lat="37.7692203037440776824951171875" lon="-107.707820199429988861083984375">
        <ele>3834.39990234375</ele>
        <time>2023-07-29T14:37:19.000Z</time>
        <extensions>
          <ns3:TrackPointExtension>
            <ns3:hr>88</ns3:hr>
            <ns3:cad>0</ns3:cad>
          </ns3:TrackPointExtension>
        </extensions>
      </trkpt>
      <trkpt lat="37.769223488867282867431640625" lon="-107.7078260667622089385986328125">
        <ele>3834.39990234375</ele>
        <time>2023-07-29T14:37:20.000Z</time>
        <extensions>
          <ns3:TrackPointExtension>
            <ns3:hr>87</ns3:hr>
            <ns3:cad>0</ns3:cad>
          </ns3:TrackPointExtension>
        </extensions>
      </trkpt>
      <trkpt lat="37.769222147762775421142578125" lon="-107.707828246057033538818359375">
        <ele>3834.39990234375</ele>
        <time>2023-07-29T14:37:21.000Z</time>
        <extensions>
          <ns3:TrackPointExtension>
            <ns3:hr>85</ns3:hr>
            <ns3:cad>0</ns3:cad>
          </ns3:TrackPointExtension>
        </extensions>
      </trkpt>
      <trkpt lat="37.76922114193439483642578125" lon="-107.7078304253518581390380859375">
        <ele>3834.39990234375</ele>
        <time>2023-07-29T14:37:22.000Z</time>
        <extensions>
          <ns3:TrackPointExtension>
            <ns3:hr>83</ns3:hr>
            <ns3:cad>0</ns3:cad>
          </ns3:TrackPointExtension>
        </extensions>
      </trkpt>
      <trkpt lat="37.7692209742963314056396484375" lon="-107.70782983861863613128662109375">
        <ele>3834.39990234375</ele>
        <time>2023-07-29T14:37:23.000Z</time>
        <extensions>
          <ns3:TrackPointExtension>
            <ns3:hr>82</ns3:hr>
            <ns3:cad>0</ns3:cad>
          </ns3:TrackPointExtension>
        </extensions>
      </trkpt>
      <trkpt lat="37.76922055520117282867431640625" lon="-107.70783587358891963958740234375">
        <ele>3834.39990234375</ele>
        <time>2023-07-29T14:37:24.000Z</time>
        <extensions>
          <ns3:TrackPointExtension>
            <ns3:hr>81</ns3:hr>
            <ns3:cad>0</ns3:cad>
          </ns3:TrackPointExtension>
        </extensions>
      </trkpt>
      <trkpt lat="37.76922382414340972900390625" lon="-107.7078441716730594635009765625">
        <ele>3834.39990234375</ele>
        <time>2023-07-29T14:37:25.000Z</time>
        <extensions>
          <ns3:TrackPointExtension>
            <ns3:hr>80</ns3:hr>
            <ns3:cad>0</ns3:cad>
          </ns3:TrackPointExtension>
        </extensions>
      </trkpt>
      <trkpt lat="37.76922508142888545989990234375" lon="-107.70785515196621417999267578125">
        <ele>3834.39990234375</ele>
        <time>2023-07-29T14:37:26.000Z</time>
        <extensions>
          <ns3:TrackPointExtension>
            <ns3:hr>80</ns3:hr>
            <ns3:cad>0</ns3:cad>
          </ns3:TrackPointExtension>
        </extensions>
      </trkpt>
      <trkpt lat="37.7692216448485851287841796875" lon="-107.707851715385913848876953125">
        <ele>3834.60009765625</ele>
        <time>2023-07-29T14:37:27.000Z</time>
        <extensions>
          <ns3:TrackPointExtension>
            <ns3:hr>80</ns3:hr>
            <ns3:cad>0</ns3:cad>
          </ns3:TrackPointExtension>
        </extensions>
      </trkpt>
      <trkpt lat="37.76922407560050487518310546875" lon="-107.70785599015653133392333984375">
        <ele>3834.60009765625</ele>
        <time>2023-07-29T14:37:28.000Z</time>
        <extensions>
          <ns3:TrackPointExtension>
            <ns3:hr>80</ns3:hr>
            <ns3:cad>0</ns3:cad>
          </ns3:TrackPointExtension>
        </extensions>
      </trkpt>
      <trkpt lat="37.769227512180805206298828125" lon="-107.70785749889910221099853515625">
        <ele>3834.60009765625</ele>
        <time>2023-07-29T14:37:29.000Z</time>
        <extensions>
          <ns3:TrackPointExtension>
            <ns3:hr>80</ns3:hr>
            <ns3:cad>0</ns3:cad>
          </ns3:TrackPointExtension>
        </extensions>
      </trkpt>
      <trkpt lat="37.7692246623337268829345703125" lon="-107.70785079337656497955322265625">
        <ele>3834.60009765625</ele>
        <time>2023-07-29T14:37:30.000Z</time>
        <extensions>
          <ns3:TrackPointExtension>
            <ns3:hr>80</ns3:hr>
            <ns3:cad>0</ns3:cad>
          </ns3:TrackPointExtension>
        </extensions>
      </trkpt>
      <trkpt lat="37.76922323741018772125244140625" lon="-107.70784744061529636383056640625">
        <ele>3834.800048828125</ele>
        <time>2023-07-29T14:37:31.000Z</time>
        <extensions>
          <ns3:TrackPointExtension>
            <ns3:hr>80</ns3:hr>
            <ns3:cad>0</ns3:cad>
          </ns3:TrackPointExtension>
        </extensions>
      </trkpt>
      <trkpt lat="37.7692182920873165130615234375" lon="-107.7078448422253131866455078125">
        <ele>3835</ele>
        <time>2023-07-29T14:37:32.000Z</time>
        <extensions>
          <ns3:TrackPointExtension>
            <ns3:hr>80</ns3:hr>
            <ns3:cad>0</ns3:cad>
          </ns3:TrackPointExtension>
        </extensions>
      </trkpt>
      <trkpt lat="37.7692132629454135894775390625" lon="-107.7078384719789028167724609375">
        <ele>3835</ele>
        <time>2023-07-29T14:37:33.000Z</time>
        <extensions>
          <ns3:TrackPointExtension>
            <ns3:hr>80</ns3:hr>
            <ns3:cad>0</ns3:cad>
          </ns3:TrackPointExtension>
        </extensions>
      </trkpt>
      <trkpt lat="37.76920831762254238128662109375" lon="-107.70782916806638240814208984375">
        <ele>3835.199951171875</ele>
        <time>2023-07-29T14:37:34.000Z</time>
        <extensions>
          <ns3:TrackPointExtension>
            <ns3:hr>80</ns3:hr>
            <ns3:cad>0</ns3:cad>
          </ns3:TrackPointExtension>
        </extensions>
      </trkpt>
      <trkpt lat="37.76920278556644916534423828125" lon="-107.707822881639003753662109375">
        <ele>3835.39990234375</ele>
        <time>2023-07-29T14:37:35.000Z</time>
        <extensions>
          <ns3:TrackPointExtension>
            <ns3:hr>80</ns3:hr>
            <ns3:cad>0</ns3:cad>
          </ns3:TrackPointExtension>
        </extensions>
      </trkpt>
      <trkpt lat="37.7691988460719585418701171875" lon="-107.707815505564212799072265625">
        <ele>3835.39990234375</ele>
        <time>2023-07-29T14:37:36.000Z</time>
        <extensions>
          <ns3:TrackPointExtension>
            <ns3:hr>80</ns3:hr>
            <ns3:cad>0</ns3:cad>
          </ns3:TrackPointExtension>
        </extensions>
      </trkpt>
      <trkpt lat="37.76919926516711711883544921875" lon="-107.7078136615455150604248046875">
        <ele>3835.39990234375</ele>
        <time>2023-07-29T14:37:37.000Z</time>
        <extensions>
          <ns3:TrackPointExtension>
            <ns3:hr>82</ns3:hr>
            <ns3:cad>0</ns3:cad>
          </ns3:TrackPointExtension>
        </extensions>
      </trkpt>
      <trkpt lat="37.76920362375676631927490234375" lon="-107.70781441591680049896240234375">
        <ele>3835.39990234375</ele>
        <time>2023-07-29T14:37:38.000Z</time>
        <extensions>
          <ns3:TrackPointExtension>
            <ns3:hr>83</ns3:hr>
            <ns3:cad>0</ns3:cad>
          </ns3:TrackPointExtension>
        </extensions>
      </trkpt>
      <trkpt lat="37.76920731179416179656982421875" lon="-107.70781575702130794525146484375">
        <ele>3835.39990234375</ele>
        <time>2023-07-29T14:37:39.000Z</time>
        <extensions>
          <ns3:TrackPointExtension>
            <ns3:hr>83</ns3:hr>
            <ns3:cad>0</ns3:cad>
          </ns3:TrackPointExtension>
        </extensions>
      </trkpt>
      <trkpt lat="37.7692082338035106658935546875" lon="-107.70781525410711765289306640625">
        <ele>3835.39990234375</ele>
        <time>2023-07-29T14:37:40.000Z</time>
        <extensions>
          <ns3:TrackPointExtension>
            <ns3:hr>84</ns3:hr>
            <ns3:cad>0</ns3:cad>
          </ns3:TrackPointExtension>
        </extensions>
      </trkpt>
      <trkpt lat="37.76921116746962070465087890625" lon="-107.7078213728964328765869140625">
        <ele>3835.39990234375</ele>
        <time>2023-07-29T14:37:41.000Z</time>
        <extensions>
          <ns3:TrackPointExtension>
            <ns3:hr>86</ns3:hr>
            <ns3:cad>0</ns3:cad>
          </ns3:TrackPointExtension>
        </extensions>
      </trkpt>
      <trkpt lat="37.76921284385025501251220703125" lon="-107.7078220434486865997314453125">
        <ele>3835.39990234375</ele>
        <time>2023-07-29T14:37:42.000Z</time>
        <extensions>
          <ns3:TrackPointExtension>
            <ns3:hr>90</ns3:hr>
            <ns3:cad>0</ns3:cad>
          </ns3:TrackPointExtension>
        </extensions>
      </trkpt>
      <trkpt lat="37.76921871118247509002685546875" lon="-107.707826904952526092529296875">
        <ele>3835.39990234375</ele>
        <time>2023-07-29T14:37:43.000Z</time>
        <extensions>
          <ns3:TrackPointExtension>
            <ns3:hr>91</ns3:hr>
            <ns3:cad>0</ns3:cad>
          </ns3:TrackPointExtension>
        </extensions>
      </trkpt>
      <trkpt lat="37.76922591961920261383056640625" lon="-107.70782732404768466949462890625">
        <ele>3835.39990234375</ele>
        <time>2023-07-29T14:37:44.000Z</time>
        <extensions>
          <ns3:TrackPointExtension>
            <ns3:hr>93</ns3:hr>
            <ns3:cad>0</ns3:cad>
          </ns3:TrackPointExtension>
        </extensions>
      </trkpt>
      <trkpt lat="37.769236229360103607177734375" lon="-107.7078317664563655853271484375">
        <ele>3835.39990234375</ele>
        <time>2023-07-29T14:37:45.000Z</time>
        <extensions>
          <ns3:TrackPointExtension>
            <ns3:hr>93</ns3:hr>
            <ns3:cad>0</ns3:cad>
          </ns3:TrackPointExtension>
        </extensions>
      </trkpt>
      <trkpt lat="37.76924720965325832366943359375" lon="-107.70783604122698307037353515625">
        <ele>3835.39990234375</ele>
        <time>2023-07-29T14:37:46.000Z</time>
        <extensions>
          <ns3:TrackPointExtension>
            <ns3:hr>94</ns3:hr>
            <ns3:cad>0</ns3:cad>
          </ns3:TrackPointExtension>
        </extensions>
      </trkpt>
      <trkpt lat="37.76925927959382534027099609375" lon="-107.70784358493983745574951171875">
        <ele>3835.39990234375</ele>
        <time>2023-07-29T14:37:47.000Z</time>
        <extensions>
          <ns3:TrackPointExtension>
            <ns3:hr>94</ns3:hr>
            <ns3:cad>0</ns3:cad>
          </ns3:TrackPointExtension>
        </extensions>
      </trkpt>
      <trkpt lat="37.76926481164991855621337890625" lon="-107.70785079337656497955322265625">
        <ele>3835.39990234375</ele>
        <time>2023-07-29T14:37:48.000Z</time>
        <extensions>
          <ns3:TrackPointExtension>
            <ns3:hr>94</ns3:hr>
            <ns3:cad>0</ns3:cad>
          </ns3:TrackPointExtension>
        </extensions>
      </trkpt>
      <trkpt lat="37.76927419938147068023681640625" lon="-107.707850039005279541015625">
        <ele>3835.39990234375</ele>
        <time>2023-07-29T14:37:49.000Z</time>
        <extensions>
          <ns3:TrackPointExtension>
            <ns3:hr>94</ns3:hr>
            <ns3:cad>0</ns3:cad>
          </ns3:TrackPointExtension>
        </extensions>
      </trkpt>
      <trkpt lat="37.76928953826427459716796875" lon="-107.70785070955753326416015625">
        <ele>3835.39990234375</ele>
        <time>2023-07-29T14:37:50.000Z</time>
        <extensions>
          <ns3:TrackPointExtension>
            <ns3:hr>94</ns3:hr>
            <ns3:cad>0</ns3:cad>
          </ns3:TrackPointExtension>
        </extensions>
      </trkpt>
      <trkpt lat="37.76930051855742931365966796875" lon="-107.70785213448107242584228515625">
        <ele>3835.39990234375</ele>
        <time>2023-07-29T14:37:51.000Z</time>
        <extensions>
          <ns3:TrackPointExtension>
            <ns3:hr>93</ns3:hr>
            <ns3:cad>0</ns3:cad>
          </ns3:TrackPointExtension>
        </extensions>
      </trkpt>
      <trkpt lat="37.76930135674774646759033203125" lon="-107.707852385938167572021484375">
        <ele>3835.39990234375</ele>
        <time>2023-07-29T14:37:52.000Z</time>
        <extensions>
          <ns3:TrackPointExtension>
            <ns3:hr>93</ns3:hr>
            <ns3:cad>0</ns3:cad>
          </ns3:TrackPointExtension>
        </extensions>
      </trkpt>
      <trkpt lat="37.76930697262287139892578125" lon="-107.707851044833660125732421875">
        <ele>3835.39990234375</ele>
        <time>2023-07-29T14:37:53.000Z</time>
        <extensions>
          <ns3:TrackPointExtension>
            <ns3:hr>93</ns3:hr>
            <ns3:cad>0</ns3:cad>
          </ns3:TrackPointExtension>
        </extensions>
      </trkpt>
      <trkpt lat="37.7693064697086811065673828125" lon="-107.70784576423466205596923828125">
        <ele>3835.39990234375</ele>
        <time>2023-07-29T14:37:54.000Z</time>
        <extensions>
          <ns3:TrackPointExtension>
            <ns3:hr>91</ns3:hr>
            <ns3:cad>0</ns3:cad>
          </ns3:TrackPointExtension>
        </extensions>
      </trkpt>
      <trkpt lat="37.76931292377412319183349609375" lon="-107.7078388072550296783447265625">
        <ele>3835.39990234375</ele>
        <time>2023-07-29T14:37:55.000Z</time>
        <extensions>
          <ns3:TrackPointExtension>
            <ns3:hr>88</ns3:hr>
            <ns3:cad>0</ns3:cad>
          </ns3:TrackPointExtension>
        </extensions>
      </trkpt>
      <trkpt lat="37.76931443251669406890869140625" lon="-107.707833945751190185546875">
        <ele>3835.39990234375</ele>
        <time>2023-07-29T14:37:56.000Z</time>
        <extensions>
          <ns3:TrackPointExtension>
            <ns3:hr>87</ns3:hr>
            <ns3:cad>0</ns3:cad>
          </ns3:TrackPointExtension>
        </extensions>
      </trkpt>
      <trkpt lat="37.7693135105073451995849609375" lon="-107.70782791078090667724609375">
        <ele>3835.39990234375</ele>
        <time>2023-07-29T14:37:57.000Z</time>
        <extensions>
          <ns3:TrackPointExtension>
            <ns3:hr>87</ns3:hr>
            <ns3:cad>0</ns3:cad>
          </ns3:TrackPointExtension>
        </extensions>
      </trkpt>
      <trkpt lat="37.7693215571343898773193359375" lon="-107.7078230492770671844482421875">
        <ele>3835.199951171875</ele>
        <time>2023-07-29T14:37:58.000Z</time>
        <extensions>
          <ns3:TrackPointExtension>
            <ns3:hr>87</ns3:hr>
            <ns3:cad>0</ns3:cad>
          </ns3:TrackPointExtension>
        </extensions>
      </trkpt>
      <trkpt lat="37.76933002285659313201904296875" lon="-107.7078153379261493682861328125">
        <ele>3835.199951171875</ele>
        <time>2023-07-29T14:37:59.000Z</time>
        <extensions>
          <ns3:TrackPointExtension>
            <ns3:hr>87</ns3:hr>
            <ns3:cad>53</ns3:cad>
          </ns3:TrackPointExtension>
        </extensions>
      </trkpt>
      <trkpt lat="37.76934276334941387176513671875" lon="-107.70780888386070728302001953125">
        <ele>3835.199951171875</ele>
        <time>2023-07-29T14:38:00.000Z</time>
        <extensions>
          <ns3:TrackPointExtension>
            <ns3:hr>88</ns3:hr>
            <ns3:cad>53</ns3:cad>
          </ns3:TrackPointExtension>
        </extensions>
      </trkpt>
      <trkpt lat="37.769348211586475372314453125" lon="-107.7078019268810749053955078125">
        <ele>3835</ele>
        <time>2023-07-29T14:38:01.000Z</time>
        <extensions>
          <ns3:TrackPointExtension>
            <ns3:hr>87</ns3:hr>
            <ns3:cad>53</ns3:cad>
          </ns3:TrackPointExtension>
        </extensions>
      </trkpt>
      <trkpt lat="37.769355587661266326904296875" lon="-107.70779362879693508148193359375">
        <ele>3834.800048828125</ele>
        <time>2023-07-29T14:38:02.000Z</time>
        <extensions>
          <ns3:TrackPointExtension>
            <ns3:hr>88</ns3:hr>
            <ns3:cad>53</ns3:cad>
          </ns3:TrackPointExtension>
        </extensions>
      </trkpt>
      <trkpt lat="37.76935927569866180419921875" lon="-107.7077888511121273040771484375">
        <ele>3834.800048828125</ele>
        <time>2023-07-29T14:38:03.000Z</time>
        <extensions>
          <ns3:TrackPointExtension>
            <ns3:hr>88</ns3:hr>
            <ns3:cad>52</ns3:cad>
          </ns3:TrackPointExtension>
        </extensions>
      </trkpt>
      <trkpt lat="37.76936220936477184295654296875" lon="-107.707783989608287811279296875">
        <ele>3834.800048828125</ele>
        <time>2023-07-29T14:38:04.000Z</time>
        <extensions>
          <ns3:TrackPointExtension>
            <ns3:hr>88</ns3:hr>
            <ns3:cad>52</ns3:cad>
          </ns3:TrackPointExtension>
        </extensions>
      </trkpt>
      <trkpt lat="37.76936690323054790496826171875" lon="-107.70777870900928974151611328125">
        <ele>3834.800048828125</ele>
        <time>2023-07-29T14:38:05.000Z</time>
        <extensions>
          <ns3:TrackPointExtension>
            <ns3:hr>88</ns3:hr>
            <ns3:cad>52</ns3:cad>
          </ns3:TrackPointExtension>
        </extensions>
      </trkpt>
      <trkpt lat="37.769376374781131744384765625" lon="-107.707770578563213348388671875">
        <ele>3834.800048828125</ele>
        <time>2023-07-29T14:38:06.000Z</time>
        <extensions>
          <ns3:TrackPointExtension>
            <ns3:hr>88</ns3:hr>
            <ns3:cad>52</ns3:cad>
          </ns3:TrackPointExtension>
        </extensions>
      </trkpt>
      <trkpt lat="37.76938534341752529144287109375" lon="-107.70776529796421527862548828125">
        <ele>3834.800048828125</ele>
        <time>2023-07-29T14:38:07.000Z</time>
        <extensions>
          <ns3:TrackPointExtension>
            <ns3:hr>87</ns3:hr>
            <ns3:cad>52</ns3:cad>
          </ns3:TrackPointExtension>
        </extensions>
      </trkpt>
      <trkpt lat="37.76939406059682369232177734375" lon="-107.70775725133717060089111328125">
        <ele>3834.800048828125</ele>
        <time>2023-07-29T14:38:08.000Z</time>
        <extensions>
          <ns3:TrackPointExtension>
            <ns3:hr>85</ns3:hr>
            <ns3:cad>52</ns3:cad>
          </ns3:TrackPointExtension>
        </extensions>
      </trkpt>
      <trkpt lat="37.7694068849086761474609375" lon="-107.707744427025318145751953125">
        <ele>3835</ele>
        <time>2023-07-29T14:38:09.000Z</time>
        <extensions>
          <ns3:TrackPointExtension>
            <ns3:hr>83</ns3:hr>
            <ns3:cad>52</ns3:cad>
          </ns3:TrackPointExtension>
        </extensions>
      </trkpt>
      <trkpt lat="37.76941317133605480194091796875" lon="-107.70773545838892459869384765625">
        <ele>3835</ele>
        <time>2023-07-29T14:38:10.000Z</time>
        <extensions>
          <ns3:TrackPointExtension>
            <ns3:hr>81</ns3:hr>
            <ns3:cad>51</ns3:cad>
          </ns3:TrackPointExtension>
        </extensions>
      </trkpt>
      <trkpt lat="37.76942255906760692596435546875" lon="-107.70772808231413364410400390625">
        <ele>3835</ele>
        <time>2023-07-29T14:38:11.000Z</time>
        <extensions>
          <ns3:TrackPointExtension>
            <ns3:hr>80</ns3:hr>
            <ns3:cad>51</ns3:cad>
          </ns3:TrackPointExtension>
        </extensions>
      </trkpt>
      <trkpt lat="37.769434712827205657958984375" lon="-107.707719616591930389404296875">
        <ele>3835</ele>
        <time>2023-07-29T14:38:12.000Z</time>
        <extensions>
          <ns3:TrackPointExtension>
            <ns3:hr>80</ns3:hr>
            <ns3:cad>55</ns3:cad>
          </ns3:TrackPointExtension>
        </extensions>
      </trkpt>
      <trkpt lat="37.76944586075842380523681640625" lon="-107.70771131850779056549072265625">
        <ele>3835.199951171875</ele>
        <time>2023-07-29T14:38:13.000Z</time>
        <extensions>
          <ns3:TrackPointExtension>
            <ns3:hr>80</ns3:hr>
            <ns3:cad>55</ns3:cad>
          </ns3:TrackPointExtension>
        </extensions>
      </trkpt>
      <trkpt lat="37.76945692487061023712158203125" lon="-107.70770478062331676483154296875">
        <ele>3835.199951171875</ele>
        <time>2023-07-29T14:38:14.000Z</time>
        <extensions>
          <ns3:TrackPointExtension>
            <ns3:hr>79</ns3:hr>
            <ns3:cad>55</ns3:cad>
          </ns3:TrackPointExtension>
        </extensions>
      </trkpt>
      <trkpt lat="37.76946748606860637664794921875" lon="-107.7076984941959381103515625">
        <ele>3835.39990234375</ele>
        <time>2023-07-29T14:38:15.000Z</time>
        <extensions>
          <ns3:TrackPointExtension>
            <ns3:hr>79</ns3:hr>
            <ns3:cad>55</ns3:cad>
          </ns3:TrackPointExtension>
        </extensions>
      </trkpt>
      <trkpt lat="37.76947922073304653167724609375" lon="-107.70769170485436916351318359375">
        <ele>3835.39990234375</ele>
        <time>2023-07-29T14:38:16.000Z</time>
        <extensions>
          <ns3:TrackPointExtension>
            <ns3:hr>79</ns3:hr>
            <ns3:cad>55</ns3:cad>
          </ns3:TrackPointExtension>
        </extensions>
      </trkpt>
      <trkpt lat="37.76949011720716953277587890625" lon="-107.707683406770229339599609375">
        <ele>3835.60009765625</ele>
        <time>2023-07-29T14:38:17.000Z</time>
        <extensions>
          <ns3:TrackPointExtension>
            <ns3:hr>79</ns3:hr>
            <ns3:cad>55</ns3:cad>
          </ns3:TrackPointExtension>
        </extensions>
      </trkpt>
      <trkpt lat="37.76949875056743621826171875" lon="-107.70767661742866039276123046875">
        <ele>3835.60009765625</ele>
        <time>2023-07-29T14:38:18.000Z</time>
        <extensions>
          <ns3:TrackPointExtension>
            <ns3:hr>80</ns3:hr>
            <ns3:cad>53</ns3:cad>
          </ns3:TrackPointExtension>
        </extensions>
      </trkpt>
      <trkpt lat="37.76950939558446407318115234375" lon="-107.70766823552548885345458984375">
        <ele>3835.800048828125</ele>
        <time>2023-07-29T14:38:19.000Z</time>
        <extensions>
          <ns3:TrackPointExtension>
            <ns3:hr>80</ns3:hr>
            <ns3:cad>53</ns3:cad>
          </ns3:TrackPointExtension>
        </extensions>
      </trkpt>
      <trkpt lat="37.769513837993144989013671875" lon="-107.7076624520123004913330078125">
        <ele>3836</ele>
        <time>2023-07-29T14:38:20.000Z</time>
        <extensions>
          <ns3:TrackPointExtension>
            <ns3:hr>81</ns3:hr>
            <ns3:cad>55</ns3:cad>
          </ns3:TrackPointExtension>
        </extensions>
      </trkpt>
      <trkpt lat="37.76951358653604984283447265625" lon="-107.70765935070812702178955078125">
        <ele>3836</ele>
        <time>2023-07-29T14:38:21.000Z</time>
        <extensions>
          <ns3:TrackPointExtension>
            <ns3:hr>81</ns3:hr>
            <ns3:cad>55</ns3:cad>
          </ns3:TrackPointExtension>
        </extensions>
      </trkpt>
      <trkpt lat="37.76951626874506473541259765625" lon="-107.70765532739460468292236328125">
        <ele>3836</ele>
        <time>2023-07-29T14:38:22.000Z</time>
        <extensions>
          <ns3:TrackPointExtension>
            <ns3:hr>81</ns3:hr>
            <ns3:cad>55</ns3:cad>
          </ns3:TrackPointExtension>
        </extensions>
      </trkpt>
      <trkpt lat="37.76952020823955535888671875" lon="-107.7076517231762409210205078125">
        <ele>3836</ele>
        <time>2023-07-29T14:38:23.000Z</time>
        <extensions>
          <ns3:TrackPointExtension>
            <ns3:hr>80</ns3:hr>
            <ns3:cad>55</ns3:cad>
          </ns3:TrackPointExtension>
        </extensions>
      </trkpt>
      <trkpt lat="37.7695217169821262359619140625" lon="-107.70764887332916259765625">
        <ele>3836</ele>
        <time>2023-07-29T14:38:24.000Z</time>
        <extensions>
          <ns3:TrackPointExtension>
            <ns3:hr>80</ns3:hr>
            <ns3:cad>55</ns3:cad>
          </ns3:TrackPointExtension>
        </extensions>
      </trkpt>
      <trkpt lat="37.76952691376209259033203125" lon="-107.7076460234820842742919921875">
        <ele>3836</ele>
        <time>2023-07-29T14:38:25.000Z</time>
        <extensions>
          <ns3:TrackPointExtension>
            <ns3:hr>80</ns3:hr>
            <ns3:cad>55</ns3:cad>
          </ns3:TrackPointExtension>
        </extensions>
      </trkpt>
      <trkpt lat="37.7695334516465663909912109375" lon="-107.7076416648924350738525390625">
        <ele>3836</ele>
        <time>2023-07-29T14:38:26.000Z</time>
        <extensions>
          <ns3:TrackPointExtension>
            <ns3:hr>80</ns3:hr>
            <ns3:cad>70</ns3:cad>
          </ns3:TrackPointExtension>
        </extensions>
      </trkpt>
      <trkpt lat="37.7695411629974842071533203125" lon="-107.70763437263667583465576171875">
        <ele>3835.800048828125</ele>
        <time>2023-07-29T14:38:27.000Z</time>
        <extensions>
          <ns3:TrackPointExtension>
            <ns3:hr>80</ns3:hr>
            <ns3:cad>70</ns3:cad>
          </ns3:TrackPointExtension>
        </extensions>
      </trkpt>
      <trkpt lat="37.76955105364322662353515625" lon="-107.7076245658099651336669921875">
        <ele>3835.60009765625</ele>
        <time>2023-07-29T14:38:28.000Z</time>
        <extensions>
          <ns3:TrackPointExtension>
            <ns3:hr>80</ns3:hr>
            <ns3:cad>70</ns3:cad>
          </ns3:TrackPointExtension>
        </extensions>
      </trkpt>
      <trkpt lat="37.76956203393638134002685546875" lon="-107.70761467516422271728515625">
        <ele>3835.39990234375</ele>
        <time>2023-07-29T14:38:29.000Z</time>
        <extensions>
          <ns3:TrackPointExtension>
            <ns3:hr>80</ns3:hr>
            <ns3:cad>0</ns3:cad>
          </ns3:TrackPointExtension>
        </extensions>
      </trkpt>
      <trkpt lat="37.769572176039218902587890625" lon="-107.70760352723300457000732421875">
        <ele>3835.39990234375</ele>
        <time>2023-07-29T14:38:30.000Z</time>
        <extensions>
          <ns3:TrackPointExtension>
            <ns3:hr>80</ns3:hr>
            <ns3:cad>0</ns3:cad>
          </ns3:TrackPointExtension>
        </extensions>
      </trkpt>
      <trkpt lat="37.76958181522786617279052734375" lon="-107.70759229548275470733642578125">
        <ele>3835.39990234375</ele>
        <time>2023-07-29T14:38:31.000Z</time>
        <extensions>
          <ns3:TrackPointExtension>
            <ns3:hr>80</ns3:hr>
            <ns3:cad>0</ns3:cad>
          </ns3:TrackPointExtension>
        </extensions>
      </trkpt>
      <trkpt lat="37.7695901133120059967041015625" lon="-107.70758525468409061431884765625">
        <ele>3835.199951171875</ele>
        <time>2023-07-29T14:38:32.000Z</time>
        <extensions>
          <ns3:TrackPointExtension>
            <ns3:hr>80</ns3:hr>
            <ns3:cad>0</ns3:cad>
          </ns3:TrackPointExtension>
        </extensions>
      </trkpt>
      <trkpt lat="37.7695988304913043975830078125" lon="-107.707579135894775390625">
        <ele>3835.199951171875</ele>
        <time>2023-07-29T14:38:33.000Z</time>
        <extensions>
          <ns3:TrackPointExtension>
            <ns3:hr>80</ns3:hr>
            <ns3:cad>0</ns3:cad>
          </ns3:TrackPointExtension>
        </extensions>
      </trkpt>
      <trkpt lat="37.76960872113704681396484375" lon="-107.7075715921819210052490234375">
        <ele>3835</ele>
        <time>2023-07-29T14:38:34.000Z</time>
        <extensions>
          <ns3:TrackPointExtension>
            <ns3:hr>81</ns3:hr>
            <ns3:cad>0</ns3:cad>
          </ns3:TrackPointExtension>
        </extensions>
      </trkpt>
      <trkpt lat="37.76962020434439182281494140625" lon="-107.70756547339260578155517578125">
        <ele>3834.800048828125</ele>
        <time>2023-07-29T14:38:35.000Z</time>
        <extensions>
          <ns3:TrackPointExtension>
            <ns3:hr>81</ns3:hr>
            <ns3:cad>0</ns3:cad>
          </ns3:TrackPointExtension>
        </extensions>
      </trkpt>
      <trkpt lat="37.76962825097143650054931640625" lon="-107.707561366260051727294921875">
        <ele>3834.60009765625</ele>
        <time>2023-07-29T14:38:36.000Z</time>
        <extensions>
          <ns3:TrackPointExtension>
            <ns3:hr>81</ns3:hr>
            <ns3:cad>0</ns3:cad>
          </ns3:TrackPointExtension>
        </extensions>
      </trkpt>
      <trkpt lat="37.76963663287460803985595703125" lon="-107.70755340345203876495361328125">
        <ele>3834.60009765625</ele>
        <time>2023-07-29T14:38:37.000Z</time>
        <extensions>
          <ns3:TrackPointExtension>
            <ns3:hr>81</ns3:hr>
            <ns3:cad>0</ns3:cad>
          </ns3:TrackPointExtension>
        </extensions>
      </trkpt>
      <trkpt lat="37.76964199729263782501220703125" lon="-107.7075469493865966796875">
        <ele>3834.60009765625</ele>
        <time>2023-07-29T14:38:38.000Z</time>
        <extensions>
          <ns3:TrackPointExtension>
            <ns3:hr>82</ns3:hr>
            <ns3:cad>0</ns3:cad>
          </ns3:TrackPointExtension>
        </extensions>
      </trkpt>
      <trkpt lat="37.769656665623188018798828125" lon="-107.70753513090312480926513671875">
        <ele>3834.60009765625</ele>
        <time>2023-07-29T14:38:39.000Z</time>
        <extensions>
          <ns3:TrackPointExtension>
            <ns3:hr>82</ns3:hr>
            <ns3:cad>0</ns3:cad>
          </ns3:TrackPointExtension>
        </extensions>
      </trkpt>
      <trkpt lat="37.76967066340148448944091796875" lon="-107.70751803182065486907958984375">
        <ele>3834.60009765625</ele>
        <time>2023-07-29T14:38:40.000Z</time>
        <extensions>
          <ns3:TrackPointExtension>
            <ns3:hr>82</ns3:hr>
            <ns3:cad>0</ns3:cad>
          </ns3:TrackPointExtension>
        </extensions>
      </trkpt>
      <trkpt lat="37.769680134952068328857421875" lon="-107.70750395022332668304443359375">
        <ele>3834.60009765625</ele>
        <time>2023-07-29T14:38:41.000Z</time>
        <extensions>
          <ns3:TrackPointExtension>
            <ns3:hr>82</ns3:hr>
            <ns3:cad>0</ns3:cad>
          </ns3:TrackPointExtension>
        </extensions>
      </trkpt>
      <trkpt lat="37.7696890197694301605224609375" lon="-107.707490287721157073974609375">
        <ele>3834.800048828125</ele>
        <time>2023-07-29T14:38:42.000Z</time>
        <extensions>
          <ns3:TrackPointExtension>
            <ns3:hr>82</ns3:hr>
            <ns3:cad>0</ns3:cad>
          </ns3:TrackPointExtension>
        </extensions>
      </trkpt>
      <trkpt lat="37.7696984075009822845458984375" lon="-107.7074803970754146575927734375">
        <ele>3834.800048828125</ele>
        <time>2023-07-29T14:38:43.000Z</time>
        <extensions>
          <ns3:TrackPointExtension>
            <ns3:hr>82</ns3:hr>
            <ns3:cad>0</ns3:cad>
          </ns3:TrackPointExtension>
        </extensions>
      </trkpt>
      <trkpt lat="37.76970938779413700103759765625" lon="-107.70747075788676738739013671875">
        <ele>3835</ele>
        <time>2023-07-29T14:38:44.000Z</time>
        <extensions>
          <ns3:TrackPointExtension>
            <ns3:hr>82</ns3:hr>
            <ns3:cad>0</ns3:cad>
          </ns3:TrackPointExtension>
        </extensions>
      </trkpt>
      <trkpt lat="37.76972003281116485595703125" lon="-107.7074619568884372711181640625">
        <ele>3835</ele>
        <time>2023-07-29T14:38:45.000Z</time>
        <extensions>
          <ns3:TrackPointExtension>
            <ns3:hr>82</ns3:hr>
            <ns3:cad>0</ns3:cad>
          </ns3:TrackPointExtension>
        </extensions>
      </trkpt>
      <trkpt lat="37.7697315998375415802001953125" lon="-107.7074525691568851470947265625">
        <ele>3835</ele>
        <time>2023-07-29T14:38:46.000Z</time>
        <extensions>
          <ns3:TrackPointExtension>
            <ns3:hr>82</ns3:hr>
            <ns3:cad>0</ns3:cad>
          </ns3:TrackPointExtension>
        </extensions>
      </trkpt>
      <trkpt lat="37.76974090375006198883056640625" lon="-107.70744494162499904632568359375">
        <ele>3835.199951171875</ele>
        <time>2023-07-29T14:38:47.000Z</time>
        <extensions>
          <ns3:TrackPointExtension>
            <ns3:hr>83</ns3:hr>
            <ns3:cad>0</ns3:cad>
          </ns3:TrackPointExtension>
        </extensions>
      </trkpt>
      <trkpt lat="37.7697500400245189666748046875" lon="-107.707438655197620391845703125">
        <ele>3835.199951171875</ele>
        <time>2023-07-29T14:38:48.000Z</time>
        <extensions>
          <ns3:TrackPointExtension>
            <ns3:hr>83</ns3:hr>
            <ns3:cad>0</ns3:cad>
          </ns3:TrackPointExtension>
        </extensions>
      </trkpt>
      <trkpt lat="37.7697574160993099212646484375" lon="-107.7074324525892734527587890625">
        <ele>3835.199951171875</ele>
        <time>2023-07-29T14:38:49.000Z</time>
        <extensions>
          <ns3:TrackPointExtension>
            <ns3:hr>83</ns3:hr>
            <ns3:cad>0</ns3:cad>
          </ns3:TrackPointExtension>
        </extensions>
      </trkpt>
      <trkpt lat="37.769760601222515106201171875" lon="-107.70742650143802165985107421875">
        <ele>3835.199951171875</ele>
        <time>2023-07-29T14:38:50.000Z</time>
        <extensions>
          <ns3:TrackPointExtension>
            <ns3:hr>82</ns3:hr>
            <ns3:cad>0</ns3:cad>
          </ns3:TrackPointExtension>
        </extensions>
      </trkpt>
      <trkpt lat="37.769769318401813507080078125" lon="-107.7074173651635646820068359375">
        <ele>3835.39990234375</ele>
        <time>2023-07-29T14:38:51.000Z</time>
        <extensions>
          <ns3:TrackPointExtension>
            <ns3:hr>82</ns3:hr>
            <ns3:cad>0</ns3:cad>
          </ns3:TrackPointExtension>
        </extensions>
      </trkpt>
      <trkpt lat="37.76977040804922580718994140625" lon="-107.70741208456456661224365234375">
        <ele>3835.39990234375</ele>
        <time>2023-07-29T14:38:52.000Z</time>
        <extensions>
          <ns3:TrackPointExtension>
            <ns3:hr>82</ns3:hr>
            <ns3:cad>0</ns3:cad>
          </ns3:TrackPointExtension>
        </extensions>
      </trkpt>
      <trkpt lat="37.76977594010531902313232421875" lon="-107.707401774823665618896484375">
        <ele>3835.39990234375</ele>
        <time>2023-07-29T14:38:53.000Z</time>
        <extensions>
          <ns3:TrackPointExtension>
            <ns3:hr>81</ns3:hr>
            <ns3:cad>0</ns3:cad>
          </ns3:TrackPointExtension>
        </extensions>
      </trkpt>
      <trkpt lat="37.7697805501520633697509765625" lon="-107.70738978870213031768798828125">
        <ele>3835.39990234375</ele>
        <time>2023-07-29T14:38:54.000Z</time>
        <extensions>
          <ns3:TrackPointExtension>
            <ns3:hr>81</ns3:hr>
            <ns3:cad>0</ns3:cad>
          </ns3:TrackPointExtension>
        </extensions>
      </trkpt>
      <trkpt lat="37.76978951878845691680908203125" lon="-107.707374282181262969970703125">
        <ele>3835.39990234375</ele>
        <time>2023-07-29T14:38:55.000Z</time>
        <extensions>
          <ns3:TrackPointExtension>
            <ns3:hr>81</ns3:hr>
            <ns3:cad>50</ns3:cad>
          </ns3:TrackPointExtension>
        </extensions>
      </trkpt>
      <trkpt lat="37.769799493253231048583984375" lon="-107.7073610387742519378662109375">
        <ele>3835.39990234375</ele>
        <time>2023-07-29T14:38:56.000Z</time>
        <extensions>
          <ns3:TrackPointExtension>
            <ns3:hr>80</ns3:hr>
            <ns3:cad>50</ns3:cad>
          </ns3:TrackPointExtension>
        </extensions>
      </trkpt>
      <trkpt lat="37.769810222089290618896484375" lon="-107.70734502933919429779052734375">
        <ele>3835.39990234375</ele>
        <time>2023-07-29T14:38:57.000Z</time>
        <extensions>
          <ns3:TrackPointExtension>
            <ns3:hr>80</ns3:hr>
            <ns3:cad>50</ns3:cad>
          </ns3:TrackPointExtension>
        </extensions>
      </trkpt>
      <trkpt lat="37.76982187293469905853271484375" lon="-107.70732390694320201873779296875">
        <ele>3835.39990234375</ele>
        <time>2023-07-29T14:38:58.000Z</time>
        <extensions>
          <ns3:TrackPointExtension>
            <ns3:hr>80</ns3:hr>
            <ns3:cad>50</ns3:cad>
          </ns3:TrackPointExtension>
        </extensions>
      </trkpt>
      <trkpt lat="37.76983059011399745941162109375" lon="-107.7073141001164913177490234375">
        <ele>3835.39990234375</ele>
        <time>2023-07-29T14:38:59.000Z</time>
        <extensions>
          <ns3:TrackPointExtension>
            <ns3:hr>80</ns3:hr>
            <ns3:cad>50</ns3:cad>
          </ns3:TrackPointExtension>
        </extensions>
      </trkpt>
      <trkpt lat="37.76984064839780330657958984375" lon="-107.7073050476610660552978515625">
        <ele>3835.39990234375</ele>
        <time>2023-07-29T14:39:00.000Z</time>
        <extensions>
          <ns3:TrackPointExtension>
            <ns3:hr>81</ns3:hr>
            <ns3:cad>50</ns3:cad>
          </ns3:TrackPointExtension>
        </extensions>
      </trkpt>
      <trkpt lat="37.7698502875864505767822265625" lon="-107.7072990126907825469970703125">
        <ele>3835.39990234375</ele>
        <time>2023-07-29T14:39:01.000Z</time>
        <extensions>
          <ns3:TrackPointExtension>
            <ns3:hr>83</ns3:hr>
            <ns3:cad>50</ns3:cad>
          </ns3:TrackPointExtension>
        </extensions>
      </trkpt>
      <trkpt lat="37.76985774748027324676513671875" lon="-107.7072961628437042236328125">
        <ele>3835.39990234375</ele>
        <time>2023-07-29T14:39:02.000Z</time>
        <extensions>
          <ns3:TrackPointExtension>
            <ns3:hr>89</ns3:hr>
            <ns3:cad>55</ns3:cad>
          </ns3:TrackPointExtension>
        </extensions>
      </trkpt>
      <trkpt lat="37.76986529119312763214111328125" lon="-107.70729255862534046173095703125">
        <ele>3835.39990234375</ele>
        <time>2023-07-29T14:39:03.000Z</time>
        <extensions>
          <ns3:TrackPointExtension>
            <ns3:hr>90</ns3:hr>
            <ns3:cad>55</ns3:cad>
          </ns3:TrackPointExtension>
        </extensions>
      </trkpt>
      <trkpt lat="37.7698720805346965789794921875" lon="-107.70728518255054950714111328125">
        <ele>3835.60009765625</ele>
        <time>2023-07-29T14:39:04.000Z</time>
        <extensions>
          <ns3:TrackPointExtension>
            <ns3:hr>89</ns3:hr>
            <ns3:cad>55</ns3:cad>
          </ns3:TrackPointExtension>
        </extensions>
      </trkpt>
      <trkpt lat="37.76987853460013866424560546875" lon="-107.70728182978928089141845703125">
        <ele>3835.60009765625</ele>
        <time>2023-07-29T14:39:05.000Z</time>
        <extensions>
          <ns3:TrackPointExtension>
            <ns3:hr>89</ns3:hr>
            <ns3:cad>55</ns3:cad>
          </ns3:TrackPointExtension>
        </extensions>
      </trkpt>
      <trkpt lat="37.7698851563036441802978515625" lon="-107.7072755433619022369384765625">
        <ele>3835.800048828125</ele>
        <time>2023-07-29T14:39:06.000Z</time>
        <extensions>
          <ns3:TrackPointExtension>
            <ns3:hr>89</ns3:hr>
            <ns3:cad>55</ns3:cad>
          </ns3:TrackPointExtension>
        </extensions>
      </trkpt>
      <trkpt lat="37.76989362202584743499755859375" lon="-107.70726808346807956695556640625">
        <ele>3836</ele>
        <time>2023-07-29T14:39:07.000Z</time>
        <extensions>
          <ns3:TrackPointExtension>
            <ns3:hr>90</ns3:hr>
            <ns3:cad>55</ns3:cad>
          </ns3:TrackPointExtension>
        </extensions>
      </trkpt>
      <trkpt lat="37.76989982463419437408447265625" lon="-107.70726263523101806640625">
        <ele>3836</ele>
        <time>2023-07-29T14:39:08.000Z</time>
        <extensions>
          <ns3:TrackPointExtension>
            <ns3:hr>90</ns3:hr>
            <ns3:cad>55</ns3:cad>
          </ns3:TrackPointExtension>
        </extensions>
      </trkpt>
      <trkpt lat="37.76990736834704875946044921875" lon="-107.70725618116557598114013671875">
        <ele>3836</ele>
        <time>2023-07-29T14:39:09.000Z</time>
        <extensions>
          <ns3:TrackPointExtension>
            <ns3:hr>91</ns3:hr>
            <ns3:cad>55</ns3:cad>
          </ns3:TrackPointExtension>
        </extensions>
      </trkpt>
      <trkpt lat="37.76991357095539569854736328125" lon="-107.70724855363368988037109375">
        <ele>3836.199951171875</ele>
        <time>2023-07-29T14:39:10.000Z</time>
        <extensions>
          <ns3:TrackPointExtension>
            <ns3:hr>91</ns3:hr>
            <ns3:cad>48</ns3:cad>
          </ns3:TrackPointExtension>
        </extensions>
      </trkpt>
      <trkpt lat="37.7699200250208377838134765625" lon="-107.707237489521503448486328125">
        <ele>3836.199951171875</ele>
        <time>2023-07-29T14:39:11.000Z</time>
        <extensions>
          <ns3:TrackPointExtension>
            <ns3:hr>91</ns3:hr>
            <ns3:cad>48</ns3:cad>
          </ns3:TrackPointExtension>
        </extensions>
      </trkpt>
      <trkpt lat="37.76992329396307468414306640625" lon="-107.70723044872283935546875">
        <ele>3836.199951171875</ele>
        <time>2023-07-29T14:39:12.000Z</time>
        <extensions>
          <ns3:TrackPointExtension>
            <ns3:hr>92</ns3:hr>
            <ns3:cad>49</ns3:cad>
          </ns3:TrackPointExtension>
        </extensions>
      </trkpt>
      <trkpt lat="37.76992899365723133087158203125" lon="-107.7072202228009700775146484375">
        <ele>3836.199951171875</ele>
        <time>2023-07-29T14:39:13.000Z</time>
        <extensions>
          <ns3:TrackPointExtension>
            <ns3:hr>92</ns3:hr>
            <ns3:cad>51</ns3:cad>
          </ns3:TrackPointExtension>
        </extensions>
      </trkpt>
      <trkpt lat="37.76993217878043651580810546875" lon="-107.7072148583829402923583984375">
        <ele>3836.39990234375</ele>
        <time>2023-07-29T14:39:14.000Z</time>
        <extensions>
          <ns3:TrackPointExtension>
            <ns3:hr>93</ns3:hr>
            <ns3:cad>51</ns3:cad>
          </ns3:TrackPointExtension>
        </extensions>
      </trkpt>
      <trkpt lat="37.76994005776941776275634765625" lon="-107.707201950252056121826171875">
        <ele>3836.60009765625</ele>
        <time>2023-07-29T14:39:15.000Z</time>
        <extensions>
          <ns3:TrackPointExtension>
            <ns3:hr>94</ns3:hr>
            <ns3:cad>50</ns3:cad>
          </ns3:TrackPointExtension>
        </extensions>
      </trkpt>
      <trkpt lat="37.76994860731065273284912109375" lon="-107.7071900479495525360107421875">
        <ele>3836.800048828125</ele>
        <time>2023-07-29T14:39:16.000Z</time>
        <extensions>
          <ns3:TrackPointExtension>
            <ns3:hr>94</ns3:hr>
            <ns3:cad>0</ns3:cad>
          </ns3:TrackPointExtension>
        </extensions>
      </trkpt>
      <trkpt lat="37.76995648629963397979736328125" lon="-107.7071823365986347198486328125">
        <ele>3837.199951171875</ele>
        <time>2023-07-29T14:39:17.000Z</time>
        <extensions>
          <ns3:TrackPointExtension>
            <ns3:hr>94</ns3:hr>
            <ns3:cad>0</ns3:cad>
          </ns3:TrackPointExtension>
        </extensions>
      </trkpt>
      <trkpt lat="37.7699605934321880340576171875" lon="-107.70717856474220752716064453125">
        <ele>3837.199951171875</ele>
        <time>2023-07-29T14:39:18.000Z</time>
        <extensions>
          <ns3:TrackPointExtension>
            <ns3:hr>95</ns3:hr>
            <ns3:cad>0</ns3:cad>
          </ns3:TrackPointExtension>
        </extensions>
      </trkpt>
      <trkpt lat="37.76996771804988384246826171875" lon="-107.7071752957999706268310546875">
        <ele>3837.39990234375</ele>
        <time>2023-07-29T14:39:19.000Z</time>
        <extensions>
          <ns3:TrackPointExtension>
            <ns3:hr>96</ns3:hr>
            <ns3:cad>0</ns3:cad>
          </ns3:TrackPointExtension>
        </extensions>
      </trkpt>
      <trkpt lat="37.76997928507626056671142578125" lon="-107.7071672491729259490966796875">
        <ele>3837.60009765625</ele>
        <time>2023-07-29T14:39:20.000Z</time>
        <extensions>
          <ns3:TrackPointExtension>
            <ns3:hr>97</ns3:hr>
            <ns3:cad>0</ns3:cad>
          </ns3:TrackPointExtension>
        </extensions>
      </trkpt>
      <trkpt lat="37.7699951268732547760009765625" lon="-107.70714805461466312408447265625">
        <ele>3837.60009765625</ele>
        <time>2023-07-29T14:39:21.000Z</time>
        <extensions>
          <ns3:TrackPointExtension>
            <ns3:hr>98</ns3:hr>
            <ns3:cad>0</ns3:cad>
          </ns3:TrackPointExtension>
        </extensions>
      </trkpt>
      <trkpt lat="37.770004682242870330810546875" lon="-107.7071370743215084075927734375">
        <ele>3837.60009765625</ele>
        <time>2023-07-29T14:39:22.000Z</time>
        <extensions>
          <ns3:TrackPointExtension>
            <ns3:hr>98</ns3:hr>
            <ns3:cad>0</ns3:cad>
          </ns3:TrackPointExtension>
        </extensions>
      </trkpt>
      <trkpt lat="37.7700135670602321624755859375" lon="-107.70712709985673427581787109375">
        <ele>3837.800048828125</ele>
        <time>2023-07-29T14:39:23.000Z</time>
        <extensions>
          <ns3:TrackPointExtension>
            <ns3:hr>99</ns3:hr>
            <ns3:cad>0</ns3:cad>
          </ns3:TrackPointExtension>
        </extensions>
      </trkpt>
      <trkpt lat="37.77002370916306972503662109375" lon="-107.7071132697165012359619140625">
        <ele>3838</ele>
        <time>2023-07-29T14:39:24.000Z</time>
        <extensions>
          <ns3:TrackPointExtension>
            <ns3:hr>100</ns3:hr>
            <ns3:cad>0</ns3:cad>
          </ns3:TrackPointExtension>
        </extensions>
      </trkpt>
      <trkpt lat="37.7700296603143215179443359375" lon="-107.7071038819849491119384765625">
        <ele>3838</ele>
        <time>2023-07-29T14:39:25.000Z</time>
        <extensions>
          <ns3:TrackPointExtension>
            <ns3:hr>100</ns3:hr>
            <ns3:cad>0</ns3:cad>
          </ns3:TrackPointExtension>
        </extensions>
      </trkpt>
      <trkpt lat="37.77004147879779338836669921875" lon="-107.70708602853119373321533203125">
        <ele>3838.199951171875</ele>
        <time>2023-07-29T14:39:26.000Z</time>
        <extensions>
          <ns3:TrackPointExtension>
            <ns3:hr>101</ns3:hr>
            <ns3:cad>0</ns3:cad>
          </ns3:TrackPointExtension>
        </extensions>
      </trkpt>
      <trkpt lat="37.7700501121580600738525390625" lon="-107.70707244984805583953857421875">
        <ele>3838.199951171875</ele>
        <time>2023-07-29T14:39:27.000Z</time>
        <extensions>
          <ns3:TrackPointExtension>
            <ns3:hr>102</ns3:hr>
            <ns3:cad>0</ns3:cad>
          </ns3:TrackPointExtension>
        </extensions>
      </trkpt>
      <trkpt lat="37.77005488984286785125732421875" lon="-107.7070636488497257232666015625">
        <ele>3838.199951171875</ele>
        <time>2023-07-29T14:39:28.000Z</time>
        <extensions>
          <ns3:TrackPointExtension>
            <ns3:hr>103</ns3:hr>
            <ns3:cad>0</ns3:cad>
          </ns3:TrackPointExtension>
        </extensions>
      </trkpt>
      <trkpt lat="37.77005958370864391326904296875" lon="-107.7070519141852855682373046875">
        <ele>3838.39990234375</ele>
        <time>2023-07-29T14:39:29.000Z</time>
        <extensions>
          <ns3:TrackPointExtension>
            <ns3:hr>104</ns3:hr>
            <ns3:cad>0</ns3:cad>
          </ns3:TrackPointExtension>
        </extensions>
      </trkpt>
      <trkpt lat="37.77006360702216625213623046875" lon="-107.70704126916825771331787109375">
        <ele>3838.60009765625</ele>
        <time>2023-07-29T14:39:30.000Z</time>
        <extensions>
          <ns3:TrackPointExtension>
            <ns3:hr>104</ns3:hr>
            <ns3:cad>47</ns3:cad>
          </ns3:TrackPointExtension>
        </extensions>
      </trkpt>
      <trkpt lat="37.77006863616406917572021484375" lon="-107.707028277218341827392578125">
        <ele>3838.60009765625</ele>
        <time>2023-07-29T14:39:31.000Z</time>
        <extensions>
          <ns3:TrackPointExtension>
            <ns3:hr>105</ns3:hr>
            <ns3:cad>47</ns3:cad>
          </ns3:TrackPointExtension>
        </extensions>
      </trkpt>
      <trkpt lat="37.77007064782083034515380859375" lon="-107.70701360888779163360595703125">
        <ele>3838.60009765625</ele>
        <time>2023-07-29T14:39:32.000Z</time>
        <extensions>
          <ns3:TrackPointExtension>
            <ns3:hr>104</ns3:hr>
            <ns3:cad>47</ns3:cad>
          </ns3:TrackPointExtension>
        </extensions>
      </trkpt>
      <trkpt lat="37.7700755931437015533447265625" lon="-107.70700581371784210205078125">
        <ele>3838.60009765625</ele>
        <time>2023-07-29T14:39:33.000Z</time>
        <extensions>
          <ns3:TrackPointExtension>
            <ns3:hr>104</ns3:hr>
            <ns3:cad>0</ns3:cad>
          </ns3:TrackPointExtension>
        </extensions>
      </trkpt>
      <trkpt lat="37.7700762636959552764892578125" lon="-107.7069922350347042083740234375">
        <ele>3838.60009765625</ele>
        <time>2023-07-29T14:39:34.000Z</time>
        <extensions>
          <ns3:TrackPointExtension>
            <ns3:hr>104</ns3:hr>
            <ns3:cad>0</ns3:cad>
          </ns3:TrackPointExtension>
        </extensions>
      </trkpt>
      <trkpt lat="37.77007944881916046142578125" lon="-107.70698645152151584625244140625">
        <ele>3838.800048828125</ele>
        <time>2023-07-29T14:39:35.000Z</time>
        <extensions>
          <ns3:TrackPointExtension>
            <ns3:hr>103</ns3:hr>
            <ns3:cad>0</ns3:cad>
          </ns3:TrackPointExtension>
        </extensions>
      </trkpt>
      <trkpt lat="37.77008724398910999298095703125" lon="-107.70697304047644138336181640625">
        <ele>3838.800048828125</ele>
        <time>2023-07-29T14:39:36.000Z</time>
        <extensions>
          <ns3:TrackPointExtension>
            <ns3:hr>103</ns3:hr>
            <ns3:cad>0</ns3:cad>
          </ns3:TrackPointExtension>
        </extensions>
      </trkpt>
      <trkpt lat="37.77009093202650547027587890625" lon="-107.70696616731584072113037109375">
        <ele>3838.800048828125</ele>
        <time>2023-07-29T14:39:37.000Z</time>
        <extensions>
          <ns3:TrackPointExtension>
            <ns3:hr>104</ns3:hr>
            <ns3:cad>0</ns3:cad>
          </ns3:TrackPointExtension>
        </extensions>
      </trkpt>
      <trkpt lat="37.7700960449874401092529296875" lon="-107.70695711486041545867919921875">
        <ele>3839</ele>
        <time>2023-07-29T14:39:38.000Z</time>
        <extensions>
          <ns3:TrackPointExtension>
            <ns3:hr>104</ns3:hr>
            <ns3:cad>0</ns3:cad>
          </ns3:TrackPointExtension>
        </extensions>
      </trkpt>
      <trkpt lat="37.77010367251932621002197265625" lon="-107.70694546401500701904296875">
        <ele>3839</ele>
        <time>2023-07-29T14:39:39.000Z</time>
        <extensions>
          <ns3:TrackPointExtension>
            <ns3:hr>104</ns3:hr>
            <ns3:cad>0</ns3:cad>
          </ns3:TrackPointExtension>
        </extensions>
      </trkpt>
      <trkpt lat="37.77011071331799030303955078125" lon="-107.70694152452051639556884765625">
        <ele>3839</ele>
        <time>2023-07-29T14:39:40.000Z</time>
        <extensions>
          <ns3:TrackPointExtension>
            <ns3:hr>104</ns3:hr>
            <ns3:cad>0</ns3:cad>
          </ns3:TrackPointExtension>
        </extensions>
      </trkpt>
      <trkpt lat="37.77012110687792301177978515625" lon="-107.7069305442273616790771484375">
        <ele>3839.199951171875</ele>
        <time>2023-07-29T14:39:41.000Z</time>
        <extensions>
          <ns3:TrackPointExtension>
            <ns3:hr>104</ns3:hr>
            <ns3:cad>0</ns3:cad>
          </ns3:TrackPointExtension>
        </extensions>
      </trkpt>
      <trkpt lat="37.770128734409809112548828125" lon="-107.70692266523838043212890625">
        <ele>3839.199951171875</ele>
        <time>2023-07-29T14:39:42.000Z</time>
        <extensions>
          <ns3:TrackPointExtension>
            <ns3:hr>104</ns3:hr>
            <ns3:cad>0</ns3:cad>
          </ns3:TrackPointExtension>
        </extensions>
      </trkpt>
      <trkpt lat="37.7701325900852680206298828125" lon="-107.70692040212452411651611328125">
        <ele>3839.199951171875</ele>
        <time>2023-07-29T14:39:43.000Z</time>
        <extensions>
          <ns3:TrackPointExtension>
            <ns3:hr>104</ns3:hr>
            <ns3:cad>0</ns3:cad>
          </ns3:TrackPointExtension>
        </extensions>
      </trkpt>
      <trkpt lat="37.770136110484600067138671875" lon="-107.70691805519163608551025390625">
        <ele>3839.39990234375</ele>
        <time>2023-07-29T14:39:44.000Z</time>
        <extensions>
          <ns3:TrackPointExtension>
            <ns3:hr>104</ns3:hr>
            <ns3:cad>0</ns3:cad>
          </ns3:TrackPointExtension>
        </extensions>
      </trkpt>
      <trkpt lat="37.7701423130929470062255859375" lon="-107.7069127745926380157470703125">
        <ele>3839.39990234375</ele>
        <time>2023-07-29T14:39:45.000Z</time>
        <extensions>
          <ns3:TrackPointExtension>
            <ns3:hr>104</ns3:hr>
            <ns3:cad>0</ns3:cad>
          </ns3:TrackPointExtension>
        </extensions>
      </trkpt>
      <trkpt lat="37.7701485157012939453125" lon="-107.70690523087978363037109375">
        <ele>3840</ele>
        <time>2023-07-29T14:39:46.000Z</time>
        <extensions>
          <ns3:TrackPointExtension>
            <ns3:hr>104</ns3:hr>
            <ns3:cad>0</ns3:cad>
          </ns3:TrackPointExtension>
        </extensions>
      </trkpt>
      <trkpt lat="37.77015614323318004608154296875" lon="-107.70689777098596096038818359375">
        <ele>3840.199951171875</ele>
        <time>2023-07-29T14:39:47.000Z</time>
        <extensions>
          <ns3:TrackPointExtension>
            <ns3:hr>105</ns3:hr>
            <ns3:cad>0</ns3:cad>
          </ns3:TrackPointExtension>
        </extensions>
      </trkpt>
      <trkpt lat="37.77016251347959041595458984375" lon="-107.70688989199697971343994140625">
        <ele>3840.39990234375</ele>
        <time>2023-07-29T14:39:48.000Z</time>
        <extensions>
          <ns3:TrackPointExtension>
            <ns3:hr>105</ns3:hr>
            <ns3:cad>0</ns3:cad>
          </ns3:TrackPointExtension>
        </extensions>
      </trkpt>
      <trkpt lat="37.77016469277441501617431640625" lon="-107.70688377320766448974609375">
        <ele>3840.39990234375</ele>
        <time>2023-07-29T14:39:49.000Z</time>
        <extensions>
          <ns3:TrackPointExtension>
            <ns3:hr>105</ns3:hr>
            <ns3:cad>0</ns3:cad>
          </ns3:TrackPointExtension>
        </extensions>
      </trkpt>
      <trkpt lat="37.7701699733734130859375" lon="-107.706876061856746673583984375">
        <ele>3840.60009765625</ele>
        <time>2023-07-29T14:39:50.000Z</time>
        <extensions>
          <ns3:TrackPointExtension>
            <ns3:hr>105</ns3:hr>
            <ns3:cad>0</ns3:cad>
          </ns3:TrackPointExtension>
        </extensions>
      </trkpt>
      <trkpt lat="37.7701748348772525787353515625" lon="-107.70686759613454341888427734375">
        <ele>3840.60009765625</ele>
        <time>2023-07-29T14:39:51.000Z</time>
        <extensions>
          <ns3:TrackPointExtension>
            <ns3:hr>105</ns3:hr>
            <ns3:cad>0</ns3:cad>
          </ns3:TrackPointExtension>
        </extensions>
      </trkpt>
      <trkpt lat="37.7701795287430286407470703125" lon="-107.70685963332653045654296875">
        <ele>3840.800048828125</ele>
        <time>2023-07-29T14:39:52.000Z</time>
        <extensions>
          <ns3:TrackPointExtension>
            <ns3:hr>105</ns3:hr>
            <ns3:cad>42</ns3:cad>
          </ns3:TrackPointExtension>
        </extensions>
      </trkpt>
      <trkpt lat="37.77018765918910503387451171875" lon="-107.70684965886175632476806640625">
        <ele>3841</ele>
        <time>2023-07-29T14:39:53.000Z</time>
        <extensions>
          <ns3:TrackPointExtension>
            <ns3:hr>106</ns3:hr>
            <ns3:cad>42</ns3:cad>
          </ns3:TrackPointExtension>
        </extensions>
      </trkpt>
      <trkpt lat="37.770194113254547119140625" lon="-107.7068440429866313934326171875">
        <ele>3841.199951171875</ele>
        <time>2023-07-29T14:39:54.000Z</time>
        <extensions>
          <ns3:TrackPointExtension>
            <ns3:hr>106</ns3:hr>
            <ns3:cad>42</ns3:cad>
          </ns3:TrackPointExtension>
        </extensions>
      </trkpt>
      <trkpt lat="37.77019587345421314239501953125" lon="-107.7068416960537433624267578125">
        <ele>3841.39990234375</ele>
        <time>2023-07-29T14:39:55.000Z</time>
        <extensions>
          <ns3:TrackPointExtension>
            <ns3:hr>106</ns3:hr>
            <ns3:cad>0</ns3:cad>
          </ns3:TrackPointExtension>
        </extensions>
      </trkpt>
      <trkpt lat="37.7701979689300060272216796875" lon="-107.706839181482791900634765625">
        <ele>3841.60009765625</ele>
        <time>2023-07-29T14:39:56.000Z</time>
        <extensions>
          <ns3:TrackPointExtension>
            <ns3:hr>106</ns3:hr>
            <ns3:cad>0</ns3:cad>
          </ns3:TrackPointExtension>
        </extensions>
      </trkpt>
      <trkpt lat="37.7701976336538791656494140625" lon="-107.7068403549492359161376953125">
        <ele>3841.60009765625</ele>
        <time>2023-07-29T14:39:57.000Z</time>
        <extensions>
          <ns3:TrackPointExtension>
            <ns3:hr>106</ns3:hr>
            <ns3:cad>0</ns3:cad>
          </ns3:TrackPointExtension>
        </extensions>
      </trkpt>
      <trkpt lat="37.7701972983777523040771484375" lon="-107.70684488117694854736328125">
        <ele>3841.800048828125</ele>
        <time>2023-07-29T14:39:58.000Z</time>
        <extensions>
          <ns3:TrackPointExtension>
            <ns3:hr>106</ns3:hr>
            <ns3:cad>0</ns3:cad>
          </ns3:TrackPointExtension>
        </extensions>
      </trkpt>
      <trkpt lat="37.77019369415938854217529296875" lon="-107.70685217343270778656005859375">
        <ele>3842</ele>
        <time>2023-07-29T14:39:59.000Z</time>
        <extensions>
          <ns3:TrackPointExtension>
            <ns3:hr>107</ns3:hr>
            <ns3:cad>0</ns3:cad>
          </ns3:TrackPointExtension>
        </extensions>
      </trkpt>
      <trkpt lat="37.770196460187435150146484375" lon="-107.7068514190614223480224609375">
        <ele>3842</ele>
        <time>2023-07-29T14:40:00.000Z</time>
        <extensions>
          <ns3:TrackPointExtension>
            <ns3:hr>107</ns3:hr>
            <ns3:cad>0</ns3:cad>
          </ns3:TrackPointExtension>
        </extensions>
      </trkpt>
      <trkpt lat="37.77020811103284358978271484375" lon="-107.706845216453075408935546875">
        <ele>3842</ele>
        <time>2023-07-29T14:40:01.000Z</time>
        <extensions>
          <ns3:TrackPointExtension>
            <ns3:hr>107</ns3:hr>
            <ns3:cad>0</ns3:cad>
          </ns3:TrackPointExtension>
        </extensions>
      </trkpt>
      <trkpt lat="37.77021699585020542144775390625" lon="-107.7068383432924747467041015625">
        <ele>3842</ele>
        <time>2023-07-29T14:40:02.000Z</time>
        <extensions>
          <ns3:TrackPointExtension>
            <ns3:hr>108</ns3:hr>
            <ns3:cad>0</ns3:cad>
          </ns3:TrackPointExtension>
        </extensions>
      </trkpt>
      <trkpt lat="37.77021951042115688323974609375" lon="-107.706836163997650146484375">
        <ele>3842</ele>
        <time>2023-07-29T14:40:03.000Z</time>
        <extensions>
          <ns3:TrackPointExtension>
            <ns3:hr>108</ns3:hr>
            <ns3:cad>0</ns3:cad>
          </ns3:TrackPointExtension>
        </extensions>
      </trkpt>
      <trkpt lat="37.77022336609661579132080078125" lon="-107.70683473907411098480224609375">
        <ele>3842</ele>
        <time>2023-07-29T14:40:04.000Z</time>
        <extensions>
          <ns3:TrackPointExtension>
            <ns3:hr>108</ns3:hr>
            <ns3:cad>0</ns3:cad>
          </ns3:TrackPointExtension>
        </extensions>
      </trkpt>
      <trkpt lat="37.77022554539144039154052734375" lon="-107.70683675073087215423583984375">
        <ele>3842</ele>
        <time>2023-07-29T14:40:05.000Z</time>
        <extensions>
          <ns3:TrackPointExtension>
            <ns3:hr>107</ns3:hr>
            <ns3:cad>0</ns3:cad>
          </ns3:TrackPointExtension>
        </extensions>
      </trkpt>
      <trkpt lat="37.77022697031497955322265625" lon="-107.70683792419731616973876953125">
        <ele>3842</ele>
        <time>2023-07-29T14:40:06.000Z</time>
        <extensions>
          <ns3:TrackPointExtension>
            <ns3:hr>107</ns3:hr>
            <ns3:cad>0</ns3:cad>
          </ns3:TrackPointExtension>
        </extensions>
      </trkpt>
      <trkpt lat="37.77022319845855236053466796875" lon="-107.7068410255014896392822265625">
        <ele>3842</ele>
        <time>2023-07-29T14:40:07.000Z</time>
        <extensions>
          <ns3:TrackPointExtension>
            <ns3:hr>107</ns3:hr>
            <ns3:cad>0</ns3:cad>
          </ns3:TrackPointExtension>
        </extensions>
      </trkpt>
      <trkpt lat="37.770217247307300567626953125" lon="-107.70684462971985340118408203125">
        <ele>3842</ele>
        <time>2023-07-29T14:40:08.000Z</time>
        <extensions>
          <ns3:TrackPointExtension>
            <ns3:hr>107</ns3:hr>
            <ns3:cad>0</ns3:cad>
          </ns3:TrackPointExtension>
        </extensions>
      </trkpt>
      <trkpt lat="37.7702142298221588134765625" lon="-107.70684622228145599365234375">
        <ele>3842</ele>
        <time>2023-07-29T14:40:09.000Z</time>
        <extensions>
          <ns3:TrackPointExtension>
            <ns3:hr>107</ns3:hr>
            <ns3:cad>0</ns3:cad>
          </ns3:TrackPointExtension>
        </extensions>
      </trkpt>
      <trkpt lat="37.7702113799750804901123046875" lon="-107.70684345625340938568115234375">
        <ele>3842.199951171875</ele>
        <time>2023-07-29T14:40:10.000Z</time>
        <extensions>
          <ns3:TrackPointExtension>
            <ns3:hr>107</ns3:hr>
            <ns3:cad>0</ns3:cad>
          </ns3:TrackPointExtension>
        </extensions>
      </trkpt>
      <trkpt lat="37.77020324952900409698486328125" lon="-107.70684815011918544769287109375">
        <ele>3842.199951171875</ele>
        <time>2023-07-29T14:40:11.000Z</time>
        <extensions>
          <ns3:TrackPointExtension>
            <ns3:hr>106</ns3:hr>
            <ns3:cad>0</ns3:cad>
          </ns3:TrackPointExtension>
        </extensions>
      </trkpt>
      <trkpt lat="37.77020107023417949676513671875" lon="-107.70684664137661457061767578125">
        <ele>3842.199951171875</ele>
        <time>2023-07-29T14:40:12.000Z</time>
        <extensions>
          <ns3:TrackPointExtension>
            <ns3:hr>105</ns3:hr>
            <ns3:cad>0</ns3:cad>
          </ns3:TrackPointExtension>
        </extensions>
      </trkpt>
      <trkpt lat="37.770201824605464935302734375" lon="-107.70684479735791683197021484375">
        <ele>3842.199951171875</ele>
        <time>2023-07-29T14:40:13.000Z</time>
        <extensions>
          <ns3:TrackPointExtension>
            <ns3:hr>104</ns3:hr>
            <ns3:cad>0</ns3:cad>
          </ns3:TrackPointExtension>
        </extensions>
      </trkpt>
      <trkpt lat="37.7702019922435283660888671875" lon="-107.70684144459664821624755859375">
        <ele>3842.39990234375</ele>
        <time>2023-07-29T14:40:14.000Z</time>
        <extensions>
          <ns3:TrackPointExtension>
            <ns3:hr>104</ns3:hr>
            <ns3:cad>0</ns3:cad>
          </ns3:TrackPointExtension>
        </extensions>
      </trkpt>
      <trkpt lat="37.7702040039002895355224609375" lon="-107.70683675073087215423583984375">
        <ele>3842.60009765625</ele>
        <time>2023-07-29T14:40:15.000Z</time>
        <extensions>
          <ns3:TrackPointExtension>
            <ns3:hr>104</ns3:hr>
            <ns3:cad>0</ns3:cad>
          </ns3:TrackPointExtension>
        </extensions>
      </trkpt>
      <trkpt lat="37.77020827867090702056884765625" lon="-107.7068249322474002838134765625">
        <ele>3842.60009765625</ele>
        <time>2023-07-29T14:40:16.000Z</time>
        <extensions>
          <ns3:TrackPointExtension>
            <ns3:hr>103</ns3:hr>
            <ns3:cad>0</ns3:cad>
          </ns3:TrackPointExtension>
        </extensions>
      </trkpt>
      <trkpt lat="37.77021548710763454437255859375" lon="-107.7068111859261989593505859375">
        <ele>3842.60009765625</ele>
        <time>2023-07-29T14:40:17.000Z</time>
        <extensions>
          <ns3:TrackPointExtension>
            <ns3:hr>102</ns3:hr>
            <ns3:cad>0</ns3:cad>
          </ns3:TrackPointExtension>
        </extensions>
      </trkpt>
      <trkpt lat="37.77022562921047210693359375" lon="-107.706797607243061065673828125">
        <ele>3842.60009765625</ele>
        <time>2023-07-29T14:40:18.000Z</time>
        <extensions>
          <ns3:TrackPointExtension>
            <ns3:hr>101</ns3:hr>
            <ns3:cad>0</ns3:cad>
          </ns3:TrackPointExtension>
        </extensions>
      </trkpt>
      <trkpt lat="37.77023124508559703826904296875" lon="-107.70679165609180927276611328125">
        <ele>3842.800048828125</ele>
        <time>2023-07-29T14:40:19.000Z</time>
        <extensions>
          <ns3:TrackPointExtension>
            <ns3:hr>101</ns3:hr>
            <ns3:cad>0</ns3:cad>
          </ns3:TrackPointExtension>
        </extensions>
      </trkpt>
      <trkpt lat="37.77023325674235820770263671875" lon="-107.7067887224256992340087890625">
        <ele>3842.800048828125</ele>
        <time>2023-07-29T14:40:20.000Z</time>
        <extensions>
          <ns3:TrackPointExtension>
            <ns3:hr>101</ns3:hr>
            <ns3:cad>0</ns3:cad>
          </ns3:TrackPointExtension>
        </extensions>
      </trkpt>
      <trkpt lat="37.7702392078936100006103515625" lon="-107.70678176544606685638427734375">
        <ele>3843</ele>
        <time>2023-07-29T14:40:21.000Z</time>
        <extensions>
          <ns3:TrackPointExtension>
            <ns3:hr>102</ns3:hr>
            <ns3:cad>0</ns3:cad>
          </ns3:TrackPointExtension>
        </extensions>
      </trkpt>
      <trkpt lat="37.7702435664832592010498046875" lon="-107.70677891559898853302001953125">
        <ele>3843.199951171875</ele>
        <time>2023-07-29T14:40:22.000Z</time>
        <extensions>
          <ns3:TrackPointExtension>
            <ns3:hr>102</ns3:hr>
            <ns3:cad>0</ns3:cad>
          </ns3:TrackPointExtension>
        </extensions>
      </trkpt>
      <trkpt lat="37.77025035582482814788818359375" lon="-107.70677455700933933258056640625">
        <ele>3843.39990234375</ele>
        <time>2023-07-29T14:40:23.000Z</time>
        <extensions>
          <ns3:TrackPointExtension>
            <ns3:hr>102</ns3:hr>
            <ns3:cad>0</ns3:cad>
          </ns3:TrackPointExtension>
        </extensions>
      </trkpt>
      <trkpt lat="37.77025689370930194854736328125" lon="-107.70677036605775356292724609375">
        <ele>3843.39990234375</ele>
        <time>2023-07-29T14:40:24.000Z</time>
        <extensions>
          <ns3:TrackPointExtension>
            <ns3:hr>102</ns3:hr>
            <ns3:cad>0</ns3:cad>
          </ns3:TrackPointExtension>
        </extensions>
      </trkpt>
      <trkpt lat="37.7702660299837589263916015625" lon="-107.706764750182628631591796875">
        <ele>3843.60009765625</ele>
        <time>2023-07-29T14:40:25.000Z</time>
        <extensions>
          <ns3:TrackPointExtension>
            <ns3:hr>102</ns3:hr>
            <ns3:cad>0</ns3:cad>
          </ns3:TrackPointExtension>
        </extensions>
      </trkpt>
      <trkpt lat="37.7702697180211544036865234375" lon="-107.70676441490650177001953125">
        <ele>3843.60009765625</ele>
        <time>2023-07-29T14:40:26.000Z</time>
        <extensions>
          <ns3:TrackPointExtension>
            <ns3:hr>102</ns3:hr>
            <ns3:cad>0</ns3:cad>
          </ns3:TrackPointExtension>
        </extensions>
      </trkpt>
      <trkpt lat="37.7702797763049602508544921875" lon="-107.70676265470683574676513671875">
        <ele>3843.800048828125</ele>
        <time>2023-07-29T14:40:27.000Z</time>
        <extensions>
          <ns3:TrackPointExtension>
            <ns3:hr>102</ns3:hr>
            <ns3:cad>0</ns3:cad>
          </ns3:TrackPointExtension>
        </extensions>
      </trkpt>
      <trkpt lat="37.77029209770262241363525390625" lon="-107.70676039159297943115234375">
        <ele>3844</ele>
        <time>2023-07-29T14:40:28.000Z</time>
        <extensions>
          <ns3:TrackPointExtension>
            <ns3:hr>102</ns3:hr>
            <ns3:cad>0</ns3:cad>
          </ns3:TrackPointExtension>
        </extensions>
      </trkpt>
      <trkpt lat="37.77030282653868198394775390625" lon="-107.7067605592310428619384765625">
        <ele>3844.199951171875</ele>
        <time>2023-07-29T14:40:29.000Z</time>
        <extensions>
          <ns3:TrackPointExtension>
            <ns3:hr>102</ns3:hr>
            <ns3:cad>0</ns3:cad>
          </ns3:TrackPointExtension>
        </extensions>
      </trkpt>
      <trkpt lat="37.77031891979277133941650390625" lon="-107.7067598886787891387939453125">
        <ele>3844.199951171875</ele>
        <time>2023-07-29T14:40:30.000Z</time>
        <extensions>
          <ns3:TrackPointExtension>
            <ns3:hr>102</ns3:hr>
            <ns3:cad>0</ns3:cad>
          </ns3:TrackPointExtension>
        </extensions>
      </trkpt>
      <trkpt lat="37.77033383958041667938232421875" lon="-107.70676231943070888519287109375">
        <ele>3844.39990234375</ele>
        <time>2023-07-29T14:40:31.000Z</time>
        <extensions>
          <ns3:TrackPointExtension>
            <ns3:hr>101</ns3:hr>
            <ns3:cad>0</ns3:cad>
          </ns3:TrackPointExtension>
        </extensions>
      </trkpt>
      <trkpt lat="37.77034725062549114227294921875" lon="-107.70676466636359691619873046875">
        <ele>3844.39990234375</ele>
        <time>2023-07-29T14:40:32.000Z</time>
        <extensions>
          <ns3:TrackPointExtension>
            <ns3:hr>101</ns3:hr>
            <ns3:cad>0</ns3:cad>
          </ns3:TrackPointExtension>
        </extensions>
      </trkpt>
      <trkpt lat="37.77035303413867950439453125" lon="-107.7067679353058338165283203125">
        <ele>3844.60009765625</ele>
        <time>2023-07-29T14:40:33.000Z</time>
        <extensions>
          <ns3:TrackPointExtension>
            <ns3:hr>101</ns3:hr>
            <ns3:cad>0</ns3:cad>
          </ns3:TrackPointExtension>
        </extensions>
      </trkpt>
      <trkpt lat="37.770366780459880828857421875" lon="-107.70676919259130954742431640625">
        <ele>3844.800048828125</ele>
        <time>2023-07-29T14:40:34.000Z</time>
        <extensions>
          <ns3:TrackPointExtension>
            <ns3:hr>101</ns3:hr>
            <ns3:cad>0</ns3:cad>
          </ns3:TrackPointExtension>
        </extensions>
      </trkpt>
      <trkpt lat="37.77037893421947956085205078125" lon="-107.70676768384873867034912109375">
        <ele>3844.800048828125</ele>
        <time>2023-07-29T14:40:35.000Z</time>
        <extensions>
          <ns3:TrackPointExtension>
            <ns3:hr>101</ns3:hr>
            <ns3:cad>0</ns3:cad>
          </ns3:TrackPointExtension>
        </extensions>
      </trkpt>
      <trkpt lat="37.77038178406655788421630859375" lon="-107.70676701329648494720458984375">
        <ele>3845</ele>
        <time>2023-07-29T14:40:36.000Z</time>
        <extensions>
          <ns3:TrackPointExtension>
            <ns3:hr>101</ns3:hr>
            <ns3:cad>0</ns3:cad>
          </ns3:TrackPointExtension>
        </extensions>
      </trkpt>
      <trkpt lat="37.7703966200351715087890625" lon="-107.70676550455391407012939453125">
        <ele>3845</ele>
        <time>2023-07-29T14:40:37.000Z</time>
        <extensions>
          <ns3:TrackPointExtension>
            <ns3:hr>101</ns3:hr>
            <ns3:cad>0</ns3:cad>
          </ns3:TrackPointExtension>
        </extensions>
      </trkpt>
      <trkpt lat="37.7704088576138019561767578125" lon="-107.70676047541201114654541015625">
        <ele>3845</ele>
        <time>2023-07-29T14:40:38.000Z</time>
        <extensions>
          <ns3:TrackPointExtension>
            <ns3:hr>101</ns3:hr>
            <ns3:cad>0</ns3:cad>
          </ns3:TrackPointExtension>
        </extensions>
      </trkpt>
      <trkpt lat="37.77041765861213207244873046875" lon="-107.7067530155181884765625">
        <ele>3845.199951171875</ele>
        <time>2023-07-29T14:40:39.000Z</time>
        <extensions>
          <ns3:TrackPointExtension>
            <ns3:hr>101</ns3:hr>
            <ns3:cad>0</ns3:cad>
          </ns3:TrackPointExtension>
        </extensions>
      </trkpt>
      <trkpt lat="37.77042704634368419647216796875" lon="-107.7067471481859683990478515625">
        <ele>3845.39990234375</ele>
        <time>2023-07-29T14:40:40.000Z</time>
        <extensions>
          <ns3:TrackPointExtension>
            <ns3:hr>102</ns3:hr>
            <ns3:cad>0</ns3:cad>
          </ns3:TrackPointExtension>
        </extensions>
      </trkpt>
      <trkpt lat="37.770431824028491973876953125" lon="-107.70674253813922405242919921875">
        <ele>3845.60009765625</ele>
        <time>2023-07-29T14:40:41.000Z</time>
        <extensions>
          <ns3:TrackPointExtension>
            <ns3:hr>103</ns3:hr>
            <ns3:cad>0</ns3:cad>
          </ns3:TrackPointExtension>
        </extensions>
      </trkpt>
      <trkpt lat="37.77043752372264862060546875" lon="-107.7067360840737819671630859375">
        <ele>3845.800048828125</ele>
        <time>2023-07-29T14:40:42.000Z</time>
        <extensions>
          <ns3:TrackPointExtension>
            <ns3:hr>103</ns3:hr>
            <ns3:cad>0</ns3:cad>
          </ns3:TrackPointExtension>
        </extensions>
      </trkpt>
      <trkpt lat="37.7704333327710628509521484375" lon="-107.70673264749348163604736328125">
        <ele>3845.800048828125</ele>
        <time>2023-07-29T14:40:43.000Z</time>
        <extensions>
          <ns3:TrackPointExtension>
            <ns3:hr>104</ns3:hr>
            <ns3:cad>0</ns3:cad>
          </ns3:TrackPointExtension>
        </extensions>
      </trkpt>
      <trkpt lat="37.77043526060879230499267578125" lon="-107.706729210913181304931640625">
        <ele>3845.800048828125</ele>
        <time>2023-07-29T14:40:44.000Z</time>
        <extensions>
          <ns3:TrackPointExtension>
            <ns3:hr>104</ns3:hr>
            <ns3:cad>0</ns3:cad>
          </ns3:TrackPointExtension>
        </extensions>
      </trkpt>
      <trkpt lat="37.77043090201914310455322265625" lon="-107.70673164166510105133056640625">
        <ele>3846</ele>
        <time>2023-07-29T14:40:45.000Z</time>
        <extensions>
          <ns3:TrackPointExtension>
            <ns3:hr>105</ns3:hr>
            <ns3:cad>0</ns3:cad>
          </ns3:TrackPointExtension>
        </extensions>
      </trkpt>
      <trkpt lat="37.770424447953701019287109375" lon="-107.70673331804573535919189453125">
        <ele>3846</ele>
        <time>2023-07-29T14:40:46.000Z</time>
        <extensions>
          <ns3:TrackPointExtension>
            <ns3:hr>105</ns3:hr>
            <ns3:cad>0</ns3:cad>
          </ns3:TrackPointExtension>
        </extensions>
      </trkpt>
      <trkpt lat="37.77042956091463565826416015625" lon="-107.70673197694122791290283203125">
        <ele>3846.199951171875</ele>
        <time>2023-07-29T14:40:47.000Z</time>
        <extensions>
          <ns3:TrackPointExtension>
            <ns3:hr>105</ns3:hr>
            <ns3:cad>0</ns3:cad>
          </ns3:TrackPointExtension>
        </extensions>
      </trkpt>
      <trkpt lat="37.77043190784752368927001953125" lon="-107.7067313902080059051513671875">
        <ele>3846.199951171875</ele>
        <time>2023-07-29T14:40:48.000Z</time>
        <extensions>
          <ns3:TrackPointExtension>
            <ns3:hr>105</ns3:hr>
            <ns3:cad>0</ns3:cad>
          </ns3:TrackPointExtension>
        </extensions>
      </trkpt>
      <trkpt lat="37.77043618261814117431640625" lon="-107.70672644488513469696044921875">
        <ele>3846.39990234375</ele>
        <time>2023-07-29T14:40:49.000Z</time>
        <extensions>
          <ns3:TrackPointExtension>
            <ns3:hr>105</ns3:hr>
            <ns3:cad>0</ns3:cad>
          </ns3:TrackPointExtension>
        </extensions>
      </trkpt>
      <trkpt lat="37.77044330723583698272705078125" lon="-107.70672426559031009674072265625">
        <ele>3846.39990234375</ele>
        <time>2023-07-29T14:40:50.000Z</time>
        <extensions>
          <ns3:TrackPointExtension>
            <ns3:hr>104</ns3:hr>
            <ns3:cad>0</ns3:cad>
          </ns3:TrackPointExtension>
        </extensions>
      </trkpt>
      <trkpt lat="37.7704494260251522064208984375" lon="-107.7067194879055023193359375">
        <ele>3846.39990234375</ele>
        <time>2023-07-29T14:40:51.000Z</time>
        <extensions>
          <ns3:TrackPointExtension>
            <ns3:hr>103</ns3:hr>
            <ns3:cad>0</ns3:cad>
          </ns3:TrackPointExtension>
        </extensions>
      </trkpt>
      <trkpt lat="37.77046107687056064605712890625" lon="-107.7067089267075061798095703125">
        <ele>3846.39990234375</ele>
        <time>2023-07-29T14:40:52.000Z</time>
        <extensions>
          <ns3:TrackPointExtension>
            <ns3:hr>101</ns3:hr>
            <ns3:cad>0</ns3:cad>
          </ns3:TrackPointExtension>
        </extensions>
      </trkpt>
      <trkpt lat="37.7704749070107936859130859375" lon="-107.70670230500400066375732421875">
        <ele>3846.39990234375</ele>
        <time>2023-07-29T14:40:53.000Z</time>
        <extensions>
          <ns3:TrackPointExtension>
            <ns3:hr>100</ns3:hr>
            <ns3:cad>0</ns3:cad>
          </ns3:TrackPointExtension>
        </extensions>
      </trkpt>
      <trkpt lat="37.77048069052398204803466796875" lon="-107.70669643767178058624267578125">
        <ele>3846.60009765625</ele>
        <time>2023-07-29T14:40:54.000Z</time>
        <extensions>
          <ns3:TrackPointExtension>
            <ns3:hr>99</ns3:hr>
            <ns3:cad>0</ns3:cad>
          </ns3:TrackPointExtension>
        </extensions>
      </trkpt>
      <trkpt lat="37.77048354037106037139892578125" lon="-107.70669509656727313995361328125">
        <ele>3846.60009765625</ele>
        <time>2023-07-29T14:40:55.000Z</time>
        <extensions>
          <ns3:TrackPointExtension>
            <ns3:hr>99</ns3:hr>
            <ns3:cad>0</ns3:cad>
          </ns3:TrackPointExtension>
        </extensions>
      </trkpt>
      <trkpt lat="37.770486138761043548583984375" lon="-107.70669375546276569366455078125">
        <ele>3846.800048828125</ele>
        <time>2023-07-29T14:40:56.000Z</time>
        <extensions>
          <ns3:TrackPointExtension>
            <ns3:hr>99</ns3:hr>
            <ns3:cad>0</ns3:cad>
          </ns3:TrackPointExtension>
        </extensions>
      </trkpt>
      <trkpt lat="37.770494520664215087890625" lon="-107.70668855868279933929443359375">
        <ele>3846.800048828125</ele>
        <time>2023-07-29T14:40:57.000Z</time>
        <extensions>
          <ns3:TrackPointExtension>
            <ns3:hr>98</ns3:hr>
            <ns3:cad>0</ns3:cad>
          </ns3:TrackPointExtension>
        </extensions>
      </trkpt>
      <trkpt lat="37.77050013653934001922607421875" lon="-107.70668218843638896942138671875">
        <ele>3847</ele>
        <time>2023-07-29T14:40:58.000Z</time>
        <extensions>
          <ns3:TrackPointExtension>
            <ns3:hr>98</ns3:hr>
            <ns3:cad>0</ns3:cad>
          </ns3:TrackPointExtension>
        </extensions>
      </trkpt>
      <trkpt lat="37.77050868608057498931884765625" lon="-107.7066733874380588531494140625">
        <ele>3847.199951171875</ele>
        <time>2023-07-29T14:40:59.000Z</time>
        <extensions>
          <ns3:TrackPointExtension>
            <ns3:hr>99</ns3:hr>
            <ns3:cad>0</ns3:cad>
          </ns3:TrackPointExtension>
        </extensions>
      </trkpt>
      <trkpt lat="37.7705124579370021820068359375" lon="-107.7066660113632678985595703125">
        <ele>3847.39990234375</ele>
        <time>2023-07-29T14:41:00.000Z</time>
        <extensions>
          <ns3:TrackPointExtension>
            <ns3:hr>99</ns3:hr>
            <ns3:cad>0</ns3:cad>
          </ns3:TrackPointExtension>
        </extensions>
      </trkpt>
      <trkpt lat="37.770518995821475982666015625" lon="-107.70665603689849376678466796875">
        <ele>3847.39990234375</ele>
        <time>2023-07-29T14:41:01.000Z</time>
        <extensions>
          <ns3:TrackPointExtension>
            <ns3:hr>99</ns3:hr>
            <ns3:cad>0</ns3:cad>
          </ns3:TrackPointExtension>
        </extensions>
      </trkpt>
      <trkpt lat="37.770525701344013214111328125" lon="-107.70664514042437076568603515625">
        <ele>3847.60009765625</ele>
        <time>2023-07-29T14:41:02.000Z</time>
        <extensions>
          <ns3:TrackPointExtension>
            <ns3:hr>99</ns3:hr>
            <ns3:cad>0</ns3:cad>
          </ns3:TrackPointExtension>
        </extensions>
      </trkpt>
      <trkpt lat="37.770529054105281829833984375" lon="-107.7066361717879772186279296875">
        <ele>3847.800048828125</ele>
        <time>2023-07-29T14:41:03.000Z</time>
        <extensions>
          <ns3:TrackPointExtension>
            <ns3:hr>100</ns3:hr>
            <ns3:cad>0</ns3:cad>
          </ns3:TrackPointExtension>
        </extensions>
      </trkpt>
      <trkpt lat="37.77053634636104106903076171875" lon="-107.7066309750080108642578125">
        <ele>3847.800048828125</ele>
        <time>2023-07-29T14:41:04.000Z</time>
        <extensions>
          <ns3:TrackPointExtension>
            <ns3:hr>100</ns3:hr>
            <ns3:cad>0</ns3:cad>
          </ns3:TrackPointExtension>
        </extensions>
      </trkpt>
      <trkpt lat="37.77053919620811939239501953125" lon="-107.7066338248550891876220703125">
        <ele>3848.199951171875</ele>
        <time>2023-07-29T14:41:05.000Z</time>
        <extensions>
          <ns3:TrackPointExtension>
            <ns3:hr>101</ns3:hr>
            <ns3:cad>0</ns3:cad>
          </ns3:TrackPointExtension>
        </extensions>
      </trkpt>
      <trkpt lat="37.7705389447510242462158203125" lon="-107.706640698015689849853515625">
        <ele>3848.39990234375</ele>
        <time>2023-07-29T14:41:06.000Z</time>
        <extensions>
          <ns3:TrackPointExtension>
            <ns3:hr>101</ns3:hr>
            <ns3:cad>0</ns3:cad>
          </ns3:TrackPointExtension>
        </extensions>
      </trkpt>
      <trkpt lat="37.77054238133132457733154296875" lon="-107.7066465653479099273681640625">
        <ele>3848.60009765625</ele>
        <time>2023-07-29T14:41:07.000Z</time>
        <extensions>
          <ns3:TrackPointExtension>
            <ns3:hr>101</ns3:hr>
            <ns3:cad>0</ns3:cad>
          </ns3:TrackPointExtension>
        </extensions>
      </trkpt>
      <trkpt lat="37.77054523117840290069580078125" lon="-107.70665184594690799713134765625">
        <ele>3848.800048828125</ele>
        <time>2023-07-29T14:41:08.000Z</time>
        <extensions>
          <ns3:TrackPointExtension>
            <ns3:hr>101</ns3:hr>
            <ns3:cad>0</ns3:cad>
          </ns3:TrackPointExtension>
        </extensions>
      </trkpt>
      <trkpt lat="37.77055243961513042449951171875" lon="-107.7066524326801300048828125">
        <ele>3849</ele>
        <time>2023-07-29T14:41:09.000Z</time>
        <extensions>
          <ns3:TrackPointExtension>
            <ns3:hr>102</ns3:hr>
            <ns3:cad>0</ns3:cad>
          </ns3:TrackPointExtension>
        </extensions>
      </trkpt>
      <trkpt lat="37.77056090533733367919921875" lon="-107.7066542766988277435302734375">
        <ele>3849.199951171875</ele>
        <time>2023-07-29T14:41:10.000Z</time>
        <extensions>
          <ns3:TrackPointExtension>
            <ns3:hr>102</ns3:hr>
            <ns3:cad>0</ns3:cad>
          </ns3:TrackPointExtension>
        </extensions>
      </trkpt>
      <trkpt lat="37.7705655992031097412109375" lon="-107.70665570162236690521240234375">
        <ele>3849.199951171875</ele>
        <time>2023-07-29T14:41:11.000Z</time>
        <extensions>
          <ns3:TrackPointExtension>
            <ns3:hr>103</ns3:hr>
            <ns3:cad>0</ns3:cad>
          </ns3:TrackPointExtension>
        </extensions>
      </trkpt>
      <trkpt lat="37.77056953869760036468505859375" lon="-107.70665486343204975128173828125">
        <ele>3849.199951171875</ele>
        <time>2023-07-29T14:41:12.000Z</time>
        <extensions>
          <ns3:TrackPointExtension>
            <ns3:hr>103</ns3:hr>
            <ns3:cad>0</ns3:cad>
          </ns3:TrackPointExtension>
        </extensions>
      </trkpt>
      <trkpt lat="37.7705775015056133270263671875" lon="-107.7066572941839694976806640625">
        <ele>3849.39990234375</ele>
        <time>2023-07-29T14:41:13.000Z</time>
        <extensions>
          <ns3:TrackPointExtension>
            <ns3:hr>104</ns3:hr>
            <ns3:cad>0</ns3:cad>
          </ns3:TrackPointExtension>
        </extensions>
      </trkpt>
      <trkpt lat="37.77058714069426059722900390625" lon="-107.7066599763929843902587890625">
        <ele>3849.60009765625</ele>
        <time>2023-07-29T14:41:14.000Z</time>
        <extensions>
          <ns3:TrackPointExtension>
            <ns3:hr>104</ns3:hr>
            <ns3:cad>0</ns3:cad>
          </ns3:TrackPointExtension>
        </extensions>
      </trkpt>
      <trkpt lat="37.77059552259743213653564453125" lon="-107.706664837896823883056640625">
        <ele>3849.60009765625</ele>
        <time>2023-07-29T14:41:15.000Z</time>
        <extensions>
          <ns3:TrackPointExtension>
            <ns3:hr>104</ns3:hr>
            <ns3:cad>0</ns3:cad>
          </ns3:TrackPointExtension>
        </extensions>
      </trkpt>
      <trkpt lat="37.770603485405445098876953125" lon="-107.7066693641245365142822265625">
        <ele>3850</ele>
        <time>2023-07-29T14:41:16.000Z</time>
        <extensions>
          <ns3:TrackPointExtension>
            <ns3:hr>104</ns3:hr>
            <ns3:cad>0</ns3:cad>
          </ns3:TrackPointExtension>
        </extensions>
      </trkpt>
      <trkpt lat="37.77060591615736484527587890625" lon="-107.70667213015258312225341796875">
        <ele>3850</ele>
        <time>2023-07-29T14:41:17.000Z</time>
        <extensions>
          <ns3:TrackPointExtension>
            <ns3:hr>104</ns3:hr>
            <ns3:cad>0</ns3:cad>
          </ns3:TrackPointExtension>
        </extensions>
      </trkpt>
      <trkpt lat="37.77061052620410919189453125" lon="-107.70667900331318378448486328125">
        <ele>3850.199951171875</ele>
        <time>2023-07-29T14:41:18.000Z</time>
        <extensions>
          <ns3:TrackPointExtension>
            <ns3:hr>104</ns3:hr>
            <ns3:cad>0</ns3:cad>
          </ns3:TrackPointExtension>
        </extensions>
      </trkpt>
      <trkpt lat="37.7706096880137920379638671875" lon="-107.7066854573786258697509765625">
        <ele>3850.199951171875</ele>
        <time>2023-07-29T14:41:19.000Z</time>
        <extensions>
          <ns3:TrackPointExtension>
            <ns3:hr>104</ns3:hr>
            <ns3:cad>0</ns3:cad>
          </ns3:TrackPointExtension>
        </extensions>
      </trkpt>
      <trkpt lat="37.770614214241504669189453125" lon="-107.706689648330211639404296875">
        <ele>3850.60009765625</ele>
        <time>2023-07-29T14:41:20.000Z</time>
        <extensions>
          <ns3:TrackPointExtension>
            <ns3:hr>105</ns3:hr>
            <ns3:cad>0</ns3:cad>
          </ns3:TrackPointExtension>
        </extensions>
      </trkpt>
      <trkpt lat="37.77062016539275646209716796875" lon="-107.706693671643733978271484375">
        <ele>3850.60009765625</ele>
        <time>2023-07-29T14:41:21.000Z</time>
        <extensions>
          <ns3:TrackPointExtension>
            <ns3:hr>106</ns3:hr>
            <ns3:cad>0</ns3:cad>
          </ns3:TrackPointExtension>
        </extensions>
      </trkpt>
      <trkpt lat="37.77061647735536098480224609375" lon="-107.70669735968112945556640625">
        <ele>3850.800048828125</ele>
        <time>2023-07-29T14:41:22.000Z</time>
        <extensions>
          <ns3:TrackPointExtension>
            <ns3:hr>107</ns3:hr>
            <ns3:cad>0</ns3:cad>
          </ns3:TrackPointExtension>
        </extensions>
      </trkpt>
      <trkpt lat="37.77061698026955127716064453125" lon="-107.706699036061763763427734375">
        <ele>3850.800048828125</ele>
        <time>2023-07-29T14:41:23.000Z</time>
        <extensions>
          <ns3:TrackPointExtension>
            <ns3:hr>107</ns3:hr>
            <ns3:cad>0</ns3:cad>
          </ns3:TrackPointExtension>
        </extensions>
      </trkpt>
      <trkpt lat="37.7706214226782321929931640625" lon="-107.70670347847044467926025390625">
        <ele>3851</ele>
        <time>2023-07-29T14:41:24.000Z</time>
        <extensions>
          <ns3:TrackPointExtension>
            <ns3:hr>107</ns3:hr>
            <ns3:cad>0</ns3:cad>
          </ns3:TrackPointExtension>
        </extensions>
      </trkpt>
      <trkpt lat="37.77062569744884967803955078125" lon="-107.706706412136554718017578125">
        <ele>3851.199951171875</ele>
        <time>2023-07-29T14:41:25.000Z</time>
        <extensions>
          <ns3:TrackPointExtension>
            <ns3:hr>107</ns3:hr>
            <ns3:cad>75</ns3:cad>
          </ns3:TrackPointExtension>
        </extensions>
      </trkpt>
      <trkpt lat="37.77063206769526004791259765625" lon="-107.70671035163104534149169921875">
        <ele>3851.199951171875</ele>
        <time>2023-07-29T14:41:26.000Z</time>
        <extensions>
          <ns3:TrackPointExtension>
            <ns3:hr>106</ns3:hr>
            <ns3:cad>75</ns3:cad>
          </ns3:TrackPointExtension>
        </extensions>
      </trkpt>
      <trkpt lat="37.77063977904617786407470703125" lon="-107.70671554841101169586181640625">
        <ele>3851.39990234375</ele>
        <time>2023-07-29T14:41:27.000Z</time>
        <extensions>
          <ns3:TrackPointExtension>
            <ns3:hr>106</ns3:hr>
            <ns3:cad>75</ns3:cad>
          </ns3:TrackPointExtension>
        </extensions>
      </trkpt>
      <trkpt lat="37.77065084315836429595947265625" lon="-107.70672325976192951202392578125">
        <ele>3851.60009765625</ele>
        <time>2023-07-29T14:41:28.000Z</time>
        <extensions>
          <ns3:TrackPointExtension>
            <ns3:hr>106</ns3:hr>
            <ns3:cad>0</ns3:cad>
          </ns3:TrackPointExtension>
        </extensions>
      </trkpt>
      <trkpt lat="37.770655453205108642578125" lon="-107.70672610960900783538818359375">
        <ele>3851.60009765625</ele>
        <time>2023-07-29T14:41:29.000Z</time>
        <extensions>
          <ns3:TrackPointExtension>
            <ns3:hr>106</ns3:hr>
            <ns3:cad>0</ns3:cad>
          </ns3:TrackPointExtension>
        </extensions>
      </trkpt>
      <trkpt lat="37.7706599794328212738037109375" lon="-107.706727199256420135498046875">
        <ele>3851.60009765625</ele>
        <time>2023-07-29T14:41:30.000Z</time>
        <extensions>
          <ns3:TrackPointExtension>
            <ns3:hr>106</ns3:hr>
            <ns3:cad>0</ns3:cad>
          </ns3:TrackPointExtension>
        </extensions>
      </trkpt>
      <trkpt lat="37.7706633321940898895263671875" lon="-107.70672543905675411224365234375">
        <ele>3851.800048828125</ele>
        <time>2023-07-29T14:41:31.000Z</time>
        <extensions>
          <ns3:TrackPointExtension>
            <ns3:hr>106</ns3:hr>
            <ns3:cad>0</ns3:cad>
          </ns3:TrackPointExtension>
        </extensions>
      </trkpt>
      <trkpt lat="37.77067263610661029815673828125" lon="-107.7067275345325469970703125">
        <ele>3851.800048828125</ele>
        <time>2023-07-29T14:41:32.000Z</time>
        <extensions>
          <ns3:TrackPointExtension>
            <ns3:hr>106</ns3:hr>
            <ns3:cad>0</ns3:cad>
          </ns3:TrackPointExtension>
        </extensions>
      </trkpt>
      <trkpt lat="37.77067892253398895263671875" lon="-107.70672678016126155853271484375">
        <ele>3852</ele>
        <time>2023-07-29T14:41:33.000Z</time>
        <extensions>
          <ns3:TrackPointExtension>
            <ns3:hr>106</ns3:hr>
            <ns3:cad>0</ns3:cad>
          </ns3:TrackPointExtension>
        </extensions>
      </trkpt>
      <trkpt lat="37.770682610571384429931640625" lon="-107.7067275345325469970703125">
        <ele>3852.199951171875</ele>
        <time>2023-07-29T14:41:34.000Z</time>
        <extensions>
          <ns3:TrackPointExtension>
            <ns3:hr>107</ns3:hr>
            <ns3:cad>0</ns3:cad>
          </ns3:TrackPointExtension>
        </extensions>
      </trkpt>
      <trkpt lat="37.77068705298006534576416015625" lon="-107.70672778598964214324951171875">
        <ele>3852.199951171875</ele>
        <time>2023-07-29T14:41:35.000Z</time>
        <extensions>
          <ns3:TrackPointExtension>
            <ns3:hr>107</ns3:hr>
            <ns3:cad>0</ns3:cad>
          </ns3:TrackPointExtension>
        </extensions>
      </trkpt>
      <trkpt lat="37.7706884779036045074462890625" lon="-107.7067280374467372894287109375">
        <ele>3852.39990234375</ele>
        <time>2023-07-29T14:41:36.000Z</time>
        <extensions>
          <ns3:TrackPointExtension>
            <ns3:hr>107</ns3:hr>
            <ns3:cad>0</ns3:cad>
          </ns3:TrackPointExtension>
        </extensions>
      </trkpt>
      <trkpt lat="37.7706935070455074310302734375" lon="-107.70672661252319812774658203125">
        <ele>3852.60009765625</ele>
        <time>2023-07-29T14:41:37.000Z</time>
        <extensions>
          <ns3:TrackPointExtension>
            <ns3:hr>107</ns3:hr>
            <ns3:cad>0</ns3:cad>
          </ns3:TrackPointExtension>
        </extensions>
      </trkpt>
      <trkpt lat="37.7707049064338207244873046875" lon="-107.7067250199615955352783203125">
        <ele>3852.800048828125</ele>
        <time>2023-07-29T14:41:38.000Z</time>
        <extensions>
          <ns3:TrackPointExtension>
            <ns3:hr>107</ns3:hr>
            <ns3:cad>0</ns3:cad>
          </ns3:TrackPointExtension>
        </extensions>
      </trkpt>
      <trkpt lat="37.77071521617472171783447265625" lon="-107.70672225393354892730712890625">
        <ele>3852.800048828125</ele>
        <time>2023-07-29T14:41:39.000Z</time>
        <extensions>
          <ns3:TrackPointExtension>
            <ns3:hr>107</ns3:hr>
            <ns3:cad>0</ns3:cad>
          </ns3:TrackPointExtension>
        </extensions>
      </trkpt>
      <trkpt lat="37.77072208933532238006591796875" lon="-107.7067213319242000579833984375">
        <ele>3853</ele>
        <time>2023-07-29T14:41:40.000Z</time>
        <extensions>
          <ns3:TrackPointExtension>
            <ns3:hr>108</ns3:hr>
            <ns3:cad>0</ns3:cad>
          </ns3:TrackPointExtension>
        </extensions>
      </trkpt>
      <trkpt lat="37.7707226760685443878173828125" lon="-107.70671856589615345001220703125">
        <ele>3853.199951171875</ele>
        <time>2023-07-29T14:41:41.000Z</time>
        <extensions>
          <ns3:TrackPointExtension>
            <ns3:hr>108</ns3:hr>
            <ns3:cad>0</ns3:cad>
          </ns3:TrackPointExtension>
        </extensions>
      </trkpt>
      <trkpt lat="37.77072527445852756500244140625" lon="-107.706717140972614288330078125">
        <ele>3853.39990234375</ele>
        <time>2023-07-29T14:41:42.000Z</time>
        <extensions>
          <ns3:TrackPointExtension>
            <ns3:hr>108</ns3:hr>
            <ns3:cad>0</ns3:cad>
          </ns3:TrackPointExtension>
        </extensions>
      </trkpt>
      <trkpt lat="37.770729549229145050048828125" lon="-107.706719823181629180908203125">
        <ele>3853.39990234375</ele>
        <time>2023-07-29T14:41:43.000Z</time>
        <extensions>
          <ns3:TrackPointExtension>
            <ns3:hr>108</ns3:hr>
            <ns3:cad>0</ns3:cad>
          </ns3:TrackPointExtension>
        </extensions>
      </trkpt>
      <trkpt lat="37.770733572542667388916015625" lon="-107.70672191865742206573486328125">
        <ele>3853.39990234375</ele>
        <time>2023-07-29T14:41:44.000Z</time>
        <extensions>
          <ns3:TrackPointExtension>
            <ns3:hr>108</ns3:hr>
            <ns3:cad>0</ns3:cad>
          </ns3:TrackPointExtension>
        </extensions>
      </trkpt>
      <trkpt lat="37.77074103243649005889892578125" lon="-107.70672108046710491180419921875">
        <ele>3853.60009765625</ele>
        <time>2023-07-29T14:41:45.000Z</time>
        <extensions>
          <ns3:TrackPointExtension>
            <ns3:hr>108</ns3:hr>
            <ns3:cad>0</ns3:cad>
          </ns3:TrackPointExtension>
        </extensions>
      </trkpt>
      <trkpt lat="37.770744971930980682373046875" lon="-107.7067189849913120269775390625">
        <ele>3853.60009765625</ele>
        <time>2023-07-29T14:41:46.000Z</time>
        <extensions>
          <ns3:TrackPointExtension>
            <ns3:hr>109</ns3:hr>
            <ns3:cad>0</ns3:cad>
          </ns3:TrackPointExtension>
        </extensions>
      </trkpt>
      <trkpt lat="37.770744971930980682373046875" lon="-107.7067226730287075042724609375">
        <ele>3853.60009765625</ele>
        <time>2023-07-29T14:41:47.000Z</time>
        <extensions>
          <ns3:TrackPointExtension>
            <ns3:hr>109</ns3:hr>
            <ns3:cad>0</ns3:cad>
          </ns3:TrackPointExtension>
        </extensions>
      </trkpt>
      <trkpt lat="37.770745642483234405517578125" lon="-107.7067246846854686737060546875">
        <ele>3853.60009765625</ele>
        <time>2023-07-29T14:41:48.000Z</time>
        <extensions>
          <ns3:TrackPointExtension>
            <ns3:hr>109</ns3:hr>
            <ns3:cad>0</ns3:cad>
          </ns3:TrackPointExtension>
        </extensions>
      </trkpt>
      <trkpt lat="37.77074723504483699798583984375" lon="-107.70672745071351528167724609375">
        <ele>3853.800048828125</ele>
        <time>2023-07-29T14:41:49.000Z</time>
        <extensions>
          <ns3:TrackPointExtension>
            <ns3:hr>109</ns3:hr>
            <ns3:cad>0</ns3:cad>
          </ns3:TrackPointExtension>
        </extensions>
      </trkpt>
      <trkpt lat="37.77074639685451984405517578125" lon="-107.7067277021706104278564453125">
        <ele>3854</ele>
        <time>2023-07-29T14:41:50.000Z</time>
        <extensions>
          <ns3:TrackPointExtension>
            <ns3:hr>110</ns3:hr>
            <ns3:cad>0</ns3:cad>
          </ns3:TrackPointExtension>
        </extensions>
      </trkpt>
      <trkpt lat="37.77074337936937808990478515625" lon="-107.70672820508480072021484375">
        <ele>3854</ele>
        <time>2023-07-29T14:41:51.000Z</time>
        <extensions>
          <ns3:TrackPointExtension>
            <ns3:hr>110</ns3:hr>
            <ns3:cad>0</ns3:cad>
          </ns3:TrackPointExtension>
        </extensions>
      </trkpt>
      <trkpt lat="37.77074270881712436676025390625" lon="-107.70672309212386608123779296875">
        <ele>3854</ele>
        <time>2023-07-29T14:41:52.000Z</time>
        <extensions>
          <ns3:TrackPointExtension>
            <ns3:hr>110</ns3:hr>
            <ns3:cad>0</ns3:cad>
          </ns3:TrackPointExtension>
        </extensions>
      </trkpt>
      <trkpt lat="37.7707424573600292205810546875" lon="-107.70671403966844081878662109375">
        <ele>3854</ele>
        <time>2023-07-29T14:41:53.000Z</time>
        <extensions>
          <ns3:TrackPointExtension>
            <ns3:hr>110</ns3:hr>
            <ns3:cad>0</ns3:cad>
          </ns3:TrackPointExtension>
        </extensions>
      </trkpt>
      <trkpt lat="37.77074086479842662811279296875" lon="-107.70670599304139614105224609375">
        <ele>3854</ele>
        <time>2023-07-29T14:41:54.000Z</time>
        <extensions>
          <ns3:TrackPointExtension>
            <ns3:hr>110</ns3:hr>
            <ns3:cad>0</ns3:cad>
          </ns3:TrackPointExtension>
        </extensions>
      </trkpt>
      <trkpt lat="37.7707401104271411895751953125" lon="-107.7066971920430660247802734375">
        <ele>3854</ele>
        <time>2023-07-29T14:41:55.000Z</time>
        <extensions>
          <ns3:TrackPointExtension>
            <ns3:hr>110</ns3:hr>
            <ns3:cad>0</ns3:cad>
          </ns3:TrackPointExtension>
        </extensions>
      </trkpt>
      <trkpt lat="37.77074824087321758270263671875" lon="-107.70667296834290027618408203125">
        <ele>3854</ele>
        <time>2023-07-29T14:41:56.000Z</time>
        <extensions>
          <ns3:TrackPointExtension>
            <ns3:hr>110</ns3:hr>
            <ns3:cad>0</ns3:cad>
          </ns3:TrackPointExtension>
        </extensions>
      </trkpt>
      <trkpt lat="37.77075402438640594482421875" lon="-107.70665871910750865936279296875">
        <ele>3854</ele>
        <time>2023-07-29T14:41:57.000Z</time>
        <extensions>
          <ns3:TrackPointExtension>
            <ns3:hr>110</ns3:hr>
            <ns3:cad>0</ns3:cad>
          </ns3:TrackPointExtension>
        </extensions>
      </trkpt>
      <trkpt lat="37.77075746096670627593994140625" lon="-107.70666358061134815216064453125">
        <ele>3854</ele>
        <time>2023-07-29T14:41:58.000Z</time>
        <extensions>
          <ns3:TrackPointExtension>
            <ns3:hr>110</ns3:hr>
            <ns3:cad>0</ns3:cad>
          </ns3:TrackPointExtension>
        </extensions>
      </trkpt>
      <trkpt lat="37.770762741565704345703125" lon="-107.706660814583301544189453125">
        <ele>3854.199951171875</ele>
        <time>2023-07-29T14:41:59.000Z</time>
        <extensions>
          <ns3:TrackPointExtension>
            <ns3:hr>110</ns3:hr>
            <ns3:cad>0</ns3:cad>
          </ns3:TrackPointExtension>
        </extensions>
      </trkpt>
      <trkpt lat="37.77076684869825839996337890625" lon="-107.70665888674557209014892578125">
        <ele>3854.199951171875</ele>
        <time>2023-07-29T14:42:00.000Z</time>
        <extensions>
          <ns3:TrackPointExtension>
            <ns3:hr>110</ns3:hr>
            <ns3:cad>0</ns3:cad>
          </ns3:TrackPointExtension>
        </extensions>
      </trkpt>
      <trkpt lat="37.7707721292972564697265625" lon="-107.70665804855525493621826171875">
        <ele>3854.199951171875</ele>
        <time>2023-07-29T14:42:01.000Z</time>
        <extensions>
          <ns3:TrackPointExtension>
            <ns3:hr>110</ns3:hr>
            <ns3:cad>0</ns3:cad>
          </ns3:TrackPointExtension>
        </extensions>
      </trkpt>
      <trkpt lat="37.770778834819793701171875" lon="-107.70666056312620639801025390625">
        <ele>3854.199951171875</ele>
        <time>2023-07-29T14:42:02.000Z</time>
        <extensions>
          <ns3:TrackPointExtension>
            <ns3:hr>110</ns3:hr>
            <ns3:cad>0</ns3:cad>
          </ns3:TrackPointExtension>
        </extensions>
      </trkpt>
      <trkpt lat="37.7707801759243011474609375" lon="-107.70666508935391902923583984375">
        <ele>3854.199951171875</ele>
        <time>2023-07-29T14:42:03.000Z</time>
        <extensions>
          <ns3:TrackPointExtension>
            <ns3:hr>110</ns3:hr>
            <ns3:cad>0</ns3:cad>
          </ns3:TrackPointExtension>
        </extensions>
      </trkpt>
      <trkpt lat="37.770784199237823486328125" lon="-107.70666810683906078338623046875">
        <ele>3854.199951171875</ele>
        <time>2023-07-29T14:42:04.000Z</time>
        <extensions>
          <ns3:TrackPointExtension>
            <ns3:hr>109</ns3:hr>
            <ns3:cad>0</ns3:cad>
          </ns3:TrackPointExtension>
        </extensions>
      </trkpt>
      <trkpt lat="37.77079232968389987945556640625" lon="-107.70666860975325107574462890625">
        <ele>3854.39990234375</ele>
        <time>2023-07-29T14:42:05.000Z</time>
        <extensions>
          <ns3:TrackPointExtension>
            <ns3:hr>108</ns3:hr>
            <ns3:cad>0</ns3:cad>
          </ns3:TrackPointExtension>
        </extensions>
      </trkpt>
      <trkpt lat="37.77079300023615360260009765625" lon="-107.70667062141001224517822265625">
        <ele>3854.60009765625</ele>
        <time>2023-07-29T14:42:06.000Z</time>
        <extensions>
          <ns3:TrackPointExtension>
            <ns3:hr>107</ns3:hr>
            <ns3:cad>0</ns3:cad>
          </ns3:TrackPointExtension>
        </extensions>
      </trkpt>
      <trkpt lat="37.77080037631094455718994140625" lon="-107.70667187869548797607421875">
        <ele>3854.60009765625</ele>
        <time>2023-07-29T14:42:07.000Z</time>
        <extensions>
          <ns3:TrackPointExtension>
            <ns3:hr>107</ns3:hr>
            <ns3:cad>0</ns3:cad>
          </ns3:TrackPointExtension>
        </extensions>
      </trkpt>
      <trkpt lat="37.7708078362047672271728515625" lon="-107.70667179487645626068115234375">
        <ele>3854.800048828125</ele>
        <time>2023-07-29T14:42:08.000Z</time>
        <extensions>
          <ns3:TrackPointExtension>
            <ns3:hr>106</ns3:hr>
            <ns3:cad>0</ns3:cad>
          </ns3:TrackPointExtension>
        </extensions>
      </trkpt>
      <trkpt lat="37.7708225883543491363525390625" lon="-107.70667254924774169921875">
        <ele>3854.800048828125</ele>
        <time>2023-07-29T14:42:09.000Z</time>
        <extensions>
          <ns3:TrackPointExtension>
            <ns3:hr>106</ns3:hr>
            <ns3:cad>0</ns3:cad>
          </ns3:TrackPointExtension>
        </extensions>
      </trkpt>
      <trkpt lat="37.770828120410442352294921875" lon="-107.7066738903522491455078125">
        <ele>3855</ele>
        <time>2023-07-29T14:42:10.000Z</time>
        <extensions>
          <ns3:TrackPointExtension>
            <ns3:hr>107</ns3:hr>
            <ns3:cad>0</ns3:cad>
          </ns3:TrackPointExtension>
        </extensions>
      </trkpt>
      <trkpt lat="37.77083993889391422271728515625" lon="-107.7066743932664394378662109375">
        <ele>3855.199951171875</ele>
        <time>2023-07-29T14:42:11.000Z</time>
        <extensions>
          <ns3:TrackPointExtension>
            <ns3:hr>107</ns3:hr>
            <ns3:cad>0</ns3:cad>
          </ns3:TrackPointExtension>
        </extensions>
      </trkpt>
      <trkpt lat="37.77084253728389739990234375" lon="-107.7066747285425662994384765625">
        <ele>3855.199951171875</ele>
        <time>2023-07-29T14:42:12.000Z</time>
        <extensions>
          <ns3:TrackPointExtension>
            <ns3:hr>107</ns3:hr>
            <ns3:cad>0</ns3:cad>
          </ns3:TrackPointExtension>
        </extensions>
      </trkpt>
      <trkpt lat="37.770845554769039154052734375" lon="-107.7066757343709468841552734375">
        <ele>3855.199951171875</ele>
        <time>2023-07-29T14:42:13.000Z</time>
        <extensions>
          <ns3:TrackPointExtension>
            <ns3:hr>107</ns3:hr>
            <ns3:cad>0</ns3:cad>
          </ns3:TrackPointExtension>
        </extensions>
      </trkpt>
      <trkpt lat="37.77085050009191036224365234375" lon="-107.7066738903522491455078125">
        <ele>3855.39990234375</ele>
        <time>2023-07-29T14:42:14.000Z</time>
        <extensions>
          <ns3:TrackPointExtension>
            <ns3:hr>107</ns3:hr>
            <ns3:cad>0</ns3:cad>
          </ns3:TrackPointExtension>
        </extensions>
      </trkpt>
      <trkpt lat="37.77085385285317897796630859375" lon="-107.706673555076122283935546875">
        <ele>3855.39990234375</ele>
        <time>2023-07-29T14:42:15.000Z</time>
        <extensions>
          <ns3:TrackPointExtension>
            <ns3:hr>107</ns3:hr>
            <ns3:cad>0</ns3:cad>
          </ns3:TrackPointExtension>
        </extensions>
      </trkpt>
      <trkpt lat="37.7708594687283039093017578125" lon="-107.706669867038726806640625">
        <ele>3855.60009765625</ele>
        <time>2023-07-29T14:42:16.000Z</time>
        <extensions>
          <ns3:TrackPointExtension>
            <ns3:hr>107</ns3:hr>
            <ns3:cad>0</ns3:cad>
          </ns3:TrackPointExtension>
        </extensions>
      </trkpt>
      <trkpt lat="37.77086106128990650177001953125" lon="-107.70666726864874362945556640625">
        <ele>3855.60009765625</ele>
        <time>2023-07-29T14:42:17.000Z</time>
        <extensions>
          <ns3:TrackPointExtension>
            <ns3:hr>107</ns3:hr>
            <ns3:cad>0</ns3:cad>
          </ns3:TrackPointExtension>
        </extensions>
      </trkpt>
      <trkpt lat="37.7708614803850650787353515625" lon="-107.70666223950684070587158203125">
        <ele>3855.60009765625</ele>
        <time>2023-07-29T14:42:18.000Z</time>
        <extensions>
          <ns3:TrackPointExtension>
            <ns3:hr>107</ns3:hr>
            <ns3:cad>0</ns3:cad>
          </ns3:TrackPointExtension>
        </extensions>
      </trkpt>
      <trkpt lat="37.77086257003247737884521484375" lon="-107.70665486343204975128173828125">
        <ele>3855.800048828125</ele>
        <time>2023-07-29T14:42:19.000Z</time>
        <extensions>
          <ns3:TrackPointExtension>
            <ns3:hr>107</ns3:hr>
            <ns3:cad>0</ns3:cad>
          </ns3:TrackPointExtension>
        </extensions>
      </trkpt>
      <trkpt lat="37.770869694650173187255859375" lon="-107.706652767956256866455078125">
        <ele>3856</ele>
        <time>2023-07-29T14:42:20.000Z</time>
        <extensions>
          <ns3:TrackPointExtension>
            <ns3:hr>108</ns3:hr>
            <ns3:cad>0</ns3:cad>
          </ns3:TrackPointExtension>
        </extensions>
      </trkpt>
      <trkpt lat="37.7708648331463336944580078125" lon="-107.70664832554757595062255859375">
        <ele>3856</ele>
        <time>2023-07-29T14:42:21.000Z</time>
        <extensions>
          <ns3:TrackPointExtension>
            <ns3:hr>107</ns3:hr>
            <ns3:cad>0</ns3:cad>
          </ns3:TrackPointExtension>
        </extensions>
      </trkpt>
      <trkpt lat="37.7708713710308074951171875" lon="-107.70664145238697528839111328125">
        <ele>3856</ele>
        <time>2023-07-29T14:42:22.000Z</time>
        <extensions>
          <ns3:TrackPointExtension>
            <ns3:hr>107</ns3:hr>
            <ns3:cad>0</ns3:cad>
          </ns3:TrackPointExtension>
        </extensions>
      </trkpt>
      <trkpt lat="37.77086801826953887939453125" lon="-107.70663994364440441131591796875">
        <ele>3856.199951171875</ele>
        <time>2023-07-29T14:42:23.000Z</time>
        <extensions>
          <ns3:TrackPointExtension>
            <ns3:hr>107</ns3:hr>
            <ns3:cad>0</ns3:cad>
          </ns3:TrackPointExtension>
        </extensions>
      </trkpt>
      <trkpt lat="37.770873717963695526123046875" lon="-107.7066341601312160491943359375">
        <ele>3856.199951171875</ele>
        <time>2023-07-29T14:42:24.000Z</time>
        <extensions>
          <ns3:TrackPointExtension>
            <ns3:hr>107</ns3:hr>
            <ns3:cad>0</ns3:cad>
          </ns3:TrackPointExtension>
        </extensions>
      </trkpt>
      <trkpt lat="37.77088033966720104217529296875" lon="-107.706629298627376556396484375">
        <ele>3856.39990234375</ele>
        <time>2023-07-29T14:42:25.000Z</time>
        <extensions>
          <ns3:TrackPointExtension>
            <ns3:hr>107</ns3:hr>
            <ns3:cad>0</ns3:cad>
          </ns3:TrackPointExtension>
        </extensions>
      </trkpt>
      <trkpt lat="37.7708909846842288970947265625" lon="-107.70662225782871246337890625">
        <ele>3856.60009765625</ele>
        <time>2023-07-29T14:42:26.000Z</time>
        <extensions>
          <ns3:TrackPointExtension>
            <ns3:hr>107</ns3:hr>
            <ns3:cad>0</ns3:cad>
          </ns3:TrackPointExtension>
        </extensions>
      </trkpt>
      <trkpt lat="37.77089559473097324371337890625" lon="-107.70662569440901279449462890625">
        <ele>3856.60009765625</ele>
        <time>2023-07-29T14:42:27.000Z</time>
        <extensions>
          <ns3:TrackPointExtension>
            <ns3:hr>106</ns3:hr>
            <ns3:cad>0</ns3:cad>
          </ns3:TrackPointExtension>
        </extensions>
      </trkpt>
      <trkpt lat="37.7709010429680347442626953125" lon="-107.70662519149482250213623046875">
        <ele>3856.60009765625</ele>
        <time>2023-07-29T14:42:28.000Z</time>
        <extensions>
          <ns3:TrackPointExtension>
            <ns3:hr>106</ns3:hr>
            <ns3:cad>0</ns3:cad>
          </ns3:TrackPointExtension>
        </extensions>
      </trkpt>
      <trkpt lat="37.7709074132144451141357421875" lon="-107.7066254429519176483154296875">
        <ele>3856.800048828125</ele>
        <time>2023-07-29T14:42:29.000Z</time>
        <extensions>
          <ns3:TrackPointExtension>
            <ns3:hr>106</ns3:hr>
            <ns3:cad>0</ns3:cad>
          </ns3:TrackPointExtension>
        </extensions>
      </trkpt>
      <trkpt lat="37.77091420255601406097412109375" lon="-107.7066291309893131256103515625">
        <ele>3856.800048828125</ele>
        <time>2023-07-29T14:42:30.000Z</time>
        <extensions>
          <ns3:TrackPointExtension>
            <ns3:hr>106</ns3:hr>
            <ns3:cad>0</ns3:cad>
          </ns3:TrackPointExtension>
        </extensions>
      </trkpt>
      <trkpt lat="37.7709214948117733001708984375" lon="-107.706631980836391448974609375">
        <ele>3857</ele>
        <time>2023-07-29T14:42:31.000Z</time>
        <extensions>
          <ns3:TrackPointExtension>
            <ns3:hr>105</ns3:hr>
            <ns3:cad>0</ns3:cad>
          </ns3:TrackPointExtension>
        </extensions>
      </trkpt>
      <trkpt lat="37.77093046344816684722900390625" lon="-107.70663105882704257965087890625">
        <ele>3857</ele>
        <time>2023-07-29T14:42:32.000Z</time>
        <extensions>
          <ns3:TrackPointExtension>
            <ns3:hr>105</ns3:hr>
            <ns3:cad>62</ns3:cad>
          </ns3:TrackPointExtension>
        </extensions>
      </trkpt>
      <trkpt lat="37.7709406055510044097900390625" lon="-107.7066355012357234954833984375">
        <ele>3857.199951171875</ele>
        <time>2023-07-29T14:42:33.000Z</time>
        <extensions>
          <ns3:TrackPointExtension>
            <ns3:hr>104</ns3:hr>
            <ns3:cad>62</ns3:cad>
          </ns3:TrackPointExtension>
        </extensions>
      </trkpt>
      <trkpt lat="37.7709442935883998870849609375" lon="-107.70664044655859470367431640625">
        <ele>3857.199951171875</ele>
        <time>2023-07-29T14:42:34.000Z</time>
        <extensions>
          <ns3:TrackPointExtension>
            <ns3:hr>103</ns3:hr>
            <ns3:cad>0</ns3:cad>
          </ns3:TrackPointExtension>
        </extensions>
      </trkpt>
      <trkpt lat="37.77094982564449310302734375" lon="-107.706643380224704742431640625">
        <ele>3857.199951171875</ele>
        <time>2023-07-29T14:42:35.000Z</time>
        <extensions>
          <ns3:TrackPointExtension>
            <ns3:hr>103</ns3:hr>
            <ns3:cad>0</ns3:cad>
          </ns3:TrackPointExtension>
        </extensions>
      </trkpt>
      <trkpt lat="37.7709556929767131805419921875" lon="-107.706645391881465911865234375">
        <ele>3857.39990234375</ele>
        <time>2023-07-29T14:42:36.000Z</time>
        <extensions>
          <ns3:TrackPointExtension>
            <ns3:hr>102</ns3:hr>
            <ns3:cad>0</ns3:cad>
          </ns3:TrackPointExtension>
        </extensions>
      </trkpt>
      <trkpt lat="37.77096197940409183502197265625" lon="-107.70664614625275135040283203125">
        <ele>3857.39990234375</ele>
        <time>2023-07-29T14:42:37.000Z</time>
        <extensions>
          <ns3:TrackPointExtension>
            <ns3:hr>102</ns3:hr>
            <ns3:cad>0</ns3:cad>
          </ns3:TrackPointExtension>
        </extensions>
      </trkpt>
      <trkpt lat="37.7709701098501682281494140625" lon="-107.70664103329181671142578125">
        <ele>3857.60009765625</ele>
        <time>2023-07-29T14:42:38.000Z</time>
        <extensions>
          <ns3:TrackPointExtension>
            <ns3:hr>102</ns3:hr>
            <ns3:cad>0</ns3:cad>
          </ns3:TrackPointExtension>
        </extensions>
      </trkpt>
      <trkpt lat="37.7709778212010860443115234375" lon="-107.7066422067582607269287109375">
        <ele>3857.60009765625</ele>
        <time>2023-07-29T14:42:39.000Z</time>
        <extensions>
          <ns3:TrackPointExtension>
            <ns3:hr>101</ns3:hr>
            <ns3:cad>0</ns3:cad>
          </ns3:TrackPointExtension>
        </extensions>
      </trkpt>
      <trkpt lat="37.77098293416202068328857421875" lon="-107.70663793198764324188232421875">
        <ele>3857.60009765625</ele>
        <time>2023-07-29T14:42:40.000Z</time>
        <extensions>
          <ns3:TrackPointExtension>
            <ns3:hr>101</ns3:hr>
            <ns3:cad>0</ns3:cad>
          </ns3:TrackPointExtension>
        </extensions>
      </trkpt>
      <trkpt lat="37.770987041294574737548828125" lon="-107.7066375128924846649169921875">
        <ele>3857.800048828125</ele>
        <time>2023-07-29T14:42:41.000Z</time>
        <extensions>
          <ns3:TrackPointExtension>
            <ns3:hr>101</ns3:hr>
            <ns3:cad>0</ns3:cad>
          </ns3:TrackPointExtension>
        </extensions>
      </trkpt>
      <trkpt lat="37.770990394055843353271484375" lon="-107.70663835108280181884765625">
        <ele>3857.800048828125</ele>
        <time>2023-07-29T14:42:42.000Z</time>
        <extensions>
          <ns3:TrackPointExtension>
            <ns3:hr>101</ns3:hr>
            <ns3:cad>0</ns3:cad>
          </ns3:TrackPointExtension>
        </extensions>
      </trkpt>
      <trkpt lat="37.7709925733506679534912109375" lon="-107.70663625560700893402099609375">
        <ele>3857.800048828125</ele>
        <time>2023-07-29T14:42:43.000Z</time>
        <extensions>
          <ns3:TrackPointExtension>
            <ns3:hr>101</ns3:hr>
            <ns3:cad>0</ns3:cad>
          </ns3:TrackPointExtension>
        </extensions>
      </trkpt>
      <trkpt lat="37.77099701575934886932373046875" lon="-107.70663541741669178009033203125">
        <ele>3857.800048828125</ele>
        <time>2023-07-29T14:42:44.000Z</time>
        <extensions>
          <ns3:TrackPointExtension>
            <ns3:hr>101</ns3:hr>
            <ns3:cad>0</ns3:cad>
          </ns3:TrackPointExtension>
        </extensions>
      </trkpt>
      <trkpt lat="37.77100204490125179290771484375" lon="-107.70663541741669178009033203125">
        <ele>3858</ele>
        <time>2023-07-29T14:42:45.000Z</time>
        <extensions>
          <ns3:TrackPointExtension>
            <ns3:hr>101</ns3:hr>
            <ns3:cad>0</ns3:cad>
          </ns3:TrackPointExtension>
        </extensions>
      </trkpt>
      <trkpt lat="37.7710056491196155548095703125" lon="-107.706637345254421234130859375">
        <ele>3858.199951171875</ele>
        <time>2023-07-29T14:42:46.000Z</time>
        <extensions>
          <ns3:TrackPointExtension>
            <ns3:hr>101</ns3:hr>
            <ns3:cad>0</ns3:cad>
          </ns3:TrackPointExtension>
        </extensions>
      </trkpt>
      <trkpt lat="37.7710130251944065093994140625" lon="-107.70663860253989696502685546875">
        <ele>3858.39990234375</ele>
        <time>2023-07-29T14:42:47.000Z</time>
        <extensions>
          <ns3:TrackPointExtension>
            <ns3:hr>101</ns3:hr>
            <ns3:cad>0</ns3:cad>
          </ns3:TrackPointExtension>
        </extensions>
      </trkpt>
      <trkpt lat="37.7710157074034214019775390625" lon="-107.70664044655859470367431640625">
        <ele>3858.60009765625</ele>
        <time>2023-07-29T14:42:48.000Z</time>
        <extensions>
          <ns3:TrackPointExtension>
            <ns3:hr>102</ns3:hr>
            <ns3:cad>0</ns3:cad>
          </ns3:TrackPointExtension>
        </extensions>
      </trkpt>
      <trkpt lat="37.7710163779556751251220703125" lon="-107.7066485770046710968017578125">
        <ele>3858.800048828125</ele>
        <time>2023-07-29T14:42:49.000Z</time>
        <extensions>
          <ns3:TrackPointExtension>
            <ns3:hr>102</ns3:hr>
            <ns3:cad>0</ns3:cad>
          </ns3:TrackPointExtension>
        </extensions>
      </trkpt>
      <trkpt lat="37.77101880870759487152099609375" lon="-107.706650756299495697021484375">
        <ele>3858.800048828125</ele>
        <time>2023-07-29T14:42:50.000Z</time>
        <extensions>
          <ns3:TrackPointExtension>
            <ns3:hr>103</ns3:hr>
            <ns3:cad>0</ns3:cad>
          </ns3:TrackPointExtension>
        </extensions>
      </trkpt>
      <trkpt lat="37.77102182619273662567138671875" lon="-107.70665536634624004364013671875">
        <ele>3859</ele>
        <time>2023-07-29T14:42:51.000Z</time>
        <extensions>
          <ns3:TrackPointExtension>
            <ns3:hr>103</ns3:hr>
            <ns3:cad>0</ns3:cad>
          </ns3:TrackPointExtension>
        </extensions>
      </trkpt>
      <trkpt lat="37.7710177190601825714111328125" lon="-107.70665620453655719757080078125">
        <ele>3859.199951171875</ele>
        <time>2023-07-29T14:42:52.000Z</time>
        <extensions>
          <ns3:TrackPointExtension>
            <ns3:hr>103</ns3:hr>
            <ns3:cad>0</ns3:cad>
          </ns3:TrackPointExtension>
        </extensions>
      </trkpt>
      <trkpt lat="37.77101227082312107086181640625" lon="-107.7066562883555889129638671875">
        <ele>3859.39990234375</ele>
        <time>2023-07-29T14:42:53.000Z</time>
        <extensions>
          <ns3:TrackPointExtension>
            <ns3:hr>104</ns3:hr>
            <ns3:cad>0</ns3:cad>
          </ns3:TrackPointExtension>
        </extensions>
      </trkpt>
      <trkpt lat="37.77100824750959873199462890625" lon="-107.7066536061465740203857421875">
        <ele>3859.60009765625</ele>
        <time>2023-07-29T14:42:54.000Z</time>
        <extensions>
          <ns3:TrackPointExtension>
            <ns3:hr>104</ns3:hr>
            <ns3:cad>0</ns3:cad>
          </ns3:TrackPointExtension>
        </extensions>
      </trkpt>
      <trkpt lat="37.77100556530058383941650390625" lon="-107.70664849318563938140869140625">
        <ele>3859.800048828125</ele>
        <time>2023-07-29T14:42:55.000Z</time>
        <extensions>
          <ns3:TrackPointExtension>
            <ns3:hr>105</ns3:hr>
            <ns3:cad>0</ns3:cad>
          </ns3:TrackPointExtension>
        </extensions>
      </trkpt>
      <trkpt lat="37.77100615203380584716796875" lon="-107.70664245821535587310791015625">
        <ele>3859.800048828125</ele>
        <time>2023-07-29T14:42:56.000Z</time>
        <extensions>
          <ns3:TrackPointExtension>
            <ns3:hr>106</ns3:hr>
            <ns3:cad>0</ns3:cad>
          </ns3:TrackPointExtension>
        </extensions>
      </trkpt>
      <trkpt lat="37.77100975625216960906982421875" lon="-107.70663860253989696502685546875">
        <ele>3859.800048828125</ele>
        <time>2023-07-29T14:42:57.000Z</time>
        <extensions>
          <ns3:TrackPointExtension>
            <ns3:hr>107</ns3:hr>
            <ns3:cad>0</ns3:cad>
          </ns3:TrackPointExtension>
        </extensions>
      </trkpt>
      <trkpt lat="37.7710135281085968017578125" lon="-107.70663022063672542572021484375">
        <ele>3859.800048828125</ele>
        <time>2023-07-29T14:42:58.000Z</time>
        <extensions>
          <ns3:TrackPointExtension>
            <ns3:hr>107</ns3:hr>
            <ns3:cad>0</ns3:cad>
          </ns3:TrackPointExtension>
        </extensions>
      </trkpt>
      <trkpt lat="37.771018557250499725341796875" lon="-107.70662401802837848663330078125">
        <ele>3859.800048828125</ele>
        <time>2023-07-29T14:42:59.000Z</time>
        <extensions>
          <ns3:TrackPointExtension>
            <ns3:hr>106</ns3:hr>
            <ns3:cad>0</ns3:cad>
          </ns3:TrackPointExtension>
        </extensions>
      </trkpt>
      <trkpt lat="37.7710215747356414794921875" lon="-107.70661848597228527069091796875">
        <ele>3859.800048828125</ele>
        <time>2023-07-29T14:43:00.000Z</time>
        <extensions>
          <ns3:TrackPointExtension>
            <ns3:hr>106</ns3:hr>
            <ns3:cad>0</ns3:cad>
          </ns3:TrackPointExtension>
        </extensions>
      </trkpt>
      <trkpt lat="37.7710264362394809722900390625" lon="-107.70661412738263607025146484375">
        <ele>3859.800048828125</ele>
        <time>2023-07-29T14:43:01.000Z</time>
        <extensions>
          <ns3:TrackPointExtension>
            <ns3:hr>106</ns3:hr>
            <ns3:cad>0</ns3:cad>
          </ns3:TrackPointExtension>
        </extensions>
      </trkpt>
      <trkpt lat="37.77102936990559101104736328125" lon="-107.7066070027649402618408203125">
        <ele>3859.800048828125</ele>
        <time>2023-07-29T14:43:02.000Z</time>
        <extensions>
          <ns3:TrackPointExtension>
            <ns3:hr>106</ns3:hr>
            <ns3:cad>0</ns3:cad>
          </ns3:TrackPointExtension>
        </extensions>
      </trkpt>
      <trkpt lat="37.771037332713603973388671875" lon="-107.70659518428146839141845703125">
        <ele>3860</ele>
        <time>2023-07-29T14:43:03.000Z</time>
        <extensions>
          <ns3:TrackPointExtension>
            <ns3:hr>106</ns3:hr>
            <ns3:cad>0</ns3:cad>
          </ns3:TrackPointExtension>
        </extensions>
      </trkpt>
      <trkpt lat="37.77104009874165058135986328125" lon="-107.7065842039883136749267578125">
        <ele>3860</ele>
        <time>2023-07-29T14:43:04.000Z</time>
        <extensions>
          <ns3:TrackPointExtension>
            <ns3:hr>106</ns3:hr>
            <ns3:cad>0</ns3:cad>
          </ns3:TrackPointExtension>
        </extensions>
      </trkpt>
      <trkpt lat="37.7710482291877269744873046875" lon="-107.7065771631896495819091796875">
        <ele>3860</ele>
        <time>2023-07-29T14:43:05.000Z</time>
        <extensions>
          <ns3:TrackPointExtension>
            <ns3:hr>105</ns3:hr>
            <ns3:cad>0</ns3:cad>
          </ns3:TrackPointExtension>
        </extensions>
      </trkpt>
      <trkpt lat="37.77105116285383701324462890625" lon="-107.7065758220851421356201171875">
        <ele>3860</ele>
        <time>2023-07-29T14:43:06.000Z</time>
        <extensions>
          <ns3:TrackPointExtension>
            <ns3:hr>105</ns3:hr>
            <ns3:cad>0</ns3:cad>
          </ns3:TrackPointExtension>
        </extensions>
      </trkpt>
      <trkpt lat="37.7710549347102642059326171875" lon="-107.706574313342571258544921875">
        <ele>3860</ele>
        <time>2023-07-29T14:43:07.000Z</time>
        <extensions>
          <ns3:TrackPointExtension>
            <ns3:hr>104</ns3:hr>
            <ns3:cad>0</ns3:cad>
          </ns3:TrackPointExtension>
        </extensions>
      </trkpt>
      <trkpt lat="37.77106239460408687591552734375" lon="-107.70656526088714599609375">
        <ele>3860</ele>
        <time>2023-07-29T14:43:08.000Z</time>
        <extensions>
          <ns3:TrackPointExtension>
            <ns3:hr>104</ns3:hr>
            <ns3:cad>0</ns3:cad>
          </ns3:TrackPointExtension>
        </extensions>
      </trkpt>
      <trkpt lat="37.77106842957437038421630859375" lon="-107.7065639197826385498046875">
        <ele>3860.199951171875</ele>
        <time>2023-07-29T14:43:09.000Z</time>
        <extensions>
          <ns3:TrackPointExtension>
            <ns3:hr>104</ns3:hr>
            <ns3:cad>0</ns3:cad>
          </ns3:TrackPointExtension>
        </extensions>
      </trkpt>
      <trkpt lat="37.7710690163075923919677734375" lon="-107.70657808519899845123291015625">
        <ele>3860.199951171875</ele>
        <time>2023-07-29T14:43:10.000Z</time>
        <extensions>
          <ns3:TrackPointExtension>
            <ns3:hr>104</ns3:hr>
            <ns3:cad>0</ns3:cad>
          </ns3:TrackPointExtension>
        </extensions>
      </trkpt>
      <trkpt lat="37.77107446454465389251708984375" lon="-107.7065808512270450592041015625">
        <ele>3860.39990234375</ele>
        <time>2023-07-29T14:43:11.000Z</time>
        <extensions>
          <ns3:TrackPointExtension>
            <ns3:hr>104</ns3:hr>
            <ns3:cad>0</ns3:cad>
          </ns3:TrackPointExtension>
        </extensions>
      </trkpt>
      <trkpt lat="37.77107530273497104644775390625" lon="-107.70658479072153568267822265625">
        <ele>3860.39990234375</ele>
        <time>2023-07-29T14:43:12.000Z</time>
        <extensions>
          <ns3:TrackPointExtension>
            <ns3:hr>104</ns3:hr>
            <ns3:cad>0</ns3:cad>
          </ns3:TrackPointExtension>
        </extensions>
      </trkpt>
      <trkpt lat="37.77107588946819305419921875" lon="-107.70658546127378940582275390625">
        <ele>3860.60009765625</ele>
        <time>2023-07-29T14:43:13.000Z</time>
        <extensions>
          <ns3:TrackPointExtension>
            <ns3:hr>104</ns3:hr>
            <ns3:cad>0</ns3:cad>
          </ns3:TrackPointExtension>
        </extensions>
      </trkpt>
      <trkpt lat="37.77106943540275096893310546875" lon="-107.7065865509212017059326171875">
        <ele>3860.60009765625</ele>
        <time>2023-07-29T14:43:14.000Z</time>
        <extensions>
          <ns3:TrackPointExtension>
            <ns3:hr>105</ns3:hr>
            <ns3:cad>0</ns3:cad>
          </ns3:TrackPointExtension>
        </extensions>
      </trkpt>
      <trkpt lat="37.7710737101733684539794921875" lon="-107.7065912447869777679443359375">
        <ele>3861</ele>
        <time>2023-07-29T14:43:15.000Z</time>
        <extensions>
          <ns3:TrackPointExtension>
            <ns3:hr>105</ns3:hr>
            <ns3:cad>0</ns3:cad>
          </ns3:TrackPointExtension>
        </extensions>
      </trkpt>
      <trkpt lat="37.7710767276585102081298828125" lon="-107.70659401081502437591552734375">
        <ele>3861.199951171875</ele>
        <time>2023-07-29T14:43:16.000Z</time>
        <extensions>
          <ns3:TrackPointExtension>
            <ns3:hr>105</ns3:hr>
            <ns3:cad>0</ns3:cad>
          </ns3:TrackPointExtension>
        </extensions>
      </trkpt>
      <trkpt lat="37.77107991278171539306640625" lon="-107.7065905742347240447998046875">
        <ele>3861.39990234375</ele>
        <time>2023-07-29T14:43:17.000Z</time>
        <extensions>
          <ns3:TrackPointExtension>
            <ns3:hr>105</ns3:hr>
            <ns3:cad>0</ns3:cad>
          </ns3:TrackPointExtension>
        </extensions>
      </trkpt>
      <trkpt lat="37.771080248057842254638671875" lon="-107.7065880596637725830078125">
        <ele>3861.39990234375</ele>
        <time>2023-07-29T14:43:18.000Z</time>
        <extensions>
          <ns3:TrackPointExtension>
            <ns3:hr>105</ns3:hr>
            <ns3:cad>0</ns3:cad>
          </ns3:TrackPointExtension>
        </extensions>
      </trkpt>
      <trkpt lat="37.7710844390094280242919921875" lon="-107.7065878920257091522216796875">
        <ele>3861.60009765625</ele>
        <time>2023-07-29T14:43:19.000Z</time>
        <extensions>
          <ns3:TrackPointExtension>
            <ns3:hr>105</ns3:hr>
            <ns3:cad>0</ns3:cad>
          </ns3:TrackPointExtension>
        </extensions>
      </trkpt>
      <trkpt lat="37.771089635789394378662109375" lon="-107.70659141242504119873046875">
        <ele>3861.60009765625</ele>
        <time>2023-07-29T14:43:20.000Z</time>
        <extensions>
          <ns3:TrackPointExtension>
            <ns3:hr>105</ns3:hr>
            <ns3:cad>0</ns3:cad>
          </ns3:TrackPointExtension>
        </extensions>
      </trkpt>
      <trkpt lat="37.7710934914648532867431640625" lon="-107.70659166388213634490966796875">
        <ele>3861.800048828125</ele>
        <time>2023-07-29T14:43:21.000Z</time>
        <extensions>
          <ns3:TrackPointExtension>
            <ns3:hr>105</ns3:hr>
            <ns3:cad>0</ns3:cad>
          </ns3:TrackPointExtension>
        </extensions>
      </trkpt>
      <trkpt lat="37.7710985206067562103271484375" lon="-107.7065932564437389373779296875">
        <ele>3861.800048828125</ele>
        <time>2023-07-29T14:43:22.000Z</time>
        <extensions>
          <ns3:TrackPointExtension>
            <ns3:hr>105</ns3:hr>
            <ns3:cad>0</ns3:cad>
          </ns3:TrackPointExtension>
        </extensions>
      </trkpt>
      <trkpt lat="37.77110380120575428009033203125" lon="-107.70659007132053375244140625">
        <ele>3862.199951171875</ele>
        <time>2023-07-29T14:43:23.000Z</time>
        <extensions>
          <ns3:TrackPointExtension>
            <ns3:hr>105</ns3:hr>
            <ns3:cad>0</ns3:cad>
          </ns3:TrackPointExtension>
        </extensions>
      </trkpt>
      <trkpt lat="37.771111093461513519287109375" lon="-107.7065902389585971832275390625">
        <ele>3862.39990234375</ele>
        <time>2023-07-29T14:43:24.000Z</time>
        <extensions>
          <ns3:TrackPointExtension>
            <ns3:hr>106</ns3:hr>
            <ns3:cad>0</ns3:cad>
          </ns3:TrackPointExtension>
        </extensions>
      </trkpt>
      <trkpt lat="37.7711172960698604583740234375" lon="-107.7065872214734554290771484375">
        <ele>3862.60009765625</ele>
        <time>2023-07-29T14:43:25.000Z</time>
        <extensions>
          <ns3:TrackPointExtension>
            <ns3:hr>106</ns3:hr>
            <ns3:cad>0</ns3:cad>
          </ns3:TrackPointExtension>
        </extensions>
      </trkpt>
      <trkpt lat="37.77111955918371677398681640625" lon="-107.706587724387645721435546875">
        <ele>3862.800048828125</ele>
        <time>2023-07-29T14:43:26.000Z</time>
        <extensions>
          <ns3:TrackPointExtension>
            <ns3:hr>107</ns3:hr>
            <ns3:cad>0</ns3:cad>
          </ns3:TrackPointExtension>
        </extensions>
      </trkpt>
      <trkpt lat="37.77112592943012714385986328125" lon="-107.7065878920257091522216796875">
        <ele>3863</ele>
        <time>2023-07-29T14:43:27.000Z</time>
        <extensions>
          <ns3:TrackPointExtension>
            <ns3:hr>107</ns3:hr>
            <ns3:cad>0</ns3:cad>
          </ns3:TrackPointExtension>
        </extensions>
      </trkpt>
      <trkpt lat="37.77112911455333232879638671875" lon="-107.70658764056861400604248046875">
        <ele>3863</ele>
        <time>2023-07-29T14:43:28.000Z</time>
        <extensions>
          <ns3:TrackPointExtension>
            <ns3:hr>107</ns3:hr>
            <ns3:cad>0</ns3:cad>
          </ns3:TrackPointExtension>
        </extensions>
      </trkpt>
      <trkpt lat="37.77113246731460094451904296875" lon="-107.706586383283138275146484375">
        <ele>3863.199951171875</ele>
        <time>2023-07-29T14:43:29.000Z</time>
        <extensions>
          <ns3:TrackPointExtension>
            <ns3:hr>107</ns3:hr>
            <ns3:cad>0</ns3:cad>
          </ns3:TrackPointExtension>
        </extensions>
      </trkpt>
      <trkpt lat="37.77113280259072780609130859375" lon="-107.70658562891185283660888671875">
        <ele>3863.39990234375</ele>
        <time>2023-07-29T14:43:30.000Z</time>
        <extensions>
          <ns3:TrackPointExtension>
            <ns3:hr>107</ns3:hr>
            <ns3:cad>0</ns3:cad>
          </ns3:TrackPointExtension>
        </extensions>
      </trkpt>
      <trkpt lat="37.771135233342647552490234375" lon="-107.7065835334360599517822265625">
        <ele>3863.60009765625</ele>
        <time>2023-07-29T14:43:31.000Z</time>
        <extensions>
          <ns3:TrackPointExtension>
            <ns3:hr>107</ns3:hr>
            <ns3:cad>0</ns3:cad>
          </ns3:TrackPointExtension>
        </extensions>
      </trkpt>
      <trkpt lat="37.77113431133329868316650390625" lon="-107.706579007208347320556640625">
        <ele>3863.60009765625</ele>
        <time>2023-07-29T14:43:32.000Z</time>
        <extensions>
          <ns3:TrackPointExtension>
            <ns3:hr>108</ns3:hr>
            <ns3:cad>0</ns3:cad>
          </ns3:TrackPointExtension>
        </extensions>
      </trkpt>
      <trkpt lat="37.7711317129433155059814453125" lon="-107.70657456479966640472412109375">
        <ele>3863.60009765625</ele>
        <time>2023-07-29T14:43:33.000Z</time>
        <extensions>
          <ns3:TrackPointExtension>
            <ns3:hr>107</ns3:hr>
            <ns3:cad>0</ns3:cad>
          </ns3:TrackPointExtension>
        </extensions>
      </trkpt>
      <trkpt lat="37.77113489806652069091796875" lon="-107.70657154731452465057373046875">
        <ele>3863.60009765625</ele>
        <time>2023-07-29T14:43:34.000Z</time>
        <extensions>
          <ns3:TrackPointExtension>
            <ns3:hr>107</ns3:hr>
            <ns3:cad>0</ns3:cad>
          </ns3:TrackPointExtension>
        </extensions>
      </trkpt>
      <trkpt lat="37.77114789001643657684326171875" lon="-107.70656316541135311126708984375">
        <ele>3863.60009765625</ele>
        <time>2023-07-29T14:43:35.000Z</time>
        <extensions>
          <ns3:TrackPointExtension>
            <ns3:hr>107</ns3:hr>
            <ns3:cad>0</ns3:cad>
          </ns3:TrackPointExtension>
        </extensions>
      </trkpt>
      <trkpt lat="37.7711618877947330474853515625" lon="-107.70655612461268901824951171875">
        <ele>3863.800048828125</ele>
        <time>2023-07-29T14:43:36.000Z</time>
        <extensions>
          <ns3:TrackPointExtension>
            <ns3:hr>107</ns3:hr>
            <ns3:cad>0</ns3:cad>
          </ns3:TrackPointExtension>
        </extensions>
      </trkpt>
      <trkpt lat="37.771175801753997802734375" lon="-107.7065459825098514556884765625">
        <ele>3863.800048828125</ele>
        <time>2023-07-29T14:43:37.000Z</time>
        <extensions>
          <ns3:TrackPointExtension>
            <ns3:hr>108</ns3:hr>
            <ns3:cad>0</ns3:cad>
          </ns3:TrackPointExtension>
        </extensions>
      </trkpt>
      <trkpt lat="37.771185524761676788330078125" lon="-107.7065396122634410858154296875">
        <ele>3863.800048828125</ele>
        <time>2023-07-29T14:43:38.000Z</time>
        <extensions>
          <ns3:TrackPointExtension>
            <ns3:hr>108</ns3:hr>
            <ns3:cad>0</ns3:cad>
          </ns3:TrackPointExtension>
        </extensions>
      </trkpt>
      <trkpt lat="37.77119114063680171966552734375" lon="-107.706536091864109039306640625">
        <ele>3864</ele>
        <time>2023-07-29T14:43:39.000Z</time>
        <extensions>
          <ns3:TrackPointExtension>
            <ns3:hr>109</ns3:hr>
            <ns3:cad>0</ns3:cad>
          </ns3:TrackPointExtension>
        </extensions>
      </trkpt>
      <trkpt lat="37.7712014503777027130126953125" lon="-107.7065288834273815155029296875">
        <ele>3864.199951171875</ele>
        <time>2023-07-29T14:43:40.000Z</time>
        <extensions>
          <ns3:TrackPointExtension>
            <ns3:hr>108</ns3:hr>
            <ns3:cad>0</ns3:cad>
          </ns3:TrackPointExtension>
        </extensions>
      </trkpt>
      <trkpt lat="37.77121326886117458343505859375" lon="-107.706524692475795745849609375">
        <ele>3864.199951171875</ele>
        <time>2023-07-29T14:43:41.000Z</time>
        <extensions>
          <ns3:TrackPointExtension>
            <ns3:hr>108</ns3:hr>
            <ns3:cad>0</ns3:cad>
          </ns3:TrackPointExtension>
        </extensions>
      </trkpt>
      <trkpt lat="37.7712215669453144073486328125" lon="-107.706522680819034576416015625">
        <ele>3864.199951171875</ele>
        <time>2023-07-29T14:43:42.000Z</time>
        <extensions>
          <ns3:TrackPointExtension>
            <ns3:hr>108</ns3:hr>
            <ns3:cad>0</ns3:cad>
          </ns3:TrackPointExtension>
        </extensions>
      </trkpt>
      <trkpt lat="37.77122818864881992340087890625" lon="-107.70652058534324169158935546875">
        <ele>3864.199951171875</ele>
        <time>2023-07-29T14:43:43.000Z</time>
        <extensions>
          <ns3:TrackPointExtension>
            <ns3:hr>108</ns3:hr>
            <ns3:cad>51</ns3:cad>
          </ns3:TrackPointExtension>
        </extensions>
      </trkpt>
      <trkpt lat="37.771236486732959747314453125" lon="-107.70651740022003650665283203125">
        <ele>3864.199951171875</ele>
        <time>2023-07-29T14:43:44.000Z</time>
        <extensions>
          <ns3:TrackPointExtension>
            <ns3:hr>108</ns3:hr>
            <ns3:cad>73</ns3:cad>
          </ns3:TrackPointExtension>
        </extensions>
      </trkpt>
      <trkpt lat="37.77124428190290927886962890625" lon="-107.7065164782106876373291015625">
        <ele>3864.199951171875</ele>
        <time>2023-07-29T14:43:45.000Z</time>
        <extensions>
          <ns3:TrackPointExtension>
            <ns3:hr>108</ns3:hr>
            <ns3:cad>79</ns3:cad>
          </ns3:TrackPointExtension>
        </extensions>
      </trkpt>
      <trkpt lat="37.7712507359683513641357421875" lon="-107.706514634191989898681640625">
        <ele>3864.60009765625</ele>
        <time>2023-07-29T14:43:46.000Z</time>
        <extensions>
          <ns3:TrackPointExtension>
            <ns3:hr>108</ns3:hr>
            <ns3:cad>79</ns3:cad>
          </ns3:TrackPointExtension>
        </extensions>
      </trkpt>
      <trkpt lat="37.77125836350023746490478515625" lon="-107.7065131254494190216064453125">
        <ele>3864.60009765625</ele>
        <time>2023-07-29T14:43:47.000Z</time>
        <extensions>
          <ns3:TrackPointExtension>
            <ns3:hr>109</ns3:hr>
            <ns3:cad>79</ns3:cad>
          </ns3:TrackPointExtension>
        </extensions>
      </trkpt>
      <trkpt lat="37.77127194218337535858154296875" lon="-107.70651069469749927520751953125">
        <ele>3864.60009765625</ele>
        <time>2023-07-29T14:43:48.000Z</time>
        <extensions>
          <ns3:TrackPointExtension>
            <ns3:hr>109</ns3:hr>
            <ns3:cad>79</ns3:cad>
          </ns3:TrackPointExtension>
        </extensions>
      </trkpt>
      <trkpt lat="37.771282084286212921142578125" lon="-107.7065102756023406982421875">
        <ele>3864.800048828125</ele>
        <time>2023-07-29T14:43:49.000Z</time>
        <extensions>
          <ns3:TrackPointExtension>
            <ns3:hr>109</ns3:hr>
            <ns3:cad>79</ns3:cad>
          </ns3:TrackPointExtension>
        </extensions>
      </trkpt>
      <trkpt lat="37.77128820307552814483642578125" lon="-107.70650935359299182891845703125">
        <ele>3864.800048828125</ele>
        <time>2023-07-29T14:43:50.000Z</time>
        <extensions>
          <ns3:TrackPointExtension>
            <ns3:hr>109</ns3:hr>
            <ns3:cad>79</ns3:cad>
          </ns3:TrackPointExtension>
        </extensions>
      </trkpt>
      <trkpt lat="37.77129155583679676055908203125" lon="-107.7065084315836429595947265625">
        <ele>3865</ele>
        <time>2023-07-29T14:43:51.000Z</time>
        <extensions>
          <ns3:TrackPointExtension>
            <ns3:hr>110</ns3:hr>
            <ns3:cad>79</ns3:cad>
          </ns3:TrackPointExtension>
        </extensions>
      </trkpt>
      <trkpt lat="37.771297506988048553466796875" lon="-107.70650633610785007476806640625">
        <ele>3865.199951171875</ele>
        <time>2023-07-29T14:43:52.000Z</time>
        <extensions>
          <ns3:TrackPointExtension>
            <ns3:hr>110</ns3:hr>
            <ns3:cad>79</ns3:cad>
          </ns3:TrackPointExtension>
        </extensions>
      </trkpt>
      <trkpt lat="37.77130513451993465423583984375" lon="-107.70650549791753292083740234375">
        <ele>3865.199951171875</ele>
        <time>2023-07-29T14:43:53.000Z</time>
        <extensions>
          <ns3:TrackPointExtension>
            <ns3:hr>110</ns3:hr>
            <ns3:cad>0</ns3:cad>
          </ns3:TrackPointExtension>
        </extensions>
      </trkpt>
      <trkpt lat="37.77130764909088611602783203125" lon="-107.70650558173656463623046875">
        <ele>3865.199951171875</ele>
        <time>2023-07-29T14:43:54.000Z</time>
        <extensions>
          <ns3:TrackPointExtension>
            <ns3:hr>110</ns3:hr>
            <ns3:cad>0</ns3:cad>
          </ns3:TrackPointExtension>
        </extensions>
      </trkpt>
      <trkpt lat="37.77131368406116962432861328125" lon="-107.70650692284107208251953125">
        <ele>3865.39990234375</ele>
        <time>2023-07-29T14:43:55.000Z</time>
        <extensions>
          <ns3:TrackPointExtension>
            <ns3:hr>109</ns3:hr>
            <ns3:cad>0</ns3:cad>
          </ns3:TrackPointExtension>
        </extensions>
      </trkpt>
      <trkpt lat="37.7713218145072460174560546875" lon="-107.70650750957429409027099609375">
        <ele>3865.60009765625</ele>
        <time>2023-07-29T14:43:56.000Z</time>
        <extensions>
          <ns3:TrackPointExtension>
            <ns3:hr>109</ns3:hr>
            <ns3:cad>0</ns3:cad>
          </ns3:TrackPointExtension>
        </extensions>
      </trkpt>
      <trkpt lat="37.7713204734027385711669921875" lon="-107.7065087668597698211669921875">
        <ele>3865.60009765625</ele>
        <time>2023-07-29T14:43:57.000Z</time>
        <extensions>
          <ns3:TrackPointExtension>
            <ns3:hr>109</ns3:hr>
            <ns3:cad>0</ns3:cad>
          </ns3:TrackPointExtension>
        </extensions>
      </trkpt>
      <trkpt lat="37.77131971903145313262939453125" lon="-107.70650935359299182891845703125">
        <ele>3865.800048828125</ele>
        <time>2023-07-29T14:43:58.000Z</time>
        <extensions>
          <ns3:TrackPointExtension>
            <ns3:hr>108</ns3:hr>
            <ns3:cad>0</ns3:cad>
          </ns3:TrackPointExtension>
        </extensions>
      </trkpt>
      <trkpt lat="37.77132072485983371734619140625" lon="-107.7065067552030086517333984375">
        <ele>3865.800048828125</ele>
        <time>2023-07-29T14:43:59.000Z</time>
        <extensions>
          <ns3:TrackPointExtension>
            <ns3:hr>109</ns3:hr>
            <ns3:cad>0</ns3:cad>
          </ns3:TrackPointExtension>
        </extensions>
      </trkpt>
      <trkpt lat="37.77132541872560977935791015625" lon="-107.70650164224207401275634765625">
        <ele>3866</ele>
        <time>2023-07-29T14:44:00.000Z</time>
        <extensions>
          <ns3:TrackPointExtension>
            <ns3:hr>109</ns3:hr>
            <ns3:cad>0</ns3:cad>
          </ns3:TrackPointExtension>
        </extensions>
      </trkpt>
      <trkpt lat="37.77133564464747905731201171875" lon="-107.70649376325309276580810546875">
        <ele>3866.199951171875</ele>
        <time>2023-07-29T14:44:01.000Z</time>
        <extensions>
          <ns3:TrackPointExtension>
            <ns3:hr>109</ns3:hr>
            <ns3:cad>0</ns3:cad>
          </ns3:TrackPointExtension>
        </extensions>
      </trkpt>
      <trkpt lat="37.771345116198062896728515625" lon="-107.70648605190217494964599609375">
        <ele>3866.39990234375</ele>
        <time>2023-07-29T14:44:02.000Z</time>
        <extensions>
          <ns3:TrackPointExtension>
            <ns3:hr>109</ns3:hr>
            <ns3:cad>0</ns3:cad>
          </ns3:TrackPointExtension>
        </extensions>
      </trkpt>
      <trkpt lat="37.77134804986417293548583984375" lon="-107.7064742334187030792236328125">
        <ele>3866.800048828125</ele>
        <time>2023-07-29T14:44:03.000Z</time>
        <extensions>
          <ns3:TrackPointExtension>
            <ns3:hr>109</ns3:hr>
            <ns3:cad>0</ns3:cad>
          </ns3:TrackPointExtension>
        </extensions>
      </trkpt>
      <trkpt lat="37.77135550975799560546875" lon="-107.7064624987542629241943359375">
        <ele>3867</ele>
        <time>2023-07-29T14:44:04.000Z</time>
        <extensions>
          <ns3:TrackPointExtension>
            <ns3:hr>108</ns3:hr>
            <ns3:cad>0</ns3:cad>
          </ns3:TrackPointExtension>
        </extensions>
      </trkpt>
      <trkpt lat="37.771360874176025390625" lon="-107.7064514346420764923095703125">
        <ele>3867.199951171875</ele>
        <time>2023-07-29T14:44:05.000Z</time>
        <extensions>
          <ns3:TrackPointExtension>
            <ns3:hr>108</ns3:hr>
            <ns3:cad>0</ns3:cad>
          </ns3:TrackPointExtension>
        </extensions>
      </trkpt>
      <trkpt lat="37.7713633887469768524169921875" lon="-107.70644028671085834503173828125">
        <ele>3867.39990234375</ele>
        <time>2023-07-29T14:44:06.000Z</time>
        <extensions>
          <ns3:TrackPointExtension>
            <ns3:hr>108</ns3:hr>
            <ns3:cad>0</ns3:cad>
          </ns3:TrackPointExtension>
        </extensions>
      </trkpt>
      <trkpt lat="37.77137001045048236846923828125" lon="-107.70643224008381366729736328125">
        <ele>3867.39990234375</ele>
        <time>2023-07-29T14:44:07.000Z</time>
        <extensions>
          <ns3:TrackPointExtension>
            <ns3:hr>108</ns3:hr>
            <ns3:cad>0</ns3:cad>
          </ns3:TrackPointExtension>
        </extensions>
      </trkpt>
      <trkpt lat="37.771372608840465545654296875" lon="-107.70643274299800395965576171875">
        <ele>3867.39990234375</ele>
        <time>2023-07-29T14:44:08.000Z</time>
        <extensions>
          <ns3:TrackPointExtension>
            <ns3:hr>108</ns3:hr>
            <ns3:cad>0</ns3:cad>
          </ns3:TrackPointExtension>
        </extensions>
      </trkpt>
      <trkpt lat="37.77138073928654193878173828125" lon="-107.70642218180000782012939453125">
        <ele>3867.39990234375</ele>
        <time>2023-07-29T14:44:09.000Z</time>
        <extensions>
          <ns3:TrackPointExtension>
            <ns3:hr>108</ns3:hr>
            <ns3:cad>0</ns3:cad>
          </ns3:TrackPointExtension>
        </extensions>
      </trkpt>
      <trkpt lat="37.77138794772326946258544921875" lon="-107.70641145296394824981689453125">
        <ele>3867.60009765625</ele>
        <time>2023-07-29T14:44:10.000Z</time>
        <extensions>
          <ns3:TrackPointExtension>
            <ns3:hr>108</ns3:hr>
            <ns3:cad>0</ns3:cad>
          </ns3:TrackPointExtension>
        </extensions>
      </trkpt>
      <trkpt lat="37.77139666490256786346435546875" lon="-107.7064014784991741180419921875">
        <ele>3867.60009765625</ele>
        <time>2023-07-29T14:44:11.000Z</time>
        <extensions>
          <ns3:TrackPointExtension>
            <ns3:hr>108</ns3:hr>
            <ns3:cad>0</ns3:cad>
          </ns3:TrackPointExtension>
        </extensions>
      </trkpt>
      <trkpt lat="37.77139985002577304840087890625" lon="-107.70639016292989253997802734375">
        <ele>3867.60009765625</ele>
        <time>2023-07-29T14:44:12.000Z</time>
        <extensions>
          <ns3:TrackPointExtension>
            <ns3:hr>109</ns3:hr>
            <ns3:cad>0</ns3:cad>
          </ns3:TrackPointExtension>
        </extensions>
      </trkpt>
      <trkpt lat="37.7713999338448047637939453125" lon="-107.706385888159275054931640625">
        <ele>3868.199951171875</ele>
        <time>2023-07-29T14:44:13.000Z</time>
        <extensions>
          <ns3:TrackPointExtension>
            <ns3:hr>109</ns3:hr>
            <ns3:cad>0</ns3:cad>
          </ns3:TrackPointExtension>
        </extensions>
      </trkpt>
      <trkpt lat="37.77139834128320217132568359375" lon="-107.70638429559767246246337890625">
        <ele>3868.199951171875</ele>
        <time>2023-07-29T14:44:14.000Z</time>
        <extensions>
          <ns3:TrackPointExtension>
            <ns3:hr>108</ns3:hr>
            <ns3:cad>0</ns3:cad>
          </ns3:TrackPointExtension>
        </extensions>
      </trkpt>
      <trkpt lat="37.77139934711158275604248046875" lon="-107.70637951791286468505859375">
        <ele>3868.39990234375</ele>
        <time>2023-07-29T14:44:15.000Z</time>
        <extensions>
          <ns3:TrackPointExtension>
            <ns3:hr>109</ns3:hr>
            <ns3:cad>0</ns3:cad>
          </ns3:TrackPointExtension>
        </extensions>
      </trkpt>
      <trkpt lat="37.77140177786350250244140625" lon="-107.7063753269612789154052734375">
        <ele>3868.60009765625</ele>
        <time>2023-07-29T14:44:16.000Z</time>
        <extensions>
          <ns3:TrackPointExtension>
            <ns3:hr>109</ns3:hr>
            <ns3:cad>0</ns3:cad>
          </ns3:TrackPointExtension>
        </extensions>
      </trkpt>
      <trkpt lat="37.77140135876834392547607421875" lon="-107.70637591369450092315673828125">
        <ele>3868.800048828125</ele>
        <time>2023-07-29T14:44:17.000Z</time>
        <extensions>
          <ns3:TrackPointExtension>
            <ns3:hr>109</ns3:hr>
            <ns3:cad>0</ns3:cad>
          </ns3:TrackPointExtension>
        </extensions>
      </trkpt>
      <trkpt lat="37.77140177786350250244140625" lon="-107.706373818218708038330078125">
        <ele>3868.800048828125</ele>
        <time>2023-07-29T14:44:18.000Z</time>
        <extensions>
          <ns3:TrackPointExtension>
            <ns3:hr>109</ns3:hr>
            <ns3:cad>0</ns3:cad>
          </ns3:TrackPointExtension>
        </extensions>
      </trkpt>
      <trkpt lat="37.77140186168253421783447265625" lon="-107.70637725479900836944580078125">
        <ele>3869</ele>
        <time>2023-07-29T14:44:19.000Z</time>
        <extensions>
          <ns3:TrackPointExtension>
            <ns3:hr>109</ns3:hr>
            <ns3:cad>0</ns3:cad>
          </ns3:TrackPointExtension>
        </extensions>
      </trkpt>
      <trkpt lat="37.77140571735799312591552734375" lon="-107.70637557841837406158447265625">
        <ele>3869.199951171875</ele>
        <time>2023-07-29T14:44:20.000Z</time>
        <extensions>
          <ns3:TrackPointExtension>
            <ns3:hr>110</ns3:hr>
            <ns3:cad>0</ns3:cad>
          </ns3:TrackPointExtension>
        </extensions>
      </trkpt>
      <trkpt lat="37.7714104950428009033203125" lon="-107.7063726447522640228271484375">
        <ele>3869.199951171875</ele>
        <time>2023-07-29T14:44:21.000Z</time>
        <extensions>
          <ns3:TrackPointExtension>
            <ns3:hr>110</ns3:hr>
            <ns3:cad>0</ns3:cad>
          </ns3:TrackPointExtension>
        </extensions>
      </trkpt>
      <trkpt lat="37.77141250669956207275390625" lon="-107.70637189038097858428955078125">
        <ele>3869.60009765625</ele>
        <time>2023-07-29T14:44:22.000Z</time>
        <extensions>
          <ns3:TrackPointExtension>
            <ns3:hr>109</ns3:hr>
            <ns3:cad>0</ns3:cad>
          </ns3:TrackPointExtension>
        </extensions>
      </trkpt>
      <trkpt lat="37.77141644619405269622802734375" lon="-107.7063713036477565765380859375">
        <ele>3869.60009765625</ele>
        <time>2023-07-29T14:44:23.000Z</time>
        <extensions>
          <ns3:TrackPointExtension>
            <ns3:hr>109</ns3:hr>
            <ns3:cad>0</ns3:cad>
          </ns3:TrackPointExtension>
        </extensions>
      </trkpt>
      <trkpt lat="37.7714250795543193817138671875" lon="-107.70636870525777339935302734375">
        <ele>3869.800048828125</ele>
        <time>2023-07-29T14:44:24.000Z</time>
        <extensions>
          <ns3:TrackPointExtension>
            <ns3:hr>109</ns3:hr>
            <ns3:cad>0</ns3:cad>
          </ns3:TrackPointExtension>
        </extensions>
      </trkpt>
      <trkpt lat="37.771429605782032012939453125" lon="-107.70636049099266529083251953125">
        <ele>3869.800048828125</ele>
        <time>2023-07-29T14:44:25.000Z</time>
        <extensions>
          <ns3:TrackPointExtension>
            <ns3:hr>109</ns3:hr>
            <ns3:cad>0</ns3:cad>
          </ns3:TrackPointExtension>
        </extensions>
      </trkpt>
      <trkpt lat="37.7714374847710132598876953125" lon="-107.70634867250919342041015625">
        <ele>3870</ele>
        <time>2023-07-29T14:44:26.000Z</time>
        <extensions>
          <ns3:TrackPointExtension>
            <ns3:hr>109</ns3:hr>
            <ns3:cad>0</ns3:cad>
          </ns3:TrackPointExtension>
        </extensions>
      </trkpt>
      <trkpt lat="37.77143924497067928314208984375" lon="-107.70634330809116363525390625">
        <ele>3870</ele>
        <time>2023-07-29T14:44:27.000Z</time>
        <extensions>
          <ns3:TrackPointExtension>
            <ns3:hr>109</ns3:hr>
            <ns3:cad>0</ns3:cad>
          </ns3:TrackPointExtension>
        </extensions>
      </trkpt>
      <trkpt lat="37.7714478783309459686279296875" lon="-107.70633702166378498077392578125">
        <ele>3870.199951171875</ele>
        <time>2023-07-29T14:44:28.000Z</time>
        <extensions>
          <ns3:TrackPointExtension>
            <ns3:hr>109</ns3:hr>
            <ns3:cad>0</ns3:cad>
          </ns3:TrackPointExtension>
        </extensions>
      </trkpt>
      <trkpt lat="37.77144460938870906829833984375" lon="-107.70633316598832607269287109375">
        <ele>3870.39990234375</ele>
        <time>2023-07-29T14:44:29.000Z</time>
        <extensions>
          <ns3:TrackPointExtension>
            <ns3:hr>109</ns3:hr>
            <ns3:cad>0</ns3:cad>
          </ns3:TrackPointExtension>
        </extensions>
      </trkpt>
      <trkpt lat="37.7714451961219310760498046875" lon="-107.70633132196962833404541015625">
        <ele>3870.800048828125</ele>
        <time>2023-07-29T14:44:30.000Z</time>
        <extensions>
          <ns3:TrackPointExtension>
            <ns3:hr>108</ns3:hr>
            <ns3:cad>0</ns3:cad>
          </ns3:TrackPointExtension>
        </extensions>
      </trkpt>
      <trkpt lat="37.771450392901897430419921875" lon="-107.7063280530273914337158203125">
        <ele>3870.800048828125</ele>
        <time>2023-07-29T14:44:31.000Z</time>
        <extensions>
          <ns3:TrackPointExtension>
            <ns3:hr>108</ns3:hr>
            <ns3:cad>0</ns3:cad>
          </ns3:TrackPointExtension>
        </extensions>
      </trkpt>
      <trkpt lat="37.77145483531057834625244140625" lon="-107.70632855594158172607421875">
        <ele>3870.800048828125</ele>
        <time>2023-07-29T14:44:32.000Z</time>
        <extensions>
          <ns3:TrackPointExtension>
            <ns3:hr>108</ns3:hr>
            <ns3:cad>0</ns3:cad>
          </ns3:TrackPointExtension>
        </extensions>
      </trkpt>
      <trkpt lat="37.771461121737957000732421875" lon="-107.70632721483707427978515625">
        <ele>3871</ele>
        <time>2023-07-29T14:44:33.000Z</time>
        <extensions>
          <ns3:TrackPointExtension>
            <ns3:hr>108</ns3:hr>
            <ns3:cad>0</ns3:cad>
          </ns3:TrackPointExtension>
        </extensions>
      </trkpt>
      <trkpt lat="37.77146522887051105499267578125" lon="-107.7063290588557720184326171875">
        <ele>3871.39990234375</ele>
        <time>2023-07-29T14:44:34.000Z</time>
        <extensions>
          <ns3:TrackPointExtension>
            <ns3:hr>109</ns3:hr>
            <ns3:cad>0</ns3:cad>
          </ns3:TrackPointExtension>
        </extensions>
      </trkpt>
      <trkpt lat="37.77146883308887481689453125" lon="-107.70632578991353511810302734375">
        <ele>3871.39990234375</ele>
        <time>2023-07-29T14:44:35.000Z</time>
        <extensions>
          <ns3:TrackPointExtension>
            <ns3:hr>109</ns3:hr>
            <ns3:cad>0</ns3:cad>
          </ns3:TrackPointExtension>
        </extensions>
      </trkpt>
      <trkpt lat="37.771473862230777740478515625" lon="-107.7063210122287273406982421875">
        <ele>3871.39990234375</ele>
        <time>2023-07-29T14:44:36.000Z</time>
        <extensions>
          <ns3:TrackPointExtension>
            <ns3:hr>109</ns3:hr>
            <ns3:cad>0</ns3:cad>
          </ns3:TrackPointExtension>
        </extensions>
      </trkpt>
      <trkpt lat="37.7714817412197589874267578125" lon="-107.70631321705877780914306640625">
        <ele>3871.800048828125</ele>
        <time>2023-07-29T14:44:37.000Z</time>
        <extensions>
          <ns3:TrackPointExtension>
            <ns3:hr>109</ns3:hr>
            <ns3:cad>0</ns3:cad>
          </ns3:TrackPointExtension>
        </extensions>
      </trkpt>
      <trkpt lat="37.77148869819939136505126953125" lon="-107.70630768500268459320068359375">
        <ele>3871.800048828125</ele>
        <time>2023-07-29T14:44:38.000Z</time>
        <extensions>
          <ns3:TrackPointExtension>
            <ns3:hr>109</ns3:hr>
            <ns3:cad>0</ns3:cad>
          </ns3:TrackPointExtension>
        </extensions>
      </trkpt>
      <trkpt lat="37.771493978798389434814453125" lon="-107.7063002251088619232177734375">
        <ele>3871.800048828125</ele>
        <time>2023-07-29T14:44:39.000Z</time>
        <extensions>
          <ns3:TrackPointExtension>
            <ns3:hr>109</ns3:hr>
            <ns3:cad>0</ns3:cad>
          </ns3:TrackPointExtension>
        </extensions>
      </trkpt>
      <trkpt lat="37.77150060050189495086669921875" lon="-107.70628991536796092987060546875">
        <ele>3872</ele>
        <time>2023-07-29T14:44:40.000Z</time>
        <extensions>
          <ns3:TrackPointExtension>
            <ns3:hr>109</ns3:hr>
            <ns3:cad>0</ns3:cad>
          </ns3:TrackPointExtension>
        </extensions>
      </trkpt>
      <trkpt lat="37.77150504291057586669921875" lon="-107.706282623112201690673828125">
        <ele>3872</ele>
        <time>2023-07-29T14:44:41.000Z</time>
        <extensions>
          <ns3:TrackPointExtension>
            <ns3:hr>109</ns3:hr>
            <ns3:cad>0</ns3:cad>
          </ns3:TrackPointExtension>
        </extensions>
      </trkpt>
      <trkpt lat="37.771509401500225067138671875" lon="-107.7062760852277278900146484375">
        <ele>3872.39990234375</ele>
        <time>2023-07-29T14:44:42.000Z</time>
        <extensions>
          <ns3:TrackPointExtension>
            <ns3:hr>109</ns3:hr>
            <ns3:cad>0</ns3:cad>
          </ns3:TrackPointExtension>
        </extensions>
      </trkpt>
      <trkpt lat="37.7715172804892063140869140625" lon="-107.7062663622200489044189453125">
        <ele>3872.39990234375</ele>
        <time>2023-07-29T14:44:43.000Z</time>
        <extensions>
          <ns3:TrackPointExtension>
            <ns3:hr>109</ns3:hr>
            <ns3:cad>0</ns3:cad>
          </ns3:TrackPointExtension>
        </extensions>
      </trkpt>
      <trkpt lat="37.77151987887918949127197265625" lon="-107.7062616683542728424072265625">
        <ele>3872.60009765625</ele>
        <time>2023-07-29T14:44:44.000Z</time>
        <extensions>
          <ns3:TrackPointExtension>
            <ns3:hr>109</ns3:hr>
            <ns3:cad>0</ns3:cad>
          </ns3:TrackPointExtension>
        </extensions>
      </trkpt>
      <trkpt lat="37.7715204656124114990234375" lon="-107.70626150071620941162109375">
        <ele>3872.60009765625</ele>
        <time>2023-07-29T14:44:45.000Z</time>
        <extensions>
          <ns3:TrackPointExtension>
            <ns3:hr>110</ns3:hr>
            <ns3:cad>0</ns3:cad>
          </ns3:TrackPointExtension>
        </extensions>
      </trkpt>
      <trkpt lat="37.77151443064212799072265625" lon="-107.7062661945819854736328125">
        <ele>3872.800048828125</ele>
        <time>2023-07-29T14:44:46.000Z</time>
        <extensions>
          <ns3:TrackPointExtension>
            <ns3:hr>110</ns3:hr>
            <ns3:cad>0</ns3:cad>
          </ns3:TrackPointExtension>
        </extensions>
      </trkpt>
      <trkpt lat="37.77151401154696941375732421875" lon="-107.70627147518098354339599609375">
        <ele>3873</ele>
        <time>2023-07-29T14:44:47.000Z</time>
        <extensions>
          <ns3:TrackPointExtension>
            <ns3:hr>111</ns3:hr>
            <ns3:cad>0</ns3:cad>
          </ns3:TrackPointExtension>
        </extensions>
      </trkpt>
      <trkpt lat="37.7715206332504749298095703125" lon="-107.7062697149813175201416015625">
        <ele>3873</ele>
        <time>2023-07-29T14:44:48.000Z</time>
        <extensions>
          <ns3:TrackPointExtension>
            <ns3:hr>112</ns3:hr>
            <ns3:cad>0</ns3:cad>
          </ns3:TrackPointExtension>
        </extensions>
      </trkpt>
      <trkpt lat="37.7715229801833629608154296875" lon="-107.7062727324664592742919921875">
        <ele>3873.39990234375</ele>
        <time>2023-07-29T14:44:49.000Z</time>
        <extensions>
          <ns3:TrackPointExtension>
            <ns3:hr>115</ns3:hr>
            <ns3:cad>0</ns3:cad>
          </ns3:TrackPointExtension>
        </extensions>
      </trkpt>
      <trkpt lat="37.771525494754314422607421875" lon="-107.7062723971903324127197265625">
        <ele>3873.60009765625</ele>
        <time>2023-07-29T14:44:50.000Z</time>
        <extensions>
          <ns3:TrackPointExtension>
            <ns3:hr>115</ns3:hr>
            <ns3:cad>0</ns3:cad>
          </ns3:TrackPointExtension>
        </extensions>
      </trkpt>
      <trkpt lat="37.77152650058269500732421875" lon="-107.70626912824809551239013671875">
        <ele>3873.800048828125</ele>
        <time>2023-07-29T14:44:51.000Z</time>
        <extensions>
          <ns3:TrackPointExtension>
            <ns3:hr>115</ns3:hr>
            <ns3:cad>0</ns3:cad>
          </ns3:TrackPointExtension>
        </extensions>
      </trkpt>
      <trkpt lat="37.77152725495398044586181640625" lon="-107.706266529858112335205078125">
        <ele>3873.800048828125</ele>
        <time>2023-07-29T14:44:52.000Z</time>
        <extensions>
          <ns3:TrackPointExtension>
            <ns3:hr>114</ns3:hr>
            <ns3:cad>0</ns3:cad>
          </ns3:TrackPointExtension>
        </extensions>
      </trkpt>
      <trkpt lat="37.77153178118169307708740234375" lon="-107.706262506544589996337890625">
        <ele>3874</ele>
        <time>2023-07-29T14:44:53.000Z</time>
        <extensions>
          <ns3:TrackPointExtension>
            <ns3:hr>115</ns3:hr>
            <ns3:cad>0</ns3:cad>
          </ns3:TrackPointExtension>
        </extensions>
      </trkpt>
      <trkpt lat="37.7715280093252658843994140625" lon="-107.706261165440082550048828125">
        <ele>3874.199951171875</ele>
        <time>2023-07-29T14:44:54.000Z</time>
        <extensions>
          <ns3:TrackPointExtension>
            <ns3:hr>114</ns3:hr>
            <ns3:cad>0</ns3:cad>
          </ns3:TrackPointExtension>
        </extensions>
      </trkpt>
      <trkpt lat="37.7715229801833629608154296875" lon="-107.70626191981136798858642578125">
        <ele>3874.199951171875</ele>
        <time>2023-07-29T14:44:55.000Z</time>
        <extensions>
          <ns3:TrackPointExtension>
            <ns3:hr>115</ns3:hr>
            <ns3:cad>0</ns3:cad>
          </ns3:TrackPointExtension>
        </extensions>
      </trkpt>
      <trkpt lat="37.771522812545299530029296875" lon="-107.70626259036362171173095703125">
        <ele>3874.39990234375</ele>
        <time>2023-07-29T14:44:56.000Z</time>
        <extensions>
          <ns3:TrackPointExtension>
            <ns3:hr>115</ns3:hr>
            <ns3:cad>0</ns3:cad>
          </ns3:TrackPointExtension>
        </extensions>
      </trkpt>
      <trkpt lat="37.77152524329721927642822265625" lon="-107.70626007579267024993896484375">
        <ele>3874.39990234375</ele>
        <time>2023-07-29T14:44:57.000Z</time>
        <extensions>
          <ns3:TrackPointExtension>
            <ns3:hr>116</ns3:hr>
            <ns3:cad>0</ns3:cad>
          </ns3:TrackPointExtension>
        </extensions>
      </trkpt>
      <trkpt lat="37.77152691967785358428955078125" lon="-107.70625747740268707275390625">
        <ele>3874.39990234375</ele>
        <time>2023-07-29T14:44:58.000Z</time>
        <extensions>
          <ns3:TrackPointExtension>
            <ns3:hr>117</ns3:hr>
            <ns3:cad>0</ns3:cad>
          </ns3:TrackPointExtension>
        </extensions>
      </trkpt>
      <trkpt lat="37.771527506411075592041015625" lon="-107.70625420846045017242431640625">
        <ele>3874.800048828125</ele>
        <time>2023-07-29T14:44:59.000Z</time>
        <extensions>
          <ns3:TrackPointExtension>
            <ns3:hr>118</ns3:hr>
            <ns3:cad>0</ns3:cad>
          </ns3:TrackPointExtension>
        </extensions>
      </trkpt>
      <trkpt lat="37.77152876369655132293701171875" lon="-107.7062516100704669952392578125">
        <ele>3874.800048828125</ele>
        <time>2023-07-29T14:45:00.000Z</time>
        <extensions>
          <ns3:TrackPointExtension>
            <ns3:hr>118</ns3:hr>
            <ns3:cad>0</ns3:cad>
          </ns3:TrackPointExtension>
        </extensions>
      </trkpt>
      <trkpt lat="37.77152792550623416900634765625" lon="-107.70625152625143527984619140625">
        <ele>3875</ele>
        <time>2023-07-29T14:45:01.000Z</time>
        <extensions>
          <ns3:TrackPointExtension>
            <ns3:hr>117</ns3:hr>
            <ns3:cad>0</ns3:cad>
          </ns3:TrackPointExtension>
        </extensions>
      </trkpt>
      <trkpt lat="37.77152993716299533843994140625" lon="-107.70624674856662750244140625">
        <ele>3875.199951171875</ele>
        <time>2023-07-29T14:45:02.000Z</time>
        <extensions>
          <ns3:TrackPointExtension>
            <ns3:hr>115</ns3:hr>
            <ns3:cad>0</ns3:cad>
          </ns3:TrackPointExtension>
        </extensions>
      </trkpt>
      <trkpt lat="37.7715310268104076385498046875" lon="-107.7062398754060268402099609375">
        <ele>3875.39990234375</ele>
        <time>2023-07-29T14:45:03.000Z</time>
        <extensions>
          <ns3:TrackPointExtension>
            <ns3:hr>114</ns3:hr>
            <ns3:cad>0</ns3:cad>
          </ns3:TrackPointExtension>
        </extensions>
      </trkpt>
      <trkpt lat="37.771532200276851654052734375" lon="-107.70623627118766307830810546875">
        <ele>3875.39990234375</ele>
        <time>2023-07-29T14:45:04.000Z</time>
        <extensions>
          <ns3:TrackPointExtension>
            <ns3:hr>114</ns3:hr>
            <ns3:cad>0</ns3:cad>
          </ns3:TrackPointExtension>
        </extensions>
      </trkpt>
      <trkpt lat="37.77153320610523223876953125" lon="-107.70622973330318927764892578125">
        <ele>3875.60009765625</ele>
        <time>2023-07-29T14:45:05.000Z</time>
        <extensions>
          <ns3:TrackPointExtension>
            <ns3:hr>114</ns3:hr>
            <ns3:cad>0</ns3:cad>
          </ns3:TrackPointExtension>
        </extensions>
      </trkpt>
      <trkpt lat="37.77153865434229373931884765625" lon="-107.70622353069484233856201171875">
        <ele>3875.60009765625</ele>
        <time>2023-07-29T14:45:06.000Z</time>
        <extensions>
          <ns3:TrackPointExtension>
            <ns3:hr>114</ns3:hr>
            <ns3:cad>0</ns3:cad>
          </ns3:TrackPointExtension>
        </extensions>
      </trkpt>
      <trkpt lat="37.77154083363711833953857421875" lon="-107.70622503943741321563720703125">
        <ele>3875.800048828125</ele>
        <time>2023-07-29T14:45:07.000Z</time>
        <extensions>
          <ns3:TrackPointExtension>
            <ns3:hr>114</ns3:hr>
            <ns3:cad>0</ns3:cad>
          </ns3:TrackPointExtension>
        </extensions>
      </trkpt>
      <trkpt lat="37.771542929112911224365234375" lon="-107.7062251232564449310302734375">
        <ele>3875.800048828125</ele>
        <time>2023-07-29T14:45:08.000Z</time>
        <extensions>
          <ns3:TrackPointExtension>
            <ns3:hr>114</ns3:hr>
            <ns3:cad>0</ns3:cad>
          </ns3:TrackPointExtension>
        </extensions>
      </trkpt>
      <trkpt lat="37.77154234237968921661376953125" lon="-107.70622931420803070068359375">
        <ele>3876</ele>
        <time>2023-07-29T14:45:09.000Z</time>
        <extensions>
          <ns3:TrackPointExtension>
            <ns3:hr>115</ns3:hr>
            <ns3:cad>0</ns3:cad>
          </ns3:TrackPointExtension>
        </extensions>
      </trkpt>
      <trkpt lat="37.771540582180023193359375" lon="-107.70623291842639446258544921875">
        <ele>3876.199951171875</ele>
        <time>2023-07-29T14:45:10.000Z</time>
        <extensions>
          <ns3:TrackPointExtension>
            <ns3:hr>115</ns3:hr>
            <ns3:cad>0</ns3:cad>
          </ns3:TrackPointExtension>
        </extensions>
      </trkpt>
      <trkpt lat="37.77154100127518177032470703125" lon="-107.70624046213924884796142578125">
        <ele>3876.199951171875</ele>
        <time>2023-07-29T14:45:11.000Z</time>
        <extensions>
          <ns3:TrackPointExtension>
            <ns3:hr>115</ns3:hr>
            <ns3:cad>45</ns3:cad>
          </ns3:TrackPointExtension>
        </extensions>
      </trkpt>
      <trkpt lat="37.7715427614748477935791015625" lon="-107.7062398754060268402099609375">
        <ele>3876.199951171875</ele>
        <time>2023-07-29T14:45:12.000Z</time>
        <extensions>
          <ns3:TrackPointExtension>
            <ns3:hr>115</ns3:hr>
            <ns3:cad>45</ns3:cad>
          </ns3:TrackPointExtension>
        </extensions>
      </trkpt>
      <trkpt lat="37.77154527604579925537109375" lon="-107.7062311582267284393310546875">
        <ele>3876.199951171875</ele>
        <time>2023-07-29T14:45:13.000Z</time>
        <extensions>
          <ns3:TrackPointExtension>
            <ns3:hr>115</ns3:hr>
            <ns3:cad>0</ns3:cad>
          </ns3:TrackPointExtension>
        </extensions>
      </trkpt>
      <trkpt lat="37.7715471200644969940185546875" lon="-107.7062257938086986541748046875">
        <ele>3876.60009765625</ele>
        <time>2023-07-29T14:45:14.000Z</time>
        <extensions>
          <ns3:TrackPointExtension>
            <ns3:hr>115</ns3:hr>
            <ns3:cad>0</ns3:cad>
          </ns3:TrackPointExtension>
        </extensions>
      </trkpt>
      <trkpt lat="37.7715472877025604248046875" lon="-107.7062232792377471923828125">
        <ele>3876.800048828125</ele>
        <time>2023-07-29T14:45:15.000Z</time>
        <extensions>
          <ns3:TrackPointExtension>
            <ns3:hr>115</ns3:hr>
            <ns3:cad>0</ns3:cad>
          </ns3:TrackPointExtension>
        </extensions>
      </trkpt>
      <trkpt lat="37.77154552750289440155029296875" lon="-107.7062224410474300384521484375">
        <ele>3876.800048828125</ele>
        <time>2023-07-29T14:45:16.000Z</time>
        <extensions>
          <ns3:TrackPointExtension>
            <ns3:hr>115</ns3:hr>
            <ns3:cad>0</ns3:cad>
          </ns3:TrackPointExtension>
        </extensions>
      </trkpt>
      <trkpt lat="37.7715474553406238555908203125" lon="-107.70622135140001773834228515625">
        <ele>3877.199951171875</ele>
        <time>2023-07-29T14:45:17.000Z</time>
        <extensions>
          <ns3:TrackPointExtension>
            <ns3:hr>113</ns3:hr>
            <ns3:cad>0</ns3:cad>
          </ns3:TrackPointExtension>
        </extensions>
      </trkpt>
      <trkpt lat="37.77154636569321155548095703125" lon="-107.70622235722839832305908203125">
        <ele>3877.199951171875</ele>
        <time>2023-07-29T14:45:18.000Z</time>
        <extensions>
          <ns3:TrackPointExtension>
            <ns3:hr>113</ns3:hr>
            <ns3:cad>0</ns3:cad>
          </ns3:TrackPointExtension>
        </extensions>
      </trkpt>
      <trkpt lat="37.77154485695064067840576171875" lon="-107.70622017793357372283935546875">
        <ele>3877.39990234375</ele>
        <time>2023-07-29T14:45:19.000Z</time>
        <extensions>
          <ns3:TrackPointExtension>
            <ns3:hr>113</ns3:hr>
            <ns3:cad>0</ns3:cad>
          </ns3:TrackPointExtension>
        </extensions>
      </trkpt>
      <trkpt lat="37.77154929935932159423828125" lon="-107.7062143944203853607177734375">
        <ele>3877.39990234375</ele>
        <time>2023-07-29T14:45:20.000Z</time>
        <extensions>
          <ns3:TrackPointExtension>
            <ns3:hr>113</ns3:hr>
            <ns3:cad>0</ns3:cad>
          </ns3:TrackPointExtension>
        </extensions>
      </trkpt>
      <trkpt lat="37.7715551666915416717529296875" lon="-107.706208191812038421630859375">
        <ele>3877.60009765625</ele>
        <time>2023-07-29T14:45:21.000Z</time>
        <extensions>
          <ns3:TrackPointExtension>
            <ns3:hr>113</ns3:hr>
            <ns3:cad>0</ns3:cad>
          </ns3:TrackPointExtension>
        </extensions>
      </trkpt>
      <trkpt lat="37.7715608663856983184814453125" lon="-107.70620517432689666748046875">
        <ele>3877.800048828125</ele>
        <time>2023-07-29T14:45:22.000Z</time>
        <extensions>
          <ns3:TrackPointExtension>
            <ns3:hr>113</ns3:hr>
            <ns3:cad>0</ns3:cad>
          </ns3:TrackPointExtension>
        </extensions>
      </trkpt>
      <trkpt lat="37.77156279422342777252197265625" lon="-107.70620676688849925994873046875">
        <ele>3878</ele>
        <time>2023-07-29T14:45:23.000Z</time>
        <extensions>
          <ns3:TrackPointExtension>
            <ns3:hr>113</ns3:hr>
            <ns3:cad>0</ns3:cad>
          </ns3:TrackPointExtension>
        </extensions>
      </trkpt>
      <trkpt lat="37.771567404270172119140625" lon="-107.70620794035494327545166015625">
        <ele>3878</ele>
        <time>2023-07-29T14:45:24.000Z</time>
        <extensions>
          <ns3:TrackPointExtension>
            <ns3:hr>113</ns3:hr>
            <ns3:cad>0</ns3:cad>
          </ns3:TrackPointExtension>
        </extensions>
      </trkpt>
      <trkpt lat="37.7715722657740116119384765625" lon="-107.70621120929718017578125">
        <ele>3878</ele>
        <time>2023-07-29T14:45:25.000Z</time>
        <extensions>
          <ns3:TrackPointExtension>
            <ns3:hr>114</ns3:hr>
            <ns3:cad>0</ns3:cad>
          </ns3:TrackPointExtension>
        </extensions>
      </trkpt>
      <trkpt lat="37.7715769596397876739501953125" lon="-107.7062097005546092987060546875">
        <ele>3878.39990234375</ele>
        <time>2023-07-29T14:45:26.000Z</time>
        <extensions>
          <ns3:TrackPointExtension>
            <ns3:hr>114</ns3:hr>
            <ns3:cad>0</ns3:cad>
          </ns3:TrackPointExtension>
        </extensions>
      </trkpt>
      <trkpt lat="37.77158022858202457427978515625" lon="-107.70621246658265590667724609375">
        <ele>3878.39990234375</ele>
        <time>2023-07-29T14:45:27.000Z</time>
        <extensions>
          <ns3:TrackPointExtension>
            <ns3:hr>114</ns3:hr>
            <ns3:cad>0</ns3:cad>
          </ns3:TrackPointExtension>
        </extensions>
      </trkpt>
      <trkpt lat="37.77158819139003753662109375" lon="-107.70621858537197113037109375">
        <ele>3878.60009765625</ele>
        <time>2023-07-29T14:45:28.000Z</time>
        <extensions>
          <ns3:TrackPointExtension>
            <ns3:hr>114</ns3:hr>
            <ns3:cad>0</ns3:cad>
          </ns3:TrackPointExtension>
        </extensions>
      </trkpt>
      <trkpt lat="37.77159095741808414459228515625" lon="-107.7062232792377471923828125">
        <ele>3878.800048828125</ele>
        <time>2023-07-29T14:45:29.000Z</time>
        <extensions>
          <ns3:TrackPointExtension>
            <ns3:hr>114</ns3:hr>
            <ns3:cad>0</ns3:cad>
          </ns3:TrackPointExtension>
        </extensions>
      </trkpt>
      <trkpt lat="37.771593891084194183349609375" lon="-107.706227637827396392822265625">
        <ele>3879</ele>
        <time>2023-07-29T14:45:30.000Z</time>
        <extensions>
          <ns3:TrackPointExtension>
            <ns3:hr>114</ns3:hr>
            <ns3:cad>0</ns3:cad>
          </ns3:TrackPointExtension>
        </extensions>
      </trkpt>
      <trkpt lat="37.77159229852259159088134765625" lon="-107.706226967275142669677734375">
        <ele>3879</ele>
        <time>2023-07-29T14:45:31.000Z</time>
        <extensions>
          <ns3:TrackPointExtension>
            <ns3:hr>114</ns3:hr>
            <ns3:cad>0</ns3:cad>
          </ns3:TrackPointExtension>
        </extensions>
      </trkpt>
      <trkpt lat="37.77158710174262523651123046875" lon="-107.70622822456061840057373046875">
        <ele>3879.39990234375</ele>
        <time>2023-07-29T14:45:32.000Z</time>
        <extensions>
          <ns3:TrackPointExtension>
            <ns3:hr>115</ns3:hr>
            <ns3:cad>0</ns3:cad>
          </ns3:TrackPointExtension>
        </extensions>
      </trkpt>
      <trkpt lat="37.7715793065726757049560546875" lon="-107.706230320036411285400390625">
        <ele>3879.60009765625</ele>
        <time>2023-07-29T14:45:33.000Z</time>
        <extensions>
          <ns3:TrackPointExtension>
            <ns3:hr>116</ns3:hr>
            <ns3:cad>0</ns3:cad>
          </ns3:TrackPointExtension>
        </extensions>
      </trkpt>
      <trkpt lat="37.77158492244780063629150390625" lon="-107.70624808967113494873046875">
        <ele>3879.800048828125</ele>
        <time>2023-07-29T14:45:34.000Z</time>
        <extensions>
          <ns3:TrackPointExtension>
            <ns3:hr>117</ns3:hr>
            <ns3:cad>0</ns3:cad>
          </ns3:TrackPointExtension>
        </extensions>
      </trkpt>
      <trkpt lat="37.7715870179235935211181640625" lon="-107.70625806413590908050537109375">
        <ele>3879.800048828125</ele>
        <time>2023-07-29T14:45:35.000Z</time>
        <extensions>
          <ns3:TrackPointExtension>
            <ns3:hr>117</ns3:hr>
            <ns3:cad>0</ns3:cad>
          </ns3:TrackPointExtension>
        </extensions>
      </trkpt>
      <trkpt lat="37.771589197218418121337890625" lon="-107.706271894276142120361328125">
        <ele>3879.800048828125</ele>
        <time>2023-07-29T14:45:36.000Z</time>
        <extensions>
          <ns3:TrackPointExtension>
            <ns3:hr>116</ns3:hr>
            <ns3:cad>0</ns3:cad>
          </ns3:TrackPointExtension>
        </extensions>
      </trkpt>
      <trkpt lat="37.7715930528938770294189453125" lon="-107.70628538914024829864501953125">
        <ele>3879.800048828125</ele>
        <time>2023-07-29T14:45:37.000Z</time>
        <extensions>
          <ns3:TrackPointExtension>
            <ns3:hr>116</ns3:hr>
            <ns3:cad>0</ns3:cad>
          </ns3:TrackPointExtension>
        </extensions>
      </trkpt>
      <trkpt lat="37.77159489691257476806640625" lon="-107.70629444159567356109619140625">
        <ele>3880</ele>
        <time>2023-07-29T14:45:38.000Z</time>
        <extensions>
          <ns3:TrackPointExtension>
            <ns3:hr>115</ns3:hr>
            <ns3:cad>0</ns3:cad>
          </ns3:TrackPointExtension>
        </extensions>
      </trkpt>
      <trkpt lat="37.77159615419805049896240234375" lon="-107.70630014128983020782470703125">
        <ele>3880</ele>
        <time>2023-07-29T14:45:39.000Z</time>
        <extensions>
          <ns3:TrackPointExtension>
            <ns3:hr>115</ns3:hr>
            <ns3:cad>0</ns3:cad>
          </ns3:TrackPointExtension>
        </extensions>
      </trkpt>
      <trkpt lat="37.77160017751157283782958984375" lon="-107.70631204359233379364013671875">
        <ele>3880</ele>
        <time>2023-07-29T14:45:40.000Z</time>
        <extensions>
          <ns3:TrackPointExtension>
            <ns3:hr>114</ns3:hr>
            <ns3:cad>0</ns3:cad>
          </ns3:TrackPointExtension>
        </extensions>
      </trkpt>
      <trkpt lat="37.7716057933866977691650390625" lon="-107.70631422288715839385986328125">
        <ele>3880</ele>
        <time>2023-07-29T14:45:41.000Z</time>
        <extensions>
          <ns3:TrackPointExtension>
            <ns3:hr>111</ns3:hr>
            <ns3:cad>0</ns3:cad>
          </ns3:TrackPointExtension>
        </extensions>
      </trkpt>
      <trkpt lat="37.7716101519763469696044921875" lon="-107.70631707273423671722412109375">
        <ele>3880.199951171875</ele>
        <time>2023-07-29T14:45:42.000Z</time>
        <extensions>
          <ns3:TrackPointExtension>
            <ns3:hr>108</ns3:hr>
            <ns3:cad>0</ns3:cad>
          </ns3:TrackPointExtension>
        </extensions>
      </trkpt>
      <trkpt lat="37.77161291800439357757568359375" lon="-107.70631573162972927093505859375">
        <ele>3880.199951171875</ele>
        <time>2023-07-29T14:45:43.000Z</time>
        <extensions>
          <ns3:TrackPointExtension>
            <ns3:hr>107</ns3:hr>
            <ns3:cad>0</ns3:cad>
          </ns3:TrackPointExtension>
        </extensions>
      </trkpt>
      <trkpt lat="37.7716195397078990936279296875" lon="-107.70631623454391956329345703125">
        <ele>3880.39990234375</ele>
        <time>2023-07-29T14:45:44.000Z</time>
        <extensions>
          <ns3:TrackPointExtension>
            <ns3:hr>107</ns3:hr>
            <ns3:cad>0</ns3:cad>
          </ns3:TrackPointExtension>
        </extensions>
      </trkpt>
      <trkpt lat="37.7716195397078990936279296875" lon="-107.70631623454391956329345703125">
        <ele>3880.800048828125</ele>
        <time>2023-07-29T14:45:45.000Z</time>
        <extensions>
          <ns3:TrackPointExtension>
            <ns3:hr>107</ns3:hr>
            <ns3:cad>0</ns3:cad>
          </ns3:TrackPointExtension>
        </extensions>
      </trkpt>
      <trkpt lat="37.7716195397078990936279296875" lon="-107.70631623454391956329345703125">
        <ele>3880.800048828125</ele>
        <time>2023-07-29T14:45:46.000Z</time>
        <extensions>
          <ns3:TrackPointExtension>
            <ns3:hr>108</ns3:hr>
            <ns3:cad>0</ns3:cad>
          </ns3:TrackPointExtension>
        </extensions>
      </trkpt>
      <trkpt lat="37.77161777950823307037353515625" lon="-107.70630818791687488555908203125">
        <ele>3881.199951171875</ele>
        <time>2023-07-29T14:45:47.000Z</time>
        <extensions>
          <ns3:TrackPointExtension>
            <ns3:hr>113</ns3:hr>
            <ns3:cad>0</ns3:cad>
          </ns3:TrackPointExtension>
        </extensions>
      </trkpt>
      <trkpt lat="37.77161677367985248565673828125" lon="-107.70630517043173313140869140625">
        <ele>3881.60009765625</ele>
        <time>2023-07-29T14:45:48.000Z</time>
        <extensions>
          <ns3:TrackPointExtension>
            <ns3:hr>115</ns3:hr>
            <ns3:cad>0</ns3:cad>
          </ns3:TrackPointExtension>
        </extensions>
      </trkpt>
      <trkpt lat="37.7716188691556453704833984375" lon="-107.7063039131462574005126953125">
        <ele>3881.60009765625</ele>
        <time>2023-07-29T14:45:49.000Z</time>
        <extensions>
          <ns3:TrackPointExtension>
            <ns3:hr>116</ns3:hr>
            <ns3:cad>0</ns3:cad>
          </ns3:TrackPointExtension>
        </extensions>
      </trkpt>
      <trkpt lat="37.7716222219169139862060546875" lon="-107.70630081184208393096923828125">
        <ele>3881.60009765625</ele>
        <time>2023-07-29T14:45:50.000Z</time>
        <extensions>
          <ns3:TrackPointExtension>
            <ns3:hr>116</ns3:hr>
            <ns3:cad>0</ns3:cad>
          </ns3:TrackPointExtension>
        </extensions>
      </trkpt>
      <trkpt lat="37.77162750251591205596923828125" lon="-107.70629293285310268402099609375">
        <ele>3881.60009765625</ele>
        <time>2023-07-29T14:45:51.000Z</time>
        <extensions>
          <ns3:TrackPointExtension>
            <ns3:hr>116</ns3:hr>
            <ns3:cad>0</ns3:cad>
          </ns3:TrackPointExtension>
        </extensions>
      </trkpt>
      <trkpt lat="37.7716262452304363250732421875" lon="-107.706294357776641845703125">
        <ele>3881.60009765625</ele>
        <time>2023-07-29T14:45:52.000Z</time>
        <extensions>
          <ns3:TrackPointExtension>
            <ns3:hr>116</ns3:hr>
            <ns3:cad>0</ns3:cad>
          </ns3:TrackPointExtension>
        </extensions>
      </trkpt>
      <trkpt lat="37.77162347920238971710205078125" lon="-107.70629662089049816131591796875">
        <ele>3881.60009765625</ele>
        <time>2023-07-29T14:45:53.000Z</time>
        <extensions>
          <ns3:TrackPointExtension>
            <ns3:hr>116</ns3:hr>
            <ns3:cad>0</ns3:cad>
          </ns3:TrackPointExtension>
        </extensions>
      </trkpt>
      <trkpt lat="37.77162264101207256317138671875" lon="-107.70630039274692535400390625">
        <ele>3881.39990234375</ele>
        <time>2023-07-29T14:45:54.000Z</time>
        <extensions>
          <ns3:TrackPointExtension>
            <ns3:hr>116</ns3:hr>
            <ns3:cad>0</ns3:cad>
          </ns3:TrackPointExtension>
        </extensions>
      </trkpt>
      <trkpt lat="37.771623395383358001708984375" lon="-107.7063019014894962310791015625">
        <ele>3881.39990234375</ele>
        <time>2023-07-29T14:45:55.000Z</time>
        <extensions>
          <ns3:TrackPointExtension>
            <ns3:hr>117</ns3:hr>
            <ns3:cad>0</ns3:cad>
          </ns3:TrackPointExtension>
        </extensions>
      </trkpt>
      <trkpt lat="37.771621048450469970703125" lon="-107.70630885846912860870361328125">
        <ele>3881.39990234375</ele>
        <time>2023-07-29T14:45:56.000Z</time>
        <extensions>
          <ns3:TrackPointExtension>
            <ns3:hr>117</ns3:hr>
            <ns3:cad>0</ns3:cad>
          </ns3:TrackPointExtension>
        </extensions>
      </trkpt>
      <trkpt lat="37.77162297628819942474365234375" lon="-107.706313468515872955322265625">
        <ele>3881.39990234375</ele>
        <time>2023-07-29T14:45:57.000Z</time>
        <extensions>
          <ns3:TrackPointExtension>
            <ns3:hr>118</ns3:hr>
            <ns3:cad>0</ns3:cad>
          </ns3:TrackPointExtension>
        </extensions>
      </trkpt>
      <trkpt lat="37.771620042622089385986328125" lon="-107.706321515142917633056640625">
        <ele>3881.39990234375</ele>
        <time>2023-07-29T14:45:58.000Z</time>
        <extensions>
          <ns3:TrackPointExtension>
            <ns3:hr>118</ns3:hr>
            <ns3:cad>0</ns3:cad>
          </ns3:TrackPointExtension>
        </extensions>
      </trkpt>
      <trkpt lat="37.7716197073459625244140625" lon="-107.706322185695171356201171875">
        <ele>3881.39990234375</ele>
        <time>2023-07-29T14:45:59.000Z</time>
        <extensions>
          <ns3:TrackPointExtension>
            <ns3:hr>116</ns3:hr>
            <ns3:cad>0</ns3:cad>
          </ns3:TrackPointExtension>
        </extensions>
      </trkpt>
      <trkpt lat="37.7716168574988842010498046875" lon="-107.706331573426723480224609375">
        <ele>3881.39990234375</ele>
        <time>2023-07-29T14:46:00.000Z</time>
        <extensions>
          <ns3:TrackPointExtension>
            <ns3:hr>115</ns3:hr>
            <ns3:cad>0</ns3:cad>
          </ns3:TrackPointExtension>
        </extensions>
      </trkpt>
      <trkpt lat="37.7716175280511379241943359375" lon="-107.706329561769962310791015625">
        <ele>3881.39990234375</ele>
        <time>2023-07-29T14:46:01.000Z</time>
        <extensions>
          <ns3:TrackPointExtension>
            <ns3:hr>113</ns3:hr>
            <ns3:cad>0</ns3:cad>
          </ns3:TrackPointExtension>
        </extensions>
      </trkpt>
      <trkpt lat="37.77161526493728160858154296875" lon="-107.7063350938260555267333984375">
        <ele>3881.39990234375</ele>
        <time>2023-07-29T14:46:02.000Z</time>
        <extensions>
          <ns3:TrackPointExtension>
            <ns3:hr>112</ns3:hr>
            <ns3:cad>0</ns3:cad>
          </ns3:TrackPointExtension>
        </extensions>
      </trkpt>
      <trkpt lat="37.771615684032440185546875" lon="-107.70633660256862640380859375">
        <ele>3881.39990234375</ele>
        <time>2023-07-29T14:46:03.000Z</time>
        <extensions>
          <ns3:TrackPointExtension>
            <ns3:hr>112</ns3:hr>
            <ns3:cad>0</ns3:cad>
          </ns3:TrackPointExtension>
        </extensions>
      </trkpt>
      <trkpt lat="37.771615348756313323974609375" lon="-107.70633785985410213470458984375">
        <ele>3881.39990234375</ele>
        <time>2023-07-29T14:46:04.000Z</time>
        <extensions>
          <ns3:TrackPointExtension>
            <ns3:hr>111</ns3:hr>
            <ns3:cad>0</ns3:cad>
          </ns3:TrackPointExtension>
        </extensions>
      </trkpt>
      <trkpt lat="37.771616689860820770263671875" lon="-107.70633836276829242706298828125">
        <ele>3881.39990234375</ele>
        <time>2023-07-29T14:46:05.000Z</time>
        <extensions>
          <ns3:TrackPointExtension>
            <ns3:hr>111</ns3:hr>
            <ns3:cad>0</ns3:cad>
          </ns3:TrackPointExtension>
        </extensions>
      </trkpt>
      <trkpt lat="37.7716198749840259552001953125" lon="-107.70633517764508724212646484375">
        <ele>3881.39990234375</ele>
        <time>2023-07-29T14:46:06.000Z</time>
        <extensions>
          <ns3:TrackPointExtension>
            <ns3:hr>110</ns3:hr>
            <ns3:cad>0</ns3:cad>
          </ns3:TrackPointExtension>
        </extensions>
      </trkpt>
      <trkpt lat="37.7716238982975482940673828125" lon="-107.70633081905543804168701171875">
        <ele>3881.39990234375</ele>
        <time>2023-07-29T14:46:07.000Z</time>
        <extensions>
          <ns3:TrackPointExtension>
            <ns3:hr>109</ns3:hr>
            <ns3:cad>0</ns3:cad>
          </ns3:TrackPointExtension>
        </extensions>
      </trkpt>
      <trkpt lat="37.77162783779203891754150390625" lon="-107.70632612518966197967529296875">
        <ele>3881.39990234375</ele>
        <time>2023-07-29T14:46:08.000Z</time>
        <extensions>
          <ns3:TrackPointExtension>
            <ns3:hr>109</ns3:hr>
            <ns3:cad>0</ns3:cad>
          </ns3:TrackPointExtension>
        </extensions>
      </trkpt>
      <trkpt lat="37.77163286693394184112548828125" lon="-107.706320174038410186767578125">
        <ele>3881.39990234375</ele>
        <time>2023-07-29T14:46:09.000Z</time>
        <extensions>
          <ns3:TrackPointExtension>
            <ns3:hr>109</ns3:hr>
            <ns3:cad>0</ns3:cad>
          </ns3:TrackPointExtension>
        </extensions>
      </trkpt>
      <trkpt lat="37.77163705788552761077880859375" lon="-107.70630567334592342376708984375">
        <ele>3881.199951171875</ele>
        <time>2023-07-29T14:46:10.000Z</time>
        <extensions>
          <ns3:TrackPointExtension>
            <ns3:hr>108</ns3:hr>
            <ns3:cad>0</ns3:cad>
          </ns3:TrackPointExtension>
        </extensions>
      </trkpt>
      <trkpt lat="37.77163915336132049560546875" lon="-107.7063005603849887847900390625">
        <ele>3881.199951171875</ele>
        <time>2023-07-29T14:46:11.000Z</time>
        <extensions>
          <ns3:TrackPointExtension>
            <ns3:hr>108</ns3:hr>
            <ns3:cad>0</ns3:cad>
          </ns3:TrackPointExtension>
        </extensions>
      </trkpt>
      <trkpt lat="37.77163647115230560302734375" lon="-107.706300057470798492431640625">
        <ele>3881.199951171875</ele>
        <time>2023-07-29T14:46:12.000Z</time>
        <extensions>
          <ns3:TrackPointExtension>
            <ns3:hr>107</ns3:hr>
            <ns3:cad>0</ns3:cad>
          </ns3:TrackPointExtension>
        </extensions>
      </trkpt>
      <trkpt lat="37.771635465323925018310546875" lon="-107.7062998898327350616455078125">
        <ele>3881.199951171875</ele>
        <time>2023-07-29T14:46:13.000Z</time>
        <extensions>
          <ns3:TrackPointExtension>
            <ns3:hr>106</ns3:hr>
            <ns3:cad>0</ns3:cad>
          </ns3:TrackPointExtension>
        </extensions>
      </trkpt>
      <trkpt lat="37.7716331183910369873046875" lon="-107.7062998898327350616455078125">
        <ele>3881.199951171875</ele>
        <time>2023-07-29T14:46:14.000Z</time>
        <extensions>
          <ns3:TrackPointExtension>
            <ns3:hr>105</ns3:hr>
            <ns3:cad>0</ns3:cad>
          </ns3:TrackPointExtension>
        </extensions>
      </trkpt>
      <trkpt lat="37.77163370512425899505615234375" lon="-107.706299386918544769287109375">
        <ele>3881.199951171875</ele>
        <time>2023-07-29T14:46:15.000Z</time>
        <extensions>
          <ns3:TrackPointExtension>
            <ns3:hr>105</ns3:hr>
            <ns3:cad>0</ns3:cad>
          </ns3:TrackPointExtension>
        </extensions>
      </trkpt>
      <trkpt lat="37.7716359682381153106689453125" lon="-107.70630265586078166961669921875">
        <ele>3881.199951171875</ele>
        <time>2023-07-29T14:46:16.000Z</time>
        <extensions>
          <ns3:TrackPointExtension>
            <ns3:hr>104</ns3:hr>
            <ns3:cad>0</ns3:cad>
          </ns3:TrackPointExtension>
        </extensions>
      </trkpt>
      <trkpt lat="37.77163890190422534942626953125" lon="-107.7063029073178768157958984375">
        <ele>3881.199951171875</ele>
        <time>2023-07-29T14:46:17.000Z</time>
        <extensions>
          <ns3:TrackPointExtension>
            <ns3:hr>104</ns3:hr>
            <ns3:cad>0</ns3:cad>
          </ns3:TrackPointExtension>
        </extensions>
      </trkpt>
      <trkpt lat="37.77164258994162082672119140625" lon="-107.70630441606044769287109375">
        <ele>3881.199951171875</ele>
        <time>2023-07-29T14:46:18.000Z</time>
        <extensions>
          <ns3:TrackPointExtension>
            <ns3:hr>103</ns3:hr>
            <ns3:cad>0</ns3:cad>
          </ns3:TrackPointExtension>
        </extensions>
      </trkpt>
      <trkpt lat="37.77164611034095287322998046875" lon="-107.7063039131462574005126953125">
        <ele>3881.39990234375</ele>
        <time>2023-07-29T14:46:19.000Z</time>
        <extensions>
          <ns3:TrackPointExtension>
            <ns3:hr>100</ns3:hr>
            <ns3:cad>0</ns3:cad>
          </ns3:TrackPointExtension>
        </extensions>
      </trkpt>
      <trkpt lat="37.77164761908352375030517578125" lon="-107.7063055895268917083740234375">
        <ele>3881.199951171875</ele>
        <time>2023-07-29T14:46:20.000Z</time>
        <extensions>
          <ns3:TrackPointExtension>
            <ns3:hr>98</ns3:hr>
            <ns3:cad>0</ns3:cad>
          </ns3:TrackPointExtension>
        </extensions>
      </trkpt>
      <trkpt lat="37.771647535264492034912109375" lon="-107.7063099481165409088134765625">
        <ele>3881.199951171875</ele>
        <time>2023-07-29T14:46:21.000Z</time>
        <extensions>
          <ns3:TrackPointExtension>
            <ns3:hr>97</ns3:hr>
            <ns3:cad>0</ns3:cad>
          </ns3:TrackPointExtension>
        </extensions>
      </trkpt>
      <trkpt lat="37.77164611034095287322998046875" lon="-107.706315815448760986328125">
        <ele>3881.199951171875</ele>
        <time>2023-07-29T14:46:22.000Z</time>
        <extensions>
          <ns3:TrackPointExtension>
            <ns3:hr>96</ns3:hr>
            <ns3:cad>0</ns3:cad>
          </ns3:TrackPointExtension>
        </extensions>
      </trkpt>
      <trkpt lat="37.77164694853127002716064453125" lon="-107.7063213475048542022705078125">
        <ele>3881.199951171875</ele>
        <time>2023-07-29T14:46:23.000Z</time>
        <extensions>
          <ns3:TrackPointExtension>
            <ns3:hr>95</ns3:hr>
            <ns3:cad>0</ns3:cad>
          </ns3:TrackPointExtension>
        </extensions>
      </trkpt>
      <trkpt lat="37.771646194159984588623046875" lon="-107.706323526799678802490234375">
        <ele>3881.199951171875</ele>
        <time>2023-07-29T14:46:24.000Z</time>
        <extensions>
          <ns3:TrackPointExtension>
            <ns3:hr>95</ns3:hr>
            <ns3:cad>0</ns3:cad>
          </ns3:TrackPointExtension>
        </extensions>
      </trkpt>
      <trkpt lat="37.77164518833160400390625" lon="-107.70632528699934482574462890625">
        <ele>3881.199951171875</ele>
        <time>2023-07-29T14:46:25.000Z</time>
        <extensions>
          <ns3:TrackPointExtension>
            <ns3:hr>95</ns3:hr>
            <ns3:cad>0</ns3:cad>
          </ns3:TrackPointExtension>
        </extensions>
      </trkpt>
      <trkpt lat="37.77164225466549396514892578125" lon="-107.70632243715226650238037109375">
        <ele>3881.199951171875</ele>
        <time>2023-07-29T14:46:26.000Z</time>
        <extensions>
          <ns3:TrackPointExtension>
            <ns3:hr>94</ns3:hr>
            <ns3:cad>0</ns3:cad>
          </ns3:TrackPointExtension>
        </extensions>
      </trkpt>
      <trkpt lat="37.771637476980686187744140625" lon="-107.706316821277141571044921875">
        <ele>3881.199951171875</ele>
        <time>2023-07-29T14:46:27.000Z</time>
        <extensions>
          <ns3:TrackPointExtension>
            <ns3:hr>92</ns3:hr>
            <ns3:cad>0</ns3:cad>
          </ns3:TrackPointExtension>
        </extensions>
      </trkpt>
      <trkpt lat="37.77163404040038585662841796875" lon="-107.7063156478106975555419921875">
        <ele>3881.199951171875</ele>
        <time>2023-07-29T14:46:28.000Z</time>
        <extensions>
          <ns3:TrackPointExtension>
            <ns3:hr>91</ns3:hr>
            <ns3:cad>0</ns3:cad>
          </ns3:TrackPointExtension>
        </extensions>
      </trkpt>
      <trkpt lat="37.77163068763911724090576171875" lon="-107.7063179947435855865478515625">
        <ele>3881.199951171875</ele>
        <time>2023-07-29T14:46:29.000Z</time>
        <extensions>
          <ns3:TrackPointExtension>
            <ns3:hr>92</ns3:hr>
            <ns3:cad>0</ns3:cad>
          </ns3:TrackPointExtension>
        </extensions>
      </trkpt>
      <trkpt lat="37.77162984944880008697509765625" lon="-107.70631841383874416351318359375">
        <ele>3881.199951171875</ele>
        <time>2023-07-29T14:46:30.000Z</time>
        <extensions>
          <ns3:TrackPointExtension>
            <ns3:hr>92</ns3:hr>
            <ns3:cad>0</ns3:cad>
          </ns3:TrackPointExtension>
        </extensions>
      </trkpt>
      <trkpt lat="37.77163035236299037933349609375" lon="-107.70631774328649044036865234375">
        <ele>3881.199951171875</ele>
        <time>2023-07-29T14:46:31.000Z</time>
        <extensions>
          <ns3:TrackPointExtension>
            <ns3:hr>92</ns3:hr>
            <ns3:cad>0</ns3:cad>
          </ns3:TrackPointExtension>
        </extensions>
      </trkpt>
      <trkpt lat="37.771628089249134063720703125" lon="-107.7063133008778095245361328125">
        <ele>3881.199951171875</ele>
        <time>2023-07-29T14:46:32.000Z</time>
        <extensions>
          <ns3:TrackPointExtension>
            <ns3:hr>92</ns3:hr>
            <ns3:cad>0</ns3:cad>
          </ns3:TrackPointExtension>
        </extensions>
      </trkpt>
      <trkpt lat="37.77162867598235607147216796875" lon="-107.70631070248782634735107421875">
        <ele>3881.199951171875</ele>
        <time>2023-07-29T14:46:33.000Z</time>
        <extensions>
          <ns3:TrackPointExtension>
            <ns3:hr>91</ns3:hr>
            <ns3:cad>0</ns3:cad>
          </ns3:TrackPointExtension>
        </extensions>
      </trkpt>
      <trkpt lat="37.7716295979917049407958984375" lon="-107.70630349405109882354736328125">
        <ele>3881.199951171875</ele>
        <time>2023-07-29T14:46:34.000Z</time>
        <extensions>
          <ns3:TrackPointExtension>
            <ns3:hr>91</ns3:hr>
            <ns3:cad>0</ns3:cad>
          </ns3:TrackPointExtension>
        </extensions>
      </trkpt>
      <trkpt lat="37.77162917889654636383056640625" lon="-107.70629729144275188446044921875">
        <ele>3881.199951171875</ele>
        <time>2023-07-29T14:46:35.000Z</time>
        <extensions>
          <ns3:TrackPointExtension>
            <ns3:hr>90</ns3:hr>
            <ns3:cad>0</ns3:cad>
          </ns3:TrackPointExtension>
        </extensions>
      </trkpt>
      <trkpt lat="37.77163018472492694854736328125" lon="-107.70629310049116611480712890625">
        <ele>3881.199951171875</ele>
        <time>2023-07-29T14:46:36.000Z</time>
        <extensions>
          <ns3:TrackPointExtension>
            <ns3:hr>88</ns3:hr>
            <ns3:cad>0</ns3:cad>
          </ns3:TrackPointExtension>
        </extensions>
      </trkpt>
      <trkpt lat="37.771631777286529541015625" lon="-107.7062888257205486297607421875">
        <ele>3881.199951171875</ele>
        <time>2023-07-29T14:46:37.000Z</time>
        <extensions>
          <ns3:TrackPointExtension>
            <ns3:hr>87</ns3:hr>
            <ns3:cad>0</ns3:cad>
          </ns3:TrackPointExtension>
        </extensions>
      </trkpt>
      <trkpt lat="37.7716332860291004180908203125" lon="-107.7062834613025188446044921875">
        <ele>3881.199951171875</ele>
        <time>2023-07-29T14:46:38.000Z</time>
        <extensions>
          <ns3:TrackPointExtension>
            <ns3:hr>87</ns3:hr>
            <ns3:cad>0</ns3:cad>
          </ns3:TrackPointExtension>
        </extensions>
      </trkpt>
      <trkpt lat="37.77164828963577747344970703125" lon="-107.7062623389065265655517578125">
        <ele>3881</ele>
        <time>2023-07-29T14:46:39.000Z</time>
        <extensions>
          <ns3:TrackPointExtension>
            <ns3:hr>87</ns3:hr>
            <ns3:cad>0</ns3:cad>
          </ns3:TrackPointExtension>
        </extensions>
      </trkpt>
      <trkpt lat="37.77164661325514316558837890625" lon="-107.70625638775527477264404296875">
        <ele>3881</ele>
        <time>2023-07-29T14:46:40.000Z</time>
        <extensions>
          <ns3:TrackPointExtension>
            <ns3:hr>87</ns3:hr>
            <ns3:cad>0</ns3:cad>
          </ns3:TrackPointExtension>
        </extensions>
      </trkpt>
      <trkpt lat="37.771647535264492034912109375" lon="-107.7062472514808177947998046875">
        <ele>3881</ele>
        <time>2023-07-29T14:46:41.000Z</time>
        <extensions>
          <ns3:TrackPointExtension>
            <ns3:hr>88</ns3:hr>
            <ns3:cad>0</ns3:cad>
          </ns3:TrackPointExtension>
        </extensions>
      </trkpt>
      <trkpt lat="37.77164183557033538818359375" lon="-107.70624632947146892547607421875">
        <ele>3881</ele>
        <time>2023-07-29T14:46:42.000Z</time>
        <extensions>
          <ns3:TrackPointExtension>
            <ns3:hr>88</ns3:hr>
            <ns3:cad>0</ns3:cad>
          </ns3:TrackPointExtension>
        </extensions>
      </trkpt>
      <trkpt lat="37.77163990773260593414306640625" lon="-107.706246078014373779296875">
        <ele>3881</ele>
        <time>2023-07-29T14:46:43.000Z</time>
        <extensions>
          <ns3:TrackPointExtension>
            <ns3:hr>89</ns3:hr>
            <ns3:cad>0</ns3:cad>
          </ns3:TrackPointExtension>
        </extensions>
      </trkpt>
      <trkpt lat="37.771639488637447357177734375" lon="-107.70624029450118541717529296875">
        <ele>3881</ele>
        <time>2023-07-29T14:46:44.000Z</time>
        <extensions>
          <ns3:TrackPointExtension>
            <ns3:hr>89</ns3:hr>
            <ns3:cad>0</ns3:cad>
          </ns3:TrackPointExtension>
        </extensions>
      </trkpt>
      <trkpt lat="37.7716379798948764801025390625" lon="-107.70622822456061840057373046875">
        <ele>3881.199951171875</ele>
        <time>2023-07-29T14:46:45.000Z</time>
        <extensions>
          <ns3:TrackPointExtension>
            <ns3:hr>89</ns3:hr>
            <ns3:cad>0</ns3:cad>
          </ns3:TrackPointExtension>
        </extensions>
      </trkpt>
      <trkpt lat="37.77163890190422534942626953125" lon="-107.706219255924224853515625">
        <ele>3881.39990234375</ele>
        <time>2023-07-29T14:46:46.000Z</time>
        <extensions>
          <ns3:TrackPointExtension>
            <ns3:hr>91</ns3:hr>
            <ns3:cad>0</ns3:cad>
          </ns3:TrackPointExtension>
        </extensions>
      </trkpt>
      <trkpt lat="37.77164376340806484222412109375" lon="-107.7061969600617885589599609375">
        <ele>3881.39990234375</ele>
        <time>2023-07-29T14:46:47.000Z</time>
        <extensions>
          <ns3:TrackPointExtension>
            <ns3:hr>93</ns3:hr>
            <ns3:cad>0</ns3:cad>
          </ns3:TrackPointExtension>
        </extensions>
      </trkpt>
      <trkpt lat="37.7716450206935405731201171875" lon="-107.70618103444576263427734375">
        <ele>3881.39990234375</ele>
        <time>2023-07-29T14:46:48.000Z</time>
        <extensions>
          <ns3:TrackPointExtension>
            <ns3:hr>94</ns3:hr>
            <ns3:cad>0</ns3:cad>
          </ns3:TrackPointExtension>
        </extensions>
      </trkpt>
      <trkpt lat="37.7716473676264286041259765625" lon="-107.70617122761905193328857421875">
        <ele>3881.39990234375</ele>
        <time>2023-07-29T14:46:49.000Z</time>
        <extensions>
          <ns3:TrackPointExtension>
            <ns3:hr>94</ns3:hr>
            <ns3:cad>0</ns3:cad>
          </ns3:TrackPointExtension>
        </extensions>
      </trkpt>
      <trkpt lat="37.7716500498354434967041015625" lon="-107.70616267807781696319580078125">
        <ele>3881.39990234375</ele>
        <time>2023-07-29T14:46:50.000Z</time>
        <extensions>
          <ns3:TrackPointExtension>
            <ns3:hr>94</ns3:hr>
            <ns3:cad>59</ns3:cad>
          </ns3:TrackPointExtension>
        </extensions>
      </trkpt>
      <trkpt lat="37.77165122330188751220703125" lon="-107.70615932531654834747314453125">
        <ele>3881.39990234375</ele>
        <time>2023-07-29T14:46:51.000Z</time>
        <extensions>
          <ns3:TrackPointExtension>
            <ns3:hr>94</ns3:hr>
            <ns3:cad>59</ns3:cad>
          </ns3:TrackPointExtension>
        </extensions>
      </trkpt>
      <trkpt lat="37.77165658771991729736328125" lon="-107.706155218183994293212890625">
        <ele>3881.39990234375</ele>
        <time>2023-07-29T14:46:52.000Z</time>
        <extensions>
          <ns3:TrackPointExtension>
            <ns3:hr>94</ns3:hr>
            <ns3:cad>59</ns3:cad>
          </ns3:TrackPointExtension>
        </extensions>
      </trkpt>
      <trkpt lat="37.77166103012859821319580078125" lon="-107.7061500214040279388427734375">
        <ele>3881.39990234375</ele>
        <time>2023-07-29T14:46:53.000Z</time>
        <extensions>
          <ns3:TrackPointExtension>
            <ns3:hr>93</ns3:hr>
            <ns3:cad>0</ns3:cad>
          </ns3:TrackPointExtension>
        </extensions>
      </trkpt>
      <trkpt lat="37.7716658078134059906005859375" lon="-107.70614222623407840728759765625">
        <ele>3881.800048828125</ele>
        <time>2023-07-29T14:46:54.000Z</time>
        <extensions>
          <ns3:TrackPointExtension>
            <ns3:hr>94</ns3:hr>
            <ns3:cad>0</ns3:cad>
          </ns3:TrackPointExtension>
        </extensions>
      </trkpt>
      <trkpt lat="37.7716711722314357757568359375" lon="-107.706127054989337921142578125">
        <ele>3881.800048828125</ele>
        <time>2023-07-29T14:46:55.000Z</time>
        <extensions>
          <ns3:TrackPointExtension>
            <ns3:hr>94</ns3:hr>
            <ns3:cad>0</ns3:cad>
          </ns3:TrackPointExtension>
        </extensions>
      </trkpt>
      <trkpt lat="37.771673686802387237548828125" lon="-107.7061195112764835357666015625">
        <ele>3882</ele>
        <time>2023-07-29T14:46:56.000Z</time>
        <extensions>
          <ns3:TrackPointExtension>
            <ns3:hr>93</ns3:hr>
            <ns3:cad>0</ns3:cad>
          </ns3:TrackPointExtension>
        </extensions>
      </trkpt>
      <trkpt lat="37.77167963795363903045654296875" lon="-107.70610568113625049591064453125">
        <ele>3882.199951171875</ele>
        <time>2023-07-29T14:46:57.000Z</time>
        <extensions>
          <ns3:TrackPointExtension>
            <ns3:hr>90</ns3:hr>
            <ns3:cad>0</ns3:cad>
          </ns3:TrackPointExtension>
        </extensions>
      </trkpt>
      <trkpt lat="37.771682403981685638427734375" lon="-107.706097550690174102783203125">
        <ele>3882.199951171875</ele>
        <time>2023-07-29T14:46:58.000Z</time>
        <extensions>
          <ns3:TrackPointExtension>
            <ns3:hr>89</ns3:hr>
            <ns3:cad>0</ns3:cad>
          </ns3:TrackPointExtension>
        </extensions>
      </trkpt>
      <trkpt lat="37.77168768458068370819091796875" lon="-107.7060869894921779632568359375">
        <ele>3882.39990234375</ele>
        <time>2023-07-29T14:46:59.000Z</time>
        <extensions>
          <ns3:TrackPointExtension>
            <ns3:hr>88</ns3:hr>
            <ns3:cad>0</ns3:cad>
          </ns3:TrackPointExtension>
        </extensions>
      </trkpt>
      <trkpt lat="37.771690450608730316162109375" lon="-107.7060765959322452545166015625">
        <ele>3882.60009765625</ele>
        <time>2023-07-29T14:47:00.000Z</time>
        <extensions>
          <ns3:TrackPointExtension>
            <ns3:hr>88</ns3:hr>
            <ns3:cad>0</ns3:cad>
          </ns3:TrackPointExtension>
        </extensions>
      </trkpt>
      <trkpt lat="37.771690785884857177734375" lon="-107.7060745842754840850830078125">
        <ele>3882.60009765625</ele>
        <time>2023-07-29T14:47:01.000Z</time>
        <extensions>
          <ns3:TrackPointExtension>
            <ns3:hr>88</ns3:hr>
            <ns3:cad>0</ns3:cad>
          </ns3:TrackPointExtension>
        </extensions>
      </trkpt>
      <trkpt lat="37.7716855891048908233642578125" lon="-107.70607240498065948486328125">
        <ele>3883</ele>
        <time>2023-07-29T14:47:02.000Z</time>
        <extensions>
          <ns3:TrackPointExtension>
            <ns3:hr>87</ns3:hr>
            <ns3:cad>0</ns3:cad>
          </ns3:TrackPointExtension>
        </extensions>
      </trkpt>
      <trkpt lat="37.7716813981533050537109375" lon="-107.70606578327715396881103515625">
        <ele>3883.199951171875</ele>
        <time>2023-07-29T14:47:03.000Z</time>
        <extensions>
          <ns3:TrackPointExtension>
            <ns3:hr>88</ns3:hr>
            <ns3:cad>0</ns3:cad>
          </ns3:TrackPointExtension>
        </extensions>
      </trkpt>
      <trkpt lat="37.7716745249927043914794921875" lon="-107.70606846548616886138916015625">
        <ele>3883.60009765625</ele>
        <time>2023-07-29T14:47:04.000Z</time>
        <extensions>
          <ns3:TrackPointExtension>
            <ns3:hr>88</ns3:hr>
            <ns3:cad>0</ns3:cad>
          </ns3:TrackPointExtension>
        </extensions>
      </trkpt>
      <trkpt lat="37.77167360298335552215576171875" lon="-107.7060672082006931304931640625">
        <ele>3883.60009765625</ele>
        <time>2023-07-29T14:47:05.000Z</time>
        <extensions>
          <ns3:TrackPointExtension>
            <ns3:hr>89</ns3:hr>
            <ns3:cad>0</ns3:cad>
          </ns3:TrackPointExtension>
        </extensions>
      </trkpt>
      <trkpt lat="37.771671004593372344970703125" lon="-107.70605857484042644500732421875">
        <ele>3883.800048828125</ele>
        <time>2023-07-29T14:47:06.000Z</time>
        <extensions>
          <ns3:TrackPointExtension>
            <ns3:hr>89</ns3:hr>
            <ns3:cad>0</ns3:cad>
          </ns3:TrackPointExtension>
        </extensions>
      </trkpt>
      <trkpt lat="37.77166664600372314453125" lon="-107.70605907775461673736572265625">
        <ele>3884</ele>
        <time>2023-07-29T14:47:07.000Z</time>
        <extensions>
          <ns3:TrackPointExtension>
            <ns3:hr>90</ns3:hr>
            <ns3:cad>0</ns3:cad>
          </ns3:TrackPointExtension>
        </extensions>
      </trkpt>
      <trkpt lat="37.7716611139476299285888671875" lon="-107.7060504443943500518798828125">
        <ele>3884</ele>
        <time>2023-07-29T14:47:08.000Z</time>
        <extensions>
          <ns3:TrackPointExtension>
            <ns3:hr>93</ns3:hr>
            <ns3:cad>0</ns3:cad>
          </ns3:TrackPointExtension>
        </extensions>
      </trkpt>
      <trkpt lat="37.771656922996044158935546875" lon="-107.706036530435085296630859375">
        <ele>3884</ele>
        <time>2023-07-29T14:47:09.000Z</time>
        <extensions>
          <ns3:TrackPointExtension>
            <ns3:hr>96</ns3:hr>
            <ns3:cad>0</ns3:cad>
          </ns3:TrackPointExtension>
        </extensions>
      </trkpt>
      <trkpt lat="37.77165734209120273590087890625" lon="-107.70602923817932605743408203125">
        <ele>3884.39990234375</ele>
        <time>2023-07-29T14:47:10.000Z</time>
        <extensions>
          <ns3:TrackPointExtension>
            <ns3:hr>98</ns3:hr>
            <ns3:cad>0</ns3:cad>
          </ns3:TrackPointExtension>
        </extensions>
      </trkpt>
      <trkpt lat="37.77165818028151988983154296875" lon="-107.70602102391421794891357421875">
        <ele>3884.39990234375</ele>
        <time>2023-07-29T14:47:11.000Z</time>
        <extensions>
          <ns3:TrackPointExtension>
            <ns3:hr>99</ns3:hr>
            <ns3:cad>0</ns3:cad>
          </ns3:TrackPointExtension>
        </extensions>
      </trkpt>
      <trkpt lat="37.77165750972926616668701171875" lon="-107.70601398311555385589599609375">
        <ele>3884.39990234375</ele>
        <time>2023-07-29T14:47:12.000Z</time>
        <extensions>
          <ns3:TrackPointExtension>
            <ns3:hr>100</ns3:hr>
            <ns3:cad>0</ns3:cad>
          </ns3:TrackPointExtension>
        </extensions>
      </trkpt>
      <trkpt lat="37.7716587670147418975830078125" lon="-107.70600727759301662445068359375">
        <ele>3884.60009765625</ele>
        <time>2023-07-29T14:47:13.000Z</time>
        <extensions>
          <ns3:TrackPointExtension>
            <ns3:hr>100</ns3:hr>
            <ns3:cad>0</ns3:cad>
          </ns3:TrackPointExtension>
        </extensions>
      </trkpt>
      <trkpt lat="37.77165851555764675140380859375" lon="-107.70600677467882633209228515625">
        <ele>3884.60009765625</ele>
        <time>2023-07-29T14:47:14.000Z</time>
        <extensions>
          <ns3:TrackPointExtension>
            <ns3:hr>100</ns3:hr>
            <ns3:cad>0</ns3:cad>
          </ns3:TrackPointExtension>
        </extensions>
      </trkpt>
      <trkpt lat="37.77165767736732959747314453125" lon="-107.70600610412657260894775390625">
        <ele>3884.60009765625</ele>
        <time>2023-07-29T14:47:15.000Z</time>
        <extensions>
          <ns3:TrackPointExtension>
            <ns3:hr>101</ns3:hr>
            <ns3:cad>0</ns3:cad>
          </ns3:TrackPointExtension>
        </extensions>
      </trkpt>
      <trkpt lat="37.7716554142534732818603515625" lon="-107.70600593648850917816162109375">
        <ele>3884.60009765625</ele>
        <time>2023-07-29T14:47:16.000Z</time>
        <extensions>
          <ns3:TrackPointExtension>
            <ns3:hr>101</ns3:hr>
            <ns3:cad>0</ns3:cad>
          </ns3:TrackPointExtension>
        </extensions>
      </trkpt>
      <trkpt lat="37.7716527320444583892822265625" lon="-107.70601012744009494781494140625">
        <ele>3884.800048828125</ele>
        <time>2023-07-29T14:47:17.000Z</time>
        <extensions>
          <ns3:TrackPointExtension>
            <ns3:hr>102</ns3:hr>
            <ns3:cad>0</ns3:cad>
          </ns3:TrackPointExtension>
        </extensions>
      </trkpt>
      <trkpt lat="37.77164778672158718109130859375" lon="-107.7060192637145519256591796875">
        <ele>3884.800048828125</ele>
        <time>2023-07-29T14:47:18.000Z</time>
        <extensions>
          <ns3:TrackPointExtension>
            <ns3:hr>102</ns3:hr>
            <ns3:cad>0</ns3:cad>
          </ns3:TrackPointExtension>
        </extensions>
      </trkpt>
      <trkpt lat="37.77164543978869915008544921875" lon="-107.70602873526513576507568359375">
        <ele>3884.800048828125</ele>
        <time>2023-07-29T14:47:19.000Z</time>
        <extensions>
          <ns3:TrackPointExtension>
            <ns3:hr>102</ns3:hr>
            <ns3:cad>0</ns3:cad>
          </ns3:TrackPointExtension>
        </extensions>
      </trkpt>
      <trkpt lat="37.771644853055477142333984375" lon="-107.70603225566446781158447265625">
        <ele>3884.800048828125</ele>
        <time>2023-07-29T14:47:20.000Z</time>
        <extensions>
          <ns3:TrackPointExtension>
            <ns3:hr>102</ns3:hr>
            <ns3:cad>0</ns3:cad>
          </ns3:TrackPointExtension>
        </extensions>
      </trkpt>
      <trkpt lat="37.7716446854174137115478515625" lon="-107.70602948963642120361328125">
        <ele>3884.800048828125</ele>
        <time>2023-07-29T14:47:21.000Z</time>
        <extensions>
          <ns3:TrackPointExtension>
            <ns3:hr>102</ns3:hr>
            <ns3:cad>0</ns3:cad>
          </ns3:TrackPointExtension>
        </extensions>
      </trkpt>
      <trkpt lat="37.77164317667484283447265625" lon="-107.7060234546661376953125">
        <ele>3884.800048828125</ele>
        <time>2023-07-29T14:47:22.000Z</time>
        <extensions>
          <ns3:TrackPointExtension>
            <ns3:hr>102</ns3:hr>
            <ns3:cad>0</ns3:cad>
          </ns3:TrackPointExtension>
        </extensions>
      </trkpt>
      <trkpt lat="37.7716430090367794036865234375" lon="-107.70601876080036163330078125">
        <ele>3884.800048828125</ele>
        <time>2023-07-29T14:47:23.000Z</time>
        <extensions>
          <ns3:TrackPointExtension>
            <ns3:hr>102</ns3:hr>
            <ns3:cad>0</ns3:cad>
          </ns3:TrackPointExtension>
        </extensions>
      </trkpt>
      <trkpt lat="37.771646864712238311767578125" lon="-107.7060167491436004638671875">
        <ele>3884.800048828125</ele>
        <time>2023-07-29T14:47:24.000Z</time>
        <extensions>
          <ns3:TrackPointExtension>
            <ns3:hr>103</ns3:hr>
            <ns3:cad>0</ns3:cad>
          </ns3:TrackPointExtension>
        </extensions>
      </trkpt>
      <trkpt lat="37.771653234958648681640625" lon="-107.70601364783942699432373046875">
        <ele>3884.800048828125</ele>
        <time>2023-07-29T14:47:25.000Z</time>
        <extensions>
          <ns3:TrackPointExtension>
            <ns3:hr>103</ns3:hr>
            <ns3:cad>0</ns3:cad>
          </ns3:TrackPointExtension>
        </extensions>
      </trkpt>
      <trkpt lat="37.7716567553579807281494140625" lon="-107.7060172520577907562255859375">
        <ele>3884.800048828125</ele>
        <time>2023-07-29T14:47:26.000Z</time>
        <extensions>
          <ns3:TrackPointExtension>
            <ns3:hr>103</ns3:hr>
            <ns3:cad>0</ns3:cad>
          </ns3:TrackPointExtension>
        </extensions>
      </trkpt>
      <trkpt lat="37.77165734209120273590087890625" lon="-107.70602856762707233428955078125">
        <ele>3884.800048828125</ele>
        <time>2023-07-29T14:47:27.000Z</time>
        <extensions>
          <ns3:TrackPointExtension>
            <ns3:hr>103</ns3:hr>
            <ns3:cad>0</ns3:cad>
          </ns3:TrackPointExtension>
        </extensions>
      </trkpt>
      <trkpt lat="37.77165952138602733612060546875" lon="-107.70603342913091182708740234375">
        <ele>3884.800048828125</ele>
        <time>2023-07-29T14:47:28.000Z</time>
        <extensions>
          <ns3:TrackPointExtension>
            <ns3:hr>102</ns3:hr>
            <ns3:cad>0</ns3:cad>
          </ns3:TrackPointExtension>
        </extensions>
      </trkpt>
      <trkpt lat="37.77166589163243770599365234375" lon="-107.70603057928383350372314453125">
        <ele>3884.800048828125</ele>
        <time>2023-07-29T14:47:29.000Z</time>
        <extensions>
          <ns3:TrackPointExtension>
            <ns3:hr>102</ns3:hr>
            <ns3:cad>0</ns3:cad>
          </ns3:TrackPointExtension>
        </extensions>
      </trkpt>
      <trkpt lat="37.77167377062141895294189453125" lon="-107.7060222811996936798095703125">
        <ele>3884.60009765625</ele>
        <time>2023-07-29T14:47:30.000Z</time>
        <extensions>
          <ns3:TrackPointExtension>
            <ns3:hr>102</ns3:hr>
            <ns3:cad>0</ns3:cad>
          </ns3:TrackPointExtension>
        </extensions>
      </trkpt>
      <trkpt lat="37.7716792188584804534912109375" lon="-107.70602814853191375732421875">
        <ele>3884.60009765625</ele>
        <time>2023-07-29T14:47:31.000Z</time>
        <extensions>
          <ns3:TrackPointExtension>
            <ns3:hr>102</ns3:hr>
            <ns3:cad>0</ns3:cad>
          </ns3:TrackPointExtension>
        </extensions>
      </trkpt>
      <trkpt lat="37.7716832421720027923583984375" lon="-107.70603208802640438079833984375">
        <ele>3884.39990234375</ele>
        <time>2023-07-29T14:47:32.000Z</time>
        <extensions>
          <ns3:TrackPointExtension>
            <ns3:hr>101</ns3:hr>
            <ns3:cad>0</ns3:cad>
          </ns3:TrackPointExtension>
        </extensions>
      </trkpt>
      <trkpt lat="37.7716872654855251312255859375" lon="-107.706028483808040618896484375">
        <ele>3884.39990234375</ele>
        <time>2023-07-29T14:47:33.000Z</time>
        <extensions>
          <ns3:TrackPointExtension>
            <ns3:hr>100</ns3:hr>
            <ns3:cad>0</ns3:cad>
          </ns3:TrackPointExtension>
        </extensions>
      </trkpt>
      <trkpt lat="37.77169154025614261627197265625" lon="-107.7060232870280742645263671875">
        <ele>3884.199951171875</ele>
        <time>2023-07-29T14:47:34.000Z</time>
        <extensions>
          <ns3:TrackPointExtension>
            <ns3:hr>100</ns3:hr>
            <ns3:cad>0</ns3:cad>
          </ns3:TrackPointExtension>
        </extensions>
      </trkpt>
      <trkpt lat="37.7716946415603160858154296875" lon="-107.7060219459235668182373046875">
        <ele>3884.199951171875</ele>
        <time>2023-07-29T14:47:35.000Z</time>
        <extensions>
          <ns3:TrackPointExtension>
            <ns3:hr>99</ns3:hr>
            <ns3:cad>0</ns3:cad>
          </ns3:TrackPointExtension>
        </extensions>
      </trkpt>
      <trkpt lat="37.7716983295977115631103515625" lon="-107.7060212753713130950927734375">
        <ele>3883.800048828125</ele>
        <time>2023-07-29T14:47:36.000Z</time>
        <extensions>
          <ns3:TrackPointExtension>
            <ns3:hr>99</ns3:hr>
            <ns3:cad>0</ns3:cad>
          </ns3:TrackPointExtension>
        </extensions>
      </trkpt>
      <trkpt lat="37.77170025743544101715087890625" lon="-107.7060189284384250640869140625">
        <ele>3883.60009765625</ele>
        <time>2023-07-29T14:47:37.000Z</time>
        <extensions>
          <ns3:TrackPointExtension>
            <ns3:hr>98</ns3:hr>
            <ns3:cad>0</ns3:cad>
          </ns3:TrackPointExtension>
        </extensions>
      </trkpt>
      <trkpt lat="37.77170511893928050994873046875" lon="-107.70601607859134674072265625">
        <ele>3883.39990234375</ele>
        <time>2023-07-29T14:47:38.000Z</time>
        <extensions>
          <ns3:TrackPointExtension>
            <ns3:hr>98</ns3:hr>
            <ns3:cad>0</ns3:cad>
          </ns3:TrackPointExtension>
        </extensions>
      </trkpt>
      <trkpt lat="37.7717082202434539794921875" lon="-107.70601046271622180938720703125">
        <ele>3883.39990234375</ele>
        <time>2023-07-29T14:47:39.000Z</time>
        <extensions>
          <ns3:TrackPointExtension>
            <ns3:hr>97</ns3:hr>
            <ns3:cad>0</ns3:cad>
          </ns3:TrackPointExtension>
        </extensions>
      </trkpt>
      <trkpt lat="37.77171953581273555755615234375" lon="-107.70600090734660625457763671875">
        <ele>3883</ele>
        <time>2023-07-29T14:47:40.000Z</time>
        <extensions>
          <ns3:TrackPointExtension>
            <ns3:hr>96</ns3:hr>
            <ns3:cad>0</ns3:cad>
          </ns3:TrackPointExtension>
        </extensions>
      </trkpt>
      <trkpt lat="37.77172540314495563507080078125" lon="-107.70598783157765865325927734375">
        <ele>3883</ele>
        <time>2023-07-29T14:47:41.000Z</time>
        <extensions>
          <ns3:TrackPointExtension>
            <ns3:hr>95</ns3:hr>
            <ns3:cad>0</ns3:cad>
          </ns3:TrackPointExtension>
        </extensions>
      </trkpt>
      <trkpt lat="37.77172573842108249664306640625" lon="-107.7059830538928508758544921875">
        <ele>3882.800048828125</ele>
        <time>2023-07-29T14:47:42.000Z</time>
        <extensions>
          <ns3:TrackPointExtension>
            <ns3:hr>94</ns3:hr>
            <ns3:cad>0</ns3:cad>
          </ns3:TrackPointExtension>
        </extensions>
      </trkpt>
      <trkpt lat="37.7717238105833530426025390625" lon="-107.70598464645445346832275390625">
        <ele>3882.60009765625</ele>
        <time>2023-07-29T14:47:43.000Z</time>
        <extensions>
          <ns3:TrackPointExtension>
            <ns3:hr>94</ns3:hr>
            <ns3:cad>0</ns3:cad>
          </ns3:TrackPointExtension>
        </extensions>
      </trkpt>
      <trkpt lat="37.77172498404979705810546875" lon="-107.7059845626354217529296875">
        <ele>3882.39990234375</ele>
        <time>2023-07-29T14:47:44.000Z</time>
        <extensions>
          <ns3:TrackPointExtension>
            <ns3:hr>93</ns3:hr>
            <ns3:cad>0</ns3:cad>
          </ns3:TrackPointExtension>
        </extensions>
      </trkpt>
      <trkpt lat="37.77172674424946308135986328125" lon="-107.70598255097866058349609375">
        <ele>3882.39990234375</ele>
        <time>2023-07-29T14:47:45.000Z</time>
        <extensions>
          <ns3:TrackPointExtension>
            <ns3:hr>91</ns3:hr>
            <ns3:cad>0</ns3:cad>
          </ns3:TrackPointExtension>
        </extensions>
      </trkpt>
      <trkpt lat="37.77172900736331939697265625" lon="-107.70597961731255054473876953125">
        <ele>3882</ele>
        <time>2023-07-29T14:47:46.000Z</time>
        <extensions>
          <ns3:TrackPointExtension>
            <ns3:hr>91</ns3:hr>
            <ns3:cad>0</ns3:cad>
          </ns3:TrackPointExtension>
        </extensions>
      </trkpt>
      <trkpt lat="37.77173303067684173583984375" lon="-107.7059750072658061981201171875">
        <ele>3882</ele>
        <time>2023-07-29T14:47:47.000Z</time>
        <extensions>
          <ns3:TrackPointExtension>
            <ns3:hr>90</ns3:hr>
            <ns3:cad>0</ns3:cad>
          </ns3:TrackPointExtension>
        </extensions>
      </trkpt>
      <trkpt lat="37.77173311449587345123291015625" lon="-107.7059711515903472900390625">
        <ele>3881.800048828125</ele>
        <time>2023-07-29T14:47:48.000Z</time>
        <extensions>
          <ns3:TrackPointExtension>
            <ns3:hr>89</ns3:hr>
            <ns3:cad>0</ns3:cad>
          </ns3:TrackPointExtension>
        </extensions>
      </trkpt>
      <trkpt lat="37.77173579670488834381103515625" lon="-107.70596939139068126678466796875">
        <ele>3881.800048828125</ele>
        <time>2023-07-29T14:47:49.000Z</time>
        <extensions>
          <ns3:TrackPointExtension>
            <ns3:hr>87</ns3:hr>
            <ns3:cad>0</ns3:cad>
          </ns3:TrackPointExtension>
        </extensions>
      </trkpt>
      <trkpt lat="37.7717385627329349517822265625" lon="-107.70597140304744243621826171875">
        <ele>3881.800048828125</ele>
        <time>2023-07-29T14:47:50.000Z</time>
        <extensions>
          <ns3:TrackPointExtension>
            <ns3:hr>86</ns3:hr>
            <ns3:cad>0</ns3:cad>
          </ns3:TrackPointExtension>
        </extensions>
      </trkpt>
      <trkpt lat="37.77174283750355243682861328125" lon="-107.7059676311910152435302734375">
        <ele>3881.800048828125</ele>
        <time>2023-07-29T14:47:51.000Z</time>
        <extensions>
          <ns3:TrackPointExtension>
            <ns3:hr>85</ns3:hr>
            <ns3:cad>0</ns3:cad>
          </ns3:TrackPointExtension>
        </extensions>
      </trkpt>
      <trkpt lat="37.771748788654804229736328125" lon="-107.7059612609446048736572265625">
        <ele>3881.60009765625</ele>
        <time>2023-07-29T14:47:52.000Z</time>
        <extensions>
          <ns3:TrackPointExtension>
            <ns3:hr>84</ns3:hr>
            <ns3:cad>0</ns3:cad>
          </ns3:TrackPointExtension>
        </extensions>
      </trkpt>
      <trkpt lat="37.77175155468285083770751953125" lon="-107.7059532143175601959228515625">
        <ele>3881.60009765625</ele>
        <time>2023-07-29T14:47:53.000Z</time>
        <extensions>
          <ns3:TrackPointExtension>
            <ns3:hr>84</ns3:hr>
            <ns3:cad>0</ns3:cad>
          </ns3:TrackPointExtension>
        </extensions>
      </trkpt>
      <trkpt lat="37.7717479504644870758056640625" lon="-107.705952711403369903564453125">
        <ele>3881.60009765625</ele>
        <time>2023-07-29T14:47:54.000Z</time>
        <extensions>
          <ns3:TrackPointExtension>
            <ns3:hr>84</ns3:hr>
            <ns3:cad>0</ns3:cad>
          </ns3:TrackPointExtension>
        </extensions>
      </trkpt>
      <trkpt lat="37.7717466093599796295166015625" lon="-107.70595296286046504974365234375">
        <ele>3881.39990234375</ele>
        <time>2023-07-29T14:47:55.000Z</time>
        <extensions>
          <ns3:TrackPointExtension>
            <ns3:hr>84</ns3:hr>
            <ns3:cad>0</ns3:cad>
          </ns3:TrackPointExtension>
        </extensions>
      </trkpt>
      <trkpt lat="37.77175004594027996063232421875" lon="-107.70594893954694271087646484375">
        <ele>3881.199951171875</ele>
        <time>2023-07-29T14:47:56.000Z</time>
        <extensions>
          <ns3:TrackPointExtension>
            <ns3:hr>84</ns3:hr>
            <ns3:cad>0</ns3:cad>
          </ns3:TrackPointExtension>
        </extensions>
      </trkpt>
      <trkpt lat="37.77175306342542171478271484375" lon="-107.70594391040503978729248046875">
        <ele>3881.199951171875</ele>
        <time>2023-07-29T14:47:57.000Z</time>
        <extensions>
          <ns3:TrackPointExtension>
            <ns3:hr>84</ns3:hr>
            <ns3:cad>0</ns3:cad>
          </ns3:TrackPointExtension>
        </extensions>
      </trkpt>
      <trkpt lat="37.77175021357834339141845703125" lon="-107.7059468440711498260498046875">
        <ele>3881.199951171875</ele>
        <time>2023-07-29T14:47:58.000Z</time>
        <extensions>
          <ns3:TrackPointExtension>
            <ns3:hr>84</ns3:hr>
            <ns3:cad>57</ns3:cad>
          </ns3:TrackPointExtension>
        </extensions>
      </trkpt>
      <trkpt lat="37.77175608091056346893310546875" lon="-107.70594290457665920257568359375">
        <ele>3881.199951171875</ele>
        <time>2023-07-29T14:47:59.000Z</time>
        <extensions>
          <ns3:TrackPointExtension>
            <ns3:hr>83</ns3:hr>
            <ns3:cad>57</ns3:cad>
          </ns3:TrackPointExtension>
        </extensions>
      </trkpt>
      <trkpt lat="37.77175742201507091522216796875" lon="-107.7059418149292469024658203125">
        <ele>3881.199951171875</ele>
        <time>2023-07-29T14:48:00.000Z</time>
        <extensions>
          <ns3:TrackPointExtension>
            <ns3:hr>83</ns3:hr>
            <ns3:cad>0</ns3:cad>
          </ns3:TrackPointExtension>
        </extensions>
      </trkpt>
      <trkpt lat="37.771760523319244384765625" lon="-107.70594441331923007965087890625">
        <ele>3881.199951171875</ele>
        <time>2023-07-29T14:48:01.000Z</time>
        <extensions>
          <ns3:TrackPointExtension>
            <ns3:hr>83</ns3:hr>
            <ns3:cad>0</ns3:cad>
          </ns3:TrackPointExtension>
        </extensions>
      </trkpt>
      <trkpt lat="37.77176111005246639251708984375" lon="-107.705949358642101287841796875">
        <ele>3881.60009765625</ele>
        <time>2023-07-29T14:48:02.000Z</time>
        <extensions>
          <ns3:TrackPointExtension>
            <ns3:hr>82</ns3:hr>
            <ns3:cad>0</ns3:cad>
          </ns3:TrackPointExtension>
        </extensions>
      </trkpt>
      <trkpt lat="37.77176278643310070037841796875" lon="-107.7059522084891796112060546875">
        <ele>3881.800048828125</ele>
        <time>2023-07-29T14:48:03.000Z</time>
        <extensions>
          <ns3:TrackPointExtension>
            <ns3:hr>82</ns3:hr>
            <ns3:cad>0</ns3:cad>
          </ns3:TrackPointExtension>
        </extensions>
      </trkpt>
      <trkpt lat="37.7717672288417816162109375" lon="-107.70595279522240161895751953125">
        <ele>3882</ele>
        <time>2023-07-29T14:48:04.000Z</time>
        <extensions>
          <ns3:TrackPointExtension>
            <ns3:hr>82</ns3:hr>
            <ns3:cad>0</ns3:cad>
          </ns3:TrackPointExtension>
        </extensions>
      </trkpt>
      <trkpt lat="37.771774269640445709228515625" lon="-107.70594893954694271087646484375">
        <ele>3882</ele>
        <time>2023-07-29T14:48:05.000Z</time>
        <extensions>
          <ns3:TrackPointExtension>
            <ns3:hr>82</ns3:hr>
            <ns3:cad>0</ns3:cad>
          </ns3:TrackPointExtension>
        </extensions>
      </trkpt>
      <trkpt lat="37.77177804149687290191650390625" lon="-107.70593963563442230224609375">
        <ele>3882</ele>
        <time>2023-07-29T14:48:06.000Z</time>
        <extensions>
          <ns3:TrackPointExtension>
            <ns3:hr>82</ns3:hr>
            <ns3:cad>0</ns3:cad>
          </ns3:TrackPointExtension>
        </extensions>
      </trkpt>
      <trkpt lat="37.77177720330655574798583984375" lon="-107.70593301393091678619384765625">
        <ele>3882</ele>
        <time>2023-07-29T14:48:07.000Z</time>
        <extensions>
          <ns3:TrackPointExtension>
            <ns3:hr>83</ns3:hr>
            <ns3:cad>0</ns3:cad>
          </ns3:TrackPointExtension>
        </extensions>
      </trkpt>
      <trkpt lat="37.7717761136591434478759765625" lon="-107.705925218760967254638671875">
        <ele>3882</ele>
        <time>2023-07-29T14:48:08.000Z</time>
        <extensions>
          <ns3:TrackPointExtension>
            <ns3:hr>82</ns3:hr>
            <ns3:cad>0</ns3:cad>
          </ns3:TrackPointExtension>
        </extensions>
      </trkpt>
      <trkpt lat="37.77177133597433567047119140625" lon="-107.70591876469552516937255859375">
        <ele>3882</ele>
        <time>2023-07-29T14:48:09.000Z</time>
        <extensions>
          <ns3:TrackPointExtension>
            <ns3:hr>82</ns3:hr>
            <ns3:cad>0</ns3:cad>
          </ns3:TrackPointExtension>
        </extensions>
      </trkpt>
      <trkpt lat="37.77176295407116413116455078125" lon="-107.70591189153492450714111328125">
        <ele>3882.199951171875</ele>
        <time>2023-07-29T14:48:10.000Z</time>
        <extensions>
          <ns3:TrackPointExtension>
            <ns3:hr>81</ns3:hr>
            <ns3:cad>0</ns3:cad>
          </ns3:TrackPointExtension>
        </extensions>
      </trkpt>
      <trkpt lat="37.7717513032257556915283203125" lon="-107.7059002406895160675048828125">
        <ele>3882.199951171875</ele>
        <time>2023-07-29T14:48:11.000Z</time>
        <extensions>
          <ns3:TrackPointExtension>
            <ns3:hr>81</ns3:hr>
            <ns3:cad>0</ns3:cad>
          </ns3:TrackPointExtension>
        </extensions>
      </trkpt>
      <trkpt lat="37.77174518443644046783447265625" lon="-107.7058918587863445281982421875">
        <ele>3882.199951171875</ele>
        <time>2023-07-29T14:48:12.000Z</time>
        <extensions>
          <ns3:TrackPointExtension>
            <ns3:hr>80</ns3:hr>
            <ns3:cad>0</ns3:cad>
          </ns3:TrackPointExtension>
        </extensions>
      </trkpt>
      <trkpt lat="37.7717445977032184600830078125" lon="-107.70588758401572704315185546875">
        <ele>3882.199951171875</ele>
        <time>2023-07-29T14:48:13.000Z</time>
        <extensions>
          <ns3:TrackPointExtension>
            <ns3:hr>80</ns3:hr>
            <ns3:cad>0</ns3:cad>
          </ns3:TrackPointExtension>
        </extensions>
      </trkpt>
      <trkpt lat="37.7717404067516326904296875" lon="-107.7058804593980312347412109375">
        <ele>3882.39990234375</ele>
        <time>2023-07-29T14:48:14.000Z</time>
        <extensions>
          <ns3:TrackPointExtension>
            <ns3:hr>80</ns3:hr>
            <ns3:cad>0</ns3:cad>
          </ns3:TrackPointExtension>
        </extensions>
      </trkpt>
      <trkpt lat="37.77173847891390323638916015625" lon="-107.7058774419128894805908203125">
        <ele>3882.60009765625</ele>
        <time>2023-07-29T14:48:15.000Z</time>
        <extensions>
          <ns3:TrackPointExtension>
            <ns3:hr>80</ns3:hr>
            <ns3:cad>0</ns3:cad>
          </ns3:TrackPointExtension>
        </extensions>
      </trkpt>
      <trkpt lat="37.7717362158000469207763671875" lon="-107.7058732509613037109375">
        <ele>3882.800048828125</ele>
        <time>2023-07-29T14:48:16.000Z</time>
        <extensions>
          <ns3:TrackPointExtension>
            <ns3:hr>80</ns3:hr>
            <ns3:cad>0</ns3:cad>
          </ns3:TrackPointExtension>
        </extensions>
      </trkpt>
      <trkpt lat="37.771733365952968597412109375" lon="-107.705866210162639617919921875">
        <ele>3883</ele>
        <time>2023-07-29T14:48:17.000Z</time>
        <extensions>
          <ns3:TrackPointExtension>
            <ns3:hr>80</ns3:hr>
            <ns3:cad>0</ns3:cad>
          </ns3:TrackPointExtension>
        </extensions>
      </trkpt>
      <trkpt lat="37.77173261158168315887451171875" lon="-107.705863527953624725341796875">
        <ele>3883.199951171875</ele>
        <time>2023-07-29T14:48:18.000Z</time>
        <extensions>
          <ns3:TrackPointExtension>
            <ns3:hr>81</ns3:hr>
            <ns3:cad>0</ns3:cad>
          </ns3:TrackPointExtension>
        </extensions>
      </trkpt>
      <trkpt lat="37.7717311866581439971923828125" lon="-107.7058603428304195404052734375">
        <ele>3883.199951171875</ele>
        <time>2023-07-29T14:48:19.000Z</time>
        <extensions>
          <ns3:TrackPointExtension>
            <ns3:hr>84</ns3:hr>
            <ns3:cad>0</ns3:cad>
          </ns3:TrackPointExtension>
        </extensions>
      </trkpt>
      <trkpt lat="37.771730683743953704833984375" lon="-107.70586042664945125579833984375">
        <ele>3883.199951171875</ele>
        <time>2023-07-29T14:48:20.000Z</time>
        <extensions>
          <ns3:TrackPointExtension>
            <ns3:hr>85</ns3:hr>
            <ns3:cad>0</ns3:cad>
          </ns3:TrackPointExtension>
        </extensions>
      </trkpt>
      <trkpt lat="37.77172557078301906585693359375" lon="-107.70585807971656322479248046875">
        <ele>3883.60009765625</ele>
        <time>2023-07-29T14:48:21.000Z</time>
        <extensions>
          <ns3:TrackPointExtension>
            <ns3:hr>87</ns3:hr>
            <ns3:cad>0</ns3:cad>
          </ns3:TrackPointExtension>
        </extensions>
      </trkpt>
      <trkpt lat="37.77172364294528961181640625" lon="-107.705858834087848663330078125">
        <ele>3883.800048828125</ele>
        <time>2023-07-29T14:48:22.000Z</time>
        <extensions>
          <ns3:TrackPointExtension>
            <ns3:hr>88</ns3:hr>
            <ns3:cad>0</ns3:cad>
          </ns3:TrackPointExtension>
        </extensions>
      </trkpt>
      <trkpt lat="37.7717189490795135498046875" lon="-107.70586042664945125579833984375">
        <ele>3883.800048828125</ele>
        <time>2023-07-29T14:48:23.000Z</time>
        <extensions>
          <ns3:TrackPointExtension>
            <ns3:hr>90</ns3:hr>
            <ns3:cad>0</ns3:cad>
          </ns3:TrackPointExtension>
        </extensions>
      </trkpt>
      <trkpt lat="37.77171450667083263397216796875" lon="-107.705862186849117279052734375">
        <ele>3883.800048828125</ele>
        <time>2023-07-29T14:48:24.000Z</time>
        <extensions>
          <ns3:TrackPointExtension>
            <ns3:hr>91</ns3:hr>
            <ns3:cad>0</ns3:cad>
          </ns3:TrackPointExtension>
        </extensions>
      </trkpt>
      <trkpt lat="37.771707884967327117919921875" lon="-107.70586512051522731781005859375">
        <ele>3883.800048828125</ele>
        <time>2023-07-29T14:48:25.000Z</time>
        <extensions>
          <ns3:TrackPointExtension>
            <ns3:hr>91</ns3:hr>
            <ns3:cad>0</ns3:cad>
          </ns3:TrackPointExtension>
        </extensions>
      </trkpt>
      <trkpt lat="37.7716996707022190093994140625" lon="-107.70586227066814899444580078125">
        <ele>3884</ele>
        <time>2023-07-29T14:48:26.000Z</time>
        <extensions>
          <ns3:TrackPointExtension>
            <ns3:hr>92</ns3:hr>
            <ns3:cad>0</ns3:cad>
          </ns3:TrackPointExtension>
        </extensions>
      </trkpt>
      <trkpt lat="37.7716916240751743316650390625" lon="-107.70587082020938396453857421875">
        <ele>3884.199951171875</ele>
        <time>2023-07-29T14:48:27.000Z</time>
        <extensions>
          <ns3:TrackPointExtension>
            <ns3:hr>93</ns3:hr>
            <ns3:cad>0</ns3:cad>
          </ns3:TrackPointExtension>
        </extensions>
      </trkpt>
      <trkpt lat="37.7716819010674953460693359375" lon="-107.70587132312357425689697265625">
        <ele>3884.39990234375</ele>
        <time>2023-07-29T14:48:28.000Z</time>
        <extensions>
          <ns3:TrackPointExtension>
            <ns3:hr>93</ns3:hr>
            <ns3:cad>0</ns3:cad>
          </ns3:TrackPointExtension>
        </extensions>
      </trkpt>
      <trkpt lat="37.77167025022208690643310546875" lon="-107.7058724127709865570068359375">
        <ele>3884.39990234375</ele>
        <time>2023-07-29T14:48:29.000Z</time>
        <extensions>
          <ns3:TrackPointExtension>
            <ns3:hr>93</ns3:hr>
            <ns3:cad>0</ns3:cad>
          </ns3:TrackPointExtension>
        </extensions>
      </trkpt>
      <trkpt lat="37.77166186831891536712646484375" lon="-107.70587333478033542633056640625">
        <ele>3884.39990234375</ele>
        <time>2023-07-29T14:48:30.000Z</time>
        <extensions>
          <ns3:TrackPointExtension>
            <ns3:hr>93</ns3:hr>
            <ns3:cad>0</ns3:cad>
          </ns3:TrackPointExtension>
        </extensions>
      </trkpt>
      <trkpt lat="37.77165683917701244354248046875" lon="-107.70587618462741374969482421875">
        <ele>3884.800048828125</ele>
        <time>2023-07-29T14:48:31.000Z</time>
        <extensions>
          <ns3:TrackPointExtension>
            <ns3:hr>93</ns3:hr>
            <ns3:cad>0</ns3:cad>
          </ns3:TrackPointExtension>
        </extensions>
      </trkpt>
      <trkpt lat="37.77165164239704608917236328125" lon="-107.70587735809385776519775390625">
        <ele>3885</ele>
        <time>2023-07-29T14:48:32.000Z</time>
        <extensions>
          <ns3:TrackPointExtension>
            <ns3:hr>93</ns3:hr>
            <ns3:cad>0</ns3:cad>
          </ns3:TrackPointExtension>
        </extensions>
      </trkpt>
      <trkpt lat="37.7716513909399509429931640625" lon="-107.70587786100804805755615234375">
        <ele>3885.199951171875</ele>
        <time>2023-07-29T14:48:33.000Z</time>
        <extensions>
          <ns3:TrackPointExtension>
            <ns3:hr>93</ns3:hr>
            <ns3:cad>0</ns3:cad>
          </ns3:TrackPointExtension>
        </extensions>
      </trkpt>
      <trkpt lat="37.77165524661540985107421875" lon="-107.70588062703609466552734375">
        <ele>3885.60009765625</ele>
        <time>2023-07-29T14:48:34.000Z</time>
        <extensions>
          <ns3:TrackPointExtension>
            <ns3:hr>94</ns3:hr>
            <ns3:cad>0</ns3:cad>
          </ns3:TrackPointExtension>
        </extensions>
      </trkpt>
      <trkpt lat="37.77165801264345645904541015625" lon="-107.70587853156030178070068359375">
        <ele>3885.60009765625</ele>
        <time>2023-07-29T14:48:35.000Z</time>
        <extensions>
          <ns3:TrackPointExtension>
            <ns3:hr>94</ns3:hr>
            <ns3:cad>0</ns3:cad>
          </ns3:TrackPointExtension>
        </extensions>
      </trkpt>
      <trkpt lat="37.77165885083377361297607421875" lon="-107.7058761008083820343017578125">
        <ele>3885.800048828125</ele>
        <time>2023-07-29T14:48:36.000Z</time>
        <extensions>
          <ns3:TrackPointExtension>
            <ns3:hr>95</ns3:hr>
            <ns3:cad>0</ns3:cad>
          </ns3:TrackPointExtension>
        </extensions>
      </trkpt>
      <trkpt lat="37.771663628518581390380859375" lon="-107.70587249659001827239990234375">
        <ele>3885.800048828125</ele>
        <time>2023-07-29T14:48:37.000Z</time>
        <extensions>
          <ns3:TrackPointExtension>
            <ns3:hr>96</ns3:hr>
            <ns3:cad>0</ns3:cad>
          </ns3:TrackPointExtension>
        </extensions>
      </trkpt>
      <trkpt lat="37.7716674841940402984619140625" lon="-107.70586461760103702545166015625">
        <ele>3885.800048828125</ele>
        <time>2023-07-29T14:48:38.000Z</time>
        <extensions>
          <ns3:TrackPointExtension>
            <ns3:hr>97</ns3:hr>
            <ns3:cad>0</ns3:cad>
          </ns3:TrackPointExtension>
        </extensions>
      </trkpt>
      <trkpt lat="37.77166874147951602935791015625" lon="-107.70586260594427585601806640625">
        <ele>3886</ele>
        <time>2023-07-29T14:48:39.000Z</time>
        <extensions>
          <ns3:TrackPointExtension>
            <ns3:hr>99</ns3:hr>
            <ns3:cad>0</ns3:cad>
          </ns3:TrackPointExtension>
        </extensions>
      </trkpt>
      <trkpt lat="37.77167494408786296844482421875" lon="-107.70585036836564540863037109375">
        <ele>3886</ele>
        <time>2023-07-29T14:48:40.000Z</time>
        <extensions>
          <ns3:TrackPointExtension>
            <ns3:hr>101</ns3:hr>
            <ns3:cad>0</ns3:cad>
          </ns3:TrackPointExtension>
        </extensions>
      </trkpt>
      <trkpt lat="37.771681733429431915283203125" lon="-107.70583813078701496124267578125">
        <ele>3886.199951171875</ele>
        <time>2023-07-29T14:48:41.000Z</time>
        <extensions>
          <ns3:TrackPointExtension>
            <ns3:hr>102</ns3:hr>
            <ns3:cad>0</ns3:cad>
          </ns3:TrackPointExtension>
        </extensions>
      </trkpt>
      <trkpt lat="37.771683745086193084716796875" lon="-107.70583142526447772979736328125">
        <ele>3886.199951171875</ele>
        <time>2023-07-29T14:48:42.000Z</time>
        <extensions>
          <ns3:TrackPointExtension>
            <ns3:hr>103</ns3:hr>
            <ns3:cad>0</ns3:cad>
          </ns3:TrackPointExtension>
        </extensions>
      </trkpt>
      <trkpt lat="37.77168751694262027740478515625" lon="-107.70582069642841815948486328125">
        <ele>3886.39990234375</ele>
        <time>2023-07-29T14:48:43.000Z</time>
        <extensions>
          <ns3:TrackPointExtension>
            <ns3:hr>104</ns3:hr>
            <ns3:cad>0</ns3:cad>
          </ns3:TrackPointExtension>
        </extensions>
      </trkpt>
      <trkpt lat="37.771690450608730316162109375" lon="-107.70580963231623172760009765625">
        <ele>3886.39990234375</ele>
        <time>2023-07-29T14:48:44.000Z</time>
        <extensions>
          <ns3:TrackPointExtension>
            <ns3:hr>104</ns3:hr>
            <ns3:cad>0</ns3:cad>
          </ns3:TrackPointExtension>
        </extensions>
      </trkpt>
      <trkpt lat="37.7716886065900325775146484375" lon="-107.7058006636798381805419921875">
        <ele>3886.60009765625</ele>
        <time>2023-07-29T14:48:45.000Z</time>
        <extensions>
          <ns3:TrackPointExtension>
            <ns3:hr>105</ns3:hr>
            <ns3:cad>0</ns3:cad>
          </ns3:TrackPointExtension>
        </extensions>
      </trkpt>
      <trkpt lat="37.7716916240751743316650390625" lon="-107.705791108310222625732421875">
        <ele>3886.800048828125</ele>
        <time>2023-07-29T14:48:46.000Z</time>
        <extensions>
          <ns3:TrackPointExtension>
            <ns3:hr>106</ns3:hr>
            <ns3:cad>0</ns3:cad>
          </ns3:TrackPointExtension>
        </extensions>
      </trkpt>
      <trkpt lat="37.7716933004558086395263671875" lon="-107.70578540861606597900390625">
        <ele>3887.199951171875</ele>
        <time>2023-07-29T14:48:47.000Z</time>
        <extensions>
          <ns3:TrackPointExtension>
            <ns3:hr>106</ns3:hr>
            <ns3:cad>0</ns3:cad>
          </ns3:TrackPointExtension>
        </extensions>
      </trkpt>
      <trkpt lat="37.77169271372258663177490234375" lon="-107.70578063093125820159912109375">
        <ele>3887.199951171875</ele>
        <time>2023-07-29T14:48:48.000Z</time>
        <extensions>
          <ns3:TrackPointExtension>
            <ns3:hr>107</ns3:hr>
            <ns3:cad>0</ns3:cad>
          </ns3:TrackPointExtension>
        </extensions>
      </trkpt>
      <trkpt lat="37.7716906182467937469482421875" lon="-107.7057758532464504241943359375">
        <ele>3887.39990234375</ele>
        <time>2023-07-29T14:48:49.000Z</time>
        <extensions>
          <ns3:TrackPointExtension>
            <ns3:hr>107</ns3:hr>
            <ns3:cad>0</ns3:cad>
          </ns3:TrackPointExtension>
        </extensions>
      </trkpt>
      <trkpt lat="37.7716892771422863006591796875" lon="-107.7057751826941967010498046875">
        <ele>3887.60009765625</ele>
        <time>2023-07-29T14:48:50.000Z</time>
        <extensions>
          <ns3:TrackPointExtension>
            <ns3:hr>107</ns3:hr>
            <ns3:cad>0</ns3:cad>
          </ns3:TrackPointExtension>
        </extensions>
      </trkpt>
      <trkpt lat="37.77168466709554195404052734375" lon="-107.7057859115302562713623046875">
        <ele>3887.800048828125</ele>
        <time>2023-07-29T14:48:51.000Z</time>
        <extensions>
          <ns3:TrackPointExtension>
            <ns3:hr>108</ns3:hr>
            <ns3:cad>0</ns3:cad>
          </ns3:TrackPointExtension>
        </extensions>
      </trkpt>
      <trkpt lat="37.7716845832765102386474609375" lon="-107.70578683353960514068603515625">
        <ele>3887.800048828125</ele>
        <time>2023-07-29T14:48:52.000Z</time>
        <extensions>
          <ns3:TrackPointExtension>
            <ns3:hr>108</ns3:hr>
            <ns3:cad>0</ns3:cad>
          </ns3:TrackPointExtension>
        </extensions>
      </trkpt>
      <trkpt lat="37.77168232016265392303466796875" lon="-107.7057782001793384552001953125">
        <ele>3888</ele>
        <time>2023-07-29T14:48:53.000Z</time>
        <extensions>
          <ns3:TrackPointExtension>
            <ns3:hr>109</ns3:hr>
            <ns3:cad>0</ns3:cad>
          </ns3:TrackPointExtension>
        </extensions>
      </trkpt>
      <trkpt lat="37.77167879976332187652587890625" lon="-107.70577576942741870880126953125">
        <ele>3888</ele>
        <time>2023-07-29T14:48:54.000Z</time>
        <extensions>
          <ns3:TrackPointExtension>
            <ns3:hr>109</ns3:hr>
            <ns3:cad>0</ns3:cad>
          </ns3:TrackPointExtension>
        </extensions>
      </trkpt>
      <trkpt lat="37.7716788835823535919189453125" lon="-107.70577426068484783172607421875">
        <ele>3888.199951171875</ele>
        <time>2023-07-29T14:48:55.000Z</time>
        <extensions>
          <ns3:TrackPointExtension>
            <ns3:hr>109</ns3:hr>
            <ns3:cad>0</ns3:cad>
          </ns3:TrackPointExtension>
        </extensions>
      </trkpt>
      <trkpt lat="37.77167963795363903045654296875" lon="-107.70576671697199344635009765625">
        <ele>3888.39990234375</ele>
        <time>2023-07-29T14:48:56.000Z</time>
        <extensions>
          <ns3:TrackPointExtension>
            <ns3:hr>110</ns3:hr>
            <ns3:cad>0</ns3:cad>
          </ns3:TrackPointExtension>
        </extensions>
      </trkpt>
      <trkpt lat="37.7716808952391147613525390625" lon="-107.705758251249790191650390625">
        <ele>3888.60009765625</ele>
        <time>2023-07-29T14:48:57.000Z</time>
        <extensions>
          <ns3:TrackPointExtension>
            <ns3:hr>110</ns3:hr>
            <ns3:cad>0</ns3:cad>
          </ns3:TrackPointExtension>
        </extensions>
      </trkpt>
      <trkpt lat="37.771683745086193084716796875" lon="-107.70574861206114292144775390625">
        <ele>3888.60009765625</ele>
        <time>2023-07-29T14:48:58.000Z</time>
        <extensions>
          <ns3:TrackPointExtension>
            <ns3:hr>110</ns3:hr>
            <ns3:cad>0</ns3:cad>
          </ns3:TrackPointExtension>
        </extensions>
      </trkpt>
      <trkpt lat="37.77168030850589275360107421875" lon="-107.70574240945279598236083984375">
        <ele>3888.60009765625</ele>
        <time>2023-07-29T14:48:59.000Z</time>
        <extensions>
          <ns3:TrackPointExtension>
            <ns3:hr>111</ns3:hr>
            <ns3:cad>0</ns3:cad>
          </ns3:TrackPointExtension>
        </extensions>
      </trkpt>
      <trkpt lat="37.77167938649654388427734375" lon="-107.70573955960571765899658203125">
        <ele>3888.60009765625</ele>
        <time>2023-07-29T14:49:00.000Z</time>
        <extensions>
          <ns3:TrackPointExtension>
            <ns3:hr>112</ns3:hr>
            <ns3:cad>0</ns3:cad>
          </ns3:TrackPointExtension>
        </extensions>
      </trkpt>
      <trkpt lat="37.77167527936398983001708984375" lon="-107.70574576221406459808349609375">
        <ele>3888.60009765625</ele>
        <time>2023-07-29T14:49:01.000Z</time>
        <extensions>
          <ns3:TrackPointExtension>
            <ns3:hr>112</ns3:hr>
            <ns3:cad>0</ns3:cad>
          </ns3:TrackPointExtension>
        </extensions>
      </trkpt>
      <trkpt lat="37.771673016250133514404296875" lon="-107.7057512104511260986328125">
        <ele>3888.60009765625</ele>
        <time>2023-07-29T14:49:02.000Z</time>
        <extensions>
          <ns3:TrackPointExtension>
            <ns3:hr>112</ns3:hr>
            <ns3:cad>0</ns3:cad>
          </ns3:TrackPointExtension>
        </extensions>
      </trkpt>
      <trkpt lat="37.77166999876499176025390625" lon="-107.705755569040775299072265625">
        <ele>3888.60009765625</ele>
        <time>2023-07-29T14:49:03.000Z</time>
        <extensions>
          <ns3:TrackPointExtension>
            <ns3:hr>112</ns3:hr>
            <ns3:cad>0</ns3:cad>
          </ns3:TrackPointExtension>
        </extensions>
      </trkpt>
      <trkpt lat="37.77166823856532573699951171875" lon="-107.7057594247162342071533203125">
        <ele>3888.60009765625</ele>
        <time>2023-07-29T14:49:04.000Z</time>
        <extensions>
          <ns3:TrackPointExtension>
            <ns3:hr>112</ns3:hr>
            <ns3:cad>0</ns3:cad>
          </ns3:TrackPointExtension>
        </extensions>
      </trkpt>
      <trkpt lat="37.77166823856532573699951171875" lon="-107.70576956681907176971435546875">
        <ele>3889</ele>
        <time>2023-07-29T14:49:05.000Z</time>
        <extensions>
          <ns3:TrackPointExtension>
            <ns3:hr>111</ns3:hr>
            <ns3:cad>0</ns3:cad>
          </ns3:TrackPointExtension>
        </extensions>
      </trkpt>
      <trkpt lat="37.77167737483978271484375" lon="-107.7057634480297565460205078125">
        <ele>3889</ele>
        <time>2023-07-29T14:49:06.000Z</time>
        <extensions>
          <ns3:TrackPointExtension>
            <ns3:hr>111</ns3:hr>
            <ns3:cad>0</ns3:cad>
          </ns3:TrackPointExtension>
        </extensions>
      </trkpt>
      <trkpt lat="37.771676369011402130126953125" lon="-107.70576068200170993804931640625">
        <ele>3889.39990234375</ele>
        <time>2023-07-29T14:49:07.000Z</time>
        <extensions>
          <ns3:TrackPointExtension>
            <ns3:hr>112</ns3:hr>
            <ns3:cad>0</ns3:cad>
          </ns3:TrackPointExtension>
        </extensions>
      </trkpt>
      <trkpt lat="37.77167561464011669158935546875" lon="-107.7057540602982044219970703125">
        <ele>3889.39990234375</ele>
        <time>2023-07-29T14:49:08.000Z</time>
        <extensions>
          <ns3:TrackPointExtension>
            <ns3:hr>112</ns3:hr>
            <ns3:cad>0</ns3:cad>
          </ns3:TrackPointExtension>
        </extensions>
      </trkpt>
      <trkpt lat="37.7716760337352752685546875" lon="-107.7057456783950328826904296875">
        <ele>3889.39990234375</ele>
        <time>2023-07-29T14:49:09.000Z</time>
        <extensions>
          <ns3:TrackPointExtension>
            <ns3:hr>112</ns3:hr>
            <ns3:cad>0</ns3:cad>
          </ns3:TrackPointExtension>
        </extensions>
      </trkpt>
      <trkpt lat="37.7716819010674953460693359375" lon="-107.7057476900517940521240234375">
        <ele>3889.60009765625</ele>
        <time>2023-07-29T14:49:10.000Z</time>
        <extensions>
          <ns3:TrackPointExtension>
            <ns3:hr>112</ns3:hr>
            <ns3:cad>0</ns3:cad>
          </ns3:TrackPointExtension>
        </extensions>
      </trkpt>
      <trkpt lat="37.771686427295207977294921875" lon="-107.70574240945279598236083984375">
        <ele>3889.800048828125</ele>
        <time>2023-07-29T14:49:11.000Z</time>
        <extensions>
          <ns3:TrackPointExtension>
            <ns3:hr>113</ns3:hr>
            <ns3:cad>0</ns3:cad>
          </ns3:TrackPointExtension>
        </extensions>
      </trkpt>
      <trkpt lat="37.7716922946274280548095703125" lon="-107.70573771558701992034912109375">
        <ele>3890</ele>
        <time>2023-07-29T14:49:12.000Z</time>
        <extensions>
          <ns3:TrackPointExtension>
            <ns3:hr>113</ns3:hr>
            <ns3:cad>0</ns3:cad>
          </ns3:TrackPointExtension>
        </extensions>
      </trkpt>
      <trkpt lat="37.771696150302886962890625" lon="-107.70573369227349758148193359375">
        <ele>3890</ele>
        <time>2023-07-29T14:49:13.000Z</time>
        <extensions>
          <ns3:TrackPointExtension>
            <ns3:hr>113</ns3:hr>
            <ns3:cad>0</ns3:cad>
          </ns3:TrackPointExtension>
        </extensions>
      </trkpt>
      <trkpt lat="37.771697826683521270751953125" lon="-107.70573335699737071990966796875">
        <ele>3890</ele>
        <time>2023-07-29T14:49:14.000Z</time>
        <extensions>
          <ns3:TrackPointExtension>
            <ns3:hr>112</ns3:hr>
            <ns3:cad>0</ns3:cad>
          </ns3:TrackPointExtension>
        </extensions>
      </trkpt>
      <trkpt lat="37.7716974914073944091796875" lon="-107.705732099711894989013671875">
        <ele>3890</ele>
        <time>2023-07-29T14:49:15.000Z</time>
        <extensions>
          <ns3:TrackPointExtension>
            <ns3:hr>112</ns3:hr>
            <ns3:cad>0</ns3:cad>
          </ns3:TrackPointExtension>
        </extensions>
      </trkpt>
      <trkpt lat="37.77169740758836269378662109375" lon="-107.70573385991156101226806640625">
        <ele>3890.39990234375</ele>
        <time>2023-07-29T14:49:16.000Z</time>
        <extensions>
          <ns3:TrackPointExtension>
            <ns3:hr>112</ns3:hr>
            <ns3:cad>0</ns3:cad>
          </ns3:TrackPointExtension>
        </extensions>
      </trkpt>
      <trkpt lat="37.77169522829353809356689453125" lon="-107.705733440816402435302734375">
        <ele>3890.60009765625</ele>
        <time>2023-07-29T14:49:17.000Z</time>
        <extensions>
          <ns3:TrackPointExtension>
            <ns3:hr>113</ns3:hr>
            <ns3:cad>0</ns3:cad>
          </ns3:TrackPointExtension>
        </extensions>
      </trkpt>
      <trkpt lat="37.771694473922252655029296875" lon="-107.705731093883514404296875">
        <ele>3890.60009765625</ele>
        <time>2023-07-29T14:49:18.000Z</time>
        <extensions>
          <ns3:TrackPointExtension>
            <ns3:hr>113</ns3:hr>
            <ns3:cad>0</ns3:cad>
          </ns3:TrackPointExtension>
        </extensions>
      </trkpt>
      <trkpt lat="37.77169413864612579345703125" lon="-107.7057163417339324951171875">
        <ele>3890.800048828125</ele>
        <time>2023-07-29T14:49:19.000Z</time>
        <extensions>
          <ns3:TrackPointExtension>
            <ns3:hr>113</ns3:hr>
            <ns3:cad>0</ns3:cad>
          </ns3:TrackPointExtension>
        </extensions>
      </trkpt>
      <trkpt lat="37.77169422246515750885009765625" lon="-107.70570234395563602447509765625">
        <ele>3890.800048828125</ele>
        <time>2023-07-29T14:49:20.000Z</time>
        <extensions>
          <ns3:TrackPointExtension>
            <ns3:hr>113</ns3:hr>
            <ns3:cad>0</ns3:cad>
          </ns3:TrackPointExtension>
        </extensions>
      </trkpt>
      <trkpt lat="37.7716956473886966705322265625" lon="-107.70569731481373310089111328125">
        <ele>3890.800048828125</ele>
        <time>2023-07-29T14:49:21.000Z</time>
        <extensions>
          <ns3:TrackPointExtension>
            <ns3:hr>113</ns3:hr>
            <ns3:cad>0</ns3:cad>
          </ns3:TrackPointExtension>
        </extensions>
      </trkpt>
      <trkpt lat="37.77169556356966495513916015625" lon="-107.70568884909152984619140625">
        <ele>3890.800048828125</ele>
        <time>2023-07-29T14:49:22.000Z</time>
        <extensions>
          <ns3:TrackPointExtension>
            <ns3:hr>113</ns3:hr>
            <ns3:cad>0</ns3:cad>
          </ns3:TrackPointExtension>
        </extensions>
      </trkpt>
      <trkpt lat="37.77169757522642612457275390625" lon="-107.70568256266415119171142578125">
        <ele>3890.800048828125</ele>
        <time>2023-07-29T14:49:23.000Z</time>
        <extensions>
          <ns3:TrackPointExtension>
            <ns3:hr>113</ns3:hr>
            <ns3:cad>0</ns3:cad>
          </ns3:TrackPointExtension>
        </extensions>
      </trkpt>
      <trkpt lat="37.77169891633093357086181640625" lon="-107.7056761085987091064453125">
        <ele>3890.800048828125</ele>
        <time>2023-07-29T14:49:24.000Z</time>
        <extensions>
          <ns3:TrackPointExtension>
            <ns3:hr>113</ns3:hr>
            <ns3:cad>0</ns3:cad>
          </ns3:TrackPointExtension>
        </extensions>
      </trkpt>
      <trkpt lat="37.77170092798769474029541015625" lon="-107.7056689001619815826416015625">
        <ele>3891</ele>
        <time>2023-07-29T14:49:25.000Z</time>
        <extensions>
          <ns3:TrackPointExtension>
            <ns3:hr>113</ns3:hr>
            <ns3:cad>0</ns3:cad>
          </ns3:TrackPointExtension>
        </extensions>
      </trkpt>
      <trkpt lat="37.77170344255864620208740234375" lon="-107.70566009916365146636962890625">
        <ele>3891</ele>
        <time>2023-07-29T14:49:26.000Z</time>
        <extensions>
          <ns3:TrackPointExtension>
            <ns3:hr>113</ns3:hr>
            <ns3:cad>0</ns3:cad>
          </ns3:TrackPointExtension>
        </extensions>
      </trkpt>
      <trkpt lat="37.7717053703963756561279296875" lon="-107.70564953796565532684326171875">
        <ele>3891</ele>
        <time>2023-07-29T14:49:27.000Z</time>
        <extensions>
          <ns3:TrackPointExtension>
            <ns3:hr>114</ns3:hr>
            <ns3:cad>0</ns3:cad>
          </ns3:TrackPointExtension>
        </extensions>
      </trkpt>
      <trkpt lat="37.7717063762247562408447265625" lon="-107.70564635284245014190673828125">
        <ele>3891.199951171875</ele>
        <time>2023-07-29T14:49:28.000Z</time>
        <extensions>
          <ns3:TrackPointExtension>
            <ns3:hr>114</ns3:hr>
            <ns3:cad>0</ns3:cad>
          </ns3:TrackPointExtension>
        </extensions>
      </trkpt>
      <trkpt lat="37.771707214415073394775390625" lon="-107.70564459264278411865234375">
        <ele>3891.60009765625</ele>
        <time>2023-07-29T14:49:29.000Z</time>
        <extensions>
          <ns3:TrackPointExtension>
            <ns3:hr>114</ns3:hr>
            <ns3:cad>0</ns3:cad>
          </ns3:TrackPointExtension>
        </extensions>
      </trkpt>
      <trkpt lat="37.77170595712959766387939453125" lon="-107.70564551465213298797607421875">
        <ele>3891.60009765625</ele>
        <time>2023-07-29T14:49:30.000Z</time>
        <extensions>
          <ns3:TrackPointExtension>
            <ns3:hr>114</ns3:hr>
            <ns3:cad>0</ns3:cad>
          </ns3:TrackPointExtension>
        </extensions>
      </trkpt>
      <trkpt lat="37.77170595712959766387939453125" lon="-107.7056447602808475494384765625">
        <ele>3892</ele>
        <time>2023-07-29T14:49:31.000Z</time>
        <extensions>
          <ns3:TrackPointExtension>
            <ns3:hr>114</ns3:hr>
            <ns3:cad>0</ns3:cad>
          </ns3:TrackPointExtension>
        </extensions>
      </trkpt>
      <trkpt lat="37.77170059271156787872314453125" lon="-107.70565121434628963470458984375">
        <ele>3892.199951171875</ele>
        <time>2023-07-29T14:49:32.000Z</time>
        <extensions>
          <ns3:TrackPointExtension>
            <ns3:hr>114</ns3:hr>
            <ns3:cad>0</ns3:cad>
          </ns3:TrackPointExtension>
        </extensions>
      </trkpt>
      <trkpt lat="37.77169841341674327850341796875" lon="-107.705656327307224273681640625">
        <ele>3892.199951171875</ele>
        <time>2023-07-29T14:49:33.000Z</time>
        <extensions>
          <ns3:TrackPointExtension>
            <ns3:hr>115</ns3:hr>
            <ns3:cad>0</ns3:cad>
          </ns3:TrackPointExtension>
        </extensions>
      </trkpt>
      <trkpt lat="37.77170193381607532501220703125" lon="-107.70565574057400226593017578125">
        <ele>3892.199951171875</ele>
        <time>2023-07-29T14:49:34.000Z</time>
        <extensions>
          <ns3:TrackPointExtension>
            <ns3:hr>115</ns3:hr>
            <ns3:cad>0</ns3:cad>
          </ns3:TrackPointExtension>
        </extensions>
      </trkpt>
      <trkpt lat="37.7717077173292636871337890625" lon="-107.7056546509265899658203125">
        <ele>3892.39990234375</ele>
        <time>2023-07-29T14:49:35.000Z</time>
        <extensions>
          <ns3:TrackPointExtension>
            <ns3:hr>115</ns3:hr>
            <ns3:cad>0</ns3:cad>
          </ns3:TrackPointExtension>
        </extensions>
      </trkpt>
      <trkpt lat="37.771715931594371795654296875" lon="-107.70564869977533817291259765625">
        <ele>3892.39990234375</ele>
        <time>2023-07-29T14:49:36.000Z</time>
        <extensions>
          <ns3:TrackPointExtension>
            <ns3:hr>115</ns3:hr>
            <ns3:cad>0</ns3:cad>
          </ns3:TrackPointExtension>
        </extensions>
      </trkpt>
      <trkpt lat="37.77172557078301906585693359375" lon="-107.705646269023418426513671875">
        <ele>3892.60009765625</ele>
        <time>2023-07-29T14:49:37.000Z</time>
        <extensions>
          <ns3:TrackPointExtension>
            <ns3:hr>115</ns3:hr>
            <ns3:cad>0</ns3:cad>
          </ns3:TrackPointExtension>
        </extensions>
      </trkpt>
      <trkpt lat="37.771730013191699981689453125" lon="-107.70563612692058086395263671875">
        <ele>3892.800048828125</ele>
        <time>2023-07-29T14:49:38.000Z</time>
        <extensions>
          <ns3:TrackPointExtension>
            <ns3:hr>113</ns3:hr>
            <ns3:cad>0</ns3:cad>
          </ns3:TrackPointExtension>
        </extensions>
      </trkpt>
      <trkpt lat="37.77173160575330257415771484375" lon="-107.70562648773193359375">
        <ele>3893</ele>
        <time>2023-07-29T14:49:39.000Z</time>
        <extensions>
          <ns3:TrackPointExtension>
            <ns3:hr>112</ns3:hr>
            <ns3:cad>0</ns3:cad>
          </ns3:TrackPointExtension>
        </extensions>
      </trkpt>
      <trkpt lat="37.77173076756298542022705078125" lon="-107.7056186087429523468017578125">
        <ele>3893</ele>
        <time>2023-07-29T14:49:40.000Z</time>
        <extensions>
          <ns3:TrackPointExtension>
            <ns3:hr>111</ns3:hr>
            <ns3:cad>0</ns3:cad>
          </ns3:TrackPointExtension>
        </extensions>
      </trkpt>
      <trkpt lat="37.7717318572103977203369140625" lon="-107.70562020130455493927001953125">
        <ele>3893.39990234375</ele>
        <time>2023-07-29T14:49:41.000Z</time>
        <extensions>
          <ns3:TrackPointExtension>
            <ns3:hr>110</ns3:hr>
            <ns3:cad>0</ns3:cad>
          </ns3:TrackPointExtension>
        </extensions>
      </trkpt>
      <trkpt lat="37.77173101902008056640625" lon="-107.7056249789893627166748046875">
        <ele>3893.60009765625</ele>
        <time>2023-07-29T14:49:42.000Z</time>
        <extensions>
          <ns3:TrackPointExtension>
            <ns3:hr>110</ns3:hr>
            <ns3:cad>0</ns3:cad>
          </ns3:TrackPointExtension>
        </extensions>
      </trkpt>
      <trkpt lat="37.771729342639446258544921875" lon="-107.70562422461807727813720703125">
        <ele>3893.800048828125</ele>
        <time>2023-07-29T14:49:43.000Z</time>
        <extensions>
          <ns3:TrackPointExtension>
            <ns3:hr>111</ns3:hr>
            <ns3:cad>0</ns3:cad>
          </ns3:TrackPointExtension>
        </extensions>
      </trkpt>
      <trkpt lat="37.77172691188752651214599609375" lon="-107.7056176029145717620849609375">
        <ele>3894</ele>
        <time>2023-07-29T14:49:44.000Z</time>
        <extensions>
          <ns3:TrackPointExtension>
            <ns3:hr>112</ns3:hr>
            <ns3:cad>0</ns3:cad>
          </ns3:TrackPointExtension>
        </extensions>
      </trkpt>
      <trkpt lat="37.7717241458594799041748046875" lon="-107.7056112326681613922119140625">
        <ele>3894.199951171875</ele>
        <time>2023-07-29T14:49:45.000Z</time>
        <extensions>
          <ns3:TrackPointExtension>
            <ns3:hr>113</ns3:hr>
            <ns3:cad>0</ns3:cad>
          </ns3:TrackPointExtension>
        </extensions>
      </trkpt>
      <trkpt lat="37.77172096073627471923828125" lon="-107.70560125820338726043701171875">
        <ele>3894.199951171875</ele>
        <time>2023-07-29T14:49:46.000Z</time>
        <extensions>
          <ns3:TrackPointExtension>
            <ns3:hr>113</ns3:hr>
            <ns3:cad>0</ns3:cad>
          </ns3:TrackPointExtension>
        </extensions>
      </trkpt>
      <trkpt lat="37.77172054164111614227294921875" lon="-107.7055954746901988983154296875">
        <ele>3894.39990234375</ele>
        <time>2023-07-29T14:49:47.000Z</time>
        <extensions>
          <ns3:TrackPointExtension>
            <ns3:hr>114</ns3:hr>
            <ns3:cad>0</ns3:cad>
          </ns3:TrackPointExtension>
        </extensions>
      </trkpt>
      <trkpt lat="37.771717943251132965087890625" lon="-107.7055914513766765594482421875">
        <ele>3894.39990234375</ele>
        <time>2023-07-29T14:49:48.000Z</time>
        <extensions>
          <ns3:TrackPointExtension>
            <ns3:hr>115</ns3:hr>
            <ns3:cad>0</ns3:cad>
          </ns3:TrackPointExtension>
        </extensions>
      </trkpt>
      <trkpt lat="37.77171534486114978790283203125" lon="-107.70558826625347137451171875">
        <ele>3894.60009765625</ele>
        <time>2023-07-29T14:49:49.000Z</time>
        <extensions>
          <ns3:TrackPointExtension>
            <ns3:hr>115</ns3:hr>
            <ns3:cad>0</ns3:cad>
          </ns3:TrackPointExtension>
        </extensions>
      </trkpt>
      <trkpt lat="37.77171232737600803375244140625" lon="-107.7055803872644901275634765625">
        <ele>3894.800048828125</ele>
        <time>2023-07-29T14:49:50.000Z</time>
        <extensions>
          <ns3:TrackPointExtension>
            <ns3:hr>115</ns3:hr>
            <ns3:cad>0</ns3:cad>
          </ns3:TrackPointExtension>
        </extensions>
      </trkpt>
      <trkpt lat="37.77170830406248569488525390625" lon="-107.70557192154228687286376953125">
        <ele>3894.800048828125</ele>
        <time>2023-07-29T14:49:51.000Z</time>
        <extensions>
          <ns3:TrackPointExtension>
            <ns3:hr>115</ns3:hr>
            <ns3:cad>0</ns3:cad>
          </ns3:TrackPointExtension>
        </extensions>
      </trkpt>
      <trkpt lat="37.77170595712959766387939453125" lon="-107.70556689240038394927978515625">
        <ele>3894.800048828125</ele>
        <time>2023-07-29T14:49:52.000Z</time>
        <extensions>
          <ns3:TrackPointExtension>
            <ns3:hr>115</ns3:hr>
            <ns3:cad>0</ns3:cad>
          </ns3:TrackPointExtension>
        </extensions>
      </trkpt>
      <trkpt lat="37.77170361019670963287353515625" lon="-107.70556186325848102569580078125">
        <ele>3894.800048828125</ele>
        <time>2023-07-29T14:49:53.000Z</time>
        <extensions>
          <ns3:TrackPointExtension>
            <ns3:hr>115</ns3:hr>
            <ns3:cad>0</ns3:cad>
          </ns3:TrackPointExtension>
        </extensions>
      </trkpt>
      <trkpt lat="37.77170578949153423309326171875" lon="-107.7055629529058933258056640625">
        <ele>3894.800048828125</ele>
        <time>2023-07-29T14:49:54.000Z</time>
        <extensions>
          <ns3:TrackPointExtension>
            <ns3:hr>115</ns3:hr>
            <ns3:cad>0</ns3:cad>
          </ns3:TrackPointExtension>
        </extensions>
      </trkpt>
      <trkpt lat="37.771710567176342010498046875" lon="-107.70556672476232051849365234375">
        <ele>3894.800048828125</ele>
        <time>2023-07-29T14:49:55.000Z</time>
        <extensions>
          <ns3:TrackPointExtension>
            <ns3:hr>115</ns3:hr>
            <ns3:cad>0</ns3:cad>
          </ns3:TrackPointExtension>
        </extensions>
      </trkpt>
      <trkpt lat="37.77171651832759380340576171875" lon="-107.705569155514240264892578125">
        <ele>3894.800048828125</ele>
        <time>2023-07-29T14:49:56.000Z</time>
        <extensions>
          <ns3:TrackPointExtension>
            <ns3:hr>115</ns3:hr>
            <ns3:cad>0</ns3:cad>
          </ns3:TrackPointExtension>
        </extensions>
      </trkpt>
      <trkpt lat="37.7717221342027187347412109375" lon="-107.70556689240038394927978515625">
        <ele>3894.800048828125</ele>
        <time>2023-07-29T14:49:57.000Z</time>
        <extensions>
          <ns3:TrackPointExtension>
            <ns3:hr>115</ns3:hr>
            <ns3:cad>0</ns3:cad>
          </ns3:TrackPointExtension>
        </extensions>
      </trkpt>
      <trkpt lat="37.77173009701073169708251953125" lon="-107.70557259209454059600830078125">
        <ele>3894.800048828125</ele>
        <time>2023-07-29T14:49:58.000Z</time>
        <extensions>
          <ns3:TrackPointExtension>
            <ns3:hr>115</ns3:hr>
            <ns3:cad>0</ns3:cad>
          </ns3:TrackPointExtension>
        </extensions>
      </trkpt>
      <trkpt lat="37.77174015529453754425048828125" lon="-107.70557778887450695037841796875">
        <ele>3894.800048828125</ele>
        <time>2023-07-29T14:49:59.000Z</time>
        <extensions>
          <ns3:TrackPointExtension>
            <ns3:hr>114</ns3:hr>
            <ns3:cad>0</ns3:cad>
          </ns3:TrackPointExtension>
        </extensions>
      </trkpt>
      <trkpt lat="37.771744765341281890869140625" lon="-107.7055803872644901275634765625">
        <ele>3894.800048828125</ele>
        <time>2023-07-29T14:50:00.000Z</time>
        <extensions>
          <ns3:TrackPointExtension>
            <ns3:hr>114</ns3:hr>
            <ns3:cad>0</ns3:cad>
          </ns3:TrackPointExtension>
        </extensions>
      </trkpt>
      <trkpt lat="37.7717432565987110137939453125" lon="-107.70558332093060016632080078125">
        <ele>3894.60009765625</ele>
        <time>2023-07-29T14:50:01.000Z</time>
        <extensions>
          <ns3:TrackPointExtension>
            <ns3:hr>114</ns3:hr>
            <ns3:cad>0</ns3:cad>
          </ns3:TrackPointExtension>
        </extensions>
      </trkpt>
      <trkpt lat="37.7717372216284275054931640625" lon="-107.705581225454807281494140625">
        <ele>3894.60009765625</ele>
        <time>2023-07-29T14:50:02.000Z</time>
        <extensions>
          <ns3:TrackPointExtension>
            <ns3:hr>113</ns3:hr>
            <ns3:cad>0</ns3:cad>
          </ns3:TrackPointExtension>
        </extensions>
      </trkpt>
      <trkpt lat="37.7717338688671588897705078125" lon="-107.7055790461599826812744140625">
        <ele>3894.60009765625</ele>
        <time>2023-07-29T14:50:03.000Z</time>
        <extensions>
          <ns3:TrackPointExtension>
            <ns3:hr>113</ns3:hr>
            <ns3:cad>0</ns3:cad>
          </ns3:TrackPointExtension>
        </extensions>
      </trkpt>
      <trkpt lat="37.77173143811523914337158203125" lon="-107.70557644776999950408935546875">
        <ele>3894.60009765625</ele>
        <time>2023-07-29T14:50:04.000Z</time>
        <extensions>
          <ns3:TrackPointExtension>
            <ns3:hr>112</ns3:hr>
            <ns3:cad>0</ns3:cad>
          </ns3:TrackPointExtension>
        </extensions>
      </trkpt>
      <trkpt lat="37.77172791771590709686279296875" lon="-107.70557326264679431915283203125">
        <ele>3894.60009765625</ele>
        <time>2023-07-29T14:50:05.000Z</time>
        <extensions>
          <ns3:TrackPointExtension>
            <ns3:hr>112</ns3:hr>
            <ns3:cad>0</ns3:cad>
          </ns3:TrackPointExtension>
        </extensions>
      </trkpt>
      <trkpt lat="37.77172087691724300384521484375" lon="-107.7055696584284305572509765625">
        <ele>3894.60009765625</ele>
        <time>2023-07-29T14:50:06.000Z</time>
        <extensions>
          <ns3:TrackPointExtension>
            <ns3:hr>111</ns3:hr>
            <ns3:cad>0</ns3:cad>
          </ns3:TrackPointExtension>
        </extensions>
      </trkpt>
      <trkpt lat="37.77171065099537372589111328125" lon="-107.7055622823536396026611328125">
        <ele>3894.39990234375</ele>
        <time>2023-07-29T14:50:07.000Z</time>
        <extensions>
          <ns3:TrackPointExtension>
            <ns3:hr>110</ns3:hr>
            <ns3:cad>0</ns3:cad>
          </ns3:TrackPointExtension>
        </extensions>
      </trkpt>
      <trkpt lat="37.7717033587396144866943359375" lon="-107.705559097230434417724609375">
        <ele>3894.39990234375</ele>
        <time>2023-07-29T14:50:08.000Z</time>
        <extensions>
          <ns3:TrackPointExtension>
            <ns3:hr>110</ns3:hr>
            <ns3:cad>0</ns3:cad>
          </ns3:TrackPointExtension>
        </extensions>
      </trkpt>
      <trkpt lat="37.7717050351202487945556640625" lon="-107.705561108887195587158203125">
        <ele>3894.39990234375</ele>
        <time>2023-07-29T14:50:09.000Z</time>
        <extensions>
          <ns3:TrackPointExtension>
            <ns3:hr>110</ns3:hr>
            <ns3:cad>0</ns3:cad>
          </ns3:TrackPointExtension>
        </extensions>
      </trkpt>
      <trkpt lat="37.7717026881873607635498046875" lon="-107.705562114715576171875">
        <ele>3894.39990234375</ele>
        <time>2023-07-29T14:50:10.000Z</time>
        <extensions>
          <ns3:TrackPointExtension>
            <ns3:hr>110</ns3:hr>
            <ns3:cad>0</ns3:cad>
          </ns3:TrackPointExtension>
        </extensions>
      </trkpt>
      <trkpt lat="37.77170126326382160186767578125" lon="-107.70556546747684478759765625">
        <ele>3894.39990234375</ele>
        <time>2023-07-29T14:50:11.000Z</time>
        <extensions>
          <ns3:TrackPointExtension>
            <ns3:hr>109</ns3:hr>
            <ns3:cad>0</ns3:cad>
          </ns3:TrackPointExtension>
        </extensions>
      </trkpt>
      <trkpt lat="37.7716966532170772552490234375" lon="-107.7055652998387813568115234375">
        <ele>3894.39990234375</ele>
        <time>2023-07-29T14:50:12.000Z</time>
        <extensions>
          <ns3:TrackPointExtension>
            <ns3:hr>108</ns3:hr>
            <ns3:cad>0</ns3:cad>
          </ns3:TrackPointExtension>
        </extensions>
      </trkpt>
      <trkpt lat="37.771695144474506378173828125" lon="-107.70556840114295482635498046875">
        <ele>3894.199951171875</ele>
        <time>2023-07-29T14:50:13.000Z</time>
        <extensions>
          <ns3:TrackPointExtension>
            <ns3:hr>106</ns3:hr>
            <ns3:cad>0</ns3:cad>
          </ns3:TrackPointExtension>
        </extensions>
      </trkpt>
      <trkpt lat="37.7716929651796817779541015625" lon="-107.70556990988552570343017578125">
        <ele>3894.199951171875</ele>
        <time>2023-07-29T14:50:14.000Z</time>
        <extensions>
          <ns3:TrackPointExtension>
            <ns3:hr>106</ns3:hr>
            <ns3:cad>0</ns3:cad>
          </ns3:TrackPointExtension>
        </extensions>
      </trkpt>
      <trkpt lat="37.7716919593513011932373046875" lon="-107.70557041279971599578857421875">
        <ele>3894.199951171875</ele>
        <time>2023-07-29T14:50:15.000Z</time>
        <extensions>
          <ns3:TrackPointExtension>
            <ns3:hr>105</ns3:hr>
            <ns3:cad>0</ns3:cad>
          </ns3:TrackPointExtension>
        </extensions>
      </trkpt>
      <trkpt lat="37.77169187553226947784423828125" lon="-107.70556940697133541107177734375">
        <ele>3894.199951171875</ele>
        <time>2023-07-29T14:50:16.000Z</time>
        <extensions>
          <ns3:TrackPointExtension>
            <ns3:hr>105</ns3:hr>
            <ns3:cad>0</ns3:cad>
          </ns3:TrackPointExtension>
        </extensions>
      </trkpt>
      <trkpt lat="37.77169204317033290863037109375" lon="-107.70557083189487457275390625">
        <ele>3894.39990234375</ele>
        <time>2023-07-29T14:50:17.000Z</time>
        <extensions>
          <ns3:TrackPointExtension>
            <ns3:hr>105</ns3:hr>
            <ns3:cad>0</ns3:cad>
          </ns3:TrackPointExtension>
        </extensions>
      </trkpt>
      <trkpt lat="37.7716936357319355010986328125" lon="-107.7055713348090648651123046875">
        <ele>3894.39990234375</ele>
        <time>2023-07-29T14:50:18.000Z</time>
        <extensions>
          <ns3:TrackPointExtension>
            <ns3:hr>105</ns3:hr>
            <ns3:cad>0</ns3:cad>
          </ns3:TrackPointExtension>
        </extensions>
      </trkpt>
      <trkpt lat="37.77169355191290378570556640625" lon="-107.7055661380290985107421875">
        <ele>3894.39990234375</ele>
        <time>2023-07-29T14:50:19.000Z</time>
        <extensions>
          <ns3:TrackPointExtension>
            <ns3:hr>104</ns3:hr>
            <ns3:cad>0</ns3:cad>
          </ns3:TrackPointExtension>
        </extensions>
      </trkpt>
      <trkpt lat="37.77169170789420604705810546875" lon="-107.70556454546749591827392578125">
        <ele>3894.39990234375</ele>
        <time>2023-07-29T14:50:20.000Z</time>
        <extensions>
          <ns3:TrackPointExtension>
            <ns3:hr>104</ns3:hr>
            <ns3:cad>0</ns3:cad>
          </ns3:TrackPointExtension>
        </extensions>
      </trkpt>
      <trkpt lat="37.77169154025614261627197265625" lon="-107.70556605421006679534912109375">
        <ele>3894.39990234375</ele>
        <time>2023-07-29T14:50:21.000Z</time>
        <extensions>
          <ns3:TrackPointExtension>
            <ns3:hr>104</ns3:hr>
            <ns3:cad>0</ns3:cad>
          </ns3:TrackPointExtension>
        </extensions>
      </trkpt>
      <trkpt lat="37.77168801985681056976318359375" lon="-107.70556840114295482635498046875">
        <ele>3894.39990234375</ele>
        <time>2023-07-29T14:50:22.000Z</time>
        <extensions>
          <ns3:TrackPointExtension>
            <ns3:hr>103</ns3:hr>
            <ns3:cad>0</ns3:cad>
          </ns3:TrackPointExtension>
        </extensions>
      </trkpt>
      <trkpt lat="37.7716865949332714080810546875" lon="-107.70556856878101825714111328125">
        <ele>3894.39990234375</ele>
        <time>2023-07-29T14:50:23.000Z</time>
        <extensions>
          <ns3:TrackPointExtension>
            <ns3:hr>102</ns3:hr>
            <ns3:cad>0</ns3:cad>
          </ns3:TrackPointExtension>
        </extensions>
      </trkpt>
      <trkpt lat="37.77168433181941509246826171875" lon="-107.7055673114955425262451171875">
        <ele>3894.39990234375</ele>
        <time>2023-07-29T14:50:24.000Z</time>
        <extensions>
          <ns3:TrackPointExtension>
            <ns3:hr>102</ns3:hr>
            <ns3:cad>0</ns3:cad>
          </ns3:TrackPointExtension>
        </extensions>
      </trkpt>
      <trkpt lat="37.7716852538287639617919921875" lon="-107.70557242445647716522216796875">
        <ele>3894.39990234375</ele>
        <time>2023-07-29T14:50:25.000Z</time>
        <extensions>
          <ns3:TrackPointExtension>
            <ns3:hr>101</ns3:hr>
            <ns3:cad>0</ns3:cad>
          </ns3:TrackPointExtension>
        </extensions>
      </trkpt>
      <trkpt lat="37.771687768399715423583984375" lon="-107.705573849380016326904296875">
        <ele>3894.39990234375</ele>
        <time>2023-07-29T14:50:26.000Z</time>
        <extensions>
          <ns3:TrackPointExtension>
            <ns3:hr>101</ns3:hr>
            <ns3:cad>0</ns3:cad>
          </ns3:TrackPointExtension>
        </extensions>
      </trkpt>
      <trkpt lat="37.77168801985681056976318359375" lon="-107.7055756933987140655517578125">
        <ele>3894.199951171875</ele>
        <time>2023-07-29T14:50:27.000Z</time>
        <extensions>
          <ns3:TrackPointExtension>
            <ns3:hr>100</ns3:hr>
            <ns3:cad>0</ns3:cad>
          </ns3:TrackPointExtension>
        </extensions>
      </trkpt>
      <trkpt lat="37.7716899476945400238037109375" lon="-107.705575861036777496337890625">
        <ele>3894.199951171875</ele>
        <time>2023-07-29T14:50:28.000Z</time>
        <extensions>
          <ns3:TrackPointExtension>
            <ns3:hr>99</ns3:hr>
            <ns3:cad>0</ns3:cad>
          </ns3:TrackPointExtension>
        </extensions>
      </trkpt>
      <trkpt lat="37.7716921269893646240234375" lon="-107.70557619631290435791015625">
        <ele>3894.199951171875</ele>
        <time>2023-07-29T14:50:29.000Z</time>
        <extensions>
          <ns3:TrackPointExtension>
            <ns3:hr>98</ns3:hr>
            <ns3:cad>0</ns3:cad>
          </ns3:TrackPointExtension>
        </extensions>
      </trkpt>
      <trkpt lat="37.77168869040906429290771484375" lon="-107.70558231510221958160400390625">
        <ele>3894.199951171875</ele>
        <time>2023-07-29T14:50:30.000Z</time>
        <extensions>
          <ns3:TrackPointExtension>
            <ns3:hr>95</ns3:hr>
            <ns3:cad>0</ns3:cad>
          </ns3:TrackPointExtension>
        </extensions>
      </trkpt>
      <trkpt lat="37.77168902568519115447998046875" lon="-107.7055907808244228363037109375">
        <ele>3894.199951171875</ele>
        <time>2023-07-29T14:50:31.000Z</time>
        <extensions>
          <ns3:TrackPointExtension>
            <ns3:hr>94</ns3:hr>
            <ns3:cad>0</ns3:cad>
          </ns3:TrackPointExtension>
        </extensions>
      </trkpt>
      <trkpt lat="37.77168801985681056976318359375" lon="-107.70559337921440601348876953125">
        <ele>3894.199951171875</ele>
        <time>2023-07-29T14:50:32.000Z</time>
        <extensions>
          <ns3:TrackPointExtension>
            <ns3:hr>93</ns3:hr>
            <ns3:cad>0</ns3:cad>
          </ns3:TrackPointExtension>
        </extensions>
      </trkpt>
      <trkpt lat="37.7716835774481296539306640625" lon="-107.705595307052135467529296875">
        <ele>3894.199951171875</ele>
        <time>2023-07-29T14:50:33.000Z</time>
        <extensions>
          <ns3:TrackPointExtension>
            <ns3:hr>93</ns3:hr>
            <ns3:cad>0</ns3:cad>
          </ns3:TrackPointExtension>
        </extensions>
      </trkpt>
      <trkpt lat="37.77168081142008304595947265625" lon="-107.705596648156642913818359375">
        <ele>3894.199951171875</ele>
        <time>2023-07-29T14:50:34.000Z</time>
        <extensions>
          <ns3:TrackPointExtension>
            <ns3:hr>93</ns3:hr>
            <ns3:cad>0</ns3:cad>
          </ns3:TrackPointExtension>
        </extensions>
      </trkpt>
      <trkpt lat="37.771679051220417022705078125" lon="-107.70559723488986492156982421875">
        <ele>3894.199951171875</ele>
        <time>2023-07-29T14:50:35.000Z</time>
        <extensions>
          <ns3:TrackPointExtension>
            <ns3:hr>93</ns3:hr>
            <ns3:cad>0</ns3:cad>
          </ns3:TrackPointExtension>
        </extensions>
      </trkpt>
      <trkpt lat="37.77168148197233676910400390625" lon="-107.70559740252792835235595703125">
        <ele>3894</ele>
        <time>2023-07-29T14:50:36.000Z</time>
        <extensions>
          <ns3:TrackPointExtension>
            <ns3:hr>93</ns3:hr>
            <ns3:cad>0</ns3:cad>
          </ns3:TrackPointExtension>
        </extensions>
      </trkpt>
      <trkpt lat="37.77168517000973224639892578125" lon="-107.70559522323310375213623046875">
        <ele>3894</ele>
        <time>2023-07-29T14:50:37.000Z</time>
        <extensions>
          <ns3:TrackPointExtension>
            <ns3:hr>93</ns3:hr>
            <ns3:cad>0</ns3:cad>
          </ns3:TrackPointExtension>
        </extensions>
      </trkpt>
      <trkpt lat="37.77168433181941509246826171875" lon="-107.7055894397199153900146484375">
        <ele>3894</ele>
        <time>2023-07-29T14:50:38.000Z</time>
        <extensions>
          <ns3:TrackPointExtension>
            <ns3:hr>93</ns3:hr>
            <ns3:cad>0</ns3:cad>
          </ns3:TrackPointExtension>
        </extensions>
      </trkpt>
      <trkpt lat="37.77168768458068370819091796875" lon="-107.7055823989212512969970703125">
        <ele>3894</ele>
        <time>2023-07-29T14:50:39.000Z</time>
        <extensions>
          <ns3:TrackPointExtension>
            <ns3:hr>93</ns3:hr>
            <ns3:cad>0</ns3:cad>
          </ns3:TrackPointExtension>
        </extensions>
      </trkpt>
      <trkpt lat="37.77169237844645977020263671875" lon="-107.70557083189487457275390625">
        <ele>3893.800048828125</ele>
        <time>2023-07-29T14:50:40.000Z</time>
        <extensions>
          <ns3:TrackPointExtension>
            <ns3:hr>91</ns3:hr>
            <ns3:cad>0</ns3:cad>
          </ns3:TrackPointExtension>
        </extensions>
      </trkpt>
      <trkpt lat="37.7716894447803497314453125" lon="-107.70555515773594379425048828125">
        <ele>3893.800048828125</ele>
        <time>2023-07-29T14:50:41.000Z</time>
        <extensions>
          <ns3:TrackPointExtension>
            <ns3:hr>89</ns3:hr>
            <ns3:cad>0</ns3:cad>
          </ns3:TrackPointExtension>
        </extensions>
      </trkpt>
      <trkpt lat="37.77168701402842998504638671875" lon="-107.70554040558636188507080078125">
        <ele>3894</ele>
        <time>2023-07-29T14:50:42.000Z</time>
        <extensions>
          <ns3:TrackPointExtension>
            <ns3:hr>88</ns3:hr>
            <ns3:cad>0</ns3:cad>
          </ns3:TrackPointExtension>
        </extensions>
      </trkpt>
      <trkpt lat="37.771687768399715423583984375" lon="-107.705519534647464752197265625">
        <ele>3894.199951171875</ele>
        <time>2023-07-29T14:50:43.000Z</time>
        <extensions>
          <ns3:TrackPointExtension>
            <ns3:hr>87</ns3:hr>
            <ns3:cad>0</ns3:cad>
          </ns3:TrackPointExtension>
        </extensions>
      </trkpt>
      <trkpt lat="37.7716879360377788543701171875" lon="-107.70551006309688091278076171875">
        <ele>3894.39990234375</ele>
        <time>2023-07-29T14:50:44.000Z</time>
        <extensions>
          <ns3:TrackPointExtension>
            <ns3:hr>87</ns3:hr>
            <ns3:cad>0</ns3:cad>
          </ns3:TrackPointExtension>
        </extensions>
      </trkpt>
      <trkpt lat="37.77168768458068370819091796875" lon="-107.7054938860237598419189453125">
        <ele>3894.60009765625</ele>
        <time>2023-07-29T14:50:45.000Z</time>
        <extensions>
          <ns3:TrackPointExtension>
            <ns3:hr>87</ns3:hr>
            <ns3:cad>0</ns3:cad>
          </ns3:TrackPointExtension>
        </extensions>
      </trkpt>
      <trkpt lat="37.77169170789420604705810546875" lon="-107.70548508502542972564697265625">
        <ele>3894.60009765625</ele>
        <time>2023-07-29T14:50:46.000Z</time>
        <extensions>
          <ns3:TrackPointExtension>
            <ns3:hr>87</ns3:hr>
            <ns3:cad>0</ns3:cad>
          </ns3:TrackPointExtension>
        </extensions>
      </trkpt>
      <trkpt lat="37.7716889418661594390869140625" lon="-107.705470584332942962646484375">
        <ele>3894.800048828125</ele>
        <time>2023-07-29T14:50:47.000Z</time>
        <extensions>
          <ns3:TrackPointExtension>
            <ns3:hr>87</ns3:hr>
            <ns3:cad>0</ns3:cad>
          </ns3:TrackPointExtension>
        </extensions>
      </trkpt>
      <trkpt lat="37.77168751694262027740478515625" lon="-107.70545625127851963043212890625">
        <ele>3894.800048828125</ele>
        <time>2023-07-29T14:50:48.000Z</time>
        <extensions>
          <ns3:TrackPointExtension>
            <ns3:hr>87</ns3:hr>
            <ns3:cad>0</ns3:cad>
          </ns3:TrackPointExtension>
        </extensions>
      </trkpt>
      <trkpt lat="37.77168466709554195404052734375" lon="-107.70543697290122509002685546875">
        <ele>3894.800048828125</ele>
        <time>2023-07-29T14:50:49.000Z</time>
        <extensions>
          <ns3:TrackPointExtension>
            <ns3:hr>87</ns3:hr>
            <ns3:cad>0</ns3:cad>
          </ns3:TrackPointExtension>
        </extensions>
      </trkpt>
      <trkpt lat="37.7716815657913684844970703125" lon="-107.70542104728519916534423828125">
        <ele>3895</ele>
        <time>2023-07-29T14:50:50.000Z</time>
        <extensions>
          <ns3:TrackPointExtension>
            <ns3:hr>88</ns3:hr>
            <ns3:cad>0</ns3:cad>
          </ns3:TrackPointExtension>
        </extensions>
      </trkpt>
      <trkpt lat="37.7716825716197490692138671875" lon="-107.70541124045848846435546875">
        <ele>3895.199951171875</ele>
        <time>2023-07-29T14:50:51.000Z</time>
        <extensions>
          <ns3:TrackPointExtension>
            <ns3:hr>88</ns3:hr>
            <ns3:cad>0</ns3:cad>
          </ns3:TrackPointExtension>
        </extensions>
      </trkpt>
      <trkpt lat="37.7716782130300998687744140625" lon="-107.70539573393762111663818359375">
        <ele>3895.199951171875</ele>
        <time>2023-07-29T14:50:52.000Z</time>
        <extensions>
          <ns3:TrackPointExtension>
            <ns3:hr>88</ns3:hr>
            <ns3:cad>0</ns3:cad>
          </ns3:TrackPointExtension>
        </extensions>
      </trkpt>
      <trkpt lat="37.77167628519237041473388671875" lon="-107.70539254881441593170166015625">
        <ele>3895.39990234375</ele>
        <time>2023-07-29T14:50:53.000Z</time>
        <extensions>
          <ns3:TrackPointExtension>
            <ns3:hr>88</ns3:hr>
            <ns3:cad>0</ns3:cad>
          </ns3:TrackPointExtension>
        </extensions>
      </trkpt>
      <trkpt lat="37.77167737483978271484375" lon="-107.7053953148424625396728515625">
        <ele>3895.39990234375</ele>
        <time>2023-07-29T14:50:54.000Z</time>
        <extensions>
          <ns3:TrackPointExtension>
            <ns3:hr>88</ns3:hr>
            <ns3:cad>0</ns3:cad>
          </ns3:TrackPointExtension>
        </extensions>
      </trkpt>
      <trkpt lat="37.7716738544404506683349609375" lon="-107.70538844168186187744140625">
        <ele>3895.60009765625</ele>
        <time>2023-07-29T14:50:55.000Z</time>
        <extensions>
          <ns3:TrackPointExtension>
            <ns3:hr>88</ns3:hr>
            <ns3:cad>0</ns3:cad>
          </ns3:TrackPointExtension>
        </extensions>
      </trkpt>
      <trkpt lat="37.771671004593372344970703125" lon="-107.70538584329187870025634765625">
        <ele>3895.60009765625</ele>
        <time>2023-07-29T14:50:56.000Z</time>
        <extensions>
          <ns3:TrackPointExtension>
            <ns3:hr>88</ns3:hr>
            <ns3:cad>0</ns3:cad>
          </ns3:TrackPointExtension>
        </extensions>
      </trkpt>
      <trkpt lat="37.77166840620338916778564453125" lon="-107.70537796430289745330810546875">
        <ele>3896</ele>
        <time>2023-07-29T14:50:57.000Z</time>
        <extensions>
          <ns3:TrackPointExtension>
            <ns3:hr>88</ns3:hr>
            <ns3:cad>0</ns3:cad>
          </ns3:TrackPointExtension>
        </extensions>
      </trkpt>
      <trkpt lat="37.77166773565113544464111328125" lon="-107.705377042293548583984375">
        <ele>3896.199951171875</ele>
        <time>2023-07-29T14:50:58.000Z</time>
        <extensions>
          <ns3:TrackPointExtension>
            <ns3:hr>89</ns3:hr>
            <ns3:cad>0</ns3:cad>
          </ns3:TrackPointExtension>
        </extensions>
      </trkpt>
      <trkpt lat="37.7716705016791820526123046875" lon="-107.7053768746554851531982421875">
        <ele>3896.199951171875</ele>
        <time>2023-07-29T14:50:59.000Z</time>
        <extensions>
          <ns3:TrackPointExtension>
            <ns3:hr>89</ns3:hr>
            <ns3:cad>0</ns3:cad>
          </ns3:TrackPointExtension>
        </extensions>
      </trkpt>
      <trkpt lat="37.77166991494596004486083984375" lon="-107.705370672047138214111328125">
        <ele>3896.39990234375</ele>
        <time>2023-07-29T14:51:00.000Z</time>
        <extensions>
          <ns3:TrackPointExtension>
            <ns3:hr>93</ns3:hr>
            <ns3:cad>0</ns3:cad>
          </ns3:TrackPointExtension>
        </extensions>
      </trkpt>
      <trkpt lat="37.7716691605746746063232421875" lon="-107.7053627930581569671630859375">
        <ele>3896.60009765625</ele>
        <time>2023-07-29T14:51:01.000Z</time>
        <extensions>
          <ns3:TrackPointExtension>
            <ns3:hr>93</ns3:hr>
            <ns3:cad>0</ns3:cad>
          </ns3:TrackPointExtension>
        </extensions>
      </trkpt>
      <trkpt lat="37.7716678194701671600341796875" lon="-107.70535298623144626617431640625">
        <ele>3897</ele>
        <time>2023-07-29T14:51:02.000Z</time>
        <extensions>
          <ns3:TrackPointExtension>
            <ns3:hr>94</ns3:hr>
            <ns3:cad>0</ns3:cad>
          </ns3:TrackPointExtension>
        </extensions>
      </trkpt>
      <trkpt lat="37.771668992936611175537109375" lon="-107.70534980110824108123779296875">
        <ele>3897</ele>
        <time>2023-07-29T14:51:03.000Z</time>
        <extensions>
          <ns3:TrackPointExtension>
            <ns3:hr>94</ns3:hr>
            <ns3:cad>0</ns3:cad>
          </ns3:TrackPointExtension>
        </extensions>
      </trkpt>
      <trkpt lat="37.77167075313627719879150390625" lon="-107.7053483761847019195556640625">
        <ele>3897</ele>
        <time>2023-07-29T14:51:04.000Z</time>
        <extensions>
          <ns3:TrackPointExtension>
            <ns3:hr>94</ns3:hr>
            <ns3:cad>0</ns3:cad>
          </ns3:TrackPointExtension>
        </extensions>
      </trkpt>
      <trkpt lat="37.7716745249927043914794921875" lon="-107.7053381502628326416015625">
        <ele>3897.199951171875</ele>
        <time>2023-07-29T14:51:05.000Z</time>
        <extensions>
          <ns3:TrackPointExtension>
            <ns3:hr>94</ns3:hr>
            <ns3:cad>0</ns3:cad>
          </ns3:TrackPointExtension>
        </extensions>
      </trkpt>
      <trkpt lat="37.77167561464011669158935546875" lon="-107.70532809197902679443359375">
        <ele>3897.39990234375</ele>
        <time>2023-07-29T14:51:06.000Z</time>
        <extensions>
          <ns3:TrackPointExtension>
            <ns3:hr>94</ns3:hr>
            <ns3:cad>0</ns3:cad>
          </ns3:TrackPointExtension>
        </extensions>
      </trkpt>
      <trkpt lat="37.77167670428752899169921875" lon="-107.70532197318971157073974609375">
        <ele>3897.60009765625</ele>
        <time>2023-07-29T14:51:07.000Z</time>
        <extensions>
          <ns3:TrackPointExtension>
            <ns3:hr>95</ns3:hr>
            <ns3:cad>0</ns3:cad>
          </ns3:TrackPointExtension>
        </extensions>
      </trkpt>
      <trkpt lat="37.7716795541346073150634765625" lon="-107.70531074143946170806884765625">
        <ele>3897.60009765625</ele>
        <time>2023-07-29T14:51:08.000Z</time>
        <extensions>
          <ns3:TrackPointExtension>
            <ns3:hr>95</ns3:hr>
            <ns3:cad>0</ns3:cad>
          </ns3:TrackPointExtension>
        </extensions>
      </trkpt>
      <trkpt lat="37.771680057048797607421875" lon="-107.7053054608404636383056640625">
        <ele>3897.800048828125</ele>
        <time>2023-07-29T14:51:09.000Z</time>
        <extensions>
          <ns3:TrackPointExtension>
            <ns3:hr>95</ns3:hr>
            <ns3:cad>0</ns3:cad>
          </ns3:TrackPointExtension>
        </extensions>
      </trkpt>
      <trkpt lat="37.7716782130300998687744140625" lon="-107.70530487410724163055419921875">
        <ele>3898</ele>
        <time>2023-07-29T14:51:10.000Z</time>
        <extensions>
          <ns3:TrackPointExtension>
            <ns3:hr>95</ns3:hr>
            <ns3:cad>0</ns3:cad>
          </ns3:TrackPointExtension>
        </extensions>
      </trkpt>
      <trkpt lat="37.7716778777539730072021484375" lon="-107.70529925823211669921875">
        <ele>3898.199951171875</ele>
        <time>2023-07-29T14:51:11.000Z</time>
        <extensions>
          <ns3:TrackPointExtension>
            <ns3:hr>96</ns3:hr>
            <ns3:cad>0</ns3:cad>
          </ns3:TrackPointExtension>
        </extensions>
      </trkpt>
      <trkpt lat="37.77167544700205326080322265625" lon="-107.7052873559296131134033203125">
        <ele>3898.39990234375</ele>
        <time>2023-07-29T14:51:12.000Z</time>
        <extensions>
          <ns3:TrackPointExtension>
            <ns3:hr>97</ns3:hr>
            <ns3:cad>0</ns3:cad>
          </ns3:TrackPointExtension>
        </extensions>
      </trkpt>
      <trkpt lat="37.77167343534529209136962890625" lon="-107.70528039894998073577880859375">
        <ele>3898.60009765625</ele>
        <time>2023-07-29T14:51:13.000Z</time>
        <extensions>
          <ns3:TrackPointExtension>
            <ns3:hr>100</ns3:hr>
            <ns3:cad>0</ns3:cad>
          </ns3:TrackPointExtension>
        </extensions>
      </trkpt>
      <trkpt lat="37.7716706693172454833984375" lon="-107.70527235232293605804443359375">
        <ele>3898.800048828125</ele>
        <time>2023-07-29T14:51:14.000Z</time>
        <extensions>
          <ns3:TrackPointExtension>
            <ns3:hr>102</ns3:hr>
            <ns3:cad>44</ns3:cad>
          </ns3:TrackPointExtension>
        </extensions>
      </trkpt>
      <trkpt lat="37.7716678194701671600341796875" lon="-107.705271430313587188720703125">
        <ele>3899.199951171875</ele>
        <time>2023-07-29T14:51:15.000Z</time>
        <extensions>
          <ns3:TrackPointExtension>
            <ns3:hr>103</ns3:hr>
            <ns3:cad>44</ns3:cad>
          </ns3:TrackPointExtension>
        </extensions>
      </trkpt>
      <trkpt lat="37.77166664600372314453125" lon="-107.705270759761333465576171875">
        <ele>3899.199951171875</ele>
        <time>2023-07-29T14:51:16.000Z</time>
        <extensions>
          <ns3:TrackPointExtension>
            <ns3:hr>104</ns3:hr>
            <ns3:cad>0</ns3:cad>
          </ns3:TrackPointExtension>
        </extensions>
      </trkpt>
      <trkpt lat="37.771665640175342559814453125" lon="-107.70526774227619171142578125">
        <ele>3899.199951171875</ele>
        <time>2023-07-29T14:51:17.000Z</time>
        <extensions>
          <ns3:TrackPointExtension>
            <ns3:hr>104</ns3:hr>
            <ns3:cad>0</ns3:cad>
          </ns3:TrackPointExtension>
        </extensions>
      </trkpt>
      <trkpt lat="37.7716681547462940216064453125" lon="-107.7052648924291133880615234375">
        <ele>3899.199951171875</ele>
        <time>2023-07-29T14:51:18.000Z</time>
        <extensions>
          <ns3:TrackPointExtension>
            <ns3:hr>105</ns3:hr>
            <ns3:cad>0</ns3:cad>
          </ns3:TrackPointExtension>
        </extensions>
      </trkpt>
      <trkpt lat="37.771671675145626068115234375" lon="-107.70526296459138393402099609375">
        <ele>3899.199951171875</ele>
        <time>2023-07-29T14:51:19.000Z</time>
        <extensions>
          <ns3:TrackPointExtension>
            <ns3:hr>106</ns3:hr>
            <ns3:cad>0</ns3:cad>
          </ns3:TrackPointExtension>
        </extensions>
      </trkpt>
      <trkpt lat="37.77167494408786296844482421875" lon="-107.7052625454962253570556640625">
        <ele>3899.39990234375</ele>
        <time>2023-07-29T14:51:20.000Z</time>
        <extensions>
          <ns3:TrackPointExtension>
            <ns3:hr>107</ns3:hr>
            <ns3:cad>0</ns3:cad>
          </ns3:TrackPointExtension>
        </extensions>
      </trkpt>
      <trkpt lat="37.771676369011402130126953125" lon="-107.7052605338394641876220703125">
        <ele>3899.39990234375</ele>
        <time>2023-07-29T14:51:21.000Z</time>
        <extensions>
          <ns3:TrackPointExtension>
            <ns3:hr>108</ns3:hr>
            <ns3:cad>0</ns3:cad>
          </ns3:TrackPointExtension>
        </extensions>
      </trkpt>
      <trkpt lat="37.77167930267751216888427734375" lon="-107.70524569787085056304931640625">
        <ele>3899.60009765625</ele>
        <time>2023-07-29T14:51:22.000Z</time>
        <extensions>
          <ns3:TrackPointExtension>
            <ns3:hr>109</ns3:hr>
            <ns3:cad>0</ns3:cad>
          </ns3:TrackPointExtension>
        </extensions>
      </trkpt>
      <trkpt lat="37.77167997322976589202880859375" lon="-107.70523488521575927734375">
        <ele>3899.60009765625</ele>
        <time>2023-07-29T14:51:23.000Z</time>
        <extensions>
          <ns3:TrackPointExtension>
            <ns3:hr>109</ns3:hr>
            <ns3:cad>0</ns3:cad>
          </ns3:TrackPointExtension>
        </extensions>
      </trkpt>
      <trkpt lat="37.77167628519237041473388671875" lon="-107.70521937869489192962646484375">
        <ele>3899.60009765625</ele>
        <time>2023-07-29T14:51:24.000Z</time>
        <extensions>
          <ns3:TrackPointExtension>
            <ns3:hr>109</ns3:hr>
            <ns3:cad>0</ns3:cad>
          </ns3:TrackPointExtension>
        </extensions>
      </trkpt>
      <trkpt lat="37.77167393825948238372802734375" lon="-107.7052038721740245819091796875">
        <ele>3899.60009765625</ele>
        <time>2023-07-29T14:51:25.000Z</time>
        <extensions>
          <ns3:TrackPointExtension>
            <ns3:hr>109</ns3:hr>
            <ns3:cad>0</ns3:cad>
          </ns3:TrackPointExtension>
        </extensions>
      </trkpt>
      <trkpt lat="37.77167410589754581451416015625" lon="-107.70519305951893329620361328125">
        <ele>3900</ele>
        <time>2023-07-29T14:51:26.000Z</time>
        <extensions>
          <ns3:TrackPointExtension>
            <ns3:hr>110</ns3:hr>
            <ns3:cad>0</ns3:cad>
          </ns3:TrackPointExtension>
        </extensions>
      </trkpt>
      <trkpt lat="37.77167393825948238372802734375" lon="-107.7051834203302860260009765625">
        <ele>3900</ele>
        <time>2023-07-29T14:51:27.000Z</time>
        <extensions>
          <ns3:TrackPointExtension>
            <ns3:hr>110</ns3:hr>
            <ns3:cad>0</ns3:cad>
          </ns3:TrackPointExtension>
        </extensions>
      </trkpt>
      <trkpt lat="37.77167326770722866058349609375" lon="-107.7051797322928905487060546875">
        <ele>3900.199951171875</ele>
        <time>2023-07-29T14:51:28.000Z</time>
        <extensions>
          <ns3:TrackPointExtension>
            <ns3:hr>110</ns3:hr>
            <ns3:cad>0</ns3:cad>
          </ns3:TrackPointExtension>
        </extensions>
      </trkpt>
      <trkpt lat="37.77167276479303836822509765625" lon="-107.70517596043646335601806640625">
        <ele>3900.60009765625</ele>
        <time>2023-07-29T14:51:29.000Z</time>
        <extensions>
          <ns3:TrackPointExtension>
            <ns3:hr>110</ns3:hr>
            <ns3:cad>0</ns3:cad>
          </ns3:TrackPointExtension>
        </extensions>
      </trkpt>
      <trkpt lat="37.7716720104217529296875" lon="-107.70516313612461090087890625">
        <ele>3900.60009765625</ele>
        <time>2023-07-29T14:51:30.000Z</time>
        <extensions>
          <ns3:TrackPointExtension>
            <ns3:hr>110</ns3:hr>
            <ns3:cad>0</ns3:cad>
          </ns3:TrackPointExtension>
        </extensions>
      </trkpt>
      <trkpt lat="37.7716718427836894989013671875" lon="-107.70515969954431056976318359375">
        <ele>3900.800048828125</ele>
        <time>2023-07-29T14:51:31.000Z</time>
        <extensions>
          <ns3:TrackPointExtension>
            <ns3:hr>111</ns3:hr>
            <ns3:cad>0</ns3:cad>
          </ns3:TrackPointExtension>
        </extensions>
      </trkpt>
      <trkpt lat="37.77167133986949920654296875" lon="-107.70515165291726589202880859375">
        <ele>3900.800048828125</ele>
        <time>2023-07-29T14:51:32.000Z</time>
        <extensions>
          <ns3:TrackPointExtension>
            <ns3:hr>111</ns3:hr>
            <ns3:cad>0</ns3:cad>
          </ns3:TrackPointExtension>
        </extensions>
      </trkpt>
      <trkpt lat="37.77167209424078464508056640625" lon="-107.7051451988518238067626953125">
        <ele>3901</ele>
        <time>2023-07-29T14:51:33.000Z</time>
        <extensions>
          <ns3:TrackPointExtension>
            <ns3:hr>110</ns3:hr>
            <ns3:cad>0</ns3:cad>
          </ns3:TrackPointExtension>
        </extensions>
      </trkpt>
      <trkpt lat="37.7716725133359432220458984375" lon="-107.7051482163369655609130859375">
        <ele>3901</ele>
        <time>2023-07-29T14:51:34.000Z</time>
        <extensions>
          <ns3:TrackPointExtension>
            <ns3:hr>110</ns3:hr>
            <ns3:cad>0</ns3:cad>
          </ns3:TrackPointExtension>
        </extensions>
      </trkpt>
      <trkpt lat="37.77167477644979953765869140625" lon="-107.70514528267085552215576171875">
        <ele>3901.199951171875</ele>
        <time>2023-07-29T14:51:35.000Z</time>
        <extensions>
          <ns3:TrackPointExtension>
            <ns3:hr>110</ns3:hr>
            <ns3:cad>0</ns3:cad>
          </ns3:TrackPointExtension>
        </extensions>
      </trkpt>
      <trkpt lat="37.771676369011402130126953125" lon="-107.705140672624111175537109375">
        <ele>3901.199951171875</ele>
        <time>2023-07-29T14:51:36.000Z</time>
        <extensions>
          <ns3:TrackPointExtension>
            <ns3:hr>111</ns3:hr>
            <ns3:cad>0</ns3:cad>
          </ns3:TrackPointExtension>
        </extensions>
      </trkpt>
      <trkpt lat="37.77167896740138530731201171875" lon="-107.7051384933292865753173828125">
        <ele>3901.60009765625</ele>
        <time>2023-07-29T14:51:37.000Z</time>
        <extensions>
          <ns3:TrackPointExtension>
            <ns3:hr>111</ns3:hr>
            <ns3:cad>0</ns3:cad>
          </ns3:TrackPointExtension>
        </extensions>
      </trkpt>
      <trkpt lat="37.77167829684913158416748046875" lon="-107.70513639785349369049072265625">
        <ele>3901.60009765625</ele>
        <time>2023-07-29T14:51:38.000Z</time>
        <extensions>
          <ns3:TrackPointExtension>
            <ns3:hr>111</ns3:hr>
            <ns3:cad>0</ns3:cad>
          </ns3:TrackPointExtension>
        </extensions>
      </trkpt>
      <trkpt lat="37.7716787159442901611328125" lon="-107.70513019524514675140380859375">
        <ele>3901.800048828125</ele>
        <time>2023-07-29T14:51:39.000Z</time>
        <extensions>
          <ns3:TrackPointExtension>
            <ns3:hr>111</ns3:hr>
            <ns3:cad>0</ns3:cad>
          </ns3:TrackPointExtension>
        </extensions>
      </trkpt>
      <trkpt lat="37.77167980559170246124267578125" lon="-107.705132961273193359375">
        <ele>3902</ele>
        <time>2023-07-29T14:51:40.000Z</time>
        <extensions>
          <ns3:TrackPointExtension>
            <ns3:hr>111</ns3:hr>
            <ns3:cad>0</ns3:cad>
          </ns3:TrackPointExtension>
        </extensions>
      </trkpt>
      <trkpt lat="37.77168072760105133056640625" lon="-107.70512290298938751220703125">
        <ele>3902.39990234375</ele>
        <time>2023-07-29T14:51:41.000Z</time>
        <extensions>
          <ns3:TrackPointExtension>
            <ns3:hr>111</ns3:hr>
            <ns3:cad>0</ns3:cad>
          </ns3:TrackPointExtension>
        </extensions>
      </trkpt>
      <trkpt lat="37.7716815657913684844970703125" lon="-107.70510806702077388763427734375">
        <ele>3902.39990234375</ele>
        <time>2023-07-29T14:51:42.000Z</time>
        <extensions>
          <ns3:TrackPointExtension>
            <ns3:hr>111</ns3:hr>
            <ns3:cad>0</ns3:cad>
          </ns3:TrackPointExtension>
        </extensions>
      </trkpt>
      <trkpt lat="37.7716835774481296539306640625" lon="-107.7050994336605072021484375">
        <ele>3902.800048828125</ele>
        <time>2023-07-29T14:51:43.000Z</time>
        <extensions>
          <ns3:TrackPointExtension>
            <ns3:hr>112</ns3:hr>
            <ns3:cad>0</ns3:cad>
          </ns3:TrackPointExtension>
        </extensions>
      </trkpt>
      <trkpt lat="37.77168382890522480010986328125" lon="-107.70508560352027416229248046875">
        <ele>3902.800048828125</ele>
        <time>2023-07-29T14:51:44.000Z</time>
        <extensions>
          <ns3:TrackPointExtension>
            <ns3:hr>112</ns3:hr>
            <ns3:cad>0</ns3:cad>
          </ns3:TrackPointExtension>
        </extensions>
      </trkpt>
      <trkpt lat="37.7716855891048908233642578125" lon="-107.70507068373262882232666015625">
        <ele>3903</ele>
        <time>2023-07-29T14:51:45.000Z</time>
        <extensions>
          <ns3:TrackPointExtension>
            <ns3:hr>112</ns3:hr>
            <ns3:cad>0</ns3:cad>
          </ns3:TrackPointExtension>
        </extensions>
      </trkpt>
      <trkpt lat="37.771685086190700531005859375" lon="-107.70506582222878932952880859375">
        <ele>3903.199951171875</ele>
        <time>2023-07-29T14:51:46.000Z</time>
        <extensions>
          <ns3:TrackPointExtension>
            <ns3:hr>113</ns3:hr>
            <ns3:cad>0</ns3:cad>
          </ns3:TrackPointExtension>
        </extensions>
      </trkpt>
      <trkpt lat="37.771683745086193084716796875" lon="-107.70505626685917377471923828125">
        <ele>3903.199951171875</ele>
        <time>2023-07-29T14:51:47.000Z</time>
        <extensions>
          <ns3:TrackPointExtension>
            <ns3:hr>113</ns3:hr>
            <ns3:cad>0</ns3:cad>
          </ns3:TrackPointExtension>
        </extensions>
      </trkpt>
      <trkpt lat="37.7716832421720027923583984375" lon="-107.70505140535533428192138671875">
        <ele>3903.199951171875</ele>
        <time>2023-07-29T14:51:48.000Z</time>
        <extensions>
          <ns3:TrackPointExtension>
            <ns3:hr>113</ns3:hr>
            <ns3:cad>0</ns3:cad>
          </ns3:TrackPointExtension>
        </extensions>
      </trkpt>
      <trkpt lat="37.7716813981533050537109375" lon="-107.70504537038505077362060546875">
        <ele>3903.39990234375</ele>
        <time>2023-07-29T14:51:49.000Z</time>
        <extensions>
          <ns3:TrackPointExtension>
            <ns3:hr>114</ns3:hr>
            <ns3:cad>0</ns3:cad>
          </ns3:TrackPointExtension>
        </extensions>
      </trkpt>
      <trkpt lat="37.77167913503944873809814453125" lon="-107.70503950305283069610595703125">
        <ele>3903.39990234375</ele>
        <time>2023-07-29T14:51:50.000Z</time>
        <extensions>
          <ns3:TrackPointExtension>
            <ns3:hr>114</ns3:hr>
            <ns3:cad>0</ns3:cad>
          </ns3:TrackPointExtension>
        </extensions>
      </trkpt>
      <trkpt lat="37.77167762629687786102294921875" lon="-107.705034054815769195556640625">
        <ele>3903.60009765625</ele>
        <time>2023-07-29T14:51:51.000Z</time>
        <extensions>
          <ns3:TrackPointExtension>
            <ns3:hr>114</ns3:hr>
            <ns3:cad>0</ns3:cad>
          </ns3:TrackPointExtension>
        </extensions>
      </trkpt>
      <trkpt lat="37.77167377062141895294189453125" lon="-107.70502567291259765625">
        <ele>3903.800048828125</ele>
        <time>2023-07-29T14:51:52.000Z</time>
        <extensions>
          <ns3:TrackPointExtension>
            <ns3:hr>114</ns3:hr>
            <ns3:cad>0</ns3:cad>
          </ns3:TrackPointExtension>
        </extensions>
      </trkpt>
      <trkpt lat="37.77167108841240406036376953125" lon="-107.7050270140171051025390625">
        <ele>3904</ele>
        <time>2023-07-29T14:51:53.000Z</time>
        <extensions>
          <ns3:TrackPointExtension>
            <ns3:hr>115</ns3:hr>
            <ns3:cad>0</ns3:cad>
          </ns3:TrackPointExtension>
        </extensions>
      </trkpt>
      <trkpt lat="37.7716648019850254058837890625" lon="-107.7050218172371387481689453125">
        <ele>3904</ele>
        <time>2023-07-29T14:51:54.000Z</time>
        <extensions>
          <ns3:TrackPointExtension>
            <ns3:hr>115</ns3:hr>
            <ns3:cad>0</ns3:cad>
          </ns3:TrackPointExtension>
        </extensions>
      </trkpt>
      <trkpt lat="37.771663963794708251953125" lon="-107.705021314322948455810546875">
        <ele>3904</ele>
        <time>2023-07-29T14:51:55.000Z</time>
        <extensions>
          <ns3:TrackPointExtension>
            <ns3:hr>115</ns3:hr>
            <ns3:cad>0</ns3:cad>
          </ns3:TrackPointExtension>
        </extensions>
      </trkpt>
      <trkpt lat="37.7716631256043910980224609375" lon="-107.7050141058862209320068359375">
        <ele>3904.199951171875</ele>
        <time>2023-07-29T14:51:56.000Z</time>
        <extensions>
          <ns3:TrackPointExtension>
            <ns3:hr>115</ns3:hr>
            <ns3:cad>0</ns3:cad>
          </ns3:TrackPointExtension>
        </extensions>
      </trkpt>
      <trkpt lat="37.771659605205059051513671875" lon="-107.70500815473496913909912109375">
        <ele>3904.199951171875</ele>
        <time>2023-07-29T14:51:57.000Z</time>
        <extensions>
          <ns3:TrackPointExtension>
            <ns3:hr>115</ns3:hr>
            <ns3:cad>0</ns3:cad>
          </ns3:TrackPointExtension>
        </extensions>
      </trkpt>
      <trkpt lat="37.7716597728431224822998046875" lon="-107.70500211976468563079833984375">
        <ele>3904.39990234375</ele>
        <time>2023-07-29T14:51:58.000Z</time>
        <extensions>
          <ns3:TrackPointExtension>
            <ns3:hr>115</ns3:hr>
            <ns3:cad>0</ns3:cad>
          </ns3:TrackPointExtension>
        </extensions>
      </trkpt>
      <trkpt lat="37.77165926992893218994140625" lon="-107.704994492232799530029296875">
        <ele>3904.60009765625</ele>
        <time>2023-07-29T14:51:59.000Z</time>
        <extensions>
          <ns3:TrackPointExtension>
            <ns3:hr>115</ns3:hr>
            <ns3:cad>0</ns3:cad>
          </ns3:TrackPointExtension>
        </extensions>
      </trkpt>
      <trkpt lat="37.771658599376678466796875" lon="-107.70498921163380146026611328125">
        <ele>3904.800048828125</ele>
        <time>2023-07-29T14:52:00.000Z</time>
        <extensions>
          <ns3:TrackPointExtension>
            <ns3:hr>115</ns3:hr>
            <ns3:cad>0</ns3:cad>
          </ns3:TrackPointExtension>
        </extensions>
      </trkpt>
      <trkpt lat="37.771654240787029266357421875" lon="-107.70498854108154773712158203125">
        <ele>3905</ele>
        <time>2023-07-29T14:52:01.000Z</time>
        <extensions>
          <ns3:TrackPointExtension>
            <ns3:hr>116</ns3:hr>
            <ns3:cad>0</ns3:cad>
          </ns3:TrackPointExtension>
        </extensions>
      </trkpt>
      <trkpt lat="37.771651558578014373779296875" lon="-107.704982422292232513427734375">
        <ele>3905.199951171875</ele>
        <time>2023-07-29T14:52:02.000Z</time>
        <extensions>
          <ns3:TrackPointExtension>
            <ns3:hr>116</ns3:hr>
            <ns3:cad>0</ns3:cad>
          </ns3:TrackPointExtension>
        </extensions>
      </trkpt>
      <trkpt lat="37.7716490440070629119873046875" lon="-107.7049720287322998046875">
        <ele>3905.39990234375</ele>
        <time>2023-07-29T14:52:03.000Z</time>
        <extensions>
          <ns3:TrackPointExtension>
            <ns3:hr>115</ns3:hr>
            <ns3:cad>0</ns3:cad>
          </ns3:TrackPointExtension>
        </extensions>
      </trkpt>
      <trkpt lat="37.77164460159838199615478515625" lon="-107.7049604617059230804443359375">
        <ele>3905.60009765625</ele>
        <time>2023-07-29T14:52:04.000Z</time>
        <extensions>
          <ns3:TrackPointExtension>
            <ns3:hr>115</ns3:hr>
            <ns3:cad>0</ns3:cad>
          </ns3:TrackPointExtension>
        </extensions>
      </trkpt>
      <trkpt lat="37.77164359577000141143798828125" lon="-107.704947888851165771484375">
        <ele>3905.60009765625</ele>
        <time>2023-07-29T14:52:05.000Z</time>
        <extensions>
          <ns3:TrackPointExtension>
            <ns3:hr>115</ns3:hr>
            <ns3:cad>0</ns3:cad>
          </ns3:TrackPointExtension>
        </extensions>
      </trkpt>
      <trkpt lat="37.7716426737606525421142578125" lon="-107.70493539981544017791748046875">
        <ele>3905.60009765625</ele>
        <time>2023-07-29T14:52:06.000Z</time>
        <extensions>
          <ns3:TrackPointExtension>
            <ns3:hr>116</ns3:hr>
            <ns3:cad>0</ns3:cad>
          </ns3:TrackPointExtension>
        </extensions>
      </trkpt>
      <trkpt lat="37.77164292521774768829345703125" lon="-107.70492601208388805389404296875">
        <ele>3905.800048828125</ele>
        <time>2023-07-29T14:52:07.000Z</time>
        <extensions>
          <ns3:TrackPointExtension>
            <ns3:hr>116</ns3:hr>
            <ns3:cad>0</ns3:cad>
          </ns3:TrackPointExtension>
        </extensions>
      </trkpt>
      <trkpt lat="37.77164292521774768829345703125" lon="-107.7049131877720355987548828125">
        <ele>3906</ele>
        <time>2023-07-29T14:52:08.000Z</time>
        <extensions>
          <ns3:TrackPointExtension>
            <ns3:hr>116</ns3:hr>
            <ns3:cad>0</ns3:cad>
          </ns3:TrackPointExtension>
        </extensions>
      </trkpt>
      <trkpt lat="37.771642170846462249755859375" lon="-107.7049068175256252288818359375">
        <ele>3906.199951171875</ele>
        <time>2023-07-29T14:52:09.000Z</time>
        <extensions>
          <ns3:TrackPointExtension>
            <ns3:hr>116</ns3:hr>
            <ns3:cad>0</ns3:cad>
          </ns3:TrackPointExtension>
        </extensions>
      </trkpt>
      <trkpt lat="37.771642841398715972900390625" lon="-107.70489851944148540496826171875">
        <ele>3906.199951171875</ele>
        <time>2023-07-29T14:52:10.000Z</time>
        <extensions>
          <ns3:TrackPointExtension>
            <ns3:hr>116</ns3:hr>
            <ns3:cad>0</ns3:cad>
          </ns3:TrackPointExtension>
        </extensions>
      </trkpt>
      <trkpt lat="37.77164208702743053436279296875" lon="-107.70488678477704524993896484375">
        <ele>3906.39990234375</ele>
        <time>2023-07-29T14:52:11.000Z</time>
        <extensions>
          <ns3:TrackPointExtension>
            <ns3:hr>116</ns3:hr>
            <ns3:cad>0</ns3:cad>
          </ns3:TrackPointExtension>
        </extensions>
      </trkpt>
      <trkpt lat="37.77164208702743053436279296875" lon="-107.7048806659877300262451171875">
        <ele>3906.39990234375</ele>
        <time>2023-07-29T14:52:12.000Z</time>
        <extensions>
          <ns3:TrackPointExtension>
            <ns3:hr>116</ns3:hr>
            <ns3:cad>0</ns3:cad>
          </ns3:TrackPointExtension>
        </extensions>
      </trkpt>
      <trkpt lat="37.77164258994162082672119140625" lon="-107.704873122274875640869140625">
        <ele>3906.800048828125</ele>
        <time>2023-07-29T14:52:13.000Z</time>
        <extensions>
          <ns3:TrackPointExtension>
            <ns3:hr>116</ns3:hr>
            <ns3:cad>0</ns3:cad>
          </ns3:TrackPointExtension>
        </extensions>
      </trkpt>
      <trkpt lat="37.771640829741954803466796875" lon="-107.7048585377633571624755859375">
        <ele>3906.800048828125</ele>
        <time>2023-07-29T14:52:14.000Z</time>
        <extensions>
          <ns3:TrackPointExtension>
            <ns3:hr>116</ns3:hr>
            <ns3:cad>0</ns3:cad>
          </ns3:TrackPointExtension>
        </extensions>
      </trkpt>
      <trkpt lat="37.771639488637447357177734375" lon="-107.704842947423458099365234375">
        <ele>3906.800048828125</ele>
        <time>2023-07-29T14:52:15.000Z</time>
        <extensions>
          <ns3:TrackPointExtension>
            <ns3:hr>117</ns3:hr>
            <ns3:cad>0</ns3:cad>
          </ns3:TrackPointExtension>
        </extensions>
      </trkpt>
      <trkpt lat="37.77163781225681304931640625" lon="-107.70483867265284061431884765625">
        <ele>3907.199951171875</ele>
        <time>2023-07-29T14:52:16.000Z</time>
        <extensions>
          <ns3:TrackPointExtension>
            <ns3:hr>117</ns3:hr>
            <ns3:cad>0</ns3:cad>
          </ns3:TrackPointExtension>
        </extensions>
      </trkpt>
      <trkpt lat="37.77163521386682987213134765625" lon="-107.70482911728322505950927734375">
        <ele>3907.199951171875</ele>
        <time>2023-07-29T14:52:17.000Z</time>
        <extensions>
          <ns3:TrackPointExtension>
            <ns3:hr>117</ns3:hr>
            <ns3:cad>0</ns3:cad>
          </ns3:TrackPointExtension>
        </extensions>
      </trkpt>
      <trkpt lat="37.77163219638168811798095703125" lon="-107.7048209868371486663818359375">
        <ele>3907.39990234375</ele>
        <time>2023-07-29T14:52:18.000Z</time>
        <extensions>
          <ns3:TrackPointExtension>
            <ns3:hr>117</ns3:hr>
            <ns3:cad>0</ns3:cad>
          </ns3:TrackPointExtension>
        </extensions>
      </trkpt>
      <trkpt lat="37.7716295979917049407958984375" lon="-107.70481822080910205841064453125">
        <ele>3907.60009765625</ele>
        <time>2023-07-29T14:52:19.000Z</time>
        <extensions>
          <ns3:TrackPointExtension>
            <ns3:hr>117</ns3:hr>
            <ns3:cad>0</ns3:cad>
          </ns3:TrackPointExtension>
        </extensions>
      </trkpt>
      <trkpt lat="37.77162180282175540924072265625" lon="-107.70480816252529621124267578125">
        <ele>3907.60009765625</ele>
        <time>2023-07-29T14:52:20.000Z</time>
        <extensions>
          <ns3:TrackPointExtension>
            <ns3:hr>117</ns3:hr>
            <ns3:cad>0</ns3:cad>
          </ns3:TrackPointExtension>
        </extensions>
      </trkpt>
      <trkpt lat="37.771618030965328216552734375" lon="-107.704803384840488433837890625">
        <ele>3907.800048828125</ele>
        <time>2023-07-29T14:52:21.000Z</time>
        <extensions>
          <ns3:TrackPointExtension>
            <ns3:hr>117</ns3:hr>
            <ns3:cad>0</ns3:cad>
          </ns3:TrackPointExtension>
        </extensions>
      </trkpt>
      <trkpt lat="37.77161560021340847015380859375" lon="-107.704798020422458648681640625">
        <ele>3908.199951171875</ele>
        <time>2023-07-29T14:52:22.000Z</time>
        <extensions>
          <ns3:TrackPointExtension>
            <ns3:hr>117</ns3:hr>
            <ns3:cad>0</ns3:cad>
          </ns3:TrackPointExtension>
        </extensions>
      </trkpt>
      <trkpt lat="37.77161367237567901611328125" lon="-107.70479273982346057891845703125">
        <ele>3908.199951171875</ele>
        <time>2023-07-29T14:52:23.000Z</time>
        <extensions>
          <ns3:TrackPointExtension>
            <ns3:hr>117</ns3:hr>
            <ns3:cad>0</ns3:cad>
          </ns3:TrackPointExtension>
        </extensions>
      </trkpt>
      <trkpt lat="37.77161442674696445465087890625" lon="-107.70479500293731689453125">
        <ele>3908.39990234375</ele>
        <time>2023-07-29T14:52:24.000Z</time>
        <extensions>
          <ns3:TrackPointExtension>
            <ns3:hr>117</ns3:hr>
            <ns3:cad>0</ns3:cad>
          </ns3:TrackPointExtension>
        </extensions>
      </trkpt>
      <trkpt lat="37.77161677367985248565673828125" lon="-107.70479206927120685577392578125">
        <ele>3908.60009765625</ele>
        <time>2023-07-29T14:52:25.000Z</time>
        <extensions>
          <ns3:TrackPointExtension>
            <ns3:hr>117</ns3:hr>
            <ns3:cad>0</ns3:cad>
          </ns3:TrackPointExtension>
        </extensions>
      </trkpt>
      <trkpt lat="37.7716161869466304779052734375" lon="-107.70479106344282627105712890625">
        <ele>3908.800048828125</ele>
        <time>2023-07-29T14:52:26.000Z</time>
        <extensions>
          <ns3:TrackPointExtension>
            <ns3:hr>117</ns3:hr>
            <ns3:cad>0</ns3:cad>
          </ns3:TrackPointExtension>
        </extensions>
      </trkpt>
      <trkpt lat="37.7716138400137424468994140625" lon="-107.70478251390159130096435546875">
        <ele>3908.800048828125</ele>
        <time>2023-07-29T14:52:27.000Z</time>
        <extensions>
          <ns3:TrackPointExtension>
            <ns3:hr>118</ns3:hr>
            <ns3:cad>0</ns3:cad>
          </ns3:TrackPointExtension>
        </extensions>
      </trkpt>
      <trkpt lat="37.77161124162375926971435546875" lon="-107.70477396436035633087158203125">
        <ele>3909.199951171875</ele>
        <time>2023-07-29T14:52:28.000Z</time>
        <extensions>
          <ns3:TrackPointExtension>
            <ns3:hr>118</ns3:hr>
            <ns3:cad>0</ns3:cad>
          </ns3:TrackPointExtension>
        </extensions>
      </trkpt>
      <trkpt lat="37.771605961024761199951171875" lon="-107.70476348698139190673828125">
        <ele>3909.199951171875</ele>
        <time>2023-07-29T14:52:29.000Z</time>
        <extensions>
          <ns3:TrackPointExtension>
            <ns3:hr>118</ns3:hr>
            <ns3:cad>0</ns3:cad>
          </ns3:TrackPointExtension>
        </extensions>
      </trkpt>
      <trkpt lat="37.7716051228344440460205078125" lon="-107.704757787287235260009765625">
        <ele>3909.39990234375</ele>
        <time>2023-07-29T14:52:30.000Z</time>
        <extensions>
          <ns3:TrackPointExtension>
            <ns3:hr>119</ns3:hr>
            <ns3:cad>0</ns3:cad>
          </ns3:TrackPointExtension>
        </extensions>
      </trkpt>
      <trkpt lat="37.77160487137734889984130859375" lon="-107.70475250668823719024658203125">
        <ele>3909.39990234375</ele>
        <time>2023-07-29T14:52:31.000Z</time>
        <extensions>
          <ns3:TrackPointExtension>
            <ns3:hr>119</ns3:hr>
            <ns3:cad>0</ns3:cad>
          </ns3:TrackPointExtension>
        </extensions>
      </trkpt>
      <trkpt lat="37.7716034464538097381591796875" lon="-107.70475250668823719024658203125">
        <ele>3909.60009765625</ele>
        <time>2023-07-29T14:52:32.000Z</time>
        <extensions>
          <ns3:TrackPointExtension>
            <ns3:hr>119</ns3:hr>
            <ns3:cad>0</ns3:cad>
          </ns3:TrackPointExtension>
        </extensions>
      </trkpt>
      <trkpt lat="37.77160235680639743804931640625" lon="-107.70474948920309543609619140625">
        <ele>3909.800048828125</ele>
        <time>2023-07-29T14:52:33.000Z</time>
        <extensions>
          <ns3:TrackPointExtension>
            <ns3:hr>119</ns3:hr>
            <ns3:cad>0</ns3:cad>
          </ns3:TrackPointExtension>
        </extensions>
      </trkpt>
      <trkpt lat="37.77160168625414371490478515625" lon="-107.704746387898921966552734375">
        <ele>3910</ele>
        <time>2023-07-29T14:52:34.000Z</time>
        <extensions>
          <ns3:TrackPointExtension>
            <ns3:hr>119</ns3:hr>
            <ns3:cad>0</ns3:cad>
          </ns3:TrackPointExtension>
        </extensions>
      </trkpt>
      <trkpt lat="37.7716004289686679840087890625" lon="-107.704735659062862396240234375">
        <ele>3910</ele>
        <time>2023-07-29T14:52:35.000Z</time>
        <extensions>
          <ns3:TrackPointExtension>
            <ns3:hr>119</ns3:hr>
            <ns3:cad>0</ns3:cad>
          </ns3:TrackPointExtension>
        </extensions>
      </trkpt>
      <trkpt lat="37.771597243845462799072265625" lon="-107.704711854457855224609375">
        <ele>3910.39990234375</ele>
        <time>2023-07-29T14:52:36.000Z</time>
        <extensions>
          <ns3:TrackPointExtension>
            <ns3:hr>119</ns3:hr>
            <ns3:cad>0</ns3:cad>
          </ns3:TrackPointExtension>
        </extensions>
      </trkpt>
      <trkpt lat="37.77159414254128932952880859375" lon="-107.704701125621795654296875">
        <ele>3910.60009765625</ele>
        <time>2023-07-29T14:52:37.000Z</time>
        <extensions>
          <ns3:TrackPointExtension>
            <ns3:hr>119</ns3:hr>
            <ns3:cad>0</ns3:cad>
          </ns3:TrackPointExtension>
        </extensions>
      </trkpt>
      <trkpt lat="37.7715920470654964447021484375" lon="-107.70469701848924160003662109375">
        <ele>3910.60009765625</ele>
        <time>2023-07-29T14:52:38.000Z</time>
        <extensions>
          <ns3:TrackPointExtension>
            <ns3:hr>119</ns3:hr>
            <ns3:cad>0</ns3:cad>
          </ns3:TrackPointExtension>
        </extensions>
      </trkpt>
      <trkpt lat="37.77159062214195728302001953125" lon="-107.70469601266086101531982421875">
        <ele>3910.60009765625</ele>
        <time>2023-07-29T14:52:39.000Z</time>
        <extensions>
          <ns3:TrackPointExtension>
            <ns3:hr>119</ns3:hr>
            <ns3:cad>0</ns3:cad>
          </ns3:TrackPointExtension>
        </extensions>
      </trkpt>
      <trkpt lat="37.77159112505614757537841796875" lon="-107.704694755375385284423828125">
        <ele>3911</ele>
        <time>2023-07-29T14:52:40.000Z</time>
        <extensions>
          <ns3:TrackPointExtension>
            <ns3:hr>119</ns3:hr>
            <ns3:cad>0</ns3:cad>
          </ns3:TrackPointExtension>
        </extensions>
      </trkpt>
      <trkpt lat="37.7715917117893695831298828125" lon="-107.7046908996999263763427734375">
        <ele>3911</ele>
        <time>2023-07-29T14:52:41.000Z</time>
        <extensions>
          <ns3:TrackPointExtension>
            <ns3:hr>119</ns3:hr>
            <ns3:cad>0</ns3:cad>
          </ns3:TrackPointExtension>
        </extensions>
      </trkpt>
      <trkpt lat="37.7715927176177501678466796875" lon="-107.70469182170927524566650390625">
        <ele>3911</ele>
        <time>2023-07-29T14:52:42.000Z</time>
        <extensions>
          <ns3:TrackPointExtension>
            <ns3:hr>119</ns3:hr>
            <ns3:cad>0</ns3:cad>
          </ns3:TrackPointExtension>
        </extensions>
      </trkpt>
      <trkpt lat="37.7715943939983844757080078125" lon="-107.70469182170927524566650390625">
        <ele>3911.39990234375</ele>
        <time>2023-07-29T14:52:43.000Z</time>
        <extensions>
          <ns3:TrackPointExtension>
            <ns3:hr>119</ns3:hr>
            <ns3:cad>0</ns3:cad>
          </ns3:TrackPointExtension>
        </extensions>
      </trkpt>
      <trkpt lat="37.77159648947417736053466796875" lon="-107.70469014532864093780517578125">
        <ele>3911.800048828125</ele>
        <time>2023-07-29T14:52:44.000Z</time>
        <extensions>
          <ns3:TrackPointExtension>
            <ns3:hr>119</ns3:hr>
            <ns3:cad>0</ns3:cad>
          </ns3:TrackPointExtension>
        </extensions>
      </trkpt>
      <trkpt lat="37.77159648947417736053466796875" lon="-107.70469014532864093780517578125">
        <ele>3912</ele>
        <time>2023-07-29T14:52:45.000Z</time>
        <extensions>
          <ns3:TrackPointExtension>
            <ns3:hr>119</ns3:hr>
            <ns3:cad>0</ns3:cad>
          </ns3:TrackPointExtension>
        </extensions>
      </trkpt>
      <trkpt lat="37.7715969085693359375" lon="-107.704682685434818267822265625">
        <ele>3912</ele>
        <time>2023-07-29T14:52:46.000Z</time>
        <extensions>
          <ns3:TrackPointExtension>
            <ns3:hr>119</ns3:hr>
            <ns3:cad>0</ns3:cad>
          </ns3:TrackPointExtension>
        </extensions>
      </trkpt>
      <trkpt lat="37.77159623801708221435546875" lon="-107.70468109287321567535400390625">
        <ele>3912</ele>
        <time>2023-07-29T14:52:47.000Z</time>
        <extensions>
          <ns3:TrackPointExtension>
            <ns3:hr>119</ns3:hr>
            <ns3:cad>0</ns3:cad>
          </ns3:TrackPointExtension>
        </extensions>
      </trkpt>
      <trkpt lat="37.77159514836966991424560546875" lon="-107.70467857830226421356201171875">
        <ele>3912.199951171875</ele>
        <time>2023-07-29T14:52:48.000Z</time>
        <extensions>
          <ns3:TrackPointExtension>
            <ns3:hr>119</ns3:hr>
            <ns3:cad>0</ns3:cad>
          </ns3:TrackPointExtension>
        </extensions>
      </trkpt>
      <trkpt lat="37.77159380726516246795654296875" lon="-107.70467899739742279052734375">
        <ele>3912.39990234375</ele>
        <time>2023-07-29T14:52:49.000Z</time>
        <extensions>
          <ns3:TrackPointExtension>
            <ns3:hr>119</ns3:hr>
            <ns3:cad>0</ns3:cad>
          </ns3:TrackPointExtension>
        </extensions>
      </trkpt>
      <trkpt lat="37.77159498073160648345947265625" lon="-107.70468159578740596771240234375">
        <ele>3912.39990234375</ele>
        <time>2023-07-29T14:52:50.000Z</time>
        <extensions>
          <ns3:TrackPointExtension>
            <ns3:hr>119</ns3:hr>
            <ns3:cad>0</ns3:cad>
          </ns3:TrackPointExtension>
        </extensions>
      </trkpt>
      <trkpt lat="37.77159581892192363739013671875" lon="-107.70468193106353282928466796875">
        <ele>3912.60009765625</ele>
        <time>2023-07-29T14:52:51.000Z</time>
        <extensions>
          <ns3:TrackPointExtension>
            <ns3:hr>119</ns3:hr>
            <ns3:cad>0</ns3:cad>
          </ns3:TrackPointExtension>
        </extensions>
      </trkpt>
      <trkpt lat="37.771594226360321044921875" lon="-107.704684697091579437255859375">
        <ele>3912.800048828125</ele>
        <time>2023-07-29T14:52:52.000Z</time>
        <extensions>
          <ns3:TrackPointExtension>
            <ns3:hr>119</ns3:hr>
            <ns3:cad>0</ns3:cad>
          </ns3:TrackPointExtension>
        </extensions>
      </trkpt>
      <trkpt lat="37.77159447781741619110107421875" lon="-107.7046885527670383453369140625">
        <ele>3912.800048828125</ele>
        <time>2023-07-29T14:52:53.000Z</time>
        <extensions>
          <ns3:TrackPointExtension>
            <ns3:hr>119</ns3:hr>
            <ns3:cad>0</ns3:cad>
          </ns3:TrackPointExtension>
        </extensions>
      </trkpt>
      <trkpt lat="37.77159431017935276031494140625" lon="-107.70468746311962604522705078125">
        <ele>3913</ele>
        <time>2023-07-29T14:52:54.000Z</time>
        <extensions>
          <ns3:TrackPointExtension>
            <ns3:hr>119</ns3:hr>
            <ns3:cad>0</ns3:cad>
          </ns3:TrackPointExtension>
        </extensions>
      </trkpt>
      <trkpt lat="37.7715913765132427215576171875" lon="-107.70468058995902538299560546875">
        <ele>3913</ele>
        <time>2023-07-29T14:52:55.000Z</time>
        <extensions>
          <ns3:TrackPointExtension>
            <ns3:hr>119</ns3:hr>
            <ns3:cad>0</ns3:cad>
          </ns3:TrackPointExtension>
        </extensions>
      </trkpt>
      <trkpt lat="37.77158777229487895965576171875" lon="-107.7046729624271392822265625">
        <ele>3913.199951171875</ele>
        <time>2023-07-29T14:52:56.000Z</time>
        <extensions>
          <ns3:TrackPointExtension>
            <ns3:hr>119</ns3:hr>
            <ns3:cad>0</ns3:cad>
          </ns3:TrackPointExtension>
        </extensions>
      </trkpt>
      <trkpt lat="37.77158425189554691314697265625" lon="-107.70466650836169719696044921875">
        <ele>3913.199951171875</ele>
        <time>2023-07-29T14:52:57.000Z</time>
        <extensions>
          <ns3:TrackPointExtension>
            <ns3:hr>119</ns3:hr>
            <ns3:cad>0</ns3:cad>
          </ns3:TrackPointExtension>
        </extensions>
      </trkpt>
      <trkpt lat="37.77158341370522975921630859375" lon="-107.7046654187142848968505859375">
        <ele>3913.199951171875</ele>
        <time>2023-07-29T14:52:58.000Z</time>
        <extensions>
          <ns3:TrackPointExtension>
            <ns3:hr>119</ns3:hr>
            <ns3:cad>0</ns3:cad>
          </ns3:TrackPointExtension>
        </extensions>
      </trkpt>
      <trkpt lat="37.77158659882843494415283203125" lon="-107.70466684363782405853271484375">
        <ele>3913.199951171875</ele>
        <time>2023-07-29T14:52:59.000Z</time>
        <extensions>
          <ns3:TrackPointExtension>
            <ns3:hr>119</ns3:hr>
            <ns3:cad>0</ns3:cad>
          </ns3:TrackPointExtension>
        </extensions>
      </trkpt>
      <trkpt lat="37.7715873531997203826904296875" lon="-107.70467095077037811279296875">
        <ele>3913.199951171875</ele>
        <time>2023-07-29T14:53:00.000Z</time>
        <extensions>
          <ns3:TrackPointExtension>
            <ns3:hr>119</ns3:hr>
            <ns3:cad>0</ns3:cad>
          </ns3:TrackPointExtension>
        </extensions>
      </trkpt>
      <trkpt lat="37.77158685028553009033203125" lon="-107.704667933285236358642578125">
        <ele>3913.199951171875</ele>
        <time>2023-07-29T14:53:01.000Z</time>
        <extensions>
          <ns3:TrackPointExtension>
            <ns3:hr>119</ns3:hr>
            <ns3:cad>0</ns3:cad>
          </ns3:TrackPointExtension>
        </extensions>
      </trkpt>
      <trkpt lat="37.77158676646649837493896484375" lon="-107.7046650834381580352783203125">
        <ele>3913.199951171875</ele>
        <time>2023-07-29T14:53:02.000Z</time>
        <extensions>
          <ns3:TrackPointExtension>
            <ns3:hr>118</ns3:hr>
            <ns3:cad>0</ns3:cad>
          </ns3:TrackPointExtension>
        </extensions>
      </trkpt>
      <trkpt lat="37.7715861797332763671875" lon="-107.7046649158000946044921875">
        <ele>3913</ele>
        <time>2023-07-29T14:53:03.000Z</time>
        <extensions>
          <ns3:TrackPointExtension>
            <ns3:hr>118</ns3:hr>
            <ns3:cad>0</ns3:cad>
          </ns3:TrackPointExtension>
        </extensions>
      </trkpt>
      <trkpt lat="37.77158726938068866729736328125" lon="-107.70466499961912631988525390625">
        <ele>3913</ele>
        <time>2023-07-29T14:53:04.000Z</time>
        <extensions>
          <ns3:TrackPointExtension>
            <ns3:hr>118</ns3:hr>
            <ns3:cad>0</ns3:cad>
          </ns3:TrackPointExtension>
        </extensions>
      </trkpt>
      <trkpt lat="37.77158894576132297515869140625" lon="-107.70466625690460205078125">
        <ele>3913</ele>
        <time>2023-07-29T14:53:05.000Z</time>
        <extensions>
          <ns3:TrackPointExtension>
            <ns3:hr>118</ns3:hr>
            <ns3:cad>0</ns3:cad>
          </ns3:TrackPointExtension>
        </extensions>
      </trkpt>
      <trkpt lat="37.7715902030467987060546875" lon="-107.70466499961912631988525390625">
        <ele>3913.199951171875</ele>
        <time>2023-07-29T14:53:06.000Z</time>
        <extensions>
          <ns3:TrackPointExtension>
            <ns3:hr>118</ns3:hr>
            <ns3:cad>0</ns3:cad>
          </ns3:TrackPointExtension>
        </extensions>
      </trkpt>
      <trkpt lat="37.7715955674648284912109375" lon="-107.70466424524784088134765625">
        <ele>3913.199951171875</ele>
        <time>2023-07-29T14:53:07.000Z</time>
        <extensions>
          <ns3:TrackPointExtension>
            <ns3:hr>118</ns3:hr>
            <ns3:cad>0</ns3:cad>
          </ns3:TrackPointExtension>
        </extensions>
      </trkpt>
      <trkpt lat="37.77160202153027057647705078125" lon="-107.70467120222747325897216796875">
        <ele>3913.199951171875</ele>
        <time>2023-07-29T14:53:08.000Z</time>
        <extensions>
          <ns3:TrackPointExtension>
            <ns3:hr>118</ns3:hr>
            <ns3:cad>0</ns3:cad>
          </ns3:TrackPointExtension>
        </extensions>
      </trkpt>
      <trkpt lat="37.77160570956766605377197265625" lon="-107.704667933285236358642578125">
        <ele>3913.199951171875</ele>
        <time>2023-07-29T14:53:09.000Z</time>
        <extensions>
          <ns3:TrackPointExtension>
            <ns3:hr>118</ns3:hr>
            <ns3:cad>0</ns3:cad>
          </ns3:TrackPointExtension>
        </extensions>
      </trkpt>
      <trkpt lat="37.771610319614410400390625" lon="-107.7046590484678745269775390625">
        <ele>3913.199951171875</ele>
        <time>2023-07-29T14:53:10.000Z</time>
        <extensions>
          <ns3:TrackPointExtension>
            <ns3:hr>117</ns3:hr>
            <ns3:cad>0</ns3:cad>
          </ns3:TrackPointExtension>
        </extensions>
      </trkpt>
      <trkpt lat="37.77161576785147190093994140625" lon="-107.70464278757572174072265625">
        <ele>3913.199951171875</ele>
        <time>2023-07-29T14:53:11.000Z</time>
        <extensions>
          <ns3:TrackPointExtension>
            <ns3:hr>117</ns3:hr>
            <ns3:cad>0</ns3:cad>
          </ns3:TrackPointExtension>
        </extensions>
      </trkpt>
      <trkpt lat="37.7716178633272647857666015625" lon="-107.70463298074901103973388671875">
        <ele>3913.39990234375</ele>
        <time>2023-07-29T14:53:12.000Z</time>
        <extensions>
          <ns3:TrackPointExtension>
            <ns3:hr>117</ns3:hr>
            <ns3:cad>0</ns3:cad>
          </ns3:TrackPointExtension>
        </extensions>
      </trkpt>
      <trkpt lat="37.7716161869466304779052734375" lon="-107.70462342537939548492431640625">
        <ele>3913.39990234375</ele>
        <time>2023-07-29T14:53:13.000Z</time>
        <extensions>
          <ns3:TrackPointExtension>
            <ns3:hr>116</ns3:hr>
            <ns3:cad>0</ns3:cad>
          </ns3:TrackPointExtension>
        </extensions>
      </trkpt>
      <trkpt lat="37.771616689860820770263671875" lon="-107.70461873151361942291259765625">
        <ele>3913.39990234375</ele>
        <time>2023-07-29T14:53:14.000Z</time>
        <extensions>
          <ns3:TrackPointExtension>
            <ns3:hr>116</ns3:hr>
            <ns3:cad>0</ns3:cad>
          </ns3:TrackPointExtension>
        </extensions>
      </trkpt>
      <trkpt lat="37.7716188691556453704833984375" lon="-107.7046064101159572601318359375">
        <ele>3913.60009765625</ele>
        <time>2023-07-29T14:53:15.000Z</time>
        <extensions>
          <ns3:TrackPointExtension>
            <ns3:hr>115</ns3:hr>
            <ns3:cad>0</ns3:cad>
          </ns3:TrackPointExtension>
        </extensions>
      </trkpt>
      <trkpt lat="37.7716188691556453704833984375" lon="-107.70460389554500579833984375">
        <ele>3913.800048828125</ele>
        <time>2023-07-29T14:53:16.000Z</time>
        <extensions>
          <ns3:TrackPointExtension>
            <ns3:hr>115</ns3:hr>
            <ns3:cad>0</ns3:cad>
          </ns3:TrackPointExtension>
        </extensions>
      </trkpt>
      <trkpt lat="37.7716192044317722320556640625" lon="-107.70460548810660839080810546875">
        <ele>3914</ele>
        <time>2023-07-29T14:53:17.000Z</time>
        <extensions>
          <ns3:TrackPointExtension>
            <ns3:hr>115</ns3:hr>
            <ns3:cad>0</ns3:cad>
          </ns3:TrackPointExtension>
        </extensions>
      </trkpt>
      <trkpt lat="37.77161995880305767059326171875" lon="-107.704604901373386383056640625">
        <ele>3914.39990234375</ele>
        <time>2023-07-29T14:53:18.000Z</time>
        <extensions>
          <ns3:TrackPointExtension>
            <ns3:hr>115</ns3:hr>
            <ns3:cad>0</ns3:cad>
          </ns3:TrackPointExtension>
        </extensions>
      </trkpt>
      <trkpt lat="37.77162079699337482452392578125" lon="-107.70459744147956371307373046875">
        <ele>3914.60009765625</ele>
        <time>2023-07-29T14:53:19.000Z</time>
        <extensions>
          <ns3:TrackPointExtension>
            <ns3:hr>116</ns3:hr>
            <ns3:cad>0</ns3:cad>
          </ns3:TrackPointExtension>
        </extensions>
      </trkpt>
      <trkpt lat="37.7716175280511379241943359375" lon="-107.70459895022213459014892578125">
        <ele>3914.60009765625</ele>
        <time>2023-07-29T14:53:20.000Z</time>
        <extensions>
          <ns3:TrackPointExtension>
            <ns3:hr>116</ns3:hr>
            <ns3:cad>0</ns3:cad>
          </ns3:TrackPointExtension>
        </extensions>
      </trkpt>
      <trkpt lat="37.77161275036633014678955078125" lon="-107.70460196770727634429931640625">
        <ele>3915</ele>
        <time>2023-07-29T14:53:21.000Z</time>
        <extensions>
          <ns3:TrackPointExtension>
            <ns3:hr>116</ns3:hr>
            <ns3:cad>0</ns3:cad>
          </ns3:TrackPointExtension>
        </extensions>
      </trkpt>
      <trkpt lat="37.77161099016666412353515625" lon="-107.7046007104218006134033203125">
        <ele>3915</ele>
        <time>2023-07-29T14:53:22.000Z</time>
        <extensions>
          <ns3:TrackPointExtension>
            <ns3:hr>116</ns3:hr>
            <ns3:cad>0</ns3:cad>
          </ns3:TrackPointExtension>
        </extensions>
      </trkpt>
      <trkpt lat="37.77160688303411006927490234375" lon="-107.7046054042875766754150390625">
        <ele>3915.199951171875</ele>
        <time>2023-07-29T14:53:23.000Z</time>
        <extensions>
          <ns3:TrackPointExtension>
            <ns3:hr>115</ns3:hr>
            <ns3:cad>0</ns3:cad>
          </ns3:TrackPointExtension>
        </extensions>
      </trkpt>
      <trkpt lat="37.77160554192960262298583984375" lon="-107.704606913030147552490234375">
        <ele>3915.39990234375</ele>
        <time>2023-07-29T14:53:24.000Z</time>
        <extensions>
          <ns3:TrackPointExtension>
            <ns3:hr>116</ns3:hr>
            <ns3:cad>0</ns3:cad>
          </ns3:TrackPointExtension>
        </extensions>
      </trkpt>
      <trkpt lat="37.77160294353961944580078125" lon="-107.70460716448724269866943359375">
        <ele>3915.39990234375</ele>
        <time>2023-07-29T14:53:25.000Z</time>
        <extensions>
          <ns3:TrackPointExtension>
            <ns3:hr>116</ns3:hr>
            <ns3:cad>0</ns3:cad>
          </ns3:TrackPointExtension>
        </extensions>
      </trkpt>
      <trkpt lat="37.77160068042576313018798828125" lon="-107.704604566097259521484375">
        <ele>3915.39990234375</ele>
        <time>2023-07-29T14:53:26.000Z</time>
        <extensions>
          <ns3:TrackPointExtension>
            <ns3:hr>116</ns3:hr>
            <ns3:cad>0</ns3:cad>
          </ns3:TrackPointExtension>
        </extensions>
      </trkpt>
      <trkpt lat="37.77159799821674823760986328125" lon="-107.7046040631830692291259765625">
        <ele>3915.39990234375</ele>
        <time>2023-07-29T14:53:27.000Z</time>
        <extensions>
          <ns3:TrackPointExtension>
            <ns3:hr>116</ns3:hr>
            <ns3:cad>0</ns3:cad>
          </ns3:TrackPointExtension>
        </extensions>
      </trkpt>
      <trkpt lat="37.7715953998267650604248046875" lon="-107.70460733212530612945556640625">
        <ele>3915.39990234375</ele>
        <time>2023-07-29T14:53:28.000Z</time>
        <extensions>
          <ns3:TrackPointExtension>
            <ns3:hr>116</ns3:hr>
            <ns3:cad>0</ns3:cad>
          </ns3:TrackPointExtension>
        </extensions>
      </trkpt>
      <trkpt lat="37.7715957351028919219970703125" lon="-107.704612277448177337646484375">
        <ele>3915.39990234375</ele>
        <time>2023-07-29T14:53:29.000Z</time>
        <extensions>
          <ns3:TrackPointExtension>
            <ns3:hr>115</ns3:hr>
            <ns3:cad>0</ns3:cad>
          </ns3:TrackPointExtension>
        </extensions>
      </trkpt>
      <trkpt lat="37.771597914397716522216796875" lon="-107.70461420528590679168701171875">
        <ele>3915.39990234375</ele>
        <time>2023-07-29T14:53:30.000Z</time>
        <extensions>
          <ns3:TrackPointExtension>
            <ns3:hr>113</ns3:hr>
            <ns3:cad>0</ns3:cad>
          </ns3:TrackPointExtension>
        </extensions>
      </trkpt>
      <trkpt lat="37.77159883640706539154052734375" lon="-107.70461671985685825347900390625">
        <ele>3915.39990234375</ele>
        <time>2023-07-29T14:53:31.000Z</time>
        <extensions>
          <ns3:TrackPointExtension>
            <ns3:hr>112</ns3:hr>
            <ns3:cad>0</ns3:cad>
          </ns3:TrackPointExtension>
        </extensions>
      </trkpt>
      <trkpt lat="37.77159883640706539154052734375" lon="-107.7046157978475093841552734375">
        <ele>3915.39990234375</ele>
        <time>2023-07-29T14:53:32.000Z</time>
        <extensions>
          <ns3:TrackPointExtension>
            <ns3:hr>111</ns3:hr>
            <ns3:cad>0</ns3:cad>
          </ns3:TrackPointExtension>
        </extensions>
      </trkpt>
      <trkpt lat="37.77159623801708221435546875" lon="-107.70461319945752620697021484375">
        <ele>3915.60009765625</ele>
        <time>2023-07-29T14:53:33.000Z</time>
        <extensions>
          <ns3:TrackPointExtension>
            <ns3:hr>110</ns3:hr>
            <ns3:cad>0</ns3:cad>
          </ns3:TrackPointExtension>
        </extensions>
      </trkpt>
      <trkpt lat="37.7715947292745113372802734375" lon="-107.70461730659008026123046875">
        <ele>3915.60009765625</ele>
        <time>2023-07-29T14:53:34.000Z</time>
        <extensions>
          <ns3:TrackPointExtension>
            <ns3:hr>110</ns3:hr>
            <ns3:cad>0</ns3:cad>
          </ns3:TrackPointExtension>
        </extensions>
      </trkpt>
      <trkpt lat="37.77159489691257476806640625" lon="-107.70462124608457088470458984375">
        <ele>3915.60009765625</ele>
        <time>2023-07-29T14:53:35.000Z</time>
        <extensions>
          <ns3:TrackPointExtension>
            <ns3:hr>109</ns3:hr>
            <ns3:cad>0</ns3:cad>
          </ns3:TrackPointExtension>
        </extensions>
      </trkpt>
      <trkpt lat="37.7715950645506381988525390625" lon="-107.70462267100811004638671875">
        <ele>3915.60009765625</ele>
        <time>2023-07-29T14:53:36.000Z</time>
        <extensions>
          <ns3:TrackPointExtension>
            <ns3:hr>108</ns3:hr>
            <ns3:cad>0</ns3:cad>
          </ns3:TrackPointExtension>
        </extensions>
      </trkpt>
      <trkpt lat="37.7715950645506381988525390625" lon="-107.70462409593164920806884765625">
        <ele>3915.60009765625</ele>
        <time>2023-07-29T14:53:37.000Z</time>
        <extensions>
          <ns3:TrackPointExtension>
            <ns3:hr>108</ns3:hr>
            <ns3:cad>0</ns3:cad>
          </ns3:TrackPointExtension>
        </extensions>
      </trkpt>
      <trkpt lat="37.771595232188701629638671875" lon="-107.704626023769378662109375">
        <ele>3915.39990234375</ele>
        <time>2023-07-29T14:53:38.000Z</time>
        <extensions>
          <ns3:TrackPointExtension>
            <ns3:hr>108</ns3:hr>
            <ns3:cad>0</ns3:cad>
          </ns3:TrackPointExtension>
        </extensions>
      </trkpt>
      <trkpt lat="37.7715957351028919219970703125" lon="-107.704632394015789031982421875">
        <ele>3915.199951171875</ele>
        <time>2023-07-29T14:53:39.000Z</time>
        <extensions>
          <ns3:TrackPointExtension>
            <ns3:hr>108</ns3:hr>
            <ns3:cad>0</ns3:cad>
          </ns3:TrackPointExtension>
        </extensions>
      </trkpt>
      <trkpt lat="37.7715987525880336761474609375" lon="-107.7046335674822330474853515625">
        <ele>3915.199951171875</ele>
        <time>2023-07-29T14:53:40.000Z</time>
        <extensions>
          <ns3:TrackPointExtension>
            <ns3:hr>109</ns3:hr>
            <ns3:cad>0</ns3:cad>
          </ns3:TrackPointExtension>
        </extensions>
      </trkpt>
      <trkpt lat="37.7716000936925411224365234375" lon="-107.7046365849673748016357421875">
        <ele>3915.199951171875</ele>
        <time>2023-07-29T14:53:41.000Z</time>
        <extensions>
          <ns3:TrackPointExtension>
            <ns3:hr>109</ns3:hr>
            <ns3:cad>0</ns3:cad>
          </ns3:TrackPointExtension>
        </extensions>
      </trkpt>
      <trkpt lat="37.7716051228344440460205078125" lon="-107.70463147200644016265869140625">
        <ele>3915.199951171875</ele>
        <time>2023-07-29T14:53:42.000Z</time>
        <extensions>
          <ns3:TrackPointExtension>
            <ns3:hr>109</ns3:hr>
            <ns3:cad>0</ns3:cad>
          </ns3:TrackPointExtension>
        </extensions>
      </trkpt>
      <trkpt lat="37.77160788886249065399169921875" lon="-107.7046271972358226776123046875">
        <ele>3915.199951171875</ele>
        <time>2023-07-29T14:53:43.000Z</time>
        <extensions>
          <ns3:TrackPointExtension>
            <ns3:hr>109</ns3:hr>
            <ns3:cad>0</ns3:cad>
          </ns3:TrackPointExtension>
        </extensions>
      </trkpt>
      <trkpt lat="37.771607972681522369384765625" lon="-107.70462795160710811614990234375">
        <ele>3915.199951171875</ele>
        <time>2023-07-29T14:53:44.000Z</time>
        <extensions>
          <ns3:TrackPointExtension>
            <ns3:hr>109</ns3:hr>
            <ns3:cad>0</ns3:cad>
          </ns3:TrackPointExtension>
        </extensions>
      </trkpt>
      <trkpt lat="37.77160621248185634613037109375" lon="-107.70462811924517154693603515625">
        <ele>3915.199951171875</ele>
        <time>2023-07-29T14:53:45.000Z</time>
        <extensions>
          <ns3:TrackPointExtension>
            <ns3:hr>108</ns3:hr>
            <ns3:cad>0</ns3:cad>
          </ns3:TrackPointExtension>
        </extensions>
      </trkpt>
      <trkpt lat="37.77160369791090488433837890625" lon="-107.7046278677880764007568359375">
        <ele>3915.199951171875</ele>
        <time>2023-07-29T14:53:46.000Z</time>
        <extensions>
          <ns3:TrackPointExtension>
            <ns3:hr>108</ns3:hr>
            <ns3:cad>0</ns3:cad>
          </ns3:TrackPointExtension>
        </extensions>
      </trkpt>
      <trkpt lat="37.771598584949970245361328125" lon="-107.70463130436837673187255859375">
        <ele>3915.199951171875</ele>
        <time>2023-07-29T14:53:47.000Z</time>
        <extensions>
          <ns3:TrackPointExtension>
            <ns3:hr>108</ns3:hr>
            <ns3:cad>0</ns3:cad>
          </ns3:TrackPointExtension>
        </extensions>
      </trkpt>
      <trkpt lat="37.77159347198903560638427734375" lon="-107.704630382359027862548828125">
        <ele>3915.39990234375</ele>
        <time>2023-07-29T14:53:48.000Z</time>
        <extensions>
          <ns3:TrackPointExtension>
            <ns3:hr>107</ns3:hr>
            <ns3:cad>0</ns3:cad>
          </ns3:TrackPointExtension>
        </extensions>
      </trkpt>
      <trkpt lat="37.77159313671290874481201171875" lon="-107.70462627522647380828857421875">
        <ele>3915.60009765625</ele>
        <time>2023-07-29T14:53:49.000Z</time>
        <extensions>
          <ns3:TrackPointExtension>
            <ns3:hr>107</ns3:hr>
            <ns3:cad>0</ns3:cad>
          </ns3:TrackPointExtension>
        </extensions>
      </trkpt>
      <trkpt lat="37.77159414254128932952880859375" lon="-107.7046208269894123077392578125">
        <ele>3915.800048828125</ele>
        <time>2023-07-29T14:53:50.000Z</time>
        <extensions>
          <ns3:TrackPointExtension>
            <ns3:hr>106</ns3:hr>
            <ns3:cad>0</ns3:cad>
          </ns3:TrackPointExtension>
        </extensions>
      </trkpt>
      <trkpt lat="37.7715933881700038909912109375" lon="-107.704618312418460845947265625">
        <ele>3915.800048828125</ele>
        <time>2023-07-29T14:53:51.000Z</time>
        <extensions>
          <ns3:TrackPointExtension>
            <ns3:hr>106</ns3:hr>
            <ns3:cad>0</ns3:cad>
          </ns3:TrackPointExtension>
        </extensions>
      </trkpt>
      <trkpt lat="37.77159397490322589874267578125" lon="-107.70461034961044788360595703125">
        <ele>3915.60009765625</ele>
        <time>2023-07-29T14:53:52.000Z</time>
        <extensions>
          <ns3:TrackPointExtension>
            <ns3:hr>105</ns3:hr>
            <ns3:cad>0</ns3:cad>
          </ns3:TrackPointExtension>
        </extensions>
      </trkpt>
      <trkpt lat="37.77160353027284145355224609375" lon="-107.7046040631830692291259765625">
        <ele>3915.60009765625</ele>
        <time>2023-07-29T14:53:53.000Z</time>
        <extensions>
          <ns3:TrackPointExtension>
            <ns3:hr>105</ns3:hr>
            <ns3:cad>0</ns3:cad>
          </ns3:TrackPointExtension>
        </extensions>
      </trkpt>
      <trkpt lat="37.77161107398569583892822265625" lon="-107.704596854746341705322265625">
        <ele>3915.60009765625</ele>
        <time>2023-07-29T14:53:54.000Z</time>
        <extensions>
          <ns3:TrackPointExtension>
            <ns3:hr>105</ns3:hr>
            <ns3:cad>0</ns3:cad>
          </ns3:TrackPointExtension>
        </extensions>
      </trkpt>
      <trkpt lat="37.77161962352693080902099609375" lon="-107.70458151586353778839111328125">
        <ele>3915.60009765625</ele>
        <time>2023-07-29T14:53:55.000Z</time>
        <extensions>
          <ns3:TrackPointExtension>
            <ns3:hr>105</ns3:hr>
            <ns3:cad>0</ns3:cad>
          </ns3:TrackPointExtension>
        </extensions>
      </trkpt>
      <trkpt lat="37.771624065935611724853515625" lon="-107.7045710384845733642578125">
        <ele>3915.60009765625</ele>
        <time>2023-07-29T14:53:56.000Z</time>
        <extensions>
          <ns3:TrackPointExtension>
            <ns3:hr>105</ns3:hr>
            <ns3:cad>0</ns3:cad>
          </ns3:TrackPointExtension>
        </extensions>
      </trkpt>
      <trkpt lat="37.771627418696880340576171875" lon="-107.70456776954233646392822265625">
        <ele>3915.60009765625</ele>
        <time>2023-07-29T14:53:57.000Z</time>
        <extensions>
          <ns3:TrackPointExtension>
            <ns3:hr>105</ns3:hr>
            <ns3:cad>0</ns3:cad>
          </ns3:TrackPointExtension>
        </extensions>
      </trkpt>
      <trkpt lat="37.77162599377334117889404296875" lon="-107.70456475205719470977783203125">
        <ele>3915.60009765625</ele>
        <time>2023-07-29T14:53:58.000Z</time>
        <extensions>
          <ns3:TrackPointExtension>
            <ns3:hr>105</ns3:hr>
            <ns3:cad>0</ns3:cad>
          </ns3:TrackPointExtension>
        </extensions>
      </trkpt>
      <trkpt lat="37.7716249041259288787841796875" lon="-107.70456290803849697113037109375">
        <ele>3915.800048828125</ele>
        <time>2023-07-29T14:53:59.000Z</time>
        <extensions>
          <ns3:TrackPointExtension>
            <ns3:hr>105</ns3:hr>
            <ns3:cad>0</ns3:cad>
          </ns3:TrackPointExtension>
        </extensions>
      </trkpt>
      <trkpt lat="37.77162482030689716339111328125" lon="-107.7045618183910846710205078125">
        <ele>3916</ele>
        <time>2023-07-29T14:54:00.000Z</time>
        <extensions>
          <ns3:TrackPointExtension>
            <ns3:hr>104</ns3:hr>
            <ns3:cad>0</ns3:cad>
          </ns3:TrackPointExtension>
        </extensions>
      </trkpt>
      <trkpt lat="37.77162482030689716339111328125" lon="-107.7045624889433383941650390625">
        <ele>3916.199951171875</ele>
        <time>2023-07-29T14:54:01.000Z</time>
        <extensions>
          <ns3:TrackPointExtension>
            <ns3:hr>104</ns3:hr>
            <ns3:cad>0</ns3:cad>
          </ns3:TrackPointExtension>
        </extensions>
      </trkpt>
      <trkpt lat="37.77162632904946804046630859375" lon="-107.70455293357372283935546875">
        <ele>3916.199951171875</ele>
        <time>2023-07-29T14:54:02.000Z</time>
        <extensions>
          <ns3:TrackPointExtension>
            <ns3:hr>104</ns3:hr>
            <ns3:cad>0</ns3:cad>
          </ns3:TrackPointExtension>
        </extensions>
      </trkpt>
      <trkpt lat="37.77162783779203891754150390625" lon="-107.704555280506610870361328125">
        <ele>3916.60009765625</ele>
        <time>2023-07-29T14:54:03.000Z</time>
        <extensions>
          <ns3:TrackPointExtension>
            <ns3:hr>104</ns3:hr>
            <ns3:cad>0</ns3:cad>
          </ns3:TrackPointExtension>
        </extensions>
      </trkpt>
      <trkpt lat="37.77162632904946804046630859375" lon="-107.70455301739275455474853515625">
        <ele>3916.800048828125</ele>
        <time>2023-07-29T14:54:04.000Z</time>
        <extensions>
          <ns3:TrackPointExtension>
            <ns3:hr>103</ns3:hr>
            <ns3:cad>0</ns3:cad>
          </ns3:TrackPointExtension>
        </extensions>
      </trkpt>
      <trkpt lat="37.7716252394020557403564453125" lon="-107.70454647950828075408935546875">
        <ele>3917</ele>
        <time>2023-07-29T14:54:05.000Z</time>
        <extensions>
          <ns3:TrackPointExtension>
            <ns3:hr>103</ns3:hr>
            <ns3:cad>0</ns3:cad>
          </ns3:TrackPointExtension>
        </extensions>
      </trkpt>
      <trkpt lat="37.7716242335736751556396484375" lon="-107.70454027689993381500244140625">
        <ele>3917.39990234375</ele>
        <time>2023-07-29T14:54:06.000Z</time>
        <extensions>
          <ns3:TrackPointExtension>
            <ns3:hr>103</ns3:hr>
            <ns3:cad>0</ns3:cad>
          </ns3:TrackPointExtension>
        </extensions>
      </trkpt>
      <trkpt lat="37.7716222219169139862060546875" lon="-107.70452619530260562896728515625">
        <ele>3917.39990234375</ele>
        <time>2023-07-29T14:54:07.000Z</time>
        <extensions>
          <ns3:TrackPointExtension>
            <ns3:hr>103</ns3:hr>
            <ns3:cad>0</ns3:cad>
          </ns3:TrackPointExtension>
        </extensions>
      </trkpt>
      <trkpt lat="37.77161912061274051666259765625" lon="-107.7045178972184658050537109375">
        <ele>3917.39990234375</ele>
        <time>2023-07-29T14:54:08.000Z</time>
        <extensions>
          <ns3:TrackPointExtension>
            <ns3:hr>103</ns3:hr>
            <ns3:cad>0</ns3:cad>
          </ns3:TrackPointExtension>
        </extensions>
      </trkpt>
      <trkpt lat="37.7716161869466304779052734375" lon="-107.704509012401103973388671875">
        <ele>3917.800048828125</ele>
        <time>2023-07-29T14:54:09.000Z</time>
        <extensions>
          <ns3:TrackPointExtension>
            <ns3:hr>102</ns3:hr>
            <ns3:cad>0</ns3:cad>
          </ns3:TrackPointExtension>
        </extensions>
      </trkpt>
      <trkpt lat="37.77161224745213985443115234375" lon="-107.704496271908283233642578125">
        <ele>3918</ele>
        <time>2023-07-29T14:54:10.000Z</time>
        <extensions>
          <ns3:TrackPointExtension>
            <ns3:hr>101</ns3:hr>
            <ns3:cad>0</ns3:cad>
          </ns3:TrackPointExtension>
        </extensions>
      </trkpt>
      <trkpt lat="37.7716078050434589385986328125" lon="-107.7044825255870819091796875">
        <ele>3918.199951171875</ele>
        <time>2023-07-29T14:54:11.000Z</time>
        <extensions>
          <ns3:TrackPointExtension>
            <ns3:hr>101</ns3:hr>
            <ns3:cad>0</ns3:cad>
          </ns3:TrackPointExtension>
        </extensions>
      </trkpt>
      <trkpt lat="37.77160537429153919219970703125" lon="-107.70448110066354274749755859375">
        <ele>3918.39990234375</ele>
        <time>2023-07-29T14:54:12.000Z</time>
        <extensions>
          <ns3:TrackPointExtension>
            <ns3:hr>100</ns3:hr>
            <ns3:cad>0</ns3:cad>
          </ns3:TrackPointExtension>
        </extensions>
      </trkpt>
      <trkpt lat="37.771605290472507476806640625" lon="-107.70448009483516216278076171875">
        <ele>3918.60009765625</ele>
        <time>2023-07-29T14:54:13.000Z</time>
        <extensions>
          <ns3:TrackPointExtension>
            <ns3:hr>100</ns3:hr>
            <ns3:cad>0</ns3:cad>
          </ns3:TrackPointExtension>
        </extensions>
      </trkpt>
      <trkpt lat="37.77160235680639743804931640625" lon="-107.70447338931262493133544921875">
        <ele>3918.800048828125</ele>
        <time>2023-07-29T14:54:14.000Z</time>
        <extensions>
          <ns3:TrackPointExtension>
            <ns3:hr>100</ns3:hr>
            <ns3:cad>0</ns3:cad>
          </ns3:TrackPointExtension>
        </extensions>
      </trkpt>
      <trkpt lat="37.77159665711224079132080078125" lon="-107.704467438161373138427734375">
        <ele>3918.800048828125</ele>
        <time>2023-07-29T14:54:15.000Z</time>
        <extensions>
          <ns3:TrackPointExtension>
            <ns3:hr>100</ns3:hr>
            <ns3:cad>0</ns3:cad>
          </ns3:TrackPointExtension>
        </extensions>
      </trkpt>
      <trkpt lat="37.7715955674648284912109375" lon="-107.7044639177620410919189453125">
        <ele>3919</ele>
        <time>2023-07-29T14:54:16.000Z</time>
        <extensions>
          <ns3:TrackPointExtension>
            <ns3:hr>101</ns3:hr>
            <ns3:cad>0</ns3:cad>
          </ns3:TrackPointExtension>
        </extensions>
      </trkpt>
      <trkpt lat="37.77159498073160648345947265625" lon="-107.7044578827917575836181640625">
        <ele>3919.199951171875</ele>
        <time>2023-07-29T14:54:17.000Z</time>
        <extensions>
          <ns3:TrackPointExtension>
            <ns3:hr>102</ns3:hr>
            <ns3:cad>0</ns3:cad>
          </ns3:TrackPointExtension>
        </extensions>
      </trkpt>
      <trkpt lat="37.77159481309354305267333984375" lon="-107.70444966852664947509765625">
        <ele>3919.199951171875</ele>
        <time>2023-07-29T14:54:18.000Z</time>
        <extensions>
          <ns3:TrackPointExtension>
            <ns3:hr>104</ns3:hr>
            <ns3:cad>0</ns3:cad>
          </ns3:TrackPointExtension>
        </extensions>
      </trkpt>
      <trkpt lat="37.77159347198903560638427734375" lon="-107.704441957175731658935546875">
        <ele>3919.60009765625</ele>
        <time>2023-07-29T14:54:19.000Z</time>
        <extensions>
          <ns3:TrackPointExtension>
            <ns3:hr>104</ns3:hr>
            <ns3:cad>0</ns3:cad>
          </ns3:TrackPointExtension>
        </extensions>
      </trkpt>
      <trkpt lat="37.77159347198903560638427734375" lon="-107.7044320665299892425537109375">
        <ele>3920</ele>
        <time>2023-07-29T14:54:20.000Z</time>
        <extensions>
          <ns3:TrackPointExtension>
            <ns3:hr>104</ns3:hr>
            <ns3:cad>0</ns3:cad>
          </ns3:TrackPointExtension>
        </extensions>
      </trkpt>
      <trkpt lat="37.77159816585481166839599609375" lon="-107.7044300548732280731201171875">
        <ele>3920</ele>
        <time>2023-07-29T14:54:21.000Z</time>
        <extensions>
          <ns3:TrackPointExtension>
            <ns3:hr>105</ns3:hr>
            <ns3:cad>0</ns3:cad>
          </ns3:TrackPointExtension>
        </extensions>
      </trkpt>
      <trkpt lat="37.77160889469087123870849609375" lon="-107.70443315617740154266357421875">
        <ele>3920.39990234375</ele>
        <time>2023-07-29T14:54:22.000Z</time>
        <extensions>
          <ns3:TrackPointExtension>
            <ns3:hr>105</ns3:hr>
            <ns3:cad>0</ns3:cad>
          </ns3:TrackPointExtension>
        </extensions>
      </trkpt>
      <trkpt lat="37.77162163518369197845458984375" lon="-107.7044350840151309967041015625">
        <ele>3920.39990234375</ele>
        <time>2023-07-29T14:54:23.000Z</time>
        <extensions>
          <ns3:TrackPointExtension>
            <ns3:hr>106</ns3:hr>
            <ns3:cad>0</ns3:cad>
          </ns3:TrackPointExtension>
        </extensions>
      </trkpt>
      <trkpt lat="37.771628759801387786865234375" lon="-107.70443550311028957366943359375">
        <ele>3920.39990234375</ele>
        <time>2023-07-29T14:54:24.000Z</time>
        <extensions>
          <ns3:TrackPointExtension>
            <ns3:hr>106</ns3:hr>
            <ns3:cad>0</ns3:cad>
          </ns3:TrackPointExtension>
        </extensions>
      </trkpt>
      <trkpt lat="37.77163982391357421875" lon="-107.7044317312538623809814453125">
        <ele>3920.800048828125</ele>
        <time>2023-07-29T14:54:25.000Z</time>
        <extensions>
          <ns3:TrackPointExtension>
            <ns3:hr>106</ns3:hr>
            <ns3:cad>0</ns3:cad>
          </ns3:TrackPointExtension>
        </extensions>
      </trkpt>
      <trkpt lat="37.7716443501412868499755859375" lon="-107.7044277079403400421142578125">
        <ele>3921</ele>
        <time>2023-07-29T14:54:26.000Z</time>
        <extensions>
          <ns3:TrackPointExtension>
            <ns3:hr>106</ns3:hr>
            <ns3:cad>0</ns3:cad>
          </ns3:TrackPointExtension>
        </extensions>
      </trkpt>
      <trkpt lat="37.7716436795890331268310546875" lon="-107.70442686975002288818359375">
        <ele>3921</ele>
        <time>2023-07-29T14:54:27.000Z</time>
        <extensions>
          <ns3:TrackPointExtension>
            <ns3:hr>107</ns3:hr>
            <ns3:cad>0</ns3:cad>
          </ns3:TrackPointExtension>
        </extensions>
      </trkpt>
      <trkpt lat="37.77164862491190433502197265625" lon="-107.704419828951358795166015625">
        <ele>3921.199951171875</ele>
        <time>2023-07-29T14:54:28.000Z</time>
        <extensions>
          <ns3:TrackPointExtension>
            <ns3:hr>107</ns3:hr>
            <ns3:cad>46</ns3:cad>
          </ns3:TrackPointExtension>
        </extensions>
      </trkpt>
      <trkpt lat="37.7716505527496337890625" lon="-107.70441823638975620269775390625">
        <ele>3921.199951171875</ele>
        <time>2023-07-29T14:54:29.000Z</time>
        <extensions>
          <ns3:TrackPointExtension>
            <ns3:hr>107</ns3:hr>
            <ns3:cad>46</ns3:cad>
          </ns3:TrackPointExtension>
        </extensions>
      </trkpt>
      <trkpt lat="37.77165365405380725860595703125" lon="-107.70441672764718532562255859375">
        <ele>3921.39990234375</ele>
        <time>2023-07-29T14:54:30.000Z</time>
        <extensions>
          <ns3:TrackPointExtension>
            <ns3:hr>108</ns3:hr>
            <ns3:cad>46</ns3:cad>
          </ns3:TrackPointExtension>
        </extensions>
      </trkpt>
      <trkpt lat="37.77165348641574382781982421875" lon="-107.70440666936337947845458984375">
        <ele>3921.800048828125</ele>
        <time>2023-07-29T14:54:31.000Z</time>
        <extensions>
          <ns3:TrackPointExtension>
            <ns3:hr>108</ns3:hr>
            <ns3:cad>0</ns3:cad>
          </ns3:TrackPointExtension>
        </extensions>
      </trkpt>
      <trkpt lat="37.771653570234775543212890625" lon="-107.70440650172531604766845703125">
        <ele>3922</ele>
        <time>2023-07-29T14:54:32.000Z</time>
        <extensions>
          <ns3:TrackPointExtension>
            <ns3:hr>109</ns3:hr>
            <ns3:cad>0</ns3:cad>
          </ns3:TrackPointExtension>
        </extensions>
      </trkpt>
      <trkpt lat="37.7716545760631561279296875" lon="-107.7044092677533626556396484375">
        <ele>3922.199951171875</ele>
        <time>2023-07-29T14:54:33.000Z</time>
        <extensions>
          <ns3:TrackPointExtension>
            <ns3:hr>110</ns3:hr>
            <ns3:cad>0</ns3:cad>
          </ns3:TrackPointExtension>
        </extensions>
      </trkpt>
      <trkpt lat="37.7716513909399509429931640625" lon="-107.70441153086721897125244140625">
        <ele>3922.39990234375</ele>
        <time>2023-07-29T14:54:34.000Z</time>
        <extensions>
          <ns3:TrackPointExtension>
            <ns3:hr>110</ns3:hr>
            <ns3:cad>0</ns3:cad>
          </ns3:TrackPointExtension>
        </extensions>
      </trkpt>
      <trkpt lat="37.77164879254996776580810546875" lon="-107.7044112794101238250732421875">
        <ele>3922.60009765625</ele>
        <time>2023-07-29T14:54:35.000Z</time>
        <extensions>
          <ns3:TrackPointExtension>
            <ns3:hr>110</ns3:hr>
            <ns3:cad>0</ns3:cad>
          </ns3:TrackPointExtension>
        </extensions>
      </trkpt>
      <trkpt lat="37.77165256440639495849609375" lon="-107.70440549589693546295166015625">
        <ele>3922.800048828125</ele>
        <time>2023-07-29T14:54:36.000Z</time>
        <extensions>
          <ns3:TrackPointExtension>
            <ns3:hr>111</ns3:hr>
            <ns3:cad>0</ns3:cad>
          </ns3:TrackPointExtension>
        </extensions>
      </trkpt>
      <trkpt lat="37.77165734209120273590087890625" lon="-107.70440407097339630126953125">
        <ele>3923</ele>
        <time>2023-07-29T14:54:37.000Z</time>
        <extensions>
          <ns3:TrackPointExtension>
            <ns3:hr>111</ns3:hr>
            <ns3:cad>0</ns3:cad>
          </ns3:TrackPointExtension>
        </extensions>
      </trkpt>
      <trkpt lat="37.7716601081192493438720703125" lon="-107.70440398715436458587646484375">
        <ele>3923.199951171875</ele>
        <time>2023-07-29T14:54:38.000Z</time>
        <extensions>
          <ns3:TrackPointExtension>
            <ns3:hr>112</ns3:hr>
            <ns3:cad>0</ns3:cad>
          </ns3:TrackPointExtension>
        </extensions>
      </trkpt>
      <trkpt lat="37.77166974730789661407470703125" lon="-107.70439577288925647735595703125">
        <ele>3923.199951171875</ele>
        <time>2023-07-29T14:54:39.000Z</time>
        <extensions>
          <ns3:TrackPointExtension>
            <ns3:hr>113</ns3:hr>
            <ns3:cad>0</ns3:cad>
          </ns3:TrackPointExtension>
        </extensions>
      </trkpt>
      <trkpt lat="37.77166974730789661407470703125" lon="-107.70439443178474903106689453125">
        <ele>3923.199951171875</ele>
        <time>2023-07-29T14:54:40.000Z</time>
        <extensions>
          <ns3:TrackPointExtension>
            <ns3:hr>113</ns3:hr>
            <ns3:cad>0</ns3:cad>
          </ns3:TrackPointExtension>
        </extensions>
      </trkpt>
      <trkpt lat="37.77167444117367267608642578125" lon="-107.70438839681446552276611328125">
        <ele>3923.199951171875</ele>
        <time>2023-07-29T14:54:41.000Z</time>
        <extensions>
          <ns3:TrackPointExtension>
            <ns3:hr>113</ns3:hr>
            <ns3:cad>0</ns3:cad>
          </ns3:TrackPointExtension>
        </extensions>
      </trkpt>
      <trkpt lat="37.77168081142008304595947265625" lon="-107.7043790929019451141357421875">
        <ele>3923.199951171875</ele>
        <time>2023-07-29T14:54:42.000Z</time>
        <extensions>
          <ns3:TrackPointExtension>
            <ns3:hr>113</ns3:hr>
            <ns3:cad>0</ns3:cad>
          </ns3:TrackPointExtension>
        </extensions>
      </trkpt>
      <trkpt lat="37.771680392324924468994140625" lon="-107.7043707109987735748291015625">
        <ele>3923.60009765625</ele>
        <time>2023-07-29T14:54:43.000Z</time>
        <extensions>
          <ns3:TrackPointExtension>
            <ns3:hr>113</ns3:hr>
            <ns3:cad>0</ns3:cad>
          </ns3:TrackPointExtension>
        </extensions>
      </trkpt>
      <trkpt lat="37.7716832421720027923583984375" lon="-107.70436140708625316619873046875">
        <ele>3923.60009765625</ele>
        <time>2023-07-29T14:54:44.000Z</time>
        <extensions>
          <ns3:TrackPointExtension>
            <ns3:hr>113</ns3:hr>
            <ns3:cad>0</ns3:cad>
          </ns3:TrackPointExtension>
        </extensions>
      </trkpt>
      <trkpt lat="37.7716795541346073150634765625" lon="-107.70435805432498455047607421875">
        <ele>3923.60009765625</ele>
        <time>2023-07-29T14:54:45.000Z</time>
        <extensions>
          <ns3:TrackPointExtension>
            <ns3:hr>113</ns3:hr>
            <ns3:cad>0</ns3:cad>
          </ns3:TrackPointExtension>
        </extensions>
      </trkpt>
      <trkpt lat="37.77168097905814647674560546875" lon="-107.7043552882969379425048828125">
        <ele>3923.800048828125</ele>
        <time>2023-07-29T14:54:46.000Z</time>
        <extensions>
          <ns3:TrackPointExtension>
            <ns3:hr>114</ns3:hr>
            <ns3:cad>0</ns3:cad>
          </ns3:TrackPointExtension>
        </extensions>
      </trkpt>
      <trkpt lat="37.7716815657913684844970703125" lon="-107.70435000769793987274169921875">
        <ele>3924</ele>
        <time>2023-07-29T14:54:47.000Z</time>
        <extensions>
          <ns3:TrackPointExtension>
            <ns3:hr>114</ns3:hr>
            <ns3:cad>0</ns3:cad>
          </ns3:TrackPointExtension>
        </extensions>
      </trkpt>
      <trkpt lat="37.77168366126716136932373046875" lon="-107.7043469063937664031982421875">
        <ele>3924.199951171875</ele>
        <time>2023-07-29T14:54:48.000Z</time>
        <extensions>
          <ns3:TrackPointExtension>
            <ns3:hr>114</ns3:hr>
            <ns3:cad>0</ns3:cad>
          </ns3:TrackPointExtension>
        </extensions>
      </trkpt>
      <trkpt lat="37.771685086190700531005859375" lon="-107.70433877594769001007080078125">
        <ele>3924.39990234375</ele>
        <time>2023-07-29T14:54:49.000Z</time>
        <extensions>
          <ns3:TrackPointExtension>
            <ns3:hr>114</ns3:hr>
            <ns3:cad>0</ns3:cad>
          </ns3:TrackPointExtension>
        </extensions>
      </trkpt>
      <trkpt lat="37.77169086970388889312744140625" lon="-107.70432754419744014739990234375">
        <ele>3924.39990234375</ele>
        <time>2023-07-29T14:54:50.000Z</time>
        <extensions>
          <ns3:TrackPointExtension>
            <ns3:hr>114</ns3:hr>
            <ns3:cad>0</ns3:cad>
          </ns3:TrackPointExtension>
        </extensions>
      </trkpt>
      <trkpt lat="37.7716919593513011932373046875" lon="-107.70432469435036182403564453125">
        <ele>3924.800048828125</ele>
        <time>2023-07-29T14:54:51.000Z</time>
        <extensions>
          <ns3:TrackPointExtension>
            <ns3:hr>115</ns3:hr>
            <ns3:cad>0</ns3:cad>
          </ns3:TrackPointExtension>
        </extensions>
      </trkpt>
      <trkpt lat="37.77169807814061641693115234375" lon="-107.70431849174201488494873046875">
        <ele>3925</ele>
        <time>2023-07-29T14:54:52.000Z</time>
        <extensions>
          <ns3:TrackPointExtension>
            <ns3:hr>115</ns3:hr>
            <ns3:cad>0</ns3:cad>
          </ns3:TrackPointExtension>
        </extensions>
      </trkpt>
      <trkpt lat="37.7717033587396144866943359375" lon="-107.70431824028491973876953125">
        <ele>3925</ele>
        <time>2023-07-29T14:54:53.000Z</time>
        <extensions>
          <ns3:TrackPointExtension>
            <ns3:hr>115</ns3:hr>
            <ns3:cad>0</ns3:cad>
          </ns3:TrackPointExtension>
        </extensions>
      </trkpt>
      <trkpt lat="37.77170444838702678680419921875" lon="-107.7043200843036174774169921875">
        <ele>3925.199951171875</ele>
        <time>2023-07-29T14:54:54.000Z</time>
        <extensions>
          <ns3:TrackPointExtension>
            <ns3:hr>115</ns3:hr>
            <ns3:cad>0</ns3:cad>
          </ns3:TrackPointExtension>
        </extensions>
      </trkpt>
      <trkpt lat="37.77171232737600803375244140625" lon="-107.70431228913366794586181640625">
        <ele>3925.39990234375</ele>
        <time>2023-07-29T14:54:55.000Z</time>
        <extensions>
          <ns3:TrackPointExtension>
            <ns3:hr>115</ns3:hr>
            <ns3:cad>0</ns3:cad>
          </ns3:TrackPointExtension>
        </extensions>
      </trkpt>
      <trkpt lat="37.77171400375664234161376953125" lon="-107.70430977456271648406982421875">
        <ele>3925.39990234375</ele>
        <time>2023-07-29T14:54:56.000Z</time>
        <extensions>
          <ns3:TrackPointExtension>
            <ns3:hr>115</ns3:hr>
            <ns3:cad>0</ns3:cad>
          </ns3:TrackPointExtension>
        </extensions>
      </trkpt>
      <trkpt lat="37.77171903289854526519775390625" lon="-107.704302482306957244873046875">
        <ele>3925.800048828125</ele>
        <time>2023-07-29T14:54:57.000Z</time>
        <extensions>
          <ns3:TrackPointExtension>
            <ns3:hr>115</ns3:hr>
            <ns3:cad>0</ns3:cad>
          </ns3:TrackPointExtension>
        </extensions>
      </trkpt>
      <trkpt lat="37.77172087691724300384521484375" lon="-107.7043019793927669525146484375">
        <ele>3925.800048828125</ele>
        <time>2023-07-29T14:54:58.000Z</time>
        <extensions>
          <ns3:TrackPointExtension>
            <ns3:hr>116</ns3:hr>
            <ns3:cad>0</ns3:cad>
          </ns3:TrackPointExtension>
        </extensions>
      </trkpt>
      <trkpt lat="37.771722637116909027099609375" lon="-107.70429971627891063690185546875">
        <ele>3926.199951171875</ele>
        <time>2023-07-29T14:54:59.000Z</time>
        <extensions>
          <ns3:TrackPointExtension>
            <ns3:hr>116</ns3:hr>
            <ns3:cad>0</ns3:cad>
          </ns3:TrackPointExtension>
        </extensions>
      </trkpt>
      <trkpt lat="37.77172741480171680450439453125" lon="-107.7042935974895954132080078125">
        <ele>3926.199951171875</ele>
        <time>2023-07-29T14:55:00.000Z</time>
        <extensions>
          <ns3:TrackPointExtension>
            <ns3:hr>116</ns3:hr>
            <ns3:cad>0</ns3:cad>
          </ns3:TrackPointExtension>
        </extensions>
      </trkpt>
      <trkpt lat="37.77172858826816082000732421875" lon="-107.70429284311830997467041015625">
        <ele>3926.39990234375</ele>
        <time>2023-07-29T14:55:01.000Z</time>
        <extensions>
          <ns3:TrackPointExtension>
            <ns3:hr>116</ns3:hr>
            <ns3:cad>0</ns3:cad>
          </ns3:TrackPointExtension>
        </extensions>
      </trkpt>
      <trkpt lat="37.7717308513820171356201171875" lon="-107.70428949035704135894775390625">
        <ele>3926.60009765625</ele>
        <time>2023-07-29T14:55:02.000Z</time>
        <extensions>
          <ns3:TrackPointExtension>
            <ns3:hr>117</ns3:hr>
            <ns3:cad>0</ns3:cad>
          </ns3:TrackPointExtension>
        </extensions>
      </trkpt>
      <trkpt lat="37.7717350423336029052734375" lon="-107.704284377396106719970703125">
        <ele>3926.60009765625</ele>
        <time>2023-07-29T14:55:03.000Z</time>
        <extensions>
          <ns3:TrackPointExtension>
            <ns3:hr>117</ns3:hr>
            <ns3:cad>0</ns3:cad>
          </ns3:TrackPointExtension>
        </extensions>
      </trkpt>
      <trkpt lat="37.7717372216284275054931640625" lon="-107.70428244955837726593017578125">
        <ele>3926.800048828125</ele>
        <time>2023-07-29T14:55:04.000Z</time>
        <extensions>
          <ns3:TrackPointExtension>
            <ns3:hr>117</ns3:hr>
            <ns3:cad>0</ns3:cad>
          </ns3:TrackPointExtension>
        </extensions>
      </trkpt>
      <trkpt lat="37.77174283750355243682861328125" lon="-107.70427591167390346527099609375">
        <ele>3927.199951171875</ele>
        <time>2023-07-29T14:55:05.000Z</time>
        <extensions>
          <ns3:TrackPointExtension>
            <ns3:hr>117</ns3:hr>
            <ns3:cad>0</ns3:cad>
          </ns3:TrackPointExtension>
        </extensions>
      </trkpt>
      <trkpt lat="37.771747447550296783447265625" lon="-107.704267613589763641357421875">
        <ele>3927.60009765625</ele>
        <time>2023-07-29T14:55:06.000Z</time>
        <extensions>
          <ns3:TrackPointExtension>
            <ns3:hr>118</ns3:hr>
            <ns3:cad>0</ns3:cad>
          </ns3:TrackPointExtension>
        </extensions>
      </trkpt>
      <trkpt lat="37.7717513032257556915283203125" lon="-107.70426484756171703338623046875">
        <ele>3927.800048828125</ele>
        <time>2023-07-29T14:55:07.000Z</time>
        <extensions>
          <ns3:TrackPointExtension>
            <ns3:hr>119</ns3:hr>
            <ns3:cad>0</ns3:cad>
          </ns3:TrackPointExtension>
        </extensions>
      </trkpt>
      <trkpt lat="37.77175339870154857635498046875" lon="-107.7042650990188121795654296875">
        <ele>3927.800048828125</ele>
        <time>2023-07-29T14:55:08.000Z</time>
        <extensions>
          <ns3:TrackPointExtension>
            <ns3:hr>119</ns3:hr>
            <ns3:cad>0</ns3:cad>
          </ns3:TrackPointExtension>
        </extensions>
      </trkpt>
      <trkpt lat="37.7717559970915317535400390625" lon="-107.70426400937139987945556640625">
        <ele>3928</ele>
        <time>2023-07-29T14:55:09.000Z</time>
        <extensions>
          <ns3:TrackPointExtension>
            <ns3:hr>119</ns3:hr>
            <ns3:cad>0</ns3:cad>
          </ns3:TrackPointExtension>
        </extensions>
      </trkpt>
      <trkpt lat="37.771762199699878692626953125" lon="-107.70425780676305294036865234375">
        <ele>3928.199951171875</ele>
        <time>2023-07-29T14:55:10.000Z</time>
        <extensions>
          <ns3:TrackPointExtension>
            <ns3:hr>119</ns3:hr>
            <ns3:cad>0</ns3:cad>
          </ns3:TrackPointExtension>
        </extensions>
      </trkpt>
      <trkpt lat="37.7717680670320987701416015625" lon="-107.70425328053534030914306640625">
        <ele>3928.39990234375</ele>
        <time>2023-07-29T14:55:11.000Z</time>
        <extensions>
          <ns3:TrackPointExtension>
            <ns3:hr>119</ns3:hr>
            <ns3:cad>0</ns3:cad>
          </ns3:TrackPointExtension>
        </extensions>
      </trkpt>
      <trkpt lat="37.77177594602108001708984375" lon="-107.70424305461347103118896484375">
        <ele>3928.60009765625</ele>
        <time>2023-07-29T14:55:12.000Z</time>
        <extensions>
          <ns3:TrackPointExtension>
            <ns3:hr>119</ns3:hr>
            <ns3:cad>0</ns3:cad>
          </ns3:TrackPointExtension>
        </extensions>
      </trkpt>
      <trkpt lat="37.77177720330655574798583984375" lon="-107.70423668436706066131591796875">
        <ele>3928.800048828125</ele>
        <time>2023-07-29T14:55:13.000Z</time>
        <extensions>
          <ns3:TrackPointExtension>
            <ns3:hr>120</ns3:hr>
            <ns3:cad>0</ns3:cad>
          </ns3:TrackPointExtension>
        </extensions>
      </trkpt>
      <trkpt lat="37.77177569456398487091064453125" lon="-107.704236097633838653564453125">
        <ele>3929</ele>
        <time>2023-07-29T14:55:14.000Z</time>
        <extensions>
          <ns3:TrackPointExtension>
            <ns3:hr>120</ns3:hr>
            <ns3:cad>0</ns3:cad>
          </ns3:TrackPointExtension>
        </extensions>
      </trkpt>
      <trkpt lat="37.77177636511623859405517578125" lon="-107.70423199050128459930419921875">
        <ele>3929.199951171875</ele>
        <time>2023-07-29T14:55:15.000Z</time>
        <extensions>
          <ns3:TrackPointExtension>
            <ns3:hr>119</ns3:hr>
            <ns3:cad>0</ns3:cad>
          </ns3:TrackPointExtension>
        </extensions>
      </trkpt>
      <trkpt lat="37.77177418582141399383544921875" lon="-107.70422796718776226043701171875">
        <ele>3929.39990234375</ele>
        <time>2023-07-29T14:55:16.000Z</time>
        <extensions>
          <ns3:TrackPointExtension>
            <ns3:hr>120</ns3:hr>
            <ns3:cad>0</ns3:cad>
          </ns3:TrackPointExtension>
        </extensions>
      </trkpt>
      <trkpt lat="37.7717737667262554168701171875" lon="-107.70422637462615966796875">
        <ele>3929.60009765625</ele>
        <time>2023-07-29T14:55:17.000Z</time>
        <extensions>
          <ns3:TrackPointExtension>
            <ns3:hr>120</ns3:hr>
            <ns3:cad>0</ns3:cad>
          </ns3:TrackPointExtension>
        </extensions>
      </trkpt>
      <trkpt lat="37.771774940192699432373046875" lon="-107.70421958528459072113037109375">
        <ele>3929.800048828125</ele>
        <time>2023-07-29T14:55:18.000Z</time>
        <extensions>
          <ns3:TrackPointExtension>
            <ns3:hr>120</ns3:hr>
            <ns3:cad>0</ns3:cad>
          </ns3:TrackPointExtension>
        </extensions>
      </trkpt>
      <trkpt lat="37.77177435345947742462158203125" lon="-107.70422193221747875213623046875">
        <ele>3929.800048828125</ele>
        <time>2023-07-29T14:55:19.000Z</time>
        <extensions>
          <ns3:TrackPointExtension>
            <ns3:hr>120</ns3:hr>
            <ns3:cad>0</ns3:cad>
          </ns3:TrackPointExtension>
        </extensions>
      </trkpt>
      <trkpt lat="37.7717784605920314788818359375" lon="-107.70421673543751239776611328125">
        <ele>3930</ele>
        <time>2023-07-29T14:55:20.000Z</time>
        <extensions>
          <ns3:TrackPointExtension>
            <ns3:hr>120</ns3:hr>
            <ns3:cad>0</ns3:cad>
          </ns3:TrackPointExtension>
        </extensions>
      </trkpt>
      <trkpt lat="37.77178156189620494842529296875" lon="-107.70421287976205348968505859375">
        <ele>3930.199951171875</ele>
        <time>2023-07-29T14:55:21.000Z</time>
        <extensions>
          <ns3:TrackPointExtension>
            <ns3:hr>120</ns3:hr>
            <ns3:cad>0</ns3:cad>
          </ns3:TrackPointExtension>
        </extensions>
      </trkpt>
      <trkpt lat="37.77178323827683925628662109375" lon="-107.7042104490101337432861328125">
        <ele>3930.39990234375</ele>
        <time>2023-07-29T14:55:22.000Z</time>
        <extensions>
          <ns3:TrackPointExtension>
            <ns3:hr>120</ns3:hr>
            <ns3:cad>0</ns3:cad>
          </ns3:TrackPointExtension>
        </extensions>
      </trkpt>
      <trkpt lat="37.77178776450455188751220703125" lon="-107.70420416258275508880615234375">
        <ele>3930.39990234375</ele>
        <time>2023-07-29T14:55:23.000Z</time>
        <extensions>
          <ns3:TrackPointExtension>
            <ns3:hr>120</ns3:hr>
            <ns3:cad>0</ns3:cad>
          </ns3:TrackPointExtension>
        </extensions>
      </trkpt>
      <trkpt lat="37.771789692342281341552734375" lon="-107.704201228916645050048828125">
        <ele>3930.60009765625</ele>
        <time>2023-07-29T14:55:24.000Z</time>
        <extensions>
          <ns3:TrackPointExtension>
            <ns3:hr>120</ns3:hr>
            <ns3:cad>0</ns3:cad>
          </ns3:TrackPointExtension>
        </extensions>
      </trkpt>
      <trkpt lat="37.77179229073226451873779296875" lon="-107.7041956968605518341064453125">
        <ele>3930.800048828125</ele>
        <time>2023-07-29T14:55:25.000Z</time>
        <extensions>
          <ns3:TrackPointExtension>
            <ns3:hr>120</ns3:hr>
            <ns3:cad>0</ns3:cad>
          </ns3:TrackPointExtension>
        </extensions>
      </trkpt>
      <trkpt lat="37.77179597876965999603271484375" lon="-107.70419226028025150299072265625">
        <ele>3931</ele>
        <time>2023-07-29T14:55:26.000Z</time>
        <extensions>
          <ns3:TrackPointExtension>
            <ns3:hr>120</ns3:hr>
            <ns3:cad>0</ns3:cad>
          </ns3:TrackPointExtension>
        </extensions>
      </trkpt>
      <trkpt lat="37.771802432835102081298828125" lon="-107.70418169908225536346435546875">
        <ele>3931.199951171875</ele>
        <time>2023-07-29T14:55:27.000Z</time>
        <extensions>
          <ns3:TrackPointExtension>
            <ns3:hr>121</ns3:hr>
            <ns3:cad>0</ns3:cad>
          </ns3:TrackPointExtension>
        </extensions>
      </trkpt>
      <trkpt lat="37.77180612087249755859375" lon="-107.70417566411197185516357421875">
        <ele>3931.199951171875</ele>
        <time>2023-07-29T14:55:28.000Z</time>
        <extensions>
          <ns3:TrackPointExtension>
            <ns3:hr>121</ns3:hr>
            <ns3:cad>0</ns3:cad>
          </ns3:TrackPointExtension>
        </extensions>
      </trkpt>
      <trkpt lat="37.77181022800505161285400390625" lon="-107.70417465828359127044677734375">
        <ele>3931.60009765625</ele>
        <time>2023-07-29T14:55:29.000Z</time>
        <extensions>
          <ns3:TrackPointExtension>
            <ns3:hr>121</ns3:hr>
            <ns3:cad>0</ns3:cad>
          </ns3:TrackPointExtension>
        </extensions>
      </trkpt>
      <trkpt lat="37.77181684970855712890625" lon="-107.704164348542690277099609375">
        <ele>3931.60009765625</ele>
        <time>2023-07-29T14:55:30.000Z</time>
        <extensions>
          <ns3:TrackPointExtension>
            <ns3:hr>121</ns3:hr>
            <ns3:cad>0</ns3:cad>
          </ns3:TrackPointExtension>
        </extensions>
      </trkpt>
      <trkpt lat="37.771823219954967498779296875" lon="-107.70416007377207279205322265625">
        <ele>3931.60009765625</ele>
        <time>2023-07-29T14:55:31.000Z</time>
        <extensions>
          <ns3:TrackPointExtension>
            <ns3:hr>121</ns3:hr>
            <ns3:cad>0</ns3:cad>
          </ns3:TrackPointExtension>
        </extensions>
      </trkpt>
      <trkpt lat="37.77182699181139469146728515625" lon="-107.70415655337274074554443359375">
        <ele>3932</ele>
        <time>2023-07-29T14:55:32.000Z</time>
        <extensions>
          <ns3:TrackPointExtension>
            <ns3:hr>121</ns3:hr>
            <ns3:cad>0</ns3:cad>
          </ns3:TrackPointExtension>
        </extensions>
      </trkpt>
      <trkpt lat="37.771833278238773345947265625" lon="-107.7041464112699031829833984375">
        <ele>3932</ele>
        <time>2023-07-29T14:55:33.000Z</time>
        <extensions>
          <ns3:TrackPointExtension>
            <ns3:hr>122</ns3:hr>
            <ns3:cad>0</ns3:cad>
          </ns3:TrackPointExtension>
        </extensions>
      </trkpt>
      <trkpt lat="37.7718337811529636383056640625" lon="-107.704142890870571136474609375">
        <ele>3932.199951171875</ele>
        <time>2023-07-29T14:55:34.000Z</time>
        <extensions>
          <ns3:TrackPointExtension>
            <ns3:hr>122</ns3:hr>
            <ns3:cad>0</ns3:cad>
          </ns3:TrackPointExtension>
        </extensions>
      </trkpt>
      <trkpt lat="37.77183654718101024627685546875" lon="-107.704139538109302520751953125">
        <ele>3932.199951171875</ele>
        <time>2023-07-29T14:55:35.000Z</time>
        <extensions>
          <ns3:TrackPointExtension>
            <ns3:hr>122</ns3:hr>
            <ns3:cad>0</ns3:cad>
          </ns3:TrackPointExtension>
        </extensions>
      </trkpt>
      <trkpt lat="37.7718408219516277313232421875" lon="-107.70413056947290897369384765625">
        <ele>3932.39990234375</ele>
        <time>2023-07-29T14:55:36.000Z</time>
        <extensions>
          <ns3:TrackPointExtension>
            <ns3:hr>122</ns3:hr>
            <ns3:cad>0</ns3:cad>
          </ns3:TrackPointExtension>
        </extensions>
      </trkpt>
      <trkpt lat="37.7718421630561351776123046875" lon="-107.70412336103618144989013671875">
        <ele>3932.60009765625</ele>
        <time>2023-07-29T14:55:37.000Z</time>
        <extensions>
          <ns3:TrackPointExtension>
            <ns3:hr>122</ns3:hr>
            <ns3:cad>0</ns3:cad>
          </ns3:TrackPointExtension>
        </extensions>
      </trkpt>
      <trkpt lat="37.77184375561773777008056640625" lon="-107.70412034355103969573974609375">
        <ele>3933</ele>
        <time>2023-07-29T14:55:38.000Z</time>
        <extensions>
          <ns3:TrackPointExtension>
            <ns3:hr>122</ns3:hr>
            <ns3:cad>0</ns3:cad>
          </ns3:TrackPointExtension>
        </extensions>
      </trkpt>
      <trkpt lat="37.77184526436030864715576171875" lon="-107.70411749370396137237548828125">
        <ele>3933</ele>
        <time>2023-07-29T14:55:39.000Z</time>
        <extensions>
          <ns3:TrackPointExtension>
            <ns3:hr>122</ns3:hr>
            <ns3:cad>0</ns3:cad>
          </ns3:TrackPointExtension>
        </extensions>
      </trkpt>
      <trkpt lat="37.77184710837900638580322265625" lon="-107.704115398228168487548828125">
        <ele>3933.199951171875</ele>
        <time>2023-07-29T14:55:40.000Z</time>
        <extensions>
          <ns3:TrackPointExtension>
            <ns3:hr>122</ns3:hr>
            <ns3:cad>0</ns3:cad>
          </ns3:TrackPointExtension>
        </extensions>
      </trkpt>
      <trkpt lat="37.77184627018868923187255859375" lon="-107.704114057123661041259765625">
        <ele>3933.39990234375</ele>
        <time>2023-07-29T14:55:41.000Z</time>
        <extensions>
          <ns3:TrackPointExtension>
            <ns3:hr>122</ns3:hr>
            <ns3:cad>0</ns3:cad>
          </ns3:TrackPointExtension>
        </extensions>
      </trkpt>
      <trkpt lat="37.7718445099890232086181640625" lon="-107.70411363802850246429443359375">
        <ele>3933.39990234375</ele>
        <time>2023-07-29T14:55:42.000Z</time>
        <extensions>
          <ns3:TrackPointExtension>
            <ns3:hr>122</ns3:hr>
            <ns3:cad>0</ns3:cad>
          </ns3:TrackPointExtension>
        </extensions>
      </trkpt>
      <trkpt lat="37.77184090577065944671630859375" lon="-107.704110033810138702392578125">
        <ele>3933.60009765625</ele>
        <time>2023-07-29T14:55:43.000Z</time>
        <extensions>
          <ns3:TrackPointExtension>
            <ns3:hr>122</ns3:hr>
            <ns3:cad>0</ns3:cad>
          </ns3:TrackPointExtension>
        </extensions>
      </trkpt>
      <trkpt lat="37.7718445099890232086181640625" lon="-107.70410844124853610992431640625">
        <ele>3934</ele>
        <time>2023-07-29T14:55:44.000Z</time>
        <extensions>
          <ns3:TrackPointExtension>
            <ns3:hr>122</ns3:hr>
            <ns3:cad>0</ns3:cad>
          </ns3:TrackPointExtension>
        </extensions>
      </trkpt>
      <trkpt lat="37.77185104787349700927734375" lon="-107.70409955643117427825927734375">
        <ele>3934</ele>
        <time>2023-07-29T14:55:45.000Z</time>
        <extensions>
          <ns3:TrackPointExtension>
            <ns3:hr>122</ns3:hr>
            <ns3:cad>0</ns3:cad>
          </ns3:TrackPointExtension>
        </extensions>
      </trkpt>
      <trkpt lat="37.77185616083443164825439453125" lon="-107.7040954492986202239990234375">
        <ele>3934.199951171875</ele>
        <time>2023-07-29T14:55:46.000Z</time>
        <extensions>
          <ns3:TrackPointExtension>
            <ns3:hr>122</ns3:hr>
            <ns3:cad>0</ns3:cad>
          </ns3:TrackPointExtension>
        </extensions>
      </trkpt>
      <trkpt lat="37.771864794194698333740234375" lon="-107.70408798940479755401611328125">
        <ele>3934.60009765625</ele>
        <time>2023-07-29T14:55:47.000Z</time>
        <extensions>
          <ns3:TrackPointExtension>
            <ns3:hr>122</ns3:hr>
            <ns3:cad>0</ns3:cad>
          </ns3:TrackPointExtension>
        </extensions>
      </trkpt>
      <trkpt lat="37.77186621911823749542236328125" lon="-107.70408966578543186187744140625">
        <ele>3934.800048828125</ele>
        <time>2023-07-29T14:55:48.000Z</time>
        <extensions>
          <ns3:TrackPointExtension>
            <ns3:hr>122</ns3:hr>
            <ns3:cad>0</ns3:cad>
          </ns3:TrackPointExtension>
        </extensions>
      </trkpt>
      <trkpt lat="37.7718673087656497955322265625" lon="-107.70408798940479755401611328125">
        <ele>3935</ele>
        <time>2023-07-29T14:55:49.000Z</time>
        <extensions>
          <ns3:TrackPointExtension>
            <ns3:hr>122</ns3:hr>
            <ns3:cad>0</ns3:cad>
          </ns3:TrackPointExtension>
        </extensions>
      </trkpt>
      <trkpt lat="37.771869488060474395751953125" lon="-107.70408530719578266143798828125">
        <ele>3935</ele>
        <time>2023-07-29T14:55:50.000Z</time>
        <extensions>
          <ns3:TrackPointExtension>
            <ns3:hr>122</ns3:hr>
            <ns3:cad>0</ns3:cad>
          </ns3:TrackPointExtension>
        </extensions>
      </trkpt>
      <trkpt lat="37.7718709968030452728271484375" lon="-107.7040853910148143768310546875">
        <ele>3935.199951171875</ele>
        <time>2023-07-29T14:55:51.000Z</time>
        <extensions>
          <ns3:TrackPointExtension>
            <ns3:hr>122</ns3:hr>
            <ns3:cad>0</ns3:cad>
          </ns3:TrackPointExtension>
        </extensions>
      </trkpt>
      <trkpt lat="37.77188063599169254302978515625" lon="-107.70407357253134250640869140625">
        <ele>3935.39990234375</ele>
        <time>2023-07-29T14:55:52.000Z</time>
        <extensions>
          <ns3:TrackPointExtension>
            <ns3:hr>122</ns3:hr>
            <ns3:cad>0</ns3:cad>
          </ns3:TrackPointExtension>
        </extensions>
      </trkpt>
      <trkpt lat="37.7718807198107242584228515625" lon="-107.70407055504620075225830078125">
        <ele>3935.39990234375</ele>
        <time>2023-07-29T14:55:53.000Z</time>
        <extensions>
          <ns3:TrackPointExtension>
            <ns3:hr>122</ns3:hr>
            <ns3:cad>0</ns3:cad>
          </ns3:TrackPointExtension>
        </extensions>
      </trkpt>
      <trkpt lat="37.771883904933929443359375" lon="-107.70406083203852176666259765625">
        <ele>3935.60009765625</ele>
        <time>2023-07-29T14:55:54.000Z</time>
        <extensions>
          <ns3:TrackPointExtension>
            <ns3:hr>122</ns3:hr>
            <ns3:cad>0</ns3:cad>
          </ns3:TrackPointExtension>
        </extensions>
      </trkpt>
      <trkpt lat="37.771883569657802581787109375" lon="-107.7040545456111431121826171875">
        <ele>3935.800048828125</ele>
        <time>2023-07-29T14:55:55.000Z</time>
        <extensions>
          <ns3:TrackPointExtension>
            <ns3:hr>123</ns3:hr>
            <ns3:cad>0</ns3:cad>
          </ns3:TrackPointExtension>
        </extensions>
      </trkpt>
      <trkpt lat="37.77189128100872039794921875" lon="-107.7040441520512104034423828125">
        <ele>3936</ele>
        <time>2023-07-29T14:55:56.000Z</time>
        <extensions>
          <ns3:TrackPointExtension>
            <ns3:hr>123</ns3:hr>
            <ns3:cad>0</ns3:cad>
          </ns3:TrackPointExtension>
        </extensions>
      </trkpt>
      <trkpt lat="37.77189387939870357513427734375" lon="-107.7040320821106433868408203125">
        <ele>3936</ele>
        <time>2023-07-29T14:55:57.000Z</time>
        <extensions>
          <ns3:TrackPointExtension>
            <ns3:hr>122</ns3:hr>
            <ns3:cad>0</ns3:cad>
          </ns3:TrackPointExtension>
        </extensions>
      </trkpt>
      <trkpt lat="37.771896310150623321533203125" lon="-107.7040287293493747711181640625">
        <ele>3936.39990234375</ele>
        <time>2023-07-29T14:55:58.000Z</time>
        <extensions>
          <ns3:TrackPointExtension>
            <ns3:hr>122</ns3:hr>
            <ns3:cad>0</ns3:cad>
          </ns3:TrackPointExtension>
        </extensions>
      </trkpt>
      <trkpt lat="37.77189941145479679107666015625" lon="-107.70402378402650356292724609375">
        <ele>3936.39990234375</ele>
        <time>2023-07-29T14:55:59.000Z</time>
        <extensions>
          <ns3:TrackPointExtension>
            <ns3:hr>122</ns3:hr>
            <ns3:cad>0</ns3:cad>
          </ns3:TrackPointExtension>
        </extensions>
      </trkpt>
      <trkpt lat="37.771909050643444061279296875" lon="-107.70400919951498508453369140625">
        <ele>3936.39990234375</ele>
        <time>2023-07-29T14:56:00.000Z</time>
        <extensions>
          <ns3:TrackPointExtension>
            <ns3:hr>122</ns3:hr>
            <ns3:cad>0</ns3:cad>
          </ns3:TrackPointExtension>
        </extensions>
      </trkpt>
      <trkpt lat="37.77191131375730037689208984375" lon="-107.7040082775056362152099609375">
        <ele>3936.800048828125</ele>
        <time>2023-07-29T14:56:01.000Z</time>
        <extensions>
          <ns3:TrackPointExtension>
            <ns3:hr>122</ns3:hr>
            <ns3:cad>0</ns3:cad>
          </ns3:TrackPointExtension>
        </extensions>
      </trkpt>
      <trkpt lat="37.7719189412891864776611328125" lon="-107.7039965428411960601806640625">
        <ele>3937</ele>
        <time>2023-07-29T14:56:02.000Z</time>
        <extensions>
          <ns3:TrackPointExtension>
            <ns3:hr>122</ns3:hr>
            <ns3:cad>0</ns3:cad>
          </ns3:TrackPointExtension>
        </extensions>
      </trkpt>
      <trkpt lat="37.77192137204110622406005859375" lon="-107.703996039927005767822265625">
        <ele>3937</ele>
        <time>2023-07-29T14:56:03.000Z</time>
        <extensions>
          <ns3:TrackPointExtension>
            <ns3:hr>122</ns3:hr>
            <ns3:cad>54</ns3:cad>
          </ns3:TrackPointExtension>
        </extensions>
      </trkpt>
      <trkpt lat="37.77192992158234119415283203125" lon="-107.703986652195453643798828125">
        <ele>3937.199951171875</ele>
        <time>2023-07-29T14:56:04.000Z</time>
        <extensions>
          <ns3:TrackPointExtension>
            <ns3:hr>122</ns3:hr>
            <ns3:cad>54</ns3:cad>
          </ns3:TrackPointExtension>
        </extensions>
      </trkpt>
      <trkpt lat="37.771934531629085540771484375" lon="-107.7039821259677410125732421875">
        <ele>3937.39990234375</ele>
        <time>2023-07-29T14:56:05.000Z</time>
        <extensions>
          <ns3:TrackPointExtension>
            <ns3:hr>122</ns3:hr>
            <ns3:cad>0</ns3:cad>
          </ns3:TrackPointExtension>
        </extensions>
      </trkpt>
      <trkpt lat="37.7719370462000370025634765625" lon="-107.7039824612438678741455078125">
        <ele>3937.60009765625</ele>
        <time>2023-07-29T14:56:06.000Z</time>
        <extensions>
          <ns3:TrackPointExtension>
            <ns3:hr>122</ns3:hr>
            <ns3:cad>0</ns3:cad>
          </ns3:TrackPointExtension>
        </extensions>
      </trkpt>
      <trkpt lat="37.77194115333259105682373046875" lon="-107.70397894084453582763671875">
        <ele>3937.800048828125</ele>
        <time>2023-07-29T14:56:07.000Z</time>
        <extensions>
          <ns3:TrackPointExtension>
            <ns3:hr>122</ns3:hr>
            <ns3:cad>0</ns3:cad>
          </ns3:TrackPointExtension>
        </extensions>
      </trkpt>
      <trkpt lat="37.771954648196697235107421875" lon="-107.703965865075588226318359375">
        <ele>3938</ele>
        <time>2023-07-29T14:56:08.000Z</time>
        <extensions>
          <ns3:TrackPointExtension>
            <ns3:hr>121</ns3:hr>
            <ns3:cad>0</ns3:cad>
          </ns3:TrackPointExtension>
        </extensions>
      </trkpt>
      <trkpt lat="37.77196076698601245880126953125" lon="-107.70396016538143157958984375">
        <ele>3938</ele>
        <time>2023-07-29T14:56:09.000Z</time>
        <extensions>
          <ns3:TrackPointExtension>
            <ns3:hr>122</ns3:hr>
            <ns3:cad>0</ns3:cad>
          </ns3:TrackPointExtension>
        </extensions>
      </trkpt>
      <trkpt lat="37.7719685621559619903564453125" lon="-107.7039539627730846405029296875">
        <ele>3938.199951171875</ele>
        <time>2023-07-29T14:56:10.000Z</time>
        <extensions>
          <ns3:TrackPointExtension>
            <ns3:hr>122</ns3:hr>
            <ns3:cad>0</ns3:cad>
          </ns3:TrackPointExtension>
        </extensions>
      </trkpt>
      <trkpt lat="37.7719735912978649139404296875" lon="-107.70394918508827686309814453125">
        <ele>3938.199951171875</ele>
        <time>2023-07-29T14:56:11.000Z</time>
        <extensions>
          <ns3:TrackPointExtension>
            <ns3:hr>122</ns3:hr>
            <ns3:cad>0</ns3:cad>
          </ns3:TrackPointExtension>
        </extensions>
      </trkpt>
      <trkpt lat="37.77197853662073612213134765625" lon="-107.70394633524119853973388671875">
        <ele>3938.39990234375</ele>
        <time>2023-07-29T14:56:12.000Z</time>
        <extensions>
          <ns3:TrackPointExtension>
            <ns3:hr>122</ns3:hr>
            <ns3:cad>0</ns3:cad>
          </ns3:TrackPointExtension>
        </extensions>
      </trkpt>
      <trkpt lat="37.771985493600368499755859375" lon="-107.7039385400712490081787109375">
        <ele>3938.60009765625</ele>
        <time>2023-07-29T14:56:13.000Z</time>
        <extensions>
          <ns3:TrackPointExtension>
            <ns3:hr>122</ns3:hr>
            <ns3:cad>0</ns3:cad>
          </ns3:TrackPointExtension>
        </extensions>
      </trkpt>
      <trkpt lat="37.77199647389352321624755859375" lon="-107.703925631940364837646484375">
        <ele>3938.800048828125</ele>
        <time>2023-07-29T14:56:14.000Z</time>
        <extensions>
          <ns3:TrackPointExtension>
            <ns3:hr>122</ns3:hr>
            <ns3:cad>0</ns3:cad>
          </ns3:TrackPointExtension>
        </extensions>
      </trkpt>
      <trkpt lat="37.77199747972190380096435546875" lon="-107.70392353646457195281982421875">
        <ele>3939</ele>
        <time>2023-07-29T14:56:15.000Z</time>
        <extensions>
          <ns3:TrackPointExtension>
            <ns3:hr>122</ns3:hr>
            <ns3:cad>0</ns3:cad>
          </ns3:TrackPointExtension>
        </extensions>
      </trkpt>
      <trkpt lat="37.77200116775929927825927734375" lon="-107.70392018370330333709716796875">
        <ele>3939.199951171875</ele>
        <time>2023-07-29T14:56:16.000Z</time>
        <extensions>
          <ns3:TrackPointExtension>
            <ns3:hr>122</ns3:hr>
            <ns3:cad>0</ns3:cad>
          </ns3:TrackPointExtension>
        </extensions>
      </trkpt>
      <trkpt lat="37.77199991047382354736328125" lon="-107.70392152480781078338623046875">
        <ele>3939.199951171875</ele>
        <time>2023-07-29T14:56:17.000Z</time>
        <extensions>
          <ns3:TrackPointExtension>
            <ns3:hr>122</ns3:hr>
            <ns3:cad>0</ns3:cad>
          </ns3:TrackPointExtension>
        </extensions>
      </trkpt>
      <trkpt lat="37.771996892988681793212890625" lon="-107.7039246261119842529296875">
        <ele>3939.39990234375</ele>
        <time>2023-07-29T14:56:18.000Z</time>
        <extensions>
          <ns3:TrackPointExtension>
            <ns3:hr>122</ns3:hr>
            <ns3:cad>0</ns3:cad>
          </ns3:TrackPointExtension>
        </extensions>
      </trkpt>
      <trkpt lat="37.7719900198280811309814453125" lon="-107.70393057726323604583740234375">
        <ele>3939.60009765625</ele>
        <time>2023-07-29T14:56:19.000Z</time>
        <extensions>
          <ns3:TrackPointExtension>
            <ns3:hr>122</ns3:hr>
            <ns3:cad>0</ns3:cad>
          </ns3:TrackPointExtension>
        </extensions>
      </trkpt>
      <trkpt lat="37.7719859965145587921142578125" lon="-107.70393066108226776123046875">
        <ele>3939.800048828125</ele>
        <time>2023-07-29T14:56:20.000Z</time>
        <extensions>
          <ns3:TrackPointExtension>
            <ns3:hr>122</ns3:hr>
            <ns3:cad>0</ns3:cad>
          </ns3:TrackPointExtension>
        </extensions>
      </trkpt>
      <trkpt lat="37.771980464458465576171875" lon="-107.70392806269228458404541015625">
        <ele>3940</ele>
        <time>2023-07-29T14:56:21.000Z</time>
        <extensions>
          <ns3:TrackPointExtension>
            <ns3:hr>122</ns3:hr>
            <ns3:cad>0</ns3:cad>
          </ns3:TrackPointExtension>
        </extensions>
      </trkpt>
      <trkpt lat="37.77198071591556072235107421875" lon="-107.70392856560647487640380859375">
        <ele>3940.39990234375</ele>
        <time>2023-07-29T14:56:22.000Z</time>
        <extensions>
          <ns3:TrackPointExtension>
            <ns3:hr>122</ns3:hr>
            <ns3:cad>0</ns3:cad>
          </ns3:TrackPointExtension>
        </extensions>
      </trkpt>
      <trkpt lat="37.77198004536330699920654296875" lon="-107.70392722450196743011474609375">
        <ele>3940.39990234375</ele>
        <time>2023-07-29T14:56:23.000Z</time>
        <extensions>
          <ns3:TrackPointExtension>
            <ns3:hr>122</ns3:hr>
            <ns3:cad>0</ns3:cad>
          </ns3:TrackPointExtension>
        </extensions>
      </trkpt>
      <trkpt lat="37.7719809673726558685302734375" lon="-107.7039278112351894378662109375">
        <ele>3940.39990234375</ele>
        <time>2023-07-29T14:56:24.000Z</time>
        <extensions>
          <ns3:TrackPointExtension>
            <ns3:hr>122</ns3:hr>
            <ns3:cad>0</ns3:cad>
          </ns3:TrackPointExtension>
        </extensions>
      </trkpt>
      <trkpt lat="37.77197987772524356842041015625" lon="-107.70392152480781078338623046875">
        <ele>3940.39990234375</ele>
        <time>2023-07-29T14:56:25.000Z</time>
        <extensions>
          <ns3:TrackPointExtension>
            <ns3:hr>121</ns3:hr>
            <ns3:cad>0</ns3:cad>
          </ns3:TrackPointExtension>
        </extensions>
      </trkpt>
      <trkpt lat="37.7719802968204021453857421875" lon="-107.70391733385622501373291015625">
        <ele>3940.39990234375</ele>
        <time>2023-07-29T14:56:26.000Z</time>
        <extensions>
          <ns3:TrackPointExtension>
            <ns3:hr>121</ns3:hr>
            <ns3:cad>0</ns3:cad>
          </ns3:TrackPointExtension>
        </extensions>
      </trkpt>
      <trkpt lat="37.771979458630084991455078125" lon="-107.70390694029629230499267578125">
        <ele>3940.39990234375</ele>
        <time>2023-07-29T14:56:27.000Z</time>
        <extensions>
          <ns3:TrackPointExtension>
            <ns3:hr>120</ns3:hr>
            <ns3:cad>0</ns3:cad>
          </ns3:TrackPointExtension>
        </extensions>
      </trkpt>
      <trkpt lat="37.77197442948818206787109375" lon="-107.7038936130702495574951171875">
        <ele>3940.39990234375</ele>
        <time>2023-07-29T14:56:28.000Z</time>
        <extensions>
          <ns3:TrackPointExtension>
            <ns3:hr>120</ns3:hr>
            <ns3:cad>0</ns3:cad>
          </ns3:TrackPointExtension>
        </extensions>
      </trkpt>
      <trkpt lat="37.77197300456464290618896484375" lon="-107.7038882486522197723388671875">
        <ele>3940.39990234375</ele>
        <time>2023-07-29T14:56:29.000Z</time>
        <extensions>
          <ns3:TrackPointExtension>
            <ns3:hr>120</ns3:hr>
            <ns3:cad>0</ns3:cad>
          </ns3:TrackPointExtension>
        </extensions>
      </trkpt>
      <trkpt lat="37.77197015471756458282470703125" lon="-107.70388078875839710235595703125">
        <ele>3940.39990234375</ele>
        <time>2023-07-29T14:56:30.000Z</time>
        <extensions>
          <ns3:TrackPointExtension>
            <ns3:hr>120</ns3:hr>
            <ns3:cad>0</ns3:cad>
          </ns3:TrackPointExtension>
        </extensions>
      </trkpt>
      <trkpt lat="37.7719699032604694366455078125" lon="-107.703875340521335601806640625">
        <ele>3940.60009765625</ele>
        <time>2023-07-29T14:56:31.000Z</time>
        <extensions>
          <ns3:TrackPointExtension>
            <ns3:hr>119</ns3:hr>
            <ns3:cad>0</ns3:cad>
          </ns3:TrackPointExtension>
        </extensions>
      </trkpt>
      <trkpt lat="37.77196562848985195159912109375" lon="-107.7038664557039737701416015625">
        <ele>3940.800048828125</ele>
        <time>2023-07-29T14:56:32.000Z</time>
        <extensions>
          <ns3:TrackPointExtension>
            <ns3:hr>119</ns3:hr>
            <ns3:cad>0</ns3:cad>
          </ns3:TrackPointExtension>
        </extensions>
      </trkpt>
      <trkpt lat="37.77196428738534450531005859375" lon="-107.70386402495205402374267578125">
        <ele>3940.800048828125</ele>
        <time>2023-07-29T14:56:33.000Z</time>
        <extensions>
          <ns3:TrackPointExtension>
            <ns3:hr>119</ns3:hr>
            <ns3:cad>0</ns3:cad>
          </ns3:TrackPointExtension>
        </extensions>
      </trkpt>
      <trkpt lat="37.77196294628083705902099609375" lon="-107.70386117510497570037841796875">
        <ele>3941</ele>
        <time>2023-07-29T14:56:34.000Z</time>
        <extensions>
          <ns3:TrackPointExtension>
            <ns3:hr>119</ns3:hr>
            <ns3:cad>0</ns3:cad>
          </ns3:TrackPointExtension>
        </extensions>
      </trkpt>
      <trkpt lat="37.7719601802527904510498046875" lon="-107.7038570679724216461181640625">
        <ele>3941.199951171875</ele>
        <time>2023-07-29T14:56:35.000Z</time>
        <extensions>
          <ns3:TrackPointExtension>
            <ns3:hr>119</ns3:hr>
            <ns3:cad>0</ns3:cad>
          </ns3:TrackPointExtension>
        </extensions>
      </trkpt>
      <trkpt lat="37.7719595097005367279052734375" lon="-107.703855223953723907470703125">
        <ele>3941.39990234375</ele>
        <time>2023-07-29T14:56:36.000Z</time>
        <extensions>
          <ns3:TrackPointExtension>
            <ns3:hr>118</ns3:hr>
            <ns3:cad>0</ns3:cad>
          </ns3:TrackPointExtension>
        </extensions>
      </trkpt>
      <trkpt lat="37.7719564922153949737548828125" lon="-107.70384776405990123748779296875">
        <ele>3941.60009765625</ele>
        <time>2023-07-29T14:56:37.000Z</time>
        <extensions>
          <ns3:TrackPointExtension>
            <ns3:hr>118</ns3:hr>
            <ns3:cad>0</ns3:cad>
          </ns3:TrackPointExtension>
        </extensions>
      </trkpt>
      <trkpt lat="37.77195540256798267364501953125" lon="-107.7038441598415374755859375">
        <ele>3941.800048828125</ele>
        <time>2023-07-29T14:56:38.000Z</time>
        <extensions>
          <ns3:TrackPointExtension>
            <ns3:hr>118</ns3:hr>
            <ns3:cad>0</ns3:cad>
          </ns3:TrackPointExtension>
        </extensions>
      </trkpt>
      <trkpt lat="37.771953977644443511962890625" lon="-107.70384323783218860626220703125">
        <ele>3942</ele>
        <time>2023-07-29T14:56:39.000Z</time>
        <extensions>
          <ns3:TrackPointExtension>
            <ns3:hr>117</ns3:hr>
            <ns3:cad>0</ns3:cad>
          </ns3:TrackPointExtension>
        </extensions>
      </trkpt>
      <trkpt lat="37.7719541452825069427490234375" lon="-107.70384239964187145233154296875">
        <ele>3942.199951171875</ele>
        <time>2023-07-29T14:56:40.000Z</time>
        <extensions>
          <ns3:TrackPointExtension>
            <ns3:hr>116</ns3:hr>
            <ns3:cad>0</ns3:cad>
          </ns3:TrackPointExtension>
        </extensions>
      </trkpt>
      <trkpt lat="37.77194970287382602691650390625" lon="-107.7038349397480487823486328125">
        <ele>3942.39990234375</ele>
        <time>2023-07-29T14:56:41.000Z</time>
        <extensions>
          <ns3:TrackPointExtension>
            <ns3:hr>115</ns3:hr>
            <ns3:cad>0</ns3:cad>
          </ns3:TrackPointExtension>
        </extensions>
      </trkpt>
      <trkpt lat="37.77194400317966938018798828125" lon="-107.703824378550052642822265625">
        <ele>3942.60009765625</ele>
        <time>2023-07-29T14:56:42.000Z</time>
        <extensions>
          <ns3:TrackPointExtension>
            <ns3:hr>114</ns3:hr>
            <ns3:cad>0</ns3:cad>
          </ns3:TrackPointExtension>
        </extensions>
      </trkpt>
      <trkpt lat="37.77193713001906871795654296875" lon="-107.7038198523223400115966796875">
        <ele>3942.60009765625</ele>
        <time>2023-07-29T14:56:43.000Z</time>
        <extensions>
          <ns3:TrackPointExtension>
            <ns3:hr>113</ns3:hr>
            <ns3:cad>0</ns3:cad>
          </ns3:TrackPointExtension>
        </extensions>
      </trkpt>
      <trkpt lat="37.771932184696197509765625" lon="-107.70381390117108821868896484375">
        <ele>3942.800048828125</ele>
        <time>2023-07-29T14:56:44.000Z</time>
        <extensions>
          <ns3:TrackPointExtension>
            <ns3:hr>113</ns3:hr>
            <ns3:cad>0</ns3:cad>
          </ns3:TrackPointExtension>
        </extensions>
      </trkpt>
      <trkpt lat="37.77192640118300914764404296875" lon="-107.70380795001983642578125">
        <ele>3942.800048828125</ele>
        <time>2023-07-29T14:56:45.000Z</time>
        <extensions>
          <ns3:TrackPointExtension>
            <ns3:hr>113</ns3:hr>
            <ns3:cad>0</ns3:cad>
          </ns3:TrackPointExtension>
        </extensions>
      </trkpt>
      <trkpt lat="37.77192623354494571685791015625" lon="-107.70380635745823383331298828125">
        <ele>3943.199951171875</ele>
        <time>2023-07-29T14:56:46.000Z</time>
        <extensions>
          <ns3:TrackPointExtension>
            <ns3:hr>114</ns3:hr>
            <ns3:cad>0</ns3:cad>
          </ns3:TrackPointExtension>
        </extensions>
      </trkpt>
      <trkpt lat="37.7719227969646453857421875" lon="-107.70379696972668170928955078125">
        <ele>3943.39990234375</ele>
        <time>2023-07-29T14:56:47.000Z</time>
        <extensions>
          <ns3:TrackPointExtension>
            <ns3:hr>114</ns3:hr>
            <ns3:cad>0</ns3:cad>
          </ns3:TrackPointExtension>
        </extensions>
      </trkpt>
      <trkpt lat="37.7719176001846790313720703125" lon="-107.70379076711833477020263671875">
        <ele>3943.60009765625</ele>
        <time>2023-07-29T14:56:48.000Z</time>
        <extensions>
          <ns3:TrackPointExtension>
            <ns3:hr>115</ns3:hr>
            <ns3:cad>0</ns3:cad>
          </ns3:TrackPointExtension>
        </extensions>
      </trkpt>
      <trkpt lat="37.77191366069018840789794921875" lon="-107.70378724671900272369384765625">
        <ele>3944</ele>
        <time>2023-07-29T14:56:49.000Z</time>
        <extensions>
          <ns3:TrackPointExtension>
            <ns3:hr>115</ns3:hr>
            <ns3:cad>0</ns3:cad>
          </ns3:TrackPointExtension>
        </extensions>
      </trkpt>
      <trkpt lat="37.7719093859195709228515625" lon="-107.7037806250154972076416015625">
        <ele>3944</ele>
        <time>2023-07-29T14:56:50.000Z</time>
        <extensions>
          <ns3:TrackPointExtension>
            <ns3:hr>115</ns3:hr>
            <ns3:cad>0</ns3:cad>
          </ns3:TrackPointExtension>
        </extensions>
      </trkpt>
      <trkpt lat="37.77190678752958774566650390625" lon="-107.703776769340038299560546875">
        <ele>3944.199951171875</ele>
        <time>2023-07-29T14:56:51.000Z</time>
        <extensions>
          <ns3:TrackPointExtension>
            <ns3:hr>115</ns3:hr>
            <ns3:cad>0</ns3:cad>
          </ns3:TrackPointExtension>
        </extensions>
      </trkpt>
      <trkpt lat="37.77190544642508029937744140625" lon="-107.70377232693135738372802734375">
        <ele>3944.60009765625</ele>
        <time>2023-07-29T14:56:52.000Z</time>
        <extensions>
          <ns3:TrackPointExtension>
            <ns3:hr>115</ns3:hr>
            <ns3:cad>0</ns3:cad>
          </ns3:TrackPointExtension>
        </extensions>
      </trkpt>
      <trkpt lat="37.77190737426280975341796875" lon="-107.70376981236040592193603515625">
        <ele>3944.60009765625</ele>
        <time>2023-07-29T14:56:53.000Z</time>
        <extensions>
          <ns3:TrackPointExtension>
            <ns3:hr>115</ns3:hr>
            <ns3:cad>0</ns3:cad>
          </ns3:TrackPointExtension>
        </extensions>
      </trkpt>
      <trkpt lat="37.77191407978534698486328125" lon="-107.70376696251332759857177734375">
        <ele>3944.60009765625</ele>
        <time>2023-07-29T14:56:54.000Z</time>
        <extensions>
          <ns3:TrackPointExtension>
            <ns3:hr>116</ns3:hr>
            <ns3:cad>0</ns3:cad>
          </ns3:TrackPointExtension>
        </extensions>
      </trkpt>
      <trkpt lat="37.77192003093659877777099609375" lon="-107.7037615142762660980224609375">
        <ele>3945</ele>
        <time>2023-07-29T14:56:55.000Z</time>
        <extensions>
          <ns3:TrackPointExtension>
            <ns3:hr>116</ns3:hr>
            <ns3:cad>0</ns3:cad>
          </ns3:TrackPointExtension>
        </extensions>
      </trkpt>
      <trkpt lat="37.7719269879162311553955078125" lon="-107.70375992171466350555419921875">
        <ele>3945</ele>
        <time>2023-07-29T14:56:56.000Z</time>
        <extensions>
          <ns3:TrackPointExtension>
            <ns3:hr>116</ns3:hr>
            <ns3:cad>0</ns3:cad>
          </ns3:TrackPointExtension>
        </extensions>
      </trkpt>
      <trkpt lat="37.77193360961973667144775390625" lon="-107.7037494443356990814208984375">
        <ele>3945.199951171875</ele>
        <time>2023-07-29T14:56:57.000Z</time>
        <extensions>
          <ns3:TrackPointExtension>
            <ns3:hr>116</ns3:hr>
            <ns3:cad>0</ns3:cad>
          </ns3:TrackPointExtension>
        </extensions>
      </trkpt>
      <trkpt lat="37.77193645946681499481201171875" lon="-107.7037400566041469573974609375">
        <ele>3945.39990234375</ele>
        <time>2023-07-29T14:56:58.000Z</time>
        <extensions>
          <ns3:TrackPointExtension>
            <ns3:hr>116</ns3:hr>
            <ns3:cad>0</ns3:cad>
          </ns3:TrackPointExtension>
        </extensions>
      </trkpt>
      <trkpt lat="37.7719367109239101409912109375" lon="-107.70373485982418060302734375">
        <ele>3945.39990234375</ele>
        <time>2023-07-29T14:56:59.000Z</time>
        <extensions>
          <ns3:TrackPointExtension>
            <ns3:hr>116</ns3:hr>
            <ns3:cad>0</ns3:cad>
          </ns3:TrackPointExtension>
        </extensions>
      </trkpt>
      <trkpt lat="37.7719336934387683868408203125" lon="-107.70372622646391391754150390625">
        <ele>3945.60009765625</ele>
        <time>2023-07-29T14:57:00.000Z</time>
        <extensions>
          <ns3:TrackPointExtension>
            <ns3:hr>116</ns3:hr>
            <ns3:cad>0</ns3:cad>
          </ns3:TrackPointExtension>
        </extensions>
      </trkpt>
      <trkpt lat="37.77193109504878520965576171875" lon="-107.70371876657009124755859375">
        <ele>3945.800048828125</ele>
        <time>2023-07-29T14:57:01.000Z</time>
        <extensions>
          <ns3:TrackPointExtension>
            <ns3:hr>116</ns3:hr>
            <ns3:cad>0</ns3:cad>
          </ns3:TrackPointExtension>
        </extensions>
      </trkpt>
      <trkpt lat="37.77192992158234119415283203125" lon="-107.7037098817527294158935546875">
        <ele>3945.800048828125</ele>
        <time>2023-07-29T14:57:02.000Z</time>
        <extensions>
          <ns3:TrackPointExtension>
            <ns3:hr>116</ns3:hr>
            <ns3:cad>0</ns3:cad>
          </ns3:TrackPointExtension>
        </extensions>
      </trkpt>
      <trkpt lat="37.7719281613826751708984375" lon="-107.70370745100080966949462890625">
        <ele>3946.199951171875</ele>
        <time>2023-07-29T14:57:03.000Z</time>
        <extensions>
          <ns3:TrackPointExtension>
            <ns3:hr>117</ns3:hr>
            <ns3:cad>0</ns3:cad>
          </ns3:TrackPointExtension>
        </extensions>
      </trkpt>
      <trkpt lat="37.77192480862140655517578125" lon="-107.70370510406792163848876953125">
        <ele>3946.39990234375</ele>
        <time>2023-07-29T14:57:04.000Z</time>
        <extensions>
          <ns3:TrackPointExtension>
            <ns3:hr>117</ns3:hr>
            <ns3:cad>0</ns3:cad>
          </ns3:TrackPointExtension>
        </extensions>
      </trkpt>
      <trkpt lat="37.77192254550755023956298828125" lon="-107.70369940437376499176025390625">
        <ele>3946.60009765625</ele>
        <time>2023-07-29T14:57:05.000Z</time>
        <extensions>
          <ns3:TrackPointExtension>
            <ns3:hr>117</ns3:hr>
            <ns3:cad>0</ns3:cad>
          </ns3:TrackPointExtension>
        </extensions>
      </trkpt>
      <trkpt lat="37.77191986329853534698486328125" lon="-107.70370024256408214569091796875">
        <ele>3947</ele>
        <time>2023-07-29T14:57:06.000Z</time>
        <extensions>
          <ns3:TrackPointExtension>
            <ns3:hr>117</ns3:hr>
            <ns3:cad>0</ns3:cad>
          </ns3:TrackPointExtension>
        </extensions>
      </trkpt>
      <trkpt lat="37.7719169296324253082275390625" lon="-107.7036988176405429840087890625">
        <ele>3947</ele>
        <time>2023-07-29T14:57:07.000Z</time>
        <extensions>
          <ns3:TrackPointExtension>
            <ns3:hr>118</ns3:hr>
            <ns3:cad>0</ns3:cad>
          </ns3:TrackPointExtension>
        </extensions>
      </trkpt>
      <trkpt lat="37.7719149179756641387939453125" lon="-107.70369521342217922210693359375">
        <ele>3947</ele>
        <time>2023-07-29T14:57:08.000Z</time>
        <extensions>
          <ns3:TrackPointExtension>
            <ns3:hr>118</ns3:hr>
            <ns3:cad>0</ns3:cad>
          </ns3:TrackPointExtension>
        </extensions>
      </trkpt>
      <trkpt lat="37.77191114611923694610595703125" lon="-107.70368481986224651336669921875">
        <ele>3947.39990234375</ele>
        <time>2023-07-29T14:57:09.000Z</time>
        <extensions>
          <ns3:TrackPointExtension>
            <ns3:hr>118</ns3:hr>
            <ns3:cad>0</ns3:cad>
          </ns3:TrackPointExtension>
        </extensions>
      </trkpt>
      <trkpt lat="37.7719080448150634765625" lon="-107.70367744378745555877685546875">
        <ele>3947.39990234375</ele>
        <time>2023-07-29T14:57:10.000Z</time>
        <extensions>
          <ns3:TrackPointExtension>
            <ns3:hr>117</ns3:hr>
            <ns3:cad>0</ns3:cad>
          </ns3:TrackPointExtension>
        </extensions>
      </trkpt>
      <trkpt lat="37.7719055302441120147705078125" lon="-107.70367107354104518890380859375">
        <ele>3947.39990234375</ele>
        <time>2023-07-29T14:57:11.000Z</time>
        <extensions>
          <ns3:TrackPointExtension>
            <ns3:hr>117</ns3:hr>
            <ns3:cad>0</ns3:cad>
          </ns3:TrackPointExtension>
        </extensions>
      </trkpt>
      <trkpt lat="37.77190729044377803802490234375" lon="-107.70366822369396686553955078125">
        <ele>3947.60009765625</ele>
        <time>2023-07-29T14:57:12.000Z</time>
        <extensions>
          <ns3:TrackPointExtension>
            <ns3:hr>117</ns3:hr>
            <ns3:cad>0</ns3:cad>
          </ns3:TrackPointExtension>
        </extensions>
      </trkpt>
      <trkpt lat="37.77190879918634891510009765625" lon="-107.70366101525723934173583984375">
        <ele>3947.60009765625</ele>
        <time>2023-07-29T14:57:13.000Z</time>
        <extensions>
          <ns3:TrackPointExtension>
            <ns3:hr>116</ns3:hr>
            <ns3:cad>0</ns3:cad>
          </ns3:TrackPointExtension>
        </extensions>
      </trkpt>
      <trkpt lat="37.771910391747951507568359375" lon="-107.70365917123854160308837890625">
        <ele>3947.800048828125</ele>
        <time>2023-07-29T14:57:14.000Z</time>
        <extensions>
          <ns3:TrackPointExtension>
            <ns3:hr>116</ns3:hr>
            <ns3:cad>0</ns3:cad>
          </ns3:TrackPointExtension>
        </extensions>
      </trkpt>
      <trkpt lat="37.77191349305212497711181640625" lon="-107.70365313626825809478759765625">
        <ele>3947.800048828125</ele>
        <time>2023-07-29T14:57:15.000Z</time>
        <extensions>
          <ns3:TrackPointExtension>
            <ns3:hr>116</ns3:hr>
            <ns3:cad>0</ns3:cad>
          </ns3:TrackPointExtension>
        </extensions>
      </trkpt>
      <trkpt lat="37.77191583998501300811767578125" lon="-107.70365196280181407928466796875">
        <ele>3948</ele>
        <time>2023-07-29T14:57:16.000Z</time>
        <extensions>
          <ns3:TrackPointExtension>
            <ns3:hr>116</ns3:hr>
            <ns3:cad>0</ns3:cad>
          </ns3:TrackPointExtension>
        </extensions>
      </trkpt>
      <trkpt lat="37.7719147503376007080078125" lon="-107.70364693365991115570068359375">
        <ele>3948.199951171875</ele>
        <time>2023-07-29T14:57:17.000Z</time>
        <extensions>
          <ns3:TrackPointExtension>
            <ns3:hr>116</ns3:hr>
            <ns3:cad>0</ns3:cad>
          </ns3:TrackPointExtension>
        </extensions>
      </trkpt>
      <trkpt lat="37.7719142474234104156494140625" lon="-107.70363301970064640045166015625">
        <ele>3948.39990234375</ele>
        <time>2023-07-29T14:57:18.000Z</time>
        <extensions>
          <ns3:TrackPointExtension>
            <ns3:hr>116</ns3:hr>
            <ns3:cad>0</ns3:cad>
          </ns3:TrackPointExtension>
        </extensions>
      </trkpt>
      <trkpt lat="37.77191449888050556182861328125" lon="-107.70362966693937778472900390625">
        <ele>3948.39990234375</ele>
        <time>2023-07-29T14:57:19.000Z</time>
        <extensions>
          <ns3:TrackPointExtension>
            <ns3:hr>116</ns3:hr>
            <ns3:cad>0</ns3:cad>
          </ns3:TrackPointExtension>
        </extensions>
      </trkpt>
      <trkpt lat="37.7719135768711566925048828125" lon="-107.70362715236842632293701171875">
        <ele>3948.60009765625</ele>
        <time>2023-07-29T14:57:20.000Z</time>
        <extensions>
          <ns3:TrackPointExtension>
            <ns3:hr>116</ns3:hr>
            <ns3:cad>0</ns3:cad>
          </ns3:TrackPointExtension>
        </extensions>
      </trkpt>
      <trkpt lat="37.7719142474234104156494140625" lon="-107.70362212322652339935302734375">
        <ele>3948.60009765625</ele>
        <time>2023-07-29T14:57:21.000Z</time>
        <extensions>
          <ns3:TrackPointExtension>
            <ns3:hr>116</ns3:hr>
            <ns3:cad>0</ns3:cad>
          </ns3:TrackPointExtension>
        </extensions>
      </trkpt>
      <trkpt lat="37.7719129063189029693603515625" lon="-107.7036170102655887603759765625">
        <ele>3948.800048828125</ele>
        <time>2023-07-29T14:57:22.000Z</time>
        <extensions>
          <ns3:TrackPointExtension>
            <ns3:hr>116</ns3:hr>
            <ns3:cad>0</ns3:cad>
          </ns3:TrackPointExtension>
        </extensions>
      </trkpt>
      <trkpt lat="37.771912403404712677001953125" lon="-107.703605778515338897705078125">
        <ele>3949</ele>
        <time>2023-07-29T14:57:23.000Z</time>
        <extensions>
          <ns3:TrackPointExtension>
            <ns3:hr>116</ns3:hr>
            <ns3:cad>0</ns3:cad>
          </ns3:TrackPointExtension>
        </extensions>
      </trkpt>
      <trkpt lat="37.7719102241098880767822265625" lon="-107.70360133610665798187255859375">
        <ele>3949.199951171875</ele>
        <time>2023-07-29T14:57:24.000Z</time>
        <extensions>
          <ns3:TrackPointExtension>
            <ns3:hr>116</ns3:hr>
            <ns3:cad>0</ns3:cad>
          </ns3:TrackPointExtension>
        </extensions>
      </trkpt>
      <trkpt lat="37.77190863154828548431396484375" lon="-107.7035893499851226806640625">
        <ele>3949.39990234375</ele>
        <time>2023-07-29T14:57:25.000Z</time>
        <extensions>
          <ns3:TrackPointExtension>
            <ns3:hr>116</ns3:hr>
            <ns3:cad>0</ns3:cad>
          </ns3:TrackPointExtension>
        </extensions>
      </trkpt>
      <trkpt lat="37.7719048596918582916259765625" lon="-107.703582309186458587646484375">
        <ele>3949.800048828125</ele>
        <time>2023-07-29T14:57:26.000Z</time>
        <extensions>
          <ns3:TrackPointExtension>
            <ns3:hr>116</ns3:hr>
            <ns3:cad>0</ns3:cad>
          </ns3:TrackPointExtension>
        </extensions>
      </trkpt>
      <trkpt lat="37.77190444059669971466064453125" lon="-107.70357769913971424102783203125">
        <ele>3950</ele>
        <time>2023-07-29T14:57:27.000Z</time>
        <extensions>
          <ns3:TrackPointExtension>
            <ns3:hr>116</ns3:hr>
            <ns3:cad>0</ns3:cad>
          </ns3:TrackPointExtension>
        </extensions>
      </trkpt>
      <trkpt lat="37.771905697882175445556640625" lon="-107.70357853733003139495849609375">
        <ele>3950</ele>
        <time>2023-07-29T14:57:28.000Z</time>
        <extensions>
          <ns3:TrackPointExtension>
            <ns3:hr>117</ns3:hr>
            <ns3:cad>0</ns3:cad>
          </ns3:TrackPointExtension>
        </extensions>
      </trkpt>
      <trkpt lat="37.77190695516765117645263671875" lon="-107.7035730890929698944091796875">
        <ele>3950.199951171875</ele>
        <time>2023-07-29T14:57:29.000Z</time>
        <extensions>
          <ns3:TrackPointExtension>
            <ns3:hr>117</ns3:hr>
            <ns3:cad>0</ns3:cad>
          </ns3:TrackPointExtension>
        </extensions>
      </trkpt>
      <trkpt lat="37.77190527878701686859130859375" lon="-107.7035657130181789398193359375">
        <ele>3950.199951171875</ele>
        <time>2023-07-29T14:57:30.000Z</time>
        <extensions>
          <ns3:TrackPointExtension>
            <ns3:hr>117</ns3:hr>
            <ns3:cad>0</ns3:cad>
          </ns3:TrackPointExtension>
        </extensions>
      </trkpt>
      <trkpt lat="37.7719035185873508453369140625" lon="-107.7035566605627536773681640625">
        <ele>3950.60009765625</ele>
        <time>2023-07-29T14:57:31.000Z</time>
        <extensions>
          <ns3:TrackPointExtension>
            <ns3:hr>118</ns3:hr>
            <ns3:cad>0</ns3:cad>
          </ns3:TrackPointExtension>
        </extensions>
      </trkpt>
      <trkpt lat="37.77190745808184146881103515625" lon="-107.7035539783537387847900390625">
        <ele>3950.800048828125</ele>
        <time>2023-07-29T14:57:32.000Z</time>
        <extensions>
          <ns3:TrackPointExtension>
            <ns3:hr>118</ns3:hr>
            <ns3:cad>0</ns3:cad>
          </ns3:TrackPointExtension>
        </extensions>
      </trkpt>
      <trkpt lat="37.77190896682441234588623046875" lon="-107.70355272106826305389404296875">
        <ele>3951</ele>
        <time>2023-07-29T14:57:33.000Z</time>
        <extensions>
          <ns3:TrackPointExtension>
            <ns3:hr>117</ns3:hr>
            <ns3:cad>0</ns3:cad>
          </ns3:TrackPointExtension>
        </extensions>
      </trkpt>
      <trkpt lat="37.7719088830053806304931640625" lon="-107.70355121232569217681884765625">
        <ele>3951</ele>
        <time>2023-07-29T14:57:34.000Z</time>
        <extensions>
          <ns3:TrackPointExtension>
            <ns3:hr>118</ns3:hr>
            <ns3:cad>0</ns3:cad>
          </ns3:TrackPointExtension>
        </extensions>
      </trkpt>
      <trkpt lat="37.77191139757633209228515625" lon="-107.70354249514639377593994140625">
        <ele>3951.199951171875</ele>
        <time>2023-07-29T14:57:35.000Z</time>
        <extensions>
          <ns3:TrackPointExtension>
            <ns3:hr>118</ns3:hr>
            <ns3:cad>0</ns3:cad>
          </ns3:TrackPointExtension>
        </extensions>
      </trkpt>
      <trkpt lat="37.7719155885279178619384765625" lon="-107.703530006110668182373046875">
        <ele>3951.39990234375</ele>
        <time>2023-07-29T14:57:36.000Z</time>
        <extensions>
          <ns3:TrackPointExtension>
            <ns3:hr>118</ns3:hr>
            <ns3:cad>0</ns3:cad>
          </ns3:TrackPointExtension>
        </extensions>
      </trkpt>
      <trkpt lat="37.7719172649085521697998046875" lon="-107.70352891646325588226318359375">
        <ele>3951.60009765625</ele>
        <time>2023-07-29T14:57:37.000Z</time>
        <extensions>
          <ns3:TrackPointExtension>
            <ns3:hr>119</ns3:hr>
            <ns3:cad>0</ns3:cad>
          </ns3:TrackPointExtension>
        </extensions>
      </trkpt>
      <trkpt lat="37.7719227969646453857421875" lon="-107.70351584069430828094482421875">
        <ele>3951.800048828125</ele>
        <time>2023-07-29T14:57:38.000Z</time>
        <extensions>
          <ns3:TrackPointExtension>
            <ns3:hr>119</ns3:hr>
            <ns3:cad>0</ns3:cad>
          </ns3:TrackPointExtension>
        </extensions>
      </trkpt>
      <trkpt lat="37.77192640118300914764404296875" lon="-107.70351265557110309600830078125">
        <ele>3951.800048828125</ele>
        <time>2023-07-29T14:57:39.000Z</time>
        <extensions>
          <ns3:TrackPointExtension>
            <ns3:hr>119</ns3:hr>
            <ns3:cad>0</ns3:cad>
          </ns3:TrackPointExtension>
        </extensions>
      </trkpt>
      <trkpt lat="37.7719343639910221099853515625" lon="-107.7035043574869632720947265625">
        <ele>3952</ele>
        <time>2023-07-29T14:57:40.000Z</time>
        <extensions>
          <ns3:TrackPointExtension>
            <ns3:hr>119</ns3:hr>
            <ns3:cad>0</ns3:cad>
          </ns3:TrackPointExtension>
        </extensions>
      </trkpt>
      <trkpt lat="37.771935202181339263916015625" lon="-107.70350762642920017242431640625">
        <ele>3952.199951171875</ele>
        <time>2023-07-29T14:57:41.000Z</time>
        <extensions>
          <ns3:TrackPointExtension>
            <ns3:hr>119</ns3:hr>
            <ns3:cad>0</ns3:cad>
          </ns3:TrackPointExtension>
        </extensions>
      </trkpt>
      <trkpt lat="37.77194601483643054962158203125" lon="-107.70350075326859951019287109375">
        <ele>3952.39990234375</ele>
        <time>2023-07-29T14:57:42.000Z</time>
        <extensions>
          <ns3:TrackPointExtension>
            <ns3:hr>120</ns3:hr>
            <ns3:cad>0</ns3:cad>
          </ns3:TrackPointExtension>
        </extensions>
      </trkpt>
      <trkpt lat="37.7719504572451114654541015625" lon="-107.70350326783955097198486328125">
        <ele>3952.60009765625</ele>
        <time>2023-07-29T14:57:43.000Z</time>
        <extensions>
          <ns3:TrackPointExtension>
            <ns3:hr>120</ns3:hr>
            <ns3:cad>0</ns3:cad>
          </ns3:TrackPointExtension>
        </extensions>
      </trkpt>
      <trkpt lat="37.77194869704544544219970703125" lon="-107.70350092090666294097900390625">
        <ele>3952.800048828125</ele>
        <time>2023-07-29T14:57:44.000Z</time>
        <extensions>
          <ns3:TrackPointExtension>
            <ns3:hr>120</ns3:hr>
            <ns3:cad>0</ns3:cad>
          </ns3:TrackPointExtension>
        </extensions>
      </trkpt>
      <trkpt lat="37.7719578333199024200439453125" lon="-107.70349388010799884796142578125">
        <ele>3953</ele>
        <time>2023-07-29T14:57:45.000Z</time>
        <extensions>
          <ns3:TrackPointExtension>
            <ns3:hr>120</ns3:hr>
            <ns3:cad>0</ns3:cad>
          </ns3:TrackPointExtension>
        </extensions>
      </trkpt>
      <trkpt lat="37.7719672210514545440673828125" lon="-107.70349103026092052459716796875">
        <ele>3953.199951171875</ele>
        <time>2023-07-29T14:57:46.000Z</time>
        <extensions>
          <ns3:TrackPointExtension>
            <ns3:hr>120</ns3:hr>
            <ns3:cad>0</ns3:cad>
          </ns3:TrackPointExtension>
        </extensions>
      </trkpt>
      <trkpt lat="37.77197040617465972900390625" lon="-107.70348734222352504730224609375">
        <ele>3953.39990234375</ele>
        <time>2023-07-29T14:57:47.000Z</time>
        <extensions>
          <ns3:TrackPointExtension>
            <ns3:hr>120</ns3:hr>
            <ns3:cad>0</ns3:cad>
          </ns3:TrackPointExtension>
        </extensions>
      </trkpt>
      <trkpt lat="37.77198205702006816864013671875" lon="-107.70348113961517810821533203125">
        <ele>3953.60009765625</ele>
        <time>2023-07-29T14:57:48.000Z</time>
        <extensions>
          <ns3:TrackPointExtension>
            <ns3:hr>120</ns3:hr>
            <ns3:cad>0</ns3:cad>
          </ns3:TrackPointExtension>
        </extensions>
      </trkpt>
      <trkpt lat="37.77198339812457561492919921875" lon="-107.70347946323454380035400390625">
        <ele>3953.800048828125</ele>
        <time>2023-07-29T14:57:49.000Z</time>
        <extensions>
          <ns3:TrackPointExtension>
            <ns3:hr>120</ns3:hr>
            <ns3:cad>0</ns3:cad>
          </ns3:TrackPointExtension>
        </extensions>
      </trkpt>
      <trkpt lat="37.771986834704875946044921875" lon="-107.703478038311004638671875">
        <ele>3954</ele>
        <time>2023-07-29T14:57:50.000Z</time>
        <extensions>
          <ns3:TrackPointExtension>
            <ns3:hr>119</ns3:hr>
            <ns3:cad>0</ns3:cad>
          </ns3:TrackPointExtension>
        </extensions>
      </trkpt>
      <trkpt lat="37.77198758907616138458251953125" lon="-107.70348139107227325439453125">
        <ele>3954</ele>
        <time>2023-07-29T14:57:51.000Z</time>
        <extensions>
          <ns3:TrackPointExtension>
            <ns3:hr>119</ns3:hr>
            <ns3:cad>0</ns3:cad>
          </ns3:TrackPointExtension>
        </extensions>
      </trkpt>
      <trkpt lat="37.77198842726647853851318359375" lon="-107.703483067452907562255859375">
        <ele>3954.39990234375</ele>
        <time>2023-07-29T14:57:52.000Z</time>
        <extensions>
          <ns3:TrackPointExtension>
            <ns3:hr>119</ns3:hr>
            <ns3:cad>0</ns3:cad>
          </ns3:TrackPointExtension>
        </extensions>
      </trkpt>
      <trkpt lat="37.772000916302204132080078125" lon="-107.703478373587131500244140625">
        <ele>3954.39990234375</ele>
        <time>2023-07-29T14:57:53.000Z</time>
        <extensions>
          <ns3:TrackPointExtension>
            <ns3:hr>120</ns3:hr>
            <ns3:cad>0</ns3:cad>
          </ns3:TrackPointExtension>
        </extensions>
      </trkpt>
      <trkpt lat="37.77200770564377307891845703125" lon="-107.703472338616847991943359375">
        <ele>3954.60009765625</ele>
        <time>2023-07-29T14:57:54.000Z</time>
        <extensions>
          <ns3:TrackPointExtension>
            <ns3:hr>120</ns3:hr>
            <ns3:cad>46</ns3:cad>
          </ns3:TrackPointExtension>
        </extensions>
      </trkpt>
      <trkpt lat="37.7720064483582973480224609375" lon="-107.70347124896943569183349609375">
        <ele>3954.60009765625</ele>
        <time>2023-07-29T14:57:55.000Z</time>
        <extensions>
          <ns3:TrackPointExtension>
            <ns3:hr>121</ns3:hr>
            <ns3:cad>46</ns3:cad>
          </ns3:TrackPointExtension>
        </extensions>
      </trkpt>
      <trkpt lat="37.7720077894628047943115234375" lon="-107.70346789620816707611083984375">
        <ele>3954.800048828125</ele>
        <time>2023-07-29T14:57:56.000Z</time>
        <extensions>
          <ns3:TrackPointExtension>
            <ns3:hr>121</ns3:hr>
            <ns3:cad>0</ns3:cad>
          </ns3:TrackPointExtension>
        </extensions>
      </trkpt>
      <trkpt lat="37.7720067836344242095947265625" lon="-107.70346605218946933746337890625">
        <ele>3955</ele>
        <time>2023-07-29T14:57:57.000Z</time>
        <extensions>
          <ns3:TrackPointExtension>
            <ns3:hr>121</ns3:hr>
            <ns3:cad>0</ns3:cad>
          </ns3:TrackPointExtension>
        </extensions>
      </trkpt>
      <trkpt lat="37.77200669981539249420166015625" lon="-107.70346253179013729095458984375">
        <ele>3955.39990234375</ele>
        <time>2023-07-29T14:57:58.000Z</time>
        <extensions>
          <ns3:TrackPointExtension>
            <ns3:hr>121</ns3:hr>
            <ns3:cad>0</ns3:cad>
          </ns3:TrackPointExtension>
        </extensions>
      </trkpt>
      <trkpt lat="37.772012315690517425537109375" lon="-107.70345616154372692108154296875">
        <ele>3955.39990234375</ele>
        <time>2023-07-29T14:57:59.000Z</time>
        <extensions>
          <ns3:TrackPointExtension>
            <ns3:hr>121</ns3:hr>
            <ns3:cad>0</ns3:cad>
          </ns3:TrackPointExtension>
        </extensions>
      </trkpt>
      <trkpt lat="37.7720131538808345794677734375" lon="-107.70344660617411136627197265625">
        <ele>3955.60009765625</ele>
        <time>2023-07-29T14:58:00.000Z</time>
        <extensions>
          <ns3:TrackPointExtension>
            <ns3:hr>121</ns3:hr>
            <ns3:cad>0</ns3:cad>
          </ns3:TrackPointExtension>
        </extensions>
      </trkpt>
      <trkpt lat="37.7720175124704837799072265625" lon="-107.7034440077841281890869140625">
        <ele>3955.60009765625</ele>
        <time>2023-07-29T14:58:01.000Z</time>
        <extensions>
          <ns3:TrackPointExtension>
            <ns3:hr>121</ns3:hr>
            <ns3:cad>0</ns3:cad>
          </ns3:TrackPointExtension>
        </extensions>
      </trkpt>
      <trkpt lat="37.7720208652317523956298828125" lon="-107.70344057120382785797119140625">
        <ele>3955.800048828125</ele>
        <time>2023-07-29T14:58:02.000Z</time>
        <extensions>
          <ns3:TrackPointExtension>
            <ns3:hr>122</ns3:hr>
            <ns3:cad>0</ns3:cad>
          </ns3:TrackPointExtension>
        </extensions>
      </trkpt>
      <trkpt lat="37.77202966623008251190185546875" lon="-107.70343034528195858001708984375">
        <ele>3955.800048828125</ele>
        <time>2023-07-29T14:58:03.000Z</time>
        <extensions>
          <ns3:TrackPointExtension>
            <ns3:hr>122</ns3:hr>
            <ns3:cad>0</ns3:cad>
          </ns3:TrackPointExtension>
        </extensions>
      </trkpt>
      <trkpt lat="37.7720349468290805816650390625" lon="-107.7034238912165164947509765625">
        <ele>3956</ele>
        <time>2023-07-29T14:58:04.000Z</time>
        <extensions>
          <ns3:TrackPointExtension>
            <ns3:hr>122</ns3:hr>
            <ns3:cad>0</ns3:cad>
          </ns3:TrackPointExtension>
        </extensions>
      </trkpt>
      <trkpt lat="37.77204324491322040557861328125" lon="-107.70341810770332813262939453125">
        <ele>3956</ele>
        <time>2023-07-29T14:58:05.000Z</time>
        <extensions>
          <ns3:TrackPointExtension>
            <ns3:hr>122</ns3:hr>
            <ns3:cad>0</ns3:cad>
          </ns3:TrackPointExtension>
        </extensions>
      </trkpt>
      <trkpt lat="37.7720513753592967987060546875" lon="-107.70341592840850353240966796875">
        <ele>3956</ele>
        <time>2023-07-29T14:58:06.000Z</time>
        <extensions>
          <ns3:TrackPointExtension>
            <ns3:hr>121</ns3:hr>
            <ns3:cad>0</ns3:cad>
          </ns3:TrackPointExtension>
        </extensions>
      </trkpt>
      <trkpt lat="37.7720582485198974609375" lon="-107.703411988914012908935546875">
        <ele>3956.39990234375</ele>
        <time>2023-07-29T14:58:07.000Z</time>
        <extensions>
          <ns3:TrackPointExtension>
            <ns3:hr>121</ns3:hr>
            <ns3:cad>0</ns3:cad>
          </ns3:TrackPointExtension>
        </extensions>
      </trkpt>
      <trkpt lat="37.77206637896597385406494140625" lon="-107.7034114859998226165771484375">
        <ele>3956.39990234375</ele>
        <time>2023-07-29T14:58:08.000Z</time>
        <extensions>
          <ns3:TrackPointExtension>
            <ns3:hr>120</ns3:hr>
            <ns3:cad>0</ns3:cad>
          </ns3:TrackPointExtension>
        </extensions>
      </trkpt>
      <trkpt lat="37.7720703184604644775390625" lon="-107.70340855233371257781982421875">
        <ele>3956.60009765625</ele>
        <time>2023-07-29T14:58:09.000Z</time>
        <extensions>
          <ns3:TrackPointExtension>
            <ns3:hr>120</ns3:hr>
            <ns3:cad>0</ns3:cad>
          </ns3:TrackPointExtension>
        </extensions>
      </trkpt>
      <trkpt lat="37.77207392267882823944091796875" lon="-107.7034056186676025390625">
        <ele>3956.800048828125</ele>
        <time>2023-07-29T14:58:10.000Z</time>
        <extensions>
          <ns3:TrackPointExtension>
            <ns3:hr>120</ns3:hr>
            <ns3:cad>0</ns3:cad>
          </ns3:TrackPointExtension>
        </extensions>
      </trkpt>
      <trkpt lat="37.7720738388597965240478515625" lon="-107.70340402610599994659423828125">
        <ele>3956.800048828125</ele>
        <time>2023-07-29T14:58:11.000Z</time>
        <extensions>
          <ns3:TrackPointExtension>
            <ns3:hr>120</ns3:hr>
            <ns3:cad>0</ns3:cad>
          </ns3:TrackPointExtension>
        </extensions>
      </trkpt>
      <trkpt lat="37.7720751799643039703369140625" lon="-107.70340092480182647705078125">
        <ele>3957</ele>
        <time>2023-07-29T14:58:12.000Z</time>
        <extensions>
          <ns3:TrackPointExtension>
            <ns3:hr>121</ns3:hr>
            <ns3:cad>0</ns3:cad>
          </ns3:TrackPointExtension>
        </extensions>
      </trkpt>
      <trkpt lat="37.7720788680016994476318359375" lon="-107.7033933810889720916748046875">
        <ele>3957.199951171875</ele>
        <time>2023-07-29T14:58:13.000Z</time>
        <extensions>
          <ns3:TrackPointExtension>
            <ns3:hr>121</ns3:hr>
            <ns3:cad>0</ns3:cad>
          </ns3:TrackPointExtension>
        </extensions>
      </trkpt>
      <trkpt lat="37.7720818854868412017822265625" lon="-107.70338742993772029876708984375">
        <ele>3957.39990234375</ele>
        <time>2023-07-29T14:58:14.000Z</time>
        <extensions>
          <ns3:TrackPointExtension>
            <ns3:hr>120</ns3:hr>
            <ns3:cad>0</ns3:cad>
          </ns3:TrackPointExtension>
        </extensions>
      </trkpt>
      <trkpt lat="37.7720849029719829559326171875" lon="-107.70338173024356365203857421875">
        <ele>3957.60009765625</ele>
        <time>2023-07-29T14:58:15.000Z</time>
        <extensions>
          <ns3:TrackPointExtension>
            <ns3:hr>120</ns3:hr>
            <ns3:cad>0</ns3:cad>
          </ns3:TrackPointExtension>
        </extensions>
      </trkpt>
      <trkpt lat="37.772093452513217926025390625" lon="-107.70336781628429889678955078125">
        <ele>3957.60009765625</ele>
        <time>2023-07-29T14:58:16.000Z</time>
        <extensions>
          <ns3:TrackPointExtension>
            <ns3:hr>120</ns3:hr>
            <ns3:cad>0</ns3:cad>
          </ns3:TrackPointExtension>
        </extensions>
      </trkpt>
      <trkpt lat="37.77209722436964511871337890625" lon="-107.7033627033233642578125">
        <ele>3958</ele>
        <time>2023-07-29T14:58:17.000Z</time>
        <extensions>
          <ns3:TrackPointExtension>
            <ns3:hr>120</ns3:hr>
            <ns3:cad>0</ns3:cad>
          </ns3:TrackPointExtension>
        </extensions>
      </trkpt>
      <trkpt lat="37.77210443280637264251708984375" lon="-107.70335759036242961883544921875">
        <ele>3958.199951171875</ele>
        <time>2023-07-29T14:58:18.000Z</time>
        <extensions>
          <ns3:TrackPointExtension>
            <ns3:hr>120</ns3:hr>
            <ns3:cad>41</ns3:cad>
          </ns3:TrackPointExtension>
        </extensions>
      </trkpt>
      <trkpt lat="37.772113569080829620361328125" lon="-107.7033528126776218414306640625">
        <ele>3958.199951171875</ele>
        <time>2023-07-29T14:58:19.000Z</time>
        <extensions>
          <ns3:TrackPointExtension>
            <ns3:hr>120</ns3:hr>
            <ns3:cad>41</ns3:cad>
          </ns3:TrackPointExtension>
        </extensions>
      </trkpt>
      <trkpt lat="37.77211524546146392822265625" lon="-107.703357674181461334228515625">
        <ele>3958.60009765625</ele>
        <time>2023-07-29T14:58:20.000Z</time>
        <extensions>
          <ns3:TrackPointExtension>
            <ns3:hr>120</ns3:hr>
            <ns3:cad>41</ns3:cad>
          </ns3:TrackPointExtension>
        </extensions>
      </trkpt>
      <trkpt lat="37.77212438173592090606689453125" lon="-107.70335733890533447265625">
        <ele>3958.60009765625</ele>
        <time>2023-07-29T14:58:21.000Z</time>
        <extensions>
          <ns3:TrackPointExtension>
            <ns3:hr>119</ns3:hr>
            <ns3:cad>41</ns3:cad>
          </ns3:TrackPointExtension>
        </extensions>
      </trkpt>
      <trkpt lat="37.7721301652491092681884765625" lon="-107.7033605240285396575927734375">
        <ele>3958.800048828125</ele>
        <time>2023-07-29T14:58:22.000Z</time>
        <extensions>
          <ns3:TrackPointExtension>
            <ns3:hr>119</ns3:hr>
            <ns3:cad>41</ns3:cad>
          </ns3:TrackPointExtension>
        </extensions>
      </trkpt>
      <trkpt lat="37.772136032581329345703125" lon="-107.70335574634373188018798828125">
        <ele>3959</ele>
        <time>2023-07-29T14:58:23.000Z</time>
        <extensions>
          <ns3:TrackPointExtension>
            <ns3:hr>119</ns3:hr>
            <ns3:cad>0</ns3:cad>
          </ns3:TrackPointExtension>
        </extensions>
      </trkpt>
      <trkpt lat="37.772143073379993438720703125" lon="-107.70335541106760501861572265625">
        <ele>3959.199951171875</ele>
        <time>2023-07-29T14:58:24.000Z</time>
        <extensions>
          <ns3:TrackPointExtension>
            <ns3:hr>118</ns3:hr>
            <ns3:cad>0</ns3:cad>
          </ns3:TrackPointExtension>
        </extensions>
      </trkpt>
      <trkpt lat="37.77214868925511837005615234375" lon="-107.70335406996309757232666015625">
        <ele>3959.39990234375</ele>
        <time>2023-07-29T14:58:25.000Z</time>
        <extensions>
          <ns3:TrackPointExtension>
            <ns3:hr>118</ns3:hr>
            <ns3:cad>0</ns3:cad>
          </ns3:TrackPointExtension>
        </extensions>
      </trkpt>
      <trkpt lat="37.77216352522373199462890625" lon="-107.703349627554416656494140625">
        <ele>3959.800048828125</ele>
        <time>2023-07-29T14:58:26.000Z</time>
        <extensions>
          <ns3:TrackPointExtension>
            <ns3:hr>118</ns3:hr>
            <ns3:cad>0</ns3:cad>
          </ns3:TrackPointExtension>
        </extensions>
      </trkpt>
      <trkpt lat="37.77217802591621875762939453125" lon="-107.70334283821284770965576171875">
        <ele>3959.800048828125</ele>
        <time>2023-07-29T14:58:27.000Z</time>
        <extensions>
          <ns3:TrackPointExtension>
            <ns3:hr>118</ns3:hr>
            <ns3:cad>0</ns3:cad>
          </ns3:TrackPointExtension>
        </extensions>
      </trkpt>
      <trkpt lat="37.77218858711421489715576171875" lon="-107.7033367194235324859619140625">
        <ele>3960</ele>
        <time>2023-07-29T14:58:28.000Z</time>
        <extensions>
          <ns3:TrackPointExtension>
            <ns3:hr>117</ns3:hr>
            <ns3:cad>0</ns3:cad>
          </ns3:TrackPointExtension>
        </extensions>
      </trkpt>
      <trkpt lat="37.772195041179656982421875" lon="-107.7033293433487415313720703125">
        <ele>3960.39990234375</ele>
        <time>2023-07-29T14:58:29.000Z</time>
        <extensions>
          <ns3:TrackPointExtension>
            <ns3:hr>118</ns3:hr>
            <ns3:cad>75</ns3:cad>
          </ns3:TrackPointExtension>
        </extensions>
      </trkpt>
      <trkpt lat="37.77219512499868869781494140625" lon="-107.70332322455942630767822265625">
        <ele>3960.39990234375</ele>
        <time>2023-07-29T14:58:30.000Z</time>
        <extensions>
          <ns3:TrackPointExtension>
            <ns3:hr>118</ns3:hr>
            <ns3:cad>75</ns3:cad>
          </ns3:TrackPointExtension>
        </extensions>
      </trkpt>
      <trkpt lat="37.77220375835895538330078125" lon="-107.7033162675797939300537109375">
        <ele>3960.60009765625</ele>
        <time>2023-07-29T14:58:31.000Z</time>
        <extensions>
          <ns3:TrackPointExtension>
            <ns3:hr>119</ns3:hr>
            <ns3:cad>75</ns3:cad>
          </ns3:TrackPointExtension>
        </extensions>
      </trkpt>
      <trkpt lat="37.7722106315195560455322265625" lon="-107.70330579020082950592041015625">
        <ele>3960.60009765625</ele>
        <time>2023-07-29T14:58:32.000Z</time>
        <extensions>
          <ns3:TrackPointExtension>
            <ns3:hr>119</ns3:hr>
            <ns3:cad>0</ns3:cad>
          </ns3:TrackPointExtension>
        </extensions>
      </trkpt>
      <trkpt lat="37.77222144417464733123779296875" lon="-107.70329724065959453582763671875">
        <ele>3960.60009765625</ele>
        <time>2023-07-29T14:58:33.000Z</time>
        <extensions>
          <ns3:TrackPointExtension>
            <ns3:hr>119</ns3:hr>
            <ns3:cad>0</ns3:cad>
          </ns3:TrackPointExtension>
        </extensions>
      </trkpt>
      <trkpt lat="37.77223058044910430908203125" lon="-107.703287936747074127197265625">
        <ele>3960.800048828125</ele>
        <time>2023-07-29T14:58:34.000Z</time>
        <extensions>
          <ns3:TrackPointExtension>
            <ns3:hr>119</ns3:hr>
            <ns3:cad>0</ns3:cad>
          </ns3:TrackPointExtension>
        </extensions>
      </trkpt>
      <trkpt lat="37.77223653160035610198974609375" lon="-107.70328047685325145721435546875">
        <ele>3961</ele>
        <time>2023-07-29T14:58:35.000Z</time>
        <extensions>
          <ns3:TrackPointExtension>
            <ns3:hr>120</ns3:hr>
            <ns3:cad>0</ns3:cad>
          </ns3:TrackPointExtension>
        </extensions>
      </trkpt>
      <trkpt lat="37.77223787270486354827880859375" lon="-107.70327712409198284149169921875">
        <ele>3961.199951171875</ele>
        <time>2023-07-29T14:58:36.000Z</time>
        <extensions>
          <ns3:TrackPointExtension>
            <ns3:hr>120</ns3:hr>
            <ns3:cad>0</ns3:cad>
          </ns3:TrackPointExtension>
        </extensions>
      </trkpt>
      <trkpt lat="37.77223862707614898681640625" lon="-107.7032736875116825103759765625">
        <ele>3961.39990234375</ele>
        <time>2023-07-29T14:58:37.000Z</time>
        <extensions>
          <ns3:TrackPointExtension>
            <ns3:hr>121</ns3:hr>
            <ns3:cad>0</ns3:cad>
          </ns3:TrackPointExtension>
        </extensions>
      </trkpt>
      <trkpt lat="37.77223804034292697906494140625" lon="-107.70327427424490451812744140625">
        <ele>3961.39990234375</ele>
        <time>2023-07-29T14:58:38.000Z</time>
        <extensions>
          <ns3:TrackPointExtension>
            <ns3:hr>121</ns3:hr>
            <ns3:cad>0</ns3:cad>
          </ns3:TrackPointExtension>
        </extensions>
      </trkpt>
      <trkpt lat="37.77223787270486354827880859375" lon="-107.7032733522355556488037109375">
        <ele>3961.60009765625</ele>
        <time>2023-07-29T14:58:39.000Z</time>
        <extensions>
          <ns3:TrackPointExtension>
            <ns3:hr>121</ns3:hr>
            <ns3:cad>0</ns3:cad>
          </ns3:TrackPointExtension>
        </extensions>
      </trkpt>
      <trkpt lat="37.7722418121993541717529296875" lon="-107.70327025093138217926025390625">
        <ele>3961.60009765625</ele>
        <time>2023-07-29T14:58:40.000Z</time>
        <extensions>
          <ns3:TrackPointExtension>
            <ns3:hr>121</ns3:hr>
            <ns3:cad>0</ns3:cad>
          </ns3:TrackPointExtension>
        </extensions>
      </trkpt>
      <trkpt lat="37.772244997322559356689453125" lon="-107.70326874218881130218505859375">
        <ele>3962</ele>
        <time>2023-07-29T14:58:41.000Z</time>
        <extensions>
          <ns3:TrackPointExtension>
            <ns3:hr>121</ns3:hr>
            <ns3:cad>0</ns3:cad>
          </ns3:TrackPointExtension>
        </extensions>
      </trkpt>
      <trkpt lat="37.7722428180277347564697265625" lon="-107.70327351987361907958984375">
        <ele>3962</ele>
        <time>2023-07-29T14:58:42.000Z</time>
        <extensions>
          <ns3:TrackPointExtension>
            <ns3:hr>121</ns3:hr>
            <ns3:cad>0</ns3:cad>
          </ns3:TrackPointExtension>
        </extensions>
      </trkpt>
      <trkpt lat="37.7722446620464324951171875" lon="-107.70327511243522167205810546875">
        <ele>3962.199951171875</ele>
        <time>2023-07-29T14:58:43.000Z</time>
        <extensions>
          <ns3:TrackPointExtension>
            <ns3:hr>121</ns3:hr>
            <ns3:cad>0</ns3:cad>
          </ns3:TrackPointExtension>
        </extensions>
      </trkpt>
      <trkpt lat="37.77224935591220855712890625" lon="-107.70327192731201648712158203125">
        <ele>3962.39990234375</ele>
        <time>2023-07-29T14:58:44.000Z</time>
        <extensions>
          <ns3:TrackPointExtension>
            <ns3:hr>121</ns3:hr>
            <ns3:cad>0</ns3:cad>
          </ns3:TrackPointExtension>
        </extensions>
      </trkpt>
      <trkpt lat="37.77225027792155742645263671875" lon="-107.70327150821685791015625">
        <ele>3962.60009765625</ele>
        <time>2023-07-29T14:58:45.000Z</time>
        <extensions>
          <ns3:TrackPointExtension>
            <ns3:hr>121</ns3:hr>
            <ns3:cad>0</ns3:cad>
          </ns3:TrackPointExtension>
        </extensions>
      </trkpt>
      <trkpt lat="37.7722515352070331573486328125" lon="-107.7032683230936527252197265625">
        <ele>3962.60009765625</ele>
        <time>2023-07-29T14:58:46.000Z</time>
        <extensions>
          <ns3:TrackPointExtension>
            <ns3:hr>122</ns3:hr>
            <ns3:cad>0</ns3:cad>
          </ns3:TrackPointExtension>
        </extensions>
      </trkpt>
      <trkpt lat="37.77225363068282604217529296875" lon="-107.70326455123722553253173828125">
        <ele>3962.800048828125</ele>
        <time>2023-07-29T14:58:47.000Z</time>
        <extensions>
          <ns3:TrackPointExtension>
            <ns3:hr>122</ns3:hr>
            <ns3:cad>0</ns3:cad>
          </ns3:TrackPointExtension>
        </extensions>
      </trkpt>
      <trkpt lat="37.7722659520804882049560546875" lon="-107.7032492123544216156005859375">
        <ele>3963</ele>
        <time>2023-07-29T14:58:48.000Z</time>
        <extensions>
          <ns3:TrackPointExtension>
            <ns3:hr>122</ns3:hr>
            <ns3:cad>0</ns3:cad>
          </ns3:TrackPointExtension>
        </extensions>
      </trkpt>
      <trkpt lat="37.7722729928791522979736328125" lon="-107.70323932170867919921875">
        <ele>3963</ele>
        <time>2023-07-29T14:58:49.000Z</time>
        <extensions>
          <ns3:TrackPointExtension>
            <ns3:hr>122</ns3:hr>
            <ns3:cad>0</ns3:cad>
          </ns3:TrackPointExtension>
        </extensions>
      </trkpt>
      <trkpt lat="37.77227215468883514404296875" lon="-107.7032287605106830596923828125">
        <ele>3963</ele>
        <time>2023-07-29T14:58:50.000Z</time>
        <extensions>
          <ns3:TrackPointExtension>
            <ns3:hr>121</ns3:hr>
            <ns3:cad>0</ns3:cad>
          </ns3:TrackPointExtension>
        </extensions>
      </trkpt>
      <trkpt lat="37.77227894403040409088134765625" lon="-107.70322063006460666656494140625">
        <ele>3963</ele>
        <time>2023-07-29T14:58:51.000Z</time>
        <extensions>
          <ns3:TrackPointExtension>
            <ns3:hr>121</ns3:hr>
            <ns3:cad>0</ns3:cad>
          </ns3:TrackPointExtension>
        </extensions>
      </trkpt>
      <trkpt lat="37.77228564955294132232666015625" lon="-107.70320554263889789581298828125">
        <ele>3963</ele>
        <time>2023-07-29T14:58:52.000Z</time>
        <extensions>
          <ns3:TrackPointExtension>
            <ns3:hr>121</ns3:hr>
            <ns3:cad>0</ns3:cad>
          </ns3:TrackPointExtension>
        </extensions>
      </trkpt>
      <trkpt lat="37.77229554019868373870849609375" lon="-107.70319095812737941741943359375">
        <ele>3963</ele>
        <time>2023-07-29T14:58:53.000Z</time>
        <extensions>
          <ns3:TrackPointExtension>
            <ns3:hr>121</ns3:hr>
            <ns3:cad>0</ns3:cad>
          </ns3:TrackPointExtension>
        </extensions>
      </trkpt>
      <trkpt lat="37.772310040891170501708984375" lon="-107.70317570306360721588134765625">
        <ele>3963.199951171875</ele>
        <time>2023-07-29T14:58:54.000Z</time>
        <extensions>
          <ns3:TrackPointExtension>
            <ns3:hr>121</ns3:hr>
            <ns3:cad>0</ns3:cad>
          </ns3:TrackPointExtension>
        </extensions>
      </trkpt>
      <trkpt lat="37.77231917716562747955322265625" lon="-107.70316195674240589141845703125">
        <ele>3963.199951171875</ele>
        <time>2023-07-29T14:58:55.000Z</time>
        <extensions>
          <ns3:TrackPointExtension>
            <ns3:hr>121</ns3:hr>
            <ns3:cad>0</ns3:cad>
          </ns3:TrackPointExtension>
        </extensions>
      </trkpt>
      <trkpt lat="37.772323451936244964599609375" lon="-107.70315893925726413726806640625">
        <ele>3963.39990234375</ele>
        <time>2023-07-29T14:58:56.000Z</time>
        <extensions>
          <ns3:TrackPointExtension>
            <ns3:hr>121</ns3:hr>
            <ns3:cad>0</ns3:cad>
          </ns3:TrackPointExtension>
        </extensions>
      </trkpt>
      <trkpt lat="37.77233124710619449615478515625" lon="-107.7031521499156951904296875">
        <ele>3963.39990234375</ele>
        <time>2023-07-29T14:58:57.000Z</time>
        <extensions>
          <ns3:TrackPointExtension>
            <ns3:hr>121</ns3:hr>
            <ns3:cad>0</ns3:cad>
          </ns3:TrackPointExtension>
        </extensions>
      </trkpt>
      <trkpt lat="37.77233795262873172760009765625" lon="-107.703150808811187744140625">
        <ele>3963.60009765625</ele>
        <time>2023-07-29T14:58:58.000Z</time>
        <extensions>
          <ns3:TrackPointExtension>
            <ns3:hr>120</ns3:hr>
            <ns3:cad>0</ns3:cad>
          </ns3:TrackPointExtension>
        </extensions>
      </trkpt>
      <trkpt lat="37.77234415523707866668701171875" lon="-107.70314477384090423583984375">
        <ele>3963.800048828125</ele>
        <time>2023-07-29T14:58:59.000Z</time>
        <extensions>
          <ns3:TrackPointExtension>
            <ns3:hr>120</ns3:hr>
            <ns3:cad>0</ns3:cad>
          </ns3:TrackPointExtension>
        </extensions>
      </trkpt>
      <trkpt lat="37.7723480947315692901611328125" lon="-107.703144438564777374267578125">
        <ele>3963.800048828125</ele>
        <time>2023-07-29T14:59:00.000Z</time>
        <extensions>
          <ns3:TrackPointExtension>
            <ns3:hr>120</ns3:hr>
            <ns3:cad>0</ns3:cad>
          </ns3:TrackPointExtension>
        </extensions>
      </trkpt>
      <trkpt lat="37.7723537944257259368896484375" lon="-107.70314552821218967437744140625">
        <ele>3964</ele>
        <time>2023-07-29T14:59:01.000Z</time>
        <extensions>
          <ns3:TrackPointExtension>
            <ns3:hr>119</ns3:hr>
            <ns3:cad>0</ns3:cad>
          </ns3:TrackPointExtension>
        </extensions>
      </trkpt>
      <trkpt lat="37.77236108668148517608642578125" lon="-107.70314200781285762786865234375">
        <ele>3964</ele>
        <time>2023-07-29T14:59:02.000Z</time>
        <extensions>
          <ns3:TrackPointExtension>
            <ns3:hr>119</ns3:hr>
            <ns3:cad>0</ns3:cad>
          </ns3:TrackPointExtension>
        </extensions>
      </trkpt>
      <trkpt lat="37.77237265370786190032958984375" lon="-107.7031355537474155426025390625">
        <ele>3964.199951171875</ele>
        <time>2023-07-29T14:59:03.000Z</time>
        <extensions>
          <ns3:TrackPointExtension>
            <ns3:hr>119</ns3:hr>
            <ns3:cad>0</ns3:cad>
          </ns3:TrackPointExtension>
        </extensions>
      </trkpt>
      <trkpt lat="37.77237701229751110076904296875" lon="-107.703134715557098388671875">
        <ele>3964.39990234375</ele>
        <time>2023-07-29T14:59:04.000Z</time>
        <extensions>
          <ns3:TrackPointExtension>
            <ns3:hr>119</ns3:hr>
            <ns3:cad>0</ns3:cad>
          </ns3:TrackPointExtension>
        </extensions>
      </trkpt>
      <trkpt lat="37.77238640002906322479248046875" lon="-107.7031305246055126190185546875">
        <ele>3964.60009765625</ele>
        <time>2023-07-29T14:59:05.000Z</time>
        <extensions>
          <ns3:TrackPointExtension>
            <ns3:hr>119</ns3:hr>
            <ns3:cad>0</ns3:cad>
          </ns3:TrackPointExtension>
        </extensions>
      </trkpt>
      <trkpt lat="37.77239696122705936431884765625" lon="-107.70312474109232425689697265625">
        <ele>3964.800048828125</ele>
        <time>2023-07-29T14:59:06.000Z</time>
        <extensions>
          <ns3:TrackPointExtension>
            <ns3:hr>119</ns3:hr>
            <ns3:cad>0</ns3:cad>
          </ns3:TrackPointExtension>
        </extensions>
      </trkpt>
      <trkpt lat="37.77240760624408721923828125" lon="-107.7031167782843112945556640625">
        <ele>3965</ele>
        <time>2023-07-29T14:59:07.000Z</time>
        <extensions>
          <ns3:TrackPointExtension>
            <ns3:hr>119</ns3:hr>
            <ns3:cad>0</ns3:cad>
          </ns3:TrackPointExtension>
        </extensions>
      </trkpt>
      <trkpt lat="37.772418670356273651123046875" lon="-107.7031094022095203399658203125">
        <ele>3965</ele>
        <time>2023-07-29T14:59:08.000Z</time>
        <extensions>
          <ns3:TrackPointExtension>
            <ns3:hr>119</ns3:hr>
            <ns3:cad>0</ns3:cad>
          </ns3:TrackPointExtension>
        </extensions>
      </trkpt>
      <trkpt lat="37.77243048883974552154541015625" lon="-107.7030976675450801849365234375">
        <ele>3965.199951171875</ele>
        <time>2023-07-29T14:59:09.000Z</time>
        <extensions>
          <ns3:TrackPointExtension>
            <ns3:hr>119</ns3:hr>
            <ns3:cad>0</ns3:cad>
          </ns3:TrackPointExtension>
        </extensions>
      </trkpt>
      <trkpt lat="37.77244113385677337646484375" lon="-107.703089453279972076416015625">
        <ele>3965.199951171875</ele>
        <time>2023-07-29T14:59:10.000Z</time>
        <extensions>
          <ns3:TrackPointExtension>
            <ns3:hr>118</ns3:hr>
            <ns3:cad>0</ns3:cad>
          </ns3:TrackPointExtension>
        </extensions>
      </trkpt>
      <trkpt lat="37.7724552154541015625" lon="-107.7030798979103565216064453125">
        <ele>3965.39990234375</ele>
        <time>2023-07-29T14:59:11.000Z</time>
        <extensions>
          <ns3:TrackPointExtension>
            <ns3:hr>119</ns3:hr>
            <ns3:cad>0</ns3:cad>
          </ns3:TrackPointExtension>
        </extensions>
      </trkpt>
      <trkpt lat="37.77246820740401744842529296875" lon="-107.70306975580751895904541015625">
        <ele>3965.39990234375</ele>
        <time>2023-07-29T14:59:12.000Z</time>
        <extensions>
          <ns3:TrackPointExtension>
            <ns3:hr>118</ns3:hr>
            <ns3:cad>0</ns3:cad>
          </ns3:TrackPointExtension>
        </extensions>
      </trkpt>
      <trkpt lat="37.77247600257396697998046875" lon="-107.7030641399323940277099609375">
        <ele>3965.39990234375</ele>
        <time>2023-07-29T14:59:13.000Z</time>
        <extensions>
          <ns3:TrackPointExtension>
            <ns3:hr>118</ns3:hr>
            <ns3:cad>0</ns3:cad>
          </ns3:TrackPointExtension>
        </extensions>
      </trkpt>
      <trkpt lat="37.77248396538197994232177734375" lon="-107.703057937324047088623046875">
        <ele>3965.60009765625</ele>
        <time>2023-07-29T14:59:14.000Z</time>
        <extensions>
          <ns3:TrackPointExtension>
            <ns3:hr>117</ns3:hr>
            <ns3:cad>0</ns3:cad>
          </ns3:TrackPointExtension>
        </extensions>
      </trkpt>
      <trkpt lat="37.772489078342914581298828125" lon="-107.70305215381085872650146484375">
        <ele>3965.60009765625</ele>
        <time>2023-07-29T14:59:15.000Z</time>
        <extensions>
          <ns3:TrackPointExtension>
            <ns3:hr>116</ns3:hr>
            <ns3:cad>0</ns3:cad>
          </ns3:TrackPointExtension>
        </extensions>
      </trkpt>
      <trkpt lat="37.77248916216194629669189453125" lon="-107.70305014215409755706787109375">
        <ele>3965.800048828125</ele>
        <time>2023-07-29T14:59:16.000Z</time>
        <extensions>
          <ns3:TrackPointExtension>
            <ns3:hr>116</ns3:hr>
            <ns3:cad>0</ns3:cad>
          </ns3:TrackPointExtension>
        </extensions>
      </trkpt>
      <trkpt lat="37.77249469421803951263427734375" lon="-107.70304377190768718719482421875">
        <ele>3966</ele>
        <time>2023-07-29T14:59:17.000Z</time>
        <extensions>
          <ns3:TrackPointExtension>
            <ns3:hr>116</ns3:hr>
            <ns3:cad>0</ns3:cad>
          </ns3:TrackPointExtension>
        </extensions>
      </trkpt>
      <trkpt lat="37.77249922044575214385986328125" lon="-107.7030363120138645172119140625">
        <ele>3966.199951171875</ele>
        <time>2023-07-29T14:59:18.000Z</time>
        <extensions>
          <ns3:TrackPointExtension>
            <ns3:hr>116</ns3:hr>
            <ns3:cad>45</ns3:cad>
          </ns3:TrackPointExtension>
        </extensions>
      </trkpt>
      <trkpt lat="37.77250818908214569091796875" lon="-107.70302700810134410858154296875">
        <ele>3966.199951171875</ele>
        <time>2023-07-29T14:59:19.000Z</time>
        <extensions>
          <ns3:TrackPointExtension>
            <ns3:hr>115</ns3:hr>
            <ns3:cad>45</ns3:cad>
          </ns3:TrackPointExtension>
        </extensions>
      </trkpt>
      <trkpt lat="37.772516906261444091796875" lon="-107.70301091484725475311279296875">
        <ele>3966.39990234375</ele>
        <time>2023-07-29T14:59:20.000Z</time>
        <extensions>
          <ns3:TrackPointExtension>
            <ns3:hr>115</ns3:hr>
            <ns3:cad>45</ns3:cad>
          </ns3:TrackPointExtension>
        </extensions>
      </trkpt>
      <trkpt lat="37.77251950465142726898193359375" lon="-107.70299733616411685943603515625">
        <ele>3966.39990234375</ele>
        <time>2023-07-29T14:59:21.000Z</time>
        <extensions>
          <ns3:TrackPointExtension>
            <ns3:hr>115</ns3:hr>
            <ns3:cad>45</ns3:cad>
          </ns3:TrackPointExtension>
        </extensions>
      </trkpt>
      <trkpt lat="37.7725184150040149688720703125" lon="-107.702994234859943389892578125">
        <ele>3966.60009765625</ele>
        <time>2023-07-29T14:59:22.000Z</time>
        <extensions>
          <ns3:TrackPointExtension>
            <ns3:hr>115</ns3:hr>
            <ns3:cad>45</ns3:cad>
          </ns3:TrackPointExtension>
        </extensions>
      </trkpt>
      <trkpt lat="37.7725157327950000762939453125" lon="-107.70299448631703853607177734375">
        <ele>3966.60009765625</ele>
        <time>2023-07-29T14:59:23.000Z</time>
        <extensions>
          <ns3:TrackPointExtension>
            <ns3:hr>115</ns3:hr>
            <ns3:cad>0</ns3:cad>
          </ns3:TrackPointExtension>
        </extensions>
      </trkpt>
      <trkpt lat="37.7725170738995075225830078125" lon="-107.7029897086322307586669921875">
        <ele>3966.800048828125</ele>
        <time>2023-07-29T14:59:24.000Z</time>
        <extensions>
          <ns3:TrackPointExtension>
            <ns3:hr>115</ns3:hr>
            <ns3:cad>0</ns3:cad>
          </ns3:TrackPointExtension>
        </extensions>
      </trkpt>
      <trkpt lat="37.77251715771853923797607421875" lon="-107.7029887028038501739501953125">
        <ele>3967</ele>
        <time>2023-07-29T14:59:25.000Z</time>
        <extensions>
          <ns3:TrackPointExtension>
            <ns3:hr>115</ns3:hr>
            <ns3:cad>0</ns3:cad>
          </ns3:TrackPointExtension>
        </extensions>
      </trkpt>
      <trkpt lat="37.77252000756561756134033203125" lon="-107.7029799856245517730712890625">
        <ele>3967.199951171875</ele>
        <time>2023-07-29T14:59:26.000Z</time>
        <extensions>
          <ns3:TrackPointExtension>
            <ns3:hr>115</ns3:hr>
            <ns3:cad>0</ns3:cad>
          </ns3:TrackPointExtension>
        </extensions>
      </trkpt>
      <trkpt lat="37.77252218686044216156005859375" lon="-107.70297487266361713409423828125">
        <ele>3967.39990234375</ele>
        <time>2023-07-29T14:59:27.000Z</time>
        <extensions>
          <ns3:TrackPointExtension>
            <ns3:hr>115</ns3:hr>
            <ns3:cad>0</ns3:cad>
          </ns3:TrackPointExtension>
        </extensions>
      </trkpt>
      <trkpt lat="37.77252419851720333099365234375" lon="-107.70296816714107990264892578125">
        <ele>3967.800048828125</ele>
        <time>2023-07-29T14:59:28.000Z</time>
        <extensions>
          <ns3:TrackPointExtension>
            <ns3:hr>116</ns3:hr>
            <ns3:cad>0</ns3:cad>
          </ns3:TrackPointExtension>
        </extensions>
      </trkpt>
      <trkpt lat="37.7725271321833133697509765625" lon="-107.70295643247663974761962890625">
        <ele>3967.800048828125</ele>
        <time>2023-07-29T14:59:29.000Z</time>
        <extensions>
          <ns3:TrackPointExtension>
            <ns3:hr>116</ns3:hr>
            <ns3:cad>0</ns3:cad>
          </ns3:TrackPointExtension>
        </extensions>
      </trkpt>
      <trkpt lat="37.77253098785877227783203125" lon="-107.70294536836445331573486328125">
        <ele>3967.800048828125</ele>
        <time>2023-07-29T14:59:30.000Z</time>
        <extensions>
          <ns3:TrackPointExtension>
            <ns3:hr>116</ns3:hr>
            <ns3:cad>0</ns3:cad>
          </ns3:TrackPointExtension>
        </extensions>
      </trkpt>
      <trkpt lat="37.77253308333456516265869140625" lon="-107.70293698646128177642822265625">
        <ele>3968</ele>
        <time>2023-07-29T14:59:31.000Z</time>
        <extensions>
          <ns3:TrackPointExtension>
            <ns3:hr>116</ns3:hr>
            <ns3:cad>0</ns3:cad>
          </ns3:TrackPointExtension>
        </extensions>
      </trkpt>
      <trkpt lat="37.77253492735326290130615234375" lon="-107.70292743109166622161865234375">
        <ele>3968.199951171875</ele>
        <time>2023-07-29T14:59:32.000Z</time>
        <extensions>
          <ns3:TrackPointExtension>
            <ns3:hr>116</ns3:hr>
            <ns3:cad>0</ns3:cad>
          </ns3:TrackPointExtension>
        </extensions>
      </trkpt>
      <trkpt lat="37.77253425680100917816162109375" lon="-107.7029146067798137664794921875">
        <ele>3968.39990234375</ele>
        <time>2023-07-29T14:59:33.000Z</time>
        <extensions>
          <ns3:TrackPointExtension>
            <ns3:hr>116</ns3:hr>
            <ns3:cad>0</ns3:cad>
          </ns3:TrackPointExtension>
        </extensions>
      </trkpt>
      <trkpt lat="37.77253241278231143951416015625" lon="-107.70290312357246875762939453125">
        <ele>3968.60009765625</ele>
        <time>2023-07-29T14:59:34.000Z</time>
        <extensions>
          <ns3:TrackPointExtension>
            <ns3:hr>116</ns3:hr>
            <ns3:cad>0</ns3:cad>
          </ns3:TrackPointExtension>
        </extensions>
      </trkpt>
      <trkpt lat="37.77253006584942340850830078125" lon="-107.70289130508899688720703125">
        <ele>3968.60009765625</ele>
        <time>2023-07-29T14:59:35.000Z</time>
        <extensions>
          <ns3:TrackPointExtension>
            <ns3:hr>115</ns3:hr>
            <ns3:cad>0</ns3:cad>
          </ns3:TrackPointExtension>
        </extensions>
      </trkpt>
      <trkpt lat="37.7725271321833133697509765625" lon="-107.7028839290142059326171875">
        <ele>3968.800048828125</ele>
        <time>2023-07-29T14:59:36.000Z</time>
        <extensions>
          <ns3:TrackPointExtension>
            <ns3:hr>115</ns3:hr>
            <ns3:cad>0</ns3:cad>
          </ns3:TrackPointExtension>
        </extensions>
      </trkpt>
      <trkpt lat="37.77252570725977420806884765625" lon="-107.7028740383684635162353515625">
        <ele>3969</ele>
        <time>2023-07-29T14:59:37.000Z</time>
        <extensions>
          <ns3:TrackPointExtension>
            <ns3:hr>115</ns3:hr>
            <ns3:cad>0</ns3:cad>
          </ns3:TrackPointExtension>
        </extensions>
      </trkpt>
      <trkpt lat="37.7725244499742984771728515625" lon="-107.702864147722721099853515625">
        <ele>3969.39990234375</ele>
        <time>2023-07-29T14:59:38.000Z</time>
        <extensions>
          <ns3:TrackPointExtension>
            <ns3:hr>115</ns3:hr>
            <ns3:cad>0</ns3:cad>
          </ns3:TrackPointExtension>
        </extensions>
      </trkpt>
      <trkpt lat="37.7725261263549327850341796875" lon="-107.70285652019083499908447265625">
        <ele>3969.60009765625</ele>
        <time>2023-07-29T14:59:39.000Z</time>
        <extensions>
          <ns3:TrackPointExtension>
            <ns3:hr>115</ns3:hr>
            <ns3:cad>0</ns3:cad>
          </ns3:TrackPointExtension>
        </extensions>
      </trkpt>
      <trkpt lat="37.77252973057329654693603515625" lon="-107.7028624713420867919921875">
        <ele>3969.800048828125</ele>
        <time>2023-07-29T14:59:40.000Z</time>
        <extensions>
          <ns3:TrackPointExtension>
            <ns3:hr>115</ns3:hr>
            <ns3:cad>0</ns3:cad>
          </ns3:TrackPointExtension>
        </extensions>
      </trkpt>
      <trkpt lat="37.772531993687152862548828125" lon="-107.7028653211891651153564453125">
        <ele>3970</ele>
        <time>2023-07-29T14:59:41.000Z</time>
        <extensions>
          <ns3:TrackPointExtension>
            <ns3:hr>115</ns3:hr>
            <ns3:cad>0</ns3:cad>
          </ns3:TrackPointExtension>
        </extensions>
      </trkpt>
      <trkpt lat="37.77253492735326290130615234375" lon="-107.702860124409198760986328125">
        <ele>3970.199951171875</ele>
        <time>2023-07-29T14:59:42.000Z</time>
        <extensions>
          <ns3:TrackPointExtension>
            <ns3:hr>115</ns3:hr>
            <ns3:cad>0</ns3:cad>
          </ns3:TrackPointExtension>
        </extensions>
      </trkpt>
      <trkpt lat="37.77253769338130950927734375" lon="-107.7028571069240570068359375">
        <ele>3970.199951171875</ele>
        <time>2023-07-29T14:59:43.000Z</time>
        <extensions>
          <ns3:TrackPointExtension>
            <ns3:hr>116</ns3:hr>
            <ns3:cad>0</ns3:cad>
          </ns3:TrackPointExtension>
        </extensions>
      </trkpt>
      <trkpt lat="37.77254180051386356353759765625" lon="-107.7028525806963443756103515625">
        <ele>3970.39990234375</ele>
        <time>2023-07-29T14:59:44.000Z</time>
        <extensions>
          <ns3:TrackPointExtension>
            <ns3:hr>116</ns3:hr>
            <ns3:cad>0</ns3:cad>
          </ns3:TrackPointExtension>
        </extensions>
      </trkpt>
      <trkpt lat="37.77254414744675159454345703125" lon="-107.70285065285861492156982421875">
        <ele>3970.60009765625</ele>
        <time>2023-07-29T14:59:45.000Z</time>
        <extensions>
          <ns3:TrackPointExtension>
            <ns3:hr>117</ns3:hr>
            <ns3:cad>0</ns3:cad>
          </ns3:TrackPointExtension>
        </extensions>
      </trkpt>
      <trkpt lat="37.77254783548414707183837890625" lon="-107.7028529159724712371826171875">
        <ele>3970.800048828125</ele>
        <time>2023-07-29T14:59:46.000Z</time>
        <extensions>
          <ns3:TrackPointExtension>
            <ns3:hr>118</ns3:hr>
            <ns3:cad>0</ns3:cad>
          </ns3:TrackPointExtension>
        </extensions>
      </trkpt>
      <trkpt lat="37.77255244553089141845703125" lon="-107.70285249687731266021728515625">
        <ele>3971</ele>
        <time>2023-07-29T14:59:47.000Z</time>
        <extensions>
          <ns3:TrackPointExtension>
            <ns3:hr>119</ns3:hr>
            <ns3:cad>0</ns3:cad>
          </ns3:TrackPointExtension>
        </extensions>
      </trkpt>
      <trkpt lat="37.77255588211119174957275390625" lon="-107.70285467617213726043701171875">
        <ele>3971</ele>
        <time>2023-07-29T14:59:48.000Z</time>
        <extensions>
          <ns3:TrackPointExtension>
            <ns3:hr>119</ns3:hr>
            <ns3:cad>0</ns3:cad>
          </ns3:TrackPointExtension>
        </extensions>
      </trkpt>
      <trkpt lat="37.77255806140601634979248046875" lon="-107.702854089438915252685546875">
        <ele>3971.199951171875</ele>
        <time>2023-07-29T14:59:49.000Z</time>
        <extensions>
          <ns3:TrackPointExtension>
            <ns3:hr>119</ns3:hr>
            <ns3:cad>47</ns3:cad>
          </ns3:TrackPointExtension>
        </extensions>
      </trkpt>
      <trkpt lat="37.77256174944341182708740234375" lon="-107.70285216160118579864501953125">
        <ele>3971.199951171875</ele>
        <time>2023-07-29T14:59:50.000Z</time>
        <extensions>
          <ns3:TrackPointExtension>
            <ns3:hr>119</ns3:hr>
            <ns3:cad>47</ns3:cad>
          </ns3:TrackPointExtension>
        </extensions>
      </trkpt>
      <trkpt lat="37.77257029898464679718017578125" lon="-107.70284495316445827484130859375">
        <ele>3971.199951171875</ele>
        <time>2023-07-29T14:59:51.000Z</time>
        <extensions>
          <ns3:TrackPointExtension>
            <ns3:hr>119</ns3:hr>
            <ns3:cad>47</ns3:cad>
          </ns3:TrackPointExtension>
        </extensions>
      </trkpt>
      <trkpt lat="37.77257951907813549041748046875" lon="-107.702835984528064727783203125">
        <ele>3971.199951171875</ele>
        <time>2023-07-29T14:59:52.000Z</time>
        <extensions>
          <ns3:TrackPointExtension>
            <ns3:hr>120</ns3:hr>
            <ns3:cad>47</ns3:cad>
          </ns3:TrackPointExtension>
        </extensions>
      </trkpt>
      <trkpt lat="37.77258588932454586029052734375" lon="-107.7028307877480983734130859375">
        <ele>3971.199951171875</ele>
        <time>2023-07-29T14:59:53.000Z</time>
        <extensions>
          <ns3:TrackPointExtension>
            <ns3:hr>120</ns3:hr>
            <ns3:cad>47</ns3:cad>
          </ns3:TrackPointExtension>
        </extensions>
      </trkpt>
      <trkpt lat="37.77259376831352710723876953125" lon="-107.70282366313040256500244140625">
        <ele>3971.199951171875</ele>
        <time>2023-07-29T14:59:54.000Z</time>
        <extensions>
          <ns3:TrackPointExtension>
            <ns3:hr>120</ns3:hr>
            <ns3:cad>62</ns3:cad>
          </ns3:TrackPointExtension>
        </extensions>
      </trkpt>
      <trkpt lat="37.772597707808017730712890625" lon="-107.70281754434108734130859375">
        <ele>3971.199951171875</ele>
        <time>2023-07-29T14:59:55.000Z</time>
        <extensions>
          <ns3:TrackPointExtension>
            <ns3:hr>120</ns3:hr>
            <ns3:cad>62</ns3:cad>
          </ns3:TrackPointExtension>
        </extensions>
      </trkpt>
      <trkpt lat="37.77259963564574718475341796875" lon="-107.70281377248466014862060546875">
        <ele>3971.39990234375</ele>
        <time>2023-07-29T14:59:56.000Z</time>
        <extensions>
          <ns3:TrackPointExtension>
            <ns3:hr>120</ns3:hr>
            <ns3:cad>0</ns3:cad>
          </ns3:TrackPointExtension>
        </extensions>
      </trkpt>
      <trkpt lat="37.7725988812744617462158203125" lon="-107.70281410776078701019287109375">
        <ele>3971.800048828125</ele>
        <time>2023-07-29T14:59:57.000Z</time>
        <extensions>
          <ns3:TrackPointExtension>
            <ns3:hr>120</ns3:hr>
            <ns3:cad>0</ns3:cad>
          </ns3:TrackPointExtension>
        </extensions>
      </trkpt>
      <trkpt lat="37.7725975401699542999267578125" lon="-107.70281276665627956390380859375">
        <ele>3971.800048828125</ele>
        <time>2023-07-29T14:59:58.000Z</time>
        <extensions>
          <ns3:TrackPointExtension>
            <ns3:hr>119</ns3:hr>
            <ns3:cad>0</ns3:cad>
          </ns3:TrackPointExtension>
        </extensions>
      </trkpt>
      <trkpt lat="37.77259594760835170745849609375" lon="-107.702810503542423248291015625">
        <ele>3971.800048828125</ele>
        <time>2023-07-29T14:59:59.000Z</time>
        <extensions>
          <ns3:TrackPointExtension>
            <ns3:hr>119</ns3:hr>
            <ns3:cad>0</ns3:cad>
          </ns3:TrackPointExtension>
        </extensions>
      </trkpt>
      <trkpt lat="37.77259376831352710723876953125" lon="-107.7028069831430912017822265625">
        <ele>3972</ele>
        <time>2023-07-29T15:00:00.000Z</time>
        <extensions>
          <ns3:TrackPointExtension>
            <ns3:hr>119</ns3:hr>
            <ns3:cad>0</ns3:cad>
          </ns3:TrackPointExtension>
        </extensions>
      </trkpt>
      <trkpt lat="37.77259175665676593780517578125" lon="-107.702805809676647186279296875">
        <ele>3972.199951171875</ele>
        <time>2023-07-29T15:00:01.000Z</time>
        <extensions>
          <ns3:TrackPointExtension>
            <ns3:hr>119</ns3:hr>
            <ns3:cad>0</ns3:cad>
          </ns3:TrackPointExtension>
        </extensions>
      </trkpt>
      <trkpt lat="37.772589661180973052978515625" lon="-107.7028088271617889404296875">
        <ele>3972.199951171875</ele>
        <time>2023-07-29T15:00:02.000Z</time>
        <extensions>
          <ns3:TrackPointExtension>
            <ns3:hr>118</ns3:hr>
            <ns3:cad>0</ns3:cad>
          </ns3:TrackPointExtension>
        </extensions>
      </trkpt>
      <trkpt lat="37.772578932344913482666015625" lon="-107.70281829871237277984619140625">
        <ele>3972.199951171875</ele>
        <time>2023-07-29T15:00:03.000Z</time>
        <extensions>
          <ns3:TrackPointExtension>
            <ns3:hr>117</ns3:hr>
            <ns3:cad>0</ns3:cad>
          </ns3:TrackPointExtension>
        </extensions>
      </trkpt>
      <trkpt lat="37.77256862260401248931884765625" lon="-107.70282215438783168792724609375">
        <ele>3972.199951171875</ele>
        <time>2023-07-29T15:00:04.000Z</time>
        <extensions>
          <ns3:TrackPointExtension>
            <ns3:hr>117</ns3:hr>
            <ns3:cad>0</ns3:cad>
          </ns3:TrackPointExtension>
        </extensions>
      </trkpt>
      <trkpt lat="37.7725677005946636199951171875" lon="-107.70282399840652942657470703125">
        <ele>3972.199951171875</ele>
        <time>2023-07-29T15:00:05.000Z</time>
        <extensions>
          <ns3:TrackPointExtension>
            <ns3:hr>117</ns3:hr>
            <ns3:cad>0</ns3:cad>
          </ns3:TrackPointExtension>
        </extensions>
      </trkpt>
      <trkpt lat="37.77257147245109081268310546875" lon="-107.7028257586061954498291015625">
        <ele>3972.199951171875</ele>
        <time>2023-07-29T15:00:06.000Z</time>
        <extensions>
          <ns3:TrackPointExtension>
            <ns3:hr>117</ns3:hr>
            <ns3:cad>0</ns3:cad>
          </ns3:TrackPointExtension>
        </extensions>
      </trkpt>
      <trkpt lat="37.77257700450718402862548828125" lon="-107.7028274349868297576904296875">
        <ele>3972</ele>
        <time>2023-07-29T15:00:07.000Z</time>
        <extensions>
          <ns3:TrackPointExtension>
            <ns3:hr>117</ns3:hr>
            <ns3:cad>0</ns3:cad>
          </ns3:TrackPointExtension>
        </extensions>
      </trkpt>
      <trkpt lat="37.77258706279098987579345703125" lon="-107.70282885991036891937255859375">
        <ele>3971.800048828125</ele>
        <time>2023-07-29T15:00:08.000Z</time>
        <extensions>
          <ns3:TrackPointExtension>
            <ns3:hr>117</ns3:hr>
            <ns3:cad>0</ns3:cad>
          </ns3:TrackPointExtension>
        </extensions>
      </trkpt>
      <trkpt lat="37.77258731424808502197265625" lon="-107.70283623598515987396240234375">
        <ele>3971.60009765625</ele>
        <time>2023-07-29T15:00:09.000Z</time>
        <extensions>
          <ns3:TrackPointExtension>
            <ns3:hr>117</ns3:hr>
            <ns3:cad>61</ns3:cad>
          </ns3:TrackPointExtension>
        </extensions>
      </trkpt>
      <trkpt lat="37.7725945226848125457763671875" lon="-107.702840007841587066650390625">
        <ele>3971.60009765625</ele>
        <time>2023-07-29T15:00:10.000Z</time>
        <extensions>
          <ns3:TrackPointExtension>
            <ns3:hr>117</ns3:hr>
            <ns3:cad>61</ns3:cad>
          </ns3:TrackPointExtension>
        </extensions>
      </trkpt>
      <trkpt lat="37.77259360067546367645263671875" lon="-107.70283631980419158935546875">
        <ele>3971.60009765625</ele>
        <time>2023-07-29T15:00:11.000Z</time>
        <extensions>
          <ns3:TrackPointExtension>
            <ns3:hr>117</ns3:hr>
            <ns3:cad>0</ns3:cad>
          </ns3:TrackPointExtension>
        </extensions>
      </trkpt>
      <trkpt lat="37.77258823625743389129638671875" lon="-107.70283238030970096588134765625">
        <ele>3971.60009765625</ele>
        <time>2023-07-29T15:00:12.000Z</time>
        <extensions>
          <ns3:TrackPointExtension>
            <ns3:hr>117</ns3:hr>
            <ns3:cad>0</ns3:cad>
          </ns3:TrackPointExtension>
        </extensions>
      </trkpt>
      <trkpt lat="37.77258605696260929107666015625" lon="-107.70282961428165435791015625">
        <ele>3971.60009765625</ele>
        <time>2023-07-29T15:00:13.000Z</time>
        <extensions>
          <ns3:TrackPointExtension>
            <ns3:hr>116</ns3:hr>
            <ns3:cad>0</ns3:cad>
          </ns3:TrackPointExtension>
        </extensions>
      </trkpt>
      <trkpt lat="37.7725854702293872833251953125" lon="-107.70282433368265628814697265625">
        <ele>3971.60009765625</ele>
        <time>2023-07-29T15:00:14.000Z</time>
        <extensions>
          <ns3:TrackPointExtension>
            <ns3:hr>115</ns3:hr>
            <ns3:cad>0</ns3:cad>
          </ns3:TrackPointExtension>
        </extensions>
      </trkpt>
      <trkpt lat="37.77258438058197498321533203125" lon="-107.70281544886529445648193359375">
        <ele>3971.39990234375</ele>
        <time>2023-07-29T15:00:15.000Z</time>
        <extensions>
          <ns3:TrackPointExtension>
            <ns3:hr>115</ns3:hr>
            <ns3:cad>0</ns3:cad>
          </ns3:TrackPointExtension>
        </extensions>
      </trkpt>
      <trkpt lat="37.7725841291248798370361328125" lon="-107.70280958153307437896728515625">
        <ele>3971.39990234375</ele>
        <time>2023-07-29T15:00:16.000Z</time>
        <extensions>
          <ns3:TrackPointExtension>
            <ns3:hr>115</ns3:hr>
            <ns3:cad>0</ns3:cad>
          </ns3:TrackPointExtension>
        </extensions>
      </trkpt>
      <trkpt lat="37.77258169837296009063720703125" lon="-107.702802121639251708984375">
        <ele>3971.39990234375</ele>
        <time>2023-07-29T15:00:17.000Z</time>
        <extensions>
          <ns3:TrackPointExtension>
            <ns3:hr>114</ns3:hr>
            <ns3:cad>0</ns3:cad>
          </ns3:TrackPointExtension>
        </extensions>
      </trkpt>
      <trkpt lat="37.77257683686912059783935546875" lon="-107.702787034213542938232421875">
        <ele>3971.39990234375</ele>
        <time>2023-07-29T15:00:18.000Z</time>
        <extensions>
          <ns3:TrackPointExtension>
            <ns3:hr>114</ns3:hr>
            <ns3:cad>0</ns3:cad>
          </ns3:TrackPointExtension>
        </extensions>
      </trkpt>
      <trkpt lat="37.77257767505943775177001953125" lon="-107.70278829149901866912841796875">
        <ele>3971.39990234375</ele>
        <time>2023-07-29T15:00:19.000Z</time>
        <extensions>
          <ns3:TrackPointExtension>
            <ns3:hr>113</ns3:hr>
            <ns3:cad>0</ns3:cad>
          </ns3:TrackPointExtension>
        </extensions>
      </trkpt>
      <trkpt lat="37.772575914859771728515625" lon="-107.70277923904359340667724609375">
        <ele>3971.39990234375</ele>
        <time>2023-07-29T15:00:20.000Z</time>
        <extensions>
          <ns3:TrackPointExtension>
            <ns3:hr>113</ns3:hr>
            <ns3:cad>0</ns3:cad>
          </ns3:TrackPointExtension>
        </extensions>
      </trkpt>
      <trkpt lat="37.772575914859771728515625" lon="-107.70278192125260829925537109375">
        <ele>3971.39990234375</ele>
        <time>2023-07-29T15:00:21.000Z</time>
        <extensions>
          <ns3:TrackPointExtension>
            <ns3:hr>113</ns3:hr>
            <ns3:cad>0</ns3:cad>
          </ns3:TrackPointExtension>
        </extensions>
      </trkpt>
      <trkpt lat="37.7725770883262157440185546875" lon="-107.70278795622289180755615234375">
        <ele>3971.39990234375</ele>
        <time>2023-07-29T15:00:22.000Z</time>
        <extensions>
          <ns3:TrackPointExtension>
            <ns3:hr>114</ns3:hr>
            <ns3:cad>0</ns3:cad>
          </ns3:TrackPointExtension>
        </extensions>
      </trkpt>
      <trkpt lat="37.77257817797362804412841796875" lon="-107.70279667340219020843505859375">
        <ele>3971.39990234375</ele>
        <time>2023-07-29T15:00:23.000Z</time>
        <extensions>
          <ns3:TrackPointExtension>
            <ns3:hr>114</ns3:hr>
            <ns3:cad>0</ns3:cad>
          </ns3:TrackPointExtension>
        </extensions>
      </trkpt>
      <trkpt lat="37.7725804410874843597412109375" lon="-107.70280388183891773223876953125">
        <ele>3971.39990234375</ele>
        <time>2023-07-29T15:00:24.000Z</time>
        <extensions>
          <ns3:TrackPointExtension>
            <ns3:hr>114</ns3:hr>
            <ns3:cad>0</ns3:cad>
          </ns3:TrackPointExtension>
        </extensions>
      </trkpt>
      <trkpt lat="37.7725827880203723907470703125" lon="-107.7028059773147106170654296875">
        <ele>3971.60009765625</ele>
        <time>2023-07-29T15:00:25.000Z</time>
        <extensions>
          <ns3:TrackPointExtension>
            <ns3:hr>114</ns3:hr>
            <ns3:cad>0</ns3:cad>
          </ns3:TrackPointExtension>
        </extensions>
      </trkpt>
      <trkpt lat="37.77258505113422870635986328125" lon="-107.70280287601053714752197265625">
        <ele>3971.60009765625</ele>
        <time>2023-07-29T15:00:26.000Z</time>
        <extensions>
          <ns3:TrackPointExtension>
            <ns3:hr>114</ns3:hr>
            <ns3:cad>0</ns3:cad>
          </ns3:TrackPointExtension>
        </extensions>
      </trkpt>
      <trkpt lat="37.77258873917162418365478515625" lon="-107.70279533229768276214599609375">
        <ele>3971.60009765625</ele>
        <time>2023-07-29T15:00:27.000Z</time>
        <extensions>
          <ns3:TrackPointExtension>
            <ns3:hr>114</ns3:hr>
            <ns3:cad>0</ns3:cad>
          </ns3:TrackPointExtension>
        </extensions>
      </trkpt>
      <trkpt lat="37.77259661816060543060302734375" lon="-107.70279298536479473114013671875">
        <ele>3971.60009765625</ele>
        <time>2023-07-29T15:00:28.000Z</time>
        <extensions>
          <ns3:TrackPointExtension>
            <ns3:hr>114</ns3:hr>
            <ns3:cad>0</ns3:cad>
          </ns3:TrackPointExtension>
        </extensions>
      </trkpt>
      <trkpt lat="37.772595696151256561279296875" lon="-107.70279114134609699249267578125">
        <ele>3971.60009765625</ele>
        <time>2023-07-29T15:00:29.000Z</time>
        <extensions>
          <ns3:TrackPointExtension>
            <ns3:hr>112</ns3:hr>
            <ns3:cad>0</ns3:cad>
          </ns3:TrackPointExtension>
        </extensions>
      </trkpt>
      <trkpt lat="37.77259695343673229217529296875" lon="-107.702787034213542938232421875">
        <ele>3971.800048828125</ele>
        <time>2023-07-29T15:00:30.000Z</time>
        <extensions>
          <ns3:TrackPointExtension>
            <ns3:hr>112</ns3:hr>
            <ns3:cad>0</ns3:cad>
          </ns3:TrackPointExtension>
        </extensions>
      </trkpt>
      <trkpt lat="37.77259225957095623016357421875" lon="-107.70278812386095523834228515625">
        <ele>3971.800048828125</ele>
        <time>2023-07-29T15:00:31.000Z</time>
        <extensions>
          <ns3:TrackPointExtension>
            <ns3:hr>111</ns3:hr>
            <ns3:cad>0</ns3:cad>
          </ns3:TrackPointExtension>
        </extensions>
      </trkpt>
      <trkpt lat="37.7725864760577678680419921875" lon="-107.70279097370803356170654296875">
        <ele>3971.800048828125</ele>
        <time>2023-07-29T15:00:32.000Z</time>
        <extensions>
          <ns3:TrackPointExtension>
            <ns3:hr>107</ns3:hr>
            <ns3:cad>0</ns3:cad>
          </ns3:TrackPointExtension>
        </extensions>
      </trkpt>
      <trkpt lat="37.7725841291248798370361328125" lon="-107.70279382355511188507080078125">
        <ele>3972</ele>
        <time>2023-07-29T15:00:33.000Z</time>
        <extensions>
          <ns3:TrackPointExtension>
            <ns3:hr>104</ns3:hr>
            <ns3:cad>0</ns3:cad>
          </ns3:TrackPointExtension>
        </extensions>
      </trkpt>
      <trkpt lat="37.7725817821919918060302734375" lon="-107.70279499702155590057373046875">
        <ele>3972.199951171875</ele>
        <time>2023-07-29T15:00:34.000Z</time>
        <extensions>
          <ns3:TrackPointExtension>
            <ns3:hr>104</ns3:hr>
            <ns3:cad>0</ns3:cad>
          </ns3:TrackPointExtension>
        </extensions>
      </trkpt>
      <trkpt lat="37.7725777588784694671630859375" lon="-107.702796757221221923828125">
        <ele>3972.39990234375</ele>
        <time>2023-07-29T15:00:35.000Z</time>
        <extensions>
          <ns3:TrackPointExtension>
            <ns3:hr>103</ns3:hr>
            <ns3:cad>0</ns3:cad>
          </ns3:TrackPointExtension>
        </extensions>
      </trkpt>
      <trkpt lat="37.7725734002888202667236328125" lon="-107.7027996070683002471923828125">
        <ele>3972.800048828125</ele>
        <time>2023-07-29T15:00:36.000Z</time>
        <extensions>
          <ns3:TrackPointExtension>
            <ns3:hr>103</ns3:hr>
            <ns3:cad>0</ns3:cad>
          </ns3:TrackPointExtension>
        </extensions>
      </trkpt>
      <trkpt lat="37.77257147245109081268310546875" lon="-107.70280622877180576324462890625">
        <ele>3972.800048828125</ele>
        <time>2023-07-29T15:00:37.000Z</time>
        <extensions>
          <ns3:TrackPointExtension>
            <ns3:hr>103</ns3:hr>
            <ns3:cad>0</ns3:cad>
          </ns3:TrackPointExtension>
        </extensions>
      </trkpt>
      <trkpt lat="37.7725894935429096221923828125" lon="-107.7028026245534420013427734375">
        <ele>3972.800048828125</ele>
        <time>2023-07-29T15:00:38.000Z</time>
        <extensions>
          <ns3:TrackPointExtension>
            <ns3:hr>102</ns3:hr>
            <ns3:cad>0</ns3:cad>
          </ns3:TrackPointExtension>
        </extensions>
      </trkpt>
      <trkpt lat="37.77259670197963714599609375" lon="-107.7028006128966808319091796875">
        <ele>3972.800048828125</ele>
        <time>2023-07-29T15:00:39.000Z</time>
        <extensions>
          <ns3:TrackPointExtension>
            <ns3:hr>101</ns3:hr>
            <ns3:cad>0</ns3:cad>
          </ns3:TrackPointExtension>
        </extensions>
      </trkpt>
      <trkpt lat="37.772599719464778900146484375" lon="-107.702804468572139739990234375">
        <ele>3972.800048828125</ele>
        <time>2023-07-29T15:00:40.000Z</time>
        <extensions>
          <ns3:TrackPointExtension>
            <ns3:hr>101</ns3:hr>
            <ns3:cad>0</ns3:cad>
          </ns3:TrackPointExtension>
        </extensions>
      </trkpt>
      <trkpt lat="37.77260114438831806182861328125" lon="-107.7028046362102031707763671875">
        <ele>3972.800048828125</ele>
        <time>2023-07-29T15:00:41.000Z</time>
        <extensions>
          <ns3:TrackPointExtension>
            <ns3:hr>101</ns3:hr>
            <ns3:cad>0</ns3:cad>
          </ns3:TrackPointExtension>
        </extensions>
      </trkpt>
      <trkpt lat="37.772604413330554962158203125" lon="-107.70280622877180576324462890625">
        <ele>3972.60009765625</ele>
        <time>2023-07-29T15:00:42.000Z</time>
        <extensions>
          <ns3:TrackPointExtension>
            <ns3:hr>100</ns3:hr>
            <ns3:cad>0</ns3:cad>
          </ns3:TrackPointExtension>
        </extensions>
      </trkpt>
      <trkpt lat="37.77261354960501194000244140625" lon="-107.7028187178075313568115234375">
        <ele>3972.199951171875</ele>
        <time>2023-07-29T15:00:43.000Z</time>
        <extensions>
          <ns3:TrackPointExtension>
            <ns3:hr>99</ns3:hr>
            <ns3:cad>0</ns3:cad>
          </ns3:TrackPointExtension>
        </extensions>
      </trkpt>
      <trkpt lat="37.7726148068904876708984375" lon="-107.7028200589120388031005859375">
        <ele>3971.800048828125</ele>
        <time>2023-07-29T15:00:44.000Z</time>
        <extensions>
          <ns3:TrackPointExtension>
            <ns3:hr>99</ns3:hr>
            <ns3:cad>0</ns3:cad>
          </ns3:TrackPointExtension>
        </extensions>
      </trkpt>
      <trkpt lat="37.77261639945209026336669921875" lon="-107.7028222382068634033203125">
        <ele>3971.800048828125</ele>
        <time>2023-07-29T15:00:45.000Z</time>
        <extensions>
          <ns3:TrackPointExtension>
            <ns3:hr>96</ns3:hr>
            <ns3:cad>0</ns3:cad>
          </ns3:TrackPointExtension>
        </extensions>
      </trkpt>
      <trkpt lat="37.77261505834758281707763671875" lon="-107.70282500423491001129150390625">
        <ele>3971.800048828125</ele>
        <time>2023-07-29T15:00:46.000Z</time>
        <extensions>
          <ns3:TrackPointExtension>
            <ns3:hr>96</ns3:hr>
            <ns3:cad>0</ns3:cad>
          </ns3:TrackPointExtension>
        </extensions>
      </trkpt>
      <trkpt lat="37.772606424987316131591796875" lon="-107.70282290875911712646484375">
        <ele>3971.800048828125</ele>
        <time>2023-07-29T15:00:47.000Z</time>
        <extensions>
          <ns3:TrackPointExtension>
            <ns3:hr>94</ns3:hr>
            <ns3:cad>0</ns3:cad>
          </ns3:TrackPointExtension>
        </extensions>
      </trkpt>
      <trkpt lat="37.77260650880634784698486328125" lon="-107.70281695760786533355712890625">
        <ele>3971.800048828125</ele>
        <time>2023-07-29T15:00:48.000Z</time>
        <extensions>
          <ns3:TrackPointExtension>
            <ns3:hr>91</ns3:hr>
            <ns3:cad>0</ns3:cad>
          </ns3:TrackPointExtension>
        </extensions>
      </trkpt>
      <trkpt lat="37.77260114438831806182861328125" lon="-107.70281578414142131805419921875">
        <ele>3971.800048828125</ele>
        <time>2023-07-29T15:00:49.000Z</time>
        <extensions>
          <ns3:TrackPointExtension>
            <ns3:hr>90</ns3:hr>
            <ns3:cad>0</ns3:cad>
          </ns3:TrackPointExtension>
        </extensions>
      </trkpt>
      <trkpt lat="37.77259611524641513824462890625" lon="-107.70281595177948474884033203125">
        <ele>3971.800048828125</ele>
        <time>2023-07-29T15:00:50.000Z</time>
        <extensions>
          <ns3:TrackPointExtension>
            <ns3:hr>90</ns3:hr>
            <ns3:cad>0</ns3:cad>
          </ns3:TrackPointExtension>
        </extensions>
      </trkpt>
      <trkpt lat="37.77259142138063907623291015625" lon="-107.70281695760786533355712890625">
        <ele>3971.800048828125</ele>
        <time>2023-07-29T15:00:51.000Z</time>
        <extensions>
          <ns3:TrackPointExtension>
            <ns3:hr>88</ns3:hr>
            <ns3:cad>0</ns3:cad>
          </ns3:TrackPointExtension>
        </extensions>
      </trkpt>
      <trkpt lat="37.7725901640951633453369140625" lon="-107.702819891273975372314453125">
        <ele>3971.800048828125</ele>
        <time>2023-07-29T15:00:52.000Z</time>
        <extensions>
          <ns3:TrackPointExtension>
            <ns3:hr>88</ns3:hr>
            <ns3:cad>0</ns3:cad>
          </ns3:TrackPointExtension>
        </extensions>
      </trkpt>
      <trkpt lat="37.7725933492183685302734375" lon="-107.7028203941881656646728515625">
        <ele>3971.800048828125</ele>
        <time>2023-07-29T15:00:53.000Z</time>
        <extensions>
          <ns3:TrackPointExtension>
            <ns3:hr>88</ns3:hr>
            <ns3:cad>0</ns3:cad>
          </ns3:TrackPointExtension>
        </extensions>
      </trkpt>
      <trkpt lat="37.7726220153272151947021484375" lon="-107.70283363759517669677734375">
        <ele>3971.800048828125</ele>
        <time>2023-07-29T15:00:54.000Z</time>
        <extensions>
          <ns3:TrackPointExtension>
            <ns3:hr>88</ns3:hr>
            <ns3:cad>0</ns3:cad>
          </ns3:TrackPointExtension>
        </extensions>
      </trkpt>
      <trkpt lat="37.77262042276561260223388671875" lon="-107.70283095538616180419921875">
        <ele>3972</ele>
        <time>2023-07-29T15:00:55.000Z</time>
        <extensions>
          <ns3:TrackPointExtension>
            <ns3:hr>88</ns3:hr>
            <ns3:cad>0</ns3:cad>
          </ns3:TrackPointExtension>
        </extensions>
      </trkpt>
      <trkpt lat="37.77262528426945209503173828125" lon="-107.70282969810068607330322265625">
        <ele>3972</ele>
        <time>2023-07-29T15:00:56.000Z</time>
        <extensions>
          <ns3:TrackPointExtension>
            <ns3:hr>88</ns3:hr>
            <ns3:cad>0</ns3:cad>
          </ns3:TrackPointExtension>
        </extensions>
      </trkpt>
      <trkpt lat="37.77262159623205661773681640625" lon="-107.70281980745494365692138671875">
        <ele>3972</ele>
        <time>2023-07-29T15:00:57.000Z</time>
        <extensions>
          <ns3:TrackPointExtension>
            <ns3:hr>87</ns3:hr>
            <ns3:cad>0</ns3:cad>
          </ns3:TrackPointExtension>
        </extensions>
      </trkpt>
      <trkpt lat="37.7726179920136928558349609375" lon="-107.702809162437915802001953125">
        <ele>3972</ele>
        <time>2023-07-29T15:00:58.000Z</time>
        <extensions>
          <ns3:TrackPointExtension>
            <ns3:hr>87</ns3:hr>
            <ns3:cad>0</ns3:cad>
          </ns3:TrackPointExtension>
        </extensions>
      </trkpt>
      <trkpt lat="37.77261271141469478607177734375" lon="-107.70279516465961933135986328125">
        <ele>3972</ele>
        <time>2023-07-29T15:00:59.000Z</time>
        <extensions>
          <ns3:TrackPointExtension>
            <ns3:hr>87</ns3:hr>
            <ns3:cad>0</ns3:cad>
          </ns3:TrackPointExtension>
        </extensions>
      </trkpt>
      <trkpt lat="37.77260868810117244720458984375" lon="-107.70278544165194034576416015625">
        <ele>3972.199951171875</ele>
        <time>2023-07-29T15:01:00.000Z</time>
        <extensions>
          <ns3:TrackPointExtension>
            <ns3:hr>88</ns3:hr>
            <ns3:cad>0</ns3:cad>
          </ns3:TrackPointExtension>
        </extensions>
      </trkpt>
      <trkpt lat="37.77260483242571353912353515625" lon="-107.70278535783290863037109375">
        <ele>3972.39990234375</ele>
        <time>2023-07-29T15:01:01.000Z</time>
        <extensions>
          <ns3:TrackPointExtension>
            <ns3:hr>88</ns3:hr>
            <ns3:cad>0</ns3:cad>
          </ns3:TrackPointExtension>
        </extensions>
      </trkpt>
      <trkpt lat="37.7726032398641109466552734375" lon="-107.702790386974811553955078125">
        <ele>3972.39990234375</ele>
        <time>2023-07-29T15:01:02.000Z</time>
        <extensions>
          <ns3:TrackPointExtension>
            <ns3:hr>88</ns3:hr>
            <ns3:cad>0</ns3:cad>
          </ns3:TrackPointExtension>
        </extensions>
      </trkpt>
      <trkpt lat="37.77260030619800090789794921875" lon="-107.702791057527065277099609375">
        <ele>3972.39990234375</ele>
        <time>2023-07-29T15:01:03.000Z</time>
        <extensions>
          <ns3:TrackPointExtension>
            <ns3:hr>88</ns3:hr>
            <ns3:cad>0</ns3:cad>
          </ns3:TrackPointExtension>
        </extensions>
      </trkpt>
      <trkpt lat="37.7725985459983348846435546875" lon="-107.70278192125260829925537109375">
        <ele>3972.39990234375</ele>
        <time>2023-07-29T15:01:04.000Z</time>
        <extensions>
          <ns3:TrackPointExtension>
            <ns3:hr>89</ns3:hr>
            <ns3:cad>0</ns3:cad>
          </ns3:TrackPointExtension>
        </extensions>
      </trkpt>
      <trkpt lat="37.772600390017032623291015625" lon="-107.70277353934943675994873046875">
        <ele>3972.39990234375</ele>
        <time>2023-07-29T15:01:05.000Z</time>
        <extensions>
          <ns3:TrackPointExtension>
            <ns3:hr>89</ns3:hr>
            <ns3:cad>0</ns3:cad>
          </ns3:TrackPointExtension>
        </extensions>
      </trkpt>
      <trkpt lat="37.7725968696177005767822265625" lon="-107.70275794900953769683837890625">
        <ele>3972.39990234375</ele>
        <time>2023-07-29T15:01:06.000Z</time>
        <extensions>
          <ns3:TrackPointExtension>
            <ns3:hr>89</ns3:hr>
            <ns3:cad>0</ns3:cad>
          </ns3:TrackPointExtension>
        </extensions>
      </trkpt>
      <trkpt lat="37.77259108610451221466064453125" lon="-107.70276180468499660491943359375">
        <ele>3972.199951171875</ele>
        <time>2023-07-29T15:01:07.000Z</time>
        <extensions>
          <ns3:TrackPointExtension>
            <ns3:hr>89</ns3:hr>
            <ns3:cad>0</ns3:cad>
          </ns3:TrackPointExtension>
        </extensions>
      </trkpt>
      <trkpt lat="37.772588320076465606689453125" lon="-107.70276616327464580535888671875">
        <ele>3972.199951171875</ele>
        <time>2023-07-29T15:01:08.000Z</time>
        <extensions>
          <ns3:TrackPointExtension>
            <ns3:hr>90</ns3:hr>
            <ns3:cad>0</ns3:cad>
          </ns3:TrackPointExtension>
        </extensions>
      </trkpt>
      <trkpt lat="37.77258521877229213714599609375" lon="-107.702768929302692413330078125">
        <ele>3972</ele>
        <time>2023-07-29T15:01:09.000Z</time>
        <extensions>
          <ns3:TrackPointExtension>
            <ns3:hr>89</ns3:hr>
            <ns3:cad>0</ns3:cad>
          </ns3:TrackPointExtension>
        </extensions>
      </trkpt>
      <trkpt lat="37.77258421294391155242919921875" lon="-107.70277286879718303680419921875">
        <ele>3972</ele>
        <time>2023-07-29T15:01:10.000Z</time>
        <extensions>
          <ns3:TrackPointExtension>
            <ns3:hr>89</ns3:hr>
            <ns3:cad>0</ns3:cad>
          </ns3:TrackPointExtension>
        </extensions>
      </trkpt>
      <trkpt lat="37.7725807763636112213134765625" lon="-107.70277605392038822174072265625">
        <ele>3971.800048828125</ele>
        <time>2023-07-29T15:01:11.000Z</time>
        <extensions>
          <ns3:TrackPointExtension>
            <ns3:hr>89</ns3:hr>
            <ns3:cad>0</ns3:cad>
          </ns3:TrackPointExtension>
        </extensions>
      </trkpt>
      <trkpt lat="37.77257700450718402862548828125" lon="-107.7027821727097034454345703125">
        <ele>3971.800048828125</ele>
        <time>2023-07-29T15:01:12.000Z</time>
        <extensions>
          <ns3:TrackPointExtension>
            <ns3:hr>86</ns3:hr>
            <ns3:cad>0</ns3:cad>
          </ns3:TrackPointExtension>
        </extensions>
      </trkpt>
      <trkpt lat="37.77257256209850311279296875" lon="-107.70278678275644779205322265625">
        <ele>3971.800048828125</ele>
        <time>2023-07-29T15:01:13.000Z</time>
        <extensions>
          <ns3:TrackPointExtension>
            <ns3:hr>84</ns3:hr>
            <ns3:cad>0</ns3:cad>
          </ns3:TrackPointExtension>
        </extensions>
      </trkpt>
      <trkpt lat="37.77257130481302738189697265625" lon="-107.7027815021574497222900390625">
        <ele>3971.800048828125</ele>
        <time>2023-07-29T15:01:14.000Z</time>
        <extensions>
          <ns3:TrackPointExtension>
            <ns3:hr>84</ns3:hr>
            <ns3:cad>0</ns3:cad>
          </ns3:TrackPointExtension>
        </extensions>
      </trkpt>
      <trkpt lat="37.77257063426077365875244140625" lon="-107.70277840085327625274658203125">
        <ele>3971.800048828125</ele>
        <time>2023-07-29T15:01:15.000Z</time>
        <extensions>
          <ns3:TrackPointExtension>
            <ns3:hr>84</ns3:hr>
            <ns3:cad>0</ns3:cad>
          </ns3:TrackPointExtension>
        </extensions>
      </trkpt>
      <trkpt lat="37.77257113717496395111083984375" lon="-107.7027791552245616912841796875">
        <ele>3971.800048828125</ele>
        <time>2023-07-29T15:01:16.000Z</time>
        <extensions>
          <ns3:TrackPointExtension>
            <ns3:hr>80</ns3:hr>
            <ns3:cad>0</ns3:cad>
          </ns3:TrackPointExtension>
        </extensions>
      </trkpt>
      <trkpt lat="37.77257046662271022796630859375" lon="-107.702783010900020599365234375">
        <ele>3971.800048828125</ele>
        <time>2023-07-29T15:01:17.000Z</time>
        <extensions>
          <ns3:TrackPointExtension>
            <ns3:hr>78</ns3:hr>
            <ns3:cad>0</ns3:cad>
          </ns3:TrackPointExtension>
        </extensions>
      </trkpt>
      <trkpt lat="37.7725710533559322357177734375" lon="-107.70278410054743289947509765625">
        <ele>3971.800048828125</ele>
        <time>2023-07-29T15:01:18.000Z</time>
        <extensions>
          <ns3:TrackPointExtension>
            <ns3:hr>78</ns3:hr>
            <ns3:cad>0</ns3:cad>
          </ns3:TrackPointExtension>
        </extensions>
      </trkpt>
      <trkpt lat="37.7725703828036785125732421875" lon="-107.702782340347766876220703125">
        <ele>3972</ele>
        <time>2023-07-29T15:01:19.000Z</time>
        <extensions>
          <ns3:TrackPointExtension>
            <ns3:hr>77</ns3:hr>
            <ns3:cad>0</ns3:cad>
          </ns3:TrackPointExtension>
        </extensions>
      </trkpt>
      <trkpt lat="37.77257046662271022796630859375" lon="-107.70278225652873516082763671875">
        <ele>3971.800048828125</ele>
        <time>2023-07-29T15:01:20.000Z</time>
        <extensions>
          <ns3:TrackPointExtension>
            <ns3:hr>77</ns3:hr>
            <ns3:cad>0</ns3:cad>
          </ns3:TrackPointExtension>
        </extensions>
      </trkpt>
      <trkpt lat="37.7725718915462493896484375" lon="-107.7027793228626251220703125">
        <ele>3971.800048828125</ele>
        <time>2023-07-29T15:01:21.000Z</time>
        <extensions>
          <ns3:TrackPointExtension>
            <ns3:hr>78</ns3:hr>
            <ns3:cad>0</ns3:cad>
          </ns3:TrackPointExtension>
        </extensions>
      </trkpt>
      <trkpt lat="37.7725730650126934051513671875" lon="-107.7027818374335765838623046875">
        <ele>3971.800048828125</ele>
        <time>2023-07-29T15:01:22.000Z</time>
        <extensions>
          <ns3:TrackPointExtension>
            <ns3:hr>81</ns3:hr>
            <ns3:cad>0</ns3:cad>
          </ns3:TrackPointExtension>
        </extensions>
      </trkpt>
      <trkpt lat="37.77257448993623256683349609375" lon="-107.70278929732739925384521484375">
        <ele>3972</ele>
        <time>2023-07-29T15:01:23.000Z</time>
        <extensions>
          <ns3:TrackPointExtension>
            <ns3:hr>81</ns3:hr>
            <ns3:cad>0</ns3:cad>
          </ns3:TrackPointExtension>
        </extensions>
      </trkpt>
      <trkpt lat="37.77257801033556461334228515625" lon="-107.70280413329601287841796875">
        <ele>3971.800048828125</ele>
        <time>2023-07-29T15:01:24.000Z</time>
        <extensions>
          <ns3:TrackPointExtension>
            <ns3:hr>81</ns3:hr>
            <ns3:cad>0</ns3:cad>
          </ns3:TrackPointExtension>
        </extensions>
      </trkpt>
      <trkpt lat="37.7725814469158649444580078125" lon="-107.70281754434108734130859375">
        <ele>3972</ele>
        <time>2023-07-29T15:01:25.000Z</time>
        <extensions>
          <ns3:TrackPointExtension>
            <ns3:hr>77</ns3:hr>
            <ns3:cad>0</ns3:cad>
          </ns3:TrackPointExtension>
        </extensions>
      </trkpt>
      <trkpt lat="37.77258404530584812164306640625" lon="-107.70282165147364139556884765625">
        <ele>3972</ele>
        <time>2023-07-29T15:01:26.000Z</time>
        <extensions>
          <ns3:TrackPointExtension>
            <ns3:hr>77</ns3:hr>
            <ns3:cad>0</ns3:cad>
          </ns3:TrackPointExtension>
        </extensions>
      </trkpt>
      <trkpt lat="37.77258605696260929107666015625" lon="-107.70282299257814884185791015625">
        <ele>3972</ele>
        <time>2023-07-29T15:01:27.000Z</time>
        <extensions>
          <ns3:TrackPointExtension>
            <ns3:hr>76</ns3:hr>
            <ns3:cad>0</ns3:cad>
          </ns3:TrackPointExtension>
        </extensions>
      </trkpt>
      <trkpt lat="37.77258605696260929107666015625" lon="-107.70282684825360774993896484375">
        <ele>3972</ele>
        <time>2023-07-29T15:01:28.000Z</time>
        <extensions>
          <ns3:TrackPointExtension>
            <ns3:hr>75</ns3:hr>
            <ns3:cad>0</ns3:cad>
          </ns3:TrackPointExtension>
        </extensions>
      </trkpt>
      <trkpt lat="37.7725847996771335601806640625" lon="-107.7028324641287326812744140625">
        <ele>3972</ele>
        <time>2023-07-29T15:01:29.000Z</time>
        <extensions>
          <ns3:TrackPointExtension>
            <ns3:hr>75</ns3:hr>
            <ns3:cad>0</ns3:cad>
          </ns3:TrackPointExtension>
        </extensions>
      </trkpt>
      <trkpt lat="37.77258287183940410614013671875" lon="-107.7028354816138744354248046875">
        <ele>3972</ele>
        <time>2023-07-29T15:01:30.000Z</time>
        <extensions>
          <ns3:TrackPointExtension>
            <ns3:hr>75</ns3:hr>
            <ns3:cad>0</ns3:cad>
          </ns3:TrackPointExtension>
        </extensions>
      </trkpt>
      <trkpt lat="37.772579602897167205810546875" lon="-107.70283891819417476654052734375">
        <ele>3972</ele>
        <time>2023-07-29T15:01:31.000Z</time>
        <extensions>
          <ns3:TrackPointExtension>
            <ns3:hr>75</ns3:hr>
            <ns3:cad>0</ns3:cad>
          </ns3:TrackPointExtension>
        </extensions>
      </trkpt>
      <trkpt lat="37.77257968671619892120361328125" lon="-107.70282617770135402679443359375">
        <ele>3972</ele>
        <time>2023-07-29T15:01:32.000Z</time>
        <extensions>
          <ns3:TrackPointExtension>
            <ns3:hr>76</ns3:hr>
            <ns3:cad>0</ns3:cad>
          </ns3:TrackPointExtension>
        </extensions>
      </trkpt>
      <trkpt lat="37.772578932344913482666015625" lon="-107.70281528122723102569580078125">
        <ele>3972</ele>
        <time>2023-07-29T15:01:33.000Z</time>
        <extensions>
          <ns3:TrackPointExtension>
            <ns3:hr>76</ns3:hr>
            <ns3:cad>0</ns3:cad>
          </ns3:TrackPointExtension>
        </extensions>
      </trkpt>
      <trkpt lat="37.77257935144007205963134765625" lon="-107.7028061449527740478515625">
        <ele>3972</ele>
        <time>2023-07-29T15:01:34.000Z</time>
        <extensions>
          <ns3:TrackPointExtension>
            <ns3:hr>76</ns3:hr>
            <ns3:cad>0</ns3:cad>
          </ns3:TrackPointExtension>
        </extensions>
      </trkpt>
      <trkpt lat="37.77257834561169147491455078125" lon="-107.70280019380152225494384765625">
        <ele>3972</ele>
        <time>2023-07-29T15:01:35.000Z</time>
        <extensions>
          <ns3:TrackPointExtension>
            <ns3:hr>76</ns3:hr>
            <ns3:cad>0</ns3:cad>
          </ns3:TrackPointExtension>
        </extensions>
      </trkpt>
      <trkpt lat="37.772574238479137420654296875" lon="-107.70278963260352611541748046875">
        <ele>3972.199951171875</ele>
        <time>2023-07-29T15:01:36.000Z</time>
        <extensions>
          <ns3:TrackPointExtension>
            <ns3:hr>76</ns3:hr>
            <ns3:cad>0</ns3:cad>
          </ns3:TrackPointExtension>
        </extensions>
      </trkpt>
      <trkpt lat="37.77257080189883708953857421875" lon="-107.702780663967132568359375">
        <ele>3972.199951171875</ele>
        <time>2023-07-29T15:01:37.000Z</time>
        <extensions>
          <ns3:TrackPointExtension>
            <ns3:hr>73</ns3:hr>
            <ns3:cad>0</ns3:cad>
          </ns3:TrackPointExtension>
        </extensions>
      </trkpt>
      <trkpt lat="37.7725718915462493896484375" lon="-107.70278426818549633026123046875">
        <ele>3972.199951171875</ele>
        <time>2023-07-29T15:01:38.000Z</time>
        <extensions>
          <ns3:TrackPointExtension>
            <ns3:hr>71</ns3:hr>
            <ns3:cad>0</ns3:cad>
          </ns3:TrackPointExtension>
        </extensions>
      </trkpt>
      <trkpt lat="37.77256862260401248931884765625" lon="-107.7027861960232257843017578125">
        <ele>3972.199951171875</ele>
        <time>2023-07-29T15:01:39.000Z</time>
        <extensions>
          <ns3:TrackPointExtension>
            <ns3:hr>71</ns3:hr>
            <ns3:cad>0</ns3:cad>
          </ns3:TrackPointExtension>
        </extensions>
      </trkpt>
      <trkpt lat="37.7725666947662830352783203125" lon="-107.702786363661289215087890625">
        <ele>3972</ele>
        <time>2023-07-29T15:01:40.000Z</time>
        <extensions>
          <ns3:TrackPointExtension>
            <ns3:hr>71</ns3:hr>
            <ns3:cad>0</ns3:cad>
          </ns3:TrackPointExtension>
        </extensions>
      </trkpt>
      <trkpt lat="37.77257348410785198211669921875" lon="-107.7027949132025241851806640625">
        <ele>3972</ele>
        <time>2023-07-29T15:01:41.000Z</time>
        <extensions>
          <ns3:TrackPointExtension>
            <ns3:hr>71</ns3:hr>
            <ns3:cad>0</ns3:cad>
          </ns3:TrackPointExtension>
        </extensions>
      </trkpt>
      <trkpt lat="37.77257951907813549041748046875" lon="-107.70280321128666400909423828125">
        <ele>3972</ele>
        <time>2023-07-29T15:01:42.000Z</time>
        <extensions>
          <ns3:TrackPointExtension>
            <ns3:hr>71</ns3:hr>
            <ns3:cad>0</ns3:cad>
          </ns3:TrackPointExtension>
        </extensions>
      </trkpt>
      <trkpt lat="37.77257968671619892120361328125" lon="-107.70280958153307437896728515625">
        <ele>3971.800048828125</ele>
        <time>2023-07-29T15:01:43.000Z</time>
        <extensions>
          <ns3:TrackPointExtension>
            <ns3:hr>71</ns3:hr>
            <ns3:cad>0</ns3:cad>
          </ns3:TrackPointExtension>
        </extensions>
      </trkpt>
      <trkpt lat="37.77258186601102352142333984375" lon="-107.70281695760786533355712890625">
        <ele>3971.800048828125</ele>
        <time>2023-07-29T15:01:44.000Z</time>
        <extensions>
          <ns3:TrackPointExtension>
            <ns3:hr>75</ns3:hr>
            <ns3:cad>0</ns3:cad>
          </ns3:TrackPointExtension>
        </extensions>
      </trkpt>
      <trkpt lat="37.77258303947746753692626953125" lon="-107.70282148383557796478271484375">
        <ele>3971.800048828125</ele>
        <time>2023-07-29T15:01:45.000Z</time>
        <extensions>
          <ns3:TrackPointExtension>
            <ns3:hr>75</ns3:hr>
            <ns3:cad>0</ns3:cad>
          </ns3:TrackPointExtension>
        </extensions>
      </trkpt>
      <trkpt lat="37.77258194983005523681640625" lon="-107.70281863398849964141845703125">
        <ele>3971.800048828125</ele>
        <time>2023-07-29T15:01:46.000Z</time>
        <extensions>
          <ns3:TrackPointExtension>
            <ns3:hr>83</ns3:hr>
            <ns3:cad>0</ns3:cad>
          </ns3:TrackPointExtension>
        </extensions>
      </trkpt>
      <trkpt lat="37.772582955658435821533203125" lon="-107.702817879617214202880859375">
        <ele>3971.800048828125</ele>
        <time>2023-07-29T15:01:47.000Z</time>
        <extensions>
          <ns3:TrackPointExtension>
            <ns3:hr>85</ns3:hr>
            <ns3:cad>0</ns3:cad>
          </ns3:TrackPointExtension>
        </extensions>
      </trkpt>
      <trkpt lat="37.7725858055055141448974609375" lon="-107.70281980745494365692138671875">
        <ele>3971.800048828125</ele>
        <time>2023-07-29T15:01:48.000Z</time>
        <extensions>
          <ns3:TrackPointExtension>
            <ns3:hr>85</ns3:hr>
            <ns3:cad>0</ns3:cad>
          </ns3:TrackPointExtension>
        </extensions>
      </trkpt>
      <trkpt lat="37.7725904993712902069091796875" lon="-107.702823244035243988037109375">
        <ele>3971.800048828125</ele>
        <time>2023-07-29T15:01:49.000Z</time>
        <extensions>
          <ns3:TrackPointExtension>
            <ns3:hr>85</ns3:hr>
            <ns3:cad>0</ns3:cad>
          </ns3:TrackPointExtension>
        </extensions>
      </trkpt>
      <trkpt lat="37.77259075082838535308837890625" lon="-107.70281276665627956390380859375">
        <ele>3972</ele>
        <time>2023-07-29T15:01:50.000Z</time>
        <extensions>
          <ns3:TrackPointExtension>
            <ns3:hr>84</ns3:hr>
            <ns3:cad>0</ns3:cad>
          </ns3:TrackPointExtension>
        </extensions>
      </trkpt>
      <trkpt lat="37.77259058319032192230224609375" lon="-107.70280958153307437896728515625">
        <ele>3972</ele>
        <time>2023-07-29T15:01:51.000Z</time>
        <extensions>
          <ns3:TrackPointExtension>
            <ns3:hr>84</ns3:hr>
            <ns3:cad>0</ns3:cad>
          </ns3:TrackPointExtension>
        </extensions>
      </trkpt>
      <trkpt lat="37.77259008027613162994384765625" lon="-107.702806480228900909423828125">
        <ele>3972</ele>
        <time>2023-07-29T15:01:52.000Z</time>
        <extensions>
          <ns3:TrackPointExtension>
            <ns3:hr>84</ns3:hr>
            <ns3:cad>0</ns3:cad>
          </ns3:TrackPointExtension>
        </extensions>
      </trkpt>
      <trkpt lat="37.77258957736194133758544921875" lon="-107.70279868505895137786865234375">
        <ele>3972</ele>
        <time>2023-07-29T15:01:53.000Z</time>
        <extensions>
          <ns3:TrackPointExtension>
            <ns3:hr>84</ns3:hr>
            <ns3:cad>0</ns3:cad>
          </ns3:TrackPointExtension>
        </extensions>
      </trkpt>
      <trkpt lat="37.772589661180973052978515625" lon="-107.7027927339076995849609375">
        <ele>3971.800048828125</ele>
        <time>2023-07-29T15:01:54.000Z</time>
        <extensions>
          <ns3:TrackPointExtension>
            <ns3:hr>84</ns3:hr>
            <ns3:cad>0</ns3:cad>
          </ns3:TrackPointExtension>
        </extensions>
      </trkpt>
      <trkpt lat="37.77259108610451221466064453125" lon="-107.70278946496546268463134765625">
        <ele>3971.800048828125</ele>
        <time>2023-07-29T15:01:55.000Z</time>
        <extensions>
          <ns3:TrackPointExtension>
            <ns3:hr>84</ns3:hr>
            <ns3:cad>0</ns3:cad>
          </ns3:TrackPointExtension>
        </extensions>
      </trkpt>
      <trkpt lat="37.77259267866611480712890625" lon="-107.7027875371277332305908203125">
        <ele>3971.800048828125</ele>
        <time>2023-07-29T15:01:56.000Z</time>
        <extensions>
          <ns3:TrackPointExtension>
            <ns3:hr>84</ns3:hr>
            <ns3:cad>0</ns3:cad>
          </ns3:TrackPointExtension>
        </extensions>
      </trkpt>
      <trkpt lat="37.77259276248514652252197265625" lon="-107.70278627984225749969482421875">
        <ele>3971.800048828125</ele>
        <time>2023-07-29T15:01:57.000Z</time>
        <extensions>
          <ns3:TrackPointExtension>
            <ns3:hr>84</ns3:hr>
            <ns3:cad>0</ns3:cad>
          </ns3:TrackPointExtension>
        </extensions>
      </trkpt>
      <trkpt lat="37.7725915051996707916259765625" lon="-107.70278669893741607666015625">
        <ele>3971.800048828125</ele>
        <time>2023-07-29T15:01:58.000Z</time>
        <extensions>
          <ns3:TrackPointExtension>
            <ns3:hr>84</ns3:hr>
            <ns3:cad>0</ns3:cad>
          </ns3:TrackPointExtension>
        </extensions>
      </trkpt>
      <trkpt lat="37.77259075082838535308837890625" lon="-107.70278896205127239227294921875">
        <ele>3971.800048828125</ele>
        <time>2023-07-29T15:01:59.000Z</time>
        <extensions>
          <ns3:TrackPointExtension>
            <ns3:hr>84</ns3:hr>
            <ns3:cad>0</ns3:cad>
          </ns3:TrackPointExtension>
        </extensions>
      </trkpt>
      <trkpt lat="37.772587649524211883544921875" lon="-107.70279332064092159271240234375">
        <ele>3971.800048828125</ele>
        <time>2023-07-29T15:02:00.000Z</time>
        <extensions>
          <ns3:TrackPointExtension>
            <ns3:hr>84</ns3:hr>
            <ns3:cad>0</ns3:cad>
          </ns3:TrackPointExtension>
        </extensions>
      </trkpt>
      <trkpt lat="37.77257834561169147491455078125" lon="-107.7028012834489345550537109375">
        <ele>3971.800048828125</ele>
        <time>2023-07-29T15:02:01.000Z</time>
        <extensions>
          <ns3:TrackPointExtension>
            <ns3:hr>84</ns3:hr>
            <ns3:cad>0</ns3:cad>
          </ns3:TrackPointExtension>
        </extensions>
      </trkpt>
      <trkpt lat="37.77257968671619892120361328125" lon="-107.7028007805347442626953125">
        <ele>3971.800048828125</ele>
        <time>2023-07-29T15:02:02.000Z</time>
        <extensions>
          <ns3:TrackPointExtension>
            <ns3:hr>86</ns3:hr>
            <ns3:cad>0</ns3:cad>
          </ns3:TrackPointExtension>
        </extensions>
      </trkpt>
      <trkpt lat="37.7725821174681186676025390625" lon="-107.70280354656279087066650390625">
        <ele>3971.800048828125</ele>
        <time>2023-07-29T15:02:03.000Z</time>
        <extensions>
          <ns3:TrackPointExtension>
            <ns3:hr>87</ns3:hr>
            <ns3:cad>0</ns3:cad>
          </ns3:TrackPointExtension>
        </extensions>
      </trkpt>
      <trkpt lat="37.7725814469158649444580078125" lon="-107.7028088271617889404296875">
        <ele>3971.800048828125</ele>
        <time>2023-07-29T15:02:04.000Z</time>
        <extensions>
          <ns3:TrackPointExtension>
            <ns3:hr>86</ns3:hr>
            <ns3:cad>0</ns3:cad>
          </ns3:TrackPointExtension>
        </extensions>
      </trkpt>
      <trkpt lat="37.77257985435426235198974609375" lon="-107.702812850475311279296875">
        <ele>3971.800048828125</ele>
        <time>2023-07-29T15:02:05.000Z</time>
        <extensions>
          <ns3:TrackPointExtension>
            <ns3:hr>86</ns3:hr>
            <ns3:cad>0</ns3:cad>
          </ns3:TrackPointExtension>
        </extensions>
      </trkpt>
      <trkpt lat="37.77257868088781833648681640625" lon="-107.70281846635043621063232421875">
        <ele>3971.800048828125</ele>
        <time>2023-07-29T15:02:06.000Z</time>
        <extensions>
          <ns3:TrackPointExtension>
            <ns3:hr>86</ns3:hr>
            <ns3:cad>0</ns3:cad>
          </ns3:TrackPointExtension>
        </extensions>
      </trkpt>
      <trkpt lat="37.7725734002888202667236328125" lon="-107.70282701589167118072509765625">
        <ele>3971.800048828125</ele>
        <time>2023-07-29T15:02:07.000Z</time>
        <extensions>
          <ns3:TrackPointExtension>
            <ns3:hr>86</ns3:hr>
            <ns3:cad>0</ns3:cad>
          </ns3:TrackPointExtension>
        </extensions>
      </trkpt>
      <trkpt lat="37.772573567926883697509765625" lon="-107.70282885991036891937255859375">
        <ele>3971.800048828125</ele>
        <time>2023-07-29T15:02:08.000Z</time>
        <extensions>
          <ns3:TrackPointExtension>
            <ns3:hr>86</ns3:hr>
            <ns3:cad>0</ns3:cad>
          </ns3:TrackPointExtension>
        </extensions>
      </trkpt>
      <trkpt lat="37.77257658541202545166015625" lon="-107.702827937901020050048828125">
        <ele>3971.800048828125</ele>
        <time>2023-07-29T15:02:09.000Z</time>
        <extensions>
          <ns3:TrackPointExtension>
            <ns3:hr>86</ns3:hr>
            <ns3:cad>0</ns3:cad>
          </ns3:TrackPointExtension>
        </extensions>
      </trkpt>
      <trkpt lat="37.772574909031391143798828125" lon="-107.70282450132071971893310546875">
        <ele>3971.800048828125</ele>
        <time>2023-07-29T15:02:10.000Z</time>
        <extensions>
          <ns3:TrackPointExtension>
            <ns3:hr>86</ns3:hr>
            <ns3:cad>0</ns3:cad>
          </ns3:TrackPointExtension>
        </extensions>
      </trkpt>
      <trkpt lat="37.7725811116397380828857421875" lon="-107.7028224058449268341064453125">
        <ele>3971.800048828125</ele>
        <time>2023-07-29T15:02:11.000Z</time>
        <extensions>
          <ns3:TrackPointExtension>
            <ns3:hr>87</ns3:hr>
            <ns3:cad>0</ns3:cad>
          </ns3:TrackPointExtension>
        </extensions>
      </trkpt>
      <trkpt lat="37.77254465036094188690185546875" lon="-107.702818214893341064453125">
        <ele>3971.60009765625</ele>
        <time>2023-07-29T15:02:16.000Z</time>
        <extensions>
          <ns3:TrackPointExtension>
            <ns3:hr>90</ns3:hr>
            <ns3:cad>0</ns3:cad>
          </ns3:TrackPointExtension>
        </extensions>
      </trkpt>
      <trkpt lat="37.77254230342805385589599609375" lon="-107.7028120122849941253662109375">
        <ele>3971.60009765625</ele>
        <time>2023-07-29T15:02:17.000Z</time>
        <extensions>
          <ns3:TrackPointExtension>
            <ns3:hr>90</ns3:hr>
            <ns3:cad>0</ns3:cad>
          </ns3:TrackPointExtension>
        </extensions>
      </trkpt>
      <trkpt lat="37.7725365199148654937744140625" lon="-107.7028032951056957244873046875">
        <ele>3971.60009765625</ele>
        <time>2023-07-29T15:02:18.000Z</time>
        <extensions>
          <ns3:TrackPointExtension>
            <ns3:hr>90</ns3:hr>
            <ns3:cad>0</ns3:cad>
          </ns3:TrackPointExtension>
        </extensions>
      </trkpt>
      <trkpt lat="37.77253107167780399322509765625" lon="-107.70279063843190670013427734375">
        <ele>3971.60009765625</ele>
        <time>2023-07-29T15:02:19.000Z</time>
        <extensions>
          <ns3:TrackPointExtension>
            <ns3:hr>90</ns3:hr>
            <ns3:cad>0</ns3:cad>
          </ns3:TrackPointExtension>
        </extensions>
      </trkpt>
      <trkpt lat="37.77253367006778717041015625" lon="-107.7027821727097034454345703125">
        <ele>3971.60009765625</ele>
        <time>2023-07-29T15:02:20.000Z</time>
        <extensions>
          <ns3:TrackPointExtension>
            <ns3:hr>90</ns3:hr>
            <ns3:cad>0</ns3:cad>
          </ns3:TrackPointExtension>
        </extensions>
      </trkpt>
      <trkpt lat="37.77254842221736907958984375" lon="-107.70276482217013835906982421875">
        <ele>3971.60009765625</ele>
        <time>2023-07-29T15:02:21.000Z</time>
        <extensions>
          <ns3:TrackPointExtension>
            <ns3:hr>90</ns3:hr>
            <ns3:cad>0</ns3:cad>
          </ns3:TrackPointExtension>
        </extensions>
      </trkpt>
      <trkpt lat="37.772559486329555511474609375" lon="-107.70275711081922054290771484375">
        <ele>3971.60009765625</ele>
        <time>2023-07-29T15:02:22.000Z</time>
        <extensions>
          <ns3:TrackPointExtension>
            <ns3:hr>90</ns3:hr>
            <ns3:cad>0</ns3:cad>
          </ns3:TrackPointExtension>
        </extensions>
      </trkpt>
      <trkpt lat="37.77255973778665065765380859375" lon="-107.70275794900953769683837890625">
        <ele>3971.60009765625</ele>
        <time>2023-07-29T15:02:23.000Z</time>
        <extensions>
          <ns3:TrackPointExtension>
            <ns3:hr>90</ns3:hr>
            <ns3:cad>0</ns3:cad>
          </ns3:TrackPointExtension>
        </extensions>
      </trkpt>
      <trkpt lat="37.7725593186914920806884765625" lon="-107.70275610499083995819091796875">
        <ele>3971.60009765625</ele>
        <time>2023-07-29T15:02:24.000Z</time>
        <extensions>
          <ns3:TrackPointExtension>
            <ns3:hr>90</ns3:hr>
            <ns3:cad>0</ns3:cad>
          </ns3:TrackPointExtension>
        </extensions>
      </trkpt>
      <trkpt lat="37.772563509643077850341796875" lon="-107.70275476388633251190185546875">
        <ele>3971.60009765625</ele>
        <time>2023-07-29T15:02:25.000Z</time>
        <extensions>
          <ns3:TrackPointExtension>
            <ns3:hr>90</ns3:hr>
            <ns3:cad>0</ns3:cad>
          </ns3:TrackPointExtension>
        </extensions>
      </trkpt>
      <trkpt lat="37.77256376110017299652099609375" lon="-107.70275945775210857391357421875">
        <ele>3971.60009765625</ele>
        <time>2023-07-29T15:02:26.000Z</time>
        <extensions>
          <ns3:TrackPointExtension>
            <ns3:hr>90</ns3:hr>
            <ns3:cad>0</ns3:cad>
          </ns3:TrackPointExtension>
        </extensions>
      </trkpt>
      <trkpt lat="37.7725646831095218658447265625" lon="-107.70276733674108982086181640625">
        <ele>3971.60009765625</ele>
        <time>2023-07-29T15:02:27.000Z</time>
        <extensions>
          <ns3:TrackPointExtension>
            <ns3:hr>89</ns3:hr>
            <ns3:cad>0</ns3:cad>
          </ns3:TrackPointExtension>
        </extensions>
      </trkpt>
      <trkpt lat="37.77256443165242671966552734375" lon="-107.70276792347431182861328125">
        <ele>3971.60009765625</ele>
        <time>2023-07-29T15:02:28.000Z</time>
        <extensions>
          <ns3:TrackPointExtension>
            <ns3:hr>88</ns3:hr>
            <ns3:cad>0</ns3:cad>
          </ns3:TrackPointExtension>
        </extensions>
      </trkpt>
      <trkpt lat="37.77256309054791927337646484375" lon="-107.7027766406536102294921875">
        <ele>3971.60009765625</ele>
        <time>2023-07-29T15:02:29.000Z</time>
        <extensions>
          <ns3:TrackPointExtension>
            <ns3:hr>88</ns3:hr>
            <ns3:cad>0</ns3:cad>
          </ns3:TrackPointExtension>
        </extensions>
      </trkpt>
      <trkpt lat="37.77256577275693416595458984375" lon="-107.702784352004528045654296875">
        <ele>3971.60009765625</ele>
        <time>2023-07-29T15:02:30.000Z</time>
        <extensions>
          <ns3:TrackPointExtension>
            <ns3:hr>86</ns3:hr>
            <ns3:cad>0</ns3:cad>
          </ns3:TrackPointExtension>
        </extensions>
      </trkpt>
      <trkpt lat="37.7725663594901561737060546875" lon="-107.70278376527130603790283203125">
        <ele>3971.60009765625</ele>
        <time>2023-07-29T15:02:31.000Z</time>
        <extensions>
          <ns3:TrackPointExtension>
            <ns3:hr>86</ns3:hr>
            <ns3:cad>0</ns3:cad>
          </ns3:TrackPointExtension>
        </extensions>
      </trkpt>
      <trkpt lat="37.77256359346210956573486328125" lon="-107.70278527401387691497802734375">
        <ele>3971.60009765625</ele>
        <time>2023-07-29T15:02:32.000Z</time>
        <extensions>
          <ns3:TrackPointExtension>
            <ns3:hr>86</ns3:hr>
            <ns3:cad>0</ns3:cad>
          </ns3:TrackPointExtension>
        </extensions>
      </trkpt>
      <trkpt lat="37.7725638449192047119140625" lon="-107.7027895487844944000244140625">
        <ele>3971.39990234375</ele>
        <time>2023-07-29T15:02:33.000Z</time>
        <extensions>
          <ns3:TrackPointExtension>
            <ns3:hr>85</ns3:hr>
            <ns3:cad>0</ns3:cad>
          </ns3:TrackPointExtension>
        </extensions>
      </trkpt>
      <trkpt lat="37.77256409637629985809326171875" lon="-107.70279365591704845428466796875">
        <ele>3971.39990234375</ele>
        <time>2023-07-29T15:02:34.000Z</time>
        <extensions>
          <ns3:TrackPointExtension>
            <ns3:hr>85</ns3:hr>
            <ns3:cad>0</ns3:cad>
          </ns3:TrackPointExtension>
        </extensions>
      </trkpt>
      <trkpt lat="37.7725650183856487274169921875" lon="-107.70279281772673130035400390625">
        <ele>3971.39990234375</ele>
        <time>2023-07-29T15:02:35.000Z</time>
        <extensions>
          <ns3:TrackPointExtension>
            <ns3:hr>85</ns3:hr>
            <ns3:cad>0</ns3:cad>
          </ns3:TrackPointExtension>
        </extensions>
      </trkpt>
      <trkpt lat="37.7725663594901561737060546875" lon="-107.70279248245060443878173828125">
        <ele>3971.39990234375</ele>
        <time>2023-07-29T15:02:36.000Z</time>
        <extensions>
          <ns3:TrackPointExtension>
            <ns3:hr>85</ns3:hr>
            <ns3:cad>0</ns3:cad>
          </ns3:TrackPointExtension>
        </extensions>
      </trkpt>
      <trkpt lat="37.77257122099399566650390625" lon="-107.70279876887798309326171875">
        <ele>3971.199951171875</ele>
        <time>2023-07-29T15:02:37.000Z</time>
        <extensions>
          <ns3:TrackPointExtension>
            <ns3:hr>85</ns3:hr>
            <ns3:cad>0</ns3:cad>
          </ns3:TrackPointExtension>
        </extensions>
      </trkpt>
      <trkpt lat="37.77257633395493030548095703125" lon="-107.70280270837247371673583984375">
        <ele>3971.199951171875</ele>
        <time>2023-07-29T15:02:38.000Z</time>
        <extensions>
          <ns3:TrackPointExtension>
            <ns3:hr>85</ns3:hr>
            <ns3:cad>0</ns3:cad>
          </ns3:TrackPointExtension>
        </extensions>
      </trkpt>
      <trkpt lat="37.7725784294307231903076171875" lon="-107.702809162437915802001953125">
        <ele>3970.800048828125</ele>
        <time>2023-07-29T15:02:39.000Z</time>
        <extensions>
          <ns3:TrackPointExtension>
            <ns3:hr>85</ns3:hr>
            <ns3:cad>0</ns3:cad>
          </ns3:TrackPointExtension>
        </extensions>
      </trkpt>
      <trkpt lat="37.7725797705352306365966796875" lon="-107.70281293429434299468994140625">
        <ele>3970.800048828125</ele>
        <time>2023-07-29T15:02:40.000Z</time>
        <extensions>
          <ns3:TrackPointExtension>
            <ns3:hr>85</ns3:hr>
            <ns3:cad>0</ns3:cad>
          </ns3:TrackPointExtension>
        </extensions>
      </trkpt>
      <trkpt lat="37.77257968671619892120361328125" lon="-107.70281360484659671783447265625">
        <ele>3970.800048828125</ele>
        <time>2023-07-29T15:02:41.000Z</time>
        <extensions>
          <ns3:TrackPointExtension>
            <ns3:hr>85</ns3:hr>
            <ns3:cad>0</ns3:cad>
          </ns3:TrackPointExtension>
        </extensions>
      </trkpt>
      <trkpt lat="37.7725780941545963287353515625" lon="-107.70281360484659671783447265625">
        <ele>3970.800048828125</ele>
        <time>2023-07-29T15:02:42.000Z</time>
        <extensions>
          <ns3:TrackPointExtension>
            <ns3:hr>85</ns3:hr>
            <ns3:cad>0</ns3:cad>
          </ns3:TrackPointExtension>
        </extensions>
      </trkpt>
      <trkpt lat="37.77257901616394519805908203125" lon="-107.70281796343624591827392578125">
        <ele>3970.800048828125</ele>
        <time>2023-07-29T15:02:43.000Z</time>
        <extensions>
          <ns3:TrackPointExtension>
            <ns3:hr>85</ns3:hr>
            <ns3:cad>0</ns3:cad>
          </ns3:TrackPointExtension>
        </extensions>
      </trkpt>
      <trkpt lat="37.77258102782070636749267578125" lon="-107.7028203941881656646728515625">
        <ele>3970.800048828125</ele>
        <time>2023-07-29T15:02:44.000Z</time>
        <extensions>
          <ns3:TrackPointExtension>
            <ns3:hr>85</ns3:hr>
            <ns3:cad>0</ns3:cad>
          </ns3:TrackPointExtension>
        </extensions>
      </trkpt>
      <trkpt lat="37.7725799381732940673828125" lon="-107.7028207294642925262451171875">
        <ele>3970.800048828125</ele>
        <time>2023-07-29T15:02:45.000Z</time>
        <extensions>
          <ns3:TrackPointExtension>
            <ns3:hr>85</ns3:hr>
            <ns3:cad>0</ns3:cad>
          </ns3:TrackPointExtension>
        </extensions>
      </trkpt>
      <trkpt lat="37.77258136309683322906494140625" lon="-107.7028217352926731109619140625">
        <ele>3971</ele>
        <time>2023-07-29T15:02:46.000Z</time>
        <extensions>
          <ns3:TrackPointExtension>
            <ns3:hr>84</ns3:hr>
            <ns3:cad>0</ns3:cad>
          </ns3:TrackPointExtension>
        </extensions>
      </trkpt>
      <trkpt lat="37.77257918380200862884521484375" lon="-107.70282114855945110321044921875">
        <ele>3971.199951171875</ele>
        <time>2023-07-29T15:02:47.000Z</time>
        <extensions>
          <ns3:TrackPointExtension>
            <ns3:hr>84</ns3:hr>
            <ns3:cad>0</ns3:cad>
          </ns3:TrackPointExtension>
        </extensions>
      </trkpt>
      <trkpt lat="37.7725774236023426055908203125" lon="-107.7028217352926731109619140625">
        <ele>3971.39990234375</ele>
        <time>2023-07-29T15:02:48.000Z</time>
        <extensions>
          <ns3:TrackPointExtension>
            <ns3:hr>84</ns3:hr>
            <ns3:cad>0</ns3:cad>
          </ns3:TrackPointExtension>
        </extensions>
      </trkpt>
      <trkpt lat="37.7725760824978351593017578125" lon="-107.70282466895878314971923828125">
        <ele>3971.39990234375</ele>
        <time>2023-07-29T15:02:49.000Z</time>
        <extensions>
          <ns3:TrackPointExtension>
            <ns3:hr>84</ns3:hr>
            <ns3:cad>0</ns3:cad>
          </ns3:TrackPointExtension>
        </extensions>
      </trkpt>
      <trkpt lat="37.7725760824978351593017578125" lon="-107.702825255692005157470703125">
        <ele>3971.39990234375</ele>
        <time>2023-07-29T15:02:50.000Z</time>
        <extensions>
          <ns3:TrackPointExtension>
            <ns3:hr>83</ns3:hr>
            <ns3:cad>0</ns3:cad>
          </ns3:TrackPointExtension>
        </extensions>
      </trkpt>
      <trkpt lat="37.77257884852588176727294921875" lon="-107.702832631766796112060546875">
        <ele>3971.39990234375</ele>
        <time>2023-07-29T15:02:51.000Z</time>
        <extensions>
          <ns3:TrackPointExtension>
            <ns3:hr>83</ns3:hr>
            <ns3:cad>0</ns3:cad>
          </ns3:TrackPointExtension>
        </extensions>
      </trkpt>
      <trkpt lat="37.7725814469158649444580078125" lon="-107.70283707417547702789306640625">
        <ele>3971.39990234375</ele>
        <time>2023-07-29T15:02:52.000Z</time>
        <extensions>
          <ns3:TrackPointExtension>
            <ns3:hr>83</ns3:hr>
            <ns3:cad>0</ns3:cad>
          </ns3:TrackPointExtension>
        </extensions>
      </trkpt>
      <trkpt lat="37.77258018963038921356201171875" lon="-107.702833972871303558349609375">
        <ele>3971.39990234375</ele>
        <time>2023-07-29T15:02:53.000Z</time>
        <extensions>
          <ns3:TrackPointExtension>
            <ns3:hr>83</ns3:hr>
            <ns3:cad>0</ns3:cad>
          </ns3:TrackPointExtension>
        </extensions>
      </trkpt>
      <trkpt lat="37.7725827880203723907470703125" lon="-107.70283439196646213531494140625">
        <ele>3971.39990234375</ele>
        <time>2023-07-29T15:02:54.000Z</time>
        <extensions>
          <ns3:TrackPointExtension>
            <ns3:hr>84</ns3:hr>
            <ns3:cad>0</ns3:cad>
          </ns3:TrackPointExtension>
        </extensions>
      </trkpt>
      <trkpt lat="37.77258706279098987579345703125" lon="-107.7028348110616207122802734375">
        <ele>3971.39990234375</ele>
        <time>2023-07-29T15:02:55.000Z</time>
        <extensions>
          <ns3:TrackPointExtension>
            <ns3:hr>83</ns3:hr>
            <ns3:cad>0</ns3:cad>
          </ns3:TrackPointExtension>
        </extensions>
      </trkpt>
      <trkpt lat="37.7725901640951633453369140625" lon="-107.702826596796512603759765625">
        <ele>3971.39990234375</ele>
        <time>2023-07-29T15:02:56.000Z</time>
        <extensions>
          <ns3:TrackPointExtension>
            <ns3:hr>82</ns3:hr>
            <ns3:cad>0</ns3:cad>
          </ns3:TrackPointExtension>
        </extensions>
      </trkpt>
      <trkpt lat="37.77259158901870250701904296875" lon="-107.70281980745494365692138671875">
        <ele>3971.39990234375</ele>
        <time>2023-07-29T15:02:57.000Z</time>
        <extensions>
          <ns3:TrackPointExtension>
            <ns3:hr>81</ns3:hr>
            <ns3:cad>0</ns3:cad>
          </ns3:TrackPointExtension>
        </extensions>
      </trkpt>
      <trkpt lat="37.7726042456924915313720703125" lon="-107.7028048038482666015625">
        <ele>3971.199951171875</ele>
        <time>2023-07-29T15:02:58.000Z</time>
        <extensions>
          <ns3:TrackPointExtension>
            <ns3:hr>81</ns3:hr>
            <ns3:cad>0</ns3:cad>
          </ns3:TrackPointExtension>
        </extensions>
      </trkpt>
      <trkpt lat="37.77260382659733295440673828125" lon="-107.70279516465961933135986328125">
        <ele>3971.199951171875</ele>
        <time>2023-07-29T15:02:59.000Z</time>
        <extensions>
          <ns3:TrackPointExtension>
            <ns3:hr>81</ns3:hr>
            <ns3:cad>0</ns3:cad>
          </ns3:TrackPointExtension>
        </extensions>
      </trkpt>
      <trkpt lat="37.77260131202638149261474609375" lon="-107.70279265008866786956787109375">
        <ele>3971.39990234375</ele>
        <time>2023-07-29T15:03:00.000Z</time>
        <extensions>
          <ns3:TrackPointExtension>
            <ns3:hr>80</ns3:hr>
            <ns3:cad>0</ns3:cad>
          </ns3:TrackPointExtension>
        </extensions>
      </trkpt>
      <trkpt lat="37.7726012282073497772216796875" lon="-107.7027902193367481231689453125">
        <ele>3971.39990234375</ele>
        <time>2023-07-29T15:03:01.000Z</time>
        <extensions>
          <ns3:TrackPointExtension>
            <ns3:hr>80</ns3:hr>
            <ns3:cad>0</ns3:cad>
          </ns3:TrackPointExtension>
        </extensions>
      </trkpt>
      <trkpt lat="37.77259879745543003082275390625" lon="-107.7027868665754795074462890625">
        <ele>3971.60009765625</ele>
        <time>2023-07-29T15:03:02.000Z</time>
        <extensions>
          <ns3:TrackPointExtension>
            <ns3:hr>80</ns3:hr>
            <ns3:cad>0</ns3:cad>
          </ns3:TrackPointExtension>
        </extensions>
      </trkpt>
      <trkpt lat="37.7725945226848125457763671875" lon="-107.70279231481254100799560546875">
        <ele>3971.60009765625</ele>
        <time>2023-07-29T15:03:03.000Z</time>
        <extensions>
          <ns3:TrackPointExtension>
            <ns3:hr>80</ns3:hr>
            <ns3:cad>0</ns3:cad>
          </ns3:TrackPointExtension>
        </extensions>
      </trkpt>
      <trkpt lat="37.772592343389987945556640625" lon="-107.702794410288333892822265625">
        <ele>3971.60009765625</ele>
        <time>2023-07-29T15:03:04.000Z</time>
        <extensions>
          <ns3:TrackPointExtension>
            <ns3:hr>80</ns3:hr>
            <ns3:cad>0</ns3:cad>
          </ns3:TrackPointExtension>
        </extensions>
      </trkpt>
      <trkpt lat="37.7725906670093536376953125" lon="-107.7027929015457630157470703125">
        <ele>3971.60009765625</ele>
        <time>2023-07-29T15:03:05.000Z</time>
        <extensions>
          <ns3:TrackPointExtension>
            <ns3:hr>80</ns3:hr>
            <ns3:cad>0</ns3:cad>
          </ns3:TrackPointExtension>
        </extensions>
      </trkpt>
      <trkpt lat="37.77259133756160736083984375" lon="-107.70279248245060443878173828125">
        <ele>3971.60009765625</ele>
        <time>2023-07-29T15:03:06.000Z</time>
        <extensions>
          <ns3:TrackPointExtension>
            <ns3:hr>80</ns3:hr>
            <ns3:cad>0</ns3:cad>
          </ns3:TrackPointExtension>
        </extensions>
      </trkpt>
      <trkpt lat="37.772584296762943267822265625" lon="-107.70279633812606334686279296875">
        <ele>3971.39990234375</ele>
        <time>2023-07-29T15:03:07.000Z</time>
        <extensions>
          <ns3:TrackPointExtension>
            <ns3:hr>80</ns3:hr>
            <ns3:cad>0</ns3:cad>
          </ns3:TrackPointExtension>
        </extensions>
      </trkpt>
      <trkpt lat="37.7725888229906558990478515625" lon="-107.70278745330870151519775390625">
        <ele>3971.39990234375</ele>
        <time>2023-07-29T15:03:08.000Z</time>
        <extensions>
          <ns3:TrackPointExtension>
            <ns3:hr>79</ns3:hr>
            <ns3:cad>0</ns3:cad>
          </ns3:TrackPointExtension>
        </extensions>
      </trkpt>
      <trkpt lat="37.772594355046749114990234375" lon="-107.70278133451938629150390625">
        <ele>3971.39990234375</ele>
        <time>2023-07-29T15:03:09.000Z</time>
        <extensions>
          <ns3:TrackPointExtension>
            <ns3:hr>78</ns3:hr>
            <ns3:cad>0</ns3:cad>
          </ns3:TrackPointExtension>
        </extensions>
      </trkpt>
      <trkpt lat="37.772597707808017730712890625" lon="-107.70278208889067173004150390625">
        <ele>3971.39990234375</ele>
        <time>2023-07-29T15:03:10.000Z</time>
        <extensions>
          <ns3:TrackPointExtension>
            <ns3:hr>78</ns3:hr>
            <ns3:cad>0</ns3:cad>
          </ns3:TrackPointExtension>
        </extensions>
      </trkpt>
      <trkpt lat="37.7725901640951633453369140625" lon="-107.7027845196425914764404296875">
        <ele>3971.199951171875</ele>
        <time>2023-07-29T15:03:11.000Z</time>
        <extensions>
          <ns3:TrackPointExtension>
            <ns3:hr>78</ns3:hr>
            <ns3:cad>0</ns3:cad>
          </ns3:TrackPointExtension>
        </extensions>
      </trkpt>
      <trkpt lat="37.77259527705609798431396484375" lon="-107.70278711803257465362548828125">
        <ele>3971.199951171875</ele>
        <time>2023-07-29T15:03:12.000Z</time>
        <extensions>
          <ns3:TrackPointExtension>
            <ns3:hr>79</ns3:hr>
            <ns3:cad>0</ns3:cad>
          </ns3:TrackPointExtension>
        </extensions>
      </trkpt>
      <trkpt lat="37.77258924208581447601318359375" lon="-107.70280773751437664031982421875">
        <ele>3971.199951171875</ele>
        <time>2023-07-29T15:03:13.000Z</time>
        <extensions>
          <ns3:TrackPointExtension>
            <ns3:hr>79</ns3:hr>
            <ns3:cad>0</ns3:cad>
          </ns3:TrackPointExtension>
        </extensions>
      </trkpt>
      <trkpt lat="37.772586643695831298828125" lon="-107.70281595177948474884033203125">
        <ele>3971.199951171875</ele>
        <time>2023-07-29T15:03:14.000Z</time>
        <extensions>
          <ns3:TrackPointExtension>
            <ns3:hr>79</ns3:hr>
            <ns3:cad>0</ns3:cad>
          </ns3:TrackPointExtension>
        </extensions>
      </trkpt>
      <trkpt lat="37.77258404530584812164306640625" lon="-107.70282098092138767242431640625">
        <ele>3971.199951171875</ele>
        <time>2023-07-29T15:03:15.000Z</time>
        <extensions>
          <ns3:TrackPointExtension>
            <ns3:hr>79</ns3:hr>
            <ns3:cad>0</ns3:cad>
          </ns3:TrackPointExtension>
        </extensions>
      </trkpt>
      <trkpt lat="37.7725847996771335601806640625" lon="-107.70282282494008541107177734375">
        <ele>3971.199951171875</ele>
        <time>2023-07-29T15:03:16.000Z</time>
        <extensions>
          <ns3:TrackPointExtension>
            <ns3:hr>79</ns3:hr>
            <ns3:cad>0</ns3:cad>
          </ns3:TrackPointExtension>
        </extensions>
      </trkpt>
      <trkpt lat="37.7725834585726261138916015625" lon="-107.70281930454075336456298828125">
        <ele>3971.199951171875</ele>
        <time>2023-07-29T15:03:17.000Z</time>
        <extensions>
          <ns3:TrackPointExtension>
            <ns3:hr>79</ns3:hr>
            <ns3:cad>0</ns3:cad>
          </ns3:TrackPointExtension>
        </extensions>
      </trkpt>
      <trkpt lat="37.7725834585726261138916015625" lon="-107.70282047800719738006591796875">
        <ele>3971.199951171875</ele>
        <time>2023-07-29T15:03:18.000Z</time>
        <extensions>
          <ns3:TrackPointExtension>
            <ns3:hr>79</ns3:hr>
            <ns3:cad>0</ns3:cad>
          </ns3:TrackPointExtension>
        </extensions>
      </trkpt>
      <trkpt lat="37.77258060872554779052734375" lon="-107.702817879617214202880859375">
        <ele>3971.199951171875</ele>
        <time>2023-07-29T15:03:19.000Z</time>
        <extensions>
          <ns3:TrackPointExtension>
            <ns3:hr>79</ns3:hr>
            <ns3:cad>0</ns3:cad>
          </ns3:TrackPointExtension>
        </extensions>
      </trkpt>
      <trkpt lat="37.77257801033556461334228515625" lon="-107.70281528122723102569580078125">
        <ele>3971.199951171875</ele>
        <time>2023-07-29T15:03:20.000Z</time>
        <extensions>
          <ns3:TrackPointExtension>
            <ns3:hr>79</ns3:hr>
            <ns3:cad>0</ns3:cad>
          </ns3:TrackPointExtension>
        </extensions>
      </trkpt>
      <trkpt lat="37.77257666923105716705322265625" lon="-107.7028150297701358795166015625">
        <ele>3971.199951171875</ele>
        <time>2023-07-29T15:03:21.000Z</time>
        <extensions>
          <ns3:TrackPointExtension>
            <ns3:hr>79</ns3:hr>
            <ns3:cad>0</ns3:cad>
          </ns3:TrackPointExtension>
        </extensions>
      </trkpt>
      <trkpt lat="37.772575579583644866943359375" lon="-107.7028130181133747100830078125">
        <ele>3971.199951171875</ele>
        <time>2023-07-29T15:03:22.000Z</time>
        <extensions>
          <ns3:TrackPointExtension>
            <ns3:hr>79</ns3:hr>
            <ns3:cad>0</ns3:cad>
          </ns3:TrackPointExtension>
        </extensions>
      </trkpt>
      <trkpt lat="37.77257096953690052032470703125" lon="-107.7028100006282329559326171875">
        <ele>3971.199951171875</ele>
        <time>2023-07-29T15:03:23.000Z</time>
        <extensions>
          <ns3:TrackPointExtension>
            <ns3:hr>79</ns3:hr>
            <ns3:cad>0</ns3:cad>
          </ns3:TrackPointExtension>
        </extensions>
      </trkpt>
      <trkpt lat="37.77257013134658336639404296875" lon="-107.70281041972339153289794921875">
        <ele>3971.199951171875</ele>
        <time>2023-07-29T15:03:24.000Z</time>
        <extensions>
          <ns3:TrackPointExtension>
            <ns3:hr>78</ns3:hr>
            <ns3:cad>0</ns3:cad>
          </ns3:TrackPointExtension>
        </extensions>
      </trkpt>
      <trkpt lat="37.77257013134658336639404296875" lon="-107.7028133533895015716552734375">
        <ele>3971.199951171875</ele>
        <time>2023-07-29T15:03:25.000Z</time>
        <extensions>
          <ns3:TrackPointExtension>
            <ns3:hr>78</ns3:hr>
            <ns3:cad>0</ns3:cad>
          </ns3:TrackPointExtension>
        </extensions>
      </trkpt>
      <trkpt lat="37.7725713886320590972900390625" lon="-107.702816538512706756591796875">
        <ele>3971.199951171875</ele>
        <time>2023-07-29T15:03:26.000Z</time>
        <extensions>
          <ns3:TrackPointExtension>
            <ns3:hr>78</ns3:hr>
            <ns3:cad>0</ns3:cad>
          </ns3:TrackPointExtension>
        </extensions>
      </trkpt>
      <trkpt lat="37.77256711386144161224365234375" lon="-107.7028140239417552947998046875">
        <ele>3971.199951171875</ele>
        <time>2023-07-29T15:03:27.000Z</time>
        <extensions>
          <ns3:TrackPointExtension>
            <ns3:hr>78</ns3:hr>
            <ns3:cad>0</ns3:cad>
          </ns3:TrackPointExtension>
        </extensions>
      </trkpt>
      <trkpt lat="37.7725687064230442047119140625" lon="-107.7028126828372478485107421875">
        <ele>3971</ele>
        <time>2023-07-29T15:03:28.000Z</time>
        <extensions>
          <ns3:TrackPointExtension>
            <ns3:hr>78</ns3:hr>
            <ns3:cad>0</ns3:cad>
          </ns3:TrackPointExtension>
        </extensions>
      </trkpt>
      <trkpt lat="37.77257264591753482818603515625" lon="-107.7028143592178821563720703125">
        <ele>3971</ele>
        <time>2023-07-29T15:03:29.000Z</time>
        <extensions>
          <ns3:TrackPointExtension>
            <ns3:hr>78</ns3:hr>
            <ns3:cad>0</ns3:cad>
          </ns3:TrackPointExtension>
        </extensions>
      </trkpt>
      <trkpt lat="37.7725767530500888824462890625" lon="-107.70281209610402584075927734375">
        <ele>3971</ele>
        <time>2023-07-29T15:03:30.000Z</time>
        <extensions>
          <ns3:TrackPointExtension>
            <ns3:hr>79</ns3:hr>
            <ns3:cad>0</ns3:cad>
          </ns3:TrackPointExtension>
        </extensions>
      </trkpt>
      <trkpt lat="37.7725697122514247894287109375" lon="-107.70280388183891773223876953125">
        <ele>3971</ele>
        <time>2023-07-29T15:03:31.000Z</time>
        <extensions>
          <ns3:TrackPointExtension>
            <ns3:hr>79</ns3:hr>
            <ns3:cad>0</ns3:cad>
          </ns3:TrackPointExtension>
        </extensions>
      </trkpt>
      <trkpt lat="37.77256476692855358123779296875" lon="-107.70279684104025363922119140625">
        <ele>3971</ele>
        <time>2023-07-29T15:03:32.000Z</time>
        <extensions>
          <ns3:TrackPointExtension>
            <ns3:hr>82</ns3:hr>
            <ns3:cad>0</ns3:cad>
          </ns3:TrackPointExtension>
        </extensions>
      </trkpt>
      <trkpt lat="37.7725630067288875579833984375" lon="-107.7027942426502704620361328125">
        <ele>3971</ele>
        <time>2023-07-29T15:03:33.000Z</time>
        <extensions>
          <ns3:TrackPointExtension>
            <ns3:hr>85</ns3:hr>
            <ns3:cad>0</ns3:cad>
          </ns3:TrackPointExtension>
        </extensions>
      </trkpt>
      <trkpt lat="37.77256409637629985809326171875" lon="-107.70279876887798309326171875">
        <ele>3971</ele>
        <time>2023-07-29T15:03:34.000Z</time>
        <extensions>
          <ns3:TrackPointExtension>
            <ns3:hr>88</ns3:hr>
            <ns3:cad>0</ns3:cad>
          </ns3:TrackPointExtension>
        </extensions>
      </trkpt>
      <trkpt lat="37.7725680358707904815673828125" lon="-107.70280019380152225494384765625">
        <ele>3971</ele>
        <time>2023-07-29T15:03:35.000Z</time>
        <extensions>
          <ns3:TrackPointExtension>
            <ns3:hr>91</ns3:hr>
            <ns3:cad>0</ns3:cad>
          </ns3:TrackPointExtension>
        </extensions>
      </trkpt>
      <trkpt lat="37.7725734002888202667236328125" lon="-107.70279851742088794708251953125">
        <ele>3971</ele>
        <time>2023-07-29T15:03:36.000Z</time>
        <extensions>
          <ns3:TrackPointExtension>
            <ns3:hr>92</ns3:hr>
            <ns3:cad>0</ns3:cad>
          </ns3:TrackPointExtension>
        </extensions>
      </trkpt>
      <trkpt lat="37.77257524430751800537109375" lon="-107.70279474556446075439453125">
        <ele>3971</ele>
        <time>2023-07-29T15:03:37.000Z</time>
        <extensions>
          <ns3:TrackPointExtension>
            <ns3:hr>92</ns3:hr>
            <ns3:cad>0</ns3:cad>
          </ns3:TrackPointExtension>
        </extensions>
      </trkpt>
      <trkpt lat="37.77257415466010570526123046875" lon="-107.70278938114643096923828125">
        <ele>3971</ele>
        <time>2023-07-29T15:03:38.000Z</time>
        <extensions>
          <ns3:TrackPointExtension>
            <ns3:hr>92</ns3:hr>
            <ns3:cad>0</ns3:cad>
          </ns3:TrackPointExtension>
        </extensions>
      </trkpt>
      <trkpt lat="37.7725734002888202667236328125" lon="-107.702787704765796661376953125">
        <ele>3971</ele>
        <time>2023-07-29T15:03:39.000Z</time>
        <extensions>
          <ns3:TrackPointExtension>
            <ns3:hr>92</ns3:hr>
            <ns3:cad>0</ns3:cad>
          </ns3:TrackPointExtension>
        </extensions>
      </trkpt>
      <trkpt lat="37.77257013134658336639404296875" lon="-107.70278678275644779205322265625">
        <ele>3971</ele>
        <time>2023-07-29T15:03:40.000Z</time>
        <extensions>
          <ns3:TrackPointExtension>
            <ns3:hr>92</ns3:hr>
            <ns3:cad>0</ns3:cad>
          </ns3:TrackPointExtension>
        </extensions>
      </trkpt>
      <trkpt lat="37.77256845496594905853271484375" lon="-107.70278527401387691497802734375">
        <ele>3971</ele>
        <time>2023-07-29T15:03:41.000Z</time>
        <extensions>
          <ns3:TrackPointExtension>
            <ns3:hr>92</ns3:hr>
            <ns3:cad>0</ns3:cad>
          </ns3:TrackPointExtension>
        </extensions>
      </trkpt>
      <trkpt lat="37.77257465757429599761962890625" lon="-107.7027778141200542449951171875">
        <ele>3971</ele>
        <time>2023-07-29T15:03:42.000Z</time>
        <extensions>
          <ns3:TrackPointExtension>
            <ns3:hr>93</ns3:hr>
            <ns3:cad>0</ns3:cad>
          </ns3:TrackPointExtension>
        </extensions>
      </trkpt>
      <trkpt lat="37.77257733978331089019775390625" lon="-107.70276901312172412872314453125">
        <ele>3971.199951171875</ele>
        <time>2023-07-29T15:03:43.000Z</time>
        <extensions>
          <ns3:TrackPointExtension>
            <ns3:hr>93</ns3:hr>
            <ns3:cad>0</ns3:cad>
          </ns3:TrackPointExtension>
        </extensions>
      </trkpt>
      <trkpt lat="37.77257985435426235198974609375" lon="-107.70276213996112346649169921875">
        <ele>3971.199951171875</ele>
        <time>2023-07-29T15:03:44.000Z</time>
        <extensions>
          <ns3:TrackPointExtension>
            <ns3:hr>93</ns3:hr>
            <ns3:cad>0</ns3:cad>
          </ns3:TrackPointExtension>
        </extensions>
      </trkpt>
      <trkpt lat="37.7725799381732940673828125" lon="-107.7027553506195545196533203125">
        <ele>3971.199951171875</ele>
        <time>2023-07-29T15:03:45.000Z</time>
        <extensions>
          <ns3:TrackPointExtension>
            <ns3:hr>93</ns3:hr>
            <ns3:cad>0</ns3:cad>
          </ns3:TrackPointExtension>
        </extensions>
      </trkpt>
      <trkpt lat="37.772584967315196990966796875" lon="-107.7027466334402561187744140625">
        <ele>3971</ele>
        <time>2023-07-29T15:03:46.000Z</time>
        <extensions>
          <ns3:TrackPointExtension>
            <ns3:hr>93</ns3:hr>
            <ns3:cad>0</ns3:cad>
          </ns3:TrackPointExtension>
        </extensions>
      </trkpt>
      <trkpt lat="37.77258622460067272186279296875" lon="-107.702742777764797210693359375">
        <ele>3971</ele>
        <time>2023-07-29T15:03:47.000Z</time>
        <extensions>
          <ns3:TrackPointExtension>
            <ns3:hr>92</ns3:hr>
            <ns3:cad>0</ns3:cad>
          </ns3:TrackPointExtension>
        </extensions>
      </trkpt>
      <trkpt lat="37.772589661180973052978515625" lon="-107.702740095555782318115234375">
        <ele>3971</ele>
        <time>2023-07-29T15:03:48.000Z</time>
        <extensions>
          <ns3:TrackPointExtension>
            <ns3:hr>92</ns3:hr>
            <ns3:cad>0</ns3:cad>
          </ns3:TrackPointExtension>
        </extensions>
      </trkpt>
      <trkpt lat="37.7725960314273834228515625" lon="-107.70273816771805286407470703125">
        <ele>3971</ele>
        <time>2023-07-29T15:03:49.000Z</time>
        <extensions>
          <ns3:TrackPointExtension>
            <ns3:hr>92</ns3:hr>
            <ns3:cad>0</ns3:cad>
          </ns3:TrackPointExtension>
        </extensions>
      </trkpt>
      <trkpt lat="37.7726052515208721160888671875" lon="-107.70273833535611629486083984375">
        <ele>3971</ele>
        <time>2023-07-29T15:03:50.000Z</time>
        <extensions>
          <ns3:TrackPointExtension>
            <ns3:hr>92</ns3:hr>
            <ns3:cad>0</ns3:cad>
          </ns3:TrackPointExtension>
        </extensions>
      </trkpt>
      <trkpt lat="37.77261153794825077056884765625" lon="-107.70274420268833637237548828125">
        <ele>3971</ele>
        <time>2023-07-29T15:03:51.000Z</time>
        <extensions>
          <ns3:TrackPointExtension>
            <ns3:hr>92</ns3:hr>
            <ns3:cad>0</ns3:cad>
          </ns3:TrackPointExtension>
        </extensions>
      </trkpt>
      <trkpt lat="37.77261991985142230987548828125" lon="-107.7027499862015247344970703125">
        <ele>3971</ele>
        <time>2023-07-29T15:03:52.000Z</time>
        <extensions>
          <ns3:TrackPointExtension>
            <ns3:hr>92</ns3:hr>
            <ns3:cad>0</ns3:cad>
          </ns3:TrackPointExtension>
        </extensions>
      </trkpt>
      <trkpt lat="37.77262629009783267974853515625" lon="-107.70275828428566455841064453125">
        <ele>3971</ele>
        <time>2023-07-29T15:03:53.000Z</time>
        <extensions>
          <ns3:TrackPointExtension>
            <ns3:hr>92</ns3:hr>
            <ns3:cad>0</ns3:cad>
          </ns3:TrackPointExtension>
        </extensions>
      </trkpt>
      <trkpt lat="37.7726327441632747650146484375" lon="-107.70278242416679859161376953125">
        <ele>3971</ele>
        <time>2023-07-29T15:03:54.000Z</time>
        <extensions>
          <ns3:TrackPointExtension>
            <ns3:hr>93</ns3:hr>
            <ns3:cad>0</ns3:cad>
          </ns3:TrackPointExtension>
        </extensions>
      </trkpt>
      <trkpt lat="37.77262444607913494110107421875" lon="-107.70278963260352611541748046875">
        <ele>3971</ele>
        <time>2023-07-29T15:03:55.000Z</time>
        <extensions>
          <ns3:TrackPointExtension>
            <ns3:hr>93</ns3:hr>
            <ns3:cad>0</ns3:cad>
          </ns3:TrackPointExtension>
        </extensions>
      </trkpt>
      <trkpt lat="37.7726381085813045501708984375" lon="-107.7028254233300685882568359375">
        <ele>3971</ele>
        <time>2023-07-29T15:03:56.000Z</time>
        <extensions>
          <ns3:TrackPointExtension>
            <ns3:hr>93</ns3:hr>
            <ns3:cad>0</ns3:cad>
          </ns3:TrackPointExtension>
        </extensions>
      </trkpt>
      <trkpt lat="37.77263131923973560333251953125" lon="-107.70282383076846599578857421875">
        <ele>3971.199951171875</ele>
        <time>2023-07-29T15:03:57.000Z</time>
        <extensions>
          <ns3:TrackPointExtension>
            <ns3:hr>93</ns3:hr>
            <ns3:cad>0</ns3:cad>
          </ns3:TrackPointExtension>
        </extensions>
      </trkpt>
      <trkpt lat="37.77262754738330841064453125" lon="-107.70281762816011905670166015625">
        <ele>3971.199951171875</ele>
        <time>2023-07-29T15:03:58.000Z</time>
        <extensions>
          <ns3:TrackPointExtension>
            <ns3:hr>93</ns3:hr>
            <ns3:cad>0</ns3:cad>
          </ns3:TrackPointExtension>
        </extensions>
      </trkpt>
      <trkpt lat="37.77262293733656406402587890625" lon="-107.70281863398849964141845703125">
        <ele>3971</ele>
        <time>2023-07-29T15:03:59.000Z</time>
        <extensions>
          <ns3:TrackPointExtension>
            <ns3:hr>93</ns3:hr>
            <ns3:cad>0</ns3:cad>
          </ns3:TrackPointExtension>
        </extensions>
      </trkpt>
      <trkpt lat="37.772618494927883148193359375" lon="-107.702813185751438140869140625">
        <ele>3971</ele>
        <time>2023-07-29T15:04:00.000Z</time>
        <extensions>
          <ns3:TrackPointExtension>
            <ns3:hr>95</ns3:hr>
            <ns3:cad>0</ns3:cad>
          </ns3:TrackPointExtension>
        </extensions>
      </trkpt>
      <trkpt lat="37.7726159803569316864013671875" lon="-107.7028061449527740478515625">
        <ele>3971</ele>
        <time>2023-07-29T15:04:01.000Z</time>
        <extensions>
          <ns3:TrackPointExtension>
            <ns3:hr>96</ns3:hr>
            <ns3:cad>0</ns3:cad>
          </ns3:TrackPointExtension>
        </extensions>
      </trkpt>
      <trkpt lat="37.77261547744274139404296875" lon="-107.70279969088733196258544921875">
        <ele>3971.199951171875</ele>
        <time>2023-07-29T15:04:02.000Z</time>
        <extensions>
          <ns3:TrackPointExtension>
            <ns3:hr>96</ns3:hr>
            <ns3:cad>0</ns3:cad>
          </ns3:TrackPointExtension>
        </extensions>
      </trkpt>
      <trkpt lat="37.77261472307145595550537109375" lon="-107.70279063843190670013427734375">
        <ele>3971.199951171875</ele>
        <time>2023-07-29T15:04:03.000Z</time>
        <extensions>
          <ns3:TrackPointExtension>
            <ns3:hr>96</ns3:hr>
            <ns3:cad>0</ns3:cad>
          </ns3:TrackPointExtension>
        </extensions>
      </trkpt>
      <trkpt lat="37.7726052515208721160888671875" lon="-107.7027828432619571685791015625">
        <ele>3971.199951171875</ele>
        <time>2023-07-29T15:04:04.000Z</time>
        <extensions>
          <ns3:TrackPointExtension>
            <ns3:hr>95</ns3:hr>
            <ns3:cad>0</ns3:cad>
          </ns3:TrackPointExtension>
        </extensions>
      </trkpt>
      <trkpt lat="37.7726035751402378082275390625" lon="-107.7027771435678005218505859375">
        <ele>3971.199951171875</ele>
        <time>2023-07-29T15:04:05.000Z</time>
        <extensions>
          <ns3:TrackPointExtension>
            <ns3:hr>95</ns3:hr>
            <ns3:cad>0</ns3:cad>
          </ns3:TrackPointExtension>
        </extensions>
      </trkpt>
      <trkpt lat="37.7726119570434093475341796875" lon="-107.70277068950235843658447265625">
        <ele>3971.199951171875</ele>
        <time>2023-07-29T15:04:06.000Z</time>
        <extensions>
          <ns3:TrackPointExtension>
            <ns3:hr>94</ns3:hr>
            <ns3:cad>0</ns3:cad>
          </ns3:TrackPointExtension>
        </extensions>
      </trkpt>
      <trkpt lat="37.7726216800510883331298828125" lon="-107.7027654089033603668212890625">
        <ele>3971.199951171875</ele>
        <time>2023-07-29T15:04:07.000Z</time>
        <extensions>
          <ns3:TrackPointExtension>
            <ns3:hr>91</ns3:hr>
            <ns3:cad>0</ns3:cad>
          </ns3:TrackPointExtension>
        </extensions>
      </trkpt>
      <trkpt lat="37.772624194622039794921875" lon="-107.70276700146496295928955078125">
        <ele>3971.199951171875</ele>
        <time>2023-07-29T15:04:08.000Z</time>
        <extensions>
          <ns3:TrackPointExtension>
            <ns3:hr>91</ns3:hr>
            <ns3:cad>0</ns3:cad>
          </ns3:TrackPointExtension>
        </extensions>
      </trkpt>
      <trkpt lat="37.772624194622039794921875" lon="-107.70277136005461215972900390625">
        <ele>3971.199951171875</ele>
        <time>2023-07-29T15:04:09.000Z</time>
        <extensions>
          <ns3:TrackPointExtension>
            <ns3:hr>89</ns3:hr>
            <ns3:cad>0</ns3:cad>
          </ns3:TrackPointExtension>
        </extensions>
      </trkpt>
      <trkpt lat="37.77261707000434398651123046875" lon="-107.7027818374335765838623046875">
        <ele>3971.199951171875</ele>
        <time>2023-07-29T15:04:10.000Z</time>
        <extensions>
          <ns3:TrackPointExtension>
            <ns3:hr>88</ns3:hr>
            <ns3:cad>0</ns3:cad>
          </ns3:TrackPointExtension>
        </extensions>
      </trkpt>
      <trkpt lat="37.7726161479949951171875" lon="-107.70278845913708209991455078125">
        <ele>3971.199951171875</ele>
        <time>2023-07-29T15:04:11.000Z</time>
        <extensions>
          <ns3:TrackPointExtension>
            <ns3:hr>86</ns3:hr>
            <ns3:cad>0</ns3:cad>
          </ns3:TrackPointExtension>
        </extensions>
      </trkpt>
      <trkpt lat="37.77261815965175628662109375" lon="-107.7027872018516063690185546875">
        <ele>3971.199951171875</ele>
        <time>2023-07-29T15:04:12.000Z</time>
        <extensions>
          <ns3:TrackPointExtension>
            <ns3:hr>86</ns3:hr>
            <ns3:cad>0</ns3:cad>
          </ns3:TrackPointExtension>
        </extensions>
      </trkpt>
      <trkpt lat="37.772615812718868255615234375" lon="-107.702791392803192138671875">
        <ele>3971.199951171875</ele>
        <time>2023-07-29T15:04:13.000Z</time>
        <extensions>
          <ns3:TrackPointExtension>
            <ns3:hr>85</ns3:hr>
            <ns3:cad>0</ns3:cad>
          </ns3:TrackPointExtension>
        </extensions>
      </trkpt>
      <trkpt lat="37.77261505834758281707763671875" lon="-107.702790386974811553955078125">
        <ele>3971.199951171875</ele>
        <time>2023-07-29T15:04:14.000Z</time>
        <extensions>
          <ns3:TrackPointExtension>
            <ns3:hr>85</ns3:hr>
            <ns3:cad>0</ns3:cad>
          </ns3:TrackPointExtension>
        </extensions>
      </trkpt>
      <trkpt lat="37.77261170558631420135498046875" lon="-107.70279348827898502349853515625">
        <ele>3971.199951171875</ele>
        <time>2023-07-29T15:04:15.000Z</time>
        <extensions>
          <ns3:TrackPointExtension>
            <ns3:hr>85</ns3:hr>
            <ns3:cad>0</ns3:cad>
          </ns3:TrackPointExtension>
        </extensions>
      </trkpt>
      <trkpt lat="37.77260919101536273956298828125" lon="-107.702795751392841339111328125">
        <ele>3971.39990234375</ele>
        <time>2023-07-29T15:04:16.000Z</time>
        <extensions>
          <ns3:TrackPointExtension>
            <ns3:hr>84</ns3:hr>
            <ns3:cad>0</ns3:cad>
          </ns3:TrackPointExtension>
        </extensions>
      </trkpt>
      <trkpt lat="37.77260567061603069305419921875" lon="-107.70280756987631320953369140625">
        <ele>3971.39990234375</ele>
        <time>2023-07-29T15:04:17.000Z</time>
        <extensions>
          <ns3:TrackPointExtension>
            <ns3:hr>83</ns3:hr>
            <ns3:cad>0</ns3:cad>
          </ns3:TrackPointExtension>
        </extensions>
      </trkpt>
      <trkpt lat="37.7726008929312229156494140625" lon="-107.70280824042856693267822265625">
        <ele>3971.39990234375</ele>
        <time>2023-07-29T15:04:18.000Z</time>
        <extensions>
          <ns3:TrackPointExtension>
            <ns3:hr>83</ns3:hr>
            <ns3:cad>0</ns3:cad>
          </ns3:TrackPointExtension>
        </extensions>
      </trkpt>
      <trkpt lat="37.77259577997028827667236328125" lon="-107.70280472002923488616943359375">
        <ele>3971.39990234375</ele>
        <time>2023-07-29T15:04:19.000Z</time>
        <extensions>
          <ns3:TrackPointExtension>
            <ns3:hr>83</ns3:hr>
            <ns3:cad>0</ns3:cad>
          </ns3:TrackPointExtension>
        </extensions>
      </trkpt>
      <trkpt lat="37.772586643695831298828125" lon="-107.7028089947998523712158203125">
        <ele>3971.39990234375</ele>
        <time>2023-07-29T15:04:20.000Z</time>
        <extensions>
          <ns3:TrackPointExtension>
            <ns3:hr>83</ns3:hr>
            <ns3:cad>0</ns3:cad>
          </ns3:TrackPointExtension>
        </extensions>
      </trkpt>
      <trkpt lat="37.77257700450718402862548828125" lon="-107.70280949771404266357421875">
        <ele>3971.39990234375</ele>
        <time>2023-07-29T15:04:21.000Z</time>
        <extensions>
          <ns3:TrackPointExtension>
            <ns3:hr>83</ns3:hr>
            <ns3:cad>0</ns3:cad>
          </ns3:TrackPointExtension>
        </extensions>
      </trkpt>
      <trkpt lat="37.7725666947662830352783203125" lon="-107.702814526855945587158203125">
        <ele>3971.199951171875</ele>
        <time>2023-07-29T15:04:22.000Z</time>
        <extensions>
          <ns3:TrackPointExtension>
            <ns3:hr>83</ns3:hr>
            <ns3:cad>0</ns3:cad>
          </ns3:TrackPointExtension>
        </extensions>
      </trkpt>
      <trkpt lat="37.7725573070347309112548828125" lon="-107.70282399840652942657470703125">
        <ele>3971</ele>
        <time>2023-07-29T15:04:23.000Z</time>
        <extensions>
          <ns3:TrackPointExtension>
            <ns3:hr>83</ns3:hr>
            <ns3:cad>0</ns3:cad>
          </ns3:TrackPointExtension>
        </extensions>
      </trkpt>
      <trkpt lat="37.7725492604076862335205078125" lon="-107.7028329670429229736328125">
        <ele>3971</ele>
        <time>2023-07-29T15:04:24.000Z</time>
        <extensions>
          <ns3:TrackPointExtension>
            <ns3:hr>83</ns3:hr>
            <ns3:cad>0</ns3:cad>
          </ns3:TrackPointExtension>
        </extensions>
      </trkpt>
      <trkpt lat="37.77255035005509853363037109375" lon="-107.7028395049273967742919921875">
        <ele>3970.800048828125</ele>
        <time>2023-07-29T15:04:25.000Z</time>
        <extensions>
          <ns3:TrackPointExtension>
            <ns3:hr>83</ns3:hr>
            <ns3:cad>0</ns3:cad>
          </ns3:TrackPointExtension>
        </extensions>
      </trkpt>
      <trkpt lat="37.7725599892437458038330078125" lon="-107.70283631980419158935546875">
        <ele>3970.800048828125</ele>
        <time>2023-07-29T15:04:26.000Z</time>
        <extensions>
          <ns3:TrackPointExtension>
            <ns3:hr>84</ns3:hr>
            <ns3:cad>48</ns3:cad>
          </ns3:TrackPointExtension>
        </extensions>
      </trkpt>
      <trkpt lat="37.77257348410785198211669921875" lon="-107.7028270997107028961181640625">
        <ele>3970.800048828125</ele>
        <time>2023-07-29T15:04:27.000Z</time>
        <extensions>
          <ns3:TrackPointExtension>
            <ns3:hr>84</ns3:hr>
            <ns3:cad>48</ns3:cad>
          </ns3:TrackPointExtension>
        </extensions>
      </trkpt>
      <trkpt lat="37.772585637867450714111328125" lon="-107.70281997509300708770751953125">
        <ele>3970.60009765625</ele>
        <time>2023-07-29T15:04:28.000Z</time>
        <extensions>
          <ns3:TrackPointExtension>
            <ns3:hr>83</ns3:hr>
            <ns3:cad>50</ns3:cad>
          </ns3:TrackPointExtension>
        </extensions>
      </trkpt>
      <trkpt lat="37.77259762398898601531982421875" lon="-107.70281192846596240997314453125">
        <ele>3970.39990234375</ele>
        <time>2023-07-29T15:04:29.000Z</time>
        <extensions>
          <ns3:TrackPointExtension>
            <ns3:hr>83</ns3:hr>
            <ns3:cad>51</ns3:cad>
          </ns3:TrackPointExtension>
        </extensions>
      </trkpt>
      <trkpt lat="37.7726129628717899322509765625" lon="-107.70280220545828342437744140625">
        <ele>3970.39990234375</ele>
        <time>2023-07-29T15:04:30.000Z</time>
        <extensions>
          <ns3:TrackPointExtension>
            <ns3:hr>83</ns3:hr>
            <ns3:cad>51</ns3:cad>
          </ns3:TrackPointExtension>
        </extensions>
      </trkpt>
      <trkpt lat="37.7726303972303867340087890625" lon="-107.70278871059417724609375">
        <ele>3970.199951171875</ele>
        <time>2023-07-29T15:04:31.000Z</time>
        <extensions>
          <ns3:TrackPointExtension>
            <ns3:hr>83</ns3:hr>
            <ns3:cad>52</ns3:cad>
          </ns3:TrackPointExtension>
        </extensions>
      </trkpt>
      <trkpt lat="37.77264297008514404296875" lon="-107.70277731120586395263671875">
        <ele>3970.199951171875</ele>
        <time>2023-07-29T15:04:32.000Z</time>
        <extensions>
          <ns3:TrackPointExtension>
            <ns3:hr>83</ns3:hr>
            <ns3:cad>51</ns3:cad>
          </ns3:TrackPointExtension>
        </extensions>
      </trkpt>
      <trkpt lat="37.7726498432457447052001953125" lon="-107.702769935131072998046875">
        <ele>3970</ele>
        <time>2023-07-29T15:04:33.000Z</time>
        <extensions>
          <ns3:TrackPointExtension>
            <ns3:hr>84</ns3:hr>
            <ns3:cad>50</ns3:cad>
          </ns3:TrackPointExtension>
        </extensions>
      </trkpt>
      <trkpt lat="37.7726525254547595977783203125" lon="-107.70276616327464580535888671875">
        <ele>3970</ele>
        <time>2023-07-29T15:04:34.000Z</time>
        <extensions>
          <ns3:TrackPointExtension>
            <ns3:hr>84</ns3:hr>
            <ns3:cad>50</ns3:cad>
          </ns3:TrackPointExtension>
        </extensions>
      </trkpt>
      <trkpt lat="37.77265612967312335968017578125" lon="-107.7027613855898380279541015625">
        <ele>3970</ele>
        <time>2023-07-29T15:04:35.000Z</time>
        <extensions>
          <ns3:TrackPointExtension>
            <ns3:hr>84</ns3:hr>
            <ns3:cad>50</ns3:cad>
          </ns3:TrackPointExtension>
        </extensions>
      </trkpt>
      <trkpt lat="37.7726602368056774139404296875" lon="-107.7027573622763156890869140625">
        <ele>3970</ele>
        <time>2023-07-29T15:04:36.000Z</time>
        <extensions>
          <ns3:TrackPointExtension>
            <ns3:hr>84</ns3:hr>
            <ns3:cad>0</ns3:cad>
          </ns3:TrackPointExtension>
        </extensions>
      </trkpt>
      <trkpt lat="37.77266166172921657562255859375" lon="-107.70275442861020565032958984375">
        <ele>3970.199951171875</ele>
        <time>2023-07-29T15:04:37.000Z</time>
        <extensions>
          <ns3:TrackPointExtension>
            <ns3:hr>85</ns3:hr>
            <ns3:cad>0</ns3:cad>
          </ns3:TrackPointExtension>
        </extensions>
      </trkpt>
      <trkpt lat="37.77266585268080234527587890625" lon="-107.70275115966796875">
        <ele>3970.39990234375</ele>
        <time>2023-07-29T15:04:38.000Z</time>
        <extensions>
          <ns3:TrackPointExtension>
            <ns3:hr>85</ns3:hr>
            <ns3:cad>0</ns3:cad>
          </ns3:TrackPointExtension>
        </extensions>
      </trkpt>
      <trkpt lat="37.77266803197562694549560546875" lon="-107.702747471630573272705078125">
        <ele>3970.39990234375</ele>
        <time>2023-07-29T15:04:39.000Z</time>
        <extensions>
          <ns3:TrackPointExtension>
            <ns3:hr>85</ns3:hr>
            <ns3:cad>0</ns3:cad>
          </ns3:TrackPointExtension>
        </extensions>
      </trkpt>
      <trkpt lat="37.772664763033390045166015625" lon="-107.70274420268833637237548828125">
        <ele>3970.39990234375</ele>
        <time>2023-07-29T15:04:40.000Z</time>
        <extensions>
          <ns3:TrackPointExtension>
            <ns3:hr>86</ns3:hr>
            <ns3:cad>0</ns3:cad>
          </ns3:TrackPointExtension>
        </extensions>
      </trkpt>
      <trkpt lat="37.77266467921435832977294921875" lon="-107.70274219103157520294189453125">
        <ele>3970.39990234375</ele>
        <time>2023-07-29T15:04:41.000Z</time>
        <extensions>
          <ns3:TrackPointExtension>
            <ns3:hr>86</ns3:hr>
            <ns3:cad>47</ns3:cad>
          </ns3:TrackPointExtension>
        </extensions>
      </trkpt>
      <trkpt lat="37.7726639248430728912353515625" lon="-107.7027419395744800567626953125">
        <ele>3970.39990234375</ele>
        <time>2023-07-29T15:04:42.000Z</time>
        <extensions>
          <ns3:TrackPointExtension>
            <ns3:hr>86</ns3:hr>
            <ns3:cad>47</ns3:cad>
          </ns3:TrackPointExtension>
        </extensions>
      </trkpt>
      <trkpt lat="37.77266585268080234527587890625" lon="-107.70274084992706775665283203125">
        <ele>3970.39990234375</ele>
        <time>2023-07-29T15:04:43.000Z</time>
        <extensions>
          <ns3:TrackPointExtension>
            <ns3:hr>86</ns3:hr>
            <ns3:cad>55</ns3:cad>
          </ns3:TrackPointExtension>
        </extensions>
      </trkpt>
      <trkpt lat="37.77267088182270526885986328125" lon="-107.702736742794513702392578125">
        <ele>3970.39990234375</ele>
        <time>2023-07-29T15:04:44.000Z</time>
        <extensions>
          <ns3:TrackPointExtension>
            <ns3:hr>86</ns3:hr>
            <ns3:cad>55</ns3:cad>
          </ns3:TrackPointExtension>
        </extensions>
      </trkpt>
      <trkpt lat="37.7726733125746250152587890625" lon="-107.70273732952773571014404296875">
        <ele>3970.199951171875</ele>
        <time>2023-07-29T15:04:45.000Z</time>
        <extensions>
          <ns3:TrackPointExtension>
            <ns3:hr>86</ns3:hr>
            <ns3:cad>55</ns3:cad>
          </ns3:TrackPointExtension>
        </extensions>
      </trkpt>
      <trkpt lat="37.7726736478507518768310546875" lon="-107.70274202339351177215576171875">
        <ele>3970</ele>
        <time>2023-07-29T15:04:46.000Z</time>
        <extensions>
          <ns3:TrackPointExtension>
            <ns3:hr>86</ns3:hr>
            <ns3:cad>0</ns3:cad>
          </ns3:TrackPointExtension>
        </extensions>
      </trkpt>
      <trkpt lat="37.77267582714557647705078125" lon="-107.7027419395744800567626953125">
        <ele>3969.800048828125</ele>
        <time>2023-07-29T15:04:47.000Z</time>
        <extensions>
          <ns3:TrackPointExtension>
            <ns3:hr>86</ns3:hr>
            <ns3:cad>0</ns3:cad>
          </ns3:TrackPointExtension>
        </extensions>
      </trkpt>
      <trkpt lat="37.77267406694591045379638671875" lon="-107.70274235866963863372802734375">
        <ele>3969.60009765625</ele>
        <time>2023-07-29T15:04:48.000Z</time>
        <extensions>
          <ns3:TrackPointExtension>
            <ns3:hr>86</ns3:hr>
            <ns3:cad>0</ns3:cad>
          </ns3:TrackPointExtension>
        </extensions>
      </trkpt>
      <trkpt lat="37.772675491869449615478515625" lon="-107.70274185575544834136962890625">
        <ele>3969.60009765625</ele>
        <time>2023-07-29T15:04:49.000Z</time>
        <extensions>
          <ns3:TrackPointExtension>
            <ns3:hr>87</ns3:hr>
            <ns3:cad>0</ns3:cad>
          </ns3:TrackPointExtension>
        </extensions>
      </trkpt>
      <trkpt lat="37.7726791799068450927734375" lon="-107.70273950882256031036376953125">
        <ele>3969.39990234375</ele>
        <time>2023-07-29T15:04:50.000Z</time>
        <extensions>
          <ns3:TrackPointExtension>
            <ns3:hr>87</ns3:hr>
            <ns3:cad>0</ns3:cad>
          </ns3:TrackPointExtension>
        </extensions>
      </trkpt>
      <trkpt lat="37.77268529869616031646728515625" lon="-107.70273431204259395599365234375">
        <ele>3969.39990234375</ele>
        <time>2023-07-29T15:04:51.000Z</time>
        <extensions>
          <ns3:TrackPointExtension>
            <ns3:hr>87</ns3:hr>
            <ns3:cad>0</ns3:cad>
          </ns3:TrackPointExtension>
        </extensions>
      </trkpt>
      <trkpt lat="37.77269192039966583251953125" lon="-107.70272978581488132476806640625">
        <ele>3969.199951171875</ele>
        <time>2023-07-29T15:04:52.000Z</time>
        <extensions>
          <ns3:TrackPointExtension>
            <ns3:hr>87</ns3:hr>
            <ns3:cad>0</ns3:cad>
          </ns3:TrackPointExtension>
        </extensions>
      </trkpt>
      <trkpt lat="37.7726991288363933563232421875" lon="-107.70272190682590007781982421875">
        <ele>3969.199951171875</ele>
        <time>2023-07-29T15:04:53.000Z</time>
        <extensions>
          <ns3:TrackPointExtension>
            <ns3:hr>87</ns3:hr>
            <ns3:cad>0</ns3:cad>
          </ns3:TrackPointExtension>
        </extensions>
      </trkpt>
      <trkpt lat="37.772704996168613433837890625" lon="-107.70271872170269489288330078125">
        <ele>3969</ele>
        <time>2023-07-29T15:04:54.000Z</time>
        <extensions>
          <ns3:TrackPointExtension>
            <ns3:hr>86</ns3:hr>
            <ns3:cad>62</ns3:cad>
          </ns3:TrackPointExtension>
        </extensions>
      </trkpt>
      <trkpt lat="37.7727118693292140960693359375" lon="-107.70271318964660167694091796875">
        <ele>3969</ele>
        <time>2023-07-29T15:04:55.000Z</time>
        <extensions>
          <ns3:TrackPointExtension>
            <ns3:hr>86</ns3:hr>
            <ns3:cad>62</ns3:cad>
          </ns3:TrackPointExtension>
        </extensions>
      </trkpt>
      <trkpt lat="37.7727179042994976043701171875" lon="-107.70271201618015766143798828125">
        <ele>3968.800048828125</ele>
        <time>2023-07-29T15:04:56.000Z</time>
        <extensions>
          <ns3:TrackPointExtension>
            <ns3:hr>86</ns3:hr>
            <ns3:cad>62</ns3:cad>
          </ns3:TrackPointExtension>
        </extensions>
      </trkpt>
      <trkpt lat="37.77272301726043224334716796875" lon="-107.70270950160920619964599609375">
        <ele>3968.60009765625</ele>
        <time>2023-07-29T15:04:57.000Z</time>
        <extensions>
          <ns3:TrackPointExtension>
            <ns3:hr>87</ns3:hr>
            <ns3:cad>0</ns3:cad>
          </ns3:TrackPointExtension>
        </extensions>
      </trkpt>
      <trkpt lat="37.77272536419332027435302734375" lon="-107.70270966924726963043212890625">
        <ele>3968.39990234375</ele>
        <time>2023-07-29T15:04:58.000Z</time>
        <extensions>
          <ns3:TrackPointExtension>
            <ns3:hr>89</ns3:hr>
            <ns3:cad>0</ns3:cad>
          </ns3:TrackPointExtension>
        </extensions>
      </trkpt>
      <trkpt lat="37.77272410690784454345703125" lon="-107.7027131058275699615478515625">
        <ele>3968.199951171875</ele>
        <time>2023-07-29T15:04:59.000Z</time>
        <extensions>
          <ns3:TrackPointExtension>
            <ns3:hr>90</ns3:hr>
            <ns3:cad>0</ns3:cad>
          </ns3:TrackPointExtension>
        </extensions>
      </trkpt>
      <trkpt lat="37.77272704057395458221435546875" lon="-107.70271268673241138458251953125">
        <ele>3968</ele>
        <time>2023-07-29T15:05:00.000Z</time>
        <extensions>
          <ns3:TrackPointExtension>
            <ns3:hr>91</ns3:hr>
            <ns3:cad>0</ns3:cad>
          </ns3:TrackPointExtension>
        </extensions>
      </trkpt>
      <trkpt lat="37.77273408137261867523193359375" lon="-107.7027122676372528076171875">
        <ele>3968</ele>
        <time>2023-07-29T15:05:01.000Z</time>
        <extensions>
          <ns3:TrackPointExtension>
            <ns3:hr>92</ns3:hr>
            <ns3:cad>0</ns3:cad>
          </ns3:TrackPointExtension>
        </extensions>
      </trkpt>
      <trkpt lat="37.77273961342871189117431640625" lon="-107.70271503366529941558837890625">
        <ele>3968</ele>
        <time>2023-07-29T15:05:02.000Z</time>
        <extensions>
          <ns3:TrackPointExtension>
            <ns3:hr>92</ns3:hr>
            <ns3:cad>0</ns3:cad>
          </ns3:TrackPointExtension>
        </extensions>
      </trkpt>
      <trkpt lat="37.77274766005575656890869140625" lon="-107.7027161233127117156982421875">
        <ele>3967.800048828125</ele>
        <time>2023-07-29T15:05:03.000Z</time>
        <extensions>
          <ns3:TrackPointExtension>
            <ns3:hr>92</ns3:hr>
            <ns3:cad>0</ns3:cad>
          </ns3:TrackPointExtension>
        </extensions>
      </trkpt>
      <trkpt lat="37.7727534435689449310302734375" lon="-107.70271721296012401580810546875">
        <ele>3967.60009765625</ele>
        <time>2023-07-29T15:05:04.000Z</time>
        <extensions>
          <ns3:TrackPointExtension>
            <ns3:hr>92</ns3:hr>
            <ns3:cad>0</ns3:cad>
          </ns3:TrackPointExtension>
        </extensions>
      </trkpt>
      <trkpt lat="37.77276375330984592437744140625" lon="-107.7027167938649654388427734375">
        <ele>3967.39990234375</ele>
        <time>2023-07-29T15:05:05.000Z</time>
        <extensions>
          <ns3:TrackPointExtension>
            <ns3:hr>92</ns3:hr>
            <ns3:cad>0</ns3:cad>
          </ns3:TrackPointExtension>
        </extensions>
      </trkpt>
      <trkpt lat="37.7727668546140193939208984375" lon="-107.70271830260753631591796875">
        <ele>3967.39990234375</ele>
        <time>2023-07-29T15:05:06.000Z</time>
        <extensions>
          <ns3:TrackPointExtension>
            <ns3:hr>92</ns3:hr>
            <ns3:cad>0</ns3:cad>
          </ns3:TrackPointExtension>
        </extensions>
      </trkpt>
      <trkpt lat="37.77276995591819286346435546875" lon="-107.7027141116559505462646484375">
        <ele>3967</ele>
        <time>2023-07-29T15:05:07.000Z</time>
        <extensions>
          <ns3:TrackPointExtension>
            <ns3:hr>91</ns3:hr>
            <ns3:cad>0</ns3:cad>
          </ns3:TrackPointExtension>
        </extensions>
      </trkpt>
      <trkpt lat="37.7727742306888103485107421875" lon="-107.70271201618015766143798828125">
        <ele>3967</ele>
        <time>2023-07-29T15:05:08.000Z</time>
        <extensions>
          <ns3:TrackPointExtension>
            <ns3:hr>90</ns3:hr>
            <ns3:cad>0</ns3:cad>
          </ns3:TrackPointExtension>
        </extensions>
      </trkpt>
      <trkpt lat="37.77278554625809192657470703125" lon="-107.702696509659290313720703125">
        <ele>3966.800048828125</ele>
        <time>2023-07-29T15:05:09.000Z</time>
        <extensions>
          <ns3:TrackPointExtension>
            <ns3:hr>90</ns3:hr>
            <ns3:cad>0</ns3:cad>
          </ns3:TrackPointExtension>
        </extensions>
      </trkpt>
      <trkpt lat="37.77278982102870941162109375" lon="-107.702691815793514251708984375">
        <ele>3966.60009765625</ele>
        <time>2023-07-29T15:05:10.000Z</time>
        <extensions>
          <ns3:TrackPointExtension>
            <ns3:hr>90</ns3:hr>
            <ns3:cad>0</ns3:cad>
          </ns3:TrackPointExtension>
        </extensions>
      </trkpt>
      <trkpt lat="37.7727842889726161956787109375" lon="-107.7026943303644657135009765625">
        <ele>3966.39990234375</ele>
        <time>2023-07-29T15:05:11.000Z</time>
        <extensions>
          <ns3:TrackPointExtension>
            <ns3:hr>90</ns3:hr>
            <ns3:cad>50</ns3:cad>
          </ns3:TrackPointExtension>
        </extensions>
      </trkpt>
      <trkpt lat="37.77278470806777477264404296875" lon="-107.7027020417153835296630859375">
        <ele>3966.39990234375</ele>
        <time>2023-07-29T15:05:12.000Z</time>
        <extensions>
          <ns3:TrackPointExtension>
            <ns3:hr>90</ns3:hr>
            <ns3:cad>50</ns3:cad>
          </ns3:TrackPointExtension>
        </extensions>
      </trkpt>
      <trkpt lat="37.77278588153421878814697265625" lon="-107.70270346663892269134521484375">
        <ele>3966.199951171875</ele>
        <time>2023-07-29T15:05:13.000Z</time>
        <extensions>
          <ns3:TrackPointExtension>
            <ns3:hr>90</ns3:hr>
            <ns3:cad>0</ns3:cad>
          </ns3:TrackPointExtension>
        </extensions>
      </trkpt>
      <trkpt lat="37.77278755791485309600830078125" lon="-107.7026986889541149139404296875">
        <ele>3966</ele>
        <time>2023-07-29T15:05:14.000Z</time>
        <extensions>
          <ns3:TrackPointExtension>
            <ns3:hr>90</ns3:hr>
            <ns3:cad>0</ns3:cad>
          </ns3:TrackPointExtension>
        </extensions>
      </trkpt>
      <trkpt lat="37.7727849595248699188232421875" lon="-107.7026913128793239593505859375">
        <ele>3966</ele>
        <time>2023-07-29T15:05:15.000Z</time>
        <extensions>
          <ns3:TrackPointExtension>
            <ns3:hr>90</ns3:hr>
            <ns3:cad>0</ns3:cad>
          </ns3:TrackPointExtension>
        </extensions>
      </trkpt>
      <trkpt lat="37.7727842889726161956787109375" lon="-107.7026862837374210357666015625">
        <ele>3966</ele>
        <time>2023-07-29T15:05:16.000Z</time>
        <extensions>
          <ns3:TrackPointExtension>
            <ns3:hr>89</ns3:hr>
            <ns3:cad>0</ns3:cad>
          </ns3:TrackPointExtension>
        </extensions>
      </trkpt>
      <trkpt lat="37.77278579771518707275390625" lon="-107.70268402062356472015380859375">
        <ele>3965.800048828125</ele>
        <time>2023-07-29T15:05:17.000Z</time>
        <extensions>
          <ns3:TrackPointExtension>
            <ns3:hr>89</ns3:hr>
            <ns3:cad>0</ns3:cad>
          </ns3:TrackPointExtension>
        </extensions>
      </trkpt>
      <trkpt lat="37.77279007248580455780029296875" lon="-107.70268603228032588958740234375">
        <ele>3965.800048828125</ele>
        <time>2023-07-29T15:05:18.000Z</time>
        <extensions>
          <ns3:TrackPointExtension>
            <ns3:hr>89</ns3:hr>
            <ns3:cad>0</ns3:cad>
          </ns3:TrackPointExtension>
        </extensions>
      </trkpt>
      <trkpt lat="37.7727909944951534271240234375" lon="-107.702686451375484466552734375">
        <ele>3965.800048828125</ele>
        <time>2023-07-29T15:05:19.000Z</time>
        <extensions>
          <ns3:TrackPointExtension>
            <ns3:hr>89</ns3:hr>
            <ns3:cad>0</ns3:cad>
          </ns3:TrackPointExtension>
        </extensions>
      </trkpt>
      <trkpt lat="37.77279191650450229644775390625" lon="-107.70269106142222881317138671875">
        <ele>3965.800048828125</ele>
        <time>2023-07-29T15:05:20.000Z</time>
        <extensions>
          <ns3:TrackPointExtension>
            <ns3:hr>89</ns3:hr>
            <ns3:cad>0</ns3:cad>
          </ns3:TrackPointExtension>
        </extensions>
      </trkpt>
      <trkpt lat="37.7727916650474071502685546875" lon="-107.702693827450275421142578125">
        <ele>3965.800048828125</ele>
        <time>2023-07-29T15:05:21.000Z</time>
        <extensions>
          <ns3:TrackPointExtension>
            <ns3:hr>89</ns3:hr>
            <ns3:cad>0</ns3:cad>
          </ns3:TrackPointExtension>
        </extensions>
      </trkpt>
      <trkpt lat="37.7727936767041683197021484375" lon="-107.70269709639251232147216796875">
        <ele>3965.60009765625</ele>
        <time>2023-07-29T15:05:22.000Z</time>
        <extensions>
          <ns3:TrackPointExtension>
            <ns3:hr>89</ns3:hr>
            <ns3:cad>0</ns3:cad>
          </ns3:TrackPointExtension>
        </extensions>
      </trkpt>
      <trkpt lat="37.77279661037027835845947265625" lon="-107.7027040533721446990966796875">
        <ele>3965.60009765625</ele>
        <time>2023-07-29T15:05:23.000Z</time>
        <extensions>
          <ns3:TrackPointExtension>
            <ns3:hr>89</ns3:hr>
            <ns3:cad>0</ns3:cad>
          </ns3:TrackPointExtension>
        </extensions>
      </trkpt>
      <trkpt lat="37.7727953530848026275634765625" lon="-107.70270891487598419189453125">
        <ele>3965.39990234375</ele>
        <time>2023-07-29T15:05:24.000Z</time>
        <extensions>
          <ns3:TrackPointExtension>
            <ns3:hr>89</ns3:hr>
            <ns3:cad>0</ns3:cad>
          </ns3:TrackPointExtension>
        </extensions>
      </trkpt>
      <trkpt lat="37.7728007175028324127197265625" lon="-107.7027114294469356536865234375">
        <ele>3965.39990234375</ele>
        <time>2023-07-29T15:05:25.000Z</time>
        <extensions>
          <ns3:TrackPointExtension>
            <ns3:hr>89</ns3:hr>
            <ns3:cad>0</ns3:cad>
          </ns3:TrackPointExtension>
        </extensions>
      </trkpt>
      <trkpt lat="37.77280448935925960540771484375" lon="-107.702709920704364776611328125">
        <ele>3965.199951171875</ele>
        <time>2023-07-29T15:05:26.000Z</time>
        <extensions>
          <ns3:TrackPointExtension>
            <ns3:hr>89</ns3:hr>
            <ns3:cad>0</ns3:cad>
          </ns3:TrackPointExtension>
        </extensions>
      </trkpt>
      <trkpt lat="37.77280549518764019012451171875" lon="-107.70270380191504955291748046875">
        <ele>3965</ele>
        <time>2023-07-29T15:05:27.000Z</time>
        <extensions>
          <ns3:TrackPointExtension>
            <ns3:hr>89</ns3:hr>
            <ns3:cad>0</ns3:cad>
          </ns3:TrackPointExtension>
        </extensions>
      </trkpt>
      <trkpt lat="37.77280717156827449798583984375" lon="-107.702699191868305206298828125">
        <ele>3964.800048828125</ele>
        <time>2023-07-29T15:05:28.000Z</time>
        <extensions>
          <ns3:TrackPointExtension>
            <ns3:hr>89</ns3:hr>
            <ns3:cad>0</ns3:cad>
          </ns3:TrackPointExtension>
        </extensions>
      </trkpt>
      <trkpt lat="37.772809602320194244384765625" lon="-107.70269148051738739013671875">
        <ele>3964.60009765625</ele>
        <time>2023-07-29T15:05:29.000Z</time>
        <extensions>
          <ns3:TrackPointExtension>
            <ns3:hr>89</ns3:hr>
            <ns3:cad>0</ns3:cad>
          </ns3:TrackPointExtension>
        </extensions>
      </trkpt>
      <trkpt lat="37.77281438000500202178955078125" lon="-107.7026832662522792816162109375">
        <ele>3964.60009765625</ele>
        <time>2023-07-29T15:05:30.000Z</time>
        <extensions>
          <ns3:TrackPointExtension>
            <ns3:hr>89</ns3:hr>
            <ns3:cad>0</ns3:cad>
          </ns3:TrackPointExtension>
        </extensions>
      </trkpt>
      <trkpt lat="37.772823013365268707275390625" lon="-107.70267932675778865814208984375">
        <ele>3964.199951171875</ele>
        <time>2023-07-29T15:05:31.000Z</time>
        <extensions>
          <ns3:TrackPointExtension>
            <ns3:hr>89</ns3:hr>
            <ns3:cad>0</ns3:cad>
          </ns3:TrackPointExtension>
        </extensions>
      </trkpt>
      <trkpt lat="37.7728302218019962310791015625" lon="-107.70267563872039318084716796875">
        <ele>3964</ele>
        <time>2023-07-29T15:05:32.000Z</time>
        <extensions>
          <ns3:TrackPointExtension>
            <ns3:hr>89</ns3:hr>
            <ns3:cad>0</ns3:cad>
          </ns3:TrackPointExtension>
        </extensions>
      </trkpt>
      <trkpt lat="37.77283835224807262420654296875" lon="-107.70267002284526824951171875">
        <ele>3963.800048828125</ele>
        <time>2023-07-29T15:05:33.000Z</time>
        <extensions>
          <ns3:TrackPointExtension>
            <ns3:hr>89</ns3:hr>
            <ns3:cad>61</ns3:cad>
          </ns3:TrackPointExtension>
        </extensions>
      </trkpt>
      <trkpt lat="37.77284790761768817901611328125" lon="-107.70266055129468441009521484375">
        <ele>3963.800048828125</ele>
        <time>2023-07-29T15:05:34.000Z</time>
        <extensions>
          <ns3:TrackPointExtension>
            <ns3:hr>89</ns3:hr>
            <ns3:cad>61</ns3:cad>
          </ns3:TrackPointExtension>
        </extensions>
      </trkpt>
      <trkpt lat="37.772853858768939971923828125" lon="-107.7026546001434326171875">
        <ele>3963.800048828125</ele>
        <time>2023-07-29T15:05:35.000Z</time>
        <extensions>
          <ns3:TrackPointExtension>
            <ns3:hr>89</ns3:hr>
            <ns3:cad>0</ns3:cad>
          </ns3:TrackPointExtension>
        </extensions>
      </trkpt>
      <trkpt lat="37.7728607319295406341552734375" lon="-107.70264856517314910888671875">
        <ele>3963.60009765625</ele>
        <time>2023-07-29T15:05:36.000Z</time>
        <extensions>
          <ns3:TrackPointExtension>
            <ns3:hr>89</ns3:hr>
            <ns3:cad>0</ns3:cad>
          </ns3:TrackPointExtension>
        </extensions>
      </trkpt>
      <trkpt lat="37.77286333031952381134033203125" lon="-107.70264320075511932373046875">
        <ele>3963.39990234375</ele>
        <time>2023-07-29T15:05:37.000Z</time>
        <extensions>
          <ns3:TrackPointExtension>
            <ns3:hr>89</ns3:hr>
            <ns3:cad>0</ns3:cad>
          </ns3:TrackPointExtension>
        </extensions>
      </trkpt>
      <trkpt lat="37.7728647552430629730224609375" lon="-107.70263850688934326171875">
        <ele>3963</ele>
        <time>2023-07-29T15:05:38.000Z</time>
        <extensions>
          <ns3:TrackPointExtension>
            <ns3:hr>89</ns3:hr>
            <ns3:cad>0</ns3:cad>
          </ns3:TrackPointExtension>
        </extensions>
      </trkpt>
      <trkpt lat="37.77286517433822154998779296875" lon="-107.7026373334228992462158203125">
        <ele>3962.800048828125</ele>
        <time>2023-07-29T15:05:39.000Z</time>
        <extensions>
          <ns3:TrackPointExtension>
            <ns3:hr>89</ns3:hr>
            <ns3:cad>0</ns3:cad>
          </ns3:TrackPointExtension>
        </extensions>
      </trkpt>
      <trkpt lat="37.772865258157253265380859375" lon="-107.702638171613216400146484375">
        <ele>3962.60009765625</ele>
        <time>2023-07-29T15:05:40.000Z</time>
        <extensions>
          <ns3:TrackPointExtension>
            <ns3:hr>89</ns3:hr>
            <ns3:cad>0</ns3:cad>
          </ns3:TrackPointExtension>
        </extensions>
      </trkpt>
      <trkpt lat="37.77286534197628498077392578125" lon="-107.7026371657848358154296875">
        <ele>3962.60009765625</ele>
        <time>2023-07-29T15:05:41.000Z</time>
        <extensions>
          <ns3:TrackPointExtension>
            <ns3:hr>88</ns3:hr>
            <ns3:cad>68</ns3:cad>
          </ns3:TrackPointExtension>
        </extensions>
      </trkpt>
      <trkpt lat="37.77286768890917301177978515625" lon="-107.70263641141355037689208984375">
        <ele>3962.60009765625</ele>
        <time>2023-07-29T15:05:42.000Z</time>
        <extensions>
          <ns3:TrackPointExtension>
            <ns3:hr>88</ns3:hr>
            <ns3:cad>68</ns3:cad>
          </ns3:TrackPointExtension>
        </extensions>
      </trkpt>
      <trkpt lat="37.77286685071885585784912109375" lon="-107.70263775251805782318115234375">
        <ele>3962.60009765625</ele>
        <time>2023-07-29T15:05:43.000Z</time>
        <extensions>
          <ns3:TrackPointExtension>
            <ns3:hr>88</ns3:hr>
            <ns3:cad>0</ns3:cad>
          </ns3:TrackPointExtension>
        </extensions>
      </trkpt>
      <trkpt lat="37.77286735363304615020751953125" lon="-107.70263674668967723846435546875">
        <ele>3962.60009765625</ele>
        <time>2023-07-29T15:05:44.000Z</time>
        <extensions>
          <ns3:TrackPointExtension>
            <ns3:hr>88</ns3:hr>
            <ns3:cad>0</ns3:cad>
          </ns3:TrackPointExtension>
        </extensions>
      </trkpt>
      <trkpt lat="37.77287087403237819671630859375" lon="-107.70263054408133029937744140625">
        <ele>3962.800048828125</ele>
        <time>2023-07-29T15:05:45.000Z</time>
        <extensions>
          <ns3:TrackPointExtension>
            <ns3:hr>87</ns3:hr>
            <ns3:cad>0</ns3:cad>
          </ns3:TrackPointExtension>
        </extensions>
      </trkpt>
      <trkpt lat="37.772869281470775604248046875" lon="-107.7026302926242351531982421875">
        <ele>3962.800048828125</ele>
        <time>2023-07-29T15:05:46.000Z</time>
        <extensions>
          <ns3:TrackPointExtension>
            <ns3:hr>87</ns3:hr>
            <ns3:cad>0</ns3:cad>
          </ns3:TrackPointExtension>
        </extensions>
      </trkpt>
      <trkpt lat="37.7728684432804584503173828125" lon="-107.70262802951037883758544921875">
        <ele>3962.800048828125</ele>
        <time>2023-07-29T15:05:47.000Z</time>
        <extensions>
          <ns3:TrackPointExtension>
            <ns3:hr>87</ns3:hr>
            <ns3:cad>0</ns3:cad>
          </ns3:TrackPointExtension>
        </extensions>
      </trkpt>
      <trkpt lat="37.77287296950817108154296875" lon="-107.7026222459971904754638671875">
        <ele>3962.800048828125</ele>
        <time>2023-07-29T15:05:48.000Z</time>
        <extensions>
          <ns3:TrackPointExtension>
            <ns3:hr>87</ns3:hr>
            <ns3:cad>0</ns3:cad>
          </ns3:TrackPointExtension>
        </extensions>
      </trkpt>
      <trkpt lat="37.772877328097820281982421875" lon="-107.7026125229895114898681640625">
        <ele>3962.60009765625</ele>
        <time>2023-07-29T15:05:49.000Z</time>
        <extensions>
          <ns3:TrackPointExtension>
            <ns3:hr>87</ns3:hr>
            <ns3:cad>0</ns3:cad>
          </ns3:TrackPointExtension>
        </extensions>
      </trkpt>
      <trkpt lat="37.77287690900266170501708984375" lon="-107.702607996761798858642578125">
        <ele>3962.199951171875</ele>
        <time>2023-07-29T15:05:50.000Z</time>
        <extensions>
          <ns3:TrackPointExtension>
            <ns3:hr>87</ns3:hr>
            <ns3:cad>0</ns3:cad>
          </ns3:TrackPointExtension>
        </extensions>
      </trkpt>
      <trkpt lat="37.77287565171718597412109375" lon="-107.70260707475244998931884765625">
        <ele>3962</ele>
        <time>2023-07-29T15:05:51.000Z</time>
        <extensions>
          <ns3:TrackPointExtension>
            <ns3:hr>87</ns3:hr>
            <ns3:cad>0</ns3:cad>
          </ns3:TrackPointExtension>
        </extensions>
      </trkpt>
      <trkpt lat="37.77287833392620086669921875" lon="-107.70260724239051342010498046875">
        <ele>3961.800048828125</ele>
        <time>2023-07-29T15:05:52.000Z</time>
        <extensions>
          <ns3:TrackPointExtension>
            <ns3:hr>87</ns3:hr>
            <ns3:cad>41</ns3:cad>
          </ns3:TrackPointExtension>
        </extensions>
      </trkpt>
      <trkpt lat="37.77288428507745265960693359375" lon="-107.70260590128600597381591796875">
        <ele>3961.60009765625</ele>
        <time>2023-07-29T15:05:53.000Z</time>
        <extensions>
          <ns3:TrackPointExtension>
            <ns3:hr>87</ns3:hr>
            <ns3:cad>41</ns3:cad>
          </ns3:TrackPointExtension>
        </extensions>
      </trkpt>
      <trkpt lat="37.77289040386676788330078125" lon="-107.70260388962924480438232421875">
        <ele>3961.199951171875</ele>
        <time>2023-07-29T15:05:54.000Z</time>
        <extensions>
          <ns3:TrackPointExtension>
            <ns3:hr>87</ns3:hr>
            <ns3:cad>41</ns3:cad>
          </ns3:TrackPointExtension>
        </extensions>
      </trkpt>
      <trkpt lat="37.772896774113178253173828125" lon="-107.7026024647057056427001953125">
        <ele>3961</ele>
        <time>2023-07-29T15:05:55.000Z</time>
        <extensions>
          <ns3:TrackPointExtension>
            <ns3:hr>87</ns3:hr>
            <ns3:cad>41</ns3:cad>
          </ns3:TrackPointExtension>
        </extensions>
      </trkpt>
      <trkpt lat="37.7729070000350475311279296875" lon="-107.70259768702089786529541015625">
        <ele>3960.800048828125</ele>
        <time>2023-07-29T15:05:56.000Z</time>
        <extensions>
          <ns3:TrackPointExtension>
            <ns3:hr>87</ns3:hr>
            <ns3:cad>0</ns3:cad>
          </ns3:TrackPointExtension>
        </extensions>
      </trkpt>
      <trkpt lat="37.77291663922369480133056640625" lon="-107.702593915164470672607421875">
        <ele>3960.60009765625</ele>
        <time>2023-07-29T15:05:57.000Z</time>
        <extensions>
          <ns3:TrackPointExtension>
            <ns3:hr>87</ns3:hr>
            <ns3:cad>0</ns3:cad>
          </ns3:TrackPointExtension>
        </extensions>
      </trkpt>
      <trkpt lat="37.772928960621356964111328125" lon="-107.70258880220353603363037109375">
        <ele>3960.39990234375</ele>
        <time>2023-07-29T15:05:58.000Z</time>
        <extensions>
          <ns3:TrackPointExtension>
            <ns3:hr>87</ns3:hr>
            <ns3:cad>0</ns3:cad>
          </ns3:TrackPointExtension>
        </extensions>
      </trkpt>
      <trkpt lat="37.772937007248401641845703125" lon="-107.7025850303471088409423828125">
        <ele>3960.199951171875</ele>
        <time>2023-07-29T15:05:59.000Z</time>
        <extensions>
          <ns3:TrackPointExtension>
            <ns3:hr>87</ns3:hr>
            <ns3:cad>0</ns3:cad>
          </ns3:TrackPointExtension>
        </extensions>
      </trkpt>
      <trkpt lat="37.77293977327644824981689453125" lon="-107.702581174671649932861328125">
        <ele>3960.199951171875</ele>
        <time>2023-07-29T15:06:00.000Z</time>
        <extensions>
          <ns3:TrackPointExtension>
            <ns3:hr>86</ns3:hr>
            <ns3:cad>0</ns3:cad>
          </ns3:TrackPointExtension>
        </extensions>
      </trkpt>
      <trkpt lat="37.77294807136058807373046875" lon="-107.70257170312106609344482421875">
        <ele>3960</ele>
        <time>2023-07-29T15:06:01.000Z</time>
        <extensions>
          <ns3:TrackPointExtension>
            <ns3:hr>86</ns3:hr>
            <ns3:cad>0</ns3:cad>
          </ns3:TrackPointExtension>
        </extensions>
      </trkpt>
      <trkpt lat="37.77295410633087158203125" lon="-107.7025674283504486083984375">
        <ele>3959.800048828125</ele>
        <time>2023-07-29T15:06:02.000Z</time>
        <extensions>
          <ns3:TrackPointExtension>
            <ns3:hr>85</ns3:hr>
            <ns3:cad>0</ns3:cad>
          </ns3:TrackPointExtension>
        </extensions>
      </trkpt>
      <trkpt lat="37.772957123816013336181640625" lon="-107.7025575377047061920166015625">
        <ele>3959.39990234375</ele>
        <time>2023-07-29T15:06:03.000Z</time>
        <extensions>
          <ns3:TrackPointExtension>
            <ns3:hr>85</ns3:hr>
            <ns3:cad>0</ns3:cad>
          </ns3:TrackPointExtension>
        </extensions>
      </trkpt>
      <trkpt lat="37.7729527652263641357421875" lon="-107.70255334675312042236328125">
        <ele>3959.199951171875</ele>
        <time>2023-07-29T15:06:04.000Z</time>
        <extensions>
          <ns3:TrackPointExtension>
            <ns3:hr>84</ns3:hr>
            <ns3:cad>0</ns3:cad>
          </ns3:TrackPointExtension>
        </extensions>
      </trkpt>
      <trkpt lat="37.77295536361634731292724609375" lon="-107.70254672504961490631103515625">
        <ele>3958.60009765625</ele>
        <time>2023-07-29T15:06:05.000Z</time>
        <extensions>
          <ns3:TrackPointExtension>
            <ns3:hr>84</ns3:hr>
            <ns3:cad>0</ns3:cad>
          </ns3:TrackPointExtension>
        </extensions>
      </trkpt>
      <trkpt lat="37.77296148240566253662109375" lon="-107.70253716967999935150146484375">
        <ele>3958.60009765625</ele>
        <time>2023-07-29T15:06:06.000Z</time>
        <extensions>
          <ns3:TrackPointExtension>
            <ns3:hr>84</ns3:hr>
            <ns3:cad>0</ns3:cad>
          </ns3:TrackPointExtension>
        </extensions>
      </trkpt>
      <trkpt lat="37.77296357788145542144775390625" lon="-107.702532224357128143310546875">
        <ele>3958.39990234375</ele>
        <time>2023-07-29T15:06:07.000Z</time>
        <extensions>
          <ns3:TrackPointExtension>
            <ns3:hr>84</ns3:hr>
            <ns3:cad>0</ns3:cad>
          </ns3:TrackPointExtension>
        </extensions>
      </trkpt>
      <trkpt lat="37.77296458370983600616455078125" lon="-107.70253096707165241241455078125">
        <ele>3958.39990234375</ele>
        <time>2023-07-29T15:06:08.000Z</time>
        <extensions>
          <ns3:TrackPointExtension>
            <ns3:hr>83</ns3:hr>
            <ns3:cad>0</ns3:cad>
          </ns3:TrackPointExtension>
        </extensions>
      </trkpt>
      <trkpt lat="37.77296810410916805267333984375" lon="-107.702533900737762451171875">
        <ele>3958.199951171875</ele>
        <time>2023-07-29T15:06:09.000Z</time>
        <extensions>
          <ns3:TrackPointExtension>
            <ns3:hr>83</ns3:hr>
            <ns3:cad>0</ns3:cad>
          </ns3:TrackPointExtension>
        </extensions>
      </trkpt>
      <trkpt lat="37.77297397144138813018798828125" lon="-107.70253851078450679779052734375">
        <ele>3958</ele>
        <time>2023-07-29T15:06:10.000Z</time>
        <extensions>
          <ns3:TrackPointExtension>
            <ns3:hr>82</ns3:hr>
            <ns3:cad>0</ns3:cad>
          </ns3:TrackPointExtension>
        </extensions>
      </trkpt>
      <trkpt lat="37.77297833003103733062744140625" lon="-107.7025478146970272064208984375">
        <ele>3957.800048828125</ele>
        <time>2023-07-29T15:06:11.000Z</time>
        <extensions>
          <ns3:TrackPointExtension>
            <ns3:hr>81</ns3:hr>
            <ns3:cad>0</ns3:cad>
          </ns3:TrackPointExtension>
        </extensions>
      </trkpt>
      <trkpt lat="37.77298159897327423095703125" lon="-107.70255426876246929168701171875">
        <ele>3957.60009765625</ele>
        <time>2023-07-29T15:06:12.000Z</time>
        <extensions>
          <ns3:TrackPointExtension>
            <ns3:hr>80</ns3:hr>
            <ns3:cad>0</ns3:cad>
          </ns3:TrackPointExtension>
        </extensions>
      </trkpt>
      <trkpt lat="37.772989310324192047119140625" lon="-107.7025555260479450225830078125">
        <ele>3957.60009765625</ele>
        <time>2023-07-29T15:06:13.000Z</time>
        <extensions>
          <ns3:TrackPointExtension>
            <ns3:hr>79</ns3:hr>
            <ns3:cad>0</ns3:cad>
          </ns3:TrackPointExtension>
        </extensions>
      </trkpt>
      <trkpt lat="37.77299442328512668609619140625" lon="-107.70255276001989841461181640625">
        <ele>3957.60009765625</ele>
        <time>2023-07-29T15:06:14.000Z</time>
        <extensions>
          <ns3:TrackPointExtension>
            <ns3:hr>79</ns3:hr>
            <ns3:cad>0</ns3:cad>
          </ns3:TrackPointExtension>
        </extensions>
      </trkpt>
      <trkpt lat="37.77300037443637847900390625" lon="-107.70254303701221942901611328125">
        <ele>3957.39990234375</ele>
        <time>2023-07-29T15:06:15.000Z</time>
        <extensions>
          <ns3:TrackPointExtension>
            <ns3:hr>79</ns3:hr>
            <ns3:cad>0</ns3:cad>
          </ns3:TrackPointExtension>
        </extensions>
      </trkpt>
      <trkpt lat="37.77300364337861537933349609375" lon="-107.70253733731806278228759765625">
        <ele>3957.199951171875</ele>
        <time>2023-07-29T15:06:16.000Z</time>
        <extensions>
          <ns3:TrackPointExtension>
            <ns3:hr>79</ns3:hr>
            <ns3:cad>0</ns3:cad>
          </ns3:TrackPointExtension>
        </extensions>
      </trkpt>
      <trkpt lat="37.77300707995891571044921875" lon="-107.702535577118396759033203125">
        <ele>3957.199951171875</ele>
        <time>2023-07-29T15:06:17.000Z</time>
        <extensions>
          <ns3:TrackPointExtension>
            <ns3:hr>81</ns3:hr>
            <ns3:cad>0</ns3:cad>
          </ns3:TrackPointExtension>
        </extensions>
      </trkpt>
      <trkpt lat="37.773010432720184326171875" lon="-107.70253649912774562835693359375">
        <ele>3957.199951171875</ele>
        <time>2023-07-29T15:06:18.000Z</time>
        <extensions>
          <ns3:TrackPointExtension>
            <ns3:hr>84</ns3:hr>
            <ns3:cad>0</ns3:cad>
          </ns3:TrackPointExtension>
        </extensions>
      </trkpt>
      <trkpt lat="37.7730069123208522796630859375" lon="-107.70254203118383884429931640625">
        <ele>3956.60009765625</ele>
        <time>2023-07-29T15:06:19.000Z</time>
        <extensions>
          <ns3:TrackPointExtension>
            <ns3:hr>86</ns3:hr>
            <ns3:cad>0</ns3:cad>
          </ns3:TrackPointExtension>
        </extensions>
      </trkpt>
      <trkpt lat="37.77300213463604450225830078125" lon="-107.70254706032574176788330078125">
        <ele>3956.60009765625</ele>
        <time>2023-07-29T15:06:20.000Z</time>
        <extensions>
          <ns3:TrackPointExtension>
            <ns3:hr>87</ns3:hr>
            <ns3:cad>0</ns3:cad>
          </ns3:TrackPointExtension>
        </extensions>
      </trkpt>
      <trkpt lat="37.77300045825541019439697265625" lon="-107.7025508321821689605712890625">
        <ele>3956.60009765625</ele>
        <time>2023-07-29T15:06:21.000Z</time>
        <extensions>
          <ns3:TrackPointExtension>
            <ns3:hr>87</ns3:hr>
            <ns3:cad>0</ns3:cad>
          </ns3:TrackPointExtension>
        </extensions>
      </trkpt>
      <trkpt lat="37.77299769222736358642578125" lon="-107.70255795679986476898193359375">
        <ele>3956.60009765625</ele>
        <time>2023-07-29T15:06:22.000Z</time>
        <extensions>
          <ns3:TrackPointExtension>
            <ns3:hr>87</ns3:hr>
            <ns3:cad>0</ns3:cad>
          </ns3:TrackPointExtension>
        </extensions>
      </trkpt>
      <trkpt lat="37.7729901485145092010498046875" lon="-107.702565081417560577392578125">
        <ele>3956.60009765625</ele>
        <time>2023-07-29T15:06:23.000Z</time>
        <extensions>
          <ns3:TrackPointExtension>
            <ns3:hr>86</ns3:hr>
            <ns3:cad>0</ns3:cad>
          </ns3:TrackPointExtension>
        </extensions>
      </trkpt>
      <trkpt lat="37.772989310324192047119140625" lon="-107.7025645785033702850341796875">
        <ele>3956.60009765625</ele>
        <time>2023-07-29T15:06:24.000Z</time>
        <extensions>
          <ns3:TrackPointExtension>
            <ns3:hr>86</ns3:hr>
            <ns3:cad>0</ns3:cad>
          </ns3:TrackPointExtension>
        </extensions>
      </trkpt>
      <trkpt lat="37.7729867957532405853271484375" lon="-107.702565751969814300537109375">
        <ele>3956.60009765625</ele>
        <time>2023-07-29T15:06:25.000Z</time>
        <extensions>
          <ns3:TrackPointExtension>
            <ns3:hr>86</ns3:hr>
            <ns3:cad>0</ns3:cad>
          </ns3:TrackPointExtension>
        </extensions>
      </trkpt>
      <trkpt lat="37.77298168279230594635009765625" lon="-107.70256181247532367706298828125">
        <ele>3956.60009765625</ele>
        <time>2023-07-29T15:06:26.000Z</time>
        <extensions>
          <ns3:TrackPointExtension>
            <ns3:hr>86</ns3:hr>
            <ns3:cad>0</ns3:cad>
          </ns3:TrackPointExtension>
        </extensions>
      </trkpt>
      <trkpt lat="37.77297648601233959197998046875" lon="-107.70255695097148418426513671875">
        <ele>3956.60009765625</ele>
        <time>2023-07-29T15:06:27.000Z</time>
        <extensions>
          <ns3:TrackPointExtension>
            <ns3:hr>86</ns3:hr>
            <ns3:cad>0</ns3:cad>
          </ns3:TrackPointExtension>
        </extensions>
      </trkpt>
      <trkpt lat="37.77297531254589557647705078125" lon="-107.70255359821021556854248046875">
        <ele>3956.60009765625</ele>
        <time>2023-07-29T15:06:28.000Z</time>
        <extensions>
          <ns3:TrackPointExtension>
            <ns3:hr>86</ns3:hr>
            <ns3:cad>0</ns3:cad>
          </ns3:TrackPointExtension>
        </extensions>
      </trkpt>
      <trkpt lat="37.7729767374694347381591796875" lon="-107.70255091600120067596435546875">
        <ele>3956.39990234375</ele>
        <time>2023-07-29T15:06:29.000Z</time>
        <extensions>
          <ns3:TrackPointExtension>
            <ns3:hr>86</ns3:hr>
            <ns3:cad>0</ns3:cad>
          </ns3:TrackPointExtension>
        </extensions>
      </trkpt>
      <trkpt lat="37.7729814313352108001708984375" lon="-107.70254756323993206024169921875">
        <ele>3956.39990234375</ele>
        <time>2023-07-29T15:06:30.000Z</time>
        <extensions>
          <ns3:TrackPointExtension>
            <ns3:hr>86</ns3:hr>
            <ns3:cad>0</ns3:cad>
          </ns3:TrackPointExtension>
        </extensions>
      </trkpt>
      <trkpt lat="37.7729903161525726318359375" lon="-107.70254521630704402923583984375">
        <ele>3956.199951171875</ele>
        <time>2023-07-29T15:06:31.000Z</time>
        <extensions>
          <ns3:TrackPointExtension>
            <ns3:hr>86</ns3:hr>
            <ns3:cad>0</ns3:cad>
          </ns3:TrackPointExtension>
        </extensions>
      </trkpt>
      <trkpt lat="37.77299366891384124755859375" lon="-107.70253901369869709014892578125">
        <ele>3956.199951171875</ele>
        <time>2023-07-29T15:06:32.000Z</time>
        <extensions>
          <ns3:TrackPointExtension>
            <ns3:hr>86</ns3:hr>
            <ns3:cad>0</ns3:cad>
          </ns3:TrackPointExtension>
        </extensions>
      </trkpt>
      <trkpt lat="37.77299811132252216339111328125" lon="-107.7025325596332550048828125">
        <ele>3956</ele>
        <time>2023-07-29T15:06:33.000Z</time>
        <extensions>
          <ns3:TrackPointExtension>
            <ns3:hr>86</ns3:hr>
            <ns3:cad>0</ns3:cad>
          </ns3:TrackPointExtension>
        </extensions>
      </trkpt>
      <trkpt lat="37.7730023860931396484375" lon="-107.7025263570249080657958984375">
        <ele>3955.800048828125</ele>
        <time>2023-07-29T15:06:34.000Z</time>
        <extensions>
          <ns3:TrackPointExtension>
            <ns3:hr>86</ns3:hr>
            <ns3:cad>0</ns3:cad>
          </ns3:TrackPointExtension>
        </extensions>
      </trkpt>
      <trkpt lat="37.7730090916156768798828125" lon="-107.70251923240721225738525390625">
        <ele>3955.39990234375</ele>
        <time>2023-07-29T15:06:35.000Z</time>
        <extensions>
          <ns3:TrackPointExtension>
            <ns3:hr>86</ns3:hr>
            <ns3:cad>0</ns3:cad>
          </ns3:TrackPointExtension>
        </extensions>
      </trkpt>
      <trkpt lat="37.77302225120365619659423828125" lon="-107.702507413923740386962890625">
        <ele>3955.199951171875</ele>
        <time>2023-07-29T15:06:36.000Z</time>
        <extensions>
          <ns3:TrackPointExtension>
            <ns3:hr>86</ns3:hr>
            <ns3:cad>0</ns3:cad>
          </ns3:TrackPointExtension>
        </extensions>
      </trkpt>
      <trkpt lat="37.7730337344110012054443359375" lon="-107.702496685087680816650390625">
        <ele>3955.199951171875</ele>
        <time>2023-07-29T15:06:37.000Z</time>
        <extensions>
          <ns3:TrackPointExtension>
            <ns3:hr>86</ns3:hr>
            <ns3:cad>0</ns3:cad>
          </ns3:TrackPointExtension>
        </extensions>
      </trkpt>
      <trkpt lat="37.77304035611450672149658203125" lon="-107.7024894766509532928466796875">
        <ele>3955</ele>
        <time>2023-07-29T15:06:38.000Z</time>
        <extensions>
          <ns3:TrackPointExtension>
            <ns3:hr>86</ns3:hr>
            <ns3:cad>0</ns3:cad>
          </ns3:TrackPointExtension>
        </extensions>
      </trkpt>
      <trkpt lat="37.7730434574186801910400390625" lon="-107.70248285494744777679443359375">
        <ele>3954.800048828125</ele>
        <time>2023-07-29T15:06:39.000Z</time>
        <extensions>
          <ns3:TrackPointExtension>
            <ns3:hr>86</ns3:hr>
            <ns3:cad>0</ns3:cad>
          </ns3:TrackPointExtension>
        </extensions>
      </trkpt>
      <trkpt lat="37.7730424515902996063232421875" lon="-107.70247849635779857635498046875">
        <ele>3954.60009765625</ele>
        <time>2023-07-29T15:06:40.000Z</time>
        <extensions>
          <ns3:TrackPointExtension>
            <ns3:hr>85</ns3:hr>
            <ns3:cad>0</ns3:cad>
          </ns3:TrackPointExtension>
        </extensions>
      </trkpt>
      <trkpt lat="37.77304538525640964508056640625" lon="-107.7024735510349273681640625">
        <ele>3954.39990234375</ele>
        <time>2023-07-29T15:06:41.000Z</time>
        <extensions>
          <ns3:TrackPointExtension>
            <ns3:hr>85</ns3:hr>
            <ns3:cad>0</ns3:cad>
          </ns3:TrackPointExtension>
        </extensions>
      </trkpt>
      <trkpt lat="37.773042619228363037109375" lon="-107.70247690379619598388671875">
        <ele>3954.39990234375</ele>
        <time>2023-07-29T15:06:42.000Z</time>
        <extensions>
          <ns3:TrackPointExtension>
            <ns3:hr>85</ns3:hr>
            <ns3:cad>0</ns3:cad>
          </ns3:TrackPointExtension>
        </extensions>
      </trkpt>
      <trkpt lat="37.77304002083837985992431640625" lon="-107.70248084329068660736083984375">
        <ele>3954.39990234375</ele>
        <time>2023-07-29T15:06:43.000Z</time>
        <extensions>
          <ns3:TrackPointExtension>
            <ns3:hr>85</ns3:hr>
            <ns3:cad>0</ns3:cad>
          </ns3:TrackPointExtension>
        </extensions>
      </trkpt>
      <trkpt lat="37.77303918264806270599365234375" lon="-107.70248369313776493072509765625">
        <ele>3954.39990234375</ele>
        <time>2023-07-29T15:06:44.000Z</time>
        <extensions>
          <ns3:TrackPointExtension>
            <ns3:hr>85</ns3:hr>
            <ns3:cad>0</ns3:cad>
          </ns3:TrackPointExtension>
        </extensions>
      </trkpt>
      <trkpt lat="37.77304119430482387542724609375" lon="-107.7024861238896846771240234375">
        <ele>3954.199951171875</ele>
        <time>2023-07-29T15:06:45.000Z</time>
        <extensions>
          <ns3:TrackPointExtension>
            <ns3:hr>85</ns3:hr>
            <ns3:cad>0</ns3:cad>
          </ns3:TrackPointExtension>
        </extensions>
      </trkpt>
      <trkpt lat="37.77304102666676044464111328125" lon="-107.7024878002703189849853515625">
        <ele>3954</ele>
        <time>2023-07-29T15:06:46.000Z</time>
        <extensions>
          <ns3:TrackPointExtension>
            <ns3:hr>84</ns3:hr>
            <ns3:cad>0</ns3:cad>
          </ns3:TrackPointExtension>
        </extensions>
      </trkpt>
      <trkpt lat="37.77303750626742839813232421875" lon="-107.70249207504093647003173828125">
        <ele>3954</ele>
        <time>2023-07-29T15:06:47.000Z</time>
        <extensions>
          <ns3:TrackPointExtension>
            <ns3:hr>84</ns3:hr>
            <ns3:cad>0</ns3:cad>
          </ns3:TrackPointExtension>
        </extensions>
      </trkpt>
      <trkpt lat="37.77303482405841350555419921875" lon="-107.702494002878665924072265625">
        <ele>3953.800048828125</ele>
        <time>2023-07-29T15:06:48.000Z</time>
        <extensions>
          <ns3:TrackPointExtension>
            <ns3:hr>84</ns3:hr>
            <ns3:cad>0</ns3:cad>
          </ns3:TrackPointExtension>
        </extensions>
      </trkpt>
      <trkpt lat="37.77303314767777919769287109375" lon="-107.70249492488801479339599609375">
        <ele>3953.39990234375</ele>
        <time>2023-07-29T15:06:49.000Z</time>
        <extensions>
          <ns3:TrackPointExtension>
            <ns3:hr>84</ns3:hr>
            <ns3:cad>0</ns3:cad>
          </ns3:TrackPointExtension>
        </extensions>
      </trkpt>
      <trkpt lat="37.7730364166200160980224609375" lon="-107.70249593071639537811279296875">
        <ele>3953.199951171875</ele>
        <time>2023-07-29T15:06:50.000Z</time>
        <extensions>
          <ns3:TrackPointExtension>
            <ns3:hr>84</ns3:hr>
            <ns3:cad>0</ns3:cad>
          </ns3:TrackPointExtension>
        </extensions>
      </trkpt>
      <trkpt lat="37.7730390988290309906005859375" lon="-107.70249760709702968597412109375">
        <ele>3953.199951171875</ele>
        <time>2023-07-29T15:06:51.000Z</time>
        <extensions>
          <ns3:TrackPointExtension>
            <ns3:hr>85</ns3:hr>
            <ns3:cad>0</ns3:cad>
          </ns3:TrackPointExtension>
        </extensions>
      </trkpt>
      <trkpt lat="37.77304320596158504486083984375" lon="-107.70249903202056884765625">
        <ele>3953.199951171875</ele>
        <time>2023-07-29T15:06:52.000Z</time>
        <extensions>
          <ns3:TrackPointExtension>
            <ns3:hr>85</ns3:hr>
            <ns3:cad>0</ns3:cad>
          </ns3:TrackPointExtension>
        </extensions>
      </trkpt>
      <trkpt lat="37.77304337359964847564697265625" lon="-107.70249861292541027069091796875">
        <ele>3953.199951171875</ele>
        <time>2023-07-29T15:06:53.000Z</time>
        <extensions>
          <ns3:TrackPointExtension>
            <ns3:hr>85</ns3:hr>
            <ns3:cad>0</ns3:cad>
          </ns3:TrackPointExtension>
        </extensions>
      </trkpt>
      <trkpt lat="37.7730390988290309906005859375" lon="-107.70249861292541027069091796875">
        <ele>3953</ele>
        <time>2023-07-29T15:06:54.000Z</time>
        <extensions>
          <ns3:TrackPointExtension>
            <ns3:hr>85</ns3:hr>
            <ns3:cad>0</ns3:cad>
          </ns3:TrackPointExtension>
        </extensions>
      </trkpt>
      <trkpt lat="37.77303750626742839813232421875" lon="-107.7024971880018711090087890625">
        <ele>3953</ele>
        <time>2023-07-29T15:06:55.000Z</time>
        <extensions>
          <ns3:TrackPointExtension>
            <ns3:hr>85</ns3:hr>
            <ns3:cad>0</ns3:cad>
          </ns3:TrackPointExtension>
        </extensions>
      </trkpt>
      <trkpt lat="37.77304907329380512237548828125" lon="-107.7024968527257442474365234375">
        <ele>3952.800048828125</ele>
        <time>2023-07-29T15:06:56.000Z</time>
        <extensions>
          <ns3:TrackPointExtension>
            <ns3:hr>85</ns3:hr>
            <ns3:cad>0</ns3:cad>
          </ns3:TrackPointExtension>
        </extensions>
      </trkpt>
      <trkpt lat="37.7730560302734375" lon="-107.70249710418283939361572265625">
        <ele>3952.800048828125</ele>
        <time>2023-07-29T15:06:57.000Z</time>
        <extensions>
          <ns3:TrackPointExtension>
            <ns3:hr>84</ns3:hr>
            <ns3:cad>0</ns3:cad>
          </ns3:TrackPointExtension>
        </extensions>
      </trkpt>
      <trkpt lat="37.77306248433887958526611328125" lon="-107.7024921588599681854248046875">
        <ele>3952.60009765625</ele>
        <time>2023-07-29T15:06:58.000Z</time>
        <extensions>
          <ns3:TrackPointExtension>
            <ns3:hr>84</ns3:hr>
            <ns3:cad>0</ns3:cad>
          </ns3:TrackPointExtension>
        </extensions>
      </trkpt>
      <trkpt lat="37.77307145297527313232421875" lon="-107.702486626803874969482421875">
        <ele>3952.60009765625</ele>
        <time>2023-07-29T15:06:59.000Z</time>
        <extensions>
          <ns3:TrackPointExtension>
            <ns3:hr>83</ns3:hr>
            <ns3:cad>0</ns3:cad>
          </ns3:TrackPointExtension>
        </extensions>
      </trkpt>
      <trkpt lat="37.77307539246976375579833984375" lon="-107.70248084329068660736083984375">
        <ele>3952.60009765625</ele>
        <time>2023-07-29T15:07:00.000Z</time>
        <extensions>
          <ns3:TrackPointExtension>
            <ns3:hr>82</ns3:hr>
            <ns3:cad>0</ns3:cad>
          </ns3:TrackPointExtension>
        </extensions>
      </trkpt>
      <trkpt lat="37.7730813436210155487060546875" lon="-107.70247514359652996063232421875">
        <ele>3952.60009765625</ele>
        <time>2023-07-29T15:07:01.000Z</time>
        <extensions>
          <ns3:TrackPointExtension>
            <ns3:hr>82</ns3:hr>
            <ns3:cad>0</ns3:cad>
          </ns3:TrackPointExtension>
        </extensions>
      </trkpt>
      <trkpt lat="37.7730796672403812408447265625" lon="-107.7024713717401027679443359375">
        <ele>3952.60009765625</ele>
        <time>2023-07-29T15:07:02.000Z</time>
        <extensions>
          <ns3:TrackPointExtension>
            <ns3:hr>83</ns3:hr>
            <ns3:cad>0</ns3:cad>
          </ns3:TrackPointExtension>
        </extensions>
      </trkpt>
      <trkpt lat="37.773079834878444671630859375" lon="-107.70247019827365875244140625">
        <ele>3952.199951171875</ele>
        <time>2023-07-29T15:07:03.000Z</time>
        <extensions>
          <ns3:TrackPointExtension>
            <ns3:hr>84</ns3:hr>
            <ns3:cad>0</ns3:cad>
          </ns3:TrackPointExtension>
        </extensions>
      </trkpt>
      <trkpt lat="37.7730806730687618255615234375" lon="-107.70246726460754871368408203125">
        <ele>3951.800048828125</ele>
        <time>2023-07-29T15:07:04.000Z</time>
        <extensions>
          <ns3:TrackPointExtension>
            <ns3:hr>85</ns3:hr>
            <ns3:cad>0</ns3:cad>
          </ns3:TrackPointExtension>
        </extensions>
      </trkpt>
      <trkpt lat="37.7730749733746051788330078125" lon="-107.7024681866168975830078125">
        <ele>3951.800048828125</ele>
        <time>2023-07-29T15:07:05.000Z</time>
        <extensions>
          <ns3:TrackPointExtension>
            <ns3:hr>88</ns3:hr>
            <ns3:cad>0</ns3:cad>
          </ns3:TrackPointExtension>
        </extensions>
      </trkpt>
      <trkpt lat="37.77307606302201747894287109375" lon="-107.70246759988367557525634765625">
        <ele>3951.39990234375</ele>
        <time>2023-07-29T15:07:06.000Z</time>
        <extensions>
          <ns3:TrackPointExtension>
            <ns3:hr>91</ns3:hr>
            <ns3:cad>0</ns3:cad>
          </ns3:TrackPointExtension>
        </extensions>
      </trkpt>
      <trkpt lat="37.7730756439268589019775390625" lon="-107.70246961154043674468994140625">
        <ele>3951.199951171875</ele>
        <time>2023-07-29T15:07:07.000Z</time>
        <extensions>
          <ns3:TrackPointExtension>
            <ns3:hr>93</ns3:hr>
            <ns3:cad>0</ns3:cad>
          </ns3:TrackPointExtension>
        </extensions>
      </trkpt>
      <trkpt lat="37.77307815849781036376953125" lon="-107.70247011445462703704833984375">
        <ele>3951.199951171875</ele>
        <time>2023-07-29T15:07:08.000Z</time>
        <extensions>
          <ns3:TrackPointExtension>
            <ns3:hr>95</ns3:hr>
            <ns3:cad>0</ns3:cad>
          </ns3:TrackPointExtension>
        </extensions>
      </trkpt>
      <trkpt lat="37.77307891286909580230712890625" lon="-107.70247413776814937591552734375">
        <ele>3951.199951171875</ele>
        <time>2023-07-29T15:07:09.000Z</time>
        <extensions>
          <ns3:TrackPointExtension>
            <ns3:hr>95</ns3:hr>
            <ns3:cad>0</ns3:cad>
          </ns3:TrackPointExtension>
        </extensions>
      </trkpt>
      <trkpt lat="37.77307941578328609466552734375" lon="-107.7024784125387668609619140625">
        <ele>3951</ele>
        <time>2023-07-29T15:07:10.000Z</time>
        <extensions>
          <ns3:TrackPointExtension>
            <ns3:hr>95</ns3:hr>
            <ns3:cad>0</ns3:cad>
          </ns3:TrackPointExtension>
        </extensions>
      </trkpt>
      <trkpt lat="37.77308285236358642578125" lon="-107.70248360931873321533203125">
        <ele>3950.800048828125</ele>
        <time>2023-07-29T15:07:11.000Z</time>
        <extensions>
          <ns3:TrackPointExtension>
            <ns3:hr>95</ns3:hr>
            <ns3:cad>0</ns3:cad>
          </ns3:TrackPointExtension>
        </extensions>
      </trkpt>
      <trkpt lat="37.773082517087459564208984375" lon="-107.70248754881322383880615234375">
        <ele>3950.39990234375</ele>
        <time>2023-07-29T15:07:12.000Z</time>
        <extensions>
          <ns3:TrackPointExtension>
            <ns3:hr>95</ns3:hr>
            <ns3:cad>0</ns3:cad>
          </ns3:TrackPointExtension>
        </extensions>
      </trkpt>
      <trkpt lat="37.77307840995490550994873046875" lon="-107.70248821936547756195068359375">
        <ele>3950.199951171875</ele>
        <time>2023-07-29T15:07:13.000Z</time>
        <extensions>
          <ns3:TrackPointExtension>
            <ns3:hr>95</ns3:hr>
            <ns3:cad>0</ns3:cad>
          </ns3:TrackPointExtension>
        </extensions>
      </trkpt>
      <trkpt lat="37.77308125980198383331298828125" lon="-107.70248788408935070037841796875">
        <ele>3950.199951171875</ele>
        <time>2023-07-29T15:07:14.000Z</time>
        <extensions>
          <ns3:TrackPointExtension>
            <ns3:hr>95</ns3:hr>
            <ns3:cad>0</ns3:cad>
          </ns3:TrackPointExtension>
        </extensions>
      </trkpt>
      <trkpt lat="37.77308159507811069488525390625" lon="-107.7024857886135578155517578125">
        <ele>3950</ele>
        <time>2023-07-29T15:07:15.000Z</time>
        <extensions>
          <ns3:TrackPointExtension>
            <ns3:hr>94</ns3:hr>
            <ns3:cad>0</ns3:cad>
          </ns3:TrackPointExtension>
        </extensions>
      </trkpt>
      <trkpt lat="37.7730788290500640869140625" lon="-107.7024815976619720458984375">
        <ele>3950</ele>
        <time>2023-07-29T15:07:16.000Z</time>
        <extensions>
          <ns3:TrackPointExtension>
            <ns3:hr>94</ns3:hr>
            <ns3:cad>0</ns3:cad>
          </ns3:TrackPointExtension>
        </extensions>
      </trkpt>
      <trkpt lat="37.7730779908597469329833984375" lon="-107.70247447304427623748779296875">
        <ele>3950</ele>
        <time>2023-07-29T15:07:17.000Z</time>
        <extensions>
          <ns3:TrackPointExtension>
            <ns3:hr>94</ns3:hr>
            <ns3:cad>0</ns3:cad>
          </ns3:TrackPointExtension>
        </extensions>
      </trkpt>
      <trkpt lat="37.77308125980198383331298828125" lon="-107.70246391184628009796142578125">
        <ele>3949.800048828125</ele>
        <time>2023-07-29T15:07:18.000Z</time>
        <extensions>
          <ns3:TrackPointExtension>
            <ns3:hr>94</ns3:hr>
            <ns3:cad>0</ns3:cad>
          </ns3:TrackPointExtension>
        </extensions>
      </trkpt>
      <trkpt lat="37.7730793319642543792724609375" lon="-107.70246072672307491302490234375">
        <ele>3949.60009765625</ele>
        <time>2023-07-29T15:07:19.000Z</time>
        <extensions>
          <ns3:TrackPointExtension>
            <ns3:hr>94</ns3:hr>
            <ns3:cad>0</ns3:cad>
          </ns3:TrackPointExtension>
        </extensions>
      </trkpt>
      <trkpt lat="37.77308276854455471038818359375" lon="-107.7024582959711551666259765625">
        <ele>3949.60009765625</ele>
        <time>2023-07-29T15:07:20.000Z</time>
        <extensions>
          <ns3:TrackPointExtension>
            <ns3:hr>94</ns3:hr>
            <ns3:cad>0</ns3:cad>
          </ns3:TrackPointExtension>
        </extensions>
      </trkpt>
      <trkpt lat="37.77308846823871135711669921875" lon="-107.70245603285729885101318359375">
        <ele>3949.60009765625</ele>
        <time>2023-07-29T15:07:21.000Z</time>
        <extensions>
          <ns3:TrackPointExtension>
            <ns3:hr>94</ns3:hr>
            <ns3:cad>0</ns3:cad>
          </ns3:TrackPointExtension>
        </extensions>
      </trkpt>
      <trkpt lat="37.77310472913086414337158203125" lon="-107.70244396291673183441162109375">
        <ele>3949.39990234375</ele>
        <time>2023-07-29T15:07:22.000Z</time>
        <extensions>
          <ns3:TrackPointExtension>
            <ns3:hr>94</ns3:hr>
            <ns3:cad>0</ns3:cad>
          </ns3:TrackPointExtension>
        </extensions>
      </trkpt>
      <trkpt lat="37.7731108479201793670654296875" lon="-107.7024408616125583648681640625">
        <ele>3949.199951171875</ele>
        <time>2023-07-29T15:07:23.000Z</time>
        <extensions>
          <ns3:TrackPointExtension>
            <ns3:hr>93</ns3:hr>
            <ns3:cad>0</ns3:cad>
          </ns3:TrackPointExtension>
        </extensions>
      </trkpt>
      <trkpt lat="37.773114033043384552001953125" lon="-107.70244094543159008026123046875">
        <ele>3949.199951171875</ele>
        <time>2023-07-29T15:07:24.000Z</time>
        <extensions>
          <ns3:TrackPointExtension>
            <ns3:hr>93</ns3:hr>
            <ns3:cad>0</ns3:cad>
          </ns3:TrackPointExtension>
        </extensions>
      </trkpt>
      <trkpt lat="37.7731158770620822906494140625" lon="-107.7024411968886852264404296875">
        <ele>3949</ele>
        <time>2023-07-29T15:07:25.000Z</time>
        <extensions>
          <ns3:TrackPointExtension>
            <ns3:hr>93</ns3:hr>
            <ns3:cad>0</ns3:cad>
          </ns3:TrackPointExtension>
        </extensions>
      </trkpt>
      <trkpt lat="37.77311839163303375244140625" lon="-107.702441029250621795654296875">
        <ele>3948.60009765625</ele>
        <time>2023-07-29T15:07:26.000Z</time>
        <extensions>
          <ns3:TrackPointExtension>
            <ns3:hr>93</ns3:hr>
            <ns3:cad>0</ns3:cad>
          </ns3:TrackPointExtension>
        </extensions>
      </trkpt>
      <trkpt lat="37.773122750222682952880859375" lon="-107.70243776030838489532470703125">
        <ele>3948.199951171875</ele>
        <time>2023-07-29T15:07:27.000Z</time>
        <extensions>
          <ns3:TrackPointExtension>
            <ns3:hr>92</ns3:hr>
            <ns3:cad>0</ns3:cad>
          </ns3:TrackPointExtension>
        </extensions>
      </trkpt>
      <trkpt lat="37.7731282822787761688232421875" lon="-107.7024348266422748565673828125">
        <ele>3948.199951171875</ele>
        <time>2023-07-29T15:07:28.000Z</time>
        <extensions>
          <ns3:TrackPointExtension>
            <ns3:hr>92</ns3:hr>
            <ns3:cad>0</ns3:cad>
          </ns3:TrackPointExtension>
        </extensions>
      </trkpt>
      <trkpt lat="37.77313406579196453094482421875" lon="-107.70243139006197452545166015625">
        <ele>3948</ele>
        <time>2023-07-29T15:07:29.000Z</time>
        <extensions>
          <ns3:TrackPointExtension>
            <ns3:hr>92</ns3:hr>
            <ns3:cad>0</ns3:cad>
          </ns3:TrackPointExtension>
        </extensions>
      </trkpt>
      <trkpt lat="37.7731433697044849395751953125" lon="-107.702427618205547332763671875">
        <ele>3947.800048828125</ele>
        <time>2023-07-29T15:07:30.000Z</time>
        <extensions>
          <ns3:TrackPointExtension>
            <ns3:hr>92</ns3:hr>
            <ns3:cad>0</ns3:cad>
          </ns3:TrackPointExtension>
        </extensions>
      </trkpt>
      <trkpt lat="37.7731517516076564788818359375" lon="-107.70242636092007160186767578125">
        <ele>3947.800048828125</ele>
        <time>2023-07-29T15:07:31.000Z</time>
        <extensions>
          <ns3:TrackPointExtension>
            <ns3:hr>92</ns3:hr>
            <ns3:cad>0</ns3:cad>
          </ns3:TrackPointExtension>
        </extensions>
      </trkpt>
      <trkpt lat="37.773156277835369110107421875" lon="-107.70242652855813503265380859375">
        <ele>3947.39990234375</ele>
        <time>2023-07-29T15:07:32.000Z</time>
        <extensions>
          <ns3:TrackPointExtension>
            <ns3:hr>92</ns3:hr>
            <ns3:cad>0</ns3:cad>
          </ns3:TrackPointExtension>
        </extensions>
      </trkpt>
      <trkpt lat="37.77315602637827396392822265625" lon="-107.70242904312908649444580078125">
        <ele>3947.39990234375</ele>
        <time>2023-07-29T15:07:33.000Z</time>
        <extensions>
          <ns3:TrackPointExtension>
            <ns3:hr>91</ns3:hr>
            <ns3:cad>0</ns3:cad>
          </ns3:TrackPointExtension>
        </extensions>
      </trkpt>
      <trkpt lat="37.77315552346408367156982421875" lon="-107.70243323408067226409912109375">
        <ele>3947.199951171875</ele>
        <time>2023-07-29T15:07:34.000Z</time>
        <extensions>
          <ns3:TrackPointExtension>
            <ns3:hr>91</ns3:hr>
            <ns3:cad>0</ns3:cad>
          </ns3:TrackPointExtension>
        </extensions>
      </trkpt>
      <trkpt lat="37.77315954677760601043701171875" lon="-107.70243625156581401824951171875">
        <ele>3947.199951171875</ele>
        <time>2023-07-29T15:07:35.000Z</time>
        <extensions>
          <ns3:TrackPointExtension>
            <ns3:hr>91</ns3:hr>
            <ns3:cad>0</ns3:cad>
          </ns3:TrackPointExtension>
        </extensions>
      </trkpt>
      <trkpt lat="37.77315594255924224853515625" lon="-107.7024398557841777801513671875">
        <ele>3947</ele>
        <time>2023-07-29T15:07:36.000Z</time>
        <extensions>
          <ns3:TrackPointExtension>
            <ns3:hr>91</ns3:hr>
            <ns3:cad>0</ns3:cad>
          </ns3:TrackPointExtension>
        </extensions>
      </trkpt>
      <trkpt lat="37.77315795421600341796875" lon="-107.702441029250621795654296875">
        <ele>3947</ele>
        <time>2023-07-29T15:07:37.000Z</time>
        <extensions>
          <ns3:TrackPointExtension>
            <ns3:hr>90</ns3:hr>
            <ns3:cad>0</ns3:cad>
          </ns3:TrackPointExtension>
        </extensions>
      </trkpt>
      <trkpt lat="37.77316155843436717987060546875" lon="-107.70244228653609752655029296875">
        <ele>3947</ele>
        <time>2023-07-29T15:07:38.000Z</time>
        <extensions>
          <ns3:TrackPointExtension>
            <ns3:hr>90</ns3:hr>
            <ns3:cad>0</ns3:cad>
          </ns3:TrackPointExtension>
        </extensions>
      </trkpt>
      <trkpt lat="37.77316122315824031829833984375" lon="-107.70244262181222438812255859375">
        <ele>3947</ele>
        <time>2023-07-29T15:07:39.000Z</time>
        <extensions>
          <ns3:TrackPointExtension>
            <ns3:hr>90</ns3:hr>
            <ns3:cad>0</ns3:cad>
          </ns3:TrackPointExtension>
        </extensions>
      </trkpt>
      <trkpt lat="37.7731654979288578033447265625" lon="-107.70244538784027099609375">
        <ele>3947</ele>
        <time>2023-07-29T15:07:40.000Z</time>
        <extensions>
          <ns3:TrackPointExtension>
            <ns3:hr>90</ns3:hr>
            <ns3:cad>0</ns3:cad>
          </ns3:TrackPointExtension>
        </extensions>
      </trkpt>
      <trkpt lat="37.77316994033753871917724609375" lon="-107.70244547165930271148681640625">
        <ele>3946.800048828125</ele>
        <time>2023-07-29T15:07:41.000Z</time>
        <extensions>
          <ns3:TrackPointExtension>
            <ns3:hr>91</ns3:hr>
            <ns3:cad>0</ns3:cad>
          </ns3:TrackPointExtension>
        </extensions>
      </trkpt>
      <trkpt lat="37.77317396365106105804443359375" lon="-107.70244463346898555755615234375">
        <ele>3946.800048828125</ele>
        <time>2023-07-29T15:07:42.000Z</time>
        <extensions>
          <ns3:TrackPointExtension>
            <ns3:hr>91</ns3:hr>
            <ns3:cad>0</ns3:cad>
          </ns3:TrackPointExtension>
        </extensions>
      </trkpt>
      <trkpt lat="37.77317916043102741241455078125" lon="-107.70245150662958621978759765625">
        <ele>3946.60009765625</ele>
        <time>2023-07-29T15:07:43.000Z</time>
        <extensions>
          <ns3:TrackPointExtension>
            <ns3:hr>91</ns3:hr>
            <ns3:cad>0</ns3:cad>
          </ns3:TrackPointExtension>
        </extensions>
      </trkpt>
      <trkpt lat="37.7731748856604099273681640625" lon="-107.7024525962769985198974609375">
        <ele>3946.199951171875</ele>
        <time>2023-07-29T15:07:44.000Z</time>
        <extensions>
          <ns3:TrackPointExtension>
            <ns3:hr>90</ns3:hr>
            <ns3:cad>0</ns3:cad>
          </ns3:TrackPointExtension>
        </extensions>
      </trkpt>
      <trkpt lat="37.77316977269947528839111328125" lon="-107.7024525962769985198974609375">
        <ele>3946</ele>
        <time>2023-07-29T15:07:45.000Z</time>
        <extensions>
          <ns3:TrackPointExtension>
            <ns3:hr>90</ns3:hr>
            <ns3:cad>0</ns3:cad>
          </ns3:TrackPointExtension>
        </extensions>
      </trkpt>
      <trkpt lat="37.77317027561366558074951171875" lon="-107.70245251245796680450439453125">
        <ele>3945.800048828125</ele>
        <time>2023-07-29T15:07:46.000Z</time>
        <extensions>
          <ns3:TrackPointExtension>
            <ns3:hr>89</ns3:hr>
            <ns3:cad>0</ns3:cad>
          </ns3:TrackPointExtension>
        </extensions>
      </trkpt>
      <trkpt lat="37.77316876687109470367431640625" lon="-107.70244949497282505035400390625">
        <ele>3945.800048828125</ele>
        <time>2023-07-29T15:07:47.000Z</time>
        <extensions>
          <ns3:TrackPointExtension>
            <ns3:hr>88</ns3:hr>
            <ns3:cad>0</ns3:cad>
          </ns3:TrackPointExtension>
        </extensions>
      </trkpt>
      <trkpt lat="37.77316742576658725738525390625" lon="-107.702442370355129241943359375">
        <ele>3945.800048828125</ele>
        <time>2023-07-29T15:07:48.000Z</time>
        <extensions>
          <ns3:TrackPointExtension>
            <ns3:hr>88</ns3:hr>
            <ns3:cad>0</ns3:cad>
          </ns3:TrackPointExtension>
        </extensions>
      </trkpt>
      <trkpt lat="37.7731691859662532806396484375" lon="-107.70244061015546321868896484375">
        <ele>3945.800048828125</ele>
        <time>2023-07-29T15:07:49.000Z</time>
        <extensions>
          <ns3:TrackPointExtension>
            <ns3:hr>88</ns3:hr>
            <ns3:cad>0</ns3:cad>
          </ns3:TrackPointExtension>
        </extensions>
      </trkpt>
      <trkpt lat="37.773172371089458465576171875" lon="-107.70243491046130657196044921875">
        <ele>3945.60009765625</ele>
        <time>2023-07-29T15:07:50.000Z</time>
        <extensions>
          <ns3:TrackPointExtension>
            <ns3:hr>87</ns3:hr>
            <ns3:cad>0</ns3:cad>
          </ns3:TrackPointExtension>
        </extensions>
      </trkpt>
      <trkpt lat="37.77318008244037628173828125" lon="-107.7024338208138942718505859375">
        <ele>3945.60009765625</ele>
        <time>2023-07-29T15:07:51.000Z</time>
        <extensions>
          <ns3:TrackPointExtension>
            <ns3:hr>87</ns3:hr>
            <ns3:cad>0</ns3:cad>
          </ns3:TrackPointExtension>
        </extensions>
      </trkpt>
      <trkpt lat="37.773184441030025482177734375" lon="-107.7024304680526256561279296875">
        <ele>3945.60009765625</ele>
        <time>2023-07-29T15:07:52.000Z</time>
        <extensions>
          <ns3:TrackPointExtension>
            <ns3:hr>86</ns3:hr>
            <ns3:cad>0</ns3:cad>
          </ns3:TrackPointExtension>
        </extensions>
      </trkpt>
      <trkpt lat="37.77318947017192840576171875" lon="-107.70242728292942047119140625">
        <ele>3945.60009765625</ele>
        <time>2023-07-29T15:07:53.000Z</time>
        <extensions>
          <ns3:TrackPointExtension>
            <ns3:hr>85</ns3:hr>
            <ns3:cad>0</ns3:cad>
          </ns3:TrackPointExtension>
        </extensions>
      </trkpt>
      <trkpt lat="37.77319072745740413665771484375" lon="-107.70242703147232532501220703125">
        <ele>3945.39990234375</ele>
        <time>2023-07-29T15:07:54.000Z</time>
        <extensions>
          <ns3:TrackPointExtension>
            <ns3:hr>85</ns3:hr>
            <ns3:cad>0</ns3:cad>
          </ns3:TrackPointExtension>
        </extensions>
      </trkpt>
      <trkpt lat="37.7731919847428798675537109375" lon="-107.70242434926331043243408203125">
        <ele>3945</ele>
        <time>2023-07-29T15:07:55.000Z</time>
        <extensions>
          <ns3:TrackPointExtension>
            <ns3:hr>85</ns3:hr>
            <ns3:cad>61</ns3:cad>
          </ns3:TrackPointExtension>
        </extensions>
      </trkpt>
      <trkpt lat="37.7731973491609096527099609375" lon="-107.702420242130756378173828125">
        <ele>3944.60009765625</ele>
        <time>2023-07-29T15:07:56.000Z</time>
        <extensions>
          <ns3:TrackPointExtension>
            <ns3:hr>85</ns3:hr>
            <ns3:cad>61</ns3:cad>
          </ns3:TrackPointExtension>
        </extensions>
      </trkpt>
      <trkpt lat="37.7731980197131633758544921875" lon="-107.70242057740688323974609375">
        <ele>3944.60009765625</ele>
        <time>2023-07-29T15:07:57.000Z</time>
        <extensions>
          <ns3:TrackPointExtension>
            <ns3:hr>85</ns3:hr>
            <ns3:cad>61</ns3:cad>
          </ns3:TrackPointExtension>
        </extensions>
      </trkpt>
      <trkpt lat="37.77319349348545074462890625" lon="-107.70242384634912014007568359375">
        <ele>3944.39990234375</ele>
        <time>2023-07-29T15:07:58.000Z</time>
        <extensions>
          <ns3:TrackPointExtension>
            <ns3:hr>85</ns3:hr>
            <ns3:cad>61</ns3:cad>
          </ns3:TrackPointExtension>
        </extensions>
      </trkpt>
      <trkpt lat="37.77319005690515041351318359375" lon="-107.70242501981556415557861328125">
        <ele>3944.199951171875</ele>
        <time>2023-07-29T15:07:59.000Z</time>
        <extensions>
          <ns3:TrackPointExtension>
            <ns3:hr>84</ns3:hr>
            <ns3:cad>61</ns3:cad>
          </ns3:TrackPointExtension>
        </extensions>
      </trkpt>
      <trkpt lat="37.7731914818286895751953125" lon="-107.70242200233042240142822265625">
        <ele>3944</ele>
        <time>2023-07-29T15:08:00.000Z</time>
        <extensions>
          <ns3:TrackPointExtension>
            <ns3:hr>84</ns3:hr>
            <ns3:cad>61</ns3:cad>
          </ns3:TrackPointExtension>
        </extensions>
      </trkpt>
      <trkpt lat="37.77319458313286304473876953125" lon="-107.70241714082658290863037109375">
        <ele>3944</ele>
        <time>2023-07-29T15:08:01.000Z</time>
        <extensions>
          <ns3:TrackPointExtension>
            <ns3:hr>84</ns3:hr>
            <ns3:cad>61</ns3:cad>
          </ns3:TrackPointExtension>
        </extensions>
      </trkpt>
      <trkpt lat="37.77319810353219509124755859375" lon="-107.70241328515112400054931640625">
        <ele>3943.800048828125</ele>
        <time>2023-07-29T15:08:02.000Z</time>
        <extensions>
          <ns3:TrackPointExtension>
            <ns3:hr>83</ns3:hr>
            <ns3:cad>0</ns3:cad>
          </ns3:TrackPointExtension>
        </extensions>
      </trkpt>
      <trkpt lat="37.7731986902654170989990234375" lon="-107.70241194404661655426025390625">
        <ele>3943.800048828125</ele>
        <time>2023-07-29T15:08:03.000Z</time>
        <extensions>
          <ns3:TrackPointExtension>
            <ns3:hr>84</ns3:hr>
            <ns3:cad>0</ns3:cad>
          </ns3:TrackPointExtension>
        </extensions>
      </trkpt>
      <trkpt lat="37.77319843880832195281982421875" lon="-107.702410519123077392578125">
        <ele>3943.60009765625</ele>
        <time>2023-07-29T15:08:04.000Z</time>
        <extensions>
          <ns3:TrackPointExtension>
            <ns3:hr>84</ns3:hr>
            <ns3:cad>0</ns3:cad>
          </ns3:TrackPointExtension>
        </extensions>
      </trkpt>
      <trkpt lat="37.77319575659930706024169921875" lon="-107.7024096809327602386474609375">
        <ele>3943.39990234375</ele>
        <time>2023-07-29T15:08:05.000Z</time>
        <extensions>
          <ns3:TrackPointExtension>
            <ns3:hr>84</ns3:hr>
            <ns3:cad>0</ns3:cad>
          </ns3:TrackPointExtension>
        </extensions>
      </trkpt>
      <trkpt lat="37.77319860644638538360595703125" lon="-107.702404819428920745849609375">
        <ele>3943.199951171875</ele>
        <time>2023-07-29T15:08:06.000Z</time>
        <extensions>
          <ns3:TrackPointExtension>
            <ns3:hr>84</ns3:hr>
            <ns3:cad>0</ns3:cad>
          </ns3:TrackPointExtension>
        </extensions>
      </trkpt>
      <trkpt lat="37.7732053957879543304443359375" lon="-107.7023992873728275299072265625">
        <ele>3943</ele>
        <time>2023-07-29T15:08:07.000Z</time>
        <extensions>
          <ns3:TrackPointExtension>
            <ns3:hr>85</ns3:hr>
            <ns3:cad>0</ns3:cad>
          </ns3:TrackPointExtension>
        </extensions>
      </trkpt>
      <trkpt lat="37.77321050874888896942138671875" lon="-107.70239383913576602935791015625">
        <ele>3943</ele>
        <time>2023-07-29T15:08:08.000Z</time>
        <extensions>
          <ns3:TrackPointExtension>
            <ns3:hr>85</ns3:hr>
            <ns3:cad>0</ns3:cad>
          </ns3:TrackPointExtension>
        </extensions>
      </trkpt>
      <trkpt lat="37.77321687899529933929443359375" lon="-107.70238679833710193634033203125">
        <ele>3942.800048828125</ele>
        <time>2023-07-29T15:08:09.000Z</time>
        <extensions>
          <ns3:TrackPointExtension>
            <ns3:hr>85</ns3:hr>
            <ns3:cad>0</ns3:cad>
          </ns3:TrackPointExtension>
        </extensions>
      </trkpt>
      <trkpt lat="37.77322165668010711669921875" lon="-107.70238168537616729736328125">
        <ele>3942.800048828125</ele>
        <time>2023-07-29T15:08:10.000Z</time>
        <extensions>
          <ns3:TrackPointExtension>
            <ns3:hr>85</ns3:hr>
            <ns3:cad>0</ns3:cad>
          </ns3:TrackPointExtension>
        </extensions>
      </trkpt>
      <trkpt lat="37.77322408743202686309814453125" lon="-107.702377997338771820068359375">
        <ele>3942.39990234375</ele>
        <time>2023-07-29T15:08:11.000Z</time>
        <extensions>
          <ns3:TrackPointExtension>
            <ns3:hr>85</ns3:hr>
            <ns3:cad>0</ns3:cad>
          </ns3:TrackPointExtension>
        </extensions>
      </trkpt>
      <trkpt lat="37.7732263505458831787109375" lon="-107.70237757824361324310302734375">
        <ele>3942.199951171875</ele>
        <time>2023-07-29T15:08:12.000Z</time>
        <extensions>
          <ns3:TrackPointExtension>
            <ns3:hr>85</ns3:hr>
            <ns3:cad>0</ns3:cad>
          </ns3:TrackPointExtension>
        </extensions>
      </trkpt>
      <trkpt lat="37.7732281945645809173583984375" lon="-107.70237774588167667388916015625">
        <ele>3942</ele>
        <time>2023-07-29T15:08:13.000Z</time>
        <extensions>
          <ns3:TrackPointExtension>
            <ns3:hr>85</ns3:hr>
            <ns3:cad>0</ns3:cad>
          </ns3:TrackPointExtension>
        </extensions>
      </trkpt>
      <trkpt lat="37.77322676964104175567626953125" lon="-107.70237724296748638153076171875">
        <ele>3942</ele>
        <time>2023-07-29T15:08:14.000Z</time>
        <extensions>
          <ns3:TrackPointExtension>
            <ns3:hr>86</ns3:hr>
            <ns3:cad>71</ns3:cad>
          </ns3:TrackPointExtension>
        </extensions>
      </trkpt>
      <trkpt lat="37.77322744019329547882080078125" lon="-107.70237523131072521209716796875">
        <ele>3941.800048828125</ele>
        <time>2023-07-29T15:08:15.000Z</time>
        <extensions>
          <ns3:TrackPointExtension>
            <ns3:hr>86</ns3:hr>
            <ns3:cad>71</ns3:cad>
          </ns3:TrackPointExtension>
        </extensions>
      </trkpt>
      <trkpt lat="37.773230038583278656005859375" lon="-107.702365256845951080322265625">
        <ele>3941.800048828125</ele>
        <time>2023-07-29T15:08:16.000Z</time>
        <extensions>
          <ns3:TrackPointExtension>
            <ns3:hr>86</ns3:hr>
            <ns3:cad>71</ns3:cad>
          </ns3:TrackPointExtension>
        </extensions>
      </trkpt>
      <trkpt lat="37.77323364280164241790771484375" lon="-107.70236148498952388763427734375">
        <ele>3941.60009765625</ele>
        <time>2023-07-29T15:08:17.000Z</time>
        <extensions>
          <ns3:TrackPointExtension>
            <ns3:hr>86</ns3:hr>
            <ns3:cad>71</ns3:cad>
          </ns3:TrackPointExtension>
        </extensions>
      </trkpt>
      <trkpt lat="37.7732292003929615020751953125" lon="-107.7023567073047161102294921875">
        <ele>3941.39990234375</ele>
        <time>2023-07-29T15:08:18.000Z</time>
        <extensions>
          <ns3:TrackPointExtension>
            <ns3:hr>85</ns3:hr>
            <ns3:cad>71</ns3:cad>
          </ns3:TrackPointExtension>
        </extensions>
      </trkpt>
      <trkpt lat="37.773229368031024932861328125" lon="-107.70235494710505008697509765625">
        <ele>3941.39990234375</ele>
        <time>2023-07-29T15:08:19.000Z</time>
        <extensions>
          <ns3:TrackPointExtension>
            <ns3:hr>85</ns3:hr>
            <ns3:cad>71</ns3:cad>
          </ns3:TrackPointExtension>
        </extensions>
      </trkpt>
      <trkpt lat="37.77322827838361263275146484375" lon="-107.702355198562145233154296875">
        <ele>3941.199951171875</ele>
        <time>2023-07-29T15:08:20.000Z</time>
        <extensions>
          <ns3:TrackPointExtension>
            <ns3:hr>84</ns3:hr>
            <ns3:cad>71</ns3:cad>
          </ns3:TrackPointExtension>
        </extensions>
      </trkpt>
      <trkpt lat="37.773226015269756317138671875" lon="-107.70235595293343067169189453125">
        <ele>3941</ele>
        <time>2023-07-29T15:08:21.000Z</time>
        <extensions>
          <ns3:TrackPointExtension>
            <ns3:hr>83</ns3:hr>
            <ns3:cad>0</ns3:cad>
          </ns3:TrackPointExtension>
        </extensions>
      </trkpt>
      <trkpt lat="37.77322241105139255523681640625" lon="-107.70236098207533359527587890625">
        <ele>3940.60009765625</ele>
        <time>2023-07-29T15:08:22.000Z</time>
        <extensions>
          <ns3:TrackPointExtension>
            <ns3:hr>83</ns3:hr>
            <ns3:cad>0</ns3:cad>
          </ns3:TrackPointExtension>
        </extensions>
      </trkpt>
      <trkpt lat="37.7732194773852825164794921875" lon="-107.7023650892078876495361328125">
        <ele>3940.60009765625</ele>
        <time>2023-07-29T15:08:23.000Z</time>
        <extensions>
          <ns3:TrackPointExtension>
            <ns3:hr>83</ns3:hr>
            <ns3:cad>0</ns3:cad>
          </ns3:TrackPointExtension>
        </extensions>
      </trkpt>
      <trkpt lat="37.773218639194965362548828125" lon="-107.70236651413142681121826171875">
        <ele>3940.60009765625</ele>
        <time>2023-07-29T15:08:24.000Z</time>
        <extensions>
          <ns3:TrackPointExtension>
            <ns3:hr>83</ns3:hr>
            <ns3:cad>0</ns3:cad>
          </ns3:TrackPointExtension>
        </extensions>
      </trkpt>
      <trkpt lat="37.773215956985950469970703125" lon="-107.702363245189189910888671875">
        <ele>3940.60009765625</ele>
        <time>2023-07-29T15:08:25.000Z</time>
        <extensions>
          <ns3:TrackPointExtension>
            <ns3:hr>83</ns3:hr>
            <ns3:cad>0</ns3:cad>
          </ns3:TrackPointExtension>
        </extensions>
      </trkpt>
      <trkpt lat="37.77321503497660160064697265625" lon="-107.7023634128272533416748046875">
        <ele>3940.60009765625</ele>
        <time>2023-07-29T15:08:26.000Z</time>
        <extensions>
          <ns3:TrackPointExtension>
            <ns3:hr>84</ns3:hr>
            <ns3:cad>0</ns3:cad>
          </ns3:TrackPointExtension>
        </extensions>
      </trkpt>
      <trkpt lat="37.77321386151015758514404296875" lon="-107.70236634649336338043212890625">
        <ele>3940.60009765625</ele>
        <time>2023-07-29T15:08:27.000Z</time>
        <extensions>
          <ns3:TrackPointExtension>
            <ns3:hr>86</ns3:hr>
            <ns3:cad>0</ns3:cad>
          </ns3:TrackPointExtension>
        </extensions>
      </trkpt>
      <trkpt lat="37.77321201749145984649658203125" lon="-107.70237405784428119659423828125">
        <ele>3940.60009765625</ele>
        <time>2023-07-29T15:08:28.000Z</time>
        <extensions>
          <ns3:TrackPointExtension>
            <ns3:hr>86</ns3:hr>
            <ns3:cad>0</ns3:cad>
          </ns3:TrackPointExtension>
        </extensions>
      </trkpt>
      <trkpt lat="37.773213274776935577392578125" lon="-107.702375985682010650634765625">
        <ele>3940.60009765625</ele>
        <time>2023-07-29T15:08:29.000Z</time>
        <extensions>
          <ns3:TrackPointExtension>
            <ns3:hr>86</ns3:hr>
            <ns3:cad>0</ns3:cad>
          </ns3:TrackPointExtension>
        </extensions>
      </trkpt>
      <trkpt lat="37.773218639194965362548828125" lon="-107.70237623713910579681396484375">
        <ele>3940.60009765625</ele>
        <time>2023-07-29T15:08:30.000Z</time>
        <extensions>
          <ns3:TrackPointExtension>
            <ns3:hr>86</ns3:hr>
            <ns3:cad>0</ns3:cad>
          </ns3:TrackPointExtension>
        </extensions>
      </trkpt>
      <trkpt lat="37.77322224341332912445068359375" lon="-107.7023788355290889739990234375">
        <ele>3940.60009765625</ele>
        <time>2023-07-29T15:08:31.000Z</time>
        <extensions>
          <ns3:TrackPointExtension>
            <ns3:hr>86</ns3:hr>
            <ns3:cad>0</ns3:cad>
          </ns3:TrackPointExtension>
        </extensions>
      </trkpt>
      <trkpt lat="37.77322157286107540130615234375" lon="-107.70238394849002361297607421875">
        <ele>3940.60009765625</ele>
        <time>2023-07-29T15:08:32.000Z</time>
        <extensions>
          <ns3:TrackPointExtension>
            <ns3:hr>87</ns3:hr>
            <ns3:cad>0</ns3:cad>
          </ns3:TrackPointExtension>
        </extensions>
      </trkpt>
      <trkpt lat="37.7732209861278533935546875" lon="-107.70238730125129222869873046875">
        <ele>3940.60009765625</ele>
        <time>2023-07-29T15:08:33.000Z</time>
        <extensions>
          <ns3:TrackPointExtension>
            <ns3:hr>86</ns3:hr>
            <ns3:cad>0</ns3:cad>
          </ns3:TrackPointExtension>
        </extensions>
      </trkpt>
      <trkpt lat="37.77322207577526569366455078125" lon="-107.7023902349174022674560546875">
        <ele>3940.60009765625</ele>
        <time>2023-07-29T15:08:34.000Z</time>
        <extensions>
          <ns3:TrackPointExtension>
            <ns3:hr>86</ns3:hr>
            <ns3:cad>0</ns3:cad>
          </ns3:TrackPointExtension>
        </extensions>
      </trkpt>
      <trkpt lat="37.77322257868945598602294921875" lon="-107.70239367149770259857177734375">
        <ele>3940.60009765625</ele>
        <time>2023-07-29T15:08:35.000Z</time>
        <extensions>
          <ns3:TrackPointExtension>
            <ns3:hr>86</ns3:hr>
            <ns3:cad>0</ns3:cad>
          </ns3:TrackPointExtension>
        </extensions>
      </trkpt>
      <trkpt lat="37.7732245065271854400634765625" lon="-107.70239241421222686767578125">
        <ele>3940.60009765625</ele>
        <time>2023-07-29T15:08:36.000Z</time>
        <extensions>
          <ns3:TrackPointExtension>
            <ns3:hr>86</ns3:hr>
            <ns3:cad>0</ns3:cad>
          </ns3:TrackPointExtension>
        </extensions>
      </trkpt>
      <trkpt lat="37.77322660200297832489013671875" lon="-107.702389396727085113525390625">
        <ele>3940.60009765625</ele>
        <time>2023-07-29T15:08:37.000Z</time>
        <extensions>
          <ns3:TrackPointExtension>
            <ns3:hr>87</ns3:hr>
            <ns3:cad>0</ns3:cad>
          </ns3:TrackPointExtension>
        </extensions>
      </trkpt>
      <trkpt lat="37.77322861365973949432373046875" lon="-107.7023855410516262054443359375">
        <ele>3940.60009765625</ele>
        <time>2023-07-29T15:08:38.000Z</time>
        <extensions>
          <ns3:TrackPointExtension>
            <ns3:hr>87</ns3:hr>
            <ns3:cad>0</ns3:cad>
          </ns3:TrackPointExtension>
        </extensions>
      </trkpt>
      <trkpt lat="37.77323029004037380218505859375" lon="-107.7023818530142307281494140625">
        <ele>3940.60009765625</ele>
        <time>2023-07-29T15:08:39.000Z</time>
        <extensions>
          <ns3:TrackPointExtension>
            <ns3:hr>87</ns3:hr>
            <ns3:cad>0</ns3:cad>
          </ns3:TrackPointExtension>
        </extensions>
      </trkpt>
      <trkpt lat="37.7732312120497226715087890625" lon="-107.70237975753843784332275390625">
        <ele>3940.60009765625</ele>
        <time>2023-07-29T15:08:40.000Z</time>
        <extensions>
          <ns3:TrackPointExtension>
            <ns3:hr>87</ns3:hr>
            <ns3:cad>0</ns3:cad>
          </ns3:TrackPointExtension>
        </extensions>
      </trkpt>
      <trkpt lat="37.7732315473258495330810546875" lon="-107.702375985682010650634765625">
        <ele>3940.60009765625</ele>
        <time>2023-07-29T15:08:41.000Z</time>
        <extensions>
          <ns3:TrackPointExtension>
            <ns3:hr>87</ns3:hr>
            <ns3:cad>0</ns3:cad>
          </ns3:TrackPointExtension>
        </extensions>
      </trkpt>
      <trkpt lat="37.77323146350681781768798828125" lon="-107.70237590186297893524169921875">
        <ele>3940.60009765625</ele>
        <time>2023-07-29T15:08:42.000Z</time>
        <extensions>
          <ns3:TrackPointExtension>
            <ns3:hr>87</ns3:hr>
            <ns3:cad>0</ns3:cad>
          </ns3:TrackPointExtension>
        </extensions>
      </trkpt>
      <trkpt lat="37.77323096059262752532958984375" lon="-107.70237422548234462738037109375">
        <ele>3940.60009765625</ele>
        <time>2023-07-29T15:08:43.000Z</time>
        <extensions>
          <ns3:TrackPointExtension>
            <ns3:hr>87</ns3:hr>
            <ns3:cad>0</ns3:cad>
          </ns3:TrackPointExtension>
        </extensions>
      </trkpt>
      <trkpt lat="37.77323179878294467926025390625" lon="-107.70237422548234462738037109375">
        <ele>3940.60009765625</ele>
        <time>2023-07-29T15:08:44.000Z</time>
        <extensions>
          <ns3:TrackPointExtension>
            <ns3:hr>87</ns3:hr>
            <ns3:cad>0</ns3:cad>
          </ns3:TrackPointExtension>
        </extensions>
      </trkpt>
      <trkpt lat="37.77323372662067413330078125" lon="-107.70237690769135951995849609375">
        <ele>3940.60009765625</ele>
        <time>2023-07-29T15:08:45.000Z</time>
        <extensions>
          <ns3:TrackPointExtension>
            <ns3:hr>87</ns3:hr>
            <ns3:cad>0</ns3:cad>
          </ns3:TrackPointExtension>
        </extensions>
      </trkpt>
      <trkpt lat="37.77323464863002300262451171875" lon="-107.702386379241943359375">
        <ele>3940.60009765625</ele>
        <time>2023-07-29T15:08:46.000Z</time>
        <extensions>
          <ns3:TrackPointExtension>
            <ns3:hr>87</ns3:hr>
            <ns3:cad>0</ns3:cad>
          </ns3:TrackPointExtension>
        </extensions>
      </trkpt>
      <trkpt lat="37.77323498390614986419677734375" lon="-107.7023982815444469451904296875">
        <ele>3940.60009765625</ele>
        <time>2023-07-29T15:08:47.000Z</time>
        <extensions>
          <ns3:TrackPointExtension>
            <ns3:hr>87</ns3:hr>
            <ns3:cad>0</ns3:cad>
          </ns3:TrackPointExtension>
        </extensions>
      </trkpt>
      <trkpt lat="37.77323313988745212554931640625" lon="-107.70240926183760166168212890625">
        <ele>3940.60009765625</ele>
        <time>2023-07-29T15:08:48.000Z</time>
        <extensions>
          <ns3:TrackPointExtension>
            <ns3:hr>87</ns3:hr>
            <ns3:cad>0</ns3:cad>
          </ns3:TrackPointExtension>
        </extensions>
      </trkpt>
      <trkpt lat="37.77323179878294467926025390625" lon="-107.70241923630237579345703125">
        <ele>3940.39990234375</ele>
        <time>2023-07-29T15:08:49.000Z</time>
        <extensions>
          <ns3:TrackPointExtension>
            <ns3:hr>87</ns3:hr>
            <ns3:cad>0</ns3:cad>
          </ns3:TrackPointExtension>
        </extensions>
      </trkpt>
      <trkpt lat="37.7732302062213420867919921875" lon="-107.70243088714778423309326171875">
        <ele>3940.39990234375</ele>
        <time>2023-07-29T15:08:50.000Z</time>
        <extensions>
          <ns3:TrackPointExtension>
            <ns3:hr>88</ns3:hr>
            <ns3:cad>0</ns3:cad>
          </ns3:TrackPointExtension>
        </extensions>
      </trkpt>
      <trkpt lat="37.77323079295456409454345703125" lon="-107.70243491046130657196044921875">
        <ele>3940.39990234375</ele>
        <time>2023-07-29T15:08:51.000Z</time>
        <extensions>
          <ns3:TrackPointExtension>
            <ns3:hr>88</ns3:hr>
            <ns3:cad>0</ns3:cad>
          </ns3:TrackPointExtension>
        </extensions>
      </trkpt>
      <trkpt lat="37.77323163114488124847412109375" lon="-107.7024408616125583648681640625">
        <ele>3940.39990234375</ele>
        <time>2023-07-29T15:08:52.000Z</time>
        <extensions>
          <ns3:TrackPointExtension>
            <ns3:hr>88</ns3:hr>
            <ns3:cad>0</ns3:cad>
          </ns3:TrackPointExtension>
        </extensions>
      </trkpt>
      <trkpt lat="37.7732318826019763946533203125" lon="-107.70244362764060497283935546875">
        <ele>3940.39990234375</ele>
        <time>2023-07-29T15:08:53.000Z</time>
        <extensions>
          <ns3:TrackPointExtension>
            <ns3:hr>87</ns3:hr>
            <ns3:cad>0</ns3:cad>
          </ns3:TrackPointExtension>
        </extensions>
      </trkpt>
      <trkpt lat="37.77323238551616668701171875" lon="-107.70244513638317584991455078125">
        <ele>3940.39990234375</ele>
        <time>2023-07-29T15:08:54.000Z</time>
        <extensions>
          <ns3:TrackPointExtension>
            <ns3:hr>85</ns3:hr>
            <ns3:cad>0</ns3:cad>
          </ns3:TrackPointExtension>
        </extensions>
      </trkpt>
      <trkpt lat="37.77323213405907154083251953125" lon="-107.70244865678250789642333984375">
        <ele>3940.39990234375</ele>
        <time>2023-07-29T15:08:55.000Z</time>
        <extensions>
          <ns3:TrackPointExtension>
            <ns3:hr>84</ns3:hr>
            <ns3:cad>0</ns3:cad>
          </ns3:TrackPointExtension>
        </extensions>
      </trkpt>
      <trkpt lat="37.7732325531542301177978515625" lon="-107.70245117135345935821533203125">
        <ele>3940.39990234375</ele>
        <time>2023-07-29T15:08:56.000Z</time>
        <extensions>
          <ns3:TrackPointExtension>
            <ns3:hr>82</ns3:hr>
            <ns3:cad>0</ns3:cad>
          </ns3:TrackPointExtension>
        </extensions>
      </trkpt>
      <trkpt lat="37.77323381043970584869384765625" lon="-107.70244865678250789642333984375">
        <ele>3940.39990234375</ele>
        <time>2023-07-29T15:08:57.000Z</time>
        <extensions>
          <ns3:TrackPointExtension>
            <ns3:hr>82</ns3:hr>
            <ns3:cad>0</ns3:cad>
          </ns3:TrackPointExtension>
        </extensions>
      </trkpt>
      <trkpt lat="37.77323381043970584869384765625" lon="-107.7024502493441104888916015625">
        <ele>3940.39990234375</ele>
        <time>2023-07-29T15:08:58.000Z</time>
        <extensions>
          <ns3:TrackPointExtension>
            <ns3:hr>80</ns3:hr>
            <ns3:cad>0</ns3:cad>
          </ns3:TrackPointExtension>
        </extensions>
      </trkpt>
      <trkpt lat="37.77323372662067413330078125" lon="-107.70245033316314220428466796875">
        <ele>3940.39990234375</ele>
        <time>2023-07-29T15:08:59.000Z</time>
        <extensions>
          <ns3:TrackPointExtension>
            <ns3:hr>80</ns3:hr>
            <ns3:cad>0</ns3:cad>
          </ns3:TrackPointExtension>
        </extensions>
      </trkpt>
      <trkpt lat="37.77323431335389614105224609375" lon="-107.70244832150638103485107421875">
        <ele>3940.39990234375</ele>
        <time>2023-07-29T15:09:00.000Z</time>
        <extensions>
          <ns3:TrackPointExtension>
            <ns3:hr>80</ns3:hr>
            <ns3:cad>0</ns3:cad>
          </ns3:TrackPointExtension>
        </extensions>
      </trkpt>
      <trkpt lat="37.77323012240231037139892578125" lon="-107.70242384634912014007568359375">
        <ele>3940.39990234375</ele>
        <time>2023-07-29T15:09:01.000Z</time>
        <extensions>
          <ns3:TrackPointExtension>
            <ns3:hr>79</ns3:hr>
            <ns3:cad>0</ns3:cad>
          </ns3:TrackPointExtension>
        </extensions>
      </trkpt>
      <trkpt lat="37.773222662508487701416015625" lon="-107.70240339450538158416748046875">
        <ele>3940.39990234375</ele>
        <time>2023-07-29T15:09:02.000Z</time>
        <extensions>
          <ns3:TrackPointExtension>
            <ns3:hr>79</ns3:hr>
            <ns3:cad>0</ns3:cad>
          </ns3:TrackPointExtension>
        </extensions>
      </trkpt>
      <trkpt lat="37.77322006411850452423095703125" lon="-107.7023875527083873748779296875">
        <ele>3940.60009765625</ele>
        <time>2023-07-29T15:09:03.000Z</time>
        <extensions>
          <ns3:TrackPointExtension>
            <ns3:hr>80</ns3:hr>
            <ns3:cad>0</ns3:cad>
          </ns3:TrackPointExtension>
        </extensions>
      </trkpt>
      <trkpt lat="37.77321671135723590850830078125" lon="-107.70237858407199382781982421875">
        <ele>3940.60009765625</ele>
        <time>2023-07-29T15:09:04.000Z</time>
        <extensions>
          <ns3:TrackPointExtension>
            <ns3:hr>80</ns3:hr>
            <ns3:cad>0</ns3:cad>
          </ns3:TrackPointExtension>
        </extensions>
      </trkpt>
      <trkpt lat="37.7732261829078197479248046875" lon="-107.70237690769135951995849609375">
        <ele>3940.800048828125</ele>
        <time>2023-07-29T15:09:05.000Z</time>
        <extensions>
          <ns3:TrackPointExtension>
            <ns3:hr>80</ns3:hr>
            <ns3:cad>0</ns3:cad>
          </ns3:TrackPointExtension>
        </extensions>
      </trkpt>
      <trkpt lat="37.773224674165248870849609375" lon="-107.70236902870237827301025390625">
        <ele>3940.800048828125</ele>
        <time>2023-07-29T15:09:06.000Z</time>
        <extensions>
          <ns3:TrackPointExtension>
            <ns3:hr>81</ns3:hr>
            <ns3:cad>0</ns3:cad>
          </ns3:TrackPointExtension>
        </extensions>
      </trkpt>
      <trkpt lat="37.77323414571583271026611328125" lon="-107.7023689448833465576171875">
        <ele>3940.800048828125</ele>
        <time>2023-07-29T15:09:07.000Z</time>
        <extensions>
          <ns3:TrackPointExtension>
            <ns3:hr>82</ns3:hr>
            <ns3:cad>0</ns3:cad>
          </ns3:TrackPointExtension>
        </extensions>
      </trkpt>
      <trkpt lat="37.77324001304805278778076171875" lon="-107.7023756504058837890625">
        <ele>3940.800048828125</ele>
        <time>2023-07-29T15:09:08.000Z</time>
        <extensions>
          <ns3:TrackPointExtension>
            <ns3:hr>83</ns3:hr>
            <ns3:cad>0</ns3:cad>
          </ns3:TrackPointExtension>
        </extensions>
      </trkpt>
      <trkpt lat="37.77324705384671688079833984375" lon="-107.7023778297007083892822265625">
        <ele>3940.800048828125</ele>
        <time>2023-07-29T15:09:09.000Z</time>
        <extensions>
          <ns3:TrackPointExtension>
            <ns3:hr>82</ns3:hr>
            <ns3:cad>0</ns3:cad>
          </ns3:TrackPointExtension>
        </extensions>
      </trkpt>
      <trkpt lat="37.77325074188411235809326171875" lon="-107.702376656234264373779296875">
        <ele>3940.800048828125</ele>
        <time>2023-07-29T15:09:10.000Z</time>
        <extensions>
          <ns3:TrackPointExtension>
            <ns3:hr>81</ns3:hr>
            <ns3:cad>0</ns3:cad>
          </ns3:TrackPointExtension>
        </extensions>
      </trkpt>
      <trkpt lat="37.77325451374053955078125" lon="-107.70237405784428119659423828125">
        <ele>3940.60009765625</ele>
        <time>2023-07-29T15:09:11.000Z</time>
        <extensions>
          <ns3:TrackPointExtension>
            <ns3:hr>81</ns3:hr>
            <ns3:cad>0</ns3:cad>
          </ns3:TrackPointExtension>
        </extensions>
      </trkpt>
      <trkpt lat="37.7732585370540618896484375" lon="-107.7023691125214099884033203125">
        <ele>3940.60009765625</ele>
        <time>2023-07-29T15:09:12.000Z</time>
        <extensions>
          <ns3:TrackPointExtension>
            <ns3:hr>81</ns3:hr>
            <ns3:cad>0</ns3:cad>
          </ns3:TrackPointExtension>
        </extensions>
      </trkpt>
      <trkpt lat="37.7732617221772670745849609375" lon="-107.70236517302691936492919921875">
        <ele>3940.199951171875</ele>
        <time>2023-07-29T15:09:13.000Z</time>
        <extensions>
          <ns3:TrackPointExtension>
            <ns3:hr>81</ns3:hr>
            <ns3:cad>0</ns3:cad>
          </ns3:TrackPointExtension>
        </extensions>
      </trkpt>
      <trkpt lat="37.7732580341398715972900390625" lon="-107.702357880771160125732421875">
        <ele>3940</ele>
        <time>2023-07-29T15:09:14.000Z</time>
        <extensions>
          <ns3:TrackPointExtension>
            <ns3:hr>80</ns3:hr>
            <ns3:cad>0</ns3:cad>
          </ns3:TrackPointExtension>
        </extensions>
      </trkpt>
      <trkpt lat="37.7732613869011402130126953125" lon="-107.7023503370583057403564453125">
        <ele>3939.800048828125</ele>
        <time>2023-07-29T15:09:15.000Z</time>
        <extensions>
          <ns3:TrackPointExtension>
            <ns3:hr>80</ns3:hr>
            <ns3:cad>0</ns3:cad>
          </ns3:TrackPointExtension>
        </extensions>
      </trkpt>
      <trkpt lat="37.77326482348144054412841796875" lon="-107.702341787517070770263671875">
        <ele>3939.60009765625</ele>
        <time>2023-07-29T15:09:16.000Z</time>
        <extensions>
          <ns3:TrackPointExtension>
            <ns3:hr>80</ns3:hr>
            <ns3:cad>0</ns3:cad>
          </ns3:TrackPointExtension>
        </extensions>
      </trkpt>
      <trkpt lat="37.773266248404979705810546875" lon="-107.7023339085280895233154296875">
        <ele>3939.60009765625</ele>
        <time>2023-07-29T15:09:17.000Z</time>
        <extensions>
          <ns3:TrackPointExtension>
            <ns3:hr>80</ns3:hr>
            <ns3:cad>0</ns3:cad>
          </ns3:TrackPointExtension>
        </extensions>
      </trkpt>
      <trkpt lat="37.7732707746326923370361328125" lon="-107.7023206651210784912109375">
        <ele>3939.39990234375</ele>
        <time>2023-07-29T15:09:18.000Z</time>
        <extensions>
          <ns3:TrackPointExtension>
            <ns3:hr>80</ns3:hr>
            <ns3:cad>0</ns3:cad>
          </ns3:TrackPointExtension>
        </extensions>
      </trkpt>
      <trkpt lat="37.77327521704137325286865234375" lon="-107.702306248247623443603515625">
        <ele>3939.199951171875</ele>
        <time>2023-07-29T15:09:19.000Z</time>
        <extensions>
          <ns3:TrackPointExtension>
            <ns3:hr>80</ns3:hr>
            <ns3:cad>0</ns3:cad>
          </ns3:TrackPointExtension>
        </extensions>
      </trkpt>
      <trkpt lat="37.77327806688845157623291015625" lon="-107.70229828543961048126220703125">
        <ele>3939</ele>
        <time>2023-07-29T15:09:20.000Z</time>
        <extensions>
          <ns3:TrackPointExtension>
            <ns3:hr>80</ns3:hr>
            <ns3:cad>0</ns3:cad>
          </ns3:TrackPointExtension>
        </extensions>
      </trkpt>
      <trkpt lat="37.77328091673552989959716796875" lon="-107.702296189963817596435546875">
        <ele>3938.800048828125</ele>
        <time>2023-07-29T15:09:21.000Z</time>
        <extensions>
          <ns3:TrackPointExtension>
            <ns3:hr>81</ns3:hr>
            <ns3:cad>0</ns3:cad>
          </ns3:TrackPointExtension>
        </extensions>
      </trkpt>
      <trkpt lat="37.77328468859195709228515625" lon="-107.702293507754802703857421875">
        <ele>3938.60009765625</ele>
        <time>2023-07-29T15:09:22.000Z</time>
        <extensions>
          <ns3:TrackPointExtension>
            <ns3:hr>81</ns3:hr>
            <ns3:cad>0</ns3:cad>
          </ns3:TrackPointExtension>
        </extensions>
      </trkpt>
      <trkpt lat="37.77328996919095516204833984375" lon="-107.7022873051464557647705078125">
        <ele>3938.39990234375</ele>
        <time>2023-07-29T15:09:23.000Z</time>
        <extensions>
          <ns3:TrackPointExtension>
            <ns3:hr>81</ns3:hr>
            <ns3:cad>0</ns3:cad>
          </ns3:TrackPointExtension>
        </extensions>
      </trkpt>
      <trkpt lat="37.77329198084771633148193359375" lon="-107.70228437148034572601318359375">
        <ele>3938.39990234375</ele>
        <time>2023-07-29T15:09:24.000Z</time>
        <extensions>
          <ns3:TrackPointExtension>
            <ns3:hr>81</ns3:hr>
            <ns3:cad>0</ns3:cad>
          </ns3:TrackPointExtension>
        </extensions>
      </trkpt>
      <trkpt lat="37.773298434913158416748046875" lon="-107.7022762410342693328857421875">
        <ele>3938.199951171875</ele>
        <time>2023-07-29T15:09:25.000Z</time>
        <extensions>
          <ns3:TrackPointExtension>
            <ns3:hr>81</ns3:hr>
            <ns3:cad>0</ns3:cad>
          </ns3:TrackPointExtension>
        </extensions>
      </trkpt>
      <trkpt lat="37.77330639772117137908935546875" lon="-107.7022665180265903472900390625">
        <ele>3938</ele>
        <time>2023-07-29T15:09:26.000Z</time>
        <extensions>
          <ns3:TrackPointExtension>
            <ns3:hr>82</ns3:hr>
            <ns3:cad>0</ns3:cad>
          </ns3:TrackPointExtension>
        </extensions>
      </trkpt>
      <trkpt lat="37.7733135223388671875" lon="-107.7022598125040531158447265625">
        <ele>3937.800048828125</ele>
        <time>2023-07-29T15:09:27.000Z</time>
        <extensions>
          <ns3:TrackPointExtension>
            <ns3:hr>82</ns3:hr>
            <ns3:cad>0</ns3:cad>
          </ns3:TrackPointExtension>
        </extensions>
      </trkpt>
      <trkpt lat="37.77332031168043613433837890625" lon="-107.7022524364292621612548828125">
        <ele>3937.800048828125</ele>
        <time>2023-07-29T15:09:28.000Z</time>
        <extensions>
          <ns3:TrackPointExtension>
            <ns3:hr>81</ns3:hr>
            <ns3:cad>0</ns3:cad>
          </ns3:TrackPointExtension>
        </extensions>
      </trkpt>
      <trkpt lat="37.77332760393619537353515625" lon="-107.70224346779286861419677734375">
        <ele>3937.60009765625</ele>
        <time>2023-07-29T15:09:29.000Z</time>
        <extensions>
          <ns3:TrackPointExtension>
            <ns3:hr>81</ns3:hr>
            <ns3:cad>0</ns3:cad>
          </ns3:TrackPointExtension>
        </extensions>
      </trkpt>
      <trkpt lat="37.77334026060998439788818359375" lon="-107.70223055966198444366455078125">
        <ele>3937.199951171875</ele>
        <time>2023-07-29T15:09:30.000Z</time>
        <extensions>
          <ns3:TrackPointExtension>
            <ns3:hr>81</ns3:hr>
            <ns3:cad>57</ns3:cad>
          </ns3:TrackPointExtension>
        </extensions>
      </trkpt>
      <trkpt lat="37.773347385227680206298828125" lon="-107.7022232674062252044677734375">
        <ele>3937</ele>
        <time>2023-07-29T15:09:31.000Z</time>
        <extensions>
          <ns3:TrackPointExtension>
            <ns3:hr>80</ns3:hr>
            <ns3:cad>57</ns3:cad>
          </ns3:TrackPointExtension>
        </extensions>
      </trkpt>
      <trkpt lat="37.77335383929312229156494140625" lon="-107.70221496932208538055419921875">
        <ele>3936.800048828125</ele>
        <time>2023-07-29T15:09:32.000Z</time>
        <extensions>
          <ns3:TrackPointExtension>
            <ns3:hr>79</ns3:hr>
            <ns3:cad>57</ns3:cad>
          </ns3:TrackPointExtension>
        </extensions>
      </trkpt>
      <trkpt lat="37.77336037717759609222412109375" lon="-107.702206335961818695068359375">
        <ele>3936.39990234375</ele>
        <time>2023-07-29T15:09:33.000Z</time>
        <extensions>
          <ns3:TrackPointExtension>
            <ns3:hr>78</ns3:hr>
            <ns3:cad>57</ns3:cad>
          </ns3:TrackPointExtension>
        </extensions>
      </trkpt>
      <trkpt lat="37.77336624450981616973876953125" lon="-107.7021991275250911712646484375">
        <ele>3936.199951171875</ele>
        <time>2023-07-29T15:09:34.000Z</time>
        <extensions>
          <ns3:TrackPointExtension>
            <ns3:hr>78</ns3:hr>
            <ns3:cad>57</ns3:cad>
          </ns3:TrackPointExtension>
        </extensions>
      </trkpt>
      <trkpt lat="37.77337261475622653961181640625" lon="-107.70219267345964908599853515625">
        <ele>3936</ele>
        <time>2023-07-29T15:09:35.000Z</time>
        <extensions>
          <ns3:TrackPointExtension>
            <ns3:hr>78</ns3:hr>
            <ns3:cad>15</ns3:cad>
          </ns3:TrackPointExtension>
        </extensions>
      </trkpt>
      <trkpt lat="37.77337982319295406341552734375" lon="-107.70218856632709503173828125">
        <ele>3936</ele>
        <time>2023-07-29T15:09:36.000Z</time>
        <extensions>
          <ns3:TrackPointExtension>
            <ns3:hr>78</ns3:hr>
            <ns3:cad>0</ns3:cad>
          </ns3:TrackPointExtension>
        </extensions>
      </trkpt>
      <trkpt lat="37.77338786981999874114990234375" lon="-107.70218295045197010040283203125">
        <ele>3935.800048828125</ele>
        <time>2023-07-29T15:09:37.000Z</time>
        <extensions>
          <ns3:TrackPointExtension>
            <ns3:hr>78</ns3:hr>
            <ns3:cad>0</ns3:cad>
          </ns3:TrackPointExtension>
        </extensions>
      </trkpt>
      <trkpt lat="37.77339859865605831146240234375" lon="-107.702176831662654876708984375">
        <ele>3935.60009765625</ele>
        <time>2023-07-29T15:09:38.000Z</time>
        <extensions>
          <ns3:TrackPointExtension>
            <ns3:hr>78</ns3:hr>
            <ns3:cad>0</ns3:cad>
          </ns3:TrackPointExtension>
        </extensions>
      </trkpt>
      <trkpt lat="37.77341066859662532806396484375" lon="-107.70217205397784709930419921875">
        <ele>3935.39990234375</ele>
        <time>2023-07-29T15:09:39.000Z</time>
        <extensions>
          <ns3:TrackPointExtension>
            <ns3:hr>78</ns3:hr>
            <ns3:cad>0</ns3:cad>
          </ns3:TrackPointExtension>
        </extensions>
      </trkpt>
      <trkpt lat="37.77341837994754314422607421875" lon="-107.7021692879498004913330078125">
        <ele>3935.199951171875</ele>
        <time>2023-07-29T15:09:40.000Z</time>
        <extensions>
          <ns3:TrackPointExtension>
            <ns3:hr>78</ns3:hr>
            <ns3:cad>0</ns3:cad>
          </ns3:TrackPointExtension>
        </extensions>
      </trkpt>
      <trkpt lat="37.77342692948877811431884765625" lon="-107.7021629177033901214599609375">
        <ele>3935</ele>
        <time>2023-07-29T15:09:41.000Z</time>
        <extensions>
          <ns3:TrackPointExtension>
            <ns3:hr>77</ns3:hr>
            <ns3:cad>0</ns3:cad>
          </ns3:TrackPointExtension>
        </extensions>
      </trkpt>
      <trkpt lat="37.773436568677425384521484375" lon="-107.70215696655213832855224609375">
        <ele>3934.800048828125</ele>
        <time>2023-07-29T15:09:42.000Z</time>
        <extensions>
          <ns3:TrackPointExtension>
            <ns3:hr>78</ns3:hr>
            <ns3:cad>60</ns3:cad>
          </ns3:TrackPointExtension>
        </extensions>
      </trkpt>
      <trkpt lat="37.773442603647708892822265625" lon="-107.7021528594195842742919921875">
        <ele>3934.60009765625</ele>
        <time>2023-07-29T15:09:43.000Z</time>
        <extensions>
          <ns3:TrackPointExtension>
            <ns3:hr>77</ns3:hr>
            <ns3:cad>60</ns3:cad>
          </ns3:TrackPointExtension>
        </extensions>
      </trkpt>
      <trkpt lat="37.77344763278961181640625" lon="-107.7021495066583156585693359375">
        <ele>3934.199951171875</ele>
        <time>2023-07-29T15:09:44.000Z</time>
        <extensions>
          <ns3:TrackPointExtension>
            <ns3:hr>77</ns3:hr>
            <ns3:cad>60</ns3:cad>
          </ns3:TrackPointExtension>
        </extensions>
      </trkpt>
      <trkpt lat="37.773451991379261016845703125" lon="-107.7021468244493007659912109375">
        <ele>3934</ele>
        <time>2023-07-29T15:09:45.000Z</time>
        <extensions>
          <ns3:TrackPointExtension>
            <ns3:hr>77</ns3:hr>
            <ns3:cad>60</ns3:cad>
          </ns3:TrackPointExtension>
        </extensions>
      </trkpt>
      <trkpt lat="37.7734511531889438629150390625" lon="-107.70214774645864963531494140625">
        <ele>3933.800048828125</ele>
        <time>2023-07-29T15:09:46.000Z</time>
        <extensions>
          <ns3:TrackPointExtension>
            <ns3:hr>77</ns3:hr>
            <ns3:cad>63</ns3:cad>
          </ns3:TrackPointExtension>
        </extensions>
      </trkpt>
      <trkpt lat="37.77345425449311733245849609375" lon="-107.70214841701090335845947265625">
        <ele>3933.800048828125</ele>
        <time>2023-07-29T15:09:47.000Z</time>
        <extensions>
          <ns3:TrackPointExtension>
            <ns3:hr>77</ns3:hr>
            <ns3:cad>63</ns3:cad>
          </ns3:TrackPointExtension>
        </extensions>
      </trkpt>
      <trkpt lat="37.7734575234353542327880859375" lon="-107.7021485008299350738525390625">
        <ele>3933.60009765625</ele>
        <time>2023-07-29T15:09:48.000Z</time>
        <extensions>
          <ns3:TrackPointExtension>
            <ns3:hr>76</ns3:hr>
            <ns3:cad>0</ns3:cad>
          </ns3:TrackPointExtension>
        </extensions>
      </trkpt>
      <trkpt lat="37.773458696901798248291015625" lon="-107.7021491713821887969970703125">
        <ele>3933.199951171875</ele>
        <time>2023-07-29T15:09:49.000Z</time>
        <extensions>
          <ns3:TrackPointExtension>
            <ns3:hr>76</ns3:hr>
            <ns3:cad>0</ns3:cad>
          </ns3:TrackPointExtension>
        </extensions>
      </trkpt>
      <trkpt lat="37.773461379110813140869140625" lon="-107.7021488361060619354248046875">
        <ele>3933</ele>
        <time>2023-07-29T15:09:50.000Z</time>
        <extensions>
          <ns3:TrackPointExtension>
            <ns3:hr>76</ns3:hr>
            <ns3:cad>0</ns3:cad>
          </ns3:TrackPointExtension>
        </extensions>
      </trkpt>
      <trkpt lat="37.7734645642340183258056640625" lon="-107.7021481655538082122802734375">
        <ele>3933</ele>
        <time>2023-07-29T15:09:51.000Z</time>
        <extensions>
          <ns3:TrackPointExtension>
            <ns3:hr>76</ns3:hr>
            <ns3:cad>0</ns3:cad>
          </ns3:TrackPointExtension>
        </extensions>
      </trkpt>
      <trkpt lat="37.773469425737857818603515625" lon="-107.7021464891731739044189453125">
        <ele>3933</ele>
        <time>2023-07-29T15:09:52.000Z</time>
        <extensions>
          <ns3:TrackPointExtension>
            <ns3:hr>77</ns3:hr>
            <ns3:cad>0</ns3:cad>
          </ns3:TrackPointExtension>
        </extensions>
      </trkpt>
      <trkpt lat="37.77347420342266559600830078125" lon="-107.7021444775164127349853515625">
        <ele>3933</ele>
        <time>2023-07-29T15:09:53.000Z</time>
        <extensions>
          <ns3:TrackPointExtension>
            <ns3:hr>77</ns3:hr>
            <ns3:cad>0</ns3:cad>
          </ns3:TrackPointExtension>
        </extensions>
      </trkpt>
      <trkpt lat="37.77347638271749019622802734375" lon="-107.70214372314512729644775390625">
        <ele>3933</ele>
        <time>2023-07-29T15:09:54.000Z</time>
        <extensions>
          <ns3:TrackPointExtension>
            <ns3:hr>77</ns3:hr>
            <ns3:cad>0</ns3:cad>
          </ns3:TrackPointExtension>
        </extensions>
      </trkpt>
      <trkpt lat="37.7734826691448688507080078125" lon="-107.7021401189267635345458984375">
        <ele>3933</ele>
        <time>2023-07-29T15:09:55.000Z</time>
        <extensions>
          <ns3:TrackPointExtension>
            <ns3:hr>76</ns3:hr>
            <ns3:cad>0</ns3:cad>
          </ns3:TrackPointExtension>
        </extensions>
      </trkpt>
      <trkpt lat="37.77349046431481838226318359375" lon="-107.702136598527431488037109375">
        <ele>3933</ele>
        <time>2023-07-29T15:09:56.000Z</time>
        <extensions>
          <ns3:TrackPointExtension>
            <ns3:hr>76</ns3:hr>
            <ns3:cad>0</ns3:cad>
          </ns3:TrackPointExtension>
        </extensions>
      </trkpt>
      <trkpt lat="37.77349784038960933685302734375" lon="-107.70213215611875057220458984375">
        <ele>3933</ele>
        <time>2023-07-29T15:09:57.000Z</time>
        <extensions>
          <ns3:TrackPointExtension>
            <ns3:hr>74</ns3:hr>
            <ns3:cad>0</ns3:cad>
          </ns3:TrackPointExtension>
        </extensions>
      </trkpt>
      <trkpt lat="37.77350286953151226043701171875" lon="-107.70212746225297451019287109375">
        <ele>3932.800048828125</ele>
        <time>2023-07-29T15:09:58.000Z</time>
        <extensions>
          <ns3:TrackPointExtension>
            <ns3:hr>74</ns3:hr>
            <ns3:cad>0</ns3:cad>
          </ns3:TrackPointExtension>
        </extensions>
      </trkpt>
      <trkpt lat="37.77350991033017635345458984375" lon="-107.702123187482357025146484375">
        <ele>3932.60009765625</ele>
        <time>2023-07-29T15:09:59.000Z</time>
        <extensions>
          <ns3:TrackPointExtension>
            <ns3:hr>74</ns3:hr>
            <ns3:cad>62</ns3:cad>
          </ns3:TrackPointExtension>
        </extensions>
      </trkpt>
      <trkpt lat="37.77352164499461650848388671875" lon="-107.70211773924529552459716796875">
        <ele>3932.60009765625</ele>
        <time>2023-07-29T15:10:00.000Z</time>
        <extensions>
          <ns3:TrackPointExtension>
            <ns3:hr>74</ns3:hr>
            <ns3:cad>62</ns3:cad>
          </ns3:TrackPointExtension>
        </extensions>
      </trkpt>
      <trkpt lat="37.7735294401645660400390625" lon="-107.70211480557918548583984375">
        <ele>3932.39990234375</ele>
        <time>2023-07-29T15:10:01.000Z</time>
        <extensions>
          <ns3:TrackPointExtension>
            <ns3:hr>74</ns3:hr>
            <ns3:cad>61</ns3:cad>
          </ns3:TrackPointExtension>
        </extensions>
      </trkpt>
      <trkpt lat="37.773533128201961517333984375" lon="-107.7021146379411220550537109375">
        <ele>3932.199951171875</ele>
        <time>2023-07-29T15:10:02.000Z</time>
        <extensions>
          <ns3:TrackPointExtension>
            <ns3:hr>74</ns3:hr>
            <ns3:cad>61</ns3:cad>
          </ns3:TrackPointExtension>
        </extensions>
      </trkpt>
      <trkpt lat="37.77353891171514987945556640625" lon="-107.7021139673888683319091796875">
        <ele>3931.800048828125</ele>
        <time>2023-07-29T15:10:03.000Z</time>
        <extensions>
          <ns3:TrackPointExtension>
            <ns3:hr>75</ns3:hr>
            <ns3:cad>62</ns3:cad>
          </ns3:TrackPointExtension>
        </extensions>
      </trkpt>
      <trkpt lat="37.77354528196156024932861328125" lon="-107.70211254246532917022705078125">
        <ele>3931.800048828125</ele>
        <time>2023-07-29T15:10:04.000Z</time>
        <extensions>
          <ns3:TrackPointExtension>
            <ns3:hr>75</ns3:hr>
            <ns3:cad>62</ns3:cad>
          </ns3:TrackPointExtension>
        </extensions>
      </trkpt>
      <trkpt lat="37.77355466969311237335205078125" lon="-107.70210952498018741607666015625">
        <ele>3931.60009765625</ele>
        <time>2023-07-29T15:10:05.000Z</time>
        <extensions>
          <ns3:TrackPointExtension>
            <ns3:hr>75</ns3:hr>
            <ns3:cad>62</ns3:cad>
          </ns3:TrackPointExtension>
        </extensions>
      </trkpt>
      <trkpt lat="37.77356439270079135894775390625" lon="-107.7021072618663311004638671875">
        <ele>3931.60009765625</ele>
        <time>2023-07-29T15:10:06.000Z</time>
        <extensions>
          <ns3:TrackPointExtension>
            <ns3:hr>76</ns3:hr>
            <ns3:cad>62</ns3:cad>
          </ns3:TrackPointExtension>
        </extensions>
      </trkpt>
      <trkpt lat="37.77357193641364574432373046875" lon="-107.702102400362491607666015625">
        <ele>3931.39990234375</ele>
        <time>2023-07-29T15:10:07.000Z</time>
        <extensions>
          <ns3:TrackPointExtension>
            <ns3:hr>76</ns3:hr>
            <ns3:cad>62</ns3:cad>
          </ns3:TrackPointExtension>
        </extensions>
      </trkpt>
      <trkpt lat="37.77357713319361209869384765625" lon="-107.70209879614412784576416015625">
        <ele>3931</ele>
        <time>2023-07-29T15:10:08.000Z</time>
        <extensions>
          <ns3:TrackPointExtension>
            <ns3:hr>76</ns3:hr>
            <ns3:cad>62</ns3:cad>
          </ns3:TrackPointExtension>
        </extensions>
      </trkpt>
      <trkpt lat="37.7735825814306735992431640625" lon="-107.7020955272018909454345703125">
        <ele>3930.60009765625</ele>
        <time>2023-07-29T15:10:09.000Z</time>
        <extensions>
          <ns3:TrackPointExtension>
            <ns3:hr>76</ns3:hr>
            <ns3:cad>62</ns3:cad>
          </ns3:TrackPointExtension>
        </extensions>
      </trkpt>
      <trkpt lat="37.77358953841030597686767578125" lon="-107.70208806730806827545166015625">
        <ele>3930.39990234375</ele>
        <time>2023-07-29T15:10:10.000Z</time>
        <extensions>
          <ns3:TrackPointExtension>
            <ns3:hr>77</ns3:hr>
            <ns3:cad>62</ns3:cad>
          </ns3:TrackPointExtension>
        </extensions>
      </trkpt>
      <trkpt lat="37.77359825558960437774658203125" lon="-107.702079601585865020751953125">
        <ele>3930</ele>
        <time>2023-07-29T15:10:11.000Z</time>
        <extensions>
          <ns3:TrackPointExtension>
            <ns3:hr>77</ns3:hr>
            <ns3:cad>62</ns3:cad>
          </ns3:TrackPointExtension>
        </extensions>
      </trkpt>
      <trkpt lat="37.7736053802073001861572265625" lon="-107.702069543302059173583984375">
        <ele>3929.800048828125</ele>
        <time>2023-07-29T15:10:12.000Z</time>
        <extensions>
          <ns3:TrackPointExtension>
            <ns3:hr>78</ns3:hr>
            <ns3:cad>62</ns3:cad>
          </ns3:TrackPointExtension>
        </extensions>
      </trkpt>
      <trkpt lat="37.77361099608242511749267578125" lon="-107.70205923356115818023681640625">
        <ele>3929.60009765625</ele>
        <time>2023-07-29T15:10:13.000Z</time>
        <extensions>
          <ns3:TrackPointExtension>
            <ns3:hr>78</ns3:hr>
            <ns3:cad>62</ns3:cad>
          </ns3:TrackPointExtension>
        </extensions>
      </trkpt>
      <trkpt lat="37.77362206019461154937744140625" lon="-107.70204749889671802520751953125">
        <ele>3929.39990234375</ele>
        <time>2023-07-29T15:10:14.000Z</time>
        <extensions>
          <ns3:TrackPointExtension>
            <ns3:hr>79</ns3:hr>
            <ns3:cad>62</ns3:cad>
          </ns3:TrackPointExtension>
        </extensions>
      </trkpt>
      <trkpt lat="37.77362675406038761138916015625" lon="-107.70204104483127593994140625">
        <ele>3929.199951171875</ele>
        <time>2023-07-29T15:10:15.000Z</time>
        <extensions>
          <ns3:TrackPointExtension>
            <ns3:hr>79</ns3:hr>
            <ns3:cad>62</ns3:cad>
          </ns3:TrackPointExtension>
        </extensions>
      </trkpt>
      <trkpt lat="37.7736291848123073577880859375" lon="-107.70203811116516590118408203125">
        <ele>3929</ele>
        <time>2023-07-29T15:10:16.000Z</time>
        <extensions>
          <ns3:TrackPointExtension>
            <ns3:hr>80</ns3:hr>
            <ns3:cad>62</ns3:cad>
          </ns3:TrackPointExtension>
        </extensions>
      </trkpt>
      <trkpt lat="37.77363781817257404327392578125" lon="-107.7020314894616603851318359375">
        <ele>3928.800048828125</ele>
        <time>2023-07-29T15:10:17.000Z</time>
        <extensions>
          <ns3:TrackPointExtension>
            <ns3:hr>81</ns3:hr>
            <ns3:cad>62</ns3:cad>
          </ns3:TrackPointExtension>
        </extensions>
      </trkpt>
      <trkpt lat="37.773641757667064666748046875" lon="-107.70203039981424808502197265625">
        <ele>3928.60009765625</ele>
        <time>2023-07-29T15:10:18.000Z</time>
        <extensions>
          <ns3:TrackPointExtension>
            <ns3:hr>81</ns3:hr>
            <ns3:cad>62</ns3:cad>
          </ns3:TrackPointExtension>
        </extensions>
      </trkpt>
      <trkpt lat="37.7736459486186504364013671875" lon="-107.70202889107167720794677734375">
        <ele>3928.39990234375</ele>
        <time>2023-07-29T15:10:19.000Z</time>
        <extensions>
          <ns3:TrackPointExtension>
            <ns3:hr>81</ns3:hr>
            <ns3:cad>62</ns3:cad>
          </ns3:TrackPointExtension>
        </extensions>
      </trkpt>
      <trkpt lat="37.773653157055377960205078125" lon="-107.7020224370062351226806640625">
        <ele>3928.39990234375</ele>
        <time>2023-07-29T15:10:20.000Z</time>
        <extensions>
          <ns3:TrackPointExtension>
            <ns3:hr>81</ns3:hr>
            <ns3:cad>62</ns3:cad>
          </ns3:TrackPointExtension>
        </extensions>
      </trkpt>
      <trkpt lat="37.773661874234676361083984375" lon="-107.70201212726533412933349609375">
        <ele>3928</ele>
        <time>2023-07-29T15:10:21.000Z</time>
        <extensions>
          <ns3:TrackPointExtension>
            <ns3:hr>81</ns3:hr>
            <ns3:cad>62</ns3:cad>
          </ns3:TrackPointExtension>
        </extensions>
      </trkpt>
      <trkpt lat="37.77366983704268932342529296875" lon="-107.7020029909908771514892578125">
        <ele>3927.60009765625</ele>
        <time>2023-07-29T15:10:22.000Z</time>
        <extensions>
          <ns3:TrackPointExtension>
            <ns3:hr>81</ns3:hr>
            <ns3:cad>62</ns3:cad>
          </ns3:TrackPointExtension>
        </extensions>
      </trkpt>
      <trkpt lat="37.77368031442165374755859375" lon="-107.70199335180222988128662109375">
        <ele>3927.60009765625</ele>
        <time>2023-07-29T15:10:23.000Z</time>
        <extensions>
          <ns3:TrackPointExtension>
            <ns3:hr>82</ns3:hr>
            <ns3:cad>62</ns3:cad>
          </ns3:TrackPointExtension>
        </extensions>
      </trkpt>
      <trkpt lat="37.77369230054318904876708984375" lon="-107.70198279060423374176025390625">
        <ele>3927.39990234375</ele>
        <time>2023-07-29T15:10:24.000Z</time>
        <extensions>
          <ns3:TrackPointExtension>
            <ns3:hr>82</ns3:hr>
            <ns3:cad>62</ns3:cad>
          </ns3:TrackPointExtension>
        </extensions>
      </trkpt>
      <trkpt lat="37.773697078227996826171875" lon="-107.70197801291942596435546875">
        <ele>3927</ele>
        <time>2023-07-29T15:10:25.000Z</time>
        <extensions>
          <ns3:TrackPointExtension>
            <ns3:hr>82</ns3:hr>
            <ns3:cad>0</ns3:cad>
          </ns3:TrackPointExtension>
        </extensions>
      </trkpt>
      <trkpt lat="37.77370688505470752716064453125" lon="-107.70196787081658840179443359375">
        <ele>3926.800048828125</ele>
        <time>2023-07-29T15:10:26.000Z</time>
        <extensions>
          <ns3:TrackPointExtension>
            <ns3:hr>83</ns3:hr>
            <ns3:cad>0</ns3:cad>
          </ns3:TrackPointExtension>
        </extensions>
      </trkpt>
      <trkpt lat="37.77371275238692760467529296875" lon="-107.701964266598224639892578125">
        <ele>3926.800048828125</ele>
        <time>2023-07-29T15:10:27.000Z</time>
        <extensions>
          <ns3:TrackPointExtension>
            <ns3:hr>83</ns3:hr>
            <ns3:cad>0</ns3:cad>
          </ns3:TrackPointExtension>
        </extensions>
      </trkpt>
      <trkpt lat="37.77371526695787906646728515625" lon="-107.70196217112243175506591796875">
        <ele>3926.39990234375</ele>
        <time>2023-07-29T15:10:28.000Z</time>
        <extensions>
          <ns3:TrackPointExtension>
            <ns3:hr>83</ns3:hr>
            <ns3:cad>0</ns3:cad>
          </ns3:TrackPointExtension>
        </extensions>
      </trkpt>
      <trkpt lat="37.773714847862720489501953125" lon="-107.7019583992660045623779296875">
        <ele>3926.199951171875</ele>
        <time>2023-07-29T15:10:29.000Z</time>
        <extensions>
          <ns3:TrackPointExtension>
            <ns3:hr>84</ns3:hr>
            <ns3:cad>0</ns3:cad>
          </ns3:TrackPointExtension>
        </extensions>
      </trkpt>
      <trkpt lat="37.77371786534786224365234375" lon="-107.7019532024860382080078125">
        <ele>3926</ele>
        <time>2023-07-29T15:10:30.000Z</time>
        <extensions>
          <ns3:TrackPointExtension>
            <ns3:hr>84</ns3:hr>
            <ns3:cad>0</ns3:cad>
          </ns3:TrackPointExtension>
        </extensions>
      </trkpt>
      <trkpt lat="37.77371744625270366668701171875" lon="-107.701948843896389007568359375">
        <ele>3925.800048828125</ele>
        <time>2023-07-29T15:10:31.000Z</time>
        <extensions>
          <ns3:TrackPointExtension>
            <ns3:hr>84</ns3:hr>
            <ns3:cad>0</ns3:cad>
          </ns3:TrackPointExtension>
        </extensions>
      </trkpt>
      <trkpt lat="37.77372364886105060577392578125" lon="-107.7019456587731838226318359375">
        <ele>3925.800048828125</ele>
        <time>2023-07-29T15:10:32.000Z</time>
        <extensions>
          <ns3:TrackPointExtension>
            <ns3:hr>84</ns3:hr>
            <ns3:cad>0</ns3:cad>
          </ns3:TrackPointExtension>
        </extensions>
      </trkpt>
      <trkpt lat="37.7737264148890972137451171875" lon="-107.70194104872643947601318359375">
        <ele>3925.39990234375</ele>
        <time>2023-07-29T15:10:33.000Z</time>
        <extensions>
          <ns3:TrackPointExtension>
            <ns3:hr>84</ns3:hr>
            <ns3:cad>0</ns3:cad>
          </ns3:TrackPointExtension>
        </extensions>
      </trkpt>
      <trkpt lat="37.7737254090607166290283203125" lon="-107.7019419707357883453369140625">
        <ele>3925.39990234375</ele>
        <time>2023-07-29T15:10:34.000Z</time>
        <extensions>
          <ns3:TrackPointExtension>
            <ns3:hr>84</ns3:hr>
            <ns3:cad>0</ns3:cad>
          </ns3:TrackPointExtension>
        </extensions>
      </trkpt>
      <trkpt lat="37.77373127639293670654296875" lon="-107.7019429765641689300537109375">
        <ele>3925</ele>
        <time>2023-07-29T15:10:35.000Z</time>
        <extensions>
          <ns3:TrackPointExtension>
            <ns3:hr>84</ns3:hr>
            <ns3:cad>0</ns3:cad>
          </ns3:TrackPointExtension>
        </extensions>
      </trkpt>
      <trkpt lat="37.77373555116355419158935546875" lon="-107.70194448530673980712890625">
        <ele>3924.800048828125</ele>
        <time>2023-07-29T15:10:36.000Z</time>
        <extensions>
          <ns3:TrackPointExtension>
            <ns3:hr>84</ns3:hr>
            <ns3:cad>0</ns3:cad>
          </ns3:TrackPointExtension>
        </extensions>
      </trkpt>
      <trkpt lat="37.7737404964864253997802734375" lon="-107.70194373093545436859130859375">
        <ele>3924.60009765625</ele>
        <time>2023-07-29T15:10:37.000Z</time>
        <extensions>
          <ns3:TrackPointExtension>
            <ns3:hr>84</ns3:hr>
            <ns3:cad>0</ns3:cad>
          </ns3:TrackPointExtension>
        </extensions>
      </trkpt>
      <trkpt lat="37.7737466990947723388671875" lon="-107.70194205455482006072998046875">
        <ele>3924.39990234375</ele>
        <time>2023-07-29T15:10:38.000Z</time>
        <extensions>
          <ns3:TrackPointExtension>
            <ns3:hr>84</ns3:hr>
            <ns3:cad>0</ns3:cad>
          </ns3:TrackPointExtension>
        </extensions>
      </trkpt>
      <trkpt lat="37.77375164441764354705810546875" lon="-107.70194104872643947601318359375">
        <ele>3924.39990234375</ele>
        <time>2023-07-29T15:10:39.000Z</time>
        <extensions>
          <ns3:TrackPointExtension>
            <ns3:hr>84</ns3:hr>
            <ns3:cad>0</ns3:cad>
          </ns3:TrackPointExtension>
        </extensions>
      </trkpt>
      <trkpt lat="37.773751728236675262451171875" lon="-107.701940797269344329833984375">
        <ele>3924</ele>
        <time>2023-07-29T15:10:40.000Z</time>
        <extensions>
          <ns3:TrackPointExtension>
            <ns3:hr>85</ns3:hr>
            <ns3:cad>0</ns3:cad>
          </ns3:TrackPointExtension>
        </extensions>
      </trkpt>
      <trkpt lat="37.77375147677958011627197265625" lon="-107.7019389532506465911865234375">
        <ele>3924</ele>
        <time>2023-07-29T15:10:41.000Z</time>
        <extensions>
          <ns3:TrackPointExtension>
            <ns3:hr>85</ns3:hr>
            <ns3:cad>0</ns3:cad>
          </ns3:TrackPointExtension>
        </extensions>
      </trkpt>
      <trkpt lat="37.7737534046173095703125" lon="-107.70193618722259998321533203125">
        <ele>3923.60009765625</ele>
        <time>2023-07-29T15:10:42.000Z</time>
        <extensions>
          <ns3:TrackPointExtension>
            <ns3:hr>86</ns3:hr>
            <ns3:cad>0</ns3:cad>
          </ns3:TrackPointExtension>
        </extensions>
      </trkpt>
      <trkpt lat="37.7737602777779102325439453125" lon="-107.701931409537792205810546875">
        <ele>3923.39990234375</ele>
        <time>2023-07-29T15:10:43.000Z</time>
        <extensions>
          <ns3:TrackPointExtension>
            <ns3:hr>86</ns3:hr>
            <ns3:cad>0</ns3:cad>
          </ns3:TrackPointExtension>
        </extensions>
      </trkpt>
      <trkpt lat="37.77376622892916202545166015625" lon="-107.701929397881031036376953125">
        <ele>3923</ele>
        <time>2023-07-29T15:10:44.000Z</time>
        <extensions>
          <ns3:TrackPointExtension>
            <ns3:hr>87</ns3:hr>
            <ns3:cad>0</ns3:cad>
          </ns3:TrackPointExtension>
        </extensions>
      </trkpt>
      <trkpt lat="37.7737757004797458648681640625" lon="-107.70192294381558895111083984375">
        <ele>3922.800048828125</ele>
        <time>2023-07-29T15:10:45.000Z</time>
        <extensions>
          <ns3:TrackPointExtension>
            <ns3:hr>87</ns3:hr>
            <ns3:cad>0</ns3:cad>
          </ns3:TrackPointExtension>
        </extensions>
      </trkpt>
      <trkpt lat="37.773781903088092803955078125" lon="-107.7019198425114154815673828125">
        <ele>3922.800048828125</ele>
        <time>2023-07-29T15:10:46.000Z</time>
        <extensions>
          <ns3:TrackPointExtension>
            <ns3:hr>88</ns3:hr>
            <ns3:cad>0</ns3:cad>
          </ns3:TrackPointExtension>
        </extensions>
      </trkpt>
      <trkpt lat="37.77379439212381839752197265625" lon="-107.70191523246467113494873046875">
        <ele>3922.39990234375</ele>
        <time>2023-07-29T15:10:47.000Z</time>
        <extensions>
          <ns3:TrackPointExtension>
            <ns3:hr>88</ns3:hr>
            <ns3:cad>0</ns3:cad>
          </ns3:TrackPointExtension>
        </extensions>
      </trkpt>
      <trkpt lat="37.77380277402698993682861328125" lon="-107.7019148133695125579833984375">
        <ele>3922.199951171875</ele>
        <time>2023-07-29T15:10:48.000Z</time>
        <extensions>
          <ns3:TrackPointExtension>
            <ns3:hr>88</ns3:hr>
            <ns3:cad>0</ns3:cad>
          </ns3:TrackPointExtension>
        </extensions>
      </trkpt>
      <trkpt lat="37.77380914427340030670166015625" lon="-107.70191573537886142730712890625">
        <ele>3922.199951171875</ele>
        <time>2023-07-29T15:10:49.000Z</time>
        <extensions>
          <ns3:TrackPointExtension>
            <ns3:hr>88</ns3:hr>
            <ns3:cad>0</ns3:cad>
          </ns3:TrackPointExtension>
        </extensions>
      </trkpt>
      <trkpt lat="37.7738139219582080841064453125" lon="-107.7019174955785274505615234375">
        <ele>3922</ele>
        <time>2023-07-29T15:10:50.000Z</time>
        <extensions>
          <ns3:TrackPointExtension>
            <ns3:hr>89</ns3:hr>
            <ns3:cad>0</ns3:cad>
          </ns3:TrackPointExtension>
        </extensions>
      </trkpt>
      <trkpt lat="37.7738159336149692535400390625" lon="-107.70191757939755916595458984375">
        <ele>3921.800048828125</ele>
        <time>2023-07-29T15:10:51.000Z</time>
        <extensions>
          <ns3:TrackPointExtension>
            <ns3:hr>89</ns3:hr>
            <ns3:cad>0</ns3:cad>
          </ns3:TrackPointExtension>
        </extensions>
      </trkpt>
      <trkpt lat="37.77382255531847476959228515625" lon="-107.70191858522593975067138671875">
        <ele>3921.60009765625</ele>
        <time>2023-07-29T15:10:52.000Z</time>
        <extensions>
          <ns3:TrackPointExtension>
            <ns3:hr>89</ns3:hr>
            <ns3:cad>0</ns3:cad>
          </ns3:TrackPointExtension>
        </extensions>
      </trkpt>
      <trkpt lat="37.77383185923099517822265625" lon="-107.7019156515598297119140625">
        <ele>3921.39990234375</ele>
        <time>2023-07-29T15:10:53.000Z</time>
        <extensions>
          <ns3:TrackPointExtension>
            <ns3:hr>89</ns3:hr>
            <ns3:cad>0</ns3:cad>
          </ns3:TrackPointExtension>
        </extensions>
      </trkpt>
      <trkpt lat="37.77384082786738872528076171875" lon="-107.70191556774079799652099609375">
        <ele>3921.199951171875</ele>
        <time>2023-07-29T15:10:54.000Z</time>
        <extensions>
          <ns3:TrackPointExtension>
            <ns3:hr>89</ns3:hr>
            <ns3:cad>0</ns3:cad>
          </ns3:TrackPointExtension>
        </extensions>
      </trkpt>
      <trkpt lat="37.7738471142947673797607421875" lon="-107.701913975179195404052734375">
        <ele>3921</ele>
        <time>2023-07-29T15:10:55.000Z</time>
        <extensions>
          <ns3:TrackPointExtension>
            <ns3:hr>88</ns3:hr>
            <ns3:cad>0</ns3:cad>
          </ns3:TrackPointExtension>
        </extensions>
      </trkpt>
      <trkpt lat="37.7738528139889240264892578125" lon="-107.70190986804664134979248046875">
        <ele>3920.800048828125</ele>
        <time>2023-07-29T15:10:56.000Z</time>
        <extensions>
          <ns3:TrackPointExtension>
            <ns3:hr>88</ns3:hr>
            <ns3:cad>0</ns3:cad>
          </ns3:TrackPointExtension>
        </extensions>
      </trkpt>
      <trkpt lat="37.77385407127439975738525390625" lon="-107.701908610761165618896484375">
        <ele>3920.60009765625</ele>
        <time>2023-07-29T15:10:57.000Z</time>
        <extensions>
          <ns3:TrackPointExtension>
            <ns3:hr>89</ns3:hr>
            <ns3:cad>0</ns3:cad>
          </ns3:TrackPointExtension>
        </extensions>
      </trkpt>
      <trkpt lat="37.77385826222598552703857421875" lon="-107.70190685056149959564208984375">
        <ele>3920.39990234375</ele>
        <time>2023-07-29T15:10:58.000Z</time>
        <extensions>
          <ns3:TrackPointExtension>
            <ns3:hr>88</ns3:hr>
            <ns3:cad>0</ns3:cad>
          </ns3:TrackPointExtension>
        </extensions>
      </trkpt>
      <trkpt lat="37.7738655544817447662353515625" lon="-107.7019024081528186798095703125">
        <ele>3920.199951171875</ele>
        <time>2023-07-29T15:10:59.000Z</time>
        <extensions>
          <ns3:TrackPointExtension>
            <ns3:hr>88</ns3:hr>
            <ns3:cad>0</ns3:cad>
          </ns3:TrackPointExtension>
        </extensions>
      </trkpt>
      <trkpt lat="37.77387653477489948272705078125" lon="-107.70189411006867885589599609375">
        <ele>3919.800048828125</ele>
        <time>2023-07-29T15:11:00.000Z</time>
        <extensions>
          <ns3:TrackPointExtension>
            <ns3:hr>88</ns3:hr>
            <ns3:cad>0</ns3:cad>
          </ns3:TrackPointExtension>
        </extensions>
      </trkpt>
      <trkpt lat="37.773890532553195953369140625" lon="-107.70188388414680957794189453125">
        <ele>3919.60009765625</ele>
        <time>2023-07-29T15:11:01.000Z</time>
        <extensions>
          <ns3:TrackPointExtension>
            <ns3:hr>88</ns3:hr>
            <ns3:cad>0</ns3:cad>
          </ns3:TrackPointExtension>
        </extensions>
      </trkpt>
      <trkpt lat="37.7738950587809085845947265625" lon="-107.70187835209071636199951171875">
        <ele>3919.39990234375</ele>
        <time>2023-07-29T15:11:02.000Z</time>
        <extensions>
          <ns3:TrackPointExtension>
            <ns3:hr>88</ns3:hr>
            <ns3:cad>0</ns3:cad>
          </ns3:TrackPointExtension>
        </extensions>
      </trkpt>
      <trkpt lat="37.77389824390411376953125" lon="-107.70187365822494029998779296875">
        <ele>3919.199951171875</ele>
        <time>2023-07-29T15:11:03.000Z</time>
        <extensions>
          <ns3:TrackPointExtension>
            <ns3:hr>87</ns3:hr>
            <ns3:cad>0</ns3:cad>
          </ns3:TrackPointExtension>
        </extensions>
      </trkpt>
      <trkpt lat="37.77390520088374614715576171875" lon="-107.7018688805401325225830078125">
        <ele>3918.800048828125</ele>
        <time>2023-07-29T15:11:04.000Z</time>
        <extensions>
          <ns3:TrackPointExtension>
            <ns3:hr>87</ns3:hr>
            <ns3:cad>0</ns3:cad>
          </ns3:TrackPointExtension>
        </extensions>
      </trkpt>
      <trkpt lat="37.773910649120807647705078125" lon="-107.701863348484039306640625">
        <ele>3918.60009765625</ele>
        <time>2023-07-29T15:11:05.000Z</time>
        <extensions>
          <ns3:TrackPointExtension>
            <ns3:hr>87</ns3:hr>
            <ns3:cad>0</ns3:cad>
          </ns3:TrackPointExtension>
        </extensions>
      </trkpt>
      <trkpt lat="37.773909308016300201416015625" lon="-107.70186024717986583709716796875">
        <ele>3918.39990234375</ele>
        <time>2023-07-29T15:11:06.000Z</time>
        <extensions>
          <ns3:TrackPointExtension>
            <ns3:hr>87</ns3:hr>
            <ns3:cad>0</ns3:cad>
          </ns3:TrackPointExtension>
        </extensions>
      </trkpt>
      <trkpt lat="37.77392079122364521026611328125" lon="-107.70185119472444057464599609375">
        <ele>3918.199951171875</ele>
        <time>2023-07-29T15:11:07.000Z</time>
        <extensions>
          <ns3:TrackPointExtension>
            <ns3:hr>87</ns3:hr>
            <ns3:cad>0</ns3:cad>
          </ns3:TrackPointExtension>
        </extensions>
      </trkpt>
      <trkpt lat="37.77393235825002193450927734375" lon="-107.7018400467932224273681640625">
        <ele>3918</ele>
        <time>2023-07-29T15:11:08.000Z</time>
        <extensions>
          <ns3:TrackPointExtension>
            <ns3:hr>87</ns3:hr>
            <ns3:cad>0</ns3:cad>
          </ns3:TrackPointExtension>
        </extensions>
      </trkpt>
      <trkpt lat="37.7739413268864154815673828125" lon="-107.70183107815682888031005859375">
        <ele>3917.800048828125</ele>
        <time>2023-07-29T15:11:09.000Z</time>
        <extensions>
          <ns3:TrackPointExtension>
            <ns3:hr>87</ns3:hr>
            <ns3:cad>0</ns3:cad>
          </ns3:TrackPointExtension>
        </extensions>
      </trkpt>
      <trkpt lat="37.77394853532314300537109375" lon="-107.70182303152978420257568359375">
        <ele>3917.60009765625</ele>
        <time>2023-07-29T15:11:10.000Z</time>
        <extensions>
          <ns3:TrackPointExtension>
            <ns3:hr>87</ns3:hr>
            <ns3:cad>0</ns3:cad>
          </ns3:TrackPointExtension>
        </extensions>
      </trkpt>
      <trkpt lat="37.77395482175052165985107421875" lon="-107.70181280560791492462158203125">
        <ele>3917.39990234375</ele>
        <time>2023-07-29T15:11:11.000Z</time>
        <extensions>
          <ns3:TrackPointExtension>
            <ns3:hr>87</ns3:hr>
            <ns3:cad>0</ns3:cad>
          </ns3:TrackPointExtension>
        </extensions>
      </trkpt>
      <trkpt lat="37.7739624492824077606201171875" lon="-107.70179989747703075408935546875">
        <ele>3916.800048828125</ele>
        <time>2023-07-29T15:11:12.000Z</time>
        <extensions>
          <ns3:TrackPointExtension>
            <ns3:hr>88</ns3:hr>
            <ns3:cad>0</ns3:cad>
          </ns3:TrackPointExtension>
        </extensions>
      </trkpt>
      <trkpt lat="37.7739711664617061614990234375" lon="-107.701789252460002899169921875">
        <ele>3916.60009765625</ele>
        <time>2023-07-29T15:11:13.000Z</time>
        <extensions>
          <ns3:TrackPointExtension>
            <ns3:hr>87</ns3:hr>
            <ns3:cad>0</ns3:cad>
          </ns3:TrackPointExtension>
        </extensions>
      </trkpt>
      <trkpt lat="37.77397627942264080047607421875" lon="-107.701777517795562744140625">
        <ele>3916.60009765625</ele>
        <time>2023-07-29T15:11:14.000Z</time>
        <extensions>
          <ns3:TrackPointExtension>
            <ns3:hr>87</ns3:hr>
            <ns3:cad>0</ns3:cad>
          </ns3:TrackPointExtension>
        </extensions>
      </trkpt>
      <trkpt lat="37.7739775367081165313720703125" lon="-107.70177022553980350494384765625">
        <ele>3916.39990234375</ele>
        <time>2023-07-29T15:11:15.000Z</time>
        <extensions>
          <ns3:TrackPointExtension>
            <ns3:hr>87</ns3:hr>
            <ns3:cad>0</ns3:cad>
          </ns3:TrackPointExtension>
        </extensions>
      </trkpt>
      <trkpt lat="37.77398097328841686248779296875" lon="-107.70176368765532970428466796875">
        <ele>3916.199951171875</ele>
        <time>2023-07-29T15:11:16.000Z</time>
        <extensions>
          <ns3:TrackPointExtension>
            <ns3:hr>86</ns3:hr>
            <ns3:cad>0</ns3:cad>
          </ns3:TrackPointExtension>
        </extensions>
      </trkpt>
      <trkpt lat="37.7739842422306537628173828125" lon="-107.7017572335898876190185546875">
        <ele>3916</ele>
        <time>2023-07-29T15:11:17.000Z</time>
        <extensions>
          <ns3:TrackPointExtension>
            <ns3:hr>86</ns3:hr>
            <ns3:cad>0</ns3:cad>
          </ns3:TrackPointExtension>
        </extensions>
      </trkpt>
      <trkpt lat="37.7739912830293178558349609375" lon="-107.7017520368099212646484375">
        <ele>3916</ele>
        <time>2023-07-29T15:11:18.000Z</time>
        <extensions>
          <ns3:TrackPointExtension>
            <ns3:hr>85</ns3:hr>
            <ns3:cad>0</ns3:cad>
          </ns3:TrackPointExtension>
        </extensions>
      </trkpt>
      <trkpt lat="37.77399287559092044830322265625" lon="-107.701753713190555572509765625">
        <ele>3915.60009765625</ele>
        <time>2023-07-29T15:11:19.000Z</time>
        <extensions>
          <ns3:TrackPointExtension>
            <ns3:hr>85</ns3:hr>
            <ns3:cad>0</ns3:cad>
          </ns3:TrackPointExtension>
        </extensions>
      </trkpt>
      <trkpt lat="37.7739983238279819488525390625" lon="-107.7017528750002384185791015625">
        <ele>3915.39990234375</ele>
        <time>2023-07-29T15:11:20.000Z</time>
        <extensions>
          <ns3:TrackPointExtension>
            <ns3:hr>85</ns3:hr>
            <ns3:cad>0</ns3:cad>
          </ns3:TrackPointExtension>
        </extensions>
      </trkpt>
      <trkpt lat="37.77400477789342403411865234375" lon="-107.70175010897219181060791015625">
        <ele>3915.199951171875</ele>
        <time>2023-07-29T15:11:21.000Z</time>
        <extensions>
          <ns3:TrackPointExtension>
            <ns3:hr>84</ns3:hr>
            <ns3:cad>0</ns3:cad>
          </ns3:TrackPointExtension>
        </extensions>
      </trkpt>
      <trkpt lat="37.7740070410072803497314453125" lon="-107.7017508633434772491455078125">
        <ele>3914.800048828125</ele>
        <time>2023-07-29T15:11:22.000Z</time>
        <extensions>
          <ns3:TrackPointExtension>
            <ns3:hr>84</ns3:hr>
            <ns3:cad>0</ns3:cad>
          </ns3:TrackPointExtension>
        </extensions>
      </trkpt>
      <trkpt lat="37.7740207873284816741943359375" lon="-107.7017451636493206024169921875">
        <ele>3914.60009765625</ele>
        <time>2023-07-29T15:11:23.000Z</time>
        <extensions>
          <ns3:TrackPointExtension>
            <ns3:hr>84</ns3:hr>
            <ns3:cad>0</ns3:cad>
          </ns3:TrackPointExtension>
        </extensions>
      </trkpt>
      <trkpt lat="37.774035371840000152587890625" lon="-107.701738290488719940185546875">
        <ele>3914.39990234375</ele>
        <time>2023-07-29T15:11:24.000Z</time>
        <extensions>
          <ns3:TrackPointExtension>
            <ns3:hr>84</ns3:hr>
            <ns3:cad>0</ns3:cad>
          </ns3:TrackPointExtension>
        </extensions>
      </trkpt>
      <trkpt lat="37.7740476094186305999755859375" lon="-107.7017327584326267242431640625">
        <ele>3914.199951171875</ele>
        <time>2023-07-29T15:11:25.000Z</time>
        <extensions>
          <ns3:TrackPointExtension>
            <ns3:hr>84</ns3:hr>
            <ns3:cad>0</ns3:cad>
          </ns3:TrackPointExtension>
        </extensions>
      </trkpt>
      <trkpt lat="37.77405976317822933197021484375" lon="-107.70172429271042346954345703125">
        <ele>3914.199951171875</ele>
        <time>2023-07-29T15:11:26.000Z</time>
        <extensions>
          <ns3:TrackPointExtension>
            <ns3:hr>85</ns3:hr>
            <ns3:cad>0</ns3:cad>
          </ns3:TrackPointExtension>
        </extensions>
      </trkpt>
      <trkpt lat="37.7740640379488468170166015625" lon="-107.701722867786884307861328125">
        <ele>3914</ele>
        <time>2023-07-29T15:11:27.000Z</time>
        <extensions>
          <ns3:TrackPointExtension>
            <ns3:hr>85</ns3:hr>
            <ns3:cad>0</ns3:cad>
          </ns3:TrackPointExtension>
        </extensions>
      </trkpt>
      <trkpt lat="37.7740673907101154327392578125" lon="-107.70172060467302799224853515625">
        <ele>3913.800048828125</ele>
        <time>2023-07-29T15:11:28.000Z</time>
        <extensions>
          <ns3:TrackPointExtension>
            <ns3:hr>85</ns3:hr>
            <ns3:cad>0</ns3:cad>
          </ns3:TrackPointExtension>
        </extensions>
      </trkpt>
      <trkpt lat="37.77407116256654262542724609375" lon="-107.7017159946262836456298828125">
        <ele>3913.39990234375</ele>
        <time>2023-07-29T15:11:29.000Z</time>
        <extensions>
          <ns3:TrackPointExtension>
            <ns3:hr>85</ns3:hr>
            <ns3:cad>0</ns3:cad>
          </ns3:TrackPointExtension>
        </extensions>
      </trkpt>
      <trkpt lat="37.77407702989876270294189453125" lon="-107.7017109654843807220458984375">
        <ele>3913.199951171875</ele>
        <time>2023-07-29T15:11:30.000Z</time>
        <extensions>
          <ns3:TrackPointExtension>
            <ns3:hr>85</ns3:hr>
            <ns3:cad>0</ns3:cad>
          </ns3:TrackPointExtension>
        </extensions>
      </trkpt>
      <trkpt lat="37.77408474124968051910400390625" lon="-107.70170434378087520599365234375">
        <ele>3913</ele>
        <time>2023-07-29T15:11:31.000Z</time>
        <extensions>
          <ns3:TrackPointExtension>
            <ns3:hr>85</ns3:hr>
            <ns3:cad>0</ns3:cad>
          </ns3:TrackPointExtension>
        </extensions>
      </trkpt>
      <trkpt lat="37.7740901894867420196533203125" lon="-107.70169914700090885162353515625">
        <ele>3912.800048828125</ele>
        <time>2023-07-29T15:11:32.000Z</time>
        <extensions>
          <ns3:TrackPointExtension>
            <ns3:hr>86</ns3:hr>
            <ns3:cad>55</ns3:cad>
          </ns3:TrackPointExtension>
        </extensions>
      </trkpt>
      <trkpt lat="37.77409295551478862762451171875" lon="-107.70169629715383052825927734375">
        <ele>3912.60009765625</ele>
        <time>2023-07-29T15:11:33.000Z</time>
        <extensions>
          <ns3:TrackPointExtension>
            <ns3:hr>86</ns3:hr>
            <ns3:cad>59</ns3:cad>
          </ns3:TrackPointExtension>
        </extensions>
      </trkpt>
      <trkpt lat="37.77409915812313556671142578125" lon="-107.70169193856418132781982421875">
        <ele>3912.39990234375</ele>
        <time>2023-07-29T15:11:34.000Z</time>
        <extensions>
          <ns3:TrackPointExtension>
            <ns3:hr>86</ns3:hr>
            <ns3:cad>59</ns3:cad>
          </ns3:TrackPointExtension>
        </extensions>
      </trkpt>
      <trkpt lat="37.7741022594273090362548828125" lon="-107.70168690942227840423583984375">
        <ele>3912</ele>
        <time>2023-07-29T15:11:35.000Z</time>
        <extensions>
          <ns3:TrackPointExtension>
            <ns3:hr>86</ns3:hr>
            <ns3:cad>59</ns3:cad>
          </ns3:TrackPointExtension>
        </extensions>
      </trkpt>
      <trkpt lat="37.7741099707782268524169921875" lon="-107.70167835988104343414306640625">
        <ele>3911.800048828125</ele>
        <time>2023-07-29T15:11:36.000Z</time>
        <extensions>
          <ns3:TrackPointExtension>
            <ns3:hr>85</ns3:hr>
            <ns3:cad>56</ns3:cad>
          </ns3:TrackPointExtension>
        </extensions>
      </trkpt>
      <trkpt lat="37.77411474846303462982177734375" lon="-107.701674588024616241455078125">
        <ele>3911.60009765625</ele>
        <time>2023-07-29T15:11:37.000Z</time>
        <extensions>
          <ns3:TrackPointExtension>
            <ns3:hr>84</ns3:hr>
            <ns3:cad>56</ns3:cad>
          </ns3:TrackPointExtension>
        </extensions>
      </trkpt>
      <trkpt lat="37.774119861423969268798828125" lon="-107.701669223606586456298828125">
        <ele>3911.39990234375</ele>
        <time>2023-07-29T15:11:38.000Z</time>
        <extensions>
          <ns3:TrackPointExtension>
            <ns3:hr>84</ns3:hr>
            <ns3:cad>0</ns3:cad>
          </ns3:TrackPointExtension>
        </extensions>
      </trkpt>
      <trkpt lat="37.7741222083568572998046875" lon="-107.70166846923530101776123046875">
        <ele>3911.199951171875</ele>
        <time>2023-07-29T15:11:39.000Z</time>
        <extensions>
          <ns3:TrackPointExtension>
            <ns3:hr>83</ns3:hr>
            <ns3:cad>0</ns3:cad>
          </ns3:TrackPointExtension>
        </extensions>
      </trkpt>
      <trkpt lat="37.77412832714617252349853515625" lon="-107.70166461355984210968017578125">
        <ele>3911</ele>
        <time>2023-07-29T15:11:40.000Z</time>
        <extensions>
          <ns3:TrackPointExtension>
            <ns3:hr>82</ns3:hr>
            <ns3:cad>0</ns3:cad>
          </ns3:TrackPointExtension>
        </extensions>
      </trkpt>
      <trkpt lat="37.77413494884967803955078125" lon="-107.70166092552244663238525390625">
        <ele>3911</ele>
        <time>2023-07-29T15:11:41.000Z</time>
        <extensions>
          <ns3:TrackPointExtension>
            <ns3:hr>82</ns3:hr>
            <ns3:cad>0</ns3:cad>
          </ns3:TrackPointExtension>
        </extensions>
      </trkpt>
      <trkpt lat="37.7741383016109466552734375" lon="-107.70166930742561817169189453125">
        <ele>3910.60009765625</ele>
        <time>2023-07-29T15:11:42.000Z</time>
        <extensions>
          <ns3:TrackPointExtension>
            <ns3:hr>82</ns3:hr>
            <ns3:cad>0</ns3:cad>
          </ns3:TrackPointExtension>
        </extensions>
      </trkpt>
      <trkpt lat="37.774141319096088409423828125" lon="-107.70167249254882335662841796875">
        <ele>3910.39990234375</ele>
        <time>2023-07-29T15:11:43.000Z</time>
        <extensions>
          <ns3:TrackPointExtension>
            <ns3:hr>82</ns3:hr>
            <ns3:cad>66</ns3:cad>
          </ns3:TrackPointExtension>
        </extensions>
      </trkpt>
      <trkpt lat="37.77415045537054538726806640625" lon="-107.7016707323491573333740234375">
        <ele>3910.199951171875</ele>
        <time>2023-07-29T15:11:44.000Z</time>
        <extensions>
          <ns3:TrackPointExtension>
            <ns3:hr>82</ns3:hr>
            <ns3:cad>66</ns3:cad>
          </ns3:TrackPointExtension>
        </extensions>
      </trkpt>
      <trkpt lat="37.77416017837822437286376953125" lon="-107.70166821777820587158203125">
        <ele>3910</ele>
        <time>2023-07-29T15:11:45.000Z</time>
        <extensions>
          <ns3:TrackPointExtension>
            <ns3:hr>82</ns3:hr>
            <ns3:cad>66</ns3:cad>
          </ns3:TrackPointExtension>
        </extensions>
      </trkpt>
      <trkpt lat="37.7741704881191253662109375" lon="-107.7016646973788738250732421875">
        <ele>3909.800048828125</ele>
        <time>2023-07-29T15:11:46.000Z</time>
        <extensions>
          <ns3:TrackPointExtension>
            <ns3:hr>82</ns3:hr>
            <ns3:cad>66</ns3:cad>
          </ns3:TrackPointExtension>
        </extensions>
      </trkpt>
      <trkpt lat="37.7741770260035991668701171875" lon="-107.701661847531795501708984375">
        <ele>3909.39990234375</ele>
        <time>2023-07-29T15:11:47.000Z</time>
        <extensions>
          <ns3:TrackPointExtension>
            <ns3:hr>82</ns3:hr>
            <ns3:cad>66</ns3:cad>
          </ns3:TrackPointExtension>
        </extensions>
      </trkpt>
      <trkpt lat="37.77418515644967555999755859375" lon="-107.70165757276117801666259765625">
        <ele>3909.199951171875</ele>
        <time>2023-07-29T15:11:48.000Z</time>
        <extensions>
          <ns3:TrackPointExtension>
            <ns3:hr>82</ns3:hr>
            <ns3:cad>66</ns3:cad>
          </ns3:TrackPointExtension>
        </extensions>
      </trkpt>
      <trkpt lat="37.7741937898099422454833984375" lon="-107.701653130352497100830078125">
        <ele>3909.199951171875</ele>
        <time>2023-07-29T15:11:49.000Z</time>
        <extensions>
          <ns3:TrackPointExtension>
            <ns3:hr>82</ns3:hr>
            <ns3:cad>66</ns3:cad>
          </ns3:TrackPointExtension>
        </extensions>
      </trkpt>
      <trkpt lat="37.77419689111411571502685546875" lon="-107.70164986141026020050048828125">
        <ele>3909</ele>
        <time>2023-07-29T15:11:50.000Z</time>
        <extensions>
          <ns3:TrackPointExtension>
            <ns3:hr>82</ns3:hr>
            <ns3:cad>66</ns3:cad>
          </ns3:TrackPointExtension>
        </extensions>
      </trkpt>
      <trkpt lat="37.774206362664699554443359375" lon="-107.70164399407804012298583984375">
        <ele>3908.60009765625</ele>
        <time>2023-07-29T15:11:51.000Z</time>
        <extensions>
          <ns3:TrackPointExtension>
            <ns3:hr>82</ns3:hr>
            <ns3:cad>66</ns3:cad>
          </ns3:TrackPointExtension>
        </extensions>
      </trkpt>
      <trkpt lat="37.77421139180660247802734375" lon="-107.70164013840258121490478515625">
        <ele>3908.60009765625</ele>
        <time>2023-07-29T15:11:52.000Z</time>
        <extensions>
          <ns3:TrackPointExtension>
            <ns3:hr>82</ns3:hr>
            <ns3:cad>66</ns3:cad>
          </ns3:TrackPointExtension>
        </extensions>
      </trkpt>
      <trkpt lat="37.77421918697655200958251953125" lon="-107.7016345225274562835693359375">
        <ele>3908.39990234375</ele>
        <time>2023-07-29T15:11:53.000Z</time>
        <extensions>
          <ns3:TrackPointExtension>
            <ns3:hr>82</ns3:hr>
            <ns3:cad>66</ns3:cad>
          </ns3:TrackPointExtension>
        </extensions>
      </trkpt>
      <trkpt lat="37.77422723360359668731689453125" lon="-107.701630331575870513916015625">
        <ele>3908.199951171875</ele>
        <time>2023-07-29T15:11:54.000Z</time>
        <extensions>
          <ns3:TrackPointExtension>
            <ns3:hr>82</ns3:hr>
            <ns3:cad>66</ns3:cad>
          </ns3:TrackPointExtension>
        </extensions>
      </trkpt>
      <trkpt lat="37.77423553168773651123046875" lon="-107.7016259729862213134765625">
        <ele>3908</ele>
        <time>2023-07-29T15:11:55.000Z</time>
        <extensions>
          <ns3:TrackPointExtension>
            <ns3:hr>82</ns3:hr>
            <ns3:cad>66</ns3:cad>
          </ns3:TrackPointExtension>
        </extensions>
      </trkpt>
      <trkpt lat="37.77424131520092487335205078125" lon="-107.7016234584152698516845703125">
        <ele>3908</ele>
        <time>2023-07-29T15:11:56.000Z</time>
        <extensions>
          <ns3:TrackPointExtension>
            <ns3:hr>82</ns3:hr>
            <ns3:cad>66</ns3:cad>
          </ns3:TrackPointExtension>
        </extensions>
      </trkpt>
      <trkpt lat="37.77425288222730159759521484375" lon="-107.701616249978542327880859375">
        <ele>3907.800048828125</ele>
        <time>2023-07-29T15:11:57.000Z</time>
        <extensions>
          <ns3:TrackPointExtension>
            <ns3:hr>82</ns3:hr>
            <ns3:cad>66</ns3:cad>
          </ns3:TrackPointExtension>
        </extensions>
      </trkpt>
      <trkpt lat="37.77426109649240970611572265625" lon="-107.7016144059598445892333984375">
        <ele>3907.60009765625</ele>
        <time>2023-07-29T15:11:58.000Z</time>
        <extensions>
          <ns3:TrackPointExtension>
            <ns3:hr>82</ns3:hr>
            <ns3:cad>66</ns3:cad>
          </ns3:TrackPointExtension>
        </extensions>
      </trkpt>
      <trkpt lat="37.7742678858339786529541015625" lon="-107.70161013118922710418701171875">
        <ele>3907.39990234375</ele>
        <time>2023-07-29T15:11:59.000Z</time>
        <extensions>
          <ns3:TrackPointExtension>
            <ns3:hr>82</ns3:hr>
            <ns3:cad>66</ns3:cad>
          </ns3:TrackPointExtension>
        </extensions>
      </trkpt>
      <trkpt lat="37.774270735681056976318359375" lon="-107.70160895772278308868408203125">
        <ele>3907</ele>
        <time>2023-07-29T15:12:00.000Z</time>
        <extensions>
          <ns3:TrackPointExtension>
            <ns3:hr>82</ns3:hr>
            <ns3:cad>0</ns3:cad>
          </ns3:TrackPointExtension>
        </extensions>
      </trkpt>
      <trkpt lat="37.77427710592746734619140625" lon="-107.7016050182282924652099609375">
        <ele>3906.800048828125</ele>
        <time>2023-07-29T15:12:01.000Z</time>
        <extensions>
          <ns3:TrackPointExtension>
            <ns3:hr>83</ns3:hr>
            <ns3:cad>0</ns3:cad>
          </ns3:TrackPointExtension>
        </extensions>
      </trkpt>
      <trkpt lat="37.77428020723164081573486328125" lon="-107.70160661078989505767822265625">
        <ele>3906.60009765625</ele>
        <time>2023-07-29T15:12:02.000Z</time>
        <extensions>
          <ns3:TrackPointExtension>
            <ns3:hr>84</ns3:hr>
            <ns3:cad>0</ns3:cad>
          </ns3:TrackPointExtension>
        </extensions>
      </trkpt>
      <trkpt lat="37.7742819674313068389892578125" lon="-107.70160744898021221160888671875">
        <ele>3906.39990234375</ele>
        <time>2023-07-29T15:12:03.000Z</time>
        <extensions>
          <ns3:TrackPointExtension>
            <ns3:hr>84</ns3:hr>
            <ns3:cad>0</ns3:cad>
          </ns3:TrackPointExtension>
        </extensions>
      </trkpt>
      <trkpt lat="37.77428372763097286224365234375" lon="-107.70160962827503681182861328125">
        <ele>3906.199951171875</ele>
        <time>2023-07-29T15:12:04.000Z</time>
        <extensions>
          <ns3:TrackPointExtension>
            <ns3:hr>85</ns3:hr>
            <ns3:cad>0</ns3:cad>
          </ns3:TrackPointExtension>
        </extensions>
      </trkpt>
      <trkpt lat="37.7742900140583515167236328125" lon="-107.701609544456005096435546875">
        <ele>3906</ele>
        <time>2023-07-29T15:12:05.000Z</time>
        <extensions>
          <ns3:TrackPointExtension>
            <ns3:hr>85</ns3:hr>
            <ns3:cad>0</ns3:cad>
          </ns3:TrackPointExtension>
        </extensions>
      </trkpt>
      <trkpt lat="37.77429227717220783233642578125" lon="-107.70160946063697338104248046875">
        <ele>3905.800048828125</ele>
        <time>2023-07-29T15:12:06.000Z</time>
        <extensions>
          <ns3:TrackPointExtension>
            <ns3:hr>85</ns3:hr>
            <ns3:cad>0</ns3:cad>
          </ns3:TrackPointExtension>
        </extensions>
      </trkpt>
      <trkpt lat="37.77429780922830104827880859375" lon="-107.70160359330475330352783203125">
        <ele>3905.60009765625</ele>
        <time>2023-07-29T15:12:07.000Z</time>
        <extensions>
          <ns3:TrackPointExtension>
            <ns3:hr>86</ns3:hr>
            <ns3:cad>0</ns3:cad>
          </ns3:TrackPointExtension>
        </extensions>
      </trkpt>
      <trkpt lat="37.77430786751210689544677734375" lon="-107.70159655250608921051025390625">
        <ele>3905.60009765625</ele>
        <time>2023-07-29T15:12:08.000Z</time>
        <extensions>
          <ns3:TrackPointExtension>
            <ns3:hr>86</ns3:hr>
            <ns3:cad>0</ns3:cad>
          </ns3:TrackPointExtension>
        </extensions>
      </trkpt>
      <trkpt lat="37.77432295493781566619873046875" lon="-107.70158917643129825592041015625">
        <ele>3905.199951171875</ele>
        <time>2023-07-29T15:12:09.000Z</time>
        <extensions>
          <ns3:TrackPointExtension>
            <ns3:hr>86</ns3:hr>
            <ns3:cad>0</ns3:cad>
          </ns3:TrackPointExtension>
        </extensions>
      </trkpt>
      <trkpt lat="37.7743335999548435211181640625" lon="-107.70158397965133190155029296875">
        <ele>3905.199951171875</ele>
        <time>2023-07-29T15:12:10.000Z</time>
        <extensions>
          <ns3:TrackPointExtension>
            <ns3:hr>86</ns3:hr>
            <ns3:cad>0</ns3:cad>
          </ns3:TrackPointExtension>
        </extensions>
      </trkpt>
      <trkpt lat="37.77433301322162151336669921875" lon="-107.70158163271844387054443359375">
        <ele>3905</ele>
        <time>2023-07-29T15:12:11.000Z</time>
        <extensions>
          <ns3:TrackPointExtension>
            <ns3:hr>86</ns3:hr>
            <ns3:cad>0</ns3:cad>
          </ns3:TrackPointExtension>
        </extensions>
      </trkpt>
      <trkpt lat="37.774337120354175567626953125" lon="-107.70157827995717525482177734375">
        <ele>3905</ele>
        <time>2023-07-29T15:12:12.000Z</time>
        <extensions>
          <ns3:TrackPointExtension>
            <ns3:hr>86</ns3:hr>
            <ns3:cad>0</ns3:cad>
          </ns3:TrackPointExtension>
        </extensions>
      </trkpt>
      <trkpt lat="37.7743332646787166595458984375" lon="-107.70157635211944580078125">
        <ele>3904.800048828125</ele>
        <time>2023-07-29T15:12:13.000Z</time>
        <extensions>
          <ns3:TrackPointExtension>
            <ns3:hr>86</ns3:hr>
            <ns3:cad>0</ns3:cad>
          </ns3:TrackPointExtension>
        </extensions>
      </trkpt>
      <trkpt lat="37.77434013783931732177734375" lon="-107.701570987701416015625">
        <ele>3904.39990234375</ele>
        <time>2023-07-29T15:12:14.000Z</time>
        <extensions>
          <ns3:TrackPointExtension>
            <ns3:hr>85</ns3:hr>
            <ns3:cad>0</ns3:cad>
          </ns3:TrackPointExtension>
        </extensions>
      </trkpt>
      <trkpt lat="37.77434105984866619110107421875" lon="-107.70156989805400371551513671875">
        <ele>3904.199951171875</ele>
        <time>2023-07-29T15:12:15.000Z</time>
        <extensions>
          <ns3:TrackPointExtension>
            <ns3:hr>85</ns3:hr>
            <ns3:cad>0</ns3:cad>
          </ns3:TrackPointExtension>
        </extensions>
      </trkpt>
      <trkpt lat="37.77434592135250568389892578125" lon="-107.70157073624432086944580078125">
        <ele>3904</ele>
        <time>2023-07-29T15:12:16.000Z</time>
        <extensions>
          <ns3:TrackPointExtension>
            <ns3:hr>85</ns3:hr>
            <ns3:cad>0</ns3:cad>
          </ns3:TrackPointExtension>
        </extensions>
      </trkpt>
      <trkpt lat="37.77434952557086944580078125" lon="-107.7015708200633525848388671875">
        <ele>3903.60009765625</ele>
        <time>2023-07-29T15:12:17.000Z</time>
        <extensions>
          <ns3:TrackPointExtension>
            <ns3:hr>85</ns3:hr>
            <ns3:cad>0</ns3:cad>
          </ns3:TrackPointExtension>
        </extensions>
      </trkpt>
      <trkpt lat="37.7743580751121044158935546875" lon="-107.70156788639724254608154296875">
        <ele>3903.60009765625</ele>
        <time>2023-07-29T15:12:18.000Z</time>
        <extensions>
          <ns3:TrackPointExtension>
            <ns3:hr>85</ns3:hr>
            <ns3:cad>0</ns3:cad>
          </ns3:TrackPointExtension>
        </extensions>
      </trkpt>
      <trkpt lat="37.77436553500592708587646484375" lon="-107.70156637765467166900634765625">
        <ele>3903.39990234375</ele>
        <time>2023-07-29T15:12:19.000Z</time>
        <extensions>
          <ns3:TrackPointExtension>
            <ns3:hr>85</ns3:hr>
            <ns3:cad>0</ns3:cad>
          </ns3:TrackPointExtension>
        </extensions>
      </trkpt>
      <trkpt lat="37.77437056414783000946044921875" lon="-107.70156453363597393035888671875">
        <ele>3903.199951171875</ele>
        <time>2023-07-29T15:12:20.000Z</time>
        <extensions>
          <ns3:TrackPointExtension>
            <ns3:hr>84</ns3:hr>
            <ns3:cad>0</ns3:cad>
          </ns3:TrackPointExtension>
        </extensions>
      </trkpt>
      <trkpt lat="37.774373330175876617431640625" lon="-107.7015661261975765228271484375">
        <ele>3903.199951171875</ele>
        <time>2023-07-29T15:12:21.000Z</time>
        <extensions>
          <ns3:TrackPointExtension>
            <ns3:hr>84</ns3:hr>
            <ns3:cad>0</ns3:cad>
          </ns3:TrackPointExtension>
        </extensions>
      </trkpt>
      <trkpt lat="37.77438263408839702606201171875" lon="-107.701565288007259368896484375">
        <ele>3902.800048828125</ele>
        <time>2023-07-29T15:12:22.000Z</time>
        <extensions>
          <ns3:TrackPointExtension>
            <ns3:hr>84</ns3:hr>
            <ns3:cad>0</ns3:cad>
          </ns3:TrackPointExtension>
        </extensions>
      </trkpt>
      <trkpt lat="37.7743885852396488189697265625" lon="-107.70156604237854480743408203125">
        <ele>3902.60009765625</ele>
        <time>2023-07-29T15:12:23.000Z</time>
        <extensions>
          <ns3:TrackPointExtension>
            <ns3:hr>84</ns3:hr>
            <ns3:cad>0</ns3:cad>
          </ns3:TrackPointExtension>
        </extensions>
      </trkpt>
      <trkpt lat="37.77439420111477375030517578125" lon="-107.70156470127403736114501953125">
        <ele>3902.60009765625</ele>
        <time>2023-07-29T15:12:24.000Z</time>
        <extensions>
          <ns3:TrackPointExtension>
            <ns3:hr>84</ns3:hr>
            <ns3:cad>0</ns3:cad>
          </ns3:TrackPointExtension>
        </extensions>
      </trkpt>
      <trkpt lat="37.77439151890575885772705078125" lon="-107.70155833102762699127197265625">
        <ele>3902.39990234375</ele>
        <time>2023-07-29T15:12:25.000Z</time>
        <extensions>
          <ns3:TrackPointExtension>
            <ns3:hr>84</ns3:hr>
            <ns3:cad>0</ns3:cad>
          </ns3:TrackPointExtension>
        </extensions>
      </trkpt>
      <trkpt lat="37.7743919380009174346923828125" lon="-107.70155430771410465240478515625">
        <ele>3902.199951171875</ele>
        <time>2023-07-29T15:12:26.000Z</time>
        <extensions>
          <ns3:TrackPointExtension>
            <ns3:hr>84</ns3:hr>
            <ns3:cad>50</ns3:cad>
          </ns3:TrackPointExtension>
        </extensions>
      </trkpt>
      <trkpt lat="37.77439520694315433502197265625" lon="-107.70155011676251888275146484375">
        <ele>3902.199951171875</ele>
        <time>2023-07-29T15:12:27.000Z</time>
        <extensions>
          <ns3:TrackPointExtension>
            <ns3:hr>84</ns3:hr>
            <ns3:cad>51</ns3:cad>
          </ns3:TrackPointExtension>
        </extensions>
      </trkpt>
      <trkpt lat="37.77439403347671031951904296875" lon="-107.70155145786702632904052734375">
        <ele>3901.800048828125</ele>
        <time>2023-07-29T15:12:28.000Z</time>
        <extensions>
          <ns3:TrackPointExtension>
            <ns3:hr>84</ns3:hr>
            <ns3:cad>51</ns3:cad>
          </ns3:TrackPointExtension>
        </extensions>
      </trkpt>
      <trkpt lat="37.77439939789474010467529296875" lon="-107.70154483616352081298828125">
        <ele>3901.800048828125</ele>
        <time>2023-07-29T15:12:29.000Z</time>
        <extensions>
          <ns3:TrackPointExtension>
            <ns3:hr>83</ns3:hr>
            <ns3:cad>51</ns3:cad>
          </ns3:TrackPointExtension>
        </extensions>
      </trkpt>
      <trkpt lat="37.7744065225124359130859375" lon="-107.7015393041074275970458984375">
        <ele>3901.39990234375</ele>
        <time>2023-07-29T15:12:30.000Z</time>
        <extensions>
          <ns3:TrackPointExtension>
            <ns3:hr>83</ns3:hr>
            <ns3:cad>51</ns3:cad>
          </ns3:TrackPointExtension>
        </extensions>
      </trkpt>
      <trkpt lat="37.7744092047214508056640625" lon="-107.70153704099357128143310546875">
        <ele>3901</ele>
        <time>2023-07-29T15:12:31.000Z</time>
        <extensions>
          <ns3:TrackPointExtension>
            <ns3:hr>83</ns3:hr>
            <ns3:cad>51</ns3:cad>
          </ns3:TrackPointExtension>
        </extensions>
      </trkpt>
      <trkpt lat="37.774412222206592559814453125" lon="-107.70153670571744441986083984375">
        <ele>3901</ele>
        <time>2023-07-29T15:12:32.000Z</time>
        <extensions>
          <ns3:TrackPointExtension>
            <ns3:hr>83</ns3:hr>
            <ns3:cad>0</ns3:cad>
          </ns3:TrackPointExtension>
        </extensions>
      </trkpt>
      <trkpt lat="37.7744167484343051910400390625" lon="-107.701533772051334381103515625">
        <ele>3900.800048828125</ele>
        <time>2023-07-29T15:12:33.000Z</time>
        <extensions>
          <ns3:TrackPointExtension>
            <ns3:hr>83</ns3:hr>
            <ns3:cad>0</ns3:cad>
          </ns3:TrackPointExtension>
        </extensions>
      </trkpt>
      <trkpt lat="37.7744207717478275299072265625" lon="-107.7015305869281291961669921875">
        <ele>3900.60009765625</ele>
        <time>2023-07-29T15:12:34.000Z</time>
        <extensions>
          <ns3:TrackPointExtension>
            <ns3:hr>83</ns3:hr>
            <ns3:cad>0</ns3:cad>
          </ns3:TrackPointExtension>
        </extensions>
      </trkpt>
      <trkpt lat="37.77442387305200099945068359375" lon="-107.70152865909039974212646484375">
        <ele>3900.60009765625</ele>
        <time>2023-07-29T15:12:35.000Z</time>
        <extensions>
          <ns3:TrackPointExtension>
            <ns3:hr>83</ns3:hr>
            <ns3:cad>0</ns3:cad>
          </ns3:TrackPointExtension>
        </extensions>
      </trkpt>
      <trkpt lat="37.774426303803920745849609375" lon="-107.70153276622295379638671875">
        <ele>3900.60009765625</ele>
        <time>2023-07-29T15:12:36.000Z</time>
        <extensions>
          <ns3:TrackPointExtension>
            <ns3:hr>82</ns3:hr>
            <ns3:cad>0</ns3:cad>
          </ns3:TrackPointExtension>
        </extensions>
      </trkpt>
      <trkpt lat="37.77443041093647480010986328125" lon="-107.70153368823230266571044921875">
        <ele>3900.39990234375</ele>
        <time>2023-07-29T15:12:37.000Z</time>
        <extensions>
          <ns3:TrackPointExtension>
            <ns3:hr>82</ns3:hr>
            <ns3:cad>0</ns3:cad>
          </ns3:TrackPointExtension>
        </extensions>
      </trkpt>
      <trkpt lat="37.7744361944496631622314453125" lon="-107.70153083838522434234619140625">
        <ele>3900.199951171875</ele>
        <time>2023-07-29T15:12:38.000Z</time>
        <extensions>
          <ns3:TrackPointExtension>
            <ns3:hr>82</ns3:hr>
            <ns3:cad>0</ns3:cad>
          </ns3:TrackPointExtension>
        </extensions>
      </trkpt>
      <trkpt lat="37.77444499544799327850341796875" lon="-107.7015245519578456878662109375">
        <ele>3900</ele>
        <time>2023-07-29T15:12:39.000Z</time>
        <extensions>
          <ns3:TrackPointExtension>
            <ns3:hr>82</ns3:hr>
            <ns3:cad>0</ns3:cad>
          </ns3:TrackPointExtension>
        </extensions>
      </trkpt>
      <trkpt lat="37.774451784789562225341796875" lon="-107.7015201933681964874267578125">
        <ele>3899.800048828125</ele>
        <time>2023-07-29T15:12:40.000Z</time>
        <extensions>
          <ns3:TrackPointExtension>
            <ns3:hr>82</ns3:hr>
            <ns3:cad>0</ns3:cad>
          </ns3:TrackPointExtension>
        </extensions>
      </trkpt>
      <trkpt lat="37.7744593285024166107177734375" lon="-107.70151675678789615631103515625">
        <ele>3899.60009765625</ele>
        <time>2023-07-29T15:12:41.000Z</time>
        <extensions>
          <ns3:TrackPointExtension>
            <ns3:hr>82</ns3:hr>
            <ns3:cad>0</ns3:cad>
          </ns3:TrackPointExtension>
        </extensions>
      </trkpt>
      <trkpt lat="37.77447399683296680450439453125" lon="-107.70150837488472461700439453125">
        <ele>3899.39990234375</ele>
        <time>2023-07-29T15:12:42.000Z</time>
        <extensions>
          <ns3:TrackPointExtension>
            <ns3:hr>82</ns3:hr>
            <ns3:cad>0</ns3:cad>
          </ns3:TrackPointExtension>
        </extensions>
      </trkpt>
      <trkpt lat="37.7744888328015804290771484375" lon="-107.70150133408606052398681640625">
        <ele>3899.39990234375</ele>
        <time>2023-07-29T15:12:43.000Z</time>
        <extensions>
          <ns3:TrackPointExtension>
            <ns3:hr>82</ns3:hr>
            <ns3:cad>0</ns3:cad>
          </ns3:TrackPointExtension>
        </extensions>
      </trkpt>
      <trkpt lat="37.774502746760845184326171875" lon="-107.70149278454482555389404296875">
        <ele>3899</ele>
        <time>2023-07-29T15:12:44.000Z</time>
        <extensions>
          <ns3:TrackPointExtension>
            <ns3:hr>81</ns3:hr>
            <ns3:cad>0</ns3:cad>
          </ns3:TrackPointExtension>
        </extensions>
      </trkpt>
      <trkpt lat="37.77451448142528533935546875" lon="-107.70148322917520999908447265625">
        <ele>3899</ele>
        <time>2023-07-29T15:12:45.000Z</time>
        <extensions>
          <ns3:TrackPointExtension>
            <ns3:hr>81</ns3:hr>
            <ns3:cad>0</ns3:cad>
          </ns3:TrackPointExtension>
        </extensions>
      </trkpt>
      <trkpt lat="37.77452428825199604034423828125" lon="-107.70147216506302356719970703125">
        <ele>3898.800048828125</ele>
        <time>2023-07-29T15:12:46.000Z</time>
        <extensions>
          <ns3:TrackPointExtension>
            <ns3:hr>81</ns3:hr>
            <ns3:cad>0</ns3:cad>
          </ns3:TrackPointExtension>
        </extensions>
      </trkpt>
      <trkpt lat="37.77453065849840641021728515625" lon="-107.701465375721454620361328125">
        <ele>3898.60009765625</ele>
        <time>2023-07-29T15:12:47.000Z</time>
        <extensions>
          <ns3:TrackPointExtension>
            <ns3:hr>81</ns3:hr>
            <ns3:cad>0</ns3:cad>
          </ns3:TrackPointExtension>
        </extensions>
      </trkpt>
      <trkpt lat="37.77453887276351451873779296875" lon="-107.7014574967324733734130859375">
        <ele>3898.60009765625</ele>
        <time>2023-07-29T15:12:48.000Z</time>
        <extensions>
          <ns3:TrackPointExtension>
            <ns3:hr>81</ns3:hr>
            <ns3:cad>0</ns3:cad>
          </ns3:TrackPointExtension>
        </extensions>
      </trkpt>
      <trkpt lat="37.7745448239147663116455078125" lon="-107.7014511264860630035400390625">
        <ele>3898.39990234375</ele>
        <time>2023-07-29T15:12:49.000Z</time>
        <extensions>
          <ns3:TrackPointExtension>
            <ns3:hr>81</ns3:hr>
            <ns3:cad>0</ns3:cad>
          </ns3:TrackPointExtension>
        </extensions>
      </trkpt>
      <trkpt lat="37.77455379255115985870361328125" lon="-107.70144282840192317962646484375">
        <ele>3898.39990234375</ele>
        <time>2023-07-29T15:12:50.000Z</time>
        <extensions>
          <ns3:TrackPointExtension>
            <ns3:hr>81</ns3:hr>
            <ns3:cad>0</ns3:cad>
          </ns3:TrackPointExtension>
        </extensions>
      </trkpt>
      <trkpt lat="37.77456183917820453643798828125" lon="-107.7014350332319736480712890625">
        <ele>3898.39990234375</ele>
        <time>2023-07-29T15:12:51.000Z</time>
        <extensions>
          <ns3:TrackPointExtension>
            <ns3:hr>81</ns3:hr>
            <ns3:cad>0</ns3:cad>
          </ns3:TrackPointExtension>
        </extensions>
      </trkpt>
      <trkpt lat="37.77456217445433139801025390625" lon="-107.70143444649875164031982421875">
        <ele>3898.199951171875</ele>
        <time>2023-07-29T15:12:52.000Z</time>
        <extensions>
          <ns3:TrackPointExtension>
            <ns3:hr>81</ns3:hr>
            <ns3:cad>75</ns3:cad>
          </ns3:TrackPointExtension>
        </extensions>
      </trkpt>
      <trkpt lat="37.77456753887236118316650390625" lon="-107.7014293335378170013427734375">
        <ele>3898.199951171875</ele>
        <time>2023-07-29T15:12:53.000Z</time>
        <extensions>
          <ns3:TrackPointExtension>
            <ns3:hr>82</ns3:hr>
            <ns3:cad>75</ns3:cad>
          </ns3:TrackPointExtension>
        </extensions>
      </trkpt>
      <trkpt lat="37.7745709754526615142822265625" lon="-107.701424472033977508544921875">
        <ele>3898.199951171875</ele>
        <time>2023-07-29T15:12:54.000Z</time>
        <extensions>
          <ns3:TrackPointExtension>
            <ns3:hr>82</ns3:hr>
            <ns3:cad>75</ns3:cad>
          </ns3:TrackPointExtension>
        </extensions>
      </trkpt>
      <trkpt lat="37.7745783515274524688720703125" lon="-107.70141600631177425384521484375">
        <ele>3897.60009765625</ele>
        <time>2023-07-29T15:12:55.000Z</time>
        <extensions>
          <ns3:TrackPointExtension>
            <ns3:hr>83</ns3:hr>
            <ns3:cad>75</ns3:cad>
          </ns3:TrackPointExtension>
        </extensions>
      </trkpt>
      <trkpt lat="37.77458882890641689300537109375" lon="-107.7014041878283023834228515625">
        <ele>3897.39990234375</ele>
        <time>2023-07-29T15:12:56.000Z</time>
        <extensions>
          <ns3:TrackPointExtension>
            <ns3:hr>84</ns3:hr>
            <ns3:cad>0</ns3:cad>
          </ns3:TrackPointExtension>
        </extensions>
      </trkpt>
      <trkpt lat="37.77459771372377872467041015625" lon="-107.7013927884399890899658203125">
        <ele>3897.199951171875</ele>
        <time>2023-07-29T15:12:57.000Z</time>
        <extensions>
          <ns3:TrackPointExtension>
            <ns3:hr>83</ns3:hr>
            <ns3:cad>0</ns3:cad>
          </ns3:TrackPointExtension>
        </extensions>
      </trkpt>
      <trkpt lat="37.77460877783596515655517578125" lon="-107.7013780362904071807861328125">
        <ele>3897.199951171875</ele>
        <time>2023-07-29T15:12:58.000Z</time>
        <extensions>
          <ns3:TrackPointExtension>
            <ns3:hr>83</ns3:hr>
            <ns3:cad>0</ns3:cad>
          </ns3:TrackPointExtension>
        </extensions>
      </trkpt>
      <trkpt lat="37.77462176978588104248046875" lon="-107.701362781226634979248046875">
        <ele>3897</ele>
        <time>2023-07-29T15:12:59.000Z</time>
        <extensions>
          <ns3:TrackPointExtension>
            <ns3:hr>83</ns3:hr>
            <ns3:cad>0</ns3:cad>
          </ns3:TrackPointExtension>
        </extensions>
      </trkpt>
      <trkpt lat="37.7746318280696868896484375" lon="-107.70135096274316310882568359375">
        <ele>3897</ele>
        <time>2023-07-29T15:13:00.000Z</time>
        <extensions>
          <ns3:TrackPointExtension>
            <ns3:hr>83</ns3:hr>
            <ns3:cad>0</ns3:cad>
          </ns3:TrackPointExtension>
        </extensions>
      </trkpt>
      <trkpt lat="37.77464129962027072906494140625" lon="-107.7013424970209598541259765625">
        <ele>3896.800048828125</ele>
        <time>2023-07-29T15:13:01.000Z</time>
        <extensions>
          <ns3:TrackPointExtension>
            <ns3:hr>83</ns3:hr>
            <ns3:cad>0</ns3:cad>
          </ns3:TrackPointExtension>
        </extensions>
      </trkpt>
      <trkpt lat="37.77464884333312511444091796875" lon="-107.70133671350777149200439453125">
        <ele>3896.60009765625</ele>
        <time>2023-07-29T15:13:02.000Z</time>
        <extensions>
          <ns3:TrackPointExtension>
            <ns3:hr>83</ns3:hr>
            <ns3:cad>0</ns3:cad>
          </ns3:TrackPointExtension>
        </extensions>
      </trkpt>
      <trkpt lat="37.7746532857418060302734375" lon="-107.7013327740132808685302734375">
        <ele>3896.60009765625</ele>
        <time>2023-07-29T15:13:03.000Z</time>
        <extensions>
          <ns3:TrackPointExtension>
            <ns3:hr>84</ns3:hr>
            <ns3:cad>0</ns3:cad>
          </ns3:TrackPointExtension>
        </extensions>
      </trkpt>
      <trkpt lat="37.77466745115816593170166015625" lon="-107.70132363773882389068603515625">
        <ele>3896.60009765625</ele>
        <time>2023-07-29T15:13:04.000Z</time>
        <extensions>
          <ns3:TrackPointExtension>
            <ns3:hr>85</ns3:hr>
            <ns3:cad>0</ns3:cad>
          </ns3:TrackPointExtension>
        </extensions>
      </trkpt>
      <trkpt lat="37.77467600069940090179443359375" lon="-107.7013190276920795440673828125">
        <ele>3896.39990234375</ele>
        <time>2023-07-29T15:13:05.000Z</time>
        <extensions>
          <ns3:TrackPointExtension>
            <ns3:hr>85</ns3:hr>
            <ns3:cad>56</ns3:cad>
          </ns3:TrackPointExtension>
        </extensions>
      </trkpt>
      <trkpt lat="37.77468237094581127166748046875" lon="-107.70131693221628665924072265625">
        <ele>3896.199951171875</ele>
        <time>2023-07-29T15:13:06.000Z</time>
        <extensions>
          <ns3:TrackPointExtension>
            <ns3:hr>87</ns3:hr>
            <ns3:cad>56</ns3:cad>
          </ns3:TrackPointExtension>
        </extensions>
      </trkpt>
      <trkpt lat="37.77469092048704624176025390625" lon="-107.70131072960793972015380859375">
        <ele>3896</ele>
        <time>2023-07-29T15:13:07.000Z</time>
        <extensions>
          <ns3:TrackPointExtension>
            <ns3:hr>88</ns3:hr>
            <ns3:cad>0</ns3:cad>
          </ns3:TrackPointExtension>
        </extensions>
      </trkpt>
      <trkpt lat="37.7747010625898838043212890625" lon="-107.70130435936152935028076171875">
        <ele>3895.800048828125</ele>
        <time>2023-07-29T15:13:08.000Z</time>
        <extensions>
          <ns3:TrackPointExtension>
            <ns3:hr>88</ns3:hr>
            <ns3:cad>0</ns3:cad>
          </ns3:TrackPointExtension>
        </extensions>
      </trkpt>
      <trkpt lat="37.77471086941659450531005859375" lon="-107.701297737658023834228515625">
        <ele>3895.39990234375</ele>
        <time>2023-07-29T15:13:09.000Z</time>
        <extensions>
          <ns3:TrackPointExtension>
            <ns3:hr>89</ns3:hr>
            <ns3:cad>54</ns3:cad>
          </ns3:TrackPointExtension>
        </extensions>
      </trkpt>
      <trkpt lat="37.77471858076751232147216796875" lon="-107.70129396580159664154052734375">
        <ele>3895</ele>
        <time>2023-07-29T15:13:10.000Z</time>
        <extensions>
          <ns3:TrackPointExtension>
            <ns3:hr>89</ns3:hr>
            <ns3:cad>54</ns3:cad>
          </ns3:TrackPointExtension>
        </extensions>
      </trkpt>
      <trkpt lat="37.77473031543195247650146484375" lon="-107.70128508098423480987548828125">
        <ele>3895</ele>
        <time>2023-07-29T15:13:11.000Z</time>
        <extensions>
          <ns3:TrackPointExtension>
            <ns3:hr>89</ns3:hr>
            <ns3:cad>54</ns3:cad>
          </ns3:TrackPointExtension>
        </extensions>
      </trkpt>
      <trkpt lat="37.77473500929772853851318359375" lon="-107.701281644403934478759765625">
        <ele>3894.800048828125</ele>
        <time>2023-07-29T15:13:12.000Z</time>
        <extensions>
          <ns3:TrackPointExtension>
            <ns3:hr>89</ns3:hr>
            <ns3:cad>54</ns3:cad>
          </ns3:TrackPointExtension>
        </extensions>
      </trkpt>
      <trkpt lat="37.77474255301058292388916015625" lon="-107.70127804018557071685791015625">
        <ele>3894.60009765625</ele>
        <time>2023-07-29T15:13:13.000Z</time>
        <extensions>
          <ns3:TrackPointExtension>
            <ns3:hr>88</ns3:hr>
            <ns3:cad>54</ns3:cad>
          </ns3:TrackPointExtension>
        </extensions>
      </trkpt>
      <trkpt lat="37.77475395239889621734619140625" lon="-107.70127049647271633148193359375">
        <ele>3894.60009765625</ele>
        <time>2023-07-29T15:13:14.000Z</time>
        <extensions>
          <ns3:TrackPointExtension>
            <ns3:hr>88</ns3:hr>
            <ns3:cad>54</ns3:cad>
          </ns3:TrackPointExtension>
        </extensions>
      </trkpt>
      <trkpt lat="37.7747590653598308563232421875" lon="-107.70126630552113056182861328125">
        <ele>3894.60009765625</ele>
        <time>2023-07-29T15:13:15.000Z</time>
        <extensions>
          <ns3:TrackPointExtension>
            <ns3:hr>88</ns3:hr>
            <ns3:cad>54</ns3:cad>
          </ns3:TrackPointExtension>
        </extensions>
      </trkpt>
      <trkpt lat="37.7747718058526515960693359375" lon="-107.70125758834183216094970703125">
        <ele>3894.39990234375</ele>
        <time>2023-07-29T15:13:16.000Z</time>
        <extensions>
          <ns3:TrackPointExtension>
            <ns3:hr>88</ns3:hr>
            <ns3:cad>54</ns3:cad>
          </ns3:TrackPointExtension>
        </extensions>
      </trkpt>
      <trkpt lat="37.77478094212710857391357421875" lon="-107.70125138573348522186279296875">
        <ele>3894.39990234375</ele>
        <time>2023-07-29T15:13:17.000Z</time>
        <extensions>
          <ns3:TrackPointExtension>
            <ns3:hr>88</ns3:hr>
            <ns3:cad>0</ns3:cad>
          </ns3:TrackPointExtension>
        </extensions>
      </trkpt>
      <trkpt lat="37.77479167096316814422607421875" lon="-107.70124384202063083648681640625">
        <ele>3894</ele>
        <time>2023-07-29T15:13:18.000Z</time>
        <extensions>
          <ns3:TrackPointExtension>
            <ns3:hr>87</ns3:hr>
            <ns3:cad>0</ns3:cad>
          </ns3:TrackPointExtension>
        </extensions>
      </trkpt>
      <trkpt lat="37.77480122633278369903564453125" lon="-107.70123730413615703582763671875">
        <ele>3893.800048828125</ele>
        <time>2023-07-29T15:13:19.000Z</time>
        <extensions>
          <ns3:TrackPointExtension>
            <ns3:hr>87</ns3:hr>
            <ns3:cad>0</ns3:cad>
          </ns3:TrackPointExtension>
        </extensions>
      </trkpt>
      <trkpt lat="37.774807177484035491943359375" lon="-107.7012316882610321044921875">
        <ele>3893.39990234375</ele>
        <time>2023-07-29T15:13:20.000Z</time>
        <extensions>
          <ns3:TrackPointExtension>
            <ns3:hr>86</ns3:hr>
            <ns3:cad>0</ns3:cad>
          </ns3:TrackPointExtension>
        </extensions>
      </trkpt>
      <trkpt lat="37.77481698431074619293212890625" lon="-107.70122188143432140350341796875">
        <ele>3893.39990234375</ele>
        <time>2023-07-29T15:13:21.000Z</time>
        <extensions>
          <ns3:TrackPointExtension>
            <ns3:hr>86</ns3:hr>
            <ns3:cad>0</ns3:cad>
          </ns3:TrackPointExtension>
        </extensions>
      </trkpt>
      <trkpt lat="37.77482368983328342437744140625" lon="-107.70121450535953044891357421875">
        <ele>3893.199951171875</ele>
        <time>2023-07-29T15:13:22.000Z</time>
        <extensions>
          <ns3:TrackPointExtension>
            <ns3:hr>86</ns3:hr>
            <ns3:cad>0</ns3:cad>
          </ns3:TrackPointExtension>
        </extensions>
      </trkpt>
      <trkpt lat="37.77483844198286533355712890625" lon="-107.70120578818023204803466796875">
        <ele>3893.199951171875</ele>
        <time>2023-07-29T15:13:23.000Z</time>
        <extensions>
          <ns3:TrackPointExtension>
            <ns3:hr>86</ns3:hr>
            <ns3:cad>0</ns3:cad>
          </ns3:TrackPointExtension>
        </extensions>
      </trkpt>
      <trkpt lat="37.77484799735248088836669921875" lon="-107.70120142959058284759521484375">
        <ele>3893</ele>
        <time>2023-07-29T15:13:24.000Z</time>
        <extensions>
          <ns3:TrackPointExtension>
            <ns3:hr>86</ns3:hr>
            <ns3:cad>0</ns3:cad>
          </ns3:TrackPointExtension>
        </extensions>
      </trkpt>
      <trkpt lat="37.7748579718172550201416015625" lon="-107.70119438879191875457763671875">
        <ele>3893</ele>
        <time>2023-07-29T15:13:25.000Z</time>
        <extensions>
          <ns3:TrackPointExtension>
            <ns3:hr>86</ns3:hr>
            <ns3:cad>0</ns3:cad>
          </ns3:TrackPointExtension>
        </extensions>
      </trkpt>
      <trkpt lat="37.7748670242726802825927734375" lon="-107.70119070075452327728271484375">
        <ele>3893</ele>
        <time>2023-07-29T15:13:26.000Z</time>
        <extensions>
          <ns3:TrackPointExtension>
            <ns3:hr>85</ns3:hr>
            <ns3:cad>0</ns3:cad>
          </ns3:TrackPointExtension>
        </extensions>
      </trkpt>
      <trkpt lat="37.7748733945190906524658203125" lon="-107.701187096536159515380859375">
        <ele>3893</ele>
        <time>2023-07-29T15:13:27.000Z</time>
        <extensions>
          <ns3:TrackPointExtension>
            <ns3:hr>85</ns3:hr>
            <ns3:cad>59</ns3:cad>
          </ns3:TrackPointExtension>
        </extensions>
      </trkpt>
      <trkpt lat="37.77487867511808872222900390625" lon="-107.701184414327144622802734375">
        <ele>3893</ele>
        <time>2023-07-29T15:13:28.000Z</time>
        <extensions>
          <ns3:TrackPointExtension>
            <ns3:hr>85</ns3:hr>
            <ns3:cad>59</ns3:cad>
          </ns3:TrackPointExtension>
        </extensions>
      </trkpt>
      <trkpt lat="37.774885632097721099853515625" lon="-107.7011778764426708221435546875">
        <ele>3893.199951171875</ele>
        <time>2023-07-29T15:13:29.000Z</time>
        <extensions>
          <ns3:TrackPointExtension>
            <ns3:hr>85</ns3:hr>
            <ns3:cad>59</ns3:cad>
          </ns3:TrackPointExtension>
        </extensions>
      </trkpt>
      <trkpt lat="37.77489309199154376983642578125" lon="-107.70117200911045074462890625">
        <ele>3893.199951171875</ele>
        <time>2023-07-29T15:13:30.000Z</time>
        <extensions>
          <ns3:TrackPointExtension>
            <ns3:hr>85</ns3:hr>
            <ns3:cad>59</ns3:cad>
          </ns3:TrackPointExtension>
        </extensions>
      </trkpt>
      <trkpt lat="37.77490164153277873992919921875" lon="-107.70116262137889862060546875">
        <ele>3893.199951171875</ele>
        <time>2023-07-29T15:13:31.000Z</time>
        <extensions>
          <ns3:TrackPointExtension>
            <ns3:hr>85</ns3:hr>
            <ns3:cad>59</ns3:cad>
          </ns3:TrackPointExtension>
        </extensions>
      </trkpt>
      <trkpt lat="37.77490868233144283294677734375" lon="-107.701158262789249420166015625">
        <ele>3893.199951171875</ele>
        <time>2023-07-29T15:13:32.000Z</time>
        <extensions>
          <ns3:TrackPointExtension>
            <ns3:hr>85</ns3:hr>
            <ns3:cad>59</ns3:cad>
          </ns3:TrackPointExtension>
        </extensions>
      </trkpt>
      <trkpt lat="37.774914801120758056640625" lon="-107.7011527307331562042236328125">
        <ele>3893.199951171875</ele>
        <time>2023-07-29T15:13:33.000Z</time>
        <extensions>
          <ns3:TrackPointExtension>
            <ns3:hr>85</ns3:hr>
            <ns3:cad>55</ns3:cad>
          </ns3:TrackPointExtension>
        </extensions>
      </trkpt>
      <trkpt lat="37.77492620050907135009765625" lon="-107.7011456899344921112060546875">
        <ele>3893.199951171875</ele>
        <time>2023-07-29T15:13:34.000Z</time>
        <extensions>
          <ns3:TrackPointExtension>
            <ns3:hr>85</ns3:hr>
            <ns3:cad>55</ns3:cad>
          </ns3:TrackPointExtension>
        </extensions>
      </trkpt>
      <trkpt lat="37.77494170702993869781494140625" lon="-107.70113118924200534820556640625">
        <ele>3893.199951171875</ele>
        <time>2023-07-29T15:13:35.000Z</time>
        <extensions>
          <ns3:TrackPointExtension>
            <ns3:hr>85</ns3:hr>
            <ns3:cad>51</ns3:cad>
          </ns3:TrackPointExtension>
        </extensions>
      </trkpt>
      <trkpt lat="37.77495629154145717620849609375" lon="-107.70111962221562862396240234375">
        <ele>3893.199951171875</ele>
        <time>2023-07-29T15:13:36.000Z</time>
        <extensions>
          <ns3:TrackPointExtension>
            <ns3:hr>85</ns3:hr>
            <ns3:cad>51</ns3:cad>
          </ns3:TrackPointExtension>
        </extensions>
      </trkpt>
      <trkpt lat="37.77497003786265850067138671875" lon="-107.7011114917695522308349609375">
        <ele>3893.199951171875</ele>
        <time>2023-07-29T15:13:37.000Z</time>
        <extensions>
          <ns3:TrackPointExtension>
            <ns3:hr>85</ns3:hr>
            <ns3:cad>51</ns3:cad>
          </ns3:TrackPointExtension>
        </extensions>
      </trkpt>
      <trkpt lat="37.774982862174510955810546875" lon="-107.7011047862470149993896484375">
        <ele>3893.199951171875</ele>
        <time>2023-07-29T15:13:38.000Z</time>
        <extensions>
          <ns3:TrackPointExtension>
            <ns3:hr>85</ns3:hr>
            <ns3:cad>51</ns3:cad>
          </ns3:TrackPointExtension>
        </extensions>
      </trkpt>
      <trkpt lat="37.77499065734446048736572265625" lon="-107.70109866745769977569580078125">
        <ele>3893.199951171875</ele>
        <time>2023-07-29T15:13:39.000Z</time>
        <extensions>
          <ns3:TrackPointExtension>
            <ns3:hr>84</ns3:hr>
            <ns3:cad>16</ns3:cad>
          </ns3:TrackPointExtension>
        </extensions>
      </trkpt>
      <trkpt lat="37.77500272728502750396728515625" lon="-107.70109154284000396728515625">
        <ele>3893.199951171875</ele>
        <time>2023-07-29T15:13:40.000Z</time>
        <extensions>
          <ns3:TrackPointExtension>
            <ns3:hr>84</ns3:hr>
            <ns3:cad>0</ns3:cad>
          </ns3:TrackPointExtension>
        </extensions>
      </trkpt>
      <trkpt lat="37.77500775642693042755126953125" lon="-107.70108642987906932830810546875">
        <ele>3893</ele>
        <time>2023-07-29T15:13:41.000Z</time>
        <extensions>
          <ns3:TrackPointExtension>
            <ns3:hr>84</ns3:hr>
            <ns3:cad>0</ns3:cad>
          </ns3:TrackPointExtension>
        </extensions>
      </trkpt>
      <trkpt lat="37.77501647360622882843017578125" lon="-107.70108005963265895843505859375">
        <ele>3893</ele>
        <time>2023-07-29T15:13:42.000Z</time>
        <extensions>
          <ns3:TrackPointExtension>
            <ns3:hr>84</ns3:hr>
            <ns3:cad>0</ns3:cad>
          </ns3:TrackPointExtension>
        </extensions>
      </trkpt>
      <trkpt lat="37.77502099983394145965576171875" lon="-107.7010752819478511810302734375">
        <ele>3893</ele>
        <time>2023-07-29T15:13:43.000Z</time>
        <extensions>
          <ns3:TrackPointExtension>
            <ns3:hr>83</ns3:hr>
            <ns3:cad>53</ns3:cad>
          </ns3:TrackPointExtension>
        </extensions>
      </trkpt>
      <trkpt lat="37.77502519078552722930908203125" lon="-107.70106933079659938812255859375">
        <ele>3892.800048828125</ele>
        <time>2023-07-29T15:13:44.000Z</time>
        <extensions>
          <ns3:TrackPointExtension>
            <ns3:hr>83</ns3:hr>
            <ns3:cad>53</ns3:cad>
          </ns3:TrackPointExtension>
        </extensions>
      </trkpt>
      <trkpt lat="37.7750276215374469757080078125" lon="-107.701061703264713287353515625">
        <ele>3892.800048828125</ele>
        <time>2023-07-29T15:13:45.000Z</time>
        <extensions>
          <ns3:TrackPointExtension>
            <ns3:hr>83</ns3:hr>
            <ns3:cad>53</ns3:cad>
          </ns3:TrackPointExtension>
        </extensions>
      </trkpt>
      <trkpt lat="37.77502770535647869110107421875" lon="-107.70105776377022266387939453125">
        <ele>3893</ele>
        <time>2023-07-29T15:13:46.000Z</time>
        <extensions>
          <ns3:TrackPointExtension>
            <ns3:hr>82</ns3:hr>
            <ns3:cad>53</ns3:cad>
          </ns3:TrackPointExtension>
        </extensions>
      </trkpt>
      <trkpt lat="37.7750329859554767608642578125" lon="-107.70104594528675079345703125">
        <ele>3893</ele>
        <time>2023-07-29T15:13:47.000Z</time>
        <extensions>
          <ns3:TrackPointExtension>
            <ns3:hr>83</ns3:hr>
            <ns3:cad>53</ns3:cad>
          </ns3:TrackPointExtension>
        </extensions>
      </trkpt>
      <trkpt lat="37.77504430152475833892822265625" lon="-107.70103177987039089202880859375">
        <ele>3893.199951171875</ele>
        <time>2023-07-29T15:13:48.000Z</time>
        <extensions>
          <ns3:TrackPointExtension>
            <ns3:hr>84</ns3:hr>
            <ns3:cad>0</ns3:cad>
          </ns3:TrackPointExtension>
        </extensions>
      </trkpt>
      <trkpt lat="37.7750594727694988250732421875" lon="-107.70101954229176044464111328125">
        <ele>3893.199951171875</ele>
        <time>2023-07-29T15:13:49.000Z</time>
        <extensions>
          <ns3:TrackPointExtension>
            <ns3:hr>84</ns3:hr>
            <ns3:cad>0</ns3:cad>
          </ns3:TrackPointExtension>
        </extensions>
      </trkpt>
      <trkpt lat="37.775066681206226348876953125" lon="-107.701011411845684051513671875">
        <ele>3893.39990234375</ele>
        <time>2023-07-29T15:13:50.000Z</time>
        <extensions>
          <ns3:TrackPointExtension>
            <ns3:hr>84</ns3:hr>
            <ns3:cad>0</ns3:cad>
          </ns3:TrackPointExtension>
        </extensions>
      </trkpt>
      <trkpt lat="37.7750712074339389801025390625" lon="-107.70101149566471576690673828125">
        <ele>3893.60009765625</ele>
        <time>2023-07-29T15:13:51.000Z</time>
        <extensions>
          <ns3:TrackPointExtension>
            <ns3:hr>84</ns3:hr>
            <ns3:cad>0</ns3:cad>
          </ns3:TrackPointExtension>
        </extensions>
      </trkpt>
      <trkpt lat="37.77508101426064968109130859375" lon="-107.7010117471218109130859375">
        <ele>3893.60009765625</ele>
        <time>2023-07-29T15:13:52.000Z</time>
        <extensions>
          <ns3:TrackPointExtension>
            <ns3:hr>84</ns3:hr>
            <ns3:cad>0</ns3:cad>
          </ns3:TrackPointExtension>
        </extensions>
      </trkpt>
      <trkpt lat="37.77509576641023159027099609375" lon="-107.70100428722798824310302734375">
        <ele>3893.800048828125</ele>
        <time>2023-07-29T15:13:53.000Z</time>
        <extensions>
          <ns3:TrackPointExtension>
            <ns3:hr>84</ns3:hr>
            <ns3:cad>0</ns3:cad>
          </ns3:TrackPointExtension>
        </extensions>
      </trkpt>
      <trkpt lat="37.7751043997704982757568359375" lon="-107.70100009627640247344970703125">
        <ele>3894</ele>
        <time>2023-07-29T15:13:54.000Z</time>
        <extensions>
          <ns3:TrackPointExtension>
            <ns3:hr>84</ns3:hr>
            <ns3:cad>0</ns3:cad>
          </ns3:TrackPointExtension>
        </extensions>
      </trkpt>
      <trkpt lat="37.7751164697110652923583984375" lon="-107.70099691115319728851318359375">
        <ele>3894</ele>
        <time>2023-07-29T15:13:55.000Z</time>
        <extensions>
          <ns3:TrackPointExtension>
            <ns3:hr>84</ns3:hr>
            <ns3:cad>0</ns3:cad>
          </ns3:TrackPointExtension>
        </extensions>
      </trkpt>
      <trkpt lat="37.775124348700046539306640625" lon="-107.70099699497222900390625">
        <ele>3894.199951171875</ele>
        <time>2023-07-29T15:13:56.000Z</time>
        <extensions>
          <ns3:TrackPointExtension>
            <ns3:hr>85</ns3:hr>
            <ns3:cad>0</ns3:cad>
          </ns3:TrackPointExtension>
        </extensions>
      </trkpt>
      <trkpt lat="37.77513365261256694793701171875" lon="-107.7009961567819118499755859375">
        <ele>3894.39990234375</ele>
        <time>2023-07-29T15:13:57.000Z</time>
        <extensions>
          <ns3:TrackPointExtension>
            <ns3:hr>86</ns3:hr>
            <ns3:cad>0</ns3:cad>
          </ns3:TrackPointExtension>
        </extensions>
      </trkpt>
      <trkpt lat="37.7751399390399456024169921875" lon="-107.70099523477256298065185546875">
        <ele>3894.39990234375</ele>
        <time>2023-07-29T15:13:58.000Z</time>
        <extensions>
          <ns3:TrackPointExtension>
            <ns3:hr>87</ns3:hr>
            <ns3:cad>0</ns3:cad>
          </ns3:TrackPointExtension>
        </extensions>
      </trkpt>
      <trkpt lat="37.7751530148088932037353515625" lon="-107.7009921334683895111083984375">
        <ele>3894.39990234375</ele>
        <time>2023-07-29T15:13:59.000Z</time>
        <extensions>
          <ns3:TrackPointExtension>
            <ns3:hr>88</ns3:hr>
            <ns3:cad>0</ns3:cad>
          </ns3:TrackPointExtension>
        </extensions>
      </trkpt>
      <trkpt lat="37.775165252387523651123046875" lon="-107.700990624725818634033203125">
        <ele>3894.39990234375</ele>
        <time>2023-07-29T15:14:00.000Z</time>
        <extensions>
          <ns3:TrackPointExtension>
            <ns3:hr>91</ns3:hr>
            <ns3:cad>0</ns3:cad>
          </ns3:TrackPointExtension>
        </extensions>
      </trkpt>
      <trkpt lat="37.7751768194139003753662109375" lon="-107.70098961889743804931640625">
        <ele>3894.39990234375</ele>
        <time>2023-07-29T15:14:01.000Z</time>
        <extensions>
          <ns3:TrackPointExtension>
            <ns3:hr>91</ns3:hr>
            <ns3:cad>0</ns3:cad>
          </ns3:TrackPointExtension>
        </extensions>
      </trkpt>
      <trkpt lat="37.77519148774445056915283203125" lon="-107.70098769105970859527587890625">
        <ele>3894.39990234375</ele>
        <time>2023-07-29T15:14:02.000Z</time>
        <extensions>
          <ns3:TrackPointExtension>
            <ns3:hr>93</ns3:hr>
            <ns3:cad>0</ns3:cad>
          </ns3:TrackPointExtension>
        </extensions>
      </trkpt>
      <trkpt lat="37.77519970200955867767333984375" lon="-107.70098651759326457977294921875">
        <ele>3894.39990234375</ele>
        <time>2023-07-29T15:14:03.000Z</time>
        <extensions>
          <ns3:TrackPointExtension>
            <ns3:hr>94</ns3:hr>
            <ns3:cad>0</ns3:cad>
          </ns3:TrackPointExtension>
        </extensions>
      </trkpt>
      <trkpt lat="37.7752076648175716400146484375" lon="-107.700983919203281402587890625">
        <ele>3894.39990234375</ele>
        <time>2023-07-29T15:14:04.000Z</time>
        <extensions>
          <ns3:TrackPointExtension>
            <ns3:hr>95</ns3:hr>
            <ns3:cad>0</ns3:cad>
          </ns3:TrackPointExtension>
        </extensions>
      </trkpt>
      <trkpt lat="37.77521311305463314056396484375" lon="-107.70097880624234676361083984375">
        <ele>3894.60009765625</ele>
        <time>2023-07-29T15:14:05.000Z</time>
        <extensions>
          <ns3:TrackPointExtension>
            <ns3:hr>96</ns3:hr>
            <ns3:cad>0</ns3:cad>
          </ns3:TrackPointExtension>
        </extensions>
      </trkpt>
      <trkpt lat="37.77521789073944091796875" lon="-107.7009743638336658477783203125">
        <ele>3894.60009765625</ele>
        <time>2023-07-29T15:14:06.000Z</time>
        <extensions>
          <ns3:TrackPointExtension>
            <ns3:hr>96</ns3:hr>
            <ns3:cad>0</ns3:cad>
          </ns3:TrackPointExtension>
        </extensions>
      </trkpt>
      <trkpt lat="37.77522199787199497222900390625" lon="-107.70096950232982635498046875">
        <ele>3894.800048828125</ele>
        <time>2023-07-29T15:14:07.000Z</time>
        <extensions>
          <ns3:TrackPointExtension>
            <ns3:hr>97</ns3:hr>
            <ns3:cad>0</ns3:cad>
          </ns3:TrackPointExtension>
        </extensions>
      </trkpt>
      <trkpt lat="37.77522065676748752593994140625" lon="-107.70096740685403347015380859375">
        <ele>3895</ele>
        <time>2023-07-29T15:14:08.000Z</time>
        <extensions>
          <ns3:TrackPointExtension>
            <ns3:hr>97</ns3:hr>
            <ns3:cad>0</ns3:cad>
          </ns3:TrackPointExtension>
        </extensions>
      </trkpt>
      <trkpt lat="37.7752173878252506256103515625" lon="-107.7009676583111286163330078125">
        <ele>3895.199951171875</ele>
        <time>2023-07-29T15:14:09.000Z</time>
        <extensions>
          <ns3:TrackPointExtension>
            <ns3:hr>97</ns3:hr>
            <ns3:cad>0</ns3:cad>
          </ns3:TrackPointExtension>
        </extensions>
      </trkpt>
      <trkpt lat="37.7752204053103923797607421875" lon="-107.700963132083415985107421875">
        <ele>3895.39990234375</ele>
        <time>2023-07-29T15:14:10.000Z</time>
        <extensions>
          <ns3:TrackPointExtension>
            <ns3:hr>98</ns3:hr>
            <ns3:cad>0</ns3:cad>
          </ns3:TrackPointExtension>
        </extensions>
      </trkpt>
      <trkpt lat="37.775224260985851287841796875" lon="-107.70096279680728912353515625">
        <ele>3895.60009765625</ele>
        <time>2023-07-29T15:14:11.000Z</time>
        <extensions>
          <ns3:TrackPointExtension>
            <ns3:hr>99</ns3:hr>
            <ns3:cad>0</ns3:cad>
          </ns3:TrackPointExtension>
        </extensions>
      </trkpt>
      <trkpt lat="37.7752318046987056732177734375" lon="-107.70095701329410076141357421875">
        <ele>3895.800048828125</ele>
        <time>2023-07-29T15:14:12.000Z</time>
        <extensions>
          <ns3:TrackPointExtension>
            <ns3:hr>100</ns3:hr>
            <ns3:cad>0</ns3:cad>
          </ns3:TrackPointExtension>
        </extensions>
      </trkpt>
      <trkpt lat="37.7752408571541309356689453125" lon="-107.70094846375286579132080078125">
        <ele>3896</ele>
        <time>2023-07-29T15:14:13.000Z</time>
        <extensions>
          <ns3:TrackPointExtension>
            <ns3:hr>101</ns3:hr>
            <ns3:cad>0</ns3:cad>
          </ns3:TrackPointExtension>
        </extensions>
      </trkpt>
      <trkpt lat="37.775249071419239044189453125" lon="-107.7009358070790767669677734375">
        <ele>3896.199951171875</ele>
        <time>2023-07-29T15:14:14.000Z</time>
        <extensions>
          <ns3:TrackPointExtension>
            <ns3:hr>102</ns3:hr>
            <ns3:cad>0</ns3:cad>
          </ns3:TrackPointExtension>
        </extensions>
      </trkpt>
      <trkpt lat="37.7752559445798397064208984375" lon="-107.7009234018623828887939453125">
        <ele>3896.199951171875</ele>
        <time>2023-07-29T15:14:15.000Z</time>
        <extensions>
          <ns3:TrackPointExtension>
            <ns3:hr>103</ns3:hr>
            <ns3:cad>0</ns3:cad>
          </ns3:TrackPointExtension>
        </extensions>
      </trkpt>
      <trkpt lat="37.775263823568820953369140625" lon="-107.70091091282665729522705078125">
        <ele>3896.60009765625</ele>
        <time>2023-07-29T15:14:16.000Z</time>
        <extensions>
          <ns3:TrackPointExtension>
            <ns3:hr>103</ns3:hr>
            <ns3:cad>0</ns3:cad>
          </ns3:TrackPointExtension>
        </extensions>
      </trkpt>
      <trkpt lat="37.7752666734158992767333984375" lon="-107.7009036205708980560302734375">
        <ele>3896.60009765625</ele>
        <time>2023-07-29T15:14:17.000Z</time>
        <extensions>
          <ns3:TrackPointExtension>
            <ns3:hr>103</ns3:hr>
            <ns3:cad>0</ns3:cad>
          </ns3:TrackPointExtension>
        </extensions>
      </trkpt>
      <trkpt lat="37.77526860125362873077392578125" lon="-107.70090051926672458648681640625">
        <ele>3896.60009765625</ele>
        <time>2023-07-29T15:14:18.000Z</time>
        <extensions>
          <ns3:TrackPointExtension>
            <ns3:hr>103</ns3:hr>
            <ns3:cad>0</ns3:cad>
          </ns3:TrackPointExtension>
        </extensions>
      </trkpt>
      <trkpt lat="37.77527161873877048492431640625" lon="-107.7008952386677265167236328125">
        <ele>3896.800048828125</ele>
        <time>2023-07-29T15:14:19.000Z</time>
        <extensions>
          <ns3:TrackPointExtension>
            <ns3:hr>103</ns3:hr>
            <ns3:cad>47</ns3:cad>
          </ns3:TrackPointExtension>
        </extensions>
      </trkpt>
      <trkpt lat="37.7752743847668170928955078125" lon="-107.70088928751647472381591796875">
        <ele>3897</ele>
        <time>2023-07-29T15:14:20.000Z</time>
        <extensions>
          <ns3:TrackPointExtension>
            <ns3:hr>105</ns3:hr>
            <ns3:cad>47</ns3:cad>
          </ns3:TrackPointExtension>
        </extensions>
      </trkpt>
      <trkpt lat="37.77527748607099056243896484375" lon="-107.700887359678745269775390625">
        <ele>3897.199951171875</ele>
        <time>2023-07-29T15:14:21.000Z</time>
        <extensions>
          <ns3:TrackPointExtension>
            <ns3:hr>105</ns3:hr>
            <ns3:cad>0</ns3:cad>
          </ns3:TrackPointExtension>
        </extensions>
      </trkpt>
      <trkpt lat="37.7752782404422760009765625" lon="-107.700888700783252716064453125">
        <ele>3897.39990234375</ele>
        <time>2023-07-29T15:14:22.000Z</time>
        <extensions>
          <ns3:TrackPointExtension>
            <ns3:hr>105</ns3:hr>
            <ns3:cad>0</ns3:cad>
          </ns3:TrackPointExtension>
        </extensions>
      </trkpt>
      <trkpt lat="37.7752836048603057861328125" lon="-107.70088627003133296966552734375">
        <ele>3897.800048828125</ele>
        <time>2023-07-29T15:14:23.000Z</time>
        <extensions>
          <ns3:TrackPointExtension>
            <ns3:hr>106</ns3:hr>
            <ns3:cad>0</ns3:cad>
          </ns3:TrackPointExtension>
        </extensions>
      </trkpt>
      <trkpt lat="37.775289304554462432861328125" lon="-107.70088409073650836944580078125">
        <ele>3898</ele>
        <time>2023-07-29T15:14:24.000Z</time>
        <extensions>
          <ns3:TrackPointExtension>
            <ns3:hr>107</ns3:hr>
            <ns3:cad>0</ns3:cad>
          </ns3:TrackPointExtension>
        </extensions>
      </trkpt>
      <trkpt lat="37.7752965129911899566650390625" lon="-107.700881324708461761474609375">
        <ele>3898</ele>
        <time>2023-07-29T15:14:25.000Z</time>
        <extensions>
          <ns3:TrackPointExtension>
            <ns3:hr>107</ns3:hr>
            <ns3:cad>0</ns3:cad>
          </ns3:TrackPointExtension>
        </extensions>
      </trkpt>
      <trkpt lat="37.775304056704044342041015625" lon="-107.70087671466171741485595703125">
        <ele>3898.199951171875</ele>
        <time>2023-07-29T15:14:26.000Z</time>
        <extensions>
          <ns3:TrackPointExtension>
            <ns3:hr>107</ns3:hr>
            <ns3:cad>0</ns3:cad>
          </ns3:TrackPointExtension>
        </extensions>
      </trkpt>
      <trkpt lat="37.77531445026397705078125" lon="-107.700873278081417083740234375">
        <ele>3898.199951171875</ele>
        <time>2023-07-29T15:14:27.000Z</time>
        <extensions>
          <ns3:TrackPointExtension>
            <ns3:hr>106</ns3:hr>
            <ns3:cad>48</ns3:cad>
          </ns3:TrackPointExtension>
        </extensions>
      </trkpt>
      <trkpt lat="37.775320820510387420654296875" lon="-107.70087051205337047576904296875">
        <ele>3898.39990234375</ele>
        <time>2023-07-29T15:14:28.000Z</time>
        <extensions>
          <ns3:TrackPointExtension>
            <ns3:hr>107</ns3:hr>
            <ns3:cad>48</ns3:cad>
          </ns3:TrackPointExtension>
        </extensions>
      </trkpt>
      <trkpt lat="37.77532660402357578277587890625" lon="-107.70086833275854587554931640625">
        <ele>3898.60009765625</ele>
        <time>2023-07-29T15:14:29.000Z</time>
        <extensions>
          <ns3:TrackPointExtension>
            <ns3:hr>107</ns3:hr>
            <ns3:cad>0</ns3:cad>
          </ns3:TrackPointExtension>
        </extensions>
      </trkpt>
      <trkpt lat="37.77533330954611301422119140625" lon="-107.70087026059627532958984375">
        <ele>3898.60009765625</ele>
        <time>2023-07-29T15:14:30.000Z</time>
        <extensions>
          <ns3:TrackPointExtension>
            <ns3:hr>108</ns3:hr>
            <ns3:cad>0</ns3:cad>
          </ns3:TrackPointExtension>
        </extensions>
      </trkpt>
      <trkpt lat="37.775339595973491668701171875" lon="-107.7008694224059581756591796875">
        <ele>3899</ele>
        <time>2023-07-29T15:14:31.000Z</time>
        <extensions>
          <ns3:TrackPointExtension>
            <ns3:hr>108</ns3:hr>
            <ns3:cad>0</ns3:cad>
          </ns3:TrackPointExtension>
        </extensions>
      </trkpt>
      <trkpt lat="37.77534269727766513824462890625" lon="-107.7008707635104656219482421875">
        <ele>3899</ele>
        <time>2023-07-29T15:14:32.000Z</time>
        <extensions>
          <ns3:TrackPointExtension>
            <ns3:hr>111</ns3:hr>
            <ns3:cad>0</ns3:cad>
          </ns3:TrackPointExtension>
        </extensions>
      </trkpt>
      <trkpt lat="37.77534537948668003082275390625" lon="-107.70086933858692646026611328125">
        <ele>3899.199951171875</ele>
        <time>2023-07-29T15:14:33.000Z</time>
        <extensions>
          <ns3:TrackPointExtension>
            <ns3:hr>111</ns3:hr>
            <ns3:cad>0</ns3:cad>
          </ns3:TrackPointExtension>
        </extensions>
      </trkpt>
      <trkpt lat="37.7753471396863460540771484375" lon="-107.70086497999727725982666015625">
        <ele>3899.39990234375</ele>
        <time>2023-07-29T15:14:34.000Z</time>
        <extensions>
          <ns3:TrackPointExtension>
            <ns3:hr>112</ns3:hr>
            <ns3:cad>0</ns3:cad>
          </ns3:TrackPointExtension>
        </extensions>
      </trkpt>
      <trkpt lat="37.7753535099327564239501953125" lon="-107.700860537588596343994140625">
        <ele>3900</ele>
        <time>2023-07-29T15:14:35.000Z</time>
        <extensions>
          <ns3:TrackPointExtension>
            <ns3:hr>112</ns3:hr>
            <ns3:cad>0</ns3:cad>
          </ns3:TrackPointExtension>
        </extensions>
      </trkpt>
      <trkpt lat="37.77536348439753055572509765625" lon="-107.70085173659026622772216796875">
        <ele>3900.199951171875</ele>
        <time>2023-07-29T15:14:36.000Z</time>
        <extensions>
          <ns3:TrackPointExtension>
            <ns3:hr>113</ns3:hr>
            <ns3:cad>0</ns3:cad>
          </ns3:TrackPointExtension>
        </extensions>
      </trkpt>
      <trkpt lat="37.77536549605429172515869140625" lon="-107.70084821619093418121337890625">
        <ele>3900.39990234375</ele>
        <time>2023-07-29T15:14:37.000Z</time>
        <extensions>
          <ns3:TrackPointExtension>
            <ns3:hr>114</ns3:hr>
            <ns3:cad>0</ns3:cad>
          </ns3:TrackPointExtension>
        </extensions>
      </trkpt>
      <trkpt lat="37.7753729559481143951416015625" lon="-107.70084285177290439605712890625">
        <ele>3900.60009765625</ele>
        <time>2023-07-29T15:14:38.000Z</time>
        <extensions>
          <ns3:TrackPointExtension>
            <ns3:hr>114</ns3:hr>
            <ns3:cad>0</ns3:cad>
          </ns3:TrackPointExtension>
        </extensions>
      </trkpt>
      <trkpt lat="37.7753799967467784881591796875" lon="-107.70084151066839694976806640625">
        <ele>3900.800048828125</ele>
        <time>2023-07-29T15:14:39.000Z</time>
        <extensions>
          <ns3:TrackPointExtension>
            <ns3:hr>114</ns3:hr>
            <ns3:cad>0</ns3:cad>
          </ns3:TrackPointExtension>
        </extensions>
      </trkpt>
      <trkpt lat="37.77538410387933254241943359375" lon="-107.70084285177290439605712890625">
        <ele>3901</ele>
        <time>2023-07-29T15:14:40.000Z</time>
        <extensions>
          <ns3:TrackPointExtension>
            <ns3:hr>114</ns3:hr>
            <ns3:cad>0</ns3:cad>
          </ns3:TrackPointExtension>
        </extensions>
      </trkpt>
      <trkpt lat="37.77538888156414031982421875" lon="-107.70084218122065067291259765625">
        <ele>3901.199951171875</ele>
        <time>2023-07-29T15:14:41.000Z</time>
        <extensions>
          <ns3:TrackPointExtension>
            <ns3:hr>114</ns3:hr>
            <ns3:cad>0</ns3:cad>
          </ns3:TrackPointExtension>
        </extensions>
      </trkpt>
      <trkpt lat="37.77539717964828014373779296875" lon="-107.7008472941815853118896484375">
        <ele>3901.39990234375</ele>
        <time>2023-07-29T15:14:42.000Z</time>
        <extensions>
          <ns3:TrackPointExtension>
            <ns3:hr>114</ns3:hr>
            <ns3:cad>0</ns3:cad>
          </ns3:TrackPointExtension>
        </extensions>
      </trkpt>
      <trkpt lat="37.77540472336113452911376953125" lon="-107.70084771327674388885498046875">
        <ele>3901.60009765625</ele>
        <time>2023-07-29T15:14:43.000Z</time>
        <extensions>
          <ns3:TrackPointExtension>
            <ns3:hr>114</ns3:hr>
            <ns3:cad>0</ns3:cad>
          </ns3:TrackPointExtension>
        </extensions>
      </trkpt>
      <trkpt lat="37.775410003960132598876953125" lon="-107.70084402523934841156005859375">
        <ele>3901.60009765625</ele>
        <time>2023-07-29T15:14:44.000Z</time>
        <extensions>
          <ns3:TrackPointExtension>
            <ns3:hr>113</ns3:hr>
            <ns3:cad>0</ns3:cad>
          </ns3:TrackPointExtension>
        </extensions>
      </trkpt>
      <trkpt lat="37.77541712857782840728759765625" lon="-107.7008399181067943572998046875">
        <ele>3902</ele>
        <time>2023-07-29T15:14:45.000Z</time>
        <extensions>
          <ns3:TrackPointExtension>
            <ns3:hr>113</ns3:hr>
            <ns3:cad>0</ns3:cad>
          </ns3:TrackPointExtension>
        </extensions>
      </trkpt>
      <trkpt lat="37.775417380034923553466796875" lon="-107.70083648152649402618408203125">
        <ele>3902.39990234375</ele>
        <time>2023-07-29T15:14:46.000Z</time>
        <extensions>
          <ns3:TrackPointExtension>
            <ns3:hr>114</ns3:hr>
            <ns3:cad>0</ns3:cad>
          </ns3:TrackPointExtension>
        </extensions>
      </trkpt>
      <trkpt lat="37.7754202298820018768310546875" lon="-107.7008338831365108489990234375">
        <ele>3902.39990234375</ele>
        <time>2023-07-29T15:14:47.000Z</time>
        <extensions>
          <ns3:TrackPointExtension>
            <ns3:hr>117</ns3:hr>
            <ns3:cad>0</ns3:cad>
          </ns3:TrackPointExtension>
        </extensions>
      </trkpt>
      <trkpt lat="37.77542199008166790008544921875" lon="-107.7008293569087982177734375">
        <ele>3902.60009765625</ele>
        <time>2023-07-29T15:14:48.000Z</time>
        <extensions>
          <ns3:TrackPointExtension>
            <ns3:hr>124</ns3:hr>
            <ns3:cad>0</ns3:cad>
          </ns3:TrackPointExtension>
        </extensions>
      </trkpt>
      <trkpt lat="37.77542148716747760772705078125" lon="-107.70082910545170307159423828125">
        <ele>3902.60009765625</ele>
        <time>2023-07-29T15:14:49.000Z</time>
        <extensions>
          <ns3:TrackPointExtension>
            <ns3:hr>124</ns3:hr>
            <ns3:cad>0</ns3:cad>
          </ns3:TrackPointExtension>
        </extensions>
      </trkpt>
      <trkpt lat="37.775421403348445892333984375" lon="-107.70082734525203704833984375">
        <ele>3902.800048828125</ele>
        <time>2023-07-29T15:14:50.000Z</time>
        <extensions>
          <ns3:TrackPointExtension>
            <ns3:hr>125</ns3:hr>
            <ns3:cad>0</ns3:cad>
          </ns3:TrackPointExtension>
        </extensions>
      </trkpt>
      <trkpt lat="37.77543154545128345489501953125" lon="-107.70082172937691211700439453125">
        <ele>3903</ele>
        <time>2023-07-29T15:14:51.000Z</time>
        <extensions>
          <ns3:TrackPointExtension>
            <ns3:hr>125</ns3:hr>
            <ns3:cad>0</ns3:cad>
          </ns3:TrackPointExtension>
        </extensions>
      </trkpt>
      <trkpt lat="37.77543707750737667083740234375" lon="-107.70081661641597747802734375">
        <ele>3903.199951171875</ele>
        <time>2023-07-29T15:14:52.000Z</time>
        <extensions>
          <ns3:TrackPointExtension>
            <ns3:hr>124</ns3:hr>
            <ns3:cad>0</ns3:cad>
          </ns3:TrackPointExtension>
        </extensions>
      </trkpt>
      <trkpt lat="37.77544277720153331756591796875" lon="-107.70080982707440853118896484375">
        <ele>3903.60009765625</ele>
        <time>2023-07-29T15:14:53.000Z</time>
        <extensions>
          <ns3:TrackPointExtension>
            <ns3:hr>124</ns3:hr>
            <ns3:cad>0</ns3:cad>
          </ns3:TrackPointExtension>
        </extensions>
      </trkpt>
      <trkpt lat="37.7754483930766582489013671875" lon="-107.70080613903701305389404296875">
        <ele>3903.60009765625</ele>
        <time>2023-07-29T15:14:54.000Z</time>
        <extensions>
          <ns3:TrackPointExtension>
            <ns3:hr>123</ns3:hr>
            <ns3:cad>0</ns3:cad>
          </ns3:TrackPointExtension>
        </extensions>
      </trkpt>
      <trkpt lat="37.775454930961132049560546875" lon="-107.700801193714141845703125">
        <ele>3903.800048828125</ele>
        <time>2023-07-29T15:14:55.000Z</time>
        <extensions>
          <ns3:TrackPointExtension>
            <ns3:hr>123</ns3:hr>
            <ns3:cad>0</ns3:cad>
          </ns3:TrackPointExtension>
        </extensions>
      </trkpt>
      <trkpt lat="37.7754685096442699432373046875" lon="-107.700792811810970306396484375">
        <ele>3903.800048828125</ele>
        <time>2023-07-29T15:14:56.000Z</time>
        <extensions>
          <ns3:TrackPointExtension>
            <ns3:hr>123</ns3:hr>
            <ns3:cad>0</ns3:cad>
          </ns3:TrackPointExtension>
        </extensions>
      </trkpt>
      <trkpt lat="37.77547538280487060546875" lon="-107.7007891237735748291015625">
        <ele>3903.800048828125</ele>
        <time>2023-07-29T15:14:57.000Z</time>
        <extensions>
          <ns3:TrackPointExtension>
            <ns3:hr>123</ns3:hr>
            <ns3:cad>0</ns3:cad>
          </ns3:TrackPointExtension>
        </extensions>
      </trkpt>
      <trkpt lat="37.7754886262118816375732421875" lon="-107.700782753527164459228515625">
        <ele>3904</ele>
        <time>2023-07-29T15:14:58.000Z</time>
        <extensions>
          <ns3:TrackPointExtension>
            <ns3:hr>124</ns3:hr>
            <ns3:cad>0</ns3:cad>
          </ns3:TrackPointExtension>
        </extensions>
      </trkpt>
      <trkpt lat="37.77549524791538715362548828125" lon="-107.7007812447845935821533203125">
        <ele>3904.199951171875</ele>
        <time>2023-07-29T15:14:59.000Z</time>
        <extensions>
          <ns3:TrackPointExtension>
            <ns3:hr>124</ns3:hr>
            <ns3:cad>0</ns3:cad>
          </ns3:TrackPointExtension>
        </extensions>
      </trkpt>
      <trkpt lat="37.77549725957214832305908203125" lon="-107.70078166387975215911865234375">
        <ele>3904.39990234375</ele>
        <time>2023-07-29T15:15:00.000Z</time>
        <extensions>
          <ns3:TrackPointExtension>
            <ns3:hr>124</ns3:hr>
            <ns3:cad>0</ns3:cad>
          </ns3:TrackPointExtension>
        </extensions>
      </trkpt>
      <trkpt lat="37.775505222380161285400390625" lon="-107.70077906548976898193359375">
        <ele>3904.60009765625</ele>
        <time>2023-07-29T15:15:01.000Z</time>
        <extensions>
          <ns3:TrackPointExtension>
            <ns3:hr>124</ns3:hr>
            <ns3:cad>0</ns3:cad>
          </ns3:TrackPointExtension>
        </extensions>
      </trkpt>
      <trkpt lat="37.7755067311227321624755859375" lon="-107.70077864639461040496826171875">
        <ele>3905</ele>
        <time>2023-07-29T15:15:02.000Z</time>
        <extensions>
          <ns3:TrackPointExtension>
            <ns3:hr>124</ns3:hr>
            <ns3:cad>0</ns3:cad>
          </ns3:TrackPointExtension>
        </extensions>
      </trkpt>
      <trkpt lat="37.77551268227398395538330078125" lon="-107.70077697001397609710693359375">
        <ele>3905</ele>
        <time>2023-07-29T15:15:03.000Z</time>
        <extensions>
          <ns3:TrackPointExtension>
            <ns3:hr>123</ns3:hr>
            <ns3:cad>0</ns3:cad>
          </ns3:TrackPointExtension>
        </extensions>
      </trkpt>
      <trkpt lat="37.7755204774439334869384765625" lon="-107.70077529363334178924560546875">
        <ele>3905</ele>
        <time>2023-07-29T15:15:04.000Z</time>
        <extensions>
          <ns3:TrackPointExtension>
            <ns3:hr>123</ns3:hr>
            <ns3:cad>40</ns3:cad>
          </ns3:TrackPointExtension>
        </extensions>
      </trkpt>
      <trkpt lat="37.77553237974643707275390625" lon="-107.70077026449143886566162109375">
        <ele>3905.199951171875</ele>
        <time>2023-07-29T15:15:05.000Z</time>
        <extensions>
          <ns3:TrackPointExtension>
            <ns3:hr>123</ns3:hr>
            <ns3:cad>40</ns3:cad>
          </ns3:TrackPointExtension>
        </extensions>
      </trkpt>
      <trkpt lat="37.77554134838283061981201171875" lon="-107.700763307511806488037109375">
        <ele>3905.199951171875</ele>
        <time>2023-07-29T15:15:06.000Z</time>
        <extensions>
          <ns3:TrackPointExtension>
            <ns3:hr>123</ns3:hr>
            <ns3:cad>40</ns3:cad>
          </ns3:TrackPointExtension>
        </extensions>
      </trkpt>
      <trkpt lat="37.77554755099117755889892578125" lon="-107.70076003856956958770751953125">
        <ele>3905.39990234375</ele>
        <time>2023-07-29T15:15:07.000Z</time>
        <extensions>
          <ns3:TrackPointExtension>
            <ns3:hr>123</ns3:hr>
            <ns3:cad>0</ns3:cad>
          </ns3:TrackPointExtension>
        </extensions>
      </trkpt>
      <trkpt lat="37.77555358596146106719970703125" lon="-107.7007569372653961181640625">
        <ele>3905.39990234375</ele>
        <time>2023-07-29T15:15:08.000Z</time>
        <extensions>
          <ns3:TrackPointExtension>
            <ns3:hr>123</ns3:hr>
            <ns3:cad>0</ns3:cad>
          </ns3:TrackPointExtension>
        </extensions>
      </trkpt>
      <trkpt lat="37.7755620516836643218994140625" lon="-107.70075132139027118682861328125">
        <ele>3905.39990234375</ele>
        <time>2023-07-29T15:15:09.000Z</time>
        <extensions>
          <ns3:TrackPointExtension>
            <ns3:hr>123</ns3:hr>
            <ns3:cad>49</ns3:cad>
          </ns3:TrackPointExtension>
        </extensions>
      </trkpt>
      <trkpt lat="37.77557034976780414581298828125" lon="-107.700746543705463409423828125">
        <ele>3905.39990234375</ele>
        <time>2023-07-29T15:15:10.000Z</time>
        <extensions>
          <ns3:TrackPointExtension>
            <ns3:hr>124</ns3:hr>
            <ns3:cad>49</ns3:cad>
          </ns3:TrackPointExtension>
        </extensions>
      </trkpt>
      <trkpt lat="37.77557906694710254669189453125" lon="-107.70073975436389446258544921875">
        <ele>3905.60009765625</ele>
        <time>2023-07-29T15:15:11.000Z</time>
        <extensions>
          <ns3:TrackPointExtension>
            <ns3:hr>124</ns3:hr>
            <ns3:cad>49</ns3:cad>
          </ns3:TrackPointExtension>
        </extensions>
      </trkpt>
      <trkpt lat="37.7755895443260669708251953125" lon="-107.70073338411748409271240234375">
        <ele>3905.800048828125</ele>
        <time>2023-07-29T15:15:12.000Z</time>
        <extensions>
          <ns3:TrackPointExtension>
            <ns3:hr>124</ns3:hr>
            <ns3:cad>59</ns3:cad>
          </ns3:TrackPointExtension>
        </extensions>
      </trkpt>
      <trkpt lat="37.77560345828533172607421875" lon="-107.70072273910045623779296875">
        <ele>3905.800048828125</ele>
        <time>2023-07-29T15:15:13.000Z</time>
        <extensions>
          <ns3:TrackPointExtension>
            <ns3:hr>124</ns3:hr>
            <ns3:cad>59</ns3:cad>
          </ns3:TrackPointExtension>
        </extensions>
      </trkpt>
      <trkpt lat="37.775617875158786773681640625" lon="-107.70071075297892093658447265625">
        <ele>3906.199951171875</ele>
        <time>2023-07-29T15:15:14.000Z</time>
        <extensions>
          <ns3:TrackPointExtension>
            <ns3:hr>124</ns3:hr>
            <ns3:cad>0</ns3:cad>
          </ns3:TrackPointExtension>
        </extensions>
      </trkpt>
      <trkpt lat="37.775627262890338897705078125" lon="-107.70070354454219341278076171875">
        <ele>3906.39990234375</ele>
        <time>2023-07-29T15:15:15.000Z</time>
        <extensions>
          <ns3:TrackPointExtension>
            <ns3:hr>124</ns3:hr>
            <ns3:cad>0</ns3:cad>
          </ns3:TrackPointExtension>
        </extensions>
      </trkpt>
      <trkpt lat="37.775636650621891021728515625" lon="-107.7006967552006244659423828125">
        <ele>3906.60009765625</ele>
        <time>2023-07-29T15:15:16.000Z</time>
        <extensions>
          <ns3:TrackPointExtension>
            <ns3:hr>123</ns3:hr>
            <ns3:cad>0</ns3:cad>
          </ns3:TrackPointExtension>
        </extensions>
      </trkpt>
      <trkpt lat="37.77564159594476222991943359375" lon="-107.70069214515388011932373046875">
        <ele>3906.60009765625</ele>
        <time>2023-07-29T15:15:17.000Z</time>
        <extensions>
          <ns3:TrackPointExtension>
            <ns3:hr>124</ns3:hr>
            <ns3:cad>0</ns3:cad>
          </ns3:TrackPointExtension>
        </extensions>
      </trkpt>
      <trkpt lat="37.775644697248935699462890625" lon="-107.7006887085735797882080078125">
        <ele>3907</ele>
        <time>2023-07-29T15:15:18.000Z</time>
        <extensions>
          <ns3:TrackPointExtension>
            <ns3:hr>124</ns3:hr>
            <ns3:cad>0</ns3:cad>
          </ns3:TrackPointExtension>
        </extensions>
      </trkpt>
      <trkpt lat="37.7756482176482677459716796875" lon="-107.7006840147078037261962890625">
        <ele>3907.199951171875</ele>
        <time>2023-07-29T15:15:19.000Z</time>
        <extensions>
          <ns3:TrackPointExtension>
            <ns3:hr>125</ns3:hr>
            <ns3:cad>0</ns3:cad>
          </ns3:TrackPointExtension>
        </extensions>
      </trkpt>
      <trkpt lat="37.775657437741756439208984375" lon="-107.70067571662366390228271484375">
        <ele>3907.199951171875</ele>
        <time>2023-07-29T15:15:20.000Z</time>
        <extensions>
          <ns3:TrackPointExtension>
            <ns3:hr>125</ns3:hr>
            <ns3:cad>0</ns3:cad>
          </ns3:TrackPointExtension>
        </extensions>
      </trkpt>
      <trkpt lat="37.77566221542656421661376953125" lon="-107.70066850818693637847900390625">
        <ele>3907.39990234375</ele>
        <time>2023-07-29T15:15:21.000Z</time>
        <extensions>
          <ns3:TrackPointExtension>
            <ns3:hr>125</ns3:hr>
            <ns3:cad>0</ns3:cad>
          </ns3:TrackPointExtension>
        </extensions>
      </trkpt>
      <trkpt lat="37.77566456235945224761962890625" lon="-107.700664065778255462646484375">
        <ele>3907.60009765625</ele>
        <time>2023-07-29T15:15:22.000Z</time>
        <extensions>
          <ns3:TrackPointExtension>
            <ns3:hr>125</ns3:hr>
            <ns3:cad>0</ns3:cad>
          </ns3:TrackPointExtension>
        </extensions>
      </trkpt>
      <trkpt lat="37.7756723575294017791748046875" lon="-107.70065836608409881591796875">
        <ele>3907.60009765625</ele>
        <time>2023-07-29T15:15:23.000Z</time>
        <extensions>
          <ns3:TrackPointExtension>
            <ns3:hr>125</ns3:hr>
            <ns3:cad>0</ns3:cad>
          </ns3:TrackPointExtension>
        </extensions>
      </trkpt>
      <trkpt lat="37.77567964978516101837158203125" lon="-107.70065710879862308502197265625">
        <ele>3907.800048828125</ele>
        <time>2023-07-29T15:15:24.000Z</time>
        <extensions>
          <ns3:TrackPointExtension>
            <ns3:hr>125</ns3:hr>
            <ns3:cad>0</ns3:cad>
          </ns3:TrackPointExtension>
        </extensions>
      </trkpt>
      <trkpt lat="37.77568032033741474151611328125" lon="-107.70065945573151111602783203125">
        <ele>3908</ele>
        <time>2023-07-29T15:15:25.000Z</time>
        <extensions>
          <ns3:TrackPointExtension>
            <ns3:hr>125</ns3:hr>
            <ns3:cad>0</ns3:cad>
          </ns3:TrackPointExtension>
        </extensions>
      </trkpt>
      <trkpt lat="37.77568819932639598846435546875" lon="-107.70065828226506710052490234375">
        <ele>3908.199951171875</ele>
        <time>2023-07-29T15:15:26.000Z</time>
        <extensions>
          <ns3:TrackPointExtension>
            <ns3:hr>125</ns3:hr>
            <ns3:cad>0</ns3:cad>
          </ns3:TrackPointExtension>
        </extensions>
      </trkpt>
      <trkpt lat="37.77569909580051898956298828125" lon="-107.70065761171281337738037109375">
        <ele>3908.199951171875</ele>
        <time>2023-07-29T15:15:27.000Z</time>
        <extensions>
          <ns3:TrackPointExtension>
            <ns3:hr>125</ns3:hr>
            <ns3:cad>0</ns3:cad>
          </ns3:TrackPointExtension>
        </extensions>
      </trkpt>
      <trkpt lat="37.77570378966629505157470703125" lon="-107.70065702497959136962890625">
        <ele>3908.60009765625</ele>
        <time>2023-07-29T15:15:28.000Z</time>
        <extensions>
          <ns3:TrackPointExtension>
            <ns3:hr>125</ns3:hr>
            <ns3:cad>0</ns3:cad>
          </ns3:TrackPointExtension>
        </extensions>
      </trkpt>
      <trkpt lat="37.77571099810302257537841796875" lon="-107.70065744407474994659423828125">
        <ele>3908.800048828125</ele>
        <time>2023-07-29T15:15:29.000Z</time>
        <extensions>
          <ns3:TrackPointExtension>
            <ns3:hr>124</ns3:hr>
            <ns3:cad>0</ns3:cad>
          </ns3:TrackPointExtension>
        </extensions>
      </trkpt>
      <trkpt lat="37.775721140205860137939453125" lon="-107.7006551809608936309814453125">
        <ele>3909</ele>
        <time>2023-07-29T15:15:30.000Z</time>
        <extensions>
          <ns3:TrackPointExtension>
            <ns3:hr>124</ns3:hr>
            <ns3:cad>0</ns3:cad>
          </ns3:TrackPointExtension>
        </extensions>
      </trkpt>
      <trkpt lat="37.77572792954742908477783203125" lon="-107.7006514929234981536865234375">
        <ele>3909</ele>
        <time>2023-07-29T15:15:31.000Z</time>
        <extensions>
          <ns3:TrackPointExtension>
            <ns3:hr>124</ns3:hr>
            <ns3:cad>0</ns3:cad>
          </ns3:TrackPointExtension>
        </extensions>
      </trkpt>
      <trkpt lat="37.77573178522288799285888671875" lon="-107.70064922980964183807373046875">
        <ele>3909.199951171875</ele>
        <time>2023-07-29T15:15:32.000Z</time>
        <extensions>
          <ns3:TrackPointExtension>
            <ns3:hr>124</ns3:hr>
            <ns3:cad>43</ns3:cad>
          </ns3:TrackPointExtension>
        </extensions>
      </trkpt>
      <trkpt lat="37.77573849074542522430419921875" lon="-107.70064453594386577606201171875">
        <ele>3909.39990234375</ele>
        <time>2023-07-29T15:15:33.000Z</time>
        <extensions>
          <ns3:TrackPointExtension>
            <ns3:hr>124</ns3:hr>
            <ns3:cad>43</ns3:cad>
          </ns3:TrackPointExtension>
        </extensions>
      </trkpt>
      <trkpt lat="37.77574955485761165618896484375" lon="-107.70063900388777256011962890625">
        <ele>3909.39990234375</ele>
        <time>2023-07-29T15:15:34.000Z</time>
        <extensions>
          <ns3:TrackPointExtension>
            <ns3:hr>124</ns3:hr>
            <ns3:cad>43</ns3:cad>
          </ns3:TrackPointExtension>
        </extensions>
      </trkpt>
      <trkpt lat="37.77575525455176830291748046875" lon="-107.7006362378597259521484375">
        <ele>3909.60009765625</ele>
        <time>2023-07-29T15:15:35.000Z</time>
        <extensions>
          <ns3:TrackPointExtension>
            <ns3:hr>124</ns3:hr>
            <ns3:cad>43</ns3:cad>
          </ns3:TrackPointExtension>
        </extensions>
      </trkpt>
      <trkpt lat="37.77576573193073272705078125" lon="-107.70063095726072788238525390625">
        <ele>3909.800048828125</ele>
        <time>2023-07-29T15:15:36.000Z</time>
        <extensions>
          <ns3:TrackPointExtension>
            <ns3:hr>125</ns3:hr>
            <ns3:cad>43</ns3:cad>
          </ns3:TrackPointExtension>
        </extensions>
      </trkpt>
      <trkpt lat="37.77577436529099941253662109375" lon="-107.7006273530423641204833984375">
        <ele>3910</ele>
        <time>2023-07-29T15:15:37.000Z</time>
        <extensions>
          <ns3:TrackPointExtension>
            <ns3:hr>124</ns3:hr>
            <ns3:cad>43</ns3:cad>
          </ns3:TrackPointExtension>
        </extensions>
      </trkpt>
      <trkpt lat="37.77578207664191722869873046875" lon="-107.70062777213752269744873046875">
        <ele>3910</ele>
        <time>2023-07-29T15:15:38.000Z</time>
        <extensions>
          <ns3:TrackPointExtension>
            <ns3:hr>124</ns3:hr>
            <ns3:cad>43</ns3:cad>
          </ns3:TrackPointExtension>
        </extensions>
      </trkpt>
      <trkpt lat="37.77578978799283504486083984375" lon="-107.700628526508808135986328125">
        <ele>3910</ele>
        <time>2023-07-29T15:15:39.000Z</time>
        <extensions>
          <ns3:TrackPointExtension>
            <ns3:hr>124</ns3:hr>
            <ns3:cad>43</ns3:cad>
          </ns3:TrackPointExtension>
        </extensions>
      </trkpt>
      <trkpt lat="37.77579766698181629180908203125" lon="-107.70062894560396671295166015625">
        <ele>3910.199951171875</ele>
        <time>2023-07-29T15:15:40.000Z</time>
        <extensions>
          <ns3:TrackPointExtension>
            <ns3:hr>124</ns3:hr>
            <ns3:cad>0</ns3:cad>
          </ns3:TrackPointExtension>
        </extensions>
      </trkpt>
      <trkpt lat="37.7758066356182098388671875" lon="-107.70062617957592010498046875">
        <ele>3910.39990234375</ele>
        <time>2023-07-29T15:15:41.000Z</time>
        <extensions>
          <ns3:TrackPointExtension>
            <ns3:hr>124</ns3:hr>
            <ns3:cad>0</ns3:cad>
          </ns3:TrackPointExtension>
        </extensions>
      </trkpt>
      <trkpt lat="37.7758121676743030548095703125" lon="-107.7006260119378566741943359375">
        <ele>3910.60009765625</ele>
        <time>2023-07-29T15:15:42.000Z</time>
        <extensions>
          <ns3:TrackPointExtension>
            <ns3:hr>124</ns3:hr>
            <ns3:cad>0</ns3:cad>
          </ns3:TrackPointExtension>
        </extensions>
      </trkpt>
      <trkpt lat="37.7758128382265567779541015625" lon="-107.70062441937625408172607421875">
        <ele>3910.800048828125</ele>
        <time>2023-07-29T15:15:43.000Z</time>
        <extensions>
          <ns3:TrackPointExtension>
            <ns3:hr>124</ns3:hr>
            <ns3:cad>0</ns3:cad>
          </ns3:TrackPointExtension>
        </extensions>
      </trkpt>
      <trkpt lat="37.775807641446590423583984375" lon="-107.700627185404300689697265625">
        <ele>3911</ele>
        <time>2023-07-29T15:15:44.000Z</time>
        <extensions>
          <ns3:TrackPointExtension>
            <ns3:hr>124</ns3:hr>
            <ns3:cad>0</ns3:cad>
          </ns3:TrackPointExtension>
        </extensions>
      </trkpt>
      <trkpt lat="37.77580990456044673919677734375" lon="-107.70062508992850780487060546875">
        <ele>3911.199951171875</ele>
        <time>2023-07-29T15:15:45.000Z</time>
        <extensions>
          <ns3:TrackPointExtension>
            <ns3:hr>124</ns3:hr>
            <ns3:cad>0</ns3:cad>
          </ns3:TrackPointExtension>
        </extensions>
      </trkpt>
      <trkpt lat="37.7758088149130344390869140625" lon="-107.70062073133885860443115234375">
        <ele>3911.39990234375</ele>
        <time>2023-07-29T15:15:46.000Z</time>
        <extensions>
          <ns3:TrackPointExtension>
            <ns3:hr>124</ns3:hr>
            <ns3:cad>0</ns3:cad>
          </ns3:TrackPointExtension>
        </extensions>
      </trkpt>
      <trkpt lat="37.77581694535911083221435546875" lon="-107.7006152831017971038818359375">
        <ele>3911.39990234375</ele>
        <time>2023-07-29T15:15:47.000Z</time>
        <extensions>
          <ns3:TrackPointExtension>
            <ns3:hr>124</ns3:hr>
            <ns3:cad>0</ns3:cad>
          </ns3:TrackPointExtension>
        </extensions>
      </trkpt>
      <trkpt lat="37.77582733891904354095458984375" lon="-107.70060631446540355682373046875">
        <ele>3911.60009765625</ele>
        <time>2023-07-29T15:15:48.000Z</time>
        <extensions>
          <ns3:TrackPointExtension>
            <ns3:hr>124</ns3:hr>
            <ns3:cad>0</ns3:cad>
          </ns3:TrackPointExtension>
        </extensions>
      </trkpt>
      <trkpt lat="37.77583672665059566497802734375" lon="-107.7006005309522151947021484375">
        <ele>3911.60009765625</ele>
        <time>2023-07-29T15:15:49.000Z</time>
        <extensions>
          <ns3:TrackPointExtension>
            <ns3:hr>124</ns3:hr>
            <ns3:cad>0</ns3:cad>
          </ns3:TrackPointExtension>
        </extensions>
      </trkpt>
      <trkpt lat="37.77584879659116268157958984375" lon="-107.7005928196012973785400390625">
        <ele>3911.800048828125</ele>
        <time>2023-07-29T15:15:50.000Z</time>
        <extensions>
          <ns3:TrackPointExtension>
            <ns3:hr>124</ns3:hr>
            <ns3:cad>0</ns3:cad>
          </ns3:TrackPointExtension>
        </extensions>
      </trkpt>
      <trkpt lat="37.775860615074634552001953125" lon="-107.700586281716823577880859375">
        <ele>3912</ele>
        <time>2023-07-29T15:15:51.000Z</time>
        <extensions>
          <ns3:TrackPointExtension>
            <ns3:hr>124</ns3:hr>
            <ns3:cad>0</ns3:cad>
          </ns3:TrackPointExtension>
        </extensions>
      </trkpt>
      <trkpt lat="37.77586304582655429840087890625" lon="-107.700584270060062408447265625">
        <ele>3912</ele>
        <time>2023-07-29T15:15:52.000Z</time>
        <extensions>
          <ns3:TrackPointExtension>
            <ns3:hr>124</ns3:hr>
            <ns3:cad>0</ns3:cad>
          </ns3:TrackPointExtension>
        </extensions>
      </trkpt>
      <trkpt lat="37.77586639858782291412353515625" lon="-107.700581252574920654296875">
        <ele>3912.199951171875</ele>
        <time>2023-07-29T15:15:53.000Z</time>
        <extensions>
          <ns3:TrackPointExtension>
            <ns3:hr>123</ns3:hr>
            <ns3:cad>0</ns3:cad>
          </ns3:TrackPointExtension>
        </extensions>
      </trkpt>
      <trkpt lat="37.7758678235113620758056640625" lon="-107.7005807496607303619384765625">
        <ele>3912.60009765625</ele>
        <time>2023-07-29T15:15:54.000Z</time>
        <extensions>
          <ns3:TrackPointExtension>
            <ns3:hr>123</ns3:hr>
            <ns3:cad>0</ns3:cad>
          </ns3:TrackPointExtension>
        </extensions>
      </trkpt>
      <trkpt lat="37.775873355567455291748046875" lon="-107.7005794085562229156494140625">
        <ele>3912.60009765625</ele>
        <time>2023-07-29T15:15:55.000Z</time>
        <extensions>
          <ns3:TrackPointExtension>
            <ns3:hr>123</ns3:hr>
            <ns3:cad>0</ns3:cad>
          </ns3:TrackPointExtension>
        </extensions>
      </trkpt>
      <trkpt lat="37.77588240802288055419921875" lon="-107.70057764835655689239501953125">
        <ele>3912.800048828125</ele>
        <time>2023-07-29T15:15:56.000Z</time>
        <extensions>
          <ns3:TrackPointExtension>
            <ns3:hr>122</ns3:hr>
            <ns3:cad>0</ns3:cad>
          </ns3:TrackPointExtension>
        </extensions>
      </trkpt>
      <trkpt lat="37.775891125202178955078125" lon="-107.700570523738861083984375">
        <ele>3913</ele>
        <time>2023-07-29T15:15:57.000Z</time>
        <extensions>
          <ns3:TrackPointExtension>
            <ns3:hr>122</ns3:hr>
            <ns3:cad>0</ns3:cad>
          </ns3:TrackPointExtension>
        </extensions>
      </trkpt>
      <trkpt lat="37.7759006805717945098876953125" lon="-107.70056624896824359893798828125">
        <ele>3913</ele>
        <time>2023-07-29T15:15:58.000Z</time>
        <extensions>
          <ns3:TrackPointExtension>
            <ns3:hr>123</ns3:hr>
            <ns3:cad>0</ns3:cad>
          </ns3:TrackPointExtension>
        </extensions>
      </trkpt>
      <trkpt lat="37.77591015212237834930419921875" lon="-107.70056105218827724456787109375">
        <ele>3913.199951171875</ele>
        <time>2023-07-29T15:15:59.000Z</time>
        <extensions>
          <ns3:TrackPointExtension>
            <ns3:hr>123</ns3:hr>
            <ns3:cad>0</ns3:cad>
          </ns3:TrackPointExtension>
        </extensions>
      </trkpt>
      <trkpt lat="37.77592071332037448883056640625" lon="-107.70055375993251800537109375">
        <ele>3913.199951171875</ele>
        <time>2023-07-29T15:16:00.000Z</time>
        <extensions>
          <ns3:TrackPointExtension>
            <ns3:hr>123</ns3:hr>
            <ns3:cad>0</ns3:cad>
          </ns3:TrackPointExtension>
        </extensions>
      </trkpt>
      <trkpt lat="37.7759291790425777435302734375" lon="-107.70055015571415424346923828125">
        <ele>3913.39990234375</ele>
        <time>2023-07-29T15:16:01.000Z</time>
        <extensions>
          <ns3:TrackPointExtension>
            <ns3:hr>123</ns3:hr>
            <ns3:cad>0</ns3:cad>
          </ns3:TrackPointExtension>
        </extensions>
      </trkpt>
      <trkpt lat="37.77594233863055706024169921875" lon="-107.70054562948644161224365234375">
        <ele>3913.60009765625</ele>
        <time>2023-07-29T15:16:02.000Z</time>
        <extensions>
          <ns3:TrackPointExtension>
            <ns3:hr>123</ns3:hr>
            <ns3:cad>0</ns3:cad>
          </ns3:TrackPointExtension>
        </extensions>
      </trkpt>
      <trkpt lat="37.77595072053372859954833984375" lon="-107.70054596476256847381591796875">
        <ele>3913.60009765625</ele>
        <time>2023-07-29T15:16:03.000Z</time>
        <extensions>
          <ns3:TrackPointExtension>
            <ns3:hr>123</ns3:hr>
            <ns3:cad>0</ns3:cad>
          </ns3:TrackPointExtension>
        </extensions>
      </trkpt>
      <trkpt lat="37.77596245519816875457763671875" lon="-107.7005462162196636199951171875">
        <ele>3913.800048828125</ele>
        <time>2023-07-29T15:16:04.000Z</time>
        <extensions>
          <ns3:TrackPointExtension>
            <ns3:hr>123</ns3:hr>
            <ns3:cad>0</ns3:cad>
          </ns3:TrackPointExtension>
        </extensions>
      </trkpt>
      <trkpt lat="37.77597234584391117095947265625" lon="-107.700543701648712158203125">
        <ele>3914</ele>
        <time>2023-07-29T15:16:05.000Z</time>
        <extensions>
          <ns3:TrackPointExtension>
            <ns3:hr>123</ns3:hr>
            <ns3:cad>0</ns3:cad>
          </ns3:TrackPointExtension>
        </extensions>
      </trkpt>
      <trkpt lat="37.77598190121352672576904296875" lon="-107.70054127089679241180419921875">
        <ele>3914.199951171875</ele>
        <time>2023-07-29T15:16:06.000Z</time>
        <extensions>
          <ns3:TrackPointExtension>
            <ns3:hr>123</ns3:hr>
            <ns3:cad>0</ns3:cad>
          </ns3:TrackPointExtension>
        </extensions>
      </trkpt>
      <trkpt lat="37.7759935520589351654052734375" lon="-107.7005378343164920806884765625">
        <ele>3914.39990234375</ele>
        <time>2023-07-29T15:16:07.000Z</time>
        <extensions>
          <ns3:TrackPointExtension>
            <ns3:hr>123</ns3:hr>
            <ns3:cad>0</ns3:cad>
          </ns3:TrackPointExtension>
        </extensions>
      </trkpt>
      <trkpt lat="37.7759999223053455352783203125" lon="-107.70053506828844547271728515625">
        <ele>3914.60009765625</ele>
        <time>2023-07-29T15:16:08.000Z</time>
        <extensions>
          <ns3:TrackPointExtension>
            <ns3:hr>123</ns3:hr>
            <ns3:cad>0</ns3:cad>
          </ns3:TrackPointExtension>
        </extensions>
      </trkpt>
      <trkpt lat="37.77600905857980251312255859375" lon="-107.70052886568009853363037109375">
        <ele>3914.800048828125</ele>
        <time>2023-07-29T15:16:09.000Z</time>
        <extensions>
          <ns3:TrackPointExtension>
            <ns3:hr>123</ns3:hr>
            <ns3:cad>0</ns3:cad>
          </ns3:TrackPointExtension>
        </extensions>
      </trkpt>
      <trkpt lat="37.77601811103522777557373046875" lon="-107.7005257643759250640869140625">
        <ele>3915</ele>
        <time>2023-07-29T15:16:10.000Z</time>
        <extensions>
          <ns3:TrackPointExtension>
            <ns3:hr>123</ns3:hr>
            <ns3:cad>0</ns3:cad>
          </ns3:TrackPointExtension>
        </extensions>
      </trkpt>
      <trkpt lat="37.77602213434875011444091796875" lon="-107.70052350126206874847412109375">
        <ele>3915</ele>
        <time>2023-07-29T15:16:11.000Z</time>
        <extensions>
          <ns3:TrackPointExtension>
            <ns3:hr>123</ns3:hr>
            <ns3:cad>0</ns3:cad>
          </ns3:TrackPointExtension>
        </extensions>
      </trkpt>
      <trkpt lat="37.77602984569966793060302734375" lon="-107.7005200646817684173583984375">
        <ele>3915.39990234375</ele>
        <time>2023-07-29T15:16:12.000Z</time>
        <extensions>
          <ns3:TrackPointExtension>
            <ns3:hr>123</ns3:hr>
            <ns3:cad>0</ns3:cad>
          </ns3:TrackPointExtension>
        </extensions>
      </trkpt>
      <trkpt lat="37.77603101916611194610595703125" lon="-107.7005183883011341094970703125">
        <ele>3915.60009765625</ele>
        <time>2023-07-29T15:16:13.000Z</time>
        <extensions>
          <ns3:TrackPointExtension>
            <ns3:hr>123</ns3:hr>
            <ns3:cad>0</ns3:cad>
          </ns3:TrackPointExtension>
        </extensions>
      </trkpt>
      <trkpt lat="37.7760357968509197235107421875" lon="-107.70051578991115093231201171875">
        <ele>3915.800048828125</ele>
        <time>2023-07-29T15:16:14.000Z</time>
        <extensions>
          <ns3:TrackPointExtension>
            <ns3:hr>123</ns3:hr>
            <ns3:cad>0</ns3:cad>
          </ns3:TrackPointExtension>
        </extensions>
      </trkpt>
      <trkpt lat="37.77604040689766407012939453125" lon="-107.70051076076924800872802734375">
        <ele>3916.199951171875</ele>
        <time>2023-07-29T15:16:15.000Z</time>
        <extensions>
          <ns3:TrackPointExtension>
            <ns3:hr>123</ns3:hr>
            <ns3:cad>0</ns3:cad>
          </ns3:TrackPointExtension>
        </extensions>
      </trkpt>
      <trkpt lat="37.7760426700115203857421875" lon="-107.700506485998630523681640625">
        <ele>3916.199951171875</ele>
        <time>2023-07-29T15:16:16.000Z</time>
        <extensions>
          <ns3:TrackPointExtension>
            <ns3:hr>123</ns3:hr>
            <ns3:cad>0</ns3:cad>
          </ns3:TrackPointExtension>
        </extensions>
      </trkpt>
      <trkpt lat="37.77604074217379093170166015625" lon="-107.70050371997058391571044921875">
        <ele>3916.199951171875</ele>
        <time>2023-07-29T15:16:17.000Z</time>
        <extensions>
          <ns3:TrackPointExtension>
            <ns3:hr>123</ns3:hr>
            <ns3:cad>0</ns3:cad>
          </ns3:TrackPointExtension>
        </extensions>
      </trkpt>
      <trkpt lat="37.7760559134185314178466796875" lon="-107.700491063296794891357421875">
        <ele>3916.39990234375</ele>
        <time>2023-07-29T15:16:18.000Z</time>
        <extensions>
          <ns3:TrackPointExtension>
            <ns3:hr>123</ns3:hr>
            <ns3:cad>0</ns3:cad>
          </ns3:TrackPointExtension>
        </extensions>
      </trkpt>
      <trkpt lat="37.77606479823589324951171875" lon="-107.70048293285071849822998046875">
        <ele>3916.60009765625</ele>
        <time>2023-07-29T15:16:19.000Z</time>
        <extensions>
          <ns3:TrackPointExtension>
            <ns3:hr>123</ns3:hr>
            <ns3:cad>0</ns3:cad>
          </ns3:TrackPointExtension>
        </extensions>
      </trkpt>
      <trkpt lat="37.77606756426393985748291015625" lon="-107.7004801668226718902587890625">
        <ele>3916.800048828125</ele>
        <time>2023-07-29T15:16:20.000Z</time>
        <extensions>
          <ns3:TrackPointExtension>
            <ns3:hr>123</ns3:hr>
            <ns3:cad>0</ns3:cad>
          </ns3:TrackPointExtension>
        </extensions>
      </trkpt>
      <trkpt lat="37.77607091702520847320556640625" lon="-107.70047840662300586700439453125">
        <ele>3917</ele>
        <time>2023-07-29T15:16:21.000Z</time>
        <extensions>
          <ns3:TrackPointExtension>
            <ns3:hr>123</ns3:hr>
            <ns3:cad>0</ns3:cad>
          </ns3:TrackPointExtension>
        </extensions>
      </trkpt>
      <trkpt lat="37.77607477270066738128662109375" lon="-107.70047673024237155914306640625">
        <ele>3917.199951171875</ele>
        <time>2023-07-29T15:16:22.000Z</time>
        <extensions>
          <ns3:TrackPointExtension>
            <ns3:hr>123</ns3:hr>
            <ns3:cad>0</ns3:cad>
          </ns3:TrackPointExtension>
        </extensions>
      </trkpt>
      <trkpt lat="37.776078544557094573974609375" lon="-107.70047329366207122802734375">
        <ele>3917.39990234375</ele>
        <time>2023-07-29T15:16:23.000Z</time>
        <extensions>
          <ns3:TrackPointExtension>
            <ns3:hr>123</ns3:hr>
            <ns3:cad>0</ns3:cad>
          </ns3:TrackPointExtension>
        </extensions>
      </trkpt>
      <trkpt lat="37.7760790474712848663330078125" lon="-107.70047002471983432769775390625">
        <ele>3917.60009765625</ele>
        <time>2023-07-29T15:16:24.000Z</time>
        <extensions>
          <ns3:TrackPointExtension>
            <ns3:hr>123</ns3:hr>
            <ns3:cad>0</ns3:cad>
          </ns3:TrackPointExtension>
        </extensions>
      </trkpt>
      <trkpt lat="37.7760824002325534820556640625" lon="-107.70046298392117023468017578125">
        <ele>3918</ele>
        <time>2023-07-29T15:16:25.000Z</time>
        <extensions>
          <ns3:TrackPointExtension>
            <ns3:hr>124</ns3:hr>
            <ns3:cad>0</ns3:cad>
          </ns3:TrackPointExtension>
        </extensions>
      </trkpt>
      <trkpt lat="37.77608231641352176666259765625" lon="-107.70045611076056957244873046875">
        <ele>3918.199951171875</ele>
        <time>2023-07-29T15:16:26.000Z</time>
        <extensions>
          <ns3:TrackPointExtension>
            <ns3:hr>124</ns3:hr>
            <ns3:cad>0</ns3:cad>
          </ns3:TrackPointExtension>
        </extensions>
      </trkpt>
      <trkpt lat="37.7760880999267101287841796875" lon="-107.70044085569679737091064453125">
        <ele>3918.39990234375</ele>
        <time>2023-07-29T15:16:27.000Z</time>
        <extensions>
          <ns3:TrackPointExtension>
            <ns3:hr>124</ns3:hr>
            <ns3:cad>0</ns3:cad>
          </ns3:TrackPointExtension>
        </extensions>
      </trkpt>
      <trkpt lat="37.7760971523821353912353515625" lon="-107.70042560063302516937255859375">
        <ele>3918.39990234375</ele>
        <time>2023-07-29T15:16:28.000Z</time>
        <extensions>
          <ns3:TrackPointExtension>
            <ns3:hr>124</ns3:hr>
            <ns3:cad>0</ns3:cad>
          </ns3:TrackPointExtension>
        </extensions>
      </trkpt>
      <trkpt lat="37.77610545046627521514892578125" lon="-107.70041118375957012176513671875">
        <ele>3918.800048828125</ele>
        <time>2023-07-29T15:16:29.000Z</time>
        <extensions>
          <ns3:TrackPointExtension>
            <ns3:hr>124</ns3:hr>
            <ns3:cad>0</ns3:cad>
          </ns3:TrackPointExtension>
        </extensions>
      </trkpt>
      <trkpt lat="37.7761119045317173004150390625" lon="-107.700402550399303436279296875">
        <ele>3919</ele>
        <time>2023-07-29T15:16:30.000Z</time>
        <extensions>
          <ns3:TrackPointExtension>
            <ns3:hr>124</ns3:hr>
            <ns3:cad>0</ns3:cad>
          </ns3:TrackPointExtension>
        </extensions>
      </trkpt>
      <trkpt lat="37.77612204663455486297607421875" lon="-107.700393162667751312255859375">
        <ele>3919.199951171875</ele>
        <time>2023-07-29T15:16:31.000Z</time>
        <extensions>
          <ns3:TrackPointExtension>
            <ns3:hr>124</ns3:hr>
            <ns3:cad>0</ns3:cad>
          </ns3:TrackPointExtension>
        </extensions>
      </trkpt>
      <trkpt lat="37.776133529841899871826171875" lon="-107.70038318820297718048095703125">
        <ele>3919.39990234375</ele>
        <time>2023-07-29T15:16:32.000Z</time>
        <extensions>
          <ns3:TrackPointExtension>
            <ns3:hr>124</ns3:hr>
            <ns3:cad>0</ns3:cad>
          </ns3:TrackPointExtension>
        </extensions>
      </trkpt>
      <trkpt lat="37.776140905916690826416015625" lon="-107.70037866197526454925537109375">
        <ele>3919.39990234375</ele>
        <time>2023-07-29T15:16:33.000Z</time>
        <extensions>
          <ns3:TrackPointExtension>
            <ns3:hr>124</ns3:hr>
            <ns3:cad>0</ns3:cad>
          </ns3:TrackPointExtension>
        </extensions>
      </trkpt>
      <trkpt lat="37.7761434204876422882080078125" lon="-107.70037866197526454925537109375">
        <ele>3919.60009765625</ele>
        <time>2023-07-29T15:16:34.000Z</time>
        <extensions>
          <ns3:TrackPointExtension>
            <ns3:hr>125</ns3:hr>
            <ns3:cad>0</ns3:cad>
          </ns3:TrackPointExtension>
        </extensions>
      </trkpt>
      <trkpt lat="37.776155658066272735595703125" lon="-107.70037195645272731781005859375">
        <ele>3920</ele>
        <time>2023-07-29T15:16:35.000Z</time>
        <extensions>
          <ns3:TrackPointExtension>
            <ns3:hr>125</ns3:hr>
            <ns3:cad>0</ns3:cad>
          </ns3:TrackPointExtension>
        </extensions>
      </trkpt>
      <trkpt lat="37.77616077102720737457275390625" lon="-107.70037212409079074859619140625">
        <ele>3920.199951171875</ele>
        <time>2023-07-29T15:16:36.000Z</time>
        <extensions>
          <ns3:TrackPointExtension>
            <ns3:hr>125</ns3:hr>
            <ns3:cad>47</ns3:cad>
          </ns3:TrackPointExtension>
        </extensions>
      </trkpt>
      <trkpt lat="37.77615825645625591278076171875" lon="-107.70037447102367877960205078125">
        <ele>3920.199951171875</ele>
        <time>2023-07-29T15:16:37.000Z</time>
        <extensions>
          <ns3:TrackPointExtension>
            <ns3:hr>125</ns3:hr>
            <ns3:cad>47</ns3:cad>
          </ns3:TrackPointExtension>
        </extensions>
      </trkpt>
      <trkpt lat="37.77616144157946109771728515625" lon="-107.70037564449012279510498046875">
        <ele>3920.39990234375</ele>
        <time>2023-07-29T15:16:38.000Z</time>
        <extensions>
          <ns3:TrackPointExtension>
            <ns3:hr>126</ns3:hr>
            <ns3:cad>0</ns3:cad>
          </ns3:TrackPointExtension>
        </extensions>
      </trkpt>
      <trkpt lat="37.776168398559093475341796875" lon="-107.7003752253949642181396484375">
        <ele>3920.800048828125</ele>
        <time>2023-07-29T15:16:39.000Z</time>
        <extensions>
          <ns3:TrackPointExtension>
            <ns3:hr>126</ns3:hr>
            <ns3:cad>0</ns3:cad>
          </ns3:TrackPointExtension>
        </extensions>
      </trkpt>
      <trkpt lat="37.77617602609097957611083984375" lon="-107.7003765664994716644287109375">
        <ele>3921</ele>
        <time>2023-07-29T15:16:40.000Z</time>
        <extensions>
          <ns3:TrackPointExtension>
            <ns3:hr>126</ns3:hr>
            <ns3:cad>0</ns3:cad>
          </ns3:TrackPointExtension>
        </extensions>
      </trkpt>
      <trkpt lat="37.7761806361377239227294921875" lon="-107.70037732087075710296630859375">
        <ele>3921.39990234375</ele>
        <time>2023-07-29T15:16:41.000Z</time>
        <extensions>
          <ns3:TrackPointExtension>
            <ns3:hr>126</ns3:hr>
            <ns3:cad>0</ns3:cad>
          </ns3:TrackPointExtension>
        </extensions>
      </trkpt>
      <trkpt lat="37.77619077824056148529052734375" lon="-107.70037715323269367218017578125">
        <ele>3921.60009765625</ele>
        <time>2023-07-29T15:16:42.000Z</time>
        <extensions>
          <ns3:TrackPointExtension>
            <ns3:hr>126</ns3:hr>
            <ns3:cad>0</ns3:cad>
          </ns3:TrackPointExtension>
        </extensions>
      </trkpt>
      <trkpt lat="37.7761947177350521087646484375" lon="-107.70037547685205936431884765625">
        <ele>3921.800048828125</ele>
        <time>2023-07-29T15:16:43.000Z</time>
        <extensions>
          <ns3:TrackPointExtension>
            <ns3:hr>126</ns3:hr>
            <ns3:cad>0</ns3:cad>
          </ns3:TrackPointExtension>
        </extensions>
      </trkpt>
      <trkpt lat="37.77619379572570323944091796875" lon="-107.70037262700498104095458984375">
        <ele>3921.800048828125</ele>
        <time>2023-07-29T15:16:44.000Z</time>
        <extensions>
          <ns3:TrackPointExtension>
            <ns3:hr>127</ns3:hr>
            <ns3:cad>0</ns3:cad>
          </ns3:TrackPointExtension>
        </extensions>
      </trkpt>
      <trkpt lat="37.7761917002499103546142578125" lon="-107.70037002861499786376953125">
        <ele>3922</ele>
        <time>2023-07-29T15:16:45.000Z</time>
        <extensions>
          <ns3:TrackPointExtension>
            <ns3:hr>127</ns3:hr>
            <ns3:cad>0</ns3:cad>
          </ns3:TrackPointExtension>
        </extensions>
      </trkpt>
      <trkpt lat="37.77618952095508575439453125" lon="-107.70037061534821987152099609375">
        <ele>3922.199951171875</ele>
        <time>2023-07-29T15:16:46.000Z</time>
        <extensions>
          <ns3:TrackPointExtension>
            <ns3:hr>127</ns3:hr>
            <ns3:cad>0</ns3:cad>
          </ns3:TrackPointExtension>
        </extensions>
      </trkpt>
      <trkpt lat="37.77619547210633754730224609375" lon="-107.70036466419696807861328125">
        <ele>3922.39990234375</ele>
        <time>2023-07-29T15:16:47.000Z</time>
        <extensions>
          <ns3:TrackPointExtension>
            <ns3:hr>127</ns3:hr>
            <ns3:cad>0</ns3:cad>
          </ns3:TrackPointExtension>
        </extensions>
      </trkpt>
      <trkpt lat="37.776197232306003570556640625" lon="-107.70036189816892147064208984375">
        <ele>3922.800048828125</ele>
        <time>2023-07-29T15:16:48.000Z</time>
        <extensions>
          <ns3:TrackPointExtension>
            <ns3:hr>127</ns3:hr>
            <ns3:cad>0</ns3:cad>
          </ns3:TrackPointExtension>
        </extensions>
      </trkpt>
      <trkpt lat="37.77620301581919193267822265625" lon="-107.700355611741542816162109375">
        <ele>3923</ele>
        <time>2023-07-29T15:16:49.000Z</time>
        <extensions>
          <ns3:TrackPointExtension>
            <ns3:hr>127</ns3:hr>
            <ns3:cad>0</ns3:cad>
          </ns3:TrackPointExtension>
        </extensions>
      </trkpt>
      <trkpt lat="37.7762062847614288330078125" lon="-107.7003524266183376312255859375">
        <ele>3923.199951171875</ele>
        <time>2023-07-29T15:16:50.000Z</time>
        <extensions>
          <ns3:TrackPointExtension>
            <ns3:hr>128</ns3:hr>
            <ns3:cad>0</ns3:cad>
          </ns3:TrackPointExtension>
        </extensions>
      </trkpt>
      <trkpt lat="37.77621139772236347198486328125" lon="-107.70034731365740299224853515625">
        <ele>3923.39990234375</ele>
        <time>2023-07-29T15:16:51.000Z</time>
        <extensions>
          <ns3:TrackPointExtension>
            <ns3:hr>128</ns3:hr>
            <ns3:cad>0</ns3:cad>
          </ns3:TrackPointExtension>
        </extensions>
      </trkpt>
      <trkpt lat="37.77621634304523468017578125" lon="-107.70034429617226123809814453125">
        <ele>3923.60009765625</ele>
        <time>2023-07-29T15:16:52.000Z</time>
        <extensions>
          <ns3:TrackPointExtension>
            <ns3:hr>128</ns3:hr>
            <ns3:cad>0</ns3:cad>
          </ns3:TrackPointExtension>
        </extensions>
      </trkpt>
      <trkpt lat="37.77622614987194538116455078125" lon="-107.700336836278438568115234375">
        <ele>3923.800048828125</ele>
        <time>2023-07-29T15:16:53.000Z</time>
        <extensions>
          <ns3:TrackPointExtension>
            <ns3:hr>128</ns3:hr>
            <ns3:cad>0</ns3:cad>
          </ns3:TrackPointExtension>
        </extensions>
      </trkpt>
      <trkpt lat="37.7762317657470703125" lon="-107.7003371715545654296875">
        <ele>3924.199951171875</ele>
        <time>2023-07-29T15:16:54.000Z</time>
        <extensions>
          <ns3:TrackPointExtension>
            <ns3:hr>128</ns3:hr>
            <ns3:cad>0</ns3:cad>
          </ns3:TrackPointExtension>
        </extensions>
      </trkpt>
      <trkpt lat="37.77623771689832210540771484375" lon="-107.70033784210681915283203125">
        <ele>3924.199951171875</ele>
        <time>2023-07-29T15:16:55.000Z</time>
        <extensions>
          <ns3:TrackPointExtension>
            <ns3:hr>128</ns3:hr>
            <ns3:cad>0</ns3:cad>
          </ns3:TrackPointExtension>
        </extensions>
      </trkpt>
      <trkpt lat="37.77624358423054218292236328125" lon="-107.70033624954521656036376953125">
        <ele>3924.199951171875</ele>
        <time>2023-07-29T15:16:56.000Z</time>
        <extensions>
          <ns3:TrackPointExtension>
            <ns3:hr>128</ns3:hr>
            <ns3:cad>0</ns3:cad>
          </ns3:TrackPointExtension>
        </extensions>
      </trkpt>
      <trkpt lat="37.77624743990600109100341796875" lon="-107.700334489345550537109375">
        <ele>3924.39990234375</ele>
        <time>2023-07-29T15:16:57.000Z</time>
        <extensions>
          <ns3:TrackPointExtension>
            <ns3:hr>129</ns3:hr>
            <ns3:cad>0</ns3:cad>
          </ns3:TrackPointExtension>
        </extensions>
      </trkpt>
      <trkpt lat="37.77625448070466518402099609375" lon="-107.70033205859363079071044921875">
        <ele>3924.60009765625</ele>
        <time>2023-07-29T15:16:58.000Z</time>
        <extensions>
          <ns3:TrackPointExtension>
            <ns3:hr>129</ns3:hr>
            <ns3:cad>0</ns3:cad>
          </ns3:TrackPointExtension>
        </extensions>
      </trkpt>
      <trkpt lat="37.7762621082365512847900390625" lon="-107.700328119099140167236328125">
        <ele>3924.800048828125</ele>
        <time>2023-07-29T15:16:59.000Z</time>
        <extensions>
          <ns3:TrackPointExtension>
            <ns3:hr>129</ns3:hr>
            <ns3:cad>0</ns3:cad>
          </ns3:TrackPointExtension>
        </extensions>
      </trkpt>
      <trkpt lat="37.7762604318559169769287109375" lon="-107.70032334141433238983154296875">
        <ele>3925</ele>
        <time>2023-07-29T15:17:00.000Z</time>
        <extensions>
          <ns3:TrackPointExtension>
            <ns3:hr>130</ns3:hr>
            <ns3:cad>0</ns3:cad>
          </ns3:TrackPointExtension>
        </extensions>
      </trkpt>
      <trkpt lat="37.77626462280750274658203125" lon="-107.70031797699630260467529296875">
        <ele>3925.199951171875</ele>
        <time>2023-07-29T15:17:01.000Z</time>
        <extensions>
          <ns3:TrackPointExtension>
            <ns3:hr>130</ns3:hr>
            <ns3:cad>0</ns3:cad>
          </ns3:TrackPointExtension>
        </extensions>
      </trkpt>
      <trkpt lat="37.77626772411167621612548828125" lon="-107.700315378606319427490234375">
        <ele>3925.60009765625</ele>
        <time>2023-07-29T15:17:02.000Z</time>
        <extensions>
          <ns3:TrackPointExtension>
            <ns3:hr>130</ns3:hr>
            <ns3:cad>0</ns3:cad>
          </ns3:TrackPointExtension>
        </extensions>
      </trkpt>
      <trkpt lat="37.776271998882293701171875" lon="-107.70031278021633625030517578125">
        <ele>3925.60009765625</ele>
        <time>2023-07-29T15:17:03.000Z</time>
        <extensions>
          <ns3:TrackPointExtension>
            <ns3:hr>130</ns3:hr>
            <ns3:cad>0</ns3:cad>
          </ns3:TrackPointExtension>
        </extensions>
      </trkpt>
      <trkpt lat="37.77627275325357913970947265625" lon="-107.70031143911182880401611328125">
        <ele>3926</ele>
        <time>2023-07-29T15:17:04.000Z</time>
        <extensions>
          <ns3:TrackPointExtension>
            <ns3:hr>130</ns3:hr>
            <ns3:cad>0</ns3:cad>
          </ns3:TrackPointExtension>
        </extensions>
      </trkpt>
      <trkpt lat="37.77628071606159210205078125" lon="-107.70031529478728771209716796875">
        <ele>3926</ele>
        <time>2023-07-29T15:17:05.000Z</time>
        <extensions>
          <ns3:TrackPointExtension>
            <ns3:hr>130</ns3:hr>
            <ns3:cad>0</ns3:cad>
          </ns3:TrackPointExtension>
        </extensions>
      </trkpt>
      <trkpt lat="37.7762872539460659027099609375" lon="-107.70031278021633625030517578125">
        <ele>3926</ele>
        <time>2023-07-29T15:17:06.000Z</time>
        <extensions>
          <ns3:TrackPointExtension>
            <ns3:hr>129</ns3:hr>
            <ns3:cad>0</ns3:cad>
          </ns3:TrackPointExtension>
        </extensions>
      </trkpt>
      <trkpt lat="37.77629421092569828033447265625" lon="-107.70030942745506763458251953125">
        <ele>3926.39990234375</ele>
        <time>2023-07-29T15:17:07.000Z</time>
        <extensions>
          <ns3:TrackPointExtension>
            <ns3:hr>129</ns3:hr>
            <ns3:cad>0</ns3:cad>
          </ns3:TrackPointExtension>
        </extensions>
      </trkpt>
      <trkpt lat="37.7762999944388866424560546875" lon="-107.7003036439418792724609375">
        <ele>3926.39990234375</ele>
        <time>2023-07-29T15:17:08.000Z</time>
        <extensions>
          <ns3:TrackPointExtension>
            <ns3:hr>129</ns3:hr>
            <ns3:cad>0</ns3:cad>
          </ns3:TrackPointExtension>
        </extensions>
      </trkpt>
      <trkpt lat="37.77630619704723358154296875" lon="-107.70029953680932521820068359375">
        <ele>3926.60009765625</ele>
        <time>2023-07-29T15:17:09.000Z</time>
        <extensions>
          <ns3:TrackPointExtension>
            <ns3:hr>130</ns3:hr>
            <ns3:cad>0</ns3:cad>
          </ns3:TrackPointExtension>
        </extensions>
      </trkpt>
      <trkpt lat="37.77630485594272613525390625" lon="-107.70029484294354915618896484375">
        <ele>3927</ele>
        <time>2023-07-29T15:17:10.000Z</time>
        <extensions>
          <ns3:TrackPointExtension>
            <ns3:hr>130</ns3:hr>
            <ns3:cad>0</ns3:cad>
          </ns3:TrackPointExtension>
        </extensions>
      </trkpt>
      <trkpt lat="37.77630611322820186614990234375" lon="-107.70028729923069477081298828125">
        <ele>3927.199951171875</ele>
        <time>2023-07-29T15:17:11.000Z</time>
        <extensions>
          <ns3:TrackPointExtension>
            <ns3:hr>131</ns3:hr>
            <ns3:cad>0</ns3:cad>
          </ns3:TrackPointExtension>
        </extensions>
      </trkpt>
      <trkpt lat="37.77630594559013843536376953125" lon="-107.7002821862697601318359375">
        <ele>3927.60009765625</ele>
        <time>2023-07-29T15:17:12.000Z</time>
        <extensions>
          <ns3:TrackPointExtension>
            <ns3:hr>131</ns3:hr>
            <ns3:cad>59</ns3:cad>
          </ns3:TrackPointExtension>
        </extensions>
      </trkpt>
      <trkpt lat="37.77630745433270931243896484375" lon="-107.70027791149914264678955078125">
        <ele>3927.60009765625</ele>
        <time>2023-07-29T15:17:13.000Z</time>
        <extensions>
          <ns3:TrackPointExtension>
            <ns3:hr>131</ns3:hr>
            <ns3:cad>59</ns3:cad>
          </ns3:TrackPointExtension>
        </extensions>
      </trkpt>
      <trkpt lat="37.77631013654172420501708984375" lon="-107.700267098844051361083984375">
        <ele>3928</ele>
        <time>2023-07-29T15:17:14.000Z</time>
        <extensions>
          <ns3:TrackPointExtension>
            <ns3:hr>131</ns3:hr>
            <ns3:cad>0</ns3:cad>
          </ns3:TrackPointExtension>
        </extensions>
      </trkpt>
      <trkpt lat="37.77631080709397792816162109375" lon="-107.70026433281600475311279296875">
        <ele>3928</ele>
        <time>2023-07-29T15:17:15.000Z</time>
        <extensions>
          <ns3:TrackPointExtension>
            <ns3:hr>131</ns3:hr>
            <ns3:cad>0</ns3:cad>
          </ns3:TrackPointExtension>
        </extensions>
      </trkpt>
      <trkpt lat="37.77631022036075592041015625" lon="-107.7002612315118312835693359375">
        <ele>3928</ele>
        <time>2023-07-29T15:17:16.000Z</time>
        <extensions>
          <ns3:TrackPointExtension>
            <ns3:hr>131</ns3:hr>
            <ns3:cad>0</ns3:cad>
          </ns3:TrackPointExtension>
        </extensions>
      </trkpt>
      <trkpt lat="37.7763110585510730743408203125" lon="-107.700259387493133544921875">
        <ele>3928.39990234375</ele>
        <time>2023-07-29T15:17:17.000Z</time>
        <extensions>
          <ns3:TrackPointExtension>
            <ns3:hr>131</ns3:hr>
            <ns3:cad>0</ns3:cad>
          </ns3:TrackPointExtension>
        </extensions>
      </trkpt>
      <trkpt lat="37.77631097473204135894775390625" lon="-107.7002639137208461761474609375">
        <ele>3928.60009765625</ele>
        <time>2023-07-29T15:17:18.000Z</time>
        <extensions>
          <ns3:TrackPointExtension>
            <ns3:hr>131</ns3:hr>
            <ns3:cad>0</ns3:cad>
          </ns3:TrackPointExtension>
        </extensions>
      </trkpt>
      <trkpt lat="37.77631214819848537445068359375" lon="-107.700265757739543914794921875">
        <ele>3928.800048828125</ele>
        <time>2023-07-29T15:17:19.000Z</time>
        <extensions>
          <ns3:TrackPointExtension>
            <ns3:hr>131</ns3:hr>
            <ns3:cad>0</ns3:cad>
          </ns3:TrackPointExtension>
        </extensions>
      </trkpt>
      <trkpt lat="37.776317261159420013427734375" lon="-107.70026148296892642974853515625">
        <ele>3929.199951171875</ele>
        <time>2023-07-29T15:17:20.000Z</time>
        <extensions>
          <ns3:TrackPointExtension>
            <ns3:hr>131</ns3:hr>
            <ns3:cad>0</ns3:cad>
          </ns3:TrackPointExtension>
        </extensions>
      </trkpt>
      <trkpt lat="37.77632824145257472991943359375" lon="-107.70024941302835941314697265625">
        <ele>3929.199951171875</ele>
        <time>2023-07-29T15:17:21.000Z</time>
        <extensions>
          <ns3:TrackPointExtension>
            <ns3:hr>131</ns3:hr>
            <ns3:cad>0</ns3:cad>
          </ns3:TrackPointExtension>
        </extensions>
      </trkpt>
      <trkpt lat="37.776333354413509368896484375" lon="-107.70024639554321765899658203125">
        <ele>3929.39990234375</ele>
        <time>2023-07-29T15:17:22.000Z</time>
        <extensions>
          <ns3:TrackPointExtension>
            <ns3:hr>131</ns3:hr>
            <ns3:cad>0</ns3:cad>
          </ns3:TrackPointExtension>
        </extensions>
      </trkpt>
      <trkpt lat="37.77634081430733203887939453125" lon="-107.700239606201648712158203125">
        <ele>3929.60009765625</ele>
        <time>2023-07-29T15:17:23.000Z</time>
        <extensions>
          <ns3:TrackPointExtension>
            <ns3:hr>131</ns3:hr>
            <ns3:cad>0</ns3:cad>
          </ns3:TrackPointExtension>
        </extensions>
      </trkpt>
      <trkpt lat="37.77634869329631328582763671875" lon="-107.70023114047944545745849609375">
        <ele>3930</ele>
        <time>2023-07-29T15:17:24.000Z</time>
        <extensions>
          <ns3:TrackPointExtension>
            <ns3:hr>131</ns3:hr>
            <ns3:cad>0</ns3:cad>
          </ns3:TrackPointExtension>
        </extensions>
      </trkpt>
      <trkpt lat="37.77635355480015277862548828125" lon="-107.7002258598804473876953125">
        <ele>3930.39990234375</ele>
        <time>2023-07-29T15:17:25.000Z</time>
        <extensions>
          <ns3:TrackPointExtension>
            <ns3:hr>131</ns3:hr>
            <ns3:cad>0</ns3:cad>
          </ns3:TrackPointExtension>
        </extensions>
      </trkpt>
      <trkpt lat="37.77635539881885051727294921875" lon="-107.7002231776714324951171875">
        <ele>3930.39990234375</ele>
        <time>2023-07-29T15:17:26.000Z</time>
        <extensions>
          <ns3:TrackPointExtension>
            <ns3:hr>131</ns3:hr>
            <ns3:cad>0</ns3:cad>
          </ns3:TrackPointExtension>
        </extensions>
      </trkpt>
      <trkpt lat="37.77635808102786540985107421875" lon="-107.7002233453094959259033203125">
        <ele>3930.800048828125</ele>
        <time>2023-07-29T15:17:27.000Z</time>
        <extensions>
          <ns3:TrackPointExtension>
            <ns3:hr>131</ns3:hr>
            <ns3:cad>0</ns3:cad>
          </ns3:TrackPointExtension>
        </extensions>
      </trkpt>
      <trkpt lat="37.77636009268462657928466796875" lon="-107.70022275857627391815185546875">
        <ele>3931</ele>
        <time>2023-07-29T15:17:28.000Z</time>
        <extensions>
          <ns3:TrackPointExtension>
            <ns3:hr>131</ns3:hr>
            <ns3:cad>0</ns3:cad>
          </ns3:TrackPointExtension>
        </extensions>
      </trkpt>
      <trkpt lat="37.776363193988800048828125" lon="-107.7002206631004810333251953125">
        <ele>3931</ele>
        <time>2023-07-29T15:17:29.000Z</time>
        <extensions>
          <ns3:TrackPointExtension>
            <ns3:hr>131</ns3:hr>
            <ns3:cad>0</ns3:cad>
          </ns3:TrackPointExtension>
        </extensions>
      </trkpt>
      <trkpt lat="37.77635657228529453277587890625" lon="-107.70022451877593994140625">
        <ele>3931</ele>
        <time>2023-07-29T15:17:30.000Z</time>
        <extensions>
          <ns3:TrackPointExtension>
            <ns3:hr>131</ns3:hr>
            <ns3:cad>0</ns3:cad>
          </ns3:TrackPointExtension>
        </extensions>
      </trkpt>
      <trkpt lat="37.77636428363621234893798828125" lon="-107.7002178132534027099609375">
        <ele>3931.199951171875</ele>
        <time>2023-07-29T15:17:31.000Z</time>
        <extensions>
          <ns3:TrackPointExtension>
            <ns3:hr>131</ns3:hr>
            <ns3:cad>0</ns3:cad>
          </ns3:TrackPointExtension>
        </extensions>
      </trkpt>
      <trkpt lat="37.7763600088655948638916015625" lon="-107.7002233453094959259033203125">
        <ele>3931.39990234375</ele>
        <time>2023-07-29T15:17:32.000Z</time>
        <extensions>
          <ns3:TrackPointExtension>
            <ns3:hr>131</ns3:hr>
            <ns3:cad>0</ns3:cad>
          </ns3:TrackPointExtension>
        </extensions>
      </trkpt>
      <trkpt lat="37.77636596001684665679931640625" lon="-107.70022074691951274871826171875">
        <ele>3931.800048828125</ele>
        <time>2023-07-29T15:17:33.000Z</time>
        <extensions>
          <ns3:TrackPointExtension>
            <ns3:hr>131</ns3:hr>
            <ns3:cad>0</ns3:cad>
          </ns3:TrackPointExtension>
        </extensions>
      </trkpt>
      <trkpt lat="37.77636654675006866455078125" lon="-107.70022024400532245635986328125">
        <ele>3932</ele>
        <time>2023-07-29T15:17:34.000Z</time>
        <extensions>
          <ns3:TrackPointExtension>
            <ns3:hr>131</ns3:hr>
            <ns3:cad>0</ns3:cad>
          </ns3:TrackPointExtension>
        </extensions>
      </trkpt>
      <trkpt lat="37.77637333609163761138916015625" lon="-107.70021739415824413299560546875">
        <ele>3932</ele>
        <time>2023-07-29T15:17:35.000Z</time>
        <extensions>
          <ns3:TrackPointExtension>
            <ns3:hr>131</ns3:hr>
            <ns3:cad>0</ns3:cad>
          </ns3:TrackPointExtension>
        </extensions>
      </trkpt>
      <trkpt lat="37.776384986937046051025390625" lon="-107.70021035335958003997802734375">
        <ele>3932.199951171875</ele>
        <time>2023-07-29T15:17:36.000Z</time>
        <extensions>
          <ns3:TrackPointExtension>
            <ns3:hr>131</ns3:hr>
            <ns3:cad>0</ns3:cad>
          </ns3:TrackPointExtension>
        </extensions>
      </trkpt>
      <trkpt lat="37.77638875879347324371337890625" lon="-107.7002079226076602935791015625">
        <ele>3932.39990234375</ele>
        <time>2023-07-29T15:17:37.000Z</time>
        <extensions>
          <ns3:TrackPointExtension>
            <ns3:hr>131</ns3:hr>
            <ns3:cad>0</ns3:cad>
          </ns3:TrackPointExtension>
        </extensions>
      </trkpt>
      <trkpt lat="37.776389010250568389892578125" lon="-107.70020649768412113189697265625">
        <ele>3932.39990234375</ele>
        <time>2023-07-29T15:17:38.000Z</time>
        <extensions>
          <ns3:TrackPointExtension>
            <ns3:hr>131</ns3:hr>
            <ns3:cad>0</ns3:cad>
          </ns3:TrackPointExtension>
        </extensions>
      </trkpt>
      <trkpt lat="37.7763932012021541595458984375" lon="-107.7002022229135036468505859375">
        <ele>3932.60009765625</ele>
        <time>2023-07-29T15:17:39.000Z</time>
        <extensions>
          <ns3:TrackPointExtension>
            <ns3:hr>131</ns3:hr>
            <ns3:cad>0</ns3:cad>
          </ns3:TrackPointExtension>
        </extensions>
      </trkpt>
      <trkpt lat="37.7763967216014862060546875" lon="-107.70019836723804473876953125">
        <ele>3932.800048828125</ele>
        <time>2023-07-29T15:17:40.000Z</time>
        <extensions>
          <ns3:TrackPointExtension>
            <ns3:hr>131</ns3:hr>
            <ns3:cad>0</ns3:cad>
          </ns3:TrackPointExtension>
        </extensions>
      </trkpt>
      <trkpt lat="37.77639680542051792144775390625" lon="-107.70019694231450557708740234375">
        <ele>3932.800048828125</ele>
        <time>2023-07-29T15:17:41.000Z</time>
        <extensions>
          <ns3:TrackPointExtension>
            <ns3:hr>131</ns3:hr>
            <ns3:cad>0</ns3:cad>
          </ns3:TrackPointExtension>
        </extensions>
      </trkpt>
      <trkpt lat="37.7763962186872959136962890625" lon="-107.7001978643238544464111328125">
        <ele>3933.39990234375</ele>
        <time>2023-07-29T15:17:42.000Z</time>
        <extensions>
          <ns3:TrackPointExtension>
            <ns3:hr>131</ns3:hr>
            <ns3:cad>0</ns3:cad>
          </ns3:TrackPointExtension>
        </extensions>
      </trkpt>
      <trkpt lat="37.7764002420008182525634765625" lon="-107.70019836723804473876953125">
        <ele>3933.39990234375</ele>
        <time>2023-07-29T15:17:43.000Z</time>
        <extensions>
          <ns3:TrackPointExtension>
            <ns3:hr>131</ns3:hr>
            <ns3:cad>0</ns3:cad>
          </ns3:TrackPointExtension>
        </extensions>
      </trkpt>
      <trkpt lat="37.77640501968562602996826171875" lon="-107.70019660703837871551513671875">
        <ele>3933.60009765625</ele>
        <time>2023-07-29T15:17:44.000Z</time>
        <extensions>
          <ns3:TrackPointExtension>
            <ns3:hr>131</ns3:hr>
            <ns3:cad>0</ns3:cad>
          </ns3:TrackPointExtension>
        </extensions>
      </trkpt>
      <trkpt lat="37.776401750743389129638671875" lon="-107.70019694231450557708740234375">
        <ele>3933.60009765625</ele>
        <time>2023-07-29T15:17:45.000Z</time>
        <extensions>
          <ns3:TrackPointExtension>
            <ns3:hr>131</ns3:hr>
            <ns3:cad>0</ns3:cad>
          </ns3:TrackPointExtension>
        </extensions>
      </trkpt>
      <trkpt lat="37.7764126472175121307373046875" lon="-107.70019342191517353057861328125">
        <ele>3933.800048828125</ele>
        <time>2023-07-29T15:17:46.000Z</time>
        <extensions>
          <ns3:TrackPointExtension>
            <ns3:hr>131</ns3:hr>
            <ns3:cad>0</ns3:cad>
          </ns3:TrackPointExtension>
        </extensions>
      </trkpt>
      <trkpt lat="37.77642144821584224700927734375" lon="-107.7001921646296977996826171875">
        <ele>3933.800048828125</ele>
        <time>2023-07-29T15:17:47.000Z</time>
        <extensions>
          <ns3:TrackPointExtension>
            <ns3:hr>131</ns3:hr>
            <ns3:cad>0</ns3:cad>
          </ns3:TrackPointExtension>
        </extensions>
      </trkpt>
      <trkpt lat="37.77643418870866298675537109375" lon="-107.70018939860165119171142578125">
        <ele>3934.199951171875</ele>
        <time>2023-07-29T15:17:48.000Z</time>
        <extensions>
          <ns3:TrackPointExtension>
            <ns3:hr>131</ns3:hr>
            <ns3:cad>0</ns3:cad>
          </ns3:TrackPointExtension>
        </extensions>
      </trkpt>
      <trkpt lat="37.77644240297377109527587890625" lon="-107.70018721930682659149169921875">
        <ele>3934.199951171875</ele>
        <time>2023-07-29T15:17:49.000Z</time>
        <extensions>
          <ns3:TrackPointExtension>
            <ns3:hr>131</ns3:hr>
            <ns3:cad>0</ns3:cad>
          </ns3:TrackPointExtension>
        </extensions>
      </trkpt>
      <trkpt lat="37.776448689401149749755859375" lon="-107.70018286071717739105224609375">
        <ele>3934.39990234375</ele>
        <time>2023-07-29T15:17:50.000Z</time>
        <extensions>
          <ns3:TrackPointExtension>
            <ns3:hr>131</ns3:hr>
            <ns3:cad>0</ns3:cad>
          </ns3:TrackPointExtension>
        </extensions>
      </trkpt>
      <trkpt lat="37.77645363472402095794677734375" lon="-107.7001811005175113677978515625">
        <ele>3934.60009765625</ele>
        <time>2023-07-29T15:17:51.000Z</time>
        <extensions>
          <ns3:TrackPointExtension>
            <ns3:hr>131</ns3:hr>
            <ns3:cad>0</ns3:cad>
          </ns3:TrackPointExtension>
        </extensions>
      </trkpt>
      <trkpt lat="37.77645480819046497344970703125" lon="-107.70018093287944793701171875">
        <ele>3934.800048828125</ele>
        <time>2023-07-29T15:17:52.000Z</time>
        <extensions>
          <ns3:TrackPointExtension>
            <ns3:hr>130</ns3:hr>
            <ns3:cad>0</ns3:cad>
          </ns3:TrackPointExtension>
        </extensions>
      </trkpt>
      <trkpt lat="37.776454389095306396484375" lon="-107.7001794241368770599365234375">
        <ele>3934.800048828125</ele>
        <time>2023-07-29T15:17:53.000Z</time>
        <extensions>
          <ns3:TrackPointExtension>
            <ns3:hr>130</ns3:hr>
            <ns3:cad>0</ns3:cad>
          </ns3:TrackPointExtension>
        </extensions>
      </trkpt>
      <trkpt lat="37.776460088789463043212890625" lon="-107.700175903737545013427734375">
        <ele>3935</ele>
        <time>2023-07-29T15:17:54.000Z</time>
        <extensions>
          <ns3:TrackPointExtension>
            <ns3:hr>129</ns3:hr>
            <ns3:cad>0</ns3:cad>
          </ns3:TrackPointExtension>
        </extensions>
      </trkpt>
      <trkpt lat="37.776466123759746551513671875" lon="-107.70017162896692752838134765625">
        <ele>3935.39990234375</ele>
        <time>2023-07-29T15:17:55.000Z</time>
        <extensions>
          <ns3:TrackPointExtension>
            <ns3:hr>129</ns3:hr>
            <ns3:cad>0</ns3:cad>
          </ns3:TrackPointExtension>
        </extensions>
      </trkpt>
      <trkpt lat="37.776472158730030059814453125" lon="-107.7001670189201831817626953125">
        <ele>3935.39990234375</ele>
        <time>2023-07-29T15:17:56.000Z</time>
        <extensions>
          <ns3:TrackPointExtension>
            <ns3:hr>129</ns3:hr>
            <ns3:cad>0</ns3:cad>
          </ns3:TrackPointExtension>
        </extensions>
      </trkpt>
      <trkpt lat="37.77648054063320159912109375" lon="-107.70016090013086795806884765625">
        <ele>3935.60009765625</ele>
        <time>2023-07-29T15:17:57.000Z</time>
        <extensions>
          <ns3:TrackPointExtension>
            <ns3:hr>129</ns3:hr>
            <ns3:cad>0</ns3:cad>
          </ns3:TrackPointExtension>
        </extensions>
      </trkpt>
      <trkpt lat="37.77648992836475372314453125" lon="-107.70015369169414043426513671875">
        <ele>3935.60009765625</ele>
        <time>2023-07-29T15:17:58.000Z</time>
        <extensions>
          <ns3:TrackPointExtension>
            <ns3:hr>130</ns3:hr>
            <ns3:cad>0</ns3:cad>
          </ns3:TrackPointExtension>
        </extensions>
      </trkpt>
      <trkpt lat="37.7764984779059886932373046875" lon="-107.70014765672385692596435546875">
        <ele>3935.800048828125</ele>
        <time>2023-07-29T15:17:59.000Z</time>
        <extensions>
          <ns3:TrackPointExtension>
            <ns3:hr>130</ns3:hr>
            <ns3:cad>0</ns3:cad>
          </ns3:TrackPointExtension>
        </extensions>
      </trkpt>
      <trkpt lat="37.776506356894969940185546875" lon="-107.70014212466776371002197265625">
        <ele>3936</ele>
        <time>2023-07-29T15:18:00.000Z</time>
        <extensions>
          <ns3:TrackPointExtension>
            <ns3:hr>130</ns3:hr>
            <ns3:cad>0</ns3:cad>
          </ns3:TrackPointExtension>
        </extensions>
      </trkpt>
      <trkpt lat="37.77651532553136348724365234375" lon="-107.70013525150716304779052734375">
        <ele>3936.39990234375</ele>
        <time>2023-07-29T15:18:01.000Z</time>
        <extensions>
          <ns3:TrackPointExtension>
            <ns3:hr>131</ns3:hr>
            <ns3:cad>0</ns3:cad>
          </ns3:TrackPointExtension>
        </extensions>
      </trkpt>
      <trkpt lat="37.776525802910327911376953125" lon="-107.70012804307043552398681640625">
        <ele>3936.39990234375</ele>
        <time>2023-07-29T15:18:02.000Z</time>
        <extensions>
          <ns3:TrackPointExtension>
            <ns3:hr>132</ns3:hr>
            <ns3:cad>0</ns3:cad>
          </ns3:TrackPointExtension>
        </extensions>
      </trkpt>
      <trkpt lat="37.77653443627059459686279296875" lon="-107.70012401975691318511962890625">
        <ele>3936.60009765625</ele>
        <time>2023-07-29T15:18:03.000Z</time>
        <extensions>
          <ns3:TrackPointExtension>
            <ns3:hr>132</ns3:hr>
            <ns3:cad>0</ns3:cad>
          </ns3:TrackPointExtension>
        </extensions>
      </trkpt>
      <trkpt lat="37.77653820812702178955078125" lon="-107.70011832006275653839111328125">
        <ele>3936.60009765625</ele>
        <time>2023-07-29T15:18:04.000Z</time>
        <extensions>
          <ns3:TrackPointExtension>
            <ns3:hr>132</ns3:hr>
            <ns3:cad>0</ns3:cad>
          </ns3:TrackPointExtension>
        </extensions>
      </trkpt>
      <trkpt lat="37.7765444107353687286376953125" lon="-107.700109519064426422119140625">
        <ele>3936.800048828125</ele>
        <time>2023-07-29T15:18:05.000Z</time>
        <extensions>
          <ns3:TrackPointExtension>
            <ns3:hr>132</ns3:hr>
            <ns3:cad>0</ns3:cad>
          </ns3:TrackPointExtension>
        </extensions>
      </trkpt>
      <trkpt lat="37.77654089033603668212890625" lon="-107.7001063339412212371826171875">
        <ele>3937</ele>
        <time>2023-07-29T15:18:06.000Z</time>
        <extensions>
          <ns3:TrackPointExtension>
            <ns3:hr>131</ns3:hr>
            <ns3:cad>0</ns3:cad>
          </ns3:TrackPointExtension>
        </extensions>
      </trkpt>
      <trkpt lat="37.77653913013637065887451171875" lon="-107.70010205917060375213623046875">
        <ele>3937</ele>
        <time>2023-07-29T15:18:07.000Z</time>
        <extensions>
          <ns3:TrackPointExtension>
            <ns3:hr>131</ns3:hr>
            <ns3:cad>0</ns3:cad>
          </ns3:TrackPointExtension>
        </extensions>
      </trkpt>
      <trkpt lat="37.7765410579741001129150390625" lon="-107.700096778571605682373046875">
        <ele>3937.39990234375</ele>
        <time>2023-07-29T15:18:08.000Z</time>
        <extensions>
          <ns3:TrackPointExtension>
            <ns3:hr>131</ns3:hr>
            <ns3:cad>0</ns3:cad>
          </ns3:TrackPointExtension>
        </extensions>
      </trkpt>
      <trkpt lat="37.77653510682284832000732421875" lon="-107.700091414153575897216796875">
        <ele>3937.39990234375</ele>
        <time>2023-07-29T15:18:09.000Z</time>
        <extensions>
          <ns3:TrackPointExtension>
            <ns3:hr>131</ns3:hr>
            <ns3:cad>0</ns3:cad>
          </ns3:TrackPointExtension>
        </extensions>
      </trkpt>
      <trkpt lat="37.77653359808027744293212890625" lon="-107.700088731944561004638671875">
        <ele>3937.60009765625</ele>
        <time>2023-07-29T15:18:10.000Z</time>
        <extensions>
          <ns3:TrackPointExtension>
            <ns3:hr>131</ns3:hr>
            <ns3:cad>0</ns3:cad>
          </ns3:TrackPointExtension>
        </extensions>
      </trkpt>
      <trkpt lat="37.7765340171754360198974609375" lon="-107.70008479245007038116455078125">
        <ele>3937.60009765625</ele>
        <time>2023-07-29T15:18:11.000Z</time>
        <extensions>
          <ns3:TrackPointExtension>
            <ns3:hr>131</ns3:hr>
            <ns3:cad>0</ns3:cad>
          </ns3:TrackPointExtension>
        </extensions>
      </trkpt>
      <trkpt lat="37.77653309516608715057373046875" lon="-107.70008303225040435791015625">
        <ele>3937.60009765625</ele>
        <time>2023-07-29T15:18:12.000Z</time>
        <extensions>
          <ns3:TrackPointExtension>
            <ns3:hr>131</ns3:hr>
            <ns3:cad>0</ns3:cad>
          </ns3:TrackPointExtension>
        </extensions>
      </trkpt>
      <trkpt lat="37.7765320055186748504638671875" lon="-107.7000821940600872039794921875">
        <ele>3937.60009765625</ele>
        <time>2023-07-29T15:18:13.000Z</time>
        <extensions>
          <ns3:TrackPointExtension>
            <ns3:hr>131</ns3:hr>
            <ns3:cad>0</ns3:cad>
          </ns3:TrackPointExtension>
        </extensions>
      </trkpt>
      <trkpt lat="37.77652907185256481170654296875" lon="-107.70008613355457782745361328125">
        <ele>3937.60009765625</ele>
        <time>2023-07-29T15:18:14.000Z</time>
        <extensions>
          <ns3:TrackPointExtension>
            <ns3:hr>131</ns3:hr>
            <ns3:cad>0</ns3:cad>
          </ns3:TrackPointExtension>
        </extensions>
      </trkpt>
      <trkpt lat="37.77652211487293243408203125" lon="-107.70009619183838367462158203125">
        <ele>3937.800048828125</ele>
        <time>2023-07-29T15:18:15.000Z</time>
        <extensions>
          <ns3:TrackPointExtension>
            <ns3:hr>130</ns3:hr>
            <ns3:cad>0</ns3:cad>
          </ns3:TrackPointExtension>
        </extensions>
      </trkpt>
      <trkpt lat="37.77651549316942691802978515625" lon="-107.70010105334222316741943359375">
        <ele>3937.800048828125</ele>
        <time>2023-07-29T15:18:16.000Z</time>
        <extensions>
          <ns3:TrackPointExtension>
            <ns3:hr>129</ns3:hr>
            <ns3:cad>0</ns3:cad>
          </ns3:TrackPointExtension>
        </extensions>
      </trkpt>
      <trkpt lat="37.776508368551731109619140625" lon="-107.7001096867024898529052734375">
        <ele>3937.60009765625</ele>
        <time>2023-07-29T15:18:17.000Z</time>
        <extensions>
          <ns3:TrackPointExtension>
            <ns3:hr>128</ns3:hr>
            <ns3:cad>0</ns3:cad>
          </ns3:TrackPointExtension>
        </extensions>
      </trkpt>
      <trkpt lat="37.7765055187046527862548828125" lon="-107.70010826177895069122314453125">
        <ele>3937.60009765625</ele>
        <time>2023-07-29T15:18:18.000Z</time>
        <extensions>
          <ns3:TrackPointExtension>
            <ns3:hr>128</ns3:hr>
            <ns3:cad>0</ns3:cad>
          </ns3:TrackPointExtension>
        </extensions>
      </trkpt>
      <trkpt lat="37.77650308795273303985595703125" lon="-107.70010557956993579864501953125">
        <ele>3937.800048828125</ele>
        <time>2023-07-29T15:18:19.000Z</time>
        <extensions>
          <ns3:TrackPointExtension>
            <ns3:hr>127</ns3:hr>
            <ns3:cad>0</ns3:cad>
          </ns3:TrackPointExtension>
        </extensions>
      </trkpt>
      <trkpt lat="37.77650509960949420928955078125" lon="-107.70010541193187236785888671875">
        <ele>3937.800048828125</ele>
        <time>2023-07-29T15:18:20.000Z</time>
        <extensions>
          <ns3:TrackPointExtension>
            <ns3:hr>127</ns3:hr>
            <ns3:cad>0</ns3:cad>
          </ns3:TrackPointExtension>
        </extensions>
      </trkpt>
      <trkpt lat="37.77651272714138031005859375" lon="-107.7001024782657623291015625">
        <ele>3937.800048828125</ele>
        <time>2023-07-29T15:18:21.000Z</time>
        <extensions>
          <ns3:TrackPointExtension>
            <ns3:hr>127</ns3:hr>
            <ns3:cad>0</ns3:cad>
          </ns3:TrackPointExtension>
        </extensions>
      </trkpt>
      <trkpt lat="37.77652555145323276519775390625" lon="-107.70009904168546199798583984375">
        <ele>3937.800048828125</ele>
        <time>2023-07-29T15:18:22.000Z</time>
        <extensions>
          <ns3:TrackPointExtension>
            <ns3:hr>126</ns3:hr>
            <ns3:cad>0</ns3:cad>
          </ns3:TrackPointExtension>
        </extensions>
      </trkpt>
      <trkpt lat="37.776529155671596527099609375" lon="-107.70009619183838367462158203125">
        <ele>3938</ele>
        <time>2023-07-29T15:18:23.000Z</time>
        <extensions>
          <ns3:TrackPointExtension>
            <ns3:hr>126</ns3:hr>
            <ns3:cad>41</ns3:cad>
          </ns3:TrackPointExtension>
        </extensions>
      </trkpt>
      <trkpt lat="37.7765383757650852203369140625" lon="-107.7000932581722736358642578125">
        <ele>3938.199951171875</ele>
        <time>2023-07-29T15:18:24.000Z</time>
        <extensions>
          <ns3:TrackPointExtension>
            <ns3:hr>125</ns3:hr>
            <ns3:cad>41</ns3:cad>
          </ns3:TrackPointExtension>
        </extensions>
      </trkpt>
      <trkpt lat="37.77654332108795642852783203125" lon="-107.70009350962936878204345703125">
        <ele>3938.60009765625</ele>
        <time>2023-07-29T15:18:25.000Z</time>
        <extensions>
          <ns3:TrackPointExtension>
            <ns3:hr>125</ns3:hr>
            <ns3:cad>41</ns3:cad>
          </ns3:TrackPointExtension>
        </extensions>
      </trkpt>
      <trkpt lat="37.77654633857309818267822265625" lon="-107.70009317435324192047119140625">
        <ele>3938.800048828125</ele>
        <time>2023-07-29T15:18:26.000Z</time>
        <extensions>
          <ns3:TrackPointExtension>
            <ns3:hr>125</ns3:hr>
            <ns3:cad>41</ns3:cad>
          </ns3:TrackPointExtension>
        </extensions>
      </trkpt>
      <trkpt lat="37.77654801495373249053955078125" lon="-107.700093425810337066650390625">
        <ele>3939</ele>
        <time>2023-07-29T15:18:27.000Z</time>
        <extensions>
          <ns3:TrackPointExtension>
            <ns3:hr>125</ns3:hr>
            <ns3:cad>0</ns3:cad>
          </ns3:TrackPointExtension>
        </extensions>
      </trkpt>
      <trkpt lat="37.77655187062919139862060546875" lon="-107.70009644329547882080078125">
        <ele>3939</ele>
        <time>2023-07-29T15:18:28.000Z</time>
        <extensions>
          <ns3:TrackPointExtension>
            <ns3:hr>124</ns3:hr>
            <ns3:cad>0</ns3:cad>
          </ns3:TrackPointExtension>
        </extensions>
      </trkpt>
      <trkpt lat="37.77655589394271373748779296875" lon="-107.70009937696158885955810546875">
        <ele>3939.199951171875</ele>
        <time>2023-07-29T15:18:29.000Z</time>
        <extensions>
          <ns3:TrackPointExtension>
            <ns3:hr>124</ns3:hr>
            <ns3:cad>0</ns3:cad>
          </ns3:TrackPointExtension>
        </extensions>
      </trkpt>
      <trkpt lat="37.77656226418912410736083984375" lon="-107.70010105334222316741943359375">
        <ele>3939.199951171875</ele>
        <time>2023-07-29T15:18:30.000Z</time>
        <extensions>
          <ns3:TrackPointExtension>
            <ns3:hr>124</ns3:hr>
            <ns3:cad>0</ns3:cad>
          </ns3:TrackPointExtension>
        </extensions>
      </trkpt>
      <trkpt lat="37.77656679041683673858642578125" lon="-107.70010189153254032135009765625">
        <ele>3939.199951171875</ele>
        <time>2023-07-29T15:18:31.000Z</time>
        <extensions>
          <ns3:TrackPointExtension>
            <ns3:hr>123</ns3:hr>
            <ns3:cad>0</ns3:cad>
          </ns3:TrackPointExtension>
        </extensions>
      </trkpt>
      <trkpt lat="37.77657383121550083160400390625" lon="-107.70010675303637981414794921875">
        <ele>3939.60009765625</ele>
        <time>2023-07-29T15:18:32.000Z</time>
        <extensions>
          <ns3:TrackPointExtension>
            <ns3:hr>123</ns3:hr>
            <ns3:cad>0</ns3:cad>
          </ns3:TrackPointExtension>
        </extensions>
      </trkpt>
      <trkpt lat="37.77657869271934032440185546875" lon="-107.7001026459038257598876953125">
        <ele>3939.60009765625</ele>
        <time>2023-07-29T15:18:33.000Z</time>
        <extensions>
          <ns3:TrackPointExtension>
            <ns3:hr>123</ns3:hr>
            <ns3:cad>0</ns3:cad>
          </ns3:TrackPointExtension>
        </extensions>
      </trkpt>
      <trkpt lat="37.7765812911093235015869140625" lon="-107.70010557956993579864501953125">
        <ele>3939.800048828125</ele>
        <time>2023-07-29T15:18:34.000Z</time>
        <extensions>
          <ns3:TrackPointExtension>
            <ns3:hr>122</ns3:hr>
            <ns3:cad>0</ns3:cad>
          </ns3:TrackPointExtension>
        </extensions>
      </trkpt>
      <trkpt lat="37.7765863202512264251708984375" lon="-107.70010625012218952178955078125">
        <ele>3940</ele>
        <time>2023-07-29T15:18:35.000Z</time>
        <extensions>
          <ns3:TrackPointExtension>
            <ns3:hr>122</ns3:hr>
            <ns3:cad>0</ns3:cad>
          </ns3:TrackPointExtension>
        </extensions>
      </trkpt>
      <trkpt lat="37.77658992446959018707275390625" lon="-107.7001049928367137908935546875">
        <ele>3940.199951171875</ele>
        <time>2023-07-29T15:18:36.000Z</time>
        <extensions>
          <ns3:TrackPointExtension>
            <ns3:hr>121</ns3:hr>
            <ns3:cad>0</ns3:cad>
          </ns3:TrackPointExtension>
        </extensions>
      </trkpt>
      <trkpt lat="37.7765983901917934417724609375" lon="-107.70010423846542835235595703125">
        <ele>3940.39990234375</ele>
        <time>2023-07-29T15:18:37.000Z</time>
        <extensions>
          <ns3:TrackPointExtension>
            <ns3:hr>121</ns3:hr>
            <ns3:cad>0</ns3:cad>
          </ns3:TrackPointExtension>
        </extensions>
      </trkpt>
      <trkpt lat="37.77660920284688472747802734375" lon="-107.7001011371612548828125">
        <ele>3940.60009765625</ele>
        <time>2023-07-29T15:18:38.000Z</time>
        <extensions>
          <ns3:TrackPointExtension>
            <ns3:hr>121</ns3:hr>
            <ns3:cad>0</ns3:cad>
          </ns3:TrackPointExtension>
        </extensions>
      </trkpt>
      <trkpt lat="37.77661423198878765106201171875" lon="-107.70009703002870082855224609375">
        <ele>3940.60009765625</ele>
        <time>2023-07-29T15:18:39.000Z</time>
        <extensions>
          <ns3:TrackPointExtension>
            <ns3:hr>121</ns3:hr>
            <ns3:cad>0</ns3:cad>
          </ns3:TrackPointExtension>
        </extensions>
      </trkpt>
      <trkpt lat="37.77662445791065692901611328125" lon="-107.7000969462096691131591796875">
        <ele>3940.800048828125</ele>
        <time>2023-07-29T15:18:40.000Z</time>
        <extensions>
          <ns3:TrackPointExtension>
            <ns3:hr>121</ns3:hr>
            <ns3:cad>0</ns3:cad>
          </ns3:TrackPointExtension>
        </extensions>
      </trkpt>
      <trkpt lat="37.77662931941449642181396484375" lon="-107.70009644329547882080078125">
        <ele>3941.199951171875</ele>
        <time>2023-07-29T15:18:41.000Z</time>
        <extensions>
          <ns3:TrackPointExtension>
            <ns3:hr>121</ns3:hr>
            <ns3:cad>0</ns3:cad>
          </ns3:TrackPointExtension>
        </extensions>
      </trkpt>
      <trkpt lat="37.776627056300640106201171875" lon="-107.70009753294289112091064453125">
        <ele>3941.39990234375</ele>
        <time>2023-07-29T15:18:42.000Z</time>
        <extensions>
          <ns3:TrackPointExtension>
            <ns3:hr>121</ns3:hr>
            <ns3:cad>0</ns3:cad>
          </ns3:TrackPointExtension>
        </extensions>
      </trkpt>
      <trkpt lat="37.77662881650030612945556640625" lon="-107.70009786821901798248291015625">
        <ele>3941.39990234375</ele>
        <time>2023-07-29T15:18:43.000Z</time>
        <extensions>
          <ns3:TrackPointExtension>
            <ns3:hr>121</ns3:hr>
            <ns3:cad>0</ns3:cad>
          </ns3:TrackPointExtension>
        </extensions>
      </trkpt>
      <trkpt lat="37.7766292355954647064208984375" lon="-107.7001011371612548828125">
        <ele>3941.800048828125</ele>
        <time>2023-07-29T15:18:44.000Z</time>
        <extensions>
          <ns3:TrackPointExtension>
            <ns3:hr>122</ns3:hr>
            <ns3:cad>0</ns3:cad>
          </ns3:TrackPointExtension>
        </extensions>
      </trkpt>
      <trkpt lat="37.77663200162351131439208984375" lon="-107.70009987987577915191650390625">
        <ele>3941.800048828125</ele>
        <time>2023-07-29T15:18:45.000Z</time>
        <extensions>
          <ns3:TrackPointExtension>
            <ns3:hr>122</ns3:hr>
            <ns3:cad>0</ns3:cad>
          </ns3:TrackPointExtension>
        </extensions>
      </trkpt>
      <trkpt lat="37.77663602493703365325927734375" lon="-107.70009770058095455169677734375">
        <ele>3942.199951171875</ele>
        <time>2023-07-29T15:18:46.000Z</time>
        <extensions>
          <ns3:TrackPointExtension>
            <ns3:hr>122</ns3:hr>
            <ns3:cad>0</ns3:cad>
          </ns3:TrackPointExtension>
        </extensions>
      </trkpt>
      <trkpt lat="37.77664122171700000762939453125" lon="-107.7000956051051616668701171875">
        <ele>3942.39990234375</ele>
        <time>2023-07-29T15:18:47.000Z</time>
        <extensions>
          <ns3:TrackPointExtension>
            <ns3:hr>122</ns3:hr>
            <ns3:cad>0</ns3:cad>
          </ns3:TrackPointExtension>
        </extensions>
      </trkpt>
      <trkpt lat="37.77664926834404468536376953125" lon="-107.7000944316387176513671875">
        <ele>3942.60009765625</ele>
        <time>2023-07-29T15:18:48.000Z</time>
        <extensions>
          <ns3:TrackPointExtension>
            <ns3:hr>122</ns3:hr>
            <ns3:cad>0</ns3:cad>
          </ns3:TrackPointExtension>
        </extensions>
      </trkpt>
      <trkpt lat="37.77665932662785053253173828125" lon="-107.70008965395390987396240234375">
        <ele>3942.800048828125</ele>
        <time>2023-07-29T15:18:49.000Z</time>
        <extensions>
          <ns3:TrackPointExtension>
            <ns3:hr>122</ns3:hr>
            <ns3:cad>0</ns3:cad>
          </ns3:TrackPointExtension>
        </extensions>
      </trkpt>
      <trkpt lat="37.7766641043126583099365234375" lon="-107.700082696974277496337890625">
        <ele>3942.800048828125</ele>
        <time>2023-07-29T15:18:50.000Z</time>
        <extensions>
          <ns3:TrackPointExtension>
            <ns3:hr>123</ns3:hr>
            <ns3:cad>0</ns3:cad>
          </ns3:TrackPointExtension>
        </extensions>
      </trkpt>
      <trkpt lat="37.7766701392829418182373046875" lon="-107.70007758401334285736083984375">
        <ele>3943</ele>
        <time>2023-07-29T15:18:51.000Z</time>
        <extensions>
          <ns3:TrackPointExtension>
            <ns3:hr>123</ns3:hr>
            <ns3:cad>0</ns3:cad>
          </ns3:TrackPointExtension>
        </extensions>
      </trkpt>
      <trkpt lat="37.7766864001750946044921875" lon="-107.7000661008059978485107421875">
        <ele>3943.199951171875</ele>
        <time>2023-07-29T15:18:52.000Z</time>
        <extensions>
          <ns3:TrackPointExtension>
            <ns3:hr>123</ns3:hr>
            <ns3:cad>0</ns3:cad>
          </ns3:TrackPointExtension>
        </extensions>
      </trkpt>
      <trkpt lat="37.77669469825923442840576171875" lon="-107.70006065256893634796142578125">
        <ele>3943.39990234375</ele>
        <time>2023-07-29T15:18:53.000Z</time>
        <extensions>
          <ns3:TrackPointExtension>
            <ns3:hr>123</ns3:hr>
            <ns3:cad>0</ns3:cad>
          </ns3:TrackPointExtension>
        </extensions>
      </trkpt>
      <trkpt lat="37.77669637463986873626708984375" lon="-107.70005696453154087066650390625">
        <ele>3943.60009765625</ele>
        <time>2023-07-29T15:18:54.000Z</time>
        <extensions>
          <ns3:TrackPointExtension>
            <ns3:hr>124</ns3:hr>
            <ns3:cad>0</ns3:cad>
          </ns3:TrackPointExtension>
        </extensions>
      </trkpt>
      <trkpt lat="37.77669486589729785919189453125" lon="-107.7000573836266994476318359375">
        <ele>3943.800048828125</ele>
        <time>2023-07-29T15:18:55.000Z</time>
        <extensions>
          <ns3:TrackPointExtension>
            <ns3:hr>124</ns3:hr>
            <ns3:cad>0</ns3:cad>
          </ns3:TrackPointExtension>
        </extensions>
      </trkpt>
      <trkpt lat="37.776695787906646728515625" lon="-107.70005679689347743988037109375">
        <ele>3943.800048828125</ele>
        <time>2023-07-29T15:18:56.000Z</time>
        <extensions>
          <ns3:TrackPointExtension>
            <ns3:hr>124</ns3:hr>
            <ns3:cad>0</ns3:cad>
          </ns3:TrackPointExtension>
        </extensions>
      </trkpt>
      <trkpt lat="37.776698805391788482666015625" lon="-107.7000563777983188629150390625">
        <ele>3944.199951171875</ele>
        <time>2023-07-29T15:18:57.000Z</time>
        <extensions>
          <ns3:TrackPointExtension>
            <ns3:hr>124</ns3:hr>
            <ns3:cad>0</ns3:cad>
          </ns3:TrackPointExtension>
        </extensions>
      </trkpt>
      <trkpt lat="37.77670073322951793670654296875" lon="-107.7000600658357143402099609375">
        <ele>3944.199951171875</ele>
        <time>2023-07-29T15:18:58.000Z</time>
        <extensions>
          <ns3:TrackPointExtension>
            <ns3:hr>124</ns3:hr>
            <ns3:cad>0</ns3:cad>
          </ns3:TrackPointExtension>
        </extensions>
      </trkpt>
      <trkpt lat="37.7767033316195011138916015625" lon="-107.70006350241601467132568359375">
        <ele>3944.39990234375</ele>
        <time>2023-07-29T15:18:59.000Z</time>
        <extensions>
          <ns3:TrackPointExtension>
            <ns3:hr>124</ns3:hr>
            <ns3:cad>0</ns3:cad>
          </ns3:TrackPointExtension>
        </extensions>
      </trkpt>
      <trkpt lat="37.77670509181916713714599609375" lon="-107.700064592063426971435546875">
        <ele>3944.800048828125</ele>
        <time>2023-07-29T15:19:00.000Z</time>
        <extensions>
          <ns3:TrackPointExtension>
            <ns3:hr>125</ns3:hr>
            <ns3:cad>0</ns3:cad>
          </ns3:TrackPointExtension>
        </extensions>
      </trkpt>
      <trkpt lat="37.7767120487987995147705078125" lon="-107.700066268444061279296875">
        <ele>3945</ele>
        <time>2023-07-29T15:19:01.000Z</time>
        <extensions>
          <ns3:TrackPointExtension>
            <ns3:hr>125</ns3:hr>
            <ns3:cad>0</ns3:cad>
          </ns3:TrackPointExtension>
        </extensions>
      </trkpt>
      <trkpt lat="37.7767127193510532379150390625" lon="-107.700068950653076171875">
        <ele>3945</ele>
        <time>2023-07-29T15:19:02.000Z</time>
        <extensions>
          <ns3:TrackPointExtension>
            <ns3:hr>125</ns3:hr>
            <ns3:cad>0</ns3:cad>
          </ns3:TrackPointExtension>
        </extensions>
      </trkpt>
      <trkpt lat="37.776712216436862945556640625" lon="-107.70006903447210788726806640625">
        <ele>3945.199951171875</ele>
        <time>2023-07-29T15:19:03.000Z</time>
        <extensions>
          <ns3:TrackPointExtension>
            <ns3:hr>125</ns3:hr>
            <ns3:cad>0</ns3:cad>
          </ns3:TrackPointExtension>
        </extensions>
      </trkpt>
      <trkpt lat="37.7767154015600681304931640625" lon="-107.70006802864372730255126953125">
        <ele>3945.39990234375</ele>
        <time>2023-07-29T15:19:04.000Z</time>
        <extensions>
          <ns3:TrackPointExtension>
            <ns3:hr>125</ns3:hr>
            <ns3:cad>0</ns3:cad>
          </ns3:TrackPointExtension>
        </extensions>
      </trkpt>
      <trkpt lat="37.7767227776348590850830078125" lon="-107.7000674419105052947998046875">
        <ele>3945.60009765625</ele>
        <time>2023-07-29T15:19:05.000Z</time>
        <extensions>
          <ns3:TrackPointExtension>
            <ns3:hr>125</ns3:hr>
            <ns3:cad>0</ns3:cad>
          </ns3:TrackPointExtension>
        </extensions>
      </trkpt>
      <trkpt lat="37.77672973461449146270751953125" lon="-107.7000637538731098175048828125">
        <ele>3945.60009765625</ele>
        <time>2023-07-29T15:19:06.000Z</time>
        <extensions>
          <ns3:TrackPointExtension>
            <ns3:hr>125</ns3:hr>
            <ns3:cad>0</ns3:cad>
          </ns3:TrackPointExtension>
        </extensions>
      </trkpt>
      <trkpt lat="37.77673493139445781707763671875" lon="-107.7000590600073337554931640625">
        <ele>3945.800048828125</ele>
        <time>2023-07-29T15:19:07.000Z</time>
        <extensions>
          <ns3:TrackPointExtension>
            <ns3:hr>125</ns3:hr>
            <ns3:cad>0</ns3:cad>
          </ns3:TrackPointExtension>
        </extensions>
      </trkpt>
      <trkpt lat="37.77673258446156978607177734375" lon="-107.70005042664706707000732421875">
        <ele>3946</ele>
        <time>2023-07-29T15:19:08.000Z</time>
        <extensions>
          <ns3:TrackPointExtension>
            <ns3:hr>125</ns3:hr>
            <ns3:cad>0</ns3:cad>
          </ns3:TrackPointExtension>
        </extensions>
      </trkpt>
      <trkpt lat="37.77673727832734584808349609375" lon="-107.7000443078577518463134765625">
        <ele>3946.199951171875</ele>
        <time>2023-07-29T15:19:09.000Z</time>
        <extensions>
          <ns3:TrackPointExtension>
            <ns3:hr>125</ns3:hr>
            <ns3:cad>0</ns3:cad>
          </ns3:TrackPointExtension>
        </extensions>
      </trkpt>
      <trkpt lat="37.7767314948141574859619140625" lon="-107.7000426314771175384521484375">
        <ele>3946.39990234375</ele>
        <time>2023-07-29T15:19:10.000Z</time>
        <extensions>
          <ns3:TrackPointExtension>
            <ns3:hr>125</ns3:hr>
            <ns3:cad>0</ns3:cad>
          </ns3:TrackPointExtension>
        </extensions>
      </trkpt>
      <trkpt lat="37.77673308737576007843017578125" lon="-107.70004103891551494598388671875">
        <ele>3946.60009765625</ele>
        <time>2023-07-29T15:19:11.000Z</time>
        <extensions>
          <ns3:TrackPointExtension>
            <ns3:hr>126</ns3:hr>
            <ns3:cad>0</ns3:cad>
          </ns3:TrackPointExtension>
        </extensions>
      </trkpt>
      <trkpt lat="37.7767321653664112091064453125" lon="-107.700041122734546661376953125">
        <ele>3946.800048828125</ele>
        <time>2023-07-29T15:19:12.000Z</time>
        <extensions>
          <ns3:TrackPointExtension>
            <ns3:hr>126</ns3:hr>
            <ns3:cad>0</ns3:cad>
          </ns3:TrackPointExtension>
        </extensions>
      </trkpt>
      <trkpt lat="37.77673459611833095550537109375" lon="-107.7000407874584197998046875">
        <ele>3947</ele>
        <time>2023-07-29T15:19:13.000Z</time>
        <extensions>
          <ns3:TrackPointExtension>
            <ns3:hr>127</ns3:hr>
            <ns3:cad>0</ns3:cad>
          </ns3:TrackPointExtension>
        </extensions>
      </trkpt>
      <trkpt lat="37.77674448676407337188720703125" lon="-107.700046487152576446533203125">
        <ele>3947</ele>
        <time>2023-07-29T15:19:14.000Z</time>
        <extensions>
          <ns3:TrackPointExtension>
            <ns3:hr>127</ns3:hr>
            <ns3:cad>0</ns3:cad>
          </ns3:TrackPointExtension>
        </extensions>
      </trkpt>
      <trkpt lat="37.77674733661115169525146484375" lon="-107.70004414021968841552734375">
        <ele>3947.199951171875</ele>
        <time>2023-07-29T15:19:15.000Z</time>
        <extensions>
          <ns3:TrackPointExtension>
            <ns3:hr>127</ns3:hr>
            <ns3:cad>0</ns3:cad>
          </ns3:TrackPointExtension>
        </extensions>
      </trkpt>
      <trkpt lat="37.77675756253302097320556640625" lon="-107.7000461518764495849609375">
        <ele>3947.199951171875</ele>
        <time>2023-07-29T15:19:16.000Z</time>
        <extensions>
          <ns3:TrackPointExtension>
            <ns3:hr>127</ns3:hr>
            <ns3:cad>0</ns3:cad>
          </ns3:TrackPointExtension>
        </extensions>
      </trkpt>
      <trkpt lat="37.7767569757997989654541015625" lon="-107.7000449784100055694580078125">
        <ele>3947.39990234375</ele>
        <time>2023-07-29T15:19:17.000Z</time>
        <extensions>
          <ns3:TrackPointExtension>
            <ns3:hr>127</ns3:hr>
            <ns3:cad>0</ns3:cad>
          </ns3:TrackPointExtension>
        </extensions>
      </trkpt>
      <trkpt lat="37.77676527388393878936767578125" lon="-107.70004749298095703125">
        <ele>3947.60009765625</ele>
        <time>2023-07-29T15:19:18.000Z</time>
        <extensions>
          <ns3:TrackPointExtension>
            <ns3:hr>127</ns3:hr>
            <ns3:cad>0</ns3:cad>
          </ns3:TrackPointExtension>
        </extensions>
      </trkpt>
      <trkpt lat="37.776767872273921966552734375" lon="-107.7000476606190204620361328125">
        <ele>3947.800048828125</ele>
        <time>2023-07-29T15:19:19.000Z</time>
        <extensions>
          <ns3:TrackPointExtension>
            <ns3:hr>127</ns3:hr>
            <ns3:cad>0</ns3:cad>
          </ns3:TrackPointExtension>
        </extensions>
      </trkpt>
      <trkpt lat="37.7767710573971271514892578125" lon="-107.70004506222903728485107421875">
        <ele>3948</ele>
        <time>2023-07-29T15:19:20.000Z</time>
        <extensions>
          <ns3:TrackPointExtension>
            <ns3:hr>126</ns3:hr>
            <ns3:cad>0</ns3:cad>
          </ns3:TrackPointExtension>
        </extensions>
      </trkpt>
      <trkpt lat="37.7767660282552242279052734375" lon="-107.7000422962009906768798828125">
        <ele>3948.199951171875</ele>
        <time>2023-07-29T15:19:21.000Z</time>
        <extensions>
          <ns3:TrackPointExtension>
            <ns3:hr>126</ns3:hr>
            <ns3:cad>0</ns3:cad>
          </ns3:TrackPointExtension>
        </extensions>
      </trkpt>
      <trkpt lat="37.77676762081682682037353515625" lon="-107.70003969781100749969482421875">
        <ele>3948.39990234375</ele>
        <time>2023-07-29T15:19:22.000Z</time>
        <extensions>
          <ns3:TrackPointExtension>
            <ns3:hr>126</ns3:hr>
            <ns3:cad>0</ns3:cad>
          </ns3:TrackPointExtension>
        </extensions>
      </trkpt>
      <trkpt lat="37.776776589453220367431640625" lon="-107.70003651268780231475830078125">
        <ele>3948.60009765625</ele>
        <time>2023-07-29T15:19:23.000Z</time>
        <extensions>
          <ns3:TrackPointExtension>
            <ns3:hr>126</ns3:hr>
            <ns3:cad>0</ns3:cad>
          </ns3:TrackPointExtension>
        </extensions>
      </trkpt>
      <trkpt lat="37.7767856419086456298828125" lon="-107.700034417212009429931640625">
        <ele>3948.800048828125</ele>
        <time>2023-07-29T15:19:24.000Z</time>
        <extensions>
          <ns3:TrackPointExtension>
            <ns3:hr>126</ns3:hr>
            <ns3:cad>0</ns3:cad>
          </ns3:TrackPointExtension>
        </extensions>
      </trkpt>
      <trkpt lat="37.77678807266056537628173828125" lon="-107.70002477802336215972900390625">
        <ele>3949</ele>
        <time>2023-07-29T15:19:25.000Z</time>
        <extensions>
          <ns3:TrackPointExtension>
            <ns3:hr>126</ns3:hr>
            <ns3:cad>0</ns3:cad>
          </ns3:TrackPointExtension>
        </extensions>
      </trkpt>
      <trkpt lat="37.77678991667926311492919921875" lon="-107.700016982853412628173828125">
        <ele>3949.199951171875</ele>
        <time>2023-07-29T15:19:26.000Z</time>
        <extensions>
          <ns3:TrackPointExtension>
            <ns3:hr>126</ns3:hr>
            <ns3:cad>0</ns3:cad>
          </ns3:TrackPointExtension>
        </extensions>
      </trkpt>
      <trkpt lat="37.77679360471665859222412109375" lon="-107.70001036114990711212158203125">
        <ele>3949.199951171875</ele>
        <time>2023-07-29T15:19:27.000Z</time>
        <extensions>
          <ns3:TrackPointExtension>
            <ns3:hr>126</ns3:hr>
            <ns3:cad>0</ns3:cad>
          </ns3:TrackPointExtension>
        </extensions>
      </trkpt>
      <trkpt lat="37.77679712511599063873291015625" lon="-107.70000097341835498809814453125">
        <ele>3949.60009765625</ele>
        <time>2023-07-29T15:19:28.000Z</time>
        <extensions>
          <ns3:TrackPointExtension>
            <ns3:hr>127</ns3:hr>
            <ns3:cad>0</ns3:cad>
          </ns3:TrackPointExtension>
        </extensions>
      </trkpt>
      <trkpt lat="37.7767978794872760772705078125" lon="-107.7000000514090061187744140625">
        <ele>3949.800048828125</ele>
        <time>2023-07-29T15:19:29.000Z</time>
        <extensions>
          <ns3:TrackPointExtension>
            <ns3:hr>127</ns3:hr>
            <ns3:cad>0</ns3:cad>
          </ns3:TrackPointExtension>
        </extensions>
      </trkpt>
      <trkpt lat="37.77680106461048126220703125" lon="-107.69999988377094268798828125">
        <ele>3949.800048828125</ele>
        <time>2023-07-29T15:19:30.000Z</time>
        <extensions>
          <ns3:TrackPointExtension>
            <ns3:hr>128</ns3:hr>
            <ns3:cad>0</ns3:cad>
          </ns3:TrackPointExtension>
        </extensions>
      </trkpt>
      <trkpt lat="37.77680600993335247039794921875" lon="-107.69999854266643524169921875">
        <ele>3950.199951171875</ele>
        <time>2023-07-29T15:19:31.000Z</time>
        <extensions>
          <ns3:TrackPointExtension>
            <ns3:hr>128</ns3:hr>
            <ns3:cad>0</ns3:cad>
          </ns3:TrackPointExtension>
        </extensions>
      </trkpt>
      <trkpt lat="37.77681690640747547149658203125" lon="-107.69999762065708637237548828125">
        <ele>3950.199951171875</ele>
        <time>2023-07-29T15:19:32.000Z</time>
        <extensions>
          <ns3:TrackPointExtension>
            <ns3:hr>128</ns3:hr>
            <ns3:cad>0</ns3:cad>
          </ns3:TrackPointExtension>
        </extensions>
      </trkpt>
      <trkpt lat="37.77682713232934474945068359375" lon="-107.69999275915324687957763671875">
        <ele>3950.39990234375</ele>
        <time>2023-07-29T15:19:33.000Z</time>
        <extensions>
          <ns3:TrackPointExtension>
            <ns3:hr>128</ns3:hr>
            <ns3:cad>0</ns3:cad>
          </ns3:TrackPointExtension>
        </extensions>
      </trkpt>
      <trkpt lat="37.77683685533702373504638671875" lon="-107.699986808001995086669921875">
        <ele>3950.60009765625</ele>
        <time>2023-07-29T15:19:34.000Z</time>
        <extensions>
          <ns3:TrackPointExtension>
            <ns3:hr>128</ns3:hr>
            <ns3:cad>0</ns3:cad>
          </ns3:TrackPointExtension>
        </extensions>
      </trkpt>
      <trkpt lat="37.776834256947040557861328125" lon="-107.69998689182102680206298828125">
        <ele>3950.60009765625</ele>
        <time>2023-07-29T15:19:35.000Z</time>
        <extensions>
          <ns3:TrackPointExtension>
            <ns3:hr>128</ns3:hr>
            <ns3:cad>0</ns3:cad>
          </ns3:TrackPointExtension>
        </extensions>
      </trkpt>
      <trkpt lat="37.7768377773463726043701171875" lon="-107.699984125792980194091796875">
        <ele>3951</ele>
        <time>2023-07-29T15:19:36.000Z</time>
        <extensions>
          <ns3:TrackPointExtension>
            <ns3:hr>128</ns3:hr>
            <ns3:cad>0</ns3:cad>
          </ns3:TrackPointExtension>
        </extensions>
      </trkpt>
      <trkpt lat="37.7768401242792606353759765625" lon="-107.6999819464981555938720703125">
        <ele>3951</ele>
        <time>2023-07-29T15:19:37.000Z</time>
        <extensions>
          <ns3:TrackPointExtension>
            <ns3:hr>128</ns3:hr>
            <ns3:cad>0</ns3:cad>
          </ns3:TrackPointExtension>
        </extensions>
      </trkpt>
      <trkpt lat="37.7768431417644023895263671875" lon="-107.69998018629848957061767578125">
        <ele>3951.199951171875</ele>
        <time>2023-07-29T15:19:38.000Z</time>
        <extensions>
          <ns3:TrackPointExtension>
            <ns3:hr>128</ns3:hr>
            <ns3:cad>0</ns3:cad>
          </ns3:TrackPointExtension>
        </extensions>
      </trkpt>
      <trkpt lat="37.776846326887607574462890625" lon="-107.6999765820801258087158203125">
        <ele>3951.39990234375</ele>
        <time>2023-07-29T15:19:39.000Z</time>
        <extensions>
          <ns3:TrackPointExtension>
            <ns3:hr>128</ns3:hr>
            <ns3:cad>0</ns3:cad>
          </ns3:TrackPointExtension>
        </extensions>
      </trkpt>
      <trkpt lat="37.77684791944921016693115234375" lon="-107.6999749056994915008544921875">
        <ele>3951.60009765625</ele>
        <time>2023-07-29T15:19:40.000Z</time>
        <extensions>
          <ns3:TrackPointExtension>
            <ns3:hr>128</ns3:hr>
            <ns3:cad>0</ns3:cad>
          </ns3:TrackPointExtension>
        </extensions>
      </trkpt>
      <trkpt lat="37.77685496024787425994873046875" lon="-107.699968703091144561767578125">
        <ele>3951.800048828125</ele>
        <time>2023-07-29T15:19:41.000Z</time>
        <extensions>
          <ns3:TrackPointExtension>
            <ns3:hr>128</ns3:hr>
            <ns3:cad>0</ns3:cad>
          </ns3:TrackPointExtension>
        </extensions>
      </trkpt>
      <trkpt lat="37.7768545411527156829833984375" lon="-107.69996878691017627716064453125">
        <ele>3951.800048828125</ele>
        <time>2023-07-29T15:19:42.000Z</time>
        <extensions>
          <ns3:TrackPointExtension>
            <ns3:hr>128</ns3:hr>
            <ns3:cad>0</ns3:cad>
          </ns3:TrackPointExtension>
        </extensions>
      </trkpt>
      <trkpt lat="37.7768609113991260528564453125" lon="-107.69996359013020992279052734375">
        <ele>3952</ele>
        <time>2023-07-29T15:19:43.000Z</time>
        <extensions>
          <ns3:TrackPointExtension>
            <ns3:hr>128</ns3:hr>
            <ns3:cad>0</ns3:cad>
          </ns3:TrackPointExtension>
        </extensions>
      </trkpt>
      <trkpt lat="37.77686283923685550689697265625" lon="-107.69996006973087787628173828125">
        <ele>3952.39990234375</ele>
        <time>2023-07-29T15:19:44.000Z</time>
        <extensions>
          <ns3:TrackPointExtension>
            <ns3:hr>128</ns3:hr>
            <ns3:cad>0</ns3:cad>
          </ns3:TrackPointExtension>
        </extensions>
      </trkpt>
      <trkpt lat="37.7768756635487079620361328125" lon="-107.69995168782770633697509765625">
        <ele>3952.39990234375</ele>
        <time>2023-07-29T15:19:45.000Z</time>
        <extensions>
          <ns3:TrackPointExtension>
            <ns3:hr>128</ns3:hr>
            <ns3:cad>0</ns3:cad>
          </ns3:TrackPointExtension>
        </extensions>
      </trkpt>
      <trkpt lat="37.776883542537689208984375" lon="-107.6999450661242008209228515625">
        <ele>3952.60009765625</ele>
        <time>2023-07-29T15:19:46.000Z</time>
        <extensions>
          <ns3:TrackPointExtension>
            <ns3:hr>129</ns3:hr>
            <ns3:cad>0</ns3:cad>
          </ns3:TrackPointExtension>
        </extensions>
      </trkpt>
      <trkpt lat="37.77689737267792224884033203125" lon="-107.69993408583104610443115234375">
        <ele>3952.800048828125</ele>
        <time>2023-07-29T15:19:47.000Z</time>
        <extensions>
          <ns3:TrackPointExtension>
            <ns3:hr>129</ns3:hr>
            <ns3:cad>0</ns3:cad>
          </ns3:TrackPointExtension>
        </extensions>
      </trkpt>
      <trkpt lat="37.7768987976014614105224609375" lon="-107.69993291236460208892822265625">
        <ele>3953</ele>
        <time>2023-07-29T15:19:48.000Z</time>
        <extensions>
          <ns3:TrackPointExtension>
            <ns3:hr>130</ns3:hr>
            <ns3:cad>0</ns3:cad>
          </ns3:TrackPointExtension>
        </extensions>
      </trkpt>
      <trkpt lat="37.7769014798104763031005859375" lon="-107.69993509165942668914794921875">
        <ele>3953.199951171875</ele>
        <time>2023-07-29T15:19:49.000Z</time>
        <extensions>
          <ns3:TrackPointExtension>
            <ns3:hr>131</ns3:hr>
            <ns3:cad>0</ns3:cad>
          </ns3:TrackPointExtension>
        </extensions>
      </trkpt>
      <trkpt lat="37.7769018150866031646728515625" lon="-107.69993953406810760498046875">
        <ele>3953.60009765625</ele>
        <time>2023-07-29T15:19:50.000Z</time>
        <extensions>
          <ns3:TrackPointExtension>
            <ns3:hr>132</ns3:hr>
            <ns3:cad>0</ns3:cad>
          </ns3:TrackPointExtension>
        </extensions>
      </trkpt>
      <trkpt lat="37.776903323829174041748046875" lon="-107.69994263537228107452392578125">
        <ele>3953.800048828125</ele>
        <time>2023-07-29T15:19:51.000Z</time>
        <extensions>
          <ns3:TrackPointExtension>
            <ns3:hr>132</ns3:hr>
            <ns3:cad>0</ns3:cad>
          </ns3:TrackPointExtension>
        </extensions>
      </trkpt>
      <trkpt lat="37.77690407820045948028564453125" lon="-107.69994934089481830596923828125">
        <ele>3953.800048828125</ele>
        <time>2023-07-29T15:19:52.000Z</time>
        <extensions>
          <ns3:TrackPointExtension>
            <ns3:hr>132</ns3:hr>
            <ns3:cad>0</ns3:cad>
          </ns3:TrackPointExtension>
        </extensions>
      </trkpt>
      <trkpt lat="37.77691011317074298858642578125" lon="-107.69994900561869144439697265625">
        <ele>3954</ele>
        <time>2023-07-29T15:19:53.000Z</time>
        <extensions>
          <ns3:TrackPointExtension>
            <ns3:hr>132</ns3:hr>
            <ns3:cad>0</ns3:cad>
          </ns3:TrackPointExtension>
        </extensions>
      </trkpt>
      <trkpt lat="37.7769115380942821502685546875" lon="-107.69994699396193027496337890625">
        <ele>3954.199951171875</ele>
        <time>2023-07-29T15:19:54.000Z</time>
        <extensions>
          <ns3:TrackPointExtension>
            <ns3:hr>132</ns3:hr>
            <ns3:cad>0</ns3:cad>
          </ns3:TrackPointExtension>
        </extensions>
      </trkpt>
      <trkpt lat="37.77691530995070934295654296875" lon="-107.6999433897435665130615234375">
        <ele>3954.199951171875</ele>
        <time>2023-07-29T15:19:55.000Z</time>
        <extensions>
          <ns3:TrackPointExtension>
            <ns3:hr>131</ns3:hr>
            <ns3:cad>0</ns3:cad>
          </ns3:TrackPointExtension>
        </extensions>
      </trkpt>
      <trkpt lat="37.776915729045867919921875" lon="-107.6999383606016635894775390625">
        <ele>3954.60009765625</ele>
        <time>2023-07-29T15:19:56.000Z</time>
        <extensions>
          <ns3:TrackPointExtension>
            <ns3:hr>131</ns3:hr>
            <ns3:cad>0</ns3:cad>
          </ns3:TrackPointExtension>
        </extensions>
      </trkpt>
      <trkpt lat="37.776915729045867919921875" lon="-107.699934504926204681396484375">
        <ele>3954.60009765625</ele>
        <time>2023-07-29T15:19:57.000Z</time>
        <extensions>
          <ns3:TrackPointExtension>
            <ns3:hr>132</ns3:hr>
            <ns3:cad>0</ns3:cad>
          </ns3:TrackPointExtension>
        </extensions>
      </trkpt>
      <trkpt lat="37.7769179083406925201416015625" lon="-107.69992939196527004241943359375">
        <ele>3955</ele>
        <time>2023-07-29T15:19:58.000Z</time>
        <extensions>
          <ns3:TrackPointExtension>
            <ns3:hr>132</ns3:hr>
            <ns3:cad>0</ns3:cad>
          </ns3:TrackPointExtension>
        </extensions>
      </trkpt>
      <trkpt lat="37.7769185788929462432861328125" lon="-107.6999259553849697113037109375">
        <ele>3955.199951171875</ele>
        <time>2023-07-29T15:19:59.000Z</time>
        <extensions>
          <ns3:TrackPointExtension>
            <ns3:hr>132</ns3:hr>
            <ns3:cad>0</ns3:cad>
          </ns3:TrackPointExtension>
        </extensions>
      </trkpt>
      <trkpt lat="37.776917405426502227783203125" lon="-107.6999175734817981719970703125">
        <ele>3955.39990234375</ele>
        <time>2023-07-29T15:20:00.000Z</time>
        <extensions>
          <ns3:TrackPointExtension>
            <ns3:hr>132</ns3:hr>
            <ns3:cad>0</ns3:cad>
          </ns3:TrackPointExtension>
        </extensions>
      </trkpt>
      <trkpt lat="37.7769162319600582122802734375" lon="-107.69991564564406871795654296875">
        <ele>3955.60009765625</ele>
        <time>2023-07-29T15:20:01.000Z</time>
        <extensions>
          <ns3:TrackPointExtension>
            <ns3:hr>132</ns3:hr>
            <ns3:cad>0</ns3:cad>
          </ns3:TrackPointExtension>
        </extensions>
      </trkpt>
      <trkpt lat="37.776916734874248504638671875" lon="-107.69990843720734119415283203125">
        <ele>3955.800048828125</ele>
        <time>2023-07-29T15:20:02.000Z</time>
        <extensions>
          <ns3:TrackPointExtension>
            <ns3:hr>132</ns3:hr>
            <ns3:cad>0</ns3:cad>
          </ns3:TrackPointExtension>
        </extensions>
      </trkpt>
      <trkpt lat="37.77691908180713653564453125" lon="-107.69990156404674053192138671875">
        <ele>3956</ele>
        <time>2023-07-29T15:20:03.000Z</time>
        <extensions>
          <ns3:TrackPointExtension>
            <ns3:hr>131</ns3:hr>
            <ns3:cad>0</ns3:cad>
          </ns3:TrackPointExtension>
        </extensions>
      </trkpt>
      <trkpt lat="37.7769209258258342742919921875" lon="-107.69989452324807643890380859375">
        <ele>3956.199951171875</ele>
        <time>2023-07-29T15:20:04.000Z</time>
        <extensions>
          <ns3:TrackPointExtension>
            <ns3:hr>131</ns3:hr>
            <ns3:cad>0</ns3:cad>
          </ns3:TrackPointExtension>
        </extensions>
      </trkpt>
      <trkpt lat="37.7769229374825954437255859375" lon="-107.6998887397348880767822265625">
        <ele>3956.39990234375</ele>
        <time>2023-07-29T15:20:05.000Z</time>
        <extensions>
          <ns3:TrackPointExtension>
            <ns3:hr>131</ns3:hr>
            <ns3:cad>0</ns3:cad>
          </ns3:TrackPointExtension>
        </extensions>
      </trkpt>
      <trkpt lat="37.776924110949039459228515625" lon="-107.69988262094557285308837890625">
        <ele>3956.60009765625</ele>
        <time>2023-07-29T15:20:06.000Z</time>
        <extensions>
          <ns3:TrackPointExtension>
            <ns3:hr>131</ns3:hr>
            <ns3:cad>0</ns3:cad>
          </ns3:TrackPointExtension>
        </extensions>
      </trkpt>
      <trkpt lat="37.77692285366356372833251953125" lon="-107.69988454878330230712890625">
        <ele>3956.60009765625</ele>
        <time>2023-07-29T15:20:07.000Z</time>
        <extensions>
          <ns3:TrackPointExtension>
            <ns3:hr>131</ns3:hr>
            <ns3:cad>0</ns3:cad>
          </ns3:TrackPointExtension>
        </extensions>
      </trkpt>
      <trkpt lat="37.77692369185388088226318359375" lon="-107.69988027401268482208251953125">
        <ele>3956.800048828125</ele>
        <time>2023-07-29T15:20:08.000Z</time>
        <extensions>
          <ns3:TrackPointExtension>
            <ns3:hr>131</ns3:hr>
            <ns3:cad>59</ns3:cad>
          </ns3:TrackPointExtension>
        </extensions>
      </trkpt>
      <trkpt lat="37.77692670933902263641357421875" lon="-107.69987708888947963714599609375">
        <ele>3956.800048828125</ele>
        <time>2023-07-29T15:20:09.000Z</time>
        <extensions>
          <ns3:TrackPointExtension>
            <ns3:hr>132</ns3:hr>
            <ns3:cad>59</ns3:cad>
          </ns3:TrackPointExtension>
        </extensions>
      </trkpt>
      <trkpt lat="37.77692704461514949798583984375" lon="-107.69987625069916248321533203125">
        <ele>3957.199951171875</ele>
        <time>2023-07-29T15:20:10.000Z</time>
        <extensions>
          <ns3:TrackPointExtension>
            <ns3:hr>132</ns3:hr>
            <ns3:cad>0</ns3:cad>
          </ns3:TrackPointExtension>
        </extensions>
      </trkpt>
      <trkpt lat="37.77693056501448154449462890625" lon="-107.69987038336694240570068359375">
        <ele>3957.60009765625</ele>
        <time>2023-07-29T15:20:11.000Z</time>
        <extensions>
          <ns3:TrackPointExtension>
            <ns3:hr>133</ns3:hr>
            <ns3:cad>0</ns3:cad>
          </ns3:TrackPointExtension>
        </extensions>
      </trkpt>
      <trkpt lat="37.77693291194736957550048828125" lon="-107.69986233673989772796630859375">
        <ele>3958</ele>
        <time>2023-07-29T15:20:12.000Z</time>
        <extensions>
          <ns3:TrackPointExtension>
            <ns3:hr>133</ns3:hr>
            <ns3:cad>0</ns3:cad>
          </ns3:TrackPointExtension>
        </extensions>
      </trkpt>
      <trkpt lat="37.7769363485276699066162109375" lon="-107.69985730759799480438232421875">
        <ele>3958</ele>
        <time>2023-07-29T15:20:13.000Z</time>
        <extensions>
          <ns3:TrackPointExtension>
            <ns3:hr>133</ns3:hr>
            <ns3:cad>0</ns3:cad>
          </ns3:TrackPointExtension>
        </extensions>
      </trkpt>
      <trkpt lat="37.776939868927001953125" lon="-107.69985043443739414215087890625">
        <ele>3958.39990234375</ele>
        <time>2023-07-29T15:20:14.000Z</time>
        <extensions>
          <ns3:TrackPointExtension>
            <ns3:hr>133</ns3:hr>
            <ns3:cad>0</ns3:cad>
          </ns3:TrackPointExtension>
        </extensions>
      </trkpt>
      <trkpt lat="37.77694380842149257659912109375" lon="-107.69984305836260318756103515625">
        <ele>3958.60009765625</ele>
        <time>2023-07-29T15:20:15.000Z</time>
        <extensions>
          <ns3:TrackPointExtension>
            <ns3:hr>133</ns3:hr>
            <ns3:cad>0</ns3:cad>
          </ns3:TrackPointExtension>
        </extensions>
      </trkpt>
      <trkpt lat="37.77694514952600002288818359375" lon="-107.6998454891145229339599609375">
        <ele>3958.800048828125</ele>
        <time>2023-07-29T15:20:16.000Z</time>
        <extensions>
          <ns3:TrackPointExtension>
            <ns3:hr>132</ns3:hr>
            <ns3:cad>0</ns3:cad>
          </ns3:TrackPointExtension>
        </extensions>
      </trkpt>
      <trkpt lat="37.77694582007825374603271484375" lon="-107.699843980371952056884765625">
        <ele>3959</ele>
        <time>2023-07-29T15:20:17.000Z</time>
        <extensions>
          <ns3:TrackPointExtension>
            <ns3:hr>133</ns3:hr>
            <ns3:cad>0</ns3:cad>
          </ns3:TrackPointExtension>
        </extensions>
      </trkpt>
      <trkpt lat="37.77694917283952236175537109375" lon="-107.69983584992587566375732421875">
        <ele>3959</ele>
        <time>2023-07-29T15:20:18.000Z</time>
        <extensions>
          <ns3:TrackPointExtension>
            <ns3:hr>133</ns3:hr>
            <ns3:cad>0</ns3:cad>
          </ns3:TrackPointExtension>
        </extensions>
      </trkpt>
      <trkpt lat="37.77694649063050746917724609375" lon="-107.69983802922070026397705078125">
        <ele>3959.199951171875</ele>
        <time>2023-07-29T15:20:19.000Z</time>
        <extensions>
          <ns3:TrackPointExtension>
            <ns3:hr>133</ns3:hr>
            <ns3:cad>0</ns3:cad>
          </ns3:TrackPointExtension>
        </extensions>
      </trkpt>
      <trkpt lat="37.776949591934680938720703125" lon="-107.6998342573642730712890625">
        <ele>3959.199951171875</ele>
        <time>2023-07-29T15:20:20.000Z</time>
        <extensions>
          <ns3:TrackPointExtension>
            <ns3:hr>134</ns3:hr>
            <ns3:cad>0</ns3:cad>
          </ns3:TrackPointExtension>
        </extensions>
      </trkpt>
      <trkpt lat="37.7769517712295055389404296875" lon="-107.69982679747045040130615234375">
        <ele>3959.39990234375</ele>
        <time>2023-07-29T15:20:21.000Z</time>
        <extensions>
          <ns3:TrackPointExtension>
            <ns3:hr>133</ns3:hr>
            <ns3:cad>0</ns3:cad>
          </ns3:TrackPointExtension>
        </extensions>
      </trkpt>
      <trkpt lat="37.77695537544786930084228515625" lon="-107.69981925375759601593017578125">
        <ele>3959.60009765625</ele>
        <time>2023-07-29T15:20:22.000Z</time>
        <extensions>
          <ns3:TrackPointExtension>
            <ns3:hr>133</ns3:hr>
            <ns3:cad>0</ns3:cad>
          </ns3:TrackPointExtension>
        </extensions>
      </trkpt>
      <trkpt lat="37.7769494242966175079345703125" lon="-107.699823863804340362548828125">
        <ele>3960</ele>
        <time>2023-07-29T15:20:23.000Z</time>
        <extensions>
          <ns3:TrackPointExtension>
            <ns3:hr>133</ns3:hr>
            <ns3:cad>0</ns3:cad>
          </ns3:TrackPointExtension>
        </extensions>
      </trkpt>
      <trkpt lat="37.77694799937307834625244140625" lon="-107.69982260651886463165283203125">
        <ele>3960</ele>
        <time>2023-07-29T15:20:24.000Z</time>
        <extensions>
          <ns3:TrackPointExtension>
            <ns3:hr>133</ns3:hr>
            <ns3:cad>0</ns3:cad>
          </ns3:TrackPointExtension>
        </extensions>
      </trkpt>
      <trkpt lat="37.7769450657069683074951171875" lon="-107.69983132369816303253173828125">
        <ele>3960.199951171875</ele>
        <time>2023-07-29T15:20:25.000Z</time>
        <extensions>
          <ns3:TrackPointExtension>
            <ns3:hr>133</ns3:hr>
            <ns3:cad>0</ns3:cad>
          </ns3:TrackPointExtension>
        </extensions>
      </trkpt>
      <trkpt lat="37.7769443951547145843505859375" lon="-107.69983534701168537139892578125">
        <ele>3960.199951171875</ele>
        <time>2023-07-29T15:20:26.000Z</time>
        <extensions>
          <ns3:TrackPointExtension>
            <ns3:hr>134</ns3:hr>
            <ns3:cad>0</ns3:cad>
          </ns3:TrackPointExtension>
        </extensions>
      </trkpt>
      <trkpt lat="37.77694582007825374603271484375" lon="-107.69983249716460704803466796875">
        <ele>3960.39990234375</ele>
        <time>2023-07-29T15:20:27.000Z</time>
        <extensions>
          <ns3:TrackPointExtension>
            <ns3:hr>134</ns3:hr>
            <ns3:cad>0</ns3:cad>
          </ns3:TrackPointExtension>
        </extensions>
      </trkpt>
      <trkpt lat="37.77694665826857089996337890625" lon="-107.6998293958604335784912109375">
        <ele>3960.39990234375</ele>
        <time>2023-07-29T15:20:28.000Z</time>
        <extensions>
          <ns3:TrackPointExtension>
            <ns3:hr>134</ns3:hr>
            <ns3:cad>0</ns3:cad>
          </ns3:TrackPointExtension>
        </extensions>
      </trkpt>
      <trkpt lat="37.776944227516651153564453125" lon="-107.69982763566076755523681640625">
        <ele>3960.39990234375</ele>
        <time>2023-07-29T15:20:29.000Z</time>
        <extensions>
          <ns3:TrackPointExtension>
            <ns3:hr>134</ns3:hr>
            <ns3:cad>0</ns3:cad>
          </ns3:TrackPointExtension>
        </extensions>
      </trkpt>
      <trkpt lat="37.7769465744495391845703125" lon="-107.69982227124273777008056640625">
        <ele>3960.60009765625</ele>
        <time>2023-07-29T15:20:30.000Z</time>
        <extensions>
          <ns3:TrackPointExtension>
            <ns3:hr>134</ns3:hr>
            <ns3:cad>0</ns3:cad>
          </ns3:TrackPointExtension>
        </extensions>
      </trkpt>
      <trkpt lat="37.77695504017174243927001953125" lon="-107.69981036894023418426513671875">
        <ele>3960.800048828125</ele>
        <time>2023-07-29T15:20:31.000Z</time>
        <extensions>
          <ns3:TrackPointExtension>
            <ns3:hr>134</ns3:hr>
            <ns3:cad>0</ns3:cad>
          </ns3:TrackPointExtension>
        </extensions>
      </trkpt>
      <trkpt lat="37.77695596218109130859375" lon="-107.6998059265315532684326171875">
        <ele>3961</ele>
        <time>2023-07-29T15:20:32.000Z</time>
        <extensions>
          <ns3:TrackPointExtension>
            <ns3:hr>134</ns3:hr>
            <ns3:cad>0</ns3:cad>
          </ns3:TrackPointExtension>
        </extensions>
      </trkpt>
      <trkpt lat="37.77695973403751850128173828125" lon="-107.699795700609683990478515625">
        <ele>3961</ele>
        <time>2023-07-29T15:20:33.000Z</time>
        <extensions>
          <ns3:TrackPointExtension>
            <ns3:hr>134</ns3:hr>
            <ns3:cad>0</ns3:cad>
          </ns3:TrackPointExtension>
        </extensions>
      </trkpt>
      <trkpt lat="37.7769588120281696319580078125" lon="-107.69979410804808139801025390625">
        <ele>3961.39990234375</ele>
        <time>2023-07-29T15:20:34.000Z</time>
        <extensions>
          <ns3:TrackPointExtension>
            <ns3:hr>134</ns3:hr>
            <ns3:cad>0</ns3:cad>
          </ns3:TrackPointExtension>
        </extensions>
      </trkpt>
      <trkpt lat="37.77695931494235992431640625" lon="-107.6997874863445758819580078125">
        <ele>3961.39990234375</ele>
        <time>2023-07-29T15:20:35.000Z</time>
        <extensions>
          <ns3:TrackPointExtension>
            <ns3:hr>134</ns3:hr>
            <ns3:cad>0</ns3:cad>
          </ns3:TrackPointExtension>
        </extensions>
      </trkpt>
      <trkpt lat="37.7769631706178188323974609375" lon="-107.69978086464107036590576171875">
        <ele>3961.60009765625</ele>
        <time>2023-07-29T15:20:36.000Z</time>
        <extensions>
          <ns3:TrackPointExtension>
            <ns3:hr>134</ns3:hr>
            <ns3:cad>0</ns3:cad>
          </ns3:TrackPointExtension>
        </extensions>
      </trkpt>
      <trkpt lat="37.7769661881029605865478515625" lon="-107.69977767951786518096923828125">
        <ele>3961.800048828125</ele>
        <time>2023-07-29T15:20:37.000Z</time>
        <extensions>
          <ns3:TrackPointExtension>
            <ns3:hr>134</ns3:hr>
            <ns3:cad>0</ns3:cad>
          </ns3:TrackPointExtension>
        </extensions>
      </trkpt>
      <trkpt lat="37.77697079814970493316650390625" lon="-107.69976862706243991851806640625">
        <ele>3962.199951171875</ele>
        <time>2023-07-29T15:20:38.000Z</time>
        <extensions>
          <ns3:TrackPointExtension>
            <ns3:hr>134</ns3:hr>
            <ns3:cad>55</ns3:cad>
          </ns3:TrackPointExtension>
        </extensions>
      </trkpt>
      <trkpt lat="37.77697297744452953338623046875" lon="-107.69976376555860042572021484375">
        <ele>3962.199951171875</ele>
        <time>2023-07-29T15:20:39.000Z</time>
        <extensions>
          <ns3:TrackPointExtension>
            <ns3:hr>134</ns3:hr>
            <ns3:cad>55</ns3:cad>
          </ns3:TrackPointExtension>
        </extensions>
      </trkpt>
      <trkpt lat="37.7769728936254978179931640625" lon="-107.6997613348066806793212890625">
        <ele>3962.39990234375</ele>
        <time>2023-07-29T15:20:40.000Z</time>
        <extensions>
          <ns3:TrackPointExtension>
            <ns3:hr>134</ns3:hr>
            <ns3:cad>0</ns3:cad>
          </ns3:TrackPointExtension>
        </extensions>
      </trkpt>
      <trkpt lat="37.7769755758345127105712890625" lon="-107.69975957460701465606689453125">
        <ele>3962.60009765625</ele>
        <time>2023-07-29T15:20:41.000Z</time>
        <extensions>
          <ns3:TrackPointExtension>
            <ns3:hr>133</ns3:hr>
            <ns3:cad>0</ns3:cad>
          </ns3:TrackPointExtension>
        </extensions>
      </trkpt>
      <trkpt lat="37.77697809040546417236328125" lon="-107.69975856877863407135009765625">
        <ele>3962.60009765625</ele>
        <time>2023-07-29T15:20:42.000Z</time>
        <extensions>
          <ns3:TrackPointExtension>
            <ns3:hr>134</ns3:hr>
            <ns3:cad>0</ns3:cad>
          </ns3:TrackPointExtension>
        </extensions>
      </trkpt>
      <trkpt lat="37.77698236517608165740966796875" lon="-107.6997573114931583404541015625">
        <ele>3962.800048828125</ele>
        <time>2023-07-29T15:20:43.000Z</time>
        <extensions>
          <ns3:TrackPointExtension>
            <ns3:hr>134</ns3:hr>
            <ns3:cad>0</ns3:cad>
          </ns3:TrackPointExtension>
        </extensions>
      </trkpt>
      <trkpt lat="37.7769906632602214813232421875" lon="-107.6997485943138599395751953125">
        <ele>3963</ele>
        <time>2023-07-29T15:20:44.000Z</time>
        <extensions>
          <ns3:TrackPointExtension>
            <ns3:hr>133</ns3:hr>
            <ns3:cad>0</ns3:cad>
          </ns3:TrackPointExtension>
        </extensions>
      </trkpt>
      <trkpt lat="37.776998542249202728271484375" lon="-107.69974029622972011566162109375">
        <ele>3963.199951171875</ele>
        <time>2023-07-29T15:20:45.000Z</time>
        <extensions>
          <ns3:TrackPointExtension>
            <ns3:hr>133</ns3:hr>
            <ns3:cad>0</ns3:cad>
          </ns3:TrackPointExtension>
        </extensions>
      </trkpt>
      <trkpt lat="37.7770013920962810516357421875" lon="-107.699739038944244384765625">
        <ele>3963.39990234375</ele>
        <time>2023-07-29T15:20:46.000Z</time>
        <extensions>
          <ns3:TrackPointExtension>
            <ns3:hr>133</ns3:hr>
            <ns3:cad>0</ns3:cad>
          </ns3:TrackPointExtension>
        </extensions>
      </trkpt>
      <trkpt lat="37.777004241943359375" lon="-107.69973727874457836151123046875">
        <ele>3963.60009765625</ele>
        <time>2023-07-29T15:20:47.000Z</time>
        <extensions>
          <ns3:TrackPointExtension>
            <ns3:hr>133</ns3:hr>
            <ns3:cad>0</ns3:cad>
          </ns3:TrackPointExtension>
        </extensions>
      </trkpt>
      <trkpt lat="37.7770037390291690826416015625" lon="-107.69973979331552982330322265625">
        <ele>3963.60009765625</ele>
        <time>2023-07-29T15:20:48.000Z</time>
        <extensions>
          <ns3:TrackPointExtension>
            <ns3:hr>133</ns3:hr>
            <ns3:cad>0</ns3:cad>
          </ns3:TrackPointExtension>
        </extensions>
      </trkpt>
      <trkpt lat="37.77701287530362606048583984375" lon="-107.69973434507846832275390625">
        <ele>3963.800048828125</ele>
        <time>2023-07-29T15:20:49.000Z</time>
        <extensions>
          <ns3:TrackPointExtension>
            <ns3:hr>132</ns3:hr>
            <ns3:cad>0</ns3:cad>
          </ns3:TrackPointExtension>
        </extensions>
      </trkpt>
      <trkpt lat="37.7770188264548778533935546875" lon="-107.6997301541268825531005859375">
        <ele>3964</ele>
        <time>2023-07-29T15:20:50.000Z</time>
        <extensions>
          <ns3:TrackPointExtension>
            <ns3:hr>133</ns3:hr>
            <ns3:cad>0</ns3:cad>
          </ns3:TrackPointExtension>
        </extensions>
      </trkpt>
      <trkpt lat="37.7770228497684001922607421875" lon="-107.69973023794591426849365234375">
        <ele>3964.199951171875</ele>
        <time>2023-07-29T15:20:51.000Z</time>
        <extensions>
          <ns3:TrackPointExtension>
            <ns3:hr>133</ns3:hr>
            <ns3:cad>0</ns3:cad>
          </ns3:TrackPointExtension>
        </extensions>
      </trkpt>
      <trkpt lat="37.77703014202415943145751953125" lon="-107.699727304279804229736328125">
        <ele>3964.60009765625</ele>
        <time>2023-07-29T15:20:52.000Z</time>
        <extensions>
          <ns3:TrackPointExtension>
            <ns3:hr>133</ns3:hr>
            <ns3:cad>0</ns3:cad>
          </ns3:TrackPointExtension>
        </extensions>
      </trkpt>
      <trkpt lat="37.77703366242349147796630859375" lon="-107.6997251249849796295166015625">
        <ele>3964.800048828125</ele>
        <time>2023-07-29T15:20:53.000Z</time>
        <extensions>
          <ns3:TrackPointExtension>
            <ns3:hr>133</ns3:hr>
            <ns3:cad>0</ns3:cad>
          </ns3:TrackPointExtension>
        </extensions>
      </trkpt>
      <trkpt lat="37.77703768573701381683349609375" lon="-107.69972403533756732940673828125">
        <ele>3964.800048828125</ele>
        <time>2023-07-29T15:20:54.000Z</time>
        <extensions>
          <ns3:TrackPointExtension>
            <ns3:hr>133</ns3:hr>
            <ns3:cad>0</ns3:cad>
          </ns3:TrackPointExtension>
        </extensions>
      </trkpt>
      <trkpt lat="37.77704472653567790985107421875" lon="-107.69972336478531360626220703125">
        <ele>3965</ele>
        <time>2023-07-29T15:20:55.000Z</time>
        <extensions>
          <ns3:TrackPointExtension>
            <ns3:hr>133</ns3:hr>
            <ns3:cad>0</ns3:cad>
          </ns3:TrackPointExtension>
        </extensions>
      </trkpt>
      <trkpt lat="37.777050845324993133544921875" lon="-107.699724622070789337158203125">
        <ele>3965</ele>
        <time>2023-07-29T15:20:56.000Z</time>
        <extensions>
          <ns3:TrackPointExtension>
            <ns3:hr>132</ns3:hr>
            <ns3:cad>0</ns3:cad>
          </ns3:TrackPointExtension>
        </extensions>
      </trkpt>
      <trkpt lat="37.777058221399784088134765625" lon="-107.699725627899169921875">
        <ele>3965.199951171875</ele>
        <time>2023-07-29T15:20:57.000Z</time>
        <extensions>
          <ns3:TrackPointExtension>
            <ns3:hr>133</ns3:hr>
            <ns3:cad>0</ns3:cad>
          </ns3:TrackPointExtension>
        </extensions>
      </trkpt>
      <trkpt lat="37.7770533598959445953369140625" lon="-107.69973300397396087646484375">
        <ele>3965.39990234375</ele>
        <time>2023-07-29T15:20:58.000Z</time>
        <extensions>
          <ns3:TrackPointExtension>
            <ns3:hr>133</ns3:hr>
            <ns3:cad>0</ns3:cad>
          </ns3:TrackPointExtension>
        </extensions>
      </trkpt>
      <trkpt lat="37.77706098742783069610595703125" lon="-107.699737362563610076904296875">
        <ele>3965.60009765625</ele>
        <time>2023-07-29T15:20:59.000Z</time>
        <extensions>
          <ns3:TrackPointExtension>
            <ns3:hr>133</ns3:hr>
            <ns3:cad>0</ns3:cad>
          </ns3:TrackPointExtension>
        </extensions>
      </trkpt>
      <trkpt lat="37.77706584893167018890380859375" lon="-107.69973811693489551544189453125">
        <ele>3966</ele>
        <time>2023-07-29T15:21:00.000Z</time>
        <extensions>
          <ns3:TrackPointExtension>
            <ns3:hr>133</ns3:hr>
            <ns3:cad>0</ns3:cad>
          </ns3:TrackPointExtension>
        </extensions>
      </trkpt>
      <trkpt lat="37.77707674540579319000244140625" lon="-107.69973644055426120758056640625">
        <ele>3966</ele>
        <time>2023-07-29T15:21:01.000Z</time>
        <extensions>
          <ns3:TrackPointExtension>
            <ns3:hr>132</ns3:hr>
            <ns3:cad>0</ns3:cad>
          </ns3:TrackPointExtension>
        </extensions>
      </trkpt>
      <trkpt lat="37.77707942761480808258056640625" lon="-107.699734680354595184326171875">
        <ele>3966.199951171875</ele>
        <time>2023-07-29T15:21:02.000Z</time>
        <extensions>
          <ns3:TrackPointExtension>
            <ns3:hr>132</ns3:hr>
            <ns3:cad>0</ns3:cad>
          </ns3:TrackPointExtension>
        </extensions>
      </trkpt>
      <trkpt lat="37.77708403766155242919921875" lon="-107.6997328363358974456787109375">
        <ele>3966.199951171875</ele>
        <time>2023-07-29T15:21:03.000Z</time>
        <extensions>
          <ns3:TrackPointExtension>
            <ns3:hr>132</ns3:hr>
            <ns3:cad>0</ns3:cad>
          </ns3:TrackPointExtension>
        </extensions>
      </trkpt>
      <trkpt lat="37.77708311565220355987548828125" lon="-107.69972923211753368377685546875">
        <ele>3966.39990234375</ele>
        <time>2023-07-29T15:21:04.000Z</time>
        <extensions>
          <ns3:TrackPointExtension>
            <ns3:hr>132</ns3:hr>
            <ns3:cad>0</ns3:cad>
          </ns3:TrackPointExtension>
        </extensions>
      </trkpt>
      <trkpt lat="37.77708244509994983673095703125" lon="-107.69972738809883594512939453125">
        <ele>3966.60009765625</ele>
        <time>2023-07-29T15:21:05.000Z</time>
        <extensions>
          <ns3:TrackPointExtension>
            <ns3:hr>132</ns3:hr>
            <ns3:cad>0</ns3:cad>
          </ns3:TrackPointExtension>
        </extensions>
      </trkpt>
      <trkpt lat="37.777089066803455352783203125" lon="-107.6997211016714572906494140625">
        <ele>3966.800048828125</ele>
        <time>2023-07-29T15:21:06.000Z</time>
        <extensions>
          <ns3:TrackPointExtension>
            <ns3:hr>132</ns3:hr>
            <ns3:cad>0</ns3:cad>
          </ns3:TrackPointExtension>
        </extensions>
      </trkpt>
      <trkpt lat="37.7770900726318359375" lon="-107.6997189223766326904296875">
        <ele>3966.800048828125</ele>
        <time>2023-07-29T15:21:07.000Z</time>
        <extensions>
          <ns3:TrackPointExtension>
            <ns3:hr>132</ns3:hr>
            <ns3:cad>0</ns3:cad>
          </ns3:TrackPointExtension>
        </extensions>
      </trkpt>
      <trkpt lat="37.77709350921213626861572265625" lon="-107.69971213303506374359130859375">
        <ele>3966.800048828125</ele>
        <time>2023-07-29T15:21:08.000Z</time>
        <extensions>
          <ns3:TrackPointExtension>
            <ns3:hr>133</ns3:hr>
            <ns3:cad>0</ns3:cad>
          </ns3:TrackPointExtension>
        </extensions>
      </trkpt>
      <trkpt lat="37.77710356749594211578369140625" lon="-107.69969771616160869598388671875">
        <ele>3967.39990234375</ele>
        <time>2023-07-29T15:21:09.000Z</time>
        <extensions>
          <ns3:TrackPointExtension>
            <ns3:hr>133</ns3:hr>
            <ns3:cad>0</ns3:cad>
          </ns3:TrackPointExtension>
        </extensions>
      </trkpt>
      <trkpt lat="37.7771100215613842010498046875" lon="-107.69968732260167598724365234375">
        <ele>3967.60009765625</ele>
        <time>2023-07-29T15:21:10.000Z</time>
        <extensions>
          <ns3:TrackPointExtension>
            <ns3:hr>132</ns3:hr>
            <ns3:cad>0</ns3:cad>
          </ns3:TrackPointExtension>
        </extensions>
      </trkpt>
      <trkpt lat="37.7771120332181453704833984375" lon="-107.6996842212975025177001953125">
        <ele>3967.800048828125</ele>
        <time>2023-07-29T15:21:11.000Z</time>
        <extensions>
          <ns3:TrackPointExtension>
            <ns3:hr>132</ns3:hr>
            <ns3:cad>0</ns3:cad>
          </ns3:TrackPointExtension>
        </extensions>
      </trkpt>
      <trkpt lat="37.77711178176105022430419921875" lon="-107.6996832154691219329833984375">
        <ele>3967.800048828125</ele>
        <time>2023-07-29T15:21:12.000Z</time>
        <extensions>
          <ns3:TrackPointExtension>
            <ns3:hr>132</ns3:hr>
            <ns3:cad>0</ns3:cad>
          </ns3:TrackPointExtension>
        </extensions>
      </trkpt>
      <trkpt lat="37.7771157212555408477783203125" lon="-107.69967793487012386322021484375">
        <ele>3968.199951171875</ele>
        <time>2023-07-29T15:21:13.000Z</time>
        <extensions>
          <ns3:TrackPointExtension>
            <ns3:hr>132</ns3:hr>
            <ns3:cad>0</ns3:cad>
          </ns3:TrackPointExtension>
        </extensions>
      </trkpt>
      <trkpt lat="37.7771187387406826019287109375" lon="-107.699675001204013824462890625">
        <ele>3968.39990234375</ele>
        <time>2023-07-29T15:21:14.000Z</time>
        <extensions>
          <ns3:TrackPointExtension>
            <ns3:hr>133</ns3:hr>
            <ns3:cad>0</ns3:cad>
          </ns3:TrackPointExtension>
        </extensions>
      </trkpt>
      <trkpt lat="37.77711664326488971710205078125" lon="-107.69967927597463130950927734375">
        <ele>3968.39990234375</ele>
        <time>2023-07-29T15:21:15.000Z</time>
        <extensions>
          <ns3:TrackPointExtension>
            <ns3:hr>133</ns3:hr>
            <ns3:cad>0</ns3:cad>
          </ns3:TrackPointExtension>
        </extensions>
      </trkpt>
      <trkpt lat="37.77712024748325347900390625" lon="-107.69968296401202678680419921875">
        <ele>3968.60009765625</ele>
        <time>2023-07-29T15:21:16.000Z</time>
        <extensions>
          <ns3:TrackPointExtension>
            <ns3:hr>133</ns3:hr>
            <ns3:cad>0</ns3:cad>
          </ns3:TrackPointExtension>
        </extensions>
      </trkpt>
      <trkpt lat="37.777123935520648956298828125" lon="-107.69968413747847080230712890625">
        <ele>3968.60009765625</ele>
        <time>2023-07-29T15:21:17.000Z</time>
        <extensions>
          <ns3:TrackPointExtension>
            <ns3:hr>134</ns3:hr>
            <ns3:cad>0</ns3:cad>
          </ns3:TrackPointExtension>
        </extensions>
      </trkpt>
      <trkpt lat="37.777123264968395233154296875" lon="-107.69968983717262744903564453125">
        <ele>3968.800048828125</ele>
        <time>2023-07-29T15:21:18.000Z</time>
        <extensions>
          <ns3:TrackPointExtension>
            <ns3:hr>134</ns3:hr>
            <ns3:cad>0</ns3:cad>
          </ns3:TrackPointExtension>
        </extensions>
      </trkpt>
      <trkpt lat="37.77712292969226837158203125" lon="-107.6996934413909912109375">
        <ele>3969</ele>
        <time>2023-07-29T15:21:19.000Z</time>
        <extensions>
          <ns3:TrackPointExtension>
            <ns3:hr>134</ns3:hr>
            <ns3:cad>0</ns3:cad>
          </ns3:TrackPointExtension>
        </extensions>
      </trkpt>
      <trkpt lat="37.77712351642549037933349609375" lon="-107.699693776667118072509765625">
        <ele>3969.199951171875</ele>
        <time>2023-07-29T15:21:20.000Z</time>
        <extensions>
          <ns3:TrackPointExtension>
            <ns3:hr>134</ns3:hr>
            <ns3:cad>0</ns3:cad>
          </ns3:TrackPointExtension>
        </extensions>
      </trkpt>
      <trkpt lat="37.77712670154869556427001953125" lon="-107.699696123600006103515625">
        <ele>3969.39990234375</ele>
        <time>2023-07-29T15:21:21.000Z</time>
        <extensions>
          <ns3:TrackPointExtension>
            <ns3:hr>134</ns3:hr>
            <ns3:cad>0</ns3:cad>
          </ns3:TrackPointExtension>
        </extensions>
      </trkpt>
      <trkpt lat="37.77712971903383731842041015625" lon="-107.699698470532894134521484375">
        <ele>3969.39990234375</ele>
        <time>2023-07-29T15:21:22.000Z</time>
        <extensions>
          <ns3:TrackPointExtension>
            <ns3:hr>134</ns3:hr>
            <ns3:cad>0</ns3:cad>
          </ns3:TrackPointExtension>
        </extensions>
      </trkpt>
      <trkpt lat="37.77713491581380367279052734375" lon="-107.6996976323425769805908203125">
        <ele>3969.39990234375</ele>
        <time>2023-07-29T15:21:23.000Z</time>
        <extensions>
          <ns3:TrackPointExtension>
            <ns3:hr>134</ns3:hr>
            <ns3:cad>0</ns3:cad>
          </ns3:TrackPointExtension>
        </extensions>
      </trkpt>
      <trkpt lat="37.777131982147693634033203125" lon="-107.69969989545643329620361328125">
        <ele>3969.800048828125</ele>
        <time>2023-07-29T15:21:24.000Z</time>
        <extensions>
          <ns3:TrackPointExtension>
            <ns3:hr>134</ns3:hr>
            <ns3:cad>0</ns3:cad>
          </ns3:TrackPointExtension>
        </extensions>
      </trkpt>
      <trkpt lat="37.7771291323006153106689453125" lon="-107.6997009851038455963134765625">
        <ele>3969.800048828125</ele>
        <time>2023-07-29T15:21:25.000Z</time>
        <extensions>
          <ns3:TrackPointExtension>
            <ns3:hr>134</ns3:hr>
            <ns3:cad>0</ns3:cad>
          </ns3:TrackPointExtension>
        </extensions>
      </trkpt>
      <trkpt lat="37.77712737210094928741455078125" lon="-107.699701152741909027099609375">
        <ele>3970</ele>
        <time>2023-07-29T15:21:26.000Z</time>
        <extensions>
          <ns3:TrackPointExtension>
            <ns3:hr>134</ns3:hr>
            <ns3:cad>0</ns3:cad>
          </ns3:TrackPointExtension>
        </extensions>
      </trkpt>
      <trkpt lat="37.77712418697774410247802734375" lon="-107.699701488018035888671875">
        <ele>3970.199951171875</ele>
        <time>2023-07-29T15:21:27.000Z</time>
        <extensions>
          <ns3:TrackPointExtension>
            <ns3:hr>134</ns3:hr>
            <ns3:cad>0</ns3:cad>
          </ns3:TrackPointExtension>
        </extensions>
      </trkpt>
      <trkpt lat="37.777117900550365447998046875" lon="-107.69969972781836986541748046875">
        <ele>3970.199951171875</ele>
        <time>2023-07-29T15:21:28.000Z</time>
        <extensions>
          <ns3:TrackPointExtension>
            <ns3:hr>134</ns3:hr>
            <ns3:cad>0</ns3:cad>
          </ns3:TrackPointExtension>
        </extensions>
      </trkpt>
      <trkpt lat="37.77711354196071624755859375" lon="-107.699700482189655303955078125">
        <ele>3970.199951171875</ele>
        <time>2023-07-29T15:21:29.000Z</time>
        <extensions>
          <ns3:TrackPointExtension>
            <ns3:hr>134</ns3:hr>
            <ns3:cad>0</ns3:cad>
          </ns3:TrackPointExtension>
        </extensions>
      </trkpt>
      <trkpt lat="37.77710993774235248565673828125" lon="-107.69970442168414592742919921875">
        <ele>3970.199951171875</ele>
        <time>2023-07-29T15:21:30.000Z</time>
        <extensions>
          <ns3:TrackPointExtension>
            <ns3:hr>134</ns3:hr>
            <ns3:cad>0</ns3:cad>
          </ns3:TrackPointExtension>
        </extensions>
      </trkpt>
      <trkpt lat="37.7771008014678955078125" lon="-107.6997055113315582275390625">
        <ele>3970.199951171875</ele>
        <time>2023-07-29T15:21:31.000Z</time>
        <extensions>
          <ns3:TrackPointExtension>
            <ns3:hr>133</ns3:hr>
            <ns3:cad>0</ns3:cad>
          </ns3:TrackPointExtension>
        </extensions>
      </trkpt>
      <trkpt lat="37.77709669433534145355224609375" lon="-107.699707187712192535400390625">
        <ele>3970.199951171875</ele>
        <time>2023-07-29T15:21:32.000Z</time>
        <extensions>
          <ns3:TrackPointExtension>
            <ns3:hr>133</ns3:hr>
            <ns3:cad>0</ns3:cad>
          </ns3:TrackPointExtension>
        </extensions>
      </trkpt>
      <trkpt lat="37.77710189111530780792236328125" lon="-107.69970777444541454315185546875">
        <ele>3970.199951171875</ele>
        <time>2023-07-29T15:21:33.000Z</time>
        <extensions>
          <ns3:TrackPointExtension>
            <ns3:hr>132</ns3:hr>
            <ns3:cad>0</ns3:cad>
          </ns3:TrackPointExtension>
        </extensions>
      </trkpt>
      <trkpt lat="37.77710616588592529296875" lon="-107.69971163012087345123291015625">
        <ele>3970.199951171875</ele>
        <time>2023-07-29T15:21:34.000Z</time>
        <extensions>
          <ns3:TrackPointExtension>
            <ns3:hr>132</ns3:hr>
            <ns3:cad>0</ns3:cad>
          </ns3:TrackPointExtension>
        </extensions>
      </trkpt>
      <trkpt lat="37.7771113626658916473388671875" lon="-107.6997107081115245819091796875">
        <ele>3970.39990234375</ele>
        <time>2023-07-29T15:21:35.000Z</time>
        <extensions>
          <ns3:TrackPointExtension>
            <ns3:hr>131</ns3:hr>
            <ns3:cad>0</ns3:cad>
          </ns3:TrackPointExtension>
        </extensions>
      </trkpt>
      <trkpt lat="37.77712066657841205596923828125" lon="-107.69970525987446308135986328125">
        <ele>3970.39990234375</ele>
        <time>2023-07-29T15:21:36.000Z</time>
        <extensions>
          <ns3:TrackPointExtension>
            <ns3:hr>131</ns3:hr>
            <ns3:cad>0</ns3:cad>
          </ns3:TrackPointExtension>
        </extensions>
      </trkpt>
      <trkpt lat="37.77712167240679264068603515625" lon="-107.69969972781836986541748046875">
        <ele>3970.39990234375</ele>
        <time>2023-07-29T15:21:37.000Z</time>
        <extensions>
          <ns3:TrackPointExtension>
            <ns3:hr>130</ns3:hr>
            <ns3:cad>0</ns3:cad>
          </ns3:TrackPointExtension>
        </extensions>
      </trkpt>
      <trkpt lat="37.77713038958609104156494140625" lon="-107.69968648441135883331298828125">
        <ele>3970.60009765625</ele>
        <time>2023-07-29T15:21:38.000Z</time>
        <extensions>
          <ns3:TrackPointExtension>
            <ns3:hr>129</ns3:hr>
            <ns3:cad>0</ns3:cad>
          </ns3:TrackPointExtension>
        </extensions>
      </trkpt>
      <trkpt lat="37.7771338261663913726806640625" lon="-107.6996808685362339019775390625">
        <ele>3970.800048828125</ele>
        <time>2023-07-29T15:21:39.000Z</time>
        <extensions>
          <ns3:TrackPointExtension>
            <ns3:hr>129</ns3:hr>
            <ns3:cad>0</ns3:cad>
          </ns3:TrackPointExtension>
        </extensions>
      </trkpt>
      <trkpt lat="37.77713944204151630401611328125" lon="-107.6996691338717937469482421875">
        <ele>3970.800048828125</ele>
        <time>2023-07-29T15:21:40.000Z</time>
        <extensions>
          <ns3:TrackPointExtension>
            <ns3:hr>128</ns3:hr>
            <ns3:cad>0</ns3:cad>
          </ns3:TrackPointExtension>
        </extensions>
      </trkpt>
      <trkpt lat="37.77714430354535579681396484375" lon="-107.69965630955994129180908203125">
        <ele>3971</ele>
        <time>2023-07-29T15:21:41.000Z</time>
        <extensions>
          <ns3:TrackPointExtension>
            <ns3:hr>128</ns3:hr>
            <ns3:cad>0</ns3:cad>
          </ns3:TrackPointExtension>
        </extensions>
      </trkpt>
      <trkpt lat="37.7771495841443538665771484375" lon="-107.6996465027332305908203125">
        <ele>3971.199951171875</ele>
        <time>2023-07-29T15:21:42.000Z</time>
        <extensions>
          <ns3:TrackPointExtension>
            <ns3:hr>128</ns3:hr>
            <ns3:cad>0</ns3:cad>
          </ns3:TrackPointExtension>
        </extensions>
      </trkpt>
      <trkpt lat="37.77715335600078105926513671875" lon="-107.69964273087680339813232421875">
        <ele>3971.199951171875</ele>
        <time>2023-07-29T15:21:43.000Z</time>
        <extensions>
          <ns3:TrackPointExtension>
            <ns3:hr>128</ns3:hr>
            <ns3:cad>0</ns3:cad>
          </ns3:TrackPointExtension>
        </extensions>
      </trkpt>
      <trkpt lat="37.77715838514268398284912109375" lon="-107.69964038394391536712646484375">
        <ele>3971.60009765625</ele>
        <time>2023-07-29T15:21:44.000Z</time>
        <extensions>
          <ns3:TrackPointExtension>
            <ns3:hr>129</ns3:hr>
            <ns3:cad>0</ns3:cad>
          </ns3:TrackPointExtension>
        </extensions>
      </trkpt>
      <trkpt lat="37.7771636657416820526123046875" lon="-107.699634768068790435791015625">
        <ele>3971.800048828125</ele>
        <time>2023-07-29T15:21:45.000Z</time>
        <extensions>
          <ns3:TrackPointExtension>
            <ns3:hr>129</ns3:hr>
            <ns3:cad>0</ns3:cad>
          </ns3:TrackPointExtension>
        </extensions>
      </trkpt>
      <trkpt lat="37.77716743759810924530029296875" lon="-107.69963250495493412017822265625">
        <ele>3971.800048828125</ele>
        <time>2023-07-29T15:21:46.000Z</time>
        <extensions>
          <ns3:TrackPointExtension>
            <ns3:hr>128</ns3:hr>
            <ns3:cad>0</ns3:cad>
          </ns3:TrackPointExtension>
        </extensions>
      </trkpt>
      <trkpt lat="37.7771691977977752685546875" lon="-107.69963242113590240478515625">
        <ele>3972</ele>
        <time>2023-07-29T15:21:47.000Z</time>
        <extensions>
          <ns3:TrackPointExtension>
            <ns3:hr>128</ns3:hr>
            <ns3:cad>0</ns3:cad>
          </ns3:TrackPointExtension>
        </extensions>
      </trkpt>
      <trkpt lat="37.77717053890228271484375" lon="-107.6996312476694583892822265625">
        <ele>3972</ele>
        <time>2023-07-29T15:21:48.000Z</time>
        <extensions>
          <ns3:TrackPointExtension>
            <ns3:hr>128</ns3:hr>
            <ns3:cad>0</ns3:cad>
          </ns3:TrackPointExtension>
        </extensions>
      </trkpt>
      <trkpt lat="37.77717263437807559967041015625" lon="-107.69962864927947521209716796875">
        <ele>3972.199951171875</ele>
        <time>2023-07-29T15:21:49.000Z</time>
        <extensions>
          <ns3:TrackPointExtension>
            <ns3:hr>126</ns3:hr>
            <ns3:cad>0</ns3:cad>
          </ns3:TrackPointExtension>
        </extensions>
      </trkpt>
      <trkpt lat="37.7771754004061222076416015625" lon="-107.69963015802204608917236328125">
        <ele>3972.60009765625</ele>
        <time>2023-07-29T15:21:50.000Z</time>
        <extensions>
          <ns3:TrackPointExtension>
            <ns3:hr>126</ns3:hr>
            <ns3:cad>0</ns3:cad>
          </ns3:TrackPointExtension>
        </extensions>
      </trkpt>
      <trkpt lat="37.7771790884435176849365234375" lon="-107.6996295712888240814208984375">
        <ele>3972.800048828125</ele>
        <time>2023-07-29T15:21:51.000Z</time>
        <extensions>
          <ns3:TrackPointExtension>
            <ns3:hr>126</ns3:hr>
            <ns3:cad>0</ns3:cad>
          </ns3:TrackPointExtension>
        </extensions>
      </trkpt>
      <trkpt lat="37.7771884761750698089599609375" lon="-107.69962362013757228851318359375">
        <ele>3972.800048828125</ele>
        <time>2023-07-29T15:21:52.000Z</time>
        <extensions>
          <ns3:TrackPointExtension>
            <ns3:hr>126</ns3:hr>
            <ns3:cad>0</ns3:cad>
          </ns3:TrackPointExtension>
        </extensions>
      </trkpt>
      <trkpt lat="37.77719627134501934051513671875" lon="-107.699621357023715972900390625">
        <ele>3973</ele>
        <time>2023-07-29T15:21:53.000Z</time>
        <extensions>
          <ns3:TrackPointExtension>
            <ns3:hr>126</ns3:hr>
            <ns3:cad>0</ns3:cad>
          </ns3:TrackPointExtension>
        </extensions>
      </trkpt>
      <trkpt lat="37.77719669044017791748046875" lon="-107.6996215246617794036865234375">
        <ele>3973.199951171875</ele>
        <time>2023-07-29T15:21:54.000Z</time>
        <extensions>
          <ns3:TrackPointExtension>
            <ns3:hr>126</ns3:hr>
            <ns3:cad>0</ns3:cad>
          </ns3:TrackPointExtension>
        </extensions>
      </trkpt>
      <trkpt lat="37.77720347978174686431884765625" lon="-107.6996178366243839263916015625">
        <ele>3973.39990234375</ele>
        <time>2023-07-29T15:21:55.000Z</time>
        <extensions>
          <ns3:TrackPointExtension>
            <ns3:hr>126</ns3:hr>
            <ns3:cad>0</ns3:cad>
          </ns3:TrackPointExtension>
        </extensions>
      </trkpt>
      <trkpt lat="37.77720616199076175689697265625" lon="-107.6996134780347347259521484375">
        <ele>3973.60009765625</ele>
        <time>2023-07-29T15:21:56.000Z</time>
        <extensions>
          <ns3:TrackPointExtension>
            <ns3:hr>126</ns3:hr>
            <ns3:cad>0</ns3:cad>
          </ns3:TrackPointExtension>
        </extensions>
      </trkpt>
      <trkpt lat="37.7772089280188083648681640625" lon="-107.6996081136167049407958984375">
        <ele>3973.60009765625</ele>
        <time>2023-07-29T15:21:57.000Z</time>
        <extensions>
          <ns3:TrackPointExtension>
            <ns3:hr>126</ns3:hr>
            <ns3:cad>0</ns3:cad>
          </ns3:TrackPointExtension>
        </extensions>
      </trkpt>
      <trkpt lat="37.77720700018107891082763671875" lon="-107.69960400648415088653564453125">
        <ele>3973.800048828125</ele>
        <time>2023-07-29T15:21:58.000Z</time>
        <extensions>
          <ns3:TrackPointExtension>
            <ns3:hr>126</ns3:hr>
            <ns3:cad>0</ns3:cad>
          </ns3:TrackPointExtension>
        </extensions>
      </trkpt>
      <trkpt lat="37.777205072343349456787109375" lon="-107.6995980553328990936279296875">
        <ele>3974</ele>
        <time>2023-07-29T15:21:59.000Z</time>
        <extensions>
          <ns3:TrackPointExtension>
            <ns3:hr>126</ns3:hr>
            <ns3:cad>0</ns3:cad>
          </ns3:TrackPointExtension>
        </extensions>
      </trkpt>
      <trkpt lat="37.777201049029827117919921875" lon="-107.699589841067790985107421875">
        <ele>3974.199951171875</ele>
        <time>2023-07-29T15:22:00.000Z</time>
        <extensions>
          <ns3:TrackPointExtension>
            <ns3:hr>125</ns3:hr>
            <ns3:cad>0</ns3:cad>
          </ns3:TrackPointExtension>
        </extensions>
      </trkpt>
      <trkpt lat="37.77720331214368343353271484375" lon="-107.6995843090116977691650390625">
        <ele>3974.39990234375</ele>
        <time>2023-07-29T15:22:01.000Z</time>
        <extensions>
          <ns3:TrackPointExtension>
            <ns3:hr>125</ns3:hr>
            <ns3:cad>0</ns3:cad>
          </ns3:TrackPointExtension>
        </extensions>
      </trkpt>
      <trkpt lat="37.77720297686755657196044921875" lon="-107.69958011806011199951171875">
        <ele>3974.60009765625</ele>
        <time>2023-07-29T15:22:02.000Z</time>
        <extensions>
          <ns3:TrackPointExtension>
            <ns3:hr>125</ns3:hr>
            <ns3:cad>0</ns3:cad>
          </ns3:TrackPointExtension>
        </extensions>
      </trkpt>
      <trkpt lat="37.77720180340111255645751953125" lon="-107.69957718439400196075439453125">
        <ele>3974.800048828125</ele>
        <time>2023-07-29T15:22:03.000Z</time>
        <extensions>
          <ns3:TrackPointExtension>
            <ns3:hr>125</ns3:hr>
            <ns3:cad>0</ns3:cad>
          </ns3:TrackPointExtension>
        </extensions>
      </trkpt>
      <trkpt lat="37.77720381505787372589111328125" lon="-107.699573747813701629638671875">
        <ele>3975</ele>
        <time>2023-07-29T15:22:04.000Z</time>
        <extensions>
          <ns3:TrackPointExtension>
            <ns3:hr>125</ns3:hr>
            <ns3:cad>0</ns3:cad>
          </ns3:TrackPointExtension>
        </extensions>
      </trkpt>
      <trkpt lat="37.777207754552364349365234375" lon="-107.6995646953582763671875">
        <ele>3975</ele>
        <time>2023-07-29T15:22:05.000Z</time>
        <extensions>
          <ns3:TrackPointExtension>
            <ns3:hr>126</ns3:hr>
            <ns3:cad>0</ns3:cad>
          </ns3:TrackPointExtension>
        </extensions>
      </trkpt>
      <trkpt lat="37.77721052058041095733642578125" lon="-107.699557654559612274169921875">
        <ele>3975.199951171875</ele>
        <time>2023-07-29T15:22:06.000Z</time>
        <extensions>
          <ns3:TrackPointExtension>
            <ns3:hr>126</ns3:hr>
            <ns3:cad>0</ns3:cad>
          </ns3:TrackPointExtension>
        </extensions>
      </trkpt>
      <trkpt lat="37.77721286751329898834228515625" lon="-107.69955337978899478912353515625">
        <ele>3975.199951171875</ele>
        <time>2023-07-29T15:22:07.000Z</time>
        <extensions>
          <ns3:TrackPointExtension>
            <ns3:hr>126</ns3:hr>
            <ns3:cad>0</ns3:cad>
          </ns3:TrackPointExtension>
        </extensions>
      </trkpt>
      <trkpt lat="37.77721320278942584991455078125" lon="-107.69955153577029705047607421875">
        <ele>3975.39990234375</ele>
        <time>2023-07-29T15:22:08.000Z</time>
        <extensions>
          <ns3:TrackPointExtension>
            <ns3:hr>126</ns3:hr>
            <ns3:cad>0</ns3:cad>
          </ns3:TrackPointExtension>
        </extensions>
      </trkpt>
      <trkpt lat="37.77721412479877471923828125" lon="-107.69955203868448734283447265625">
        <ele>3975.60009765625</ele>
        <time>2023-07-29T15:22:09.000Z</time>
        <extensions>
          <ns3:TrackPointExtension>
            <ns3:hr>127</ns3:hr>
            <ns3:cad>0</ns3:cad>
          </ns3:TrackPointExtension>
        </extensions>
      </trkpt>
      <trkpt lat="37.77721705846488475799560546875" lon="-107.6995537988841533660888671875">
        <ele>3975.800048828125</ele>
        <time>2023-07-29T15:22:10.000Z</time>
        <extensions>
          <ns3:TrackPointExtension>
            <ns3:hr>127</ns3:hr>
            <ns3:cad>0</ns3:cad>
          </ns3:TrackPointExtension>
        </extensions>
      </trkpt>
      <trkpt lat="37.77721873484551906585693359375" lon="-107.699558995664119720458984375">
        <ele>3976</ele>
        <time>2023-07-29T15:22:11.000Z</time>
        <extensions>
          <ns3:TrackPointExtension>
            <ns3:hr>127</ns3:hr>
            <ns3:cad>0</ns3:cad>
          </ns3:TrackPointExtension>
        </extensions>
      </trkpt>
      <trkpt lat="37.77722175233066082000732421875" lon="-107.69956226460635662078857421875">
        <ele>3976.199951171875</ele>
        <time>2023-07-29T15:22:12.000Z</time>
        <extensions>
          <ns3:TrackPointExtension>
            <ns3:hr>127</ns3:hr>
            <ns3:cad>0</ns3:cad>
          </ns3:TrackPointExtension>
        </extensions>
      </trkpt>
      <trkpt lat="37.77722711674869060516357421875" lon="-107.699565030634403228759765625">
        <ele>3976.39990234375</ele>
        <time>2023-07-29T15:22:13.000Z</time>
        <extensions>
          <ns3:TrackPointExtension>
            <ns3:hr>127</ns3:hr>
            <ns3:cad>0</ns3:cad>
          </ns3:TrackPointExtension>
        </extensions>
      </trkpt>
      <trkpt lat="37.77723021805286407470703125" lon="-107.699567712843418121337890625">
        <ele>3976.60009765625</ele>
        <time>2023-07-29T15:22:14.000Z</time>
        <extensions>
          <ns3:TrackPointExtension>
            <ns3:hr>128</ns3:hr>
            <ns3:cad>0</ns3:cad>
          </ns3:TrackPointExtension>
        </extensions>
      </trkpt>
      <trkpt lat="37.77723650448024272918701171875" lon="-107.69956746138632297515869140625">
        <ele>3976.60009765625</ele>
        <time>2023-07-29T15:22:15.000Z</time>
        <extensions>
          <ns3:TrackPointExtension>
            <ns3:hr>128</ns3:hr>
            <ns3:cad>0</ns3:cad>
          </ns3:TrackPointExtension>
        </extensions>
      </trkpt>
      <trkpt lat="37.77724153362214565277099609375" lon="-107.6995648629963397979736328125">
        <ele>3976.800048828125</ele>
        <time>2023-07-29T15:22:16.000Z</time>
        <extensions>
          <ns3:TrackPointExtension>
            <ns3:hr>128</ns3:hr>
            <ns3:cad>0</ns3:cad>
          </ns3:TrackPointExtension>
        </extensions>
      </trkpt>
      <trkpt lat="37.777242958545684814453125" lon="-107.699559666216373443603515625">
        <ele>3977</ele>
        <time>2023-07-29T15:22:17.000Z</time>
        <extensions>
          <ns3:TrackPointExtension>
            <ns3:hr>128</ns3:hr>
            <ns3:cad>0</ns3:cad>
          </ns3:TrackPointExtension>
        </extensions>
      </trkpt>
      <trkpt lat="37.77724740095436573028564453125" lon="-107.6995514519512653350830078125">
        <ele>3977.199951171875</ele>
        <time>2023-07-29T15:22:18.000Z</time>
        <extensions>
          <ns3:TrackPointExtension>
            <ns3:hr>128</ns3:hr>
            <ns3:cad>0</ns3:cad>
          </ns3:TrackPointExtension>
        </extensions>
      </trkpt>
      <trkpt lat="37.777253352105617523193359375" lon="-107.69954382441937923431396484375">
        <ele>3977.39990234375</ele>
        <time>2023-07-29T15:22:19.000Z</time>
        <extensions>
          <ns3:TrackPointExtension>
            <ns3:hr>128</ns3:hr>
            <ns3:cad>0</ns3:cad>
          </ns3:TrackPointExtension>
        </extensions>
      </trkpt>
      <trkpt lat="37.77725838124752044677734375" lon="-107.699535191059112548828125">
        <ele>3977.60009765625</ele>
        <time>2023-07-29T15:22:20.000Z</time>
        <extensions>
          <ns3:TrackPointExtension>
            <ns3:hr>128</ns3:hr>
            <ns3:cad>0</ns3:cad>
          </ns3:TrackPointExtension>
        </extensions>
      </trkpt>
      <trkpt lat="37.77725695632398128509521484375" lon="-107.699528820812702178955078125">
        <ele>3977.60009765625</ele>
        <time>2023-07-29T15:22:21.000Z</time>
        <extensions>
          <ns3:TrackPointExtension>
            <ns3:hr>129</ns3:hr>
            <ns3:cad>0</ns3:cad>
          </ns3:TrackPointExtension>
        </extensions>
      </trkpt>
      <trkpt lat="37.77726433239877223968505859375" lon="-107.6995196007192134857177734375">
        <ele>3977.800048828125</ele>
        <time>2023-07-29T15:22:22.000Z</time>
        <extensions>
          <ns3:TrackPointExtension>
            <ns3:hr>129</ns3:hr>
            <ns3:cad>0</ns3:cad>
          </ns3:TrackPointExtension>
        </extensions>
      </trkpt>
      <trkpt lat="37.77727070264518260955810546875" lon="-107.69951599650084972381591796875">
        <ele>3978</ele>
        <time>2023-07-29T15:22:23.000Z</time>
        <extensions>
          <ns3:TrackPointExtension>
            <ns3:hr>128</ns3:hr>
            <ns3:cad>0</ns3:cad>
          </ns3:TrackPointExtension>
        </extensions>
      </trkpt>
      <trkpt lat="37.77727589942514896392822265625" lon="-107.69950543530285358428955078125">
        <ele>3978</ele>
        <time>2023-07-29T15:22:24.000Z</time>
        <extensions>
          <ns3:TrackPointExtension>
            <ns3:hr>128</ns3:hr>
            <ns3:cad>0</ns3:cad>
          </ns3:TrackPointExtension>
        </extensions>
      </trkpt>
      <trkpt lat="37.77728092856705188751220703125" lon="-107.6994968019425868988037109375">
        <ele>3978.199951171875</ele>
        <time>2023-07-29T15:22:25.000Z</time>
        <extensions>
          <ns3:TrackPointExtension>
            <ns3:hr>128</ns3:hr>
            <ns3:cad>0</ns3:cad>
          </ns3:TrackPointExtension>
        </extensions>
      </trkpt>
      <trkpt lat="37.77727858163416385650634765625" lon="-107.6994974724948406219482421875">
        <ele>3978.39990234375</ele>
        <time>2023-07-29T15:22:26.000Z</time>
        <extensions>
          <ns3:TrackPointExtension>
            <ns3:hr>129</ns3:hr>
            <ns3:cad>0</ns3:cad>
          </ns3:TrackPointExtension>
        </extensions>
      </trkpt>
      <trkpt lat="37.77728243730962276458740234375" lon="-107.699488587677478790283203125">
        <ele>3978.60009765625</ele>
        <time>2023-07-29T15:22:27.000Z</time>
        <extensions>
          <ns3:TrackPointExtension>
            <ns3:hr>129</ns3:hr>
            <ns3:cad>0</ns3:cad>
          </ns3:TrackPointExtension>
        </extensions>
      </trkpt>
      <trkpt lat="37.77728377841413021087646484375" lon="-107.6994854025542736053466796875">
        <ele>3978.60009765625</ele>
        <time>2023-07-29T15:22:28.000Z</time>
        <extensions>
          <ns3:TrackPointExtension>
            <ns3:hr>129</ns3:hr>
            <ns3:cad>0</ns3:cad>
          </ns3:TrackPointExtension>
        </extensions>
      </trkpt>
      <trkpt lat="37.7772845327854156494140625" lon="-107.69948355853557586669921875">
        <ele>3978.800048828125</ele>
        <time>2023-07-29T15:22:29.000Z</time>
        <extensions>
          <ns3:TrackPointExtension>
            <ns3:hr>129</ns3:hr>
            <ns3:cad>0</ns3:cad>
          </ns3:TrackPointExtension>
        </extensions>
      </trkpt>
      <trkpt lat="37.7772847004234790802001953125" lon="-107.69948280416429042816162109375">
        <ele>3979</ele>
        <time>2023-07-29T15:22:30.000Z</time>
        <extensions>
          <ns3:TrackPointExtension>
            <ns3:hr>130</ns3:hr>
            <ns3:cad>0</ns3:cad>
          </ns3:TrackPointExtension>
        </extensions>
      </trkpt>
      <trkpt lat="37.77728612534701824188232421875" lon="-107.699481546878814697265625">
        <ele>3979.199951171875</ele>
        <time>2023-07-29T15:22:31.000Z</time>
        <extensions>
          <ns3:TrackPointExtension>
            <ns3:hr>130</ns3:hr>
            <ns3:cad>0</ns3:cad>
          </ns3:TrackPointExtension>
        </extensions>
      </trkpt>
      <trkpt lat="37.77728780172765254974365234375" lon="-107.699483223259449005126953125">
        <ele>3979.199951171875</ele>
        <time>2023-07-29T15:22:32.000Z</time>
        <extensions>
          <ns3:TrackPointExtension>
            <ns3:hr>130</ns3:hr>
            <ns3:cad>0</ns3:cad>
          </ns3:TrackPointExtension>
        </extensions>
      </trkpt>
      <trkpt lat="37.7772883884608745574951171875" lon="-107.69948900677263736724853515625">
        <ele>3979.39990234375</ele>
        <time>2023-07-29T15:22:33.000Z</time>
        <extensions>
          <ns3:TrackPointExtension>
            <ns3:hr>130</ns3:hr>
            <ns3:cad>0</ns3:cad>
          </ns3:TrackPointExtension>
        </extensions>
      </trkpt>
      <trkpt lat="37.77728922665119171142578125" lon="-107.69949420355260372161865234375">
        <ele>3979.39990234375</ele>
        <time>2023-07-29T15:22:34.000Z</time>
        <extensions>
          <ns3:TrackPointExtension>
            <ns3:hr>130</ns3:hr>
            <ns3:cad>0</ns3:cad>
          </ns3:TrackPointExtension>
        </extensions>
      </trkpt>
      <trkpt lat="37.77729056775569915771484375" lon="-107.69949839450418949127197265625">
        <ele>3979.800048828125</ele>
        <time>2023-07-29T15:22:35.000Z</time>
        <extensions>
          <ns3:TrackPointExtension>
            <ns3:hr>130</ns3:hr>
            <ns3:cad>0</ns3:cad>
          </ns3:TrackPointExtension>
        </extensions>
      </trkpt>
      <trkpt lat="37.77729417197406291961669921875" lon="-107.6994964666664600372314453125">
        <ele>3980</ele>
        <time>2023-07-29T15:22:36.000Z</time>
        <extensions>
          <ns3:TrackPointExtension>
            <ns3:hr>130</ns3:hr>
            <ns3:cad>0</ns3:cad>
          </ns3:TrackPointExtension>
        </extensions>
      </trkpt>
      <trkpt lat="37.77729383669793605804443359375" lon="-107.6994981430470943450927734375">
        <ele>3980.199951171875</ele>
        <time>2023-07-29T15:22:37.000Z</time>
        <extensions>
          <ns3:TrackPointExtension>
            <ns3:hr>130</ns3:hr>
            <ns3:cad>0</ns3:cad>
          </ns3:TrackPointExtension>
        </extensions>
      </trkpt>
      <trkpt lat="37.7772957645356655120849609375" lon="-107.6994991488754749298095703125">
        <ele>3980.199951171875</ele>
        <time>2023-07-29T15:22:38.000Z</time>
        <extensions>
          <ns3:TrackPointExtension>
            <ns3:hr>131</ns3:hr>
            <ns3:cad>0</ns3:cad>
          </ns3:TrackPointExtension>
        </extensions>
      </trkpt>
      <trkpt lat="37.77730070985853672027587890625" lon="-107.69949537701904773712158203125">
        <ele>3980.60009765625</ele>
        <time>2023-07-29T15:22:39.000Z</time>
        <extensions>
          <ns3:TrackPointExtension>
            <ns3:hr>132</ns3:hr>
            <ns3:cad>0</ns3:cad>
          </ns3:TrackPointExtension>
        </extensions>
      </trkpt>
      <trkpt lat="37.777304984629154205322265625" lon="-107.6994890905916690826416015625">
        <ele>3980.800048828125</ele>
        <time>2023-07-29T15:22:40.000Z</time>
        <extensions>
          <ns3:TrackPointExtension>
            <ns3:hr>132</ns3:hr>
            <ns3:cad>0</ns3:cad>
          </ns3:TrackPointExtension>
        </extensions>
      </trkpt>
      <trkpt lat="37.777309007942676544189453125" lon="-107.699477858841419219970703125">
        <ele>3980.800048828125</ele>
        <time>2023-07-29T15:22:41.000Z</time>
        <extensions>
          <ns3:TrackPointExtension>
            <ns3:hr>132</ns3:hr>
            <ns3:cad>0</ns3:cad>
          </ns3:TrackPointExtension>
        </extensions>
      </trkpt>
      <trkpt lat="37.77730674482882022857666015625" lon="-107.6994743384420871734619140625">
        <ele>3980.800048828125</ele>
        <time>2023-07-29T15:22:42.000Z</time>
        <extensions>
          <ns3:TrackPointExtension>
            <ns3:hr>132</ns3:hr>
            <ns3:cad>0</ns3:cad>
          </ns3:TrackPointExtension>
        </extensions>
      </trkpt>
      <trkpt lat="37.7773017995059490203857421875" lon="-107.6994686387479305267333984375">
        <ele>3980.800048828125</ele>
        <time>2023-07-29T15:22:43.000Z</time>
        <extensions>
          <ns3:TrackPointExtension>
            <ns3:hr>132</ns3:hr>
            <ns3:cad>0</ns3:cad>
          </ns3:TrackPointExtension>
        </extensions>
      </trkpt>
      <trkpt lat="37.7772981114685535430908203125" lon="-107.6994642801582813262939453125">
        <ele>3980.800048828125</ele>
        <time>2023-07-29T15:22:44.000Z</time>
        <extensions>
          <ns3:TrackPointExtension>
            <ns3:hr>131</ns3:hr>
            <ns3:cad>0</ns3:cad>
          </ns3:TrackPointExtension>
        </extensions>
      </trkpt>
      <trkpt lat="37.77729467488825321197509765625" lon="-107.69946570508182048797607421875">
        <ele>3980.800048828125</ele>
        <time>2023-07-29T15:22:45.000Z</time>
        <extensions>
          <ns3:TrackPointExtension>
            <ns3:hr>131</ns3:hr>
            <ns3:cad>0</ns3:cad>
          </ns3:TrackPointExtension>
        </extensions>
      </trkpt>
      <trkpt lat="37.7772925794124603271484375" lon="-107.69946478307247161865234375">
        <ele>3980.800048828125</ele>
        <time>2023-07-29T15:22:46.000Z</time>
        <extensions>
          <ns3:TrackPointExtension>
            <ns3:hr>131</ns3:hr>
            <ns3:cad>0</ns3:cad>
          </ns3:TrackPointExtension>
        </extensions>
      </trkpt>
      <trkpt lat="37.77728830464184284210205078125" lon="-107.69946168176829814910888671875">
        <ele>3980.800048828125</ele>
        <time>2023-07-29T15:22:47.000Z</time>
        <extensions>
          <ns3:TrackPointExtension>
            <ns3:hr>131</ns3:hr>
            <ns3:cad>0</ns3:cad>
          </ns3:TrackPointExtension>
        </extensions>
      </trkpt>
      <trkpt lat="37.77728444896638393402099609375" lon="-107.6994595862925052642822265625">
        <ele>3980.800048828125</ele>
        <time>2023-07-29T15:22:48.000Z</time>
        <extensions>
          <ns3:TrackPointExtension>
            <ns3:hr>131</ns3:hr>
            <ns3:cad>0</ns3:cad>
          </ns3:TrackPointExtension>
        </extensions>
      </trkpt>
      <trkpt lat="37.777281515300273895263671875" lon="-107.6994575746357440948486328125">
        <ele>3980.800048828125</ele>
        <time>2023-07-29T15:22:49.000Z</time>
        <extensions>
          <ns3:TrackPointExtension>
            <ns3:hr>131</ns3:hr>
            <ns3:cad>0</ns3:cad>
          </ns3:TrackPointExtension>
        </extensions>
      </trkpt>
      <trkpt lat="37.77727724052965641021728515625" lon="-107.69945430569350719451904296875">
        <ele>3981</ele>
        <time>2023-07-29T15:22:50.000Z</time>
        <extensions>
          <ns3:TrackPointExtension>
            <ns3:hr>131</ns3:hr>
            <ns3:cad>0</ns3:cad>
          </ns3:TrackPointExtension>
        </extensions>
      </trkpt>
      <trkpt lat="37.77727179229259490966796875" lon="-107.699449695646762847900390625">
        <ele>3981</ele>
        <time>2023-07-29T15:22:51.000Z</time>
        <extensions>
          <ns3:TrackPointExtension>
            <ns3:hr>130</ns3:hr>
            <ns3:cad>0</ns3:cad>
          </ns3:TrackPointExtension>
        </extensions>
      </trkpt>
      <trkpt lat="37.77726642787456512451171875" lon="-107.69944424740970134735107421875">
        <ele>3981</ele>
        <time>2023-07-29T15:22:52.000Z</time>
        <extensions>
          <ns3:TrackPointExtension>
            <ns3:hr>129</ns3:hr>
            <ns3:cad>0</ns3:cad>
          </ns3:TrackPointExtension>
        </extensions>
      </trkpt>
      <trkpt lat="37.7772635780274868011474609375" lon="-107.69944089464843273162841796875">
        <ele>3981</ele>
        <time>2023-07-29T15:22:53.000Z</time>
        <extensions>
          <ns3:TrackPointExtension>
            <ns3:hr>128</ns3:hr>
            <ns3:cad>0</ns3:cad>
          </ns3:TrackPointExtension>
        </extensions>
      </trkpt>
      <trkpt lat="37.77726416476070880889892578125" lon="-107.69943854771554470062255859375">
        <ele>3981</ele>
        <time>2023-07-29T15:22:54.000Z</time>
        <extensions>
          <ns3:TrackPointExtension>
            <ns3:hr>128</ns3:hr>
            <ns3:cad>0</ns3:cad>
          </ns3:TrackPointExtension>
        </extensions>
      </trkpt>
      <trkpt lat="37.7772622369229793548583984375" lon="-107.69943527877330780029296875">
        <ele>3981</ele>
        <time>2023-07-29T15:22:55.000Z</time>
        <extensions>
          <ns3:TrackPointExtension>
            <ns3:hr>127</ns3:hr>
            <ns3:cad>0</ns3:cad>
          </ns3:TrackPointExtension>
        </extensions>
      </trkpt>
      <trkpt lat="37.77726131491363048553466796875" lon="-107.69943335093557834625244140625">
        <ele>3981</ele>
        <time>2023-07-29T15:22:56.000Z</time>
        <extensions>
          <ns3:TrackPointExtension>
            <ns3:hr>127</ns3:hr>
            <ns3:cad>0</ns3:cad>
          </ns3:TrackPointExtension>
        </extensions>
      </trkpt>
      <trkpt lat="37.777263410389423370361328125" lon="-107.699431590735912322998046875">
        <ele>3981</ele>
        <time>2023-07-29T15:22:57.000Z</time>
        <extensions>
          <ns3:TrackPointExtension>
            <ns3:hr>127</ns3:hr>
            <ns3:cad>0</ns3:cad>
          </ns3:TrackPointExtension>
        </extensions>
      </trkpt>
      <trkpt lat="37.7772642485797405242919921875" lon="-107.69942681305110454559326171875">
        <ele>3981</ele>
        <time>2023-07-29T15:22:58.000Z</time>
        <extensions>
          <ns3:TrackPointExtension>
            <ns3:hr>128</ns3:hr>
            <ns3:cad>0</ns3:cad>
          </ns3:TrackPointExtension>
        </extensions>
      </trkpt>
      <trkpt lat="37.77726500295102596282958984375" lon="-107.6994176767766475677490234375">
        <ele>3981</ele>
        <time>2023-07-29T15:22:59.000Z</time>
        <extensions>
          <ns3:TrackPointExtension>
            <ns3:hr>127</ns3:hr>
            <ns3:cad>0</ns3:cad>
          </ns3:TrackPointExtension>
        </extensions>
      </trkpt>
      <trkpt lat="37.7772615663707256317138671875" lon="-107.6994072832167148590087890625">
        <ele>3981</ele>
        <time>2023-07-29T15:23:00.000Z</time>
        <extensions>
          <ns3:TrackPointExtension>
            <ns3:hr>127</ns3:hr>
            <ns3:cad>0</ns3:cad>
          </ns3:TrackPointExtension>
        </extensions>
      </trkpt>
      <trkpt lat="37.77726399712264537811279296875" lon="-107.699396722018718719482421875">
        <ele>3981</ele>
        <time>2023-07-29T15:23:01.000Z</time>
        <extensions>
          <ns3:TrackPointExtension>
            <ns3:hr>127</ns3:hr>
            <ns3:cad>0</ns3:cad>
          </ns3:TrackPointExtension>
        </extensions>
      </trkpt>
      <trkpt lat="37.7772632427513599395751953125" lon="-107.699388004839420318603515625">
        <ele>3981</ele>
        <time>2023-07-29T15:23:02.000Z</time>
        <extensions>
          <ns3:TrackPointExtension>
            <ns3:hr>127</ns3:hr>
            <ns3:cad>0</ns3:cad>
          </ns3:TrackPointExtension>
        </extensions>
      </trkpt>
      <trkpt lat="37.77726198546588420867919921875" lon="-107.69937853328883647918701171875">
        <ele>3981</ele>
        <time>2023-07-29T15:23:03.000Z</time>
        <extensions>
          <ns3:TrackPointExtension>
            <ns3:hr>127</ns3:hr>
            <ns3:cad>0</ns3:cad>
          </ns3:TrackPointExtension>
        </extensions>
      </trkpt>
      <trkpt lat="37.77726097963750362396240234375" lon="-107.69936688244342803955078125">
        <ele>3981</ele>
        <time>2023-07-29T15:23:04.000Z</time>
        <extensions>
          <ns3:TrackPointExtension>
            <ns3:hr>126</ns3:hr>
            <ns3:cad>0</ns3:cad>
          </ns3:TrackPointExtension>
        </extensions>
      </trkpt>
      <trkpt lat="37.777256704866886138916015625" lon="-107.6993449218571186065673828125">
        <ele>3981.199951171875</ele>
        <time>2023-07-29T15:23:05.000Z</time>
        <extensions>
          <ns3:TrackPointExtension>
            <ns3:hr>126</ns3:hr>
            <ns3:cad>0</ns3:cad>
          </ns3:TrackPointExtension>
        </extensions>
      </trkpt>
      <trkpt lat="37.77725511230528354644775390625" lon="-107.6993335224688053131103515625">
        <ele>3981.199951171875</ele>
        <time>2023-07-29T15:23:06.000Z</time>
        <extensions>
          <ns3:TrackPointExtension>
            <ns3:hr>126</ns3:hr>
            <ns3:cad>45</ns3:cad>
          </ns3:TrackPointExtension>
        </extensions>
      </trkpt>
      <trkpt lat="37.77725393883883953094482421875" lon="-107.69932321272790431976318359375">
        <ele>3981.199951171875</ele>
        <time>2023-07-29T15:23:07.000Z</time>
        <extensions>
          <ns3:TrackPointExtension>
            <ns3:hr>126</ns3:hr>
            <ns3:cad>45</ns3:cad>
          </ns3:TrackPointExtension>
        </extensions>
      </trkpt>
      <trkpt lat="37.7772525139153003692626953125" lon="-107.69931256771087646484375">
        <ele>3981.39990234375</ele>
        <time>2023-07-29T15:23:08.000Z</time>
        <extensions>
          <ns3:TrackPointExtension>
            <ns3:hr>125</ns3:hr>
            <ns3:cad>0</ns3:cad>
          </ns3:TrackPointExtension>
        </extensions>
      </trkpt>
      <trkpt lat="37.777253352105617523193359375" lon="-107.6993056945502758026123046875">
        <ele>3981.39990234375</ele>
        <time>2023-07-29T15:23:09.000Z</time>
        <extensions>
          <ns3:TrackPointExtension>
            <ns3:hr>124</ns3:hr>
            <ns3:cad>0</ns3:cad>
          </ns3:TrackPointExtension>
        </extensions>
      </trkpt>
      <trkpt lat="37.7772523462772369384765625" lon="-107.69929622299969196319580078125">
        <ele>3981.60009765625</ele>
        <time>2023-07-29T15:23:10.000Z</time>
        <extensions>
          <ns3:TrackPointExtension>
            <ns3:hr>123</ns3:hr>
            <ns3:cad>0</ns3:cad>
          </ns3:TrackPointExtension>
        </extensions>
      </trkpt>
      <trkpt lat="37.77725159190595149993896484375" lon="-107.69929035566747188568115234375">
        <ele>3981.60009765625</ele>
        <time>2023-07-29T15:23:11.000Z</time>
        <extensions>
          <ns3:TrackPointExtension>
            <ns3:hr>120</ns3:hr>
            <ns3:cad>46</ns3:cad>
          </ns3:TrackPointExtension>
        </extensions>
      </trkpt>
      <trkpt lat="37.77725167572498321533203125" lon="-107.699287422001361846923828125">
        <ele>3981.800048828125</ele>
        <time>2023-07-29T15:23:12.000Z</time>
        <extensions>
          <ns3:TrackPointExtension>
            <ns3:hr>119</ns3:hr>
            <ns3:cad>46</ns3:cad>
          </ns3:TrackPointExtension>
        </extensions>
      </trkpt>
      <trkpt lat="37.777250669896602630615234375" lon="-107.69927971065044403076171875">
        <ele>3981.800048828125</ele>
        <time>2023-07-29T15:23:13.000Z</time>
        <extensions>
          <ns3:TrackPointExtension>
            <ns3:hr>119</ns3:hr>
            <ns3:cad>46</ns3:cad>
          </ns3:TrackPointExtension>
        </extensions>
      </trkpt>
      <trkpt lat="37.7772510051727294921875" lon="-107.6992771960794925689697265625">
        <ele>3982</ele>
        <time>2023-07-29T15:23:14.000Z</time>
        <extensions>
          <ns3:TrackPointExtension>
            <ns3:hr>118</ns3:hr>
            <ns3:cad>46</ns3:cad>
          </ns3:TrackPointExtension>
        </extensions>
      </trkpt>
      <trkpt lat="37.77725544758141040802001953125" lon="-107.69927443005144596099853515625">
        <ele>3982</ele>
        <time>2023-07-29T15:23:15.000Z</time>
        <extensions>
          <ns3:TrackPointExtension>
            <ns3:hr>118</ns3:hr>
            <ns3:cad>48</ns3:cad>
          </ns3:TrackPointExtension>
        </extensions>
      </trkpt>
      <trkpt lat="37.777256704866886138916015625" lon="-107.699262611567974090576171875">
        <ele>3982</ele>
        <time>2023-07-29T15:23:16.000Z</time>
        <extensions>
          <ns3:TrackPointExtension>
            <ns3:hr>118</ns3:hr>
            <ns3:cad>48</ns3:cad>
          </ns3:TrackPointExtension>
        </extensions>
      </trkpt>
      <trkpt lat="37.77726240456104278564453125" lon="-107.69926001317799091339111328125">
        <ele>3982</ele>
        <time>2023-07-29T15:23:17.000Z</time>
        <extensions>
          <ns3:TrackPointExtension>
            <ns3:hr>118</ns3:hr>
            <ns3:cad>48</ns3:cad>
          </ns3:TrackPointExtension>
        </extensions>
      </trkpt>
      <trkpt lat="37.7772696129977703094482421875" lon="-107.6992495357990264892578125">
        <ele>3982.199951171875</ele>
        <time>2023-07-29T15:23:18.000Z</time>
        <extensions>
          <ns3:TrackPointExtension>
            <ns3:hr>118</ns3:hr>
            <ns3:cad>51</ns3:cad>
          </ns3:TrackPointExtension>
        </extensions>
      </trkpt>
      <trkpt lat="37.77726952917873859405517578125" lon="-107.6992428302764892578125">
        <ele>3982.39990234375</ele>
        <time>2023-07-29T15:23:19.000Z</time>
        <extensions>
          <ns3:TrackPointExtension>
            <ns3:hr>118</ns3:hr>
            <ns3:cad>52</ns3:cad>
          </ns3:TrackPointExtension>
        </extensions>
      </trkpt>
      <trkpt lat="37.77727715671062469482421875" lon="-107.69922765903174877166748046875">
        <ele>3982.39990234375</ele>
        <time>2023-07-29T15:23:20.000Z</time>
        <extensions>
          <ns3:TrackPointExtension>
            <ns3:hr>118</ns3:hr>
            <ns3:cad>52</ns3:cad>
          </ns3:TrackPointExtension>
        </extensions>
      </trkpt>
      <trkpt lat="37.7772790007293224334716796875" lon="-107.69921575672924518585205078125">
        <ele>3982.39990234375</ele>
        <time>2023-07-29T15:23:21.000Z</time>
        <extensions>
          <ns3:TrackPointExtension>
            <ns3:hr>118</ns3:hr>
            <ns3:cad>52</ns3:cad>
          </ns3:TrackPointExtension>
        </extensions>
      </trkpt>
      <trkpt lat="37.77728226967155933380126953125" lon="-107.6992054469883441925048828125">
        <ele>3982.39990234375</ele>
        <time>2023-07-29T15:23:22.000Z</time>
        <extensions>
          <ns3:TrackPointExtension>
            <ns3:hr>118</ns3:hr>
            <ns3:cad>0</ns3:cad>
          </ns3:TrackPointExtension>
        </extensions>
      </trkpt>
      <trkpt lat="37.77728662826120853424072265625" lon="-107.699198909103870391845703125">
        <ele>3982.39990234375</ele>
        <time>2023-07-29T15:23:23.000Z</time>
        <extensions>
          <ns3:TrackPointExtension>
            <ns3:hr>118</ns3:hr>
            <ns3:cad>0</ns3:cad>
          </ns3:TrackPointExtension>
        </extensions>
      </trkpt>
      <trkpt lat="37.77728629298508167266845703125" lon="-107.69918206147849559783935546875">
        <ele>3982.39990234375</ele>
        <time>2023-07-29T15:23:24.000Z</time>
        <extensions>
          <ns3:TrackPointExtension>
            <ns3:hr>118</ns3:hr>
            <ns3:cad>0</ns3:cad>
          </ns3:TrackPointExtension>
        </extensions>
      </trkpt>
      <trkpt lat="37.777292914688587188720703125" lon="-107.69917518831789493560791015625">
        <ele>3982.39990234375</ele>
        <time>2023-07-29T15:23:25.000Z</time>
        <extensions>
          <ns3:TrackPointExtension>
            <ns3:hr>118</ns3:hr>
            <ns3:cad>0</ns3:cad>
          </ns3:TrackPointExtension>
        </extensions>
      </trkpt>
      <trkpt lat="37.7772957645356655120849609375" lon="-107.699165046215057373046875">
        <ele>3982.60009765625</ele>
        <time>2023-07-29T15:23:26.000Z</time>
        <extensions>
          <ns3:TrackPointExtension>
            <ns3:hr>118</ns3:hr>
            <ns3:cad>0</ns3:cad>
          </ns3:TrackPointExtension>
        </extensions>
      </trkpt>
      <trkpt lat="37.77729727327823638916015625" lon="-107.69914702512323856353759765625">
        <ele>3982.60009765625</ele>
        <time>2023-07-29T15:23:27.000Z</time>
        <extensions>
          <ns3:TrackPointExtension>
            <ns3:hr>118</ns3:hr>
            <ns3:cad>0</ns3:cad>
          </ns3:TrackPointExtension>
        </extensions>
      </trkpt>
      <trkpt lat="37.7773011289536952972412109375" lon="-107.6991288363933563232421875">
        <ele>3982.60009765625</ele>
        <time>2023-07-29T15:23:28.000Z</time>
        <extensions>
          <ns3:TrackPointExtension>
            <ns3:hr>118</ns3:hr>
            <ns3:cad>0</ns3:cad>
          </ns3:TrackPointExtension>
        </extensions>
      </trkpt>
      <trkpt lat="37.77730121277272701263427734375" lon="-107.69911383278667926788330078125">
        <ele>3982.800048828125</ele>
        <time>2023-07-29T15:23:29.000Z</time>
        <extensions>
          <ns3:TrackPointExtension>
            <ns3:hr>117</ns3:hr>
            <ns3:cad>0</ns3:cad>
          </ns3:TrackPointExtension>
        </extensions>
      </trkpt>
      <trkpt lat="37.77730138041079044342041015625" lon="-107.6990966498851776123046875">
        <ele>3982.800048828125</ele>
        <time>2023-07-29T15:23:30.000Z</time>
        <extensions>
          <ns3:TrackPointExtension>
            <ns3:hr>117</ns3:hr>
            <ns3:cad>0</ns3:cad>
          </ns3:TrackPointExtension>
        </extensions>
      </trkpt>
      <trkpt lat="37.77730238623917102813720703125" lon="-107.6990847475826740264892578125">
        <ele>3982.800048828125</ele>
        <time>2023-07-29T15:23:31.000Z</time>
        <extensions>
          <ns3:TrackPointExtension>
            <ns3:hr>116</ns3:hr>
            <ns3:cad>0</ns3:cad>
          </ns3:TrackPointExtension>
        </extensions>
      </trkpt>
      <trkpt lat="37.77730573900043964385986328125" lon="-107.699082233011722564697265625">
        <ele>3982.800048828125</ele>
        <time>2023-07-29T15:23:32.000Z</time>
        <extensions>
          <ns3:TrackPointExtension>
            <ns3:hr>116</ns3:hr>
            <ns3:cad>0</ns3:cad>
          </ns3:TrackPointExtension>
        </extensions>
      </trkpt>
      <trkpt lat="37.77730666100978851318359375" lon="-107.69907594658434391021728515625">
        <ele>3982.800048828125</ele>
        <time>2023-07-29T15:23:33.000Z</time>
        <extensions>
          <ns3:TrackPointExtension>
            <ns3:hr>115</ns3:hr>
            <ns3:cad>0</ns3:cad>
          </ns3:TrackPointExtension>
        </extensions>
      </trkpt>
      <trkpt lat="37.7773071639239788055419921875" lon="-107.69906521774828433990478515625">
        <ele>3982.800048828125</ele>
        <time>2023-07-29T15:23:34.000Z</time>
        <extensions>
          <ns3:TrackPointExtension>
            <ns3:hr>114</ns3:hr>
            <ns3:cad>0</ns3:cad>
          </ns3:TrackPointExtension>
        </extensions>
      </trkpt>
      <trkpt lat="37.77730875648558139801025390625" lon="-107.6990569196641445159912109375">
        <ele>3982.800048828125</ele>
        <time>2023-07-29T15:23:35.000Z</time>
        <extensions>
          <ns3:TrackPointExtension>
            <ns3:hr>114</ns3:hr>
            <ns3:cad>0</ns3:cad>
          </ns3:TrackPointExtension>
        </extensions>
      </trkpt>
      <trkpt lat="37.77731043286621570587158203125" lon="-107.6990579254925251007080078125">
        <ele>3983</ele>
        <time>2023-07-29T15:23:36.000Z</time>
        <extensions>
          <ns3:TrackPointExtension>
            <ns3:hr>114</ns3:hr>
            <ns3:cad>0</ns3:cad>
          </ns3:TrackPointExtension>
        </extensions>
      </trkpt>
      <trkpt lat="37.7773118577897548675537109375" lon="-107.69904543645679950714111328125">
        <ele>3983</ele>
        <time>2023-07-29T15:23:37.000Z</time>
        <extensions>
          <ns3:TrackPointExtension>
            <ns3:hr>114</ns3:hr>
            <ns3:cad>0</ns3:cad>
          </ns3:TrackPointExtension>
        </extensions>
      </trkpt>
      <trkpt lat="37.77731470763683319091796875" lon="-107.69903068430721759796142578125">
        <ele>3983.199951171875</ele>
        <time>2023-07-29T15:23:38.000Z</time>
        <extensions>
          <ns3:TrackPointExtension>
            <ns3:hr>114</ns3:hr>
            <ns3:cad>0</ns3:cad>
          </ns3:TrackPointExtension>
        </extensions>
      </trkpt>
      <trkpt lat="37.777316384017467498779296875" lon="-107.69901442341506481170654296875">
        <ele>3983.199951171875</ele>
        <time>2023-07-29T15:23:39.000Z</time>
        <extensions>
          <ns3:TrackPointExtension>
            <ns3:hr>114</ns3:hr>
            <ns3:cad>69</ns3:cad>
          </ns3:TrackPointExtension>
        </extensions>
      </trkpt>
      <trkpt lat="37.7773215807974338531494140625" lon="-107.69899883307516574859619140625">
        <ele>3983.199951171875</ele>
        <time>2023-07-29T15:23:40.000Z</time>
        <extensions>
          <ns3:TrackPointExtension>
            <ns3:hr>114</ns3:hr>
            <ns3:cad>69</ns3:cad>
          </ns3:TrackPointExtension>
        </extensions>
      </trkpt>
      <trkpt lat="37.7773247659206390380859375" lon="-107.698985673487186431884765625">
        <ele>3983.199951171875</ele>
        <time>2023-07-29T15:23:41.000Z</time>
        <extensions>
          <ns3:TrackPointExtension>
            <ns3:hr>114</ns3:hr>
            <ns3:cad>52</ns3:cad>
          </ns3:TrackPointExtension>
        </extensions>
      </trkpt>
      <trkpt lat="37.7773269452154636383056640625" lon="-107.69897821359336376190185546875">
        <ele>3983.199951171875</ele>
        <time>2023-07-29T15:23:42.000Z</time>
        <extensions>
          <ns3:TrackPointExtension>
            <ns3:hr>114</ns3:hr>
            <ns3:cad>0</ns3:cad>
          </ns3:TrackPointExtension>
        </extensions>
      </trkpt>
      <trkpt lat="37.7773302979767322540283203125" lon="-107.69896530546247959136962890625">
        <ele>3983.199951171875</ele>
        <time>2023-07-29T15:23:43.000Z</time>
        <extensions>
          <ns3:TrackPointExtension>
            <ns3:hr>114</ns3:hr>
            <ns3:cad>0</ns3:cad>
          </ns3:TrackPointExtension>
        </extensions>
      </trkpt>
      <trkpt lat="37.777334488928318023681640625" lon="-107.698942758142948150634765625">
        <ele>3983.199951171875</ele>
        <time>2023-07-29T15:23:44.000Z</time>
        <extensions>
          <ns3:TrackPointExtension>
            <ns3:hr>114</ns3:hr>
            <ns3:cad>0</ns3:cad>
          </ns3:TrackPointExtension>
        </extensions>
      </trkpt>
      <trkpt lat="37.77733876369893550872802734375" lon="-107.69893680699169635772705078125">
        <ele>3983.199951171875</ele>
        <time>2023-07-29T15:23:45.000Z</time>
        <extensions>
          <ns3:TrackPointExtension>
            <ns3:hr>113</ns3:hr>
            <ns3:cad>0</ns3:cad>
          </ns3:TrackPointExtension>
        </extensions>
      </trkpt>
      <trkpt lat="37.77733943425118923187255859375" lon="-107.69892071373760700225830078125">
        <ele>3983.199951171875</ele>
        <time>2023-07-29T15:23:46.000Z</time>
        <extensions>
          <ns3:TrackPointExtension>
            <ns3:hr>113</ns3:hr>
            <ns3:cad>0</ns3:cad>
          </ns3:TrackPointExtension>
        </extensions>
      </trkpt>
      <trkpt lat="37.77734194882214069366455078125" lon="-107.69890394993126392364501953125">
        <ele>3983</ele>
        <time>2023-07-29T15:23:47.000Z</time>
        <extensions>
          <ns3:TrackPointExtension>
            <ns3:hr>113</ns3:hr>
            <ns3:cad>0</ns3:cad>
          </ns3:TrackPointExtension>
        </extensions>
      </trkpt>
      <trkpt lat="37.7773467265069484710693359375" lon="-107.69889489747583866119384765625">
        <ele>3983</ele>
        <time>2023-07-29T15:23:48.000Z</time>
        <extensions>
          <ns3:TrackPointExtension>
            <ns3:hr>113</ns3:hr>
            <ns3:cad>0</ns3:cad>
          </ns3:TrackPointExtension>
        </extensions>
      </trkpt>
      <trkpt lat="37.77734865434467792510986328125" lon="-107.698887772858142852783203125">
        <ele>3983</ele>
        <time>2023-07-29T15:23:49.000Z</time>
        <extensions>
          <ns3:TrackPointExtension>
            <ns3:hr>112</ns3:hr>
            <ns3:cad>0</ns3:cad>
          </ns3:TrackPointExtension>
        </extensions>
      </trkpt>
      <trkpt lat="37.77734764851629734039306640625" lon="-107.6988808996975421905517578125">
        <ele>3983</ele>
        <time>2023-07-29T15:23:50.000Z</time>
        <extensions>
          <ns3:TrackPointExtension>
            <ns3:hr>112</ns3:hr>
            <ns3:cad>0</ns3:cad>
          </ns3:TrackPointExtension>
        </extensions>
      </trkpt>
      <trkpt lat="37.7773490734398365020751953125" lon="-107.6988765411078929901123046875">
        <ele>3982.800048828125</ele>
        <time>2023-07-29T15:23:51.000Z</time>
        <extensions>
          <ns3:TrackPointExtension>
            <ns3:hr>112</ns3:hr>
            <ns3:cad>0</ns3:cad>
          </ns3:TrackPointExtension>
        </extensions>
      </trkpt>
      <trkpt lat="37.77735318057239055633544921875" lon="-107.69887603819370269775390625">
        <ele>3982.800048828125</ele>
        <time>2023-07-29T15:23:52.000Z</time>
        <extensions>
          <ns3:TrackPointExtension>
            <ns3:hr>111</ns3:hr>
            <ns3:cad>76</ns3:cad>
          </ns3:TrackPointExtension>
        </extensions>
      </trkpt>
      <trkpt lat="37.7773547731339931488037109375" lon="-107.69886204041540622711181640625">
        <ele>3983</ele>
        <time>2023-07-29T15:23:53.000Z</time>
        <extensions>
          <ns3:TrackPointExtension>
            <ns3:hr>111</ns3:hr>
            <ns3:cad>76</ns3:cad>
          </ns3:TrackPointExtension>
        </extensions>
      </trkpt>
      <trkpt lat="37.77735535986721515655517578125" lon="-107.6988537423312664031982421875">
        <ele>3983</ele>
        <time>2023-07-29T15:23:54.000Z</time>
        <extensions>
          <ns3:TrackPointExtension>
            <ns3:hr>110</ns3:hr>
            <ns3:cad>76</ns3:cad>
          </ns3:TrackPointExtension>
        </extensions>
      </trkpt>
      <trkpt lat="37.7773541025817394256591796875" lon="-107.698844186961650848388671875">
        <ele>3982.800048828125</ele>
        <time>2023-07-29T15:23:55.000Z</time>
        <extensions>
          <ns3:TrackPointExtension>
            <ns3:hr>110</ns3:hr>
            <ns3:cad>76</ns3:cad>
          </ns3:TrackPointExtension>
        </extensions>
      </trkpt>
      <trkpt lat="37.77735217474400997161865234375" lon="-107.6988353021442890167236328125">
        <ele>3982.800048828125</ele>
        <time>2023-07-29T15:23:56.000Z</time>
        <extensions>
          <ns3:TrackPointExtension>
            <ns3:hr>109</ns3:hr>
            <ns3:cad>44</ns3:cad>
          </ns3:TrackPointExtension>
        </extensions>
      </trkpt>
      <trkpt lat="37.77735066600143909454345703125" lon="-107.69882231019437313079833984375">
        <ele>3982.800048828125</ele>
        <time>2023-07-29T15:23:57.000Z</time>
        <extensions>
          <ns3:TrackPointExtension>
            <ns3:hr>108</ns3:hr>
            <ns3:cad>44</ns3:cad>
          </ns3:TrackPointExtension>
        </extensions>
      </trkpt>
      <trkpt lat="37.777350582182407379150390625" lon="-107.6988198794424533843994140625">
        <ele>3982.800048828125</ele>
        <time>2023-07-29T15:23:58.000Z</time>
        <extensions>
          <ns3:TrackPointExtension>
            <ns3:hr>108</ns3:hr>
            <ns3:cad>44</ns3:cad>
          </ns3:TrackPointExtension>
        </extensions>
      </trkpt>
      <trkpt lat="37.77734982781112194061279296875" lon="-107.698814682662487030029296875">
        <ele>3982.60009765625</ele>
        <time>2023-07-29T15:23:59.000Z</time>
        <extensions>
          <ns3:TrackPointExtension>
            <ns3:hr>107</ns3:hr>
            <ns3:cad>44</ns3:cad>
          </ns3:TrackPointExtension>
        </extensions>
      </trkpt>
      <trkpt lat="37.7773504145443439483642578125" lon="-107.6988051272928714752197265625">
        <ele>3982.39990234375</ele>
        <time>2023-07-29T15:24:00.000Z</time>
        <extensions>
          <ns3:TrackPointExtension>
            <ns3:hr>107</ns3:hr>
            <ns3:cad>44</ns3:cad>
          </ns3:TrackPointExtension>
        </extensions>
      </trkpt>
      <trkpt lat="37.7773520909249782562255859375" lon="-107.6987989246845245361328125">
        <ele>3982.39990234375</ele>
        <time>2023-07-29T15:24:01.000Z</time>
        <extensions>
          <ns3:TrackPointExtension>
            <ns3:hr>107</ns3:hr>
            <ns3:cad>0</ns3:cad>
          </ns3:TrackPointExtension>
        </extensions>
      </trkpt>
      <trkpt lat="37.7773527614772319793701171875" lon="-107.698788531124591827392578125">
        <ele>3982.39990234375</ele>
        <time>2023-07-29T15:24:02.000Z</time>
        <extensions>
          <ns3:TrackPointExtension>
            <ns3:hr>107</ns3:hr>
            <ns3:cad>0</ns3:cad>
          </ns3:TrackPointExtension>
        </extensions>
      </trkpt>
      <trkpt lat="37.77735066600143909454345703125" lon="-107.6987742818892002105712890625">
        <ele>3982.39990234375</ele>
        <time>2023-07-29T15:24:03.000Z</time>
        <extensions>
          <ns3:TrackPointExtension>
            <ns3:hr>107</ns3:hr>
            <ns3:cad>0</ns3:cad>
          </ns3:TrackPointExtension>
        </extensions>
      </trkpt>
      <trkpt lat="37.77734957635402679443359375" lon="-107.6987692527472972869873046875">
        <ele>3982.199951171875</ele>
        <time>2023-07-29T15:24:04.000Z</time>
        <extensions>
          <ns3:TrackPointExtension>
            <ns3:hr>107</ns3:hr>
            <ns3:cad>0</ns3:cad>
          </ns3:TrackPointExtension>
        </extensions>
      </trkpt>
      <trkpt lat="37.7773497439920902252197265625" lon="-107.69876296631991863250732421875">
        <ele>3982.199951171875</ele>
        <time>2023-07-29T15:24:05.000Z</time>
        <extensions>
          <ns3:TrackPointExtension>
            <ns3:hr>107</ns3:hr>
            <ns3:cad>0</ns3:cad>
          </ns3:TrackPointExtension>
        </extensions>
      </trkpt>
      <trkpt lat="37.777346558868885040283203125" lon="-107.6987504772841930389404296875">
        <ele>3982</ele>
        <time>2023-07-29T15:24:06.000Z</time>
        <extensions>
          <ns3:TrackPointExtension>
            <ns3:hr>107</ns3:hr>
            <ns3:cad>0</ns3:cad>
          </ns3:TrackPointExtension>
        </extensions>
      </trkpt>
      <trkpt lat="37.77734463103115558624267578125" lon="-107.69874737598001956939697265625">
        <ele>3982</ele>
        <time>2023-07-29T15:24:07.000Z</time>
        <extensions>
          <ns3:TrackPointExtension>
            <ns3:hr>106</ns3:hr>
            <ns3:cad>0</ns3:cad>
          </ns3:TrackPointExtension>
        </extensions>
      </trkpt>
      <trkpt lat="37.777342535555362701416015625" lon="-107.69873999990522861480712890625">
        <ele>3982</ele>
        <time>2023-07-29T15:24:08.000Z</time>
        <extensions>
          <ns3:TrackPointExtension>
            <ns3:hr>106</ns3:hr>
            <ns3:cad>0</ns3:cad>
          </ns3:TrackPointExtension>
        </extensions>
      </trkpt>
      <trkpt lat="37.77734094299376010894775390625" lon="-107.698735557496547698974609375">
        <ele>3981.800048828125</ele>
        <time>2023-07-29T15:24:09.000Z</time>
        <extensions>
          <ns3:TrackPointExtension>
            <ns3:hr>105</ns3:hr>
            <ns3:cad>0</ns3:cad>
          </ns3:TrackPointExtension>
        </extensions>
      </trkpt>
      <trkpt lat="37.777339853346347808837890625" lon="-107.69872717559337615966796875">
        <ele>3981.800048828125</ele>
        <time>2023-07-29T15:24:10.000Z</time>
        <extensions>
          <ns3:TrackPointExtension>
            <ns3:hr>105</ns3:hr>
            <ns3:cad>0</ns3:cad>
          </ns3:TrackPointExtension>
        </extensions>
      </trkpt>
      <trkpt lat="37.7773376740515232086181640625" lon="-107.69872223027050495147705078125">
        <ele>3981.60009765625</ele>
        <time>2023-07-29T15:24:11.000Z</time>
        <extensions>
          <ns3:TrackPointExtension>
            <ns3:hr>105</ns3:hr>
            <ns3:cad>0</ns3:cad>
          </ns3:TrackPointExtension>
        </extensions>
      </trkpt>
      <trkpt lat="37.77733557857573032379150390625" lon="-107.6987171173095703125">
        <ele>3981.39990234375</ele>
        <time>2023-07-29T15:24:12.000Z</time>
        <extensions>
          <ns3:TrackPointExtension>
            <ns3:hr>104</ns3:hr>
            <ns3:cad>0</ns3:cad>
          </ns3:TrackPointExtension>
        </extensions>
      </trkpt>
      <trkpt lat="37.7773306332528591156005859375" lon="-107.69870831631124019622802734375">
        <ele>3981.199951171875</ele>
        <time>2023-07-29T15:24:13.000Z</time>
        <extensions>
          <ns3:TrackPointExtension>
            <ns3:hr>104</ns3:hr>
            <ns3:cad>0</ns3:cad>
          </ns3:TrackPointExtension>
        </extensions>
      </trkpt>
      <trkpt lat="37.77732702903449535369873046875" lon="-107.69870261661708354949951171875">
        <ele>3981.199951171875</ele>
        <time>2023-07-29T15:24:14.000Z</time>
        <extensions>
          <ns3:TrackPointExtension>
            <ns3:hr>104</ns3:hr>
            <ns3:cad>0</ns3:cad>
          </ns3:TrackPointExtension>
        </extensions>
      </trkpt>
      <trkpt lat="37.7773249335587024688720703125" lon="-107.69870026968419551849365234375">
        <ele>3981</ele>
        <time>2023-07-29T15:24:15.000Z</time>
        <extensions>
          <ns3:TrackPointExtension>
            <ns3:hr>104</ns3:hr>
            <ns3:cad>0</ns3:cad>
          </ns3:TrackPointExtension>
        </extensions>
      </trkpt>
      <trkpt lat="37.77732216753065586090087890625" lon="-107.698685266077518463134765625">
        <ele>3980.800048828125</ele>
        <time>2023-07-29T15:24:16.000Z</time>
        <extensions>
          <ns3:TrackPointExtension>
            <ns3:hr>103</ns3:hr>
            <ns3:cad>0</ns3:cad>
          </ns3:TrackPointExtension>
        </extensions>
      </trkpt>
      <trkpt lat="37.77731738984584808349609375" lon="-107.69866657443344593048095703125">
        <ele>3980.60009765625</ele>
        <time>2023-07-29T15:24:17.000Z</time>
        <extensions>
          <ns3:TrackPointExtension>
            <ns3:hr>103</ns3:hr>
            <ns3:cad>61</ns3:cad>
          </ns3:TrackPointExtension>
        </extensions>
      </trkpt>
      <trkpt lat="37.77731646783649921417236328125" lon="-107.69865366630256175994873046875">
        <ele>3980.39990234375</ele>
        <time>2023-07-29T15:24:18.000Z</time>
        <extensions>
          <ns3:TrackPointExtension>
            <ns3:hr>103</ns3:hr>
            <ns3:cad>61</ns3:cad>
          </ns3:TrackPointExtension>
        </extensions>
      </trkpt>
      <trkpt lat="37.77731277979910373687744140625" lon="-107.6986405067145824432373046875">
        <ele>3980</ele>
        <time>2023-07-29T15:24:19.000Z</time>
        <extensions>
          <ns3:TrackPointExtension>
            <ns3:hr>102</ns3:hr>
            <ns3:cad>61</ns3:cad>
          </ns3:TrackPointExtension>
        </extensions>
      </trkpt>
      <trkpt lat="37.77731277979910373687744140625" lon="-107.69863137044012546539306640625">
        <ele>3979.800048828125</ele>
        <time>2023-07-29T15:24:20.000Z</time>
        <extensions>
          <ns3:TrackPointExtension>
            <ns3:hr>102</ns3:hr>
            <ns3:cad>66</ns3:cad>
          </ns3:TrackPointExtension>
        </extensions>
      </trkpt>
      <trkpt lat="37.77731194160878658294677734375" lon="-107.6986220665276050567626953125">
        <ele>3979.60009765625</ele>
        <time>2023-07-29T15:24:21.000Z</time>
        <extensions>
          <ns3:TrackPointExtension>
            <ns3:hr>101</ns3:hr>
            <ns3:cad>66</ns3:cad>
          </ns3:TrackPointExtension>
        </extensions>
      </trkpt>
      <trkpt lat="37.77731294743716716766357421875" lon="-107.69860505126416683197021484375">
        <ele>3979.60009765625</ele>
        <time>2023-07-29T15:24:22.000Z</time>
        <extensions>
          <ns3:TrackPointExtension>
            <ns3:hr>101</ns3:hr>
            <ns3:cad>66</ns3:cad>
          </ns3:TrackPointExtension>
        </extensions>
      </trkpt>
      <trkpt lat="37.7773098461329936981201171875" lon="-107.69858761690557003021240234375">
        <ele>3979.60009765625</ele>
        <time>2023-07-29T15:24:23.000Z</time>
        <extensions>
          <ns3:TrackPointExtension>
            <ns3:hr>100</ns3:hr>
            <ns3:cad>66</ns3:cad>
          </ns3:TrackPointExtension>
        </extensions>
      </trkpt>
      <trkpt lat="37.777306325733661651611328125" lon="-107.69856934435665607452392578125">
        <ele>3979.60009765625</ele>
        <time>2023-07-29T15:24:24.000Z</time>
        <extensions>
          <ns3:TrackPointExtension>
            <ns3:hr>100</ns3:hr>
            <ns3:cad>66</ns3:cad>
          </ns3:TrackPointExtension>
        </extensions>
      </trkpt>
      <trkpt lat="37.77730305679142475128173828125" lon="-107.69855777733027935028076171875">
        <ele>3979.800048828125</ele>
        <time>2023-07-29T15:24:25.000Z</time>
        <extensions>
          <ns3:TrackPointExtension>
            <ns3:hr>100</ns3:hr>
            <ns3:cad>66</ns3:cad>
          </ns3:TrackPointExtension>
        </extensions>
      </trkpt>
      <trkpt lat="37.777300290763378143310546875" lon="-107.69855224527418613433837890625">
        <ele>3979.800048828125</ele>
        <time>2023-07-29T15:24:26.000Z</time>
        <extensions>
          <ns3:TrackPointExtension>
            <ns3:hr>100</ns3:hr>
            <ns3:cad>55</ns3:cad>
          </ns3:TrackPointExtension>
        </extensions>
      </trkpt>
      <trkpt lat="37.7772974409162998199462890625" lon="-107.69854084588587284088134765625">
        <ele>3979.800048828125</ele>
        <time>2023-07-29T15:24:27.000Z</time>
        <extensions>
          <ns3:TrackPointExtension>
            <ns3:hr>101</ns3:hr>
            <ns3:cad>55</ns3:cad>
          </ns3:TrackPointExtension>
        </extensions>
      </trkpt>
      <trkpt lat="37.7772952616214752197265625" lon="-107.698533050715923309326171875">
        <ele>3980</ele>
        <time>2023-07-29T15:24:28.000Z</time>
        <extensions>
          <ns3:TrackPointExtension>
            <ns3:hr>101</ns3:hr>
            <ns3:cad>55</ns3:cad>
          </ns3:TrackPointExtension>
        </extensions>
      </trkpt>
      <trkpt lat="37.77729324996471405029296875" lon="-107.698529027402400970458984375">
        <ele>3980.199951171875</ele>
        <time>2023-07-29T15:24:29.000Z</time>
        <extensions>
          <ns3:TrackPointExtension>
            <ns3:hr>101</ns3:hr>
            <ns3:cad>0</ns3:cad>
          </ns3:TrackPointExtension>
        </extensions>
      </trkpt>
      <trkpt lat="37.77729182504117488861083984375" lon="-107.69852424971759319305419921875">
        <ele>3980.199951171875</ele>
        <time>2023-07-29T15:24:30.000Z</time>
        <extensions>
          <ns3:TrackPointExtension>
            <ns3:hr>101</ns3:hr>
            <ns3:cad>0</ns3:cad>
          </ns3:TrackPointExtension>
        </extensions>
      </trkpt>
      <trkpt lat="37.77729148976504802703857421875" lon="-107.6985211484134197235107421875">
        <ele>3980.39990234375</ele>
        <time>2023-07-29T15:24:31.000Z</time>
        <extensions>
          <ns3:TrackPointExtension>
            <ns3:hr>101</ns3:hr>
            <ns3:cad>0</ns3:cad>
          </ns3:TrackPointExtension>
        </extensions>
      </trkpt>
      <trkpt lat="37.77729115448892116546630859375" lon="-107.69851301796734333038330078125">
        <ele>3980.39990234375</ele>
        <time>2023-07-29T15:24:32.000Z</time>
        <extensions>
          <ns3:TrackPointExtension>
            <ns3:hr>101</ns3:hr>
            <ns3:cad>0</ns3:cad>
          </ns3:TrackPointExtension>
        </extensions>
      </trkpt>
      <trkpt lat="37.777294926345348358154296875" lon="-107.6985132694244384765625">
        <ele>3980.60009765625</ele>
        <time>2023-07-29T15:24:33.000Z</time>
        <extensions>
          <ns3:TrackPointExtension>
            <ns3:hr>101</ns3:hr>
            <ns3:cad>0</ns3:cad>
          </ns3:TrackPointExtension>
        </extensions>
      </trkpt>
      <trkpt lat="37.7772954292595386505126953125" lon="-107.69850614480674266815185546875">
        <ele>3980.60009765625</ele>
        <time>2023-07-29T15:24:34.000Z</time>
        <extensions>
          <ns3:TrackPointExtension>
            <ns3:hr>101</ns3:hr>
            <ns3:cad>0</ns3:cad>
          </ns3:TrackPointExtension>
        </extensions>
      </trkpt>
      <trkpt lat="37.77729853056371212005615234375" lon="-107.69849994219839572906494140625">
        <ele>3980.800048828125</ele>
        <time>2023-07-29T15:24:35.000Z</time>
        <extensions>
          <ns3:TrackPointExtension>
            <ns3:hr>101</ns3:hr>
            <ns3:cad>0</ns3:cad>
          </ns3:TrackPointExtension>
        </extensions>
      </trkpt>
      <trkpt lat="37.77730339206755161285400390625" lon="-107.69849273376166820526123046875">
        <ele>3980.800048828125</ele>
        <time>2023-07-29T15:24:36.000Z</time>
        <extensions>
          <ns3:TrackPointExtension>
            <ns3:hr>100</ns3:hr>
            <ns3:cad>0</ns3:cad>
          </ns3:TrackPointExtension>
        </extensions>
      </trkpt>
      <trkpt lat="37.7773108519613742828369140625" lon="-107.69848418422043323516845703125">
        <ele>3980.800048828125</ele>
        <time>2023-07-29T15:24:37.000Z</time>
        <extensions>
          <ns3:TrackPointExtension>
            <ns3:hr>100</ns3:hr>
            <ns3:cad>0</ns3:cad>
          </ns3:TrackPointExtension>
        </extensions>
      </trkpt>
      <trkpt lat="37.777312360703945159912109375" lon="-107.698475383222103118896484375">
        <ele>3981</ele>
        <time>2023-07-29T15:24:38.000Z</time>
        <extensions>
          <ns3:TrackPointExtension>
            <ns3:hr>100</ns3:hr>
            <ns3:cad>0</ns3:cad>
          </ns3:TrackPointExtension>
        </extensions>
      </trkpt>
      <trkpt lat="37.77731596492230892181396484375" lon="-107.69846188835799694061279296875">
        <ele>3981</ele>
        <time>2023-07-29T15:24:39.000Z</time>
        <extensions>
          <ns3:TrackPointExtension>
            <ns3:hr>100</ns3:hr>
            <ns3:cad>0</ns3:cad>
          </ns3:TrackPointExtension>
        </extensions>
      </trkpt>
      <trkpt lat="37.77732007205486297607421875" lon="-107.6984467171132564544677734375">
        <ele>3981</ele>
        <time>2023-07-29T15:24:40.000Z</time>
        <extensions>
          <ns3:TrackPointExtension>
            <ns3:hr>100</ns3:hr>
            <ns3:cad>0</ns3:cad>
          </ns3:TrackPointExtension>
        </extensions>
      </trkpt>
      <trkpt lat="37.7773202396929264068603515625" lon="-107.69843749701976776123046875">
        <ele>3981</ele>
        <time>2023-07-29T15:24:41.000Z</time>
        <extensions>
          <ns3:TrackPointExtension>
            <ns3:hr>100</ns3:hr>
            <ns3:cad>0</ns3:cad>
          </ns3:TrackPointExtension>
        </extensions>
      </trkpt>
      <trkpt lat="37.7773188985884189605712890625" lon="-107.6984356530010700225830078125">
        <ele>3981</ele>
        <time>2023-07-29T15:24:42.000Z</time>
        <extensions>
          <ns3:TrackPointExtension>
            <ns3:hr>102</ns3:hr>
            <ns3:cad>0</ns3:cad>
          </ns3:TrackPointExtension>
        </extensions>
      </trkpt>
      <trkpt lat="37.777318060398101806640625" lon="-107.69843213260173797607421875">
        <ele>3981</ele>
        <time>2023-07-29T15:24:43.000Z</time>
        <extensions>
          <ns3:TrackPointExtension>
            <ns3:hr>106</ns3:hr>
            <ns3:cad>0</ns3:cad>
          </ns3:TrackPointExtension>
        </extensions>
      </trkpt>
      <trkpt lat="37.77731680311262607574462890625" lon="-107.698431126773357391357421875">
        <ele>3981.199951171875</ele>
        <time>2023-07-29T15:24:44.000Z</time>
        <extensions>
          <ns3:TrackPointExtension>
            <ns3:hr>107</ns3:hr>
            <ns3:cad>0</ns3:cad>
          </ns3:TrackPointExtension>
        </extensions>
      </trkpt>
      <trkpt lat="37.77731462381780147552490234375" lon="-107.69843137823045253753662109375">
        <ele>3981.39990234375</ele>
        <time>2023-07-29T15:24:45.000Z</time>
        <extensions>
          <ns3:TrackPointExtension>
            <ns3:hr>107</ns3:hr>
            <ns3:cad>0</ns3:cad>
          </ns3:TrackPointExtension>
        </extensions>
      </trkpt>
      <trkpt lat="37.7773115225136280059814453125" lon="-107.69842517562210559844970703125">
        <ele>3981.800048828125</ele>
        <time>2023-07-29T15:24:46.000Z</time>
        <extensions>
          <ns3:TrackPointExtension>
            <ns3:hr>107</ns3:hr>
            <ns3:cad>0</ns3:cad>
          </ns3:TrackPointExtension>
        </extensions>
      </trkpt>
      <trkpt lat="37.77730934321880340576171875" lon="-107.6984198950231075286865234375">
        <ele>3981.800048828125</ele>
        <time>2023-07-29T15:24:47.000Z</time>
        <extensions>
          <ns3:TrackPointExtension>
            <ns3:hr>107</ns3:hr>
            <ns3:cad>0</ns3:cad>
          </ns3:TrackPointExtension>
        </extensions>
      </trkpt>
      <trkpt lat="37.7773078344762325286865234375" lon="-107.698415033519268035888671875">
        <ele>3982.199951171875</ele>
        <time>2023-07-29T15:24:48.000Z</time>
        <extensions>
          <ns3:TrackPointExtension>
            <ns3:hr>106</ns3:hr>
            <ns3:cad>0</ns3:cad>
          </ns3:TrackPointExtension>
        </extensions>
      </trkpt>
      <trkpt lat="37.7773058228194713592529296875" lon="-107.69841310568153858184814453125">
        <ele>3982.39990234375</ele>
        <time>2023-07-29T15:24:49.000Z</time>
        <extensions>
          <ns3:TrackPointExtension>
            <ns3:hr>106</ns3:hr>
            <ns3:cad>45</ns3:cad>
          </ns3:TrackPointExtension>
        </extensions>
      </trkpt>
      <trkpt lat="37.77730523608624935150146484375" lon="-107.6984051428735256195068359375">
        <ele>3982.800048828125</ele>
        <time>2023-07-29T15:24:50.000Z</time>
        <extensions>
          <ns3:TrackPointExtension>
            <ns3:hr>106</ns3:hr>
            <ns3:cad>45</ns3:cad>
          </ns3:TrackPointExtension>
        </extensions>
      </trkpt>
      <trkpt lat="37.77730238623917102813720703125" lon="-107.698396258056163787841796875">
        <ele>3982.800048828125</ele>
        <time>2023-07-29T15:24:51.000Z</time>
        <extensions>
          <ns3:TrackPointExtension>
            <ns3:hr>107</ns3:hr>
            <ns3:cad>45</ns3:cad>
          </ns3:TrackPointExtension>
        </extensions>
      </trkpt>
      <trkpt lat="37.77729903347790241241455078125" lon="-107.69839483313262462615966796875">
        <ele>3983</ele>
        <time>2023-07-29T15:24:52.000Z</time>
        <extensions>
          <ns3:TrackPointExtension>
            <ns3:hr>107</ns3:hr>
            <ns3:cad>0</ns3:cad>
          </ns3:TrackPointExtension>
        </extensions>
      </trkpt>
      <trkpt lat="37.77729836292564868927001953125" lon="-107.69838561303913593292236328125">
        <ele>3983</ele>
        <time>2023-07-29T15:24:53.000Z</time>
        <extensions>
          <ns3:TrackPointExtension>
            <ns3:hr>107</ns3:hr>
            <ns3:cad>0</ns3:cad>
          </ns3:TrackPointExtension>
        </extensions>
      </trkpt>
      <trkpt lat="37.77729861438274383544921875" lon="-107.69837672822177410125732421875">
        <ele>3983</ele>
        <time>2023-07-29T15:24:54.000Z</time>
        <extensions>
          <ns3:TrackPointExtension>
            <ns3:hr>108</ns3:hr>
            <ns3:cad>45</ns3:cad>
          </ns3:TrackPointExtension>
        </extensions>
      </trkpt>
      <trkpt lat="37.77729861438274383544921875" lon="-107.698360718786716461181640625">
        <ele>3983</ele>
        <time>2023-07-29T15:24:55.000Z</time>
        <extensions>
          <ns3:TrackPointExtension>
            <ns3:hr>109</ns3:hr>
            <ns3:cad>45</ns3:cad>
          </ns3:TrackPointExtension>
        </extensions>
      </trkpt>
      <trkpt lat="37.77729702182114124298095703125" lon="-107.698352336883544921875">
        <ele>3983</ele>
        <time>2023-07-29T15:24:56.000Z</time>
        <extensions>
          <ns3:TrackPointExtension>
            <ns3:hr>110</ns3:hr>
            <ns3:cad>0</ns3:cad>
          </ns3:TrackPointExtension>
        </extensions>
      </trkpt>
      <trkpt lat="37.7772944234311580657958984375" lon="-107.69834764301776885986328125">
        <ele>3983</ele>
        <time>2023-07-29T15:24:57.000Z</time>
        <extensions>
          <ns3:TrackPointExtension>
            <ns3:hr>112</ns3:hr>
            <ns3:cad>0</ns3:cad>
          </ns3:TrackPointExtension>
        </extensions>
      </trkpt>
      <trkpt lat="37.777291238307952880859375" lon="-107.69832895137369632720947265625">
        <ele>3983.199951171875</ele>
        <time>2023-07-29T15:24:58.000Z</time>
        <extensions>
          <ns3:TrackPointExtension>
            <ns3:hr>112</ns3:hr>
            <ns3:cad>0</ns3:cad>
          </ns3:TrackPointExtension>
        </extensions>
      </trkpt>
      <trkpt lat="37.77729081921279430389404296875" lon="-107.69831822253763675689697265625">
        <ele>3983.199951171875</ele>
        <time>2023-07-29T15:24:59.000Z</time>
        <extensions>
          <ns3:TrackPointExtension>
            <ns3:hr>112</ns3:hr>
            <ns3:cad>0</ns3:cad>
          </ns3:TrackPointExtension>
        </extensions>
      </trkpt>
      <trkpt lat="37.77729048393666744232177734375" lon="-107.6983038894832134246826171875">
        <ele>3983.39990234375</ele>
        <time>2023-07-29T15:25:00.000Z</time>
        <extensions>
          <ns3:TrackPointExtension>
            <ns3:hr>112</ns3:hr>
            <ns3:cad>0</ns3:cad>
          </ns3:TrackPointExtension>
        </extensions>
      </trkpt>
      <trkpt lat="37.7772870473563671112060546875" lon="-107.69829743541777133941650390625">
        <ele>3983.39990234375</ele>
        <time>2023-07-29T15:25:01.000Z</time>
        <extensions>
          <ns3:TrackPointExtension>
            <ns3:hr>113</ns3:hr>
            <ns3:cad>0</ns3:cad>
          </ns3:TrackPointExtension>
        </extensions>
      </trkpt>
      <trkpt lat="37.77729014866054058074951171875" lon="-107.6982919871807098388671875">
        <ele>3983.60009765625</ele>
        <time>2023-07-29T15:25:02.000Z</time>
        <extensions>
          <ns3:TrackPointExtension>
            <ns3:hr>113</ns3:hr>
            <ns3:cad>40</ns3:cad>
          </ns3:TrackPointExtension>
        </extensions>
      </trkpt>
      <trkpt lat="37.77728998102247714996337890625" lon="-107.69828704185783863067626953125">
        <ele>3983.800048828125</ele>
        <time>2023-07-29T15:25:03.000Z</time>
        <extensions>
          <ns3:TrackPointExtension>
            <ns3:hr>113</ns3:hr>
            <ns3:cad>40</ns3:cad>
          </ns3:TrackPointExtension>
        </extensions>
      </trkpt>
      <trkpt lat="37.7772893942892551422119140625" lon="-107.69826994277536869049072265625">
        <ele>3983.800048828125</ele>
        <time>2023-07-29T15:25:04.000Z</time>
        <extensions>
          <ns3:TrackPointExtension>
            <ns3:hr>114</ns3:hr>
            <ns3:cad>0</ns3:cad>
          </ns3:TrackPointExtension>
        </extensions>
      </trkpt>
      <trkpt lat="37.77728855609893798828125" lon="-107.698258794844150543212890625">
        <ele>3984.199951171875</ele>
        <time>2023-07-29T15:25:05.000Z</time>
        <extensions>
          <ns3:TrackPointExtension>
            <ns3:hr>114</ns3:hr>
            <ns3:cad>0</ns3:cad>
          </ns3:TrackPointExtension>
        </extensions>
      </trkpt>
      <trkpt lat="37.77728646062314510345458984375" lon="-107.69825804047286510467529296875">
        <ele>3984.39990234375</ele>
        <time>2023-07-29T15:25:06.000Z</time>
        <extensions>
          <ns3:TrackPointExtension>
            <ns3:hr>114</ns3:hr>
            <ns3:cad>0</ns3:cad>
          </ns3:TrackPointExtension>
        </extensions>
      </trkpt>
      <trkpt lat="37.777284197509288787841796875" lon="-107.69825351424515247344970703125">
        <ele>3984.60009765625</ele>
        <time>2023-07-29T15:25:07.000Z</time>
        <extensions>
          <ns3:TrackPointExtension>
            <ns3:hr>115</ns3:hr>
            <ns3:cad>0</ns3:cad>
          </ns3:TrackPointExtension>
        </extensions>
      </trkpt>
      <trkpt lat="37.7772826887667179107666015625" lon="-107.69824840128421783447265625">
        <ele>3984.800048828125</ele>
        <time>2023-07-29T15:25:08.000Z</time>
        <extensions>
          <ns3:TrackPointExtension>
            <ns3:hr>115</ns3:hr>
            <ns3:cad>0</ns3:cad>
          </ns3:TrackPointExtension>
        </extensions>
      </trkpt>
      <trkpt lat="37.77728092856705188751220703125" lon="-107.698245383799076080322265625">
        <ele>3984.800048828125</ele>
        <time>2023-07-29T15:25:09.000Z</time>
        <extensions>
          <ns3:TrackPointExtension>
            <ns3:hr>116</ns3:hr>
            <ns3:cad>0</ns3:cad>
          </ns3:TrackPointExtension>
        </extensions>
      </trkpt>
      <trkpt lat="37.77727724052965641021728515625" lon="-107.6982341520488262176513671875">
        <ele>3985</ele>
        <time>2023-07-29T15:25:10.000Z</time>
        <extensions>
          <ns3:TrackPointExtension>
            <ns3:hr>116</ns3:hr>
            <ns3:cad>60</ns3:cad>
          </ns3:TrackPointExtension>
        </extensions>
      </trkpt>
      <trkpt lat="37.7772738039493560791015625" lon="-107.69822426140308380126953125">
        <ele>3985.199951171875</ele>
        <time>2023-07-29T15:25:11.000Z</time>
        <extensions>
          <ns3:TrackPointExtension>
            <ns3:hr>117</ns3:hr>
            <ns3:cad>60</ns3:cad>
          </ns3:TrackPointExtension>
        </extensions>
      </trkpt>
      <trkpt lat="37.77727254666388034820556640625" lon="-107.69821546040475368499755859375">
        <ele>3985.199951171875</ele>
        <time>2023-07-29T15:25:12.000Z</time>
        <extensions>
          <ns3:TrackPointExtension>
            <ns3:hr>117</ns3:hr>
            <ns3:cad>60</ns3:cad>
          </ns3:TrackPointExtension>
        </extensions>
      </trkpt>
      <trkpt lat="37.7772733010351657867431640625" lon="-107.69822166301310062408447265625">
        <ele>3985.199951171875</ele>
        <time>2023-07-29T15:25:13.000Z</time>
        <extensions>
          <ns3:TrackPointExtension>
            <ns3:hr>117</ns3:hr>
            <ns3:cad>60</ns3:cad>
          </ns3:TrackPointExtension>
        </extensions>
      </trkpt>
      <trkpt lat="37.7772746421396732330322265625" lon="-107.6982244290411472320556640625">
        <ele>3985.199951171875</ele>
        <time>2023-07-29T15:25:14.000Z</time>
        <extensions>
          <ns3:TrackPointExtension>
            <ns3:hr>117</ns3:hr>
            <ns3:cad>0</ns3:cad>
          </ns3:TrackPointExtension>
        </extensions>
      </trkpt>
      <trkpt lat="37.77727372013032436370849609375" lon="-107.6982257701456546783447265625">
        <ele>3985</ele>
        <time>2023-07-29T15:25:15.000Z</time>
        <extensions>
          <ns3:TrackPointExtension>
            <ns3:hr>116</ns3:hr>
            <ns3:cad>0</ns3:cad>
          </ns3:TrackPointExtension>
        </extensions>
      </trkpt>
      <trkpt lat="37.777272798120975494384765625" lon="-107.698226608335971832275390625">
        <ele>3985</ele>
        <time>2023-07-29T15:25:16.000Z</time>
        <extensions>
          <ns3:TrackPointExtension>
            <ns3:hr>116</ns3:hr>
            <ns3:cad>0</ns3:cad>
          </ns3:TrackPointExtension>
        </extensions>
      </trkpt>
      <trkpt lat="37.7772739715874195098876953125" lon="-107.6982247643172740936279296875">
        <ele>3985</ele>
        <time>2023-07-29T15:25:17.000Z</time>
        <extensions>
          <ns3:TrackPointExtension>
            <ns3:hr>116</ns3:hr>
            <ns3:cad>0</ns3:cad>
          </ns3:TrackPointExtension>
        </extensions>
      </trkpt>
      <trkpt lat="37.7772743068635463714599609375" lon="-107.69822082482278347015380859375">
        <ele>3985</ele>
        <time>2023-07-29T15:25:18.000Z</time>
        <extensions>
          <ns3:TrackPointExtension>
            <ns3:hr>116</ns3:hr>
            <ns3:cad>0</ns3:cad>
          </ns3:TrackPointExtension>
        </extensions>
      </trkpt>
      <trkpt lat="37.77727355249226093292236328125" lon="-107.6982143707573413848876953125">
        <ele>3985</ele>
        <time>2023-07-29T15:25:19.000Z</time>
        <extensions>
          <ns3:TrackPointExtension>
            <ns3:hr>116</ns3:hr>
            <ns3:cad>0</ns3:cad>
          </ns3:TrackPointExtension>
        </extensions>
      </trkpt>
      <trkpt lat="37.77727053500711917877197265625" lon="-107.698204815387725830078125">
        <ele>3985</ele>
        <time>2023-07-29T15:25:20.000Z</time>
        <extensions>
          <ns3:TrackPointExtension>
            <ns3:hr>116</ns3:hr>
            <ns3:cad>0</ns3:cad>
          </ns3:TrackPointExtension>
        </extensions>
      </trkpt>
      <trkpt lat="37.7772662602365016937255859375" lon="-107.6981954276561737060546875">
        <ele>3985</ele>
        <time>2023-07-29T15:25:21.000Z</time>
        <extensions>
          <ns3:TrackPointExtension>
            <ns3:hr>116</ns3:hr>
            <ns3:cad>0</ns3:cad>
          </ns3:TrackPointExtension>
        </extensions>
      </trkpt>
      <trkpt lat="37.7772622369229793548583984375" lon="-107.698188386857509613037109375">
        <ele>3985</ele>
        <time>2023-07-29T15:25:22.000Z</time>
        <extensions>
          <ns3:TrackPointExtension>
            <ns3:hr>116</ns3:hr>
            <ns3:cad>0</ns3:cad>
          </ns3:TrackPointExtension>
        </extensions>
      </trkpt>
      <trkpt lat="37.77725636959075927734375" lon="-107.698178328573703765869140625">
        <ele>3985</ele>
        <time>2023-07-29T15:25:23.000Z</time>
        <extensions>
          <ns3:TrackPointExtension>
            <ns3:hr>116</ns3:hr>
            <ns3:cad>45</ns3:cad>
          </ns3:TrackPointExtension>
        </extensions>
      </trkpt>
      <trkpt lat="37.77725075371563434600830078125" lon="-107.69817003048956394195556640625">
        <ele>3985</ele>
        <time>2023-07-29T15:25:24.000Z</time>
        <extensions>
          <ns3:TrackPointExtension>
            <ns3:hr>116</ns3:hr>
            <ns3:cad>45</ns3:cad>
          </ns3:TrackPointExtension>
        </extensions>
      </trkpt>
      <trkpt lat="37.77724689804017543792724609375" lon="-107.69816952757537364959716796875">
        <ele>3985</ele>
        <time>2023-07-29T15:25:25.000Z</time>
        <extensions>
          <ns3:TrackPointExtension>
            <ns3:hr>115</ns3:hr>
            <ns3:cad>0</ns3:cad>
          </ns3:TrackPointExtension>
        </extensions>
      </trkpt>
      <trkpt lat="37.777242958545684814453125" lon="-107.69816651009023189544677734375">
        <ele>3985</ele>
        <time>2023-07-29T15:25:26.000Z</time>
        <extensions>
          <ns3:TrackPointExtension>
            <ns3:hr>115</ns3:hr>
            <ns3:cad>0</ns3:cad>
          </ns3:TrackPointExtension>
        </extensions>
      </trkpt>
      <trkpt lat="37.77723960578441619873046875" lon="-107.69816634245216846466064453125">
        <ele>3985</ele>
        <time>2023-07-29T15:25:27.000Z</time>
        <extensions>
          <ns3:TrackPointExtension>
            <ns3:hr>115</ns3:hr>
            <ns3:cad>0</ns3:cad>
          </ns3:TrackPointExtension>
        </extensions>
      </trkpt>
      <trkpt lat="37.7772350795567035675048828125" lon="-107.69816097803413867950439453125">
        <ele>3985</ele>
        <time>2023-07-29T15:25:28.000Z</time>
        <extensions>
          <ns3:TrackPointExtension>
            <ns3:hr>115</ns3:hr>
            <ns3:cad>0</ns3:cad>
          </ns3:TrackPointExtension>
        </extensions>
      </trkpt>
      <trkpt lat="37.7772303856909275054931640625" lon="-107.6981550268828868865966796875">
        <ele>3985</ele>
        <time>2023-07-29T15:25:29.000Z</time>
        <extensions>
          <ns3:TrackPointExtension>
            <ns3:hr>116</ns3:hr>
            <ns3:cad>0</ns3:cad>
          </ns3:TrackPointExtension>
        </extensions>
      </trkpt>
      <trkpt lat="37.777227200567722320556640625" lon="-107.69814656116068363189697265625">
        <ele>3985</ele>
        <time>2023-07-29T15:25:30.000Z</time>
        <extensions>
          <ns3:TrackPointExtension>
            <ns3:hr>116</ns3:hr>
            <ns3:cad>0</ns3:cad>
          </ns3:TrackPointExtension>
        </extensions>
      </trkpt>
      <trkpt lat="37.77722476981580257415771484375" lon="-107.6981392689049243927001953125">
        <ele>3985</ele>
        <time>2023-07-29T15:25:31.000Z</time>
        <extensions>
          <ns3:TrackPointExtension>
            <ns3:hr>116</ns3:hr>
            <ns3:cad>0</ns3:cad>
          </ns3:TrackPointExtension>
        </extensions>
      </trkpt>
      <trkpt lat="37.77722476981580257415771484375" lon="-107.69813147373497486114501953125">
        <ele>3985</ele>
        <time>2023-07-29T15:25:32.000Z</time>
        <extensions>
          <ns3:TrackPointExtension>
            <ns3:hr>115</ns3:hr>
            <ns3:cad>0</ns3:cad>
          </ns3:TrackPointExtension>
        </extensions>
      </trkpt>
      <trkpt lat="37.777227871119976043701171875" lon="-107.69812560640275478363037109375">
        <ele>3985</ele>
        <time>2023-07-29T15:25:33.000Z</time>
        <extensions>
          <ns3:TrackPointExtension>
            <ns3:hr>115</ns3:hr>
            <ns3:cad>0</ns3:cad>
          </ns3:TrackPointExtension>
        </extensions>
      </trkpt>
      <trkpt lat="37.7772360853850841522216796875" lon="-107.69812510348856449127197265625">
        <ele>3985</ele>
        <time>2023-07-29T15:25:34.000Z</time>
        <extensions>
          <ns3:TrackPointExtension>
            <ns3:hr>114</ns3:hr>
            <ns3:cad>0</ns3:cad>
          </ns3:TrackPointExtension>
        </extensions>
      </trkpt>
      <trkpt lat="37.77723751030862331390380859375" lon="-107.69812091253697872161865234375">
        <ele>3985</ele>
        <time>2023-07-29T15:25:35.000Z</time>
        <extensions>
          <ns3:TrackPointExtension>
            <ns3:hr>112</ns3:hr>
            <ns3:cad>0</ns3:cad>
          </ns3:TrackPointExtension>
        </extensions>
      </trkpt>
      <trkpt lat="37.77723868377506732940673828125" lon="-107.6981171406805515289306640625">
        <ele>3985</ele>
        <time>2023-07-29T15:25:36.000Z</time>
        <extensions>
          <ns3:TrackPointExtension>
            <ns3:hr>112</ns3:hr>
            <ns3:cad>0</ns3:cad>
          </ns3:TrackPointExtension>
        </extensions>
      </trkpt>
      <trkpt lat="37.77723717503249645233154296875" lon="-107.69811965525150299072265625">
        <ele>3985</ele>
        <time>2023-07-29T15:25:37.000Z</time>
        <extensions>
          <ns3:TrackPointExtension>
            <ns3:hr>112</ns3:hr>
            <ns3:cad>0</ns3:cad>
          </ns3:TrackPointExtension>
        </extensions>
      </trkpt>
      <trkpt lat="37.77723667211830615997314453125" lon="-107.69812091253697872161865234375">
        <ele>3985</ele>
        <time>2023-07-29T15:25:38.000Z</time>
        <extensions>
          <ns3:TrackPointExtension>
            <ns3:hr>111</ns3:hr>
            <ns3:cad>0</ns3:cad>
          </ns3:TrackPointExtension>
        </extensions>
      </trkpt>
      <trkpt lat="37.77723558247089385986328125" lon="-107.69811965525150299072265625">
        <ele>3985</ele>
        <time>2023-07-29T15:25:39.000Z</time>
        <extensions>
          <ns3:TrackPointExtension>
            <ns3:hr>111</ns3:hr>
            <ns3:cad>0</ns3:cad>
          </ns3:TrackPointExtension>
        </extensions>
      </trkpt>
      <trkpt lat="37.7772327326238155364990234375" lon="-107.69812309183180332183837890625">
        <ele>3985</ele>
        <time>2023-07-29T15:25:40.000Z</time>
        <extensions>
          <ns3:TrackPointExtension>
            <ns3:hr>110</ns3:hr>
            <ns3:cad>0</ns3:cad>
          </ns3:TrackPointExtension>
        </extensions>
      </trkpt>
      <trkpt lat="37.77723298408091068267822265625" lon="-107.69812191836535930633544921875">
        <ele>3985</ele>
        <time>2023-07-29T15:25:41.000Z</time>
        <extensions>
          <ns3:TrackPointExtension>
            <ns3:hr>110</ns3:hr>
            <ns3:cad>0</ns3:cad>
          </ns3:TrackPointExtension>
        </extensions>
      </trkpt>
      <trkpt lat="37.777232229709625244140625" lon="-107.69812309183180332183837890625">
        <ele>3985</ele>
        <time>2023-07-29T15:25:42.000Z</time>
        <extensions>
          <ns3:TrackPointExtension>
            <ns3:hr>110</ns3:hr>
            <ns3:cad>0</ns3:cad>
          </ns3:TrackPointExtension>
        </extensions>
      </trkpt>
      <trkpt lat="37.777231223881244659423828125" lon="-107.69812594167888164520263671875">
        <ele>3985</ele>
        <time>2023-07-29T15:25:43.000Z</time>
        <extensions>
          <ns3:TrackPointExtension>
            <ns3:hr>110</ns3:hr>
            <ns3:cad>0</ns3:cad>
          </ns3:TrackPointExtension>
        </extensions>
      </trkpt>
      <trkpt lat="37.77722912840545177459716796875" lon="-107.69812895916402339935302734375">
        <ele>3985</ele>
        <time>2023-07-29T15:25:44.000Z</time>
        <extensions>
          <ns3:TrackPointExtension>
            <ns3:hr>109</ns3:hr>
            <ns3:cad>0</ns3:cad>
          </ns3:TrackPointExtension>
        </extensions>
      </trkpt>
      <trkpt lat="37.77723097242414951324462890625" lon="-107.69812292419373989105224609375">
        <ele>3985</ele>
        <time>2023-07-29T15:25:45.000Z</time>
        <extensions>
          <ns3:TrackPointExtension>
            <ns3:hr>109</ns3:hr>
            <ns3:cad>0</ns3:cad>
          </ns3:TrackPointExtension>
        </extensions>
      </trkpt>
      <trkpt lat="37.777229882776737213134765625" lon="-107.698116302490234375">
        <ele>3985</ele>
        <time>2023-07-29T15:25:46.000Z</time>
        <extensions>
          <ns3:TrackPointExtension>
            <ns3:hr>108</ns3:hr>
            <ns3:cad>0</ns3:cad>
          </ns3:TrackPointExtension>
        </extensions>
      </trkpt>
      <trkpt lat="37.777229212224483489990234375" lon="-107.6981060765683650970458984375">
        <ele>3985</ele>
        <time>2023-07-29T15:25:47.000Z</time>
        <extensions>
          <ns3:TrackPointExtension>
            <ns3:hr>107</ns3:hr>
            <ns3:cad>0</ns3:cad>
          </ns3:TrackPointExtension>
        </extensions>
      </trkpt>
      <trkpt lat="37.77722912840545177459716796875" lon="-107.6980960182845592498779296875">
        <ele>3985</ele>
        <time>2023-07-29T15:25:48.000Z</time>
        <extensions>
          <ns3:TrackPointExtension>
            <ns3:hr>107</ns3:hr>
            <ns3:cad>41</ns3:cad>
          </ns3:TrackPointExtension>
        </extensions>
      </trkpt>
      <trkpt lat="37.77723030187189579010009765625" lon="-107.69809090532362461090087890625">
        <ele>3985</ele>
        <time>2023-07-29T15:25:49.000Z</time>
        <extensions>
          <ns3:TrackPointExtension>
            <ns3:hr>107</ns3:hr>
            <ns3:cad>41</ns3:cad>
          </ns3:TrackPointExtension>
        </extensions>
      </trkpt>
      <trkpt lat="37.7772295475006103515625" lon="-107.69808118231594562530517578125">
        <ele>3985</ele>
        <time>2023-07-29T15:25:50.000Z</time>
        <extensions>
          <ns3:TrackPointExtension>
            <ns3:hr>108</ns3:hr>
            <ns3:cad>41</ns3:cad>
          </ns3:TrackPointExtension>
        </extensions>
      </trkpt>
      <trkpt lat="37.77722912840545177459716796875" lon="-107.69807548262178897857666015625">
        <ele>3985</ele>
        <time>2023-07-29T15:25:51.000Z</time>
        <extensions>
          <ns3:TrackPointExtension>
            <ns3:hr>109</ns3:hr>
            <ns3:cad>41</ns3:cad>
          </ns3:TrackPointExtension>
        </extensions>
      </trkpt>
      <trkpt lat="37.777227871119976043701171875" lon="-107.69806643016636371612548828125">
        <ele>3985</ele>
        <time>2023-07-29T15:25:52.000Z</time>
        <extensions>
          <ns3:TrackPointExtension>
            <ns3:hr>109</ns3:hr>
            <ns3:cad>41</ns3:cad>
          </ns3:TrackPointExtension>
        </extensions>
      </trkpt>
      <trkpt lat="37.77722728438675403594970703125" lon="-107.6980591379106044769287109375">
        <ele>3985.199951171875</ele>
        <time>2023-07-29T15:25:53.000Z</time>
        <extensions>
          <ns3:TrackPointExtension>
            <ns3:hr>110</ns3:hr>
            <ns3:cad>41</ns3:cad>
          </ns3:TrackPointExtension>
        </extensions>
      </trkpt>
      <trkpt lat="37.77722619473934173583984375" lon="-107.69804363138973712921142578125">
        <ele>3985.199951171875</ele>
        <time>2023-07-29T15:25:54.000Z</time>
        <extensions>
          <ns3:TrackPointExtension>
            <ns3:hr>110</ns3:hr>
            <ns3:cad>0</ns3:cad>
          </ns3:TrackPointExtension>
        </extensions>
      </trkpt>
      <trkpt lat="37.777225859463214874267578125" lon="-107.69803424365818500518798828125">
        <ele>3985.199951171875</ele>
        <time>2023-07-29T15:25:55.000Z</time>
        <extensions>
          <ns3:TrackPointExtension>
            <ns3:hr>110</ns3:hr>
            <ns3:cad>0</ns3:cad>
          </ns3:TrackPointExtension>
        </extensions>
      </trkpt>
      <trkpt lat="37.77722594328224658966064453125" lon="-107.6980246044695377349853515625">
        <ele>3985.199951171875</ele>
        <time>2023-07-29T15:25:56.000Z</time>
        <extensions>
          <ns3:TrackPointExtension>
            <ns3:hr>110</ns3:hr>
            <ns3:cad>0</ns3:cad>
          </ns3:TrackPointExtension>
        </extensions>
      </trkpt>
      <trkpt lat="37.77722761966288089752197265625" lon="-107.69801546819508075714111328125">
        <ele>3985.199951171875</ele>
        <time>2023-07-29T15:25:57.000Z</time>
        <extensions>
          <ns3:TrackPointExtension>
            <ns3:hr>109</ns3:hr>
            <ns3:cad>0</ns3:cad>
          </ns3:TrackPointExtension>
        </extensions>
      </trkpt>
      <trkpt lat="37.77722812257707118988037109375" lon="-107.69800289534032344818115234375">
        <ele>3985</ele>
        <time>2023-07-29T15:25:58.000Z</time>
        <extensions>
          <ns3:TrackPointExtension>
            <ns3:hr>107</ns3:hr>
            <ns3:cad>0</ns3:cad>
          </ns3:TrackPointExtension>
        </extensions>
      </trkpt>
      <trkpt lat="37.7772270329296588897705078125" lon="-107.69798780791461467742919921875">
        <ele>3985</ele>
        <time>2023-07-29T15:25:59.000Z</time>
        <extensions>
          <ns3:TrackPointExtension>
            <ns3:hr>106</ns3:hr>
            <ns3:cad>0</ns3:cad>
          </ns3:TrackPointExtension>
        </extensions>
      </trkpt>
      <trkpt lat="37.77722753584384918212890625" lon="-107.69797959364950656890869140625">
        <ele>3985</ele>
        <time>2023-07-29T15:26:00.000Z</time>
        <extensions>
          <ns3:TrackPointExtension>
            <ns3:hr>106</ns3:hr>
            <ns3:cad>0</ns3:cad>
          </ns3:TrackPointExtension>
        </extensions>
      </trkpt>
      <trkpt lat="37.777226530015468597412109375" lon="-107.69796400330960750579833984375">
        <ele>3985</ele>
        <time>2023-07-29T15:26:01.000Z</time>
        <extensions>
          <ns3:TrackPointExtension>
            <ns3:hr>105</ns3:hr>
            <ns3:cad>0</ns3:cad>
          </ns3:TrackPointExtension>
        </extensions>
      </trkpt>
      <trkpt lat="37.7772240154445171356201171875" lon="-107.6979518495500087738037109375">
        <ele>3985</ele>
        <time>2023-07-29T15:26:02.000Z</time>
        <extensions>
          <ns3:TrackPointExtension>
            <ns3:hr>105</ns3:hr>
            <ns3:cad>0</ns3:cad>
          </ns3:TrackPointExtension>
        </extensions>
      </trkpt>
      <trkpt lat="37.777222506701946258544921875" lon="-107.69793592393398284912109375">
        <ele>3985</ele>
        <time>2023-07-29T15:26:03.000Z</time>
        <extensions>
          <ns3:TrackPointExtension>
            <ns3:hr>105</ns3:hr>
            <ns3:cad>0</ns3:cad>
          </ns3:TrackPointExtension>
        </extensions>
      </trkpt>
      <trkpt lat="37.77721814811229705810546875" lon="-107.6979263685643672943115234375">
        <ele>3985</ele>
        <time>2023-07-29T15:26:04.000Z</time>
        <extensions>
          <ns3:TrackPointExtension>
            <ns3:hr>105</ns3:hr>
            <ns3:cad>0</ns3:cad>
          </ns3:TrackPointExtension>
        </extensions>
      </trkpt>
      <trkpt lat="37.77721504680812358856201171875" lon="-107.69791421480476856231689453125">
        <ele>3985</ele>
        <time>2023-07-29T15:26:05.000Z</time>
        <extensions>
          <ns3:TrackPointExtension>
            <ns3:hr>105</ns3:hr>
            <ns3:cad>0</ns3:cad>
          </ns3:TrackPointExtension>
        </extensions>
      </trkpt>
      <trkpt lat="37.77721001766622066497802734375" lon="-107.69790147431194782257080078125">
        <ele>3985</ele>
        <time>2023-07-29T15:26:06.000Z</time>
        <extensions>
          <ns3:TrackPointExtension>
            <ns3:hr>104</ns3:hr>
            <ns3:cad>0</ns3:cad>
          </ns3:TrackPointExtension>
        </extensions>
      </trkpt>
      <trkpt lat="37.77720473706722259521484375" lon="-107.697890661656856536865234375">
        <ele>3984.800048828125</ele>
        <time>2023-07-29T15:26:07.000Z</time>
        <extensions>
          <ns3:TrackPointExtension>
            <ns3:hr>104</ns3:hr>
            <ns3:cad>0</ns3:cad>
          </ns3:TrackPointExtension>
        </extensions>
      </trkpt>
      <trkpt lat="37.777200043201446533203125" lon="-107.69787934608757495880126953125">
        <ele>3984.800048828125</ele>
        <time>2023-07-29T15:26:08.000Z</time>
        <extensions>
          <ns3:TrackPointExtension>
            <ns3:hr>104</ns3:hr>
            <ns3:cad>0</ns3:cad>
          </ns3:TrackPointExtension>
        </extensions>
      </trkpt>
      <trkpt lat="37.77719669044017791748046875" lon="-107.69787297584116458892822265625">
        <ele>3984.800048828125</ele>
        <time>2023-07-29T15:26:09.000Z</time>
        <extensions>
          <ns3:TrackPointExtension>
            <ns3:hr>103</ns3:hr>
            <ns3:cad>0</ns3:cad>
          </ns3:TrackPointExtension>
        </extensions>
      </trkpt>
      <trkpt lat="37.7771935053169727325439453125" lon="-107.6978727243840694427490234375">
        <ele>3984.800048828125</ele>
        <time>2023-07-29T15:26:10.000Z</time>
        <extensions>
          <ns3:TrackPointExtension>
            <ns3:hr>103</ns3:hr>
            <ns3:cad>0</ns3:cad>
          </ns3:TrackPointExtension>
        </extensions>
      </trkpt>
      <trkpt lat="37.7771904878318309783935546875" lon="-107.69787129946053028106689453125">
        <ele>3984.60009765625</ele>
        <time>2023-07-29T15:26:11.000Z</time>
        <extensions>
          <ns3:TrackPointExtension>
            <ns3:hr>102</ns3:hr>
            <ns3:cad>0</ns3:cad>
          </ns3:TrackPointExtension>
        </extensions>
      </trkpt>
      <trkpt lat="37.7771908231079578399658203125" lon="-107.69786828197538852691650390625">
        <ele>3984.39990234375</ele>
        <time>2023-07-29T15:26:12.000Z</time>
        <extensions>
          <ns3:TrackPointExtension>
            <ns3:hr>101</ns3:hr>
            <ns3:cad>0</ns3:cad>
          </ns3:TrackPointExtension>
        </extensions>
      </trkpt>
      <trkpt lat="37.777193002402782440185546875" lon="-107.69786484539508819580078125">
        <ele>3984.39990234375</ele>
        <time>2023-07-29T15:26:13.000Z</time>
        <extensions>
          <ns3:TrackPointExtension>
            <ns3:hr>101</ns3:hr>
            <ns3:cad>0</ns3:cad>
          </ns3:TrackPointExtension>
        </extensions>
      </trkpt>
      <trkpt lat="37.7771965228021144866943359375" lon="-107.6978586427867412567138671875">
        <ele>3984.39990234375</ele>
        <time>2023-07-29T15:26:14.000Z</time>
        <extensions>
          <ns3:TrackPointExtension>
            <ns3:hr>101</ns3:hr>
            <ns3:cad>0</ns3:cad>
          </ns3:TrackPointExtension>
        </extensions>
      </trkpt>
      <trkpt lat="37.77719778008759021759033203125" lon="-107.697845399379730224609375">
        <ele>3984.199951171875</ele>
        <time>2023-07-29T15:26:15.000Z</time>
        <extensions>
          <ns3:TrackPointExtension>
            <ns3:hr>101</ns3:hr>
            <ns3:cad>0</ns3:cad>
          </ns3:TrackPointExtension>
        </extensions>
      </trkpt>
      <trkpt lat="37.777199707925319671630859375" lon="-107.6978321559727191925048828125">
        <ele>3984.199951171875</ele>
        <time>2023-07-29T15:26:16.000Z</time>
        <extensions>
          <ns3:TrackPointExtension>
            <ns3:hr>101</ns3:hr>
            <ns3:cad>0</ns3:cad>
          </ns3:TrackPointExtension>
        </extensions>
      </trkpt>
      <trkpt lat="37.77719895355403423309326171875" lon="-107.69781581126153469085693359375">
        <ele>3984.199951171875</ele>
        <time>2023-07-29T15:26:17.000Z</time>
        <extensions>
          <ns3:TrackPointExtension>
            <ns3:hr>100</ns3:hr>
            <ns3:cad>68</ns3:cad>
          </ns3:TrackPointExtension>
        </extensions>
      </trkpt>
      <trkpt lat="37.77720205485820770263671875" lon="-107.69780910573899745941162109375">
        <ele>3984.199951171875</ele>
        <time>2023-07-29T15:26:18.000Z</time>
        <extensions>
          <ns3:TrackPointExtension>
            <ns3:hr>100</ns3:hr>
            <ns3:cad>68</ns3:cad>
          </ns3:TrackPointExtension>
        </extensions>
      </trkpt>
      <trkpt lat="37.7772028930485248565673828125" lon="-107.6977932639420032501220703125">
        <ele>3984.199951171875</ele>
        <time>2023-07-29T15:26:19.000Z</time>
        <extensions>
          <ns3:TrackPointExtension>
            <ns3:hr>100</ns3:hr>
            <ns3:cad>68</ns3:cad>
          </ns3:TrackPointExtension>
        </extensions>
      </trkpt>
      <trkpt lat="37.77720549143850803375244140625" lon="-107.6977734826505184173583984375">
        <ele>3984.199951171875</ele>
        <time>2023-07-29T15:26:20.000Z</time>
        <extensions>
          <ns3:TrackPointExtension>
            <ns3:hr>100</ns3:hr>
            <ns3:cad>68</ns3:cad>
          </ns3:TrackPointExtension>
        </extensions>
      </trkpt>
      <trkpt lat="37.77720431797206401824951171875" lon="-107.697754204273223876953125">
        <ele>3984.199951171875</ele>
        <time>2023-07-29T15:26:21.000Z</time>
        <extensions>
          <ns3:TrackPointExtension>
            <ns3:hr>100</ns3:hr>
            <ns3:cad>68</ns3:cad>
          </ns3:TrackPointExtension>
        </extensions>
      </trkpt>
      <trkpt lat="37.7772045694291591644287109375" lon="-107.6977407932281494140625">
        <ele>3984.199951171875</ele>
        <time>2023-07-29T15:26:22.000Z</time>
        <extensions>
          <ns3:TrackPointExtension>
            <ns3:hr>99</ns3:hr>
            <ns3:cad>68</ns3:cad>
          </ns3:TrackPointExtension>
        </extensions>
      </trkpt>
      <trkpt lat="37.77720565907657146453857421875" lon="-107.69774054177105426788330078125">
        <ele>3984.199951171875</ele>
        <time>2023-07-29T15:26:23.000Z</time>
        <extensions>
          <ns3:TrackPointExtension>
            <ns3:hr>99</ns3:hr>
            <ns3:cad>0</ns3:cad>
          </ns3:TrackPointExtension>
        </extensions>
      </trkpt>
      <trkpt lat="37.7772055752575397491455078125" lon="-107.6977329142391681671142578125">
        <ele>3984.39990234375</ele>
        <time>2023-07-29T15:26:24.000Z</time>
        <extensions>
          <ns3:TrackPointExtension>
            <ns3:hr>99</ns3:hr>
            <ns3:cad>0</ns3:cad>
          </ns3:TrackPointExtension>
        </extensions>
      </trkpt>
      <trkpt lat="37.7772045694291591644287109375" lon="-107.6977265439927577972412109375">
        <ele>3984.39990234375</ele>
        <time>2023-07-29T15:26:25.000Z</time>
        <extensions>
          <ns3:TrackPointExtension>
            <ns3:hr>98</ns3:hr>
            <ns3:cad>0</ns3:cad>
          </ns3:TrackPointExtension>
        </extensions>
      </trkpt>
      <trkpt lat="37.77720398269593715667724609375" lon="-107.6977188326418399810791015625">
        <ele>3984.39990234375</ele>
        <time>2023-07-29T15:26:26.000Z</time>
        <extensions>
          <ns3:TrackPointExtension>
            <ns3:hr>98</ns3:hr>
            <ns3:cad>0</ns3:cad>
          </ns3:TrackPointExtension>
        </extensions>
      </trkpt>
      <trkpt lat="37.77720515616238117218017578125" lon="-107.69771221093833446502685546875">
        <ele>3984.60009765625</ele>
        <time>2023-07-29T15:26:27.000Z</time>
        <extensions>
          <ns3:TrackPointExtension>
            <ns3:hr>97</ns3:hr>
            <ns3:cad>0</ns3:cad>
          </ns3:TrackPointExtension>
        </extensions>
      </trkpt>
      <trkpt lat="37.77720767073333263397216796875" lon="-107.69769854843616485595703125">
        <ele>3984.60009765625</ele>
        <time>2023-07-29T15:26:28.000Z</time>
        <extensions>
          <ns3:TrackPointExtension>
            <ns3:hr>97</ns3:hr>
            <ns3:cad>0</ns3:cad>
          </ns3:TrackPointExtension>
        </extensions>
      </trkpt>
      <trkpt lat="37.77720767073333263397216796875" lon="-107.69769092090427875518798828125">
        <ele>3984.60009765625</ele>
        <time>2023-07-29T15:26:29.000Z</time>
        <extensions>
          <ns3:TrackPointExtension>
            <ns3:hr>96</ns3:hr>
            <ns3:cad>0</ns3:cad>
          </ns3:TrackPointExtension>
        </extensions>
      </trkpt>
      <trkpt lat="37.77720867656171321868896484375" lon="-107.69768111407756805419921875">
        <ele>3984.60009765625</ele>
        <time>2023-07-29T15:26:30.000Z</time>
        <extensions>
          <ns3:TrackPointExtension>
            <ns3:hr>96</ns3:hr>
            <ns3:cad>0</ns3:cad>
          </ns3:TrackPointExtension>
        </extensions>
      </trkpt>
      <trkpt lat="37.777209766209125518798828125" lon="-107.69767331890761852264404296875">
        <ele>3984.60009765625</ele>
        <time>2023-07-29T15:26:31.000Z</time>
        <extensions>
          <ns3:TrackPointExtension>
            <ns3:hr>97</ns3:hr>
            <ns3:cad>0</ns3:cad>
          </ns3:TrackPointExtension>
        </extensions>
      </trkpt>
      <trkpt lat="37.77720917947590351104736328125" lon="-107.69766108132898807525634765625">
        <ele>3984.60009765625</ele>
        <time>2023-07-29T15:26:32.000Z</time>
        <extensions>
          <ns3:TrackPointExtension>
            <ns3:hr>97</ns3:hr>
            <ns3:cad>0</ns3:cad>
          </ns3:TrackPointExtension>
        </extensions>
      </trkpt>
      <trkpt lat="37.77720876038074493408203125" lon="-107.697652280330657958984375">
        <ele>3984.60009765625</ele>
        <time>2023-07-29T15:26:33.000Z</time>
        <extensions>
          <ns3:TrackPointExtension>
            <ns3:hr>96</ns3:hr>
            <ns3:cad>0</ns3:cad>
          </ns3:TrackPointExtension>
        </extensions>
      </trkpt>
      <trkpt lat="37.77720876038074493408203125" lon="-107.6976450718939304351806640625">
        <ele>3984.800048828125</ele>
        <time>2023-07-29T15:26:34.000Z</time>
        <extensions>
          <ns3:TrackPointExtension>
            <ns3:hr>96</ns3:hr>
            <ns3:cad>0</ns3:cad>
          </ns3:TrackPointExtension>
        </extensions>
      </trkpt>
      <trkpt lat="37.77720884419977664947509765625" lon="-107.6976370252668857574462890625">
        <ele>3984.800048828125</ele>
        <time>2023-07-29T15:26:35.000Z</time>
        <extensions>
          <ns3:TrackPointExtension>
            <ns3:hr>96</ns3:hr>
            <ns3:cad>43</ns3:cad>
          </ns3:TrackPointExtension>
        </extensions>
      </trkpt>
      <trkpt lat="37.77720800600945949554443359375" lon="-107.69762537442147731781005859375">
        <ele>3985</ele>
        <time>2023-07-29T15:26:36.000Z</time>
        <extensions>
          <ns3:TrackPointExtension>
            <ns3:hr>96</ns3:hr>
            <ns3:cad>43</ns3:cad>
          </ns3:TrackPointExtension>
        </extensions>
      </trkpt>
      <trkpt lat="37.77720783837139606475830078125" lon="-107.6976299844682216644287109375">
        <ele>3985</ele>
        <time>2023-07-29T15:26:37.000Z</time>
        <extensions>
          <ns3:TrackPointExtension>
            <ns3:hr>96</ns3:hr>
            <ns3:cad>0</ns3:cad>
          </ns3:TrackPointExtension>
        </extensions>
      </trkpt>
      <trkpt lat="37.77720817364752292633056640625" lon="-107.69762990064918994903564453125">
        <ele>3985.199951171875</ele>
        <time>2023-07-29T15:26:38.000Z</time>
        <extensions>
          <ns3:TrackPointExtension>
            <ns3:hr>96</ns3:hr>
            <ns3:cad>0</ns3:cad>
          </ns3:TrackPointExtension>
        </extensions>
      </trkpt>
      <trkpt lat="37.7772080898284912109375" lon="-107.6976159028708934783935546875">
        <ele>3985.199951171875</ele>
        <time>2023-07-29T15:26:39.000Z</time>
        <extensions>
          <ns3:TrackPointExtension>
            <ns3:hr>96</ns3:hr>
            <ns3:cad>0</ns3:cad>
          </ns3:TrackPointExtension>
        </extensions>
      </trkpt>
      <trkpt lat="37.7772072516381740570068359375" lon="-107.6976038329303264617919921875">
        <ele>3985.199951171875</ele>
        <time>2023-07-29T15:26:40.000Z</time>
        <extensions>
          <ns3:TrackPointExtension>
            <ns3:hr>96</ns3:hr>
            <ns3:cad>0</ns3:cad>
          </ns3:TrackPointExtension>
        </extensions>
      </trkpt>
      <trkpt lat="37.7772067487239837646484375" lon="-107.6975850574672222137451171875">
        <ele>3985.199951171875</ele>
        <time>2023-07-29T15:26:41.000Z</time>
        <extensions>
          <ns3:TrackPointExtension>
            <ns3:hr>97</ns3:hr>
            <ns3:cad>0</ns3:cad>
          </ns3:TrackPointExtension>
        </extensions>
      </trkpt>
      <trkpt lat="37.777206413447856903076171875" lon="-107.69756452180445194244384765625">
        <ele>3985.39990234375</ele>
        <time>2023-07-29T15:26:42.000Z</time>
        <extensions>
          <ns3:TrackPointExtension>
            <ns3:hr>97</ns3:hr>
            <ns3:cad>0</ns3:cad>
          </ns3:TrackPointExtension>
        </extensions>
      </trkpt>
      <trkpt lat="37.77720465324819087982177734375" lon="-107.6975495181977748870849609375">
        <ele>3985.39990234375</ele>
        <time>2023-07-29T15:26:43.000Z</time>
        <extensions>
          <ns3:TrackPointExtension>
            <ns3:hr>98</ns3:hr>
            <ns3:cad>0</ns3:cad>
          </ns3:TrackPointExtension>
        </extensions>
      </trkpt>
      <trkpt lat="37.77720163576304912567138671875" lon="-107.69753669388592243194580078125">
        <ele>3985.39990234375</ele>
        <time>2023-07-29T15:26:44.000Z</time>
        <extensions>
          <ns3:TrackPointExtension>
            <ns3:hr>98</ns3:hr>
            <ns3:cad>0</ns3:cad>
          </ns3:TrackPointExtension>
        </extensions>
      </trkpt>
      <trkpt lat="37.77720029465854167938232421875" lon="-107.69752579741179943084716796875">
        <ele>3985.39990234375</ele>
        <time>2023-07-29T15:26:45.000Z</time>
        <extensions>
          <ns3:TrackPointExtension>
            <ns3:hr>98</ns3:hr>
            <ns3:cad>0</ns3:cad>
          </ns3:TrackPointExtension>
        </extensions>
      </trkpt>
      <trkpt lat="37.77719928883016109466552734375" lon="-107.69752043299376964569091796875">
        <ele>3985.60009765625</ele>
        <time>2023-07-29T15:26:46.000Z</time>
        <extensions>
          <ns3:TrackPointExtension>
            <ns3:hr>98</ns3:hr>
            <ns3:cad>0</ns3:cad>
          </ns3:TrackPointExtension>
        </extensions>
      </trkpt>
      <trkpt lat="37.777197025716304779052734375" lon="-107.69751079380512237548828125">
        <ele>3985.60009765625</ele>
        <time>2023-07-29T15:26:47.000Z</time>
        <extensions>
          <ns3:TrackPointExtension>
            <ns3:hr>99</ns3:hr>
            <ns3:cad>0</ns3:cad>
          </ns3:TrackPointExtension>
        </extensions>
      </trkpt>
      <trkpt lat="37.7771971933543682098388671875" lon="-107.69750216044485569000244140625">
        <ele>3985.60009765625</ele>
        <time>2023-07-29T15:26:48.000Z</time>
        <extensions>
          <ns3:TrackPointExtension>
            <ns3:hr>99</ns3:hr>
            <ns3:cad>0</ns3:cad>
          </ns3:TrackPointExtension>
        </extensions>
      </trkpt>
      <trkpt lat="37.7771971933543682098388671875" lon="-107.6974935270845890045166015625">
        <ele>3985.60009765625</ele>
        <time>2023-07-29T15:26:49.000Z</time>
        <extensions>
          <ns3:TrackPointExtension>
            <ns3:hr>100</ns3:hr>
            <ns3:cad>0</ns3:cad>
          </ns3:TrackPointExtension>
        </extensions>
      </trkpt>
      <trkpt lat="37.77719677425920963287353515625" lon="-107.697480618953704833984375">
        <ele>3985.60009765625</ele>
        <time>2023-07-29T15:26:50.000Z</time>
        <extensions>
          <ns3:TrackPointExtension>
            <ns3:hr>100</ns3:hr>
            <ns3:cad>0</ns3:cad>
          </ns3:TrackPointExtension>
        </extensions>
      </trkpt>
      <trkpt lat="37.77719627134501934051513671875" lon="-107.6974720694124698638916015625">
        <ele>3985.60009765625</ele>
        <time>2023-07-29T15:26:51.000Z</time>
        <extensions>
          <ns3:TrackPointExtension>
            <ns3:hr>100</ns3:hr>
            <ns3:cad>0</ns3:cad>
          </ns3:TrackPointExtension>
        </extensions>
      </trkpt>
      <trkpt lat="37.77719534933567047119140625" lon="-107.69746494479477405548095703125">
        <ele>3985.60009765625</ele>
        <time>2023-07-29T15:26:52.000Z</time>
        <extensions>
          <ns3:TrackPointExtension>
            <ns3:hr>101</ns3:hr>
            <ns3:cad>0</ns3:cad>
          </ns3:TrackPointExtension>
        </extensions>
      </trkpt>
      <trkpt lat="37.77719534933567047119140625" lon="-107.6974516175687313079833984375">
        <ele>3985.60009765625</ele>
        <time>2023-07-29T15:26:53.000Z</time>
        <extensions>
          <ns3:TrackPointExtension>
            <ns3:hr>101</ns3:hr>
            <ns3:cad>0</ns3:cad>
          </ns3:TrackPointExtension>
        </extensions>
      </trkpt>
      <trkpt lat="37.7771951816976070404052734375" lon="-107.697444744408130645751953125">
        <ele>3985.800048828125</ele>
        <time>2023-07-29T15:26:54.000Z</time>
        <extensions>
          <ns3:TrackPointExtension>
            <ns3:hr>101</ns3:hr>
            <ns3:cad>0</ns3:cad>
          </ns3:TrackPointExtension>
        </extensions>
      </trkpt>
      <trkpt lat="37.777193672955036163330078125" lon="-107.69743124954402446746826171875">
        <ele>3985.800048828125</ele>
        <time>2023-07-29T15:26:55.000Z</time>
        <extensions>
          <ns3:TrackPointExtension>
            <ns3:hr>101</ns3:hr>
            <ns3:cad>0</ns3:cad>
          </ns3:TrackPointExtension>
        </extensions>
      </trkpt>
      <trkpt lat="37.77719132602214813232421875" lon="-107.6974301598966121673583984375">
        <ele>3986</ele>
        <time>2023-07-29T15:26:56.000Z</time>
        <extensions>
          <ns3:TrackPointExtension>
            <ns3:hr>101</ns3:hr>
            <ns3:cad>0</ns3:cad>
          </ns3:TrackPointExtension>
        </extensions>
      </trkpt>
      <trkpt lat="37.77718990109860897064208984375" lon="-107.69742622040212154388427734375">
        <ele>3986.199951171875</ele>
        <time>2023-07-29T15:26:57.000Z</time>
        <extensions>
          <ns3:TrackPointExtension>
            <ns3:hr>101</ns3:hr>
            <ns3:cad>0</ns3:cad>
          </ns3:TrackPointExtension>
        </extensions>
      </trkpt>
      <trkpt lat="37.777189649641513824462890625" lon="-107.6974204368889331817626953125">
        <ele>3986.199951171875</ele>
        <time>2023-07-29T15:26:58.000Z</time>
        <extensions>
          <ns3:TrackPointExtension>
            <ns3:hr>101</ns3:hr>
            <ns3:cad>0</ns3:cad>
          </ns3:TrackPointExtension>
        </extensions>
      </trkpt>
      <trkpt lat="37.77718705125153064727783203125" lon="-107.6974097080528736114501953125">
        <ele>3986.199951171875</ele>
        <time>2023-07-29T15:26:59.000Z</time>
        <extensions>
          <ns3:TrackPointExtension>
            <ns3:hr>101</ns3:hr>
            <ns3:cad>0</ns3:cad>
          </ns3:TrackPointExtension>
        </extensions>
      </trkpt>
      <trkpt lat="37.77718369849026203155517578125" lon="-107.6973999850451946258544921875">
        <ele>3986.199951171875</ele>
        <time>2023-07-29T15:27:00.000Z</time>
        <extensions>
          <ns3:TrackPointExtension>
            <ns3:hr>101</ns3:hr>
            <ns3:cad>0</ns3:cad>
          </ns3:TrackPointExtension>
        </extensions>
      </trkpt>
      <trkpt lat="37.77718302793800830841064453125" lon="-107.6973869092762470245361328125">
        <ele>3986.39990234375</ele>
        <time>2023-07-29T15:27:01.000Z</time>
        <extensions>
          <ns3:TrackPointExtension>
            <ns3:hr>102</ns3:hr>
            <ns3:cad>0</ns3:cad>
          </ns3:TrackPointExtension>
        </extensions>
      </trkpt>
      <trkpt lat="37.7771817706525325775146484375" lon="-107.69737844355404376983642578125">
        <ele>3986.39990234375</ele>
        <time>2023-07-29T15:27:02.000Z</time>
        <extensions>
          <ns3:TrackPointExtension>
            <ns3:hr>102</ns3:hr>
            <ns3:cad>0</ns3:cad>
          </ns3:TrackPointExtension>
        </extensions>
      </trkpt>
      <trkpt lat="37.777179591357707977294921875" lon="-107.69737274385988712310791015625">
        <ele>3986.39990234375</ele>
        <time>2023-07-29T15:27:03.000Z</time>
        <extensions>
          <ns3:TrackPointExtension>
            <ns3:hr>102</ns3:hr>
            <ns3:cad>0</ns3:cad>
          </ns3:TrackPointExtension>
        </extensions>
      </trkpt>
      <trkpt lat="37.77717682532966136932373046875" lon="-107.69737291149795055389404296875">
        <ele>3986.39990234375</ele>
        <time>2023-07-29T15:27:04.000Z</time>
        <extensions>
          <ns3:TrackPointExtension>
            <ns3:hr>102</ns3:hr>
            <ns3:cad>0</ns3:cad>
          </ns3:TrackPointExtension>
        </extensions>
      </trkpt>
      <trkpt lat="37.77717447839677333831787109375" lon="-107.69737542606890201568603515625">
        <ele>3986.39990234375</ele>
        <time>2023-07-29T15:27:05.000Z</time>
        <extensions>
          <ns3:TrackPointExtension>
            <ns3:hr>104</ns3:hr>
            <ns3:cad>0</ns3:cad>
          </ns3:TrackPointExtension>
        </extensions>
      </trkpt>
      <trkpt lat="37.7771710418164730072021484375" lon="-107.69736788235604763031005859375">
        <ele>3986.39990234375</ele>
        <time>2023-07-29T15:27:06.000Z</time>
        <extensions>
          <ns3:TrackPointExtension>
            <ns3:hr>105</ns3:hr>
            <ns3:cad>0</ns3:cad>
          </ns3:TrackPointExtension>
        </extensions>
      </trkpt>
      <trkpt lat="37.77716592885553836822509765625" lon="-107.69736201502382755279541015625">
        <ele>3986.39990234375</ele>
        <time>2023-07-29T15:27:07.000Z</time>
        <extensions>
          <ns3:TrackPointExtension>
            <ns3:hr>110</ns3:hr>
            <ns3:cad>0</ns3:cad>
          </ns3:TrackPointExtension>
        </extensions>
      </trkpt>
      <trkpt lat="37.77716006152331829071044921875" lon="-107.697356902062892913818359375">
        <ele>3986.39990234375</ele>
        <time>2023-07-29T15:27:08.000Z</time>
        <extensions>
          <ns3:TrackPointExtension>
            <ns3:hr>112</ns3:hr>
            <ns3:cad>0</ns3:cad>
          </ns3:TrackPointExtension>
        </extensions>
      </trkpt>
      <trkpt lat="37.777156792581081390380859375" lon="-107.69734793342649936676025390625">
        <ele>3986.39990234375</ele>
        <time>2023-07-29T15:27:09.000Z</time>
        <extensions>
          <ns3:TrackPointExtension>
            <ns3:hr>112</ns3:hr>
            <ns3:cad>0</ns3:cad>
          </ns3:TrackPointExtension>
        </extensions>
      </trkpt>
      <trkpt lat="37.77715201489627361297607421875" lon="-107.69734156318008899688720703125">
        <ele>3986.39990234375</ele>
        <time>2023-07-29T15:27:10.000Z</time>
        <extensions>
          <ns3:TrackPointExtension>
            <ns3:hr>112</ns3:hr>
            <ns3:cad>0</ns3:cad>
          </ns3:TrackPointExtension>
        </extensions>
      </trkpt>
      <trkpt lat="37.77714916504919528961181640625" lon="-107.697340808808803558349609375">
        <ele>3986.199951171875</ele>
        <time>2023-07-29T15:27:11.000Z</time>
        <extensions>
          <ns3:TrackPointExtension>
            <ns3:hr>112</ns3:hr>
            <ns3:cad>0</ns3:cad>
          </ns3:TrackPointExtension>
        </extensions>
      </trkpt>
      <trkpt lat="37.77714983560144901275634765625" lon="-107.697337456047534942626953125">
        <ele>3986</ele>
        <time>2023-07-29T15:27:12.000Z</time>
        <extensions>
          <ns3:TrackPointExtension>
            <ns3:hr>112</ns3:hr>
            <ns3:cad>0</ns3:cad>
          </ns3:TrackPointExtension>
        </extensions>
      </trkpt>
      <trkpt lat="37.77714950032532215118408203125" lon="-107.6973305828869342803955078125">
        <ele>3986</ele>
        <time>2023-07-29T15:27:13.000Z</time>
        <extensions>
          <ns3:TrackPointExtension>
            <ns3:hr>112</ns3:hr>
            <ns3:cad>0</ns3:cad>
          </ns3:TrackPointExtension>
        </extensions>
      </trkpt>
      <trkpt lat="37.777144722640514373779296875" lon="-107.6973210275173187255859375">
        <ele>3985.800048828125</ele>
        <time>2023-07-29T15:27:14.000Z</time>
        <extensions>
          <ns3:TrackPointExtension>
            <ns3:hr>112</ns3:hr>
            <ns3:cad>0</ns3:cad>
          </ns3:TrackPointExtension>
        </extensions>
      </trkpt>
      <trkpt lat="37.77714195661246776580810546875" lon="-107.697309292852878570556640625">
        <ele>3985.800048828125</ele>
        <time>2023-07-29T15:27:15.000Z</time>
        <extensions>
          <ns3:TrackPointExtension>
            <ns3:hr>112</ns3:hr>
            <ns3:cad>0</ns3:cad>
          </ns3:TrackPointExtension>
        </extensions>
      </trkpt>
      <trkpt lat="37.7771355025470256805419921875" lon="-107.69729596562683582305908203125">
        <ele>3985.60009765625</ele>
        <time>2023-07-29T15:27:16.000Z</time>
        <extensions>
          <ns3:TrackPointExtension>
            <ns3:hr>112</ns3:hr>
            <ns3:cad>0</ns3:cad>
          </ns3:TrackPointExtension>
        </extensions>
      </trkpt>
      <trkpt lat="37.77713173069059848785400390625" lon="-107.6972839795053005218505859375">
        <ele>3985.39990234375</ele>
        <time>2023-07-29T15:27:17.000Z</time>
        <extensions>
          <ns3:TrackPointExtension>
            <ns3:hr>112</ns3:hr>
            <ns3:cad>0</ns3:cad>
          </ns3:TrackPointExtension>
        </extensions>
      </trkpt>
      <trkpt lat="37.77712435461580753326416015625" lon="-107.69726394675672054290771484375">
        <ele>3985.199951171875</ele>
        <time>2023-07-29T15:27:18.000Z</time>
        <extensions>
          <ns3:TrackPointExtension>
            <ns3:hr>111</ns3:hr>
            <ns3:cad>0</ns3:cad>
          </ns3:TrackPointExtension>
        </extensions>
      </trkpt>
      <trkpt lat="37.77711748145520687103271484375" lon="-107.6972447521984577178955078125">
        <ele>3985</ele>
        <time>2023-07-29T15:27:19.000Z</time>
        <extensions>
          <ns3:TrackPointExtension>
            <ns3:hr>111</ns3:hr>
            <ns3:cad>0</ns3:cad>
          </ns3:TrackPointExtension>
        </extensions>
      </trkpt>
      <trkpt lat="37.77711354196071624755859375" lon="-107.69723360426723957061767578125">
        <ele>3985</ele>
        <time>2023-07-29T15:27:20.000Z</time>
        <extensions>
          <ns3:TrackPointExtension>
            <ns3:hr>112</ns3:hr>
            <ns3:cad>0</ns3:cad>
          </ns3:TrackPointExtension>
        </extensions>
      </trkpt>
      <trkpt lat="37.77711362577974796295166015625" lon="-107.6972266472876071929931640625">
        <ele>3984.800048828125</ele>
        <time>2023-07-29T15:27:21.000Z</time>
        <extensions>
          <ns3:TrackPointExtension>
            <ns3:hr>112</ns3:hr>
            <ns3:cad>0</ns3:cad>
          </ns3:TrackPointExtension>
        </extensions>
      </trkpt>
      <trkpt lat="37.77711194939911365509033203125" lon="-107.69721164368093013763427734375">
        <ele>3984.800048828125</ele>
        <time>2023-07-29T15:27:22.000Z</time>
        <extensions>
          <ns3:TrackPointExtension>
            <ns3:hr>112</ns3:hr>
            <ns3:cad>0</ns3:cad>
          </ns3:TrackPointExtension>
        </extensions>
      </trkpt>
      <trkpt lat="37.77710926719009876251220703125" lon="-107.69719135947525501251220703125">
        <ele>3984.800048828125</ele>
        <time>2023-07-29T15:27:23.000Z</time>
        <extensions>
          <ns3:TrackPointExtension>
            <ns3:hr>111</ns3:hr>
            <ns3:cad>0</ns3:cad>
          </ns3:TrackPointExtension>
        </extensions>
      </trkpt>
      <trkpt lat="37.77710792608559131622314453125" lon="-107.697172500193119049072265625">
        <ele>3984.800048828125</ele>
        <time>2023-07-29T15:27:24.000Z</time>
        <extensions>
          <ns3:TrackPointExtension>
            <ns3:hr>109</ns3:hr>
            <ns3:cad>0</ns3:cad>
          </ns3:TrackPointExtension>
        </extensions>
      </trkpt>
      <trkpt lat="37.77710809372365474700927734375" lon="-107.69716210663318634033203125">
        <ele>3984.60009765625</ele>
        <time>2023-07-29T15:27:25.000Z</time>
        <extensions>
          <ns3:TrackPointExtension>
            <ns3:hr>107</ns3:hr>
            <ns3:cad>0</ns3:cad>
          </ns3:TrackPointExtension>
        </extensions>
      </trkpt>
      <trkpt lat="37.777106501162052154541015625" lon="-107.69715330563485622406005859375">
        <ele>3984.60009765625</ele>
        <time>2023-07-29T15:27:26.000Z</time>
        <extensions>
          <ns3:TrackPointExtension>
            <ns3:hr>106</ns3:hr>
            <ns3:cad>0</ns3:cad>
          </ns3:TrackPointExtension>
        </extensions>
      </trkpt>
      <trkpt lat="37.77710457332432270050048828125" lon="-107.69714257679879665374755859375">
        <ele>3984.60009765625</ele>
        <time>2023-07-29T15:27:27.000Z</time>
        <extensions>
          <ns3:TrackPointExtension>
            <ns3:hr>105</ns3:hr>
            <ns3:cad>0</ns3:cad>
          </ns3:TrackPointExtension>
        </extensions>
      </trkpt>
      <trkpt lat="37.77710457332432270050048828125" lon="-107.6971279084682464599609375">
        <ele>3984.60009765625</ele>
        <time>2023-07-29T15:27:28.000Z</time>
        <extensions>
          <ns3:TrackPointExtension>
            <ns3:hr>104</ns3:hr>
            <ns3:cad>0</ns3:cad>
          </ns3:TrackPointExtension>
        </extensions>
      </trkpt>
      <trkpt lat="37.7771029807627201080322265625" lon="-107.697118856012821197509765625">
        <ele>3984.60009765625</ele>
        <time>2023-07-29T15:27:29.000Z</time>
        <extensions>
          <ns3:TrackPointExtension>
            <ns3:hr>104</ns3:hr>
            <ns3:cad>0</ns3:cad>
          </ns3:TrackPointExtension>
        </extensions>
      </trkpt>
      <trkpt lat="37.77710222639143466949462890625" lon="-107.69710502587258815765380859375">
        <ele>3984.60009765625</ele>
        <time>2023-07-29T15:27:30.000Z</time>
        <extensions>
          <ns3:TrackPointExtension>
            <ns3:hr>103</ns3:hr>
            <ns3:cad>0</ns3:cad>
          </ns3:TrackPointExtension>
        </extensions>
      </trkpt>
      <trkpt lat="37.77710013091564178466796875" lon="-107.6970930397510528564453125">
        <ele>3984.60009765625</ele>
        <time>2023-07-29T15:27:31.000Z</time>
        <extensions>
          <ns3:TrackPointExtension>
            <ns3:hr>103</ns3:hr>
            <ns3:cad>0</ns3:cad>
          </ns3:TrackPointExtension>
        </extensions>
      </trkpt>
      <trkpt lat="37.7770982868969440460205078125" lon="-107.69708172418177127838134765625">
        <ele>3984.60009765625</ele>
        <time>2023-07-29T15:27:32.000Z</time>
        <extensions>
          <ns3:TrackPointExtension>
            <ns3:hr>102</ns3:hr>
            <ns3:cad>0</ns3:cad>
          </ns3:TrackPointExtension>
        </extensions>
      </trkpt>
      <trkpt lat="37.7770962752401828765869140625" lon="-107.69707216881215572357177734375">
        <ele>3984.60009765625</ele>
        <time>2023-07-29T15:27:33.000Z</time>
        <extensions>
          <ns3:TrackPointExtension>
            <ns3:hr>102</ns3:hr>
            <ns3:cad>0</ns3:cad>
          </ns3:TrackPointExtension>
        </extensions>
      </trkpt>
      <trkpt lat="37.77709384448826313018798828125" lon="-107.6970630325376987457275390625">
        <ele>3984.60009765625</ele>
        <time>2023-07-29T15:27:34.000Z</time>
        <extensions>
          <ns3:TrackPointExtension>
            <ns3:hr>102</ns3:hr>
            <ns3:cad>0</ns3:cad>
          </ns3:TrackPointExtension>
        </extensions>
      </trkpt>
      <trkpt lat="37.77709401212632656097412109375" lon="-107.69705976359546184539794921875">
        <ele>3984.39990234375</ele>
        <time>2023-07-29T15:27:35.000Z</time>
        <extensions>
          <ns3:TrackPointExtension>
            <ns3:hr>102</ns3:hr>
            <ns3:cad>0</ns3:cad>
          </ns3:TrackPointExtension>
        </extensions>
      </trkpt>
      <trkpt lat="37.7770914137363433837890625" lon="-107.697051130235195159912109375">
        <ele>3984.39990234375</ele>
        <time>2023-07-29T15:27:36.000Z</time>
        <extensions>
          <ns3:TrackPointExtension>
            <ns3:hr>102</ns3:hr>
            <ns3:cad>0</ns3:cad>
          </ns3:TrackPointExtension>
        </extensions>
      </trkpt>
      <trkpt lat="37.77708948589861392974853515625" lon="-107.69704601727426052093505859375">
        <ele>3984.199951171875</ele>
        <time>2023-07-29T15:27:37.000Z</time>
        <extensions>
          <ns3:TrackPointExtension>
            <ns3:hr>102</ns3:hr>
            <ns3:cad>0</ns3:cad>
          </ns3:TrackPointExtension>
        </extensions>
      </trkpt>
      <trkpt lat="37.77708713896572589874267578125" lon="-107.69703746773302555084228515625">
        <ele>3984.199951171875</ele>
        <time>2023-07-29T15:27:38.000Z</time>
        <extensions>
          <ns3:TrackPointExtension>
            <ns3:hr>102</ns3:hr>
            <ns3:cad>0</ns3:cad>
          </ns3:TrackPointExtension>
        </extensions>
      </trkpt>
      <trkpt lat="37.77708110399544239044189453125" lon="-107.6970217935740947723388671875">
        <ele>3984.199951171875</ele>
        <time>2023-07-29T15:27:39.000Z</time>
        <extensions>
          <ns3:TrackPointExtension>
            <ns3:hr>102</ns3:hr>
            <ns3:cad>0</ns3:cad>
          </ns3:TrackPointExtension>
        </extensions>
      </trkpt>
      <trkpt lat="37.7770753204822540283203125" lon="-107.69701047800481319427490234375">
        <ele>3984</ele>
        <time>2023-07-29T15:27:40.000Z</time>
        <extensions>
          <ns3:TrackPointExtension>
            <ns3:hr>102</ns3:hr>
            <ns3:cad>0</ns3:cad>
          </ns3:TrackPointExtension>
        </extensions>
      </trkpt>
      <trkpt lat="37.77706903405487537384033203125" lon="-107.697002179920673370361328125">
        <ele>3983.800048828125</ele>
        <time>2023-07-29T15:27:41.000Z</time>
        <extensions>
          <ns3:TrackPointExtension>
            <ns3:hr>102</ns3:hr>
            <ns3:cad>0</ns3:cad>
          </ns3:TrackPointExtension>
        </extensions>
      </trkpt>
      <trkpt lat="37.77706350199878215789794921875" lon="-107.696991451084613800048828125">
        <ele>3983.800048828125</ele>
        <time>2023-07-29T15:27:42.000Z</time>
        <extensions>
          <ns3:TrackPointExtension>
            <ns3:hr>102</ns3:hr>
            <ns3:cad>0</ns3:cad>
          </ns3:TrackPointExtension>
        </extensions>
      </trkpt>
      <trkpt lat="37.77705763466656208038330078125" lon="-107.69697074778378009796142578125">
        <ele>3983.800048828125</ele>
        <time>2023-07-29T15:27:43.000Z</time>
        <extensions>
          <ns3:TrackPointExtension>
            <ns3:hr>101</ns3:hr>
            <ns3:cad>0</ns3:cad>
          </ns3:TrackPointExtension>
        </extensions>
      </trkpt>
      <trkpt lat="37.77705411426723003387451171875" lon="-107.69695851020514965057373046875">
        <ele>3983.60009765625</ele>
        <time>2023-07-29T15:27:44.000Z</time>
        <extensions>
          <ns3:TrackPointExtension>
            <ns3:hr>102</ns3:hr>
            <ns3:cad>0</ns3:cad>
          </ns3:TrackPointExtension>
        </extensions>
      </trkpt>
      <trkpt lat="37.777049839496612548828125" lon="-107.696943171322345733642578125">
        <ele>3983.39990234375</ele>
        <time>2023-07-29T15:27:45.000Z</time>
        <extensions>
          <ns3:TrackPointExtension>
            <ns3:hr>102</ns3:hr>
            <ns3:cad>0</ns3:cad>
          </ns3:TrackPointExtension>
        </extensions>
      </trkpt>
      <trkpt lat="37.777046822011470794677734375" lon="-107.69693001173436641693115234375">
        <ele>3983.39990234375</ele>
        <time>2023-07-29T15:27:46.000Z</time>
        <extensions>
          <ns3:TrackPointExtension>
            <ns3:hr>102</ns3:hr>
            <ns3:cad>17</ns3:cad>
          </ns3:TrackPointExtension>
        </extensions>
      </trkpt>
      <trkpt lat="37.777046151459217071533203125" lon="-107.6969178579747676849365234375">
        <ele>3983.199951171875</ele>
        <time>2023-07-29T15:27:47.000Z</time>
        <extensions>
          <ns3:TrackPointExtension>
            <ns3:hr>102</ns3:hr>
            <ns3:cad>17</ns3:cad>
          </ns3:TrackPointExtension>
        </extensions>
      </trkpt>
      <trkpt lat="37.77704455889761447906494140625" lon="-107.6969034411013126373291015625">
        <ele>3983</ele>
        <time>2023-07-29T15:27:48.000Z</time>
        <extensions>
          <ns3:TrackPointExtension>
            <ns3:hr>102</ns3:hr>
            <ns3:cad>17</ns3:cad>
          </ns3:TrackPointExtension>
        </extensions>
      </trkpt>
      <trkpt lat="37.77704305015504360198974609375" lon="-107.696888856589794158935546875">
        <ele>3983</ele>
        <time>2023-07-29T15:27:49.000Z</time>
        <extensions>
          <ns3:TrackPointExtension>
            <ns3:hr>102</ns3:hr>
            <ns3:cad>55</ns3:cad>
          </ns3:TrackPointExtension>
        </extensions>
      </trkpt>
      <trkpt lat="37.77704405598342418670654296875" lon="-107.6968705840408802032470703125">
        <ele>3983</ele>
        <time>2023-07-29T15:27:50.000Z</time>
        <extensions>
          <ns3:TrackPointExtension>
            <ns3:hr>102</ns3:hr>
            <ns3:cad>55</ns3:cad>
          </ns3:TrackPointExtension>
        </extensions>
      </trkpt>
      <trkpt lat="37.77704388834536075592041015625" lon="-107.6968531496822834014892578125">
        <ele>3983</ele>
        <time>2023-07-29T15:27:51.000Z</time>
        <extensions>
          <ns3:TrackPointExtension>
            <ns3:hr>102</ns3:hr>
            <ns3:cad>0</ns3:cad>
          </ns3:TrackPointExtension>
        </extensions>
      </trkpt>
      <trkpt lat="37.7770449779927730560302734375" lon="-107.696841917932033538818359375">
        <ele>3983</ele>
        <time>2023-07-29T15:27:52.000Z</time>
        <extensions>
          <ns3:TrackPointExtension>
            <ns3:hr>102</ns3:hr>
            <ns3:cad>0</ns3:cad>
          </ns3:TrackPointExtension>
        </extensions>
      </trkpt>
      <trkpt lat="37.777043469250202178955078125" lon="-107.6968353800475597381591796875">
        <ele>3983</ele>
        <time>2023-07-29T15:27:53.000Z</time>
        <extensions>
          <ns3:TrackPointExtension>
            <ns3:hr>103</ns3:hr>
            <ns3:cad>0</ns3:cad>
          </ns3:TrackPointExtension>
        </extensions>
      </trkpt>
      <trkpt lat="37.77704573236405849456787109375" lon="-107.69682222045958042144775390625">
        <ele>3983</ele>
        <time>2023-07-29T15:27:54.000Z</time>
        <extensions>
          <ns3:TrackPointExtension>
            <ns3:hr>104</ns3:hr>
            <ns3:cad>0</ns3:cad>
          </ns3:TrackPointExtension>
        </extensions>
      </trkpt>
      <trkpt lat="37.777043469250202178955078125" lon="-107.696805708110332489013671875">
        <ele>3983</ele>
        <time>2023-07-29T15:27:55.000Z</time>
        <extensions>
          <ns3:TrackPointExtension>
            <ns3:hr>105</ns3:hr>
            <ns3:cad>0</ns3:cad>
          </ns3:TrackPointExtension>
        </extensions>
      </trkpt>
      <trkpt lat="37.7770422957837581634521484375" lon="-107.6967968232929706573486328125">
        <ele>3983</ele>
        <time>2023-07-29T15:27:56.000Z</time>
        <extensions>
          <ns3:TrackPointExtension>
            <ns3:hr>106</ns3:hr>
            <ns3:cad>44</ns3:cad>
          </ns3:TrackPointExtension>
        </extensions>
      </trkpt>
      <trkpt lat="37.77704103849828243255615234375" lon="-107.696784250438213348388671875">
        <ele>3982.800048828125</ele>
        <time>2023-07-29T15:27:57.000Z</time>
        <extensions>
          <ns3:TrackPointExtension>
            <ns3:hr>107</ns3:hr>
            <ns3:cad>44</ns3:cad>
          </ns3:TrackPointExtension>
        </extensions>
      </trkpt>
      <trkpt lat="37.777037434279918670654296875" lon="-107.6967803947627544403076171875">
        <ele>3982.800048828125</ele>
        <time>2023-07-29T15:27:58.000Z</time>
        <extensions>
          <ns3:TrackPointExtension>
            <ns3:hr>107</ns3:hr>
            <ns3:cad>44</ns3:cad>
          </ns3:TrackPointExtension>
        </extensions>
      </trkpt>
      <trkpt lat="37.77703383006155490875244140625" lon="-107.6967720128595829010009765625">
        <ele>3982.800048828125</ele>
        <time>2023-07-29T15:27:59.000Z</time>
        <extensions>
          <ns3:TrackPointExtension>
            <ns3:hr>107</ns3:hr>
            <ns3:cad>0</ns3:cad>
          </ns3:TrackPointExtension>
        </extensions>
      </trkpt>
      <trkpt lat="37.77702829800546169281005859375" lon="-107.69675977528095245361328125">
        <ele>3982.800048828125</ele>
        <time>2023-07-29T15:28:00.000Z</time>
        <extensions>
          <ns3:TrackPointExtension>
            <ns3:hr>107</ns3:hr>
            <ns3:cad>0</ns3:cad>
          </ns3:TrackPointExtension>
        </extensions>
      </trkpt>
      <trkpt lat="37.77701891027390956878662109375" lon="-107.69674628041684627532958984375">
        <ele>3982.800048828125</ele>
        <time>2023-07-29T15:28:01.000Z</time>
        <extensions>
          <ns3:TrackPointExtension>
            <ns3:hr>107</ns3:hr>
            <ns3:cad>0</ns3:cad>
          </ns3:TrackPointExtension>
        </extensions>
      </trkpt>
      <trkpt lat="37.77701295912265777587890625" lon="-107.69673555158078670501708984375">
        <ele>3982.60009765625</ele>
        <time>2023-07-29T15:28:02.000Z</time>
        <extensions>
          <ns3:TrackPointExtension>
            <ns3:hr>108</ns3:hr>
            <ns3:cad>0</ns3:cad>
          </ns3:TrackPointExtension>
        </extensions>
      </trkpt>
      <trkpt lat="37.7770097739994525909423828125" lon="-107.6967207156121730804443359375">
        <ele>3982.60009765625</ele>
        <time>2023-07-29T15:28:03.000Z</time>
        <extensions>
          <ns3:TrackPointExtension>
            <ns3:hr>108</ns3:hr>
            <ns3:cad>0</ns3:cad>
          </ns3:TrackPointExtension>
        </extensions>
      </trkpt>
      <trkpt lat="37.777007259428501129150390625" lon="-107.69670956768095493316650390625">
        <ele>3982.199951171875</ele>
        <time>2023-07-29T15:28:04.000Z</time>
        <extensions>
          <ns3:TrackPointExtension>
            <ns3:hr>108</ns3:hr>
            <ns3:cad>0</ns3:cad>
          </ns3:TrackPointExtension>
        </extensions>
      </trkpt>
      <trkpt lat="37.7770037390291690826416015625" lon="-107.6966952346265316009521484375">
        <ele>3982</ele>
        <time>2023-07-29T15:28:05.000Z</time>
        <extensions>
          <ns3:TrackPointExtension>
            <ns3:hr>108</ns3:hr>
            <ns3:cad>0</ns3:cad>
          </ns3:TrackPointExtension>
        </extensions>
      </trkpt>
      <trkpt lat="37.77699711732566356658935546875" lon="-107.69667637534439563751220703125">
        <ele>3981.800048828125</ele>
        <time>2023-07-29T15:28:06.000Z</time>
        <extensions>
          <ns3:TrackPointExtension>
            <ns3:hr>107</ns3:hr>
            <ns3:cad>0</ns3:cad>
          </ns3:TrackPointExtension>
        </extensions>
      </trkpt>
      <trkpt lat="37.77699124999344348907470703125" lon="-107.696663551032543182373046875">
        <ele>3981.60009765625</ele>
        <time>2023-07-29T15:28:07.000Z</time>
        <extensions>
          <ns3:TrackPointExtension>
            <ns3:hr>107</ns3:hr>
            <ns3:cad>0</ns3:cad>
          </ns3:TrackPointExtension>
        </extensions>
      </trkpt>
      <trkpt lat="37.7769873104989528656005859375" lon="-107.6966529898345470428466796875">
        <ele>3981.60009765625</ele>
        <time>2023-07-29T15:28:08.000Z</time>
        <extensions>
          <ns3:TrackPointExtension>
            <ns3:hr>107</ns3:hr>
            <ns3:cad>0</ns3:cad>
          </ns3:TrackPointExtension>
        </extensions>
      </trkpt>
      <trkpt lat="37.77698672376573085784912109375" lon="-107.696648798882961273193359375">
        <ele>3981.60009765625</ele>
        <time>2023-07-29T15:28:09.000Z</time>
        <extensions>
          <ns3:TrackPointExtension>
            <ns3:hr>106</ns3:hr>
            <ns3:cad>0</ns3:cad>
          </ns3:TrackPointExtension>
        </extensions>
      </trkpt>
      <trkpt lat="37.77698236517608165740966796875" lon="-107.69663580693304538726806640625">
        <ele>3981.39990234375</ele>
        <time>2023-07-29T15:28:10.000Z</time>
        <extensions>
          <ns3:TrackPointExtension>
            <ns3:hr>106</ns3:hr>
            <ns3:cad>0</ns3:cad>
          </ns3:TrackPointExtension>
        </extensions>
      </trkpt>
      <trkpt lat="37.7769779227674007415771484375" lon="-107.6966211386024951934814453125">
        <ele>3981.39990234375</ele>
        <time>2023-07-29T15:28:11.000Z</time>
        <extensions>
          <ns3:TrackPointExtension>
            <ns3:hr>105</ns3:hr>
            <ns3:cad>0</ns3:cad>
          </ns3:TrackPointExtension>
        </extensions>
      </trkpt>
      <trkpt lat="37.77697138488292694091796875" lon="-107.6965995132923126220703125">
        <ele>3981.39990234375</ele>
        <time>2023-07-29T15:28:12.000Z</time>
        <extensions>
          <ns3:TrackPointExtension>
            <ns3:hr>105</ns3:hr>
            <ns3:cad>0</ns3:cad>
          </ns3:TrackPointExtension>
        </extensions>
      </trkpt>
      <trkpt lat="37.77696727775037288665771484375" lon="-107.6965849287807941436767578125">
        <ele>3981.199951171875</ele>
        <time>2023-07-29T15:28:13.000Z</time>
        <extensions>
          <ns3:TrackPointExtension>
            <ns3:hr>104</ns3:hr>
            <ns3:cad>0</ns3:cad>
          </ns3:TrackPointExtension>
        </extensions>
      </trkpt>
      <trkpt lat="37.776964008808135986328125" lon="-107.69656791351735591888427734375">
        <ele>3981.199951171875</ele>
        <time>2023-07-29T15:28:14.000Z</time>
        <extensions>
          <ns3:TrackPointExtension>
            <ns3:hr>103</ns3:hr>
            <ns3:cad>0</ns3:cad>
          </ns3:TrackPointExtension>
        </extensions>
      </trkpt>
      <trkpt lat="37.77695923112332820892333984375" lon="-107.6965565979480743408203125">
        <ele>3981</ele>
        <time>2023-07-29T15:28:15.000Z</time>
        <extensions>
          <ns3:TrackPointExtension>
            <ns3:hr>102</ns3:hr>
            <ns3:cad>0</ns3:cad>
          </ns3:TrackPointExtension>
        </extensions>
      </trkpt>
      <trkpt lat="37.77695587836205959320068359375" lon="-107.69655399955809116363525390625">
        <ele>3980.800048828125</ele>
        <time>2023-07-29T15:28:16.000Z</time>
        <extensions>
          <ns3:TrackPointExtension>
            <ns3:hr>102</ns3:hr>
            <ns3:cad>0</ns3:cad>
          </ns3:TrackPointExtension>
        </extensions>
      </trkpt>
      <trkpt lat="37.776952274143695831298828125" lon="-107.69654385745525360107421875">
        <ele>3980.800048828125</ele>
        <time>2023-07-29T15:28:17.000Z</time>
        <extensions>
          <ns3:TrackPointExtension>
            <ns3:hr>102</ns3:hr>
            <ns3:cad>0</ns3:cad>
          </ns3:TrackPointExtension>
        </extensions>
      </trkpt>
      <trkpt lat="37.776949591934680938720703125" lon="-107.6965353079140186309814453125">
        <ele>3980.60009765625</ele>
        <time>2023-07-29T15:28:18.000Z</time>
        <extensions>
          <ns3:TrackPointExtension>
            <ns3:hr>102</ns3:hr>
            <ns3:cad>0</ns3:cad>
          </ns3:TrackPointExtension>
        </extensions>
      </trkpt>
      <trkpt lat="37.77694858610630035400390625" lon="-107.69652818329632282257080078125">
        <ele>3980.60009765625</ele>
        <time>2023-07-29T15:28:19.000Z</time>
        <extensions>
          <ns3:TrackPointExtension>
            <ns3:hr>102</ns3:hr>
            <ns3:cad>0</ns3:cad>
          </ns3:TrackPointExtension>
        </extensions>
      </trkpt>
      <trkpt lat="37.7769514359533786773681640625" lon="-107.69652374088764190673828125">
        <ele>3980.60009765625</ele>
        <time>2023-07-29T15:28:20.000Z</time>
        <extensions>
          <ns3:TrackPointExtension>
            <ns3:hr>103</ns3:hr>
            <ns3:cad>0</ns3:cad>
          </ns3:TrackPointExtension>
        </extensions>
      </trkpt>
      <trkpt lat="37.77694590389728546142578125" lon="-107.69651443697512149810791015625">
        <ele>3980.60009765625</ele>
        <time>2023-07-29T15:28:21.000Z</time>
        <extensions>
          <ns3:TrackPointExtension>
            <ns3:hr>104</ns3:hr>
            <ns3:cad>0</ns3:cad>
          </ns3:TrackPointExtension>
        </extensions>
      </trkpt>
      <trkpt lat="37.77694799937307834625244140625" lon="-107.6965182088315486907958984375">
        <ele>3980.39990234375</ele>
        <time>2023-07-29T15:28:22.000Z</time>
        <extensions>
          <ns3:TrackPointExtension>
            <ns3:hr>104</ns3:hr>
            <ns3:cad>0</ns3:cad>
          </ns3:TrackPointExtension>
        </extensions>
      </trkpt>
      <trkpt lat="37.77694724500179290771484375" lon="-107.69651561044156551361083984375">
        <ele>3980.199951171875</ele>
        <time>2023-07-29T15:28:23.000Z</time>
        <extensions>
          <ns3:TrackPointExtension>
            <ns3:hr>104</ns3:hr>
            <ns3:cad>0</ns3:cad>
          </ns3:TrackPointExtension>
        </extensions>
      </trkpt>
      <trkpt lat="37.77694598771631717681884765625" lon="-107.6965168677270412445068359375">
        <ele>3980</ele>
        <time>2023-07-29T15:28:24.000Z</time>
        <extensions>
          <ns3:TrackPointExtension>
            <ns3:hr>104</ns3:hr>
            <ns3:cad>0</ns3:cad>
          </ns3:TrackPointExtension>
        </extensions>
      </trkpt>
      <trkpt lat="37.776939868927001953125" lon="-107.6965081505477428436279296875">
        <ele>3980</ele>
        <time>2023-07-29T15:28:25.000Z</time>
        <extensions>
          <ns3:TrackPointExtension>
            <ns3:hr>103</ns3:hr>
            <ns3:cad>0</ns3:cad>
          </ns3:TrackPointExtension>
        </extensions>
      </trkpt>
      <trkpt lat="37.77693190611898899078369140625" lon="-107.6965027861297130584716796875">
        <ele>3979.800048828125</ele>
        <time>2023-07-29T15:28:26.000Z</time>
        <extensions>
          <ns3:TrackPointExtension>
            <ns3:hr>103</ns3:hr>
            <ns3:cad>0</ns3:cad>
          </ns3:TrackPointExtension>
        </extensions>
      </trkpt>
      <trkpt lat="37.77692352421581745147705078125" lon="-107.69649147056043148040771484375">
        <ele>3979.60009765625</ele>
        <time>2023-07-29T15:28:27.000Z</time>
        <extensions>
          <ns3:TrackPointExtension>
            <ns3:hr>102</ns3:hr>
            <ns3:cad>0</ns3:cad>
          </ns3:TrackPointExtension>
        </extensions>
      </trkpt>
      <trkpt lat="37.7769125439226627349853515625" lon="-107.6964843459427356719970703125">
        <ele>3979.39990234375</ele>
        <time>2023-07-29T15:28:28.000Z</time>
        <extensions>
          <ns3:TrackPointExtension>
            <ns3:hr>102</ns3:hr>
            <ns3:cad>0</ns3:cad>
          </ns3:TrackPointExtension>
        </extensions>
      </trkpt>
      <trkpt lat="37.7769063413143157958984375" lon="-107.69647437147796154022216796875">
        <ele>3979.199951171875</ele>
        <time>2023-07-29T15:28:29.000Z</time>
        <extensions>
          <ns3:TrackPointExtension>
            <ns3:hr>101</ns3:hr>
            <ns3:cad>0</ns3:cad>
          </ns3:TrackPointExtension>
        </extensions>
      </trkpt>
      <trkpt lat="37.776897288858890533447265625" lon="-107.69645928405225276947021484375">
        <ele>3979</ele>
        <time>2023-07-29T15:28:30.000Z</time>
        <extensions>
          <ns3:TrackPointExtension>
            <ns3:hr>100</ns3:hr>
            <ns3:cad>0</ns3:cad>
          </ns3:TrackPointExtension>
        </extensions>
      </trkpt>
      <trkpt lat="37.77688982896506786346435546875" lon="-107.696446292102336883544921875">
        <ele>3979</ele>
        <time>2023-07-29T15:28:31.000Z</time>
        <extensions>
          <ns3:TrackPointExtension>
            <ns3:hr>99</ns3:hr>
            <ns3:cad>51</ns3:cad>
          </ns3:TrackPointExtension>
        </extensions>
      </trkpt>
      <trkpt lat="37.77687910012900829315185546875" lon="-107.69642944447696208953857421875">
        <ele>3978.800048828125</ele>
        <time>2023-07-29T15:28:32.000Z</time>
        <extensions>
          <ns3:TrackPointExtension>
            <ns3:hr>99</ns3:hr>
            <ns3:cad>51</ns3:cad>
          </ns3:TrackPointExtension>
        </extensions>
      </trkpt>
      <trkpt lat="37.77687482535839080810546875" lon="-107.69642005674540996551513671875">
        <ele>3978.39990234375</ele>
        <time>2023-07-29T15:28:33.000Z</time>
        <extensions>
          <ns3:TrackPointExtension>
            <ns3:hr>99</ns3:hr>
            <ns3:cad>51</ns3:cad>
          </ns3:TrackPointExtension>
        </extensions>
      </trkpt>
      <trkpt lat="37.776868455111980438232421875" lon="-107.69640840590000152587890625">
        <ele>3978.39990234375</ele>
        <time>2023-07-29T15:28:34.000Z</time>
        <extensions>
          <ns3:TrackPointExtension>
            <ns3:hr>98</ns3:hr>
            <ns3:cad>51</ns3:cad>
          </ns3:TrackPointExtension>
        </extensions>
      </trkpt>
      <trkpt lat="37.77686585672199726104736328125" lon="-107.69640262238681316375732421875">
        <ele>3978.39990234375</ele>
        <time>2023-07-29T15:28:35.000Z</time>
        <extensions>
          <ns3:TrackPointExtension>
            <ns3:hr>98</ns3:hr>
            <ns3:cad>51</ns3:cad>
          </ns3:TrackPointExtension>
        </extensions>
      </trkpt>
      <trkpt lat="37.77686334215104579925537109375" lon="-107.69639390520751476287841796875">
        <ele>3978.39990234375</ele>
        <time>2023-07-29T15:28:36.000Z</time>
        <extensions>
          <ns3:TrackPointExtension>
            <ns3:hr>98</ns3:hr>
            <ns3:cad>0</ns3:cad>
          </ns3:TrackPointExtension>
        </extensions>
      </trkpt>
      <trkpt lat="37.7768595702946186065673828125" lon="-107.6963810808956623077392578125">
        <ele>3978.39990234375</ele>
        <time>2023-07-29T15:28:37.000Z</time>
        <extensions>
          <ns3:TrackPointExtension>
            <ns3:hr>97</ns3:hr>
            <ns3:cad>0</ns3:cad>
          </ns3:TrackPointExtension>
        </extensions>
      </trkpt>
      <trkpt lat="37.77685395441949367523193359375" lon="-107.69636507146060466766357421875">
        <ele>3978.39990234375</ele>
        <time>2023-07-29T15:28:38.000Z</time>
        <extensions>
          <ns3:TrackPointExtension>
            <ns3:hr>97</ns3:hr>
            <ns3:cad>0</ns3:cad>
          </ns3:TrackPointExtension>
        </extensions>
      </trkpt>
      <trkpt lat="37.7768505178391933441162109375" lon="-107.69635534845292568206787109375">
        <ele>3978.39990234375</ele>
        <time>2023-07-29T15:28:39.000Z</time>
        <extensions>
          <ns3:TrackPointExtension>
            <ns3:hr>97</ns3:hr>
            <ns3:cad>0</ns3:cad>
          </ns3:TrackPointExtension>
        </extensions>
      </trkpt>
      <trkpt lat="37.77684666216373443603515625" lon="-107.69634428434073925018310546875">
        <ele>3978.39990234375</ele>
        <time>2023-07-29T15:28:40.000Z</time>
        <extensions>
          <ns3:TrackPointExtension>
            <ns3:hr>96</ns3:hr>
            <ns3:cad>0</ns3:cad>
          </ns3:TrackPointExtension>
        </extensions>
      </trkpt>
      <trkpt lat="37.776842974126338958740234375" lon="-107.6963328011333942413330078125">
        <ele>3978.39990234375</ele>
        <time>2023-07-29T15:28:41.000Z</time>
        <extensions>
          <ns3:TrackPointExtension>
            <ns3:hr>97</ns3:hr>
            <ns3:cad>0</ns3:cad>
          </ns3:TrackPointExtension>
        </extensions>
      </trkpt>
      <trkpt lat="37.77683819644153118133544921875" lon="-107.6963197253644466400146484375">
        <ele>3978.60009765625</ele>
        <time>2023-07-29T15:28:42.000Z</time>
        <extensions>
          <ns3:TrackPointExtension>
            <ns3:hr>97</ns3:hr>
            <ns3:cad>0</ns3:cad>
          </ns3:TrackPointExtension>
        </extensions>
      </trkpt>
      <trkpt lat="37.77683283202350139617919921875" lon="-107.696304135024547576904296875">
        <ele>3978.60009765625</ele>
        <time>2023-07-29T15:28:43.000Z</time>
        <extensions>
          <ns3:TrackPointExtension>
            <ns3:hr>98</ns3:hr>
            <ns3:cad>0</ns3:cad>
          </ns3:TrackPointExtension>
        </extensions>
      </trkpt>
      <trkpt lat="37.77682847343385219573974609375" lon="-107.696292065083980560302734375">
        <ele>3978.60009765625</ele>
        <time>2023-07-29T15:28:44.000Z</time>
        <extensions>
          <ns3:TrackPointExtension>
            <ns3:hr>100</ns3:hr>
            <ns3:cad>0</ns3:cad>
          </ns3:TrackPointExtension>
        </extensions>
      </trkpt>
      <trkpt lat="37.77682411484420299530029296875" lon="-107.69627639092504978179931640625">
        <ele>3978.800048828125</ele>
        <time>2023-07-29T15:28:45.000Z</time>
        <extensions>
          <ns3:TrackPointExtension>
            <ns3:hr>101</ns3:hr>
            <ns3:cad>0</ns3:cad>
          </ns3:TrackPointExtension>
        </extensions>
      </trkpt>
      <trkpt lat="37.77682193554937839508056640625" lon="-107.6962615549564361572265625">
        <ele>3978.800048828125</ele>
        <time>2023-07-29T15:28:46.000Z</time>
        <extensions>
          <ns3:TrackPointExtension>
            <ns3:hr>102</ns3:hr>
            <ns3:cad>0</ns3:cad>
          </ns3:TrackPointExtension>
        </extensions>
      </trkpt>
      <trkpt lat="37.776819504797458648681640625" lon="-107.696252167224884033203125">
        <ele>3979</ele>
        <time>2023-07-29T15:28:47.000Z</time>
        <extensions>
          <ns3:TrackPointExtension>
            <ns3:hr>104</ns3:hr>
            <ns3:cad>0</ns3:cad>
          </ns3:TrackPointExtension>
        </extensions>
      </trkpt>
      <trkpt lat="37.776816152036190032958984375" lon="-107.69624168984591960906982421875">
        <ele>3979</ele>
        <time>2023-07-29T15:28:48.000Z</time>
        <extensions>
          <ns3:TrackPointExtension>
            <ns3:hr>104</ns3:hr>
            <ns3:cad>0</ns3:cad>
          </ns3:TrackPointExtension>
        </extensions>
      </trkpt>
      <trkpt lat="37.77681841515004634857177734375" lon="-107.6962385885417461395263671875">
        <ele>3979.199951171875</ele>
        <time>2023-07-29T15:28:49.000Z</time>
        <extensions>
          <ns3:TrackPointExtension>
            <ns3:hr>104</ns3:hr>
            <ns3:cad>0</ns3:cad>
          </ns3:TrackPointExtension>
        </extensions>
      </trkpt>
      <trkpt lat="37.77681305073201656341552734375" lon="-107.6962265186011791229248046875">
        <ele>3979.199951171875</ele>
        <time>2023-07-29T15:28:50.000Z</time>
        <extensions>
          <ns3:TrackPointExtension>
            <ns3:hr>104</ns3:hr>
            <ns3:cad>0</ns3:cad>
          </ns3:TrackPointExtension>
        </extensions>
      </trkpt>
      <trkpt lat="37.7768109552562236785888671875" lon="-107.69621436484158039093017578125">
        <ele>3979.199951171875</ele>
        <time>2023-07-29T15:28:51.000Z</time>
        <extensions>
          <ns3:TrackPointExtension>
            <ns3:hr>104</ns3:hr>
            <ns3:cad>0</ns3:cad>
          </ns3:TrackPointExtension>
        </extensions>
      </trkpt>
      <trkpt lat="37.7768086083233356475830078125" lon="-107.69620816223323345184326171875">
        <ele>3979.39990234375</ele>
        <time>2023-07-29T15:28:52.000Z</time>
        <extensions>
          <ns3:TrackPointExtension>
            <ns3:hr>104</ns3:hr>
            <ns3:cad>0</ns3:cad>
          </ns3:TrackPointExtension>
        </extensions>
      </trkpt>
      <trkpt lat="37.77680567465722560882568359375" lon="-107.6961973495781421661376953125">
        <ele>3979.39990234375</ele>
        <time>2023-07-29T15:28:53.000Z</time>
        <extensions>
          <ns3:TrackPointExtension>
            <ns3:hr>104</ns3:hr>
            <ns3:cad>0</ns3:cad>
          </ns3:TrackPointExtension>
        </extensions>
      </trkpt>
      <trkpt lat="37.7768035791814327239990234375" lon="-107.69618569873273372650146484375">
        <ele>3979.60009765625</ele>
        <time>2023-07-29T15:28:54.000Z</time>
        <extensions>
          <ns3:TrackPointExtension>
            <ns3:hr>104</ns3:hr>
            <ns3:cad>0</ns3:cad>
          </ns3:TrackPointExtension>
        </extensions>
      </trkpt>
      <trkpt lat="37.77679963968694210052490234375" lon="-107.69617237150669097900390625">
        <ele>3979.60009765625</ele>
        <time>2023-07-29T15:28:55.000Z</time>
        <extensions>
          <ns3:TrackPointExtension>
            <ns3:hr>104</ns3:hr>
            <ns3:cad>0</ns3:cad>
          </ns3:TrackPointExtension>
        </extensions>
      </trkpt>
      <trkpt lat="37.77679813094437122344970703125" lon="-107.69616390578448772430419921875">
        <ele>3979.800048828125</ele>
        <time>2023-07-29T15:28:56.000Z</time>
        <extensions>
          <ns3:TrackPointExtension>
            <ns3:hr>104</ns3:hr>
            <ns3:cad>47</ns3:cad>
          </ns3:TrackPointExtension>
        </extensions>
      </trkpt>
      <trkpt lat="37.7767965383827686309814453125" lon="-107.69615435041487216949462890625">
        <ele>3980</ele>
        <time>2023-07-29T15:28:57.000Z</time>
        <extensions>
          <ns3:TrackPointExtension>
            <ns3:hr>105</ns3:hr>
            <ns3:cad>47</ns3:cad>
          </ns3:TrackPointExtension>
        </extensions>
      </trkpt>
      <trkpt lat="37.7767925150692462921142578125" lon="-107.69614278338849544525146484375">
        <ele>3980</ele>
        <time>2023-07-29T15:28:58.000Z</time>
        <extensions>
          <ns3:TrackPointExtension>
            <ns3:hr>105</ns3:hr>
            <ns3:cad>47</ns3:cad>
          </ns3:TrackPointExtension>
        </extensions>
      </trkpt>
      <trkpt lat="37.77678807266056537628173828125" lon="-107.696126438677310943603515625">
        <ele>3980</ele>
        <time>2023-07-29T15:28:59.000Z</time>
        <extensions>
          <ns3:TrackPointExtension>
            <ns3:hr>106</ns3:hr>
            <ns3:cad>47</ns3:cad>
          </ns3:TrackPointExtension>
        </extensions>
      </trkpt>
      <trkpt lat="37.77678153477609157562255859375" lon="-107.69610489718616008758544921875">
        <ele>3980.199951171875</ele>
        <time>2023-07-29T15:29:00.000Z</time>
        <extensions>
          <ns3:TrackPointExtension>
            <ns3:hr>107</ns3:hr>
            <ns3:cad>47</ns3:cad>
          </ns3:TrackPointExtension>
        </extensions>
      </trkpt>
      <trkpt lat="37.77677834965288639068603515625" lon="-107.69609500654041767120361328125">
        <ele>3980.60009765625</ele>
        <time>2023-07-29T15:29:01.000Z</time>
        <extensions>
          <ns3:TrackPointExtension>
            <ns3:hr>107</ns3:hr>
            <ns3:cad>47</ns3:cad>
          </ns3:TrackPointExtension>
        </extensions>
      </trkpt>
      <trkpt lat="37.776775248348712921142578125" lon="-107.69608478061854839324951171875">
        <ele>3980.60009765625</ele>
        <time>2023-07-29T15:29:02.000Z</time>
        <extensions>
          <ns3:TrackPointExtension>
            <ns3:hr>108</ns3:hr>
            <ns3:cad>47</ns3:cad>
          </ns3:TrackPointExtension>
        </extensions>
      </trkpt>
      <trkpt lat="37.776769213378429412841796875" lon="-107.69606952555477619171142578125">
        <ele>3980.60009765625</ele>
        <time>2023-07-29T15:29:03.000Z</time>
        <extensions>
          <ns3:TrackPointExtension>
            <ns3:hr>109</ns3:hr>
            <ns3:cad>47</ns3:cad>
          </ns3:TrackPointExtension>
        </extensions>
      </trkpt>
      <trkpt lat="37.7767668664455413818359375" lon="-107.69606533460319042205810546875">
        <ele>3980.800048828125</ele>
        <time>2023-07-29T15:29:04.000Z</time>
        <extensions>
          <ns3:TrackPointExtension>
            <ns3:hr>110</ns3:hr>
            <ns3:cad>47</ns3:cad>
          </ns3:TrackPointExtension>
        </extensions>
      </trkpt>
      <trkpt lat="37.77676192112267017364501953125" lon="-107.69605158828198909759521484375">
        <ele>3980.800048828125</ele>
        <time>2023-07-29T15:29:05.000Z</time>
        <extensions>
          <ns3:TrackPointExtension>
            <ns3:hr>111</ns3:hr>
            <ns3:cad>47</ns3:cad>
          </ns3:TrackPointExtension>
        </extensions>
      </trkpt>
      <trkpt lat="37.77675990946590900421142578125" lon="-107.696041949093341827392578125">
        <ele>3980.800048828125</ele>
        <time>2023-07-29T15:29:06.000Z</time>
        <extensions>
          <ns3:TrackPointExtension>
            <ns3:hr>111</ns3:hr>
            <ns3:cad>47</ns3:cad>
          </ns3:TrackPointExtension>
        </extensions>
      </trkpt>
      <trkpt lat="37.776762507855892181396484375" lon="-107.69604136236011981964111328125">
        <ele>3980.800048828125</ele>
        <time>2023-07-29T15:29:07.000Z</time>
        <extensions>
          <ns3:TrackPointExtension>
            <ns3:hr>112</ns3:hr>
            <ns3:cad>47</ns3:cad>
          </ns3:TrackPointExtension>
        </extensions>
      </trkpt>
      <trkpt lat="37.77676242403686046600341796875" lon="-107.69603549502789974212646484375">
        <ele>3981</ele>
        <time>2023-07-29T15:29:08.000Z</time>
        <extensions>
          <ns3:TrackPointExtension>
            <ns3:hr>112</ns3:hr>
            <ns3:cad>47</ns3:cad>
          </ns3:TrackPointExtension>
        </extensions>
      </trkpt>
      <trkpt lat="37.77676192112267017364501953125" lon="-107.696031220257282257080078125">
        <ele>3981.39990234375</ele>
        <time>2023-07-29T15:29:09.000Z</time>
        <extensions>
          <ns3:TrackPointExtension>
            <ns3:hr>112</ns3:hr>
            <ns3:cad>47</ns3:cad>
          </ns3:TrackPointExtension>
        </extensions>
      </trkpt>
      <trkpt lat="37.77676108293235301971435546875" lon="-107.69602141343057155609130859375">
        <ele>3981.60009765625</ele>
        <time>2023-07-29T15:29:10.000Z</time>
        <extensions>
          <ns3:TrackPointExtension>
            <ns3:hr>112</ns3:hr>
            <ns3:cad>0</ns3:cad>
          </ns3:TrackPointExtension>
        </extensions>
      </trkpt>
      <trkpt lat="37.77675957418978214263916015625" lon="-107.696016468107700347900390625">
        <ele>3981.60009765625</ele>
        <time>2023-07-29T15:29:11.000Z</time>
        <extensions>
          <ns3:TrackPointExtension>
            <ns3:hr>113</ns3:hr>
            <ns3:cad>0</ns3:cad>
          </ns3:TrackPointExtension>
        </extensions>
      </trkpt>
      <trkpt lat="37.77675722725689411163330078125" lon="-107.69601353444159030914306640625">
        <ele>3981.800048828125</ele>
        <time>2023-07-29T15:29:12.000Z</time>
        <extensions>
          <ns3:TrackPointExtension>
            <ns3:hr>113</ns3:hr>
            <ns3:cad>0</ns3:cad>
          </ns3:TrackPointExtension>
        </extensions>
      </trkpt>
      <trkpt lat="37.77675353921949863433837890625" lon="-107.69600330851972103118896484375">
        <ele>3982</ele>
        <time>2023-07-29T15:29:13.000Z</time>
        <extensions>
          <ns3:TrackPointExtension>
            <ns3:hr>114</ns3:hr>
            <ns3:cad>0</ns3:cad>
          </ns3:TrackPointExtension>
        </extensions>
      </trkpt>
      <trkpt lat="37.77674968354403972625732421875" lon="-107.69599610008299350738525390625">
        <ele>3982</ele>
        <time>2023-07-29T15:29:14.000Z</time>
        <extensions>
          <ns3:TrackPointExtension>
            <ns3:hr>114</ns3:hr>
            <ns3:cad>0</ns3:cad>
          </ns3:TrackPointExtension>
        </extensions>
      </trkpt>
      <trkpt lat="37.77674063108861446380615234375" lon="-107.69598729908466339111328125">
        <ele>3982.39990234375</ele>
        <time>2023-07-29T15:29:15.000Z</time>
        <extensions>
          <ns3:TrackPointExtension>
            <ns3:hr>115</ns3:hr>
            <ns3:cad>0</ns3:cad>
          </ns3:TrackPointExtension>
        </extensions>
      </trkpt>
      <trkpt lat="37.77673308737576007843017578125" lon="-107.6959878019988536834716796875">
        <ele>3983</ele>
        <time>2023-07-29T15:29:16.000Z</time>
        <extensions>
          <ns3:TrackPointExtension>
            <ns3:hr>116</ns3:hr>
            <ns3:cad>0</ns3:cad>
          </ns3:TrackPointExtension>
        </extensions>
      </trkpt>
      <trkpt lat="37.77672730386257171630859375" lon="-107.69599174149334430694580078125">
        <ele>3983</ele>
        <time>2023-07-29T15:29:17.000Z</time>
        <extensions>
          <ns3:TrackPointExtension>
            <ns3:hr>116</ns3:hr>
            <ns3:cad>0</ns3:cad>
          </ns3:TrackPointExtension>
        </extensions>
      </trkpt>
      <trkpt lat="37.776719592511653900146484375" lon="-107.69598587416112422943115234375">
        <ele>3983</ele>
        <time>2023-07-29T15:29:18.000Z</time>
        <extensions>
          <ns3:TrackPointExtension>
            <ns3:hr>116</ns3:hr>
            <ns3:cad>0</ns3:cad>
          </ns3:TrackPointExtension>
        </extensions>
      </trkpt>
      <trkpt lat="37.7767117135226726531982421875" lon="-107.69598059356212615966796875">
        <ele>3983.199951171875</ele>
        <time>2023-07-29T15:29:19.000Z</time>
        <extensions>
          <ns3:TrackPointExtension>
            <ns3:hr>117</ns3:hr>
            <ns3:cad>0</ns3:cad>
          </ns3:TrackPointExtension>
        </extensions>
      </trkpt>
      <trkpt lat="37.77670375071465969085693359375" lon="-107.69597883336246013641357421875">
        <ele>3983.199951171875</ele>
        <time>2023-07-29T15:29:20.000Z</time>
        <extensions>
          <ns3:TrackPointExtension>
            <ns3:hr>117</ns3:hr>
            <ns3:cad>0</ns3:cad>
          </ns3:TrackPointExtension>
        </extensions>
      </trkpt>
      <trkpt lat="37.7767033316195011138916015625" lon="-107.695978581905364990234375">
        <ele>3983.39990234375</ele>
        <time>2023-07-29T15:29:21.000Z</time>
        <extensions>
          <ns3:TrackPointExtension>
            <ns3:hr>117</ns3:hr>
            <ns3:cad>0</ns3:cad>
          </ns3:TrackPointExtension>
        </extensions>
      </trkpt>
      <trkpt lat="37.77670140378177165985107421875" lon="-107.695974893867969512939453125">
        <ele>3983.60009765625</ele>
        <time>2023-07-29T15:29:22.000Z</time>
        <extensions>
          <ns3:TrackPointExtension>
            <ns3:hr>118</ns3:hr>
            <ns3:cad>0</ns3:cad>
          </ns3:TrackPointExtension>
        </extensions>
      </trkpt>
      <trkpt lat="37.77670006267726421356201171875" lon="-107.695974223315715789794921875">
        <ele>3983.800048828125</ele>
        <time>2023-07-29T15:29:23.000Z</time>
        <extensions>
          <ns3:TrackPointExtension>
            <ns3:hr>120</ns3:hr>
            <ns3:cad>0</ns3:cad>
          </ns3:TrackPointExtension>
        </extensions>
      </trkpt>
      <trkpt lat="37.77669503353536128997802734375" lon="-107.69596986472606658935546875">
        <ele>3984</ele>
        <time>2023-07-29T15:29:24.000Z</time>
        <extensions>
          <ns3:TrackPointExtension>
            <ns3:hr>121</ns3:hr>
            <ns3:cad>0</ns3:cad>
          </ns3:TrackPointExtension>
        </extensions>
      </trkpt>
      <trkpt lat="37.77669436298310756683349609375" lon="-107.69596575759351253509521484375">
        <ele>3984</ele>
        <time>2023-07-29T15:29:25.000Z</time>
        <extensions>
          <ns3:TrackPointExtension>
            <ns3:hr>121</ns3:hr>
            <ns3:cad>0</ns3:cad>
          </ns3:TrackPointExtension>
        </extensions>
      </trkpt>
      <trkpt lat="37.77669201605021953582763671875" lon="-107.6959616504609584808349609375">
        <ele>3984.199951171875</ele>
        <time>2023-07-29T15:29:26.000Z</time>
        <extensions>
          <ns3:TrackPointExtension>
            <ns3:hr>122</ns3:hr>
            <ns3:cad>0</ns3:cad>
          </ns3:TrackPointExtension>
        </extensions>
      </trkpt>
      <trkpt lat="37.7766875736415386199951171875" lon="-107.69595234654843807220458984375">
        <ele>3984.39990234375</ele>
        <time>2023-07-29T15:29:27.000Z</time>
        <extensions>
          <ns3:TrackPointExtension>
            <ns3:hr>123</ns3:hr>
            <ns3:cad>0</ns3:cad>
          </ns3:TrackPointExtension>
        </extensions>
      </trkpt>
      <trkpt lat="37.776689417660236358642578125" lon="-107.69595033489167690277099609375">
        <ele>3984.60009765625</ele>
        <time>2023-07-29T15:29:28.000Z</time>
        <extensions>
          <ns3:TrackPointExtension>
            <ns3:hr>123</ns3:hr>
            <ns3:cad>0</ns3:cad>
          </ns3:TrackPointExtension>
        </extensions>
      </trkpt>
      <trkpt lat="37.77669268660247325897216796875" lon="-107.695952095091342926025390625">
        <ele>3984.60009765625</ele>
        <time>2023-07-29T15:29:29.000Z</time>
        <extensions>
          <ns3:TrackPointExtension>
            <ns3:hr>123</ns3:hr>
            <ns3:cad>0</ns3:cad>
          </ns3:TrackPointExtension>
        </extensions>
      </trkpt>
      <trkpt lat="37.77669637463986873626708984375" lon="-107.6959479041397571563720703125">
        <ele>3984.60009765625</ele>
        <time>2023-07-29T15:29:30.000Z</time>
        <extensions>
          <ns3:TrackPointExtension>
            <ns3:hr>123</ns3:hr>
            <ns3:cad>0</ns3:cad>
          </ns3:TrackPointExtension>
        </extensions>
      </trkpt>
      <trkpt lat="37.7766989730298519134521484375" lon="-107.6959438808262348175048828125">
        <ele>3984.60009765625</ele>
        <time>2023-07-29T15:29:31.000Z</time>
        <extensions>
          <ns3:TrackPointExtension>
            <ns3:hr>123</ns3:hr>
            <ns3:cad>0</ns3:cad>
          </ns3:TrackPointExtension>
        </extensions>
      </trkpt>
      <trkpt lat="37.77670383453369140625" lon="-107.69594094716012477874755859375">
        <ele>3984.60009765625</ele>
        <time>2023-07-29T15:29:32.000Z</time>
        <extensions>
          <ns3:TrackPointExtension>
            <ns3:hr>123</ns3:hr>
            <ns3:cad>0</ns3:cad>
          </ns3:TrackPointExtension>
        </extensions>
      </trkpt>
      <trkpt lat="37.77671523392200469970703125" lon="-107.69592963159084320068359375">
        <ele>3984.60009765625</ele>
        <time>2023-07-29T15:29:33.000Z</time>
        <extensions>
          <ns3:TrackPointExtension>
            <ns3:hr>123</ns3:hr>
            <ns3:cad>0</ns3:cad>
          </ns3:TrackPointExtension>
        </extensions>
      </trkpt>
      <trkpt lat="37.77672135271131992340087890625" lon="-107.6959197409451007843017578125">
        <ele>3984.60009765625</ele>
        <time>2023-07-29T15:29:34.000Z</time>
        <extensions>
          <ns3:TrackPointExtension>
            <ns3:hr>123</ns3:hr>
            <ns3:cad>0</ns3:cad>
          </ns3:TrackPointExtension>
        </extensions>
      </trkpt>
      <trkpt lat="37.77671992778778076171875" lon="-107.69591630436480045318603515625">
        <ele>3984.800048828125</ele>
        <time>2023-07-29T15:29:35.000Z</time>
        <extensions>
          <ns3:TrackPointExtension>
            <ns3:hr>123</ns3:hr>
            <ns3:cad>0</ns3:cad>
          </ns3:TrackPointExtension>
        </extensions>
      </trkpt>
      <trkpt lat="37.77671632356941699981689453125" lon="-107.69591462798416614532470703125">
        <ele>3984.800048828125</ele>
        <time>2023-07-29T15:29:36.000Z</time>
        <extensions>
          <ns3:TrackPointExtension>
            <ns3:hr>123</ns3:hr>
            <ns3:cad>0</ns3:cad>
          </ns3:TrackPointExtension>
        </extensions>
      </trkpt>
      <trkpt lat="37.77671565301716327667236328125" lon="-107.69591311924159526824951171875">
        <ele>3985</ele>
        <time>2023-07-29T15:29:37.000Z</time>
        <extensions>
          <ns3:TrackPointExtension>
            <ns3:hr>123</ns3:hr>
            <ns3:cad>0</ns3:cad>
          </ns3:TrackPointExtension>
        </extensions>
      </trkpt>
      <trkpt lat="37.776714898645877838134765625" lon="-107.695906497538089752197265625">
        <ele>3985.199951171875</ele>
        <time>2023-07-29T15:29:38.000Z</time>
        <extensions>
          <ns3:TrackPointExtension>
            <ns3:hr>123</ns3:hr>
            <ns3:cad>0</ns3:cad>
          </ns3:TrackPointExtension>
        </extensions>
      </trkpt>
      <trkpt lat="37.77671481482684612274169921875" lon="-107.69590155221521854400634765625">
        <ele>3985.39990234375</ele>
        <time>2023-07-29T15:29:39.000Z</time>
        <extensions>
          <ns3:TrackPointExtension>
            <ns3:hr>123</ns3:hr>
            <ns3:cad>0</ns3:cad>
          </ns3:TrackPointExtension>
        </extensions>
      </trkpt>
      <trkpt lat="37.77671615593135356903076171875" lon="-107.695895098149776458740234375">
        <ele>3985.60009765625</ele>
        <time>2023-07-29T15:29:40.000Z</time>
        <extensions>
          <ns3:TrackPointExtension>
            <ns3:hr>123</ns3:hr>
            <ns3:cad>0</ns3:cad>
          </ns3:TrackPointExtension>
        </extensions>
      </trkpt>
      <trkpt lat="37.77671632356941699981689453125" lon="-107.6958905719220638275146484375">
        <ele>3985.60009765625</ele>
        <time>2023-07-29T15:29:41.000Z</time>
        <extensions>
          <ns3:TrackPointExtension>
            <ns3:hr>124</ns3:hr>
            <ns3:cad>0</ns3:cad>
          </ns3:TrackPointExtension>
        </extensions>
      </trkpt>
      <trkpt lat="37.77671565301716327667236328125" lon="-107.6958852075040340423583984375">
        <ele>3985.60009765625</ele>
        <time>2023-07-29T15:29:42.000Z</time>
        <extensions>
          <ns3:TrackPointExtension>
            <ns3:hr>124</ns3:hr>
            <ns3:cad>0</ns3:cad>
          </ns3:TrackPointExtension>
        </extensions>
      </trkpt>
      <trkpt lat="37.77671867050230503082275390625" lon="-107.695886380970478057861328125">
        <ele>3985.800048828125</ele>
        <time>2023-07-29T15:29:43.000Z</time>
        <extensions>
          <ns3:TrackPointExtension>
            <ns3:hr>124</ns3:hr>
            <ns3:cad>0</ns3:cad>
          </ns3:TrackPointExtension>
        </extensions>
      </trkpt>
      <trkpt lat="37.77671498246490955352783203125" lon="-107.69587892107665538787841796875">
        <ele>3985.800048828125</ele>
        <time>2023-07-29T15:29:44.000Z</time>
        <extensions>
          <ns3:TrackPointExtension>
            <ns3:hr>124</ns3:hr>
            <ns3:cad>0</ns3:cad>
          </ns3:TrackPointExtension>
        </extensions>
      </trkpt>
      <trkpt lat="37.7767103724181652069091796875" lon="-107.69587674178183078765869140625">
        <ele>3986</ele>
        <time>2023-07-29T15:29:45.000Z</time>
        <extensions>
          <ns3:TrackPointExtension>
            <ns3:hr>124</ns3:hr>
            <ns3:cad>0</ns3:cad>
          </ns3:TrackPointExtension>
        </extensions>
      </trkpt>
      <trkpt lat="37.77671095915138721466064453125" lon="-107.69587875343859195709228515625">
        <ele>3986</ele>
        <time>2023-07-29T15:29:46.000Z</time>
        <extensions>
          <ns3:TrackPointExtension>
            <ns3:hr>125</ns3:hr>
            <ns3:cad>0</ns3:cad>
          </ns3:TrackPointExtension>
        </extensions>
      </trkpt>
      <trkpt lat="37.7767097018659114837646484375" lon="-107.69587674178183078765869140625">
        <ele>3986.199951171875</ele>
        <time>2023-07-29T15:29:47.000Z</time>
        <extensions>
          <ns3:TrackPointExtension>
            <ns3:hr>125</ns3:hr>
            <ns3:cad>0</ns3:cad>
          </ns3:TrackPointExtension>
        </extensions>
      </trkpt>
      <trkpt lat="37.77670794166624546051025390625" lon="-107.69587506540119647979736328125">
        <ele>3986.199951171875</ele>
        <time>2023-07-29T15:29:48.000Z</time>
        <extensions>
          <ns3:TrackPointExtension>
            <ns3:hr>125</ns3:hr>
            <ns3:cad>0</ns3:cad>
          </ns3:TrackPointExtension>
        </extensions>
      </trkpt>
      <trkpt lat="37.7767078578472137451171875" lon="-107.69587422721087932586669921875">
        <ele>3986.39990234375</ele>
        <time>2023-07-29T15:29:49.000Z</time>
        <extensions>
          <ns3:TrackPointExtension>
            <ns3:hr>125</ns3:hr>
            <ns3:cad>0</ns3:cad>
          </ns3:TrackPointExtension>
        </extensions>
      </trkpt>
      <trkpt lat="37.77670710347592830657958984375" lon="-107.69587053917348384857177734375">
        <ele>3986.800048828125</ele>
        <time>2023-07-29T15:29:50.000Z</time>
        <extensions>
          <ns3:TrackPointExtension>
            <ns3:hr>125</ns3:hr>
            <ns3:cad>0</ns3:cad>
          </ns3:TrackPointExtension>
        </extensions>
      </trkpt>
      <trkpt lat="37.776705510914325714111328125" lon="-107.6958657614886760711669921875">
        <ele>3987</ele>
        <time>2023-07-29T15:29:51.000Z</time>
        <extensions>
          <ns3:TrackPointExtension>
            <ns3:hr>125</ns3:hr>
            <ns3:cad>0</ns3:cad>
          </ns3:TrackPointExtension>
        </extensions>
      </trkpt>
      <trkpt lat="37.77670492418110370635986328125" lon="-107.69585880450904369354248046875">
        <ele>3987</ele>
        <time>2023-07-29T15:29:52.000Z</time>
        <extensions>
          <ns3:TrackPointExtension>
            <ns3:hr>125</ns3:hr>
            <ns3:cad>0</ns3:cad>
          </ns3:TrackPointExtension>
        </extensions>
      </trkpt>
      <trkpt lat="37.77670257724821567535400390625" lon="-107.69585494883358478546142578125">
        <ele>3987</ele>
        <time>2023-07-29T15:29:53.000Z</time>
        <extensions>
          <ns3:TrackPointExtension>
            <ns3:hr>126</ns3:hr>
            <ns3:cad>0</ns3:cad>
          </ns3:TrackPointExtension>
        </extensions>
      </trkpt>
      <trkpt lat="37.7767036668956279754638671875" lon="-107.69585109315812587738037109375">
        <ele>3987.199951171875</ele>
        <time>2023-07-29T15:29:54.000Z</time>
        <extensions>
          <ns3:TrackPointExtension>
            <ns3:hr>126</ns3:hr>
            <ns3:cad>72</ns3:cad>
          </ns3:TrackPointExtension>
        </extensions>
      </trkpt>
      <trkpt lat="37.77670106850564479827880859375" lon="-107.69583709537982940673828125">
        <ele>3987.199951171875</ele>
        <time>2023-07-29T15:29:55.000Z</time>
        <extensions>
          <ns3:TrackPointExtension>
            <ns3:hr>126</ns3:hr>
            <ns3:cad>72</ns3:cad>
          </ns3:TrackPointExtension>
        </extensions>
      </trkpt>
      <trkpt lat="37.77669872157275676727294921875" lon="-107.69583047367632389068603515625">
        <ele>3987.199951171875</ele>
        <time>2023-07-29T15:29:56.000Z</time>
        <extensions>
          <ns3:TrackPointExtension>
            <ns3:hr>127</ns3:hr>
            <ns3:cad>0</ns3:cad>
          </ns3:TrackPointExtension>
        </extensions>
      </trkpt>
      <trkpt lat="37.7766989730298519134521484375" lon="-107.6958278752863407135009765625">
        <ele>3987.39990234375</ele>
        <time>2023-07-29T15:29:57.000Z</time>
        <extensions>
          <ns3:TrackPointExtension>
            <ns3:hr>127</ns3:hr>
            <ns3:cad>0</ns3:cad>
          </ns3:TrackPointExtension>
        </extensions>
      </trkpt>
      <trkpt lat="37.77669637463986873626708984375" lon="-107.695823013782501220703125">
        <ele>3987.60009765625</ele>
        <time>2023-07-29T15:29:58.000Z</time>
        <extensions>
          <ns3:TrackPointExtension>
            <ns3:hr>127</ns3:hr>
            <ns3:cad>0</ns3:cad>
          </ns3:TrackPointExtension>
        </extensions>
      </trkpt>
      <trkpt lat="37.776694782078266143798828125" lon="-107.6958208344876766204833984375">
        <ele>3987.60009765625</ele>
        <time>2023-07-29T15:29:59.000Z</time>
        <extensions>
          <ns3:TrackPointExtension>
            <ns3:hr>127</ns3:hr>
            <ns3:cad>0</ns3:cad>
          </ns3:TrackPointExtension>
        </extensions>
      </trkpt>
      <trkpt lat="37.7766902558505535125732421875" lon="-107.6958161406219005584716796875">
        <ele>3987.800048828125</ele>
        <time>2023-07-29T15:30:00.000Z</time>
        <extensions>
          <ns3:TrackPointExtension>
            <ns3:hr>127</ns3:hr>
            <ns3:cad>0</ns3:cad>
          </ns3:TrackPointExtension>
        </extensions>
      </trkpt>
      <trkpt lat="37.77668564580380916595458984375" lon="-107.695813961327075958251953125">
        <ele>3988</ele>
        <time>2023-07-29T15:30:01.000Z</time>
        <extensions>
          <ns3:TrackPointExtension>
            <ns3:hr>127</ns3:hr>
            <ns3:cad>0</ns3:cad>
          </ns3:TrackPointExtension>
        </extensions>
      </trkpt>
      <trkpt lat="37.776684053242206573486328125" lon="-107.6958134584128856658935546875">
        <ele>3988.199951171875</ele>
        <time>2023-07-29T15:30:02.000Z</time>
        <extensions>
          <ns3:TrackPointExtension>
            <ns3:hr>128</ns3:hr>
            <ns3:cad>0</ns3:cad>
          </ns3:TrackPointExtension>
        </extensions>
      </trkpt>
      <trkpt lat="37.7766832150518894195556640625" lon="-107.6958225108683109283447265625">
        <ele>3988.199951171875</ele>
        <time>2023-07-29T15:30:03.000Z</time>
        <extensions>
          <ns3:TrackPointExtension>
            <ns3:hr>128</ns3:hr>
            <ns3:cad>0</ns3:cad>
          </ns3:TrackPointExtension>
        </extensions>
      </trkpt>
      <trkpt lat="37.7766864001750946044921875" lon="-107.6958288811147212982177734375">
        <ele>3988.60009765625</ele>
        <time>2023-07-29T15:30:04.000Z</time>
        <extensions>
          <ns3:TrackPointExtension>
            <ns3:hr>128</ns3:hr>
            <ns3:cad>0</ns3:cad>
          </ns3:TrackPointExtension>
        </extensions>
      </trkpt>
      <trkpt lat="37.7766855619847774505615234375" lon="-107.6958288811147212982177734375">
        <ele>3988.800048828125</ele>
        <time>2023-07-29T15:30:05.000Z</time>
        <extensions>
          <ns3:TrackPointExtension>
            <ns3:hr>128</ns3:hr>
            <ns3:cad>0</ns3:cad>
          </ns3:TrackPointExtension>
        </extensions>
      </trkpt>
      <trkpt lat="37.776682376861572265625" lon="-107.69582795910537242889404296875">
        <ele>3989</ele>
        <time>2023-07-29T15:30:06.000Z</time>
        <extensions>
          <ns3:TrackPointExtension>
            <ns3:hr>128</ns3:hr>
            <ns3:cad>0</ns3:cad>
          </ns3:TrackPointExtension>
        </extensions>
      </trkpt>
      <trkpt lat="37.7766815386712551116943359375" lon="-107.695818655192852020263671875">
        <ele>3989</ele>
        <time>2023-07-29T15:30:07.000Z</time>
        <extensions>
          <ns3:TrackPointExtension>
            <ns3:hr>128</ns3:hr>
            <ns3:cad>0</ns3:cad>
          </ns3:TrackPointExtension>
        </extensions>
      </trkpt>
      <trkpt lat="37.77667860500514507293701171875" lon="-107.69580750726163387298583984375">
        <ele>3989.199951171875</ele>
        <time>2023-07-29T15:30:08.000Z</time>
        <extensions>
          <ns3:TrackPointExtension>
            <ns3:hr>128</ns3:hr>
            <ns3:cad>0</ns3:cad>
          </ns3:TrackPointExtension>
        </extensions>
      </trkpt>
      <trkpt lat="37.77667474932968616485595703125" lon="-107.6957963593304157257080078125">
        <ele>3989.60009765625</ele>
        <time>2023-07-29T15:30:09.000Z</time>
        <extensions>
          <ns3:TrackPointExtension>
            <ns3:hr>129</ns3:hr>
            <ns3:cad>0</ns3:cad>
          </ns3:TrackPointExtension>
        </extensions>
      </trkpt>
      <trkpt lat="37.77667340822517871856689453125" lon="-107.69578806124627590179443359375">
        <ele>3989.800048828125</ele>
        <time>2023-07-29T15:30:10.000Z</time>
        <extensions>
          <ns3:TrackPointExtension>
            <ns3:hr>129</ns3:hr>
            <ns3:cad>0</ns3:cad>
          </ns3:TrackPointExtension>
        </extensions>
      </trkpt>
      <trkpt lat="37.77666821144521236419677734375" lon="-107.6957725547254085540771484375">
        <ele>3989.800048828125</ele>
        <time>2023-07-29T15:30:11.000Z</time>
        <extensions>
          <ns3:TrackPointExtension>
            <ns3:hr>130</ns3:hr>
            <ns3:cad>0</ns3:cad>
          </ns3:TrackPointExtension>
        </extensions>
      </trkpt>
      <trkpt lat="37.77666502632200717926025390625" lon="-107.69576475955545902252197265625">
        <ele>3989.800048828125</ele>
        <time>2023-07-29T15:30:12.000Z</time>
        <extensions>
          <ns3:TrackPointExtension>
            <ns3:hr>130</ns3:hr>
            <ns3:cad>0</ns3:cad>
          </ns3:TrackPointExtension>
        </extensions>
      </trkpt>
      <trkpt lat="37.77666619978845119476318359375" lon="-107.6957492530345916748046875">
        <ele>3989.800048828125</ele>
        <time>2023-07-29T15:30:13.000Z</time>
        <extensions>
          <ns3:TrackPointExtension>
            <ns3:hr>130</ns3:hr>
            <ns3:cad>0</ns3:cad>
          </ns3:TrackPointExtension>
        </extensions>
      </trkpt>
      <trkpt lat="37.77666821144521236419677734375" lon="-107.695744223892688751220703125">
        <ele>3990</ele>
        <time>2023-07-29T15:30:14.000Z</time>
        <extensions>
          <ns3:TrackPointExtension>
            <ns3:hr>130</ns3:hr>
            <ns3:cad>0</ns3:cad>
          </ns3:TrackPointExtension>
        </extensions>
      </trkpt>
      <trkpt lat="37.7766664512455463409423828125" lon="-107.69573894329369068145751953125">
        <ele>3990</ele>
        <time>2023-07-29T15:30:15.000Z</time>
        <extensions>
          <ns3:TrackPointExtension>
            <ns3:hr>130</ns3:hr>
            <ns3:cad>0</ns3:cad>
          </ns3:TrackPointExtension>
        </extensions>
      </trkpt>
      <trkpt lat="37.77666569687426090240478515625" lon="-107.69573408178985118865966796875">
        <ele>3990.199951171875</ele>
        <time>2023-07-29T15:30:16.000Z</time>
        <extensions>
          <ns3:TrackPointExtension>
            <ns3:hr>130</ns3:hr>
            <ns3:cad>0</ns3:cad>
          </ns3:TrackPointExtension>
        </extensions>
      </trkpt>
      <trkpt lat="37.77666561305522918701171875" lon="-107.6957329921424388885498046875">
        <ele>3990.39990234375</ele>
        <time>2023-07-29T15:30:17.000Z</time>
        <extensions>
          <ns3:TrackPointExtension>
            <ns3:hr>130</ns3:hr>
            <ns3:cad>0</ns3:cad>
          </ns3:TrackPointExtension>
        </extensions>
      </trkpt>
      <trkpt lat="37.77666427195072174072265625" lon="-107.69572201184928417205810546875">
        <ele>3990.39990234375</ele>
        <time>2023-07-29T15:30:18.000Z</time>
        <extensions>
          <ns3:TrackPointExtension>
            <ns3:hr>130</ns3:hr>
            <ns3:cad>0</ns3:cad>
          </ns3:TrackPointExtension>
        </extensions>
      </trkpt>
      <trkpt lat="37.77666385285556316375732421875" lon="-107.6957170665264129638671875">
        <ele>3990.60009765625</ele>
        <time>2023-07-29T15:30:19.000Z</time>
        <extensions>
          <ns3:TrackPointExtension>
            <ns3:hr>130</ns3:hr>
            <ns3:cad>0</ns3:cad>
          </ns3:TrackPointExtension>
        </extensions>
      </trkpt>
      <trkpt lat="37.77666301466524600982666015625" lon="-107.69570809789001941680908203125">
        <ele>3990.800048828125</ele>
        <time>2023-07-29T15:30:20.000Z</time>
        <extensions>
          <ns3:TrackPointExtension>
            <ns3:hr>131</ns3:hr>
            <ns3:cad>0</ns3:cad>
          </ns3:TrackPointExtension>
        </extensions>
      </trkpt>
      <trkpt lat="37.77666351757943630218505859375" lon="-107.6957061700522899627685546875">
        <ele>3991</ele>
        <time>2023-07-29T15:30:21.000Z</time>
        <extensions>
          <ns3:TrackPointExtension>
            <ns3:hr>131</ns3:hr>
            <ns3:cad>0</ns3:cad>
          </ns3:TrackPointExtension>
        </extensions>
      </trkpt>
      <trkpt lat="37.776663266122341156005859375" lon="-107.69570432603359222412109375">
        <ele>3991.199951171875</ele>
        <time>2023-07-29T15:30:22.000Z</time>
        <extensions>
          <ns3:TrackPointExtension>
            <ns3:hr>131</ns3:hr>
            <ns3:cad>0</ns3:cad>
          </ns3:TrackPointExtension>
        </extensions>
      </trkpt>
      <trkpt lat="37.77666301466524600982666015625" lon="-107.69569435156881809234619140625">
        <ele>3991.199951171875</ele>
        <time>2023-07-29T15:30:23.000Z</time>
        <extensions>
          <ns3:TrackPointExtension>
            <ns3:hr>131</ns3:hr>
            <ns3:cad>0</ns3:cad>
          </ns3:TrackPointExtension>
        </extensions>
      </trkpt>
      <trkpt lat="37.77666293084621429443359375" lon="-107.69568529911339282989501953125">
        <ele>3991.39990234375</ele>
        <time>2023-07-29T15:30:24.000Z</time>
        <extensions>
          <ns3:TrackPointExtension>
            <ns3:hr>131</ns3:hr>
            <ns3:cad>0</ns3:cad>
          </ns3:TrackPointExtension>
        </extensions>
      </trkpt>
      <trkpt lat="37.77666284702718257904052734375" lon="-107.6956759952008724212646484375">
        <ele>3991.60009765625</ele>
        <time>2023-07-29T15:30:25.000Z</time>
        <extensions>
          <ns3:TrackPointExtension>
            <ns3:hr>131</ns3:hr>
            <ns3:cad>0</ns3:cad>
          </ns3:TrackPointExtension>
        </extensions>
      </trkpt>
      <trkpt lat="37.77666351757943630218505859375" lon="-107.69567188806831836700439453125">
        <ele>3991.60009765625</ele>
        <time>2023-07-29T15:30:26.000Z</time>
        <extensions>
          <ns3:TrackPointExtension>
            <ns3:hr>131</ns3:hr>
            <ns3:cad>0</ns3:cad>
          </ns3:TrackPointExtension>
        </extensions>
      </trkpt>
      <trkpt lat="37.776664607226848602294921875" lon="-107.69567188806831836700439453125">
        <ele>3991.60009765625</ele>
        <time>2023-07-29T15:30:27.000Z</time>
        <extensions>
          <ns3:TrackPointExtension>
            <ns3:hr>132</ns3:hr>
            <ns3:cad>0</ns3:cad>
          </ns3:TrackPointExtension>
        </extensions>
      </trkpt>
      <trkpt lat="37.77666603215038776397705078125" lon="-107.69567155279219150543212890625">
        <ele>3991.60009765625</ele>
        <time>2023-07-29T15:30:28.000Z</time>
        <extensions>
          <ns3:TrackPointExtension>
            <ns3:hr>132</ns3:hr>
            <ns3:cad>0</ns3:cad>
          </ns3:TrackPointExtension>
        </extensions>
      </trkpt>
      <trkpt lat="37.7766674570739269256591796875" lon="-107.6956679485738277435302734375">
        <ele>3991.60009765625</ele>
        <time>2023-07-29T15:30:29.000Z</time>
        <extensions>
          <ns3:TrackPointExtension>
            <ns3:hr>132</ns3:hr>
            <ns3:cad>0</ns3:cad>
          </ns3:TrackPointExtension>
        </extensions>
      </trkpt>
      <trkpt lat="37.7766698040068149566650390625" lon="-107.69566082395613193511962890625">
        <ele>3991.800048828125</ele>
        <time>2023-07-29T15:30:30.000Z</time>
        <extensions>
          <ns3:TrackPointExtension>
            <ns3:hr>132</ns3:hr>
            <ns3:cad>0</ns3:cad>
          </ns3:TrackPointExtension>
        </extensions>
      </trkpt>
      <trkpt lat="37.7766711451113224029541015625" lon="-107.6956485025584697723388671875">
        <ele>3991.800048828125</ele>
        <time>2023-07-29T15:30:31.000Z</time>
        <extensions>
          <ns3:TrackPointExtension>
            <ns3:hr>132</ns3:hr>
            <ns3:cad>0</ns3:cad>
          </ns3:TrackPointExtension>
        </extensions>
      </trkpt>
      <trkpt lat="37.7766721509397029876708984375" lon="-107.695634253323078155517578125">
        <ele>3992</ele>
        <time>2023-07-29T15:30:32.000Z</time>
        <extensions>
          <ns3:TrackPointExtension>
            <ns3:hr>131</ns3:hr>
            <ns3:cad>0</ns3:cad>
          </ns3:TrackPointExtension>
        </extensions>
      </trkpt>
      <trkpt lat="37.7766731567680835723876953125" lon="-107.69562696106731891632080078125">
        <ele>3992.199951171875</ele>
        <time>2023-07-29T15:30:33.000Z</time>
        <extensions>
          <ns3:TrackPointExtension>
            <ns3:hr>131</ns3:hr>
            <ns3:cad>0</ns3:cad>
          </ns3:TrackPointExtension>
        </extensions>
      </trkpt>
      <trkpt lat="37.776676006615161895751953125" lon="-107.69563048146665096282958984375">
        <ele>3992.199951171875</ele>
        <time>2023-07-29T15:30:34.000Z</time>
        <extensions>
          <ns3:TrackPointExtension>
            <ns3:hr>131</ns3:hr>
            <ns3:cad>0</ns3:cad>
          </ns3:TrackPointExtension>
        </extensions>
      </trkpt>
      <trkpt lat="37.776678688824176788330078125" lon="-107.6956285536289215087890625">
        <ele>3992.199951171875</ele>
        <time>2023-07-29T15:30:35.000Z</time>
        <extensions>
          <ns3:TrackPointExtension>
            <ns3:hr>131</ns3:hr>
            <ns3:cad>0</ns3:cad>
          </ns3:TrackPointExtension>
        </extensions>
      </trkpt>
      <trkpt lat="37.7766825444996356964111328125" lon="-107.69563048146665096282958984375">
        <ele>3992.39990234375</ele>
        <time>2023-07-29T15:30:36.000Z</time>
        <extensions>
          <ns3:TrackPointExtension>
            <ns3:hr>131</ns3:hr>
            <ns3:cad>0</ns3:cad>
          </ns3:TrackPointExtension>
        </extensions>
      </trkpt>
      <trkpt lat="37.7766848914325237274169921875" lon="-107.695636935532093048095703125">
        <ele>3992.39990234375</ele>
        <time>2023-07-29T15:30:37.000Z</time>
        <extensions>
          <ns3:TrackPointExtension>
            <ns3:hr>132</ns3:hr>
            <ns3:cad>0</ns3:cad>
          </ns3:TrackPointExtension>
        </extensions>
      </trkpt>
      <trkpt lat="37.7766890823841094970703125" lon="-107.69564355723559856414794921875">
        <ele>3992.199951171875</ele>
        <time>2023-07-29T15:30:38.000Z</time>
        <extensions>
          <ns3:TrackPointExtension>
            <ns3:hr>132</ns3:hr>
            <ns3:cad>0</ns3:cad>
          </ns3:TrackPointExtension>
        </extensions>
      </trkpt>
      <trkpt lat="37.77669637463986873626708984375" lon="-107.69564791582524776458740234375">
        <ele>3992.199951171875</ele>
        <time>2023-07-29T15:30:39.000Z</time>
        <extensions>
          <ns3:TrackPointExtension>
            <ns3:hr>131</ns3:hr>
            <ns3:cad>0</ns3:cad>
          </ns3:TrackPointExtension>
        </extensions>
      </trkpt>
      <trkpt lat="37.77670559473335742950439453125" lon="-107.6956468261778354644775390625">
        <ele>3992.199951171875</ele>
        <time>2023-07-29T15:30:40.000Z</time>
        <extensions>
          <ns3:TrackPointExtension>
            <ns3:hr>131</ns3:hr>
            <ns3:cad>0</ns3:cad>
          </ns3:TrackPointExtension>
        </extensions>
      </trkpt>
      <trkpt lat="37.77671255171298980712890625" lon="-107.6956438086926937103271484375">
        <ele>3992</ele>
        <time>2023-07-29T15:30:41.000Z</time>
        <extensions>
          <ns3:TrackPointExtension>
            <ns3:hr>131</ns3:hr>
            <ns3:cad>0</ns3:cad>
          </ns3:TrackPointExtension>
        </extensions>
      </trkpt>
      <trkpt lat="37.776720263063907623291015625" lon="-107.69563484005630016326904296875">
        <ele>3992</ele>
        <time>2023-07-29T15:30:42.000Z</time>
        <extensions>
          <ns3:TrackPointExtension>
            <ns3:hr>131</ns3:hr>
            <ns3:cad>0</ns3:cad>
          </ns3:TrackPointExtension>
        </extensions>
      </trkpt>
      <trkpt lat="37.77672193944454193115234375" lon="-107.69563567824661731719970703125">
        <ele>3992</ele>
        <time>2023-07-29T15:30:43.000Z</time>
        <extensions>
          <ns3:TrackPointExtension>
            <ns3:hr>131</ns3:hr>
            <ns3:cad>0</ns3:cad>
          </ns3:TrackPointExtension>
        </extensions>
      </trkpt>
      <trkpt lat="37.77672185562551021575927734375" lon="-107.6956371031701564788818359375">
        <ele>3992</ele>
        <time>2023-07-29T15:30:44.000Z</time>
        <extensions>
          <ns3:TrackPointExtension>
            <ns3:hr>131</ns3:hr>
            <ns3:cad>0</ns3:cad>
          </ns3:TrackPointExtension>
        </extensions>
      </trkpt>
      <trkpt lat="37.77672059834003448486328125" lon="-107.695640958845615386962890625">
        <ele>3992</ele>
        <time>2023-07-29T15:30:45.000Z</time>
        <extensions>
          <ns3:TrackPointExtension>
            <ns3:hr>131</ns3:hr>
            <ns3:cad>0</ns3:cad>
          </ns3:TrackPointExtension>
        </extensions>
      </trkpt>
      <trkpt lat="37.77671716175973415374755859375" lon="-107.695642970502376556396484375">
        <ele>3992.199951171875</ele>
        <time>2023-07-29T15:30:46.000Z</time>
        <extensions>
          <ns3:TrackPointExtension>
            <ns3:hr>131</ns3:hr>
            <ns3:cad>0</ns3:cad>
          </ns3:TrackPointExtension>
        </extensions>
      </trkpt>
      <trkpt lat="37.7767157368361949920654296875" lon="-107.69565093331038951873779296875">
        <ele>3992.199951171875</ele>
        <time>2023-07-29T15:30:47.000Z</time>
        <extensions>
          <ns3:TrackPointExtension>
            <ns3:hr>131</ns3:hr>
            <ns3:cad>0</ns3:cad>
          </ns3:TrackPointExtension>
        </extensions>
      </trkpt>
      <trkpt lat="37.77671523392200469970703125" lon="-107.69565545953810214996337890625">
        <ele>3992.199951171875</ele>
        <time>2023-07-29T15:30:48.000Z</time>
        <extensions>
          <ns3:TrackPointExtension>
            <ns3:hr>131</ns3:hr>
            <ns3:cad>0</ns3:cad>
          </ns3:TrackPointExtension>
        </extensions>
      </trkpt>
      <trkpt lat="37.77671732939779758453369140625" lon="-107.69566275179386138916015625">
        <ele>3992.199951171875</ele>
        <time>2023-07-29T15:30:49.000Z</time>
        <extensions>
          <ns3:TrackPointExtension>
            <ns3:hr>131</ns3:hr>
            <ns3:cad>0</ns3:cad>
          </ns3:TrackPointExtension>
        </extensions>
      </trkpt>
      <trkpt lat="37.7767197601497173309326171875" lon="-107.6956686191260814666748046875">
        <ele>3992.199951171875</ele>
        <time>2023-07-29T15:30:50.000Z</time>
        <extensions>
          <ns3:TrackPointExtension>
            <ns3:hr>131</ns3:hr>
            <ns3:cad>0</ns3:cad>
          </ns3:TrackPointExtension>
        </extensions>
      </trkpt>
      <trkpt lat="37.77672219090163707733154296875" lon="-107.6956863887608051300048828125">
        <ele>3992.199951171875</ele>
        <time>2023-07-29T15:30:51.000Z</time>
        <extensions>
          <ns3:TrackPointExtension>
            <ns3:hr>131</ns3:hr>
            <ns3:cad>0</ns3:cad>
          </ns3:TrackPointExtension>
        </extensions>
      </trkpt>
      <trkpt lat="37.77672504074871540069580078125" lon="-107.69569535739719867706298828125">
        <ele>3992.199951171875</ele>
        <time>2023-07-29T15:30:52.000Z</time>
        <extensions>
          <ns3:TrackPointExtension>
            <ns3:hr>131</ns3:hr>
            <ns3:cad>0</ns3:cad>
          </ns3:TrackPointExtension>
        </extensions>
      </trkpt>
      <trkpt lat="37.77672235853970050811767578125" lon="-107.69569016061723232269287109375">
        <ele>3992.199951171875</ele>
        <time>2023-07-29T15:30:53.000Z</time>
        <extensions>
          <ns3:TrackPointExtension>
            <ns3:hr>131</ns3:hr>
            <ns3:cad>0</ns3:cad>
          </ns3:TrackPointExtension>
        </extensions>
      </trkpt>
      <trkpt lat="37.77672286145389080047607421875" lon="-107.695683538913726806640625">
        <ele>3992.199951171875</ele>
        <time>2023-07-29T15:30:54.000Z</time>
        <extensions>
          <ns3:TrackPointExtension>
            <ns3:hr>130</ns3:hr>
            <ns3:cad>0</ns3:cad>
          </ns3:TrackPointExtension>
        </extensions>
      </trkpt>
      <trkpt lat="37.77672219090163707733154296875" lon="-107.695677839219570159912109375">
        <ele>3992.199951171875</ele>
        <time>2023-07-29T15:30:55.000Z</time>
        <extensions>
          <ns3:TrackPointExtension>
            <ns3:hr>130</ns3:hr>
            <ns3:cad>0</ns3:cad>
          </ns3:TrackPointExtension>
        </extensions>
      </trkpt>
      <trkpt lat="37.77672621421515941619873046875" lon="-107.69567591138184070587158203125">
        <ele>3992.199951171875</ele>
        <time>2023-07-29T15:30:56.000Z</time>
        <extensions>
          <ns3:TrackPointExtension>
            <ns3:hr>130</ns3:hr>
            <ns3:cad>0</ns3:cad>
          </ns3:TrackPointExtension>
        </extensions>
      </trkpt>
      <trkpt lat="37.77673006989061832427978515625" lon="-107.6956759952008724212646484375">
        <ele>3992.199951171875</ele>
        <time>2023-07-29T15:30:57.000Z</time>
        <extensions>
          <ns3:TrackPointExtension>
            <ns3:hr>130</ns3:hr>
            <ns3:cad>0</ns3:cad>
          </ns3:TrackPointExtension>
        </extensions>
      </trkpt>
      <trkpt lat="37.77673132717609405517578125" lon="-107.695680521428585052490234375">
        <ele>3992.199951171875</ele>
        <time>2023-07-29T15:30:58.000Z</time>
        <extensions>
          <ns3:TrackPointExtension>
            <ns3:hr>128</ns3:hr>
            <ns3:cad>0</ns3:cad>
          </ns3:TrackPointExtension>
        </extensions>
      </trkpt>
      <trkpt lat="37.7767325006425380706787109375" lon="-107.695682533085346221923828125">
        <ele>3992.199951171875</ele>
        <time>2023-07-29T15:30:59.000Z</time>
        <extensions>
          <ns3:TrackPointExtension>
            <ns3:hr>126</ns3:hr>
            <ns3:cad>0</ns3:cad>
          </ns3:TrackPointExtension>
        </extensions>
      </trkpt>
      <trkpt lat="37.7767345122992992401123046875" lon="-107.6956823654472827911376953125">
        <ele>3992.199951171875</ele>
        <time>2023-07-29T15:31:00.000Z</time>
        <extensions>
          <ns3:TrackPointExtension>
            <ns3:hr>124</ns3:hr>
            <ns3:cad>0</ns3:cad>
          </ns3:TrackPointExtension>
        </extensions>
      </trkpt>
      <trkpt lat="37.77673727832734584808349609375" lon="-107.695680521428585052490234375">
        <ele>3992</ele>
        <time>2023-07-29T15:31:01.000Z</time>
        <extensions>
          <ns3:TrackPointExtension>
            <ns3:hr>119</ns3:hr>
            <ns3:cad>0</ns3:cad>
          </ns3:TrackPointExtension>
        </extensions>
      </trkpt>
      <trkpt lat="37.77673912234604358673095703125" lon="-107.69567825831472873687744140625">
        <ele>3992</ele>
        <time>2023-07-29T15:31:02.000Z</time>
        <extensions>
          <ns3:TrackPointExtension>
            <ns3:hr>119</ns3:hr>
            <ns3:cad>0</ns3:cad>
          </ns3:TrackPointExtension>
        </extensions>
      </trkpt>
      <trkpt lat="37.77674071490764617919921875" lon="-107.6956746540963649749755859375">
        <ele>3992</ele>
        <time>2023-07-29T15:31:03.000Z</time>
        <extensions>
          <ns3:TrackPointExtension>
            <ns3:hr>119</ns3:hr>
            <ns3:cad>0</ns3:cad>
          </ns3:TrackPointExtension>
        </extensions>
      </trkpt>
      <trkpt lat="37.7767422236502170562744140625" lon="-107.69566811621189117431640625">
        <ele>3991.800048828125</ele>
        <time>2023-07-29T15:31:04.000Z</time>
        <extensions>
          <ns3:TrackPointExtension>
            <ns3:hr>120</ns3:hr>
            <ns3:cad>0</ns3:cad>
          </ns3:TrackPointExtension>
        </extensions>
      </trkpt>
      <trkpt lat="37.77674348093569278717041015625" lon="-107.6956629194319248199462890625">
        <ele>3991.800048828125</ele>
        <time>2023-07-29T15:31:05.000Z</time>
        <extensions>
          <ns3:TrackPointExtension>
            <ns3:hr>121</ns3:hr>
            <ns3:cad>0</ns3:cad>
          </ns3:TrackPointExtension>
        </extensions>
      </trkpt>
      <trkpt lat="37.776739709079265594482421875" lon="-107.69566887058317661285400390625">
        <ele>3991.800048828125</ele>
        <time>2023-07-29T15:31:06.000Z</time>
        <extensions>
          <ns3:TrackPointExtension>
            <ns3:hr>120</ns3:hr>
            <ns3:cad>0</ns3:cad>
          </ns3:TrackPointExtension>
        </extensions>
      </trkpt>
      <trkpt lat="37.7767459116876125335693359375" lon="-107.69566736184060573577880859375">
        <ele>3991.800048828125</ele>
        <time>2023-07-29T15:31:07.000Z</time>
        <extensions>
          <ns3:TrackPointExtension>
            <ns3:hr>120</ns3:hr>
            <ns3:cad>0</ns3:cad>
          </ns3:TrackPointExtension>
        </extensions>
      </trkpt>
      <trkpt lat="37.77674616314470767974853515625" lon="-107.69566987641155719757080078125">
        <ele>3991.800048828125</ele>
        <time>2023-07-29T15:31:08.000Z</time>
        <extensions>
          <ns3:TrackPointExtension>
            <ns3:hr>120</ns3:hr>
            <ns3:cad>0</ns3:cad>
          </ns3:TrackPointExtension>
        </extensions>
      </trkpt>
      <trkpt lat="37.77674549259245395660400390625" lon="-107.69567322917282581329345703125">
        <ele>3991.800048828125</ele>
        <time>2023-07-29T15:31:09.000Z</time>
        <extensions>
          <ns3:TrackPointExtension>
            <ns3:hr>120</ns3:hr>
            <ns3:cad>0</ns3:cad>
          </ns3:TrackPointExtension>
        </extensions>
      </trkpt>
      <trkpt lat="37.77674616314470767974853515625" lon="-107.6957023143768310546875">
        <ele>3991.60009765625</ele>
        <time>2023-07-29T15:31:10.000Z</time>
        <extensions>
          <ns3:TrackPointExtension>
            <ns3:hr>117</ns3:hr>
            <ns3:cad>0</ns3:cad>
          </ns3:TrackPointExtension>
        </extensions>
      </trkpt>
      <trkpt lat="37.7767467498779296875" lon="-107.69570742733776569366455078125">
        <ele>3991.60009765625</ele>
        <time>2023-07-29T15:31:11.000Z</time>
        <extensions>
          <ns3:TrackPointExtension>
            <ns3:hr>116</ns3:hr>
            <ns3:cad>0</ns3:cad>
          </ns3:TrackPointExtension>
        </extensions>
      </trkpt>
      <trkpt lat="37.776745744049549102783203125" lon="-107.695709355175495147705078125">
        <ele>3991.60009765625</ele>
        <time>2023-07-29T15:31:12.000Z</time>
        <extensions>
          <ns3:TrackPointExtension>
            <ns3:hr>115</ns3:hr>
            <ns3:cad>0</ns3:cad>
          </ns3:TrackPointExtension>
        </extensions>
      </trkpt>
      <trkpt lat="37.77674473822116851806640625" lon="-107.69571078009903430938720703125">
        <ele>3991.60009765625</ele>
        <time>2023-07-29T15:31:13.000Z</time>
        <extensions>
          <ns3:TrackPointExtension>
            <ns3:hr>114</ns3:hr>
            <ns3:cad>0</ns3:cad>
          </ns3:TrackPointExtension>
        </extensions>
      </trkpt>
      <trkpt lat="37.77674448676407337188720703125" lon="-107.69571094773709774017333984375">
        <ele>3991.60009765625</ele>
        <time>2023-07-29T15:31:14.000Z</time>
        <extensions>
          <ns3:TrackPointExtension>
            <ns3:hr>114</ns3:hr>
            <ns3:cad>0</ns3:cad>
          </ns3:TrackPointExtension>
        </extensions>
      </trkpt>
      <trkpt lat="37.77674163691699504852294921875" lon="-107.695715390145778656005859375">
        <ele>3991.60009765625</ele>
        <time>2023-07-29T15:31:15.000Z</time>
        <extensions>
          <ns3:TrackPointExtension>
            <ns3:hr>113</ns3:hr>
            <ns3:cad>0</ns3:cad>
          </ns3:TrackPointExtension>
        </extensions>
      </trkpt>
      <trkpt lat="37.776742391288280487060546875" lon="-107.69571312703192234039306640625">
        <ele>3991.60009765625</ele>
        <time>2023-07-29T15:31:16.000Z</time>
        <extensions>
          <ns3:TrackPointExtension>
            <ns3:hr>113</ns3:hr>
            <ns3:cad>0</ns3:cad>
          </ns3:TrackPointExtension>
        </extensions>
      </trkpt>
      <trkpt lat="37.776741050183773040771484375" lon="-107.69571530632674694061279296875">
        <ele>3991.39990234375</ele>
        <time>2023-07-29T15:31:17.000Z</time>
        <extensions>
          <ns3:TrackPointExtension>
            <ns3:hr>112</ns3:hr>
            <ns3:cad>0</ns3:cad>
          </ns3:TrackPointExtension>
        </extensions>
      </trkpt>
      <trkpt lat="37.776738703250885009765625" lon="-107.69571782089769840240478515625">
        <ele>3991.39990234375</ele>
        <time>2023-07-29T15:31:18.000Z</time>
        <extensions>
          <ns3:TrackPointExtension>
            <ns3:hr>112</ns3:hr>
            <ns3:cad>0</ns3:cad>
          </ns3:TrackPointExtension>
        </extensions>
      </trkpt>
      <trkpt lat="37.77673895470798015594482421875" lon="-107.69571631215512752532958984375">
        <ele>3991.39990234375</ele>
        <time>2023-07-29T15:31:19.000Z</time>
        <extensions>
          <ns3:TrackPointExtension>
            <ns3:hr>112</ns3:hr>
            <ns3:cad>0</ns3:cad>
          </ns3:TrackPointExtension>
        </extensions>
      </trkpt>
      <trkpt lat="37.77673895470798015594482421875" lon="-107.69571396522223949432373046875">
        <ele>3991.39990234375</ele>
        <time>2023-07-29T15:31:20.000Z</time>
        <extensions>
          <ns3:TrackPointExtension>
            <ns3:hr>112</ns3:hr>
            <ns3:cad>0</ns3:cad>
          </ns3:TrackPointExtension>
        </extensions>
      </trkpt>
      <trkpt lat="37.77673677541315555572509765625" lon="-107.6957118697464466094970703125">
        <ele>3991.39990234375</ele>
        <time>2023-07-29T15:31:21.000Z</time>
        <extensions>
          <ns3:TrackPointExtension>
            <ns3:hr>111</ns3:hr>
            <ns3:cad>0</ns3:cad>
          </ns3:TrackPointExtension>
        </extensions>
      </trkpt>
      <trkpt lat="37.77673132717609405517578125" lon="-107.6957155577838420867919921875">
        <ele>3991.199951171875</ele>
        <time>2023-07-29T15:31:22.000Z</time>
        <extensions>
          <ns3:TrackPointExtension>
            <ns3:hr>110</ns3:hr>
            <ns3:cad>0</ns3:cad>
          </ns3:TrackPointExtension>
        </extensions>
      </trkpt>
      <trkpt lat="37.7767308242619037628173828125" lon="-107.695716731250286102294921875">
        <ele>3991.199951171875</ele>
        <time>2023-07-29T15:31:23.000Z</time>
        <extensions>
          <ns3:TrackPointExtension>
            <ns3:hr>109</ns3:hr>
            <ns3:cad>0</ns3:cad>
          </ns3:TrackPointExtension>
        </extensions>
      </trkpt>
      <trkpt lat="37.77673057280480861663818359375" lon="-107.69571815617382526397705078125">
        <ele>3991.199951171875</ele>
        <time>2023-07-29T15:31:24.000Z</time>
        <extensions>
          <ns3:TrackPointExtension>
            <ns3:hr>108</ns3:hr>
            <ns3:cad>0</ns3:cad>
          </ns3:TrackPointExtension>
        </extensions>
      </trkpt>
      <trkpt lat="37.7767281420528888702392578125" lon="-107.69571865908801555633544921875">
        <ele>3991.199951171875</ele>
        <time>2023-07-29T15:31:25.000Z</time>
        <extensions>
          <ns3:TrackPointExtension>
            <ns3:hr>107</ns3:hr>
            <ns3:cad>0</ns3:cad>
          </ns3:TrackPointExtension>
        </extensions>
      </trkpt>
      <trkpt lat="37.77672654949128627777099609375" lon="-107.6957170665264129638671875">
        <ele>3991.199951171875</ele>
        <time>2023-07-29T15:31:26.000Z</time>
        <extensions>
          <ns3:TrackPointExtension>
            <ns3:hr>107</ns3:hr>
            <ns3:cad>0</ns3:cad>
          </ns3:TrackPointExtension>
        </extensions>
      </trkpt>
      <trkpt lat="37.7767278067767620086669921875" lon="-107.695714049041271209716796875">
        <ele>3991.199951171875</ele>
        <time>2023-07-29T15:31:27.000Z</time>
        <extensions>
          <ns3:TrackPointExtension>
            <ns3:hr>106</ns3:hr>
            <ns3:cad>0</ns3:cad>
          </ns3:TrackPointExtension>
        </extensions>
      </trkpt>
      <trkpt lat="37.7767308242619037628173828125" lon="-107.69570725969970226287841796875">
        <ele>3991.199951171875</ele>
        <time>2023-07-29T15:31:28.000Z</time>
        <extensions>
          <ns3:TrackPointExtension>
            <ns3:hr>106</ns3:hr>
            <ns3:cad>0</ns3:cad>
          </ns3:TrackPointExtension>
        </extensions>
      </trkpt>
      <trkpt lat="37.77673174627125263214111328125" lon="-107.69570223055779933929443359375">
        <ele>3991.199951171875</ele>
        <time>2023-07-29T15:31:29.000Z</time>
        <extensions>
          <ns3:TrackPointExtension>
            <ns3:hr>106</ns3:hr>
            <ns3:cad>0</ns3:cad>
          </ns3:TrackPointExtension>
        </extensions>
      </trkpt>
      <trkpt lat="37.77673124335706233978271484375" lon="-107.69569820724427700042724609375">
        <ele>3991</ele>
        <time>2023-07-29T15:31:30.000Z</time>
        <extensions>
          <ns3:TrackPointExtension>
            <ns3:hr>106</ns3:hr>
            <ns3:cad>0</ns3:cad>
          </ns3:TrackPointExtension>
        </extensions>
      </trkpt>
      <trkpt lat="37.7767293155193328857421875" lon="-107.69569971598684787750244140625">
        <ele>3991</ele>
        <time>2023-07-29T15:31:31.000Z</time>
        <extensions>
          <ns3:TrackPointExtension>
            <ns3:hr>107</ns3:hr>
            <ns3:cad>0</ns3:cad>
          </ns3:TrackPointExtension>
        </extensions>
      </trkpt>
      <trkpt lat="37.7767293155193328857421875" lon="-107.69569787196815013885498046875">
        <ele>3991</ele>
        <time>2023-07-29T15:31:32.000Z</time>
        <extensions>
          <ns3:TrackPointExtension>
            <ns3:hr>107</ns3:hr>
            <ns3:cad>0</ns3:cad>
          </ns3:TrackPointExtension>
        </extensions>
      </trkpt>
      <trkpt lat="37.77672856114804744720458984375" lon="-107.69569736905395984649658203125">
        <ele>3991</ele>
        <time>2023-07-29T15:31:33.000Z</time>
        <extensions>
          <ns3:TrackPointExtension>
            <ns3:hr>106</ns3:hr>
            <ns3:cad>0</ns3:cad>
          </ns3:TrackPointExtension>
        </extensions>
      </trkpt>
      <trkpt lat="37.77672730386257171630859375" lon="-107.6956944353878498077392578125">
        <ele>3991</ele>
        <time>2023-07-29T15:31:34.000Z</time>
        <extensions>
          <ns3:TrackPointExtension>
            <ns3:hr>104</ns3:hr>
            <ns3:cad>0</ns3:cad>
          </ns3:TrackPointExtension>
        </extensions>
      </trkpt>
      <trkpt lat="37.776725292205810546875" lon="-107.69569250755012035369873046875">
        <ele>3991</ele>
        <time>2023-07-29T15:31:35.000Z</time>
        <extensions>
          <ns3:TrackPointExtension>
            <ns3:hr>103</ns3:hr>
            <ns3:cad>0</ns3:cad>
          </ns3:TrackPointExtension>
        </extensions>
      </trkpt>
      <trkpt lat="37.77672269381582736968994140625" lon="-107.6956927590072154998779296875">
        <ele>3991</ele>
        <time>2023-07-29T15:31:36.000Z</time>
        <extensions>
          <ns3:TrackPointExtension>
            <ns3:hr>103</ns3:hr>
            <ns3:cad>0</ns3:cad>
          </ns3:TrackPointExtension>
        </extensions>
      </trkpt>
      <trkpt lat="37.77672235853970050811767578125" lon="-107.69568957388401031494140625">
        <ele>3991</ele>
        <time>2023-07-29T15:31:37.000Z</time>
        <extensions>
          <ns3:TrackPointExtension>
            <ns3:hr>103</ns3:hr>
            <ns3:cad>0</ns3:cad>
          </ns3:TrackPointExtension>
        </extensions>
      </trkpt>
      <trkpt lat="37.77672068215906620025634765625" lon="-107.69568714313209056854248046875">
        <ele>3991</ele>
        <time>2023-07-29T15:31:38.000Z</time>
        <extensions>
          <ns3:TrackPointExtension>
            <ns3:hr>102</ns3:hr>
            <ns3:cad>0</ns3:cad>
          </ns3:TrackPointExtension>
        </extensions>
      </trkpt>
      <trkpt lat="37.77671783231198787689208984375" lon="-107.695679850876331329345703125">
        <ele>3990.800048828125</ele>
        <time>2023-07-29T15:31:39.000Z</time>
        <extensions>
          <ns3:TrackPointExtension>
            <ns3:hr>101</ns3:hr>
            <ns3:cad>0</ns3:cad>
          </ns3:TrackPointExtension>
        </extensions>
      </trkpt>
      <trkpt lat="37.7767164073884487152099609375" lon="-107.695678174495697021484375">
        <ele>3990.800048828125</ele>
        <time>2023-07-29T15:31:40.000Z</time>
        <extensions>
          <ns3:TrackPointExtension>
            <ns3:hr>101</ns3:hr>
            <ns3:cad>0</ns3:cad>
          </ns3:TrackPointExtension>
        </extensions>
      </trkpt>
      <trkpt lat="37.7767132222652435302734375" lon="-107.69567473791539669036865234375">
        <ele>3990.800048828125</ele>
        <time>2023-07-29T15:31:41.000Z</time>
        <extensions>
          <ns3:TrackPointExtension>
            <ns3:hr>102</ns3:hr>
            <ns3:cad>0</ns3:cad>
          </ns3:TrackPointExtension>
        </extensions>
      </trkpt>
      <trkpt lat="37.77671313844621181488037109375" lon="-107.69567348062992095947265625">
        <ele>3990.800048828125</ele>
        <time>2023-07-29T15:31:42.000Z</time>
        <extensions>
          <ns3:TrackPointExtension>
            <ns3:hr>102</ns3:hr>
            <ns3:cad>0</ns3:cad>
          </ns3:TrackPointExtension>
        </extensions>
      </trkpt>
      <trkpt lat="37.77671045623719692230224609375" lon="-107.69566635601222515106201171875">
        <ele>3990.800048828125</ele>
        <time>2023-07-29T15:31:43.000Z</time>
        <extensions>
          <ns3:TrackPointExtension>
            <ns3:hr>102</ns3:hr>
            <ns3:cad>0</ns3:cad>
          </ns3:TrackPointExtension>
        </extensions>
      </trkpt>
      <trkpt lat="37.7767080254852771759033203125" lon="-107.69565747119486331939697265625">
        <ele>3990.800048828125</ele>
        <time>2023-07-29T15:31:44.000Z</time>
        <extensions>
          <ns3:TrackPointExtension>
            <ns3:hr>102</ns3:hr>
            <ns3:cad>0</ns3:cad>
          </ns3:TrackPointExtension>
        </extensions>
      </trkpt>
      <trkpt lat="37.77670760639011859893798828125" lon="-107.6956473290920257568359375">
        <ele>3990.60009765625</ele>
        <time>2023-07-29T15:31:45.000Z</time>
        <extensions>
          <ns3:TrackPointExtension>
            <ns3:hr>102</ns3:hr>
            <ns3:cad>0</ns3:cad>
          </ns3:TrackPointExtension>
        </extensions>
      </trkpt>
      <trkpt lat="37.77671129442751407623291015625" lon="-107.6956397853791713714599609375">
        <ele>3990.60009765625</ele>
        <time>2023-07-29T15:31:46.000Z</time>
        <extensions>
          <ns3:TrackPointExtension>
            <ns3:hr>101</ns3:hr>
            <ns3:cad>0</ns3:cad>
          </ns3:TrackPointExtension>
        </extensions>
      </trkpt>
      <trkpt lat="37.7767143957316875457763671875" lon="-107.69563048146665096282958984375">
        <ele>3990.60009765625</ele>
        <time>2023-07-29T15:31:47.000Z</time>
        <extensions>
          <ns3:TrackPointExtension>
            <ns3:hr>101</ns3:hr>
            <ns3:cad>0</ns3:cad>
          </ns3:TrackPointExtension>
        </extensions>
      </trkpt>
      <trkpt lat="37.77671380899846553802490234375" lon="-107.69562444649636745452880859375">
        <ele>3990.39990234375</ele>
        <time>2023-07-29T15:31:48.000Z</time>
        <extensions>
          <ns3:TrackPointExtension>
            <ns3:hr>101</ns3:hr>
            <ns3:cad>0</ns3:cad>
          </ns3:TrackPointExtension>
        </extensions>
      </trkpt>
      <trkpt lat="37.7767127193510532379150390625" lon="-107.6956230215728282928466796875">
        <ele>3990.39990234375</ele>
        <time>2023-07-29T15:31:49.000Z</time>
        <extensions>
          <ns3:TrackPointExtension>
            <ns3:hr>101</ns3:hr>
            <ns3:cad>0</ns3:cad>
          </ns3:TrackPointExtension>
        </extensions>
      </trkpt>
      <trkpt lat="37.77670945040881633758544921875" lon="-107.69562310539186000823974609375">
        <ele>3990.39990234375</ele>
        <time>2023-07-29T15:31:50.000Z</time>
        <extensions>
          <ns3:TrackPointExtension>
            <ns3:hr>100</ns3:hr>
            <ns3:cad>0</ns3:cad>
          </ns3:TrackPointExtension>
        </extensions>
      </trkpt>
      <trkpt lat="37.7767060138285160064697265625" lon="-107.69562427885830402374267578125">
        <ele>3990.39990234375</ele>
        <time>2023-07-29T15:31:51.000Z</time>
        <extensions>
          <ns3:TrackPointExtension>
            <ns3:hr>100</ns3:hr>
            <ns3:cad>0</ns3:cad>
          </ns3:TrackPointExtension>
        </extensions>
      </trkpt>
      <trkpt lat="37.7767019905149936676025390625" lon="-107.695624865591526031494140625">
        <ele>3990.39990234375</ele>
        <time>2023-07-29T15:31:52.000Z</time>
        <extensions>
          <ns3:TrackPointExtension>
            <ns3:hr>101</ns3:hr>
            <ns3:cad>0</ns3:cad>
          </ns3:TrackPointExtension>
        </extensions>
      </trkpt>
      <trkpt lat="37.77669872157275676727294921875" lon="-107.69562612287700176239013671875">
        <ele>3990.39990234375</ele>
        <time>2023-07-29T15:31:53.000Z</time>
        <extensions>
          <ns3:TrackPointExtension>
            <ns3:hr>101</ns3:hr>
            <ns3:cad>0</ns3:cad>
          </ns3:TrackPointExtension>
        </extensions>
      </trkpt>
      <trkpt lat="37.77669779956340789794921875" lon="-107.69562209956347942352294921875">
        <ele>3990.39990234375</ele>
        <time>2023-07-29T15:31:54.000Z</time>
        <extensions>
          <ns3:TrackPointExtension>
            <ns3:hr>101</ns3:hr>
            <ns3:cad>0</ns3:cad>
          </ns3:TrackPointExtension>
        </extensions>
      </trkpt>
      <trkpt lat="37.77669805102050304412841796875" lon="-107.69561891444027423858642578125">
        <ele>3990.39990234375</ele>
        <time>2023-07-29T15:31:55.000Z</time>
        <extensions>
          <ns3:TrackPointExtension>
            <ns3:hr>102</ns3:hr>
            <ns3:cad>0</ns3:cad>
          </ns3:TrackPointExtension>
        </extensions>
      </trkpt>
      <trkpt lat="37.77670718729496002197265625" lon="-107.69561002962291240692138671875">
        <ele>3990.39990234375</ele>
        <time>2023-07-29T15:31:56.000Z</time>
        <extensions>
          <ns3:TrackPointExtension>
            <ns3:hr>103</ns3:hr>
            <ns3:cad>0</ns3:cad>
          </ns3:TrackPointExtension>
        </extensions>
      </trkpt>
      <trkpt lat="37.77670919895172119140625" lon="-107.69560533575713634490966796875">
        <ele>3990.39990234375</ele>
        <time>2023-07-29T15:31:57.000Z</time>
        <extensions>
          <ns3:TrackPointExtension>
            <ns3:hr>103</ns3:hr>
            <ns3:cad>0</ns3:cad>
          </ns3:TrackPointExtension>
        </extensions>
      </trkpt>
      <trkpt lat="37.7767107076942920684814453125" lon="-107.6956079341471195220947265625">
        <ele>3990.39990234375</ele>
        <time>2023-07-29T15:31:58.000Z</time>
        <extensions>
          <ns3:TrackPointExtension>
            <ns3:hr>103</ns3:hr>
            <ns3:cad>0</ns3:cad>
          </ns3:TrackPointExtension>
        </extensions>
      </trkpt>
      <trkpt lat="37.776718251407146453857421875" lon="-107.69561983644962310791015625">
        <ele>3990.39990234375</ele>
        <time>2023-07-29T15:31:59.000Z</time>
        <extensions>
          <ns3:TrackPointExtension>
            <ns3:hr>103</ns3:hr>
            <ns3:cad>0</ns3:cad>
          </ns3:TrackPointExtension>
        </extensions>
      </trkpt>
      <trkpt lat="37.77672185562551021575927734375" lon="-107.69563601352274417877197265625">
        <ele>3990.39990234375</ele>
        <time>2023-07-29T15:32:00.000Z</time>
        <extensions>
          <ns3:TrackPointExtension>
            <ns3:hr>102</ns3:hr>
            <ns3:cad>0</ns3:cad>
          </ns3:TrackPointExtension>
        </extensions>
      </trkpt>
      <trkpt lat="37.7767211012542247772216796875" lon="-107.69564121030271053314208984375">
        <ele>3990.39990234375</ele>
        <time>2023-07-29T15:32:01.000Z</time>
        <extensions>
          <ns3:TrackPointExtension>
            <ns3:hr>102</ns3:hr>
            <ns3:cad>0</ns3:cad>
          </ns3:TrackPointExtension>
        </extensions>
      </trkpt>
      <trkpt lat="37.77672017924487590789794921875" lon="-107.6956558786332607269287109375">
        <ele>3990.39990234375</ele>
        <time>2023-07-29T15:32:02.000Z</time>
        <extensions>
          <ns3:TrackPointExtension>
            <ns3:hr>103</ns3:hr>
            <ns3:cad>0</ns3:cad>
          </ns3:TrackPointExtension>
        </extensions>
      </trkpt>
      <trkpt lat="37.77671992778778076171875" lon="-107.69566736184060573577880859375">
        <ele>3990.39990234375</ele>
        <time>2023-07-29T15:32:03.000Z</time>
        <extensions>
          <ns3:TrackPointExtension>
            <ns3:hr>103</ns3:hr>
            <ns3:cad>0</ns3:cad>
          </ns3:TrackPointExtension>
        </extensions>
      </trkpt>
      <trkpt lat="37.7767137251794338226318359375" lon="-107.69567088223993778228759765625">
        <ele>3990.39990234375</ele>
        <time>2023-07-29T15:32:04.000Z</time>
        <extensions>
          <ns3:TrackPointExtension>
            <ns3:hr>103</ns3:hr>
            <ns3:cad>0</ns3:cad>
          </ns3:TrackPointExtension>
        </extensions>
      </trkpt>
      <trkpt lat="37.776708863675594329833984375" lon="-107.69566400907933712005615234375">
        <ele>3990.199951171875</ele>
        <time>2023-07-29T15:32:05.000Z</time>
        <extensions>
          <ns3:TrackPointExtension>
            <ns3:hr>102</ns3:hr>
            <ns3:cad>0</ns3:cad>
          </ns3:TrackPointExtension>
        </extensions>
      </trkpt>
      <trkpt lat="37.77670257724821567535400390625" lon="-107.69565730355679988861083984375">
        <ele>3990.199951171875</ele>
        <time>2023-07-29T15:32:06.000Z</time>
        <extensions>
          <ns3:TrackPointExtension>
            <ns3:hr>102</ns3:hr>
            <ns3:cad>0</ns3:cad>
          </ns3:TrackPointExtension>
        </extensions>
      </trkpt>
      <trkpt lat="37.77669654227793216705322265625" lon="-107.6956508494913578033447265625">
        <ele>3990.199951171875</ele>
        <time>2023-07-29T15:32:07.000Z</time>
        <extensions>
          <ns3:TrackPointExtension>
            <ns3:hr>102</ns3:hr>
            <ns3:cad>0</ns3:cad>
          </ns3:TrackPointExtension>
        </extensions>
      </trkpt>
      <trkpt lat="37.77669318951666355133056640625" lon="-107.69564322195947170257568359375">
        <ele>3990.199951171875</ele>
        <time>2023-07-29T15:32:08.000Z</time>
        <extensions>
          <ns3:TrackPointExtension>
            <ns3:hr>101</ns3:hr>
            <ns3:cad>0</ns3:cad>
          </ns3:TrackPointExtension>
        </extensions>
      </trkpt>
      <trkpt lat="37.776692099869251251220703125" lon="-107.6956391148269176483154296875">
        <ele>3990.199951171875</ele>
        <time>2023-07-29T15:32:09.000Z</time>
        <extensions>
          <ns3:TrackPointExtension>
            <ns3:hr>101</ns3:hr>
            <ns3:cad>0</ns3:cad>
          </ns3:TrackPointExtension>
        </extensions>
      </trkpt>
      <trkpt lat="37.7766917645931243896484375" lon="-107.6956354267895221710205078125">
        <ele>3990.199951171875</ele>
        <time>2023-07-29T15:32:10.000Z</time>
        <extensions>
          <ns3:TrackPointExtension>
            <ns3:hr>101</ns3:hr>
            <ns3:cad>0</ns3:cad>
          </ns3:TrackPointExtension>
        </extensions>
      </trkpt>
      <trkpt lat="37.77669067494571208953857421875" lon="-107.69563316367566585540771484375">
        <ele>3990.199951171875</ele>
        <time>2023-07-29T15:32:11.000Z</time>
        <extensions>
          <ns3:TrackPointExtension>
            <ns3:hr>101</ns3:hr>
            <ns3:cad>0</ns3:cad>
          </ns3:TrackPointExtension>
        </extensions>
      </trkpt>
      <trkpt lat="37.7766922675073146820068359375" lon="-107.69563433714210987091064453125">
        <ele>3990.39990234375</ele>
        <time>2023-07-29T15:32:12.000Z</time>
        <extensions>
          <ns3:TrackPointExtension>
            <ns3:hr>101</ns3:hr>
            <ns3:cad>0</ns3:cad>
          </ns3:TrackPointExtension>
        </extensions>
      </trkpt>
      <trkpt lat="37.776695787906646728515625" lon="-107.695636264979839324951171875">
        <ele>3990.39990234375</ele>
        <time>2023-07-29T15:32:13.000Z</time>
        <extensions>
          <ns3:TrackPointExtension>
            <ns3:hr>100</ns3:hr>
            <ns3:cad>0</ns3:cad>
          </ns3:TrackPointExtension>
        </extensions>
      </trkpt>
      <trkpt lat="37.77670240961015224456787109375" lon="-107.69563936628401279449462890625">
        <ele>3990.39990234375</ele>
        <time>2023-07-29T15:32:14.000Z</time>
        <extensions>
          <ns3:TrackPointExtension>
            <ns3:hr>100</ns3:hr>
            <ns3:cad>0</ns3:cad>
          </ns3:TrackPointExtension>
        </extensions>
      </trkpt>
      <trkpt lat="37.7767026610672473907470703125" lon="-107.695636935532093048095703125">
        <ele>3990.39990234375</ele>
        <time>2023-07-29T15:32:15.000Z</time>
        <extensions>
          <ns3:TrackPointExtension>
            <ns3:hr>100</ns3:hr>
            <ns3:cad>0</ns3:cad>
          </ns3:TrackPointExtension>
        </extensions>
      </trkpt>
      <trkpt lat="37.776701152324676513671875" lon="-107.695635259151458740234375">
        <ele>3990.39990234375</ele>
        <time>2023-07-29T15:32:16.000Z</time>
        <extensions>
          <ns3:TrackPointExtension>
            <ns3:hr>100</ns3:hr>
            <ns3:cad>0</ns3:cad>
          </ns3:TrackPointExtension>
        </extensions>
      </trkpt>
      <trkpt lat="37.77669654227793216705322265625" lon="-107.695630230009555816650390625">
        <ele>3990.39990234375</ele>
        <time>2023-07-29T15:32:17.000Z</time>
        <extensions>
          <ns3:TrackPointExtension>
            <ns3:hr>100</ns3:hr>
            <ns3:cad>0</ns3:cad>
          </ns3:TrackPointExtension>
        </extensions>
      </trkpt>
      <trkpt lat="37.77669050730764865875244140625" lon="-107.69562444649636745452880859375">
        <ele>3990.39990234375</ele>
        <time>2023-07-29T15:32:18.000Z</time>
        <extensions>
          <ns3:TrackPointExtension>
            <ns3:hr>100</ns3:hr>
            <ns3:cad>0</ns3:cad>
          </ns3:TrackPointExtension>
        </extensions>
      </trkpt>
      <trkpt lat="37.77668329887092113494873046875" lon="-107.69561673514544963836669921875">
        <ele>3990.39990234375</ele>
        <time>2023-07-29T15:32:19.000Z</time>
        <extensions>
          <ns3:TrackPointExtension>
            <ns3:hr>99</ns3:hr>
            <ns3:cad>0</ns3:cad>
          </ns3:TrackPointExtension>
        </extensions>
      </trkpt>
      <trkpt lat="37.77667634189128875732421875" lon="-107.6956136338412761688232421875">
        <ele>3990.199951171875</ele>
        <time>2023-07-29T15:32:20.000Z</time>
        <extensions>
          <ns3:TrackPointExtension>
            <ns3:hr>99</ns3:hr>
            <ns3:cad>0</ns3:cad>
          </ns3:TrackPointExtension>
        </extensions>
      </trkpt>
      <trkpt lat="37.77667307294905185699462890625" lon="-107.6956122927367687225341796875">
        <ele>3990</ele>
        <time>2023-07-29T15:32:21.000Z</time>
        <extensions>
          <ns3:TrackPointExtension>
            <ns3:hr>97</ns3:hr>
            <ns3:cad>0</ns3:cad>
          </ns3:TrackPointExtension>
        </extensions>
      </trkpt>
      <trkpt lat="37.77667206712067127227783203125" lon="-107.69561204127967357635498046875">
        <ele>3990</ele>
        <time>2023-07-29T15:32:22.000Z</time>
        <extensions>
          <ns3:TrackPointExtension>
            <ns3:hr>94</ns3:hr>
            <ns3:cad>0</ns3:cad>
          </ns3:TrackPointExtension>
        </extensions>
      </trkpt>
      <trkpt lat="37.776668630540370941162109375" lon="-107.6956092752516269683837890625">
        <ele>3990</ele>
        <time>2023-07-29T15:32:23.000Z</time>
        <extensions>
          <ns3:TrackPointExtension>
            <ns3:hr>93</ns3:hr>
            <ns3:cad>0</ns3:cad>
          </ns3:TrackPointExtension>
        </extensions>
      </trkpt>
      <trkpt lat="37.7766627632081508636474609375" lon="-107.69560969434678554534912109375">
        <ele>3990</ele>
        <time>2023-07-29T15:32:24.000Z</time>
        <extensions>
          <ns3:TrackPointExtension>
            <ns3:hr>92</ns3:hr>
            <ns3:cad>0</ns3:cad>
          </ns3:TrackPointExtension>
        </extensions>
      </trkpt>
      <trkpt lat="37.77665949426591396331787109375" lon="-107.6956126280128955841064453125">
        <ele>3989.800048828125</ele>
        <time>2023-07-29T15:32:25.000Z</time>
        <extensions>
          <ns3:TrackPointExtension>
            <ns3:hr>92</ns3:hr>
            <ns3:cad>0</ns3:cad>
          </ns3:TrackPointExtension>
        </extensions>
      </trkpt>
      <trkpt lat="37.77664893306791782379150390625" lon="-107.69561313092708587646484375">
        <ele>3989.800048828125</ele>
        <time>2023-07-29T15:32:26.000Z</time>
        <extensions>
          <ns3:TrackPointExtension>
            <ns3:hr>92</ns3:hr>
            <ns3:cad>0</ns3:cad>
          </ns3:TrackPointExtension>
        </extensions>
      </trkpt>
      <trkpt lat="37.77664055116474628448486328125" lon="-107.6956260390579700469970703125">
        <ele>3989.800048828125</ele>
        <time>2023-07-29T15:32:27.000Z</time>
        <extensions>
          <ns3:TrackPointExtension>
            <ns3:hr>92</ns3:hr>
            <ns3:cad>0</ns3:cad>
          </ns3:TrackPointExtension>
        </extensions>
      </trkpt>
      <trkpt lat="37.77664155699312686920166015625" lon="-107.6956307329237461090087890625">
        <ele>3990</ele>
        <time>2023-07-29T15:32:28.000Z</time>
        <extensions>
          <ns3:TrackPointExtension>
            <ns3:hr>92</ns3:hr>
            <ns3:cad>0</ns3:cad>
          </ns3:TrackPointExtension>
        </extensions>
      </trkpt>
      <trkpt lat="37.7766439877450466156005859375" lon="-107.69563215784728527069091796875">
        <ele>3989.800048828125</ele>
        <time>2023-07-29T15:32:29.000Z</time>
        <extensions>
          <ns3:TrackPointExtension>
            <ns3:hr>92</ns3:hr>
            <ns3:cad>0</ns3:cad>
          </ns3:TrackPointExtension>
        </extensions>
      </trkpt>
      <trkpt lat="37.77664574794471263885498046875" lon="-107.69562997855246067047119140625">
        <ele>3989.800048828125</ele>
        <time>2023-07-29T15:32:30.000Z</time>
        <extensions>
          <ns3:TrackPointExtension>
            <ns3:hr>92</ns3:hr>
            <ns3:cad>0</ns3:cad>
          </ns3:TrackPointExtension>
        </extensions>
      </trkpt>
      <trkpt lat="37.776646502315998077392578125" lon="-107.69562813453376293182373046875">
        <ele>3989.800048828125</ele>
        <time>2023-07-29T15:32:31.000Z</time>
        <extensions>
          <ns3:TrackPointExtension>
            <ns3:hr>92</ns3:hr>
            <ns3:cad>0</ns3:cad>
          </ns3:TrackPointExtension>
        </extensions>
      </trkpt>
      <trkpt lat="37.7766483463346958160400390625" lon="-107.6956223510205745697021484375">
        <ele>3989.800048828125</ele>
        <time>2023-07-29T15:32:32.000Z</time>
        <extensions>
          <ns3:TrackPointExtension>
            <ns3:hr>92</ns3:hr>
            <ns3:cad>0</ns3:cad>
          </ns3:TrackPointExtension>
        </extensions>
      </trkpt>
      <trkpt lat="37.7766476757824420928955078125" lon="-107.69561673514544963836669921875">
        <ele>3989.800048828125</ele>
        <time>2023-07-29T15:32:33.000Z</time>
        <extensions>
          <ns3:TrackPointExtension>
            <ns3:hr>92</ns3:hr>
            <ns3:cad>0</ns3:cad>
          </ns3:TrackPointExtension>
        </extensions>
      </trkpt>
      <trkpt lat="37.77664683759212493896484375" lon="-107.6956049166619777679443359375">
        <ele>3989.60009765625</ele>
        <time>2023-07-29T15:32:34.000Z</time>
        <extensions>
          <ns3:TrackPointExtension>
            <ns3:hr>92</ns3:hr>
            <ns3:cad>0</ns3:cad>
          </ns3:TrackPointExtension>
        </extensions>
      </trkpt>
      <trkpt lat="37.7766493521630764007568359375" lon="-107.695602737367153167724609375">
        <ele>3989.60009765625</ele>
        <time>2023-07-29T15:32:35.000Z</time>
        <extensions>
          <ns3:TrackPointExtension>
            <ns3:hr>92</ns3:hr>
            <ns3:cad>0</ns3:cad>
          </ns3:TrackPointExtension>
        </extensions>
      </trkpt>
      <trkpt lat="37.77664759196341037750244140625" lon="-107.6955998875200748443603515625">
        <ele>3989.60009765625</ele>
        <time>2023-07-29T15:32:36.000Z</time>
        <extensions>
          <ns3:TrackPointExtension>
            <ns3:hr>92</ns3:hr>
            <ns3:cad>0</ns3:cad>
          </ns3:TrackPointExtension>
        </extensions>
      </trkpt>
      <trkpt lat="37.77664675377309322357177734375" lon="-107.69559728913009166717529296875">
        <ele>3989.39990234375</ele>
        <time>2023-07-29T15:32:37.000Z</time>
        <extensions>
          <ns3:TrackPointExtension>
            <ns3:hr>92</ns3:hr>
            <ns3:cad>0</ns3:cad>
          </ns3:TrackPointExtension>
        </extensions>
      </trkpt>
      <trkpt lat="37.7766480110585689544677734375" lon="-107.6955965347588062286376953125">
        <ele>3989.39990234375</ele>
        <time>2023-07-29T15:32:38.000Z</time>
        <extensions>
          <ns3:TrackPointExtension>
            <ns3:hr>94</ns3:hr>
            <ns3:cad>0</ns3:cad>
          </ns3:TrackPointExtension>
        </extensions>
      </trkpt>
      <trkpt lat="37.7766496874392032623291015625" lon="-107.69559259526431560516357421875">
        <ele>3989.199951171875</ele>
        <time>2023-07-29T15:32:39.000Z</time>
        <extensions>
          <ns3:TrackPointExtension>
            <ns3:hr>95</ns3:hr>
            <ns3:cad>0</ns3:cad>
          </ns3:TrackPointExtension>
        </extensions>
      </trkpt>
      <trkpt lat="37.7766550518572330474853515625" lon="-107.695587314665317535400390625">
        <ele>3989</ele>
        <time>2023-07-29T15:32:40.000Z</time>
        <extensions>
          <ns3:TrackPointExtension>
            <ns3:hr>98</ns3:hr>
            <ns3:cad>0</ns3:cad>
          </ns3:TrackPointExtension>
        </extensions>
      </trkpt>
      <trkpt lat="37.7766604162752628326416015625" lon="-107.69559167325496673583984375">
        <ele>3989</ele>
        <time>2023-07-29T15:32:41.000Z</time>
        <extensions>
          <ns3:TrackPointExtension>
            <ns3:hr>102</ns3:hr>
            <ns3:cad>0</ns3:cad>
          </ns3:TrackPointExtension>
        </extensions>
      </trkpt>
      <trkpt lat="37.77666619978845119476318359375" lon="-107.695594690740108489990234375">
        <ele>3989</ele>
        <time>2023-07-29T15:32:42.000Z</time>
        <extensions>
          <ns3:TrackPointExtension>
            <ns3:hr>105</ns3:hr>
            <ns3:cad>0</ns3:cad>
          </ns3:TrackPointExtension>
        </extensions>
      </trkpt>
      <trkpt lat="37.77667055837810039520263671875" lon="-107.695603072643280029296875">
        <ele>3989</ele>
        <time>2023-07-29T15:32:43.000Z</time>
        <extensions>
          <ns3:TrackPointExtension>
            <ns3:hr>107</ns3:hr>
            <ns3:cad>0</ns3:cad>
          </ns3:TrackPointExtension>
        </extensions>
      </trkpt>
      <trkpt lat="37.7766724862158298492431640625" lon="-107.6956072635948657989501953125">
        <ele>3989</ele>
        <time>2023-07-29T15:32:44.000Z</time>
        <extensions>
          <ns3:TrackPointExtension>
            <ns3:hr>109</ns3:hr>
            <ns3:cad>0</ns3:cad>
          </ns3:TrackPointExtension>
        </extensions>
      </trkpt>
      <trkpt lat="37.776676677167415618896484375" lon="-107.695614807307720184326171875">
        <ele>3989</ele>
        <time>2023-07-29T15:32:45.000Z</time>
        <extensions>
          <ns3:TrackPointExtension>
            <ns3:hr>109</ns3:hr>
            <ns3:cad>0</ns3:cad>
          </ns3:TrackPointExtension>
        </extensions>
      </trkpt>
      <trkpt lat="37.77667902410030364990234375" lon="-107.69562193192541599273681640625">
        <ele>3989</ele>
        <time>2023-07-29T15:32:46.000Z</time>
        <extensions>
          <ns3:TrackPointExtension>
            <ns3:hr>110</ns3:hr>
            <ns3:cad>0</ns3:cad>
          </ns3:TrackPointExtension>
        </extensions>
      </trkpt>
      <trkpt lat="37.7766812033951282501220703125" lon="-107.69563031382858753204345703125">
        <ele>3989</ele>
        <time>2023-07-29T15:32:47.000Z</time>
        <extensions>
          <ns3:TrackPointExtension>
            <ns3:hr>109</ns3:hr>
            <ns3:cad>0</ns3:cad>
          </ns3:TrackPointExtension>
        </extensions>
      </trkpt>
      <trkpt lat="37.77667759917676448822021484375" lon="-107.69563148729503154754638671875">
        <ele>3988.800048828125</ele>
        <time>2023-07-29T15:32:48.000Z</time>
        <extensions>
          <ns3:TrackPointExtension>
            <ns3:hr>109</ns3:hr>
            <ns3:cad>0</ns3:cad>
          </ns3:TrackPointExtension>
        </extensions>
      </trkpt>
      <trkpt lat="37.776671983301639556884765625" lon="-107.6956312358379364013671875">
        <ele>3988.800048828125</ele>
        <time>2023-07-29T15:32:49.000Z</time>
        <extensions>
          <ns3:TrackPointExtension>
            <ns3:hr>108</ns3:hr>
            <ns3:cad>0</ns3:cad>
          </ns3:TrackPointExtension>
        </extensions>
      </trkpt>
      <trkpt lat="37.776669971644878387451171875" lon="-107.695632912218570709228515625">
        <ele>3989</ele>
        <time>2023-07-29T15:32:50.000Z</time>
        <extensions>
          <ns3:TrackPointExtension>
            <ns3:hr>108</ns3:hr>
            <ns3:cad>0</ns3:cad>
          </ns3:TrackPointExtension>
        </extensions>
      </trkpt>
      <trkpt lat="37.77666972018778324127197265625" lon="-107.69563601352274417877197265625">
        <ele>3989</ele>
        <time>2023-07-29T15:32:51.000Z</time>
        <extensions>
          <ns3:TrackPointExtension>
            <ns3:hr>108</ns3:hr>
            <ns3:cad>0</ns3:cad>
          </ns3:TrackPointExtension>
        </extensions>
      </trkpt>
      <trkpt lat="37.7766681276261806488037109375" lon="-107.69563752226531505584716796875">
        <ele>3989</ele>
        <time>2023-07-29T15:32:52.000Z</time>
        <extensions>
          <ns3:TrackPointExtension>
            <ns3:hr>108</ns3:hr>
            <ns3:cad>0</ns3:cad>
          </ns3:TrackPointExtension>
        </extensions>
      </trkpt>
      <trkpt lat="37.77666695415973663330078125" lon="-107.69563651643693447113037109375">
        <ele>3989</ele>
        <time>2023-07-29T15:32:53.000Z</time>
        <extensions>
          <ns3:TrackPointExtension>
            <ns3:hr>108</ns3:hr>
            <ns3:cad>0</ns3:cad>
          </ns3:TrackPointExtension>
        </extensions>
      </trkpt>
      <trkpt lat="37.7766667865216732025146484375" lon="-107.69563592970371246337890625">
        <ele>3989</ele>
        <time>2023-07-29T15:32:54.000Z</time>
        <extensions>
          <ns3:TrackPointExtension>
            <ns3:hr>108</ns3:hr>
            <ns3:cad>0</ns3:cad>
          </ns3:TrackPointExtension>
        </extensions>
      </trkpt>
      <trkpt lat="37.77666720561683177947998046875" lon="-107.69563886336982250213623046875">
        <ele>3989</ele>
        <time>2023-07-29T15:32:55.000Z</time>
        <extensions>
          <ns3:TrackPointExtension>
            <ns3:hr>108</ns3:hr>
            <ns3:cad>0</ns3:cad>
          </ns3:TrackPointExtension>
        </extensions>
      </trkpt>
      <trkpt lat="37.7766676247119903564453125" lon="-107.69564129412174224853515625">
        <ele>3989</ele>
        <time>2023-07-29T15:32:56.000Z</time>
        <extensions>
          <ns3:TrackPointExtension>
            <ns3:hr>108</ns3:hr>
            <ns3:cad>0</ns3:cad>
          </ns3:TrackPointExtension>
        </extensions>
      </trkpt>
      <trkpt lat="37.77666703797876834869384765625" lon="-107.69564322195947170257568359375">
        <ele>3989</ele>
        <time>2023-07-29T15:32:57.000Z</time>
        <extensions>
          <ns3:TrackPointExtension>
            <ns3:hr>108</ns3:hr>
            <ns3:cad>0</ns3:cad>
          </ns3:TrackPointExtension>
        </extensions>
      </trkpt>
      <trkpt lat="37.7766676247119903564453125" lon="-107.6956454850733280181884765625">
        <ele>3989</ele>
        <time>2023-07-29T15:32:58.000Z</time>
        <extensions>
          <ns3:TrackPointExtension>
            <ns3:hr>108</ns3:hr>
            <ns3:cad>0</ns3:cad>
          </ns3:TrackPointExtension>
        </extensions>
      </trkpt>
      <trkpt lat="37.77666963636875152587890625" lon="-107.69564389251172542572021484375">
        <ele>3989</ele>
        <time>2023-07-29T15:32:59.000Z</time>
        <extensions>
          <ns3:TrackPointExtension>
            <ns3:hr>107</ns3:hr>
            <ns3:cad>0</ns3:cad>
          </ns3:TrackPointExtension>
        </extensions>
      </trkpt>
      <trkpt lat="37.77667642571032047271728515625" lon="-107.69562788307666778564453125">
        <ele>3989</ele>
        <time>2023-07-29T15:33:00.000Z</time>
        <extensions>
          <ns3:TrackPointExtension>
            <ns3:hr>107</ns3:hr>
            <ns3:cad>0</ns3:cad>
          </ns3:TrackPointExtension>
        </extensions>
      </trkpt>
      <trkpt lat="37.7766768448054790496826171875" lon="-107.6956314034759998321533203125">
        <ele>3989</ele>
        <time>2023-07-29T15:33:01.000Z</time>
        <extensions>
          <ns3:TrackPointExtension>
            <ns3:hr>107</ns3:hr>
            <ns3:cad>0</ns3:cad>
          </ns3:TrackPointExtension>
        </extensions>
      </trkpt>
      <trkpt lat="37.77668028138577938079833984375" lon="-107.69562796689569950103759765625">
        <ele>3989</ele>
        <time>2023-07-29T15:33:02.000Z</time>
        <extensions>
          <ns3:TrackPointExtension>
            <ns3:hr>107</ns3:hr>
            <ns3:cad>0</ns3:cad>
          </ns3:TrackPointExtension>
        </extensions>
      </trkpt>
      <trkpt lat="37.77668095193803310394287109375" lon="-107.6956283859908580780029296875">
        <ele>3989</ele>
        <time>2023-07-29T15:33:03.000Z</time>
        <extensions>
          <ns3:TrackPointExtension>
            <ns3:hr>108</ns3:hr>
            <ns3:cad>0</ns3:cad>
          </ns3:TrackPointExtension>
        </extensions>
      </trkpt>
      <trkpt lat="37.776679359376430511474609375" lon="-107.69562813453376293182373046875">
        <ele>3989</ele>
        <time>2023-07-29T15:33:04.000Z</time>
        <extensions>
          <ns3:TrackPointExtension>
            <ns3:hr>108</ns3:hr>
            <ns3:cad>0</ns3:cad>
          </ns3:TrackPointExtension>
        </extensions>
      </trkpt>
      <trkpt lat="37.7766761742532253265380859375" lon="-107.69563383422791957855224609375">
        <ele>3988.800048828125</ele>
        <time>2023-07-29T15:33:05.000Z</time>
        <extensions>
          <ns3:TrackPointExtension>
            <ns3:hr>107</ns3:hr>
            <ns3:cad>0</ns3:cad>
          </ns3:TrackPointExtension>
        </extensions>
      </trkpt>
      <trkpt lat="37.7766711451113224029541015625" lon="-107.69564640708267688751220703125">
        <ele>3988.800048828125</ele>
        <time>2023-07-29T15:33:06.000Z</time>
        <extensions>
          <ns3:TrackPointExtension>
            <ns3:hr>106</ns3:hr>
            <ns3:cad>0</ns3:cad>
          </ns3:TrackPointExtension>
        </extensions>
      </trkpt>
      <trkpt lat="37.77666628360748291015625" lon="-107.69565143622457981109619140625">
        <ele>3988.800048828125</ele>
        <time>2023-07-29T15:33:07.000Z</time>
        <extensions>
          <ns3:TrackPointExtension>
            <ns3:hr>105</ns3:hr>
            <ns3:cad>0</ns3:cad>
          </ns3:TrackPointExtension>
        </extensions>
      </trkpt>
      <trkpt lat="37.77666150592267513275146484375" lon="-107.695654369890689849853515625">
        <ele>3988.60009765625</ele>
        <time>2023-07-29T15:33:08.000Z</time>
        <extensions>
          <ns3:TrackPointExtension>
            <ns3:hr>105</ns3:hr>
            <ns3:cad>0</ns3:cad>
          </ns3:TrackPointExtension>
        </extensions>
      </trkpt>
      <trkpt lat="37.7766607515513896942138671875" lon="-107.69565738737583160400390625">
        <ele>3988.60009765625</ele>
        <time>2023-07-29T15:33:09.000Z</time>
        <extensions>
          <ns3:TrackPointExtension>
            <ns3:hr>106</ns3:hr>
            <ns3:cad>0</ns3:cad>
          </ns3:TrackPointExtension>
        </extensions>
      </trkpt>
      <trkpt lat="37.77665890753269195556640625" lon="-107.695661745965480804443359375">
        <ele>3988.39990234375</ele>
        <time>2023-07-29T15:33:10.000Z</time>
        <extensions>
          <ns3:TrackPointExtension>
            <ns3:hr>106</ns3:hr>
            <ns3:cad>0</ns3:cad>
          </ns3:TrackPointExtension>
        </extensions>
      </trkpt>
      <trkpt lat="37.7766584046185016632080078125" lon="-107.695669792592525482177734375">
        <ele>3988.39990234375</ele>
        <time>2023-07-29T15:33:11.000Z</time>
        <extensions>
          <ns3:TrackPointExtension>
            <ns3:hr>106</ns3:hr>
            <ns3:cad>0</ns3:cad>
          </ns3:TrackPointExtension>
        </extensions>
      </trkpt>
      <trkpt lat="37.77666200883686542510986328125" lon="-107.69567884504795074462890625">
        <ele>3988.39990234375</ele>
        <time>2023-07-29T15:33:12.000Z</time>
        <extensions>
          <ns3:TrackPointExtension>
            <ns3:hr>106</ns3:hr>
            <ns3:cad>0</ns3:cad>
          </ns3:TrackPointExtension>
        </extensions>
      </trkpt>
      <trkpt lat="37.77666569687426090240478515625" lon="-107.69568881951272487640380859375">
        <ele>3988.39990234375</ele>
        <time>2023-07-29T15:33:13.000Z</time>
        <extensions>
          <ns3:TrackPointExtension>
            <ns3:hr>106</ns3:hr>
            <ns3:cad>0</ns3:cad>
          </ns3:TrackPointExtension>
        </extensions>
      </trkpt>
      <trkpt lat="37.776671312749385833740234375" lon="-107.6956987939774990081787109375">
        <ele>3988.199951171875</ele>
        <time>2023-07-29T15:33:14.000Z</time>
        <extensions>
          <ns3:TrackPointExtension>
            <ns3:hr>106</ns3:hr>
            <ns3:cad>0</ns3:cad>
          </ns3:TrackPointExtension>
        </extensions>
      </trkpt>
      <trkpt lat="37.77666787616908550262451171875" lon="-107.6957172341644763946533203125">
        <ele>3988</ele>
        <time>2023-07-29T15:33:15.000Z</time>
        <extensions>
          <ns3:TrackPointExtension>
            <ns3:hr>106</ns3:hr>
            <ns3:cad>0</ns3:cad>
          </ns3:TrackPointExtension>
        </extensions>
      </trkpt>
      <trkpt lat="37.77666921727359294891357421875" lon="-107.69572444260120391845703125">
        <ele>3987.800048828125</ele>
        <time>2023-07-29T15:33:16.000Z</time>
        <extensions>
          <ns3:TrackPointExtension>
            <ns3:hr>106</ns3:hr>
            <ns3:cad>0</ns3:cad>
          </ns3:TrackPointExtension>
        </extensions>
      </trkpt>
      <trkpt lat="37.77666871435940265655517578125" lon="-107.69572720862925052642822265625">
        <ele>3987.800048828125</ele>
        <time>2023-07-29T15:33:17.000Z</time>
        <extensions>
          <ns3:TrackPointExtension>
            <ns3:hr>106</ns3:hr>
            <ns3:cad>0</ns3:cad>
          </ns3:TrackPointExtension>
        </extensions>
      </trkpt>
      <trkpt lat="37.7766684629023075103759765625" lon="-107.69574279896914958953857421875">
        <ele>3987.60009765625</ele>
        <time>2023-07-29T15:33:18.000Z</time>
        <extensions>
          <ns3:TrackPointExtension>
            <ns3:hr>105</ns3:hr>
            <ns3:cad>0</ns3:cad>
          </ns3:TrackPointExtension>
        </extensions>
      </trkpt>
      <trkpt lat="37.77666737325489521026611328125" lon="-107.69575000740587711334228515625">
        <ele>3987.39990234375</ele>
        <time>2023-07-29T15:33:19.000Z</time>
        <extensions>
          <ns3:TrackPointExtension>
            <ns3:hr>105</ns3:hr>
            <ns3:cad>0</ns3:cad>
          </ns3:TrackPointExtension>
        </extensions>
      </trkpt>
      <trkpt lat="37.77666829526424407958984375" lon="-107.69575403071939945220947265625">
        <ele>3987.199951171875</ele>
        <time>2023-07-29T15:33:20.000Z</time>
        <extensions>
          <ns3:TrackPointExtension>
            <ns3:hr>105</ns3:hr>
            <ns3:cad>0</ns3:cad>
          </ns3:TrackPointExtension>
        </extensions>
      </trkpt>
      <trkpt lat="37.776667959988117218017578125" lon="-107.6957524381577968597412109375">
        <ele>3987.199951171875</ele>
        <time>2023-07-29T15:33:21.000Z</time>
        <extensions>
          <ns3:TrackPointExtension>
            <ns3:hr>105</ns3:hr>
            <ns3:cad>0</ns3:cad>
          </ns3:TrackPointExtension>
        </extensions>
      </trkpt>
      <trkpt lat="37.77666988782584667205810546875" lon="-107.69575537182390689849853515625">
        <ele>3986.60009765625</ele>
        <time>2023-07-29T15:33:22.000Z</time>
        <extensions>
          <ns3:TrackPointExtension>
            <ns3:hr>105</ns3:hr>
            <ns3:cad>0</ns3:cad>
          </ns3:TrackPointExtension>
        </extensions>
      </trkpt>
      <trkpt lat="37.7766681276261806488037109375" lon="-107.69575336016714572906494140625">
        <ele>3986.60009765625</ele>
        <time>2023-07-29T15:33:23.000Z</time>
        <extensions>
          <ns3:TrackPointExtension>
            <ns3:hr>105</ns3:hr>
            <ns3:cad>0</ns3:cad>
          </ns3:TrackPointExtension>
        </extensions>
      </trkpt>
      <trkpt lat="37.77666703797876834869384765625" lon="-107.69574858248233795166015625">
        <ele>3986.39990234375</ele>
        <time>2023-07-29T15:33:24.000Z</time>
        <extensions>
          <ns3:TrackPointExtension>
            <ns3:hr>104</ns3:hr>
            <ns3:cad>0</ns3:cad>
          </ns3:TrackPointExtension>
        </extensions>
      </trkpt>
      <trkpt lat="37.7766681276261806488037109375" lon="-107.6957490853965282440185546875">
        <ele>3986.199951171875</ele>
        <time>2023-07-29T15:33:25.000Z</time>
        <extensions>
          <ns3:TrackPointExtension>
            <ns3:hr>104</ns3:hr>
            <ns3:cad>0</ns3:cad>
          </ns3:TrackPointExtension>
        </extensions>
      </trkpt>
      <trkpt lat="37.77667055837810039520263671875" lon="-107.695744223892688751220703125">
        <ele>3986</ele>
        <time>2023-07-29T15:33:26.000Z</time>
        <extensions>
          <ns3:TrackPointExtension>
            <ns3:hr>104</ns3:hr>
            <ns3:cad>0</ns3:cad>
          </ns3:TrackPointExtension>
        </extensions>
      </trkpt>
      <trkpt lat="37.77667290531098842620849609375" lon="-107.69573424942791461944580078125">
        <ele>3986</ele>
        <time>2023-07-29T15:33:27.000Z</time>
        <extensions>
          <ns3:TrackPointExtension>
            <ns3:hr>104</ns3:hr>
            <ns3:cad>0</ns3:cad>
          </ns3:TrackPointExtension>
        </extensions>
      </trkpt>
      <trkpt lat="37.7766741625964641571044921875" lon="-107.6957356743514537811279296875">
        <ele>3985.800048828125</ele>
        <time>2023-07-29T15:33:28.000Z</time>
        <extensions>
          <ns3:TrackPointExtension>
            <ns3:hr>104</ns3:hr>
            <ns3:cad>0</ns3:cad>
          </ns3:TrackPointExtension>
        </extensions>
      </trkpt>
      <trkpt lat="37.77667441405355930328369140625" lon="-107.69574648700654506683349609375">
        <ele>3985.800048828125</ele>
        <time>2023-07-29T15:33:29.000Z</time>
        <extensions>
          <ns3:TrackPointExtension>
            <ns3:hr>104</ns3:hr>
            <ns3:cad>0</ns3:cad>
          </ns3:TrackPointExtension>
        </extensions>
      </trkpt>
      <trkpt lat="37.7766716480255126953125" lon="-107.6957467384636402130126953125">
        <ele>3985.60009765625</ele>
        <time>2023-07-29T15:33:30.000Z</time>
        <extensions>
          <ns3:TrackPointExtension>
            <ns3:hr>104</ns3:hr>
            <ns3:cad>0</ns3:cad>
          </ns3:TrackPointExtension>
        </extensions>
      </trkpt>
      <trkpt lat="37.7766729891300201416015625" lon="-107.69574967212975025177001953125">
        <ele>3985.39990234375</ele>
        <time>2023-07-29T15:33:31.000Z</time>
        <extensions>
          <ns3:TrackPointExtension>
            <ns3:hr>103</ns3:hr>
            <ns3:cad>0</ns3:cad>
          </ns3:TrackPointExtension>
        </extensions>
      </trkpt>
      <trkpt lat="37.7766775153577327728271484375" lon="-107.69575386308133602142333984375">
        <ele>3985.39990234375</ele>
        <time>2023-07-29T15:33:32.000Z</time>
        <extensions>
          <ns3:TrackPointExtension>
            <ns3:hr>103</ns3:hr>
            <ns3:cad>0</ns3:cad>
          </ns3:TrackPointExtension>
        </extensions>
      </trkpt>
      <trkpt lat="37.77667776681482791900634765625" lon="-107.69576157443225383758544921875">
        <ele>3985.199951171875</ele>
        <time>2023-07-29T15:33:33.000Z</time>
        <extensions>
          <ns3:TrackPointExtension>
            <ns3:hr>103</ns3:hr>
            <ns3:cad>0</ns3:cad>
          </ns3:TrackPointExtension>
        </extensions>
      </trkpt>
      <trkpt lat="37.77667541988193988800048828125" lon="-107.69576576538383960723876953125">
        <ele>3985.199951171875</ele>
        <time>2023-07-29T15:33:34.000Z</time>
        <extensions>
          <ns3:TrackPointExtension>
            <ns3:hr>103</ns3:hr>
            <ns3:cad>0</ns3:cad>
          </ns3:TrackPointExtension>
        </extensions>
      </trkpt>
      <trkpt lat="37.7766768448054790496826171875" lon="-107.69578051753342151641845703125">
        <ele>3984.800048828125</ele>
        <time>2023-07-29T15:33:35.000Z</time>
        <extensions>
          <ns3:TrackPointExtension>
            <ns3:hr>102</ns3:hr>
            <ns3:cad>0</ns3:cad>
          </ns3:TrackPointExtension>
        </extensions>
      </trkpt>
      <trkpt lat="37.77667491696774959564208984375" lon="-107.6957802660763263702392578125">
        <ele>3984.800048828125</ele>
        <time>2023-07-29T15:33:36.000Z</time>
        <extensions>
          <ns3:TrackPointExtension>
            <ns3:hr>100</ns3:hr>
            <ns3:cad>0</ns3:cad>
          </ns3:TrackPointExtension>
        </extensions>
      </trkpt>
      <trkpt lat="37.7766738273203372955322265625" lon="-107.69577817060053348541259765625">
        <ele>3984.199951171875</ele>
        <time>2023-07-29T15:33:37.000Z</time>
        <extensions>
          <ns3:TrackPointExtension>
            <ns3:hr>99</ns3:hr>
            <ns3:cad>0</ns3:cad>
          </ns3:TrackPointExtension>
        </extensions>
      </trkpt>
      <trkpt lat="37.776674330234527587890625" lon="-107.69577582366764545440673828125">
        <ele>3984.199951171875</ele>
        <time>2023-07-29T15:33:38.000Z</time>
        <extensions>
          <ns3:TrackPointExtension>
            <ns3:hr>98</ns3:hr>
            <ns3:cad>0</ns3:cad>
          </ns3:TrackPointExtension>
        </extensions>
      </trkpt>
      <trkpt lat="37.77667307294905185699462890625" lon="-107.6957785896956920623779296875">
        <ele>3984.199951171875</ele>
        <time>2023-07-29T15:33:39.000Z</time>
        <extensions>
          <ns3:TrackPointExtension>
            <ns3:hr>98</ns3:hr>
            <ns3:cad>0</ns3:cad>
          </ns3:TrackPointExtension>
        </extensions>
      </trkpt>
      <trkpt lat="37.776672653853893280029296875" lon="-107.69577666185796260833740234375">
        <ele>3984</ele>
        <time>2023-07-29T15:33:40.000Z</time>
        <extensions>
          <ns3:TrackPointExtension>
            <ns3:hr>97</ns3:hr>
            <ns3:cad>0</ns3:cad>
          </ns3:TrackPointExtension>
        </extensions>
      </trkpt>
      <trkpt lat="37.77667500078678131103515625" lon="-107.6957789249718189239501953125">
        <ele>3984</ele>
        <time>2023-07-29T15:33:41.000Z</time>
        <extensions>
          <ns3:TrackPointExtension>
            <ns3:hr>97</ns3:hr>
            <ns3:cad>0</ns3:cad>
          </ns3:TrackPointExtension>
        </extensions>
      </trkpt>
      <trkpt lat="37.77667634189128875732421875" lon="-107.69578051753342151641845703125">
        <ele>3983.60009765625</ele>
        <time>2023-07-29T15:33:42.000Z</time>
        <extensions>
          <ns3:TrackPointExtension>
            <ns3:hr>96</ns3:hr>
            <ns3:cad>0</ns3:cad>
          </ns3:TrackPointExtension>
        </extensions>
      </trkpt>
      <trkpt lat="37.776678018271923065185546875" lon="-107.6957886479794979095458984375">
        <ele>3983.39990234375</ele>
        <time>2023-07-29T15:33:43.000Z</time>
        <extensions>
          <ns3:TrackPointExtension>
            <ns3:hr>96</ns3:hr>
            <ns3:cad>0</ns3:cad>
          </ns3:TrackPointExtension>
        </extensions>
      </trkpt>
      <trkpt lat="37.776680029928684234619140625" lon="-107.69580063410103321075439453125">
        <ele>3983.39990234375</ele>
        <time>2023-07-29T15:33:44.000Z</time>
        <extensions>
          <ns3:TrackPointExtension>
            <ns3:hr>95</ns3:hr>
            <ns3:cad>0</ns3:cad>
          </ns3:TrackPointExtension>
        </extensions>
      </trkpt>
      <trkpt lat="37.7766810357570648193359375" lon="-107.69581404514610767364501953125">
        <ele>3983.199951171875</ele>
        <time>2023-07-29T15:33:45.000Z</time>
        <extensions>
          <ns3:TrackPointExtension>
            <ns3:hr>95</ns3:hr>
            <ns3:cad>0</ns3:cad>
          </ns3:TrackPointExtension>
        </extensions>
      </trkpt>
      <trkpt lat="37.77668170630931854248046875" lon="-107.6958288811147212982177734375">
        <ele>3983.199951171875</ele>
        <time>2023-07-29T15:33:46.000Z</time>
        <extensions>
          <ns3:TrackPointExtension>
            <ns3:hr>95</ns3:hr>
            <ns3:cad>0</ns3:cad>
          </ns3:TrackPointExtension>
        </extensions>
      </trkpt>
      <trkpt lat="37.7766835503280162811279296875" lon="-107.69584220834076404571533203125">
        <ele>3983.199951171875</ele>
        <time>2023-07-29T15:33:47.000Z</time>
        <extensions>
          <ns3:TrackPointExtension>
            <ns3:hr>95</ns3:hr>
            <ns3:cad>0</ns3:cad>
          </ns3:TrackPointExtension>
        </extensions>
      </trkpt>
      <trkpt lat="37.77668279595673084259033203125" lon="-107.6958479918539524078369140625">
        <ele>3983</ele>
        <time>2023-07-29T15:33:48.000Z</time>
        <extensions>
          <ns3:TrackPointExtension>
            <ns3:hr>95</ns3:hr>
            <ns3:cad>0</ns3:cad>
          </ns3:TrackPointExtension>
        </extensions>
      </trkpt>
      <trkpt lat="37.7766835503280162811279296875" lon="-107.69585109315812587738037109375">
        <ele>3983</ele>
        <time>2023-07-29T15:33:49.000Z</time>
        <extensions>
          <ns3:TrackPointExtension>
            <ns3:hr>94</ns3:hr>
            <ns3:cad>0</ns3:cad>
          </ns3:TrackPointExtension>
        </extensions>
      </trkpt>
      <trkpt lat="37.77668304741382598876953125" lon="-107.69585478119552135467529296875">
        <ele>3982.800048828125</ele>
        <time>2023-07-29T15:33:50.000Z</time>
        <extensions>
          <ns3:TrackPointExtension>
            <ns3:hr>94</ns3:hr>
            <ns3:cad>0</ns3:cad>
          </ns3:TrackPointExtension>
        </extensions>
      </trkpt>
      <trkpt lat="37.776684723794460296630859375" lon="-107.69585578702390193939208984375">
        <ele>3982.800048828125</ele>
        <time>2023-07-29T15:33:51.000Z</time>
        <extensions>
          <ns3:TrackPointExtension>
            <ns3:hr>94</ns3:hr>
            <ns3:cad>0</ns3:cad>
          </ns3:TrackPointExtension>
        </extensions>
      </trkpt>
      <trkpt lat="37.7766869030892848968505859375" lon="-107.6958592236042022705078125">
        <ele>3982.60009765625</ele>
        <time>2023-07-29T15:33:52.000Z</time>
        <extensions>
          <ns3:TrackPointExtension>
            <ns3:hr>94</ns3:hr>
            <ns3:cad>0</ns3:cad>
          </ns3:TrackPointExtension>
        </extensions>
      </trkpt>
      <trkpt lat="37.7766890823841094970703125" lon="-107.6958620734512805938720703125">
        <ele>3982.199951171875</ele>
        <time>2023-07-29T15:33:53.000Z</time>
        <extensions>
          <ns3:TrackPointExtension>
            <ns3:hr>94</ns3:hr>
            <ns3:cad>0</ns3:cad>
          </ns3:TrackPointExtension>
        </extensions>
      </trkpt>
      <trkpt lat="37.776692770421504974365234375" lon="-107.69586182199418544769287109375">
        <ele>3982</ele>
        <time>2023-07-29T15:33:54.000Z</time>
        <extensions>
          <ns3:TrackPointExtension>
            <ns3:hr>94</ns3:hr>
            <ns3:cad>0</ns3:cad>
          </ns3:TrackPointExtension>
        </extensions>
      </trkpt>
      <trkpt lat="37.77669419534504413604736328125" lon="-107.69586400128901004791259765625">
        <ele>3982</ele>
        <time>2023-07-29T15:33:55.000Z</time>
        <extensions>
          <ns3:TrackPointExtension>
            <ns3:hr>94</ns3:hr>
            <ns3:cad>0</ns3:cad>
          </ns3:TrackPointExtension>
        </extensions>
      </trkpt>
      <trkpt lat="37.7766969613730907440185546875" lon="-107.69586517475545406341552734375">
        <ele>3981.60009765625</ele>
        <time>2023-07-29T15:33:56.000Z</time>
        <extensions>
          <ns3:TrackPointExtension>
            <ns3:hr>93</ns3:hr>
            <ns3:cad>0</ns3:cad>
          </ns3:TrackPointExtension>
        </extensions>
      </trkpt>
      <trkpt lat="37.77669779956340789794921875" lon="-107.695876993238925933837890625">
        <ele>3981.39990234375</ele>
        <time>2023-07-29T15:33:57.000Z</time>
        <extensions>
          <ns3:TrackPointExtension>
            <ns3:hr>94</ns3:hr>
            <ns3:cad>0</ns3:cad>
          </ns3:TrackPointExtension>
        </extensions>
      </trkpt>
      <trkpt lat="37.77670173905789852142333984375" lon="-107.69587942399084568023681640625">
        <ele>3981.199951171875</ele>
        <time>2023-07-29T15:33:58.000Z</time>
        <extensions>
          <ns3:TrackPointExtension>
            <ns3:hr>94</ns3:hr>
            <ns3:cad>0</ns3:cad>
          </ns3:TrackPointExtension>
        </extensions>
      </trkpt>
      <trkpt lat="37.77670408599078655242919921875" lon="-107.6958774961531162261962890625">
        <ele>3981.199951171875</ele>
        <time>2023-07-29T15:33:59.000Z</time>
        <extensions>
          <ns3:TrackPointExtension>
            <ns3:hr>95</ns3:hr>
            <ns3:cad>0</ns3:cad>
          </ns3:TrackPointExtension>
        </extensions>
      </trkpt>
      <trkpt lat="37.77670316398143768310546875" lon="-107.6958858780562877655029296875">
        <ele>3981</ele>
        <time>2023-07-29T15:34:00.000Z</time>
        <extensions>
          <ns3:TrackPointExtension>
            <ns3:hr>96</ns3:hr>
            <ns3:cad>0</ns3:cad>
          </ns3:TrackPointExtension>
        </extensions>
      </trkpt>
      <trkpt lat="37.776702828705310821533203125" lon="-107.6958956010639667510986328125">
        <ele>3980.800048828125</ele>
        <time>2023-07-29T15:34:01.000Z</time>
        <extensions>
          <ns3:TrackPointExtension>
            <ns3:hr>96</ns3:hr>
            <ns3:cad>0</ns3:cad>
          </ns3:TrackPointExtension>
        </extensions>
      </trkpt>
      <trkpt lat="37.77670316398143768310546875" lon="-107.695904485881328582763671875">
        <ele>3980.60009765625</ele>
        <time>2023-07-29T15:34:02.000Z</time>
        <extensions>
          <ns3:TrackPointExtension>
            <ns3:hr>96</ns3:hr>
            <ns3:cad>0</ns3:cad>
          </ns3:TrackPointExtension>
        </extensions>
      </trkpt>
      <trkpt lat="37.77670006267726421356201171875" lon="-107.69590624608099460601806640625">
        <ele>3980.199951171875</ele>
        <time>2023-07-29T15:34:03.000Z</time>
        <extensions>
          <ns3:TrackPointExtension>
            <ns3:hr>96</ns3:hr>
            <ns3:cad>0</ns3:cad>
          </ns3:TrackPointExtension>
        </extensions>
      </trkpt>
      <trkpt lat="37.77669914066791534423828125" lon="-107.69590423442423343658447265625">
        <ele>3980.199951171875</ele>
        <time>2023-07-29T15:34:04.000Z</time>
        <extensions>
          <ns3:TrackPointExtension>
            <ns3:hr>95</ns3:hr>
            <ns3:cad>0</ns3:cad>
          </ns3:TrackPointExtension>
        </extensions>
      </trkpt>
      <trkpt lat="37.77670308016240596771240234375" lon="-107.69591278396546840667724609375">
        <ele>3980.199951171875</ele>
        <time>2023-07-29T15:34:05.000Z</time>
        <extensions>
          <ns3:TrackPointExtension>
            <ns3:hr>93</ns3:hr>
            <ns3:cad>0</ns3:cad>
          </ns3:TrackPointExtension>
        </extensions>
      </trkpt>
      <trkpt lat="37.7767063491046428680419921875" lon="-107.6959197409451007843017578125">
        <ele>3980</ele>
        <time>2023-07-29T15:34:06.000Z</time>
        <extensions>
          <ns3:TrackPointExtension>
            <ns3:hr>93</ns3:hr>
            <ns3:cad>0</ns3:cad>
          </ns3:TrackPointExtension>
        </extensions>
      </trkpt>
      <trkpt lat="37.77671263553202152252197265625" lon="-107.695929966866970062255859375">
        <ele>3980</ele>
        <time>2023-07-29T15:34:07.000Z</time>
        <extensions>
          <ns3:TrackPointExtension>
            <ns3:hr>93</ns3:hr>
            <ns3:cad>0</ns3:cad>
          </ns3:TrackPointExtension>
        </extensions>
      </trkpt>
      <trkpt lat="37.7767164073884487152099609375" lon="-107.6959411986172199249267578125">
        <ele>3980</ele>
        <time>2023-07-29T15:34:08.000Z</time>
        <extensions>
          <ns3:TrackPointExtension>
            <ns3:hr>93</ns3:hr>
            <ns3:cad>0</ns3:cad>
          </ns3:TrackPointExtension>
        </extensions>
      </trkpt>
      <trkpt lat="37.77672101743519306182861328125" lon="-107.695947401225566864013671875">
        <ele>3980</ele>
        <time>2023-07-29T15:34:09.000Z</time>
        <extensions>
          <ns3:TrackPointExtension>
            <ns3:hr>94</ns3:hr>
            <ns3:cad>0</ns3:cad>
          </ns3:TrackPointExtension>
        </extensions>
      </trkpt>
      <trkpt lat="37.77672135271131992340087890625" lon="-107.69594966433942317962646484375">
        <ele>3979.800048828125</ele>
        <time>2023-07-29T15:34:10.000Z</time>
        <extensions>
          <ns3:TrackPointExtension>
            <ns3:hr>94</ns3:hr>
            <ns3:cad>0</ns3:cad>
          </ns3:TrackPointExtension>
        </extensions>
      </trkpt>
      <trkpt lat="37.7767207659780979156494140625" lon="-107.69595318473875522613525390625">
        <ele>3979.60009765625</ele>
        <time>2023-07-29T15:34:11.000Z</time>
        <extensions>
          <ns3:TrackPointExtension>
            <ns3:hr>94</ns3:hr>
            <ns3:cad>0</ns3:cad>
          </ns3:TrackPointExtension>
        </extensions>
      </trkpt>
      <trkpt lat="37.7767212688922882080078125" lon="-107.69595553167164325714111328125">
        <ele>3979.60009765625</ele>
        <time>2023-07-29T15:34:12.000Z</time>
        <extensions>
          <ns3:TrackPointExtension>
            <ns3:hr>95</ns3:hr>
            <ns3:cad>0</ns3:cad>
          </ns3:TrackPointExtension>
        </extensions>
      </trkpt>
      <trkpt lat="37.77672185562551021575927734375" lon="-107.69595921970903873443603515625">
        <ele>3979.39990234375</ele>
        <time>2023-07-29T15:34:13.000Z</time>
        <extensions>
          <ns3:TrackPointExtension>
            <ns3:hr>95</ns3:hr>
            <ns3:cad>0</ns3:cad>
          </ns3:TrackPointExtension>
        </extensions>
      </trkpt>
      <trkpt lat="37.77672068215906620025634765625" lon="-107.69595687277615070343017578125">
        <ele>3979.199951171875</ele>
        <time>2023-07-29T15:34:14.000Z</time>
        <extensions>
          <ns3:TrackPointExtension>
            <ns3:hr>97</ns3:hr>
            <ns3:cad>0</ns3:cad>
          </ns3:TrackPointExtension>
        </extensions>
      </trkpt>
      <trkpt lat="37.7767194248735904693603515625" lon="-107.6959579624235630035400390625">
        <ele>3979.199951171875</ele>
        <time>2023-07-29T15:34:15.000Z</time>
        <extensions>
          <ns3:TrackPointExtension>
            <ns3:hr>98</ns3:hr>
            <ns3:cad>0</ns3:cad>
          </ns3:TrackPointExtension>
        </extensions>
      </trkpt>
      <trkpt lat="37.77671791613101959228515625" lon="-107.6959562860429286956787109375">
        <ele>3979.199951171875</ele>
        <time>2023-07-29T15:34:16.000Z</time>
        <extensions>
          <ns3:TrackPointExtension>
            <ns3:hr>98</ns3:hr>
            <ns3:cad>0</ns3:cad>
          </ns3:TrackPointExtension>
        </extensions>
      </trkpt>
      <trkpt lat="37.77671389281749725341796875" lon="-107.69594731740653514862060546875">
        <ele>3979</ele>
        <time>2023-07-29T15:34:17.000Z</time>
        <extensions>
          <ns3:TrackPointExtension>
            <ns3:hr>98</ns3:hr>
            <ns3:cad>0</ns3:cad>
          </ns3:TrackPointExtension>
        </extensions>
      </trkpt>
      <trkpt lat="37.77670743875205516815185546875" lon="-107.6959368400275707244873046875">
        <ele>3979</ele>
        <time>2023-07-29T15:34:18.000Z</time>
        <extensions>
          <ns3:TrackPointExtension>
            <ns3:hr>98</ns3:hr>
            <ns3:cad>0</ns3:cad>
          </ns3:TrackPointExtension>
        </extensions>
      </trkpt>
      <trkpt lat="37.7767053432762622833251953125" lon="-107.6959401927888393402099609375">
        <ele>3979</ele>
        <time>2023-07-29T15:34:19.000Z</time>
        <extensions>
          <ns3:TrackPointExtension>
            <ns3:hr>98</ns3:hr>
            <ns3:cad>0</ns3:cad>
          </ns3:TrackPointExtension>
        </extensions>
      </trkpt>
      <trkpt lat="37.77669922448694705963134765625" lon="-107.69593675620853900909423828125">
        <ele>3979</ele>
        <time>2023-07-29T15:34:20.000Z</time>
        <extensions>
          <ns3:TrackPointExtension>
            <ns3:hr>98</ns3:hr>
            <ns3:cad>0</ns3:cad>
          </ns3:TrackPointExtension>
        </extensions>
      </trkpt>
      <trkpt lat="37.77670274488627910614013671875" lon="-107.6959519274532794952392578125">
        <ele>3979</ele>
        <time>2023-07-29T15:34:21.000Z</time>
        <extensions>
          <ns3:TrackPointExtension>
            <ns3:hr>98</ns3:hr>
            <ns3:cad>0</ns3:cad>
          </ns3:TrackPointExtension>
        </extensions>
      </trkpt>
      <trkpt lat="37.77670157141983509063720703125" lon="-107.69596341066062450408935546875">
        <ele>3979</ele>
        <time>2023-07-29T15:34:22.000Z</time>
        <extensions>
          <ns3:TrackPointExtension>
            <ns3:hr>98</ns3:hr>
            <ns3:cad>0</ns3:cad>
          </ns3:TrackPointExtension>
        </extensions>
      </trkpt>
      <trkpt lat="37.77670048177242279052734375" lon="-107.69597162492573261260986328125">
        <ele>3979</ele>
        <time>2023-07-29T15:34:23.000Z</time>
        <extensions>
          <ns3:TrackPointExtension>
            <ns3:hr>98</ns3:hr>
            <ns3:cad>0</ns3:cad>
          </ns3:TrackPointExtension>
        </extensions>
      </trkpt>
      <trkpt lat="37.776702828705310821533203125" lon="-107.69597967155277729034423828125">
        <ele>3979</ele>
        <time>2023-07-29T15:34:24.000Z</time>
        <extensions>
          <ns3:TrackPointExtension>
            <ns3:hr>98</ns3:hr>
            <ns3:cad>0</ns3:cad>
          </ns3:TrackPointExtension>
        </extensions>
      </trkpt>
      <trkpt lat="37.7767060138285160064697265625" lon="-107.69598017446696758270263671875">
        <ele>3979</ele>
        <time>2023-07-29T15:34:25.000Z</time>
        <extensions>
          <ns3:TrackPointExtension>
            <ns3:hr>99</ns3:hr>
            <ns3:cad>0</ns3:cad>
          </ns3:TrackPointExtension>
        </extensions>
      </trkpt>
      <trkpt lat="37.77670609764754772186279296875" lon="-107.695973552763462066650390625">
        <ele>3979</ele>
        <time>2023-07-29T15:34:26.000Z</time>
        <extensions>
          <ns3:TrackPointExtension>
            <ns3:hr>99</ns3:hr>
            <ns3:cad>0</ns3:cad>
          </ns3:TrackPointExtension>
        </extensions>
      </trkpt>
      <trkpt lat="37.7767083607614040374755859375" lon="-107.69597229547798633575439453125">
        <ele>3979</ele>
        <time>2023-07-29T15:34:27.000Z</time>
        <extensions>
          <ns3:TrackPointExtension>
            <ns3:hr>99</ns3:hr>
            <ns3:cad>0</ns3:cad>
          </ns3:TrackPointExtension>
        </extensions>
      </trkpt>
      <trkpt lat="37.77670986950397491455078125" lon="-107.6959743909537792205810546875">
        <ele>3979</ele>
        <time>2023-07-29T15:34:28.000Z</time>
        <extensions>
          <ns3:TrackPointExtension>
            <ns3:hr>99</ns3:hr>
            <ns3:cad>0</ns3:cad>
          </ns3:TrackPointExtension>
        </extensions>
      </trkpt>
      <trkpt lat="37.77670928277075290679931640625" lon="-107.69597112201154232025146484375">
        <ele>3979</ele>
        <time>2023-07-29T15:34:29.000Z</time>
        <extensions>
          <ns3:TrackPointExtension>
            <ns3:hr>99</ns3:hr>
            <ns3:cad>0</ns3:cad>
          </ns3:TrackPointExtension>
        </extensions>
      </trkpt>
      <trkpt lat="37.7767127193510532379150390625" lon="-107.69597430713474750518798828125">
        <ele>3979</ele>
        <time>2023-07-29T15:34:30.000Z</time>
        <extensions>
          <ns3:TrackPointExtension>
            <ns3:hr>99</ns3:hr>
            <ns3:cad>0</ns3:cad>
          </ns3:TrackPointExtension>
        </extensions>
      </trkpt>
      <trkpt lat="37.776717245578765869140625" lon="-107.69597589969635009765625">
        <ele>3979</ele>
        <time>2023-07-29T15:34:31.000Z</time>
        <extensions>
          <ns3:TrackPointExtension>
            <ns3:hr>99</ns3:hr>
            <ns3:cad>0</ns3:cad>
          </ns3:TrackPointExtension>
        </extensions>
      </trkpt>
      <trkpt lat="37.77672219090163707733154296875" lon="-107.69597397185862064361572265625">
        <ele>3978.800048828125</ele>
        <time>2023-07-29T15:34:32.000Z</time>
        <extensions>
          <ns3:TrackPointExtension>
            <ns3:hr>99</ns3:hr>
            <ns3:cad>0</ns3:cad>
          </ns3:TrackPointExtension>
        </extensions>
      </trkpt>
      <trkpt lat="37.77672722004354000091552734375" lon="-107.69597229547798633575439453125">
        <ele>3978.800048828125</ele>
        <time>2023-07-29T15:34:33.000Z</time>
        <extensions>
          <ns3:TrackPointExtension>
            <ns3:hr>98</ns3:hr>
            <ns3:cad>0</ns3:cad>
          </ns3:TrackPointExtension>
        </extensions>
      </trkpt>
      <trkpt lat="37.77673040516674518585205078125" lon="-107.6959700323641300201416015625">
        <ele>3978.800048828125</ele>
        <time>2023-07-29T15:34:34.000Z</time>
        <extensions>
          <ns3:TrackPointExtension>
            <ns3:hr>98</ns3:hr>
            <ns3:cad>0</ns3:cad>
          </ns3:TrackPointExtension>
        </extensions>
      </trkpt>
      <trkpt lat="37.7767318300902843475341796875" lon="-107.69596827216446399688720703125">
        <ele>3978.800048828125</ele>
        <time>2023-07-29T15:34:35.000Z</time>
        <extensions>
          <ns3:TrackPointExtension>
            <ns3:hr>98</ns3:hr>
            <ns3:cad>0</ns3:cad>
          </ns3:TrackPointExtension>
        </extensions>
      </trkpt>
      <trkpt lat="37.77672973461449146270751953125" lon="-107.6959666796028614044189453125">
        <ele>3978.800048828125</ele>
        <time>2023-07-29T15:34:36.000Z</time>
        <extensions>
          <ns3:TrackPointExtension>
            <ns3:hr>97</ns3:hr>
            <ns3:cad>0</ns3:cad>
          </ns3:TrackPointExtension>
        </extensions>
      </trkpt>
      <trkpt lat="37.77672571130096912384033203125" lon="-107.6959626562893390655517578125">
        <ele>3978.60009765625</ele>
        <time>2023-07-29T15:34:37.000Z</time>
        <extensions>
          <ns3:TrackPointExtension>
            <ns3:hr>96</ns3:hr>
            <ns3:cad>0</ns3:cad>
          </ns3:TrackPointExtension>
        </extensions>
      </trkpt>
      <trkpt lat="37.77672017924487590789794921875" lon="-107.69596106372773647308349609375">
        <ele>3978.60009765625</ele>
        <time>2023-07-29T15:34:38.000Z</time>
        <extensions>
          <ns3:TrackPointExtension>
            <ns3:hr>94</ns3:hr>
            <ns3:cad>0</ns3:cad>
          </ns3:TrackPointExtension>
        </extensions>
      </trkpt>
      <trkpt lat="37.77671649120748043060302734375" lon="-107.695954106748104095458984375">
        <ele>3978.60009765625</ele>
        <time>2023-07-29T15:34:39.000Z</time>
        <extensions>
          <ns3:TrackPointExtension>
            <ns3:hr>93</ns3:hr>
            <ns3:cad>0</ns3:cad>
          </ns3:TrackPointExtension>
        </extensions>
      </trkpt>
      <trkpt lat="37.77671347372233867645263671875" lon="-107.6959489099681377410888671875">
        <ele>3978.60009765625</ele>
        <time>2023-07-29T15:34:40.000Z</time>
        <extensions>
          <ns3:TrackPointExtension>
            <ns3:hr>92</ns3:hr>
            <ns3:cad>0</ns3:cad>
          </ns3:TrackPointExtension>
        </extensions>
      </trkpt>
      <trkpt lat="37.7767103724181652069091796875" lon="-107.69594279117882251739501953125">
        <ele>3978.800048828125</ele>
        <time>2023-07-29T15:34:41.000Z</time>
        <extensions>
          <ns3:TrackPointExtension>
            <ns3:hr>92</ns3:hr>
            <ns3:cad>0</ns3:cad>
          </ns3:TrackPointExtension>
        </extensions>
      </trkpt>
      <trkpt lat="37.7766993083059787750244140625" lon="-107.6959153823554515838623046875">
        <ele>3978.800048828125</ele>
        <time>2023-07-29T15:34:42.000Z</time>
        <extensions>
          <ns3:TrackPointExtension>
            <ns3:hr>92</ns3:hr>
            <ns3:cad>0</ns3:cad>
          </ns3:TrackPointExtension>
        </extensions>
      </trkpt>
      <trkpt lat="37.77669654227793216705322265625" lon="-107.6959133706986904144287109375">
        <ele>3978.800048828125</ele>
        <time>2023-07-29T15:34:43.000Z</time>
        <extensions>
          <ns3:TrackPointExtension>
            <ns3:hr>92</ns3:hr>
            <ns3:cad>0</ns3:cad>
          </ns3:TrackPointExtension>
        </extensions>
      </trkpt>
      <trkpt lat="37.77669721283018589019775390625" lon="-107.69591814838349819183349609375">
        <ele>3978.800048828125</ele>
        <time>2023-07-29T15:34:44.000Z</time>
        <extensions>
          <ns3:TrackPointExtension>
            <ns3:hr>92</ns3:hr>
            <ns3:cad>0</ns3:cad>
          </ns3:TrackPointExtension>
        </extensions>
      </trkpt>
      <trkpt lat="37.77669536881148815155029296875" lon="-107.695924602448940277099609375">
        <ele>3978.60009765625</ele>
        <time>2023-07-29T15:34:45.000Z</time>
        <extensions>
          <ns3:TrackPointExtension>
            <ns3:hr>91</ns3:hr>
            <ns3:cad>0</ns3:cad>
          </ns3:TrackPointExtension>
        </extensions>
      </trkpt>
      <trkpt lat="37.77669335715472698211669921875" lon="-107.69592854194343090057373046875">
        <ele>3978.60009765625</ele>
        <time>2023-07-29T15:34:46.000Z</time>
        <extensions>
          <ns3:TrackPointExtension>
            <ns3:hr>91</ns3:hr>
            <ns3:cad>0</ns3:cad>
          </ns3:TrackPointExtension>
        </extensions>
      </trkpt>
      <trkpt lat="37.7766926027834415435791015625" lon="-107.6959348283708095550537109375">
        <ele>3978.60009765625</ele>
        <time>2023-07-29T15:34:47.000Z</time>
        <extensions>
          <ns3:TrackPointExtension>
            <ns3:hr>92</ns3:hr>
            <ns3:cad>0</ns3:cad>
          </ns3:TrackPointExtension>
        </extensions>
      </trkpt>
      <trkpt lat="37.77669268660247325897216796875" lon="-107.69593767821788787841796875">
        <ele>3978.60009765625</ele>
        <time>2023-07-29T15:34:48.000Z</time>
        <extensions>
          <ns3:TrackPointExtension>
            <ns3:hr>92</ns3:hr>
            <ns3:cad>0</ns3:cad>
          </ns3:TrackPointExtension>
        </extensions>
      </trkpt>
      <trkpt lat="37.77669888921082019805908203125" lon="-107.6959395222365856170654296875">
        <ele>3978.60009765625</ele>
        <time>2023-07-29T15:34:49.000Z</time>
        <extensions>
          <ns3:TrackPointExtension>
            <ns3:hr>92</ns3:hr>
            <ns3:cad>0</ns3:cad>
          </ns3:TrackPointExtension>
        </extensions>
      </trkpt>
      <trkpt lat="37.77670593000948429107666015625" lon="-107.6959378458559513092041015625">
        <ele>3978.60009765625</ele>
        <time>2023-07-29T15:34:50.000Z</time>
        <extensions>
          <ns3:TrackPointExtension>
            <ns3:hr>92</ns3:hr>
            <ns3:cad>0</ns3:cad>
          </ns3:TrackPointExtension>
        </extensions>
      </trkpt>
      <trkpt lat="37.77670911513268947601318359375" lon="-107.69593759439885616302490234375">
        <ele>3978.60009765625</ele>
        <time>2023-07-29T15:34:51.000Z</time>
        <extensions>
          <ns3:TrackPointExtension>
            <ns3:hr>92</ns3:hr>
            <ns3:cad>0</ns3:cad>
          </ns3:TrackPointExtension>
        </extensions>
      </trkpt>
      <trkpt lat="37.776711881160736083984375" lon="-107.69593901932239532470703125">
        <ele>3978.60009765625</ele>
        <time>2023-07-29T15:34:52.000Z</time>
        <extensions>
          <ns3:TrackPointExtension>
            <ns3:hr>92</ns3:hr>
            <ns3:cad>0</ns3:cad>
          </ns3:TrackPointExtension>
        </extensions>
      </trkpt>
      <trkpt lat="37.77671330608427524566650390625" lon="-107.69594228826463222503662109375">
        <ele>3978.60009765625</ele>
        <time>2023-07-29T15:34:53.000Z</time>
        <extensions>
          <ns3:TrackPointExtension>
            <ns3:hr>92</ns3:hr>
            <ns3:cad>0</ns3:cad>
          </ns3:TrackPointExtension>
        </extensions>
      </trkpt>
      <trkpt lat="37.7767137251794338226318359375" lon="-107.6959468983113765716552734375">
        <ele>3978.60009765625</ele>
        <time>2023-07-29T15:34:54.000Z</time>
        <extensions>
          <ns3:TrackPointExtension>
            <ns3:hr>92</ns3:hr>
            <ns3:cad>0</ns3:cad>
          </ns3:TrackPointExtension>
        </extensions>
      </trkpt>
      <trkpt lat="37.77671263553202152252197265625" lon="-107.695953436195850372314453125">
        <ele>3978.60009765625</ele>
        <time>2023-07-29T15:34:55.000Z</time>
        <extensions>
          <ns3:TrackPointExtension>
            <ns3:hr>92</ns3:hr>
            <ns3:cad>0</ns3:cad>
          </ns3:TrackPointExtension>
        </extensions>
      </trkpt>
      <trkpt lat="37.7767127193510532379150390625" lon="-107.6959582976996898651123046875">
        <ele>3978.60009765625</ele>
        <time>2023-07-29T15:34:56.000Z</time>
        <extensions>
          <ns3:TrackPointExtension>
            <ns3:hr>93</ns3:hr>
            <ns3:cad>0</ns3:cad>
          </ns3:TrackPointExtension>
        </extensions>
      </trkpt>
      <trkpt lat="37.7767117135226726531982421875" lon="-107.69596290774643421173095703125">
        <ele>3978.60009765625</ele>
        <time>2023-07-29T15:34:57.000Z</time>
        <extensions>
          <ns3:TrackPointExtension>
            <ns3:hr>92</ns3:hr>
            <ns3:cad>0</ns3:cad>
          </ns3:TrackPointExtension>
        </extensions>
      </trkpt>
      <trkpt lat="37.77671213261783123016357421875" lon="-107.695963494479656219482421875">
        <ele>3978.60009765625</ele>
        <time>2023-07-29T15:34:58.000Z</time>
        <extensions>
          <ns3:TrackPointExtension>
            <ns3:hr>92</ns3:hr>
            <ns3:cad>0</ns3:cad>
          </ns3:TrackPointExtension>
        </extensions>
      </trkpt>
      <trkpt lat="37.776711881160736083984375" lon="-107.69596609286963939666748046875">
        <ele>3978.60009765625</ele>
        <time>2023-07-29T15:34:59.000Z</time>
        <extensions>
          <ns3:TrackPointExtension>
            <ns3:hr>92</ns3:hr>
            <ns3:cad>0</ns3:cad>
          </ns3:TrackPointExtension>
        </extensions>
      </trkpt>
      <trkpt lat="37.7767123840749263763427734375" lon="-107.6959633268415927886962890625">
        <ele>3978.39990234375</ele>
        <time>2023-07-29T15:35:00.000Z</time>
        <extensions>
          <ns3:TrackPointExtension>
            <ns3:hr>92</ns3:hr>
            <ns3:cad>0</ns3:cad>
          </ns3:TrackPointExtension>
        </extensions>
      </trkpt>
      <trkpt lat="37.77671230025589466094970703125" lon="-107.69597078673541545867919921875">
        <ele>3978.60009765625</ele>
        <time>2023-07-29T15:35:01.000Z</time>
        <extensions>
          <ns3:TrackPointExtension>
            <ns3:hr>92</ns3:hr>
            <ns3:cad>0</ns3:cad>
          </ns3:TrackPointExtension>
        </extensions>
      </trkpt>
      <trkpt lat="37.7767117135226726531982421875" lon="-107.6959425397217273712158203125">
        <ele>3978.60009765625</ele>
        <time>2023-07-29T15:35:03.000Z</time>
        <extensions>
          <ns3:TrackPointExtension>
            <ns3:hr>88</ns3:hr>
            <ns3:cad>0</ns3:cad>
          </ns3:TrackPointExtension>
        </extensions>
      </trkpt>
      <trkpt lat="37.7767117135226726531982421875" lon="-107.695937342941761016845703125">
        <ele>3978.39990234375</ele>
        <time>2023-07-29T15:35:04.000Z</time>
        <extensions>
          <ns3:TrackPointExtension>
            <ns3:hr>87</ns3:hr>
            <ns3:cad>0</ns3:cad>
          </ns3:TrackPointExtension>
        </extensions>
      </trkpt>
      <trkpt lat="37.77670810930430889129638671875" lon="-107.69593457691371440887451171875">
        <ele>3978.39990234375</ele>
        <time>2023-07-29T15:35:05.000Z</time>
        <extensions>
          <ns3:TrackPointExtension>
            <ns3:hr>86</ns3:hr>
            <ns3:cad>0</ns3:cad>
          </ns3:TrackPointExtension>
        </extensions>
      </trkpt>
      <trkpt lat="37.77670207433402538299560546875" lon="-107.69593776203691959381103515625">
        <ele>3978.39990234375</ele>
        <time>2023-07-29T15:35:06.000Z</time>
        <extensions>
          <ns3:TrackPointExtension>
            <ns3:hr>86</ns3:hr>
            <ns3:cad>0</ns3:cad>
          </ns3:TrackPointExtension>
        </extensions>
      </trkpt>
      <trkpt lat="37.77670240961015224456787109375" lon="-107.69593155942857265472412109375">
        <ele>3978.39990234375</ele>
        <time>2023-07-29T15:35:07.000Z</time>
        <extensions>
          <ns3:TrackPointExtension>
            <ns3:hr>86</ns3:hr>
            <ns3:cad>0</ns3:cad>
          </ns3:TrackPointExtension>
        </extensions>
      </trkpt>
      <trkpt lat="37.77670090086758136749267578125" lon="-107.69593122415244579315185546875">
        <ele>3978.39990234375</ele>
        <time>2023-07-29T15:35:08.000Z</time>
        <extensions>
          <ns3:TrackPointExtension>
            <ns3:hr>86</ns3:hr>
            <ns3:cad>0</ns3:cad>
          </ns3:TrackPointExtension>
        </extensions>
      </trkpt>
      <trkpt lat="37.7767003141343593597412109375" lon="-107.6959291286766529083251953125">
        <ele>3978.39990234375</ele>
        <time>2023-07-29T15:35:09.000Z</time>
        <extensions>
          <ns3:TrackPointExtension>
            <ns3:hr>86</ns3:hr>
            <ns3:cad>0</ns3:cad>
          </ns3:TrackPointExtension>
        </extensions>
      </trkpt>
      <trkpt lat="37.7766932733356952667236328125" lon="-107.69593172706663608551025390625">
        <ele>3978.199951171875</ele>
        <time>2023-07-29T15:35:10.000Z</time>
        <extensions>
          <ns3:TrackPointExtension>
            <ns3:hr>87</ns3:hr>
            <ns3:cad>0</ns3:cad>
          </ns3:TrackPointExtension>
        </extensions>
      </trkpt>
      <trkpt lat="37.77668681927025318145751953125" lon="-107.69593407399952411651611328125">
        <ele>3978</ele>
        <time>2023-07-29T15:35:11.000Z</time>
        <extensions>
          <ns3:TrackPointExtension>
            <ns3:hr>87</ns3:hr>
            <ns3:cad>0</ns3:cad>
          </ns3:TrackPointExtension>
        </extensions>
      </trkpt>
      <trkpt lat="37.77668363414704799652099609375" lon="-107.69594010896980762481689453125">
        <ele>3977.800048828125</ele>
        <time>2023-07-29T15:35:12.000Z</time>
        <extensions>
          <ns3:TrackPointExtension>
            <ns3:hr>87</ns3:hr>
            <ns3:cad>0</ns3:cad>
          </ns3:TrackPointExtension>
        </extensions>
      </trkpt>
      <trkpt lat="37.7766838856041431427001953125" lon="-107.69594329409301280975341796875">
        <ele>3977.60009765625</ele>
        <time>2023-07-29T15:35:13.000Z</time>
        <extensions>
          <ns3:TrackPointExtension>
            <ns3:hr>88</ns3:hr>
            <ns3:cad>0</ns3:cad>
          </ns3:TrackPointExtension>
        </extensions>
      </trkpt>
      <trkpt lat="37.77668430469930171966552734375" lon="-107.69594748504459857940673828125">
        <ele>3977.60009765625</ele>
        <time>2023-07-29T15:35:14.000Z</time>
        <extensions>
          <ns3:TrackPointExtension>
            <ns3:hr>88</ns3:hr>
            <ns3:cad>0</ns3:cad>
          </ns3:TrackPointExtension>
        </extensions>
      </trkpt>
      <trkpt lat="37.77668480761349201202392578125" lon="-107.69595268182456493377685546875">
        <ele>3977.39990234375</ele>
        <time>2023-07-29T15:35:15.000Z</time>
        <extensions>
          <ns3:TrackPointExtension>
            <ns3:hr>87</ns3:hr>
            <ns3:cad>0</ns3:cad>
          </ns3:TrackPointExtension>
        </extensions>
      </trkpt>
      <trkpt lat="37.77668698690831661224365234375" lon="-107.6959586329758167266845703125">
        <ele>3977</ele>
        <time>2023-07-29T15:35:16.000Z</time>
        <extensions>
          <ns3:TrackPointExtension>
            <ns3:hr>88</ns3:hr>
            <ns3:cad>0</ns3:cad>
          </ns3:TrackPointExtension>
        </extensions>
      </trkpt>
      <trkpt lat="37.77669184841215610504150390625" lon="-107.69595913589000701904296875">
        <ele>3976.800048828125</ele>
        <time>2023-07-29T15:35:17.000Z</time>
        <extensions>
          <ns3:TrackPointExtension>
            <ns3:hr>87</ns3:hr>
            <ns3:cad>0</ns3:cad>
          </ns3:TrackPointExtension>
        </extensions>
      </trkpt>
      <trkpt lat="37.7766972966492176055908203125" lon="-107.69595821388065814971923828125">
        <ele>3976.60009765625</ele>
        <time>2023-07-29T15:35:18.000Z</time>
        <extensions>
          <ns3:TrackPointExtension>
            <ns3:hr>87</ns3:hr>
            <ns3:cad>0</ns3:cad>
          </ns3:TrackPointExtension>
        </extensions>
      </trkpt>
      <trkpt lat="37.77670106850564479827880859375" lon="-107.695967853069305419921875">
        <ele>3976.60009765625</ele>
        <time>2023-07-29T15:35:19.000Z</time>
        <extensions>
          <ns3:TrackPointExtension>
            <ns3:hr>87</ns3:hr>
            <ns3:cad>0</ns3:cad>
          </ns3:TrackPointExtension>
        </extensions>
      </trkpt>
      <trkpt lat="37.77670576237142086029052734375" lon="-107.69596642814576625823974609375">
        <ele>3976.39990234375</ele>
        <time>2023-07-29T15:35:20.000Z</time>
        <extensions>
          <ns3:TrackPointExtension>
            <ns3:hr>87</ns3:hr>
            <ns3:cad>0</ns3:cad>
          </ns3:TrackPointExtension>
        </extensions>
      </trkpt>
      <trkpt lat="37.77670961804687976837158203125" lon="-107.695975564420223236083984375">
        <ele>3976.39990234375</ele>
        <time>2023-07-29T15:35:21.000Z</time>
        <extensions>
          <ns3:TrackPointExtension>
            <ns3:hr>87</ns3:hr>
            <ns3:cad>0</ns3:cad>
          </ns3:TrackPointExtension>
        </extensions>
      </trkpt>
      <trkpt lat="37.7767143957316875457763671875" lon="-107.69598889164626598358154296875">
        <ele>3976.199951171875</ele>
        <time>2023-07-29T15:35:22.000Z</time>
        <extensions>
          <ns3:TrackPointExtension>
            <ns3:hr>87</ns3:hr>
            <ns3:cad>0</ns3:cad>
          </ns3:TrackPointExtension>
        </extensions>
      </trkpt>
      <trkpt lat="37.77671749703586101531982421875" lon="-107.69599534571170806884765625">
        <ele>3976</ele>
        <time>2023-07-29T15:35:23.000Z</time>
        <extensions>
          <ns3:TrackPointExtension>
            <ns3:hr>87</ns3:hr>
            <ns3:cad>0</ns3:cad>
          </ns3:TrackPointExtension>
        </extensions>
      </trkpt>
      <trkpt lat="37.77671716175973415374755859375" lon="-107.695999704301357269287109375">
        <ele>3976</ele>
        <time>2023-07-29T15:35:24.000Z</time>
        <extensions>
          <ns3:TrackPointExtension>
            <ns3:hr>86</ns3:hr>
            <ns3:cad>0</ns3:cad>
          </ns3:TrackPointExtension>
        </extensions>
      </trkpt>
      <trkpt lat="37.77671380899846553802490234375" lon="-107.69600163213908672332763671875">
        <ele>3975.800048828125</ele>
        <time>2023-07-29T15:35:25.000Z</time>
        <extensions>
          <ns3:TrackPointExtension>
            <ns3:hr>84</ns3:hr>
            <ns3:cad>0</ns3:cad>
          </ns3:TrackPointExtension>
        </extensions>
      </trkpt>
      <trkpt lat="37.7767107076942920684814453125" lon="-107.6960025541484355926513671875">
        <ele>3975.60009765625</ele>
        <time>2023-07-29T15:35:26.000Z</time>
        <extensions>
          <ns3:TrackPointExtension>
            <ns3:hr>83</ns3:hr>
            <ns3:cad>0</ns3:cad>
          </ns3:TrackPointExtension>
        </extensions>
      </trkpt>
      <trkpt lat="37.77670852839946746826171875" lon="-107.69600766710937023162841796875">
        <ele>3975.39990234375</ele>
        <time>2023-07-29T15:35:27.000Z</time>
        <extensions>
          <ns3:TrackPointExtension>
            <ns3:hr>83</ns3:hr>
            <ns3:cad>0</ns3:cad>
          </ns3:TrackPointExtension>
        </extensions>
      </trkpt>
      <trkpt lat="37.77671162970364093780517578125" lon="-107.696019150316715240478515625">
        <ele>3975.199951171875</ele>
        <time>2023-07-29T15:35:28.000Z</time>
        <extensions>
          <ns3:TrackPointExtension>
            <ns3:hr>82</ns3:hr>
            <ns3:cad>0</ns3:cad>
          </ns3:TrackPointExtension>
        </extensions>
      </trkpt>
      <trkpt lat="37.7767170779407024383544921875" lon="-107.69603147171437740325927734375">
        <ele>3975.199951171875</ele>
        <time>2023-07-29T15:35:29.000Z</time>
        <extensions>
          <ns3:TrackPointExtension>
            <ns3:hr>81</ns3:hr>
            <ns3:cad>0</ns3:cad>
          </ns3:TrackPointExtension>
        </extensions>
      </trkpt>
      <trkpt lat="37.7767244540154933929443359375" lon="-107.69604588858783245086669921875">
        <ele>3975</ele>
        <time>2023-07-29T15:35:30.000Z</time>
        <extensions>
          <ns3:TrackPointExtension>
            <ns3:hr>80</ns3:hr>
            <ns3:cad>0</ns3:cad>
          </ns3:TrackPointExtension>
        </extensions>
      </trkpt>
      <trkpt lat="37.77673006989061832427978515625" lon="-107.69605929963290691375732421875">
        <ele>3974.60009765625</ele>
        <time>2023-07-29T15:35:31.000Z</time>
        <extensions>
          <ns3:TrackPointExtension>
            <ns3:hr>79</ns3:hr>
            <ns3:cad>0</ns3:cad>
          </ns3:TrackPointExtension>
        </extensions>
      </trkpt>
      <trkpt lat="37.7767368592321872711181640625" lon="-107.6960753090679645538330078125">
        <ele>3974.199951171875</ele>
        <time>2023-07-29T15:35:32.000Z</time>
        <extensions>
          <ns3:TrackPointExtension>
            <ns3:hr>79</ns3:hr>
            <ns3:cad>0</ns3:cad>
          </ns3:TrackPointExtension>
        </extensions>
      </trkpt>
      <trkpt lat="37.776740379631519317626953125" lon="-107.69608662463724613189697265625">
        <ele>3973.800048828125</ele>
        <time>2023-07-29T15:35:33.000Z</time>
        <extensions>
          <ns3:TrackPointExtension>
            <ns3:hr>79</ns3:hr>
            <ns3:cad>0</ns3:cad>
          </ns3:TrackPointExtension>
        </extensions>
      </trkpt>
      <trkpt lat="37.77674448676407337188720703125" lon="-107.69609592854976654052734375">
        <ele>3973.800048828125</ele>
        <time>2023-07-29T15:35:34.000Z</time>
        <extensions>
          <ns3:TrackPointExtension>
            <ns3:hr>79</ns3:hr>
            <ns3:cad>0</ns3:cad>
          </ns3:TrackPointExtension>
        </extensions>
      </trkpt>
      <trkpt lat="37.77674783952534198760986328125" lon="-107.6961074955761432647705078125">
        <ele>3973.60009765625</ele>
        <time>2023-07-29T15:35:35.000Z</time>
        <extensions>
          <ns3:TrackPointExtension>
            <ns3:hr>79</ns3:hr>
            <ns3:cad>0</ns3:cad>
          </ns3:TrackPointExtension>
        </extensions>
      </trkpt>
      <trkpt lat="37.776754796504974365234375" lon="-107.6961225830018520355224609375">
        <ele>3973.60009765625</ele>
        <time>2023-07-29T15:35:36.000Z</time>
        <extensions>
          <ns3:TrackPointExtension>
            <ns3:hr>79</ns3:hr>
            <ns3:cad>0</ns3:cad>
          </ns3:TrackPointExtension>
        </extensions>
      </trkpt>
      <trkpt lat="37.77676058001816272735595703125" lon="-107.6961410231888294219970703125">
        <ele>3973.60009765625</ele>
        <time>2023-07-29T15:35:37.000Z</time>
        <extensions>
          <ns3:TrackPointExtension>
            <ns3:hr>79</ns3:hr>
            <ns3:cad>0</ns3:cad>
          </ns3:TrackPointExtension>
        </extensions>
      </trkpt>
      <trkpt lat="37.77676527388393878936767578125" lon="-107.6961515843868255615234375">
        <ele>3973.60009765625</ele>
        <time>2023-07-29T15:35:38.000Z</time>
        <extensions>
          <ns3:TrackPointExtension>
            <ns3:hr>79</ns3:hr>
            <ns3:cad>0</ns3:cad>
          </ns3:TrackPointExtension>
        </extensions>
      </trkpt>
      <trkpt lat="37.7767683751881122589111328125" lon="-107.69616407342255115509033203125">
        <ele>3973.39990234375</ele>
        <time>2023-07-29T15:35:39.000Z</time>
        <extensions>
          <ns3:TrackPointExtension>
            <ns3:hr>79</ns3:hr>
            <ns3:cad>0</ns3:cad>
          </ns3:TrackPointExtension>
        </extensions>
      </trkpt>
      <trkpt lat="37.7767727337777614593505859375" lon="-107.69617698155343532562255859375">
        <ele>3973.39990234375</ele>
        <time>2023-07-29T15:35:40.000Z</time>
        <extensions>
          <ns3:TrackPointExtension>
            <ns3:hr>79</ns3:hr>
            <ns3:cad>0</ns3:cad>
          </ns3:TrackPointExtension>
        </extensions>
      </trkpt>
      <trkpt lat="37.77677415870130062103271484375" lon="-107.6961839385330677032470703125">
        <ele>3973.39990234375</ele>
        <time>2023-07-29T15:35:41.000Z</time>
        <extensions>
          <ns3:TrackPointExtension>
            <ns3:hr>79</ns3:hr>
            <ns3:cad>0</ns3:cad>
          </ns3:TrackPointExtension>
        </extensions>
      </trkpt>
      <trkpt lat="37.776775248348712921142578125" lon="-107.69618804566562175750732421875">
        <ele>3973.199951171875</ele>
        <time>2023-07-29T15:35:42.000Z</time>
        <extensions>
          <ns3:TrackPointExtension>
            <ns3:hr>79</ns3:hr>
            <ns3:cad>0</ns3:cad>
          </ns3:TrackPointExtension>
        </extensions>
      </trkpt>
      <trkpt lat="37.77677801437675952911376953125" lon="-107.69620078615844249725341796875">
        <ele>3973.199951171875</ele>
        <time>2023-07-29T15:35:43.000Z</time>
        <extensions>
          <ns3:TrackPointExtension>
            <ns3:hr>79</ns3:hr>
            <ns3:cad>0</ns3:cad>
          </ns3:TrackPointExtension>
        </extensions>
      </trkpt>
      <trkpt lat="37.776780612766742706298828125" lon="-107.69620564766228199005126953125">
        <ele>3973</ele>
        <time>2023-07-29T15:35:44.000Z</time>
        <extensions>
          <ns3:TrackPointExtension>
            <ns3:hr>79</ns3:hr>
            <ns3:cad>0</ns3:cad>
          </ns3:TrackPointExtension>
        </extensions>
      </trkpt>
      <trkpt lat="37.77678555808961391448974609375" lon="-107.696220986545085906982421875">
        <ele>3973</ele>
        <time>2023-07-29T15:35:45.000Z</time>
        <extensions>
          <ns3:TrackPointExtension>
            <ns3:hr>79</ns3:hr>
            <ns3:cad>0</ns3:cad>
          </ns3:TrackPointExtension>
        </extensions>
      </trkpt>
      <trkpt lat="37.7767888270318508148193359375" lon="-107.696227021515369415283203125">
        <ele>3972.800048828125</ele>
        <time>2023-07-29T15:35:46.000Z</time>
        <extensions>
          <ns3:TrackPointExtension>
            <ns3:hr>79</ns3:hr>
            <ns3:cad>0</ns3:cad>
          </ns3:TrackPointExtension>
        </extensions>
      </trkpt>
      <trkpt lat="37.7767931856215000152587890625" lon="-107.69622660242021083831787109375">
        <ele>3972.800048828125</ele>
        <time>2023-07-29T15:35:47.000Z</time>
        <extensions>
          <ns3:TrackPointExtension>
            <ns3:hr>79</ns3:hr>
            <ns3:cad>0</ns3:cad>
          </ns3:TrackPointExtension>
        </extensions>
      </trkpt>
      <trkpt lat="37.7767968736588954925537109375" lon="-107.696231044828891754150390625">
        <ele>3972.60009765625</ele>
        <time>2023-07-29T15:35:48.000Z</time>
        <extensions>
          <ns3:TrackPointExtension>
            <ns3:hr>78</ns3:hr>
            <ns3:cad>0</ns3:cad>
          </ns3:TrackPointExtension>
        </extensions>
      </trkpt>
      <trkpt lat="37.77679930441081523895263671875" lon="-107.69623045809566974639892578125">
        <ele>3972.39990234375</ele>
        <time>2023-07-29T15:35:49.000Z</time>
        <extensions>
          <ns3:TrackPointExtension>
            <ns3:hr>78</ns3:hr>
            <ns3:cad>0</ns3:cad>
          </ns3:TrackPointExtension>
        </extensions>
      </trkpt>
      <trkpt lat="37.77679813094437122344970703125" lon="-107.69622735679149627685546875">
        <ele>3972.199951171875</ele>
        <time>2023-07-29T15:35:50.000Z</time>
        <extensions>
          <ns3:TrackPointExtension>
            <ns3:hr>79</ns3:hr>
            <ns3:cad>0</ns3:cad>
          </ns3:TrackPointExtension>
        </extensions>
      </trkpt>
      <trkpt lat="37.77679712511599063873291015625" lon="-107.696228362619876861572265625">
        <ele>3972</ele>
        <time>2023-07-29T15:35:51.000Z</time>
        <extensions>
          <ns3:TrackPointExtension>
            <ns3:hr>80</ns3:hr>
            <ns3:cad>0</ns3:cad>
          </ns3:TrackPointExtension>
        </extensions>
      </trkpt>
      <trkpt lat="37.7767945267260074615478515625" lon="-107.69622911699116230010986328125">
        <ele>3972</ele>
        <time>2023-07-29T15:35:52.000Z</time>
        <extensions>
          <ns3:TrackPointExtension>
            <ns3:hr>84</ns3:hr>
            <ns3:cad>0</ns3:cad>
          </ns3:TrackPointExtension>
        </extensions>
      </trkpt>
      <trkpt lat="37.7767951972782611846923828125" lon="-107.6962335593998432159423828125">
        <ele>3972</ele>
        <time>2023-07-29T15:35:53.000Z</time>
        <extensions>
          <ns3:TrackPointExtension>
            <ns3:hr>92</ns3:hr>
            <ns3:cad>0</ns3:cad>
          </ns3:TrackPointExtension>
        </extensions>
      </trkpt>
      <trkpt lat="37.77680098079144954681396484375" lon="-107.696249149739742279052734375">
        <ele>3972</ele>
        <time>2023-07-29T15:35:54.000Z</time>
        <extensions>
          <ns3:TrackPointExtension>
            <ns3:hr>94</ns3:hr>
            <ns3:cad>0</ns3:cad>
          </ns3:TrackPointExtension>
        </extensions>
      </trkpt>
      <trkpt lat="37.77681590057909488677978515625" lon="-107.69628376699984073638916015625">
        <ele>3972.199951171875</ele>
        <time>2023-07-29T15:35:55.000Z</time>
        <extensions>
          <ns3:TrackPointExtension>
            <ns3:hr>95</ns3:hr>
            <ns3:cad>0</ns3:cad>
          </ns3:TrackPointExtension>
        </extensions>
      </trkpt>
      <trkpt lat="37.7768178284168243408203125" lon="-107.69629441201686859130859375">
        <ele>3972.199951171875</ele>
        <time>2023-07-29T15:35:56.000Z</time>
        <extensions>
          <ns3:TrackPointExtension>
            <ns3:hr>96</ns3:hr>
            <ns3:cad>0</ns3:cad>
          </ns3:TrackPointExtension>
        </extensions>
      </trkpt>
      <trkpt lat="37.77681807987391948699951171875" lon="-107.6963017880916595458984375">
        <ele>3972.199951171875</ele>
        <time>2023-07-29T15:35:57.000Z</time>
        <extensions>
          <ns3:TrackPointExtension>
            <ns3:hr>96</ns3:hr>
            <ns3:cad>0</ns3:cad>
          </ns3:TrackPointExtension>
        </extensions>
      </trkpt>
      <trkpt lat="37.7768196724355220794677734375" lon="-107.6963138580322265625">
        <ele>3972.199951171875</ele>
        <time>2023-07-29T15:35:58.000Z</time>
        <extensions>
          <ns3:TrackPointExtension>
            <ns3:hr>96</ns3:hr>
            <ns3:cad>0</ns3:cad>
          </ns3:TrackPointExtension>
        </extensions>
      </trkpt>
      <trkpt lat="37.776822857558727264404296875" lon="-107.696327269077301025390625">
        <ele>3972.199951171875</ele>
        <time>2023-07-29T15:35:59.000Z</time>
        <extensions>
          <ns3:TrackPointExtension>
            <ns3:hr>96</ns3:hr>
            <ns3:cad>0</ns3:cad>
          </ns3:TrackPointExtension>
        </extensions>
      </trkpt>
      <trkpt lat="37.77682646177709102630615234375" lon="-107.696338333189487457275390625">
        <ele>3972</ele>
        <time>2023-07-29T15:36:00.000Z</time>
        <extensions>
          <ns3:TrackPointExtension>
            <ns3:hr>96</ns3:hr>
            <ns3:cad>0</ns3:cad>
          </ns3:TrackPointExtension>
        </extensions>
      </trkpt>
      <trkpt lat="37.7768300659954547882080078125" lon="-107.696350403130054473876953125">
        <ele>3972</ele>
        <time>2023-07-29T15:36:01.000Z</time>
        <extensions>
          <ns3:TrackPointExtension>
            <ns3:hr>95</ns3:hr>
            <ns3:cad>0</ns3:cad>
          </ns3:TrackPointExtension>
        </extensions>
      </trkpt>
      <trkpt lat="37.77683350257575511932373046875" lon="-107.69636272452771663665771484375">
        <ele>3971.800048828125</ele>
        <time>2023-07-29T15:36:02.000Z</time>
        <extensions>
          <ns3:TrackPointExtension>
            <ns3:hr>96</ns3:hr>
            <ns3:cad>0</ns3:cad>
          </ns3:TrackPointExtension>
        </extensions>
      </trkpt>
      <trkpt lat="37.77683551423251628875732421875" lon="-107.69636607728898525238037109375">
        <ele>3971.800048828125</ele>
        <time>2023-07-29T15:36:03.000Z</time>
        <extensions>
          <ns3:TrackPointExtension>
            <ns3:hr>96</ns3:hr>
            <ns3:cad>59</ns3:cad>
          </ns3:TrackPointExtension>
        </extensions>
      </trkpt>
      <trkpt lat="37.77683886699378490447998046875" lon="-107.6963743753731250762939453125">
        <ele>3971.800048828125</ele>
        <time>2023-07-29T15:36:04.000Z</time>
        <extensions>
          <ns3:TrackPointExtension>
            <ns3:hr>96</ns3:hr>
            <ns3:cad>59</ns3:cad>
          </ns3:TrackPointExtension>
        </extensions>
      </trkpt>
      <trkpt lat="37.77684221975505352020263671875" lon="-107.69636926241219043731689453125">
        <ele>3971.800048828125</ele>
        <time>2023-07-29T15:36:05.000Z</time>
        <extensions>
          <ns3:TrackPointExtension>
            <ns3:hr>96</ns3:hr>
            <ns3:cad>56</ns3:cad>
          </ns3:TrackPointExtension>
        </extensions>
      </trkpt>
      <trkpt lat="37.77684406377375125885009765625" lon="-107.69637077115476131439208984375">
        <ele>3971.60009765625</ele>
        <time>2023-07-29T15:36:06.000Z</time>
        <extensions>
          <ns3:TrackPointExtension>
            <ns3:hr>97</ns3:hr>
            <ns3:cad>55</ns3:cad>
          </ns3:TrackPointExtension>
        </extensions>
      </trkpt>
      <trkpt lat="37.77684532105922698974609375" lon="-107.69637621939182281494140625">
        <ele>3971.60009765625</ele>
        <time>2023-07-29T15:36:07.000Z</time>
        <extensions>
          <ns3:TrackPointExtension>
            <ns3:hr>97</ns3:hr>
            <ns3:cad>0</ns3:cad>
          </ns3:TrackPointExtension>
        </extensions>
      </trkpt>
      <trkpt lat="37.7768418006598949432373046875" lon="-107.696381919085979461669921875">
        <ele>3971.60009765625</ele>
        <time>2023-07-29T15:36:08.000Z</time>
        <extensions>
          <ns3:TrackPointExtension>
            <ns3:hr>97</ns3:hr>
            <ns3:cad>0</ns3:cad>
          </ns3:TrackPointExtension>
        </extensions>
      </trkpt>
      <trkpt lat="37.7768464945256710052490234375" lon="-107.69640496931970119476318359375">
        <ele>3971.60009765625</ele>
        <time>2023-07-29T15:36:09.000Z</time>
        <extensions>
          <ns3:TrackPointExtension>
            <ns3:hr>98</ns3:hr>
            <ns3:cad>0</ns3:cad>
          </ns3:TrackPointExtension>
        </extensions>
      </trkpt>
      <trkpt lat="37.77684708125889301300048828125" lon="-107.69641368649899959564208984375">
        <ele>3971.60009765625</ele>
        <time>2023-07-29T15:36:10.000Z</time>
        <extensions>
          <ns3:TrackPointExtension>
            <ns3:hr>98</ns3:hr>
            <ns3:cad>0</ns3:cad>
          </ns3:TrackPointExtension>
        </extensions>
      </trkpt>
      <trkpt lat="37.7768485061824321746826171875" lon="-107.69642190076410770416259765625">
        <ele>3971.39990234375</ele>
        <time>2023-07-29T15:36:11.000Z</time>
        <extensions>
          <ns3:TrackPointExtension>
            <ns3:hr>99</ns3:hr>
            <ns3:cad>0</ns3:cad>
          </ns3:TrackPointExtension>
        </extensions>
      </trkpt>
      <trkpt lat="37.7768491767346858978271484375" lon="-107.69643061794340610504150390625">
        <ele>3971.39990234375</ele>
        <time>2023-07-29T15:36:12.000Z</time>
        <extensions>
          <ns3:TrackPointExtension>
            <ns3:hr>99</ns3:hr>
            <ns3:cad>0</ns3:cad>
          </ns3:TrackPointExtension>
        </extensions>
      </trkpt>
      <trkpt lat="37.776852361857891082763671875" lon="-107.69644771702587604522705078125">
        <ele>3971.39990234375</ele>
        <time>2023-07-29T15:36:13.000Z</time>
        <extensions>
          <ns3:TrackPointExtension>
            <ns3:hr>99</ns3:hr>
            <ns3:cad>0</ns3:cad>
          </ns3:TrackPointExtension>
        </extensions>
      </trkpt>
      <trkpt lat="37.776855044066905975341796875" lon="-107.69645727239549160003662109375">
        <ele>3971.39990234375</ele>
        <time>2023-07-29T15:36:14.000Z</time>
        <extensions>
          <ns3:TrackPointExtension>
            <ns3:hr>99</ns3:hr>
            <ns3:cad>0</ns3:cad>
          </ns3:TrackPointExtension>
        </extensions>
      </trkpt>
      <trkpt lat="37.7768592350184917449951171875" lon="-107.69647353328764438629150390625">
        <ele>3971.39990234375</ele>
        <time>2023-07-29T15:36:15.000Z</time>
        <extensions>
          <ns3:TrackPointExtension>
            <ns3:hr>99</ns3:hr>
            <ns3:cad>0</ns3:cad>
          </ns3:TrackPointExtension>
        </extensions>
      </trkpt>
      <trkpt lat="37.77686200104653835296630859375" lon="-107.696488201618194580078125">
        <ele>3971.39990234375</ele>
        <time>2023-07-29T15:36:16.000Z</time>
        <extensions>
          <ns3:TrackPointExtension>
            <ns3:hr>98</ns3:hr>
            <ns3:cad>0</ns3:cad>
          </ns3:TrackPointExtension>
        </extensions>
      </trkpt>
      <trkpt lat="37.776863761246204376220703125" lon="-107.696495242416858673095703125">
        <ele>3971.39990234375</ele>
        <time>2023-07-29T15:36:17.000Z</time>
        <extensions>
          <ns3:TrackPointExtension>
            <ns3:hr>98</ns3:hr>
            <ns3:cad>0</ns3:cad>
          </ns3:TrackPointExtension>
        </extensions>
      </trkpt>
      <trkpt lat="37.776869125664234161376953125" lon="-107.696506641805171966552734375">
        <ele>3971.39990234375</ele>
        <time>2023-07-29T15:36:18.000Z</time>
        <extensions>
          <ns3:TrackPointExtension>
            <ns3:hr>98</ns3:hr>
            <ns3:cad>0</ns3:cad>
          </ns3:TrackPointExtension>
        </extensions>
      </trkpt>
      <trkpt lat="37.77687256224453449249267578125" lon="-107.69651971757411956787109375">
        <ele>3971.39990234375</ele>
        <time>2023-07-29T15:36:19.000Z</time>
        <extensions>
          <ns3:TrackPointExtension>
            <ns3:hr>98</ns3:hr>
            <ns3:cad>0</ns3:cad>
          </ns3:TrackPointExtension>
        </extensions>
      </trkpt>
      <trkpt lat="37.7768741548061370849609375" lon="-107.69653220660984516143798828125">
        <ele>3971.60009765625</ele>
        <time>2023-07-29T15:36:20.000Z</time>
        <extensions>
          <ns3:TrackPointExtension>
            <ns3:hr>98</ns3:hr>
            <ns3:cad>0</ns3:cad>
          </ns3:TrackPointExtension>
        </extensions>
      </trkpt>
      <trkpt lat="37.77687725611031055450439453125" lon="-107.696541510522365570068359375">
        <ele>3971.60009765625</ele>
        <time>2023-07-29T15:36:21.000Z</time>
        <extensions>
          <ns3:TrackPointExtension>
            <ns3:hr>98</ns3:hr>
            <ns3:cad>0</ns3:cad>
          </ns3:TrackPointExtension>
        </extensions>
      </trkpt>
      <trkpt lat="37.7768803574144840240478515625" lon="-107.6965540833771228790283203125">
        <ele>3971.60009765625</ele>
        <time>2023-07-29T15:36:22.000Z</time>
        <extensions>
          <ns3:TrackPointExtension>
            <ns3:hr>98</ns3:hr>
            <ns3:cad>0</ns3:cad>
          </ns3:TrackPointExtension>
        </extensions>
      </trkpt>
      <trkpt lat="37.7768833748996257781982421875" lon="-107.696565650403499603271484375">
        <ele>3971.39990234375</ele>
        <time>2023-07-29T15:36:23.000Z</time>
        <extensions>
          <ns3:TrackPointExtension>
            <ns3:hr>97</ns3:hr>
            <ns3:cad>0</ns3:cad>
          </ns3:TrackPointExtension>
        </extensions>
      </trkpt>
      <trkpt lat="37.77688614092767238616943359375" lon="-107.69657897762954235076904296875">
        <ele>3971.39990234375</ele>
        <time>2023-07-29T15:36:24.000Z</time>
        <extensions>
          <ns3:TrackPointExtension>
            <ns3:hr>97</ns3:hr>
            <ns3:cad>0</ns3:cad>
          </ns3:TrackPointExtension>
        </extensions>
      </trkpt>
      <trkpt lat="37.7768873982131481170654296875" lon="-107.69660177640616893768310546875">
        <ele>3971.39990234375</ele>
        <time>2023-07-29T15:36:25.000Z</time>
        <extensions>
          <ns3:TrackPointExtension>
            <ns3:hr>97</ns3:hr>
            <ns3:cad>0</ns3:cad>
          </ns3:TrackPointExtension>
        </extensions>
      </trkpt>
      <trkpt lat="37.7768860571086406707763671875" lon="-107.6966177858412265777587890625">
        <ele>3971.39990234375</ele>
        <time>2023-07-29T15:36:26.000Z</time>
        <extensions>
          <ns3:TrackPointExtension>
            <ns3:hr>98</ns3:hr>
            <ns3:cad>0</ns3:cad>
          </ns3:TrackPointExtension>
        </extensions>
      </trkpt>
      <trkpt lat="37.77688832022249698638916015625" lon="-107.6966154389083385467529296875">
        <ele>3971.39990234375</ele>
        <time>2023-07-29T15:36:27.000Z</time>
        <extensions>
          <ns3:TrackPointExtension>
            <ns3:hr>98</ns3:hr>
            <ns3:cad>0</ns3:cad>
          </ns3:TrackPointExtension>
        </extensions>
      </trkpt>
      <trkpt lat="37.77689267881214618682861328125" lon="-107.69662566483020782470703125">
        <ele>3971.39990234375</ele>
        <time>2023-07-29T15:36:28.000Z</time>
        <extensions>
          <ns3:TrackPointExtension>
            <ns3:hr>98</ns3:hr>
            <ns3:cad>0</ns3:cad>
          </ns3:TrackPointExtension>
        </extensions>
      </trkpt>
      <trkpt lat="37.7768954448401927947998046875" lon="-107.69662943668663501739501953125">
        <ele>3971.39990234375</ele>
        <time>2023-07-29T15:36:29.000Z</time>
        <extensions>
          <ns3:TrackPointExtension>
            <ns3:hr>98</ns3:hr>
            <ns3:cad>0</ns3:cad>
          </ns3:TrackPointExtension>
        </extensions>
      </trkpt>
      <trkpt lat="37.776899635791778564453125" lon="-107.69663094542920589447021484375">
        <ele>3971.39990234375</ele>
        <time>2023-07-29T15:36:30.000Z</time>
        <extensions>
          <ns3:TrackPointExtension>
            <ns3:hr>98</ns3:hr>
            <ns3:cad>0</ns3:cad>
          </ns3:TrackPointExtension>
        </extensions>
      </trkpt>
      <trkpt lat="37.776901982724666595458984375" lon="-107.69662926904857158660888671875">
        <ele>3971.39990234375</ele>
        <time>2023-07-29T15:36:31.000Z</time>
        <extensions>
          <ns3:TrackPointExtension>
            <ns3:hr>98</ns3:hr>
            <ns3:cad>0</ns3:cad>
          </ns3:TrackPointExtension>
        </extensions>
      </trkpt>
      <trkpt lat="37.77690424583852291107177734375" lon="-107.6966241560876369476318359375">
        <ele>3971.39990234375</ele>
        <time>2023-07-29T15:36:32.000Z</time>
        <extensions>
          <ns3:TrackPointExtension>
            <ns3:hr>98</ns3:hr>
            <ns3:cad>0</ns3:cad>
          </ns3:TrackPointExtension>
        </extensions>
      </trkpt>
      <trkpt lat="37.77690642513334751129150390625" lon="-107.69662440754473209381103515625">
        <ele>3971.199951171875</ele>
        <time>2023-07-29T15:36:33.000Z</time>
        <extensions>
          <ns3:TrackPointExtension>
            <ns3:hr>98</ns3:hr>
            <ns3:cad>0</ns3:cad>
          </ns3:TrackPointExtension>
        </extensions>
      </trkpt>
      <trkpt lat="37.7769071795046329498291015625" lon="-107.69663161598145961761474609375">
        <ele>3971.199951171875</ele>
        <time>2023-07-29T15:36:34.000Z</time>
        <extensions>
          <ns3:TrackPointExtension>
            <ns3:hr>98</ns3:hr>
            <ns3:cad>0</ns3:cad>
          </ns3:TrackPointExtension>
        </extensions>
      </trkpt>
      <trkpt lat="37.776908688247203826904296875" lon="-107.69664368592202663421630859375">
        <ele>3971.199951171875</ele>
        <time>2023-07-29T15:36:35.000Z</time>
        <extensions>
          <ns3:TrackPointExtension>
            <ns3:hr>98</ns3:hr>
            <ns3:cad>0</ns3:cad>
          </ns3:TrackPointExtension>
        </extensions>
      </trkpt>
      <trkpt lat="37.77690877206623554229736328125" lon="-107.69665114581584930419921875">
        <ele>3971.199951171875</ele>
        <time>2023-07-29T15:36:36.000Z</time>
        <extensions>
          <ns3:TrackPointExtension>
            <ns3:hr>98</ns3:hr>
            <ns3:cad>0</ns3:cad>
          </ns3:TrackPointExtension>
        </extensions>
      </trkpt>
      <trkpt lat="37.77690709568560123443603515625" lon="-107.6966586895287036895751953125">
        <ele>3971.199951171875</ele>
        <time>2023-07-29T15:36:37.000Z</time>
        <extensions>
          <ns3:TrackPointExtension>
            <ns3:hr>98</ns3:hr>
            <ns3:cad>0</ns3:cad>
          </ns3:TrackPointExtension>
        </extensions>
      </trkpt>
      <trkpt lat="37.7769048325717449188232421875" lon="-107.6966603659093379974365234375">
        <ele>3971.199951171875</ele>
        <time>2023-07-29T15:36:38.000Z</time>
        <extensions>
          <ns3:TrackPointExtension>
            <ns3:hr>98</ns3:hr>
            <ns3:cad>0</ns3:cad>
          </ns3:TrackPointExtension>
        </extensions>
      </trkpt>
      <trkpt lat="37.7769038267433643341064453125" lon="-107.69666044972836971282958984375">
        <ele>3971.39990234375</ele>
        <time>2023-07-29T15:36:39.000Z</time>
        <extensions>
          <ns3:TrackPointExtension>
            <ns3:hr>98</ns3:hr>
            <ns3:cad>0</ns3:cad>
          </ns3:TrackPointExtension>
        </extensions>
      </trkpt>
      <trkpt lat="37.77690231800079345703125" lon="-107.6966590248048305511474609375">
        <ele>3971.39990234375</ele>
        <time>2023-07-29T15:36:40.000Z</time>
        <extensions>
          <ns3:TrackPointExtension>
            <ns3:hr>98</ns3:hr>
            <ns3:cad>0</ns3:cad>
          </ns3:TrackPointExtension>
        </extensions>
      </trkpt>
      <trkpt lat="37.77690022252500057220458984375" lon="-107.69665759988129138946533203125">
        <ele>3971.39990234375</ele>
        <time>2023-07-29T15:36:41.000Z</time>
        <extensions>
          <ns3:TrackPointExtension>
            <ns3:hr>98</ns3:hr>
            <ns3:cad>0</ns3:cad>
          </ns3:TrackPointExtension>
        </extensions>
      </trkpt>
      <trkpt lat="37.7768981270492076873779296875" lon="-107.6966570131480693817138671875">
        <ele>3971.60009765625</ele>
        <time>2023-07-29T15:36:42.000Z</time>
        <extensions>
          <ns3:TrackPointExtension>
            <ns3:hr>98</ns3:hr>
            <ns3:cad>0</ns3:cad>
          </ns3:TrackPointExtension>
        </extensions>
      </trkpt>
      <trkpt lat="37.7768951095640659332275390625" lon="-107.69665525294840335845947265625">
        <ele>3971.60009765625</ele>
        <time>2023-07-29T15:36:43.000Z</time>
        <extensions>
          <ns3:TrackPointExtension>
            <ns3:hr>98</ns3:hr>
            <ns3:cad>0</ns3:cad>
          </ns3:TrackPointExtension>
        </extensions>
      </trkpt>
      <trkpt lat="37.7768929302692413330078125" lon="-107.6966509781777858734130859375">
        <ele>3971.60009765625</ele>
        <time>2023-07-29T15:36:44.000Z</time>
        <extensions>
          <ns3:TrackPointExtension>
            <ns3:hr>98</ns3:hr>
            <ns3:cad>0</ns3:cad>
          </ns3:TrackPointExtension>
        </extensions>
      </trkpt>
      <trkpt lat="37.77689184062182903289794921875" lon="-107.696651481091976165771484375">
        <ele>3971.60009765625</ele>
        <time>2023-07-29T15:36:45.000Z</time>
        <extensions>
          <ns3:TrackPointExtension>
            <ns3:hr>98</ns3:hr>
            <ns3:cad>0</ns3:cad>
          </ns3:TrackPointExtension>
        </extensions>
      </trkpt>
      <trkpt lat="37.77688781730830669403076171875" lon="-107.6966452784836292266845703125">
        <ele>3971.800048828125</ele>
        <time>2023-07-29T15:36:46.000Z</time>
        <extensions>
          <ns3:TrackPointExtension>
            <ns3:hr>98</ns3:hr>
            <ns3:cad>0</ns3:cad>
          </ns3:TrackPointExtension>
        </extensions>
      </trkpt>
      <trkpt lat="37.77688697911798954010009765625" lon="-107.69664955325424671173095703125">
        <ele>3971.800048828125</ele>
        <time>2023-07-29T15:36:47.000Z</time>
        <extensions>
          <ns3:TrackPointExtension>
            <ns3:hr>98</ns3:hr>
            <ns3:cad>0</ns3:cad>
          </ns3:TrackPointExtension>
        </extensions>
      </trkpt>
      <trkpt lat="37.77688798494637012481689453125" lon="-107.69665575586259365081787109375">
        <ele>3971.800048828125</ele>
        <time>2023-07-29T15:36:48.000Z</time>
        <extensions>
          <ns3:TrackPointExtension>
            <ns3:hr>98</ns3:hr>
            <ns3:cad>0</ns3:cad>
          </ns3:TrackPointExtension>
        </extensions>
      </trkpt>
      <trkpt lat="37.77688848786056041717529296875" lon="-107.6966660656034946441650390625">
        <ele>3971.60009765625</ele>
        <time>2023-07-29T15:36:49.000Z</time>
        <extensions>
          <ns3:TrackPointExtension>
            <ns3:hr>98</ns3:hr>
            <ns3:cad>52</ns3:cad>
          </ns3:TrackPointExtension>
        </extensions>
      </trkpt>
      <trkpt lat="37.776888906955718994140625" lon="-107.6966778002679347991943359375">
        <ele>3971.60009765625</ele>
        <time>2023-07-29T15:36:50.000Z</time>
        <extensions>
          <ns3:TrackPointExtension>
            <ns3:hr>98</ns3:hr>
            <ns3:cad>52</ns3:cad>
          </ns3:TrackPointExtension>
        </extensions>
      </trkpt>
      <trkpt lat="37.77689049951732158660888671875" lon="-107.69668391905725002288818359375">
        <ele>3971.60009765625</ele>
        <time>2023-07-29T15:36:51.000Z</time>
        <extensions>
          <ns3:TrackPointExtension>
            <ns3:hr>98</ns3:hr>
            <ns3:cad>52</ns3:cad>
          </ns3:TrackPointExtension>
        </extensions>
      </trkpt>
      <trkpt lat="37.77689435519278049468994140625" lon="-107.69669397734105587005615234375">
        <ele>3971.60009765625</ele>
        <time>2023-07-29T15:36:52.000Z</time>
        <extensions>
          <ns3:TrackPointExtension>
            <ns3:hr>98</ns3:hr>
            <ns3:cad>52</ns3:cad>
          </ns3:TrackPointExtension>
        </extensions>
      </trkpt>
      <trkpt lat="37.7768982946872711181640625" lon="-107.69670587964355945587158203125">
        <ele>3971.800048828125</ele>
        <time>2023-07-29T15:36:53.000Z</time>
        <extensions>
          <ns3:TrackPointExtension>
            <ns3:hr>98</ns3:hr>
            <ns3:cad>55</ns3:cad>
          </ns3:TrackPointExtension>
        </extensions>
      </trkpt>
      <trkpt lat="37.7768998034298419952392578125" lon="-107.69670856185257434844970703125">
        <ele>3971.800048828125</ele>
        <time>2023-07-29T15:36:54.000Z</time>
        <extensions>
          <ns3:TrackPointExtension>
            <ns3:hr>98</ns3:hr>
            <ns3:cad>55</ns3:cad>
          </ns3:TrackPointExtension>
        </extensions>
      </trkpt>
      <trkpt lat="37.776904664933681488037109375" lon="-107.69671593792736530303955078125">
        <ele>3972</ele>
        <time>2023-07-29T15:36:55.000Z</time>
        <extensions>
          <ns3:TrackPointExtension>
            <ns3:hr>98</ns3:hr>
            <ns3:cad>55</ns3:cad>
          </ns3:TrackPointExtension>
        </extensions>
      </trkpt>
      <trkpt lat="37.7769122086465358734130859375" lon="-107.6967294327914714813232421875">
        <ele>3972</ele>
        <time>2023-07-29T15:36:56.000Z</time>
        <extensions>
          <ns3:TrackPointExtension>
            <ns3:hr>98</ns3:hr>
            <ns3:cad>55</ns3:cad>
          </ns3:TrackPointExtension>
        </extensions>
      </trkpt>
      <trkpt lat="37.77691866271197795867919921875" lon="-107.69673991017043590545654296875">
        <ele>3972.199951171875</ele>
        <time>2023-07-29T15:36:57.000Z</time>
        <extensions>
          <ns3:TrackPointExtension>
            <ns3:hr>99</ns3:hr>
            <ns3:cad>0</ns3:cad>
          </ns3:TrackPointExtension>
        </extensions>
      </trkpt>
      <trkpt lat="37.77692712843418121337890625" lon="-107.69675365649163722991943359375">
        <ele>3972.39990234375</ele>
        <time>2023-07-29T15:36:58.000Z</time>
        <extensions>
          <ns3:TrackPointExtension>
            <ns3:hr>99</ns3:hr>
            <ns3:cad>0</ns3:cad>
          </ns3:TrackPointExtension>
        </extensions>
      </trkpt>
      <trkpt lat="37.77693727053701877593994140625" lon="-107.6967696659266948699951171875">
        <ele>3972.60009765625</ele>
        <time>2023-07-29T15:36:59.000Z</time>
        <extensions>
          <ns3:TrackPointExtension>
            <ns3:hr>100</ns3:hr>
            <ns3:cad>0</ns3:cad>
          </ns3:TrackPointExtension>
        </extensions>
      </trkpt>
      <trkpt lat="37.77694716118276119232177734375" lon="-107.6967793889343738555908203125">
        <ele>3972.60009765625</ele>
        <time>2023-07-29T15:37:00.000Z</time>
        <extensions>
          <ns3:TrackPointExtension>
            <ns3:hr>100</ns3:hr>
            <ns3:cad>45</ns3:cad>
          </ns3:TrackPointExtension>
        </extensions>
      </trkpt>
      <trkpt lat="37.7769519388675689697265625" lon="-107.69678349606692790985107421875">
        <ele>3972.800048828125</ele>
        <time>2023-07-29T15:37:01.000Z</time>
        <extensions>
          <ns3:TrackPointExtension>
            <ns3:hr>101</ns3:hr>
            <ns3:cad>45</ns3:cad>
          </ns3:TrackPointExtension>
        </extensions>
      </trkpt>
      <trkpt lat="37.7769561298191547393798828125" lon="-107.69679036922752857208251953125">
        <ele>3973</ele>
        <time>2023-07-29T15:37:02.000Z</time>
        <extensions>
          <ns3:TrackPointExtension>
            <ns3:hr>101</ns3:hr>
            <ns3:cad>45</ns3:cad>
          </ns3:TrackPointExtension>
        </extensions>
      </trkpt>
      <trkpt lat="37.77696493081748485565185546875" lon="-107.6967907883226871490478515625">
        <ele>3973</ele>
        <time>2023-07-29T15:37:03.000Z</time>
        <extensions>
          <ns3:TrackPointExtension>
            <ns3:hr>100</ns3:hr>
            <ns3:cad>45</ns3:cad>
          </ns3:TrackPointExtension>
        </extensions>
      </trkpt>
      <trkpt lat="37.776967026293277740478515625" lon="-107.6967951469123363494873046875">
        <ele>3973.199951171875</ele>
        <time>2023-07-29T15:37:04.000Z</time>
        <extensions>
          <ns3:TrackPointExtension>
            <ns3:hr>98</ns3:hr>
            <ns3:cad>0</ns3:cad>
          </ns3:TrackPointExtension>
        </extensions>
      </trkpt>
      <trkpt lat="37.776971049606800079345703125" lon="-107.696807049214839935302734375">
        <ele>3973.199951171875</ele>
        <time>2023-07-29T15:37:05.000Z</time>
        <extensions>
          <ns3:TrackPointExtension>
            <ns3:hr>97</ns3:hr>
            <ns3:cad>0</ns3:cad>
          </ns3:TrackPointExtension>
        </extensions>
      </trkpt>
      <trkpt lat="37.776975072920322418212890625" lon="-107.69681668840348720550537109375">
        <ele>3973.39990234375</ele>
        <time>2023-07-29T15:37:06.000Z</time>
        <extensions>
          <ns3:TrackPointExtension>
            <ns3:hr>98</ns3:hr>
            <ns3:cad>0</ns3:cad>
          </ns3:TrackPointExtension>
        </extensions>
      </trkpt>
      <trkpt lat="37.77697867713868618011474609375" lon="-107.69682825542986392974853515625">
        <ele>3973.800048828125</ele>
        <time>2023-07-29T15:37:07.000Z</time>
        <extensions>
          <ns3:TrackPointExtension>
            <ns3:hr>99</ns3:hr>
            <ns3:cad>0</ns3:cad>
          </ns3:TrackPointExtension>
        </extensions>
      </trkpt>
      <trkpt lat="37.7769759111106395721435546875" lon="-107.6968400739133358001708984375">
        <ele>3973.800048828125</ele>
        <time>2023-07-29T15:37:08.000Z</time>
        <extensions>
          <ns3:TrackPointExtension>
            <ns3:hr>100</ns3:hr>
            <ns3:cad>0</ns3:cad>
          </ns3:TrackPointExtension>
        </extensions>
      </trkpt>
      <trkpt lat="37.77697649784386157989501953125" lon="-107.69684921018779277801513671875">
        <ele>3974</ele>
        <time>2023-07-29T15:37:09.000Z</time>
        <extensions>
          <ns3:TrackPointExtension>
            <ns3:hr>101</ns3:hr>
            <ns3:cad>0</ns3:cad>
          </ns3:TrackPointExtension>
        </extensions>
      </trkpt>
      <trkpt lat="37.77697582729160785675048828125" lon="-107.69686060957610607147216796875">
        <ele>3974.199951171875</ele>
        <time>2023-07-29T15:37:10.000Z</time>
        <extensions>
          <ns3:TrackPointExtension>
            <ns3:hr>102</ns3:hr>
            <ns3:cad>0</ns3:cad>
          </ns3:TrackPointExtension>
        </extensions>
      </trkpt>
      <trkpt lat="37.7769762463867664337158203125" lon="-107.69688206724822521209716796875">
        <ele>3974.39990234375</ele>
        <time>2023-07-29T15:37:11.000Z</time>
        <extensions>
          <ns3:TrackPointExtension>
            <ns3:hr>103</ns3:hr>
            <ns3:cad>44</ns3:cad>
          </ns3:TrackPointExtension>
        </extensions>
      </trkpt>
      <trkpt lat="37.77697733603417873382568359375" lon="-107.69689162261784076690673828125">
        <ele>3974.60009765625</ele>
        <time>2023-07-29T15:37:12.000Z</time>
        <extensions>
          <ns3:TrackPointExtension>
            <ns3:hr>104</ns3:hr>
            <ns3:cad>44</ns3:cad>
          </ns3:TrackPointExtension>
        </extensions>
      </trkpt>
      <trkpt lat="37.77698077261447906494140625" lon="-107.696908973157405853271484375">
        <ele>3974.60009765625</ele>
        <time>2023-07-29T15:37:13.000Z</time>
        <extensions>
          <ns3:TrackPointExtension>
            <ns3:hr>104</ns3:hr>
            <ns3:cad>44</ns3:cad>
          </ns3:TrackPointExtension>
        </extensions>
      </trkpt>
      <trkpt lat="37.7769832871854305267333984375" lon="-107.696925066411495208740234375">
        <ele>3974.800048828125</ele>
        <time>2023-07-29T15:37:14.000Z</time>
        <extensions>
          <ns3:TrackPointExtension>
            <ns3:hr>105</ns3:hr>
            <ns3:cad>44</ns3:cad>
          </ns3:TrackPointExtension>
        </extensions>
      </trkpt>
      <trkpt lat="37.77698739431798458099365234375" lon="-107.6969399861991405487060546875">
        <ele>3974.800048828125</ele>
        <time>2023-07-29T15:37:15.000Z</time>
        <extensions>
          <ns3:TrackPointExtension>
            <ns3:hr>105</ns3:hr>
            <ns3:cad>44</ns3:cad>
          </ns3:TrackPointExtension>
        </extensions>
      </trkpt>
      <trkpt lat="37.776991836726665496826171875" lon="-107.696956582367420196533203125">
        <ele>3975</ele>
        <time>2023-07-29T15:37:16.000Z</time>
        <extensions>
          <ns3:TrackPointExtension>
            <ns3:hr>106</ns3:hr>
            <ns3:cad>45</ns3:cad>
          </ns3:TrackPointExtension>
        </extensions>
      </trkpt>
      <trkpt lat="37.77699426747858524322509765625" lon="-107.6969624496996402740478515625">
        <ele>3975</ele>
        <time>2023-07-29T15:37:17.000Z</time>
        <extensions>
          <ns3:TrackPointExtension>
            <ns3:hr>107</ns3:hr>
            <ns3:cad>45</ns3:cad>
          </ns3:TrackPointExtension>
        </extensions>
      </trkpt>
      <trkpt lat="37.7769966982305049896240234375" lon="-107.69696454517543315887451171875">
        <ele>3975</ele>
        <time>2023-07-29T15:37:18.000Z</time>
        <extensions>
          <ns3:TrackPointExtension>
            <ns3:hr>108</ns3:hr>
            <ns3:cad>45</ns3:cad>
          </ns3:TrackPointExtension>
        </extensions>
      </trkpt>
      <trkpt lat="37.7769987098872661590576171875" lon="-107.69696454517543315887451171875">
        <ele>3975.199951171875</ele>
        <time>2023-07-29T15:37:19.000Z</time>
        <extensions>
          <ns3:TrackPointExtension>
            <ns3:hr>109</ns3:hr>
            <ns3:cad>45</ns3:cad>
          </ns3:TrackPointExtension>
        </extensions>
      </trkpt>
      <trkpt lat="37.7770055830478668212890625" lon="-107.696972005069255828857421875">
        <ele>3975.199951171875</ele>
        <time>2023-07-29T15:37:20.000Z</time>
        <extensions>
          <ns3:TrackPointExtension>
            <ns3:hr>110</ns3:hr>
            <ns3:cad>0</ns3:cad>
          </ns3:TrackPointExtension>
        </extensions>
      </trkpt>
      <trkpt lat="37.77700901962816715240478515625" lon="-107.6969715021550655364990234375">
        <ele>3975.39990234375</ele>
        <time>2023-07-29T15:37:21.000Z</time>
        <extensions>
          <ns3:TrackPointExtension>
            <ns3:hr>110</ns3:hr>
            <ns3:cad>0</ns3:cad>
          </ns3:TrackPointExtension>
        </extensions>
      </trkpt>
      <trkpt lat="37.7770158089697360992431640625" lon="-107.69696957431733608245849609375">
        <ele>3975.800048828125</ele>
        <time>2023-07-29T15:37:22.000Z</time>
        <extensions>
          <ns3:TrackPointExtension>
            <ns3:hr>111</ns3:hr>
            <ns3:cad>0</ns3:cad>
          </ns3:TrackPointExtension>
        </extensions>
      </trkpt>
      <trkpt lat="37.77701538987457752227783203125" lon="-107.696960270404815673828125">
        <ele>3976</ele>
        <time>2023-07-29T15:37:23.000Z</time>
        <extensions>
          <ns3:TrackPointExtension>
            <ns3:hr>111</ns3:hr>
            <ns3:cad>0</ns3:cad>
          </ns3:TrackPointExtension>
        </extensions>
      </trkpt>
      <trkpt lat="37.777022682130336761474609375" lon="-107.696959264576435089111328125">
        <ele>3976.199951171875</ele>
        <time>2023-07-29T15:37:24.000Z</time>
        <extensions>
          <ns3:TrackPointExtension>
            <ns3:hr>111</ns3:hr>
            <ns3:cad>0</ns3:cad>
          </ns3:TrackPointExtension>
        </extensions>
      </trkpt>
      <trkpt lat="37.777033746242523193359375" lon="-107.696958594024181365966796875">
        <ele>3976.39990234375</ele>
        <time>2023-07-29T15:37:25.000Z</time>
        <extensions>
          <ns3:TrackPointExtension>
            <ns3:hr>111</ns3:hr>
            <ns3:cad>0</ns3:cad>
          </ns3:TrackPointExtension>
        </extensions>
      </trkpt>
      <trkpt lat="37.77704657055437564849853515625" lon="-107.69695582799613475799560546875">
        <ele>3976.800048828125</ele>
        <time>2023-07-29T15:37:26.000Z</time>
        <extensions>
          <ns3:TrackPointExtension>
            <ns3:hr>111</ns3:hr>
            <ns3:cad>0</ns3:cad>
          </ns3:TrackPointExtension>
        </extensions>
      </trkpt>
      <trkpt lat="37.77705092914402484893798828125" lon="-107.69695767201483249664306640625">
        <ele>3977.199951171875</ele>
        <time>2023-07-29T15:37:27.000Z</time>
        <extensions>
          <ns3:TrackPointExtension>
            <ns3:hr>112</ns3:hr>
            <ns3:cad>0</ns3:cad>
          </ns3:TrackPointExtension>
        </extensions>
      </trkpt>
      <trkpt lat="37.77705411426723003387451171875" lon="-107.69696362316608428955078125">
        <ele>3977.199951171875</ele>
        <time>2023-07-29T15:37:28.000Z</time>
        <extensions>
          <ns3:TrackPointExtension>
            <ns3:hr>112</ns3:hr>
            <ns3:cad>0</ns3:cad>
          </ns3:TrackPointExtension>
        </extensions>
      </trkpt>
      <trkpt lat="37.7770617417991161346435546875" lon="-107.69697192125022411346435546875">
        <ele>3977.60009765625</ele>
        <time>2023-07-29T15:37:29.000Z</time>
        <extensions>
          <ns3:TrackPointExtension>
            <ns3:hr>112</ns3:hr>
            <ns3:cad>0</ns3:cad>
          </ns3:TrackPointExtension>
        </extensions>
      </trkpt>
      <trkpt lat="37.7770634181797504425048828125" lon="-107.69697963260114192962646484375">
        <ele>3977.800048828125</ele>
        <time>2023-07-29T15:37:30.000Z</time>
        <extensions>
          <ns3:TrackPointExtension>
            <ns3:hr>113</ns3:hr>
            <ns3:cad>0</ns3:cad>
          </ns3:TrackPointExtension>
        </extensions>
      </trkpt>
      <trkpt lat="37.77707003988325595855712890625" lon="-107.6969946362078189849853515625">
        <ele>3978</ele>
        <time>2023-07-29T15:37:31.000Z</time>
        <extensions>
          <ns3:TrackPointExtension>
            <ns3:hr>113</ns3:hr>
            <ns3:cad>0</ns3:cad>
          </ns3:TrackPointExtension>
        </extensions>
      </trkpt>
      <trkpt lat="37.77707238681614398956298828125" lon="-107.6970050297677516937255859375">
        <ele>3978</ele>
        <time>2023-07-29T15:37:32.000Z</time>
        <extensions>
          <ns3:TrackPointExtension>
            <ns3:hr>114</ns3:hr>
            <ns3:cad>0</ns3:cad>
          </ns3:TrackPointExtension>
        </extensions>
      </trkpt>
      <trkpt lat="37.777076326310634613037109375" lon="-107.6970227994024753570556640625">
        <ele>3978.199951171875</ele>
        <time>2023-07-29T15:37:33.000Z</time>
        <extensions>
          <ns3:TrackPointExtension>
            <ns3:hr>115</ns3:hr>
            <ns3:cad>0</ns3:cad>
          </ns3:TrackPointExtension>
        </extensions>
      </trkpt>
      <trkpt lat="37.77707976289093494415283203125" lon="-107.69703067839145660400390625">
        <ele>3978.199951171875</ele>
        <time>2023-07-29T15:37:34.000Z</time>
        <extensions>
          <ns3:TrackPointExtension>
            <ns3:hr>116</ns3:hr>
            <ns3:cad>0</ns3:cad>
          </ns3:TrackPointExtension>
        </extensions>
      </trkpt>
      <trkpt lat="37.777084372937679290771484375" lon="-107.69704199396073818206787109375">
        <ele>3978.39990234375</ele>
        <time>2023-07-29T15:37:35.000Z</time>
        <extensions>
          <ns3:TrackPointExtension>
            <ns3:hr>118</ns3:hr>
            <ns3:cad>0</ns3:cad>
          </ns3:TrackPointExtension>
        </extensions>
      </trkpt>
      <trkpt lat="37.77708713896572589874267578125" lon="-107.69705087877810001373291015625">
        <ele>3978.39990234375</ele>
        <time>2023-07-29T15:37:36.000Z</time>
        <extensions>
          <ns3:TrackPointExtension>
            <ns3:hr>120</ns3:hr>
            <ns3:cad>0</ns3:cad>
          </ns3:TrackPointExtension>
        </extensions>
      </trkpt>
      <trkpt lat="37.77708814479410648345947265625" lon="-107.69705213606357574462890625">
        <ele>3978.60009765625</ele>
        <time>2023-07-29T15:37:37.000Z</time>
        <extensions>
          <ns3:TrackPointExtension>
            <ns3:hr>121</ns3:hr>
            <ns3:cad>0</ns3:cad>
          </ns3:TrackPointExtension>
        </extensions>
      </trkpt>
      <trkpt lat="37.7770902402698993682861328125" lon="-107.69706160761415958404541015625">
        <ele>3978.800048828125</ele>
        <time>2023-07-29T15:37:38.000Z</time>
        <extensions>
          <ns3:TrackPointExtension>
            <ns3:hr>122</ns3:hr>
            <ns3:cad>0</ns3:cad>
          </ns3:TrackPointExtension>
        </extensions>
      </trkpt>
      <trkpt lat="37.77709200046956539154052734375" lon="-107.6970697380602359771728515625">
        <ele>3979</ele>
        <time>2023-07-29T15:37:39.000Z</time>
        <extensions>
          <ns3:TrackPointExtension>
            <ns3:hr>123</ns3:hr>
            <ns3:cad>0</ns3:cad>
          </ns3:TrackPointExtension>
        </extensions>
      </trkpt>
      <trkpt lat="37.77709518559277057647705078125" lon="-107.6970774494111537933349609375">
        <ele>3979.199951171875</ele>
        <time>2023-07-29T15:37:40.000Z</time>
        <extensions>
          <ns3:TrackPointExtension>
            <ns3:hr>123</ns3:hr>
            <ns3:cad>0</ns3:cad>
          </ns3:TrackPointExtension>
        </extensions>
      </trkpt>
      <trkpt lat="37.77709904126822948455810546875" lon="-107.6970955543220043182373046875">
        <ele>3979.199951171875</ele>
        <time>2023-07-29T15:37:41.000Z</time>
        <extensions>
          <ns3:TrackPointExtension>
            <ns3:hr>123</ns3:hr>
            <ns3:cad>0</ns3:cad>
          </ns3:TrackPointExtension>
        </extensions>
      </trkpt>
      <trkpt lat="37.777104489505290985107421875" lon="-107.69711374305188655853271484375">
        <ele>3979.39990234375</ele>
        <time>2023-07-29T15:37:42.000Z</time>
        <extensions>
          <ns3:TrackPointExtension>
            <ns3:hr>123</ns3:hr>
            <ns3:cad>0</ns3:cad>
          </ns3:TrackPointExtension>
        </extensions>
      </trkpt>
      <trkpt lat="37.77711044065654277801513671875" lon="-107.6971327699720859527587890625">
        <ele>3979.39990234375</ele>
        <time>2023-07-29T15:37:43.000Z</time>
        <extensions>
          <ns3:TrackPointExtension>
            <ns3:hr>122</ns3:hr>
            <ns3:cad>0</ns3:cad>
          </ns3:TrackPointExtension>
        </extensions>
      </trkpt>
      <trkpt lat="37.7771021425724029541015625" lon="-107.69713067449629306793212890625">
        <ele>3979.39990234375</ele>
        <time>2023-07-29T15:37:44.000Z</time>
        <extensions>
          <ns3:TrackPointExtension>
            <ns3:hr>122</ns3:hr>
            <ns3:cad>0</ns3:cad>
          </ns3:TrackPointExtension>
        </extensions>
      </trkpt>
      <trkpt lat="37.777099125087261199951171875" lon="-107.69714794121682643890380859375">
        <ele>3979.39990234375</ele>
        <time>2023-07-29T15:37:45.000Z</time>
        <extensions>
          <ns3:TrackPointExtension>
            <ns3:hr>122</ns3:hr>
            <ns3:cad>0</ns3:cad>
          </ns3:TrackPointExtension>
        </extensions>
      </trkpt>
      <trkpt lat="37.77709543704986572265625" lon="-107.6971508748829364776611328125">
        <ele>3979.39990234375</ele>
        <time>2023-07-29T15:37:46.000Z</time>
        <extensions>
          <ns3:TrackPointExtension>
            <ns3:hr>122</ns3:hr>
            <ns3:cad>0</ns3:cad>
          </ns3:TrackPointExtension>
        </extensions>
      </trkpt>
      <trkpt lat="37.777094431221485137939453125" lon="-107.69716738723218441009521484375">
        <ele>3979.39990234375</ele>
        <time>2023-07-29T15:37:47.000Z</time>
        <extensions>
          <ns3:TrackPointExtension>
            <ns3:hr>122</ns3:hr>
            <ns3:cad>44</ns3:cad>
          </ns3:TrackPointExtension>
        </extensions>
      </trkpt>
      <trkpt lat="37.777095101773738861083984375" lon="-107.69717761315405368804931640625">
        <ele>3979.39990234375</ele>
        <time>2023-07-29T15:37:48.000Z</time>
        <extensions>
          <ns3:TrackPointExtension>
            <ns3:hr>122</ns3:hr>
            <ns3:cad>44</ns3:cad>
          </ns3:TrackPointExtension>
        </extensions>
      </trkpt>
      <trkpt lat="37.77709619142115116119384765625" lon="-107.69718767143785953521728515625">
        <ele>3979.60009765625</ele>
        <time>2023-07-29T15:37:49.000Z</time>
        <extensions>
          <ns3:TrackPointExtension>
            <ns3:hr>122</ns3:hr>
            <ns3:cad>44</ns3:cad>
          </ns3:TrackPointExtension>
        </extensions>
      </trkpt>
      <trkpt lat="37.77709770016372203826904296875" lon="-107.69719923846423625946044921875">
        <ele>3979.60009765625</ele>
        <time>2023-07-29T15:37:50.000Z</time>
        <extensions>
          <ns3:TrackPointExtension>
            <ns3:hr>122</ns3:hr>
            <ns3:cad>0</ns3:cad>
          </ns3:TrackPointExtension>
        </extensions>
      </trkpt>
      <trkpt lat="37.777100466191768646240234375" lon="-107.697212398052215576171875">
        <ele>3979.60009765625</ele>
        <time>2023-07-29T15:37:51.000Z</time>
        <extensions>
          <ns3:TrackPointExtension>
            <ns3:hr>122</ns3:hr>
            <ns3:cad>0</ns3:cad>
          </ns3:TrackPointExtension>
        </extensions>
      </trkpt>
      <trkpt lat="37.7771048247814178466796875" lon="-107.69722513854503631591796875">
        <ele>3979.60009765625</ele>
        <time>2023-07-29T15:37:52.000Z</time>
        <extensions>
          <ns3:TrackPointExtension>
            <ns3:hr>122</ns3:hr>
            <ns3:cad>0</ns3:cad>
          </ns3:TrackPointExtension>
        </extensions>
      </trkpt>
      <trkpt lat="37.7771101891994476318359375" lon="-107.69723813049495220184326171875">
        <ele>3979.800048828125</ele>
        <time>2023-07-29T15:37:53.000Z</time>
        <extensions>
          <ns3:TrackPointExtension>
            <ns3:hr>122</ns3:hr>
            <ns3:cad>0</ns3:cad>
          </ns3:TrackPointExtension>
        </extensions>
      </trkpt>
      <trkpt lat="37.777113877236843109130859375" lon="-107.69725263118743896484375">
        <ele>3979.800048828125</ele>
        <time>2023-07-29T15:37:54.000Z</time>
        <extensions>
          <ns3:TrackPointExtension>
            <ns3:hr>122</ns3:hr>
            <ns3:cad>0</ns3:cad>
          </ns3:TrackPointExtension>
        </extensions>
      </trkpt>
      <trkpt lat="37.7771220915019512176513671875" lon="-107.69727534614503383636474609375">
        <ele>3979.800048828125</ele>
        <time>2023-07-29T15:37:55.000Z</time>
        <extensions>
          <ns3:TrackPointExtension>
            <ns3:hr>122</ns3:hr>
            <ns3:cad>0</ns3:cad>
          </ns3:TrackPointExtension>
        </extensions>
      </trkpt>
      <trkpt lat="37.77712536044418811798095703125" lon="-107.6972849853336811065673828125">
        <ele>3979.800048828125</ele>
        <time>2023-07-29T15:37:56.000Z</time>
        <extensions>
          <ns3:TrackPointExtension>
            <ns3:hr>122</ns3:hr>
            <ns3:cad>0</ns3:cad>
          </ns3:TrackPointExtension>
        </extensions>
      </trkpt>
      <trkpt lat="37.77712703682482242584228515625" lon="-107.6972977258265018463134765625">
        <ele>3979.800048828125</ele>
        <time>2023-07-29T15:37:57.000Z</time>
        <extensions>
          <ns3:TrackPointExtension>
            <ns3:hr>122</ns3:hr>
            <ns3:cad>0</ns3:cad>
          </ns3:TrackPointExtension>
        </extensions>
      </trkpt>
      <trkpt lat="37.77713323943316936492919921875" lon="-107.6973097957670688629150390625">
        <ele>3979.800048828125</ele>
        <time>2023-07-29T15:37:58.000Z</time>
        <extensions>
          <ns3:TrackPointExtension>
            <ns3:hr>122</ns3:hr>
            <ns3:cad>0</ns3:cad>
          </ns3:TrackPointExtension>
        </extensions>
      </trkpt>
      <trkpt lat="37.777136676013469696044921875" lon="-107.697320021688938140869140625">
        <ele>3979.800048828125</ele>
        <time>2023-07-29T15:37:59.000Z</time>
        <extensions>
          <ns3:TrackPointExtension>
            <ns3:hr>122</ns3:hr>
            <ns3:cad>0</ns3:cad>
          </ns3:TrackPointExtension>
        </extensions>
      </trkpt>
      <trkpt lat="37.77714095078408718109130859375" lon="-107.6973272301256656646728515625">
        <ele>3979.800048828125</ele>
        <time>2023-07-29T15:38:00.000Z</time>
        <extensions>
          <ns3:TrackPointExtension>
            <ns3:hr>122</ns3:hr>
            <ns3:cad>67</ns3:cad>
          </ns3:TrackPointExtension>
        </extensions>
      </trkpt>
      <trkpt lat="37.77714346535503864288330078125" lon="-107.69733971916139125823974609375">
        <ele>3979.800048828125</ele>
        <time>2023-07-29T15:38:01.000Z</time>
        <extensions>
          <ns3:TrackPointExtension>
            <ns3:hr>122</ns3:hr>
            <ns3:cad>67</ns3:cad>
          </ns3:TrackPointExtension>
        </extensions>
      </trkpt>
      <trkpt lat="37.777146734297275543212890625" lon="-107.6973403058946132659912109375">
        <ele>3979.800048828125</ele>
        <time>2023-07-29T15:38:02.000Z</time>
        <extensions>
          <ns3:TrackPointExtension>
            <ns3:hr>122</ns3:hr>
            <ns3:cad>67</ns3:cad>
          </ns3:TrackPointExtension>
        </extensions>
      </trkpt>
      <trkpt lat="37.77714799158275127410888671875" lon="-107.697346508502960205078125">
        <ele>3979.800048828125</ele>
        <time>2023-07-29T15:38:03.000Z</time>
        <extensions>
          <ns3:TrackPointExtension>
            <ns3:hr>123</ns3:hr>
            <ns3:cad>67</ns3:cad>
          </ns3:TrackPointExtension>
        </extensions>
      </trkpt>
      <trkpt lat="37.77714950032532215118408203125" lon="-107.69735882990062236785888671875">
        <ele>3980</ele>
        <time>2023-07-29T15:38:04.000Z</time>
        <extensions>
          <ns3:TrackPointExtension>
            <ns3:hr>123</ns3:hr>
            <ns3:cad>67</ns3:cad>
          </ns3:TrackPointExtension>
        </extensions>
      </trkpt>
      <trkpt lat="37.77715184725821018218994140625" lon="-107.69737391732633113861083984375">
        <ele>3980</ele>
        <time>2023-07-29T15:38:05.000Z</time>
        <extensions>
          <ns3:TrackPointExtension>
            <ns3:hr>123</ns3:hr>
            <ns3:cad>0</ns3:cad>
          </ns3:TrackPointExtension>
        </extensions>
      </trkpt>
      <trkpt lat="37.7771536074578762054443359375" lon="-107.69738137722015380859375">
        <ele>3980</ele>
        <time>2023-07-29T15:38:06.000Z</time>
        <extensions>
          <ns3:TrackPointExtension>
            <ns3:hr>123</ns3:hr>
            <ns3:cad>0</ns3:cad>
          </ns3:TrackPointExtension>
        </extensions>
      </trkpt>
      <trkpt lat="37.777154110372066497802734375" lon="-107.697380371391773223876953125">
        <ele>3980</ele>
        <time>2023-07-29T15:38:07.000Z</time>
        <extensions>
          <ns3:TrackPointExtension>
            <ns3:hr>123</ns3:hr>
            <ns3:cad>0</ns3:cad>
          </ns3:TrackPointExtension>
        </extensions>
      </trkpt>
      <trkpt lat="37.77715570293366909027099609375" lon="-107.697389088571071624755859375">
        <ele>3980.199951171875</ele>
        <time>2023-07-29T15:38:08.000Z</time>
        <extensions>
          <ns3:TrackPointExtension>
            <ns3:hr>122</ns3:hr>
            <ns3:cad>0</ns3:cad>
          </ns3:TrackPointExtension>
        </extensions>
      </trkpt>
      <trkpt lat="37.7771576307713985443115234375" lon="-107.69739805720746517181396484375">
        <ele>3980.199951171875</ele>
        <time>2023-07-29T15:38:09.000Z</time>
        <extensions>
          <ns3:TrackPointExtension>
            <ns3:hr>122</ns3:hr>
            <ns3:cad>0</ns3:cad>
          </ns3:TrackPointExtension>
        </extensions>
      </trkpt>
      <trkpt lat="37.77716022916138172149658203125" lon="-107.69741113297641277313232421875">
        <ele>3980.199951171875</ele>
        <time>2023-07-29T15:38:10.000Z</time>
        <extensions>
          <ns3:TrackPointExtension>
            <ns3:hr>121</ns3:hr>
            <ns3:cad>0</ns3:cad>
          </ns3:TrackPointExtension>
        </extensions>
      </trkpt>
      <trkpt lat="37.77716123498976230621337890625" lon="-107.69742001779377460479736328125">
        <ele>3980.199951171875</ele>
        <time>2023-07-29T15:38:11.000Z</time>
        <extensions>
          <ns3:TrackPointExtension>
            <ns3:hr>120</ns3:hr>
            <ns3:cad>0</ns3:cad>
          </ns3:TrackPointExtension>
        </extensions>
      </trkpt>
      <trkpt lat="37.77716291137039661407470703125" lon="-107.69742907024919986724853515625">
        <ele>3980.39990234375</ele>
        <time>2023-07-29T15:38:12.000Z</time>
        <extensions>
          <ns3:TrackPointExtension>
            <ns3:hr>120</ns3:hr>
            <ns3:cad>0</ns3:cad>
          </ns3:TrackPointExtension>
        </extensions>
      </trkpt>
      <trkpt lat="37.77716592885553836822509765625" lon="-107.69744507968425750732421875">
        <ele>3980.39990234375</ele>
        <time>2023-07-29T15:38:13.000Z</time>
        <extensions>
          <ns3:TrackPointExtension>
            <ns3:hr>120</ns3:hr>
            <ns3:cad>0</ns3:cad>
          </ns3:TrackPointExtension>
        </extensions>
      </trkpt>
      <trkpt lat="37.77716986835002899169921875" lon="-107.69745170138776302337646484375">
        <ele>3980.39990234375</ele>
        <time>2023-07-29T15:38:14.000Z</time>
        <extensions>
          <ns3:TrackPointExtension>
            <ns3:hr>120</ns3:hr>
            <ns3:cad>0</ns3:cad>
          </ns3:TrackPointExtension>
        </extensions>
      </trkpt>
      <trkpt lat="37.7771757356822490692138671875" lon="-107.697460167109966278076171875">
        <ele>3980.39990234375</ele>
        <time>2023-07-29T15:38:15.000Z</time>
        <extensions>
          <ns3:TrackPointExtension>
            <ns3:hr>120</ns3:hr>
            <ns3:cad>0</ns3:cad>
          </ns3:TrackPointExtension>
        </extensions>
      </trkpt>
      <trkpt lat="37.7771834470331668853759765625" lon="-107.69747148267924785614013671875">
        <ele>3980.39990234375</ele>
        <time>2023-07-29T15:38:16.000Z</time>
        <extensions>
          <ns3:TrackPointExtension>
            <ns3:hr>120</ns3:hr>
            <ns3:cad>0</ns3:cad>
          </ns3:TrackPointExtension>
        </extensions>
      </trkpt>
      <trkpt lat="37.77718587778508663177490234375" lon="-107.697472237050533294677734375">
        <ele>3980.39990234375</ele>
        <time>2023-07-29T15:38:17.000Z</time>
        <extensions>
          <ns3:TrackPointExtension>
            <ns3:hr>120</ns3:hr>
            <ns3:cad>0</ns3:cad>
          </ns3:TrackPointExtension>
        </extensions>
      </trkpt>
      <trkpt lat="37.77719157747924327850341796875" lon="-107.69747785292565822601318359375">
        <ele>3980.39990234375</ele>
        <time>2023-07-29T15:38:18.000Z</time>
        <extensions>
          <ns3:TrackPointExtension>
            <ns3:hr>120</ns3:hr>
            <ns3:cad>0</ns3:cad>
          </ns3:TrackPointExtension>
        </extensions>
      </trkpt>
      <trkpt lat="37.777197696268558502197265625" lon="-107.69748724065721035003662109375">
        <ele>3980.60009765625</ele>
        <time>2023-07-29T15:38:19.000Z</time>
        <extensions>
          <ns3:TrackPointExtension>
            <ns3:hr>119</ns3:hr>
            <ns3:cad>0</ns3:cad>
          </ns3:TrackPointExtension>
        </extensions>
      </trkpt>
      <trkpt lat="37.77720314450562000274658203125" lon="-107.69749511964619159698486328125">
        <ele>3980.800048828125</ele>
        <time>2023-07-29T15:38:20.000Z</time>
        <extensions>
          <ns3:TrackPointExtension>
            <ns3:hr>119</ns3:hr>
            <ns3:cad>0</ns3:cad>
          </ns3:TrackPointExtension>
        </extensions>
      </trkpt>
      <trkpt lat="37.7772102691233158111572265625" lon="-107.6975034177303314208984375">
        <ele>3981</ele>
        <time>2023-07-29T15:38:21.000Z</time>
        <extensions>
          <ns3:TrackPointExtension>
            <ns3:hr>119</ns3:hr>
            <ns3:cad>0</ns3:cad>
          </ns3:TrackPointExtension>
        </extensions>
      </trkpt>
      <trkpt lat="37.77721269987523555755615234375" lon="-107.69750769250094890594482421875">
        <ele>3981</ele>
        <time>2023-07-29T15:38:22.000Z</time>
        <extensions>
          <ns3:TrackPointExtension>
            <ns3:hr>119</ns3:hr>
            <ns3:cad>0</ns3:cad>
          </ns3:TrackPointExtension>
        </extensions>
      </trkpt>
      <trkpt lat="37.7772174775600433349609375" lon="-107.6975109614431858062744140625">
        <ele>3981.199951171875</ele>
        <time>2023-07-29T15:38:23.000Z</time>
        <extensions>
          <ns3:TrackPointExtension>
            <ns3:hr>119</ns3:hr>
            <ns3:cad>0</ns3:cad>
          </ns3:TrackPointExtension>
        </extensions>
      </trkpt>
      <trkpt lat="37.77722418308258056640625" lon="-107.69751640968024730682373046875">
        <ele>3981.39990234375</ele>
        <time>2023-07-29T15:38:24.000Z</time>
        <extensions>
          <ns3:TrackPointExtension>
            <ns3:hr>119</ns3:hr>
            <ns3:cad>0</ns3:cad>
          </ns3:TrackPointExtension>
        </extensions>
      </trkpt>
      <trkpt lat="37.7772310562431812286376953125" lon="-107.69752060063183307647705078125">
        <ele>3981.39990234375</ele>
        <time>2023-07-29T15:38:25.000Z</time>
        <extensions>
          <ns3:TrackPointExtension>
            <ns3:hr>119</ns3:hr>
            <ns3:cad>0</ns3:cad>
          </ns3:TrackPointExtension>
        </extensions>
      </trkpt>
      <trkpt lat="37.7772384323179721832275390625" lon="-107.6975248754024505615234375">
        <ele>3981.800048828125</ele>
        <time>2023-07-29T15:38:26.000Z</time>
        <extensions>
          <ns3:TrackPointExtension>
            <ns3:hr>119</ns3:hr>
            <ns3:cad>0</ns3:cad>
          </ns3:TrackPointExtension>
        </extensions>
      </trkpt>
      <trkpt lat="37.77724321000277996063232421875" lon="-107.69752898253500461578369140625">
        <ele>3982</ele>
        <time>2023-07-29T15:38:27.000Z</time>
        <extensions>
          <ns3:TrackPointExtension>
            <ns3:hr>119</ns3:hr>
            <ns3:cad>0</ns3:cad>
          </ns3:TrackPointExtension>
        </extensions>
      </trkpt>
      <trkpt lat="37.777248658239841461181640625" lon="-107.6975307427346706390380859375">
        <ele>3982.199951171875</ele>
        <time>2023-07-29T15:38:28.000Z</time>
        <extensions>
          <ns3:TrackPointExtension>
            <ns3:hr>119</ns3:hr>
            <ns3:cad>0</ns3:cad>
          </ns3:TrackPointExtension>
        </extensions>
      </trkpt>
      <trkpt lat="37.7772562019526958465576171875" lon="-107.6975329220294952392578125">
        <ele>3982.39990234375</ele>
        <time>2023-07-29T15:38:29.000Z</time>
        <extensions>
          <ns3:TrackPointExtension>
            <ns3:hr>119</ns3:hr>
            <ns3:cad>0</ns3:cad>
          </ns3:TrackPointExtension>
        </extensions>
      </trkpt>
      <trkpt lat="37.77726248838007450103759765625" lon="-107.69753484986722469329833984375">
        <ele>3982.60009765625</ele>
        <time>2023-07-29T15:38:30.000Z</time>
        <extensions>
          <ns3:TrackPointExtension>
            <ns3:hr>119</ns3:hr>
            <ns3:cad>0</ns3:cad>
          </ns3:TrackPointExtension>
        </extensions>
      </trkpt>
      <trkpt lat="37.777268104255199432373046875" lon="-107.69753317348659038543701171875">
        <ele>3982.800048828125</ele>
        <time>2023-07-29T15:38:31.000Z</time>
        <extensions>
          <ns3:TrackPointExtension>
            <ns3:hr>119</ns3:hr>
            <ns3:cad>0</ns3:cad>
          </ns3:TrackPointExtension>
        </extensions>
      </trkpt>
      <trkpt lat="37.77726617641746997833251953125" lon="-107.6975340954959392547607421875">
        <ele>3983</ele>
        <time>2023-07-29T15:38:32.000Z</time>
        <extensions>
          <ns3:TrackPointExtension>
            <ns3:hr>119</ns3:hr>
            <ns3:cad>0</ns3:cad>
          </ns3:TrackPointExtension>
        </extensions>
      </trkpt>
      <trkpt lat="37.77726734988391399383544921875" lon="-107.69753401167690753936767578125">
        <ele>3983</ele>
        <time>2023-07-29T15:38:33.000Z</time>
        <extensions>
          <ns3:TrackPointExtension>
            <ns3:hr>119</ns3:hr>
            <ns3:cad>0</ns3:cad>
          </ns3:TrackPointExtension>
        </extensions>
      </trkpt>
      <trkpt lat="37.77726785279810428619384765625" lon="-107.69753493368625640869140625">
        <ele>3983.39990234375</ele>
        <time>2023-07-29T15:38:34.000Z</time>
        <extensions>
          <ns3:TrackPointExtension>
            <ns3:hr>119</ns3:hr>
            <ns3:cad>0</ns3:cad>
          </ns3:TrackPointExtension>
        </extensions>
      </trkpt>
      <trkpt lat="37.7772796712815761566162109375" lon="-107.69753535278141498565673828125">
        <ele>3983.60009765625</ele>
        <time>2023-07-29T15:38:35.000Z</time>
        <extensions>
          <ns3:TrackPointExtension>
            <ns3:hr>119</ns3:hr>
            <ns3:cad>0</ns3:cad>
          </ns3:TrackPointExtension>
        </extensions>
      </trkpt>
      <trkpt lat="37.77728260494768619537353515625" lon="-107.69753753207623958587646484375">
        <ele>3983.60009765625</ele>
        <time>2023-07-29T15:38:36.000Z</time>
        <extensions>
          <ns3:TrackPointExtension>
            <ns3:hr>119</ns3:hr>
            <ns3:cad>0</ns3:cad>
          </ns3:TrackPointExtension>
        </extensions>
      </trkpt>
      <trkpt lat="37.77728612534701824188232421875" lon="-107.69754356704652309417724609375">
        <ele>3983.800048828125</ele>
        <time>2023-07-29T15:38:37.000Z</time>
        <extensions>
          <ns3:TrackPointExtension>
            <ns3:hr>119</ns3:hr>
            <ns3:cad>0</ns3:cad>
          </ns3:TrackPointExtension>
        </extensions>
      </trkpt>
      <trkpt lat="37.7772950939834117889404296875" lon="-107.6975476741790771484375">
        <ele>3984</ele>
        <time>2023-07-29T15:38:38.000Z</time>
        <extensions>
          <ns3:TrackPointExtension>
            <ns3:hr>119</ns3:hr>
            <ns3:cad>0</ns3:cad>
          </ns3:TrackPointExtension>
        </extensions>
      </trkpt>
      <trkpt lat="37.7772981114685535430908203125" lon="-107.6975511945784091949462890625">
        <ele>3984.199951171875</ele>
        <time>2023-07-29T15:38:39.000Z</time>
        <extensions>
          <ns3:TrackPointExtension>
            <ns3:hr>120</ns3:hr>
            <ns3:cad>0</ns3:cad>
          </ns3:TrackPointExtension>
        </extensions>
      </trkpt>
      <trkpt lat="37.77730531990528106689453125" lon="-107.69755563698709011077880859375">
        <ele>3984.39990234375</ele>
        <time>2023-07-29T15:38:40.000Z</time>
        <extensions>
          <ns3:TrackPointExtension>
            <ns3:hr>120</ns3:hr>
            <ns3:cad>0</ns3:cad>
          </ns3:TrackPointExtension>
        </extensions>
      </trkpt>
      <trkpt lat="37.7773128636181354522705078125" lon="-107.69755831919610500335693359375">
        <ele>3984.60009765625</ele>
        <time>2023-07-29T15:38:41.000Z</time>
        <extensions>
          <ns3:TrackPointExtension>
            <ns3:hr>121</ns3:hr>
            <ns3:cad>0</ns3:cad>
          </ns3:TrackPointExtension>
        </extensions>
      </trkpt>
      <trkpt lat="37.777318060398101806640625" lon="-107.69755966030061244964599609375">
        <ele>3985</ele>
        <time>2023-07-29T15:38:42.000Z</time>
        <extensions>
          <ns3:TrackPointExtension>
            <ns3:hr>122</ns3:hr>
            <ns3:cad>0</ns3:cad>
          </ns3:TrackPointExtension>
        </extensions>
      </trkpt>
      <trkpt lat="37.77731847949326038360595703125" lon="-107.69755764864385128021240234375">
        <ele>3985</ele>
        <time>2023-07-29T15:38:43.000Z</time>
        <extensions>
          <ns3:TrackPointExtension>
            <ns3:hr>122</ns3:hr>
            <ns3:cad>0</ns3:cad>
          </ns3:TrackPointExtension>
        </extensions>
      </trkpt>
      <trkpt lat="37.77732552029192447662353515625" lon="-107.69755781628191471099853515625">
        <ele>3985.199951171875</ele>
        <time>2023-07-29T15:38:44.000Z</time>
        <extensions>
          <ns3:TrackPointExtension>
            <ns3:hr>123</ns3:hr>
            <ns3:cad>0</ns3:cad>
          </ns3:TrackPointExtension>
        </extensions>
      </trkpt>
      <trkpt lat="37.77732183225452899932861328125" lon="-107.6975548826158046722412109375">
        <ele>3985.60009765625</ele>
        <time>2023-07-29T15:38:45.000Z</time>
        <extensions>
          <ns3:TrackPointExtension>
            <ns3:hr>123</ns3:hr>
            <ns3:cad>0</ns3:cad>
          </ns3:TrackPointExtension>
        </extensions>
      </trkpt>
      <trkpt lat="37.77732501737773418426513671875" lon="-107.6975535415112972259521484375">
        <ele>3985.800048828125</ele>
        <time>2023-07-29T15:38:46.000Z</time>
        <extensions>
          <ns3:TrackPointExtension>
            <ns3:hr>124</ns3:hr>
            <ns3:cad>0</ns3:cad>
          </ns3:TrackPointExtension>
        </extensions>
      </trkpt>
      <trkpt lat="37.77732811868190765380859375" lon="-107.69755412824451923370361328125">
        <ele>3986</ele>
        <time>2023-07-29T15:38:47.000Z</time>
        <extensions>
          <ns3:TrackPointExtension>
            <ns3:hr>124</ns3:hr>
            <ns3:cad>0</ns3:cad>
          </ns3:TrackPointExtension>
        </extensions>
      </trkpt>
      <trkpt lat="37.77733088470995426177978515625" lon="-107.697552703320980072021484375">
        <ele>3986.199951171875</ele>
        <time>2023-07-29T15:38:48.000Z</time>
        <extensions>
          <ns3:TrackPointExtension>
            <ns3:hr>125</ns3:hr>
            <ns3:cad>0</ns3:cad>
          </ns3:TrackPointExtension>
        </extensions>
      </trkpt>
      <trkpt lat="37.7773381769657135009765625" lon="-107.69755261950194835662841796875">
        <ele>3986.39990234375</ele>
        <time>2023-07-29T15:38:49.000Z</time>
        <extensions>
          <ns3:TrackPointExtension>
            <ns3:hr>125</ns3:hr>
            <ns3:cad>0</ns3:cad>
          </ns3:TrackPointExtension>
        </extensions>
      </trkpt>
      <trkpt lat="37.777345888316631317138671875" lon="-107.69755370914936065673828125">
        <ele>3986.60009765625</ele>
        <time>2023-07-29T15:38:50.000Z</time>
        <extensions>
          <ns3:TrackPointExtension>
            <ns3:hr>126</ns3:hr>
            <ns3:cad>0</ns3:cad>
          </ns3:TrackPointExtension>
        </extensions>
      </trkpt>
      <trkpt lat="37.7773520909249782562255859375" lon="-107.6975532062351703643798828125">
        <ele>3986.800048828125</ele>
        <time>2023-07-29T15:38:51.000Z</time>
        <extensions>
          <ns3:TrackPointExtension>
            <ns3:hr>127</ns3:hr>
            <ns3:cad>0</ns3:cad>
          </ns3:TrackPointExtension>
        </extensions>
      </trkpt>
      <trkpt lat="37.7773601375520229339599609375" lon="-107.697553373873233795166015625">
        <ele>3986.800048828125</ele>
        <time>2023-07-29T15:38:52.000Z</time>
        <extensions>
          <ns3:TrackPointExtension>
            <ns3:hr>127</ns3:hr>
            <ns3:cad>0</ns3:cad>
          </ns3:TrackPointExtension>
        </extensions>
      </trkpt>
      <trkpt lat="37.777366004884243011474609375" lon="-107.69755479879677295684814453125">
        <ele>3987.199951171875</ele>
        <time>2023-07-29T15:38:53.000Z</time>
        <extensions>
          <ns3:TrackPointExtension>
            <ns3:hr>128</ns3:hr>
            <ns3:cad>0</ns3:cad>
          </ns3:TrackPointExtension>
        </extensions>
      </trkpt>
      <trkpt lat="37.77736424468457698822021484375" lon="-107.69755731336772441864013671875">
        <ele>3987.199951171875</ele>
        <time>2023-07-29T15:38:54.000Z</time>
        <extensions>
          <ns3:TrackPointExtension>
            <ns3:hr>128</ns3:hr>
            <ns3:cad>0</ns3:cad>
          </ns3:TrackPointExtension>
        </extensions>
      </trkpt>
      <trkpt lat="37.77738067321479320526123046875" lon="-107.69755949266254901885986328125">
        <ele>3987.39990234375</ele>
        <time>2023-07-29T15:38:55.000Z</time>
        <extensions>
          <ns3:TrackPointExtension>
            <ns3:hr>129</ns3:hr>
            <ns3:cad>0</ns3:cad>
          </ns3:TrackPointExtension>
        </extensions>
      </trkpt>
      <trkpt lat="37.77738989330828189849853515625" lon="-107.69756452180445194244384765625">
        <ele>3987.60009765625</ele>
        <time>2023-07-29T15:38:56.000Z</time>
        <extensions>
          <ns3:TrackPointExtension>
            <ns3:hr>129</ns3:hr>
            <ns3:cad>0</ns3:cad>
          </ns3:TrackPointExtension>
        </extensions>
      </trkpt>
      <trkpt lat="37.77740456163883209228515625" lon="-107.69756938330829143524169921875">
        <ele>3987.800048828125</ele>
        <time>2023-07-29T15:38:57.000Z</time>
        <extensions>
          <ns3:TrackPointExtension>
            <ns3:hr>129</ns3:hr>
            <ns3:cad>56</ns3:cad>
          </ns3:TrackPointExtension>
        </extensions>
      </trkpt>
      <trkpt lat="37.77741269208490848541259765625" lon="-107.69757650792598724365234375">
        <ele>3988</ele>
        <time>2023-07-29T15:38:58.000Z</time>
        <extensions>
          <ns3:TrackPointExtension>
            <ns3:hr>130</ns3:hr>
            <ns3:cad>56</ns3:cad>
          </ns3:TrackPointExtension>
        </extensions>
      </trkpt>
      <trkpt lat="37.77742207981646060943603515625" lon="-107.6975857280194759368896484375">
        <ele>3988</ele>
        <time>2023-07-29T15:38:59.000Z</time>
        <extensions>
          <ns3:TrackPointExtension>
            <ns3:hr>130</ns3:hr>
            <ns3:cad>0</ns3:cad>
          </ns3:TrackPointExtension>
        </extensions>
      </trkpt>
      <trkpt lat="37.7774312160909175872802734375" lon="-107.69759419374167919158935546875">
        <ele>3988.39990234375</ele>
        <time>2023-07-29T15:39:00.000Z</time>
        <extensions>
          <ns3:TrackPointExtension>
            <ns3:hr>130</ns3:hr>
            <ns3:cad>0</ns3:cad>
          </ns3:TrackPointExtension>
        </extensions>
      </trkpt>
      <trkpt lat="37.77743800543248653411865234375" lon="-107.69760391674935817718505859375">
        <ele>3988.60009765625</ele>
        <time>2023-07-29T15:39:01.000Z</time>
        <extensions>
          <ns3:TrackPointExtension>
            <ns3:hr>130</ns3:hr>
            <ns3:cad>0</ns3:cad>
          </ns3:TrackPointExtension>
        </extensions>
      </trkpt>
      <trkpt lat="37.777445130050182342529296875" lon="-107.69761137664318084716796875">
        <ele>3988.60009765625</ele>
        <time>2023-07-29T15:39:02.000Z</time>
        <extensions>
          <ns3:TrackPointExtension>
            <ns3:hr>130</ns3:hr>
            <ns3:cad>0</ns3:cad>
          </ns3:TrackPointExtension>
        </extensions>
      </trkpt>
      <trkpt lat="37.777445130050182342529296875" lon="-107.69761866889894008636474609375">
        <ele>3988.800048828125</ele>
        <time>2023-07-29T15:39:03.000Z</time>
        <extensions>
          <ns3:TrackPointExtension>
            <ns3:hr>130</ns3:hr>
            <ns3:cad>0</ns3:cad>
          </ns3:TrackPointExtension>
        </extensions>
      </trkpt>
      <trkpt lat="37.7774459682404994964599609375" lon="-107.697624452412128448486328125">
        <ele>3989</ele>
        <time>2023-07-29T15:39:04.000Z</time>
        <extensions>
          <ns3:TrackPointExtension>
            <ns3:hr>130</ns3:hr>
            <ns3:cad>0</ns3:cad>
          </ns3:TrackPointExtension>
        </extensions>
      </trkpt>
      <trkpt lat="37.7774489857256412506103515625" lon="-107.69763140939176082611083984375">
        <ele>3989.199951171875</ele>
        <time>2023-07-29T15:39:05.000Z</time>
        <extensions>
          <ns3:TrackPointExtension>
            <ns3:hr>130</ns3:hr>
            <ns3:cad>0</ns3:cad>
          </ns3:TrackPointExtension>
        </extensions>
      </trkpt>
      <trkpt lat="37.77745552361011505126953125" lon="-107.69764649681746959686279296875">
        <ele>3989.39990234375</ele>
        <time>2023-07-29T15:39:06.000Z</time>
        <extensions>
          <ns3:TrackPointExtension>
            <ns3:hr>131</ns3:hr>
            <ns3:cad>0</ns3:cad>
          </ns3:TrackPointExtension>
        </extensions>
      </trkpt>
      <trkpt lat="37.77745761908590793609619140625" lon="-107.69765269942581653594970703125">
        <ele>3989.39990234375</ele>
        <time>2023-07-29T15:39:07.000Z</time>
        <extensions>
          <ns3:TrackPointExtension>
            <ns3:hr>131</ns3:hr>
            <ns3:cad>0</ns3:cad>
          </ns3:TrackPointExtension>
        </extensions>
      </trkpt>
      <trkpt lat="37.7774577029049396514892578125" lon="-107.69765722565352916717529296875">
        <ele>3989.60009765625</ele>
        <time>2023-07-29T15:39:08.000Z</time>
        <extensions>
          <ns3:TrackPointExtension>
            <ns3:hr>131</ns3:hr>
            <ns3:cad>0</ns3:cad>
          </ns3:TrackPointExtension>
        </extensions>
      </trkpt>
      <trkpt lat="37.77745979838073253631591796875" lon="-107.69766812212765216827392578125">
        <ele>3989.800048828125</ele>
        <time>2023-07-29T15:39:09.000Z</time>
        <extensions>
          <ns3:TrackPointExtension>
            <ns3:hr>131</ns3:hr>
            <ns3:cad>0</ns3:cad>
          </ns3:TrackPointExtension>
        </extensions>
      </trkpt>
      <trkpt lat="37.77746491134166717529296875" lon="-107.697684131562709808349609375">
        <ele>3989.800048828125</ele>
        <time>2023-07-29T15:39:10.000Z</time>
        <extensions>
          <ns3:TrackPointExtension>
            <ns3:hr>131</ns3:hr>
            <ns3:cad>0</ns3:cad>
          </ns3:TrackPointExtension>
        </extensions>
      </trkpt>
      <trkpt lat="37.7774684317409992218017578125" lon="-107.69769293256103992462158203125">
        <ele>3989.800048828125</ele>
        <time>2023-07-29T15:39:11.000Z</time>
        <extensions>
          <ns3:TrackPointExtension>
            <ns3:hr>131</ns3:hr>
            <ns3:cad>0</ns3:cad>
          </ns3:TrackPointExtension>
        </extensions>
      </trkpt>
      <trkpt lat="37.77747052721679210662841796875" lon="-107.69770500250160694122314453125">
        <ele>3990</ele>
        <time>2023-07-29T15:39:12.000Z</time>
        <extensions>
          <ns3:TrackPointExtension>
            <ns3:hr>131</ns3:hr>
            <ns3:cad>0</ns3:cad>
          </ns3:TrackPointExtension>
        </extensions>
      </trkpt>
      <trkpt lat="37.77747337706387042999267578125" lon="-107.6977195031940937042236328125">
        <ele>3990.199951171875</ele>
        <time>2023-07-29T15:39:13.000Z</time>
        <extensions>
          <ns3:TrackPointExtension>
            <ns3:hr>131</ns3:hr>
            <ns3:cad>0</ns3:cad>
          </ns3:TrackPointExtension>
        </extensions>
      </trkpt>
      <trkpt lat="37.77746985666453838348388671875" lon="-107.6977305673062801361083984375">
        <ele>3990.39990234375</ele>
        <time>2023-07-29T15:39:14.000Z</time>
        <extensions>
          <ns3:TrackPointExtension>
            <ns3:hr>131</ns3:hr>
            <ns3:cad>0</ns3:cad>
          </ns3:TrackPointExtension>
        </extensions>
      </trkpt>
      <trkpt lat="37.777469269931316375732421875" lon="-107.69774137996137142181396484375">
        <ele>3990.39990234375</ele>
        <time>2023-07-29T15:39:15.000Z</time>
        <extensions>
          <ns3:TrackPointExtension>
            <ns3:hr>131</ns3:hr>
            <ns3:cad>0</ns3:cad>
          </ns3:TrackPointExtension>
        </extensions>
      </trkpt>
      <trkpt lat="37.77746935375034809112548828125" lon="-107.69774590618908405303955078125">
        <ele>3990.39990234375</ele>
        <time>2023-07-29T15:39:16.000Z</time>
        <extensions>
          <ns3:TrackPointExtension>
            <ns3:hr>131</ns3:hr>
            <ns3:cad>0</ns3:cad>
          </ns3:TrackPointExtension>
        </extensions>
      </trkpt>
      <trkpt lat="37.777465917170047760009765625" lon="-107.6977543719112873077392578125">
        <ele>3990.60009765625</ele>
        <time>2023-07-29T15:39:17.000Z</time>
        <extensions>
          <ns3:TrackPointExtension>
            <ns3:hr>131</ns3:hr>
            <ns3:cad>0</ns3:cad>
          </ns3:TrackPointExtension>
        </extensions>
      </trkpt>
      <trkpt lat="37.77746533043682575225830078125" lon="-107.69776501692831516265869140625">
        <ele>3990.60009765625</ele>
        <time>2023-07-29T15:39:18.000Z</time>
        <extensions>
          <ns3:TrackPointExtension>
            <ns3:hr>131</ns3:hr>
            <ns3:cad>0</ns3:cad>
          </ns3:TrackPointExtension>
        </extensions>
      </trkpt>
      <trkpt lat="37.77746491134166717529296875" lon="-107.69777641631662845611572265625">
        <ele>3990.60009765625</ele>
        <time>2023-07-29T15:39:19.000Z</time>
        <extensions>
          <ns3:TrackPointExtension>
            <ns3:hr>131</ns3:hr>
            <ns3:cad>0</ns3:cad>
          </ns3:TrackPointExtension>
        </extensions>
      </trkpt>
      <trkpt lat="37.77746516279876232147216796875" lon="-107.69778412766754627227783203125">
        <ele>3990.60009765625</ele>
        <time>2023-07-29T15:39:20.000Z</time>
        <extensions>
          <ns3:TrackPointExtension>
            <ns3:hr>131</ns3:hr>
            <ns3:cad>0</ns3:cad>
          </ns3:TrackPointExtension>
        </extensions>
      </trkpt>
      <trkpt lat="37.7774680964648723602294921875" lon="-107.69780038855969905853271484375">
        <ele>3990.60009765625</ele>
        <time>2023-07-29T15:39:21.000Z</time>
        <extensions>
          <ns3:TrackPointExtension>
            <ns3:hr>131</ns3:hr>
            <ns3:cad>0</ns3:cad>
          </ns3:TrackPointExtension>
        </extensions>
      </trkpt>
      <trkpt lat="37.77746734209358692169189453125" lon="-107.69780449569225311279296875">
        <ele>3990.800048828125</ele>
        <time>2023-07-29T15:39:22.000Z</time>
        <extensions>
          <ns3:TrackPointExtension>
            <ns3:hr>131</ns3:hr>
            <ns3:cad>0</ns3:cad>
          </ns3:TrackPointExtension>
        </extensions>
      </trkpt>
      <trkpt lat="37.7774687670171260833740234375" lon="-107.6978118717670440673828125">
        <ele>3990.800048828125</ele>
        <time>2023-07-29T15:39:23.000Z</time>
        <extensions>
          <ns3:TrackPointExtension>
            <ns3:hr>130</ns3:hr>
            <ns3:cad>0</ns3:cad>
          </ns3:TrackPointExtension>
        </extensions>
      </trkpt>
      <trkpt lat="37.777470611035823822021484375" lon="-107.697828970849514007568359375">
        <ele>3991.199951171875</ele>
        <time>2023-07-29T15:39:24.000Z</time>
        <extensions>
          <ns3:TrackPointExtension>
            <ns3:hr>131</ns3:hr>
            <ns3:cad>0</ns3:cad>
          </ns3:TrackPointExtension>
        </extensions>
      </trkpt>
      <trkpt lat="37.7774701081216335296630859375" lon="-107.69783726893365383148193359375">
        <ele>3991.60009765625</ele>
        <time>2023-07-29T15:39:25.000Z</time>
        <extensions>
          <ns3:TrackPointExtension>
            <ns3:hr>131</ns3:hr>
            <ns3:cad>0</ns3:cad>
          </ns3:TrackPointExtension>
        </extensions>
      </trkpt>
      <trkpt lat="37.7774694375693798065185546875" lon="-107.69784665666520595550537109375">
        <ele>3991.60009765625</ele>
        <time>2023-07-29T15:39:26.000Z</time>
        <extensions>
          <ns3:TrackPointExtension>
            <ns3:hr>131</ns3:hr>
            <ns3:cad>0</ns3:cad>
          </ns3:TrackPointExtension>
        </extensions>
      </trkpt>
      <trkpt lat="37.7774711139500141143798828125" lon="-107.69786174409091472625732421875">
        <ele>3991.60009765625</ele>
        <time>2023-07-29T15:39:27.000Z</time>
        <extensions>
          <ns3:TrackPointExtension>
            <ns3:hr>131</ns3:hr>
            <ns3:cad>0</ns3:cad>
          </ns3:TrackPointExtension>
        </extensions>
      </trkpt>
      <trkpt lat="37.77747153304517269134521484375" lon="-107.697868533432483673095703125">
        <ele>3991.60009765625</ele>
        <time>2023-07-29T15:39:28.000Z</time>
        <extensions>
          <ns3:TrackPointExtension>
            <ns3:hr>131</ns3:hr>
            <ns3:cad>0</ns3:cad>
          </ns3:TrackPointExtension>
        </extensions>
      </trkpt>
      <trkpt lat="37.77747387997806072235107421875" lon="-107.6978816092014312744140625">
        <ele>3991.60009765625</ele>
        <time>2023-07-29T15:39:29.000Z</time>
        <extensions>
          <ns3:TrackPointExtension>
            <ns3:hr>131</ns3:hr>
            <ns3:cad>51</ns3:cad>
          </ns3:TrackPointExtension>
        </extensions>
      </trkpt>
      <trkpt lat="37.777473628520965576171875" lon="-107.697879932820796966552734375">
        <ele>3991.800048828125</ele>
        <time>2023-07-29T15:39:30.000Z</time>
        <extensions>
          <ns3:TrackPointExtension>
            <ns3:hr>131</ns3:hr>
            <ns3:cad>51</ns3:cad>
          </ns3:TrackPointExtension>
        </extensions>
      </trkpt>
      <trkpt lat="37.77747387997806072235107421875" lon="-107.6978790946304798126220703125">
        <ele>3991.800048828125</ele>
        <time>2023-07-29T15:39:31.000Z</time>
        <extensions>
          <ns3:TrackPointExtension>
            <ns3:hr>131</ns3:hr>
            <ns3:cad>51</ns3:cad>
          </ns3:TrackPointExtension>
        </extensions>
      </trkpt>
      <trkpt lat="37.7774768136441707611083984375" lon="-107.69788362085819244384765625">
        <ele>3992</ele>
        <time>2023-07-29T15:39:32.000Z</time>
        <extensions>
          <ns3:TrackPointExtension>
            <ns3:hr>131</ns3:hr>
            <ns3:cad>0</ns3:cad>
          </ns3:TrackPointExtension>
        </extensions>
      </trkpt>
      <trkpt lat="37.77748125605285167694091796875" lon="-107.69789862446486949920654296875">
        <ele>3992</ele>
        <time>2023-07-29T15:39:33.000Z</time>
        <extensions>
          <ns3:TrackPointExtension>
            <ns3:hr>131</ns3:hr>
            <ns3:cad>0</ns3:cad>
          </ns3:TrackPointExtension>
        </extensions>
      </trkpt>
      <trkpt lat="37.77748511172831058502197265625" lon="-107.6979052461683750152587890625">
        <ele>3992.199951171875</ele>
        <time>2023-07-29T15:39:34.000Z</time>
        <extensions>
          <ns3:TrackPointExtension>
            <ns3:hr>131</ns3:hr>
            <ns3:cad>0</ns3:cad>
          </ns3:TrackPointExtension>
        </extensions>
      </trkpt>
      <trkpt lat="37.77748846448957920074462890625" lon="-107.69790985621511936187744140625">
        <ele>3992.39990234375</ele>
        <time>2023-07-29T15:39:35.000Z</time>
        <extensions>
          <ns3:TrackPointExtension>
            <ns3:hr>131</ns3:hr>
            <ns3:cad>0</ns3:cad>
          </ns3:TrackPointExtension>
        </extensions>
      </trkpt>
      <trkpt lat="37.77748980559408664703369140625" lon="-107.6979111135005950927734375">
        <ele>3992.39990234375</ele>
        <time>2023-07-29T15:39:36.000Z</time>
        <extensions>
          <ns3:TrackPointExtension>
            <ns3:hr>130</ns3:hr>
            <ns3:cad>0</ns3:cad>
          </ns3:TrackPointExtension>
        </extensions>
      </trkpt>
      <trkpt lat="37.77749131433665752410888671875" lon="-107.6979216746985912322998046875">
        <ele>3992.60009765625</ele>
        <time>2023-07-29T15:39:37.000Z</time>
        <extensions>
          <ns3:TrackPointExtension>
            <ns3:hr>129</ns3:hr>
            <ns3:cad>0</ns3:cad>
          </ns3:TrackPointExtension>
        </extensions>
      </trkpt>
      <trkpt lat="37.7774949185550212860107421875" lon="-107.69793231971561908721923828125">
        <ele>3992.800048828125</ele>
        <time>2023-07-29T15:39:38.000Z</time>
        <extensions>
          <ns3:TrackPointExtension>
            <ns3:hr>128</ns3:hr>
            <ns3:cad>0</ns3:cad>
          </ns3:TrackPointExtension>
        </extensions>
      </trkpt>
      <trkpt lat="37.777495421469211578369140625" lon="-107.6979357562959194183349609375">
        <ele>3993</ele>
        <time>2023-07-29T15:39:39.000Z</time>
        <extensions>
          <ns3:TrackPointExtension>
            <ns3:hr>127</ns3:hr>
            <ns3:cad>0</ns3:cad>
          </ns3:TrackPointExtension>
        </extensions>
      </trkpt>
      <trkpt lat="37.77749843895435333251953125" lon="-107.69794304855167865753173828125">
        <ele>3993</ele>
        <time>2023-07-29T15:39:40.000Z</time>
        <extensions>
          <ns3:TrackPointExtension>
            <ns3:hr>126</ns3:hr>
            <ns3:cad>0</ns3:cad>
          </ns3:TrackPointExtension>
        </extensions>
      </trkpt>
      <trkpt lat="37.77749902568757534027099609375" lon="-107.697942964732646942138671875">
        <ele>3993.199951171875</ele>
        <time>2023-07-29T15:39:41.000Z</time>
        <extensions>
          <ns3:TrackPointExtension>
            <ns3:hr>126</ns3:hr>
            <ns3:cad>0</ns3:cad>
          </ns3:TrackPointExtension>
        </extensions>
      </trkpt>
      <trkpt lat="37.77749919332563877105712890625" lon="-107.69794405438005924224853515625">
        <ele>3993.39990234375</ele>
        <time>2023-07-29T15:39:42.000Z</time>
        <extensions>
          <ns3:TrackPointExtension>
            <ns3:hr>126</ns3:hr>
            <ns3:cad>0</ns3:cad>
          </ns3:TrackPointExtension>
        </extensions>
      </trkpt>
      <trkpt lat="37.77749952860176563262939453125" lon="-107.69794120453298091888427734375">
        <ele>3993.39990234375</ele>
        <time>2023-07-29T15:39:43.000Z</time>
        <extensions>
          <ns3:TrackPointExtension>
            <ns3:hr>126</ns3:hr>
            <ns3:cad>0</ns3:cad>
          </ns3:TrackPointExtension>
        </extensions>
      </trkpt>
      <trkpt lat="37.7775029651820659637451171875" lon="-107.69794774241745471954345703125">
        <ele>3993.39990234375</ele>
        <time>2023-07-29T15:39:44.000Z</time>
        <extensions>
          <ns3:TrackPointExtension>
            <ns3:hr>126</ns3:hr>
            <ns3:cad>0</ns3:cad>
          </ns3:TrackPointExtension>
        </extensions>
      </trkpt>
      <trkpt lat="37.77750455774366855621337890625" lon="-107.69795679487287998199462890625">
        <ele>3993.39990234375</ele>
        <time>2023-07-29T15:39:45.000Z</time>
        <extensions>
          <ns3:TrackPointExtension>
            <ns3:hr>125</ns3:hr>
            <ns3:cad>0</ns3:cad>
          </ns3:TrackPointExtension>
        </extensions>
      </trkpt>
      <trkpt lat="37.7775056473910808563232421875" lon="-107.69796115346252918243408203125">
        <ele>3993.60009765625</ele>
        <time>2023-07-29T15:39:46.000Z</time>
        <extensions>
          <ns3:TrackPointExtension>
            <ns3:hr>125</ns3:hr>
            <ns3:cad>0</ns3:cad>
          </ns3:TrackPointExtension>
        </extensions>
      </trkpt>
      <trkpt lat="37.77750782668590545654296875" lon="-107.697974145412445068359375">
        <ele>3993.60009765625</ele>
        <time>2023-07-29T15:39:47.000Z</time>
        <extensions>
          <ns3:TrackPointExtension>
            <ns3:hr>125</ns3:hr>
            <ns3:cad>0</ns3:cad>
          </ns3:TrackPointExtension>
        </extensions>
      </trkpt>
      <trkpt lat="37.7775069884955883026123046875" lon="-107.69797875545918941497802734375">
        <ele>3993.800048828125</ele>
        <time>2023-07-29T15:39:48.000Z</time>
        <extensions>
          <ns3:TrackPointExtension>
            <ns3:hr>125</ns3:hr>
            <ns3:cad>0</ns3:cad>
          </ns3:TrackPointExtension>
        </extensions>
      </trkpt>
      <trkpt lat="37.77751176618039608001708984375" lon="-107.6979860477149486541748046875">
        <ele>3993.800048828125</ele>
        <time>2023-07-29T15:39:49.000Z</time>
        <extensions>
          <ns3:TrackPointExtension>
            <ns3:hr>125</ns3:hr>
            <ns3:cad>0</ns3:cad>
          </ns3:TrackPointExtension>
        </extensions>
      </trkpt>
      <trkpt lat="37.777513526380062103271484375" lon="-107.69799090921878814697265625">
        <ele>3993.800048828125</ele>
        <time>2023-07-29T15:39:50.000Z</time>
        <extensions>
          <ns3:TrackPointExtension>
            <ns3:hr>125</ns3:hr>
            <ns3:cad>0</ns3:cad>
          </ns3:TrackPointExtension>
        </extensions>
      </trkpt>
      <trkpt lat="37.7775160409510135650634765625" lon="-107.6979917474091053009033203125">
        <ele>3994</ele>
        <time>2023-07-29T15:39:51.000Z</time>
        <extensions>
          <ns3:TrackPointExtension>
            <ns3:hr>125</ns3:hr>
            <ns3:cad>0</ns3:cad>
          </ns3:TrackPointExtension>
        </extensions>
      </trkpt>
      <trkpt lat="37.77751511894166469573974609375" lon="-107.69799216650426387786865234375">
        <ele>3994</ele>
        <time>2023-07-29T15:39:52.000Z</time>
        <extensions>
          <ns3:TrackPointExtension>
            <ns3:hr>125</ns3:hr>
            <ns3:cad>0</ns3:cad>
          </ns3:TrackPointExtension>
        </extensions>
      </trkpt>
      <trkpt lat="37.77751545421779155731201171875" lon="-107.697994597256183624267578125">
        <ele>3994.199951171875</ele>
        <time>2023-07-29T15:39:53.000Z</time>
        <extensions>
          <ns3:TrackPointExtension>
            <ns3:hr>124</ns3:hr>
            <ns3:cad>0</ns3:cad>
          </ns3:TrackPointExtension>
        </extensions>
      </trkpt>
      <trkpt lat="37.77751562185585498809814453125" lon="-107.69800071604549884796142578125">
        <ele>3994.199951171875</ele>
        <time>2023-07-29T15:39:54.000Z</time>
        <extensions>
          <ns3:TrackPointExtension>
            <ns3:hr>124</ns3:hr>
            <ns3:cad>0</ns3:cad>
          </ns3:TrackPointExtension>
        </extensions>
      </trkpt>
      <trkpt lat="37.77751495130360126495361328125" lon="-107.69800691865384578704833984375">
        <ele>3994.199951171875</ele>
        <time>2023-07-29T15:39:55.000Z</time>
        <extensions>
          <ns3:TrackPointExtension>
            <ns3:hr>123</ns3:hr>
            <ns3:cad>0</ns3:cad>
          </ns3:TrackPointExtension>
        </extensions>
      </trkpt>
      <trkpt lat="37.77751377783715724945068359375" lon="-107.698012031614780426025390625">
        <ele>3994.199951171875</ele>
        <time>2023-07-29T15:39:56.000Z</time>
        <extensions>
          <ns3:TrackPointExtension>
            <ns3:hr>123</ns3:hr>
            <ns3:cad>0</ns3:cad>
          </ns3:TrackPointExtension>
        </extensions>
      </trkpt>
      <trkpt lat="37.7775126881897449493408203125" lon="-107.69802267663180828094482421875">
        <ele>3994.199951171875</ele>
        <time>2023-07-29T15:39:57.000Z</time>
        <extensions>
          <ns3:TrackPointExtension>
            <ns3:hr>123</ns3:hr>
            <ns3:cad>0</ns3:cad>
          </ns3:TrackPointExtension>
        </extensions>
      </trkpt>
      <trkpt lat="37.77751092799007892608642578125" lon="-107.69802954979240894317626953125">
        <ele>3994.199951171875</ele>
        <time>2023-07-29T15:39:58.000Z</time>
        <extensions>
          <ns3:TrackPointExtension>
            <ns3:hr>123</ns3:hr>
            <ns3:cad>0</ns3:cad>
          </ns3:TrackPointExtension>
        </extensions>
      </trkpt>
      <trkpt lat="37.777510844171047210693359375" lon="-107.698034830391407012939453125">
        <ele>3994.199951171875</ele>
        <time>2023-07-29T15:39:59.000Z</time>
        <extensions>
          <ns3:TrackPointExtension>
            <ns3:hr>123</ns3:hr>
            <ns3:cad>0</ns3:cad>
          </ns3:TrackPointExtension>
        </extensions>
      </trkpt>
      <trkpt lat="37.777511179447174072265625" lon="-107.6980390213429927825927734375">
        <ele>3994.199951171875</ele>
        <time>2023-07-29T15:40:00.000Z</time>
        <extensions>
          <ns3:TrackPointExtension>
            <ns3:hr>123</ns3:hr>
            <ns3:cad>0</ns3:cad>
          </ns3:TrackPointExtension>
        </extensions>
      </trkpt>
      <trkpt lat="37.77751260437071323394775390625" lon="-107.6980386860668659210205078125">
        <ele>3994.199951171875</ele>
        <time>2023-07-29T15:40:01.000Z</time>
        <extensions>
          <ns3:TrackPointExtension>
            <ns3:hr>122</ns3:hr>
            <ns3:cad>0</ns3:cad>
          </ns3:TrackPointExtension>
        </extensions>
      </trkpt>
      <trkpt lat="37.77751444838941097259521484375" lon="-107.6980376802384853363037109375">
        <ele>3994.199951171875</ele>
        <time>2023-07-29T15:40:02.000Z</time>
        <extensions>
          <ns3:TrackPointExtension>
            <ns3:hr>122</ns3:hr>
            <ns3:cad>0</ns3:cad>
          </ns3:TrackPointExtension>
        </extensions>
      </trkpt>
      <trkpt lat="37.77751444838941097259521484375" lon="-107.6980520971119403839111328125">
        <ele>3994.199951171875</ele>
        <time>2023-07-29T15:40:03.000Z</time>
        <extensions>
          <ns3:TrackPointExtension>
            <ns3:hr>122</ns3:hr>
            <ns3:cad>0</ns3:cad>
          </ns3:TrackPointExtension>
        </extensions>
      </trkpt>
      <trkpt lat="37.777515538036823272705078125" lon="-107.698062993586063385009765625">
        <ele>3994</ele>
        <time>2023-07-29T15:40:04.000Z</time>
        <extensions>
          <ns3:TrackPointExtension>
            <ns3:hr>122</ns3:hr>
            <ns3:cad>0</ns3:cad>
          </ns3:TrackPointExtension>
        </extensions>
      </trkpt>
      <trkpt lat="37.77751361019909381866455078125" lon="-107.69807347096502780914306640625">
        <ele>3994</ele>
        <time>2023-07-29T15:40:05.000Z</time>
        <extensions>
          <ns3:TrackPointExtension>
            <ns3:hr>122</ns3:hr>
            <ns3:cad>0</ns3:cad>
          </ns3:TrackPointExtension>
        </extensions>
      </trkpt>
      <trkpt lat="37.7775136940181255340576171875" lon="-107.6980832777917385101318359375">
        <ele>3994</ele>
        <time>2023-07-29T15:40:06.000Z</time>
        <extensions>
          <ns3:TrackPointExtension>
            <ns3:hr>122</ns3:hr>
            <ns3:cad>0</ns3:cad>
          </ns3:TrackPointExtension>
        </extensions>
      </trkpt>
      <trkpt lat="37.77751545421779155731201171875" lon="-107.6980827748775482177734375">
        <ele>3993.800048828125</ele>
        <time>2023-07-29T15:40:07.000Z</time>
        <extensions>
          <ns3:TrackPointExtension>
            <ns3:hr>121</ns3:hr>
            <ns3:cad>0</ns3:cad>
          </ns3:TrackPointExtension>
        </extensions>
      </trkpt>
      <trkpt lat="37.77751511894166469573974609375" lon="-107.698087133467197418212890625">
        <ele>3993.800048828125</ele>
        <time>2023-07-29T15:40:08.000Z</time>
        <extensions>
          <ns3:TrackPointExtension>
            <ns3:hr>121</ns3:hr>
            <ns3:cad>0</ns3:cad>
          </ns3:TrackPointExtension>
        </extensions>
      </trkpt>
      <trkpt lat="37.77751411311328411102294921875" lon="-107.698093168437480926513671875">
        <ele>3993.800048828125</ele>
        <time>2023-07-29T15:40:09.000Z</time>
        <extensions>
          <ns3:TrackPointExtension>
            <ns3:hr>121</ns3:hr>
            <ns3:cad>0</ns3:cad>
          </ns3:TrackPointExtension>
        </extensions>
      </trkpt>
      <trkpt lat="37.77751050889492034912109375" lon="-107.69810683093965053558349609375">
        <ele>3993.60009765625</ele>
        <time>2023-07-29T15:40:10.000Z</time>
        <extensions>
          <ns3:TrackPointExtension>
            <ns3:hr>121</ns3:hr>
            <ns3:cad>0</ns3:cad>
          </ns3:TrackPointExtension>
        </extensions>
      </trkpt>
      <trkpt lat="37.77750874869525432586669921875" lon="-107.69811068661510944366455078125">
        <ele>3993.60009765625</ele>
        <time>2023-07-29T15:40:11.000Z</time>
        <extensions>
          <ns3:TrackPointExtension>
            <ns3:hr>120</ns3:hr>
            <ns3:cad>0</ns3:cad>
          </ns3:TrackPointExtension>
        </extensions>
      </trkpt>
      <trkpt lat="37.777508161962032318115234375" lon="-107.69810331054031848907470703125">
        <ele>3993.60009765625</ele>
        <time>2023-07-29T15:40:12.000Z</time>
        <extensions>
          <ns3:TrackPointExtension>
            <ns3:hr>120</ns3:hr>
            <ns3:cad>0</ns3:cad>
          </ns3:TrackPointExtension>
        </extensions>
      </trkpt>
      <trkpt lat="37.77750673703849315643310546875" lon="-107.6980935037136077880859375">
        <ele>3993.39990234375</ele>
        <time>2023-07-29T15:40:13.000Z</time>
        <extensions>
          <ns3:TrackPointExtension>
            <ns3:hr>120</ns3:hr>
            <ns3:cad>0</ns3:cad>
          </ns3:TrackPointExtension>
        </extensions>
      </trkpt>
      <trkpt lat="37.777504138648509979248046875" lon="-107.69808537326753139495849609375">
        <ele>3993.39990234375</ele>
        <time>2023-07-29T15:40:14.000Z</time>
        <extensions>
          <ns3:TrackPointExtension>
            <ns3:hr>119</ns3:hr>
            <ns3:cad>0</ns3:cad>
          </ns3:TrackPointExtension>
        </extensions>
      </trkpt>
      <trkpt lat="37.7774949185550212860107421875" lon="-107.69808000884950160980224609375">
        <ele>3993.39990234375</ele>
        <time>2023-07-29T15:40:15.000Z</time>
        <extensions>
          <ns3:TrackPointExtension>
            <ns3:hr>119</ns3:hr>
            <ns3:cad>0</ns3:cad>
          </ns3:TrackPointExtension>
        </extensions>
      </trkpt>
      <trkpt lat="37.77749198488891124725341796875" lon="-107.69808000884950160980224609375">
        <ele>3993.39990234375</ele>
        <time>2023-07-29T15:40:16.000Z</time>
        <extensions>
          <ns3:TrackPointExtension>
            <ns3:hr>118</ns3:hr>
            <ns3:cad>0</ns3:cad>
          </ns3:TrackPointExtension>
        </extensions>
      </trkpt>
      <trkpt lat="37.7774895541369915008544921875" lon="-107.69807917065918445587158203125">
        <ele>3993.39990234375</ele>
        <time>2023-07-29T15:40:17.000Z</time>
        <extensions>
          <ns3:TrackPointExtension>
            <ns3:hr>118</ns3:hr>
            <ns3:cad>0</ns3:cad>
          </ns3:TrackPointExtension>
        </extensions>
      </trkpt>
      <trkpt lat="37.77748167514801025390625" lon="-107.69808017648756504058837890625">
        <ele>3993.199951171875</ele>
        <time>2023-07-29T15:40:18.000Z</time>
        <extensions>
          <ns3:TrackPointExtension>
            <ns3:hr>117</ns3:hr>
            <ns3:cad>0</ns3:cad>
          </ns3:TrackPointExtension>
        </extensions>
      </trkpt>
      <trkpt lat="37.77747966349124908447265625" lon="-107.6980812661349773406982421875">
        <ele>3993.199951171875</ele>
        <time>2023-07-29T15:40:19.000Z</time>
        <extensions>
          <ns3:TrackPointExtension>
            <ns3:hr>115</ns3:hr>
            <ns3:cad>0</ns3:cad>
          </ns3:TrackPointExtension>
        </extensions>
      </trkpt>
      <trkpt lat="37.7774761430919170379638671875" lon="-107.69808470271527767181396484375">
        <ele>3993</ele>
        <time>2023-07-29T15:40:20.000Z</time>
        <extensions>
          <ns3:TrackPointExtension>
            <ns3:hr>115</ns3:hr>
            <ns3:cad>0</ns3:cad>
          </ns3:TrackPointExtension>
        </extensions>
      </trkpt>
      <trkpt lat="37.77746315114200115203857421875" lon="-107.69808612763881683349609375">
        <ele>3993</ele>
        <time>2023-07-29T15:40:21.000Z</time>
        <extensions>
          <ns3:TrackPointExtension>
            <ns3:hr>114</ns3:hr>
            <ns3:cad>0</ns3:cad>
          </ns3:TrackPointExtension>
        </extensions>
      </trkpt>
      <trkpt lat="37.7774588763713836669921875" lon="-107.69808738492429256439208984375">
        <ele>3992.800048828125</ele>
        <time>2023-07-29T15:40:22.000Z</time>
        <extensions>
          <ns3:TrackPointExtension>
            <ns3:hr>113</ns3:hr>
            <ns3:cad>0</ns3:cad>
          </ns3:TrackPointExtension>
        </extensions>
      </trkpt>
      <trkpt lat="37.77745686471462249755859375" lon="-107.698087133467197418212890625">
        <ele>3992.800048828125</ele>
        <time>2023-07-29T15:40:23.000Z</time>
        <extensions>
          <ns3:TrackPointExtension>
            <ns3:hr>112</ns3:hr>
            <ns3:cad>0</ns3:cad>
          </ns3:TrackPointExtension>
        </extensions>
      </trkpt>
      <trkpt lat="37.77745778672397136688232421875" lon="-107.698087133467197418212890625">
        <ele>3992.60009765625</ele>
        <time>2023-07-29T15:40:24.000Z</time>
        <extensions>
          <ns3:TrackPointExtension>
            <ns3:hr>111</ns3:hr>
            <ns3:cad>0</ns3:cad>
          </ns3:TrackPointExtension>
        </extensions>
      </trkpt>
      <trkpt lat="37.77745611034333705902099609375" lon="-107.6980869658291339874267578125">
        <ele>3992.39990234375</ele>
        <time>2023-07-29T15:40:25.000Z</time>
        <extensions>
          <ns3:TrackPointExtension>
            <ns3:hr>111</ns3:hr>
            <ns3:cad>0</ns3:cad>
          </ns3:TrackPointExtension>
        </extensions>
      </trkpt>
      <trkpt lat="37.77745678089559078216552734375" lon="-107.69808369688689708709716796875">
        <ele>3992</ele>
        <time>2023-07-29T15:40:26.000Z</time>
        <extensions>
          <ns3:TrackPointExtension>
            <ns3:hr>110</ns3:hr>
            <ns3:cad>0</ns3:cad>
          </ns3:TrackPointExtension>
        </extensions>
      </trkpt>
      <trkpt lat="37.7774580381810665130615234375" lon="-107.698078416287899017333984375">
        <ele>3992</ele>
        <time>2023-07-29T15:40:27.000Z</time>
        <extensions>
          <ns3:TrackPointExtension>
            <ns3:hr>110</ns3:hr>
            <ns3:cad>0</ns3:cad>
          </ns3:TrackPointExtension>
        </extensions>
      </trkpt>
      <trkpt lat="37.77745694853365421295166015625" lon="-107.698076404631137847900390625">
        <ele>3992</ele>
        <time>2023-07-29T15:40:28.000Z</time>
        <extensions>
          <ns3:TrackPointExtension>
            <ns3:hr>110</ns3:hr>
            <ns3:cad>0</ns3:cad>
          </ns3:TrackPointExtension>
        </extensions>
      </trkpt>
      <trkpt lat="37.7774560265243053436279296875" lon="-107.69807464443147182464599609375">
        <ele>3992</ele>
        <time>2023-07-29T15:40:29.000Z</time>
        <extensions>
          <ns3:TrackPointExtension>
            <ns3:hr>109</ns3:hr>
            <ns3:cad>0</ns3:cad>
          </ns3:TrackPointExtension>
        </extensions>
      </trkpt>
      <trkpt lat="37.7774483151733875274658203125" lon="-107.69807598553597927093505859375">
        <ele>3992</ele>
        <time>2023-07-29T15:40:30.000Z</time>
        <extensions>
          <ns3:TrackPointExtension>
            <ns3:hr>109</ns3:hr>
            <ns3:cad>0</ns3:cad>
          </ns3:TrackPointExtension>
        </extensions>
      </trkpt>
      <trkpt lat="37.77743934653699398040771484375" lon="-107.6980805955827236175537109375">
        <ele>3992</ele>
        <time>2023-07-29T15:40:31.000Z</time>
        <extensions>
          <ns3:TrackPointExtension>
            <ns3:hr>109</ns3:hr>
            <ns3:cad>0</ns3:cad>
          </ns3:TrackPointExtension>
        </extensions>
      </trkpt>
      <trkpt lat="37.77743817307054996490478515625" lon="-107.69808520562946796417236328125">
        <ele>3991.39990234375</ele>
        <time>2023-07-29T15:40:32.000Z</time>
        <extensions>
          <ns3:TrackPointExtension>
            <ns3:hr>109</ns3:hr>
            <ns3:cad>0</ns3:cad>
          </ns3:TrackPointExtension>
        </extensions>
      </trkpt>
      <trkpt lat="37.77743875980377197265625" lon="-107.69808570854365825653076171875">
        <ele>3991.199951171875</ele>
        <time>2023-07-29T15:40:33.000Z</time>
        <extensions>
          <ns3:TrackPointExtension>
            <ns3:hr>109</ns3:hr>
            <ns3:cad>79</ns3:cad>
          </ns3:TrackPointExtension>
        </extensions>
      </trkpt>
      <trkpt lat="37.77743750251829624176025390625" lon="-107.6980899833142757415771484375">
        <ele>3991</ele>
        <time>2023-07-29T15:40:34.000Z</time>
        <extensions>
          <ns3:TrackPointExtension>
            <ns3:hr>108</ns3:hr>
            <ns3:cad>79</ns3:cad>
          </ns3:TrackPointExtension>
        </extensions>
      </trkpt>
      <trkpt lat="37.77743146754801273345947265625" lon="-107.69809777848422527313232421875">
        <ele>3990.800048828125</ele>
        <time>2023-07-29T15:40:35.000Z</time>
        <extensions>
          <ns3:TrackPointExtension>
            <ns3:hr>108</ns3:hr>
            <ns3:cad>79</ns3:cad>
          </ns3:TrackPointExtension>
        </extensions>
      </trkpt>
      <trkpt lat="37.777432389557361602783203125" lon="-107.6981017179787158966064453125">
        <ele>3990.800048828125</ele>
        <time>2023-07-29T15:40:36.000Z</time>
        <extensions>
          <ns3:TrackPointExtension>
            <ns3:hr>108</ns3:hr>
            <ns3:cad>0</ns3:cad>
          </ns3:TrackPointExtension>
        </extensions>
      </trkpt>
      <trkpt lat="37.7774365805089473724365234375" lon="-107.6981020532548427581787109375">
        <ele>3990.800048828125</ele>
        <time>2023-07-29T15:40:37.000Z</time>
        <extensions>
          <ns3:TrackPointExtension>
            <ns3:hr>109</ns3:hr>
            <ns3:cad>0</ns3:cad>
          </ns3:TrackPointExtension>
        </extensions>
      </trkpt>
      <trkpt lat="37.777433730661869049072265625" lon="-107.69810783676803112030029296875">
        <ele>3990.60009765625</ele>
        <time>2023-07-29T15:40:38.000Z</time>
        <extensions>
          <ns3:TrackPointExtension>
            <ns3:hr>110</ns3:hr>
            <ns3:cad>0</ns3:cad>
          </ns3:TrackPointExtension>
        </extensions>
      </trkpt>
      <trkpt lat="37.7774335630238056182861328125" lon="-107.6981070823967456817626953125">
        <ele>3990.39990234375</ele>
        <time>2023-07-29T15:40:39.000Z</time>
        <extensions>
          <ns3:TrackPointExtension>
            <ns3:hr>110</ns3:hr>
            <ns3:cad>0</ns3:cad>
          </ns3:TrackPointExtension>
        </extensions>
      </trkpt>
      <trkpt lat="37.7774302102625370025634765625" lon="-107.6981095969676971435546875">
        <ele>3990.199951171875</ele>
        <time>2023-07-29T15:40:40.000Z</time>
        <extensions>
          <ns3:TrackPointExtension>
            <ns3:hr>110</ns3:hr>
            <ns3:cad>0</ns3:cad>
          </ns3:TrackPointExtension>
        </extensions>
      </trkpt>
      <trkpt lat="37.77742736041545867919921875" lon="-107.6981127820909023284912109375">
        <ele>3990</ele>
        <time>2023-07-29T15:40:41.000Z</time>
        <extensions>
          <ns3:TrackPointExtension>
            <ns3:hr>110</ns3:hr>
            <ns3:cad>0</ns3:cad>
          </ns3:TrackPointExtension>
        </extensions>
      </trkpt>
      <trkpt lat="37.77742199599742889404296875" lon="-107.6981225050985813140869140625">
        <ele>3990</ele>
        <time>2023-07-29T15:40:42.000Z</time>
        <extensions>
          <ns3:TrackPointExtension>
            <ns3:hr>110</ns3:hr>
            <ns3:cad>0</ns3:cad>
          </ns3:TrackPointExtension>
        </extensions>
      </trkpt>
      <trkpt lat="37.77742275036871433258056640625" lon="-107.69812677986919879913330078125">
        <ele>3990</ele>
        <time>2023-07-29T15:40:43.000Z</time>
        <extensions>
          <ns3:TrackPointExtension>
            <ns3:hr>110</ns3:hr>
            <ns3:cad>0</ns3:cad>
          </ns3:TrackPointExtension>
        </extensions>
      </trkpt>
      <trkpt lat="37.77742727659642696380615234375" lon="-107.6981270313262939453125">
        <ele>3989.800048828125</ele>
        <time>2023-07-29T15:40:44.000Z</time>
        <extensions>
          <ns3:TrackPointExtension>
            <ns3:hr>110</ns3:hr>
            <ns3:cad>50</ns3:cad>
          </ns3:TrackPointExtension>
        </extensions>
      </trkpt>
      <trkpt lat="37.777431048452854156494140625" lon="-107.6981288753449916839599609375">
        <ele>3989.800048828125</ele>
        <time>2023-07-29T15:40:45.000Z</time>
        <extensions>
          <ns3:TrackPointExtension>
            <ns3:hr>110</ns3:hr>
            <ns3:cad>50</ns3:cad>
          </ns3:TrackPointExtension>
        </extensions>
      </trkpt>
      <trkpt lat="37.77743213810026645660400390625" lon="-107.6981342397630214691162109375">
        <ele>3989.800048828125</ele>
        <time>2023-07-29T15:40:46.000Z</time>
        <extensions>
          <ns3:TrackPointExtension>
            <ns3:hr>110</ns3:hr>
            <ns3:cad>50</ns3:cad>
          </ns3:TrackPointExtension>
        </extensions>
      </trkpt>
      <trkpt lat="37.77743096463382244110107421875" lon="-107.69814153201878070831298828125">
        <ele>3989.800048828125</ele>
        <time>2023-07-29T15:40:47.000Z</time>
        <extensions>
          <ns3:TrackPointExtension>
            <ns3:hr>109</ns3:hr>
            <ns3:cad>0</ns3:cad>
          </ns3:TrackPointExtension>
        </extensions>
      </trkpt>
      <trkpt lat="37.7774305455386638641357421875" lon="-107.69814656116068363189697265625">
        <ele>3989.60009765625</ele>
        <time>2023-07-29T15:40:48.000Z</time>
        <extensions>
          <ns3:TrackPointExtension>
            <ns3:hr>109</ns3:hr>
            <ns3:cad>0</ns3:cad>
          </ns3:TrackPointExtension>
        </extensions>
      </trkpt>
      <trkpt lat="37.777431048452854156494140625" lon="-107.69814639352262020111083984375">
        <ele>3989.39990234375</ele>
        <time>2023-07-29T15:40:49.000Z</time>
        <extensions>
          <ns3:TrackPointExtension>
            <ns3:hr>109</ns3:hr>
            <ns3:cad>0</ns3:cad>
          </ns3:TrackPointExtension>
        </extensions>
      </trkpt>
      <trkpt lat="37.77743247337639331817626953125" lon="-107.69815477542579174041748046875">
        <ele>3989.199951171875</ele>
        <time>2023-07-29T15:40:50.000Z</time>
        <extensions>
          <ns3:TrackPointExtension>
            <ns3:hr>109</ns3:hr>
            <ns3:cad>0</ns3:cad>
          </ns3:TrackPointExtension>
        </extensions>
      </trkpt>
      <trkpt lat="37.77743213810026645660400390625" lon="-107.69816315732896327972412109375">
        <ele>3989.199951171875</ele>
        <time>2023-07-29T15:40:51.000Z</time>
        <extensions>
          <ns3:TrackPointExtension>
            <ns3:hr>109</ns3:hr>
            <ns3:cad>0</ns3:cad>
          </ns3:TrackPointExtension>
        </extensions>
      </trkpt>
      <trkpt lat="37.7774312160909175872802734375" lon="-107.69816567189991474151611328125">
        <ele>3989</ele>
        <time>2023-07-29T15:40:52.000Z</time>
        <extensions>
          <ns3:TrackPointExtension>
            <ns3:hr>108</ns3:hr>
            <ns3:cad>0</ns3:cad>
          </ns3:TrackPointExtension>
        </extensions>
      </trkpt>
      <trkpt lat="37.77742794714868068695068359375" lon="-107.69816583953797817230224609375">
        <ele>3989</ele>
        <time>2023-07-29T15:40:53.000Z</time>
        <extensions>
          <ns3:TrackPointExtension>
            <ns3:hr>108</ns3:hr>
            <ns3:cad>0</ns3:cad>
          </ns3:TrackPointExtension>
        </extensions>
      </trkpt>
      <trkpt lat="37.7774258516728878021240234375" lon="-107.69816533662378787994384765625">
        <ele>3989</ele>
        <time>2023-07-29T15:40:54.000Z</time>
        <extensions>
          <ns3:TrackPointExtension>
            <ns3:hr>108</ns3:hr>
            <ns3:cad>0</ns3:cad>
          </ns3:TrackPointExtension>
        </extensions>
      </trkpt>
      <trkpt lat="37.77742241509258747100830078125" lon="-107.69815661944448947906494140625">
        <ele>3989</ele>
        <time>2023-07-29T15:40:55.000Z</time>
        <extensions>
          <ns3:TrackPointExtension>
            <ns3:hr>107</ns3:hr>
            <ns3:cad>0</ns3:cad>
          </ns3:TrackPointExtension>
        </extensions>
      </trkpt>
      <trkpt lat="37.7774228341877460479736328125" lon="-107.69815561361610889434814453125">
        <ele>3988.800048828125</ele>
        <time>2023-07-29T15:40:56.000Z</time>
        <extensions>
          <ns3:TrackPointExtension>
            <ns3:hr>105</ns3:hr>
            <ns3:cad>0</ns3:cad>
          </ns3:TrackPointExtension>
        </extensions>
      </trkpt>
      <trkpt lat="37.7774226665496826171875" lon="-107.69816215150058269500732421875">
        <ele>3988.60009765625</ele>
        <time>2023-07-29T15:40:57.000Z</time>
        <extensions>
          <ns3:TrackPointExtension>
            <ns3:hr>104</ns3:hr>
            <ns3:cad>0</ns3:cad>
          </ns3:TrackPointExtension>
        </extensions>
      </trkpt>
      <trkpt lat="37.77742442674934864044189453125" lon="-107.69817539490759372711181640625">
        <ele>3988.60009765625</ele>
        <time>2023-07-29T15:40:58.000Z</time>
        <extensions>
          <ns3:TrackPointExtension>
            <ns3:hr>104</ns3:hr>
            <ns3:cad>0</ns3:cad>
          </ns3:TrackPointExtension>
        </extensions>
      </trkpt>
      <trkpt lat="37.77742995880544185638427734375" lon="-107.6982009597122669219970703125">
        <ele>3988.39990234375</ele>
        <time>2023-07-29T15:40:59.000Z</time>
        <extensions>
          <ns3:TrackPointExtension>
            <ns3:hr>104</ns3:hr>
            <ns3:cad>0</ns3:cad>
          </ns3:TrackPointExtension>
        </extensions>
      </trkpt>
      <trkpt lat="37.7774292044341564178466796875" lon="-107.69820037297904491424560546875">
        <ele>3988.39990234375</ele>
        <time>2023-07-29T15:41:00.000Z</time>
        <extensions>
          <ns3:TrackPointExtension>
            <ns3:hr>103</ns3:hr>
            <ns3:cad>0</ns3:cad>
          </ns3:TrackPointExtension>
        </extensions>
      </trkpt>
      <trkpt lat="37.7774285338819026947021484375" lon="-107.698207832872867584228515625">
        <ele>3988.199951171875</ele>
        <time>2023-07-29T15:41:01.000Z</time>
        <extensions>
          <ns3:TrackPointExtension>
            <ns3:hr>103</ns3:hr>
            <ns3:cad>0</ns3:cad>
          </ns3:TrackPointExtension>
        </extensions>
      </trkpt>
      <trkpt lat="37.77742803096771240234375" lon="-107.6982113532721996307373046875">
        <ele>3988.199951171875</ele>
        <time>2023-07-29T15:41:02.000Z</time>
        <extensions>
          <ns3:TrackPointExtension>
            <ns3:hr>102</ns3:hr>
            <ns3:cad>0</ns3:cad>
          </ns3:TrackPointExtension>
        </extensions>
      </trkpt>
      <trkpt lat="37.77742803096771240234375" lon="-107.69821411930024623870849609375">
        <ele>3988</ele>
        <time>2023-07-29T15:41:03.000Z</time>
        <extensions>
          <ns3:TrackPointExtension>
            <ns3:hr>102</ns3:hr>
            <ns3:cad>0</ns3:cad>
          </ns3:TrackPointExtension>
        </extensions>
      </trkpt>
      <trkpt lat="37.77742761187255382537841796875" lon="-107.698220908641815185546875">
        <ele>3987.800048828125</ele>
        <time>2023-07-29T15:41:04.000Z</time>
        <extensions>
          <ns3:TrackPointExtension>
            <ns3:hr>101</ns3:hr>
            <ns3:cad>0</ns3:cad>
          </ns3:TrackPointExtension>
        </extensions>
      </trkpt>
      <trkpt lat="37.77742845006287097930908203125" lon="-107.6982230879366397857666015625">
        <ele>3987.800048828125</ele>
        <time>2023-07-29T15:41:05.000Z</time>
        <extensions>
          <ns3:TrackPointExtension>
            <ns3:hr>101</ns3:hr>
            <ns3:cad>0</ns3:cad>
          </ns3:TrackPointExtension>
        </extensions>
      </trkpt>
      <trkpt lat="37.77742761187255382537841796875" lon="-107.69822635687887668609619140625">
        <ele>3987.800048828125</ele>
        <time>2023-07-29T15:41:06.000Z</time>
        <extensions>
          <ns3:TrackPointExtension>
            <ns3:hr>101</ns3:hr>
            <ns3:cad>0</ns3:cad>
          </ns3:TrackPointExtension>
        </extensions>
      </trkpt>
      <trkpt lat="37.77742643840610980987548828125" lon="-107.69824077375233173370361328125">
        <ele>3987.39990234375</ele>
        <time>2023-07-29T15:41:07.000Z</time>
        <extensions>
          <ns3:TrackPointExtension>
            <ns3:hr>101</ns3:hr>
            <ns3:cad>0</ns3:cad>
          </ns3:TrackPointExtension>
        </extensions>
      </trkpt>
      <trkpt lat="37.77742526493966579437255859375" lon="-107.6982465572655200958251953125">
        <ele>3987.39990234375</ele>
        <time>2023-07-29T15:41:08.000Z</time>
        <extensions>
          <ns3:TrackPointExtension>
            <ns3:hr>101</ns3:hr>
            <ns3:cad>0</ns3:cad>
          </ns3:TrackPointExtension>
        </extensions>
      </trkpt>
      <trkpt lat="37.7774245105683803558349609375" lon="-107.69824898801743984222412109375">
        <ele>3987.199951171875</ele>
        <time>2023-07-29T15:41:09.000Z</time>
        <extensions>
          <ns3:TrackPointExtension>
            <ns3:hr>101</ns3:hr>
            <ns3:cad>0</ns3:cad>
          </ns3:TrackPointExtension>
        </extensions>
      </trkpt>
      <trkpt lat="37.77742090635001659393310546875" lon="-107.6982468925416469573974609375">
        <ele>3987</ele>
        <time>2023-07-29T15:41:10.000Z</time>
        <extensions>
          <ns3:TrackPointExtension>
            <ns3:hr>102</ns3:hr>
            <ns3:cad>0</ns3:cad>
          </ns3:TrackPointExtension>
        </extensions>
      </trkpt>
      <trkpt lat="37.77741587720811367034912109375" lon="-107.6982468925416469573974609375">
        <ele>3987</ele>
        <time>2023-07-29T15:41:11.000Z</time>
        <extensions>
          <ns3:TrackPointExtension>
            <ns3:hr>102</ns3:hr>
            <ns3:cad>0</ns3:cad>
          </ns3:TrackPointExtension>
        </extensions>
      </trkpt>
      <trkpt lat="37.777414284646511077880859375" lon="-107.69824840128421783447265625">
        <ele>3986.60009765625</ele>
        <time>2023-07-29T15:41:12.000Z</time>
        <extensions>
          <ns3:TrackPointExtension>
            <ns3:hr>102</ns3:hr>
            <ns3:cad>0</ns3:cad>
          </ns3:TrackPointExtension>
        </extensions>
      </trkpt>
      <trkpt lat="37.777412943542003631591796875" lon="-107.69825569353997707366943359375">
        <ele>3986.60009765625</ele>
        <time>2023-07-29T15:41:13.000Z</time>
        <extensions>
          <ns3:TrackPointExtension>
            <ns3:hr>102</ns3:hr>
            <ns3:cad>0</ns3:cad>
          </ns3:TrackPointExtension>
        </extensions>
      </trkpt>
      <trkpt lat="37.7774131111800670623779296875" lon="-107.6982569508254528045654296875">
        <ele>3986.60009765625</ele>
        <time>2023-07-29T15:41:14.000Z</time>
        <extensions>
          <ns3:TrackPointExtension>
            <ns3:hr>102</ns3:hr>
            <ns3:cad>0</ns3:cad>
          </ns3:TrackPointExtension>
        </extensions>
      </trkpt>
      <trkpt lat="37.77741168625652790069580078125" lon="-107.69826156087219715118408203125">
        <ele>3986.60009765625</ele>
        <time>2023-07-29T15:41:15.000Z</time>
        <extensions>
          <ns3:TrackPointExtension>
            <ns3:hr>103</ns3:hr>
            <ns3:cad>0</ns3:cad>
          </ns3:TrackPointExtension>
        </extensions>
      </trkpt>
      <trkpt lat="37.7774087525904178619384765625" lon="-107.6982651650905609130859375">
        <ele>3986.39990234375</ele>
        <time>2023-07-29T15:41:16.000Z</time>
        <extensions>
          <ns3:TrackPointExtension>
            <ns3:hr>103</ns3:hr>
            <ns3:cad>0</ns3:cad>
          </ns3:TrackPointExtension>
        </extensions>
      </trkpt>
      <trkpt lat="37.777404226362705230712890625" lon="-107.69827413372695446014404296875">
        <ele>3986.39990234375</ele>
        <time>2023-07-29T15:41:17.000Z</time>
        <extensions>
          <ns3:TrackPointExtension>
            <ns3:hr>103</ns3:hr>
            <ns3:cad>0</ns3:cad>
          </ns3:TrackPointExtension>
        </extensions>
      </trkpt>
      <trkpt lat="37.7773998677730560302734375" lon="-107.6982794143259525299072265625">
        <ele>3986.199951171875</ele>
        <time>2023-07-29T15:41:18.000Z</time>
        <extensions>
          <ns3:TrackPointExtension>
            <ns3:hr>102</ns3:hr>
            <ns3:cad>0</ns3:cad>
          </ns3:TrackPointExtension>
        </extensions>
      </trkpt>
      <trkpt lat="37.7773963473737239837646484375" lon="-107.69828570075333118438720703125">
        <ele>3986</ele>
        <time>2023-07-29T15:41:19.000Z</time>
        <extensions>
          <ns3:TrackPointExtension>
            <ns3:hr>102</ns3:hr>
            <ns3:cad>0</ns3:cad>
          </ns3:TrackPointExtension>
        </extensions>
      </trkpt>
      <trkpt lat="37.77739274315536022186279296875" lon="-107.69828821532428264617919921875">
        <ele>3985.60009765625</ele>
        <time>2023-07-29T15:41:20.000Z</time>
        <extensions>
          <ns3:TrackPointExtension>
            <ns3:hr>101</ns3:hr>
            <ns3:cad>0</ns3:cad>
          </ns3:TrackPointExtension>
        </extensions>
      </trkpt>
      <trkpt lat="37.777391485869884490966796875" lon="-107.69828972406685352325439453125">
        <ele>3985.199951171875</ele>
        <time>2023-07-29T15:41:21.000Z</time>
        <extensions>
          <ns3:TrackPointExtension>
            <ns3:hr>101</ns3:hr>
            <ns3:cad>0</ns3:cad>
          </ns3:TrackPointExtension>
        </extensions>
      </trkpt>
      <trkpt lat="37.7773869596421718597412109375" lon="-107.6982985250651836395263671875">
        <ele>3985.199951171875</ele>
        <time>2023-07-29T15:41:22.000Z</time>
        <extensions>
          <ns3:TrackPointExtension>
            <ns3:hr>100</ns3:hr>
            <ns3:cad>0</ns3:cad>
          </ns3:TrackPointExtension>
        </extensions>
      </trkpt>
      <trkpt lat="37.7773893065750598907470703125" lon="-107.69830070436000823974609375">
        <ele>3985</ele>
        <time>2023-07-29T15:41:23.000Z</time>
        <extensions>
          <ns3:TrackPointExtension>
            <ns3:hr>100</ns3:hr>
            <ns3:cad>48</ns3:cad>
          </ns3:TrackPointExtension>
        </extensions>
      </trkpt>
      <trkpt lat="37.77739022858440876007080078125" lon="-107.698309086263179779052734375">
        <ele>3984.800048828125</ele>
        <time>2023-07-29T15:41:24.000Z</time>
        <extensions>
          <ns3:TrackPointExtension>
            <ns3:hr>100</ns3:hr>
            <ns3:cad>48</ns3:cad>
          </ns3:TrackPointExtension>
        </extensions>
      </trkpt>
      <trkpt lat="37.77739324606955051422119140625" lon="-107.698311097919940948486328125">
        <ele>3984.60009765625</ele>
        <time>2023-07-29T15:41:25.000Z</time>
        <extensions>
          <ns3:TrackPointExtension>
            <ns3:hr>100</ns3:hr>
            <ns3:cad>48</ns3:cad>
          </ns3:TrackPointExtension>
        </extensions>
      </trkpt>
      <trkpt lat="37.7773918211460113525390625" lon="-107.6983183063566684722900390625">
        <ele>3984.60009765625</ele>
        <time>2023-07-29T15:41:26.000Z</time>
        <extensions>
          <ns3:TrackPointExtension>
            <ns3:hr>100</ns3:hr>
            <ns3:cad>48</ns3:cad>
          </ns3:TrackPointExtension>
        </extensions>
      </trkpt>
      <trkpt lat="37.7773883007466793060302734375" lon="-107.69832911901175975799560546875">
        <ele>3984.60009765625</ele>
        <time>2023-07-29T15:41:27.000Z</time>
        <extensions>
          <ns3:TrackPointExtension>
            <ns3:hr>100</ns3:hr>
            <ns3:cad>0</ns3:cad>
          </ns3:TrackPointExtension>
        </extensions>
      </trkpt>
      <trkpt lat="37.77738754637539386749267578125" lon="-107.69834118895232677459716796875">
        <ele>3984.39990234375</ele>
        <time>2023-07-29T15:41:28.000Z</time>
        <extensions>
          <ns3:TrackPointExtension>
            <ns3:hr>100</ns3:hr>
            <ns3:cad>0</ns3:cad>
          </ns3:TrackPointExtension>
        </extensions>
      </trkpt>
      <trkpt lat="37.77738536708056926727294921875" lon="-107.6983625628054141998291015625">
        <ele>3984.199951171875</ele>
        <time>2023-07-29T15:41:29.000Z</time>
        <extensions>
          <ns3:TrackPointExtension>
            <ns3:hr>100</ns3:hr>
            <ns3:cad>0</ns3:cad>
          </ns3:TrackPointExtension>
        </extensions>
      </trkpt>
      <trkpt lat="37.77738318778574466705322265625" lon="-107.69838343374431133270263671875">
        <ele>3984.199951171875</ele>
        <time>2023-07-29T15:41:30.000Z</time>
        <extensions>
          <ns3:TrackPointExtension>
            <ns3:hr>100</ns3:hr>
            <ns3:cad>0</ns3:cad>
          </ns3:TrackPointExtension>
        </extensions>
      </trkpt>
      <trkpt lat="37.77738084085285663604736328125" lon="-107.6983880437910556793212890625">
        <ele>3984</ele>
        <time>2023-07-29T15:41:31.000Z</time>
        <extensions>
          <ns3:TrackPointExtension>
            <ns3:hr>100</ns3:hr>
            <ns3:cad>0</ns3:cad>
          </ns3:TrackPointExtension>
        </extensions>
      </trkpt>
      <trkpt lat="37.7773797512054443359375" lon="-107.6983870379626750946044921875">
        <ele>3983.800048828125</ele>
        <time>2023-07-29T15:41:32.000Z</time>
        <extensions>
          <ns3:TrackPointExtension>
            <ns3:hr>100</ns3:hr>
            <ns3:cad>0</ns3:cad>
          </ns3:TrackPointExtension>
        </extensions>
      </trkpt>
      <trkpt lat="37.77737732045352458953857421875" lon="-107.6983913965523242950439453125">
        <ele>3983.60009765625</ele>
        <time>2023-07-29T15:41:33.000Z</time>
        <extensions>
          <ns3:TrackPointExtension>
            <ns3:hr>100</ns3:hr>
            <ns3:cad>0</ns3:cad>
          </ns3:TrackPointExtension>
        </extensions>
      </trkpt>
      <trkpt lat="37.777373380959033966064453125" lon="-107.69839064218103885650634765625">
        <ele>3983.199951171875</ele>
        <time>2023-07-29T15:41:34.000Z</time>
        <extensions>
          <ns3:TrackPointExtension>
            <ns3:hr>99</ns3:hr>
            <ns3:cad>0</ns3:cad>
          </ns3:TrackPointExtension>
        </extensions>
      </trkpt>
      <trkpt lat="37.77736810036003589630126953125" lon="-107.69839860498905181884765625">
        <ele>3983</ele>
        <time>2023-07-29T15:41:35.000Z</time>
        <extensions>
          <ns3:TrackPointExtension>
            <ns3:hr>99</ns3:hr>
            <ns3:cad>0</ns3:cad>
          </ns3:TrackPointExtension>
        </extensions>
      </trkpt>
      <trkpt lat="37.777361981570720672607421875" lon="-107.69841092638671398162841796875">
        <ele>3982.800048828125</ele>
        <time>2023-07-29T15:41:36.000Z</time>
        <extensions>
          <ns3:TrackPointExtension>
            <ns3:hr>99</ns3:hr>
            <ns3:cad>0</ns3:cad>
          </ns3:TrackPointExtension>
        </extensions>
      </trkpt>
      <trkpt lat="37.7773561142385005950927734375" lon="-107.69842584617435932159423828125">
        <ele>3982.39990234375</ele>
        <time>2023-07-29T15:41:37.000Z</time>
        <extensions>
          <ns3:TrackPointExtension>
            <ns3:hr>100</ns3:hr>
            <ns3:cad>0</ns3:cad>
          </ns3:TrackPointExtension>
        </extensions>
      </trkpt>
      <trkpt lat="37.77735234238207340240478515625" lon="-107.698430456221103668212890625">
        <ele>3982.199951171875</ele>
        <time>2023-07-29T15:41:38.000Z</time>
        <extensions>
          <ns3:TrackPointExtension>
            <ns3:hr>100</ns3:hr>
            <ns3:cad>18</ns3:cad>
          </ns3:TrackPointExtension>
        </extensions>
      </trkpt>
      <trkpt lat="37.77735083363950252532958984375" lon="-107.69843372516334056854248046875">
        <ele>3982.199951171875</ele>
        <time>2023-07-29T15:41:39.000Z</time>
        <extensions>
          <ns3:TrackPointExtension>
            <ns3:hr>100</ns3:hr>
            <ns3:cad>57</ns3:cad>
          </ns3:TrackPointExtension>
        </extensions>
      </trkpt>
      <trkpt lat="37.77735116891562938690185546875" lon="-107.6984312944114208221435546875">
        <ele>3982</ele>
        <time>2023-07-29T15:41:40.000Z</time>
        <extensions>
          <ns3:TrackPointExtension>
            <ns3:hr>100</ns3:hr>
            <ns3:cad>57</ns3:cad>
          </ns3:TrackPointExtension>
        </extensions>
      </trkpt>
      <trkpt lat="37.7773517556488513946533203125" lon="-107.69842945039272308349609375">
        <ele>3981.800048828125</ele>
        <time>2023-07-29T15:41:41.000Z</time>
        <extensions>
          <ns3:TrackPointExtension>
            <ns3:hr>100</ns3:hr>
            <ns3:cad>57</ns3:cad>
          </ns3:TrackPointExtension>
        </extensions>
      </trkpt>
      <trkpt lat="37.77735100127756595611572265625" lon="-107.69842408597469329833984375">
        <ele>3981.60009765625</ele>
        <time>2023-07-29T15:41:42.000Z</time>
        <extensions>
          <ns3:TrackPointExtension>
            <ns3:hr>100</ns3:hr>
            <ns3:cad>57</ns3:cad>
          </ns3:TrackPointExtension>
        </extensions>
      </trkpt>
      <trkpt lat="37.77735091745853424072265625" lon="-107.69842207431793212890625">
        <ele>3981.60009765625</ele>
        <time>2023-07-29T15:41:43.000Z</time>
        <extensions>
          <ns3:TrackPointExtension>
            <ns3:hr>100</ns3:hr>
            <ns3:cad>57</ns3:cad>
          </ns3:TrackPointExtension>
        </extensions>
      </trkpt>
      <trkpt lat="37.77734882198274135589599609375" lon="-107.6984182186424732208251953125">
        <ele>3981.60009765625</ele>
        <time>2023-07-29T15:41:44.000Z</time>
        <extensions>
          <ns3:TrackPointExtension>
            <ns3:hr>100</ns3:hr>
            <ns3:cad>0</ns3:cad>
          </ns3:TrackPointExtension>
        </extensions>
      </trkpt>
      <trkpt lat="37.77734328992664813995361328125" lon="-107.69841897301375865936279296875">
        <ele>3981.60009765625</ele>
        <time>2023-07-29T15:41:45.000Z</time>
        <extensions>
          <ns3:TrackPointExtension>
            <ns3:hr>100</ns3:hr>
            <ns3:cad>0</ns3:cad>
          </ns3:TrackPointExtension>
        </extensions>
      </trkpt>
      <trkpt lat="37.7773380093276500701904296875" lon="-107.69841670989990234375">
        <ele>3981.39990234375</ele>
        <time>2023-07-29T15:41:46.000Z</time>
        <extensions>
          <ns3:TrackPointExtension>
            <ns3:hr>100</ns3:hr>
            <ns3:cad>0</ns3:cad>
          </ns3:TrackPointExtension>
        </extensions>
      </trkpt>
      <trkpt lat="37.77733591385185718536376953125" lon="-107.6984148658812046051025390625">
        <ele>3981.39990234375</ele>
        <time>2023-07-29T15:41:47.000Z</time>
        <extensions>
          <ns3:TrackPointExtension>
            <ns3:hr>100</ns3:hr>
            <ns3:cad>0</ns3:cad>
          </ns3:TrackPointExtension>
        </extensions>
      </trkpt>
      <trkpt lat="37.7773354947566986083984375" lon="-107.69841067492961883544921875">
        <ele>3981.39990234375</ele>
        <time>2023-07-29T15:41:48.000Z</time>
        <extensions>
          <ns3:TrackPointExtension>
            <ns3:hr>100</ns3:hr>
            <ns3:cad>0</ns3:cad>
          </ns3:TrackPointExtension>
        </extensions>
      </trkpt>
      <trkpt lat="37.7773346565663814544677734375" lon="-107.69840824417769908905029296875">
        <ele>3981.39990234375</ele>
        <time>2023-07-29T15:41:49.000Z</time>
        <extensions>
          <ns3:TrackPointExtension>
            <ns3:hr>100</ns3:hr>
            <ns3:cad>0</ns3:cad>
          </ns3:TrackPointExtension>
        </extensions>
      </trkpt>
      <trkpt lat="37.77733406983315944671630859375" lon="-107.69840824417769908905029296875">
        <ele>3981.39990234375</ele>
        <time>2023-07-29T15:41:50.000Z</time>
        <extensions>
          <ns3:TrackPointExtension>
            <ns3:hr>100</ns3:hr>
            <ns3:cad>0</ns3:cad>
          </ns3:TrackPointExtension>
        </extensions>
      </trkpt>
      <trkpt lat="37.777335159480571746826171875" lon="-107.69840656779706478118896484375">
        <ele>3981.39990234375</ele>
        <time>2023-07-29T15:41:51.000Z</time>
        <extensions>
          <ns3:TrackPointExtension>
            <ns3:hr>100</ns3:hr>
            <ns3:cad>0</ns3:cad>
          </ns3:TrackPointExtension>
        </extensions>
      </trkpt>
      <trkpt lat="37.77733792550861835479736328125" lon="-107.69840438850224018096923828125">
        <ele>3981.39990234375</ele>
        <time>2023-07-29T15:41:52.000Z</time>
        <extensions>
          <ns3:TrackPointExtension>
            <ns3:hr>100</ns3:hr>
            <ns3:cad>0</ns3:cad>
          </ns3:TrackPointExtension>
        </extensions>
      </trkpt>
      <trkpt lat="37.77734152972698211669921875" lon="-107.6984017901122570037841796875">
        <ele>3981.39990234375</ele>
        <time>2023-07-29T15:41:53.000Z</time>
        <extensions>
          <ns3:TrackPointExtension>
            <ns3:hr>97</ns3:hr>
            <ns3:cad>0</ns3:cad>
          </ns3:TrackPointExtension>
        </extensions>
      </trkpt>
      <trkpt lat="37.777345217764377593994140625" lon="-107.6983987726271152496337890625">
        <ele>3981.39990234375</ele>
        <time>2023-07-29T15:41:54.000Z</time>
        <extensions>
          <ns3:TrackPointExtension>
            <ns3:hr>97</ns3:hr>
            <ns3:cad>0</ns3:cad>
          </ns3:TrackPointExtension>
        </extensions>
      </trkpt>
      <trkpt lat="37.77734781615436077117919921875" lon="-107.6984084956347942352294921875">
        <ele>3981.39990234375</ele>
        <time>2023-07-29T15:41:55.000Z</time>
        <extensions>
          <ns3:TrackPointExtension>
            <ns3:hr>98</ns3:hr>
            <ns3:cad>0</ns3:cad>
          </ns3:TrackPointExtension>
        </extensions>
      </trkpt>
      <trkpt lat="37.77735066600143909454345703125" lon="-107.69841243512928485870361328125">
        <ele>3981.39990234375</ele>
        <time>2023-07-29T15:41:56.000Z</time>
        <extensions>
          <ns3:TrackPointExtension>
            <ns3:hr>98</ns3:hr>
            <ns3:cad>0</ns3:cad>
          </ns3:TrackPointExtension>
        </extensions>
      </trkpt>
      <trkpt lat="37.77734966017305850982666015625" lon="-107.6984168775379657745361328125">
        <ele>3981.39990234375</ele>
        <time>2023-07-29T15:41:57.000Z</time>
        <extensions>
          <ns3:TrackPointExtension>
            <ns3:hr>97</ns3:hr>
            <ns3:cad>0</ns3:cad>
          </ns3:TrackPointExtension>
        </extensions>
      </trkpt>
      <trkpt lat="37.77734580449759960174560546875" lon="-107.69842836074531078338623046875">
        <ele>3981.199951171875</ele>
        <time>2023-07-29T15:41:58.000Z</time>
        <extensions>
          <ns3:TrackPointExtension>
            <ns3:hr>97</ns3:hr>
            <ns3:cad>0</ns3:cad>
          </ns3:TrackPointExtension>
        </extensions>
      </trkpt>
      <trkpt lat="37.7773430384695529937744140625" lon="-107.6984403468668460845947265625">
        <ele>3981.199951171875</ele>
        <time>2023-07-29T15:41:59.000Z</time>
        <extensions>
          <ns3:TrackPointExtension>
            <ns3:hr>96</ns3:hr>
            <ns3:cad>0</ns3:cad>
          </ns3:TrackPointExtension>
        </extensions>
      </trkpt>
      <trkpt lat="37.7773406915366649627685546875" lon="-107.698454596102237701416015625">
        <ele>3981</ele>
        <time>2023-07-29T15:42:00.000Z</time>
        <extensions>
          <ns3:TrackPointExtension>
            <ns3:hr>96</ns3:hr>
            <ns3:cad>55</ns3:cad>
          </ns3:TrackPointExtension>
        </extensions>
      </trkpt>
      <trkpt lat="37.77733909897506237030029296875" lon="-107.698461972177028656005859375">
        <ele>3980.60009765625</ele>
        <time>2023-07-29T15:42:01.000Z</time>
        <extensions>
          <ns3:TrackPointExtension>
            <ns3:hr>96</ns3:hr>
            <ns3:cad>55</ns3:cad>
          </ns3:TrackPointExtension>
        </extensions>
      </trkpt>
      <trkpt lat="37.77733574621379375457763671875" lon="-107.69847412593662738800048828125">
        <ele>3980.60009765625</ele>
        <time>2023-07-29T15:42:02.000Z</time>
        <extensions>
          <ns3:TrackPointExtension>
            <ns3:hr>96</ns3:hr>
            <ns3:cad>55</ns3:cad>
          </ns3:TrackPointExtension>
        </extensions>
      </trkpt>
      <trkpt lat="37.77732937596738338470458984375" lon="-107.698486782610416412353515625">
        <ele>3980.39990234375</ele>
        <time>2023-07-29T15:42:03.000Z</time>
        <extensions>
          <ns3:TrackPointExtension>
            <ns3:hr>96</ns3:hr>
            <ns3:cad>56</ns3:cad>
          </ns3:TrackPointExtension>
        </extensions>
      </trkpt>
      <trkpt lat="37.77732585556805133819580078125" lon="-107.698498181998729705810546875">
        <ele>3980.39990234375</ele>
        <time>2023-07-29T15:42:04.000Z</time>
        <extensions>
          <ns3:TrackPointExtension>
            <ns3:hr>95</ns3:hr>
            <ns3:cad>56</ns3:cad>
          </ns3:TrackPointExtension>
        </extensions>
      </trkpt>
      <trkpt lat="37.7773225866258144378662109375" lon="-107.69850849173963069915771484375">
        <ele>3980.39990234375</ele>
        <time>2023-07-29T15:42:05.000Z</time>
        <extensions>
          <ns3:TrackPointExtension>
            <ns3:hr>95</ns3:hr>
            <ns3:cad>57</ns3:cad>
          </ns3:TrackPointExtension>
        </extensions>
      </trkpt>
      <trkpt lat="37.7773185633122920989990234375" lon="-107.69852207042276859283447265625">
        <ele>3980.199951171875</ele>
        <time>2023-07-29T15:42:06.000Z</time>
        <extensions>
          <ns3:TrackPointExtension>
            <ns3:hr>95</ns3:hr>
            <ns3:cad>57</ns3:cad>
          </ns3:TrackPointExtension>
        </extensions>
      </trkpt>
      <trkpt lat="37.7773148752748966217041015625" lon="-107.698535062372684478759765625">
        <ele>3980</ele>
        <time>2023-07-29T15:42:07.000Z</time>
        <extensions>
          <ns3:TrackPointExtension>
            <ns3:hr>95</ns3:hr>
            <ns3:cad>57</ns3:cad>
          </ns3:TrackPointExtension>
        </extensions>
      </trkpt>
      <trkpt lat="37.7773145399987697601318359375" lon="-107.69854880869388580322265625">
        <ele>3979.800048828125</ele>
        <time>2023-07-29T15:42:08.000Z</time>
        <extensions>
          <ns3:TrackPointExtension>
            <ns3:hr>94</ns3:hr>
            <ns3:cad>57</ns3:cad>
          </ns3:TrackPointExtension>
        </extensions>
      </trkpt>
      <trkpt lat="37.77731277979910373687744140625" lon="-107.69856599159538745880126953125">
        <ele>3979.60009765625</ele>
        <time>2023-07-29T15:42:09.000Z</time>
        <extensions>
          <ns3:TrackPointExtension>
            <ns3:hr>94</ns3:hr>
            <ns3:cad>57</ns3:cad>
          </ns3:TrackPointExtension>
        </extensions>
      </trkpt>
      <trkpt lat="37.777310349047183990478515625" lon="-107.69858074374496936798095703125">
        <ele>3979.199951171875</ele>
        <time>2023-07-29T15:42:10.000Z</time>
        <extensions>
          <ns3:TrackPointExtension>
            <ns3:hr>94</ns3:hr>
            <ns3:cad>20</ns3:cad>
          </ns3:TrackPointExtension>
        </extensions>
      </trkpt>
      <trkpt lat="37.77731009759008884429931640625" lon="-107.69859365187585353851318359375">
        <ele>3979</ele>
        <time>2023-07-29T15:42:11.000Z</time>
        <extensions>
          <ns3:TrackPointExtension>
            <ns3:hr>93</ns3:hr>
            <ns3:cad>20</ns3:cad>
          </ns3:TrackPointExtension>
        </extensions>
      </trkpt>
      <trkpt lat="37.77731143869459629058837890625" lon="-107.69861225970089435577392578125">
        <ele>3978.800048828125</ele>
        <time>2023-07-29T15:42:12.000Z</time>
        <extensions>
          <ns3:TrackPointExtension>
            <ns3:hr>93</ns3:hr>
            <ns3:cad>20</ns3:cad>
          </ns3:TrackPointExtension>
        </extensions>
      </trkpt>
      <trkpt lat="37.77731244452297687530517578125" lon="-107.69863489083945751190185546875">
        <ele>3978.60009765625</ele>
        <time>2023-07-29T15:42:13.000Z</time>
        <extensions>
          <ns3:TrackPointExtension>
            <ns3:hr>93</ns3:hr>
            <ns3:cad>20</ns3:cad>
          </ns3:TrackPointExtension>
        </extensions>
      </trkpt>
      <trkpt lat="37.7773145399987697601318359375" lon="-107.69865601323544979095458984375">
        <ele>3978.39990234375</ele>
        <time>2023-07-29T15:42:14.000Z</time>
        <extensions>
          <ns3:TrackPointExtension>
            <ns3:hr>93</ns3:hr>
            <ns3:cad>20</ns3:cad>
          </ns3:TrackPointExtension>
        </extensions>
      </trkpt>
      <trkpt lat="37.77731663547456264495849609375" lon="-107.698682583868503570556640625">
        <ele>3978.39990234375</ele>
        <time>2023-07-29T15:42:15.000Z</time>
        <extensions>
          <ns3:TrackPointExtension>
            <ns3:hr>93</ns3:hr>
            <ns3:cad>20</ns3:cad>
          </ns3:TrackPointExtension>
        </extensions>
      </trkpt>
      <trkpt lat="37.777321077883243560791015625" lon="-107.69870697520673274993896484375">
        <ele>3978.39990234375</ele>
        <time>2023-07-29T15:42:16.000Z</time>
        <extensions>
          <ns3:TrackPointExtension>
            <ns3:hr>93</ns3:hr>
            <ns3:cad>0</ns3:cad>
          </ns3:TrackPointExtension>
        </extensions>
      </trkpt>
      <trkpt lat="37.777323424816131591796875" lon="-107.69872055388987064361572265625">
        <ele>3978.39990234375</ele>
        <time>2023-07-29T15:42:17.000Z</time>
        <extensions>
          <ns3:TrackPointExtension>
            <ns3:hr>93</ns3:hr>
            <ns3:cad>0</ns3:cad>
          </ns3:TrackPointExtension>
        </extensions>
      </trkpt>
      <trkpt lat="37.777329124510288238525390625" lon="-107.69872223027050495147705078125">
        <ele>3978.60009765625</ele>
        <time>2023-07-29T15:42:18.000Z</time>
        <extensions>
          <ns3:TrackPointExtension>
            <ns3:hr>93</ns3:hr>
            <ns3:cad>0</ns3:cad>
          </ns3:TrackPointExtension>
        </extensions>
      </trkpt>
      <trkpt lat="37.77733105234801769256591796875" lon="-107.69871971569955348968505859375">
        <ele>3978.800048828125</ele>
        <time>2023-07-29T15:42:19.000Z</time>
        <extensions>
          <ns3:TrackPointExtension>
            <ns3:hr>92</ns3:hr>
            <ns3:cad>0</ns3:cad>
          </ns3:TrackPointExtension>
        </extensions>
      </trkpt>
      <trkpt lat="37.77733172290027141571044921875" lon="-107.698727510869503021240234375">
        <ele>3979</ele>
        <time>2023-07-29T15:42:20.000Z</time>
        <extensions>
          <ns3:TrackPointExtension>
            <ns3:hr>92</ns3:hr>
            <ns3:cad>0</ns3:cad>
          </ns3:TrackPointExtension>
        </extensions>
      </trkpt>
      <trkpt lat="37.77733524329960346221923828125" lon="-107.69872851669788360595703125">
        <ele>3979.39990234375</ele>
        <time>2023-07-29T15:42:21.000Z</time>
        <extensions>
          <ns3:TrackPointExtension>
            <ns3:hr>92</ns3:hr>
            <ns3:cad>0</ns3:cad>
          </ns3:TrackPointExtension>
        </extensions>
      </trkpt>
      <trkpt lat="37.7773376740515232086181640625" lon="-107.69873413257300853729248046875">
        <ele>3979.800048828125</ele>
        <time>2023-07-29T15:42:22.000Z</time>
        <extensions>
          <ns3:TrackPointExtension>
            <ns3:hr>92</ns3:hr>
            <ns3:cad>0</ns3:cad>
          </ns3:TrackPointExtension>
        </extensions>
      </trkpt>
      <trkpt lat="37.77734228409826755523681640625" lon="-107.698741257190704345703125">
        <ele>3980</ele>
        <time>2023-07-29T15:42:23.000Z</time>
        <extensions>
          <ns3:TrackPointExtension>
            <ns3:hr>92</ns3:hr>
            <ns3:cad>0</ns3:cad>
          </ns3:TrackPointExtension>
        </extensions>
      </trkpt>
      <trkpt lat="37.7773443795740604400634765625" lon="-107.69874729216098785400390625">
        <ele>3980</ele>
        <time>2023-07-29T15:42:24.000Z</time>
        <extensions>
          <ns3:TrackPointExtension>
            <ns3:hr>92</ns3:hr>
            <ns3:cad>0</ns3:cad>
          </ns3:TrackPointExtension>
        </extensions>
      </trkpt>
      <trkpt lat="37.77734957635402679443359375" lon="-107.6987618766725063323974609375">
        <ele>3980.199951171875</ele>
        <time>2023-07-29T15:42:25.000Z</time>
        <extensions>
          <ns3:TrackPointExtension>
            <ns3:hr>91</ns3:hr>
            <ns3:cad>0</ns3:cad>
          </ns3:TrackPointExtension>
        </extensions>
      </trkpt>
      <trkpt lat="37.77735267765820026397705078125" lon="-107.69877486862242221832275390625">
        <ele>3980.39990234375</ele>
        <time>2023-07-29T15:42:26.000Z</time>
        <extensions>
          <ns3:TrackPointExtension>
            <ns3:hr>91</ns3:hr>
            <ns3:cad>0</ns3:cad>
          </ns3:TrackPointExtension>
        </extensions>
      </trkpt>
      <trkpt lat="37.77735552750527858734130859375" lon="-107.698789872229099273681640625">
        <ele>3980.39990234375</ele>
        <time>2023-07-29T15:42:27.000Z</time>
        <extensions>
          <ns3:TrackPointExtension>
            <ns3:hr>90</ns3:hr>
            <ns3:cad>0</ns3:cad>
          </ns3:TrackPointExtension>
        </extensions>
      </trkpt>
      <trkpt lat="37.77735871262848377227783203125" lon="-107.698796577751636505126953125">
        <ele>3980.60009765625</ele>
        <time>2023-07-29T15:42:28.000Z</time>
        <extensions>
          <ns3:TrackPointExtension>
            <ns3:hr>90</ns3:hr>
            <ns3:cad>0</ns3:cad>
          </ns3:TrackPointExtension>
        </extensions>
      </trkpt>
      <trkpt lat="37.7773594669997692108154296875" lon="-107.69880286417901515960693359375">
        <ele>3980.800048828125</ele>
        <time>2023-07-29T15:42:29.000Z</time>
        <extensions>
          <ns3:TrackPointExtension>
            <ns3:hr>89</ns3:hr>
            <ns3:cad>0</ns3:cad>
          </ns3:TrackPointExtension>
        </extensions>
      </trkpt>
      <trkpt lat="37.77736424468457698822021484375" lon="-107.6988098211586475372314453125">
        <ele>3981</ele>
        <time>2023-07-29T15:42:30.000Z</time>
        <extensions>
          <ns3:TrackPointExtension>
            <ns3:hr>89</ns3:hr>
            <ns3:cad>0</ns3:cad>
          </ns3:TrackPointExtension>
        </extensions>
      </trkpt>
      <trkpt lat="37.77736759744584560394287109375" lon="-107.69881979562342166900634765625">
        <ele>3981.199951171875</ele>
        <time>2023-07-29T15:42:31.000Z</time>
        <extensions>
          <ns3:TrackPointExtension>
            <ns3:hr>90</ns3:hr>
            <ns3:cad>0</ns3:cad>
          </ns3:TrackPointExtension>
        </extensions>
      </trkpt>
      <trkpt lat="37.77737078256905078887939453125" lon="-107.69883714616298675537109375">
        <ele>3981.39990234375</ele>
        <time>2023-07-29T15:42:32.000Z</time>
        <extensions>
          <ns3:TrackPointExtension>
            <ns3:hr>90</ns3:hr>
            <ns3:cad>0</ns3:cad>
          </ns3:TrackPointExtension>
        </extensions>
      </trkpt>
      <trkpt lat="37.77737463824450969696044921875" lon="-107.69884443841874599456787109375">
        <ele>3981.60009765625</ele>
        <time>2023-07-29T15:42:33.000Z</time>
        <extensions>
          <ns3:TrackPointExtension>
            <ns3:hr>91</ns3:hr>
            <ns3:cad>0</ns3:cad>
          </ns3:TrackPointExtension>
        </extensions>
      </trkpt>
      <trkpt lat="37.77737698517739772796630859375" lon="-107.6988534070551395416259765625">
        <ele>3982</ele>
        <time>2023-07-29T15:42:34.000Z</time>
        <extensions>
          <ns3:TrackPointExtension>
            <ns3:hr>92</ns3:hr>
            <ns3:cad>0</ns3:cad>
          </ns3:TrackPointExtension>
        </extensions>
      </trkpt>
      <trkpt lat="37.77738000266253948211669921875" lon="-107.69885349087417125701904296875">
        <ele>3982</ele>
        <time>2023-07-29T15:42:35.000Z</time>
        <extensions>
          <ns3:TrackPointExtension>
            <ns3:hr>92</ns3:hr>
            <ns3:cad>0</ns3:cad>
          </ns3:TrackPointExtension>
        </extensions>
      </trkpt>
      <trkpt lat="37.777380757033824920654296875" lon="-107.69885768182575702667236328125">
        <ele>3982.199951171875</ele>
        <time>2023-07-29T15:42:36.000Z</time>
        <extensions>
          <ns3:TrackPointExtension>
            <ns3:hr>94</ns3:hr>
            <ns3:cad>0</ns3:cad>
          </ns3:TrackPointExtension>
        </extensions>
      </trkpt>
      <trkpt lat="37.77738310396671295166015625" lon="-107.698873691260814666748046875">
        <ele>3982.39990234375</ele>
        <time>2023-07-29T15:42:37.000Z</time>
        <extensions>
          <ns3:TrackPointExtension>
            <ns3:hr>95</ns3:hr>
            <ns3:cad>0</ns3:cad>
          </ns3:TrackPointExtension>
        </extensions>
      </trkpt>
      <trkpt lat="37.77738670818507671356201171875" lon="-107.69888006150722503662109375">
        <ele>3982.60009765625</ele>
        <time>2023-07-29T15:42:38.000Z</time>
        <extensions>
          <ns3:TrackPointExtension>
            <ns3:hr>97</ns3:hr>
            <ns3:cad>0</ns3:cad>
          </ns3:TrackPointExtension>
        </extensions>
      </trkpt>
      <trkpt lat="37.77738939039409160614013671875" lon="-107.69889137707650661468505859375">
        <ele>3982.800048828125</ele>
        <time>2023-07-29T15:42:39.000Z</time>
        <extensions>
          <ns3:TrackPointExtension>
            <ns3:hr>100</ns3:hr>
            <ns3:cad>0</ns3:cad>
          </ns3:TrackPointExtension>
        </extensions>
      </trkpt>
      <trkpt lat="37.7773923240602016448974609375" lon="-107.69889414310455322265625">
        <ele>3983</ele>
        <time>2023-07-29T15:42:40.000Z</time>
        <extensions>
          <ns3:TrackPointExtension>
            <ns3:hr>102</ns3:hr>
            <ns3:cad>0</ns3:cad>
          </ns3:TrackPointExtension>
        </extensions>
      </trkpt>
      <trkpt lat="37.77739307843148708343505859375" lon="-107.69889942370355129241943359375">
        <ele>3983.199951171875</ele>
        <time>2023-07-29T15:42:41.000Z</time>
        <extensions>
          <ns3:TrackPointExtension>
            <ns3:hr>104</ns3:hr>
            <ns3:cad>0</ns3:cad>
          </ns3:TrackPointExtension>
        </extensions>
      </trkpt>
      <trkpt lat="37.77739693410694599151611328125" lon="-107.6988986693322658538818359375">
        <ele>3983.39990234375</ele>
        <time>2023-07-29T15:42:42.000Z</time>
        <extensions>
          <ns3:TrackPointExtension>
            <ns3:hr>106</ns3:hr>
            <ns3:cad>0</ns3:cad>
          </ns3:TrackPointExtension>
        </extensions>
      </trkpt>
      <trkpt lat="37.77740053832530975341796875" lon="-107.69890495575964450836181640625">
        <ele>3983.60009765625</ele>
        <time>2023-07-29T15:42:43.000Z</time>
        <extensions>
          <ns3:TrackPointExtension>
            <ns3:hr>107</ns3:hr>
            <ns3:cad>0</ns3:cad>
          </ns3:TrackPointExtension>
        </extensions>
      </trkpt>
      <trkpt lat="37.77740129269659519195556640625" lon="-107.69891350530087947845458984375">
        <ele>3983.800048828125</ele>
        <time>2023-07-29T15:42:44.000Z</time>
        <extensions>
          <ns3:TrackPointExtension>
            <ns3:hr>108</ns3:hr>
            <ns3:cad>0</ns3:cad>
          </ns3:TrackPointExtension>
        </extensions>
      </trkpt>
      <trkpt lat="37.77740196324884891510009765625" lon="-107.6989238150417804718017578125">
        <ele>3984</ele>
        <time>2023-07-29T15:42:45.000Z</time>
        <extensions>
          <ns3:TrackPointExtension>
            <ns3:hr>109</ns3:hr>
            <ns3:cad>0</ns3:cad>
          </ns3:TrackPointExtension>
        </extensions>
      </trkpt>
      <trkpt lat="37.7774043940007686614990234375" lon="-107.69893370568752288818359375">
        <ele>3984.199951171875</ele>
        <time>2023-07-29T15:42:46.000Z</time>
        <extensions>
          <ns3:TrackPointExtension>
            <ns3:hr>110</ns3:hr>
            <ns3:cad>0</ns3:cad>
          </ns3:TrackPointExtension>
        </extensions>
      </trkpt>
      <trkpt lat="37.7774067409336566925048828125" lon="-107.69894200377166271209716796875">
        <ele>3984.39990234375</ele>
        <time>2023-07-29T15:42:47.000Z</time>
        <extensions>
          <ns3:TrackPointExtension>
            <ns3:hr>111</ns3:hr>
            <ns3:cad>52</ns3:cad>
          </ns3:TrackPointExtension>
        </extensions>
      </trkpt>
      <trkpt lat="37.7774097584187984466552734375" lon="-107.69894988276064395904541015625">
        <ele>3984.60009765625</ele>
        <time>2023-07-29T15:42:48.000Z</time>
        <extensions>
          <ns3:TrackPointExtension>
            <ns3:hr>112</ns3:hr>
            <ns3:cad>52</ns3:cad>
          </ns3:TrackPointExtension>
        </extensions>
      </trkpt>
      <trkpt lat="37.777411937713623046875" lon="-107.6989571750164031982421875">
        <ele>3984.800048828125</ele>
        <time>2023-07-29T15:42:49.000Z</time>
        <extensions>
          <ns3:TrackPointExtension>
            <ns3:hr>113</ns3:hr>
            <ns3:cad>52</ns3:cad>
          </ns3:TrackPointExtension>
        </extensions>
      </trkpt>
      <trkpt lat="37.777414284646511077880859375" lon="-107.69895826466381549835205078125">
        <ele>3984.800048828125</ele>
        <time>2023-07-29T15:42:50.000Z</time>
        <extensions>
          <ns3:TrackPointExtension>
            <ns3:hr>114</ns3:hr>
            <ns3:cad>52</ns3:cad>
          </ns3:TrackPointExtension>
        </extensions>
      </trkpt>
      <trkpt lat="37.77741587720811367034912109375" lon="-107.69896178506314754486083984375">
        <ele>3985</ele>
        <time>2023-07-29T15:42:51.000Z</time>
        <extensions>
          <ns3:TrackPointExtension>
            <ns3:hr>115</ns3:hr>
            <ns3:cad>52</ns3:cad>
          </ns3:TrackPointExtension>
        </extensions>
      </trkpt>
      <trkpt lat="37.77741671539843082427978515625" lon="-107.6989697478711605072021484375">
        <ele>3985.199951171875</ele>
        <time>2023-07-29T15:42:52.000Z</time>
        <extensions>
          <ns3:TrackPointExtension>
            <ns3:hr>116</ns3:hr>
            <ns3:cad>0</ns3:cad>
          </ns3:TrackPointExtension>
        </extensions>
      </trkpt>
      <trkpt lat="37.77742199599742889404296875" lon="-107.69898206926882266998291015625">
        <ele>3985.39990234375</ele>
        <time>2023-07-29T15:42:53.000Z</time>
        <extensions>
          <ns3:TrackPointExtension>
            <ns3:hr>118</ns3:hr>
            <ns3:cad>0</ns3:cad>
          </ns3:TrackPointExtension>
        </extensions>
      </trkpt>
      <trkpt lat="37.7774251811206340789794921875" lon="-107.69899346865713596343994140625">
        <ele>3985.39990234375</ele>
        <time>2023-07-29T15:42:54.000Z</time>
        <extensions>
          <ns3:TrackPointExtension>
            <ns3:hr>119</ns3:hr>
            <ns3:cad>0</ns3:cad>
          </ns3:TrackPointExtension>
        </extensions>
      </trkpt>
      <trkpt lat="37.777426354587078094482421875" lon="-107.6990009285509586334228515625">
        <ele>3985.60009765625</ele>
        <time>2023-07-29T15:42:55.000Z</time>
        <extensions>
          <ns3:TrackPointExtension>
            <ns3:hr>120</ns3:hr>
            <ns3:cad>0</ns3:cad>
          </ns3:TrackPointExtension>
        </extensions>
      </trkpt>
      <trkpt lat="37.777429036796092987060546875" lon="-107.69900687970221042633056640625">
        <ele>3985.800048828125</ele>
        <time>2023-07-29T15:42:56.000Z</time>
        <extensions>
          <ns3:TrackPointExtension>
            <ns3:hr>120</ns3:hr>
            <ns3:cad>0</ns3:cad>
          </ns3:TrackPointExtension>
        </extensions>
      </trkpt>
      <trkpt lat="37.7774325571954250335693359375" lon="-107.69901551306247711181640625">
        <ele>3985.800048828125</ele>
        <time>2023-07-29T15:42:57.000Z</time>
        <extensions>
          <ns3:TrackPointExtension>
            <ns3:hr>120</ns3:hr>
            <ns3:cad>0</ns3:cad>
          </ns3:TrackPointExtension>
        </extensions>
      </trkpt>
      <trkpt lat="37.77743750251829624176025390625" lon="-107.699020542204380035400390625">
        <ele>3986</ele>
        <time>2023-07-29T15:42:58.000Z</time>
        <extensions>
          <ns3:TrackPointExtension>
            <ns3:hr>121</ns3:hr>
            <ns3:cad>0</ns3:cad>
          </ns3:TrackPointExtension>
        </extensions>
      </trkpt>
      <trkpt lat="37.7774439565837383270263671875" lon="-107.69901911728084087371826171875">
        <ele>3986.199951171875</ele>
        <time>2023-07-29T15:42:59.000Z</time>
        <extensions>
          <ns3:TrackPointExtension>
            <ns3:hr>121</ns3:hr>
            <ns3:cad>0</ns3:cad>
          </ns3:TrackPointExtension>
        </extensions>
      </trkpt>
      <trkpt lat="37.77745024301111698150634765625" lon="-107.6990227214992046356201171875">
        <ele>3986.39990234375</ele>
        <time>2023-07-29T15:43:00.000Z</time>
        <extensions>
          <ns3:TrackPointExtension>
            <ns3:hr>122</ns3:hr>
            <ns3:cad>0</ns3:cad>
          </ns3:TrackPointExtension>
        </extensions>
      </trkpt>
      <trkpt lat="37.77745644561946392059326171875" lon="-107.6990300975739955902099609375">
        <ele>3986.800048828125</ele>
        <time>2023-07-29T15:43:01.000Z</time>
        <extensions>
          <ns3:TrackPointExtension>
            <ns3:hr>122</ns3:hr>
            <ns3:cad>0</ns3:cad>
          </ns3:TrackPointExtension>
        </extensions>
      </trkpt>
      <trkpt lat="37.77746801264584064483642578125" lon="-107.69903697073459625244140625">
        <ele>3987</ele>
        <time>2023-07-29T15:43:02.000Z</time>
        <extensions>
          <ns3:TrackPointExtension>
            <ns3:hr>122</ns3:hr>
            <ns3:cad>0</ns3:cad>
          </ns3:TrackPointExtension>
        </extensions>
      </trkpt>
      <trkpt lat="37.77747589163482189178466796875" lon="-107.69904660992324352264404296875">
        <ele>3987.199951171875</ele>
        <time>2023-07-29T15:43:03.000Z</time>
        <extensions>
          <ns3:TrackPointExtension>
            <ns3:hr>123</ns3:hr>
            <ns3:cad>0</ns3:cad>
          </ns3:TrackPointExtension>
        </extensions>
      </trkpt>
      <trkpt lat="37.7774835191667079925537109375" lon="-107.699057757854461669921875">
        <ele>3987.39990234375</ele>
        <time>2023-07-29T15:43:04.000Z</time>
        <extensions>
          <ns3:TrackPointExtension>
            <ns3:hr>123</ns3:hr>
            <ns3:cad>0</ns3:cad>
          </ns3:TrackPointExtension>
        </extensions>
      </trkpt>
      <trkpt lat="37.77748527936637401580810546875" lon="-107.6990644633769989013671875">
        <ele>3987.60009765625</ele>
        <time>2023-07-29T15:43:05.000Z</time>
        <extensions>
          <ns3:TrackPointExtension>
            <ns3:hr>123</ns3:hr>
            <ns3:cad>0</ns3:cad>
          </ns3:TrackPointExtension>
        </extensions>
      </trkpt>
      <trkpt lat="37.77748695574700832366943359375" lon="-107.69907024689018726348876953125">
        <ele>3987.60009765625</ele>
        <time>2023-07-29T15:43:06.000Z</time>
        <extensions>
          <ns3:TrackPointExtension>
            <ns3:hr>124</ns3:hr>
            <ns3:cad>0</ns3:cad>
          </ns3:TrackPointExtension>
        </extensions>
      </trkpt>
      <trkpt lat="37.7774937450885772705078125" lon="-107.69908080808818340301513671875">
        <ele>3988</ele>
        <time>2023-07-29T15:43:07.000Z</time>
        <extensions>
          <ns3:TrackPointExtension>
            <ns3:hr>128</ns3:hr>
            <ns3:cad>0</ns3:cad>
          </ns3:TrackPointExtension>
        </extensions>
      </trkpt>
      <trkpt lat="37.77749617584049701690673828125" lon="-107.69908248446881771087646484375">
        <ele>3988.199951171875</ele>
        <time>2023-07-29T15:43:08.000Z</time>
        <extensions>
          <ns3:TrackPointExtension>
            <ns3:hr>130</ns3:hr>
            <ns3:cad>0</ns3:cad>
          </ns3:TrackPointExtension>
        </extensions>
      </trkpt>
      <trkpt lat="37.77750455774366855621337890625" lon="-107.69908793270587921142578125">
        <ele>3988.39990234375</ele>
        <time>2023-07-29T15:43:09.000Z</time>
        <extensions>
          <ns3:TrackPointExtension>
            <ns3:hr>130</ns3:hr>
            <ns3:cad>0</ns3:cad>
          </ns3:TrackPointExtension>
        </extensions>
      </trkpt>
      <trkpt lat="37.7775116823613643646240234375" lon="-107.69910042174160480499267578125">
        <ele>3988.60009765625</ele>
        <time>2023-07-29T15:43:10.000Z</time>
        <extensions>
          <ns3:TrackPointExtension>
            <ns3:hr>128</ns3:hr>
            <ns3:cad>0</ns3:cad>
          </ns3:TrackPointExtension>
        </extensions>
      </trkpt>
      <trkpt lat="37.77751612477004528045654296875" lon="-107.69910578615963459014892578125">
        <ele>3988.800048828125</ele>
        <time>2023-07-29T15:43:11.000Z</time>
        <extensions>
          <ns3:TrackPointExtension>
            <ns3:hr>127</ns3:hr>
            <ns3:cad>0</ns3:cad>
          </ns3:TrackPointExtension>
        </extensions>
      </trkpt>
      <trkpt lat="37.77752182446420192718505859375" lon="-107.69911609590053558349609375">
        <ele>3989</ele>
        <time>2023-07-29T15:43:12.000Z</time>
        <extensions>
          <ns3:TrackPointExtension>
            <ns3:hr>128</ns3:hr>
            <ns3:cad>0</ns3:cad>
          </ns3:TrackPointExtension>
        </extensions>
      </trkpt>
      <trkpt lat="37.77752702124416828155517578125" lon="-107.6991192810237407684326171875">
        <ele>3989.199951171875</ele>
        <time>2023-07-29T15:43:13.000Z</time>
        <extensions>
          <ns3:TrackPointExtension>
            <ns3:hr>128</ns3:hr>
            <ns3:cad>0</ns3:cad>
          </ns3:TrackPointExtension>
        </extensions>
      </trkpt>
      <trkpt lat="37.77752400375902652740478515625" lon="-107.69912070594727993011474609375">
        <ele>3989.39990234375</ele>
        <time>2023-07-29T15:43:14.000Z</time>
        <extensions>
          <ns3:TrackPointExtension>
            <ns3:hr>129</ns3:hr>
            <ns3:cad>0</ns3:cad>
          </ns3:TrackPointExtension>
        </extensions>
      </trkpt>
      <trkpt lat="37.77752551250159740447998046875" lon="-107.6991249807178974151611328125">
        <ele>3989.39990234375</ele>
        <time>2023-07-29T15:43:15.000Z</time>
        <extensions>
          <ns3:TrackPointExtension>
            <ns3:hr>129</ns3:hr>
            <ns3:cad>0</ns3:cad>
          </ns3:TrackPointExtension>
        </extensions>
      </trkpt>
      <trkpt lat="37.77752836234867572784423828125" lon="-107.69913914613425731658935546875">
        <ele>3989.800048828125</ele>
        <time>2023-07-29T15:43:16.000Z</time>
        <extensions>
          <ns3:TrackPointExtension>
            <ns3:hr>129</ns3:hr>
            <ns3:cad>0</ns3:cad>
          </ns3:TrackPointExtension>
        </extensions>
      </trkpt>
      <trkpt lat="37.7775294519960880279541015625" lon="-107.69914568401873111724853515625">
        <ele>3989.800048828125</ele>
        <time>2023-07-29T15:43:17.000Z</time>
        <extensions>
          <ns3:TrackPointExtension>
            <ns3:hr>129</ns3:hr>
            <ns3:cad>0</ns3:cad>
          </ns3:TrackPointExtension>
        </extensions>
      </trkpt>
      <trkpt lat="37.7775328047573566436767578125" lon="-107.6991575025022029876708984375">
        <ele>3990</ele>
        <time>2023-07-29T15:43:18.000Z</time>
        <extensions>
          <ns3:TrackPointExtension>
            <ns3:hr>129</ns3:hr>
            <ns3:cad>0</ns3:cad>
          </ns3:TrackPointExtension>
        </extensions>
      </trkpt>
      <trkpt lat="37.777536995708942413330078125" lon="-107.69917351193726062774658203125">
        <ele>3990</ele>
        <time>2023-07-29T15:43:19.000Z</time>
        <extensions>
          <ns3:TrackPointExtension>
            <ns3:hr>129</ns3:hr>
            <ns3:cad>0</ns3:cad>
          </ns3:TrackPointExtension>
        </extensions>
      </trkpt>
      <trkpt lat="37.77754328213632106781005859375" lon="-107.69918960519134998321533203125">
        <ele>3990.199951171875</ele>
        <time>2023-07-29T15:43:20.000Z</time>
        <extensions>
          <ns3:TrackPointExtension>
            <ns3:hr>129</ns3:hr>
            <ns3:cad>0</ns3:cad>
          </ns3:TrackPointExtension>
        </extensions>
      </trkpt>
      <trkpt lat="37.777547724545001983642578125" lon="-107.69919966347515583038330078125">
        <ele>3990.199951171875</ele>
        <time>2023-07-29T15:43:21.000Z</time>
        <extensions>
          <ns3:TrackPointExtension>
            <ns3:hr>129</ns3:hr>
            <ns3:cad>0</ns3:cad>
          </ns3:TrackPointExtension>
        </extensions>
      </trkpt>
      <trkpt lat="37.77755166403949260711669921875" lon="-107.69920754246413707733154296875">
        <ele>3990.60009765625</ele>
        <time>2023-07-29T15:43:22.000Z</time>
        <extensions>
          <ns3:TrackPointExtension>
            <ns3:hr>129</ns3:hr>
            <ns3:cad>0</ns3:cad>
          </ns3:TrackPointExtension>
        </extensions>
      </trkpt>
      <trkpt lat="37.77755384333431720733642578125" lon="-107.69921424798667430877685546875">
        <ele>3990.800048828125</ele>
        <time>2023-07-29T15:43:23.000Z</time>
        <extensions>
          <ns3:TrackPointExtension>
            <ns3:hr>129</ns3:hr>
            <ns3:cad>0</ns3:cad>
          </ns3:TrackPointExtension>
        </extensions>
      </trkpt>
      <trkpt lat="37.777559459209442138671875" lon="-107.69922204315662384033203125">
        <ele>3991</ele>
        <time>2023-07-29T15:43:24.000Z</time>
        <extensions>
          <ns3:TrackPointExtension>
            <ns3:hr>129</ns3:hr>
            <ns3:cad>0</ns3:cad>
          </ns3:TrackPointExtension>
        </extensions>
      </trkpt>
      <trkpt lat="37.77756004594266414642333984375" lon="-107.6992232166230678558349609375">
        <ele>3991.199951171875</ele>
        <time>2023-07-29T15:43:25.000Z</time>
        <extensions>
          <ns3:TrackPointExtension>
            <ns3:hr>126</ns3:hr>
            <ns3:cad>0</ns3:cad>
          </ns3:TrackPointExtension>
        </extensions>
      </trkpt>
      <trkpt lat="37.77756306342780590057373046875" lon="-107.6992332749068737030029296875">
        <ele>3991.39990234375</ele>
        <time>2023-07-29T15:43:26.000Z</time>
        <extensions>
          <ns3:TrackPointExtension>
            <ns3:hr>125</ns3:hr>
            <ns3:cad>0</ns3:cad>
          </ns3:TrackPointExtension>
        </extensions>
      </trkpt>
      <trkpt lat="37.7775623090565204620361328125" lon="-107.69923520274460315704345703125">
        <ele>3991.800048828125</ele>
        <time>2023-07-29T15:43:27.000Z</time>
        <extensions>
          <ns3:TrackPointExtension>
            <ns3:hr>125</ns3:hr>
            <ns3:cad>0</ns3:cad>
          </ns3:TrackPointExtension>
        </extensions>
      </trkpt>
      <trkpt lat="37.77756557799875736236572265625" lon="-107.6992510445415973663330078125">
        <ele>3991.800048828125</ele>
        <time>2023-07-29T15:43:28.000Z</time>
        <extensions>
          <ns3:TrackPointExtension>
            <ns3:hr>124</ns3:hr>
            <ns3:cad>0</ns3:cad>
          </ns3:TrackPointExtension>
        </extensions>
      </trkpt>
      <trkpt lat="37.77757085859775543212890625" lon="-107.6992517150938510894775390625">
        <ele>3992</ele>
        <time>2023-07-29T15:43:29.000Z</time>
        <extensions>
          <ns3:TrackPointExtension>
            <ns3:hr>121</ns3:hr>
            <ns3:cad>0</ns3:cad>
          </ns3:TrackPointExtension>
        </extensions>
      </trkpt>
      <trkpt lat="37.77757312171161174774169921875" lon="-107.699245847761631011962890625">
        <ele>3992</ele>
        <time>2023-07-29T15:43:30.000Z</time>
        <extensions>
          <ns3:TrackPointExtension>
            <ns3:hr>120</ns3:hr>
            <ns3:cad>0</ns3:cad>
          </ns3:TrackPointExtension>
        </extensions>
      </trkpt>
      <trkpt lat="37.77757613919675350189208984375" lon="-107.69925045780837535858154296875">
        <ele>3992</ele>
        <time>2023-07-29T15:43:31.000Z</time>
        <extensions>
          <ns3:TrackPointExtension>
            <ns3:hr>120</ns3:hr>
            <ns3:cad>0</ns3:cad>
          </ns3:TrackPointExtension>
        </extensions>
      </trkpt>
      <trkpt lat="37.777575552463531494140625" lon="-107.6992602646350860595703125">
        <ele>3992</ele>
        <time>2023-07-29T15:43:32.000Z</time>
        <extensions>
          <ns3:TrackPointExtension>
            <ns3:hr>120</ns3:hr>
            <ns3:cad>0</ns3:cad>
          </ns3:TrackPointExtension>
        </extensions>
      </trkpt>
      <trkpt lat="37.7775767259299755096435546875" lon="-107.6992731727659702301025390625">
        <ele>3992</ele>
        <time>2023-07-29T15:43:33.000Z</time>
        <extensions>
          <ns3:TrackPointExtension>
            <ns3:hr>120</ns3:hr>
            <ns3:cad>0</ns3:cad>
          </ns3:TrackPointExtension>
        </extensions>
      </trkpt>
      <trkpt lat="37.77757622301578521728515625" lon="-107.6992815546691417694091796875">
        <ele>3991.800048828125</ele>
        <time>2023-07-29T15:43:34.000Z</time>
        <extensions>
          <ns3:TrackPointExtension>
            <ns3:hr>120</ns3:hr>
            <ns3:cad>0</ns3:cad>
          </ns3:TrackPointExtension>
        </extensions>
      </trkpt>
      <trkpt lat="37.7775757201015949249267578125" lon="-107.6992929540574550628662109375">
        <ele>3991.800048828125</ele>
        <time>2023-07-29T15:43:35.000Z</time>
        <extensions>
          <ns3:TrackPointExtension>
            <ns3:hr>121</ns3:hr>
            <ns3:cad>65</ns3:cad>
          </ns3:TrackPointExtension>
        </extensions>
      </trkpt>
      <trkpt lat="37.7775740437209606170654296875" lon="-107.699306197464466094970703125">
        <ele>3991.800048828125</ele>
        <time>2023-07-29T15:43:36.000Z</time>
        <extensions>
          <ns3:TrackPointExtension>
            <ns3:hr>121</ns3:hr>
            <ns3:cad>65</ns3:cad>
          </ns3:TrackPointExtension>
        </extensions>
      </trkpt>
      <trkpt lat="37.77757446281611919403076171875" lon="-107.699316255748271942138671875">
        <ele>3991.800048828125</ele>
        <time>2023-07-29T15:43:37.000Z</time>
        <extensions>
          <ns3:TrackPointExtension>
            <ns3:hr>121</ns3:hr>
            <ns3:cad>65</ns3:cad>
          </ns3:TrackPointExtension>
        </extensions>
      </trkpt>
      <trkpt lat="37.7775740437209606170654296875" lon="-107.69932036288082599639892578125">
        <ele>3991.60009765625</ele>
        <time>2023-07-29T15:43:38.000Z</time>
        <extensions>
          <ns3:TrackPointExtension>
            <ns3:hr>121</ns3:hr>
            <ns3:cad>65</ns3:cad>
          </ns3:TrackPointExtension>
        </extensions>
      </trkpt>
      <trkpt lat="37.77757479809224605560302734375" lon="-107.69932354800403118133544921875">
        <ele>3991.60009765625</ele>
        <time>2023-07-29T15:43:39.000Z</time>
        <extensions>
          <ns3:TrackPointExtension>
            <ns3:hr>120</ns3:hr>
            <ns3:cad>0</ns3:cad>
          </ns3:TrackPointExtension>
        </extensions>
      </trkpt>
      <trkpt lat="37.77757613919675350189208984375" lon="-107.69932539202272891998291015625">
        <ele>3991.39990234375</ele>
        <time>2023-07-29T15:43:40.000Z</time>
        <extensions>
          <ns3:TrackPointExtension>
            <ns3:hr>118</ns3:hr>
            <ns3:cad>0</ns3:cad>
          </ns3:TrackPointExtension>
        </extensions>
      </trkpt>
      <trkpt lat="37.7775787375867366790771484375" lon="-107.6993298344314098358154296875">
        <ele>3991.39990234375</ele>
        <time>2023-07-29T15:43:41.000Z</time>
        <extensions>
          <ns3:TrackPointExtension>
            <ns3:hr>118</ns3:hr>
            <ns3:cad>0</ns3:cad>
          </ns3:TrackPointExtension>
        </extensions>
      </trkpt>
      <trkpt lat="37.77758116833865642547607421875" lon="-107.69933628849685192108154296875">
        <ele>3991.39990234375</ele>
        <time>2023-07-29T15:43:42.000Z</time>
        <extensions>
          <ns3:TrackPointExtension>
            <ns3:hr>118</ns3:hr>
            <ns3:cad>0</ns3:cad>
          </ns3:TrackPointExtension>
        </extensions>
      </trkpt>
      <trkpt lat="37.777585275471210479736328125" lon="-107.6993419043719768524169921875">
        <ele>3991.39990234375</ele>
        <time>2023-07-29T15:43:43.000Z</time>
        <extensions>
          <ns3:TrackPointExtension>
            <ns3:hr>118</ns3:hr>
            <ns3:cad>0</ns3:cad>
          </ns3:TrackPointExtension>
        </extensions>
      </trkpt>
      <trkpt lat="37.77758988551795482635498046875" lon="-107.6993556506931781768798828125">
        <ele>3991.39990234375</ele>
        <time>2023-07-29T15:43:44.000Z</time>
        <extensions>
          <ns3:TrackPointExtension>
            <ns3:hr>118</ns3:hr>
            <ns3:cad>0</ns3:cad>
          </ns3:TrackPointExtension>
        </extensions>
      </trkpt>
      <trkpt lat="37.777594663202762603759765625" lon="-107.69937048666179180145263671875">
        <ele>3991.39990234375</ele>
        <time>2023-07-29T15:43:45.000Z</time>
        <extensions>
          <ns3:TrackPointExtension>
            <ns3:hr>118</ns3:hr>
            <ns3:cad>0</ns3:cad>
          </ns3:TrackPointExtension>
        </extensions>
      </trkpt>
      <trkpt lat="37.77759809978306293487548828125" lon="-107.69938222132623195648193359375">
        <ele>3991.39990234375</ele>
        <time>2023-07-29T15:43:46.000Z</time>
        <extensions>
          <ns3:TrackPointExtension>
            <ns3:hr>117</ns3:hr>
            <ns3:cad>0</ns3:cad>
          </ns3:TrackPointExtension>
        </extensions>
      </trkpt>
      <trkpt lat="37.77760170400142669677734375" lon="-107.69938926212489604949951171875">
        <ele>3991.39990234375</ele>
        <time>2023-07-29T15:43:47.000Z</time>
        <extensions>
          <ns3:TrackPointExtension>
            <ns3:hr>118</ns3:hr>
            <ns3:cad>0</ns3:cad>
          </ns3:TrackPointExtension>
        </extensions>
      </trkpt>
      <trkpt lat="37.77760447002947330474853515625" lon="-107.6993970572948455810546875">
        <ele>3991.39990234375</ele>
        <time>2023-07-29T15:43:48.000Z</time>
        <extensions>
          <ns3:TrackPointExtension>
            <ns3:hr>118</ns3:hr>
            <ns3:cad>0</ns3:cad>
          </ns3:TrackPointExtension>
        </extensions>
      </trkpt>
      <trkpt lat="37.77760832570493221282958984375" lon="-107.6994046010076999664306640625">
        <ele>3991.39990234375</ele>
        <time>2023-07-29T15:43:49.000Z</time>
        <extensions>
          <ns3:TrackPointExtension>
            <ns3:hr>119</ns3:hr>
            <ns3:cad>0</ns3:cad>
          </ns3:TrackPointExtension>
        </extensions>
      </trkpt>
      <trkpt lat="37.7776069007813930511474609375" lon="-107.69940443336963653564453125">
        <ele>3991.199951171875</ele>
        <time>2023-07-29T15:43:50.000Z</time>
        <extensions>
          <ns3:TrackPointExtension>
            <ns3:hr>120</ns3:hr>
            <ns3:cad>0</ns3:cad>
          </ns3:TrackPointExtension>
        </extensions>
      </trkpt>
      <trkpt lat="37.77760480530560016632080078125" lon="-107.6994052715599536895751953125">
        <ele>3991.199951171875</ele>
        <time>2023-07-29T15:43:51.000Z</time>
        <extensions>
          <ns3:TrackPointExtension>
            <ns3:hr>121</ns3:hr>
            <ns3:cad>0</ns3:cad>
          </ns3:TrackPointExtension>
        </extensions>
      </trkpt>
      <trkpt lat="37.77760363183915615081787109375" lon="-107.69941784441471099853515625">
        <ele>3991</ele>
        <time>2023-07-29T15:43:52.000Z</time>
        <extensions>
          <ns3:TrackPointExtension>
            <ns3:hr>121</ns3:hr>
            <ns3:cad>0</ns3:cad>
          </ns3:TrackPointExtension>
        </extensions>
      </trkpt>
      <trkpt lat="37.77759969234466552734375" lon="-107.699418850243091583251953125">
        <ele>3991</ele>
        <time>2023-07-29T15:43:53.000Z</time>
        <extensions>
          <ns3:TrackPointExtension>
            <ns3:hr>121</ns3:hr>
            <ns3:cad>0</ns3:cad>
          </ns3:TrackPointExtension>
        </extensions>
      </trkpt>
      <trkpt lat="37.77759633958339691162109375" lon="-107.69942111335694789886474609375">
        <ele>3991</ele>
        <time>2023-07-29T15:43:54.000Z</time>
        <extensions>
          <ns3:TrackPointExtension>
            <ns3:hr>121</ns3:hr>
            <ns3:cad>0</ns3:cad>
          </ns3:TrackPointExtension>
        </extensions>
      </trkpt>
      <trkpt lat="37.77759390883147716522216796875" lon="-107.69942513667047023773193359375">
        <ele>3991</ele>
        <time>2023-07-29T15:43:55.000Z</time>
        <extensions>
          <ns3:TrackPointExtension>
            <ns3:hr>121</ns3:hr>
            <ns3:cad>0</ns3:cad>
          </ns3:TrackPointExtension>
        </extensions>
      </trkpt>
      <trkpt lat="37.77759307064116001129150390625" lon="-107.69942329265177249908447265625">
        <ele>3991</ele>
        <time>2023-07-29T15:43:56.000Z</time>
        <extensions>
          <ns3:TrackPointExtension>
            <ns3:hr>120</ns3:hr>
            <ns3:cad>0</ns3:cad>
          </ns3:TrackPointExtension>
        </extensions>
      </trkpt>
      <trkpt lat="37.7775908075273036956787109375" lon="-107.6994247175753116607666015625">
        <ele>3991</ele>
        <time>2023-07-29T15:43:57.000Z</time>
        <extensions>
          <ns3:TrackPointExtension>
            <ns3:hr>120</ns3:hr>
            <ns3:cad>0</ns3:cad>
          </ns3:TrackPointExtension>
        </extensions>
      </trkpt>
      <trkpt lat="37.77758452109992504119873046875" lon="-107.69942798651754856109619140625">
        <ele>3991</ele>
        <time>2023-07-29T15:43:58.000Z</time>
        <extensions>
          <ns3:TrackPointExtension>
            <ns3:hr>119</ns3:hr>
            <ns3:cad>0</ns3:cad>
          </ns3:TrackPointExtension>
        </extensions>
      </trkpt>
      <trkpt lat="37.7775742113590240478515625" lon="-107.69942999817430973052978515625">
        <ele>3990.60009765625</ele>
        <time>2023-07-29T15:43:59.000Z</time>
        <extensions>
          <ns3:TrackPointExtension>
            <ns3:hr>119</ns3:hr>
            <ns3:cad>0</ns3:cad>
          </ns3:TrackPointExtension>
        </extensions>
      </trkpt>
      <trkpt lat="37.77755870483815670013427734375" lon="-107.699436955153942108154296875">
        <ele>3990.60009765625</ele>
        <time>2023-07-29T15:44:00.000Z</time>
        <extensions>
          <ns3:TrackPointExtension>
            <ns3:hr>118</ns3:hr>
            <ns3:cad>0</ns3:cad>
          </ns3:TrackPointExtension>
        </extensions>
      </trkpt>
      <trkpt lat="37.77755702845752239227294921875" lon="-107.69943821243941783905029296875">
        <ele>3990.39990234375</ele>
        <time>2023-07-29T15:44:01.000Z</time>
        <extensions>
          <ns3:TrackPointExtension>
            <ns3:hr>118</ns3:hr>
            <ns3:cad>0</ns3:cad>
          </ns3:TrackPointExtension>
        </extensions>
      </trkpt>
      <trkpt lat="37.7775492332875728607177734375" lon="-107.69944357685744762420654296875">
        <ele>3990.39990234375</ele>
        <time>2023-07-29T15:44:02.000Z</time>
        <extensions>
          <ns3:TrackPointExtension>
            <ns3:hr>117</ns3:hr>
            <ns3:cad>0</ns3:cad>
          </ns3:TrackPointExtension>
        </extensions>
      </trkpt>
      <trkpt lat="37.77754412032663822174072265625" lon="-107.69944667816162109375">
        <ele>3990.199951171875</ele>
        <time>2023-07-29T15:44:03.000Z</time>
        <extensions>
          <ns3:TrackPointExtension>
            <ns3:hr>117</ns3:hr>
            <ns3:cad>0</ns3:cad>
          </ns3:TrackPointExtension>
        </extensions>
      </trkpt>
      <trkpt lat="37.7775425277650356292724609375" lon="-107.69944600760936737060546875">
        <ele>3990</ele>
        <time>2023-07-29T15:44:04.000Z</time>
        <extensions>
          <ns3:TrackPointExtension>
            <ns3:hr>116</ns3:hr>
            <ns3:cad>0</ns3:cad>
          </ns3:TrackPointExtension>
        </extensions>
      </trkpt>
      <trkpt lat="37.77753640897572040557861328125" lon="-107.69944793544709682464599609375">
        <ele>3989.800048828125</ele>
        <time>2023-07-29T15:44:05.000Z</time>
        <extensions>
          <ns3:TrackPointExtension>
            <ns3:hr>116</ns3:hr>
            <ns3:cad>0</ns3:cad>
          </ns3:TrackPointExtension>
        </extensions>
      </trkpt>
      <trkpt lat="37.77753741480410099029541015625" lon="-107.6994451694190502166748046875">
        <ele>3989.800048828125</ele>
        <time>2023-07-29T15:44:06.000Z</time>
        <extensions>
          <ns3:TrackPointExtension>
            <ns3:hr>115</ns3:hr>
            <ns3:cad>0</ns3:cad>
          </ns3:TrackPointExtension>
        </extensions>
      </trkpt>
      <trkpt lat="37.77753439731895923614501953125" lon="-107.69944877363741397857666015625">
        <ele>3989.60009765625</ele>
        <time>2023-07-29T15:44:07.000Z</time>
        <extensions>
          <ns3:TrackPointExtension>
            <ns3:hr>115</ns3:hr>
            <ns3:cad>0</ns3:cad>
          </ns3:TrackPointExtension>
        </extensions>
      </trkpt>
      <trkpt lat="37.77752785943448543548583984375" lon="-107.6994560658931732177734375">
        <ele>3989.60009765625</ele>
        <time>2023-07-29T15:44:08.000Z</time>
        <extensions>
          <ns3:TrackPointExtension>
            <ns3:hr>114</ns3:hr>
            <ns3:cad>0</ns3:cad>
          </ns3:TrackPointExtension>
        </extensions>
      </trkpt>
      <trkpt lat="37.777525596320629119873046875" lon="-107.6994572393596172332763671875">
        <ele>3989.39990234375</ele>
        <time>2023-07-29T15:44:09.000Z</time>
        <extensions>
          <ns3:TrackPointExtension>
            <ns3:hr>114</ns3:hr>
            <ns3:cad>0</ns3:cad>
          </ns3:TrackPointExtension>
        </extensions>
      </trkpt>
      <trkpt lat="37.77752618305385112762451171875" lon="-107.699457742273807525634765625">
        <ele>3989.39990234375</ele>
        <time>2023-07-29T15:44:10.000Z</time>
        <extensions>
          <ns3:TrackPointExtension>
            <ns3:hr>114</ns3:hr>
            <ns3:cad>0</ns3:cad>
          </ns3:TrackPointExtension>
        </extensions>
      </trkpt>
      <trkpt lat="37.777525596320629119873046875" lon="-107.6994575746357440948486328125">
        <ele>3989</ele>
        <time>2023-07-29T15:44:11.000Z</time>
        <extensions>
          <ns3:TrackPointExtension>
            <ns3:hr>113</ns3:hr>
            <ns3:cad>0</ns3:cad>
          </ns3:TrackPointExtension>
        </extensions>
      </trkpt>
      <trkpt lat="37.77752718888223171234130859375" lon="-107.699458412826061248779296875">
        <ele>3988.800048828125</ele>
        <time>2023-07-29T15:44:12.000Z</time>
        <extensions>
          <ns3:TrackPointExtension>
            <ns3:hr>113</ns3:hr>
            <ns3:cad>0</ns3:cad>
          </ns3:TrackPointExtension>
        </extensions>
      </trkpt>
      <trkpt lat="37.7775294519960880279541015625" lon="-107.6994592510163784027099609375">
        <ele>3988.60009765625</ele>
        <time>2023-07-29T15:44:13.000Z</time>
        <extensions>
          <ns3:TrackPointExtension>
            <ns3:hr>112</ns3:hr>
            <ns3:cad>0</ns3:cad>
          </ns3:TrackPointExtension>
        </extensions>
      </trkpt>
      <trkpt lat="37.77753054164350032806396484375" lon="-107.69946436397731304168701171875">
        <ele>3988.39990234375</ele>
        <time>2023-07-29T15:44:14.000Z</time>
        <extensions>
          <ns3:TrackPointExtension>
            <ns3:hr>112</ns3:hr>
            <ns3:cad>0</ns3:cad>
          </ns3:TrackPointExtension>
        </extensions>
      </trkpt>
      <trkpt lat="37.77753272093832492828369140625" lon="-107.699468135833740234375">
        <ele>3988.199951171875</ele>
        <time>2023-07-29T15:44:15.000Z</time>
        <extensions>
          <ns3:TrackPointExtension>
            <ns3:hr>112</ns3:hr>
            <ns3:cad>0</ns3:cad>
          </ns3:TrackPointExtension>
        </extensions>
      </trkpt>
      <trkpt lat="37.77754269540309906005859375" lon="-107.69946302287280559539794921875">
        <ele>3988.199951171875</ele>
        <time>2023-07-29T15:44:16.000Z</time>
        <extensions>
          <ns3:TrackPointExtension>
            <ns3:hr>111</ns3:hr>
            <ns3:cad>0</ns3:cad>
          </ns3:TrackPointExtension>
        </extensions>
      </trkpt>
      <trkpt lat="37.77754780836403369903564453125" lon="-107.6994676329195499420166015625">
        <ele>3987.800048828125</ele>
        <time>2023-07-29T15:44:17.000Z</time>
        <extensions>
          <ns3:TrackPointExtension>
            <ns3:hr>111</ns3:hr>
            <ns3:cad>0</ns3:cad>
          </ns3:TrackPointExtension>
        </extensions>
      </trkpt>
      <trkpt lat="37.77755602262914180755615234375" lon="-107.6994763500988483428955078125">
        <ele>3987.60009765625</ele>
        <time>2023-07-29T15:44:18.000Z</time>
        <extensions>
          <ns3:TrackPointExtension>
            <ns3:hr>110</ns3:hr>
            <ns3:cad>0</ns3:cad>
          </ns3:TrackPointExtension>
        </extensions>
      </trkpt>
      <trkpt lat="37.77756281197071075439453125" lon="-107.69948364235460758209228515625">
        <ele>3987.60009765625</ele>
        <time>2023-07-29T15:44:19.000Z</time>
        <extensions>
          <ns3:TrackPointExtension>
            <ns3:hr>110</ns3:hr>
            <ns3:cad>0</ns3:cad>
          </ns3:TrackPointExtension>
        </extensions>
      </trkpt>
      <trkpt lat="37.7775634825229644775390625" lon="-107.69948582164943218231201171875">
        <ele>3987.39990234375</ele>
        <time>2023-07-29T15:44:20.000Z</time>
        <extensions>
          <ns3:TrackPointExtension>
            <ns3:hr>110</ns3:hr>
            <ns3:cad>0</ns3:cad>
          </ns3:TrackPointExtension>
        </extensions>
      </trkpt>
      <trkpt lat="37.77756775729358196258544921875" lon="-107.6994917728006839752197265625">
        <ele>3987.199951171875</ele>
        <time>2023-07-29T15:44:21.000Z</time>
        <extensions>
          <ns3:TrackPointExtension>
            <ns3:hr>109</ns3:hr>
            <ns3:cad>0</ns3:cad>
          </ns3:TrackPointExtension>
        </extensions>
      </trkpt>
      <trkpt lat="37.77757278643548488616943359375" lon="-107.6995011605322360992431640625">
        <ele>3987.199951171875</ele>
        <time>2023-07-29T15:44:22.000Z</time>
        <extensions>
          <ns3:TrackPointExtension>
            <ns3:hr>109</ns3:hr>
            <ns3:cad>0</ns3:cad>
          </ns3:TrackPointExtension>
        </extensions>
      </trkpt>
      <trkpt lat="37.7775794081389904022216796875" lon="-107.6995068602263927459716796875">
        <ele>3987</ele>
        <time>2023-07-29T15:44:23.000Z</time>
        <extensions>
          <ns3:TrackPointExtension>
            <ns3:hr>109</ns3:hr>
            <ns3:cad>0</ns3:cad>
          </ns3:TrackPointExtension>
        </extensions>
      </trkpt>
      <trkpt lat="37.77757714502513408660888671875" lon="-107.69950694404542446136474609375">
        <ele>3986.800048828125</ele>
        <time>2023-07-29T15:44:24.000Z</time>
        <extensions>
          <ns3:TrackPointExtension>
            <ns3:hr>109</ns3:hr>
            <ns3:cad>0</ns3:cad>
          </ns3:TrackPointExtension>
        </extensions>
      </trkpt>
      <trkpt lat="37.777573876082897186279296875" lon="-107.69950694404542446136474609375">
        <ele>3986.60009765625</ele>
        <time>2023-07-29T15:44:25.000Z</time>
        <extensions>
          <ns3:TrackPointExtension>
            <ns3:hr>109</ns3:hr>
            <ns3:cad>0</ns3:cad>
          </ns3:TrackPointExtension>
        </extensions>
      </trkpt>
      <trkpt lat="37.77757479809224605560302734375" lon="-107.6995112188160419464111328125">
        <ele>3986.60009765625</ele>
        <time>2023-07-29T15:44:26.000Z</time>
        <extensions>
          <ns3:TrackPointExtension>
            <ns3:hr>109</ns3:hr>
            <ns3:cad>0</ns3:cad>
          </ns3:TrackPointExtension>
        </extensions>
      </trkpt>
      <trkpt lat="37.77757085859775543212890625" lon="-107.6995150744915008544921875">
        <ele>3986.60009765625</ele>
        <time>2023-07-29T15:44:27.000Z</time>
        <extensions>
          <ns3:TrackPointExtension>
            <ns3:hr>108</ns3:hr>
            <ns3:cad>0</ns3:cad>
          </ns3:TrackPointExtension>
        </extensions>
      </trkpt>
      <trkpt lat="37.77756943367421627044677734375" lon="-107.699516750872135162353515625">
        <ele>3986.60009765625</ele>
        <time>2023-07-29T15:44:28.000Z</time>
        <extensions>
          <ns3:TrackPointExtension>
            <ns3:hr>108</ns3:hr>
            <ns3:cad>0</ns3:cad>
          </ns3:TrackPointExtension>
        </extensions>
      </trkpt>
      <trkpt lat="37.77756951749324798583984375" lon="-107.69951800815761089324951171875">
        <ele>3986.60009765625</ele>
        <time>2023-07-29T15:44:29.000Z</time>
        <extensions>
          <ns3:TrackPointExtension>
            <ns3:hr>107</ns3:hr>
            <ns3:cad>0</ns3:cad>
          </ns3:TrackPointExtension>
        </extensions>
      </trkpt>
      <trkpt lat="37.7775720320641994476318359375" lon="-107.699512057006359100341796875">
        <ele>3986.800048828125</ele>
        <time>2023-07-29T15:44:30.000Z</time>
        <extensions>
          <ns3:TrackPointExtension>
            <ns3:hr>107</ns3:hr>
            <ns3:cad>0</ns3:cad>
          </ns3:TrackPointExtension>
        </extensions>
      </trkpt>
      <trkpt lat="37.77757111005485057830810546875" lon="-107.69951750524342060089111328125">
        <ele>3986.800048828125</ele>
        <time>2023-07-29T15:44:31.000Z</time>
        <extensions>
          <ns3:TrackPointExtension>
            <ns3:hr>106</ns3:hr>
            <ns3:cad>0</ns3:cad>
          </ns3:TrackPointExtension>
        </extensions>
      </trkpt>
      <trkpt lat="37.7775688469409942626953125" lon="-107.69951968453824520111083984375">
        <ele>3986.800048828125</ele>
        <time>2023-07-29T15:44:32.000Z</time>
        <extensions>
          <ns3:TrackPointExtension>
            <ns3:hr>106</ns3:hr>
            <ns3:cad>0</ns3:cad>
          </ns3:TrackPointExtension>
        </extensions>
      </trkpt>
      <trkpt lat="37.77756691910326480865478515625" lon="-107.69951976835727691650390625">
        <ele>3986.800048828125</ele>
        <time>2023-07-29T15:44:33.000Z</time>
        <extensions>
          <ns3:TrackPointExtension>
            <ns3:hr>106</ns3:hr>
            <ns3:cad>0</ns3:cad>
          </ns3:TrackPointExtension>
        </extensions>
      </trkpt>
      <trkpt lat="37.7775666676461696624755859375" lon="-107.69951968453824520111083984375">
        <ele>3986.800048828125</ele>
        <time>2023-07-29T15:44:34.000Z</time>
        <extensions>
          <ns3:TrackPointExtension>
            <ns3:hr>105</ns3:hr>
            <ns3:cad>0</ns3:cad>
          </ns3:TrackPointExtension>
        </extensions>
      </trkpt>
      <trkpt lat="37.7775670029222965240478515625" lon="-107.6995253004133701324462890625">
        <ele>3986.800048828125</ele>
        <time>2023-07-29T15:44:35.000Z</time>
        <extensions>
          <ns3:TrackPointExtension>
            <ns3:hr>104</ns3:hr>
            <ns3:cad>0</ns3:cad>
          </ns3:TrackPointExtension>
        </extensions>
      </trkpt>
      <trkpt lat="37.77756624855101108551025390625" lon="-107.6995310001075267791748046875">
        <ele>3986.800048828125</ele>
        <time>2023-07-29T15:44:36.000Z</time>
        <extensions>
          <ns3:TrackPointExtension>
            <ns3:hr>104</ns3:hr>
            <ns3:cad>0</ns3:cad>
          </ns3:TrackPointExtension>
        </extensions>
      </trkpt>
      <trkpt lat="37.7775673381984233856201171875" lon="-107.699540220201015472412109375">
        <ele>3986.60009765625</ele>
        <time>2023-07-29T15:44:37.000Z</time>
        <extensions>
          <ns3:TrackPointExtension>
            <ns3:hr>103</ns3:hr>
            <ns3:cad>0</ns3:cad>
          </ns3:TrackPointExtension>
        </extensions>
      </trkpt>
      <trkpt lat="37.77757060714066028594970703125" lon="-107.69954524934291839599609375">
        <ele>3986.60009765625</ele>
        <time>2023-07-29T15:44:38.000Z</time>
        <extensions>
          <ns3:TrackPointExtension>
            <ns3:hr>102</ns3:hr>
            <ns3:cad>0</ns3:cad>
          </ns3:TrackPointExtension>
        </extensions>
      </trkpt>
      <trkpt lat="37.7775740437209606170654296875" lon="-107.69954432733356952667236328125">
        <ele>3986.60009765625</ele>
        <time>2023-07-29T15:44:39.000Z</time>
        <extensions>
          <ns3:TrackPointExtension>
            <ns3:hr>102</ns3:hr>
            <ns3:cad>0</ns3:cad>
          </ns3:TrackPointExtension>
        </extensions>
      </trkpt>
      <trkpt lat="37.77757781557738780975341796875" lon="-107.6995440758764743804931640625">
        <ele>3986.60009765625</ele>
        <time>2023-07-29T15:44:40.000Z</time>
        <extensions>
          <ns3:TrackPointExtension>
            <ns3:hr>102</ns3:hr>
            <ns3:cad>0</ns3:cad>
          </ns3:TrackPointExtension>
        </extensions>
      </trkpt>
      <trkpt lat="37.77758100070059299468994140625" lon="-107.6995430700480937957763671875">
        <ele>3986.800048828125</ele>
        <time>2023-07-29T15:44:41.000Z</time>
        <extensions>
          <ns3:TrackPointExtension>
            <ns3:hr>102</ns3:hr>
            <ns3:cad>0</ns3:cad>
          </ns3:TrackPointExtension>
        </extensions>
      </trkpt>
      <trkpt lat="37.77758183889091014862060546875" lon="-107.6995377056300640106201171875">
        <ele>3986.800048828125</ele>
        <time>2023-07-29T15:44:42.000Z</time>
        <extensions>
          <ns3:TrackPointExtension>
            <ns3:hr>101</ns3:hr>
            <ns3:cad>0</ns3:cad>
          </ns3:TrackPointExtension>
        </extensions>
      </trkpt>
      <trkpt lat="37.77758024632930755615234375" lon="-107.69952915608882904052734375">
        <ele>3986.800048828125</ele>
        <time>2023-07-29T15:44:43.000Z</time>
        <extensions>
          <ns3:TrackPointExtension>
            <ns3:hr>101</ns3:hr>
            <ns3:cad>0</ns3:cad>
          </ns3:TrackPointExtension>
        </extensions>
      </trkpt>
      <trkpt lat="37.77757580392062664031982421875" lon="-107.699528820812702178955078125">
        <ele>3986.800048828125</ele>
        <time>2023-07-29T15:44:44.000Z</time>
        <extensions>
          <ns3:TrackPointExtension>
            <ns3:hr>101</ns3:hr>
            <ns3:cad>0</ns3:cad>
          </ns3:TrackPointExtension>
        </extensions>
      </trkpt>
      <trkpt lat="37.77757597155869007110595703125" lon="-107.69953326322138309478759765625">
        <ele>3986.800048828125</ele>
        <time>2023-07-29T15:44:45.000Z</time>
        <extensions>
          <ns3:TrackPointExtension>
            <ns3:hr>101</ns3:hr>
            <ns3:cad>0</ns3:cad>
          </ns3:TrackPointExtension>
        </extensions>
      </trkpt>
      <trkpt lat="37.77758167125284671783447265625" lon="-107.69954164512455463409423828125">
        <ele>3986.800048828125</ele>
        <time>2023-07-29T15:44:46.000Z</time>
        <extensions>
          <ns3:TrackPointExtension>
            <ns3:hr>101</ns3:hr>
            <ns3:cad>0</ns3:cad>
          </ns3:TrackPointExtension>
        </extensions>
      </trkpt>
      <trkpt lat="37.77758737094700336456298828125" lon="-107.699548266828060150146484375">
        <ele>3986.800048828125</ele>
        <time>2023-07-29T15:44:47.000Z</time>
        <extensions>
          <ns3:TrackPointExtension>
            <ns3:hr>101</ns3:hr>
            <ns3:cad>0</ns3:cad>
          </ns3:TrackPointExtension>
        </extensions>
      </trkpt>
      <trkpt lat="37.7775884605944156646728515625" lon="-107.69955463707447052001953125">
        <ele>3986.60009765625</ele>
        <time>2023-07-29T15:44:48.000Z</time>
        <extensions>
          <ns3:TrackPointExtension>
            <ns3:hr>101</ns3:hr>
            <ns3:cad>0</ns3:cad>
          </ns3:TrackPointExtension>
        </extensions>
      </trkpt>
      <trkpt lat="37.777592651546001434326171875" lon="-107.6995611749589443206787109375">
        <ele>3986.199951171875</ele>
        <time>2023-07-29T15:44:49.000Z</time>
        <extensions>
          <ns3:TrackPointExtension>
            <ns3:hr>101</ns3:hr>
            <ns3:cad>0</ns3:cad>
          </ns3:TrackPointExtension>
        </extensions>
      </trkpt>
      <trkpt lat="37.777596674859523773193359375" lon="-107.69956427626311779022216796875">
        <ele>3986</ele>
        <time>2023-07-29T15:44:50.000Z</time>
        <extensions>
          <ns3:TrackPointExtension>
            <ns3:hr>102</ns3:hr>
            <ns3:cad>0</ns3:cad>
          </ns3:TrackPointExtension>
        </extensions>
      </trkpt>
      <trkpt lat="37.7775981836020946502685546875" lon="-107.69956394098699092864990234375">
        <ele>3985.800048828125</ele>
        <time>2023-07-29T15:44:51.000Z</time>
        <extensions>
          <ns3:TrackPointExtension>
            <ns3:hr>102</ns3:hr>
            <ns3:cad>0</ns3:cad>
          </ns3:TrackPointExtension>
        </extensions>
      </trkpt>
      <trkpt lat="37.7775988541543483734130859375" lon="-107.69956444390118122100830078125">
        <ele>3985.60009765625</ele>
        <time>2023-07-29T15:44:52.000Z</time>
        <extensions>
          <ns3:TrackPointExtension>
            <ns3:hr>101</ns3:hr>
            <ns3:cad>0</ns3:cad>
          </ns3:TrackPointExtension>
        </extensions>
      </trkpt>
      <trkpt lat="37.777600027620792388916015625" lon="-107.69956327043473720550537109375">
        <ele>3985.199951171875</ele>
        <time>2023-07-29T15:44:53.000Z</time>
        <extensions>
          <ns3:TrackPointExtension>
            <ns3:hr>103</ns3:hr>
            <ns3:cad>0</ns3:cad>
          </ns3:TrackPointExtension>
        </extensions>
      </trkpt>
      <trkpt lat="37.77760438621044158935546875" lon="-107.6995688863098621368408203125">
        <ele>3985.199951171875</ele>
        <time>2023-07-29T15:44:54.000Z</time>
        <extensions>
          <ns3:TrackPointExtension>
            <ns3:hr>102</ns3:hr>
            <ns3:cad>0</ns3:cad>
          </ns3:TrackPointExtension>
        </extensions>
      </trkpt>
      <trkpt lat="37.77761318720877170562744140625" lon="-107.69957617856562137603759765625">
        <ele>3985</ele>
        <time>2023-07-29T15:44:55.000Z</time>
        <extensions>
          <ns3:TrackPointExtension>
            <ns3:hr>101</ns3:hr>
            <ns3:cad>0</ns3:cad>
          </ns3:TrackPointExtension>
        </extensions>
      </trkpt>
      <trkpt lat="37.77762056328356266021728515625" lon="-107.69958338700234889984130859375">
        <ele>3984.800048828125</ele>
        <time>2023-07-29T15:44:56.000Z</time>
        <extensions>
          <ns3:TrackPointExtension>
            <ns3:hr>101</ns3:hr>
            <ns3:cad>0</ns3:cad>
          </ns3:TrackPointExtension>
        </extensions>
      </trkpt>
      <trkpt lat="37.77762726880609989166259765625" lon="-107.6995903439819812774658203125">
        <ele>3984.39990234375</ele>
        <time>2023-07-29T15:44:57.000Z</time>
        <extensions>
          <ns3:TrackPointExtension>
            <ns3:hr>101</ns3:hr>
            <ns3:cad>0</ns3:cad>
          </ns3:TrackPointExtension>
        </extensions>
      </trkpt>
      <trkpt lat="37.7776353992521762847900390625" lon="-107.6995973847806453704833984375">
        <ele>3984.39990234375</ele>
        <time>2023-07-29T15:44:58.000Z</time>
        <extensions>
          <ns3:TrackPointExtension>
            <ns3:hr>102</ns3:hr>
            <ns3:cad>0</ns3:cad>
          </ns3:TrackPointExtension>
        </extensions>
      </trkpt>
      <trkpt lat="37.77764260768890380859375" lon="-107.6996054314076900482177734375">
        <ele>3984.39990234375</ele>
        <time>2023-07-29T15:44:59.000Z</time>
        <extensions>
          <ns3:TrackPointExtension>
            <ns3:hr>103</ns3:hr>
            <ns3:cad>0</ns3:cad>
          </ns3:TrackPointExtension>
        </extensions>
      </trkpt>
      <trkpt lat="37.77765057049691677093505859375" lon="-107.6996116340160369873046875">
        <ele>3984.199951171875</ele>
        <time>2023-07-29T15:45:00.000Z</time>
        <extensions>
          <ns3:TrackPointExtension>
            <ns3:hr>104</ns3:hr>
            <ns3:cad>0</ns3:cad>
          </ns3:TrackPointExtension>
        </extensions>
      </trkpt>
      <trkpt lat="37.7776598744094371795654296875" lon="-107.6996195130050182342529296875">
        <ele>3984</ele>
        <time>2023-07-29T15:45:01.000Z</time>
        <extensions>
          <ns3:TrackPointExtension>
            <ns3:hr>105</ns3:hr>
            <ns3:cad>0</ns3:cad>
          </ns3:TrackPointExtension>
        </extensions>
      </trkpt>
      <trkpt lat="37.77767680585384368896484375" lon="-107.69963317550718784332275390625">
        <ele>3983.800048828125</ele>
        <time>2023-07-29T15:45:02.000Z</time>
        <extensions>
          <ns3:TrackPointExtension>
            <ns3:hr>106</ns3:hr>
            <ns3:cad>0</ns3:cad>
          </ns3:TrackPointExtension>
        </extensions>
      </trkpt>
      <trkpt lat="37.77768778614699840545654296875" lon="-107.699642479419708251953125">
        <ele>3983.800048828125</ele>
        <time>2023-07-29T15:45:03.000Z</time>
        <extensions>
          <ns3:TrackPointExtension>
            <ns3:hr>106</ns3:hr>
            <ns3:cad>0</ns3:cad>
          </ns3:TrackPointExtension>
        </extensions>
      </trkpt>
      <trkpt lat="37.77769767679274082183837890625" lon="-107.69964910112321376800537109375">
        <ele>3983.60009765625</ele>
        <time>2023-07-29T15:45:04.000Z</time>
        <extensions>
          <ns3:TrackPointExtension>
            <ns3:hr>105</ns3:hr>
            <ns3:cad>0</ns3:cad>
          </ns3:TrackPointExtension>
        </extensions>
      </trkpt>
      <trkpt lat="37.7777021192014217376708984375" lon="-107.69965387880802154541015625">
        <ele>3983.39990234375</ele>
        <time>2023-07-29T15:45:05.000Z</time>
        <extensions>
          <ns3:TrackPointExtension>
            <ns3:hr>105</ns3:hr>
            <ns3:cad>0</ns3:cad>
          </ns3:TrackPointExtension>
        </extensions>
      </trkpt>
      <trkpt lat="37.7777110040187835693359375" lon="-107.699658237397670745849609375">
        <ele>3983</ele>
        <time>2023-07-29T15:45:06.000Z</time>
        <extensions>
          <ns3:TrackPointExtension>
            <ns3:hr>105</ns3:hr>
            <ns3:cad>0</ns3:cad>
          </ns3:TrackPointExtension>
        </extensions>
      </trkpt>
      <trkpt lat="37.77771427296102046966552734375" lon="-107.69966016523540019989013671875">
        <ele>3982.800048828125</ele>
        <time>2023-07-29T15:45:07.000Z</time>
        <extensions>
          <ns3:TrackPointExtension>
            <ns3:hr>105</ns3:hr>
            <ns3:cad>0</ns3:cad>
          </ns3:TrackPointExtension>
        </extensions>
      </trkpt>
      <trkpt lat="37.77772106230258941650390625" lon="-107.69966594874858856201171875">
        <ele>3982.60009765625</ele>
        <time>2023-07-29T15:45:08.000Z</time>
        <extensions>
          <ns3:TrackPointExtension>
            <ns3:hr>104</ns3:hr>
            <ns3:cad>0</ns3:cad>
          </ns3:TrackPointExtension>
        </extensions>
      </trkpt>
      <trkpt lat="37.77772701345384120941162109375" lon="-107.6996714808046817779541015625">
        <ele>3982.60009765625</ele>
        <time>2023-07-29T15:45:09.000Z</time>
        <extensions>
          <ns3:TrackPointExtension>
            <ns3:hr>104</ns3:hr>
            <ns3:cad>0</ns3:cad>
          </ns3:TrackPointExtension>
        </extensions>
      </trkpt>
      <trkpt lat="37.77773506008088588714599609375" lon="-107.6996786892414093017578125">
        <ele>3982.60009765625</ele>
        <time>2023-07-29T15:45:10.000Z</time>
        <extensions>
          <ns3:TrackPointExtension>
            <ns3:hr>104</ns3:hr>
            <ns3:cad>0</ns3:cad>
          </ns3:TrackPointExtension>
        </extensions>
      </trkpt>
      <trkpt lat="37.77774662710726261138916015625" lon="-107.69968715496361255645751953125">
        <ele>3982.39990234375</ele>
        <time>2023-07-29T15:45:11.000Z</time>
        <extensions>
          <ns3:TrackPointExtension>
            <ns3:hr>104</ns3:hr>
            <ns3:cad>0</ns3:cad>
          </ns3:TrackPointExtension>
        </extensions>
      </trkpt>
      <trkpt lat="37.777756936848163604736328125" lon="-107.6996974647045135498046875">
        <ele>3982.39990234375</ele>
        <time>2023-07-29T15:45:12.000Z</time>
        <extensions>
          <ns3:TrackPointExtension>
            <ns3:hr>105</ns3:hr>
            <ns3:cad>0</ns3:cad>
          </ns3:TrackPointExtension>
        </extensions>
      </trkpt>
      <trkpt lat="37.777762971818447113037109375" lon="-107.69970140419900417327880859375">
        <ele>3982.199951171875</ele>
        <time>2023-07-29T15:45:13.000Z</time>
        <extensions>
          <ns3:TrackPointExtension>
            <ns3:hr>105</ns3:hr>
            <ns3:cad>0</ns3:cad>
          </ns3:TrackPointExtension>
        </extensions>
      </trkpt>
      <trkpt lat="37.77777445502579212188720703125" lon="-107.69970827735960483551025390625">
        <ele>3982.199951171875</ele>
        <time>2023-07-29T15:45:14.000Z</time>
        <extensions>
          <ns3:TrackPointExtension>
            <ns3:hr>105</ns3:hr>
            <ns3:cad>0</ns3:cad>
          </ns3:TrackPointExtension>
        </extensions>
      </trkpt>
      <trkpt lat="37.77777931652963161468505859375" lon="-107.699711211025714874267578125">
        <ele>3981.800048828125</ele>
        <time>2023-07-29T15:45:15.000Z</time>
        <extensions>
          <ns3:TrackPointExtension>
            <ns3:hr>105</ns3:hr>
            <ns3:cad>0</ns3:cad>
          </ns3:TrackPointExtension>
        </extensions>
      </trkpt>
      <trkpt lat="37.777790464460849761962890625" lon="-107.6997190900146961212158203125">
        <ele>3981.800048828125</ele>
        <time>2023-07-29T15:45:16.000Z</time>
        <extensions>
          <ns3:TrackPointExtension>
            <ns3:hr>105</ns3:hr>
            <ns3:cad>0</ns3:cad>
          </ns3:TrackPointExtension>
        </extensions>
      </trkpt>
      <trkpt lat="37.7777983434498310089111328125" lon="-107.69972671754658222198486328125">
        <ele>3981.60009765625</ele>
        <time>2023-07-29T15:45:17.000Z</time>
        <extensions>
          <ns3:TrackPointExtension>
            <ns3:hr>104</ns3:hr>
            <ns3:cad>0</ns3:cad>
          </ns3:TrackPointExtension>
        </extensions>
      </trkpt>
      <trkpt lat="37.77780152857303619384765625" lon="-107.699732668697834014892578125">
        <ele>3981.60009765625</ele>
        <time>2023-07-29T15:45:18.000Z</time>
        <extensions>
          <ns3:TrackPointExtension>
            <ns3:hr>104</ns3:hr>
            <ns3:cad>0</ns3:cad>
          </ns3:TrackPointExtension>
        </extensions>
      </trkpt>
      <trkpt lat="37.777799852192401885986328125" lon="-107.6997348479926586151123046875">
        <ele>3981.60009765625</ele>
        <time>2023-07-29T15:45:19.000Z</time>
        <extensions>
          <ns3:TrackPointExtension>
            <ns3:hr>104</ns3:hr>
            <ns3:cad>0</ns3:cad>
          </ns3:TrackPointExtension>
        </extensions>
      </trkpt>
      <trkpt lat="37.77780060656368732452392578125" lon="-107.6997358538210391998291015625">
        <ele>3981.39990234375</ele>
        <time>2023-07-29T15:45:20.000Z</time>
        <extensions>
          <ns3:TrackPointExtension>
            <ns3:hr>104</ns3:hr>
            <ns3:cad>0</ns3:cad>
          </ns3:TrackPointExtension>
        </extensions>
      </trkpt>
      <trkpt lat="37.777800522744655609130859375" lon="-107.6997398771345615386962890625">
        <ele>3981.39990234375</ele>
        <time>2023-07-29T15:45:21.000Z</time>
        <extensions>
          <ns3:TrackPointExtension>
            <ns3:hr>104</ns3:hr>
            <ns3:cad>0</ns3:cad>
          </ns3:TrackPointExtension>
        </extensions>
      </trkpt>
      <trkpt lat="37.77779976837337017059326171875" lon="-107.6997439004480838775634765625">
        <ele>3981</ele>
        <time>2023-07-29T15:45:22.000Z</time>
        <extensions>
          <ns3:TrackPointExtension>
            <ns3:hr>104</ns3:hr>
            <ns3:cad>0</ns3:cad>
          </ns3:TrackPointExtension>
        </extensions>
      </trkpt>
      <trkpt lat="37.7777963317930698394775390625" lon="-107.69974985159933567047119140625">
        <ele>3980.800048828125</ele>
        <time>2023-07-29T15:45:23.000Z</time>
        <extensions>
          <ns3:TrackPointExtension>
            <ns3:hr>103</ns3:hr>
            <ns3:cad>0</ns3:cad>
          </ns3:TrackPointExtension>
        </extensions>
      </trkpt>
      <trkpt lat="37.7777919732034206390380859375" lon="-107.69975219853222370147705078125">
        <ele>3980.800048828125</ele>
        <time>2023-07-29T15:45:24.000Z</time>
        <extensions>
          <ns3:TrackPointExtension>
            <ns3:hr>103</ns3:hr>
            <ns3:cad>0</ns3:cad>
          </ns3:TrackPointExtension>
        </extensions>
      </trkpt>
      <trkpt lat="37.77778602205216884613037109375" lon="-107.69976250827312469482421875">
        <ele>3980.800048828125</ele>
        <time>2023-07-29T15:45:25.000Z</time>
        <extensions>
          <ns3:TrackPointExtension>
            <ns3:hr>104</ns3:hr>
            <ns3:cad>0</ns3:cad>
          </ns3:TrackPointExtension>
        </extensions>
      </trkpt>
      <trkpt lat="37.77778132818639278411865234375" lon="-107.6997613348066806793212890625">
        <ele>3980.800048828125</ele>
        <time>2023-07-29T15:45:26.000Z</time>
        <extensions>
          <ns3:TrackPointExtension>
            <ns3:hr>104</ns3:hr>
            <ns3:cad>0</ns3:cad>
          </ns3:TrackPointExtension>
        </extensions>
      </trkpt>
      <trkpt lat="37.7777742035686969757080078125" lon="-107.6997563056647777557373046875">
        <ele>3981</ele>
        <time>2023-07-29T15:45:27.000Z</time>
        <extensions>
          <ns3:TrackPointExtension>
            <ns3:hr>102</ns3:hr>
            <ns3:cad>0</ns3:cad>
          </ns3:TrackPointExtension>
        </extensions>
      </trkpt>
      <trkpt lat="37.77776263654232025146484375" lon="-107.699762843549251556396484375">
        <ele>3981.199951171875</ele>
        <time>2023-07-29T15:45:28.000Z</time>
        <extensions>
          <ns3:TrackPointExtension>
            <ns3:hr>99</ns3:hr>
            <ns3:cad>0</ns3:cad>
          </ns3:TrackPointExtension>
        </extensions>
      </trkpt>
      <trkpt lat="37.77775517664849758148193359375" lon="-107.699768543243408203125">
        <ele>3981</ele>
        <time>2023-07-29T15:45:29.000Z</time>
        <extensions>
          <ns3:TrackPointExtension>
            <ns3:hr>96</ns3:hr>
            <ns3:cad>0</ns3:cad>
          </ns3:TrackPointExtension>
        </extensions>
      </trkpt>
      <trkpt lat="37.77774729765951633453369140625" lon="-107.69976912997663021087646484375">
        <ele>3981</ele>
        <time>2023-07-29T15:45:30.000Z</time>
        <extensions>
          <ns3:TrackPointExtension>
            <ns3:hr>90</ns3:hr>
            <ns3:cad>0</ns3:cad>
          </ns3:TrackPointExtension>
        </extensions>
      </trkpt>
      <trkpt lat="37.77773975394666194915771484375" lon="-107.69977189600467681884765625">
        <ele>3981</ele>
        <time>2023-07-29T15:45:31.000Z</time>
        <extensions>
          <ns3:TrackPointExtension>
            <ns3:hr>88</ns3:hr>
            <ns3:cad>0</ns3:cad>
          </ns3:TrackPointExtension>
        </extensions>
      </trkpt>
      <trkpt lat="37.7777289412915706634521484375" lon="-107.69977550022304058074951171875">
        <ele>3980.800048828125</ele>
        <time>2023-07-29T15:45:32.000Z</time>
        <extensions>
          <ns3:TrackPointExtension>
            <ns3:hr>88</ns3:hr>
            <ns3:cad>0</ns3:cad>
          </ns3:TrackPointExtension>
        </extensions>
      </trkpt>
      <trkpt lat="37.77772198431193828582763671875" lon="-107.699774913489818572998046875">
        <ele>3980.60009765625</ele>
        <time>2023-07-29T15:45:33.000Z</time>
        <extensions>
          <ns3:TrackPointExtension>
            <ns3:hr>88</ns3:hr>
            <ns3:cad>0</ns3:cad>
          </ns3:TrackPointExtension>
        </extensions>
      </trkpt>
      <trkpt lat="37.77771477587521076202392578125" lon="-107.6997740752995014190673828125">
        <ele>3980.60009765625</ele>
        <time>2023-07-29T15:45:34.000Z</time>
        <extensions>
          <ns3:TrackPointExtension>
            <ns3:hr>88</ns3:hr>
            <ns3:cad>0</ns3:cad>
          </ns3:TrackPointExtension>
        </extensions>
      </trkpt>
      <trkpt lat="37.77770337648689746856689453125" lon="-107.69977801479399204254150390625">
        <ele>3980.60009765625</ele>
        <time>2023-07-29T15:45:35.000Z</time>
        <extensions>
          <ns3:TrackPointExtension>
            <ns3:hr>90</ns3:hr>
            <ns3:cad>0</ns3:cad>
          </ns3:TrackPointExtension>
        </extensions>
      </trkpt>
      <trkpt lat="37.7776917256414890289306640625" lon="-107.6997844688594341278076171875">
        <ele>3980.39990234375</ele>
        <time>2023-07-29T15:45:36.000Z</time>
        <extensions>
          <ns3:TrackPointExtension>
            <ns3:hr>92</ns3:hr>
            <ns3:cad>0</ns3:cad>
          </ns3:TrackPointExtension>
        </extensions>
      </trkpt>
      <trkpt lat="37.77769021689891815185546875" lon="-107.69978740252554416656494140625">
        <ele>3980.39990234375</ele>
        <time>2023-07-29T15:45:37.000Z</time>
        <extensions>
          <ns3:TrackPointExtension>
            <ns3:hr>93</ns3:hr>
            <ns3:cad>50</ns3:cad>
          </ns3:TrackPointExtension>
        </extensions>
      </trkpt>
      <trkpt lat="37.77768753468990325927734375" lon="-107.69978958182036876678466796875">
        <ele>3980.39990234375</ele>
        <time>2023-07-29T15:45:38.000Z</time>
        <extensions>
          <ns3:TrackPointExtension>
            <ns3:hr>93</ns3:hr>
            <ns3:cad>50</ns3:cad>
          </ns3:TrackPointExtension>
        </extensions>
      </trkpt>
      <trkpt lat="37.777689211070537567138671875" lon="-107.69979259930551052093505859375">
        <ele>3980.39990234375</ele>
        <time>2023-07-29T15:45:39.000Z</time>
        <extensions>
          <ns3:TrackPointExtension>
            <ns3:hr>95</ns3:hr>
            <ns3:cad>50</ns3:cad>
          </ns3:TrackPointExtension>
        </extensions>
      </trkpt>
      <trkpt lat="37.777693569660186767578125" lon="-107.69979511387646198272705078125">
        <ele>3980</ele>
        <time>2023-07-29T15:45:40.000Z</time>
        <extensions>
          <ns3:TrackPointExtension>
            <ns3:hr>95</ns3:hr>
            <ns3:cad>0</ns3:cad>
          </ns3:TrackPointExtension>
        </extensions>
      </trkpt>
      <trkpt lat="37.77770119719207286834716796875" lon="-107.6997941918671131134033203125">
        <ele>3979.800048828125</ele>
        <time>2023-07-29T15:45:41.000Z</time>
        <extensions>
          <ns3:TrackPointExtension>
            <ns3:hr>94</ns3:hr>
            <ns3:cad>0</ns3:cad>
          </ns3:TrackPointExtension>
        </extensions>
      </trkpt>
      <trkpt lat="37.7777091600000858306884765625" lon="-107.6997941918671131134033203125">
        <ele>3979.60009765625</ele>
        <time>2023-07-29T15:45:42.000Z</time>
        <extensions>
          <ns3:TrackPointExtension>
            <ns3:hr>94</ns3:hr>
            <ns3:cad>0</ns3:cad>
          </ns3:TrackPointExtension>
        </extensions>
      </trkpt>
      <trkpt lat="37.777713350951671600341796875" lon="-107.699797712266445159912109375">
        <ele>3979.39990234375</ele>
        <time>2023-07-29T15:45:43.000Z</time>
        <extensions>
          <ns3:TrackPointExtension>
            <ns3:hr>94</ns3:hr>
            <ns3:cad>0</ns3:cad>
          </ns3:TrackPointExtension>
        </extensions>
      </trkpt>
      <trkpt lat="37.77772014029324054718017578125" lon="-107.699800394475460052490234375">
        <ele>3979</ele>
        <time>2023-07-29T15:45:44.000Z</time>
        <extensions>
          <ns3:TrackPointExtension>
            <ns3:hr>93</ns3:hr>
            <ns3:cad>0</ns3:cad>
          </ns3:TrackPointExtension>
        </extensions>
      </trkpt>
      <trkpt lat="37.77772399596869945526123046875" lon="-107.69980274140834808349609375">
        <ele>3979</ele>
        <time>2023-07-29T15:45:45.000Z</time>
        <extensions>
          <ns3:TrackPointExtension>
            <ns3:hr>93</ns3:hr>
            <ns3:cad>0</ns3:cad>
          </ns3:TrackPointExtension>
        </extensions>
      </trkpt>
      <trkpt lat="37.77772902511060237884521484375" lon="-107.69980919547379016876220703125">
        <ele>3978.800048828125</ele>
        <time>2023-07-29T15:45:46.000Z</time>
        <extensions>
          <ns3:TrackPointExtension>
            <ns3:hr>93</ns3:hr>
            <ns3:cad>0</ns3:cad>
          </ns3:TrackPointExtension>
        </extensions>
      </trkpt>
      <trkpt lat="37.7777339704334735870361328125" lon="-107.69981791265308856964111328125">
        <ele>3978.60009765625</ele>
        <time>2023-07-29T15:45:47.000Z</time>
        <extensions>
          <ns3:TrackPointExtension>
            <ns3:hr>92</ns3:hr>
            <ns3:cad>0</ns3:cad>
          </ns3:TrackPointExtension>
        </extensions>
      </trkpt>
      <trkpt lat="37.77774260379374027252197265625" lon="-107.69982713274657726287841796875">
        <ele>3978.39990234375</ele>
        <time>2023-07-29T15:45:48.000Z</time>
        <extensions>
          <ns3:TrackPointExtension>
            <ns3:hr>92</ns3:hr>
            <ns3:cad>68</ns3:cad>
          </ns3:TrackPointExtension>
        </extensions>
      </trkpt>
      <trkpt lat="37.7777493931353092193603515625" lon="-107.6998342573642730712890625">
        <ele>3978.39990234375</ele>
        <time>2023-07-29T15:45:49.000Z</time>
        <extensions>
          <ns3:TrackPointExtension>
            <ns3:hr>92</ns3:hr>
            <ns3:cad>68</ns3:cad>
          </ns3:TrackPointExtension>
        </extensions>
      </trkpt>
      <trkpt lat="37.77775584720075130462646484375" lon="-107.69984071142971515655517578125">
        <ele>3978.199951171875</ele>
        <time>2023-07-29T15:45:50.000Z</time>
        <extensions>
          <ns3:TrackPointExtension>
            <ns3:hr>91</ns3:hr>
            <ns3:cad>68</ns3:cad>
          </ns3:TrackPointExtension>
        </extensions>
      </trkpt>
      <trkpt lat="37.77775886468589305877685546875" lon="-107.699843980371952056884765625">
        <ele>3978</ele>
        <time>2023-07-29T15:45:51.000Z</time>
        <extensions>
          <ns3:TrackPointExtension>
            <ns3:hr>91</ns3:hr>
            <ns3:cad>68</ns3:cad>
          </ns3:TrackPointExtension>
        </extensions>
      </trkpt>
      <trkpt lat="37.77775995433330535888671875" lon="-107.69984054379165172576904296875">
        <ele>3977.800048828125</ele>
        <time>2023-07-29T15:45:52.000Z</time>
        <extensions>
          <ns3:TrackPointExtension>
            <ns3:hr>91</ns3:hr>
            <ns3:cad>68</ns3:cad>
          </ns3:TrackPointExtension>
        </extensions>
      </trkpt>
      <trkpt lat="37.7777674980461597442626953125" lon="-107.69984339363873004913330078125">
        <ele>3977.60009765625</ele>
        <time>2023-07-29T15:45:53.000Z</time>
        <extensions>
          <ns3:TrackPointExtension>
            <ns3:hr>91</ns3:hr>
            <ns3:cad>68</ns3:cad>
          </ns3:TrackPointExtension>
        </extensions>
      </trkpt>
      <trkpt lat="37.77777068316936492919921875" lon="-107.69984724931418895721435546875">
        <ele>3977.39990234375</ele>
        <time>2023-07-29T15:45:54.000Z</time>
        <extensions>
          <ns3:TrackPointExtension>
            <ns3:hr>90</ns3:hr>
            <ns3:cad>68</ns3:cad>
          </ns3:TrackPointExtension>
        </extensions>
      </trkpt>
      <trkpt lat="37.777769677340984344482421875" lon="-107.69984926097095012664794921875">
        <ele>3977.199951171875</ele>
        <time>2023-07-29T15:45:55.000Z</time>
        <extensions>
          <ns3:TrackPointExtension>
            <ns3:hr>90</ns3:hr>
            <ns3:cad>68</ns3:cad>
          </ns3:TrackPointExtension>
        </extensions>
      </trkpt>
      <trkpt lat="37.7777768857777118682861328125" lon="-107.6998562179505825042724609375">
        <ele>3977</ele>
        <time>2023-07-29T15:45:56.000Z</time>
        <extensions>
          <ns3:TrackPointExtension>
            <ns3:hr>90</ns3:hr>
            <ns3:cad>68</ns3:cad>
          </ns3:TrackPointExtension>
        </extensions>
      </trkpt>
      <trkpt lat="37.7777834236621856689453125" lon="-107.69986300729215145111083984375">
        <ele>3976.800048828125</ele>
        <time>2023-07-29T15:45:57.000Z</time>
        <extensions>
          <ns3:TrackPointExtension>
            <ns3:hr>90</ns3:hr>
            <ns3:cad>68</ns3:cad>
          </ns3:TrackPointExtension>
        </extensions>
      </trkpt>
      <trkpt lat="37.77779071591794490814208984375" lon="-107.6998702995479106903076171875">
        <ele>3976.800048828125</ele>
        <time>2023-07-29T15:45:58.000Z</time>
        <extensions>
          <ns3:TrackPointExtension>
            <ns3:hr>90</ns3:hr>
            <ns3:cad>68</ns3:cad>
          </ns3:TrackPointExtension>
        </extensions>
      </trkpt>
      <trkpt lat="37.77779750525951385498046875" lon="-107.69987138919532299041748046875">
        <ele>3976.60009765625</ele>
        <time>2023-07-29T15:45:59.000Z</time>
        <extensions>
          <ns3:TrackPointExtension>
            <ns3:hr>89</ns3:hr>
            <ns3:cad>68</ns3:cad>
          </ns3:TrackPointExtension>
        </extensions>
      </trkpt>
      <trkpt lat="37.7778043784201145172119140625" lon="-107.69987490959465503692626953125">
        <ele>3976.39990234375</ele>
        <time>2023-07-29T15:46:00.000Z</time>
        <extensions>
          <ns3:TrackPointExtension>
            <ns3:hr>89</ns3:hr>
            <ns3:cad>68</ns3:cad>
          </ns3:TrackPointExtension>
        </extensions>
      </trkpt>
      <trkpt lat="37.7778097428381443023681640625" lon="-107.69987650215625762939453125">
        <ele>3976.199951171875</ele>
        <time>2023-07-29T15:46:01.000Z</time>
        <extensions>
          <ns3:TrackPointExtension>
            <ns3:hr>89</ns3:hr>
            <ns3:cad>68</ns3:cad>
          </ns3:TrackPointExtension>
        </extensions>
      </trkpt>
      <trkpt lat="37.77781426906585693359375" lon="-107.69987708888947963714599609375">
        <ele>3975.800048828125</ele>
        <time>2023-07-29T15:46:02.000Z</time>
        <extensions>
          <ns3:TrackPointExtension>
            <ns3:hr>89</ns3:hr>
            <ns3:cad>68</ns3:cad>
          </ns3:TrackPointExtension>
        </extensions>
      </trkpt>
      <trkpt lat="37.77781770564615726470947265625" lon="-107.69987650215625762939453125">
        <ele>3975.60009765625</ele>
        <time>2023-07-29T15:46:03.000Z</time>
        <extensions>
          <ns3:TrackPointExtension>
            <ns3:hr>89</ns3:hr>
            <ns3:cad>68</ns3:cad>
          </ns3:TrackPointExtension>
        </extensions>
      </trkpt>
      <trkpt lat="37.7778265066444873809814453125" lon="-107.69988052546977996826171875">
        <ele>3975.39990234375</ele>
        <time>2023-07-29T15:46:04.000Z</time>
        <extensions>
          <ns3:TrackPointExtension>
            <ns3:hr>89</ns3:hr>
            <ns3:cad>68</ns3:cad>
          </ns3:TrackPointExtension>
        </extensions>
      </trkpt>
      <trkpt lat="37.77783480472862720489501953125" lon="-107.69988429732620716094970703125">
        <ele>3975.199951171875</ele>
        <time>2023-07-29T15:46:05.000Z</time>
        <extensions>
          <ns3:TrackPointExtension>
            <ns3:hr>88</ns3:hr>
            <ns3:cad>68</ns3:cad>
          </ns3:TrackPointExtension>
        </extensions>
      </trkpt>
      <trkpt lat="37.77783581055700778961181640625" lon="-107.69988463260233402252197265625">
        <ele>3975</ele>
        <time>2023-07-29T15:46:06.000Z</time>
        <extensions>
          <ns3:TrackPointExtension>
            <ns3:hr>88</ns3:hr>
            <ns3:cad>68</ns3:cad>
          </ns3:TrackPointExtension>
        </extensions>
      </trkpt>
      <trkpt lat="37.777840085327625274658203125" lon="-107.69988630898296833038330078125">
        <ele>3974.800048828125</ele>
        <time>2023-07-29T15:46:07.000Z</time>
        <extensions>
          <ns3:TrackPointExtension>
            <ns3:hr>88</ns3:hr>
            <ns3:cad>68</ns3:cad>
          </ns3:TrackPointExtension>
        </extensions>
      </trkpt>
      <trkpt lat="37.77784285135567188262939453125" lon="-107.69988614134490489959716796875">
        <ele>3974.60009765625</ele>
        <time>2023-07-29T15:46:08.000Z</time>
        <extensions>
          <ns3:TrackPointExtension>
            <ns3:hr>88</ns3:hr>
            <ns3:cad>0</ns3:cad>
          </ns3:TrackPointExtension>
        </extensions>
      </trkpt>
      <trkpt lat="37.77783849276602268218994140625" lon="-107.69988480024039745330810546875">
        <ele>3974.39990234375</ele>
        <time>2023-07-29T15:46:09.000Z</time>
        <extensions>
          <ns3:TrackPointExtension>
            <ns3:hr>89</ns3:hr>
            <ns3:cad>0</ns3:cad>
          </ns3:TrackPointExtension>
        </extensions>
      </trkpt>
      <trkpt lat="37.77783849276602268218994140625" lon="-107.69989083521068096160888671875">
        <ele>3974.199951171875</ele>
        <time>2023-07-29T15:46:10.000Z</time>
        <extensions>
          <ns3:TrackPointExtension>
            <ns3:hr>89</ns3:hr>
            <ns3:cad>0</ns3:cad>
          </ns3:TrackPointExtension>
        </extensions>
      </trkpt>
      <trkpt lat="37.7778451144695281982421875" lon="-107.6998932659626007080078125">
        <ele>3974</ele>
        <time>2023-07-29T15:46:11.000Z</time>
        <extensions>
          <ns3:TrackPointExtension>
            <ns3:hr>89</ns3:hr>
            <ns3:cad>0</ns3:cad>
          </ns3:TrackPointExtension>
        </extensions>
      </trkpt>
      <trkpt lat="37.77784578502178192138671875" lon="-107.69989502616226673126220703125">
        <ele>3974</ele>
        <time>2023-07-29T15:46:12.000Z</time>
        <extensions>
          <ns3:TrackPointExtension>
            <ns3:hr>89</ns3:hr>
            <ns3:cad>0</ns3:cad>
          </ns3:TrackPointExtension>
        </extensions>
      </trkpt>
      <trkpt lat="37.77784771285951137542724609375" lon="-107.6999061740934848785400390625">
        <ele>3973.800048828125</ele>
        <time>2023-07-29T15:46:13.000Z</time>
        <extensions>
          <ns3:TrackPointExtension>
            <ns3:hr>89</ns3:hr>
            <ns3:cad>0</ns3:cad>
          </ns3:TrackPointExtension>
        </extensions>
      </trkpt>
      <trkpt lat="37.77785022743046283721923828125" lon="-107.69991673529148101806640625">
        <ele>3973.39990234375</ele>
        <time>2023-07-29T15:46:14.000Z</time>
        <extensions>
          <ns3:TrackPointExtension>
            <ns3:hr>89</ns3:hr>
            <ns3:cad>0</ns3:cad>
          </ns3:TrackPointExtension>
        </extensions>
      </trkpt>
      <trkpt lat="37.77785089798271656036376953125" lon="-107.69991849549114704132080078125">
        <ele>3973.199951171875</ele>
        <time>2023-07-29T15:46:15.000Z</time>
        <extensions>
          <ns3:TrackPointExtension>
            <ns3:hr>89</ns3:hr>
            <ns3:cad>0</ns3:cad>
          </ns3:TrackPointExtension>
        </extensions>
      </trkpt>
      <trkpt lat="37.77785492129623889923095703125" lon="-107.69992704503238201141357421875">
        <ele>3973</ele>
        <time>2023-07-29T15:46:16.000Z</time>
        <extensions>
          <ns3:TrackPointExtension>
            <ns3:hr>89</ns3:hr>
            <ns3:cad>0</ns3:cad>
          </ns3:TrackPointExtension>
        </extensions>
      </trkpt>
      <trkpt lat="37.7778593637049198150634765625" lon="-107.69993475638329982757568359375">
        <ele>3972.800048828125</ele>
        <time>2023-07-29T15:46:17.000Z</time>
        <extensions>
          <ns3:TrackPointExtension>
            <ns3:hr>89</ns3:hr>
            <ns3:cad>0</ns3:cad>
          </ns3:TrackPointExtension>
        </extensions>
      </trkpt>
      <trkpt lat="37.7778620459139347076416015625" lon="-107.69993609748780727386474609375">
        <ele>3972.800048828125</ele>
        <time>2023-07-29T15:46:18.000Z</time>
        <extensions>
          <ns3:TrackPointExtension>
            <ns3:hr>89</ns3:hr>
            <ns3:cad>0</ns3:cad>
          </ns3:TrackPointExtension>
        </extensions>
      </trkpt>
      <trkpt lat="37.77786699123680591583251953125" lon="-107.6999293081462383270263671875">
        <ele>3972.39990234375</ele>
        <time>2023-07-29T15:46:19.000Z</time>
        <extensions>
          <ns3:TrackPointExtension>
            <ns3:hr>89</ns3:hr>
            <ns3:cad>48</ns3:cad>
          </ns3:TrackPointExtension>
        </extensions>
      </trkpt>
      <trkpt lat="37.77787000872194766998291015625" lon="-107.69993148744106292724609375">
        <ele>3972.199951171875</ele>
        <time>2023-07-29T15:46:20.000Z</time>
        <extensions>
          <ns3:TrackPointExtension>
            <ns3:hr>89</ns3:hr>
            <ns3:cad>48</ns3:cad>
          </ns3:TrackPointExtension>
        </extensions>
      </trkpt>
      <trkpt lat="37.77787570841610431671142578125" lon="-107.699934504926204681396484375">
        <ele>3972.199951171875</ele>
        <time>2023-07-29T15:46:21.000Z</time>
        <extensions>
          <ns3:TrackPointExtension>
            <ns3:hr>90</ns3:hr>
            <ns3:cad>48</ns3:cad>
          </ns3:TrackPointExtension>
        </extensions>
      </trkpt>
      <trkpt lat="37.77788425795733928680419921875" lon="-107.69993794150650501251220703125">
        <ele>3972</ele>
        <time>2023-07-29T15:46:22.000Z</time>
        <extensions>
          <ns3:TrackPointExtension>
            <ns3:hr>90</ns3:hr>
            <ns3:cad>48</ns3:cad>
          </ns3:TrackPointExtension>
        </extensions>
      </trkpt>
      <trkpt lat="37.7778942324221134185791015625" lon="-107.69993274472653865814208984375">
        <ele>3971.800048828125</ele>
        <time>2023-07-29T15:46:23.000Z</time>
        <extensions>
          <ns3:TrackPointExtension>
            <ns3:hr>89</ns3:hr>
            <ns3:cad>48</ns3:cad>
          </ns3:TrackPointExtension>
        </extensions>
      </trkpt>
      <trkpt lat="37.77790403924882411956787109375" lon="-107.69993291236460208892822265625">
        <ele>3971.60009765625</ele>
        <time>2023-07-29T15:46:24.000Z</time>
        <extensions>
          <ns3:TrackPointExtension>
            <ns3:hr>89</ns3:hr>
            <ns3:cad>48</ns3:cad>
          </ns3:TrackPointExtension>
        </extensions>
      </trkpt>
      <trkpt lat="37.7779133431613445281982421875" lon="-107.69993257708847522735595703125">
        <ele>3971.60009765625</ele>
        <time>2023-07-29T15:46:25.000Z</time>
        <extensions>
          <ns3:TrackPointExtension>
            <ns3:hr>89</ns3:hr>
            <ns3:cad>48</ns3:cad>
          </ns3:TrackPointExtension>
        </extensions>
      </trkpt>
      <trkpt lat="37.7779170311987400054931640625" lon="-107.69993391819298267364501953125">
        <ele>3971.39990234375</ele>
        <time>2023-07-29T15:46:26.000Z</time>
        <extensions>
          <ns3:TrackPointExtension>
            <ns3:hr>88</ns3:hr>
            <ns3:cad>57</ns3:cad>
          </ns3:TrackPointExtension>
        </extensions>
      </trkpt>
      <trkpt lat="37.77792566455900669097900390625" lon="-107.69993542693555355072021484375">
        <ele>3970.800048828125</ele>
        <time>2023-07-29T15:46:27.000Z</time>
        <extensions>
          <ns3:TrackPointExtension>
            <ns3:hr>87</ns3:hr>
            <ns3:cad>57</ns3:cad>
          </ns3:TrackPointExtension>
        </extensions>
      </trkpt>
      <trkpt lat="37.777924239635467529296875" lon="-107.69993685185909271240234375">
        <ele>3970.60009765625</ele>
        <time>2023-07-29T15:46:28.000Z</time>
        <extensions>
          <ns3:TrackPointExtension>
            <ns3:hr>87</ns3:hr>
            <ns3:cad>57</ns3:cad>
          </ns3:TrackPointExtension>
        </extensions>
      </trkpt>
      <trkpt lat="37.77792817912995815277099609375" lon="-107.6999397017061710357666015625">
        <ele>3970.60009765625</ele>
        <time>2023-07-29T15:46:29.000Z</time>
        <extensions>
          <ns3:TrackPointExtension>
            <ns3:hr>87</ns3:hr>
            <ns3:cad>57</ns3:cad>
          </ns3:TrackPointExtension>
        </extensions>
      </trkpt>
      <trkpt lat="37.77793228626251220703125" lon="-107.69994498230516910552978515625">
        <ele>3970.39990234375</ele>
        <time>2023-07-29T15:46:30.000Z</time>
        <extensions>
          <ns3:TrackPointExtension>
            <ns3:hr>88</ns3:hr>
            <ns3:cad>57</ns3:cad>
          </ns3:TrackPointExtension>
        </extensions>
      </trkpt>
      <trkpt lat="37.77793228626251220703125" lon="-107.699949257075786590576171875">
        <ele>3970.199951171875</ele>
        <time>2023-07-29T15:46:31.000Z</time>
        <extensions>
          <ns3:TrackPointExtension>
            <ns3:hr>88</ns3:hr>
            <ns3:cad>57</ns3:cad>
          </ns3:TrackPointExtension>
        </extensions>
      </trkpt>
      <trkpt lat="37.77793622575700283050537109375" lon="-107.69995353184640407562255859375">
        <ele>3970</ele>
        <time>2023-07-29T15:46:32.000Z</time>
        <extensions>
          <ns3:TrackPointExtension>
            <ns3:hr>89</ns3:hr>
            <ns3:cad>57</ns3:cad>
          </ns3:TrackPointExtension>
        </extensions>
      </trkpt>
      <trkpt lat="37.77794159017503261566162109375" lon="-107.69995872862637042999267578125">
        <ele>3970</ele>
        <time>2023-07-29T15:46:33.000Z</time>
        <extensions>
          <ns3:TrackPointExtension>
            <ns3:hr>89</ns3:hr>
            <ns3:cad>57</ns3:cad>
          </ns3:TrackPointExtension>
        </extensions>
      </trkpt>
      <trkpt lat="37.77794728986918926239013671875" lon="-107.69996342249214649200439453125">
        <ele>3970</ele>
        <time>2023-07-29T15:46:34.000Z</time>
        <extensions>
          <ns3:TrackPointExtension>
            <ns3:hr>90</ns3:hr>
            <ns3:cad>57</ns3:cad>
          </ns3:TrackPointExtension>
        </extensions>
      </trkpt>
      <trkpt lat="37.77795550413429737091064453125" lon="-107.69996660761535167694091796875">
        <ele>3969.60009765625</ele>
        <time>2023-07-29T15:46:35.000Z</time>
        <extensions>
          <ns3:TrackPointExtension>
            <ns3:hr>91</ns3:hr>
            <ns3:cad>57</ns3:cad>
          </ns3:TrackPointExtension>
        </extensions>
      </trkpt>
      <trkpt lat="37.77796271257102489471435546875" lon="-107.69997306168079376220703125">
        <ele>3969.39990234375</ele>
        <time>2023-07-29T15:46:36.000Z</time>
        <extensions>
          <ns3:TrackPointExtension>
            <ns3:hr>91</ns3:hr>
            <ns3:cad>57</ns3:cad>
          </ns3:TrackPointExtension>
        </extensions>
      </trkpt>
      <trkpt lat="37.77796589769423007965087890625" lon="-107.6999755762517452239990234375">
        <ele>3969.39990234375</ele>
        <time>2023-07-29T15:46:37.000Z</time>
        <extensions>
          <ns3:TrackPointExtension>
            <ns3:hr>91</ns3:hr>
            <ns3:cad>57</ns3:cad>
          </ns3:TrackPointExtension>
        </extensions>
      </trkpt>
      <trkpt lat="37.7779703401029109954833984375" lon="-107.69997968338429927825927734375">
        <ele>3969.39990234375</ele>
        <time>2023-07-29T15:46:38.000Z</time>
        <extensions>
          <ns3:TrackPointExtension>
            <ns3:hr>91</ns3:hr>
            <ns3:cad>57</ns3:cad>
          </ns3:TrackPointExtension>
        </extensions>
      </trkpt>
      <trkpt lat="37.77797746472060680389404296875" lon="-107.69998840056359767913818359375">
        <ele>3969.199951171875</ele>
        <time>2023-07-29T15:46:39.000Z</time>
        <extensions>
          <ns3:TrackPointExtension>
            <ns3:hr>92</ns3:hr>
            <ns3:cad>57</ns3:cad>
          </ns3:TrackPointExtension>
        </extensions>
      </trkpt>
      <trkpt lat="37.77797578833997249603271484375" lon="-107.69999225623905658721923828125">
        <ele>3968.800048828125</ele>
        <time>2023-07-29T15:46:40.000Z</time>
        <extensions>
          <ns3:TrackPointExtension>
            <ns3:hr>92</ns3:hr>
            <ns3:cad>57</ns3:cad>
          </ns3:TrackPointExtension>
        </extensions>
      </trkpt>
      <trkpt lat="37.7779683284461498260498046875" lon="-107.6999963633716106414794921875">
        <ele>3968.60009765625</ele>
        <time>2023-07-29T15:46:41.000Z</time>
        <extensions>
          <ns3:TrackPointExtension>
            <ns3:hr>92</ns3:hr>
            <ns3:cad>57</ns3:cad>
          </ns3:TrackPointExtension>
        </extensions>
      </trkpt>
      <trkpt lat="37.7779658138751983642578125" lon="-107.69999611191451549530029296875">
        <ele>3968.39990234375</ele>
        <time>2023-07-29T15:46:42.000Z</time>
        <extensions>
          <ns3:TrackPointExtension>
            <ns3:hr>92</ns3:hr>
            <ns3:cad>57</ns3:cad>
          </ns3:TrackPointExtension>
        </extensions>
      </trkpt>
      <trkpt lat="37.77796271257102489471435546875" lon="-107.69999477081000804901123046875">
        <ele>3968.199951171875</ele>
        <time>2023-07-29T15:46:43.000Z</time>
        <extensions>
          <ns3:TrackPointExtension>
            <ns3:hr>92</ns3:hr>
            <ns3:cad>51</ns3:cad>
          </ns3:TrackPointExtension>
        </extensions>
      </trkpt>
      <trkpt lat="37.77795986272394657135009765625" lon="-107.69999309442937374114990234375">
        <ele>3968.199951171875</ele>
        <time>2023-07-29T15:46:44.000Z</time>
        <extensions>
          <ns3:TrackPointExtension>
            <ns3:hr>92</ns3:hr>
            <ns3:cad>0</ns3:cad>
          </ns3:TrackPointExtension>
        </extensions>
      </trkpt>
      <trkpt lat="37.77795466594398021697998046875" lon="-107.69999410025775432586669921875">
        <ele>3968.199951171875</ele>
        <time>2023-07-29T15:46:45.000Z</time>
        <extensions>
          <ns3:TrackPointExtension>
            <ns3:hr>91</ns3:hr>
            <ns3:cad>0</ns3:cad>
          </ns3:TrackPointExtension>
        </extensions>
      </trkpt>
      <trkpt lat="37.7779488824307918548583984375" lon="-107.6999943517148494720458984375">
        <ele>3968</ele>
        <time>2023-07-29T15:46:46.000Z</time>
        <extensions>
          <ns3:TrackPointExtension>
            <ns3:hr>91</ns3:hr>
            <ns3:cad>0</ns3:cad>
          </ns3:TrackPointExtension>
        </extensions>
      </trkpt>
      <trkpt lat="37.77794276364147663116455078125" lon="-107.699994854629039764404296875">
        <ele>3967.800048828125</ele>
        <time>2023-07-29T15:46:47.000Z</time>
        <extensions>
          <ns3:TrackPointExtension>
            <ns3:hr>91</ns3:hr>
            <ns3:cad>0</ns3:cad>
          </ns3:TrackPointExtension>
        </extensions>
      </trkpt>
      <trkpt lat="37.7779498882591724395751953125" lon="-107.69999594427645206451416015625">
        <ele>3967.800048828125</ele>
        <time>2023-07-29T15:46:48.000Z</time>
        <extensions>
          <ns3:TrackPointExtension>
            <ns3:hr>91</ns3:hr>
            <ns3:cad>0</ns3:cad>
          </ns3:TrackPointExtension>
        </extensions>
      </trkpt>
      <trkpt lat="37.77795533649623394012451171875" lon="-107.69999451935291290283203125">
        <ele>3967.800048828125</ele>
        <time>2023-07-29T15:46:49.000Z</time>
        <extensions>
          <ns3:TrackPointExtension>
            <ns3:hr>90</ns3:hr>
            <ns3:cad>0</ns3:cad>
          </ns3:TrackPointExtension>
        </extensions>
      </trkpt>
      <trkpt lat="37.7779631316661834716796875" lon="-107.6999936811625957489013671875">
        <ele>3967.800048828125</ele>
        <time>2023-07-29T15:46:50.000Z</time>
        <extensions>
          <ns3:TrackPointExtension>
            <ns3:hr>90</ns3:hr>
            <ns3:cad>0</ns3:cad>
          </ns3:TrackPointExtension>
        </extensions>
      </trkpt>
      <trkpt lat="37.77796723879873752593994140625" lon="-107.6999987103044986724853515625">
        <ele>3967.800048828125</ele>
        <time>2023-07-29T15:46:51.000Z</time>
        <extensions>
          <ns3:TrackPointExtension>
            <ns3:hr>90</ns3:hr>
            <ns3:cad>0</ns3:cad>
          </ns3:TrackPointExtension>
        </extensions>
      </trkpt>
      <trkpt lat="37.77796891517937183380126953125" lon="-107.700004242360591888427734375">
        <ele>3967.800048828125</ele>
        <time>2023-07-29T15:46:52.000Z</time>
        <extensions>
          <ns3:TrackPointExtension>
            <ns3:hr>90</ns3:hr>
            <ns3:cad>0</ns3:cad>
          </ns3:TrackPointExtension>
        </extensions>
      </trkpt>
      <trkpt lat="37.77796120382845401763916015625" lon="-107.70000834949314594268798828125">
        <ele>3967.800048828125</ele>
        <time>2023-07-29T15:46:53.000Z</time>
        <extensions>
          <ns3:TrackPointExtension>
            <ns3:hr>90</ns3:hr>
            <ns3:cad>0</ns3:cad>
          </ns3:TrackPointExtension>
        </extensions>
      </trkpt>
      <trkpt lat="37.7779559232294559478759765625" lon="-107.70001404918730258941650390625">
        <ele>3967.800048828125</ele>
        <time>2023-07-29T15:46:54.000Z</time>
        <extensions>
          <ns3:TrackPointExtension>
            <ns3:hr>92</ns3:hr>
            <ns3:cad>0</ns3:cad>
          </ns3:TrackPointExtension>
        </extensions>
      </trkpt>
      <trkpt lat="37.77795064263045787811279296875" lon="-107.70002343691885471343994140625">
        <ele>3967.800048828125</ele>
        <time>2023-07-29T15:46:55.000Z</time>
        <extensions>
          <ns3:TrackPointExtension>
            <ns3:hr>95</ns3:hr>
            <ns3:cad>0</ns3:cad>
          </ns3:TrackPointExtension>
        </extensions>
      </trkpt>
      <trkpt lat="37.7779485471546649932861328125" lon="-107.700030393898487091064453125">
        <ele>3967.800048828125</ele>
        <time>2023-07-29T15:46:56.000Z</time>
        <extensions>
          <ns3:TrackPointExtension>
            <ns3:hr>96</ns3:hr>
            <ns3:cad>0</ns3:cad>
          </ns3:TrackPointExtension>
        </extensions>
      </trkpt>
      <trkpt lat="37.77794628404080867767333984375" lon="-107.70003751851618289947509765625">
        <ele>3967.800048828125</ele>
        <time>2023-07-29T15:46:57.000Z</time>
        <extensions>
          <ns3:TrackPointExtension>
            <ns3:hr>96</ns3:hr>
            <ns3:cad>0</ns3:cad>
          </ns3:TrackPointExtension>
        </extensions>
      </trkpt>
      <trkpt lat="37.77794460766017436981201171875" lon="-107.70004640333354473114013671875">
        <ele>3967.60009765625</ele>
        <time>2023-07-29T15:46:58.000Z</time>
        <extensions>
          <ns3:TrackPointExtension>
            <ns3:hr>96</ns3:hr>
            <ns3:cad>0</ns3:cad>
          </ns3:TrackPointExtension>
        </extensions>
      </trkpt>
      <trkpt lat="37.77794611640274524688720703125" lon="-107.70005294121801853179931640625">
        <ele>3967.39990234375</ele>
        <time>2023-07-29T15:46:59.000Z</time>
        <extensions>
          <ns3:TrackPointExtension>
            <ns3:hr>96</ns3:hr>
            <ns3:cad>0</ns3:cad>
          </ns3:TrackPointExtension>
        </extensions>
      </trkpt>
      <trkpt lat="37.7779465354979038238525390625" lon="-107.700058557093143463134765625">
        <ele>3967.199951171875</ele>
        <time>2023-07-29T15:47:00.000Z</time>
        <extensions>
          <ns3:TrackPointExtension>
            <ns3:hr>96</ns3:hr>
            <ns3:cad>75</ns3:cad>
          </ns3:TrackPointExtension>
        </extensions>
      </trkpt>
      <trkpt lat="37.77795081026852130889892578125" lon="-107.70006048493087291717529296875">
        <ele>3967</ele>
        <time>2023-07-29T15:47:01.000Z</time>
        <extensions>
          <ns3:TrackPointExtension>
            <ns3:hr>96</ns3:hr>
            <ns3:cad>75</ns3:cad>
          </ns3:TrackPointExtension>
        </extensions>
      </trkpt>
      <trkpt lat="37.77795298956334590911865234375" lon="-107.700066268444061279296875">
        <ele>3966.800048828125</ele>
        <time>2023-07-29T15:47:02.000Z</time>
        <extensions>
          <ns3:TrackPointExtension>
            <ns3:hr>96</ns3:hr>
            <ns3:cad>0</ns3:cad>
          </ns3:TrackPointExtension>
        </extensions>
      </trkpt>
      <trkpt lat="37.777954749763011932373046875" lon="-107.7000811882317066192626953125">
        <ele>3966.39990234375</ele>
        <time>2023-07-29T15:47:03.000Z</time>
        <extensions>
          <ns3:TrackPointExtension>
            <ns3:hr>96</ns3:hr>
            <ns3:cad>0</ns3:cad>
          </ns3:TrackPointExtension>
        </extensions>
      </trkpt>
      <trkpt lat="37.777956426143646240234375" lon="-107.700092084705829620361328125">
        <ele>3966.199951171875</ele>
        <time>2023-07-29T15:47:04.000Z</time>
        <extensions>
          <ns3:TrackPointExtension>
            <ns3:hr>96</ns3:hr>
            <ns3:cad>0</ns3:cad>
          </ns3:TrackPointExtension>
        </extensions>
      </trkpt>
      <trkpt lat="37.77795734815299510955810546875" lon="-107.70009518601000308990478515625">
        <ele>3965.800048828125</ele>
        <time>2023-07-29T15:47:05.000Z</time>
        <extensions>
          <ns3:TrackPointExtension>
            <ns3:hr>96</ns3:hr>
            <ns3:cad>0</ns3:cad>
          </ns3:TrackPointExtension>
        </extensions>
      </trkpt>
      <trkpt lat="37.7779599465429782867431640625" lon="-107.70009652711451053619384765625">
        <ele>3965.800048828125</ele>
        <time>2023-07-29T15:47:06.000Z</time>
        <extensions>
          <ns3:TrackPointExtension>
            <ns3:hr>96</ns3:hr>
            <ns3:cad>0</ns3:cad>
          </ns3:TrackPointExtension>
        </extensions>
      </trkpt>
      <trkpt lat="37.7779636345803737640380859375" lon="-107.70010155625641345977783203125">
        <ele>3965.60009765625</ele>
        <time>2023-07-29T15:47:07.000Z</time>
        <extensions>
          <ns3:TrackPointExtension>
            <ns3:hr>96</ns3:hr>
            <ns3:cad>0</ns3:cad>
          </ns3:TrackPointExtension>
        </extensions>
      </trkpt>
      <trkpt lat="37.77796623297035694122314453125" lon="-107.700109183788299560546875">
        <ele>3965</ele>
        <time>2023-07-29T15:47:08.000Z</time>
        <extensions>
          <ns3:TrackPointExtension>
            <ns3:hr>96</ns3:hr>
            <ns3:cad>0</ns3:cad>
          </ns3:TrackPointExtension>
        </extensions>
      </trkpt>
      <trkpt lat="37.77797210030257701873779296875" lon="-107.7001173980534076690673828125">
        <ele>3964.800048828125</ele>
        <time>2023-07-29T15:47:09.000Z</time>
        <extensions>
          <ns3:TrackPointExtension>
            <ns3:hr>95</ns3:hr>
            <ns3:cad>0</ns3:cad>
          </ns3:TrackPointExtension>
        </extensions>
      </trkpt>
      <trkpt lat="37.777978219091892242431640625" lon="-107.70012686960399150848388671875">
        <ele>3964.39990234375</ele>
        <time>2023-07-29T15:47:10.000Z</time>
        <extensions>
          <ns3:TrackPointExtension>
            <ns3:hr>95</ns3:hr>
            <ns3:cad>0</ns3:cad>
          </ns3:TrackPointExtension>
        </extensions>
      </trkpt>
      <trkpt lat="37.777984254062175750732421875" lon="-107.70013592205941677093505859375">
        <ele>3964.199951171875</ele>
        <time>2023-07-29T15:47:11.000Z</time>
        <extensions>
          <ns3:TrackPointExtension>
            <ns3:hr>95</ns3:hr>
            <ns3:cad>0</ns3:cad>
          </ns3:TrackPointExtension>
        </extensions>
      </trkpt>
      <trkpt lat="37.7779914624989032745361328125" lon="-107.70014866255223751068115234375">
        <ele>3964.199951171875</ele>
        <time>2023-07-29T15:47:12.000Z</time>
        <extensions>
          <ns3:TrackPointExtension>
            <ns3:hr>95</ns3:hr>
            <ns3:cad>0</ns3:cad>
          </ns3:TrackPointExtension>
        </extensions>
      </trkpt>
      <trkpt lat="37.777993641793727874755859375" lon="-107.70015008747577667236328125">
        <ele>3964</ele>
        <time>2023-07-29T15:47:13.000Z</time>
        <extensions>
          <ns3:TrackPointExtension>
            <ns3:hr>95</ns3:hr>
            <ns3:cad>62</ns3:cad>
          </ns3:TrackPointExtension>
        </extensions>
      </trkpt>
      <trkpt lat="37.77799556963145732879638671875" lon="-107.7001499198377132415771484375">
        <ele>3963.800048828125</ele>
        <time>2023-07-29T15:47:14.000Z</time>
        <extensions>
          <ns3:TrackPointExtension>
            <ns3:hr>95</ns3:hr>
            <ns3:cad>62</ns3:cad>
          </ns3:TrackPointExtension>
        </extensions>
      </trkpt>
      <trkpt lat="37.77799825184047222137451171875" lon="-107.700151093304157257080078125">
        <ele>3963.39990234375</ele>
        <time>2023-07-29T15:47:15.000Z</time>
        <extensions>
          <ns3:TrackPointExtension>
            <ns3:hr>95</ns3:hr>
            <ns3:cad>62</ns3:cad>
          </ns3:TrackPointExtension>
        </extensions>
      </trkpt>
      <trkpt lat="37.7779991738498210906982421875" lon="-107.70015687681734561920166015625">
        <ele>3963.199951171875</ele>
        <time>2023-07-29T15:47:16.000Z</time>
        <extensions>
          <ns3:TrackPointExtension>
            <ns3:hr>95</ns3:hr>
            <ns3:cad>62</ns3:cad>
          </ns3:TrackPointExtension>
        </extensions>
      </trkpt>
      <trkpt lat="37.7779974974691867828369140625" lon="-107.70015905611217021942138671875">
        <ele>3963</ele>
        <time>2023-07-29T15:47:17.000Z</time>
        <extensions>
          <ns3:TrackPointExtension>
            <ns3:hr>95</ns3:hr>
            <ns3:cad>62</ns3:cad>
          </ns3:TrackPointExtension>
        </extensions>
      </trkpt>
      <trkpt lat="37.77799540199339389801025390625" lon="-107.700163163244724273681640625">
        <ele>3963</ele>
        <time>2023-07-29T15:47:18.000Z</time>
        <extensions>
          <ns3:TrackPointExtension>
            <ns3:hr>95</ns3:hr>
            <ns3:cad>62</ns3:cad>
          </ns3:TrackPointExtension>
        </extensions>
      </trkpt>
      <trkpt lat="37.777990959584712982177734375" lon="-107.7001596428453922271728515625">
        <ele>3962.800048828125</ele>
        <time>2023-07-29T15:47:19.000Z</time>
        <extensions>
          <ns3:TrackPointExtension>
            <ns3:hr>95</ns3:hr>
            <ns3:cad>0</ns3:cad>
          </ns3:TrackPointExtension>
        </extensions>
      </trkpt>
      <trkpt lat="37.777989618480205535888671875" lon="-107.70015536807477474212646484375">
        <ele>3962.60009765625</ele>
        <time>2023-07-29T15:47:20.000Z</time>
        <extensions>
          <ns3:TrackPointExtension>
            <ns3:hr>95</ns3:hr>
            <ns3:cad>0</ns3:cad>
          </ns3:TrackPointExtension>
        </extensions>
      </trkpt>
      <trkpt lat="37.77798802591860294342041015625" lon="-107.700160481035709381103515625">
        <ele>3962.39990234375</ele>
        <time>2023-07-29T15:47:21.000Z</time>
        <extensions>
          <ns3:TrackPointExtension>
            <ns3:hr>94</ns3:hr>
            <ns3:cad>0</ns3:cad>
          </ns3:TrackPointExtension>
        </extensions>
      </trkpt>
      <trkpt lat="37.77798785828053951263427734375" lon="-107.7001723833382129669189453125">
        <ele>3962.199951171875</ele>
        <time>2023-07-29T15:47:22.000Z</time>
        <extensions>
          <ns3:TrackPointExtension>
            <ns3:hr>94</ns3:hr>
            <ns3:cad>0</ns3:cad>
          </ns3:TrackPointExtension>
        </extensions>
      </trkpt>
      <trkpt lat="37.7779837511479854583740234375" lon="-107.70017581991851329803466796875">
        <ele>3962</ele>
        <time>2023-07-29T15:47:23.000Z</time>
        <extensions>
          <ns3:TrackPointExtension>
            <ns3:hr>94</ns3:hr>
            <ns3:cad>0</ns3:cad>
          </ns3:TrackPointExtension>
        </extensions>
      </trkpt>
      <trkpt lat="37.7779820747673511505126953125" lon="-107.70017967559397220611572265625">
        <ele>3962</ele>
        <time>2023-07-29T15:47:24.000Z</time>
        <extensions>
          <ns3:TrackPointExtension>
            <ns3:hr>94</ns3:hr>
            <ns3:cad>0</ns3:cad>
          </ns3:TrackPointExtension>
        </extensions>
      </trkpt>
      <trkpt lat="37.77797880582511425018310546875" lon="-107.70018219016492366790771484375">
        <ele>3962</ele>
        <time>2023-07-29T15:47:25.000Z</time>
        <extensions>
          <ns3:TrackPointExtension>
            <ns3:hr>95</ns3:hr>
            <ns3:cad>0</ns3:cad>
          </ns3:TrackPointExtension>
        </extensions>
      </trkpt>
      <trkpt lat="37.77797587215900421142578125" lon="-107.70018822513520717620849609375">
        <ele>3962</ele>
        <time>2023-07-29T15:47:26.000Z</time>
        <extensions>
          <ns3:TrackPointExtension>
            <ns3:hr>95</ns3:hr>
            <ns3:cad>0</ns3:cad>
          </ns3:TrackPointExtension>
        </extensions>
      </trkpt>
      <trkpt lat="37.77797394432127475738525390625" lon="-107.70018990151584148406982421875">
        <ele>3961.800048828125</ele>
        <time>2023-07-29T15:47:27.000Z</time>
        <extensions>
          <ns3:TrackPointExtension>
            <ns3:hr>95</ns3:hr>
            <ns3:cad>0</ns3:cad>
          </ns3:TrackPointExtension>
        </extensions>
      </trkpt>
      <trkpt lat="37.77797109447419643402099609375" lon="-107.7001918293535709381103515625">
        <ele>3961.60009765625</ele>
        <time>2023-07-29T15:47:28.000Z</time>
        <extensions>
          <ns3:TrackPointExtension>
            <ns3:hr>95</ns3:hr>
            <ns3:cad>0</ns3:cad>
          </ns3:TrackPointExtension>
        </extensions>
      </trkpt>
      <trkpt lat="37.77797159738838672637939453125" lon="-107.7001911588013172149658203125">
        <ele>3961.60009765625</ele>
        <time>2023-07-29T15:47:29.000Z</time>
        <extensions>
          <ns3:TrackPointExtension>
            <ns3:hr>95</ns3:hr>
            <ns3:cad>0</ns3:cad>
          </ns3:TrackPointExtension>
        </extensions>
      </trkpt>
      <trkpt lat="37.77797050774097442626953125" lon="-107.700198702514171600341796875">
        <ele>3961.60009765625</ele>
        <time>2023-07-29T15:47:30.000Z</time>
        <extensions>
          <ns3:TrackPointExtension>
            <ns3:hr>95</ns3:hr>
            <ns3:cad>0</ns3:cad>
          </ns3:TrackPointExtension>
        </extensions>
      </trkpt>
      <trkpt lat="37.77796958573162555694580078125" lon="-107.70020599476993083953857421875">
        <ele>3961.39990234375</ele>
        <time>2023-07-29T15:47:31.000Z</time>
        <extensions>
          <ns3:TrackPointExtension>
            <ns3:hr>95</ns3:hr>
            <ns3:cad>0</ns3:cad>
          </ns3:TrackPointExtension>
        </extensions>
      </trkpt>
      <trkpt lat="37.77796992100775241851806640625" lon="-107.70020683296024799346923828125">
        <ele>3961.199951171875</ele>
        <time>2023-07-29T15:47:32.000Z</time>
        <extensions>
          <ns3:TrackPointExtension>
            <ns3:hr>95</ns3:hr>
            <ns3:cad>0</ns3:cad>
          </ns3:TrackPointExtension>
        </extensions>
      </trkpt>
      <trkpt lat="37.777970172464847564697265625" lon="-107.7002055756747722625732421875">
        <ele>3960.800048828125</ele>
        <time>2023-07-29T15:47:33.000Z</time>
        <extensions>
          <ns3:TrackPointExtension>
            <ns3:hr>95</ns3:hr>
            <ns3:cad>0</ns3:cad>
          </ns3:TrackPointExtension>
        </extensions>
      </trkpt>
      <trkpt lat="37.77797411195933818817138671875" lon="-107.70020104944705963134765625">
        <ele>3960.60009765625</ele>
        <time>2023-07-29T15:47:34.000Z</time>
        <extensions>
          <ns3:TrackPointExtension>
            <ns3:hr>94</ns3:hr>
            <ns3:cad>0</ns3:cad>
          </ns3:TrackPointExtension>
        </extensions>
      </trkpt>
      <trkpt lat="37.77797679416835308074951171875" lon="-107.700191996991634368896484375">
        <ele>3960.39990234375</ele>
        <time>2023-07-29T15:47:35.000Z</time>
        <extensions>
          <ns3:TrackPointExtension>
            <ns3:hr>94</ns3:hr>
            <ns3:cad>0</ns3:cad>
          </ns3:TrackPointExtension>
        </extensions>
      </trkpt>
      <trkpt lat="37.77798014692962169647216796875" lon="-107.70018386654555797576904296875">
        <ele>3960.39990234375</ele>
        <time>2023-07-29T15:47:36.000Z</time>
        <extensions>
          <ns3:TrackPointExtension>
            <ns3:hr>94</ns3:hr>
            <ns3:cad>0</ns3:cad>
          </ns3:TrackPointExtension>
        </extensions>
      </trkpt>
      <trkpt lat="37.7779827453196048736572265625" lon="-107.70017028786242008209228515625">
        <ele>3960.199951171875</ele>
        <time>2023-07-29T15:47:37.000Z</time>
        <extensions>
          <ns3:TrackPointExtension>
            <ns3:hr>94</ns3:hr>
            <ns3:cad>0</ns3:cad>
          </ns3:TrackPointExtension>
        </extensions>
      </trkpt>
      <trkpt lat="37.77798366732895374298095703125" lon="-107.70016911439597606658935546875">
        <ele>3960.199951171875</ele>
        <time>2023-07-29T15:47:38.000Z</time>
        <extensions>
          <ns3:TrackPointExtension>
            <ns3:hr>94</ns3:hr>
            <ns3:cad>0</ns3:cad>
          </ns3:TrackPointExtension>
        </extensions>
      </trkpt>
      <trkpt lat="37.7779820747673511505126953125" lon="-107.7001670189201831817626953125">
        <ele>3960</ele>
        <time>2023-07-29T15:47:39.000Z</time>
        <extensions>
          <ns3:TrackPointExtension>
            <ns3:hr>94</ns3:hr>
            <ns3:cad>0</ns3:cad>
          </ns3:TrackPointExtension>
        </extensions>
      </trkpt>
      <trkpt lat="37.777975536882877349853515625" lon="-107.7001680247485637664794921875">
        <ele>3959.800048828125</ele>
        <time>2023-07-29T15:47:40.000Z</time>
        <extensions>
          <ns3:TrackPointExtension>
            <ns3:hr>94</ns3:hr>
            <ns3:cad>0</ns3:cad>
          </ns3:TrackPointExtension>
        </extensions>
      </trkpt>
      <trkpt lat="37.77797796763479709625244140625" lon="-107.7001703716814517974853515625">
        <ele>3959.800048828125</ele>
        <time>2023-07-29T15:47:41.000Z</time>
        <extensions>
          <ns3:TrackPointExtension>
            <ns3:hr>94</ns3:hr>
            <ns3:cad>0</ns3:cad>
          </ns3:TrackPointExtension>
        </extensions>
      </trkpt>
      <trkpt lat="37.777978219091892242431640625" lon="-107.7001817710697650909423828125">
        <ele>3959.800048828125</ele>
        <time>2023-07-29T15:47:42.000Z</time>
        <extensions>
          <ns3:TrackPointExtension>
            <ns3:hr>94</ns3:hr>
            <ns3:cad>0</ns3:cad>
          </ns3:TrackPointExtension>
        </extensions>
      </trkpt>
      <trkpt lat="37.777978219091892242431640625" lon="-107.7001963555812835693359375">
        <ele>3959.60009765625</ele>
        <time>2023-07-29T15:47:43.000Z</time>
        <extensions>
          <ns3:TrackPointExtension>
            <ns3:hr>94</ns3:hr>
            <ns3:cad>0</ns3:cad>
          </ns3:TrackPointExtension>
        </extensions>
      </trkpt>
      <trkpt lat="37.77797830291092395782470703125" lon="-107.700200714170932769775390625">
        <ele>3959.60009765625</ele>
        <time>2023-07-29T15:47:44.000Z</time>
        <extensions>
          <ns3:TrackPointExtension>
            <ns3:hr>94</ns3:hr>
            <ns3:cad>0</ns3:cad>
          </ns3:TrackPointExtension>
        </extensions>
      </trkpt>
      <trkpt lat="37.77797578833997249603271484375" lon="-107.7002044022083282470703125">
        <ele>3959.60009765625</ele>
        <time>2023-07-29T15:47:45.000Z</time>
        <extensions>
          <ns3:TrackPointExtension>
            <ns3:hr>94</ns3:hr>
            <ns3:cad>0</ns3:cad>
          </ns3:TrackPointExtension>
        </extensions>
      </trkpt>
      <trkpt lat="37.777976207435131072998046875" lon="-107.700201384723186492919921875">
        <ele>3959.39990234375</ele>
        <time>2023-07-29T15:47:46.000Z</time>
        <extensions>
          <ns3:TrackPointExtension>
            <ns3:hr>94</ns3:hr>
            <ns3:cad>0</ns3:cad>
          </ns3:TrackPointExtension>
        </extensions>
      </trkpt>
      <trkpt lat="37.77797830291092395782470703125" lon="-107.70020373165607452392578125">
        <ele>3959.199951171875</ele>
        <time>2023-07-29T15:47:47.000Z</time>
        <extensions>
          <ns3:TrackPointExtension>
            <ns3:hr>94</ns3:hr>
            <ns3:cad>0</ns3:cad>
          </ns3:TrackPointExtension>
        </extensions>
      </trkpt>
      <trkpt lat="37.7779767103493213653564453125" lon="-107.70021219737827777862548828125">
        <ele>3959</ele>
        <time>2023-07-29T15:47:48.000Z</time>
        <extensions>
          <ns3:TrackPointExtension>
            <ns3:hr>94</ns3:hr>
            <ns3:cad>0</ns3:cad>
          </ns3:TrackPointExtension>
        </extensions>
      </trkpt>
      <trkpt lat="37.7779746986925601959228515625" lon="-107.700214125216007232666015625">
        <ele>3958.800048828125</ele>
        <time>2023-07-29T15:47:49.000Z</time>
        <extensions>
          <ns3:TrackPointExtension>
            <ns3:hr>93</ns3:hr>
            <ns3:cad>0</ns3:cad>
          </ns3:TrackPointExtension>
        </extensions>
      </trkpt>
      <trkpt lat="37.7779780514538288116455078125" lon="-107.7002163045108318328857421875">
        <ele>3958.800048828125</ele>
        <time>2023-07-29T15:47:50.000Z</time>
        <extensions>
          <ns3:TrackPointExtension>
            <ns3:hr>93</ns3:hr>
            <ns3:cad>0</ns3:cad>
          </ns3:TrackPointExtension>
        </extensions>
      </trkpt>
      <trkpt lat="37.77797981165349483489990234375" lon="-107.70021806471049785614013671875">
        <ele>3958.800048828125</ele>
        <time>2023-07-29T15:47:51.000Z</time>
        <extensions>
          <ns3:TrackPointExtension>
            <ns3:hr>93</ns3:hr>
            <ns3:cad>0</ns3:cad>
          </ns3:TrackPointExtension>
        </extensions>
      </trkpt>
      <trkpt lat="37.7779817394912242889404296875" lon="-107.7002183161675930023193359375">
        <ele>3958.800048828125</ele>
        <time>2023-07-29T15:47:52.000Z</time>
        <extensions>
          <ns3:TrackPointExtension>
            <ns3:hr>93</ns3:hr>
            <ns3:cad>0</ns3:cad>
          </ns3:TrackPointExtension>
        </extensions>
      </trkpt>
      <trkpt lat="37.7779844217002391815185546875" lon="-107.700224183499813079833984375">
        <ele>3958.60009765625</ele>
        <time>2023-07-29T15:47:53.000Z</time>
        <extensions>
          <ns3:TrackPointExtension>
            <ns3:hr>93</ns3:hr>
            <ns3:cad>0</ns3:cad>
          </ns3:TrackPointExtension>
        </extensions>
      </trkpt>
      <trkpt lat="37.77798785828053951263427734375" lon="-107.7002310566604137420654296875">
        <ele>3958.39990234375</ele>
        <time>2023-07-29T15:47:54.000Z</time>
        <extensions>
          <ns3:TrackPointExtension>
            <ns3:hr>93</ns3:hr>
            <ns3:cad>0</ns3:cad>
          </ns3:TrackPointExtension>
        </extensions>
      </trkpt>
      <trkpt lat="37.77799540199339389801025390625" lon="-107.7002364210784435272216796875">
        <ele>3958.39990234375</ele>
        <time>2023-07-29T15:47:55.000Z</time>
        <extensions>
          <ns3:TrackPointExtension>
            <ns3:hr>93</ns3:hr>
            <ns3:cad>0</ns3:cad>
          </ns3:TrackPointExtension>
        </extensions>
      </trkpt>
      <trkpt lat="37.778003029525279998779296875" lon="-107.70024128258228302001953125">
        <ele>3958.39990234375</ele>
        <time>2023-07-29T15:47:56.000Z</time>
        <extensions>
          <ns3:TrackPointExtension>
            <ns3:hr>93</ns3:hr>
            <ns3:cad>0</ns3:cad>
          </ns3:TrackPointExtension>
        </extensions>
      </trkpt>
      <trkpt lat="37.77801015414297580718994140625" lon="-107.700249664485454559326171875">
        <ele>3958.199951171875</ele>
        <time>2023-07-29T15:47:57.000Z</time>
        <extensions>
          <ns3:TrackPointExtension>
            <ns3:hr>93</ns3:hr>
            <ns3:cad>0</ns3:cad>
          </ns3:TrackPointExtension>
        </extensions>
      </trkpt>
      <trkpt lat="37.77801149524748325347900390625" lon="-107.700257711112499237060546875">
        <ele>3958.199951171875</ele>
        <time>2023-07-29T15:47:58.000Z</time>
        <extensions>
          <ns3:TrackPointExtension>
            <ns3:hr>94</ns3:hr>
            <ns3:cad>0</ns3:cad>
          </ns3:TrackPointExtension>
        </extensions>
      </trkpt>
      <trkpt lat="37.77801610529422760009765625" lon="-107.70026517100632190704345703125">
        <ele>3958</ele>
        <time>2023-07-29T15:47:59.000Z</time>
        <extensions>
          <ns3:TrackPointExtension>
            <ns3:hr>94</ns3:hr>
            <ns3:cad>0</ns3:cad>
          </ns3:TrackPointExtension>
        </extensions>
      </trkpt>
      <trkpt lat="37.77801685966551303863525390625" lon="-107.70027204416692256927490234375">
        <ele>3957.800048828125</ele>
        <time>2023-07-29T15:48:00.000Z</time>
        <extensions>
          <ns3:TrackPointExtension>
            <ns3:hr>93</ns3:hr>
            <ns3:cad>0</ns3:cad>
          </ns3:TrackPointExtension>
        </extensions>
      </trkpt>
      <trkpt lat="37.7780149318277835845947265625" lon="-107.70027506165206432342529296875">
        <ele>3957.800048828125</ele>
        <time>2023-07-29T15:48:01.000Z</time>
        <extensions>
          <ns3:TrackPointExtension>
            <ns3:hr>93</ns3:hr>
            <ns3:cad>0</ns3:cad>
          </ns3:TrackPointExtension>
        </extensions>
      </trkpt>
      <trkpt lat="37.77800814248621463775634765625" lon="-107.700269781053066253662109375">
        <ele>3957.800048828125</ele>
        <time>2023-07-29T15:48:02.000Z</time>
        <extensions>
          <ns3:TrackPointExtension>
            <ns3:hr>93</ns3:hr>
            <ns3:cad>0</ns3:cad>
          </ns3:TrackPointExtension>
        </extensions>
      </trkpt>
      <trkpt lat="37.77800378389656543731689453125" lon="-107.70026517100632190704345703125">
        <ele>3957.60009765625</ele>
        <time>2023-07-29T15:48:03.000Z</time>
        <extensions>
          <ns3:TrackPointExtension>
            <ns3:hr>93</ns3:hr>
            <ns3:cad>0</ns3:cad>
          </ns3:TrackPointExtension>
        </extensions>
      </trkpt>
      <trkpt lat="37.77799942530691623687744140625" lon="-107.70026165060698986053466796875">
        <ele>3957.60009765625</ele>
        <time>2023-07-29T15:48:04.000Z</time>
        <extensions>
          <ns3:TrackPointExtension>
            <ns3:hr>94</ns3:hr>
            <ns3:cad>0</ns3:cad>
          </ns3:TrackPointExtension>
        </extensions>
      </trkpt>
      <trkpt lat="37.77799238450825214385986328125" lon="-107.70025108940899372100830078125">
        <ele>3957.60009765625</ele>
        <time>2023-07-29T15:48:05.000Z</time>
        <extensions>
          <ns3:TrackPointExtension>
            <ns3:hr>94</ns3:hr>
            <ns3:cad>0</ns3:cad>
          </ns3:TrackPointExtension>
        </extensions>
      </trkpt>
      <trkpt lat="37.7779857628047466278076171875" lon="-107.7002484910190105438232421875">
        <ele>3957.39990234375</ele>
        <time>2023-07-29T15:48:06.000Z</time>
        <extensions>
          <ns3:TrackPointExtension>
            <ns3:hr>94</ns3:hr>
            <ns3:cad>0</ns3:cad>
          </ns3:TrackPointExtension>
        </extensions>
      </trkpt>
      <trkpt lat="37.7779845893383026123046875" lon="-107.700247652828693389892578125">
        <ele>3957.39990234375</ele>
        <time>2023-07-29T15:48:07.000Z</time>
        <extensions>
          <ns3:TrackPointExtension>
            <ns3:hr>94</ns3:hr>
            <ns3:cad>0</ns3:cad>
          </ns3:TrackPointExtension>
        </extensions>
      </trkpt>
      <trkpt lat="37.7779844217002391815185546875" lon="-107.70024740137159824371337890625">
        <ele>3957.199951171875</ele>
        <time>2023-07-29T15:48:08.000Z</time>
        <extensions>
          <ns3:TrackPointExtension>
            <ns3:hr>94</ns3:hr>
            <ns3:cad>0</ns3:cad>
          </ns3:TrackPointExtension>
        </extensions>
      </trkpt>
      <trkpt lat="37.77799003757536411285400390625" lon="-107.70025159232318401336669921875">
        <ele>3957.199951171875</ele>
        <time>2023-07-29T15:48:09.000Z</time>
        <extensions>
          <ns3:TrackPointExtension>
            <ns3:hr>94</ns3:hr>
            <ns3:cad>0</ns3:cad>
          </ns3:TrackPointExtension>
        </extensions>
      </trkpt>
      <trkpt lat="37.7779968269169330596923828125" lon="-107.7002582140266895294189453125">
        <ele>3957</ele>
        <time>2023-07-29T15:48:10.000Z</time>
        <extensions>
          <ns3:TrackPointExtension>
            <ns3:hr>95</ns3:hr>
            <ns3:cad>0</ns3:cad>
          </ns3:TrackPointExtension>
        </extensions>
      </trkpt>
      <trkpt lat="37.777999676764011383056640625" lon="-107.70026114769279956817626953125">
        <ele>3956.800048828125</ele>
        <time>2023-07-29T15:48:11.000Z</time>
        <extensions>
          <ns3:TrackPointExtension>
            <ns3:hr>94</ns3:hr>
            <ns3:cad>0</ns3:cad>
          </ns3:TrackPointExtension>
        </extensions>
      </trkpt>
      <trkpt lat="37.77800001204013824462890625" lon="-107.70026232115924358367919921875">
        <ele>3956.800048828125</ele>
        <time>2023-07-29T15:48:12.000Z</time>
        <extensions>
          <ns3:TrackPointExtension>
            <ns3:hr>94</ns3:hr>
            <ns3:cad>0</ns3:cad>
          </ns3:TrackPointExtension>
        </extensions>
      </trkpt>
      <trkpt lat="37.77799691073596477508544921875" lon="-107.70026139914989471435546875">
        <ele>3956.39990234375</ele>
        <time>2023-07-29T15:48:13.000Z</time>
        <extensions>
          <ns3:TrackPointExtension>
            <ns3:hr>94</ns3:hr>
            <ns3:cad>0</ns3:cad>
          </ns3:TrackPointExtension>
        </extensions>
      </trkpt>
      <trkpt lat="37.777994982898235321044921875" lon="-107.70026181824505329132080078125">
        <ele>3956.39990234375</ele>
        <time>2023-07-29T15:48:14.000Z</time>
        <extensions>
          <ns3:TrackPointExtension>
            <ns3:hr>94</ns3:hr>
            <ns3:cad>0</ns3:cad>
          </ns3:TrackPointExtension>
        </extensions>
      </trkpt>
      <trkpt lat="37.77799137867987155914306640625" lon="-107.70026835612952709197998046875">
        <ele>3956.39990234375</ele>
        <time>2023-07-29T15:48:15.000Z</time>
        <extensions>
          <ns3:TrackPointExtension>
            <ns3:hr>94</ns3:hr>
            <ns3:cad>0</ns3:cad>
          </ns3:TrackPointExtension>
        </extensions>
      </trkpt>
      <trkpt lat="37.77798886410892009735107421875" lon="-107.70027154125273227691650390625">
        <ele>3956.199951171875</ele>
        <time>2023-07-29T15:48:16.000Z</time>
        <extensions>
          <ns3:TrackPointExtension>
            <ns3:hr>94</ns3:hr>
            <ns3:cad>0</ns3:cad>
          </ns3:TrackPointExtension>
        </extensions>
      </trkpt>
      <trkpt lat="37.77798819355666637420654296875" lon="-107.70027422346174716949462890625">
        <ele>3956.199951171875</ele>
        <time>2023-07-29T15:48:17.000Z</time>
        <extensions>
          <ns3:TrackPointExtension>
            <ns3:hr>94</ns3:hr>
            <ns3:cad>0</ns3:cad>
          </ns3:TrackPointExtension>
        </extensions>
      </trkpt>
      <trkpt lat="37.77798970229923725128173828125" lon="-107.7002759836614131927490234375">
        <ele>3956.199951171875</ele>
        <time>2023-07-29T15:48:18.000Z</time>
        <extensions>
          <ns3:TrackPointExtension>
            <ns3:hr>94</ns3:hr>
            <ns3:cad>0</ns3:cad>
          </ns3:TrackPointExtension>
        </extensions>
      </trkpt>
      <trkpt lat="37.77799271978437900543212890625" lon="-107.70027657039463520050048828125">
        <ele>3956.199951171875</ele>
        <time>2023-07-29T15:48:19.000Z</time>
        <extensions>
          <ns3:TrackPointExtension>
            <ns3:hr>94</ns3:hr>
            <ns3:cad>0</ns3:cad>
          </ns3:TrackPointExtension>
        </extensions>
      </trkpt>
      <trkpt lat="37.7779954858124256134033203125" lon="-107.70027623511850833892822265625">
        <ele>3956</ele>
        <time>2023-07-29T15:48:20.000Z</time>
        <extensions>
          <ns3:TrackPointExtension>
            <ns3:hr>94</ns3:hr>
            <ns3:cad>0</ns3:cad>
          </ns3:TrackPointExtension>
        </extensions>
      </trkpt>
      <trkpt lat="37.77800009585916996002197265625" lon="-107.7002712897956371307373046875">
        <ele>3955.800048828125</ele>
        <time>2023-07-29T15:48:21.000Z</time>
        <extensions>
          <ns3:TrackPointExtension>
            <ns3:hr>94</ns3:hr>
            <ns3:cad>0</ns3:cad>
          </ns3:TrackPointExtension>
        </extensions>
      </trkpt>
      <trkpt lat="37.77799976058304309844970703125" lon="-107.7002736367285251617431640625">
        <ele>3955.60009765625</ele>
        <time>2023-07-29T15:48:22.000Z</time>
        <extensions>
          <ns3:TrackPointExtension>
            <ns3:hr>93</ns3:hr>
            <ns3:cad>0</ns3:cad>
          </ns3:TrackPointExtension>
        </extensions>
      </trkpt>
      <trkpt lat="37.77799841947853565216064453125" lon="-107.700281850993633270263671875">
        <ele>3955.60009765625</ele>
        <time>2023-07-29T15:48:23.000Z</time>
        <extensions>
          <ns3:TrackPointExtension>
            <ns3:hr>93</ns3:hr>
            <ns3:cad>0</ns3:cad>
          </ns3:TrackPointExtension>
        </extensions>
      </trkpt>
      <trkpt lat="37.77799942530691623687744140625" lon="-107.70028444938361644744873046875">
        <ele>3955.60009765625</ele>
        <time>2023-07-29T15:48:24.000Z</time>
        <extensions>
          <ns3:TrackPointExtension>
            <ns3:hr>93</ns3:hr>
            <ns3:cad>0</ns3:cad>
          </ns3:TrackPointExtension>
        </extensions>
      </trkpt>
      <trkpt lat="37.7779991738498210906982421875" lon="-107.7002853713929653167724609375">
        <ele>3955.60009765625</ele>
        <time>2023-07-29T15:48:25.000Z</time>
        <extensions>
          <ns3:TrackPointExtension>
            <ns3:hr>93</ns3:hr>
            <ns3:cad>0</ns3:cad>
          </ns3:TrackPointExtension>
        </extensions>
      </trkpt>
      <trkpt lat="37.777996994554996490478515625" lon="-107.70029216073453426361083984375">
        <ele>3955.800048828125</ele>
        <time>2023-07-29T15:48:26.000Z</time>
        <extensions>
          <ns3:TrackPointExtension>
            <ns3:hr>93</ns3:hr>
            <ns3:cad>0</ns3:cad>
          </ns3:TrackPointExtension>
        </extensions>
      </trkpt>
      <trkpt lat="37.77799758128821849822998046875" lon="-107.70029266364872455596923828125">
        <ele>3955.800048828125</ele>
        <time>2023-07-29T15:48:27.000Z</time>
        <extensions>
          <ns3:TrackPointExtension>
            <ns3:hr>93</ns3:hr>
            <ns3:cad>0</ns3:cad>
          </ns3:TrackPointExtension>
        </extensions>
      </trkpt>
      <trkpt lat="37.77799573726952075958251953125" lon="-107.70029484294354915618896484375">
        <ele>3955.800048828125</ele>
        <time>2023-07-29T15:48:28.000Z</time>
        <extensions>
          <ns3:TrackPointExtension>
            <ns3:hr>93</ns3:hr>
            <ns3:cad>0</ns3:cad>
          </ns3:TrackPointExtension>
        </extensions>
      </trkpt>
      <trkpt lat="37.77799406088888645172119140625" lon="-107.70029534585773944854736328125">
        <ele>3955.800048828125</ele>
        <time>2023-07-29T15:48:29.000Z</time>
        <extensions>
          <ns3:TrackPointExtension>
            <ns3:hr>93</ns3:hr>
            <ns3:cad>0</ns3:cad>
          </ns3:TrackPointExtension>
        </extensions>
      </trkpt>
      <trkpt lat="37.77799439616501331329345703125" lon="-107.7002900652587413787841796875">
        <ele>3955.800048828125</ele>
        <time>2023-07-29T15:48:30.000Z</time>
        <extensions>
          <ns3:TrackPointExtension>
            <ns3:hr>93</ns3:hr>
            <ns3:cad>0</ns3:cad>
          </ns3:TrackPointExtension>
        </extensions>
      </trkpt>
      <trkpt lat="37.77799590490758419036865234375" lon="-107.700284533202648162841796875">
        <ele>3955.800048828125</ele>
        <time>2023-07-29T15:48:31.000Z</time>
        <extensions>
          <ns3:TrackPointExtension>
            <ns3:hr>92</ns3:hr>
            <ns3:cad>0</ns3:cad>
          </ns3:TrackPointExtension>
        </extensions>
      </trkpt>
      <trkpt lat="37.77799791656434535980224609375" lon="-107.70028277300298213958740234375">
        <ele>3955.800048828125</ele>
        <time>2023-07-29T15:48:32.000Z</time>
        <extensions>
          <ns3:TrackPointExtension>
            <ns3:hr>92</ns3:hr>
            <ns3:cad>0</ns3:cad>
          </ns3:TrackPointExtension>
        </extensions>
      </trkpt>
      <trkpt lat="37.77799875475466251373291015625" lon="-107.70028176717460155487060546875">
        <ele>3955.800048828125</ele>
        <time>2023-07-29T15:48:33.000Z</time>
        <extensions>
          <ns3:TrackPointExtension>
            <ns3:hr>92</ns3:hr>
            <ns3:cad>0</ns3:cad>
          </ns3:TrackPointExtension>
        </extensions>
      </trkpt>
      <trkpt lat="37.7780018560588359832763671875" lon="-107.70028260536491870880126953125">
        <ele>3955.800048828125</ele>
        <time>2023-07-29T15:48:34.000Z</time>
        <extensions>
          <ns3:TrackPointExtension>
            <ns3:hr>92</ns3:hr>
            <ns3:cad>0</ns3:cad>
          </ns3:TrackPointExtension>
        </extensions>
      </trkpt>
      <trkpt lat="37.778003700077533721923828125" lon="-107.70028461702167987823486328125">
        <ele>3955.60009765625</ele>
        <time>2023-07-29T15:48:35.000Z</time>
        <extensions>
          <ns3:TrackPointExtension>
            <ns3:hr>91</ns3:hr>
            <ns3:cad>0</ns3:cad>
          </ns3:TrackPointExtension>
        </extensions>
      </trkpt>
      <trkpt lat="37.7780085615813732147216796875" lon="-107.70028327591717243194580078125">
        <ele>3955.39990234375</ele>
        <time>2023-07-29T15:48:36.000Z</time>
        <extensions>
          <ns3:TrackPointExtension>
            <ns3:hr>91</ns3:hr>
            <ns3:cad>0</ns3:cad>
          </ns3:TrackPointExtension>
        </extensions>
      </trkpt>
      <trkpt lat="37.7780156023800373077392578125" lon="-107.70028746686875820159912109375">
        <ele>3955.39990234375</ele>
        <time>2023-07-29T15:48:37.000Z</time>
        <extensions>
          <ns3:TrackPointExtension>
            <ns3:hr>91</ns3:hr>
            <ns3:cad>0</ns3:cad>
          </ns3:TrackPointExtension>
        </extensions>
      </trkpt>
      <trkpt lat="37.7780206315219402313232421875" lon="-107.700291574001312255859375">
        <ele>3955</ele>
        <time>2023-07-29T15:48:38.000Z</time>
        <extensions>
          <ns3:TrackPointExtension>
            <ns3:hr>91</ns3:hr>
            <ns3:cad>0</ns3:cad>
          </ns3:TrackPointExtension>
        </extensions>
      </trkpt>
      <trkpt lat="37.77802322991192340850830078125" lon="-107.70029735751450061798095703125">
        <ele>3955</ele>
        <time>2023-07-29T15:48:39.000Z</time>
        <extensions>
          <ns3:TrackPointExtension>
            <ns3:hr>91</ns3:hr>
            <ns3:cad>0</ns3:cad>
          </ns3:TrackPointExtension>
        </extensions>
      </trkpt>
      <trkpt lat="37.778023146092891693115234375" lon="-107.70030071027576923370361328125">
        <ele>3954.800048828125</ele>
        <time>2023-07-29T15:48:40.000Z</time>
        <extensions>
          <ns3:TrackPointExtension>
            <ns3:hr>92</ns3:hr>
            <ns3:cad>0</ns3:cad>
          </ns3:TrackPointExtension>
        </extensions>
      </trkpt>
      <trkpt lat="37.7780290134251117706298828125" lon="-107.70030506886541843414306640625">
        <ele>3954.60009765625</ele>
        <time>2023-07-29T15:48:41.000Z</time>
        <extensions>
          <ns3:TrackPointExtension>
            <ns3:hr>92</ns3:hr>
            <ns3:cad>0</ns3:cad>
          </ns3:TrackPointExtension>
        </extensions>
      </trkpt>
      <trkpt lat="37.7780303545296192169189453125" lon="-107.7003085054457187652587890625">
        <ele>3954.60009765625</ele>
        <time>2023-07-29T15:48:42.000Z</time>
        <extensions>
          <ns3:TrackPointExtension>
            <ns3:hr>92</ns3:hr>
            <ns3:cad>0</ns3:cad>
          </ns3:TrackPointExtension>
        </extensions>
      </trkpt>
      <trkpt lat="37.77803219854831695556640625" lon="-107.70031227730214595794677734375">
        <ele>3954.199951171875</ele>
        <time>2023-07-29T15:48:43.000Z</time>
        <extensions>
          <ns3:TrackPointExtension>
            <ns3:hr>93</ns3:hr>
            <ns3:cad>0</ns3:cad>
          </ns3:TrackPointExtension>
        </extensions>
      </trkpt>
      <trkpt lat="37.77803731150925159454345703125" lon="-107.70031546242535114288330078125">
        <ele>3954.199951171875</ele>
        <time>2023-07-29T15:48:44.000Z</time>
        <extensions>
          <ns3:TrackPointExtension>
            <ns3:hr>94</ns3:hr>
            <ns3:cad>0</ns3:cad>
          </ns3:TrackPointExtension>
        </extensions>
      </trkpt>
      <trkpt lat="37.77804301120340824127197265625" lon="-107.70031906664371490478515625">
        <ele>3953.800048828125</ele>
        <time>2023-07-29T15:48:45.000Z</time>
        <extensions>
          <ns3:TrackPointExtension>
            <ns3:hr>94</ns3:hr>
            <ns3:cad>50</ns3:cad>
          </ns3:TrackPointExtension>
        </extensions>
      </trkpt>
      <trkpt lat="37.77804837562143802642822265625" lon="-107.7003266103565692901611328125">
        <ele>3953.60009765625</ele>
        <time>2023-07-29T15:48:46.000Z</time>
        <extensions>
          <ns3:TrackPointExtension>
            <ns3:hr>94</ns3:hr>
            <ns3:cad>50</ns3:cad>
          </ns3:TrackPointExtension>
        </extensions>
      </trkpt>
      <trkpt lat="37.77805239893496036529541015625" lon="-107.70032803528010845184326171875">
        <ele>3953.199951171875</ele>
        <time>2023-07-29T15:48:47.000Z</time>
        <extensions>
          <ns3:TrackPointExtension>
            <ns3:hr>95</ns3:hr>
            <ns3:cad>50</ns3:cad>
          </ns3:TrackPointExtension>
        </extensions>
      </trkpt>
      <trkpt lat="37.778055667877197265625" lon="-107.7003279514610767364501953125">
        <ele>3953</ele>
        <time>2023-07-29T15:48:48.000Z</time>
        <extensions>
          <ns3:TrackPointExtension>
            <ns3:hr>95</ns3:hr>
            <ns3:cad>50</ns3:cad>
          </ns3:TrackPointExtension>
        </extensions>
      </trkpt>
      <trkpt lat="37.7780638821423053741455078125" lon="-107.70033490844070911407470703125">
        <ele>3952.800048828125</ele>
        <time>2023-07-29T15:48:49.000Z</time>
        <extensions>
          <ns3:TrackPointExtension>
            <ns3:hr>96</ns3:hr>
            <ns3:cad>50</ns3:cad>
          </ns3:TrackPointExtension>
        </extensions>
      </trkpt>
      <trkpt lat="37.7780722640454769134521484375" lon="-107.70034245215356349945068359375">
        <ele>3952.800048828125</ele>
        <time>2023-07-29T15:48:50.000Z</time>
        <extensions>
          <ns3:TrackPointExtension>
            <ns3:hr>95</ns3:hr>
            <ns3:cad>50</ns3:cad>
          </ns3:TrackPointExtension>
        </extensions>
      </trkpt>
      <trkpt lat="37.778075449168682098388671875" lon="-107.70034932531416416168212890625">
        <ele>3952.39990234375</ele>
        <time>2023-07-29T15:48:51.000Z</time>
        <extensions>
          <ns3:TrackPointExtension>
            <ns3:hr>95</ns3:hr>
            <ns3:cad>50</ns3:cad>
          </ns3:TrackPointExtension>
        </extensions>
      </trkpt>
      <trkpt lat="37.77807737700641155242919921875" lon="-107.7003581263124942779541015625">
        <ele>3952.199951171875</ele>
        <time>2023-07-29T15:48:52.000Z</time>
        <extensions>
          <ns3:TrackPointExtension>
            <ns3:hr>95</ns3:hr>
            <ns3:cad>50</ns3:cad>
          </ns3:TrackPointExtension>
        </extensions>
      </trkpt>
      <trkpt lat="37.778082154691219329833984375" lon="-107.70036743022501468658447265625">
        <ele>3952.199951171875</ele>
        <time>2023-07-29T15:48:53.000Z</time>
        <extensions>
          <ns3:TrackPointExtension>
            <ns3:hr>96</ns3:hr>
            <ns3:cad>50</ns3:cad>
          </ns3:TrackPointExtension>
        </extensions>
      </trkpt>
      <trkpt lat="37.7780878543853759765625" lon="-107.700375728309154510498046875">
        <ele>3952</ele>
        <time>2023-07-29T15:48:54.000Z</time>
        <extensions>
          <ns3:TrackPointExtension>
            <ns3:hr>95</ns3:hr>
            <ns3:cad>57</ns3:cad>
          </ns3:TrackPointExtension>
        </extensions>
      </trkpt>
      <trkpt lat="37.7780937217175960540771484375" lon="-107.70038821734488010406494140625">
        <ele>3951.800048828125</ele>
        <time>2023-07-29T15:48:55.000Z</time>
        <extensions>
          <ns3:TrackPointExtension>
            <ns3:hr>95</ns3:hr>
            <ns3:cad>57</ns3:cad>
          </ns3:TrackPointExtension>
        </extensions>
      </trkpt>
      <trkpt lat="37.778097577393054962158203125" lon="-107.70040045492351055145263671875">
        <ele>3951.39990234375</ele>
        <time>2023-07-29T15:48:56.000Z</time>
        <extensions>
          <ns3:TrackPointExtension>
            <ns3:hr>95</ns3:hr>
            <ns3:cad>57</ns3:cad>
          </ns3:TrackPointExtension>
        </extensions>
      </trkpt>
      <trkpt lat="37.77810587547719478607177734375" lon="-107.70041336305439472198486328125">
        <ele>3951.199951171875</ele>
        <time>2023-07-29T15:48:57.000Z</time>
        <extensions>
          <ns3:TrackPointExtension>
            <ns3:hr>95</ns3:hr>
            <ns3:cad>0</ns3:cad>
          </ns3:TrackPointExtension>
        </extensions>
      </trkpt>
      <trkpt lat="37.77811040170490741729736328125" lon="-107.700421325862407684326171875">
        <ele>3951.199951171875</ele>
        <time>2023-07-29T15:48:58.000Z</time>
        <extensions>
          <ns3:TrackPointExtension>
            <ns3:hr>95</ns3:hr>
            <ns3:cad>0</ns3:cad>
          </ns3:TrackPointExtension>
        </extensions>
      </trkpt>
      <trkpt lat="37.7781192027032375335693359375" lon="-107.7004359103739261627197265625">
        <ele>3951.199951171875</ele>
        <time>2023-07-29T15:48:59.000Z</time>
        <extensions>
          <ns3:TrackPointExtension>
            <ns3:hr>95</ns3:hr>
            <ns3:cad>0</ns3:cad>
          </ns3:TrackPointExtension>
        </extensions>
      </trkpt>
      <trkpt lat="37.7781282551586627960205078125" lon="-107.7004493214190006256103515625">
        <ele>3951</ele>
        <time>2023-07-29T15:49:00.000Z</time>
        <extensions>
          <ns3:TrackPointExtension>
            <ns3:hr>94</ns3:hr>
            <ns3:cad>0</ns3:cad>
          </ns3:TrackPointExtension>
        </extensions>
      </trkpt>
      <trkpt lat="37.77813102118670940399169921875" lon="-107.7004620619118213653564453125">
        <ele>3951</ele>
        <time>2023-07-29T15:49:01.000Z</time>
        <extensions>
          <ns3:TrackPointExtension>
            <ns3:hr>93</ns3:hr>
            <ns3:cad>0</ns3:cad>
          </ns3:TrackPointExtension>
        </extensions>
      </trkpt>
      <trkpt lat="37.77813135646283626556396484375" lon="-107.700469605624675750732421875">
        <ele>3951</ele>
        <time>2023-07-29T15:49:02.000Z</time>
        <extensions>
          <ns3:TrackPointExtension>
            <ns3:hr>93</ns3:hr>
            <ns3:cad>0</ns3:cad>
          </ns3:TrackPointExtension>
        </extensions>
      </trkpt>
      <trkpt lat="37.7781352959573268890380859375" lon="-107.70048134028911590576171875">
        <ele>3950.800048828125</ele>
        <time>2023-07-29T15:49:03.000Z</time>
        <extensions>
          <ns3:TrackPointExtension>
            <ns3:hr>93</ns3:hr>
            <ns3:cad>57</ns3:cad>
          </ns3:TrackPointExtension>
        </extensions>
      </trkpt>
      <trkpt lat="37.77814057655632495880126953125" lon="-107.700491733849048614501953125">
        <ele>3950.800048828125</ele>
        <time>2023-07-29T15:49:04.000Z</time>
        <extensions>
          <ns3:TrackPointExtension>
            <ns3:hr>93</ns3:hr>
            <ns3:cad>57</ns3:cad>
          </ns3:TrackPointExtension>
        </extensions>
      </trkpt>
      <trkpt lat="37.7781428396701812744140625" lon="-107.70050413906574249267578125">
        <ele>3950.60009765625</ele>
        <time>2023-07-29T15:49:05.000Z</time>
        <extensions>
          <ns3:TrackPointExtension>
            <ns3:hr>93</ns3:hr>
            <ns3:cad>57</ns3:cad>
          </ns3:TrackPointExtension>
        </extensions>
      </trkpt>
      <trkpt lat="37.77814124710857868194580078125" lon="-107.7005096711218357086181640625">
        <ele>3950.60009765625</ele>
        <time>2023-07-29T15:49:06.000Z</time>
        <extensions>
          <ns3:TrackPointExtension>
            <ns3:hr>93</ns3:hr>
            <ns3:cad>57</ns3:cad>
          </ns3:TrackPointExtension>
        </extensions>
      </trkpt>
      <trkpt lat="37.77814141474664211273193359375" lon="-107.7005214057862758636474609375">
        <ele>3950.60009765625</ele>
        <time>2023-07-29T15:49:07.000Z</time>
        <extensions>
          <ns3:TrackPointExtension>
            <ns3:hr>92</ns3:hr>
            <ns3:cad>57</ns3:cad>
          </ns3:TrackPointExtension>
        </extensions>
      </trkpt>
      <trkpt lat="37.77814392931759357452392578125" lon="-107.7005311287939548492431640625">
        <ele>3950.800048828125</ele>
        <time>2023-07-29T15:49:08.000Z</time>
        <extensions>
          <ns3:TrackPointExtension>
            <ns3:hr>91</ns3:hr>
            <ns3:cad>57</ns3:cad>
          </ns3:TrackPointExtension>
        </extensions>
      </trkpt>
      <trkpt lat="37.77814543806016445159912109375" lon="-107.70053942687809467315673828125">
        <ele>3951</ele>
        <time>2023-07-29T15:49:09.000Z</time>
        <extensions>
          <ns3:TrackPointExtension>
            <ns3:hr>90</ns3:hr>
            <ns3:cad>0</ns3:cad>
          </ns3:TrackPointExtension>
        </extensions>
      </trkpt>
      <trkpt lat="37.7781470306217670440673828125" lon="-107.700546048581600189208984375">
        <ele>3951</ele>
        <time>2023-07-29T15:49:10.000Z</time>
        <extensions>
          <ns3:TrackPointExtension>
            <ns3:hr>90</ns3:hr>
            <ns3:cad>0</ns3:cad>
          </ns3:TrackPointExtension>
        </extensions>
      </trkpt>
      <trkpt lat="37.778153903782367706298828125" lon="-107.70055971108376979827880859375">
        <ele>3951.199951171875</ele>
        <time>2023-07-29T15:49:11.000Z</time>
        <extensions>
          <ns3:TrackPointExtension>
            <ns3:hr>90</ns3:hr>
            <ns3:cad>0</ns3:cad>
          </ns3:TrackPointExtension>
        </extensions>
      </trkpt>
      <trkpt lat="37.778161279857158660888671875" lon="-107.70057127811014652252197265625">
        <ele>3951.199951171875</ele>
        <time>2023-07-29T15:49:12.000Z</time>
        <extensions>
          <ns3:TrackPointExtension>
            <ns3:hr>91</ns3:hr>
            <ns3:cad>0</ns3:cad>
          </ns3:TrackPointExtension>
        </extensions>
      </trkpt>
      <trkpt lat="37.77816790156066417694091796875" lon="-107.70057949237525463104248046875">
        <ele>3951.39990234375</ele>
        <time>2023-07-29T15:49:13.000Z</time>
        <extensions>
          <ns3:TrackPointExtension>
            <ns3:hr>91</ns3:hr>
            <ns3:cad>0</ns3:cad>
          </ns3:TrackPointExtension>
        </extensions>
      </trkpt>
      <trkpt lat="37.7781755290925502777099609375" lon="-107.7005867846310138702392578125">
        <ele>3951.60009765625</ele>
        <time>2023-07-29T15:49:14.000Z</time>
        <extensions>
          <ns3:TrackPointExtension>
            <ns3:hr>91</ns3:hr>
            <ns3:cad>0</ns3:cad>
          </ns3:TrackPointExtension>
        </extensions>
      </trkpt>
      <trkpt lat="37.77818240225315093994140625" lon="-107.70059122703969478607177734375">
        <ele>3951.800048828125</ele>
        <time>2023-07-29T15:49:15.000Z</time>
        <extensions>
          <ns3:TrackPointExtension>
            <ns3:hr>91</ns3:hr>
            <ns3:cad>0</ns3:cad>
          </ns3:TrackPointExtension>
        </extensions>
      </trkpt>
      <trkpt lat="37.778190113604068756103515625" lon="-107.70059742964804172515869140625">
        <ele>3951.800048828125</ele>
        <time>2023-07-29T15:49:16.000Z</time>
        <extensions>
          <ns3:TrackPointExtension>
            <ns3:hr>90</ns3:hr>
            <ns3:cad>0</ns3:cad>
          </ns3:TrackPointExtension>
        </extensions>
      </trkpt>
      <trkpt lat="37.77819606475532054901123046875" lon="-107.700599692761898040771484375">
        <ele>3952</ele>
        <time>2023-07-29T15:49:17.000Z</time>
        <extensions>
          <ns3:TrackPointExtension>
            <ns3:hr>90</ns3:hr>
            <ns3:cad>0</ns3:cad>
          </ns3:TrackPointExtension>
        </extensions>
      </trkpt>
      <trkpt lat="37.7782013453543186187744140625" lon="-107.7006015367805957794189453125">
        <ele>3952</ele>
        <time>2023-07-29T15:49:18.000Z</time>
        <extensions>
          <ns3:TrackPointExtension>
            <ns3:hr>90</ns3:hr>
            <ns3:cad>0</ns3:cad>
          </ns3:TrackPointExtension>
        </extensions>
      </trkpt>
      <trkpt lat="37.7782043628394603729248046875" lon="-107.70060069859027862548828125">
        <ele>3952.199951171875</ele>
        <time>2023-07-29T15:49:19.000Z</time>
        <extensions>
          <ns3:TrackPointExtension>
            <ns3:hr>90</ns3:hr>
            <ns3:cad>0</ns3:cad>
          </ns3:TrackPointExtension>
        </extensions>
      </trkpt>
      <trkpt lat="37.7782043628394603729248046875" lon="-107.700597681105136871337890625">
        <ele>3952.39990234375</ele>
        <time>2023-07-29T15:49:20.000Z</time>
        <extensions>
          <ns3:TrackPointExtension>
            <ns3:hr>90</ns3:hr>
            <ns3:cad>0</ns3:cad>
          </ns3:TrackPointExtension>
        </extensions>
      </trkpt>
      <trkpt lat="37.77821031399071216583251953125" lon="-107.7005971781909465789794921875">
        <ele>3952.60009765625</ele>
        <time>2023-07-29T15:49:21.000Z</time>
        <extensions>
          <ns3:TrackPointExtension>
            <ns3:hr>91</ns3:hr>
            <ns3:cad>0</ns3:cad>
          </ns3:TrackPointExtension>
        </extensions>
      </trkpt>
      <trkpt lat="37.7782107330858707427978515625" lon="-107.7005951665341854095458984375">
        <ele>3952.60009765625</ele>
        <time>2023-07-29T15:49:22.000Z</time>
        <extensions>
          <ns3:TrackPointExtension>
            <ns3:hr>91</ns3:hr>
            <ns3:cad>0</ns3:cad>
          </ns3:TrackPointExtension>
        </extensions>
      </trkpt>
      <trkpt lat="37.7782134152948856353759765625" lon="-107.70059256814420223236083984375">
        <ele>3952.800048828125</ele>
        <time>2023-07-29T15:49:23.000Z</time>
        <extensions>
          <ns3:TrackPointExtension>
            <ns3:hr>91</ns3:hr>
            <ns3:cad>0</ns3:cad>
          </ns3:TrackPointExtension>
        </extensions>
      </trkpt>
      <trkpt lat="37.77821668423712253570556640625" lon="-107.700591646134853363037109375">
        <ele>3952.800048828125</ele>
        <time>2023-07-29T15:49:24.000Z</time>
        <extensions>
          <ns3:TrackPointExtension>
            <ns3:hr>92</ns3:hr>
            <ns3:cad>0</ns3:cad>
          </ns3:TrackPointExtension>
        </extensions>
      </trkpt>
      <trkpt lat="37.77821727097034454345703125" lon="-107.70059424452483654022216796875">
        <ele>3952.800048828125</ele>
        <time>2023-07-29T15:49:25.000Z</time>
        <extensions>
          <ns3:TrackPointExtension>
            <ns3:hr>94</ns3:hr>
            <ns3:cad>0</ns3:cad>
          </ns3:TrackPointExtension>
        </extensions>
      </trkpt>
      <trkpt lat="37.7782166004180908203125" lon="-107.700594998896121978759765625">
        <ele>3952.800048828125</ele>
        <time>2023-07-29T15:49:26.000Z</time>
        <extensions>
          <ns3:TrackPointExtension>
            <ns3:hr>96</ns3:hr>
            <ns3:cad>0</ns3:cad>
          </ns3:TrackPointExtension>
        </extensions>
      </trkpt>
      <trkpt lat="37.7782152593135833740234375" lon="-107.70059625618159770965576171875">
        <ele>3952.800048828125</ele>
        <time>2023-07-29T15:49:27.000Z</time>
        <extensions>
          <ns3:TrackPointExtension>
            <ns3:hr>99</ns3:hr>
            <ns3:cad>0</ns3:cad>
          </ns3:TrackPointExtension>
        </extensions>
      </trkpt>
      <trkpt lat="37.77821324765682220458984375" lon="-107.7006008662283420562744140625">
        <ele>3952.800048828125</ele>
        <time>2023-07-29T15:49:28.000Z</time>
        <extensions>
          <ns3:TrackPointExtension>
            <ns3:hr>102</ns3:hr>
            <ns3:cad>0</ns3:cad>
          </ns3:TrackPointExtension>
        </extensions>
      </trkpt>
      <trkpt lat="37.77821190655231475830078125" lon="-107.700605057179927825927734375">
        <ele>3952.800048828125</ele>
        <time>2023-07-29T15:49:29.000Z</time>
        <extensions>
          <ns3:TrackPointExtension>
            <ns3:hr>104</ns3:hr>
            <ns3:cad>0</ns3:cad>
          </ns3:TrackPointExtension>
        </extensions>
      </trkpt>
      <trkpt lat="37.77820981107652187347412109375" lon="-107.7006040513515472412109375">
        <ele>3952.800048828125</ele>
        <time>2023-07-29T15:49:30.000Z</time>
        <extensions>
          <ns3:TrackPointExtension>
            <ns3:hr>105</ns3:hr>
            <ns3:cad>0</ns3:cad>
          </ns3:TrackPointExtension>
        </extensions>
      </trkpt>
      <trkpt lat="37.778206877410411834716796875" lon="-107.70060212351381778717041015625">
        <ele>3952.800048828125</ele>
        <time>2023-07-29T15:49:31.000Z</time>
        <extensions>
          <ns3:TrackPointExtension>
            <ns3:hr>107</ns3:hr>
            <ns3:cad>0</ns3:cad>
          </ns3:TrackPointExtension>
        </extensions>
      </trkpt>
      <trkpt lat="37.77820310555398464202880859375" lon="-107.70060011185705661773681640625">
        <ele>3952.800048828125</ele>
        <time>2023-07-29T15:49:32.000Z</time>
        <extensions>
          <ns3:TrackPointExtension>
            <ns3:hr>108</ns3:hr>
            <ns3:cad>0</ns3:cad>
          </ns3:TrackPointExtension>
        </extensions>
      </trkpt>
      <trkpt lat="37.77819757349789142608642578125" lon="-107.7005948312580585479736328125">
        <ele>3952.800048828125</ele>
        <time>2023-07-29T15:49:33.000Z</time>
        <extensions>
          <ns3:TrackPointExtension>
            <ns3:hr>110</ns3:hr>
            <ns3:cad>0</ns3:cad>
          </ns3:TrackPointExtension>
        </extensions>
      </trkpt>
      <trkpt lat="37.77819170616567134857177734375" lon="-107.7005904726684093475341796875">
        <ele>3952.800048828125</ele>
        <time>2023-07-29T15:49:34.000Z</time>
        <extensions>
          <ns3:TrackPointExtension>
            <ns3:hr>111</ns3:hr>
            <ns3:cad>0</ns3:cad>
          </ns3:TrackPointExtension>
        </extensions>
      </trkpt>
      <trkpt lat="37.7781882695853710174560546875" lon="-107.70058770664036273956298828125">
        <ele>3952.800048828125</ele>
        <time>2023-07-29T15:49:35.000Z</time>
        <extensions>
          <ns3:TrackPointExtension>
            <ns3:hr>113</ns3:hr>
            <ns3:cad>0</ns3:cad>
          </ns3:TrackPointExtension>
        </extensions>
      </trkpt>
      <trkpt lat="37.7781899459660053253173828125" lon="-107.700590975582599639892578125">
        <ele>3952.800048828125</ele>
        <time>2023-07-29T15:49:36.000Z</time>
        <extensions>
          <ns3:TrackPointExtension>
            <ns3:hr>114</ns3:hr>
            <ns3:cad>0</ns3:cad>
          </ns3:TrackPointExtension>
        </extensions>
      </trkpt>
      <trkpt lat="37.778196819126605987548828125" lon="-107.7005975134670734405517578125">
        <ele>3952.800048828125</ele>
        <time>2023-07-29T15:49:37.000Z</time>
        <extensions>
          <ns3:TrackPointExtension>
            <ns3:hr>114</ns3:hr>
            <ns3:cad>0</ns3:cad>
          </ns3:TrackPointExtension>
        </extensions>
      </trkpt>
      <trkpt lat="37.7782006748020648956298828125" lon="-107.7006040513515472412109375">
        <ele>3952.800048828125</ele>
        <time>2023-07-29T15:49:38.000Z</time>
        <extensions>
          <ns3:TrackPointExtension>
            <ns3:hr>116</ns3:hr>
            <ns3:cad>0</ns3:cad>
          </ns3:TrackPointExtension>
        </extensions>
      </trkpt>
      <trkpt lat="37.77821601368486881256103515625" lon="-107.700609080493450164794921875">
        <ele>3952.800048828125</ele>
        <time>2023-07-29T15:49:39.000Z</time>
        <extensions>
          <ns3:TrackPointExtension>
            <ns3:hr>118</ns3:hr>
            <ns3:cad>0</ns3:cad>
          </ns3:TrackPointExtension>
        </extensions>
      </trkpt>
      <trkpt lat="37.7782278321683406829833984375" lon="-107.7006139419972896575927734375">
        <ele>3952.800048828125</ele>
        <time>2023-07-29T15:49:40.000Z</time>
        <extensions>
          <ns3:TrackPointExtension>
            <ns3:hr>118</ns3:hr>
            <ns3:cad>0</ns3:cad>
          </ns3:TrackPointExtension>
        </extensions>
      </trkpt>
      <trkpt lat="37.7782358787953853607177734375" lon="-107.70061821676790714263916015625">
        <ele>3952.800048828125</ele>
        <time>2023-07-29T15:49:41.000Z</time>
        <extensions>
          <ns3:TrackPointExtension>
            <ns3:hr>118</ns3:hr>
            <ns3:cad>43</ns3:cad>
          </ns3:TrackPointExtension>
        </extensions>
      </trkpt>
      <trkpt lat="37.77823981828987598419189453125" lon="-107.700620479881763458251953125">
        <ele>3952.800048828125</ele>
        <time>2023-07-29T15:49:42.000Z</time>
        <extensions>
          <ns3:TrackPointExtension>
            <ns3:hr>117</ns3:hr>
            <ns3:cad>43</ns3:cad>
          </ns3:TrackPointExtension>
        </extensions>
      </trkpt>
      <trkpt lat="37.778241746127605438232421875" lon="-107.7006226591765880584716796875">
        <ele>3952.800048828125</ele>
        <time>2023-07-29T15:49:43.000Z</time>
        <extensions>
          <ns3:TrackPointExtension>
            <ns3:hr>118</ns3:hr>
            <ns3:cad>40</ns3:cad>
          </ns3:TrackPointExtension>
        </extensions>
      </trkpt>
      <trkpt lat="37.77824568562209606170654296875" lon="-107.700624167919158935546875">
        <ele>3952.60009765625</ele>
        <time>2023-07-29T15:49:44.000Z</time>
        <extensions>
          <ns3:TrackPointExtension>
            <ns3:hr>118</ns3:hr>
            <ns3:cad>0</ns3:cad>
          </ns3:TrackPointExtension>
        </extensions>
      </trkpt>
      <trkpt lat="37.77825423516333103179931640625" lon="-107.7006286941468715667724609375">
        <ele>3952.39990234375</ele>
        <time>2023-07-29T15:49:45.000Z</time>
        <extensions>
          <ns3:TrackPointExtension>
            <ns3:hr>119</ns3:hr>
            <ns3:cad>0</ns3:cad>
          </ns3:TrackPointExtension>
        </extensions>
      </trkpt>
      <trkpt lat="37.77826027013361454010009765625" lon="-107.7006340585649013519287109375">
        <ele>3952.199951171875</ele>
        <time>2023-07-29T15:49:46.000Z</time>
        <extensions>
          <ns3:TrackPointExtension>
            <ns3:hr>120</ns3:hr>
            <ns3:cad>0</ns3:cad>
          </ns3:TrackPointExtension>
        </extensions>
      </trkpt>
      <trkpt lat="37.77827183715999126434326171875" lon="-107.7006394229829311370849609375">
        <ele>3952</ele>
        <time>2023-07-29T15:49:47.000Z</time>
        <extensions>
          <ns3:TrackPointExtension>
            <ns3:hr>120</ns3:hr>
            <ns3:cad>0</ns3:cad>
          </ns3:TrackPointExtension>
        </extensions>
      </trkpt>
      <trkpt lat="37.77827904559671878814697265625" lon="-107.70064302720129489898681640625">
        <ele>3951.800048828125</ele>
        <time>2023-07-29T15:49:48.000Z</time>
        <extensions>
          <ns3:TrackPointExtension>
            <ns3:hr>121</ns3:hr>
            <ns3:cad>41</ns3:cad>
          </ns3:TrackPointExtension>
        </extensions>
      </trkpt>
      <trkpt lat="37.77828709222376346588134765625" lon="-107.7006474696099758148193359375">
        <ele>3951.39990234375</ele>
        <time>2023-07-29T15:49:49.000Z</time>
        <extensions>
          <ns3:TrackPointExtension>
            <ns3:hr>121</ns3:hr>
            <ns3:cad>41</ns3:cad>
          </ns3:TrackPointExtension>
        </extensions>
      </trkpt>
      <trkpt lat="37.7782930433750152587890625" lon="-107.70065073855221271514892578125">
        <ele>3951.199951171875</ele>
        <time>2023-07-29T15:49:50.000Z</time>
        <extensions>
          <ns3:TrackPointExtension>
            <ns3:hr>121</ns3:hr>
            <ns3:cad>19</ns3:cad>
          </ns3:TrackPointExtension>
        </extensions>
      </trkpt>
      <trkpt lat="37.77829907834529876708984375" lon="-107.70065342076122760772705078125">
        <ele>3951</ele>
        <time>2023-07-29T15:49:51.000Z</time>
        <extensions>
          <ns3:TrackPointExtension>
            <ns3:hr>121</ns3:hr>
            <ns3:cad>19</ns3:cad>
          </ns3:TrackPointExtension>
        </extensions>
      </trkpt>
      <trkpt lat="37.77830570004880428314208984375" lon="-107.7006576955318450927734375">
        <ele>3950.800048828125</ele>
        <time>2023-07-29T15:49:52.000Z</time>
        <extensions>
          <ns3:TrackPointExtension>
            <ns3:hr>121</ns3:hr>
            <ns3:cad>19</ns3:cad>
          </ns3:TrackPointExtension>
        </extensions>
      </trkpt>
      <trkpt lat="37.77831240557134151458740234375" lon="-107.70066213794052600860595703125">
        <ele>3950.60009765625</ele>
        <time>2023-07-29T15:49:53.000Z</time>
        <extensions>
          <ns3:TrackPointExtension>
            <ns3:hr>120</ns3:hr>
            <ns3:cad>0</ns3:cad>
          </ns3:TrackPointExtension>
        </extensions>
      </trkpt>
      <trkpt lat="37.778318189084529876708984375" lon="-107.70066716708242893218994140625">
        <ele>3950.60009765625</ele>
        <time>2023-07-29T15:49:54.000Z</time>
        <extensions>
          <ns3:TrackPointExtension>
            <ns3:hr>120</ns3:hr>
            <ns3:cad>0</ns3:cad>
          </ns3:TrackPointExtension>
        </extensions>
      </trkpt>
      <trkpt lat="37.7783279120922088623046875" lon="-107.70067387260496616363525390625">
        <ele>3950.39990234375</ele>
        <time>2023-07-29T15:49:55.000Z</time>
        <extensions>
          <ns3:TrackPointExtension>
            <ns3:hr>120</ns3:hr>
            <ns3:cad>0</ns3:cad>
          </ns3:TrackPointExtension>
        </extensions>
      </trkpt>
      <trkpt lat="37.77833604253828525543212890625" lon="-107.70068007521331310272216796875">
        <ele>3950.199951171875</ele>
        <time>2023-07-29T15:49:56.000Z</time>
        <extensions>
          <ns3:TrackPointExtension>
            <ns3:hr>120</ns3:hr>
            <ns3:cad>17</ns3:cad>
          </ns3:TrackPointExtension>
        </extensions>
      </trkpt>
      <trkpt lat="37.77834291569888591766357421875" lon="-107.70068862475454807281494140625">
        <ele>3950</ele>
        <time>2023-07-29T15:49:57.000Z</time>
        <extensions>
          <ns3:TrackPointExtension>
            <ns3:hr>120</ns3:hr>
            <ns3:cad>17</ns3:cad>
          </ns3:TrackPointExtension>
        </extensions>
      </trkpt>
      <trkpt lat="37.77835138142108917236328125" lon="-107.70069717429578304290771484375">
        <ele>3949.800048828125</ele>
        <time>2023-07-29T15:49:58.000Z</time>
        <extensions>
          <ns3:TrackPointExtension>
            <ns3:hr>120</ns3:hr>
            <ns3:cad>0</ns3:cad>
          </ns3:TrackPointExtension>
        </extensions>
      </trkpt>
      <trkpt lat="37.778358422219753265380859375" lon="-107.70070421509444713592529296875">
        <ele>3949.39990234375</ele>
        <time>2023-07-29T15:49:59.000Z</time>
        <extensions>
          <ns3:TrackPointExtension>
            <ns3:hr>120</ns3:hr>
            <ns3:cad>0</ns3:cad>
          </ns3:TrackPointExtension>
        </extensions>
      </trkpt>
      <trkpt lat="37.778361774981021881103515625" lon="-107.70070706494152545928955078125">
        <ele>3949.199951171875</ele>
        <time>2023-07-29T15:50:00.000Z</time>
        <extensions>
          <ns3:TrackPointExtension>
            <ns3:hr>120</ns3:hr>
            <ns3:cad>0</ns3:cad>
          </ns3:TrackPointExtension>
        </extensions>
      </trkpt>
      <trkpt lat="37.7783683128654956817626953125" lon="-107.70070890896022319793701171875">
        <ele>3949</ele>
        <time>2023-07-29T15:50:01.000Z</time>
        <extensions>
          <ns3:TrackPointExtension>
            <ns3:hr>120</ns3:hr>
            <ns3:cad>0</ns3:cad>
          </ns3:TrackPointExtension>
        </extensions>
      </trkpt>
      <trkpt lat="37.7783756889402866363525390625" lon="-107.700712680816650390625">
        <ele>3948.800048828125</ele>
        <time>2023-07-29T15:50:02.000Z</time>
        <extensions>
          <ns3:TrackPointExtension>
            <ns3:hr>120</ns3:hr>
            <ns3:cad>75</ns3:cad>
          </ns3:TrackPointExtension>
        </extensions>
      </trkpt>
      <trkpt lat="37.77838490903377532958984375" lon="-107.700719051063060760498046875">
        <ele>3948.60009765625</ele>
        <time>2023-07-29T15:50:03.000Z</time>
        <extensions>
          <ns3:TrackPointExtension>
            <ns3:hr>120</ns3:hr>
            <ns3:cad>75</ns3:cad>
          </ns3:TrackPointExtension>
        </extensions>
      </trkpt>
      <trkpt lat="37.77839756570756435394287109375" lon="-107.70072198472917079925537109375">
        <ele>3948.60009765625</ele>
        <time>2023-07-29T15:50:04.000Z</time>
        <extensions>
          <ns3:TrackPointExtension>
            <ns3:hr>120</ns3:hr>
            <ns3:cad>67</ns3:cad>
          </ns3:TrackPointExtension>
        </extensions>
      </trkpt>
      <trkpt lat="37.77840234339237213134765625" lon="-107.7007249183952808380126953125">
        <ele>3948.199951171875</ele>
        <time>2023-07-29T15:50:05.000Z</time>
        <extensions>
          <ns3:TrackPointExtension>
            <ns3:hr>120</ns3:hr>
            <ns3:cad>67</ns3:cad>
          </ns3:TrackPointExtension>
        </extensions>
      </trkpt>
      <trkpt lat="37.7784112282097339630126953125" lon="-107.7007282711565494537353515625">
        <ele>3948</ele>
        <time>2023-07-29T15:50:06.000Z</time>
        <extensions>
          <ns3:TrackPointExtension>
            <ns3:hr>120</ns3:hr>
            <ns3:cad>67</ns3:cad>
          </ns3:TrackPointExtension>
        </extensions>
      </trkpt>
      <trkpt lat="37.77842338196933269500732421875" lon="-107.70073438994586467742919921875">
        <ele>3947.800048828125</ele>
        <time>2023-07-29T15:50:07.000Z</time>
        <extensions>
          <ns3:TrackPointExtension>
            <ns3:hr>120</ns3:hr>
            <ns3:cad>67</ns3:cad>
          </ns3:TrackPointExtension>
        </extensions>
      </trkpt>
      <trkpt lat="37.77843050658702850341796875" lon="-107.7007383294403553009033203125">
        <ele>3947.60009765625</ele>
        <time>2023-07-29T15:50:08.000Z</time>
        <extensions>
          <ns3:TrackPointExtension>
            <ns3:hr>119</ns3:hr>
            <ns3:cad>67</ns3:cad>
          </ns3:TrackPointExtension>
        </extensions>
      </trkpt>
      <trkpt lat="37.77843796648085117340087890625" lon="-107.70074126310646533966064453125">
        <ele>3947.60009765625</ele>
        <time>2023-07-29T15:50:09.000Z</time>
        <extensions>
          <ns3:TrackPointExtension>
            <ns3:hr>119</ns3:hr>
            <ns3:cad>67</ns3:cad>
          </ns3:TrackPointExtension>
        </extensions>
      </trkpt>
      <trkpt lat="37.778446264564990997314453125" lon="-107.70074428059160709381103515625">
        <ele>3947.39990234375</ele>
        <time>2023-07-29T15:50:10.000Z</time>
        <extensions>
          <ns3:TrackPointExtension>
            <ns3:hr>120</ns3:hr>
            <ns3:cad>67</ns3:cad>
          </ns3:TrackPointExtension>
        </extensions>
      </trkpt>
      <trkpt lat="37.77845104224979877471923828125" lon="-107.7007460407912731170654296875">
        <ele>3947.39990234375</ele>
        <time>2023-07-29T15:50:11.000Z</time>
        <extensions>
          <ns3:TrackPointExtension>
            <ns3:hr>120</ns3:hr>
            <ns3:cad>67</ns3:cad>
          </ns3:TrackPointExtension>
        </extensions>
      </trkpt>
      <trkpt lat="37.778459675610065460205078125" lon="-107.70074964500963687896728515625">
        <ele>3947.39990234375</ele>
        <time>2023-07-29T15:50:12.000Z</time>
        <extensions>
          <ns3:TrackPointExtension>
            <ns3:hr>120</ns3:hr>
            <ns3:cad>67</ns3:cad>
          </ns3:TrackPointExtension>
        </extensions>
      </trkpt>
      <trkpt lat="37.778465040028095245361328125" lon="-107.700755260884761810302734375">
        <ele>3947.199951171875</ele>
        <time>2023-07-29T15:50:13.000Z</time>
        <extensions>
          <ns3:TrackPointExtension>
            <ns3:hr>120</ns3:hr>
            <ns3:cad>67</ns3:cad>
          </ns3:TrackPointExtension>
        </extensions>
      </trkpt>
      <trkpt lat="37.7784692309796810150146484375" lon="-107.7007591165602207183837890625">
        <ele>3946.800048828125</ele>
        <time>2023-07-29T15:50:14.000Z</time>
        <extensions>
          <ns3:TrackPointExtension>
            <ns3:hr>120</ns3:hr>
            <ns3:cad>0</ns3:cad>
          </ns3:TrackPointExtension>
        </extensions>
      </trkpt>
      <trkpt lat="37.7784759365022182464599609375" lon="-107.70076456479728221893310546875">
        <ele>3946.60009765625</ele>
        <time>2023-07-29T15:50:15.000Z</time>
        <extensions>
          <ns3:TrackPointExtension>
            <ns3:hr>120</ns3:hr>
            <ns3:cad>0</ns3:cad>
          </ns3:TrackPointExtension>
        </extensions>
      </trkpt>
      <trkpt lat="37.77847945690155029296875" lon="-107.70077009685337543487548828125">
        <ele>3946.39990234375</ele>
        <time>2023-07-29T15:50:16.000Z</time>
        <extensions>
          <ns3:TrackPointExtension>
            <ns3:hr>119</ns3:hr>
            <ns3:cad>0</ns3:cad>
          </ns3:TrackPointExtension>
        </extensions>
      </trkpt>
      <trkpt lat="37.77848239056766033172607421875" lon="-107.70077412016689777374267578125">
        <ele>3946.39990234375</ele>
        <time>2023-07-29T15:50:17.000Z</time>
        <extensions>
          <ns3:TrackPointExtension>
            <ns3:hr>119</ns3:hr>
            <ns3:cad>0</ns3:cad>
          </ns3:TrackPointExtension>
        </extensions>
      </trkpt>
      <trkpt lat="37.778486497700214385986328125" lon="-107.70077998749911785125732421875">
        <ele>3946.199951171875</ele>
        <time>2023-07-29T15:50:18.000Z</time>
        <extensions>
          <ns3:TrackPointExtension>
            <ns3:hr>119</ns3:hr>
            <ns3:cad>0</ns3:cad>
          </ns3:TrackPointExtension>
        </extensions>
      </trkpt>
      <trkpt lat="37.77849244885146617889404296875" lon="-107.70078585483133792877197265625">
        <ele>3946</ele>
        <time>2023-07-29T15:50:19.000Z</time>
        <extensions>
          <ns3:TrackPointExtension>
            <ns3:hr>119</ns3:hr>
            <ns3:cad>0</ns3:cad>
          </ns3:TrackPointExtension>
        </extensions>
      </trkpt>
      <trkpt lat="37.77849462814629077911376953125" lon="-107.7007876150310039520263671875">
        <ele>3945.800048828125</ele>
        <time>2023-07-29T15:50:20.000Z</time>
        <extensions>
          <ns3:TrackPointExtension>
            <ns3:hr>118</ns3:hr>
            <ns3:cad>0</ns3:cad>
          </ns3:TrackPointExtension>
        </extensions>
      </trkpt>
      <trkpt lat="37.77849948965013027191162109375" lon="-107.70078954286873340606689453125">
        <ele>3945.60009765625</ele>
        <time>2023-07-29T15:50:21.000Z</time>
        <extensions>
          <ns3:TrackPointExtension>
            <ns3:hr>118</ns3:hr>
            <ns3:cad>0</ns3:cad>
          </ns3:TrackPointExtension>
        </extensions>
      </trkpt>
      <trkpt lat="37.77850024402141571044921875" lon="-107.7007926441729068756103515625">
        <ele>3945.39990234375</ele>
        <time>2023-07-29T15:50:22.000Z</time>
        <extensions>
          <ns3:TrackPointExtension>
            <ns3:hr>118</ns3:hr>
            <ns3:cad>0</ns3:cad>
          </ns3:TrackPointExtension>
        </extensions>
      </trkpt>
      <trkpt lat="37.77850267477333545684814453125" lon="-107.70079826004803180694580078125">
        <ele>3945.199951171875</ele>
        <time>2023-07-29T15:50:23.000Z</time>
        <extensions>
          <ns3:TrackPointExtension>
            <ns3:hr>118</ns3:hr>
            <ns3:cad>0</ns3:cad>
          </ns3:TrackPointExtension>
        </extensions>
      </trkpt>
      <trkpt lat="37.77850636281073093414306640625" lon="-107.70080546848475933074951171875">
        <ele>3945.199951171875</ele>
        <time>2023-07-29T15:50:24.000Z</time>
        <extensions>
          <ns3:TrackPointExtension>
            <ns3:hr>118</ns3:hr>
            <ns3:cad>0</ns3:cad>
          </ns3:TrackPointExtension>
        </extensions>
      </trkpt>
      <trkpt lat="37.77850619517266750335693359375" lon="-107.70080588757991790771484375">
        <ele>3945</ele>
        <time>2023-07-29T15:50:25.000Z</time>
        <extensions>
          <ns3:TrackPointExtension>
            <ns3:hr>118</ns3:hr>
            <ns3:cad>0</ns3:cad>
          </ns3:TrackPointExtension>
        </extensions>
      </trkpt>
      <trkpt lat="37.77851005084812641143798828125" lon="-107.7008063904941082000732421875">
        <ele>3944.800048828125</ele>
        <time>2023-07-29T15:50:26.000Z</time>
        <extensions>
          <ns3:TrackPointExtension>
            <ns3:hr>117</ns3:hr>
            <ns3:cad>0</ns3:cad>
          </ns3:TrackPointExtension>
        </extensions>
      </trkpt>
      <trkpt lat="37.778514325618743896484375" lon="-107.700810246169567108154296875">
        <ele>3944.800048828125</ele>
        <time>2023-07-29T15:50:27.000Z</time>
        <extensions>
          <ns3:TrackPointExtension>
            <ns3:hr>117</ns3:hr>
            <ns3:cad>0</ns3:cad>
          </ns3:TrackPointExtension>
        </extensions>
      </trkpt>
      <trkpt lat="37.7785158343613147735595703125" lon="-107.7008087374269962310791015625">
        <ele>3944.60009765625</ele>
        <time>2023-07-29T15:50:28.000Z</time>
        <extensions>
          <ns3:TrackPointExtension>
            <ns3:hr>117</ns3:hr>
            <ns3:cad>0</ns3:cad>
          </ns3:TrackPointExtension>
        </extensions>
      </trkpt>
      <trkpt lat="37.77851910330355167388916015625" lon="-107.70081368274986743927001953125">
        <ele>3944.39990234375</ele>
        <time>2023-07-29T15:50:29.000Z</time>
        <extensions>
          <ns3:TrackPointExtension>
            <ns3:hr>117</ns3:hr>
            <ns3:cad>0</ns3:cad>
          </ns3:TrackPointExtension>
        </extensions>
      </trkpt>
      <trkpt lat="37.778524719178676605224609375" lon="-107.7008208073675632476806640625">
        <ele>3944.39990234375</ele>
        <time>2023-07-29T15:50:30.000Z</time>
        <extensions>
          <ns3:TrackPointExtension>
            <ns3:hr>116</ns3:hr>
            <ns3:cad>0</ns3:cad>
          </ns3:TrackPointExtension>
        </extensions>
      </trkpt>
      <trkpt lat="37.77852681465446949005126953125" lon="-107.700824998319149017333984375">
        <ele>3944</ele>
        <time>2023-07-29T15:50:31.000Z</time>
        <extensions>
          <ns3:TrackPointExtension>
            <ns3:hr>116</ns3:hr>
            <ns3:cad>0</ns3:cad>
          </ns3:TrackPointExtension>
        </extensions>
      </trkpt>
      <trkpt lat="37.77852974832057952880859375" lon="-107.700828015804290771484375">
        <ele>3943.60009765625</ele>
        <time>2023-07-29T15:50:32.000Z</time>
        <extensions>
          <ns3:TrackPointExtension>
            <ns3:hr>116</ns3:hr>
            <ns3:cad>70</ns3:cad>
          </ns3:TrackPointExtension>
        </extensions>
      </trkpt>
      <trkpt lat="37.77853167615830898284912109375" lon="-107.70082877017557621002197265625">
        <ele>3943.60009765625</ele>
        <time>2023-07-29T15:50:33.000Z</time>
        <extensions>
          <ns3:TrackPointExtension>
            <ns3:hr>116</ns3:hr>
            <ns3:cad>70</ns3:cad>
          </ns3:TrackPointExtension>
        </extensions>
      </trkpt>
      <trkpt lat="37.7785384654998779296875" lon="-107.70083547569811344146728515625">
        <ele>3943.199951171875</ele>
        <time>2023-07-29T15:50:34.000Z</time>
        <extensions>
          <ns3:TrackPointExtension>
            <ns3:hr>116</ns3:hr>
            <ns3:cad>70</ns3:cad>
          </ns3:TrackPointExtension>
        </extensions>
      </trkpt>
      <trkpt lat="37.778542153537273406982421875" lon="-107.70083899609744548797607421875">
        <ele>3943</ele>
        <time>2023-07-29T15:50:35.000Z</time>
        <extensions>
          <ns3:TrackPointExtension>
            <ns3:hr>116</ns3:hr>
            <ns3:cad>70</ns3:cad>
          </ns3:TrackPointExtension>
        </extensions>
      </trkpt>
      <trkpt lat="37.7785460092127323150634765625" lon="-107.70084436051547527313232421875">
        <ele>3943</ele>
        <time>2023-07-29T15:50:36.000Z</time>
        <extensions>
          <ns3:TrackPointExtension>
            <ns3:hr>116</ns3:hr>
            <ns3:cad>0</ns3:cad>
          </ns3:TrackPointExtension>
        </extensions>
      </trkpt>
      <trkpt lat="37.77854760177433490753173828125" lon="-107.70084469579160213470458984375">
        <ele>3942.60009765625</ele>
        <time>2023-07-29T15:50:37.000Z</time>
        <extensions>
          <ns3:TrackPointExtension>
            <ns3:hr>115</ns3:hr>
            <ns3:cad>0</ns3:cad>
          </ns3:TrackPointExtension>
        </extensions>
      </trkpt>
      <trkpt lat="37.7785505354404449462890625" lon="-107.7008489705622196197509765625">
        <ele>3942.39990234375</ele>
        <time>2023-07-29T15:50:38.000Z</time>
        <extensions>
          <ns3:TrackPointExtension>
            <ns3:hr>115</ns3:hr>
            <ns3:cad>0</ns3:cad>
          </ns3:TrackPointExtension>
        </extensions>
      </trkpt>
      <trkpt lat="37.7785490266978740692138671875" lon="-107.7008508145809173583984375">
        <ele>3942.39990234375</ele>
        <time>2023-07-29T15:50:39.000Z</time>
        <extensions>
          <ns3:TrackPointExtension>
            <ns3:hr>115</ns3:hr>
            <ns3:cad>0</ns3:cad>
          </ns3:TrackPointExtension>
        </extensions>
      </trkpt>
      <trkpt lat="37.7785496972501277923583984375" lon="-107.7008550055325031280517578125">
        <ele>3942.199951171875</ele>
        <time>2023-07-29T15:50:40.000Z</time>
        <extensions>
          <ns3:TrackPointExtension>
            <ns3:hr>115</ns3:hr>
            <ns3:cad>0</ns3:cad>
          </ns3:TrackPointExtension>
        </extensions>
      </trkpt>
      <trkpt lat="37.7785476855933666229248046875" lon="-107.7008593641221523284912109375">
        <ele>3942</ele>
        <time>2023-07-29T15:50:41.000Z</time>
        <extensions>
          <ns3:TrackPointExtension>
            <ns3:hr>115</ns3:hr>
            <ns3:cad>0</ns3:cad>
          </ns3:TrackPointExtension>
        </extensions>
      </trkpt>
      <trkpt lat="37.77854810468852519989013671875" lon="-107.70086489617824554443359375">
        <ele>3941.800048828125</ele>
        <time>2023-07-29T15:50:42.000Z</time>
        <extensions>
          <ns3:TrackPointExtension>
            <ns3:hr>115</ns3:hr>
            <ns3:cad>0</ns3:cad>
          </ns3:TrackPointExtension>
        </extensions>
      </trkpt>
      <trkpt lat="37.77855388820171356201171875" lon="-107.70087704993784427642822265625">
        <ele>3941.60009765625</ele>
        <time>2023-07-29T15:50:43.000Z</time>
        <extensions>
          <ns3:TrackPointExtension>
            <ns3:hr>115</ns3:hr>
            <ns3:cad>0</ns3:cad>
          </ns3:TrackPointExtension>
        </extensions>
      </trkpt>
      <trkpt lat="37.77856034226715564727783203125" lon="-107.700888700783252716064453125">
        <ele>3941.39990234375</ele>
        <time>2023-07-29T15:50:44.000Z</time>
        <extensions>
          <ns3:TrackPointExtension>
            <ns3:hr>115</ns3:hr>
            <ns3:cad>0</ns3:cad>
          </ns3:TrackPointExtension>
        </extensions>
      </trkpt>
      <trkpt lat="37.778567634522914886474609375" lon="-107.70089599303901195526123046875">
        <ele>3941.199951171875</ele>
        <time>2023-07-29T15:50:45.000Z</time>
        <extensions>
          <ns3:TrackPointExtension>
            <ns3:hr>115</ns3:hr>
            <ns3:cad>0</ns3:cad>
          </ns3:TrackPointExtension>
        </extensions>
      </trkpt>
      <trkpt lat="37.7785778604447841644287109375" lon="-107.700906805694103240966796875">
        <ele>3941</ele>
        <time>2023-07-29T15:50:46.000Z</time>
        <extensions>
          <ns3:TrackPointExtension>
            <ns3:hr>114</ns3:hr>
            <ns3:cad>0</ns3:cad>
          </ns3:TrackPointExtension>
        </extensions>
      </trkpt>
      <trkpt lat="37.77858397923409938812255859375" lon="-107.70091116428375244140625">
        <ele>3940.800048828125</ele>
        <time>2023-07-29T15:50:47.000Z</time>
        <extensions>
          <ns3:TrackPointExtension>
            <ns3:hr>114</ns3:hr>
            <ns3:cad>0</ns3:cad>
          </ns3:TrackPointExtension>
        </extensions>
      </trkpt>
      <trkpt lat="37.7785899303853511810302734375" lon="-107.70091661252081394195556640625">
        <ele>3940.60009765625</ele>
        <time>2023-07-29T15:50:48.000Z</time>
        <extensions>
          <ns3:TrackPointExtension>
            <ns3:hr>114</ns3:hr>
            <ns3:cad>0</ns3:cad>
          </ns3:TrackPointExtension>
        </extensions>
      </trkpt>
      <trkpt lat="37.7785969711840152740478515625" lon="-107.7009193785488605499267578125">
        <ele>3940.39990234375</ele>
        <time>2023-07-29T15:50:49.000Z</time>
        <extensions>
          <ns3:TrackPointExtension>
            <ns3:hr>114</ns3:hr>
            <ns3:cad>0</ns3:cad>
          </ns3:TrackPointExtension>
        </extensions>
      </trkpt>
      <trkpt lat="37.778601162135601043701171875" lon="-107.70092180930078029632568359375">
        <ele>3940.199951171875</ele>
        <time>2023-07-29T15:50:50.000Z</time>
        <extensions>
          <ns3:TrackPointExtension>
            <ns3:hr>114</ns3:hr>
            <ns3:cad>0</ns3:cad>
          </ns3:TrackPointExtension>
        </extensions>
      </trkpt>
      <trkpt lat="37.77860795147716999053955078125" lon="-107.70092792809009552001953125">
        <ele>3940</ele>
        <time>2023-07-29T15:50:51.000Z</time>
        <extensions>
          <ns3:TrackPointExtension>
            <ns3:hr>114</ns3:hr>
            <ns3:cad>0</ns3:cad>
          </ns3:TrackPointExtension>
        </extensions>
      </trkpt>
      <trkpt lat="37.77861155569553375244140625" lon="-107.70093019120395183563232421875">
        <ele>3940</ele>
        <time>2023-07-29T15:50:52.000Z</time>
        <extensions>
          <ns3:TrackPointExtension>
            <ns3:hr>113</ns3:hr>
            <ns3:cad>0</ns3:cad>
          </ns3:TrackPointExtension>
        </extensions>
      </trkpt>
      <trkpt lat="37.7786170877516269683837890625" lon="-107.70093169994652271270751953125">
        <ele>3939.800048828125</ele>
        <time>2023-07-29T15:50:53.000Z</time>
        <extensions>
          <ns3:TrackPointExtension>
            <ns3:hr>113</ns3:hr>
            <ns3:cad>0</ns3:cad>
          </ns3:TrackPointExtension>
        </extensions>
      </trkpt>
      <trkpt lat="37.7786184288561344146728515625" lon="-107.70092968828976154327392578125">
        <ele>3939.60009765625</ele>
        <time>2023-07-29T15:50:54.000Z</time>
        <extensions>
          <ns3:TrackPointExtension>
            <ns3:hr>113</ns3:hr>
            <ns3:cad>0</ns3:cad>
          </ns3:TrackPointExtension>
        </extensions>
      </trkpt>
      <trkpt lat="37.7786251343786716461181640625" lon="-107.70093035884201526641845703125">
        <ele>3939.39990234375</ele>
        <time>2023-07-29T15:50:55.000Z</time>
        <extensions>
          <ns3:TrackPointExtension>
            <ns3:hr>112</ns3:hr>
            <ns3:cad>0</ns3:cad>
          </ns3:TrackPointExtension>
        </extensions>
      </trkpt>
      <trkpt lat="37.77863225899636745452880859375" lon="-107.7009351365268230438232421875">
        <ele>3939.199951171875</ele>
        <time>2023-07-29T15:50:56.000Z</time>
        <extensions>
          <ns3:TrackPointExtension>
            <ns3:hr>111</ns3:hr>
            <ns3:cad>0</ns3:cad>
          </ns3:TrackPointExtension>
        </extensions>
      </trkpt>
      <trkpt lat="37.778636701405048370361328125" lon="-107.700939662754535675048828125">
        <ele>3939</ele>
        <time>2023-07-29T15:50:57.000Z</time>
        <extensions>
          <ns3:TrackPointExtension>
            <ns3:hr>110</ns3:hr>
            <ns3:cad>0</ns3:cad>
          </ns3:TrackPointExtension>
        </extensions>
      </trkpt>
      <trkpt lat="37.77863795869052410125732421875" lon="-107.7009401656687259674072265625">
        <ele>3939</ele>
        <time>2023-07-29T15:50:58.000Z</time>
        <extensions>
          <ns3:TrackPointExtension>
            <ns3:hr>110</ns3:hr>
            <ns3:cad>0</ns3:cad>
          </ns3:TrackPointExtension>
        </extensions>
      </trkpt>
      <trkpt lat="37.77864265255630016326904296875" lon="-107.70094159059226512908935546875">
        <ele>3938.800048828125</ele>
        <time>2023-07-29T15:50:59.000Z</time>
        <extensions>
          <ns3:TrackPointExtension>
            <ns3:hr>110</ns3:hr>
            <ns3:cad>50</ns3:cad>
          </ns3:TrackPointExtension>
        </extensions>
      </trkpt>
      <trkpt lat="37.77864801697432994842529296875" lon="-107.7009441889822483062744140625">
        <ele>3938.60009765625</ele>
        <time>2023-07-29T15:51:00.000Z</time>
        <extensions>
          <ns3:TrackPointExtension>
            <ns3:hr>109</ns3:hr>
            <ns3:cad>50</ns3:cad>
          </ns3:TrackPointExtension>
        </extensions>
      </trkpt>
      <trkpt lat="37.7786524593830108642578125" lon="-107.700945697724819183349609375">
        <ele>3938.39990234375</ele>
        <time>2023-07-29T15:51:01.000Z</time>
        <extensions>
          <ns3:TrackPointExtension>
            <ns3:hr>109</ns3:hr>
            <ns3:cad>50</ns3:cad>
          </ns3:TrackPointExtension>
        </extensions>
      </trkpt>
      <trkpt lat="37.77866109274327754974365234375" lon="-107.70095516927540302276611328125">
        <ele>3938.199951171875</ele>
        <time>2023-07-29T15:51:02.000Z</time>
        <extensions>
          <ns3:TrackPointExtension>
            <ns3:hr>109</ns3:hr>
            <ns3:cad>50</ns3:cad>
          </ns3:TrackPointExtension>
        </extensions>
      </trkpt>
      <trkpt lat="37.778663523495197296142578125" lon="-107.7009634673595428466796875">
        <ele>3938</ele>
        <time>2023-07-29T15:51:03.000Z</time>
        <extensions>
          <ns3:TrackPointExtension>
            <ns3:hr>109</ns3:hr>
            <ns3:cad>0</ns3:cad>
          </ns3:TrackPointExtension>
        </extensions>
      </trkpt>
      <trkpt lat="37.7786650322377681732177734375" lon="-107.700969837605953216552734375">
        <ele>3938</ele>
        <time>2023-07-29T15:51:04.000Z</time>
        <extensions>
          <ns3:TrackPointExtension>
            <ns3:hr>109</ns3:hr>
            <ns3:cad>0</ns3:cad>
          </ns3:TrackPointExtension>
        </extensions>
      </trkpt>
      <trkpt lat="37.778674252331256866455078125" lon="-107.700983583927154541015625">
        <ele>3938</ele>
        <time>2023-07-29T15:51:05.000Z</time>
        <extensions>
          <ns3:TrackPointExtension>
            <ns3:hr>109</ns3:hr>
            <ns3:cad>0</ns3:cad>
          </ns3:TrackPointExtension>
        </extensions>
      </trkpt>
      <trkpt lat="37.778673581779003143310546875" lon="-107.7009871043264865875244140625">
        <ele>3938</ele>
        <time>2023-07-29T15:51:06.000Z</time>
        <extensions>
          <ns3:TrackPointExtension>
            <ns3:hr>109</ns3:hr>
            <ns3:cad>0</ns3:cad>
          </ns3:TrackPointExtension>
        </extensions>
      </trkpt>
      <trkpt lat="37.7786794491112232208251953125" lon="-107.70099473185837268829345703125">
        <ele>3937.800048828125</ele>
        <time>2023-07-29T15:51:07.000Z</time>
        <extensions>
          <ns3:TrackPointExtension>
            <ns3:hr>109</ns3:hr>
            <ns3:cad>0</ns3:cad>
          </ns3:TrackPointExtension>
        </extensions>
      </trkpt>
      <trkpt lat="37.778685651719570159912109375" lon="-107.7010025270283222198486328125">
        <ele>3937.39990234375</ele>
        <time>2023-07-29T15:51:08.000Z</time>
        <extensions>
          <ns3:TrackPointExtension>
            <ns3:hr>109</ns3:hr>
            <ns3:cad>0</ns3:cad>
          </ns3:TrackPointExtension>
        </extensions>
      </trkpt>
      <trkpt lat="37.778690345585346221923828125" lon="-107.7010072208940982818603515625">
        <ele>3937</ele>
        <time>2023-07-29T15:51:09.000Z</time>
        <extensions>
          <ns3:TrackPointExtension>
            <ns3:hr>110</ns3:hr>
            <ns3:cad>0</ns3:cad>
          </ns3:TrackPointExtension>
        </extensions>
      </trkpt>
      <trkpt lat="37.77869629673659801483154296875" lon="-107.7010119147598743438720703125">
        <ele>3937</ele>
        <time>2023-07-29T15:51:10.000Z</time>
        <extensions>
          <ns3:TrackPointExtension>
            <ns3:hr>110</ns3:hr>
            <ns3:cad>0</ns3:cad>
          </ns3:TrackPointExtension>
        </extensions>
      </trkpt>
      <trkpt lat="37.77869998477399349212646484375" lon="-107.7010122500360012054443359375">
        <ele>3936.60009765625</ele>
        <time>2023-07-29T15:51:11.000Z</time>
        <extensions>
          <ns3:TrackPointExtension>
            <ns3:hr>110</ns3:hr>
            <ns3:cad>0</ns3:cad>
          </ns3:TrackPointExtension>
        </extensions>
      </trkpt>
      <trkpt lat="37.77870685793459415435791015625" lon="-107.70101803354918956756591796875">
        <ele>3936.60009765625</ele>
        <time>2023-07-29T15:51:12.000Z</time>
        <extensions>
          <ns3:TrackPointExtension>
            <ns3:hr>110</ns3:hr>
            <ns3:cad>19</ns3:cad>
          </ns3:TrackPointExtension>
        </extensions>
      </trkpt>
      <trkpt lat="37.7787086181342601776123046875" lon="-107.70101350732147693634033203125">
        <ele>3936.199951171875</ele>
        <time>2023-07-29T15:51:13.000Z</time>
        <extensions>
          <ns3:TrackPointExtension>
            <ns3:hr>110</ns3:hr>
            <ns3:cad>19</ns3:cad>
          </ns3:TrackPointExtension>
        </extensions>
      </trkpt>
      <trkpt lat="37.7787141501903533935546875" lon="-107.70101233385503292083740234375">
        <ele>3936</ele>
        <time>2023-07-29T15:51:14.000Z</time>
        <extensions>
          <ns3:TrackPointExtension>
            <ns3:hr>110</ns3:hr>
            <ns3:cad>19</ns3:cad>
          </ns3:TrackPointExtension>
        </extensions>
      </trkpt>
      <trkpt lat="37.77872244827449321746826171875" lon="-107.70101820118725299835205078125">
        <ele>3935.800048828125</ele>
        <time>2023-07-29T15:51:15.000Z</time>
        <extensions>
          <ns3:TrackPointExtension>
            <ns3:hr>110</ns3:hr>
            <ns3:cad>0</ns3:cad>
          </ns3:TrackPointExtension>
        </extensions>
      </trkpt>
      <trkpt lat="37.77872445993125438690185546875" lon="-107.70101912319660186767578125">
        <ele>3935.39990234375</ele>
        <time>2023-07-29T15:51:16.000Z</time>
        <extensions>
          <ns3:TrackPointExtension>
            <ns3:hr>110</ns3:hr>
            <ns3:cad>0</ns3:cad>
          </ns3:TrackPointExtension>
        </extensions>
      </trkpt>
      <trkpt lat="37.77872948907315731048583984375" lon="-107.70102255977690219879150390625">
        <ele>3935.39990234375</ele>
        <time>2023-07-29T15:51:17.000Z</time>
        <extensions>
          <ns3:TrackPointExtension>
            <ns3:hr>110</ns3:hr>
            <ns3:cad>0</ns3:cad>
          </ns3:TrackPointExtension>
        </extensions>
      </trkpt>
      <trkpt lat="37.7787391282618045806884765625" lon="-107.70102909766137599945068359375">
        <ele>3935</ele>
        <time>2023-07-29T15:51:18.000Z</time>
        <extensions>
          <ns3:TrackPointExtension>
            <ns3:hr>111</ns3:hr>
            <ns3:cad>0</ns3:cad>
          </ns3:TrackPointExtension>
        </extensions>
      </trkpt>
      <trkpt lat="37.77873854152858257293701171875" lon="-107.70102943293750286102294921875">
        <ele>3935</ele>
        <time>2023-07-29T15:51:19.000Z</time>
        <extensions>
          <ns3:TrackPointExtension>
            <ns3:hr>111</ns3:hr>
            <ns3:cad>0</ns3:cad>
          </ns3:TrackPointExtension>
        </extensions>
      </trkpt>
      <trkpt lat="37.77874021790921688079833984375" lon="-107.7010323666036128997802734375">
        <ele>3934.800048828125</ele>
        <time>2023-07-29T15:51:20.000Z</time>
        <extensions>
          <ns3:TrackPointExtension>
            <ns3:hr>111</ns3:hr>
            <ns3:cad>0</ns3:cad>
          </ns3:TrackPointExtension>
        </extensions>
      </trkpt>
      <trkpt lat="37.778744995594024658203125" lon="-107.701035551726818084716796875">
        <ele>3934.60009765625</ele>
        <time>2023-07-29T15:51:21.000Z</time>
        <extensions>
          <ns3:TrackPointExtension>
            <ns3:hr>111</ns3:hr>
            <ns3:cad>0</ns3:cad>
          </ns3:TrackPointExtension>
        </extensions>
      </trkpt>
      <trkpt lat="37.77874893508851528167724609375" lon="-107.70103898830711841583251953125">
        <ele>3934.199951171875</ele>
        <time>2023-07-29T15:51:22.000Z</time>
        <extensions>
          <ns3:TrackPointExtension>
            <ns3:hr>110</ns3:hr>
            <ns3:cad>0</ns3:cad>
          </ns3:TrackPointExtension>
        </extensions>
      </trkpt>
      <trkpt lat="37.77874968945980072021484375" lon="-107.7010390721261501312255859375">
        <ele>3934.199951171875</ele>
        <time>2023-07-29T15:51:23.000Z</time>
        <extensions>
          <ns3:TrackPointExtension>
            <ns3:hr>110</ns3:hr>
            <ns3:cad>0</ns3:cad>
          </ns3:TrackPointExtension>
        </extensions>
      </trkpt>
      <trkpt lat="37.77875178493559360504150390625" lon="-107.70103932358324527740478515625">
        <ele>3934</ele>
        <time>2023-07-29T15:51:24.000Z</time>
        <extensions>
          <ns3:TrackPointExtension>
            <ns3:hr>110</ns3:hr>
            <ns3:cad>0</ns3:cad>
          </ns3:TrackPointExtension>
        </extensions>
      </trkpt>
      <trkpt lat="37.77875295840203762054443359375" lon="-107.701037228107452392578125">
        <ele>3933.800048828125</ele>
        <time>2023-07-29T15:51:25.000Z</time>
        <extensions>
          <ns3:TrackPointExtension>
            <ns3:hr>110</ns3:hr>
            <ns3:cad>0</ns3:cad>
          </ns3:TrackPointExtension>
        </extensions>
      </trkpt>
      <trkpt lat="37.7787625975906848907470703125" lon="-107.701048962771892547607421875">
        <ele>3933.60009765625</ele>
        <time>2023-07-29T15:51:26.000Z</time>
        <extensions>
          <ns3:TrackPointExtension>
            <ns3:hr>109</ns3:hr>
            <ns3:cad>0</ns3:cad>
          </ns3:TrackPointExtension>
        </extensions>
      </trkpt>
      <trkpt lat="37.77876846492290496826171875" lon="-107.701056003570556640625">
        <ele>3933</ele>
        <time>2023-07-29T15:51:27.000Z</time>
        <extensions>
          <ns3:TrackPointExtension>
            <ns3:hr>109</ns3:hr>
            <ns3:cad>0</ns3:cad>
          </ns3:TrackPointExtension>
        </extensions>
      </trkpt>
      <trkpt lat="37.77877827174961566925048828125" lon="-107.70106731913983821868896484375">
        <ele>3932.800048828125</ele>
        <time>2023-07-29T15:51:28.000Z</time>
        <extensions>
          <ns3:TrackPointExtension>
            <ns3:hr>109</ns3:hr>
            <ns3:cad>41</ns3:cad>
          </ns3:TrackPointExtension>
        </extensions>
      </trkpt>
      <trkpt lat="37.7787847258150577545166015625" lon="-107.70107519812881946563720703125">
        <ele>3932.60009765625</ele>
        <time>2023-07-29T15:51:29.000Z</time>
        <extensions>
          <ns3:TrackPointExtension>
            <ns3:hr>108</ns3:hr>
            <ns3:cad>41</ns3:cad>
          </ns3:TrackPointExtension>
        </extensions>
      </trkpt>
      <trkpt lat="37.7787837199866771697998046875" lon="-107.70107335411012172698974609375">
        <ele>3932.39990234375</ele>
        <time>2023-07-29T15:51:30.000Z</time>
        <extensions>
          <ns3:TrackPointExtension>
            <ns3:hr>108</ns3:hr>
            <ns3:cad>41</ns3:cad>
          </ns3:TrackPointExtension>
        </extensions>
      </trkpt>
      <trkpt lat="37.77878900058567523956298828125" lon="-107.7010776288807392120361328125">
        <ele>3932.39990234375</ele>
        <time>2023-07-29T15:51:31.000Z</time>
        <extensions>
          <ns3:TrackPointExtension>
            <ns3:hr>107</ns3:hr>
            <ns3:cad>41</ns3:cad>
          </ns3:TrackPointExtension>
        </extensions>
      </trkpt>
      <trkpt lat="37.7787957899272441864013671875" lon="-107.70108349621295928955078125">
        <ele>3932.199951171875</ele>
        <time>2023-07-29T15:51:32.000Z</time>
        <extensions>
          <ns3:TrackPointExtension>
            <ns3:hr>107</ns3:hr>
            <ns3:cad>41</ns3:cad>
          </ns3:TrackPointExtension>
        </extensions>
      </trkpt>
      <trkpt lat="37.77880358509719371795654296875" lon="-107.7010881900787353515625">
        <ele>3932</ele>
        <time>2023-07-29T15:51:33.000Z</time>
        <extensions>
          <ns3:TrackPointExtension>
            <ns3:hr>107</ns3:hr>
            <ns3:cad>41</ns3:cad>
          </ns3:TrackPointExtension>
        </extensions>
      </trkpt>
      <trkpt lat="37.77881280519068241119384765625" lon="-107.70109095610678195953369140625">
        <ele>3931.800048828125</ele>
        <time>2023-07-29T15:51:34.000Z</time>
        <extensions>
          <ns3:TrackPointExtension>
            <ns3:hr>107</ns3:hr>
            <ns3:cad>41</ns3:cad>
          </ns3:TrackPointExtension>
        </extensions>
      </trkpt>
      <trkpt lat="37.77881548739969730377197265625" lon="-107.701091878116130828857421875">
        <ele>3931.800048828125</ele>
        <time>2023-07-29T15:51:35.000Z</time>
        <extensions>
          <ns3:TrackPointExtension>
            <ns3:hr>107</ns3:hr>
            <ns3:cad>41</ns3:cad>
          </ns3:TrackPointExtension>
        </extensions>
      </trkpt>
      <trkpt lat="37.77881884016096591949462890625" lon="-107.701090872287750244140625">
        <ele>3931.39990234375</ele>
        <time>2023-07-29T15:51:36.000Z</time>
        <extensions>
          <ns3:TrackPointExtension>
            <ns3:hr>107</ns3:hr>
            <ns3:cad>0</ns3:cad>
          </ns3:TrackPointExtension>
        </extensions>
      </trkpt>
      <trkpt lat="37.77881808578968048095703125" lon="-107.70109011791646480560302734375">
        <ele>3931.39990234375</ele>
        <time>2023-07-29T15:51:37.000Z</time>
        <extensions>
          <ns3:TrackPointExtension>
            <ns3:hr>108</ns3:hr>
            <ns3:cad>0</ns3:cad>
          </ns3:TrackPointExtension>
        </extensions>
      </trkpt>
      <trkpt lat="37.77882051654160022735595703125" lon="-107.7010883577167987823486328125">
        <ele>3931.199951171875</ele>
        <time>2023-07-29T15:51:38.000Z</time>
        <extensions>
          <ns3:TrackPointExtension>
            <ns3:hr>109</ns3:hr>
            <ns3:cad>0</ns3:cad>
          </ns3:TrackPointExtension>
        </extensions>
      </trkpt>
      <trkpt lat="37.7788199298083782196044921875" lon="-107.70108609460294246673583984375">
        <ele>3931</ele>
        <time>2023-07-29T15:51:39.000Z</time>
        <extensions>
          <ns3:TrackPointExtension>
            <ns3:hr>110</ns3:hr>
            <ns3:cad>0</ns3:cad>
          </ns3:TrackPointExtension>
        </extensions>
      </trkpt>
      <trkpt lat="37.77881942689418792724609375" lon="-107.70108458586037158966064453125">
        <ele>3931</ele>
        <time>2023-07-29T15:51:40.000Z</time>
        <extensions>
          <ns3:TrackPointExtension>
            <ns3:hr>109</ns3:hr>
            <ns3:cad>0</ns3:cad>
          </ns3:TrackPointExtension>
        </extensions>
      </trkpt>
      <trkpt lat="37.7788199298083782196044921875" lon="-107.70108492113649845123291015625">
        <ele>3930.800048828125</ele>
        <time>2023-07-29T15:51:41.000Z</time>
        <extensions>
          <ns3:TrackPointExtension>
            <ns3:hr>109</ns3:hr>
            <ns3:cad>0</ns3:cad>
          </ns3:TrackPointExtension>
        </extensions>
      </trkpt>
      <trkpt lat="37.77881783433258533477783203125" lon="-107.70108341239392757415771484375">
        <ele>3930.800048828125</ele>
        <time>2023-07-29T15:51:42.000Z</time>
        <extensions>
          <ns3:TrackPointExtension>
            <ns3:hr>109</ns3:hr>
            <ns3:cad>0</ns3:cad>
          </ns3:TrackPointExtension>
        </extensions>
      </trkpt>
      <trkpt lat="37.778813056647777557373046875" lon="-107.70108140073716640472412109375">
        <ele>3930.800048828125</ele>
        <time>2023-07-29T15:51:43.000Z</time>
        <extensions>
          <ns3:TrackPointExtension>
            <ns3:hr>108</ns3:hr>
            <ns3:cad>0</ns3:cad>
          </ns3:TrackPointExtension>
        </extensions>
      </trkpt>
      <trkpt lat="37.77881682850420475006103515625" lon="-107.7010860107839107513427734375">
        <ele>3930.800048828125</ele>
        <time>2023-07-29T15:51:44.000Z</time>
        <extensions>
          <ns3:TrackPointExtension>
            <ns3:hr>108</ns3:hr>
            <ns3:cad>0</ns3:cad>
          </ns3:TrackPointExtension>
        </extensions>
      </trkpt>
      <trkpt lat="37.77882319875061511993408203125" lon="-107.70109447650611400604248046875">
        <ele>3930.800048828125</ele>
        <time>2023-07-29T15:51:45.000Z</time>
        <extensions>
          <ns3:TrackPointExtension>
            <ns3:hr>107</ns3:hr>
            <ns3:cad>0</ns3:cad>
          </ns3:TrackPointExtension>
        </extensions>
      </trkpt>
      <trkpt lat="37.7788263000547885894775390625" lon="-107.701098583638668060302734375">
        <ele>3930.800048828125</ele>
        <time>2023-07-29T15:51:46.000Z</time>
        <extensions>
          <ns3:TrackPointExtension>
            <ns3:hr>107</ns3:hr>
            <ns3:cad>0</ns3:cad>
          </ns3:TrackPointExtension>
        </extensions>
      </trkpt>
      <trkpt lat="37.7788279764354228973388671875" lon="-107.701101265847682952880859375">
        <ele>3930.60009765625</ele>
        <time>2023-07-29T15:51:47.000Z</time>
        <extensions>
          <ns3:TrackPointExtension>
            <ns3:hr>107</ns3:hr>
            <ns3:cad>0</ns3:cad>
          </ns3:TrackPointExtension>
        </extensions>
      </trkpt>
      <trkpt lat="37.77882822789251804351806640625" lon="-107.70109900273382663726806640625">
        <ele>3930.60009765625</ele>
        <time>2023-07-29T15:51:48.000Z</time>
        <extensions>
          <ns3:TrackPointExtension>
            <ns3:hr>107</ns3:hr>
            <ns3:cad>0</ns3:cad>
          </ns3:TrackPointExtension>
        </extensions>
      </trkpt>
      <trkpt lat="37.7788283117115497589111328125" lon="-107.70109682343900203704833984375">
        <ele>3930.60009765625</ele>
        <time>2023-07-29T15:51:49.000Z</time>
        <extensions>
          <ns3:TrackPointExtension>
            <ns3:hr>106</ns3:hr>
            <ns3:cad>0</ns3:cad>
          </ns3:TrackPointExtension>
        </extensions>
      </trkpt>
      <trkpt lat="37.77883107773959636688232421875" lon="-107.70110185258090496063232421875">
        <ele>3930.39990234375</ele>
        <time>2023-07-29T15:51:50.000Z</time>
        <extensions>
          <ns3:TrackPointExtension>
            <ns3:hr>106</ns3:hr>
            <ns3:cad>0</ns3:cad>
          </ns3:TrackPointExtension>
        </extensions>
      </trkpt>
      <trkpt lat="37.77882973663508892059326171875" lon="-107.7011029422283172607421875">
        <ele>3930.199951171875</ele>
        <time>2023-07-29T15:51:51.000Z</time>
        <extensions>
          <ns3:TrackPointExtension>
            <ns3:hr>105</ns3:hr>
            <ns3:cad>0</ns3:cad>
          </ns3:TrackPointExtension>
        </extensions>
      </trkpt>
      <trkpt lat="37.77883350849151611328125" lon="-107.70111191086471080780029296875">
        <ele>3929.800048828125</ele>
        <time>2023-07-29T15:51:52.000Z</time>
        <extensions>
          <ns3:TrackPointExtension>
            <ns3:hr>105</ns3:hr>
            <ns3:cad>0</ns3:cad>
          </ns3:TrackPointExtension>
        </extensions>
      </trkpt>
      <trkpt lat="37.7788346819579601287841796875" lon="-107.701120711863040924072265625">
        <ele>3929.800048828125</ele>
        <time>2023-07-29T15:51:53.000Z</time>
        <extensions>
          <ns3:TrackPointExtension>
            <ns3:hr>105</ns3:hr>
            <ns3:cad>0</ns3:cad>
          </ns3:TrackPointExtension>
        </extensions>
      </trkpt>
      <trkpt lat="37.778834514319896697998046875" lon="-107.70112683065235614776611328125">
        <ele>3929.60009765625</ele>
        <time>2023-07-29T15:51:54.000Z</time>
        <extensions>
          <ns3:TrackPointExtension>
            <ns3:hr>105</ns3:hr>
            <ns3:cad>0</ns3:cad>
          </ns3:TrackPointExtension>
        </extensions>
      </trkpt>
      <trkpt lat="37.77883409522473812103271484375" lon="-107.7011316083371639251708984375">
        <ele>3929.39990234375</ele>
        <time>2023-07-29T15:51:55.000Z</time>
        <extensions>
          <ns3:TrackPointExtension>
            <ns3:hr>105</ns3:hr>
            <ns3:cad>0</ns3:cad>
          </ns3:TrackPointExtension>
        </extensions>
      </trkpt>
      <trkpt lat="37.77883610688149929046630859375" lon="-107.7011416666209697723388671875">
        <ele>3929.199951171875</ele>
        <time>2023-07-29T15:51:56.000Z</time>
        <extensions>
          <ns3:TrackPointExtension>
            <ns3:hr>105</ns3:hr>
            <ns3:cad>0</ns3:cad>
          </ns3:TrackPointExtension>
        </extensions>
      </trkpt>
      <trkpt lat="37.77883526869118213653564453125" lon="-107.70114091224968433380126953125">
        <ele>3929</ele>
        <time>2023-07-29T15:51:57.000Z</time>
        <extensions>
          <ns3:TrackPointExtension>
            <ns3:hr>105</ns3:hr>
            <ns3:cad>0</ns3:cad>
          </ns3:TrackPointExtension>
        </extensions>
      </trkpt>
      <trkpt lat="37.77883510105311870574951171875" lon="-107.701141498982906341552734375">
        <ele>3929</ele>
        <time>2023-07-29T15:51:58.000Z</time>
        <extensions>
          <ns3:TrackPointExtension>
            <ns3:hr>105</ns3:hr>
            <ns3:cad>0</ns3:cad>
          </ns3:TrackPointExtension>
        </extensions>
      </trkpt>
      <trkpt lat="37.77883552014827728271484375" lon="-107.70113990642130374908447265625">
        <ele>3929</ele>
        <time>2023-07-29T15:51:59.000Z</time>
        <extensions>
          <ns3:TrackPointExtension>
            <ns3:hr>105</ns3:hr>
            <ns3:cad>0</ns3:cad>
          </ns3:TrackPointExtension>
        </extensions>
      </trkpt>
      <trkpt lat="37.77883359231054782867431640625" lon="-107.70114024169743061065673828125">
        <ele>3929</ele>
        <time>2023-07-29T15:52:00.000Z</time>
        <extensions>
          <ns3:TrackPointExtension>
            <ns3:hr>105</ns3:hr>
            <ns3:cad>0</ns3:cad>
          </ns3:TrackPointExtension>
        </extensions>
      </trkpt>
      <trkpt lat="37.77883208356797695159912109375" lon="-107.70114342682063579559326171875">
        <ele>3929</ele>
        <time>2023-07-29T15:52:01.000Z</time>
        <extensions>
          <ns3:TrackPointExtension>
            <ns3:hr>106</ns3:hr>
            <ns3:cad>0</ns3:cad>
          </ns3:TrackPointExtension>
        </extensions>
      </trkpt>
      <trkpt lat="37.778835184872150421142578125" lon="-107.7011396549642086029052734375">
        <ele>3929</ele>
        <time>2023-07-29T15:52:02.000Z</time>
        <extensions>
          <ns3:TrackPointExtension>
            <ns3:hr>106</ns3:hr>
            <ns3:cad>0</ns3:cad>
          </ns3:TrackPointExtension>
        </extensions>
      </trkpt>
      <trkpt lat="37.77883493341505527496337890625" lon="-107.7011450193822383880615234375">
        <ele>3929</ele>
        <time>2023-07-29T15:52:03.000Z</time>
        <extensions>
          <ns3:TrackPointExtension>
            <ns3:hr>107</ns3:hr>
            <ns3:cad>0</ns3:cad>
          </ns3:TrackPointExtension>
        </extensions>
      </trkpt>
      <trkpt lat="37.7788348495960235595703125" lon="-107.70114594139158725738525390625">
        <ele>3928.800048828125</ele>
        <time>2023-07-29T15:52:04.000Z</time>
        <extensions>
          <ns3:TrackPointExtension>
            <ns3:hr>107</ns3:hr>
            <ns3:cad>0</ns3:cad>
          </ns3:TrackPointExtension>
        </extensions>
      </trkpt>
      <trkpt lat="37.77883543632924556732177734375" lon="-107.7011456899344921112060546875">
        <ele>3928.800048828125</ele>
        <time>2023-07-29T15:52:05.000Z</time>
        <extensions>
          <ns3:TrackPointExtension>
            <ns3:hr>107</ns3:hr>
            <ns3:cad>0</ns3:cad>
          </ns3:TrackPointExtension>
        </extensions>
      </trkpt>
      <trkpt lat="37.77883577160537242889404296875" lon="-107.7011510543525218963623046875">
        <ele>3928.39990234375</ele>
        <time>2023-07-29T15:52:06.000Z</time>
        <extensions>
          <ns3:TrackPointExtension>
            <ns3:hr>107</ns3:hr>
            <ns3:cad>0</ns3:cad>
          </ns3:TrackPointExtension>
        </extensions>
      </trkpt>
      <trkpt lat="37.778836190700531005859375" lon="-107.70115817897021770477294921875">
        <ele>3928.199951171875</ele>
        <time>2023-07-29T15:52:07.000Z</time>
        <extensions>
          <ns3:TrackPointExtension>
            <ns3:hr>107</ns3:hr>
            <ns3:cad>0</ns3:cad>
          </ns3:TrackPointExtension>
        </extensions>
      </trkpt>
      <trkpt lat="37.77883686125278472900390625" lon="-107.7011594362556934356689453125">
        <ele>3928.199951171875</ele>
        <time>2023-07-29T15:52:08.000Z</time>
        <extensions>
          <ns3:TrackPointExtension>
            <ns3:hr>107</ns3:hr>
            <ns3:cad>0</ns3:cad>
          </ns3:TrackPointExtension>
        </extensions>
      </trkpt>
      <trkpt lat="37.7788383699953556060791015625" lon="-107.7011565864086151123046875">
        <ele>3928</ele>
        <time>2023-07-29T15:52:09.000Z</time>
        <extensions>
          <ns3:TrackPointExtension>
            <ns3:hr>107</ns3:hr>
            <ns3:cad>0</ns3:cad>
          </ns3:TrackPointExtension>
        </extensions>
      </trkpt>
      <trkpt lat="37.77883954346179962158203125" lon="-107.70115465857088565826416015625">
        <ele>3928</ele>
        <time>2023-07-29T15:52:10.000Z</time>
        <extensions>
          <ns3:TrackPointExtension>
            <ns3:hr>107</ns3:hr>
            <ns3:cad>0</ns3:cad>
          </ns3:TrackPointExtension>
        </extensions>
      </trkpt>
      <trkpt lat="37.77884515933692455291748046875" lon="-107.701164297759532928466796875">
        <ele>3928</ele>
        <time>2023-07-29T15:52:11.000Z</time>
        <extensions>
          <ns3:TrackPointExtension>
            <ns3:hr>107</ns3:hr>
            <ns3:cad>0</ns3:cad>
          </ns3:TrackPointExtension>
        </extensions>
      </trkpt>
      <trkpt lat="37.77884767390787601470947265625" lon="-107.7011678181588649749755859375">
        <ele>3927.800048828125</ele>
        <time>2023-07-29T15:52:12.000Z</time>
        <extensions>
          <ns3:TrackPointExtension>
            <ns3:hr>107</ns3:hr>
            <ns3:cad>0</ns3:cad>
          </ns3:TrackPointExtension>
        </extensions>
      </trkpt>
      <trkpt lat="37.77885253541171550750732421875" lon="-107.7011745236814022064208984375">
        <ele>3927.60009765625</ele>
        <time>2023-07-29T15:52:13.000Z</time>
        <extensions>
          <ns3:TrackPointExtension>
            <ns3:hr>107</ns3:hr>
            <ns3:cad>0</ns3:cad>
          </ns3:TrackPointExtension>
        </extensions>
      </trkpt>
      <trkpt lat="37.7788534574210643768310546875" lon="-107.70117469131946563720703125">
        <ele>3927.39990234375</ele>
        <time>2023-07-29T15:52:14.000Z</time>
        <extensions>
          <ns3:TrackPointExtension>
            <ns3:hr>107</ns3:hr>
            <ns3:cad>0</ns3:cad>
          </ns3:TrackPointExtension>
        </extensions>
      </trkpt>
      <trkpt lat="37.77885404415428638458251953125" lon="-107.7011705003678798675537109375">
        <ele>3927.199951171875</ele>
        <time>2023-07-29T15:52:15.000Z</time>
        <extensions>
          <ns3:TrackPointExtension>
            <ns3:hr>107</ns3:hr>
            <ns3:cad>0</ns3:cad>
          </ns3:TrackPointExtension>
        </extensions>
      </trkpt>
      <trkpt lat="37.778852283954620361328125" lon="-107.70117443986237049102783203125">
        <ele>3927.199951171875</ele>
        <time>2023-07-29T15:52:16.000Z</time>
        <extensions>
          <ns3:TrackPointExtension>
            <ns3:hr>107</ns3:hr>
            <ns3:cad>0</ns3:cad>
          </ns3:TrackPointExtension>
        </extensions>
      </trkpt>
      <trkpt lat="37.7788494341075420379638671875" lon="-107.70117159001529216766357421875">
        <ele>3927</ele>
        <time>2023-07-29T15:52:17.000Z</time>
        <extensions>
          <ns3:TrackPointExtension>
            <ns3:hr>107</ns3:hr>
            <ns3:cad>0</ns3:cad>
          </ns3:TrackPointExtension>
        </extensions>
      </trkpt>
      <trkpt lat="37.77884616516530513763427734375" lon="-107.70116941072046756744384765625">
        <ele>3926.800048828125</ele>
        <time>2023-07-29T15:52:18.000Z</time>
        <extensions>
          <ns3:TrackPointExtension>
            <ns3:hr>107</ns3:hr>
            <ns3:cad>0</ns3:cad>
          </ns3:TrackPointExtension>
        </extensions>
      </trkpt>
      <trkpt lat="37.77884448878467082977294921875" lon="-107.7011708356440067291259765625">
        <ele>3926.800048828125</ele>
        <time>2023-07-29T15:52:19.000Z</time>
        <extensions>
          <ns3:TrackPointExtension>
            <ns3:hr>106</ns3:hr>
            <ns3:cad>0</ns3:cad>
          </ns3:TrackPointExtension>
        </extensions>
      </trkpt>
      <trkpt lat="37.778845243155956268310546875" lon="-107.701179720461368560791015625">
        <ele>3926.39990234375</ele>
        <time>2023-07-29T15:52:20.000Z</time>
        <extensions>
          <ns3:TrackPointExtension>
            <ns3:hr>106</ns3:hr>
            <ns3:cad>0</ns3:cad>
          </ns3:TrackPointExtension>
        </extensions>
      </trkpt>
      <trkpt lat="37.77884247712790966033935546875" lon="-107.701183073222637176513671875">
        <ele>3926.199951171875</ele>
        <time>2023-07-29T15:52:21.000Z</time>
        <extensions>
          <ns3:TrackPointExtension>
            <ns3:hr>105</ns3:hr>
            <ns3:cad>0</ns3:cad>
          </ns3:TrackPointExtension>
        </extensions>
      </trkpt>
      <trkpt lat="37.77884013019502162933349609375" lon="-107.7011887729167938232421875">
        <ele>3926.199951171875</ele>
        <time>2023-07-29T15:52:22.000Z</time>
        <extensions>
          <ns3:TrackPointExtension>
            <ns3:hr>105</ns3:hr>
            <ns3:cad>0</ns3:cad>
          </ns3:TrackPointExtension>
        </extensions>
      </trkpt>
      <trkpt lat="37.7788402140140533447265625" lon="-107.70119271241128444671630859375">
        <ele>3926.199951171875</ele>
        <time>2023-07-29T15:52:23.000Z</time>
        <extensions>
          <ns3:TrackPointExtension>
            <ns3:hr>105</ns3:hr>
            <ns3:cad>0</ns3:cad>
          </ns3:TrackPointExtension>
        </extensions>
      </trkpt>
      <trkpt lat="37.7788428962230682373046875" lon="-107.70119489170610904693603515625">
        <ele>3926</ele>
        <time>2023-07-29T15:52:24.000Z</time>
        <extensions>
          <ns3:TrackPointExtension>
            <ns3:hr>104</ns3:hr>
            <ns3:cad>0</ns3:cad>
          </ns3:TrackPointExtension>
        </extensions>
      </trkpt>
      <trkpt lat="37.77884515933692455291748046875" lon="-107.7012020163238048553466796875">
        <ele>3926</ele>
        <time>2023-07-29T15:52:25.000Z</time>
        <extensions>
          <ns3:TrackPointExtension>
            <ns3:hr>104</ns3:hr>
            <ns3:cad>0</ns3:cad>
          </ns3:TrackPointExtension>
        </extensions>
      </trkpt>
      <trkpt lat="37.7788527868688106536865234375" lon="-107.70120075903832912445068359375">
        <ele>3926</ele>
        <time>2023-07-29T15:52:26.000Z</time>
        <extensions>
          <ns3:TrackPointExtension>
            <ns3:hr>104</ns3:hr>
            <ns3:cad>0</ns3:cad>
          </ns3:TrackPointExtension>
        </extensions>
      </trkpt>
      <trkpt lat="37.77885572053492069244384765625" lon="-107.70120444707572460174560546875">
        <ele>3926</ele>
        <time>2023-07-29T15:52:27.000Z</time>
        <extensions>
          <ns3:TrackPointExtension>
            <ns3:hr>103</ns3:hr>
            <ns3:cad>0</ns3:cad>
          </ns3:TrackPointExtension>
        </extensions>
      </trkpt>
      <trkpt lat="37.778860665857791900634765625" lon="-107.7012110687792301177978515625">
        <ele>3925.800048828125</ele>
        <time>2023-07-29T15:52:28.000Z</time>
        <extensions>
          <ns3:TrackPointExtension>
            <ns3:hr>103</ns3:hr>
            <ns3:cad>0</ns3:cad>
          </ns3:TrackPointExtension>
        </extensions>
      </trkpt>
      <trkpt lat="37.7788638509809970855712890625" lon="-107.70121626555919647216796875">
        <ele>3925.800048828125</ele>
        <time>2023-07-29T15:52:29.000Z</time>
        <extensions>
          <ns3:TrackPointExtension>
            <ns3:hr>103</ns3:hr>
            <ns3:cad>0</ns3:cad>
          </ns3:TrackPointExtension>
        </extensions>
      </trkpt>
      <trkpt lat="37.77886091731488704681396484375" lon="-107.70122028887271881103515625">
        <ele>3925.800048828125</ele>
        <time>2023-07-29T15:52:30.000Z</time>
        <extensions>
          <ns3:TrackPointExtension>
            <ns3:hr>103</ns3:hr>
            <ns3:cad>0</ns3:cad>
          </ns3:TrackPointExtension>
        </extensions>
      </trkpt>
      <trkpt lat="37.77885890565812587738037109375" lon="-107.701221294701099395751953125">
        <ele>3925.60009765625</ele>
        <time>2023-07-29T15:52:31.000Z</time>
        <extensions>
          <ns3:TrackPointExtension>
            <ns3:hr>103</ns3:hr>
            <ns3:cad>0</ns3:cad>
          </ns3:TrackPointExtension>
        </extensions>
      </trkpt>
      <trkpt lat="37.77885655872523784637451171875" lon="-107.701221294701099395751953125">
        <ele>3925.60009765625</ele>
        <time>2023-07-29T15:52:32.000Z</time>
        <extensions>
          <ns3:TrackPointExtension>
            <ns3:hr>103</ns3:hr>
            <ns3:cad>0</ns3:cad>
          </ns3:TrackPointExtension>
        </extensions>
      </trkpt>
      <trkpt lat="37.7788544632494449615478515625" lon="-107.7012207917869091033935546875">
        <ele>3925.60009765625</ele>
        <time>2023-07-29T15:52:33.000Z</time>
        <extensions>
          <ns3:TrackPointExtension>
            <ns3:hr>102</ns3:hr>
            <ns3:cad>0</ns3:cad>
          </ns3:TrackPointExtension>
        </extensions>
      </trkpt>
      <trkpt lat="37.77885538525879383087158203125" lon="-107.70121819339692592620849609375">
        <ele>3925.39990234375</ele>
        <time>2023-07-29T15:52:34.000Z</time>
        <extensions>
          <ns3:TrackPointExtension>
            <ns3:hr>102</ns3:hr>
            <ns3:cad>0</ns3:cad>
          </ns3:TrackPointExtension>
        </extensions>
      </trkpt>
      <trkpt lat="37.77885739691555500030517578125" lon="-107.70121894776821136474609375">
        <ele>3925.39990234375</ele>
        <time>2023-07-29T15:52:35.000Z</time>
        <extensions>
          <ns3:TrackPointExtension>
            <ns3:hr>102</ns3:hr>
            <ns3:cad>0</ns3:cad>
          </ns3:TrackPointExtension>
        </extensions>
      </trkpt>
      <trkpt lat="37.7788584865629673004150390625" lon="-107.70121953450143337249755859375">
        <ele>3925.39990234375</ele>
        <time>2023-07-29T15:52:36.000Z</time>
        <extensions>
          <ns3:TrackPointExtension>
            <ns3:hr>102</ns3:hr>
            <ns3:cad>0</ns3:cad>
          </ns3:TrackPointExtension>
        </extensions>
      </trkpt>
      <trkpt lat="37.77886041440069675445556640625" lon="-107.7012214623391628265380859375">
        <ele>3925.39990234375</ele>
        <time>2023-07-29T15:52:37.000Z</time>
        <extensions>
          <ns3:TrackPointExtension>
            <ns3:hr>103</ns3:hr>
            <ns3:cad>0</ns3:cad>
          </ns3:TrackPointExtension>
        </extensions>
      </trkpt>
      <trkpt lat="37.77886309660971164703369140625" lon="-107.70122188143432140350341796875">
        <ele>3925.199951171875</ele>
        <time>2023-07-29T15:52:38.000Z</time>
        <extensions>
          <ns3:TrackPointExtension>
            <ns3:hr>103</ns3:hr>
            <ns3:cad>0</ns3:cad>
          </ns3:TrackPointExtension>
        </extensions>
      </trkpt>
      <trkpt lat="37.778862677514553070068359375" lon="-107.70121349953114986419677734375">
        <ele>3925.199951171875</ele>
        <time>2023-07-29T15:52:39.000Z</time>
        <extensions>
          <ns3:TrackPointExtension>
            <ns3:hr>103</ns3:hr>
            <ns3:cad>0</ns3:cad>
          </ns3:TrackPointExtension>
        </extensions>
      </trkpt>
      <trkpt lat="37.77886477299034595489501953125" lon="-107.7012134157121181488037109375">
        <ele>3925.199951171875</ele>
        <time>2023-07-29T15:52:40.000Z</time>
        <extensions>
          <ns3:TrackPointExtension>
            <ns3:hr>104</ns3:hr>
            <ns3:cad>0</ns3:cad>
          </ns3:TrackPointExtension>
        </extensions>
      </trkpt>
      <trkpt lat="37.77886611409485340118408203125" lon="-107.70121282897889614105224609375">
        <ele>3925</ele>
        <time>2023-07-29T15:52:41.000Z</time>
        <extensions>
          <ns3:TrackPointExtension>
            <ns3:hr>104</ns3:hr>
            <ns3:cad>0</ns3:cad>
          </ns3:TrackPointExtension>
        </extensions>
      </trkpt>
      <trkpt lat="37.77886711992323398590087890625" lon="-107.70122037269175052642822265625">
        <ele>3924.800048828125</ele>
        <time>2023-07-29T15:52:42.000Z</time>
        <extensions>
          <ns3:TrackPointExtension>
            <ns3:hr>105</ns3:hr>
            <ns3:cad>0</ns3:cad>
          </ns3:TrackPointExtension>
        </extensions>
      </trkpt>
      <trkpt lat="37.7788682095706462860107421875" lon="-107.70121953450143337249755859375">
        <ele>3924.800048828125</ele>
        <time>2023-07-29T15:52:43.000Z</time>
        <extensions>
          <ns3:TrackPointExtension>
            <ns3:hr>105</ns3:hr>
            <ns3:cad>0</ns3:cad>
          </ns3:TrackPointExtension>
        </extensions>
      </trkpt>
      <trkpt lat="37.7788702212274074554443359375" lon="-107.7012285031378269195556640625">
        <ele>3924.800048828125</ele>
        <time>2023-07-29T15:52:44.000Z</time>
        <extensions>
          <ns3:TrackPointExtension>
            <ns3:hr>105</ns3:hr>
            <ns3:cad>0</ns3:cad>
          </ns3:TrackPointExtension>
        </extensions>
      </trkpt>
      <trkpt lat="37.7788735739886760711669921875" lon="-107.70123462192714214324951171875">
        <ele>3924.60009765625</ele>
        <time>2023-07-29T15:52:45.000Z</time>
        <extensions>
          <ns3:TrackPointExtension>
            <ns3:hr>106</ns3:hr>
            <ns3:cad>0</ns3:cad>
          </ns3:TrackPointExtension>
        </extensions>
      </trkpt>
      <trkpt lat="37.77887499891221523284912109375" lon="-107.7012383937835693359375">
        <ele>3924.60009765625</ele>
        <time>2023-07-29T15:52:46.000Z</time>
        <extensions>
          <ns3:TrackPointExtension>
            <ns3:hr>106</ns3:hr>
            <ns3:cad>0</ns3:cad>
          </ns3:TrackPointExtension>
        </extensions>
      </trkpt>
      <trkpt lat="37.7788729034364223480224609375" lon="-107.701238729059696197509765625">
        <ele>3924.39990234375</ele>
        <time>2023-07-29T15:52:47.000Z</time>
        <extensions>
          <ns3:TrackPointExtension>
            <ns3:hr>106</ns3:hr>
            <ns3:cad>0</ns3:cad>
          </ns3:TrackPointExtension>
        </extensions>
      </trkpt>
      <trkpt lat="37.77887483127415180206298828125" lon="-107.70124300383031368255615234375">
        <ele>3924.199951171875</ele>
        <time>2023-07-29T15:52:48.000Z</time>
        <extensions>
          <ns3:TrackPointExtension>
            <ns3:hr>106</ns3:hr>
            <ns3:cad>0</ns3:cad>
          </ns3:TrackPointExtension>
        </extensions>
      </trkpt>
      <trkpt lat="37.7788742445409297943115234375" lon="-107.7012442611157894134521484375">
        <ele>3924.199951171875</ele>
        <time>2023-07-29T15:52:49.000Z</time>
        <extensions>
          <ns3:TrackPointExtension>
            <ns3:hr>106</ns3:hr>
            <ns3:cad>75</ns3:cad>
          </ns3:TrackPointExtension>
        </extensions>
      </trkpt>
      <trkpt lat="37.7788722328841686248779296875" lon="-107.70124400965869426727294921875">
        <ele>3924.199951171875</ele>
        <time>2023-07-29T15:52:50.000Z</time>
        <extensions>
          <ns3:TrackPointExtension>
            <ns3:hr>106</ns3:hr>
            <ns3:cad>75</ns3:cad>
          </ns3:TrackPointExtension>
        </extensions>
      </trkpt>
      <trkpt lat="37.7788705565035343170166015625" lon="-107.70123881287872791290283203125">
        <ele>3924</ele>
        <time>2023-07-29T15:52:51.000Z</time>
        <extensions>
          <ns3:TrackPointExtension>
            <ns3:hr>106</ns3:hr>
            <ns3:cad>0</ns3:cad>
          </ns3:TrackPointExtension>
        </extensions>
      </trkpt>
      <trkpt lat="37.77886770665645599365234375" lon="-107.70123244263231754302978515625">
        <ele>3923.800048828125</ele>
        <time>2023-07-29T15:52:52.000Z</time>
        <extensions>
          <ns3:TrackPointExtension>
            <ns3:hr>105</ns3:hr>
            <ns3:cad>0</ns3:cad>
          </ns3:TrackPointExtension>
        </extensions>
      </trkpt>
      <trkpt lat="37.7788631804287433624267578125" lon="-107.701234705746173858642578125">
        <ele>3923.60009765625</ele>
        <time>2023-07-29T15:52:53.000Z</time>
        <extensions>
          <ns3:TrackPointExtension>
            <ns3:hr>105</ns3:hr>
            <ns3:cad>0</ns3:cad>
          </ns3:TrackPointExtension>
        </extensions>
      </trkpt>
      <trkpt lat="37.7788635157048702239990234375" lon="-107.7012449316680431365966796875">
        <ele>3923.60009765625</ele>
        <time>2023-07-29T15:52:54.000Z</time>
        <extensions>
          <ns3:TrackPointExtension>
            <ns3:hr>105</ns3:hr>
            <ns3:cad>0</ns3:cad>
          </ns3:TrackPointExtension>
        </extensions>
      </trkpt>
      <trkpt lat="37.778864018619060516357421875" lon="-107.7012432552874088287353515625">
        <ele>3923.39990234375</ele>
        <time>2023-07-29T15:52:55.000Z</time>
        <extensions>
          <ns3:TrackPointExtension>
            <ns3:hr>104</ns3:hr>
            <ns3:cad>0</ns3:cad>
          </ns3:TrackPointExtension>
        </extensions>
      </trkpt>
      <trkpt lat="37.7788628451526165008544921875" lon="-107.7012392319738864898681640625">
        <ele>3923.39990234375</ele>
        <time>2023-07-29T15:52:56.000Z</time>
        <extensions>
          <ns3:TrackPointExtension>
            <ns3:hr>103</ns3:hr>
            <ns3:cad>0</ns3:cad>
          </ns3:TrackPointExtension>
        </extensions>
      </trkpt>
      <trkpt lat="37.77886427007615566253662109375" lon="-107.701238729059696197509765625">
        <ele>3923</ele>
        <time>2023-07-29T15:52:57.000Z</time>
        <extensions>
          <ns3:TrackPointExtension>
            <ns3:hr>103</ns3:hr>
            <ns3:cad>0</ns3:cad>
          </ns3:TrackPointExtension>
        </extensions>
      </trkpt>
      <trkpt lat="37.7788682095706462860107421875" lon="-107.70123898051679134368896484375">
        <ele>3923</ele>
        <time>2023-07-29T15:52:58.000Z</time>
        <extensions>
          <ns3:TrackPointExtension>
            <ns3:hr>102</ns3:hr>
            <ns3:cad>0</ns3:cad>
          </ns3:TrackPointExtension>
        </extensions>
      </trkpt>
      <trkpt lat="37.77887038886547088623046875" lon="-107.70124233327805995941162109375">
        <ele>3923</ele>
        <time>2023-07-29T15:52:59.000Z</time>
        <extensions>
          <ns3:TrackPointExtension>
            <ns3:hr>102</ns3:hr>
            <ns3:cad>0</ns3:cad>
          </ns3:TrackPointExtension>
        </extensions>
      </trkpt>
      <trkpt lat="37.7788732387125492095947265625" lon="-107.70124484784901142120361328125">
        <ele>3922.800048828125</ele>
        <time>2023-07-29T15:53:00.000Z</time>
        <extensions>
          <ns3:TrackPointExtension>
            <ns3:hr>102</ns3:hr>
            <ns3:cad>0</ns3:cad>
          </ns3:TrackPointExtension>
        </extensions>
      </trkpt>
      <trkpt lat="37.77887575328350067138671875" lon="-107.70124065689742565155029296875">
        <ele>3922.800048828125</ele>
        <time>2023-07-29T15:53:01.000Z</time>
        <extensions>
          <ns3:TrackPointExtension>
            <ns3:hr>101</ns3:hr>
            <ns3:cad>0</ns3:cad>
          </ns3:TrackPointExtension>
        </extensions>
      </trkpt>
      <trkpt lat="37.77887575328350067138671875" lon="-107.70124040544033050537109375">
        <ele>3922.800048828125</ele>
        <time>2023-07-29T15:53:02.000Z</time>
        <extensions>
          <ns3:TrackPointExtension>
            <ns3:hr>101</ns3:hr>
            <ns3:cad>0</ns3:cad>
          </ns3:TrackPointExtension>
        </extensions>
      </trkpt>
      <trkpt lat="37.778876759111881256103515625" lon="-107.70124233327805995941162109375">
        <ele>3922.800048828125</ele>
        <time>2023-07-29T15:53:03.000Z</time>
        <extensions>
          <ns3:TrackPointExtension>
            <ns3:hr>101</ns3:hr>
            <ns3:cad>0</ns3:cad>
          </ns3:TrackPointExtension>
        </extensions>
      </trkpt>
      <trkpt lat="37.778879106044769287109375" lon="-107.70124753005802631378173828125">
        <ele>3922.60009765625</ele>
        <time>2023-07-29T15:53:04.000Z</time>
        <extensions>
          <ns3:TrackPointExtension>
            <ns3:hr>101</ns3:hr>
            <ns3:cad>0</ns3:cad>
          </ns3:TrackPointExtension>
        </extensions>
      </trkpt>
      <trkpt lat="37.7788809500634670257568359375" lon="-107.701251469552516937255859375">
        <ele>3922.39990234375</ele>
        <time>2023-07-29T15:53:05.000Z</time>
        <extensions>
          <ns3:TrackPointExtension>
            <ns3:hr>100</ns3:hr>
            <ns3:cad>0</ns3:cad>
          </ns3:TrackPointExtension>
        </extensions>
      </trkpt>
      <trkpt lat="37.77888514101505279541015625" lon="-107.7012586779892444610595703125">
        <ele>3922.39990234375</ele>
        <time>2023-07-29T15:53:06.000Z</time>
        <extensions>
          <ns3:TrackPointExtension>
            <ns3:hr>100</ns3:hr>
            <ns3:cad>0</ns3:cad>
          </ns3:TrackPointExtension>
        </extensions>
      </trkpt>
      <trkpt lat="37.7788876555860042572021484375" lon="-107.70125641487538814544677734375">
        <ele>3922.39990234375</ele>
        <time>2023-07-29T15:53:07.000Z</time>
        <extensions>
          <ns3:TrackPointExtension>
            <ns3:hr>99</ns3:hr>
            <ns3:cad>0</ns3:cad>
          </ns3:TrackPointExtension>
        </extensions>
      </trkpt>
      <trkpt lat="37.77888975106179714202880859375" lon="-107.7012616954743862152099609375">
        <ele>3922.199951171875</ele>
        <time>2023-07-29T15:53:08.000Z</time>
        <extensions>
          <ns3:TrackPointExtension>
            <ns3:hr>99</ns3:hr>
            <ns3:cad>0</ns3:cad>
          </ns3:TrackPointExtension>
        </extensions>
      </trkpt>
      <trkpt lat="37.7788886614143848419189453125" lon="-107.7012590132653713226318359375">
        <ele>3922.199951171875</ele>
        <time>2023-07-29T15:53:09.000Z</time>
        <extensions>
          <ns3:TrackPointExtension>
            <ns3:hr>99</ns3:hr>
            <ns3:cad>0</ns3:cad>
          </ns3:TrackPointExtension>
        </extensions>
      </trkpt>
      <trkpt lat="37.7788858115673065185546875" lon="-107.701254822313785552978515625">
        <ele>3922</ele>
        <time>2023-07-29T15:53:10.000Z</time>
        <extensions>
          <ns3:TrackPointExtension>
            <ns3:hr>99</ns3:hr>
            <ns3:cad>0</ns3:cad>
          </ns3:TrackPointExtension>
        </extensions>
      </trkpt>
      <trkpt lat="37.7788829617202281951904296875" lon="-107.7012620307505130767822265625">
        <ele>3922</ele>
        <time>2023-07-29T15:53:11.000Z</time>
        <extensions>
          <ns3:TrackPointExtension>
            <ns3:hr>99</ns3:hr>
            <ns3:cad>0</ns3:cad>
          </ns3:TrackPointExtension>
        </extensions>
      </trkpt>
      <trkpt lat="37.7788802795112133026123046875" lon="-107.70126479677855968475341796875">
        <ele>3921.60009765625</ele>
        <time>2023-07-29T15:53:12.000Z</time>
        <extensions>
          <ns3:TrackPointExtension>
            <ns3:hr>99</ns3:hr>
            <ns3:cad>0</ns3:cad>
          </ns3:TrackPointExtension>
        </extensions>
      </trkpt>
      <trkpt lat="37.77888120152056217193603515625" lon="-107.701265551149845123291015625">
        <ele>3921.60009765625</ele>
        <time>2023-07-29T15:53:13.000Z</time>
        <extensions>
          <ns3:TrackPointExtension>
            <ns3:hr>99</ns3:hr>
            <ns3:cad>0</ns3:cad>
          </ns3:TrackPointExtension>
        </extensions>
      </trkpt>
      <trkpt lat="37.7788836322724819183349609375" lon="-107.70126647315919399261474609375">
        <ele>3921.39990234375</ele>
        <time>2023-07-29T15:53:14.000Z</time>
        <extensions>
          <ns3:TrackPointExtension>
            <ns3:hr>99</ns3:hr>
            <ns3:cad>0</ns3:cad>
          </ns3:TrackPointExtension>
        </extensions>
      </trkpt>
      <trkpt lat="37.77888715267181396484375" lon="-107.701267898082733154296875">
        <ele>3921</ele>
        <time>2023-07-29T15:53:15.000Z</time>
        <extensions>
          <ns3:TrackPointExtension>
            <ns3:hr>99</ns3:hr>
            <ns3:cad>0</ns3:cad>
          </ns3:TrackPointExtension>
        </extensions>
      </trkpt>
      <trkpt lat="37.77888782322406768798828125" lon="-107.7012724243104457855224609375">
        <ele>3921</ele>
        <time>2023-07-29T15:53:16.000Z</time>
        <extensions>
          <ns3:TrackPointExtension>
            <ns3:hr>100</ns3:hr>
            <ns3:cad>0</ns3:cad>
          </ns3:TrackPointExtension>
        </extensions>
      </trkpt>
      <trkpt lat="37.77888505719602108001708984375" lon="-107.7012764476239681243896484375">
        <ele>3921</ele>
        <time>2023-07-29T15:53:17.000Z</time>
        <extensions>
          <ns3:TrackPointExtension>
            <ns3:hr>99</ns3:hr>
            <ns3:cad>0</ns3:cad>
          </ns3:TrackPointExtension>
        </extensions>
      </trkpt>
      <trkpt lat="37.7788817882537841796875" lon="-107.7012772858142852783203125">
        <ele>3920.800048828125</ele>
        <time>2023-07-29T15:53:18.000Z</time>
        <extensions>
          <ns3:TrackPointExtension>
            <ns3:hr>99</ns3:hr>
            <ns3:cad>0</ns3:cad>
          </ns3:TrackPointExtension>
        </extensions>
      </trkpt>
      <trkpt lat="37.7788786031305789947509765625" lon="-107.7012808062136173248291015625">
        <ele>3920.800048828125</ele>
        <time>2023-07-29T15:53:19.000Z</time>
        <extensions>
          <ns3:TrackPointExtension>
            <ns3:hr>99</ns3:hr>
            <ns3:cad>0</ns3:cad>
          </ns3:TrackPointExtension>
        </extensions>
      </trkpt>
      <trkpt lat="37.77887248434126377105712890625" lon="-107.70128692500293254852294921875">
        <ele>3920.800048828125</ele>
        <time>2023-07-29T15:53:20.000Z</time>
        <extensions>
          <ns3:TrackPointExtension>
            <ns3:hr>98</ns3:hr>
            <ns3:cad>0</ns3:cad>
          </ns3:TrackPointExtension>
        </extensions>
      </trkpt>
      <trkpt lat="37.7788695506751537322998046875" lon="-107.70128726027905941009521484375">
        <ele>3920.60009765625</ele>
        <time>2023-07-29T15:53:21.000Z</time>
        <extensions>
          <ns3:TrackPointExtension>
            <ns3:hr>98</ns3:hr>
            <ns3:cad>0</ns3:cad>
          </ns3:TrackPointExtension>
        </extensions>
      </trkpt>
      <trkpt lat="37.77886569499969482421875" lon="-107.70128994248807430267333984375">
        <ele>3920.60009765625</ele>
        <time>2023-07-29T15:53:22.000Z</time>
        <extensions>
          <ns3:TrackPointExtension>
            <ns3:hr>97</ns3:hr>
            <ns3:cad>0</ns3:cad>
          </ns3:TrackPointExtension>
        </extensions>
      </trkpt>
      <trkpt lat="37.7788675390183925628662109375" lon="-107.7012875117361545562744140625">
        <ele>3920.39990234375</ele>
        <time>2023-07-29T15:53:23.000Z</time>
        <extensions>
          <ns3:TrackPointExtension>
            <ns3:hr>96</ns3:hr>
            <ns3:cad>0</ns3:cad>
          </ns3:TrackPointExtension>
        </extensions>
      </trkpt>
      <trkpt lat="37.7788698859512805938720703125" lon="-107.70129128359258174896240234375">
        <ele>3920.199951171875</ele>
        <time>2023-07-29T15:53:24.000Z</time>
        <extensions>
          <ns3:TrackPointExtension>
            <ns3:hr>96</ns3:hr>
            <ns3:cad>0</ns3:cad>
          </ns3:TrackPointExtension>
        </extensions>
      </trkpt>
      <trkpt lat="37.778871394693851470947265625" lon="-107.70129446871578693389892578125">
        <ele>3920.199951171875</ele>
        <time>2023-07-29T15:53:25.000Z</time>
        <extensions>
          <ns3:TrackPointExtension>
            <ns3:hr>95</ns3:hr>
            <ns3:cad>0</ns3:cad>
          </ns3:TrackPointExtension>
        </extensions>
      </trkpt>
      <trkpt lat="37.778873406350612640380859375" lon="-107.7012960612773895263671875">
        <ele>3920</ele>
        <time>2023-07-29T15:53:26.000Z</time>
        <extensions>
          <ns3:TrackPointExtension>
            <ns3:hr>95</ns3:hr>
            <ns3:cad>0</ns3:cad>
          </ns3:TrackPointExtension>
        </extensions>
      </trkpt>
      <trkpt lat="37.77887634001672267913818359375" lon="-107.7013027667999267578125">
        <ele>3920</ele>
        <time>2023-07-29T15:53:27.000Z</time>
        <extensions>
          <ns3:TrackPointExtension>
            <ns3:hr>95</ns3:hr>
            <ns3:cad>0</ns3:cad>
          </ns3:TrackPointExtension>
        </extensions>
      </trkpt>
      <trkpt lat="37.7788832969963550567626953125" lon="-107.701300419867038726806640625">
        <ele>3919.800048828125</ele>
        <time>2023-07-29T15:53:28.000Z</time>
        <extensions>
          <ns3:TrackPointExtension>
            <ns3:hr>95</ns3:hr>
            <ns3:cad>0</ns3:cad>
          </ns3:TrackPointExtension>
        </extensions>
      </trkpt>
      <trkpt lat="37.77888656593859195709228515625" lon="-107.7012987434864044189453125">
        <ele>3919.60009765625</ele>
        <time>2023-07-29T15:53:29.000Z</time>
        <extensions>
          <ns3:TrackPointExtension>
            <ns3:hr>96</ns3:hr>
            <ns3:cad>0</ns3:cad>
          </ns3:TrackPointExtension>
        </extensions>
      </trkpt>
      <trkpt lat="37.7788930200040340423583984375" lon="-107.70129681564867496490478515625">
        <ele>3919.39990234375</ele>
        <time>2023-07-29T15:53:30.000Z</time>
        <extensions>
          <ns3:TrackPointExtension>
            <ns3:hr>96</ns3:hr>
            <ns3:cad>0</ns3:cad>
          </ns3:TrackPointExtension>
        </extensions>
      </trkpt>
      <trkpt lat="37.77889586985111236572265625" lon="-107.7012928761541843414306640625">
        <ele>3919.199951171875</ele>
        <time>2023-07-29T15:53:31.000Z</time>
        <extensions>
          <ns3:TrackPointExtension>
            <ns3:hr>96</ns3:hr>
            <ns3:cad>0</ns3:cad>
          </ns3:TrackPointExtension>
        </extensions>
      </trkpt>
      <trkpt lat="37.7789024077355861663818359375" lon="-107.7012891881167888641357421875">
        <ele>3919</ele>
        <time>2023-07-29T15:53:32.000Z</time>
        <extensions>
          <ns3:TrackPointExtension>
            <ns3:hr>96</ns3:hr>
            <ns3:cad>0</ns3:cad>
          </ns3:TrackPointExtension>
        </extensions>
      </trkpt>
      <trkpt lat="37.7789037488400936126708984375" lon="-107.701283991336822509765625">
        <ele>3919</ele>
        <time>2023-07-29T15:53:33.000Z</time>
        <extensions>
          <ns3:TrackPointExtension>
            <ns3:hr>96</ns3:hr>
            <ns3:cad>0</ns3:cad>
          </ns3:TrackPointExtension>
        </extensions>
      </trkpt>
      <trkpt lat="37.7789044193923473358154296875" lon="-107.70128021948039531707763671875">
        <ele>3918.800048828125</ele>
        <time>2023-07-29T15:53:34.000Z</time>
        <extensions>
          <ns3:TrackPointExtension>
            <ns3:hr>96</ns3:hr>
            <ns3:cad>65</ns3:cad>
          </ns3:TrackPointExtension>
        </extensions>
      </trkpt>
      <trkpt lat="37.778906263411045074462890625" lon="-107.70127770490944385528564453125">
        <ele>3918.800048828125</ele>
        <time>2023-07-29T15:53:35.000Z</time>
        <extensions>
          <ns3:TrackPointExtension>
            <ns3:hr>96</ns3:hr>
            <ns3:cad>65</ns3:cad>
          </ns3:TrackPointExtension>
        </extensions>
      </trkpt>
      <trkpt lat="37.77890718542039394378662109375" lon="-107.70127871073782444000244140625">
        <ele>3918.60009765625</ele>
        <time>2023-07-29T15:53:36.000Z</time>
        <extensions>
          <ns3:TrackPointExtension>
            <ns3:hr>96</ns3:hr>
            <ns3:cad>65</ns3:cad>
          </ns3:TrackPointExtension>
        </extensions>
      </trkpt>
      <trkpt lat="37.77890793979167938232421875" lon="-107.70128089003264904022216796875">
        <ele>3918.60009765625</ele>
        <time>2023-07-29T15:53:37.000Z</time>
        <extensions>
          <ns3:TrackPointExtension>
            <ns3:hr>96</ns3:hr>
            <ns3:cad>0</ns3:cad>
          </ns3:TrackPointExtension>
        </extensions>
      </trkpt>
      <trkpt lat="37.778909616172313690185546875" lon="-107.70128340460360050201416015625">
        <ele>3918.39990234375</ele>
        <time>2023-07-29T15:53:38.000Z</time>
        <extensions>
          <ns3:TrackPointExtension>
            <ns3:hr>96</ns3:hr>
            <ns3:cad>0</ns3:cad>
          </ns3:TrackPointExtension>
        </extensions>
      </trkpt>
      <trkpt lat="37.778908945620059967041015625" lon="-107.70128608681261539459228515625">
        <ele>3918</ele>
        <time>2023-07-29T15:53:39.000Z</time>
        <extensions>
          <ns3:TrackPointExtension>
            <ns3:hr>96</ns3:hr>
            <ns3:cad>0</ns3:cad>
          </ns3:TrackPointExtension>
        </extensions>
      </trkpt>
      <trkpt lat="37.7789072692394256591796875" lon="-107.7012942172586917877197265625">
        <ele>3917.800048828125</ele>
        <time>2023-07-29T15:53:40.000Z</time>
        <extensions>
          <ns3:TrackPointExtension>
            <ns3:hr>96</ns3:hr>
            <ns3:cad>0</ns3:cad>
          </ns3:TrackPointExtension>
        </extensions>
      </trkpt>
      <trkpt lat="37.77890659868717193603515625" lon="-107.7012979052960872650146484375">
        <ele>3917.800048828125</ele>
        <time>2023-07-29T15:53:41.000Z</time>
        <extensions>
          <ns3:TrackPointExtension>
            <ns3:hr>96</ns3:hr>
            <ns3:cad>0</ns3:cad>
          </ns3:TrackPointExtension>
        </extensions>
      </trkpt>
      <trkpt lat="37.7789121307432651519775390625" lon="-107.70130100660026073455810546875">
        <ele>3917.800048828125</ele>
        <time>2023-07-29T15:53:42.000Z</time>
        <extensions>
          <ns3:TrackPointExtension>
            <ns3:hr>96</ns3:hr>
            <ns3:cad>0</ns3:cad>
          </ns3:TrackPointExtension>
        </extensions>
      </trkpt>
      <trkpt lat="37.77891933917999267578125" lon="-107.70130368880927562713623046875">
        <ele>3917.60009765625</ele>
        <time>2023-07-29T15:53:43.000Z</time>
        <extensions>
          <ns3:TrackPointExtension>
            <ns3:hr>95</ns3:hr>
            <ns3:cad>0</ns3:cad>
          </ns3:TrackPointExtension>
        </extensions>
      </trkpt>
      <trkpt lat="37.77892805635929107666015625" lon="-107.70130477845668792724609375">
        <ele>3917.60009765625</ele>
        <time>2023-07-29T15:53:44.000Z</time>
        <extensions>
          <ns3:TrackPointExtension>
            <ns3:hr>95</ns3:hr>
            <ns3:cad>0</ns3:cad>
          </ns3:TrackPointExtension>
        </extensions>
      </trkpt>
      <trkpt lat="37.77893333695828914642333984375" lon="-107.70131190307438373565673828125">
        <ele>3917.60009765625</ele>
        <time>2023-07-29T15:53:45.000Z</time>
        <extensions>
          <ns3:TrackPointExtension>
            <ns3:hr>95</ns3:hr>
            <ns3:cad>0</ns3:cad>
          </ns3:TrackPointExtension>
        </extensions>
      </trkpt>
      <trkpt lat="37.77893501333892345428466796875" lon="-107.70132045261561870574951171875">
        <ele>3917.39990234375</ele>
        <time>2023-07-29T15:53:46.000Z</time>
        <extensions>
          <ns3:TrackPointExtension>
            <ns3:hr>95</ns3:hr>
            <ns3:cad>0</ns3:cad>
          </ns3:TrackPointExtension>
        </extensions>
      </trkpt>
      <trkpt lat="37.7789396233856678009033203125" lon="-107.70132648758590221405029296875">
        <ele>3917.39990234375</ele>
        <time>2023-07-29T15:53:47.000Z</time>
        <extensions>
          <ns3:TrackPointExtension>
            <ns3:hr>95</ns3:hr>
            <ns3:cad>0</ns3:cad>
          </ns3:TrackPointExtension>
        </extensions>
      </trkpt>
      <trkpt lat="37.778949849307537078857421875" lon="-107.70133570767939090728759765625">
        <ele>3917.199951171875</ele>
        <time>2023-07-29T15:53:48.000Z</time>
        <extensions>
          <ns3:TrackPointExtension>
            <ns3:hr>95</ns3:hr>
            <ns3:cad>0</ns3:cad>
          </ns3:TrackPointExtension>
        </extensions>
      </trkpt>
      <trkpt lat="37.77895529754459857940673828125" lon="-107.701342664659023284912109375">
        <ele>3916.800048828125</ele>
        <time>2023-07-29T15:53:49.000Z</time>
        <extensions>
          <ns3:TrackPointExtension>
            <ns3:hr>95</ns3:hr>
            <ns3:cad>0</ns3:cad>
          </ns3:TrackPointExtension>
        </extensions>
      </trkpt>
      <trkpt lat="37.7789654396474361419677734375" lon="-107.70134844817221164703369140625">
        <ele>3916.800048828125</ele>
        <time>2023-07-29T15:53:50.000Z</time>
        <extensions>
          <ns3:TrackPointExtension>
            <ns3:hr>95</ns3:hr>
            <ns3:cad>0</ns3:cad>
          </ns3:TrackPointExtension>
        </extensions>
      </trkpt>
      <trkpt lat="37.77896921150386333465576171875" lon="-107.70135196857154369354248046875">
        <ele>3916.60009765625</ele>
        <time>2023-07-29T15:53:51.000Z</time>
        <extensions>
          <ns3:TrackPointExtension>
            <ns3:hr>96</ns3:hr>
            <ns3:cad>0</ns3:cad>
          </ns3:TrackPointExtension>
        </extensions>
      </trkpt>
      <trkpt lat="37.77896854095160961151123046875" lon="-107.70135330967605113983154296875">
        <ele>3916.39990234375</ele>
        <time>2023-07-29T15:53:52.000Z</time>
        <extensions>
          <ns3:TrackPointExtension>
            <ns3:hr>96</ns3:hr>
            <ns3:cad>0</ns3:cad>
          </ns3:TrackPointExtension>
        </extensions>
      </trkpt>
      <trkpt lat="37.7789701335132122039794921875" lon="-107.70135448314249515533447265625">
        <ele>3916.199951171875</ele>
        <time>2023-07-29T15:53:53.000Z</time>
        <extensions>
          <ns3:TrackPointExtension>
            <ns3:hr>96</ns3:hr>
            <ns3:cad>0</ns3:cad>
          </ns3:TrackPointExtension>
        </extensions>
      </trkpt>
      <trkpt lat="37.778973318636417388916015625" lon="-107.70135733298957347869873046875">
        <ele>3916</ele>
        <time>2023-07-29T15:53:54.000Z</time>
        <extensions>
          <ns3:TrackPointExtension>
            <ns3:hr>95</ns3:hr>
            <ns3:cad>0</ns3:cad>
          </ns3:TrackPointExtension>
        </extensions>
      </trkpt>
      <trkpt lat="37.778974659740924835205078125" lon="-107.701358087360858917236328125">
        <ele>3915.800048828125</ele>
        <time>2023-07-29T15:53:55.000Z</time>
        <extensions>
          <ns3:TrackPointExtension>
            <ns3:hr>94</ns3:hr>
            <ns3:cad>61</ns3:cad>
          </ns3:TrackPointExtension>
        </extensions>
      </trkpt>
      <trkpt lat="37.7789781801402568817138671875" lon="-107.7013636194169521331787109375">
        <ele>3915.800048828125</ele>
        <time>2023-07-29T15:53:56.000Z</time>
        <extensions>
          <ns3:TrackPointExtension>
            <ns3:hr>94</ns3:hr>
            <ns3:cad>61</ns3:cad>
          </ns3:TrackPointExtension>
        </extensions>
      </trkpt>
      <trkpt lat="37.778981029987335205078125" lon="-107.7013683132827281951904296875">
        <ele>3915.60009765625</ele>
        <time>2023-07-29T15:53:57.000Z</time>
        <extensions>
          <ns3:TrackPointExtension>
            <ns3:hr>94</ns3:hr>
            <ns3:cad>61</ns3:cad>
          </ns3:TrackPointExtension>
        </extensions>
      </trkpt>
      <trkpt lat="37.77898295782506465911865234375" lon="-107.70137359388172626495361328125">
        <ele>3915.39990234375</ele>
        <time>2023-07-29T15:53:58.000Z</time>
        <extensions>
          <ns3:TrackPointExtension>
            <ns3:hr>95</ns3:hr>
            <ns3:cad>54</ns3:cad>
          </ns3:TrackPointExtension>
        </extensions>
      </trkpt>
      <trkpt lat="37.77898631058633327484130859375" lon="-107.7013777010142803192138671875">
        <ele>3915.39990234375</ele>
        <time>2023-07-29T15:53:59.000Z</time>
        <extensions>
          <ns3:TrackPointExtension>
            <ns3:hr>95</ns3:hr>
            <ns3:cad>54</ns3:cad>
          </ns3:TrackPointExtension>
        </extensions>
      </trkpt>
      <trkpt lat="37.7789879031479358673095703125" lon="-107.701380550861358642578125">
        <ele>3915.199951171875</ele>
        <time>2023-07-29T15:54:00.000Z</time>
        <extensions>
          <ns3:TrackPointExtension>
            <ns3:hr>95</ns3:hr>
            <ns3:cad>0</ns3:cad>
          </ns3:TrackPointExtension>
        </extensions>
      </trkpt>
      <trkpt lat="37.778991758823394775390625" lon="-107.70138516090810298919677734375">
        <ele>3915</ele>
        <time>2023-07-29T15:54:01.000Z</time>
        <extensions>
          <ns3:TrackPointExtension>
            <ns3:hr>95</ns3:hr>
            <ns3:cad>0</ns3:cad>
          </ns3:TrackPointExtension>
        </extensions>
      </trkpt>
      <trkpt lat="37.77899167500436305999755859375" lon="-107.701385580003261566162109375">
        <ele>3915</ele>
        <time>2023-07-29T15:54:02.000Z</time>
        <extensions>
          <ns3:TrackPointExtension>
            <ns3:hr>95</ns3:hr>
            <ns3:cad>0</ns3:cad>
          </ns3:TrackPointExtension>
        </extensions>
      </trkpt>
      <trkpt lat="37.7789972908794879913330078125" lon="-107.701392285525798797607421875">
        <ele>3914.800048828125</ele>
        <time>2023-07-29T15:54:03.000Z</time>
        <extensions>
          <ns3:TrackPointExtension>
            <ns3:hr>95</ns3:hr>
            <ns3:cad>0</ns3:cad>
          </ns3:TrackPointExtension>
        </extensions>
      </trkpt>
      <trkpt lat="37.779008857905864715576171875" lon="-107.7014021761715412139892578125">
        <ele>3914.60009765625</ele>
        <time>2023-07-29T15:54:04.000Z</time>
        <extensions>
          <ns3:TrackPointExtension>
            <ns3:hr>95</ns3:hr>
            <ns3:cad>0</ns3:cad>
          </ns3:TrackPointExtension>
        </extensions>
      </trkpt>
      <trkpt lat="37.779010869562625885009765625" lon="-107.701403684914112091064453125">
        <ele>3914.60009765625</ele>
        <time>2023-07-29T15:54:05.000Z</time>
        <extensions>
          <ns3:TrackPointExtension>
            <ns3:hr>95</ns3:hr>
            <ns3:cad>0</ns3:cad>
          </ns3:TrackPointExtension>
        </extensions>
      </trkpt>
      <trkpt lat="37.7790118753910064697265625" lon="-107.70140376873314380645751953125">
        <ele>3914.39990234375</ele>
        <time>2023-07-29T15:54:06.000Z</time>
        <extensions>
          <ns3:TrackPointExtension>
            <ns3:hr>95</ns3:hr>
            <ns3:cad>0</ns3:cad>
          </ns3:TrackPointExtension>
        </extensions>
      </trkpt>
      <trkpt lat="37.77901179157197475433349609375" lon="-107.7014048583805561065673828125">
        <ele>3914.199951171875</ele>
        <time>2023-07-29T15:54:07.000Z</time>
        <extensions>
          <ns3:TrackPointExtension>
            <ns3:hr>95</ns3:hr>
            <ns3:cad>0</ns3:cad>
          </ns3:TrackPointExtension>
        </extensions>
      </trkpt>
      <trkpt lat="37.7790160663425922393798828125" lon="-107.701406367123126983642578125">
        <ele>3914</ele>
        <time>2023-07-29T15:54:08.000Z</time>
        <extensions>
          <ns3:TrackPointExtension>
            <ns3:hr>95</ns3:hr>
            <ns3:cad>0</ns3:cad>
          </ns3:TrackPointExtension>
        </extensions>
      </trkpt>
      <trkpt lat="37.7790237776935100555419921875" lon="-107.70141198299825191497802734375">
        <ele>3913.800048828125</ele>
        <time>2023-07-29T15:54:09.000Z</time>
        <extensions>
          <ns3:TrackPointExtension>
            <ns3:hr>95</ns3:hr>
            <ns3:cad>0</ns3:cad>
          </ns3:TrackPointExtension>
        </extensions>
      </trkpt>
      <trkpt lat="37.77902637608349323272705078125" lon="-107.70140879787504673004150390625">
        <ele>3913.800048828125</ele>
        <time>2023-07-29T15:54:10.000Z</time>
        <extensions>
          <ns3:TrackPointExtension>
            <ns3:hr>95</ns3:hr>
            <ns3:cad>0</ns3:cad>
          </ns3:TrackPointExtension>
        </extensions>
      </trkpt>
      <trkpt lat="37.7790306508541107177734375" lon="-107.701411731541156768798828125">
        <ele>3913.60009765625</ele>
        <time>2023-07-29T15:54:11.000Z</time>
        <extensions>
          <ns3:TrackPointExtension>
            <ns3:hr>95</ns3:hr>
            <ns3:cad>0</ns3:cad>
          </ns3:TrackPointExtension>
        </extensions>
      </trkpt>
      <trkpt lat="37.779037021100521087646484375" lon="-107.7014209516346454620361328125">
        <ele>3913.39990234375</ele>
        <time>2023-07-29T15:54:12.000Z</time>
        <extensions>
          <ns3:TrackPointExtension>
            <ns3:hr>95</ns3:hr>
            <ns3:cad>0</ns3:cad>
          </ns3:TrackPointExtension>
        </extensions>
      </trkpt>
      <trkpt lat="37.77903794310986995697021484375" lon="-107.70142220892012119293212890625">
        <ele>3913.199951171875</ele>
        <time>2023-07-29T15:54:13.000Z</time>
        <extensions>
          <ns3:TrackPointExtension>
            <ns3:hr>95</ns3:hr>
            <ns3:cad>0</ns3:cad>
          </ns3:TrackPointExtension>
        </extensions>
      </trkpt>
      <trkpt lat="37.77904079295694828033447265625" lon="-107.701427154242992401123046875">
        <ele>3913</ele>
        <time>2023-07-29T15:54:14.000Z</time>
        <extensions>
          <ns3:TrackPointExtension>
            <ns3:hr>95</ns3:hr>
            <ns3:cad>0</ns3:cad>
          </ns3:TrackPointExtension>
        </extensions>
      </trkpt>
      <trkpt lat="37.7790371887385845184326171875" lon="-107.701427154242992401123046875">
        <ele>3912.800048828125</ele>
        <time>2023-07-29T15:54:15.000Z</time>
        <extensions>
          <ns3:TrackPointExtension>
            <ns3:hr>95</ns3:hr>
            <ns3:cad>0</ns3:cad>
          </ns3:TrackPointExtension>
        </extensions>
      </trkpt>
      <trkpt lat="37.77903760783374309539794921875" lon="-107.70144031383097171783447265625">
        <ele>3912.39990234375</ele>
        <time>2023-07-29T15:54:16.000Z</time>
        <extensions>
          <ns3:TrackPointExtension>
            <ns3:hr>95</ns3:hr>
            <ns3:cad>0</ns3:cad>
          </ns3:TrackPointExtension>
        </extensions>
      </trkpt>
      <trkpt lat="37.7790378592908382415771484375" lon="-107.70144986920058727264404296875">
        <ele>3912.39990234375</ele>
        <time>2023-07-29T15:54:17.000Z</time>
        <extensions>
          <ns3:TrackPointExtension>
            <ns3:hr>95</ns3:hr>
            <ns3:cad>0</ns3:cad>
          </ns3:TrackPointExtension>
        </extensions>
      </trkpt>
      <trkpt lat="37.77904070913791656494140625" lon="-107.701457329094409942626953125">
        <ele>3912</ele>
        <time>2023-07-29T15:54:18.000Z</time>
        <extensions>
          <ns3:TrackPointExtension>
            <ns3:hr>94</ns3:hr>
            <ns3:cad>0</ns3:cad>
          </ns3:TrackPointExtension>
        </extensions>
      </trkpt>
      <trkpt lat="37.77904464863240718841552734375" lon="-107.70146445371210575103759765625">
        <ele>3912</ele>
        <time>2023-07-29T15:54:19.000Z</time>
        <extensions>
          <ns3:TrackPointExtension>
            <ns3:hr>94</ns3:hr>
            <ns3:cad>0</ns3:cad>
          </ns3:TrackPointExtension>
        </extensions>
      </trkpt>
      <trkpt lat="37.77904883958399295806884765625" lon="-107.70147375762462615966796875">
        <ele>3911.800048828125</ele>
        <time>2023-07-29T15:54:20.000Z</time>
        <extensions>
          <ns3:TrackPointExtension>
            <ns3:hr>94</ns3:hr>
            <ns3:cad>0</ns3:cad>
          </ns3:TrackPointExtension>
        </extensions>
      </trkpt>
      <trkpt lat="37.779051102697849273681640625" lon="-107.70148272626101970672607421875">
        <ele>3911.800048828125</ele>
        <time>2023-07-29T15:54:21.000Z</time>
        <extensions>
          <ns3:TrackPointExtension>
            <ns3:hr>94</ns3:hr>
            <ns3:cad>53</ns3:cad>
          </ns3:TrackPointExtension>
        </extensions>
      </trkpt>
      <trkpt lat="37.77905269525945186614990234375" lon="-107.701488174498081207275390625">
        <ele>3911.60009765625</ele>
        <time>2023-07-29T15:54:22.000Z</time>
        <extensions>
          <ns3:TrackPointExtension>
            <ns3:hr>94</ns3:hr>
            <ns3:cad>53</ns3:cad>
          </ns3:TrackPointExtension>
        </extensions>
      </trkpt>
      <trkpt lat="37.77905520983040332794189453125" lon="-107.70149664022028446197509765625">
        <ele>3911.39990234375</ele>
        <time>2023-07-29T15:54:23.000Z</time>
        <extensions>
          <ns3:TrackPointExtension>
            <ns3:hr>94</ns3:hr>
            <ns3:cad>0</ns3:cad>
          </ns3:TrackPointExtension>
        </extensions>
      </trkpt>
      <trkpt lat="37.7790529467165470123291015625" lon="-107.7015007473528385162353515625">
        <ele>3911.199951171875</ele>
        <time>2023-07-29T15:54:24.000Z</time>
        <extensions>
          <ns3:TrackPointExtension>
            <ns3:hr>94</ns3:hr>
            <ns3:cad>0</ns3:cad>
          </ns3:TrackPointExtension>
        </extensions>
      </trkpt>
      <trkpt lat="37.77905269525945186614990234375" lon="-107.70150720141828060150146484375">
        <ele>3911</ele>
        <time>2023-07-29T15:54:25.000Z</time>
        <extensions>
          <ns3:TrackPointExtension>
            <ns3:hr>94</ns3:hr>
            <ns3:cad>0</ns3:cad>
          </ns3:TrackPointExtension>
        </extensions>
      </trkpt>
      <trkpt lat="37.7790579758584499359130859375" lon="-107.70151390694081783294677734375">
        <ele>3910.800048828125</ele>
        <time>2023-07-29T15:54:26.000Z</time>
        <extensions>
          <ns3:TrackPointExtension>
            <ns3:hr>94</ns3:hr>
            <ns3:cad>0</ns3:cad>
          </ns3:TrackPointExtension>
        </extensions>
      </trkpt>
      <trkpt lat="37.77906141243875026702880859375" lon="-107.70151801407337188720703125">
        <ele>3910.60009765625</ele>
        <time>2023-07-29T15:54:27.000Z</time>
        <extensions>
          <ns3:TrackPointExtension>
            <ns3:hr>94</ns3:hr>
            <ns3:cad>0</ns3:cad>
          </ns3:TrackPointExtension>
        </extensions>
      </trkpt>
      <trkpt lat="37.77906610630452632904052734375" lon="-107.7015235461294651031494140625">
        <ele>3910.39990234375</ele>
        <time>2023-07-29T15:54:28.000Z</time>
        <extensions>
          <ns3:TrackPointExtension>
            <ns3:hr>94</ns3:hr>
            <ns3:cad>0</ns3:cad>
          </ns3:TrackPointExtension>
        </extensions>
      </trkpt>
      <trkpt lat="37.77906610630452632904052734375" lon="-107.70152547396719455718994140625">
        <ele>3910.39990234375</ele>
        <time>2023-07-29T15:54:29.000Z</time>
        <extensions>
          <ns3:TrackPointExtension>
            <ns3:hr>94</ns3:hr>
            <ns3:cad>0</ns3:cad>
          </ns3:TrackPointExtension>
        </extensions>
      </trkpt>
      <trkpt lat="37.77906174771487712860107421875" lon="-107.7015186846256256103515625">
        <ele>3910.199951171875</ele>
        <time>2023-07-29T15:54:30.000Z</time>
        <extensions>
          <ns3:TrackPointExtension>
            <ns3:hr>94</ns3:hr>
            <ns3:cad>0</ns3:cad>
          </ns3:TrackPointExtension>
        </extensions>
      </trkpt>
      <trkpt lat="37.77906258590519428253173828125" lon="-107.70151826553046703338623046875">
        <ele>3910.199951171875</ele>
        <time>2023-07-29T15:54:31.000Z</time>
        <extensions>
          <ns3:TrackPointExtension>
            <ns3:hr>94</ns3:hr>
            <ns3:cad>0</ns3:cad>
          </ns3:TrackPointExtension>
        </extensions>
      </trkpt>
      <trkpt lat="37.7790633402764797210693359375" lon="-107.701518349349498748779296875">
        <ele>3910</ele>
        <time>2023-07-29T15:54:32.000Z</time>
        <extensions>
          <ns3:TrackPointExtension>
            <ns3:hr>94</ns3:hr>
            <ns3:cad>0</ns3:cad>
          </ns3:TrackPointExtension>
        </extensions>
      </trkpt>
      <trkpt lat="37.7790660224854946136474609375" lon="-107.70152069628238677978515625">
        <ele>3909.800048828125</ele>
        <time>2023-07-29T15:54:33.000Z</time>
        <extensions>
          <ns3:TrackPointExtension>
            <ns3:hr>94</ns3:hr>
            <ns3:cad>0</ns3:cad>
          </ns3:TrackPointExtension>
        </extensions>
      </trkpt>
      <trkpt lat="37.77906811796128749847412109375" lon="-107.70152471959590911865234375">
        <ele>3909.60009765625</ele>
        <time>2023-07-29T15:54:34.000Z</time>
        <extensions>
          <ns3:TrackPointExtension>
            <ns3:hr>94</ns3:hr>
            <ns3:cad>0</ns3:cad>
          </ns3:TrackPointExtension>
        </extensions>
      </trkpt>
      <trkpt lat="37.7790720574557781219482421875" lon="-107.70152740180492401123046875">
        <ele>3909.39990234375</ele>
        <time>2023-07-29T15:54:35.000Z</time>
        <extensions>
          <ns3:TrackPointExtension>
            <ns3:hr>95</ns3:hr>
            <ns3:cad>0</ns3:cad>
          </ns3:TrackPointExtension>
        </extensions>
      </trkpt>
      <trkpt lat="37.779076583683490753173828125" lon="-107.7015262283384799957275390625">
        <ele>3909.39990234375</ele>
        <time>2023-07-29T15:54:36.000Z</time>
        <extensions>
          <ns3:TrackPointExtension>
            <ns3:hr>95</ns3:hr>
            <ns3:cad>0</ns3:cad>
          </ns3:TrackPointExtension>
        </extensions>
      </trkpt>
      <trkpt lat="37.779081948101520538330078125" lon="-107.70152329467236995697021484375">
        <ele>3909.39990234375</ele>
        <time>2023-07-29T15:54:37.000Z</time>
        <extensions>
          <ns3:TrackPointExtension>
            <ns3:hr>95</ns3:hr>
            <ns3:cad>45</ns3:cad>
          </ns3:TrackPointExtension>
        </extensions>
      </trkpt>
      <trkpt lat="37.77908588759601116180419921875" lon="-107.70152337849140167236328125">
        <ele>3909.199951171875</ele>
        <time>2023-07-29T15:54:38.000Z</time>
        <extensions>
          <ns3:TrackPointExtension>
            <ns3:hr>95</ns3:hr>
            <ns3:cad>45</ns3:cad>
          </ns3:TrackPointExtension>
        </extensions>
      </trkpt>
      <trkpt lat="37.77908991090953350067138671875" lon="-107.701525390148162841796875">
        <ele>3908.800048828125</ele>
        <time>2023-07-29T15:54:39.000Z</time>
        <extensions>
          <ns3:TrackPointExtension>
            <ns3:hr>95</ns3:hr>
            <ns3:cad>45</ns3:cad>
          </ns3:TrackPointExtension>
        </extensions>
      </trkpt>
      <trkpt lat="37.7790950238704681396484375" lon="-107.7015299163758754730224609375">
        <ele>3908.60009765625</ele>
        <time>2023-07-29T15:54:40.000Z</time>
        <extensions>
          <ns3:TrackPointExtension>
            <ns3:hr>95</ns3:hr>
            <ns3:cad>45</ns3:cad>
          </ns3:TrackPointExtension>
        </extensions>
      </trkpt>
      <trkpt lat="37.779096700251102447509765625" lon="-107.70153268240392208099365234375">
        <ele>3908.60009765625</ele>
        <time>2023-07-29T15:54:41.000Z</time>
        <extensions>
          <ns3:TrackPointExtension>
            <ns3:hr>95</ns3:hr>
            <ns3:cad>0</ns3:cad>
          </ns3:TrackPointExtension>
        </extensions>
      </trkpt>
      <trkpt lat="37.77909837663173675537109375" lon="-107.701535113155841827392578125">
        <ele>3908.39990234375</ele>
        <time>2023-07-29T15:54:42.000Z</time>
        <extensions>
          <ns3:TrackPointExtension>
            <ns3:hr>95</ns3:hr>
            <ns3:cad>0</ns3:cad>
          </ns3:TrackPointExtension>
        </extensions>
      </trkpt>
      <trkpt lat="37.77910483069717884063720703125" lon="-107.7015399746596813201904296875">
        <ele>3908.199951171875</ele>
        <time>2023-07-29T15:54:43.000Z</time>
        <extensions>
          <ns3:TrackPointExtension>
            <ns3:hr>95</ns3:hr>
            <ns3:cad>0</ns3:cad>
          </ns3:TrackPointExtension>
        </extensions>
      </trkpt>
      <trkpt lat="37.77910583652555942535400390625" lon="-107.70154123194515705108642578125">
        <ele>3908</ele>
        <time>2023-07-29T15:54:44.000Z</time>
        <extensions>
          <ns3:TrackPointExtension>
            <ns3:hr>95</ns3:hr>
            <ns3:cad>0</ns3:cad>
          </ns3:TrackPointExtension>
        </extensions>
      </trkpt>
      <trkpt lat="37.779106087982654571533203125" lon="-107.70154207013547420501708984375">
        <ele>3907.800048828125</ele>
        <time>2023-07-29T15:54:45.000Z</time>
        <extensions>
          <ns3:TrackPointExtension>
            <ns3:hr>95</ns3:hr>
            <ns3:cad>0</ns3:cad>
          </ns3:TrackPointExtension>
        </extensions>
      </trkpt>
      <trkpt lat="37.77910700999200344085693359375" lon="-107.701545171439647674560546875">
        <ele>3907.60009765625</ele>
        <time>2023-07-29T15:54:46.000Z</time>
        <extensions>
          <ns3:TrackPointExtension>
            <ns3:hr>95</ns3:hr>
            <ns3:cad>0</ns3:cad>
          </ns3:TrackPointExtension>
        </extensions>
      </trkpt>
      <trkpt lat="37.7791049145162105560302734375" lon="-107.70154123194515705108642578125">
        <ele>3907.60009765625</ele>
        <time>2023-07-29T15:54:47.000Z</time>
        <extensions>
          <ns3:TrackPointExtension>
            <ns3:hr>94</ns3:hr>
            <ns3:cad>0</ns3:cad>
          </ns3:TrackPointExtension>
        </extensions>
      </trkpt>
      <trkpt lat="37.77910114265978336334228515625" lon="-107.70153502933681011199951171875">
        <ele>3907.60009765625</ele>
        <time>2023-07-29T15:54:48.000Z</time>
        <extensions>
          <ns3:TrackPointExtension>
            <ns3:hr>94</ns3:hr>
            <ns3:cad>0</ns3:cad>
          </ns3:TrackPointExtension>
        </extensions>
      </trkpt>
      <trkpt lat="37.77910164557397365570068359375" lon="-107.70153435878455638885498046875">
        <ele>3907.39990234375</ele>
        <time>2023-07-29T15:54:49.000Z</time>
        <extensions>
          <ns3:TrackPointExtension>
            <ns3:hr>94</ns3:hr>
            <ns3:cad>0</ns3:cad>
          </ns3:TrackPointExtension>
        </extensions>
      </trkpt>
      <trkpt lat="37.7791089378297328948974609375" lon="-107.70153519697487354278564453125">
        <ele>3907.39990234375</ele>
        <time>2023-07-29T15:54:50.000Z</time>
        <extensions>
          <ns3:TrackPointExtension>
            <ns3:hr>94</ns3:hr>
            <ns3:cad>0</ns3:cad>
          </ns3:TrackPointExtension>
        </extensions>
      </trkpt>
      <trkpt lat="37.77911069802939891815185546875" lon="-107.70153343677520751953125">
        <ele>3907.199951171875</ele>
        <time>2023-07-29T15:54:51.000Z</time>
        <extensions>
          <ns3:TrackPointExtension>
            <ns3:hr>94</ns3:hr>
            <ns3:cad>0</ns3:cad>
          </ns3:TrackPointExtension>
        </extensions>
      </trkpt>
      <trkpt lat="37.77911706827580928802490234375" lon="-107.7015332691371440887451171875">
        <ele>3907</ele>
        <time>2023-07-29T15:54:52.000Z</time>
        <extensions>
          <ns3:TrackPointExtension>
            <ns3:hr>94</ns3:hr>
            <ns3:cad>0</ns3:cad>
          </ns3:TrackPointExtension>
        </extensions>
      </trkpt>
      <trkpt lat="37.77912645600736141204833984375" lon="-107.7015322633087635040283203125">
        <ele>3906.800048828125</ele>
        <time>2023-07-29T15:54:53.000Z</time>
        <extensions>
          <ns3:TrackPointExtension>
            <ns3:hr>94</ns3:hr>
            <ns3:cad>0</ns3:cad>
          </ns3:TrackPointExtension>
        </extensions>
      </trkpt>
      <trkpt lat="37.77913332916796207427978515625" lon="-107.70153251476585865020751953125">
        <ele>3906.800048828125</ele>
        <time>2023-07-29T15:54:54.000Z</time>
        <extensions>
          <ns3:TrackPointExtension>
            <ns3:hr>94</ns3:hr>
            <ns3:cad>0</ns3:cad>
          </ns3:TrackPointExtension>
        </extensions>
      </trkpt>
      <trkpt lat="37.7791364304721355438232421875" lon="-107.701538465917110443115234375">
        <ele>3906.800048828125</ele>
        <time>2023-07-29T15:54:55.000Z</time>
        <extensions>
          <ns3:TrackPointExtension>
            <ns3:hr>94</ns3:hr>
            <ns3:cad>0</ns3:cad>
          </ns3:TrackPointExtension>
        </extensions>
      </trkpt>
      <trkpt lat="37.7791360951960086822509765625" lon="-107.7015403099358081817626953125">
        <ele>3906.800048828125</ele>
        <time>2023-07-29T15:54:56.000Z</time>
        <extensions>
          <ns3:TrackPointExtension>
            <ns3:hr>94</ns3:hr>
            <ns3:cad>0</ns3:cad>
          </ns3:TrackPointExtension>
        </extensions>
      </trkpt>
      <trkpt lat="37.77913919650018215179443359375" lon="-107.7015460096299648284912109375">
        <ele>3906.60009765625</ele>
        <time>2023-07-29T15:54:57.000Z</time>
        <extensions>
          <ns3:TrackPointExtension>
            <ns3:hr>94</ns3:hr>
            <ns3:cad>0</ns3:cad>
          </ns3:TrackPointExtension>
        </extensions>
      </trkpt>
      <trkpt lat="37.779150344431400299072265625" lon="-107.701553218066692352294921875">
        <ele>3906.39990234375</ele>
        <time>2023-07-29T15:54:58.000Z</time>
        <extensions>
          <ns3:TrackPointExtension>
            <ns3:hr>94</ns3:hr>
            <ns3:cad>0</ns3:cad>
          </ns3:TrackPointExtension>
        </extensions>
      </trkpt>
      <trkpt lat="37.7791540324687957763671875" lon="-107.7015577442944049835205078125">
        <ele>3906</ele>
        <time>2023-07-29T15:54:59.000Z</time>
        <extensions>
          <ns3:TrackPointExtension>
            <ns3:hr>95</ns3:hr>
            <ns3:cad>0</ns3:cad>
          </ns3:TrackPointExtension>
        </extensions>
      </trkpt>
      <trkpt lat="37.77915931306779384613037109375" lon="-107.7015610970556735992431640625">
        <ele>3905.800048828125</ele>
        <time>2023-07-29T15:55:00.000Z</time>
        <extensions>
          <ns3:TrackPointExtension>
            <ns3:hr>95</ns3:hr>
            <ns3:cad>0</ns3:cad>
          </ns3:TrackPointExtension>
        </extensions>
      </trkpt>
      <trkpt lat="37.77915914542973041534423828125" lon="-107.7015597559511661529541015625">
        <ele>3905.60009765625</ele>
        <time>2023-07-29T15:55:01.000Z</time>
        <extensions>
          <ns3:TrackPointExtension>
            <ns3:hr>95</ns3:hr>
            <ns3:cad>0</ns3:cad>
          </ns3:TrackPointExtension>
        </extensions>
      </trkpt>
      <trkpt lat="37.77916300110518932342529296875" lon="-107.7015644498169422149658203125">
        <ele>3905.60009765625</ele>
        <time>2023-07-29T15:55:02.000Z</time>
        <extensions>
          <ns3:TrackPointExtension>
            <ns3:hr>95</ns3:hr>
            <ns3:cad>43</ns3:cad>
          </ns3:TrackPointExtension>
        </extensions>
      </trkpt>
      <trkpt lat="37.7791645936667919158935546875" lon="-107.701565958559513092041015625">
        <ele>3905.39990234375</ele>
        <time>2023-07-29T15:55:03.000Z</time>
        <extensions>
          <ns3:TrackPointExtension>
            <ns3:hr>95</ns3:hr>
            <ns3:cad>47</ns3:cad>
          </ns3:TrackPointExtension>
        </extensions>
      </trkpt>
      <trkpt lat="37.7791689522564411163330078125" lon="-107.70157299935817718505859375">
        <ele>3905</ele>
        <time>2023-07-29T15:55:04.000Z</time>
        <extensions>
          <ns3:TrackPointExtension>
            <ns3:hr>95</ns3:hr>
            <ns3:cad>47</ns3:cad>
          </ns3:TrackPointExtension>
        </extensions>
      </trkpt>
      <trkpt lat="37.77916836552321910858154296875" lon="-107.701576016843318939208984375">
        <ele>3904.800048828125</ele>
        <time>2023-07-29T15:55:05.000Z</time>
        <extensions>
          <ns3:TrackPointExtension>
            <ns3:hr>95</ns3:hr>
            <ns3:cad>41</ns3:cad>
          </ns3:TrackPointExtension>
        </extensions>
      </trkpt>
      <trkpt lat="37.77916719205677509307861328125" lon="-107.70158230327069759368896484375">
        <ele>3904.60009765625</ele>
        <time>2023-07-29T15:55:06.000Z</time>
        <extensions>
          <ns3:TrackPointExtension>
            <ns3:hr>95</ns3:hr>
            <ns3:cad>0</ns3:cad>
          </ns3:TrackPointExtension>
        </extensions>
      </trkpt>
      <trkpt lat="37.77916702441871166229248046875" lon="-107.70158699713647365570068359375">
        <ele>3904.60009765625</ele>
        <time>2023-07-29T15:55:07.000Z</time>
        <extensions>
          <ns3:TrackPointExtension>
            <ns3:hr>95</ns3:hr>
            <ns3:cad>0</ns3:cad>
          </ns3:TrackPointExtension>
        </extensions>
      </trkpt>
      <trkpt lat="37.77916166000068187713623046875" lon="-107.7015911042690277099609375">
        <ele>3904.39990234375</ele>
        <time>2023-07-29T15:55:08.000Z</time>
        <extensions>
          <ns3:TrackPointExtension>
            <ns3:hr>95</ns3:hr>
            <ns3:cad>0</ns3:cad>
          </ns3:TrackPointExtension>
        </extensions>
      </trkpt>
      <trkpt lat="37.7791629172861576080322265625" lon="-107.701595462858676910400390625">
        <ele>3904.39990234375</ele>
        <time>2023-07-29T15:55:09.000Z</time>
        <extensions>
          <ns3:TrackPointExtension>
            <ns3:hr>95</ns3:hr>
            <ns3:cad>0</ns3:cad>
          </ns3:TrackPointExtension>
        </extensions>
      </trkpt>
      <trkpt lat="37.7791629172861576080322265625" lon="-107.7016020007431507110595703125">
        <ele>3904.199951171875</ele>
        <time>2023-07-29T15:55:10.000Z</time>
        <extensions>
          <ns3:TrackPointExtension>
            <ns3:hr>95</ns3:hr>
            <ns3:cad>0</ns3:cad>
          </ns3:TrackPointExtension>
        </extensions>
      </trkpt>
      <trkpt lat="37.77916677296161651611328125" lon="-107.70160912536084651947021484375">
        <ele>3904</ele>
        <time>2023-07-29T15:55:11.000Z</time>
        <extensions>
          <ns3:TrackPointExtension>
            <ns3:hr>95</ns3:hr>
            <ns3:cad>0</ns3:cad>
          </ns3:TrackPointExtension>
        </extensions>
      </trkpt>
      <trkpt lat="37.77916937135159969329833984375" lon="-107.70160879008471965789794921875">
        <ele>3903.800048828125</ele>
        <time>2023-07-29T15:55:12.000Z</time>
        <extensions>
          <ns3:TrackPointExtension>
            <ns3:hr>95</ns3:hr>
            <ns3:cad>60</ns3:cad>
          </ns3:TrackPointExtension>
        </extensions>
      </trkpt>
      <trkpt lat="37.7791746519505977630615234375" lon="-107.701613903045654296875">
        <ele>3903.800048828125</ele>
        <time>2023-07-29T15:55:13.000Z</time>
        <extensions>
          <ns3:TrackPointExtension>
            <ns3:hr>94</ns3:hr>
            <ns3:cad>60</ns3:cad>
          </ns3:TrackPointExtension>
        </extensions>
      </trkpt>
      <trkpt lat="37.77918043546378612518310546875" lon="-107.70161859691143035888671875">
        <ele>3903.800048828125</ele>
        <time>2023-07-29T15:55:14.000Z</time>
        <extensions>
          <ns3:TrackPointExtension>
            <ns3:hr>94</ns3:hr>
            <ns3:cad>60</ns3:cad>
          </ns3:TrackPointExtension>
        </extensions>
      </trkpt>
      <trkpt lat="37.779185883700847625732421875" lon="-107.70162672735750675201416015625">
        <ele>3903.39990234375</ele>
        <time>2023-07-29T15:55:15.000Z</time>
        <extensions>
          <ns3:TrackPointExtension>
            <ns3:hr>94</ns3:hr>
            <ns3:cad>60</ns3:cad>
          </ns3:TrackPointExtension>
        </extensions>
      </trkpt>
      <trkpt lat="37.77919149957597255706787109375" lon="-107.70163527689874172210693359375">
        <ele>3903.199951171875</ele>
        <time>2023-07-29T15:55:16.000Z</time>
        <extensions>
          <ns3:TrackPointExtension>
            <ns3:hr>94</ns3:hr>
            <ns3:cad>60</ns3:cad>
          </ns3:TrackPointExtension>
        </extensions>
      </trkpt>
      <trkpt lat="37.77919166721403598785400390625" lon="-107.7016429044306278228759765625">
        <ele>3903.199951171875</ele>
        <time>2023-07-29T15:55:17.000Z</time>
        <extensions>
          <ns3:TrackPointExtension>
            <ns3:hr>94</ns3:hr>
            <ns3:cad>60</ns3:cad>
          </ns3:TrackPointExtension>
        </extensions>
      </trkpt>
      <trkpt lat="37.7791897393763065338134765625" lon="-107.70164583809673786163330078125">
        <ele>3903</ele>
        <time>2023-07-29T15:55:18.000Z</time>
        <extensions>
          <ns3:TrackPointExtension>
            <ns3:hr>94</ns3:hr>
            <ns3:cad>60</ns3:cad>
          </ns3:TrackPointExtension>
        </extensions>
      </trkpt>
      <trkpt lat="37.77918160893023014068603515625" lon="-107.7016449160873889923095703125">
        <ele>3902.800048828125</ele>
        <time>2023-07-29T15:55:19.000Z</time>
        <extensions>
          <ns3:TrackPointExtension>
            <ns3:hr>94</ns3:hr>
            <ns3:cad>0</ns3:cad>
          </ns3:TrackPointExtension>
        </extensions>
      </trkpt>
      <trkpt lat="37.7791776694357395172119140625" lon="-107.70164835266768932342529296875">
        <ele>3902.800048828125</ele>
        <time>2023-07-29T15:55:20.000Z</time>
        <extensions>
          <ns3:TrackPointExtension>
            <ns3:hr>94</ns3:hr>
            <ns3:cad>0</ns3:cad>
          </ns3:TrackPointExtension>
        </extensions>
      </trkpt>
      <trkpt lat="37.7791763283312320709228515625" lon="-107.7016516216099262237548828125">
        <ele>3902.60009765625</ele>
        <time>2023-07-29T15:55:21.000Z</time>
        <extensions>
          <ns3:TrackPointExtension>
            <ns3:hr>94</ns3:hr>
            <ns3:cad>0</ns3:cad>
          </ns3:TrackPointExtension>
        </extensions>
      </trkpt>
      <trkpt lat="37.7791726402938365936279296875" lon="-107.701659835875034332275390625">
        <ele>3902.39990234375</ele>
        <time>2023-07-29T15:55:22.000Z</time>
        <extensions>
          <ns3:TrackPointExtension>
            <ns3:hr>95</ns3:hr>
            <ns3:cad>0</ns3:cad>
          </ns3:TrackPointExtension>
        </extensions>
      </trkpt>
      <trkpt lat="37.77917004190385341644287109375" lon="-107.70166444592177867889404296875">
        <ele>3902.39990234375</ele>
        <time>2023-07-29T15:55:23.000Z</time>
        <extensions>
          <ns3:TrackPointExtension>
            <ns3:hr>96</ns3:hr>
            <ns3:cad>0</ns3:cad>
          </ns3:TrackPointExtension>
        </extensions>
      </trkpt>
      <trkpt lat="37.77916886843740940093994140625" lon="-107.7016838081181049346923828125">
        <ele>3902.199951171875</ele>
        <time>2023-07-29T15:55:24.000Z</time>
        <extensions>
          <ns3:TrackPointExtension>
            <ns3:hr>96</ns3:hr>
            <ns3:cad>0</ns3:cad>
          </ns3:TrackPointExtension>
        </extensions>
      </trkpt>
      <trkpt lat="37.779171466827392578125" lon="-107.70168757997453212738037109375">
        <ele>3901.800048828125</ele>
        <time>2023-07-29T15:55:25.000Z</time>
        <extensions>
          <ns3:TrackPointExtension>
            <ns3:hr>96</ns3:hr>
            <ns3:cad>0</ns3:cad>
          </ns3:TrackPointExtension>
        </extensions>
      </trkpt>
      <trkpt lat="37.77917674742639064788818359375" lon="-107.7016945369541645050048828125">
        <ele>3901.60009765625</ele>
        <time>2023-07-29T15:55:26.000Z</time>
        <extensions>
          <ns3:TrackPointExtension>
            <ns3:hr>96</ns3:hr>
            <ns3:cad>0</ns3:cad>
          </ns3:TrackPointExtension>
        </extensions>
      </trkpt>
      <trkpt lat="37.77918797917664051055908203125" lon="-107.7017062716186046600341796875">
        <ele>3901.39990234375</ele>
        <time>2023-07-29T15:55:27.000Z</time>
        <extensions>
          <ns3:TrackPointExtension>
            <ns3:hr>96</ns3:hr>
            <ns3:cad>0</ns3:cad>
          </ns3:TrackPointExtension>
        </extensions>
      </trkpt>
      <trkpt lat="37.77920030057430267333984375" lon="-107.70170803181827068328857421875">
        <ele>3901.199951171875</ele>
        <time>2023-07-29T15:55:28.000Z</time>
        <extensions>
          <ns3:TrackPointExtension>
            <ns3:hr>96</ns3:hr>
            <ns3:cad>0</ns3:cad>
          </ns3:TrackPointExtension>
        </extensions>
      </trkpt>
      <trkpt lat="37.77921278961002826690673828125" lon="-107.70171339623630046844482421875">
        <ele>3901.199951171875</ele>
        <time>2023-07-29T15:55:29.000Z</time>
        <extensions>
          <ns3:TrackPointExtension>
            <ns3:hr>96</ns3:hr>
            <ns3:cad>0</ns3:cad>
          </ns3:TrackPointExtension>
        </extensions>
      </trkpt>
      <trkpt lat="37.77922586537897586822509765625" lon="-107.70171792246401309967041015625">
        <ele>3901.199951171875</ele>
        <time>2023-07-29T15:55:30.000Z</time>
        <extensions>
          <ns3:TrackPointExtension>
            <ns3:hr>96</ns3:hr>
            <ns3:cad>0</ns3:cad>
          </ns3:TrackPointExtension>
        </extensions>
      </trkpt>
      <trkpt lat="37.77923894114792346954345703125" lon="-107.70172446034848690032958984375">
        <ele>3901</ele>
        <time>2023-07-29T15:55:31.000Z</time>
        <extensions>
          <ns3:TrackPointExtension>
            <ns3:hr>96</ns3:hr>
            <ns3:cad>0</ns3:cad>
          </ns3:TrackPointExtension>
        </extensions>
      </trkpt>
      <trkpt lat="37.77924682013690471649169921875" lon="-107.70172848366200923919677734375">
        <ele>3900.60009765625</ele>
        <time>2023-07-29T15:55:32.000Z</time>
        <extensions>
          <ns3:TrackPointExtension>
            <ns3:hr>96</ns3:hr>
            <ns3:cad>0</ns3:cad>
          </ns3:TrackPointExtension>
        </extensions>
      </trkpt>
      <trkpt lat="37.7792497538030147552490234375" lon="-107.70173351280391216278076171875">
        <ele>3900.39990234375</ele>
        <time>2023-07-29T15:55:33.000Z</time>
        <extensions>
          <ns3:TrackPointExtension>
            <ns3:hr>96</ns3:hr>
            <ns3:cad>0</ns3:cad>
          </ns3:TrackPointExtension>
        </extensions>
      </trkpt>
      <trkpt lat="37.77925687842071056365966796875" lon="-107.701738290488719940185546875">
        <ele>3900.199951171875</ele>
        <time>2023-07-29T15:55:34.000Z</time>
        <extensions>
          <ns3:TrackPointExtension>
            <ns3:hr>96</ns3:hr>
            <ns3:cad>0</ns3:cad>
          </ns3:TrackPointExtension>
        </extensions>
      </trkpt>
      <trkpt lat="37.77926794253289699554443359375" lon="-107.701742984354496002197265625">
        <ele>3900</ele>
        <time>2023-07-29T15:55:35.000Z</time>
        <extensions>
          <ns3:TrackPointExtension>
            <ns3:hr>96</ns3:hr>
            <ns3:cad>0</ns3:cad>
          </ns3:TrackPointExtension>
        </extensions>
      </trkpt>
      <trkpt lat="37.779277078807353973388671875" lon="-107.7017491869628429412841796875">
        <ele>3899.800048828125</ele>
        <time>2023-07-29T15:55:36.000Z</time>
        <extensions>
          <ns3:TrackPointExtension>
            <ns3:hr>96</ns3:hr>
            <ns3:cad>0</ns3:cad>
          </ns3:TrackPointExtension>
        </extensions>
      </trkpt>
      <trkpt lat="37.77928487397730350494384765625" lon="-107.70175212062895298004150390625">
        <ele>3899.60009765625</ele>
        <time>2023-07-29T15:55:37.000Z</time>
        <extensions>
          <ns3:TrackPointExtension>
            <ns3:hr>96</ns3:hr>
            <ns3:cad>0</ns3:cad>
          </ns3:TrackPointExtension>
        </extensions>
      </trkpt>
      <trkpt lat="37.7792970277369022369384765625" lon="-107.70176075398921966552734375">
        <ele>3899.60009765625</ele>
        <time>2023-07-29T15:55:38.000Z</time>
        <extensions>
          <ns3:TrackPointExtension>
            <ns3:hr>96</ns3:hr>
            <ns3:cad>0</ns3:cad>
          </ns3:TrackPointExtension>
        </extensions>
      </trkpt>
      <trkpt lat="37.77930088341236114501953125" lon="-107.70176720805466175079345703125">
        <ele>3899.39990234375</ele>
        <time>2023-07-29T15:55:39.000Z</time>
        <extensions>
          <ns3:TrackPointExtension>
            <ns3:hr>96</ns3:hr>
            <ns3:cad>0</ns3:cad>
          </ns3:TrackPointExtension>
        </extensions>
      </trkpt>
      <trkpt lat="37.779302895069122314453125" lon="-107.70177156664431095123291015625">
        <ele>3899.199951171875</ele>
        <time>2023-07-29T15:55:40.000Z</time>
        <extensions>
          <ns3:TrackPointExtension>
            <ns3:hr>96</ns3:hr>
            <ns3:cad>0</ns3:cad>
          </ns3:TrackPointExtension>
        </extensions>
      </trkpt>
      <trkpt lat="37.77930515818297863006591796875" lon="-107.7017786912620067596435546875">
        <ele>3898.800048828125</ele>
        <time>2023-07-29T15:55:41.000Z</time>
        <extensions>
          <ns3:TrackPointExtension>
            <ns3:hr>95</ns3:hr>
            <ns3:cad>0</ns3:cad>
          </ns3:TrackPointExtension>
        </extensions>
      </trkpt>
      <trkpt lat="37.77930901385843753814697265625" lon="-107.7017840556800365447998046875">
        <ele>3898.60009765625</ele>
        <time>2023-07-29T15:55:42.000Z</time>
        <extensions>
          <ns3:TrackPointExtension>
            <ns3:hr>96</ns3:hr>
            <ns3:cad>0</ns3:cad>
          </ns3:TrackPointExtension>
        </extensions>
      </trkpt>
      <trkpt lat="37.77931085787713527679443359375" lon="-107.7017869055271148681640625">
        <ele>3898.39990234375</ele>
        <time>2023-07-29T15:55:43.000Z</time>
        <extensions>
          <ns3:TrackPointExtension>
            <ns3:hr>96</ns3:hr>
            <ns3:cad>45</ns3:cad>
          </ns3:TrackPointExtension>
        </extensions>
      </trkpt>
      <trkpt lat="37.77931789867579936981201171875" lon="-107.7017921023070812225341796875">
        <ele>3898.199951171875</ele>
        <time>2023-07-29T15:55:44.000Z</time>
        <extensions>
          <ns3:TrackPointExtension>
            <ns3:hr>95</ns3:hr>
            <ns3:cad>45</ns3:cad>
          </ns3:TrackPointExtension>
        </extensions>
      </trkpt>
      <trkpt lat="37.7793261967599391937255859375" lon="-107.70180073566734790802001953125">
        <ele>3898</ele>
        <time>2023-07-29T15:55:45.000Z</time>
        <extensions>
          <ns3:TrackPointExtension>
            <ns3:hr>95</ns3:hr>
            <ns3:cad>0</ns3:cad>
          </ns3:TrackPointExtension>
        </extensions>
      </trkpt>
      <trkpt lat="37.779335081577301025390625" lon="-107.7018065191805362701416015625">
        <ele>3897.800048828125</ele>
        <time>2023-07-29T15:55:46.000Z</time>
        <extensions>
          <ns3:TrackPointExtension>
            <ns3:hr>95</ns3:hr>
            <ns3:cad>0</ns3:cad>
          </ns3:TrackPointExtension>
        </extensions>
      </trkpt>
      <trkpt lat="37.779343128204345703125" lon="-107.7018108777701854705810546875">
        <ele>3897.60009765625</ele>
        <time>2023-07-29T15:55:47.000Z</time>
        <extensions>
          <ns3:TrackPointExtension>
            <ns3:hr>95</ns3:hr>
            <ns3:cad>0</ns3:cad>
          </ns3:TrackPointExtension>
        </extensions>
      </trkpt>
      <trkpt lat="37.779348157346248626708984375" lon="-107.70181238651275634765625">
        <ele>3897.60009765625</ele>
        <time>2023-07-29T15:55:48.000Z</time>
        <extensions>
          <ns3:TrackPointExtension>
            <ns3:hr>95</ns3:hr>
            <ns3:cad>0</ns3:cad>
          </ns3:TrackPointExtension>
        </extensions>
      </trkpt>
      <trkpt lat="37.77935561724007129669189453125" lon="-107.70181213505566120147705078125">
        <ele>3897.39990234375</ele>
        <time>2023-07-29T15:55:49.000Z</time>
        <extensions>
          <ns3:TrackPointExtension>
            <ns3:hr>94</ns3:hr>
            <ns3:cad>0</ns3:cad>
          </ns3:TrackPointExtension>
        </extensions>
      </trkpt>
      <trkpt lat="37.7793637476861476898193359375" lon="-107.70181615836918354034423828125">
        <ele>3897.199951171875</ele>
        <time>2023-07-29T15:55:50.000Z</time>
        <extensions>
          <ns3:TrackPointExtension>
            <ns3:hr>94</ns3:hr>
            <ns3:cad>0</ns3:cad>
          </ns3:TrackPointExtension>
        </extensions>
      </trkpt>
      <trkpt lat="37.7793697826564311981201171875" lon="-107.70181976258754730224609375">
        <ele>3897.199951171875</ele>
        <time>2023-07-29T15:55:51.000Z</time>
        <extensions>
          <ns3:TrackPointExtension>
            <ns3:hr>93</ns3:hr>
            <ns3:cad>0</ns3:cad>
          </ns3:TrackPointExtension>
        </extensions>
      </trkpt>
      <trkpt lat="37.77937405742704868316650390625" lon="-107.70182152278721332550048828125">
        <ele>3896.800048828125</ele>
        <time>2023-07-29T15:55:52.000Z</time>
        <extensions>
          <ns3:TrackPointExtension>
            <ns3:hr>93</ns3:hr>
            <ns3:cad>0</ns3:cad>
          </ns3:TrackPointExtension>
        </extensions>
      </trkpt>
      <trkpt lat="37.7793721295893192291259765625" lon="-107.70182252861559391021728515625">
        <ele>3896.60009765625</ele>
        <time>2023-07-29T15:55:53.000Z</time>
        <extensions>
          <ns3:TrackPointExtension>
            <ns3:hr>93</ns3:hr>
            <ns3:cad>0</ns3:cad>
          </ns3:TrackPointExtension>
        </extensions>
      </trkpt>
      <trkpt lat="37.7793766558170318603515625" lon="-107.70182688720524311065673828125">
        <ele>3896.39990234375</ele>
        <time>2023-07-29T15:55:54.000Z</time>
        <extensions>
          <ns3:TrackPointExtension>
            <ns3:hr>93</ns3:hr>
            <ns3:cad>0</ns3:cad>
          </ns3:TrackPointExtension>
        </extensions>
      </trkpt>
      <trkpt lat="37.77938227169215679168701171875" lon="-107.70183392800390720367431640625">
        <ele>3896.199951171875</ele>
        <time>2023-07-29T15:55:55.000Z</time>
        <extensions>
          <ns3:TrackPointExtension>
            <ns3:hr>93</ns3:hr>
            <ns3:cad>0</ns3:cad>
          </ns3:TrackPointExtension>
        </extensions>
      </trkpt>
      <trkpt lat="37.7793898992240428924560546875" lon="-107.701841890811920166015625">
        <ele>3896</ele>
        <time>2023-07-29T15:55:56.000Z</time>
        <extensions>
          <ns3:TrackPointExtension>
            <ns3:hr>93</ns3:hr>
            <ns3:cad>0</ns3:cad>
          </ns3:TrackPointExtension>
        </extensions>
      </trkpt>
      <trkpt lat="37.77940146625041961669921875" lon="-107.701852954924106597900390625">
        <ele>3895.800048828125</ele>
        <time>2023-07-29T15:55:57.000Z</time>
        <extensions>
          <ns3:TrackPointExtension>
            <ns3:hr>94</ns3:hr>
            <ns3:cad>0</ns3:cad>
          </ns3:TrackPointExtension>
        </extensions>
      </trkpt>
      <trkpt lat="37.779408507049083709716796875" lon="-107.70185924135148525238037109375">
        <ele>3895.60009765625</ele>
        <time>2023-07-29T15:55:58.000Z</time>
        <extensions>
          <ns3:TrackPointExtension>
            <ns3:hr>94</ns3:hr>
            <ns3:cad>0</ns3:cad>
          </ns3:TrackPointExtension>
        </extensions>
      </trkpt>
      <trkpt lat="37.77941714040935039520263671875" lon="-107.70186963491141796112060546875">
        <ele>3895.39990234375</ele>
        <time>2023-07-29T15:55:59.000Z</time>
        <extensions>
          <ns3:TrackPointExtension>
            <ns3:hr>94</ns3:hr>
            <ns3:cad>0</ns3:cad>
          </ns3:TrackPointExtension>
        </extensions>
      </trkpt>
      <trkpt lat="37.7794224210083484649658203125" lon="-107.70187801681458950042724609375">
        <ele>3895.39990234375</ele>
        <time>2023-07-29T15:56:00.000Z</time>
        <extensions>
          <ns3:TrackPointExtension>
            <ns3:hr>94</ns3:hr>
            <ns3:cad>0</ns3:cad>
          </ns3:TrackPointExtension>
        </extensions>
      </trkpt>
      <trkpt lat="37.77942300774157047271728515625" lon="-107.7018807828426361083984375">
        <ele>3895.199951171875</ele>
        <time>2023-07-29T15:56:01.000Z</time>
        <extensions>
          <ns3:TrackPointExtension>
            <ns3:hr>94</ns3:hr>
            <ns3:cad>0</ns3:cad>
          </ns3:TrackPointExtension>
        </extensions>
      </trkpt>
      <trkpt lat="37.77942803688347339630126953125" lon="-107.70189310424029827117919921875">
        <ele>3895</ele>
        <time>2023-07-29T15:56:02.000Z</time>
        <extensions>
          <ns3:TrackPointExtension>
            <ns3:hr>94</ns3:hr>
            <ns3:cad>0</ns3:cad>
          </ns3:TrackPointExtension>
        </extensions>
      </trkpt>
      <trkpt lat="37.7794277854263782501220703125" lon="-107.70189830102026462554931640625">
        <ele>3894.800048828125</ele>
        <time>2023-07-29T15:56:03.000Z</time>
        <extensions>
          <ns3:TrackPointExtension>
            <ns3:hr>94</ns3:hr>
            <ns3:cad>0</ns3:cad>
          </ns3:TrackPointExtension>
        </extensions>
      </trkpt>
      <trkpt lat="37.7794329822063446044921875" lon="-107.70190718583762645721435546875">
        <ele>3894.39990234375</ele>
        <time>2023-07-29T15:56:04.000Z</time>
        <extensions>
          <ns3:TrackPointExtension>
            <ns3:hr>95</ns3:hr>
            <ns3:cad>0</ns3:cad>
          </ns3:TrackPointExtension>
        </extensions>
      </trkpt>
      <trkpt lat="37.7794383466243743896484375" lon="-107.70190936513245105743408203125">
        <ele>3894.199951171875</ele>
        <time>2023-07-29T15:56:05.000Z</time>
        <extensions>
          <ns3:TrackPointExtension>
            <ns3:hr>95</ns3:hr>
            <ns3:cad>0</ns3:cad>
          </ns3:TrackPointExtension>
        </extensions>
      </trkpt>
      <trkpt lat="37.77944463305175304412841796875" lon="-107.70191523246467113494873046875">
        <ele>3894.199951171875</ele>
        <time>2023-07-29T15:56:06.000Z</time>
        <extensions>
          <ns3:TrackPointExtension>
            <ns3:hr>95</ns3:hr>
            <ns3:cad>0</ns3:cad>
          </ns3:TrackPointExtension>
        </extensions>
      </trkpt>
      <trkpt lat="37.77945267967879772186279296875" lon="-107.70191992633044719696044921875">
        <ele>3894</ele>
        <time>2023-07-29T15:56:07.000Z</time>
        <extensions>
          <ns3:TrackPointExtension>
            <ns3:hr>95</ns3:hr>
            <ns3:cad>0</ns3:cad>
          </ns3:TrackPointExtension>
        </extensions>
      </trkpt>
      <trkpt lat="37.7794623188674449920654296875" lon="-107.70193199627101421356201171875">
        <ele>3893.800048828125</ele>
        <time>2023-07-29T15:56:08.000Z</time>
        <extensions>
          <ns3:TrackPointExtension>
            <ns3:hr>95</ns3:hr>
            <ns3:cad>0</ns3:cad>
          </ns3:TrackPointExtension>
        </extensions>
      </trkpt>
      <trkpt lat="37.77947346679866313934326171875" lon="-107.701942808926105499267578125">
        <ele>3893.60009765625</ele>
        <time>2023-07-29T15:56:09.000Z</time>
        <extensions>
          <ns3:TrackPointExtension>
            <ns3:hr>95</ns3:hr>
            <ns3:cad>0</ns3:cad>
          </ns3:TrackPointExtension>
        </extensions>
      </trkpt>
      <trkpt lat="37.77948419563472270965576171875" lon="-107.70195160992443561553955078125">
        <ele>3893.60009765625</ele>
        <time>2023-07-29T15:56:10.000Z</time>
        <extensions>
          <ns3:TrackPointExtension>
            <ns3:hr>95</ns3:hr>
            <ns3:cad>0</ns3:cad>
          </ns3:TrackPointExtension>
        </extensions>
      </trkpt>
      <trkpt lat="37.7794914878904819488525390625" lon="-107.7019557170569896697998046875">
        <ele>3893.60009765625</ele>
        <time>2023-07-29T15:56:11.000Z</time>
        <extensions>
          <ns3:TrackPointExtension>
            <ns3:hr>95</ns3:hr>
            <ns3:cad>0</ns3:cad>
          </ns3:TrackPointExtension>
        </extensions>
      </trkpt>
      <trkpt lat="37.779499031603336334228515625" lon="-107.70196367986500263214111328125">
        <ele>3893.39990234375</ele>
        <time>2023-07-29T15:56:12.000Z</time>
        <extensions>
          <ns3:TrackPointExtension>
            <ns3:hr>96</ns3:hr>
            <ns3:cad>51</ns3:cad>
          </ns3:TrackPointExtension>
        </extensions>
      </trkpt>
      <trkpt lat="37.77950313873589038848876953125" lon="-107.7019694633781909942626953125">
        <ele>3893.39990234375</ele>
        <time>2023-07-29T15:56:13.000Z</time>
        <extensions>
          <ns3:TrackPointExtension>
            <ns3:hr>96</ns3:hr>
            <ns3:cad>51</ns3:cad>
          </ns3:TrackPointExtension>
        </extensions>
      </trkpt>
      <trkpt lat="37.779505066573619842529296875" lon="-107.7019718103110790252685546875">
        <ele>3893</ele>
        <time>2023-07-29T15:56:14.000Z</time>
        <extensions>
          <ns3:TrackPointExtension>
            <ns3:hr>97</ns3:hr>
            <ns3:cad>51</ns3:cad>
          </ns3:TrackPointExtension>
        </extensions>
      </trkpt>
      <trkpt lat="37.77950967662036418914794921875" lon="-107.70197667181491851806640625">
        <ele>3893</ele>
        <time>2023-07-29T15:56:15.000Z</time>
        <extensions>
          <ns3:TrackPointExtension>
            <ns3:hr>97</ns3:hr>
            <ns3:cad>0</ns3:cad>
          </ns3:TrackPointExtension>
        </extensions>
      </trkpt>
      <trkpt lat="37.77951286174356937408447265625" lon="-107.70198144949972629547119140625">
        <ele>3892.800048828125</ele>
        <time>2023-07-29T15:56:16.000Z</time>
        <extensions>
          <ns3:TrackPointExtension>
            <ns3:hr>97</ns3:hr>
            <ns3:cad>0</ns3:cad>
          </ns3:TrackPointExtension>
        </extensions>
      </trkpt>
      <trkpt lat="37.77952141128480434417724609375" lon="-107.701991088688373565673828125">
        <ele>3892.800048828125</ele>
        <time>2023-07-29T15:56:17.000Z</time>
        <extensions>
          <ns3:TrackPointExtension>
            <ns3:hr>97</ns3:hr>
            <ns3:cad>0</ns3:cad>
          </ns3:TrackPointExtension>
        </extensions>
      </trkpt>
      <trkpt lat="37.77953616343438625335693359375" lon="-107.70200860686600208282470703125">
        <ele>3892.60009765625</ele>
        <time>2023-07-29T15:56:18.000Z</time>
        <extensions>
          <ns3:TrackPointExtension>
            <ns3:hr>97</ns3:hr>
            <ns3:cad>0</ns3:cad>
          </ns3:TrackPointExtension>
        </extensions>
      </trkpt>
      <trkpt lat="37.77954362332820892333984375" lon="-107.70202201791107654571533203125">
        <ele>3892.60009765625</ele>
        <time>2023-07-29T15:56:19.000Z</time>
        <extensions>
          <ns3:TrackPointExtension>
            <ns3:hr>97</ns3:hr>
            <ns3:cad>0</ns3:cad>
          </ns3:TrackPointExtension>
        </extensions>
      </trkpt>
      <trkpt lat="37.77955259196460247039794921875" lon="-107.70203760825097560882568359375">
        <ele>3892.60009765625</ele>
        <time>2023-07-29T15:56:20.000Z</time>
        <extensions>
          <ns3:TrackPointExtension>
            <ns3:hr>97</ns3:hr>
            <ns3:cad>0</ns3:cad>
          </ns3:TrackPointExtension>
        </extensions>
      </trkpt>
      <trkpt lat="37.77956105768680572509765625" lon="-107.702049426734447479248046875">
        <ele>3892.60009765625</ele>
        <time>2023-07-29T15:56:21.000Z</time>
        <extensions>
          <ns3:TrackPointExtension>
            <ns3:hr>96</ns3:hr>
            <ns3:cad>0</ns3:cad>
          </ns3:TrackPointExtension>
        </extensions>
      </trkpt>
      <trkpt lat="37.77957287617027759552001953125" lon="-107.70206610672175884246826171875">
        <ele>3892.39990234375</ele>
        <time>2023-07-29T15:56:22.000Z</time>
        <extensions>
          <ns3:TrackPointExtension>
            <ns3:hr>96</ns3:hr>
            <ns3:cad>0</ns3:cad>
          </ns3:TrackPointExtension>
        </extensions>
      </trkpt>
      <trkpt lat="37.7795813418924808502197265625" lon="-107.70207591354846954345703125">
        <ele>3892.39990234375</ele>
        <time>2023-07-29T15:56:23.000Z</time>
        <extensions>
          <ns3:TrackPointExtension>
            <ns3:hr>95</ns3:hr>
            <ns3:cad>0</ns3:cad>
          </ns3:TrackPointExtension>
        </extensions>
      </trkpt>
      <trkpt lat="37.77958963997662067413330078125" lon="-107.7020871452987194061279296875">
        <ele>3892.199951171875</ele>
        <time>2023-07-29T15:56:24.000Z</time>
        <extensions>
          <ns3:TrackPointExtension>
            <ns3:hr>95</ns3:hr>
            <ns3:cad>0</ns3:cad>
          </ns3:TrackPointExtension>
        </extensions>
      </trkpt>
      <trkpt lat="37.77959500439465045928955078125" lon="-107.70209494046866893768310546875">
        <ele>3892</ele>
        <time>2023-07-29T15:56:25.000Z</time>
        <extensions>
          <ns3:TrackPointExtension>
            <ns3:hr>95</ns3:hr>
            <ns3:cad>0</ns3:cad>
          </ns3:TrackPointExtension>
        </extensions>
      </trkpt>
      <trkpt lat="37.77960489504039287567138671875" lon="-107.70210131071507930755615234375">
        <ele>3892</ele>
        <time>2023-07-29T15:56:26.000Z</time>
        <extensions>
          <ns3:TrackPointExtension>
            <ns3:hr>95</ns3:hr>
            <ns3:cad>0</ns3:cad>
          </ns3:TrackPointExtension>
        </extensions>
      </trkpt>
      <trkpt lat="37.77961612679064273834228515625" lon="-107.7021060883998870849609375">
        <ele>3892</ele>
        <time>2023-07-29T15:56:27.000Z</time>
        <extensions>
          <ns3:TrackPointExtension>
            <ns3:hr>96</ns3:hr>
            <ns3:cad>0</ns3:cad>
          </ns3:TrackPointExtension>
        </extensions>
      </trkpt>
      <trkpt lat="37.77962735854089260101318359375" lon="-107.70211338065564632415771484375">
        <ele>3892</ele>
        <time>2023-07-29T15:56:28.000Z</time>
        <extensions>
          <ns3:TrackPointExtension>
            <ns3:hr>98</ns3:hr>
            <ns3:cad>65</ns3:cad>
          </ns3:TrackPointExtension>
        </extensions>
      </trkpt>
      <trkpt lat="37.779633812606334686279296875" lon="-107.7021186612546443939208984375">
        <ele>3892.39990234375</ele>
        <time>2023-07-29T15:56:29.000Z</time>
        <extensions>
          <ns3:TrackPointExtension>
            <ns3:hr>97</ns3:hr>
            <ns3:cad>65</ns3:cad>
          </ns3:TrackPointExtension>
        </extensions>
      </trkpt>
      <trkpt lat="37.7796406857669353485107421875" lon="-107.70212193019688129425048828125">
        <ele>3892.39990234375</ele>
        <time>2023-07-29T15:56:30.000Z</time>
        <extensions>
          <ns3:TrackPointExtension>
            <ns3:hr>97</ns3:hr>
            <ns3:cad>65</ns3:cad>
          </ns3:TrackPointExtension>
        </extensions>
      </trkpt>
      <trkpt lat="37.7796448767185211181640625" lon="-107.70212511532008647918701171875">
        <ele>3892.39990234375</ele>
        <time>2023-07-29T15:56:31.000Z</time>
        <extensions>
          <ns3:TrackPointExtension>
            <ns3:hr>97</ns3:hr>
            <ns3:cad>65</ns3:cad>
          </ns3:TrackPointExtension>
        </extensions>
      </trkpt>
      <trkpt lat="37.77965468354523181915283203125" lon="-107.7021334134042263031005859375">
        <ele>3892.39990234375</ele>
        <time>2023-07-29T15:56:32.000Z</time>
        <extensions>
          <ns3:TrackPointExtension>
            <ns3:hr>97</ns3:hr>
            <ns3:cad>65</ns3:cad>
          </ns3:TrackPointExtension>
        </extensions>
      </trkpt>
      <trkpt lat="37.77966373600065708160400390625" lon="-107.7021417953073978424072265625">
        <ele>3892.39990234375</ele>
        <time>2023-07-29T15:56:33.000Z</time>
        <extensions>
          <ns3:TrackPointExtension>
            <ns3:hr>97</ns3:hr>
            <ns3:cad>65</ns3:cad>
          </ns3:TrackPointExtension>
        </extensions>
      </trkpt>
      <trkpt lat="37.7796748839318752288818359375" lon="-107.7021515183150768280029296875">
        <ele>3892.199951171875</ele>
        <time>2023-07-29T15:56:34.000Z</time>
        <extensions>
          <ns3:TrackPointExtension>
            <ns3:hr>97</ns3:hr>
            <ns3:cad>65</ns3:cad>
          </ns3:TrackPointExtension>
        </extensions>
      </trkpt>
      <trkpt lat="37.7796809189021587371826171875" lon="-107.70215772092342376708984375">
        <ele>3892.199951171875</ele>
        <time>2023-07-29T15:56:35.000Z</time>
        <extensions>
          <ns3:TrackPointExtension>
            <ns3:hr>98</ns3:hr>
            <ns3:cad>65</ns3:cad>
          </ns3:TrackPointExtension>
        </extensions>
      </trkpt>
      <trkpt lat="37.77968619950115680694580078125" lon="-107.7021629177033901214599609375">
        <ele>3892.199951171875</ele>
        <time>2023-07-29T15:56:36.000Z</time>
        <extensions>
          <ns3:TrackPointExtension>
            <ns3:hr>98</ns3:hr>
            <ns3:cad>65</ns3:cad>
          </ns3:TrackPointExtension>
        </extensions>
      </trkpt>
      <trkpt lat="37.77969977818429470062255859375" lon="-107.70217305980622768402099609375">
        <ele>3892.199951171875</ele>
        <time>2023-07-29T15:56:37.000Z</time>
        <extensions>
          <ns3:TrackPointExtension>
            <ns3:hr>98</ns3:hr>
            <ns3:cad>65</ns3:cad>
          </ns3:TrackPointExtension>
        </extensions>
      </trkpt>
      <trkpt lat="37.77970816008746623992919921875" lon="-107.70217976532876491546630859375">
        <ele>3892.199951171875</ele>
        <time>2023-07-29T15:56:38.000Z</time>
        <extensions>
          <ns3:TrackPointExtension>
            <ns3:hr>98</ns3:hr>
            <ns3:cad>65</ns3:cad>
          </ns3:TrackPointExtension>
        </extensions>
      </trkpt>
      <trkpt lat="37.7797171287238597869873046875" lon="-107.70218563266098499298095703125">
        <ele>3892.199951171875</ele>
        <time>2023-07-29T15:56:39.000Z</time>
        <extensions>
          <ns3:TrackPointExtension>
            <ns3:hr>99</ns3:hr>
            <ns3:cad>0</ns3:cad>
          </ns3:TrackPointExtension>
        </extensions>
      </trkpt>
      <trkpt lat="37.77972676791250705718994140625" lon="-107.7021914161741733551025390625">
        <ele>3892.199951171875</ele>
        <time>2023-07-29T15:56:40.000Z</time>
        <extensions>
          <ns3:TrackPointExtension>
            <ns3:hr>99</ns3:hr>
            <ns3:cad>0</ns3:cad>
          </ns3:TrackPointExtension>
        </extensions>
      </trkpt>
      <trkpt lat="37.77973632328212261199951171875" lon="-107.70219661295413970947265625">
        <ele>3892.199951171875</ele>
        <time>2023-07-29T15:56:41.000Z</time>
        <extensions>
          <ns3:TrackPointExtension>
            <ns3:hr>99</ns3:hr>
            <ns3:cad>0</ns3:cad>
          </ns3:TrackPointExtension>
        </extensions>
      </trkpt>
      <trkpt lat="37.779742777347564697265625" lon="-107.70219527184963226318359375">
        <ele>3892.199951171875</ele>
        <time>2023-07-29T15:56:42.000Z</time>
        <extensions>
          <ns3:TrackPointExtension>
            <ns3:hr>99</ns3:hr>
            <ns3:cad>0</ns3:cad>
          </ns3:TrackPointExtension>
        </extensions>
      </trkpt>
      <trkpt lat="37.77975342236459255218505859375" lon="-107.70220323465764522552490234375">
        <ele>3892.199951171875</ele>
        <time>2023-07-29T15:56:43.000Z</time>
        <extensions>
          <ns3:TrackPointExtension>
            <ns3:hr>99</ns3:hr>
            <ns3:cad>17</ns3:cad>
          </ns3:TrackPointExtension>
        </extensions>
      </trkpt>
      <trkpt lat="37.7797580324113368988037109375" lon="-107.70220591686666011810302734375">
        <ele>3892.199951171875</ele>
        <time>2023-07-29T15:56:44.000Z</time>
        <extensions>
          <ns3:TrackPointExtension>
            <ns3:hr>99</ns3:hr>
            <ns3:cad>51</ns3:cad>
          </ns3:TrackPointExtension>
        </extensions>
      </trkpt>
      <trkpt lat="37.77976264245808124542236328125" lon="-107.70221128128468990325927734375">
        <ele>3892</ele>
        <time>2023-07-29T15:56:45.000Z</time>
        <extensions>
          <ns3:TrackPointExtension>
            <ns3:hr>100</ns3:hr>
            <ns3:cad>51</ns3:cad>
          </ns3:TrackPointExtension>
        </extensions>
      </trkpt>
      <trkpt lat="37.779770605266094207763671875" lon="-107.7022175677120685577392578125">
        <ele>3891.800048828125</ele>
        <time>2023-07-29T15:56:46.000Z</time>
        <extensions>
          <ns3:TrackPointExtension>
            <ns3:hr>100</ns3:hr>
            <ns3:cad>51</ns3:cad>
          </ns3:TrackPointExtension>
        </extensions>
      </trkpt>
      <trkpt lat="37.77978041209280490875244140625" lon="-107.70222452469170093536376953125">
        <ele>3891.800048828125</ele>
        <time>2023-07-29T15:56:47.000Z</time>
        <extensions>
          <ns3:TrackPointExtension>
            <ns3:hr>100</ns3:hr>
            <ns3:cad>51</ns3:cad>
          </ns3:TrackPointExtension>
        </extensions>
      </trkpt>
      <trkpt lat="37.7797895483672618865966796875" lon="-107.70223408006131649017333984375">
        <ele>3891.800048828125</ele>
        <time>2023-07-29T15:56:48.000Z</time>
        <extensions>
          <ns3:TrackPointExtension>
            <ns3:hr>100</ns3:hr>
            <ns3:cad>51</ns3:cad>
          </ns3:TrackPointExtension>
        </extensions>
      </trkpt>
      <trkpt lat="37.7797962538897991180419921875" lon="-107.70224212668836116790771484375">
        <ele>3891.60009765625</ele>
        <time>2023-07-29T15:56:49.000Z</time>
        <extensions>
          <ns3:TrackPointExtension>
            <ns3:hr>100</ns3:hr>
            <ns3:cad>51</ns3:cad>
          </ns3:TrackPointExtension>
        </extensions>
      </trkpt>
      <trkpt lat="37.77980136685073375701904296875" lon="-107.702247910201549530029296875">
        <ele>3891.60009765625</ele>
        <time>2023-07-29T15:56:50.000Z</time>
        <extensions>
          <ns3:TrackPointExtension>
            <ns3:hr>100</ns3:hr>
            <ns3:cad>51</ns3:cad>
          </ns3:TrackPointExtension>
        </extensions>
      </trkpt>
      <trkpt lat="37.77980656363070011138916015625" lon="-107.7022521011531352996826171875">
        <ele>3891.60009765625</ele>
        <time>2023-07-29T15:56:51.000Z</time>
        <extensions>
          <ns3:TrackPointExtension>
            <ns3:hr>100</ns3:hr>
            <ns3:cad>51</ns3:cad>
          </ns3:TrackPointExtension>
        </extensions>
      </trkpt>
      <trkpt lat="37.7798138558864593505859375" lon="-107.70225989632308483123779296875">
        <ele>3891.39990234375</ele>
        <time>2023-07-29T15:56:52.000Z</time>
        <extensions>
          <ns3:TrackPointExtension>
            <ns3:hr>100</ns3:hr>
            <ns3:cad>51</ns3:cad>
          </ns3:TrackPointExtension>
        </extensions>
      </trkpt>
      <trkpt lat="37.77981980703771114349365234375" lon="-107.7022671885788440704345703125">
        <ele>3891.199951171875</ele>
        <time>2023-07-29T15:56:53.000Z</time>
        <extensions>
          <ns3:TrackPointExtension>
            <ns3:hr>100</ns3:hr>
            <ns3:cad>49</ns3:cad>
          </ns3:TrackPointExtension>
        </extensions>
      </trkpt>
      <trkpt lat="37.7798257581889629364013671875" lon="-107.70227649249136447906494140625">
        <ele>3891.199951171875</ele>
        <time>2023-07-29T15:56:54.000Z</time>
        <extensions>
          <ns3:TrackPointExtension>
            <ns3:hr>101</ns3:hr>
            <ns3:cad>49</ns3:cad>
          </ns3:TrackPointExtension>
        </extensions>
      </trkpt>
      <trkpt lat="37.7798388339579105377197265625" lon="-107.7022889815270900726318359375">
        <ele>3890.800048828125</ele>
        <time>2023-07-29T15:56:55.000Z</time>
        <extensions>
          <ns3:TrackPointExtension>
            <ns3:hr>101</ns3:hr>
            <ns3:cad>49</ns3:cad>
          </ns3:TrackPointExtension>
        </extensions>
      </trkpt>
      <trkpt lat="37.77984931133687496185302734375" lon="-107.70230063237249851226806640625">
        <ele>3890.800048828125</ele>
        <time>2023-07-29T15:56:56.000Z</time>
        <extensions>
          <ns3:TrackPointExtension>
            <ns3:hr>101</ns3:hr>
            <ns3:cad>49</ns3:cad>
          </ns3:TrackPointExtension>
        </extensions>
      </trkpt>
      <trkpt lat="37.779856435954570770263671875" lon="-107.7023072540760040283203125">
        <ele>3890.60009765625</ele>
        <time>2023-07-29T15:56:57.000Z</time>
        <extensions>
          <ns3:TrackPointExtension>
            <ns3:hr>102</ns3:hr>
            <ns3:cad>49</ns3:cad>
          </ns3:TrackPointExtension>
        </extensions>
      </trkpt>
      <trkpt lat="37.77986322529613971710205078125" lon="-107.7023112773895263671875">
        <ele>3890.60009765625</ele>
        <time>2023-07-29T15:56:58.000Z</time>
        <extensions>
          <ns3:TrackPointExtension>
            <ns3:hr>102</ns3:hr>
            <ns3:cad>49</ns3:cad>
          </ns3:TrackPointExtension>
        </extensions>
      </trkpt>
      <trkpt lat="37.77987479232251644134521484375" lon="-107.70231731235980987548828125">
        <ele>3890.39990234375</ele>
        <time>2023-07-29T15:56:59.000Z</time>
        <extensions>
          <ns3:TrackPointExtension>
            <ns3:hr>101</ns3:hr>
            <ns3:cad>49</ns3:cad>
          </ns3:TrackPointExtension>
        </extensions>
      </trkpt>
      <trkpt lat="37.77988635934889316558837890625" lon="-107.7023225091397762298583984375">
        <ele>3890.39990234375</ele>
        <time>2023-07-29T15:57:00.000Z</time>
        <extensions>
          <ns3:TrackPointExtension>
            <ns3:hr>101</ns3:hr>
            <ns3:cad>49</ns3:cad>
          </ns3:TrackPointExtension>
        </extensions>
      </trkpt>
      <trkpt lat="37.77989708818495273590087890625" lon="-107.70232670009136199951171875">
        <ele>3890.199951171875</ele>
        <time>2023-07-29T15:57:01.000Z</time>
        <extensions>
          <ns3:TrackPointExtension>
            <ns3:hr>101</ns3:hr>
            <ns3:cad>49</ns3:cad>
          </ns3:TrackPointExtension>
        </extensions>
      </trkpt>
      <trkpt lat="37.77990815229713916778564453125" lon="-107.702331058681011199951171875">
        <ele>3890</ele>
        <time>2023-07-29T15:57:02.000Z</time>
        <extensions>
          <ns3:TrackPointExtension>
            <ns3:hr>101</ns3:hr>
            <ns3:cad>49</ns3:cad>
          </ns3:TrackPointExtension>
        </extensions>
      </trkpt>
      <trkpt lat="37.7799176238477230072021484375" lon="-107.702335417270660400390625">
        <ele>3889.800048828125</ele>
        <time>2023-07-29T15:57:03.000Z</time>
        <extensions>
          <ns3:TrackPointExtension>
            <ns3:hr>101</ns3:hr>
            <ns3:cad>49</ns3:cad>
          </ns3:TrackPointExtension>
        </extensions>
      </trkpt>
      <trkpt lat="37.7799273468554019927978515625" lon="-107.702339775860309600830078125">
        <ele>3889.60009765625</ele>
        <time>2023-07-29T15:57:04.000Z</time>
        <extensions>
          <ns3:TrackPointExtension>
            <ns3:hr>101</ns3:hr>
            <ns3:cad>49</ns3:cad>
          </ns3:TrackPointExtension>
        </extensions>
      </trkpt>
      <trkpt lat="37.779937572777271270751953125" lon="-107.7023436315357685089111328125">
        <ele>3889.199951171875</ele>
        <time>2023-07-29T15:57:05.000Z</time>
        <extensions>
          <ns3:TrackPointExtension>
            <ns3:hr>101</ns3:hr>
            <ns3:cad>56</ns3:cad>
          </ns3:TrackPointExtension>
        </extensions>
      </trkpt>
      <trkpt lat="37.77994461357593536376953125" lon="-107.7023479901254177093505859375">
        <ele>3889</ele>
        <time>2023-07-29T15:57:06.000Z</time>
        <extensions>
          <ns3:TrackPointExtension>
            <ns3:hr>102</ns3:hr>
            <ns3:cad>56</ns3:cad>
          </ns3:TrackPointExtension>
        </extensions>
      </trkpt>
      <trkpt lat="37.77995131909847259521484375" lon="-107.70234757103025913238525390625">
        <ele>3888.800048828125</ele>
        <time>2023-07-29T15:57:07.000Z</time>
        <extensions>
          <ns3:TrackPointExtension>
            <ns3:hr>102</ns3:hr>
            <ns3:cad>56</ns3:cad>
          </ns3:TrackPointExtension>
        </extensions>
      </trkpt>
      <trkpt lat="37.7799628861248493194580078125" lon="-107.7023530192673206329345703125">
        <ele>3888.60009765625</ele>
        <time>2023-07-29T15:57:08.000Z</time>
        <extensions>
          <ns3:TrackPointExtension>
            <ns3:hr>102</ns3:hr>
            <ns3:cad>56</ns3:cad>
          </ns3:TrackPointExtension>
        </extensions>
      </trkpt>
      <trkpt lat="37.7799756266176700592041015625" lon="-107.702361904084682464599609375">
        <ele>3888.60009765625</ele>
        <time>2023-07-29T15:57:09.000Z</time>
        <extensions>
          <ns3:TrackPointExtension>
            <ns3:hr>103</ns3:hr>
            <ns3:cad>56</ns3:cad>
          </ns3:TrackPointExtension>
        </extensions>
      </trkpt>
      <trkpt lat="37.779986858367919921875" lon="-107.70237238146364688873291015625">
        <ele>3888.39990234375</ele>
        <time>2023-07-29T15:57:10.000Z</time>
        <extensions>
          <ns3:TrackPointExtension>
            <ns3:hr>103</ns3:hr>
            <ns3:cad>56</ns3:cad>
          </ns3:TrackPointExtension>
        </extensions>
      </trkpt>
      <trkpt lat="37.77999959886074066162109375" lon="-107.70238327793776988983154296875">
        <ele>3888.199951171875</ele>
        <time>2023-07-29T15:57:11.000Z</time>
        <extensions>
          <ns3:TrackPointExtension>
            <ns3:hr>103</ns3:hr>
            <ns3:cad>0</ns3:cad>
          </ns3:TrackPointExtension>
        </extensions>
      </trkpt>
      <trkpt lat="37.78000907041132450103759765625" lon="-107.70239417441189289093017578125">
        <ele>3888</ele>
        <time>2023-07-29T15:57:12.000Z</time>
        <extensions>
          <ns3:TrackPointExtension>
            <ns3:hr>104</ns3:hr>
            <ns3:cad>0</ns3:cad>
          </ns3:TrackPointExtension>
        </extensions>
      </trkpt>
      <trkpt lat="37.78001845814287662506103515625" lon="-107.70240222103893756866455078125">
        <ele>3887.800048828125</ele>
        <time>2023-07-29T15:57:13.000Z</time>
        <extensions>
          <ns3:TrackPointExtension>
            <ns3:hr>104</ns3:hr>
            <ns3:cad>0</ns3:cad>
          </ns3:TrackPointExtension>
        </extensions>
      </trkpt>
      <trkpt lat="37.78003304265439510345458984375" lon="-107.70241479389369487762451171875">
        <ele>3887.39990234375</ele>
        <time>2023-07-29T15:57:14.000Z</time>
        <extensions>
          <ns3:TrackPointExtension>
            <ns3:hr>105</ns3:hr>
            <ns3:cad>0</ns3:cad>
          </ns3:TrackPointExtension>
        </extensions>
      </trkpt>
      <trkpt lat="37.78004259802401065826416015625" lon="-107.702422924339771270751953125">
        <ele>3887.39990234375</ele>
        <time>2023-07-29T15:57:15.000Z</time>
        <extensions>
          <ns3:TrackPointExtension>
            <ns3:hr>105</ns3:hr>
            <ns3:cad>0</ns3:cad>
          </ns3:TrackPointExtension>
        </extensions>
      </trkpt>
      <trkpt lat="37.7800570987164974212646484375" lon="-107.70243373699486255645751953125">
        <ele>3887.199951171875</ele>
        <time>2023-07-29T15:57:16.000Z</time>
        <extensions>
          <ns3:TrackPointExtension>
            <ns3:hr>105</ns3:hr>
            <ns3:cad>0</ns3:cad>
          </ns3:TrackPointExtension>
        </extensions>
      </trkpt>
      <trkpt lat="37.78006707318127155303955078125" lon="-107.7024388499557971954345703125">
        <ele>3887.199951171875</ele>
        <time>2023-07-29T15:57:17.000Z</time>
        <extensions>
          <ns3:TrackPointExtension>
            <ns3:hr>106</ns3:hr>
            <ns3:cad>0</ns3:cad>
          </ns3:TrackPointExtension>
        </extensions>
      </trkpt>
      <trkpt lat="37.78007344342768192291259765625" lon="-107.70244346000254154205322265625">
        <ele>3887</ele>
        <time>2023-07-29T15:57:18.000Z</time>
        <extensions>
          <ns3:TrackPointExtension>
            <ns3:hr>106</ns3:hr>
            <ns3:cad>55</ns3:cad>
          </ns3:TrackPointExtension>
        </extensions>
      </trkpt>
      <trkpt lat="37.7800785563886165618896484375" lon="-107.70244815386831760406494140625">
        <ele>3886.800048828125</ele>
        <time>2023-07-29T15:57:19.000Z</time>
        <extensions>
          <ns3:TrackPointExtension>
            <ns3:hr>106</ns3:hr>
            <ns3:cad>55</ns3:cad>
          </ns3:TrackPointExtension>
        </extensions>
      </trkpt>
      <trkpt lat="37.7800939790904521942138671875" lon="-107.70246173255145549774169921875">
        <ele>3886.800048828125</ele>
        <time>2023-07-29T15:57:20.000Z</time>
        <extensions>
          <ns3:TrackPointExtension>
            <ns3:hr>107</ns3:hr>
            <ns3:cad>55</ns3:cad>
          </ns3:TrackPointExtension>
        </extensions>
      </trkpt>
      <trkpt lat="37.7801023609936237335205078125" lon="-107.70246961154043674468994140625">
        <ele>3886.800048828125</ele>
        <time>2023-07-29T15:57:21.000Z</time>
        <extensions>
          <ns3:TrackPointExtension>
            <ns3:hr>107</ns3:hr>
            <ns3:cad>0</ns3:cad>
          </ns3:TrackPointExtension>
        </extensions>
      </trkpt>
      <trkpt lat="37.78010982088744640350341796875" lon="-107.70247614942491054534912109375">
        <ele>3886.60009765625</ele>
        <time>2023-07-29T15:57:22.000Z</time>
        <extensions>
          <ns3:TrackPointExtension>
            <ns3:hr>108</ns3:hr>
            <ns3:cad>0</ns3:cad>
          </ns3:TrackPointExtension>
        </extensions>
      </trkpt>
      <trkpt lat="37.780116610229015350341796875" lon="-107.70248184911906719207763671875">
        <ele>3886.60009765625</ele>
        <time>2023-07-29T15:57:23.000Z</time>
        <extensions>
          <ns3:TrackPointExtension>
            <ns3:hr>108</ns3:hr>
            <ns3:cad>53</ns3:cad>
          </ns3:TrackPointExtension>
        </extensions>
      </trkpt>
      <trkpt lat="37.7801328711211681365966796875" lon="-107.702491991221904754638671875">
        <ele>3886.60009765625</ele>
        <time>2023-07-29T15:57:24.000Z</time>
        <extensions>
          <ns3:TrackPointExtension>
            <ns3:hr>109</ns3:hr>
            <ns3:cad>53</ns3:cad>
          </ns3:TrackPointExtension>
        </extensions>
      </trkpt>
      <trkpt lat="37.78014971874654293060302734375" lon="-107.70250146277248859405517578125">
        <ele>3886.60009765625</ele>
        <time>2023-07-29T15:57:25.000Z</time>
        <extensions>
          <ns3:TrackPointExtension>
            <ns3:hr>109</ns3:hr>
            <ns3:cad>53</ns3:cad>
          </ns3:TrackPointExtension>
        </extensions>
      </trkpt>
      <trkpt lat="37.7801680751144886016845703125" lon="-107.70251420326530933380126953125">
        <ele>3886.39990234375</ele>
        <time>2023-07-29T15:57:26.000Z</time>
        <extensions>
          <ns3:TrackPointExtension>
            <ns3:hr>109</ns3:hr>
            <ns3:cad>0</ns3:cad>
          </ns3:TrackPointExtension>
        </extensions>
      </trkpt>
      <trkpt lat="37.7801824919879436492919921875" lon="-107.70252023823559284210205078125">
        <ele>3886.39990234375</ele>
        <time>2023-07-29T15:57:27.000Z</time>
        <extensions>
          <ns3:TrackPointExtension>
            <ns3:hr>109</ns3:hr>
            <ns3:cad>0</ns3:cad>
          </ns3:TrackPointExtension>
        </extensions>
      </trkpt>
      <trkpt lat="37.78019397519528865814208984375" lon="-107.70252761431038379669189453125">
        <ele>3886.199951171875</ele>
        <time>2023-07-29T15:57:28.000Z</time>
        <extensions>
          <ns3:TrackPointExtension>
            <ns3:hr>109</ns3:hr>
            <ns3:cad>0</ns3:cad>
          </ns3:TrackPointExtension>
        </extensions>
      </trkpt>
      <trkpt lat="37.78020881116390228271484375" lon="-107.702532894909381866455078125">
        <ele>3886.199951171875</ele>
        <time>2023-07-29T15:57:29.000Z</time>
        <extensions>
          <ns3:TrackPointExtension>
            <ns3:hr>109</ns3:hr>
            <ns3:cad>0</ns3:cad>
          </ns3:TrackPointExtension>
        </extensions>
      </trkpt>
      <trkpt lat="37.7802173607051372528076171875" lon="-107.702538929879665374755859375">
        <ele>3886.199951171875</ele>
        <time>2023-07-29T15:57:30.000Z</time>
        <extensions>
          <ns3:TrackPointExtension>
            <ns3:hr>109</ns3:hr>
            <ns3:cad>0</ns3:cad>
          </ns3:TrackPointExtension>
        </extensions>
      </trkpt>
      <trkpt lat="37.78023119084537029266357421875" lon="-107.70254454575479030609130859375">
        <ele>3886</ele>
        <time>2023-07-29T15:57:31.000Z</time>
        <extensions>
          <ns3:TrackPointExtension>
            <ns3:hr>109</ns3:hr>
            <ns3:cad>0</ns3:cad>
          </ns3:TrackPointExtension>
        </extensions>
      </trkpt>
      <trkpt lat="37.78023169375956058502197265625" lon="-107.702546305954456329345703125">
        <ele>3886</ele>
        <time>2023-07-29T15:57:32.000Z</time>
        <extensions>
          <ns3:TrackPointExtension>
            <ns3:hr>109</ns3:hr>
            <ns3:cad>56</ns3:cad>
          </ns3:TrackPointExtension>
        </extensions>
      </trkpt>
      <trkpt lat="37.78024560771882534027099609375" lon="-107.70255309529602527618408203125">
        <ele>3885.800048828125</ele>
        <time>2023-07-29T15:57:33.000Z</time>
        <extensions>
          <ns3:TrackPointExtension>
            <ns3:hr>109</ns3:hr>
            <ns3:cad>56</ns3:cad>
          </ns3:TrackPointExtension>
        </extensions>
      </trkpt>
      <trkpt lat="37.78025851584970951080322265625" lon="-107.70255913026630878448486328125">
        <ele>3885.60009765625</ele>
        <time>2023-07-29T15:57:34.000Z</time>
        <extensions>
          <ns3:TrackPointExtension>
            <ns3:hr>109</ns3:hr>
            <ns3:cad>56</ns3:cad>
          </ns3:TrackPointExtension>
        </extensions>
      </trkpt>
      <trkpt lat="37.780273854732513427734375" lon="-107.7025672607123851776123046875">
        <ele>3885.39990234375</ele>
        <time>2023-07-29T15:57:35.000Z</time>
        <extensions>
          <ns3:TrackPointExtension>
            <ns3:hr>109</ns3:hr>
            <ns3:cad>60</ns3:cad>
          </ns3:TrackPointExtension>
        </extensions>
      </trkpt>
      <trkpt lat="37.780286930501461029052734375" lon="-107.70257622934877872467041015625">
        <ele>3885.39990234375</ele>
        <time>2023-07-29T15:57:36.000Z</time>
        <extensions>
          <ns3:TrackPointExtension>
            <ns3:hr>108</ns3:hr>
            <ns3:cad>60</ns3:cad>
          </ns3:TrackPointExtension>
        </extensions>
      </trkpt>
      <trkpt lat="37.78030847199261188507080078125" lon="-107.70259114913642406463623046875">
        <ele>3885.199951171875</ele>
        <time>2023-07-29T15:57:37.000Z</time>
        <extensions>
          <ns3:TrackPointExtension>
            <ns3:hr>108</ns3:hr>
            <ns3:cad>60</ns3:cad>
          </ns3:TrackPointExtension>
        </extensions>
      </trkpt>
      <trkpt lat="37.78031970374286174774169921875" lon="-107.7025997824966907501220703125">
        <ele>3885.199951171875</ele>
        <time>2023-07-29T15:57:38.000Z</time>
        <extensions>
          <ns3:TrackPointExtension>
            <ns3:hr>108</ns3:hr>
            <ns3:cad>60</ns3:cad>
          </ns3:TrackPointExtension>
        </extensions>
      </trkpt>
      <trkpt lat="37.78033613227307796478271484375" lon="-107.702612690627574920654296875">
        <ele>3885.199951171875</ele>
        <time>2023-07-29T15:57:39.000Z</time>
        <extensions>
          <ns3:TrackPointExtension>
            <ns3:hr>107</ns3:hr>
            <ns3:cad>60</ns3:cad>
          </ns3:TrackPointExtension>
        </extensions>
      </trkpt>
      <trkpt lat="37.78034501709043979644775390625" lon="-107.70261797122657299041748046875">
        <ele>3885.199951171875</ele>
        <time>2023-07-29T15:57:40.000Z</time>
        <extensions>
          <ns3:TrackPointExtension>
            <ns3:hr>107</ns3:hr>
            <ns3:cad>60</ns3:cad>
          </ns3:TrackPointExtension>
        </extensions>
      </trkpt>
      <trkpt lat="37.78035004623234272003173828125" lon="-107.70262216217815876007080078125">
        <ele>3885.199951171875</ele>
        <time>2023-07-29T15:57:41.000Z</time>
        <extensions>
          <ns3:TrackPointExtension>
            <ns3:hr>106</ns3:hr>
            <ns3:cad>53</ns3:cad>
          </ns3:TrackPointExtension>
        </extensions>
      </trkpt>
      <trkpt lat="37.7803544886410236358642578125" lon="-107.70262652076780796051025390625">
        <ele>3885.199951171875</ele>
        <time>2023-07-29T15:57:42.000Z</time>
        <extensions>
          <ns3:TrackPointExtension>
            <ns3:hr>106</ns3:hr>
            <ns3:cad>0</ns3:cad>
          </ns3:TrackPointExtension>
        </extensions>
      </trkpt>
      <trkpt lat="37.7803635410964488983154296875" lon="-107.70263121463358402252197265625">
        <ele>3885.60009765625</ele>
        <time>2023-07-29T15:57:43.000Z</time>
        <extensions>
          <ns3:TrackPointExtension>
            <ns3:hr>106</ns3:hr>
            <ns3:cad>0</ns3:cad>
          </ns3:TrackPointExtension>
        </extensions>
      </trkpt>
      <trkpt lat="37.780380137264728546142578125" lon="-107.70264144055545330047607421875">
        <ele>3885.800048828125</ele>
        <time>2023-07-29T15:57:44.000Z</time>
        <extensions>
          <ns3:TrackPointExtension>
            <ns3:hr>106</ns3:hr>
            <ns3:cad>60</ns3:cad>
          </ns3:TrackPointExtension>
        </extensions>
      </trkpt>
      <trkpt lat="37.7803920395672321319580078125" lon="-107.702648229897022247314453125">
        <ele>3886</ele>
        <time>2023-07-29T15:57:45.000Z</time>
        <extensions>
          <ns3:TrackPointExtension>
            <ns3:hr>106</ns3:hr>
            <ns3:cad>60</ns3:cad>
          </ns3:TrackPointExtension>
        </extensions>
      </trkpt>
      <trkpt lat="37.7804037742316722869873046875" lon="-107.70265082828700542449951171875">
        <ele>3886.199951171875</ele>
        <time>2023-07-29T15:57:46.000Z</time>
        <extensions>
          <ns3:TrackPointExtension>
            <ns3:hr>106</ns3:hr>
            <ns3:cad>60</ns3:cad>
          </ns3:TrackPointExtension>
        </extensions>
      </trkpt>
      <trkpt lat="37.78040989302098751068115234375" lon="-107.702651582658290863037109375">
        <ele>3886.60009765625</ele>
        <time>2023-07-29T15:57:47.000Z</time>
        <extensions>
          <ns3:TrackPointExtension>
            <ns3:hr>107</ns3:hr>
            <ns3:cad>0</ns3:cad>
          </ns3:TrackPointExtension>
        </extensions>
      </trkpt>
      <trkpt lat="37.780409641563892364501953125" lon="-107.7026477269828319549560546875">
        <ele>3886.60009765625</ele>
        <time>2023-07-29T15:57:48.000Z</time>
        <extensions>
          <ns3:TrackPointExtension>
            <ns3:hr>108</ns3:hr>
            <ns3:cad>0</ns3:cad>
          </ns3:TrackPointExtension>
        </extensions>
      </trkpt>
      <trkpt lat="37.7804215438663959503173828125" lon="-107.70264697261154651641845703125">
        <ele>3887</ele>
        <time>2023-07-29T15:57:49.000Z</time>
        <extensions>
          <ns3:TrackPointExtension>
            <ns3:hr>108</ns3:hr>
            <ns3:cad>0</ns3:cad>
          </ns3:TrackPointExtension>
        </extensions>
      </trkpt>
      <trkpt lat="37.78043135069310665130615234375" lon="-107.70264747552573680877685546875">
        <ele>3887.199951171875</ele>
        <time>2023-07-29T15:57:50.000Z</time>
        <extensions>
          <ns3:TrackPointExtension>
            <ns3:hr>109</ns3:hr>
            <ns3:cad>0</ns3:cad>
          </ns3:TrackPointExtension>
        </extensions>
      </trkpt>
      <trkpt lat="37.78044073842465877532958984375" lon="-107.702644206583499908447265625">
        <ele>3887.39990234375</ele>
        <time>2023-07-29T15:57:51.000Z</time>
        <extensions>
          <ns3:TrackPointExtension>
            <ns3:hr>111</ns3:hr>
            <ns3:cad>51</ns3:cad>
          </ns3:TrackPointExtension>
        </extensions>
      </trkpt>
      <trkpt lat="37.7804470248520374298095703125" lon="-107.70264110527932643890380859375">
        <ele>3887.60009765625</ele>
        <time>2023-07-29T15:57:52.000Z</time>
        <extensions>
          <ns3:TrackPointExtension>
            <ns3:hr>112</ns3:hr>
            <ns3:cad>51</ns3:cad>
          </ns3:TrackPointExtension>
        </extensions>
      </trkpt>
      <trkpt lat="37.7804549038410186767578125" lon="-107.7026426978409290313720703125">
        <ele>3887.60009765625</ele>
        <time>2023-07-29T15:57:53.000Z</time>
        <extensions>
          <ns3:TrackPointExtension>
            <ns3:hr>112</ns3:hr>
            <ns3:cad>51</ns3:cad>
          </ns3:TrackPointExtension>
        </extensions>
      </trkpt>
      <trkpt lat="37.78046437539160251617431640625" lon="-107.70264278165996074676513671875">
        <ele>3888</ele>
        <time>2023-07-29T15:57:54.000Z</time>
        <extensions>
          <ns3:TrackPointExtension>
            <ns3:hr>113</ns3:hr>
            <ns3:cad>46</ns3:cad>
          </ns3:TrackPointExtension>
        </extensions>
      </trkpt>
      <trkpt lat="37.7804678119719028472900390625" lon="-107.7026410214602947235107421875">
        <ele>3888.199951171875</ele>
        <time>2023-07-29T15:57:55.000Z</time>
        <extensions>
          <ns3:TrackPointExtension>
            <ns3:hr>112</ns3:hr>
            <ns3:cad>46</ns3:cad>
          </ns3:TrackPointExtension>
        </extensions>
      </trkpt>
      <trkpt lat="37.7804765291512012481689453125" lon="-107.7026450447738170623779296875">
        <ele>3888.199951171875</ele>
        <time>2023-07-29T15:57:56.000Z</time>
        <extensions>
          <ns3:TrackPointExtension>
            <ns3:hr>111</ns3:hr>
            <ns3:cad>46</ns3:cad>
          </ns3:TrackPointExtension>
        </extensions>
      </trkpt>
      <trkpt lat="37.78047929517924785614013671875" lon="-107.70264596678316593170166015625">
        <ele>3888.60009765625</ele>
        <time>2023-07-29T15:57:57.000Z</time>
        <extensions>
          <ns3:TrackPointExtension>
            <ns3:hr>111</ns3:hr>
            <ns3:cad>46</ns3:cad>
          </ns3:TrackPointExtension>
        </extensions>
      </trkpt>
      <trkpt lat="37.780486084520816802978515625" lon="-107.70264931954443454742431640625">
        <ele>3888.800048828125</ele>
        <time>2023-07-29T15:57:58.000Z</time>
        <extensions>
          <ns3:TrackPointExtension>
            <ns3:hr>111</ns3:hr>
            <ns3:cad>46</ns3:cad>
          </ns3:TrackPointExtension>
        </extensions>
      </trkpt>
      <trkpt lat="37.7804926224052906036376953125" lon="-107.70265133120119571685791015625">
        <ele>3889</ele>
        <time>2023-07-29T15:57:59.000Z</time>
        <extensions>
          <ns3:TrackPointExtension>
            <ns3:hr>110</ns3:hr>
            <ns3:cad>46</ns3:cad>
          </ns3:TrackPointExtension>
        </extensions>
      </trkpt>
      <trkpt lat="37.7805013395845890045166015625" lon="-107.70265099592506885528564453125">
        <ele>3889.199951171875</ele>
        <time>2023-07-29T15:58:00.000Z</time>
        <extensions>
          <ns3:TrackPointExtension>
            <ns3:hr>110</ns3:hr>
            <ns3:cad>46</ns3:cad>
          </ns3:TrackPointExtension>
        </extensions>
      </trkpt>
      <trkpt lat="37.78050611726939678192138671875" lon="-107.70265552215278148651123046875">
        <ele>3889.60009765625</ele>
        <time>2023-07-29T15:58:01.000Z</time>
        <extensions>
          <ns3:TrackPointExtension>
            <ns3:hr>109</ns3:hr>
            <ns3:cad>46</ns3:cad>
          </ns3:TrackPointExtension>
        </extensions>
      </trkpt>
      <trkpt lat="37.78051416389644145965576171875" lon="-107.7026559412479400634765625">
        <ele>3889.800048828125</ele>
        <time>2023-07-29T15:58:02.000Z</time>
        <extensions>
          <ns3:TrackPointExtension>
            <ns3:hr>109</ns3:hr>
            <ns3:cad>0</ns3:cad>
          </ns3:TrackPointExtension>
        </extensions>
      </trkpt>
      <trkpt lat="37.78051936067640781402587890625" lon="-107.70265367813408374786376953125">
        <ele>3890.199951171875</ele>
        <time>2023-07-29T15:58:03.000Z</time>
        <extensions>
          <ns3:TrackPointExtension>
            <ns3:hr>108</ns3:hr>
            <ns3:cad>0</ns3:cad>
          </ns3:TrackPointExtension>
        </extensions>
      </trkpt>
      <trkpt lat="37.78052003122866153717041015625" lon="-107.70265233702957630157470703125">
        <ele>3890.39990234375</ele>
        <time>2023-07-29T15:58:04.000Z</time>
        <extensions>
          <ns3:TrackPointExtension>
            <ns3:hr>110</ns3:hr>
            <ns3:cad>0</ns3:cad>
          </ns3:TrackPointExtension>
        </extensions>
      </trkpt>
      <trkpt lat="37.78052187524735927581787109375" lon="-107.7026505768299102783203125">
        <ele>3890.800048828125</ele>
        <time>2023-07-29T15:58:05.000Z</time>
        <extensions>
          <ns3:TrackPointExtension>
            <ns3:hr>111</ns3:hr>
            <ns3:cad>0</ns3:cad>
          </ns3:TrackPointExtension>
        </extensions>
      </trkpt>
      <trkpt lat="37.780524976551532745361328125" lon="-107.7026490680873394012451171875">
        <ele>3890.800048828125</ele>
        <time>2023-07-29T15:58:06.000Z</time>
        <extensions>
          <ns3:TrackPointExtension>
            <ns3:hr>113</ns3:hr>
            <ns3:cad>0</ns3:cad>
          </ns3:TrackPointExtension>
        </extensions>
      </trkpt>
      <trkpt lat="37.7805271558463573455810546875" lon="-107.70264646969735622406005859375">
        <ele>3891.199951171875</ele>
        <time>2023-07-29T15:58:07.000Z</time>
        <extensions>
          <ns3:TrackPointExtension>
            <ns3:hr>114</ns3:hr>
            <ns3:cad>0</ns3:cad>
          </ns3:TrackPointExtension>
        </extensions>
      </trkpt>
      <trkpt lat="37.780531346797943115234375" lon="-107.702648900449275970458984375">
        <ele>3891.39990234375</ele>
        <time>2023-07-29T15:58:08.000Z</time>
        <extensions>
          <ns3:TrackPointExtension>
            <ns3:hr>116</ns3:hr>
            <ns3:cad>0</ns3:cad>
          </ns3:TrackPointExtension>
        </extensions>
      </trkpt>
      <trkpt lat="37.78053914196789264678955078125" lon="-107.70265183411538600921630859375">
        <ele>3891.60009765625</ele>
        <time>2023-07-29T15:58:09.000Z</time>
        <extensions>
          <ns3:TrackPointExtension>
            <ns3:hr>118</ns3:hr>
            <ns3:cad>0</ns3:cad>
          </ns3:TrackPointExtension>
        </extensions>
      </trkpt>
      <trkpt lat="37.7805439196527004241943359375" lon="-107.70265803672373294830322265625">
        <ele>3892</ele>
        <time>2023-07-29T15:58:10.000Z</time>
        <extensions>
          <ns3:TrackPointExtension>
            <ns3:hr>119</ns3:hr>
            <ns3:cad>0</ns3:cad>
          </ns3:TrackPointExtension>
        </extensions>
      </trkpt>
      <trkpt lat="37.78054802678525447845458984375" lon="-107.70266407169401645660400390625">
        <ele>3892</ele>
        <time>2023-07-29T15:58:11.000Z</time>
        <extensions>
          <ns3:TrackPointExtension>
            <ns3:hr>121</ns3:hr>
            <ns3:cad>0</ns3:cad>
          </ns3:TrackPointExtension>
        </extensions>
      </trkpt>
      <trkpt lat="37.780550457537174224853515625" lon="-107.70266859792172908782958984375">
        <ele>3892.199951171875</ele>
        <time>2023-07-29T15:58:12.000Z</time>
        <extensions>
          <ns3:TrackPointExtension>
            <ns3:hr>122</ns3:hr>
            <ns3:cad>0</ns3:cad>
          </ns3:TrackPointExtension>
        </extensions>
      </trkpt>
      <trkpt lat="37.780553810298442840576171875" lon="-107.70267513580620288848876953125">
        <ele>3892.39990234375</ele>
        <time>2023-07-29T15:58:13.000Z</time>
        <extensions>
          <ns3:TrackPointExtension>
            <ns3:hr>124</ns3:hr>
            <ns3:cad>0</ns3:cad>
          </ns3:TrackPointExtension>
        </extensions>
      </trkpt>
      <trkpt lat="37.780558168888092041015625" lon="-107.702684439718723297119140625">
        <ele>3892.60009765625</ele>
        <time>2023-07-29T15:58:14.000Z</time>
        <extensions>
          <ns3:TrackPointExtension>
            <ns3:hr>125</ns3:hr>
            <ns3:cad>0</ns3:cad>
          </ns3:TrackPointExtension>
        </extensions>
      </trkpt>
      <trkpt lat="37.7805650420486927032470703125" lon="-107.7026908099651336669921875">
        <ele>3892.60009765625</ele>
        <time>2023-07-29T15:58:15.000Z</time>
        <extensions>
          <ns3:TrackPointExtension>
            <ns3:hr>126</ns3:hr>
            <ns3:cad>0</ns3:cad>
          </ns3:TrackPointExtension>
        </extensions>
      </trkpt>
      <trkpt lat="37.78057501651346683502197265625" lon="-107.702702544629573822021484375">
        <ele>3892.60009765625</ele>
        <time>2023-07-29T15:58:16.000Z</time>
        <extensions>
          <ns3:TrackPointExtension>
            <ns3:hr>126</ns3:hr>
            <ns3:cad>0</ns3:cad>
          </ns3:TrackPointExtension>
        </extensions>
      </trkpt>
      <trkpt lat="37.78058876283466815948486328125" lon="-107.70271838642656803131103515625">
        <ele>3893</ele>
        <time>2023-07-29T15:58:17.000Z</time>
        <extensions>
          <ns3:TrackPointExtension>
            <ns3:hr>126</ns3:hr>
            <ns3:cad>0</ns3:cad>
          </ns3:TrackPointExtension>
        </extensions>
      </trkpt>
      <trkpt lat="37.780602760612964630126953125" lon="-107.70273213274776935577392578125">
        <ele>3893.199951171875</ele>
        <time>2023-07-29T15:58:18.000Z</time>
        <extensions>
          <ns3:TrackPointExtension>
            <ns3:hr>127</ns3:hr>
            <ns3:cad>0</ns3:cad>
          </ns3:TrackPointExtension>
        </extensions>
      </trkpt>
      <trkpt lat="37.7806190215051174163818359375" lon="-107.70274671725928783416748046875">
        <ele>3893.199951171875</ele>
        <time>2023-07-29T15:58:19.000Z</time>
        <extensions>
          <ns3:TrackPointExtension>
            <ns3:hr>127</ns3:hr>
            <ns3:cad>0</ns3:cad>
          </ns3:TrackPointExtension>
        </extensions>
      </trkpt>
      <trkpt lat="37.7806243859231472015380859375" lon="-107.7027469687163829803466796875">
        <ele>3893.39990234375</ele>
        <time>2023-07-29T15:58:20.000Z</time>
        <extensions>
          <ns3:TrackPointExtension>
            <ns3:hr>128</ns3:hr>
            <ns3:cad>0</ns3:cad>
          </ns3:TrackPointExtension>
        </extensions>
      </trkpt>
      <trkpt lat="37.78063268400728702545166015625" lon="-107.70275074057281017303466796875">
        <ele>3893.60009765625</ele>
        <time>2023-07-29T15:58:21.000Z</time>
        <extensions>
          <ns3:TrackPointExtension>
            <ns3:hr>128</ns3:hr>
            <ns3:cad>0</ns3:cad>
          </ns3:TrackPointExtension>
        </extensions>
      </trkpt>
      <trkpt lat="37.78064475394785404205322265625" lon="-107.70275929011404514312744140625">
        <ele>3893.60009765625</ele>
        <time>2023-07-29T15:58:22.000Z</time>
        <extensions>
          <ns3:TrackPointExtension>
            <ns3:hr>129</ns3:hr>
            <ns3:cad>0</ns3:cad>
          </ns3:TrackPointExtension>
        </extensions>
      </trkpt>
      <trkpt lat="37.78065699152648448944091796875" lon="-107.70276934839785099029541015625">
        <ele>3893.60009765625</ele>
        <time>2023-07-29T15:58:23.000Z</time>
        <extensions>
          <ns3:TrackPointExtension>
            <ns3:hr>129</ns3:hr>
            <ns3:cad>0</ns3:cad>
          </ns3:TrackPointExtension>
        </extensions>
      </trkpt>
      <trkpt lat="37.7806683070957660675048828125" lon="-107.70277672447264194488525390625">
        <ele>3893.60009765625</ele>
        <time>2023-07-29T15:58:24.000Z</time>
        <extensions>
          <ns3:TrackPointExtension>
            <ns3:hr>129</ns3:hr>
            <ns3:cad>0</ns3:cad>
          </ns3:TrackPointExtension>
        </extensions>
      </trkpt>
      <trkpt lat="37.78067274950444698333740234375" lon="-107.7027784846723079681396484375">
        <ele>3893.60009765625</ele>
        <time>2023-07-29T15:58:25.000Z</time>
        <extensions>
          <ns3:TrackPointExtension>
            <ns3:hr>129</ns3:hr>
            <ns3:cad>46</ns3:cad>
          </ns3:TrackPointExtension>
        </extensions>
      </trkpt>
      <trkpt lat="37.78067811392247676849365234375" lon="-107.7027791552245616912841796875">
        <ele>3893.800048828125</ele>
        <time>2023-07-29T15:58:26.000Z</time>
        <extensions>
          <ns3:TrackPointExtension>
            <ns3:hr>130</ns3:hr>
            <ns3:cad>48</ns3:cad>
          </ns3:TrackPointExtension>
        </extensions>
      </trkpt>
      <trkpt lat="37.78068515472114086151123046875" lon="-107.702782340347766876220703125">
        <ele>3893.800048828125</ele>
        <time>2023-07-29T15:58:27.000Z</time>
        <extensions>
          <ns3:TrackPointExtension>
            <ns3:hr>130</ns3:hr>
            <ns3:cad>48</ns3:cad>
          </ns3:TrackPointExtension>
        </extensions>
      </trkpt>
      <trkpt lat="37.78069487772881984710693359375" lon="-107.70278996787965297698974609375">
        <ele>3893.800048828125</ele>
        <time>2023-07-29T15:58:28.000Z</time>
        <extensions>
          <ns3:TrackPointExtension>
            <ns3:hr>130</ns3:hr>
            <ns3:cad>0</ns3:cad>
          </ns3:TrackPointExtension>
        </extensions>
      </trkpt>
      <trkpt lat="37.780705355107784271240234375" lon="-107.702796421945095062255859375">
        <ele>3893.800048828125</ele>
        <time>2023-07-29T15:58:29.000Z</time>
        <extensions>
          <ns3:TrackPointExtension>
            <ns3:hr>130</ns3:hr>
            <ns3:cad>0</ns3:cad>
          </ns3:TrackPointExtension>
        </extensions>
      </trkpt>
      <trkpt lat="37.78071440756320953369140625" lon="-107.70280052907764911651611328125">
        <ele>3893.800048828125</ele>
        <time>2023-07-29T15:58:30.000Z</time>
        <extensions>
          <ns3:TrackPointExtension>
            <ns3:hr>130</ns3:hr>
            <ns3:cad>0</ns3:cad>
          </ns3:TrackPointExtension>
        </extensions>
      </trkpt>
      <trkpt lat="37.7807276509702205657958984375" lon="-107.702800445258617401123046875">
        <ele>3893.800048828125</ele>
        <time>2023-07-29T15:58:31.000Z</time>
        <extensions>
          <ns3:TrackPointExtension>
            <ns3:hr>129</ns3:hr>
            <ns3:cad>0</ns3:cad>
          </ns3:TrackPointExtension>
        </extensions>
      </trkpt>
      <trkpt lat="37.7807370387017726898193359375" lon="-107.7027965895831584930419921875">
        <ele>3893.800048828125</ele>
        <time>2023-07-29T15:58:32.000Z</time>
        <extensions>
          <ns3:TrackPointExtension>
            <ns3:hr>128</ns3:hr>
            <ns3:cad>0</ns3:cad>
          </ns3:TrackPointExtension>
        </extensions>
      </trkpt>
      <trkpt lat="37.780746258795261383056640625" lon="-107.70279415883123874664306640625">
        <ele>3893.800048828125</ele>
        <time>2023-07-29T15:58:33.000Z</time>
        <extensions>
          <ns3:TrackPointExtension>
            <ns3:hr>127</ns3:hr>
            <ns3:cad>0</ns3:cad>
          </ns3:TrackPointExtension>
        </extensions>
      </trkpt>
      <trkpt lat="37.780757658183574676513671875" lon="-107.70278963260352611541748046875">
        <ele>3894</ele>
        <time>2023-07-29T15:58:34.000Z</time>
        <extensions>
          <ns3:TrackPointExtension>
            <ns3:hr>126</ns3:hr>
            <ns3:cad>0</ns3:cad>
          </ns3:TrackPointExtension>
        </extensions>
      </trkpt>
      <trkpt lat="37.78076444752514362335205078125" lon="-107.70278669893741607666015625">
        <ele>3894</ele>
        <time>2023-07-29T15:58:35.000Z</time>
        <extensions>
          <ns3:TrackPointExtension>
            <ns3:hr>125</ns3:hr>
            <ns3:cad>0</ns3:cad>
          </ns3:TrackPointExtension>
        </extensions>
      </trkpt>
      <trkpt lat="37.78077316470444202423095703125" lon="-107.70278393290936946868896484375">
        <ele>3894.199951171875</ele>
        <time>2023-07-29T15:58:36.000Z</time>
        <extensions>
          <ns3:TrackPointExtension>
            <ns3:hr>125</ns3:hr>
            <ns3:cad>0</ns3:cad>
          </ns3:TrackPointExtension>
        </extensions>
      </trkpt>
      <trkpt lat="37.78078037314116954803466796875" lon="-107.7027820050716400146484375">
        <ele>3894.199951171875</ele>
        <time>2023-07-29T15:58:37.000Z</time>
        <extensions>
          <ns3:TrackPointExtension>
            <ns3:hr>125</ns3:hr>
            <ns3:cad>0</ns3:cad>
          </ns3:TrackPointExtension>
        </extensions>
      </trkpt>
      <trkpt lat="37.7807890065014362335205078125" lon="-107.70278577692806720733642578125">
        <ele>3894.39990234375</ele>
        <time>2023-07-29T15:58:38.000Z</time>
        <extensions>
          <ns3:TrackPointExtension>
            <ns3:hr>125</ns3:hr>
            <ns3:cad>0</ns3:cad>
          </ns3:TrackPointExtension>
        </extensions>
      </trkpt>
      <trkpt lat="37.78079495765268802642822265625" lon="-107.702787034213542938232421875">
        <ele>3894.39990234375</ele>
        <time>2023-07-29T15:58:39.000Z</time>
        <extensions>
          <ns3:TrackPointExtension>
            <ns3:hr>125</ns3:hr>
            <ns3:cad>0</ns3:cad>
          </ns3:TrackPointExtension>
        </extensions>
      </trkpt>
      <trkpt lat="37.78080292046070098876953125" lon="-107.7027912251651287078857421875">
        <ele>3894.60009765625</ele>
        <time>2023-07-29T15:58:40.000Z</time>
        <extensions>
          <ns3:TrackPointExtension>
            <ns3:hr>125</ns3:hr>
            <ns3:cad>0</ns3:cad>
          </ns3:TrackPointExtension>
        </extensions>
      </trkpt>
      <trkpt lat="37.78080954216420650482177734375" lon="-107.702794410288333892822265625">
        <ele>3894.60009765625</ele>
        <time>2023-07-29T15:58:41.000Z</time>
        <extensions>
          <ns3:TrackPointExtension>
            <ns3:hr>124</ns3:hr>
            <ns3:cad>0</ns3:cad>
          </ns3:TrackPointExtension>
        </extensions>
      </trkpt>
      <trkpt lat="37.78081633150577545166015625" lon="-107.7028009481728076934814453125">
        <ele>3894.800048828125</ele>
        <time>2023-07-29T15:58:42.000Z</time>
        <extensions>
          <ns3:TrackPointExtension>
            <ns3:hr>124</ns3:hr>
            <ns3:cad>0</ns3:cad>
          </ns3:TrackPointExtension>
        </extensions>
      </trkpt>
      <trkpt lat="37.78082345612347126007080078125" lon="-107.702808491885662078857421875">
        <ele>3895</ele>
        <time>2023-07-29T15:58:43.000Z</time>
        <extensions>
          <ns3:TrackPointExtension>
            <ns3:hr>124</ns3:hr>
            <ns3:cad>0</ns3:cad>
          </ns3:TrackPointExtension>
        </extensions>
      </trkpt>
      <trkpt lat="37.78082781471312046051025390625" lon="-107.70281394012272357940673828125">
        <ele>3895.199951171875</ele>
        <time>2023-07-29T15:58:44.000Z</time>
        <extensions>
          <ns3:TrackPointExtension>
            <ns3:hr>125</ns3:hr>
            <ns3:cad>0</ns3:cad>
          </ns3:TrackPointExtension>
        </extensions>
      </trkpt>
      <trkpt lat="37.78083468787372112274169921875" lon="-107.702818550169467926025390625">
        <ele>3895.199951171875</ele>
        <time>2023-07-29T15:58:45.000Z</time>
        <extensions>
          <ns3:TrackPointExtension>
            <ns3:hr>125</ns3:hr>
            <ns3:cad>0</ns3:cad>
          </ns3:TrackPointExtension>
        </extensions>
      </trkpt>
      <trkpt lat="37.78084340505301952362060546875" lon="-107.70282316021621227264404296875">
        <ele>3895.199951171875</ele>
        <time>2023-07-29T15:58:46.000Z</time>
        <extensions>
          <ns3:TrackPointExtension>
            <ns3:hr>125</ns3:hr>
            <ns3:cad>0</ns3:cad>
          </ns3:TrackPointExtension>
        </extensions>
      </trkpt>
      <trkpt lat="37.7808543853461742401123046875" lon="-107.70283137448132038116455078125">
        <ele>3895.199951171875</ele>
        <time>2023-07-29T15:58:47.000Z</time>
        <extensions>
          <ns3:TrackPointExtension>
            <ns3:hr>125</ns3:hr>
            <ns3:cad>0</ns3:cad>
          </ns3:TrackPointExtension>
        </extensions>
      </trkpt>
      <trkpt lat="37.78085899539291858673095703125" lon="-107.7028338052332401275634765625">
        <ele>3895.199951171875</ele>
        <time>2023-07-29T15:58:48.000Z</time>
        <extensions>
          <ns3:TrackPointExtension>
            <ns3:hr>125</ns3:hr>
            <ns3:cad>0</ns3:cad>
          </ns3:TrackPointExtension>
        </extensions>
      </trkpt>
      <trkpt lat="37.7808664552867412567138671875" lon="-107.7028369903564453125">
        <ele>3895.199951171875</ele>
        <time>2023-07-29T15:58:49.000Z</time>
        <extensions>
          <ns3:TrackPointExtension>
            <ns3:hr>125</ns3:hr>
            <ns3:cad>0</ns3:cad>
          </ns3:TrackPointExtension>
        </extensions>
      </trkpt>
      <trkpt lat="37.780868299305438995361328125" lon="-107.70283766090869903564453125">
        <ele>3895.39990234375</ele>
        <time>2023-07-29T15:58:50.000Z</time>
        <extensions>
          <ns3:TrackPointExtension>
            <ns3:hr>125</ns3:hr>
            <ns3:cad>0</ns3:cad>
          </ns3:TrackPointExtension>
        </extensions>
      </trkpt>
      <trkpt lat="37.7808738313615322113037109375" lon="-107.70284176804125308990478515625">
        <ele>3895.60009765625</ele>
        <time>2023-07-29T15:58:51.000Z</time>
        <extensions>
          <ns3:TrackPointExtension>
            <ns3:hr>125</ns3:hr>
            <ns3:cad>0</ns3:cad>
          </ns3:TrackPointExtension>
        </extensions>
      </trkpt>
      <trkpt lat="37.7808840572834014892578125" lon="-107.7028502337634563446044921875">
        <ele>3895.800048828125</ele>
        <time>2023-07-29T15:58:52.000Z</time>
        <extensions>
          <ns3:TrackPointExtension>
            <ns3:hr>125</ns3:hr>
            <ns3:cad>0</ns3:cad>
          </ns3:TrackPointExtension>
        </extensions>
      </trkpt>
      <trkpt lat="37.78088917024433612823486328125" lon="-107.70285786129534244537353515625">
        <ele>3895.800048828125</ele>
        <time>2023-07-29T15:58:53.000Z</time>
        <extensions>
          <ns3:TrackPointExtension>
            <ns3:hr>125</ns3:hr>
            <ns3:cad>0</ns3:cad>
          </ns3:TrackPointExtension>
        </extensions>
      </trkpt>
      <trkpt lat="37.7808949537575244903564453125" lon="-107.7028666622936725616455078125">
        <ele>3896</ele>
        <time>2023-07-29T15:58:54.000Z</time>
        <extensions>
          <ns3:TrackPointExtension>
            <ns3:hr>124</ns3:hr>
            <ns3:cad>0</ns3:cad>
          </ns3:TrackPointExtension>
        </extensions>
      </trkpt>
      <trkpt lat="37.780898474156856536865234375" lon="-107.70287328399717807769775390625">
        <ele>3896</ele>
        <time>2023-07-29T15:58:55.000Z</time>
        <extensions>
          <ns3:TrackPointExtension>
            <ns3:hr>124</ns3:hr>
            <ns3:cad>0</ns3:cad>
          </ns3:TrackPointExtension>
        </extensions>
      </trkpt>
      <trkpt lat="37.78089554049074649810791015625" lon="-107.70287713967263698577880859375">
        <ele>3896.199951171875</ele>
        <time>2023-07-29T15:58:56.000Z</time>
        <extensions>
          <ns3:TrackPointExtension>
            <ns3:hr>124</ns3:hr>
            <ns3:cad>0</ns3:cad>
          </ns3:TrackPointExtension>
        </extensions>
      </trkpt>
      <trkpt lat="37.78089688159525394439697265625" lon="-107.7028884552419185638427734375">
        <ele>3896.39990234375</ele>
        <time>2023-07-29T15:58:57.000Z</time>
        <extensions>
          <ns3:TrackPointExtension>
            <ns3:hr>124</ns3:hr>
            <ns3:cad>0</ns3:cad>
          </ns3:TrackPointExtension>
        </extensions>
      </trkpt>
      <trkpt lat="37.78090006671845912933349609375" lon="-107.70289775915443897247314453125">
        <ele>3896.60009765625</ele>
        <time>2023-07-29T15:58:58.000Z</time>
        <extensions>
          <ns3:TrackPointExtension>
            <ns3:hr>123</ns3:hr>
            <ns3:cad>0</ns3:cad>
          </ns3:TrackPointExtension>
        </extensions>
      </trkpt>
      <trkpt lat="37.78090417385101318359375" lon="-107.702905051410198211669921875">
        <ele>3896.60009765625</ele>
        <time>2023-07-29T15:58:59.000Z</time>
        <extensions>
          <ns3:TrackPointExtension>
            <ns3:hr>123</ns3:hr>
            <ns3:cad>0</ns3:cad>
          </ns3:TrackPointExtension>
        </extensions>
      </trkpt>
      <trkpt lat="37.7809100411832332611083984375" lon="-107.70290748216211795806884765625">
        <ele>3896.800048828125</ele>
        <time>2023-07-29T15:59:00.000Z</time>
        <extensions>
          <ns3:TrackPointExtension>
            <ns3:hr>122</ns3:hr>
            <ns3:cad>0</ns3:cad>
          </ns3:TrackPointExtension>
        </extensions>
      </trkpt>
      <trkpt lat="37.780917249619960784912109375" lon="-107.70290697924792766571044921875">
        <ele>3896.800048828125</ele>
        <time>2023-07-29T15:59:01.000Z</time>
        <extensions>
          <ns3:TrackPointExtension>
            <ns3:hr>122</ns3:hr>
            <ns3:cad>0</ns3:cad>
          </ns3:TrackPointExtension>
        </extensions>
      </trkpt>
      <trkpt lat="37.7809231169521808624267578125" lon="-107.7029120922088623046875">
        <ele>3897</ele>
        <time>2023-07-29T15:59:02.000Z</time>
        <extensions>
          <ns3:TrackPointExtension>
            <ns3:hr>122</ns3:hr>
            <ns3:cad>0</ns3:cad>
          </ns3:TrackPointExtension>
        </extensions>
      </trkpt>
      <trkpt lat="37.78093124739825725555419921875" lon="-107.70291871391236782073974609375">
        <ele>3897</ele>
        <time>2023-07-29T15:59:03.000Z</time>
        <extensions>
          <ns3:TrackPointExtension>
            <ns3:hr>121</ns3:hr>
            <ns3:cad>0</ns3:cad>
          </ns3:TrackPointExtension>
        </extensions>
      </trkpt>
      <trkpt lat="37.78094063512980937957763671875" lon="-107.70292558707296848297119140625">
        <ele>3897.199951171875</ele>
        <time>2023-07-29T15:59:04.000Z</time>
        <extensions>
          <ns3:TrackPointExtension>
            <ns3:hr>121</ns3:hr>
            <ns3:cad>0</ns3:cad>
          </ns3:TrackPointExtension>
        </extensions>
      </trkpt>
      <trkpt lat="37.780950777232646942138671875" lon="-107.70293279550969600677490234375">
        <ele>3897.39990234375</ele>
        <time>2023-07-29T15:59:05.000Z</time>
        <extensions>
          <ns3:TrackPointExtension>
            <ns3:hr>122</ns3:hr>
            <ns3:cad>0</ns3:cad>
          </ns3:TrackPointExtension>
        </extensions>
      </trkpt>
      <trkpt lat="37.78096058405935764312744140625" lon="-107.7029414288699626922607421875">
        <ele>3897.60009765625</ele>
        <time>2023-07-29T15:59:06.000Z</time>
        <extensions>
          <ns3:TrackPointExtension>
            <ns3:hr>122</ns3:hr>
            <ns3:cad>0</ns3:cad>
          </ns3:TrackPointExtension>
        </extensions>
      </trkpt>
      <trkpt lat="37.7809720672667026519775390625" lon="-107.70294335670769214630126953125">
        <ele>3897.60009765625</ele>
        <time>2023-07-29T15:59:07.000Z</time>
        <extensions>
          <ns3:TrackPointExtension>
            <ns3:hr>123</ns3:hr>
            <ns3:cad>19</ns3:cad>
          </ns3:TrackPointExtension>
        </extensions>
      </trkpt>
      <trkpt lat="37.78098271228373050689697265625" lon="-107.70294553600251674652099609375">
        <ele>3897.800048828125</ele>
        <time>2023-07-29T15:59:08.000Z</time>
        <extensions>
          <ns3:TrackPointExtension>
            <ns3:hr>124</ns3:hr>
            <ns3:cad>19</ns3:cad>
          </ns3:TrackPointExtension>
        </extensions>
      </trkpt>
      <trkpt lat="37.78098740614950656890869140625" lon="-107.70294805057346820831298828125">
        <ele>3898</ele>
        <time>2023-07-29T15:59:09.000Z</time>
        <extensions>
          <ns3:TrackPointExtension>
            <ns3:hr>124</ns3:hr>
            <ns3:cad>19</ns3:cad>
          </ns3:TrackPointExtension>
        </extensions>
      </trkpt>
      <trkpt lat="37.78098790906369686126708984375" lon="-107.70294520072638988494873046875">
        <ele>3898</ele>
        <time>2023-07-29T15:59:10.000Z</time>
        <extensions>
          <ns3:TrackPointExtension>
            <ns3:hr>124</ns3:hr>
            <ns3:cad>0</ns3:cad>
          </ns3:TrackPointExtension>
        </extensions>
      </trkpt>
      <trkpt lat="37.78099813498556613922119140625" lon="-107.7029474638402462005615234375">
        <ele>3898.39990234375</ele>
        <time>2023-07-29T15:59:11.000Z</time>
        <extensions>
          <ns3:TrackPointExtension>
            <ns3:hr>124</ns3:hr>
            <ns3:cad>0</ns3:cad>
          </ns3:TrackPointExtension>
        </extensions>
      </trkpt>
      <trkpt lat="37.78100484050810337066650390625" lon="-107.70294989459216594696044921875">
        <ele>3898.60009765625</ele>
        <time>2023-07-29T15:59:12.000Z</time>
        <extensions>
          <ns3:TrackPointExtension>
            <ns3:hr>123</ns3:hr>
            <ns3:cad>0</ns3:cad>
          </ns3:TrackPointExtension>
        </extensions>
      </trkpt>
      <trkpt lat="37.78100769035518169403076171875" lon="-107.7029518224298954010009765625">
        <ele>3898.800048828125</ele>
        <time>2023-07-29T15:59:13.000Z</time>
        <extensions>
          <ns3:TrackPointExtension>
            <ns3:hr>123</ns3:hr>
            <ns3:cad>0</ns3:cad>
          </ns3:TrackPointExtension>
        </extensions>
      </trkpt>
      <trkpt lat="37.78101322241127490997314453125" lon="-107.702950648963451385498046875">
        <ele>3898.800048828125</ele>
        <time>2023-07-29T15:59:14.000Z</time>
        <extensions>
          <ns3:TrackPointExtension>
            <ns3:hr>123</ns3:hr>
            <ns3:cad>0</ns3:cad>
          </ns3:TrackPointExtension>
        </extensions>
      </trkpt>
      <trkpt lat="37.7810213528573513031005859375" lon="-107.7029541693627834320068359375">
        <ele>3898.800048828125</ele>
        <time>2023-07-29T15:59:15.000Z</time>
        <extensions>
          <ns3:TrackPointExtension>
            <ns3:hr>123</ns3:hr>
            <ns3:cad>0</ns3:cad>
          </ns3:TrackPointExtension>
        </extensions>
      </trkpt>
      <trkpt lat="37.78103065676987171173095703125" lon="-107.70295626483857631683349609375">
        <ele>3899</ele>
        <time>2023-07-29T15:59:16.000Z</time>
        <extensions>
          <ns3:TrackPointExtension>
            <ns3:hr>124</ns3:hr>
            <ns3:cad>0</ns3:cad>
          </ns3:TrackPointExtension>
        </extensions>
      </trkpt>
      <trkpt lat="37.78103417716920375823974609375" lon="-107.70295944996178150177001953125">
        <ele>3899</ele>
        <time>2023-07-29T15:59:17.000Z</time>
        <extensions>
          <ns3:TrackPointExtension>
            <ns3:hr>124</ns3:hr>
            <ns3:cad>62</ns3:cad>
          </ns3:TrackPointExtension>
        </extensions>
      </trkpt>
      <trkpt lat="37.7810374461114406585693359375" lon="-107.70296213217079639434814453125">
        <ele>3899</ele>
        <time>2023-07-29T15:59:18.000Z</time>
        <extensions>
          <ns3:TrackPointExtension>
            <ns3:hr>124</ns3:hr>
            <ns3:cad>62</ns3:cad>
          </ns3:TrackPointExtension>
        </extensions>
      </trkpt>
      <trkpt lat="37.78104507364332675933837890625" lon="-107.70296682603657245635986328125">
        <ele>3899.199951171875</ele>
        <time>2023-07-29T15:59:19.000Z</time>
        <extensions>
          <ns3:TrackPointExtension>
            <ns3:hr>124</ns3:hr>
            <ns3:cad>62</ns3:cad>
          </ns3:TrackPointExtension>
        </extensions>
      </trkpt>
      <trkpt lat="37.7810515277087688446044921875" lon="-107.70297118462622165679931640625">
        <ele>3899.60009765625</ele>
        <time>2023-07-29T15:59:20.000Z</time>
        <extensions>
          <ns3:TrackPointExtension>
            <ns3:hr>124</ns3:hr>
            <ns3:cad>62</ns3:cad>
          </ns3:TrackPointExtension>
        </extensions>
      </trkpt>
      <trkpt lat="37.78105597011744976043701171875" lon="-107.7029739506542682647705078125">
        <ele>3899.60009765625</ele>
        <time>2023-07-29T15:59:21.000Z</time>
        <extensions>
          <ns3:TrackPointExtension>
            <ns3:hr>124</ns3:hr>
            <ns3:cad>62</ns3:cad>
          </ns3:TrackPointExtension>
        </extensions>
      </trkpt>
      <trkpt lat="37.7810672856867313385009765625" lon="-107.7029779739677906036376953125">
        <ele>3899.800048828125</ele>
        <time>2023-07-29T15:59:22.000Z</time>
        <extensions>
          <ns3:TrackPointExtension>
            <ns3:hr>125</ns3:hr>
            <ns3:cad>62</ns3:cad>
          </ns3:TrackPointExtension>
        </extensions>
      </trkpt>
      <trkpt lat="37.78107809834182262420654296875" lon="-107.7029816620051860809326171875">
        <ele>3900</ele>
        <time>2023-07-29T15:59:23.000Z</time>
        <extensions>
          <ns3:TrackPointExtension>
            <ns3:hr>125</ns3:hr>
            <ns3:cad>62</ns3:cad>
          </ns3:TrackPointExtension>
        </extensions>
      </trkpt>
      <trkpt lat="37.781085558235645294189453125" lon="-107.7029866911470890045166015625">
        <ele>3900</ele>
        <time>2023-07-29T15:59:24.000Z</time>
        <extensions>
          <ns3:TrackPointExtension>
            <ns3:hr>125</ns3:hr>
            <ns3:cad>0</ns3:cad>
          </ns3:TrackPointExtension>
        </extensions>
      </trkpt>
      <trkpt lat="37.7811001427471637725830078125" lon="-107.7029920555651187896728515625">
        <ele>3900</ele>
        <time>2023-07-29T15:59:25.000Z</time>
        <extensions>
          <ns3:TrackPointExtension>
            <ns3:hr>124</ns3:hr>
            <ns3:cad>0</ns3:cad>
          </ns3:TrackPointExtension>
        </extensions>
      </trkpt>
      <trkpt lat="37.78111095540225505828857421875" lon="-107.70299800671637058258056640625">
        <ele>3900</ele>
        <time>2023-07-29T15:59:26.000Z</time>
        <extensions>
          <ns3:TrackPointExtension>
            <ns3:hr>124</ns3:hr>
            <ns3:cad>0</ns3:cad>
          </ns3:TrackPointExtension>
        </extensions>
      </trkpt>
      <trkpt lat="37.78112051077187061309814453125" lon="-107.70300638861954212188720703125">
        <ele>3900</ele>
        <time>2023-07-29T15:59:27.000Z</time>
        <extensions>
          <ns3:TrackPointExtension>
            <ns3:hr>124</ns3:hr>
            <ns3:cad>0</ns3:cad>
          </ns3:TrackPointExtension>
        </extensions>
      </trkpt>
      <trkpt lat="37.781127803027629852294921875" lon="-107.703017704188823699951171875">
        <ele>3900.199951171875</ele>
        <time>2023-07-29T15:59:28.000Z</time>
        <extensions>
          <ns3:TrackPointExtension>
            <ns3:hr>125</ns3:hr>
            <ns3:cad>0</ns3:cad>
          </ns3:TrackPointExtension>
        </extensions>
      </trkpt>
      <trkpt lat="37.781134508550167083740234375" lon="-107.7030259184539318084716796875">
        <ele>3900.199951171875</ele>
        <time>2023-07-29T15:59:29.000Z</time>
        <extensions>
          <ns3:TrackPointExtension>
            <ns3:hr>125</ns3:hr>
            <ns3:cad>0</ns3:cad>
          </ns3:TrackPointExtension>
        </extensions>
      </trkpt>
      <trkpt lat="37.7811433933675289154052734375" lon="-107.70303555764257907867431640625">
        <ele>3900.39990234375</ele>
        <time>2023-07-29T15:59:30.000Z</time>
        <extensions>
          <ns3:TrackPointExtension>
            <ns3:hr>126</ns3:hr>
            <ns3:cad>0</ns3:cad>
          </ns3:TrackPointExtension>
        </extensions>
      </trkpt>
      <trkpt lat="37.78115571476519107818603515625" lon="-107.70304494537413120269775390625">
        <ele>3900.39990234375</ele>
        <time>2023-07-29T15:59:31.000Z</time>
        <extensions>
          <ns3:TrackPointExtension>
            <ns3:hr>127</ns3:hr>
            <ns3:cad>0</ns3:cad>
          </ns3:TrackPointExtension>
        </extensions>
      </trkpt>
      <trkpt lat="37.78116309083998203277587890625" lon="-107.70305466838181018829345703125">
        <ele>3900.39990234375</ele>
        <time>2023-07-29T15:59:32.000Z</time>
        <extensions>
          <ns3:TrackPointExtension>
            <ns3:hr>127</ns3:hr>
            <ns3:cad>0</ns3:cad>
          </ns3:TrackPointExtension>
        </extensions>
      </trkpt>
      <trkpt lat="37.78117029927670955657958984375" lon="-107.70306028425693511962890625">
        <ele>3900.60009765625</ele>
        <time>2023-07-29T15:59:33.000Z</time>
        <extensions>
          <ns3:TrackPointExtension>
            <ns3:hr>127</ns3:hr>
            <ns3:cad>0</ns3:cad>
          </ns3:TrackPointExtension>
        </extensions>
      </trkpt>
      <trkpt lat="37.7811739034950733184814453125" lon="-107.703064642846584320068359375">
        <ele>3900.60009765625</ele>
        <time>2023-07-29T15:59:34.000Z</time>
        <extensions>
          <ns3:TrackPointExtension>
            <ns3:hr>128</ns3:hr>
            <ns3:cad>0</ns3:cad>
          </ns3:TrackPointExtension>
        </extensions>
      </trkpt>
      <trkpt lat="37.78117884881794452667236328125" lon="-107.70307646133005619049072265625">
        <ele>3900.60009765625</ele>
        <time>2023-07-29T15:59:35.000Z</time>
        <extensions>
          <ns3:TrackPointExtension>
            <ns3:hr>128</ns3:hr>
            <ns3:cad>0</ns3:cad>
          </ns3:TrackPointExtension>
        </extensions>
      </trkpt>
      <trkpt lat="37.7811876498162746429443359375" lon="-107.703084759414196014404296875">
        <ele>3900.800048828125</ele>
        <time>2023-07-29T15:59:36.000Z</time>
        <extensions>
          <ns3:TrackPointExtension>
            <ns3:hr>128</ns3:hr>
            <ns3:cad>0</ns3:cad>
          </ns3:TrackPointExtension>
        </extensions>
      </trkpt>
      <trkpt lat="37.78119628317654132843017578125" lon="-107.703093476593494415283203125">
        <ele>3900.800048828125</ele>
        <time>2023-07-29T15:59:37.000Z</time>
        <extensions>
          <ns3:TrackPointExtension>
            <ns3:hr>129</ns3:hr>
            <ns3:cad>0</ns3:cad>
          </ns3:TrackPointExtension>
        </extensions>
      </trkpt>
      <trkpt lat="37.7812070958316326141357421875" lon="-107.7031003497540950775146484375">
        <ele>3900.800048828125</ele>
        <time>2023-07-29T15:59:38.000Z</time>
        <extensions>
          <ns3:TrackPointExtension>
            <ns3:hr>129</ns3:hr>
            <ns3:cad>0</ns3:cad>
          </ns3:TrackPointExtension>
        </extensions>
      </trkpt>
      <trkpt lat="37.78121908195316791534423828125" lon="-107.7031097374856472015380859375">
        <ele>3900.800048828125</ele>
        <time>2023-07-29T15:59:39.000Z</time>
        <extensions>
          <ns3:TrackPointExtension>
            <ns3:hr>129</ns3:hr>
            <ns3:cad>0</ns3:cad>
          </ns3:TrackPointExtension>
        </extensions>
      </trkpt>
      <trkpt lat="37.781227715313434600830078125" lon="-107.7031127549707889556884765625">
        <ele>3901</ele>
        <time>2023-07-29T15:59:40.000Z</time>
        <extensions>
          <ns3:TrackPointExtension>
            <ns3:hr>129</ns3:hr>
            <ns3:cad>0</ns3:cad>
          </ns3:TrackPointExtension>
        </extensions>
      </trkpt>
      <trkpt lat="37.78123919852077960968017578125" lon="-107.70311719737946987152099609375">
        <ele>3901</ele>
        <time>2023-07-29T15:59:41.000Z</time>
        <extensions>
          <ns3:TrackPointExtension>
            <ns3:hr>128</ns3:hr>
            <ns3:cad>0</ns3:cad>
          </ns3:TrackPointExtension>
        </extensions>
      </trkpt>
      <trkpt lat="37.78125260956585407257080078125" lon="-107.7031172811985015869140625">
        <ele>3901.199951171875</ele>
        <time>2023-07-29T15:59:42.000Z</time>
        <extensions>
          <ns3:TrackPointExtension>
            <ns3:hr>128</ns3:hr>
            <ns3:cad>0</ns3:cad>
          </ns3:TrackPointExtension>
        </extensions>
      </trkpt>
      <trkpt lat="37.781260572373867034912109375" lon="-107.70311719737946987152099609375">
        <ele>3901.39990234375</ele>
        <time>2023-07-29T15:59:43.000Z</time>
        <extensions>
          <ns3:TrackPointExtension>
            <ns3:hr>128</ns3:hr>
            <ns3:cad>0</ns3:cad>
          </ns3:TrackPointExtension>
        </extensions>
      </trkpt>
      <trkpt lat="37.78125948272645473480224609375" lon="-107.70311568863689899444580078125">
        <ele>3901.60009765625</ele>
        <time>2023-07-29T15:59:44.000Z</time>
        <extensions>
          <ns3:TrackPointExtension>
            <ns3:hr>127</ns3:hr>
            <ns3:cad>0</ns3:cad>
          </ns3:TrackPointExtension>
        </extensions>
      </trkpt>
      <trkpt lat="37.7812647633254528045654296875" lon="-107.7031157724559307098388671875">
        <ele>3901.60009765625</ele>
        <time>2023-07-29T15:59:45.000Z</time>
        <extensions>
          <ns3:TrackPointExtension>
            <ns3:hr>127</ns3:hr>
            <ns3:cad>0</ns3:cad>
          </ns3:TrackPointExtension>
        </extensions>
      </trkpt>
      <trkpt lat="37.781273983418941497802734375" lon="-107.70311870612204074859619140625">
        <ele>3901.800048828125</ele>
        <time>2023-07-29T15:59:46.000Z</time>
        <extensions>
          <ns3:TrackPointExtension>
            <ns3:hr>127</ns3:hr>
            <ns3:cad>0</ns3:cad>
          </ns3:TrackPointExtension>
        </extensions>
      </trkpt>
      <trkpt lat="37.7812734805047512054443359375" lon="-107.70311937667429447174072265625">
        <ele>3902</ele>
        <time>2023-07-29T15:59:47.000Z</time>
        <extensions>
          <ns3:TrackPointExtension>
            <ns3:hr>127</ns3:hr>
            <ns3:cad>0</ns3:cad>
          </ns3:TrackPointExtension>
        </extensions>
      </trkpt>
      <trkpt lat="37.7812788449227809906005859375" lon="-107.70312574692070484161376953125">
        <ele>3902</ele>
        <time>2023-07-29T15:59:48.000Z</time>
        <extensions>
          <ns3:TrackPointExtension>
            <ns3:hr>127</ns3:hr>
            <ns3:cad>0</ns3:cad>
          </ns3:TrackPointExtension>
        </extensions>
      </trkpt>
      <trkpt lat="37.781279347836971282958984375" lon="-107.7031275071203708648681640625">
        <ele>3902.199951171875</ele>
        <time>2023-07-29T15:59:49.000Z</time>
        <extensions>
          <ns3:TrackPointExtension>
            <ns3:hr>127</ns3:hr>
            <ns3:cad>0</ns3:cad>
          </ns3:TrackPointExtension>
        </extensions>
      </trkpt>
      <trkpt lat="37.78128194622695446014404296875" lon="-107.7031322009861469268798828125">
        <ele>3902.199951171875</ele>
        <time>2023-07-29T15:59:50.000Z</time>
        <extensions>
          <ns3:TrackPointExtension>
            <ns3:hr>127</ns3:hr>
            <ns3:cad>0</ns3:cad>
          </ns3:TrackPointExtension>
        </extensions>
      </trkpt>
      <trkpt lat="37.78128529898822307586669921875" lon="-107.70313513465225696563720703125">
        <ele>3902.39990234375</ele>
        <time>2023-07-29T15:59:51.000Z</time>
        <extensions>
          <ns3:TrackPointExtension>
            <ns3:hr>127</ns3:hr>
            <ns3:cad>0</ns3:cad>
          </ns3:TrackPointExtension>
        </extensions>
      </trkpt>
      <trkpt lat="37.78129351325333118438720703125" lon="-107.70314251072704792022705078125">
        <ele>3902.39990234375</ele>
        <time>2023-07-29T15:59:52.000Z</time>
        <extensions>
          <ns3:TrackPointExtension>
            <ns3:hr>127</ns3:hr>
            <ns3:cad>0</ns3:cad>
          </ns3:TrackPointExtension>
        </extensions>
      </trkpt>
      <trkpt lat="37.7813023142516613006591796875" lon="-107.703148461878299713134765625">
        <ele>3902.60009765625</ele>
        <time>2023-07-29T15:59:53.000Z</time>
        <extensions>
          <ns3:TrackPointExtension>
            <ns3:hr>127</ns3:hr>
            <ns3:cad>0</ns3:cad>
          </ns3:TrackPointExtension>
        </extensions>
      </trkpt>
      <trkpt lat="37.7813127078115940093994140625" lon="-107.7031556703150272369384765625">
        <ele>3902.800048828125</ele>
        <time>2023-07-29T15:59:54.000Z</time>
        <extensions>
          <ns3:TrackPointExtension>
            <ns3:hr>127</ns3:hr>
            <ns3:cad>0</ns3:cad>
          </ns3:TrackPointExtension>
        </extensions>
      </trkpt>
      <trkpt lat="37.78132486157119274139404296875" lon="-107.70316111855208873748779296875">
        <ele>3902.800048828125</ele>
        <time>2023-07-29T15:59:55.000Z</time>
        <extensions>
          <ns3:TrackPointExtension>
            <ns3:hr>126</ns3:hr>
            <ns3:cad>0</ns3:cad>
          </ns3:TrackPointExtension>
        </extensions>
      </trkpt>
      <trkpt lat="37.781340368092060089111328125" lon="-107.7031650580465793609619140625">
        <ele>3903</ele>
        <time>2023-07-29T15:59:56.000Z</time>
        <extensions>
          <ns3:TrackPointExtension>
            <ns3:hr>126</ns3:hr>
            <ns3:cad>0</ns3:cad>
          </ns3:TrackPointExtension>
        </extensions>
      </trkpt>
      <trkpt lat="37.781353108584880828857421875" lon="-107.70316899754106998443603515625">
        <ele>3903.199951171875</ele>
        <time>2023-07-29T15:59:57.000Z</time>
        <extensions>
          <ns3:TrackPointExtension>
            <ns3:hr>126</ns3:hr>
            <ns3:cad>0</ns3:cad>
          </ns3:TrackPointExtension>
        </extensions>
      </trkpt>
      <trkpt lat="37.78137213550508022308349609375" lon="-107.70317838527262210845947265625">
        <ele>3903.199951171875</ele>
        <time>2023-07-29T15:59:58.000Z</time>
        <extensions>
          <ns3:TrackPointExtension>
            <ns3:hr>127</ns3:hr>
            <ns3:cad>0</ns3:cad>
          </ns3:TrackPointExtension>
        </extensions>
      </trkpt>
      <trkpt lat="37.78138370253145694732666015625" lon="-107.70318408496677875518798828125">
        <ele>3903.39990234375</ele>
        <time>2023-07-29T15:59:59.000Z</time>
        <extensions>
          <ns3:TrackPointExtension>
            <ns3:hr>127</ns3:hr>
            <ns3:cad>0</ns3:cad>
          </ns3:TrackPointExtension>
        </extensions>
      </trkpt>
      <trkpt lat="37.78138521127402782440185546875" lon="-107.7031841687858104705810546875">
        <ele>3903.60009765625</ele>
        <time>2023-07-29T16:00:00.000Z</time>
        <extensions>
          <ns3:TrackPointExtension>
            <ns3:hr>127</ns3:hr>
            <ns3:cad>0</ns3:cad>
          </ns3:TrackPointExtension>
        </extensions>
      </trkpt>
      <trkpt lat="37.781394012272357940673828125" lon="-107.703188024461269378662109375">
        <ele>3903.60009765625</ele>
        <time>2023-07-29T16:00:01.000Z</time>
        <extensions>
          <ns3:TrackPointExtension>
            <ns3:hr>127</ns3:hr>
            <ns3:cad>0</ns3:cad>
          </ns3:TrackPointExtension>
        </extensions>
      </trkpt>
      <trkpt lat="37.7813965268433094024658203125" lon="-107.7031898684799671173095703125">
        <ele>3903.800048828125</ele>
        <time>2023-07-29T16:00:02.000Z</time>
        <extensions>
          <ns3:TrackPointExtension>
            <ns3:hr>127</ns3:hr>
            <ns3:cad>0</ns3:cad>
          </ns3:TrackPointExtension>
        </extensions>
      </trkpt>
      <trkpt lat="37.78140482492744922637939453125" lon="-107.703193724155426025390625">
        <ele>3904</ele>
        <time>2023-07-29T16:00:03.000Z</time>
        <extensions>
          <ns3:TrackPointExtension>
            <ns3:hr>127</ns3:hr>
            <ns3:cad>41</ns3:cad>
          </ns3:TrackPointExtension>
        </extensions>
      </trkpt>
      <trkpt lat="37.78141957707703113555908203125" lon="-107.70319665782153606414794921875">
        <ele>3904</ele>
        <time>2023-07-29T16:00:04.000Z</time>
        <extensions>
          <ns3:TrackPointExtension>
            <ns3:hr>127</ns3:hr>
            <ns3:cad>41</ns3:cad>
          </ns3:TrackPointExtension>
        </extensions>
      </trkpt>
      <trkpt lat="37.7814300544559955596923828125" lon="-107.703199423849582672119140625">
        <ele>3904.199951171875</ele>
        <time>2023-07-29T16:00:05.000Z</time>
        <extensions>
          <ns3:TrackPointExtension>
            <ns3:hr>127</ns3:hr>
            <ns3:cad>41</ns3:cad>
          </ns3:TrackPointExtension>
        </extensions>
      </trkpt>
      <trkpt lat="37.7814407832920551300048828125" lon="-107.70320386625826358795166015625">
        <ele>3904.199951171875</ele>
        <time>2023-07-29T16:00:06.000Z</time>
        <extensions>
          <ns3:TrackPointExtension>
            <ns3:hr>126</ns3:hr>
            <ns3:cad>43</ns3:cad>
          </ns3:TrackPointExtension>
        </extensions>
      </trkpt>
      <trkpt lat="37.78144606389105319976806640625" lon="-107.70320780575275421142578125">
        <ele>3904.39990234375</ele>
        <time>2023-07-29T16:00:07.000Z</time>
        <extensions>
          <ns3:TrackPointExtension>
            <ns3:hr>126</ns3:hr>
            <ns3:cad>43</ns3:cad>
          </ns3:TrackPointExtension>
        </extensions>
      </trkpt>
      <trkpt lat="37.7814545296132564544677734375" lon="-107.7032099850475788116455078125">
        <ele>3904.60009765625</ele>
        <time>2023-07-29T16:00:08.000Z</time>
        <extensions>
          <ns3:TrackPointExtension>
            <ns3:hr>126</ns3:hr>
            <ns3:cad>43</ns3:cad>
          </ns3:TrackPointExtension>
        </extensions>
      </trkpt>
      <trkpt lat="37.781463079154491424560546875" lon="-107.70321291871368885040283203125">
        <ele>3904.60009765625</ele>
        <time>2023-07-29T16:00:09.000Z</time>
        <extensions>
          <ns3:TrackPointExtension>
            <ns3:hr>125</ns3:hr>
            <ns3:cad>0</ns3:cad>
          </ns3:TrackPointExtension>
        </extensions>
      </trkpt>
      <trkpt lat="37.78146550990641117095947265625" lon="-107.70321090705692768096923828125">
        <ele>3904.800048828125</ele>
        <time>2023-07-29T16:00:10.000Z</time>
        <extensions>
          <ns3:TrackPointExtension>
            <ns3:hr>125</ns3:hr>
            <ns3:cad>0</ns3:cad>
          </ns3:TrackPointExtension>
        </extensions>
      </trkpt>
      <trkpt lat="37.78147883713245391845703125" lon="-107.7032093144953250885009765625">
        <ele>3905</ele>
        <time>2023-07-29T16:00:11.000Z</time>
        <extensions>
          <ns3:TrackPointExtension>
            <ns3:hr>125</ns3:hr>
            <ns3:cad>0</ns3:cad>
          </ns3:TrackPointExtension>
        </extensions>
      </trkpt>
      <trkpt lat="37.78148780576884746551513671875" lon="-107.7032103203237056732177734375">
        <ele>3905.199951171875</ele>
        <time>2023-07-29T16:00:12.000Z</time>
        <extensions>
          <ns3:TrackPointExtension>
            <ns3:hr>124</ns3:hr>
            <ns3:cad>0</ns3:cad>
          </ns3:TrackPointExtension>
        </extensions>
      </trkpt>
      <trkpt lat="37.781499288976192474365234375" lon="-107.70320788957178592681884765625">
        <ele>3905.199951171875</ele>
        <time>2023-07-29T16:00:13.000Z</time>
        <extensions>
          <ns3:TrackPointExtension>
            <ns3:hr>124</ns3:hr>
            <ns3:cad>0</ns3:cad>
          </ns3:TrackPointExtension>
        </extensions>
      </trkpt>
      <trkpt lat="37.78150792233645915985107421875" lon="-107.7032031118869781494140625">
        <ele>3905.199951171875</ele>
        <time>2023-07-29T16:00:14.000Z</time>
        <extensions>
          <ns3:TrackPointExtension>
            <ns3:hr>124</ns3:hr>
            <ns3:cad>0</ns3:cad>
          </ns3:TrackPointExtension>
        </extensions>
      </trkpt>
      <trkpt lat="37.781512700021266937255859375" lon="-107.70319950766861438751220703125">
        <ele>3905.39990234375</ele>
        <time>2023-07-29T16:00:15.000Z</time>
        <extensions>
          <ns3:TrackPointExtension>
            <ns3:hr>124</ns3:hr>
            <ns3:cad>0</ns3:cad>
          </ns3:TrackPointExtension>
        </extensions>
      </trkpt>
      <trkpt lat="37.7815175615251064300537109375" lon="-107.7031977474689483642578125">
        <ele>3905.39990234375</ele>
        <time>2023-07-29T16:00:16.000Z</time>
        <extensions>
          <ns3:TrackPointExtension>
            <ns3:hr>124</ns3:hr>
            <ns3:cad>0</ns3:cad>
          </ns3:TrackPointExtension>
        </extensions>
      </trkpt>
      <trkpt lat="37.781518399715423583984375" lon="-107.703196071088314056396484375">
        <ele>3905.60009765625</ele>
        <time>2023-07-29T16:00:17.000Z</time>
        <extensions>
          <ns3:TrackPointExtension>
            <ns3:hr>124</ns3:hr>
            <ns3:cad>0</ns3:cad>
          </ns3:TrackPointExtension>
        </extensions>
      </trkpt>
      <trkpt lat="37.78152644634246826171875" lon="-107.70319246686995029449462890625">
        <ele>3905.60009765625</ele>
        <time>2023-07-29T16:00:18.000Z</time>
        <extensions>
          <ns3:TrackPointExtension>
            <ns3:hr>124</ns3:hr>
            <ns3:cad>0</ns3:cad>
          </ns3:TrackPointExtension>
        </extensions>
      </trkpt>
      <trkpt lat="37.7815356664359569549560546875" lon="-107.703188695013523101806640625">
        <ele>3905.800048828125</ele>
        <time>2023-07-29T16:00:19.000Z</time>
        <extensions>
          <ns3:TrackPointExtension>
            <ns3:hr>124</ns3:hr>
            <ns3:cad>0</ns3:cad>
          </ns3:TrackPointExtension>
        </extensions>
      </trkpt>
      <trkpt lat="37.7815457247197628021240234375" lon="-107.70318877883255481719970703125">
        <ele>3906</ele>
        <time>2023-07-29T16:00:20.000Z</time>
        <extensions>
          <ns3:TrackPointExtension>
            <ns3:hr>124</ns3:hr>
            <ns3:cad>0</ns3:cad>
          </ns3:TrackPointExtension>
        </extensions>
      </trkpt>
      <trkpt lat="37.78155930340290069580078125" lon="-107.70318634808063507080078125">
        <ele>3906</ele>
        <time>2023-07-29T16:00:21.000Z</time>
        <extensions>
          <ns3:TrackPointExtension>
            <ns3:hr>124</ns3:hr>
            <ns3:cad>0</ns3:cad>
          </ns3:TrackPointExtension>
        </extensions>
      </trkpt>
      <trkpt lat="37.78156877495348453521728515625" lon="-107.70318475551903247833251953125">
        <ele>3906.199951171875</ele>
        <time>2023-07-29T16:00:22.000Z</time>
        <extensions>
          <ns3:TrackPointExtension>
            <ns3:hr>124</ns3:hr>
            <ns3:cad>0</ns3:cad>
          </ns3:TrackPointExtension>
        </extensions>
      </trkpt>
      <trkpt lat="37.7815758995711803436279296875" lon="-107.70318324677646160125732421875">
        <ele>3906.39990234375</ele>
        <time>2023-07-29T16:00:23.000Z</time>
        <extensions>
          <ns3:TrackPointExtension>
            <ns3:hr>125</ns3:hr>
            <ns3:cad>0</ns3:cad>
          </ns3:TrackPointExtension>
        </extensions>
      </trkpt>
      <trkpt lat="37.781577743589878082275390625" lon="-107.7031824924051761627197265625">
        <ele>3906.39990234375</ele>
        <time>2023-07-29T16:00:24.000Z</time>
        <extensions>
          <ns3:TrackPointExtension>
            <ns3:hr>125</ns3:hr>
            <ns3:cad>0</ns3:cad>
          </ns3:TrackPointExtension>
        </extensions>
      </trkpt>
      <trkpt lat="37.781584449112415313720703125" lon="-107.7031801454722881317138671875">
        <ele>3906.60009765625</ele>
        <time>2023-07-29T16:00:25.000Z</time>
        <extensions>
          <ns3:TrackPointExtension>
            <ns3:hr>125</ns3:hr>
            <ns3:cad>0</ns3:cad>
          </ns3:TrackPointExtension>
        </extensions>
      </trkpt>
      <trkpt lat="37.78159140609204769134521484375" lon="-107.70317788235843181610107421875">
        <ele>3906.800048828125</ele>
        <time>2023-07-29T16:00:26.000Z</time>
        <extensions>
          <ns3:TrackPointExtension>
            <ns3:hr>125</ns3:hr>
            <ns3:cad>0</ns3:cad>
          </ns3:TrackPointExtension>
        </extensions>
      </trkpt>
      <trkpt lat="37.78160221874713897705078125" lon="-107.70317754708230495452880859375">
        <ele>3906.800048828125</ele>
        <time>2023-07-29T16:00:27.000Z</time>
        <extensions>
          <ns3:TrackPointExtension>
            <ns3:hr>125</ns3:hr>
            <ns3:cad>0</ns3:cad>
          </ns3:TrackPointExtension>
        </extensions>
      </trkpt>
      <trkpt lat="37.78161135502159595489501953125" lon="-107.70317905582487583160400390625">
        <ele>3907.199951171875</ele>
        <time>2023-07-29T16:00:28.000Z</time>
        <extensions>
          <ns3:TrackPointExtension>
            <ns3:hr>124</ns3:hr>
            <ns3:cad>0</ns3:cad>
          </ns3:TrackPointExtension>
        </extensions>
      </trkpt>
      <trkpt lat="37.78161789290606975555419921875" lon="-107.70318391732871532440185546875">
        <ele>3907.60009765625</ele>
        <time>2023-07-29T16:00:29.000Z</time>
        <extensions>
          <ns3:TrackPointExtension>
            <ns3:hr>124</ns3:hr>
            <ns3:cad>0</ns3:cad>
          </ns3:TrackPointExtension>
        </extensions>
      </trkpt>
      <trkpt lat="37.78161973692476749420166015625" lon="-107.70318911410868167877197265625">
        <ele>3907.800048828125</ele>
        <time>2023-07-29T16:00:30.000Z</time>
        <extensions>
          <ns3:TrackPointExtension>
            <ns3:hr>124</ns3:hr>
            <ns3:cad>0</ns3:cad>
          </ns3:TrackPointExtension>
        </extensions>
      </trkpt>
      <trkpt lat="37.78162367641925811767578125" lon="-107.70319481380283832550048828125">
        <ele>3907.800048828125</ele>
        <time>2023-07-29T16:00:31.000Z</time>
        <extensions>
          <ns3:TrackPointExtension>
            <ns3:hr>124</ns3:hr>
            <ns3:cad>0</ns3:cad>
          </ns3:TrackPointExtension>
        </extensions>
      </trkpt>
      <trkpt lat="37.7816282026469707489013671875" lon="-107.70320252515375614166259765625">
        <ele>3908</ele>
        <time>2023-07-29T16:00:32.000Z</time>
        <extensions>
          <ns3:TrackPointExtension>
            <ns3:hr>124</ns3:hr>
            <ns3:cad>0</ns3:cad>
          </ns3:TrackPointExtension>
        </extensions>
      </trkpt>
      <trkpt lat="37.78163683600723743438720703125" lon="-107.70320403389632701873779296875">
        <ele>3908.199951171875</ele>
        <time>2023-07-29T16:00:33.000Z</time>
        <extensions>
          <ns3:TrackPointExtension>
            <ns3:hr>124</ns3:hr>
            <ns3:cad>0</ns3:cad>
          </ns3:TrackPointExtension>
        </extensions>
      </trkpt>
      <trkpt lat="37.78164689429104328155517578125" lon="-107.7032062970101833343505859375">
        <ele>3908.39990234375</ele>
        <time>2023-07-29T16:00:34.000Z</time>
        <extensions>
          <ns3:TrackPointExtension>
            <ns3:hr>124</ns3:hr>
            <ns3:cad>0</ns3:cad>
          </ns3:TrackPointExtension>
        </extensions>
      </trkpt>
      <trkpt lat="37.78165209107100963592529296875" lon="-107.703205458819866180419921875">
        <ele>3908.800048828125</ele>
        <time>2023-07-29T16:00:35.000Z</time>
        <extensions>
          <ns3:TrackPointExtension>
            <ns3:hr>124</ns3:hr>
            <ns3:cad>0</ns3:cad>
          </ns3:TrackPointExtension>
        </extensions>
      </trkpt>
      <trkpt lat="37.781656868755817413330078125" lon="-107.70320621319115161895751953125">
        <ele>3908.800048828125</ele>
        <time>2023-07-29T16:00:36.000Z</time>
        <extensions>
          <ns3:TrackPointExtension>
            <ns3:hr>124</ns3:hr>
            <ns3:cad>40</ns3:cad>
          </ns3:TrackPointExtension>
        </extensions>
      </trkpt>
      <trkpt lat="37.7816674299538135528564453125" lon="-107.7032076381146907806396484375">
        <ele>3909.199951171875</ele>
        <time>2023-07-29T16:00:37.000Z</time>
        <extensions>
          <ns3:TrackPointExtension>
            <ns3:hr>124</ns3:hr>
            <ns3:cad>40</ns3:cad>
          </ns3:TrackPointExtension>
        </extensions>
      </trkpt>
      <trkpt lat="37.7816741354763507843017578125" lon="-107.7032089792191982269287109375">
        <ele>3909.199951171875</ele>
        <time>2023-07-29T16:00:38.000Z</time>
        <extensions>
          <ns3:TrackPointExtension>
            <ns3:hr>124</ns3:hr>
            <ns3:cad>0</ns3:cad>
          </ns3:TrackPointExtension>
        </extensions>
      </trkpt>
      <trkpt lat="37.7816865406930446624755859375" lon="-107.70321208052337169647216796875">
        <ele>3909.39990234375</ele>
        <time>2023-07-29T16:00:39.000Z</time>
        <extensions>
          <ns3:TrackPointExtension>
            <ns3:hr>125</ns3:hr>
            <ns3:cad>0</ns3:cad>
          </ns3:TrackPointExtension>
        </extensions>
      </trkpt>
      <trkpt lat="37.7816940844058990478515625" lon="-107.7032156847417354583740234375">
        <ele>3909.60009765625</ele>
        <time>2023-07-29T16:00:40.000Z</time>
        <extensions>
          <ns3:TrackPointExtension>
            <ns3:hr>124</ns3:hr>
            <ns3:cad>0</ns3:cad>
          </ns3:TrackPointExtension>
        </extensions>
      </trkpt>
      <trkpt lat="37.781706489622592926025390625" lon="-107.70321878604590892791748046875">
        <ele>3909.60009765625</ele>
        <time>2023-07-29T16:00:41.000Z</time>
        <extensions>
          <ns3:TrackPointExtension>
            <ns3:hr>124</ns3:hr>
            <ns3:cad>0</ns3:cad>
          </ns3:TrackPointExtension>
        </extensions>
      </trkpt>
      <trkpt lat="37.78171629644930362701416015625" lon="-107.70321878604590892791748046875">
        <ele>3909.800048828125</ele>
        <time>2023-07-29T16:00:42.000Z</time>
        <extensions>
          <ns3:TrackPointExtension>
            <ns3:hr>124</ns3:hr>
            <ns3:cad>0</ns3:cad>
          </ns3:TrackPointExtension>
        </extensions>
      </trkpt>
      <trkpt lat="37.78172484599053859710693359375" lon="-107.70321710966527462005615234375">
        <ele>3909.800048828125</ele>
        <time>2023-07-29T16:00:43.000Z</time>
        <extensions>
          <ns3:TrackPointExtension>
            <ns3:hr>125</ns3:hr>
            <ns3:cad>0</ns3:cad>
          </ns3:TrackPointExtension>
        </extensions>
      </trkpt>
      <trkpt lat="37.78173289261758327484130859375" lon="-107.7032163552939891815185546875">
        <ele>3910</ele>
        <time>2023-07-29T16:00:44.000Z</time>
        <extensions>
          <ns3:TrackPointExtension>
            <ns3:hr>125</ns3:hr>
            <ns3:cad>0</ns3:cad>
          </ns3:TrackPointExtension>
        </extensions>
      </trkpt>
      <trkpt lat="37.7817375026643276214599609375" lon="-107.70321358926594257354736328125">
        <ele>3910.199951171875</ele>
        <time>2023-07-29T16:00:45.000Z</time>
        <extensions>
          <ns3:TrackPointExtension>
            <ns3:hr>125</ns3:hr>
            <ns3:cad>0</ns3:cad>
          </ns3:TrackPointExtension>
        </extensions>
      </trkpt>
      <trkpt lat="37.781746052205562591552734375" lon="-107.70321291871368885040283203125">
        <ele>3910.199951171875</ele>
        <time>2023-07-29T16:00:46.000Z</time>
        <extensions>
          <ns3:TrackPointExtension>
            <ns3:hr>125</ns3:hr>
            <ns3:cad>0</ns3:cad>
          </ns3:TrackPointExtension>
        </extensions>
      </trkpt>
      <trkpt lat="37.7817559428513050079345703125" lon="-107.70321124233305454254150390625">
        <ele>3910.60009765625</ele>
        <time>2023-07-29T16:00:47.000Z</time>
        <extensions>
          <ns3:TrackPointExtension>
            <ns3:hr>125</ns3:hr>
            <ns3:cad>0</ns3:cad>
          </ns3:TrackPointExtension>
        </extensions>
      </trkpt>
      <trkpt lat="37.78176055289804935455322265625" lon="-107.7032093144953250885009765625">
        <ele>3910.800048828125</ele>
        <time>2023-07-29T16:00:48.000Z</time>
        <extensions>
          <ns3:TrackPointExtension>
            <ns3:hr>125</ns3:hr>
            <ns3:cad>0</ns3:cad>
          </ns3:TrackPointExtension>
        </extensions>
      </trkpt>
      <trkpt lat="37.78175904415547847747802734375" lon="-107.70320914685726165771484375">
        <ele>3910.800048828125</ele>
        <time>2023-07-29T16:00:49.000Z</time>
        <extensions>
          <ns3:TrackPointExtension>
            <ns3:hr>125</ns3:hr>
            <ns3:cad>0</ns3:cad>
          </ns3:TrackPointExtension>
        </extensions>
      </trkpt>
      <trkpt lat="37.78176038525998592376708984375" lon="-107.703204452991485595703125">
        <ele>3911</ele>
        <time>2023-07-29T16:00:50.000Z</time>
        <extensions>
          <ns3:TrackPointExtension>
            <ns3:hr>125</ns3:hr>
            <ns3:cad>0</ns3:cad>
          </ns3:TrackPointExtension>
        </extensions>
      </trkpt>
      <trkpt lat="37.78175921179354190826416015625" lon="-107.70320353098213672637939453125">
        <ele>3911.39990234375</ele>
        <time>2023-07-29T16:00:51.000Z</time>
        <extensions>
          <ns3:TrackPointExtension>
            <ns3:hr>126</ns3:hr>
            <ns3:cad>0</ns3:cad>
          </ns3:TrackPointExtension>
        </extensions>
      </trkpt>
      <trkpt lat="37.7817656658589839935302734375" lon="-107.7032016031444072723388671875">
        <ele>3911.39990234375</ele>
        <time>2023-07-29T16:00:52.000Z</time>
        <extensions>
          <ns3:TrackPointExtension>
            <ns3:hr>126</ns3:hr>
            <ns3:cad>0</ns3:cad>
          </ns3:TrackPointExtension>
        </extensions>
      </trkpt>
      <trkpt lat="37.78177211992442607879638671875" lon="-107.70320110023021697998046875">
        <ele>3911.60009765625</ele>
        <time>2023-07-29T16:00:53.000Z</time>
        <extensions>
          <ns3:TrackPointExtension>
            <ns3:hr>126</ns3:hr>
            <ns3:cad>0</ns3:cad>
          </ns3:TrackPointExtension>
        </extensions>
      </trkpt>
      <trkpt lat="37.78177496977150440216064453125" lon="-107.7032031118869781494140625">
        <ele>3911.800048828125</ele>
        <time>2023-07-29T16:00:54.000Z</time>
        <extensions>
          <ns3:TrackPointExtension>
            <ns3:hr>125</ns3:hr>
            <ns3:cad>0</ns3:cad>
          </ns3:TrackPointExtension>
        </extensions>
      </trkpt>
      <trkpt lat="37.7817774005234241485595703125" lon="-107.70320705138146877288818359375">
        <ele>3911.800048828125</ele>
        <time>2023-07-29T16:00:55.000Z</time>
        <extensions>
          <ns3:TrackPointExtension>
            <ns3:hr>125</ns3:hr>
            <ns3:cad>0</ns3:cad>
          </ns3:TrackPointExtension>
        </extensions>
      </trkpt>
      <trkpt lat="37.781782262027263641357421875" lon="-107.7032084763050079345703125">
        <ele>3912.199951171875</ele>
        <time>2023-07-29T16:00:56.000Z</time>
        <extensions>
          <ns3:TrackPointExtension>
            <ns3:hr>125</ns3:hr>
            <ns3:cad>0</ns3:cad>
          </ns3:TrackPointExtension>
        </extensions>
      </trkpt>
      <trkpt lat="37.78178787790238857269287109375" lon="-107.70321241579949855804443359375">
        <ele>3912.39990234375</ele>
        <time>2023-07-29T16:00:57.000Z</time>
        <extensions>
          <ns3:TrackPointExtension>
            <ns3:hr>125</ns3:hr>
            <ns3:cad>0</ns3:cad>
          </ns3:TrackPointExtension>
        </extensions>
      </trkpt>
      <trkpt lat="37.7817951701581478118896484375" lon="-107.70321409218013286590576171875">
        <ele>3912.39990234375</ele>
        <time>2023-07-29T16:00:58.000Z</time>
        <extensions>
          <ns3:TrackPointExtension>
            <ns3:hr>124</ns3:hr>
            <ns3:cad>0</ns3:cad>
          </ns3:TrackPointExtension>
        </extensions>
      </trkpt>
      <trkpt lat="37.7818109281361103057861328125" lon="-107.70321786403656005859375">
        <ele>3912.39990234375</ele>
        <time>2023-07-29T16:00:59.000Z</time>
        <extensions>
          <ns3:TrackPointExtension>
            <ns3:hr>124</ns3:hr>
            <ns3:cad>0</ns3:cad>
          </ns3:TrackPointExtension>
        </extensions>
      </trkpt>
      <trkpt lat="37.78181620873510837554931640625" lon="-107.7032170258462429046630859375">
        <ele>3912.60009765625</ele>
        <time>2023-07-29T16:01:00.000Z</time>
        <extensions>
          <ns3:TrackPointExtension>
            <ns3:hr>124</ns3:hr>
            <ns3:cad>0</ns3:cad>
          </ns3:TrackPointExtension>
        </extensions>
      </trkpt>
      <trkpt lat="37.7818219922482967376708984375" lon="-107.7032136730849742889404296875">
        <ele>3912.800048828125</ele>
        <time>2023-07-29T16:01:01.000Z</time>
        <extensions>
          <ns3:TrackPointExtension>
            <ns3:hr>124</ns3:hr>
            <ns3:cad>0</ns3:cad>
          </ns3:TrackPointExtension>
        </extensions>
      </trkpt>
      <trkpt lat="37.78182676993310451507568359375" lon="-107.70321107469499111175537109375">
        <ele>3913</ele>
        <time>2023-07-29T16:01:02.000Z</time>
        <extensions>
          <ns3:TrackPointExtension>
            <ns3:hr>124</ns3:hr>
            <ns3:cad>0</ns3:cad>
          </ns3:TrackPointExtension>
        </extensions>
      </trkpt>
      <trkpt lat="37.781833894550800323486328125" lon="-107.70320939831435680389404296875">
        <ele>3913.199951171875</ele>
        <time>2023-07-29T16:01:03.000Z</time>
        <extensions>
          <ns3:TrackPointExtension>
            <ns3:hr>124</ns3:hr>
            <ns3:cad>0</ns3:cad>
          </ns3:TrackPointExtension>
        </extensions>
      </trkpt>
      <trkpt lat="37.78184487484395503997802734375" lon="-107.70320755429565906524658203125">
        <ele>3913.39990234375</ele>
        <time>2023-07-29T16:01:04.000Z</time>
        <extensions>
          <ns3:TrackPointExtension>
            <ns3:hr>124</ns3:hr>
            <ns3:cad>0</ns3:cad>
          </ns3:TrackPointExtension>
        </extensions>
      </trkpt>
      <trkpt lat="37.78184554539620876312255859375" lon="-107.70320654846727848052978515625">
        <ele>3913.60009765625</ele>
        <time>2023-07-29T16:01:05.000Z</time>
        <extensions>
          <ns3:TrackPointExtension>
            <ns3:hr>124</ns3:hr>
            <ns3:cad>70</ns3:cad>
          </ns3:TrackPointExtension>
        </extensions>
      </trkpt>
      <trkpt lat="37.78185174800455570220947265625" lon="-107.70320638082921504974365234375">
        <ele>3913.800048828125</ele>
        <time>2023-07-29T16:01:06.000Z</time>
        <extensions>
          <ns3:TrackPointExtension>
            <ns3:hr>124</ns3:hr>
            <ns3:cad>70</ns3:cad>
          </ns3:TrackPointExtension>
        </extensions>
      </trkpt>
      <trkpt lat="37.78185577131807804107666015625" lon="-107.703208141028881072998046875">
        <ele>3914</ele>
        <time>2023-07-29T16:01:07.000Z</time>
        <extensions>
          <ns3:TrackPointExtension>
            <ns3:hr>124</ns3:hr>
            <ns3:cad>70</ns3:cad>
          </ns3:TrackPointExtension>
        </extensions>
      </trkpt>
      <trkpt lat="37.78185845352709293365478515625" lon="-107.7032096497714519500732421875">
        <ele>3914</ele>
        <time>2023-07-29T16:01:08.000Z</time>
        <extensions>
          <ns3:TrackPointExtension>
            <ns3:hr>124</ns3:hr>
            <ns3:cad>70</ns3:cad>
          </ns3:TrackPointExtension>
        </extensions>
      </trkpt>
      <trkpt lat="37.78186365030705928802490234375" lon="-107.70321342162787914276123046875">
        <ele>3914</ele>
        <time>2023-07-29T16:01:09.000Z</time>
        <extensions>
          <ns3:TrackPointExtension>
            <ns3:hr>124</ns3:hr>
            <ns3:cad>41</ns3:cad>
          </ns3:TrackPointExtension>
        </extensions>
      </trkpt>
      <trkpt lat="37.7818739600479602813720703125" lon="-107.70321677438914775848388671875">
        <ele>3914.39990234375</ele>
        <time>2023-07-29T16:01:10.000Z</time>
        <extensions>
          <ns3:TrackPointExtension>
            <ns3:hr>124</ns3:hr>
            <ns3:cad>41</ns3:cad>
          </ns3:TrackPointExtension>
        </extensions>
      </trkpt>
      <trkpt lat="37.78188385069370269775390625" lon="-107.703220546245574951171875">
        <ele>3914.39990234375</ele>
        <time>2023-07-29T16:01:11.000Z</time>
        <extensions>
          <ns3:TrackPointExtension>
            <ns3:hr>123</ns3:hr>
            <ns3:cad>41</ns3:cad>
          </ns3:TrackPointExtension>
        </extensions>
      </trkpt>
      <trkpt lat="37.7818924002349376678466796875" lon="-107.70322532393038272857666015625">
        <ele>3914.60009765625</ele>
        <time>2023-07-29T16:01:12.000Z</time>
        <extensions>
          <ns3:TrackPointExtension>
            <ns3:hr>123</ns3:hr>
            <ns3:cad>0</ns3:cad>
          </ns3:TrackPointExtension>
        </extensions>
      </trkpt>
      <trkpt lat="37.78189298696815967559814453125" lon="-107.70322716794908046722412109375">
        <ele>3914.800048828125</ele>
        <time>2023-07-29T16:01:13.000Z</time>
        <extensions>
          <ns3:TrackPointExtension>
            <ns3:hr>124</ns3:hr>
            <ns3:cad>0</ns3:cad>
          </ns3:TrackPointExtension>
        </extensions>
      </trkpt>
      <trkpt lat="37.781893573701381683349609375" lon="-107.70322867669165134429931640625">
        <ele>3915</ele>
        <time>2023-07-29T16:01:14.000Z</time>
        <extensions>
          <ns3:TrackPointExtension>
            <ns3:hr>125</ns3:hr>
            <ns3:cad>0</ns3:cad>
          </ns3:TrackPointExtension>
        </extensions>
      </trkpt>
      <trkpt lat="37.78189768083393573760986328125" lon="-107.70322800613939762115478515625">
        <ele>3915.199951171875</ele>
        <time>2023-07-29T16:01:15.000Z</time>
        <extensions>
          <ns3:TrackPointExtension>
            <ns3:hr>125</ns3:hr>
            <ns3:cad>0</ns3:cad>
          </ns3:TrackPointExtension>
        </extensions>
      </trkpt>
      <trkpt lat="37.78190254233777523040771484375" lon="-107.70322666503489017486572265625">
        <ele>3915.39990234375</ele>
        <time>2023-07-29T16:01:16.000Z</time>
        <extensions>
          <ns3:TrackPointExtension>
            <ns3:hr>126</ns3:hr>
            <ns3:cad>0</ns3:cad>
          </ns3:TrackPointExtension>
        </extensions>
      </trkpt>
      <trkpt lat="37.78190933167934417724609375" lon="-107.7032311074435710906982421875">
        <ele>3915.39990234375</ele>
        <time>2023-07-29T16:01:17.000Z</time>
        <extensions>
          <ns3:TrackPointExtension>
            <ns3:hr>126</ns3:hr>
            <ns3:cad>0</ns3:cad>
          </ns3:TrackPointExtension>
        </extensions>
      </trkpt>
      <trkpt lat="37.78191846795380115509033203125" lon="-107.7032337896525859832763671875">
        <ele>3915.60009765625</ele>
        <time>2023-07-29T16:01:18.000Z</time>
        <extensions>
          <ns3:TrackPointExtension>
            <ns3:hr>127</ns3:hr>
            <ns3:cad>0</ns3:cad>
          </ns3:TrackPointExtension>
        </extensions>
      </trkpt>
      <trkpt lat="37.78193078935146331787109375" lon="-107.70323932170867919921875">
        <ele>3915.800048828125</ele>
        <time>2023-07-29T16:01:19.000Z</time>
        <extensions>
          <ns3:TrackPointExtension>
            <ns3:hr>128</ns3:hr>
            <ns3:cad>0</ns3:cad>
          </ns3:TrackPointExtension>
        </extensions>
      </trkpt>
      <trkpt lat="37.78193741105496883392333984375" lon="-107.70324041135609149932861328125">
        <ele>3916</ele>
        <time>2023-07-29T16:01:20.000Z</time>
        <extensions>
          <ns3:TrackPointExtension>
            <ns3:hr>129</ns3:hr>
            <ns3:cad>71</ns3:cad>
          </ns3:TrackPointExtension>
        </extensions>
      </trkpt>
      <trkpt lat="37.7819383330643177032470703125" lon="-107.7032428421080112457275390625">
        <ele>3916</ele>
        <time>2023-07-29T16:01:21.000Z</time>
        <extensions>
          <ns3:TrackPointExtension>
            <ns3:hr>129</ns3:hr>
            <ns3:cad>71</ns3:cad>
          </ns3:TrackPointExtension>
        </extensions>
      </trkpt>
      <trkpt lat="37.78194210492074489593505859375" lon="-107.7032428421080112457275390625">
        <ele>3916.199951171875</ele>
        <time>2023-07-29T16:01:22.000Z</time>
        <extensions>
          <ns3:TrackPointExtension>
            <ns3:hr>130</ns3:hr>
            <ns3:cad>71</ns3:cad>
          </ns3:TrackPointExtension>
        </extensions>
      </trkpt>
      <trkpt lat="37.78195920400321483612060546875" lon="-107.70324669778347015380859375">
        <ele>3916.39990234375</ele>
        <time>2023-07-29T16:01:23.000Z</time>
        <extensions>
          <ns3:TrackPointExtension>
            <ns3:hr>130</ns3:hr>
            <ns3:cad>71</ns3:cad>
          </ns3:TrackPointExtension>
        </extensions>
      </trkpt>
      <trkpt lat="37.781968675553798675537109375" lon="-107.7032448537647724151611328125">
        <ele>3916.60009765625</ele>
        <time>2023-07-29T16:01:24.000Z</time>
        <extensions>
          <ns3:TrackPointExtension>
            <ns3:hr>130</ns3:hr>
            <ns3:cad>62</ns3:cad>
          </ns3:TrackPointExtension>
        </extensions>
      </trkpt>
      <trkpt lat="37.78197714127600193023681640625" lon="-107.703243680298328399658203125">
        <ele>3916.60009765625</ele>
        <time>2023-07-29T16:01:25.000Z</time>
        <extensions>
          <ns3:TrackPointExtension>
            <ns3:hr>129</ns3:hr>
            <ns3:cad>62</ns3:cad>
          </ns3:TrackPointExtension>
        </extensions>
      </trkpt>
      <trkpt lat="37.78198116458952426910400390625" lon="-107.703244686126708984375">
        <ele>3917</ele>
        <time>2023-07-29T16:01:26.000Z</time>
        <extensions>
          <ns3:TrackPointExtension>
            <ns3:hr>129</ns3:hr>
            <ns3:cad>62</ns3:cad>
          </ns3:TrackPointExtension>
        </extensions>
      </trkpt>
      <trkpt lat="37.781980745494365692138671875" lon="-107.703246362507343292236328125">
        <ele>3917.199951171875</ele>
        <time>2023-07-29T16:01:27.000Z</time>
        <extensions>
          <ns3:TrackPointExtension>
            <ns3:hr>129</ns3:hr>
            <ns3:cad>0</ns3:cad>
          </ns3:TrackPointExtension>
        </extensions>
      </trkpt>
      <trkpt lat="37.7819899655878543853759765625" lon="-107.70324937999248504638671875">
        <ele>3917.39990234375</ele>
        <time>2023-07-29T16:01:28.000Z</time>
        <extensions>
          <ns3:TrackPointExtension>
            <ns3:hr>129</ns3:hr>
            <ns3:cad>0</ns3:cad>
          </ns3:TrackPointExtension>
        </extensions>
      </trkpt>
      <trkpt lat="37.782000191509723663330078125" lon="-107.70325147546827793121337890625">
        <ele>3917.60009765625</ele>
        <time>2023-07-29T16:01:29.000Z</time>
        <extensions>
          <ns3:TrackPointExtension>
            <ns3:hr>129</ns3:hr>
            <ns3:cad>0</ns3:cad>
          </ns3:TrackPointExtension>
        </extensions>
      </trkpt>
      <trkpt lat="37.7820025384426116943359375" lon="-107.70325164310634136199951171875">
        <ele>3917.800048828125</ele>
        <time>2023-07-29T16:01:30.000Z</time>
        <extensions>
          <ns3:TrackPointExtension>
            <ns3:hr>129</ns3:hr>
            <ns3:cad>0</ns3:cad>
          </ns3:TrackPointExtension>
        </extensions>
      </trkpt>
      <trkpt lat="37.78200681321322917938232421875" lon="-107.70325147546827793121337890625">
        <ele>3918.199951171875</ele>
        <time>2023-07-29T16:01:31.000Z</time>
        <extensions>
          <ns3:TrackPointExtension>
            <ns3:hr>130</ns3:hr>
            <ns3:cad>0</ns3:cad>
          </ns3:TrackPointExtension>
        </extensions>
      </trkpt>
      <trkpt lat="37.78201117180287837982177734375" lon="-107.70325080491602420806884765625">
        <ele>3918.199951171875</ele>
        <time>2023-07-29T16:01:32.000Z</time>
        <extensions>
          <ns3:TrackPointExtension>
            <ns3:hr>130</ns3:hr>
            <ns3:cad>0</ns3:cad>
          </ns3:TrackPointExtension>
        </extensions>
      </trkpt>
      <trkpt lat="37.78201636858284473419189453125" lon="-107.70325063727796077728271484375">
        <ele>3918.60009765625</ele>
        <time>2023-07-29T16:01:33.000Z</time>
        <extensions>
          <ns3:TrackPointExtension>
            <ns3:hr>131</ns3:hr>
            <ns3:cad>0</ns3:cad>
          </ns3:TrackPointExtension>
        </extensions>
      </trkpt>
      <trkpt lat="37.7820288576185703277587890625" lon="-107.70325164310634136199951171875">
        <ele>3918.60009765625</ele>
        <time>2023-07-29T16:01:34.000Z</time>
        <extensions>
          <ns3:TrackPointExtension>
            <ns3:hr>131</ns3:hr>
            <ns3:cad>0</ns3:cad>
          </ns3:TrackPointExtension>
        </extensions>
      </trkpt>
      <trkpt lat="37.78203313238918781280517578125" lon="-107.70325231365859508514404296875">
        <ele>3918.800048828125</ele>
        <time>2023-07-29T16:01:35.000Z</time>
        <extensions>
          <ns3:TrackPointExtension>
            <ns3:hr>132</ns3:hr>
            <ns3:cad>0</ns3:cad>
          </ns3:TrackPointExtension>
        </extensions>
      </trkpt>
      <trkpt lat="37.78204067610204219818115234375" lon="-107.70325516350567340850830078125">
        <ele>3918.800048828125</ele>
        <time>2023-07-29T16:01:36.000Z</time>
        <extensions>
          <ns3:TrackPointExtension>
            <ns3:hr>132</ns3:hr>
            <ns3:cad>0</ns3:cad>
          </ns3:TrackPointExtension>
        </extensions>
      </trkpt>
      <trkpt lat="37.78204855509102344512939453125" lon="-107.7032572589814662933349609375">
        <ele>3919</ele>
        <time>2023-07-29T16:01:37.000Z</time>
        <extensions>
          <ns3:TrackPointExtension>
            <ns3:hr>132</ns3:hr>
            <ns3:cad>0</ns3:cad>
          </ns3:TrackPointExtension>
        </extensions>
      </trkpt>
      <trkpt lat="37.782057188451290130615234375" lon="-107.70325767807662487030029296875">
        <ele>3919.199951171875</ele>
        <time>2023-07-29T16:01:38.000Z</time>
        <extensions>
          <ns3:TrackPointExtension>
            <ns3:hr>132</ns3:hr>
            <ns3:cad>0</ns3:cad>
          </ns3:TrackPointExtension>
        </extensions>
      </trkpt>
      <trkpt lat="37.7820642292499542236328125" lon="-107.703259773552417755126953125">
        <ele>3919.39990234375</ele>
        <time>2023-07-29T16:01:39.000Z</time>
        <extensions>
          <ns3:TrackPointExtension>
            <ns3:hr>132</ns3:hr>
            <ns3:cad>0</ns3:cad>
          </ns3:TrackPointExtension>
        </extensions>
      </trkpt>
      <trkpt lat="37.7820737846195697784423828125" lon="-107.70326404832303524017333984375">
        <ele>3919.60009765625</ele>
        <time>2023-07-29T16:01:40.000Z</time>
        <extensions>
          <ns3:TrackPointExtension>
            <ns3:hr>132</ns3:hr>
            <ns3:cad>0</ns3:cad>
          </ns3:TrackPointExtension>
        </extensions>
      </trkpt>
      <trkpt lat="37.78207235969603061676025390625" lon="-107.70326538942754268646240234375">
        <ele>3919.800048828125</ele>
        <time>2023-07-29T16:01:41.000Z</time>
        <extensions>
          <ns3:TrackPointExtension>
            <ns3:hr>133</ns3:hr>
            <ns3:cad>0</ns3:cad>
          </ns3:TrackPointExtension>
        </extensions>
      </trkpt>
      <trkpt lat="37.78208258561789989471435546875" lon="-107.70327243022620677947998046875">
        <ele>3920</ele>
        <time>2023-07-29T16:01:42.000Z</time>
        <extensions>
          <ns3:TrackPointExtension>
            <ns3:hr>132</ns3:hr>
            <ns3:cad>0</ns3:cad>
          </ns3:TrackPointExtension>
        </extensions>
      </trkpt>
      <trkpt lat="37.78209314681589603424072265625" lon="-107.70327888429164886474609375">
        <ele>3920.199951171875</ele>
        <time>2023-07-29T16:01:43.000Z</time>
        <extensions>
          <ns3:TrackPointExtension>
            <ns3:hr>132</ns3:hr>
            <ns3:cad>0</ns3:cad>
          </ns3:TrackPointExtension>
        </extensions>
      </trkpt>
      <trkpt lat="37.78210203163325786590576171875" lon="-107.70328282378613948822021484375">
        <ele>3920.199951171875</ele>
        <time>2023-07-29T16:01:44.000Z</time>
        <extensions>
          <ns3:TrackPointExtension>
            <ns3:hr>132</ns3:hr>
            <ns3:cad>0</ns3:cad>
          </ns3:TrackPointExtension>
        </extensions>
      </trkpt>
      <trkpt lat="37.78211007826030254364013671875" lon="-107.70328651182353496551513671875">
        <ele>3920.39990234375</ele>
        <time>2023-07-29T16:01:45.000Z</time>
        <extensions>
          <ns3:TrackPointExtension>
            <ns3:hr>133</ns3:hr>
            <ns3:cad>0</ns3:cad>
          </ns3:TrackPointExtension>
        </extensions>
      </trkpt>
      <trkpt lat="37.78211116790771484375" lon="-107.7032870985567569732666015625">
        <ele>3920.39990234375</ele>
        <time>2023-07-29T16:01:46.000Z</time>
        <extensions>
          <ns3:TrackPointExtension>
            <ns3:hr>133</ns3:hr>
            <ns3:cad>0</ns3:cad>
          </ns3:TrackPointExtension>
        </extensions>
      </trkpt>
      <trkpt lat="37.78211493976414203643798828125" lon="-107.70328718237578868865966796875">
        <ele>3920.60009765625</ele>
        <time>2023-07-29T16:01:47.000Z</time>
        <extensions>
          <ns3:TrackPointExtension>
            <ns3:hr>132</ns3:hr>
            <ns3:cad>0</ns3:cad>
          </ns3:TrackPointExtension>
        </extensions>
      </trkpt>
      <trkpt lat="37.78211728669703006744384765625" lon="-107.7032887749373912811279296875">
        <ele>3920.800048828125</ele>
        <time>2023-07-29T16:01:48.000Z</time>
        <extensions>
          <ns3:TrackPointExtension>
            <ns3:hr>132</ns3:hr>
            <ns3:cad>0</ns3:cad>
          </ns3:TrackPointExtension>
        </extensions>
      </trkpt>
      <trkpt lat="37.7821197174489498138427734375" lon="-107.70329103805124759674072265625">
        <ele>3921</ele>
        <time>2023-07-29T16:01:49.000Z</time>
        <extensions>
          <ns3:TrackPointExtension>
            <ns3:hr>131</ns3:hr>
            <ns3:cad>0</ns3:cad>
          </ns3:TrackPointExtension>
        </extensions>
      </trkpt>
      <trkpt lat="37.7821257524192333221435546875" lon="-107.70329539664089679718017578125">
        <ele>3921.199951171875</ele>
        <time>2023-07-29T16:01:50.000Z</time>
        <extensions>
          <ns3:TrackPointExtension>
            <ns3:hr>131</ns3:hr>
            <ns3:cad>0</ns3:cad>
          </ns3:TrackPointExtension>
        </extensions>
      </trkpt>
      <trkpt lat="37.782132960855960845947265625" lon="-107.70329975523054599761962890625">
        <ele>3921.39990234375</ele>
        <time>2023-07-29T16:01:51.000Z</time>
        <extensions>
          <ns3:TrackPointExtension>
            <ns3:hr>131</ns3:hr>
            <ns3:cad>0</ns3:cad>
          </ns3:TrackPointExtension>
        </extensions>
      </trkpt>
      <trkpt lat="37.78213857673108577728271484375" lon="-107.7033015154302120208740234375">
        <ele>3921.39990234375</ele>
        <time>2023-07-29T16:01:52.000Z</time>
        <extensions>
          <ns3:TrackPointExtension>
            <ns3:hr>131</ns3:hr>
            <ns3:cad>0</ns3:cad>
          </ns3:TrackPointExtension>
        </extensions>
      </trkpt>
      <trkpt lat="37.78214327059686183929443359375" lon="-107.7033052034676074981689453125">
        <ele>3922</ele>
        <time>2023-07-29T16:01:53.000Z</time>
        <extensions>
          <ns3:TrackPointExtension>
            <ns3:hr>131</ns3:hr>
            <ns3:cad>0</ns3:cad>
          </ns3:TrackPointExtension>
        </extensions>
      </trkpt>
      <trkpt lat="37.78214829973876476287841796875" lon="-107.703309394419193267822265625">
        <ele>3922</ele>
        <time>2023-07-29T16:01:54.000Z</time>
        <extensions>
          <ns3:TrackPointExtension>
            <ns3:hr>130</ns3:hr>
            <ns3:cad>0</ns3:cad>
          </ns3:TrackPointExtension>
        </extensions>
      </trkpt>
      <trkpt lat="37.78215316124260425567626953125" lon="-107.703311406075954437255859375">
        <ele>3922</ele>
        <time>2023-07-29T16:01:55.000Z</time>
        <extensions>
          <ns3:TrackPointExtension>
            <ns3:hr>129</ns3:hr>
            <ns3:cad>0</ns3:cad>
          </ns3:TrackPointExtension>
        </extensions>
      </trkpt>
      <trkpt lat="37.7821586094796657562255859375" lon="-107.70331618376076221466064453125">
        <ele>3922.199951171875</ele>
        <time>2023-07-29T16:01:56.000Z</time>
        <extensions>
          <ns3:TrackPointExtension>
            <ns3:hr>128</ns3:hr>
            <ns3:cad>0</ns3:cad>
          </ns3:TrackPointExtension>
        </extensions>
      </trkpt>
      <trkpt lat="37.782156430184841156005859375" lon="-107.7033152617514133453369140625">
        <ele>3922.199951171875</ele>
        <time>2023-07-29T16:01:57.000Z</time>
        <extensions>
          <ns3:TrackPointExtension>
            <ns3:hr>125</ns3:hr>
            <ns3:cad>0</ns3:cad>
          </ns3:TrackPointExtension>
        </extensions>
      </trkpt>
      <trkpt lat="37.7821616269648075103759765625" lon="-107.7033211290836334228515625">
        <ele>3922.60009765625</ele>
        <time>2023-07-29T16:01:58.000Z</time>
        <extensions>
          <ns3:TrackPointExtension>
            <ns3:hr>125</ns3:hr>
            <ns3:cad>0</ns3:cad>
          </ns3:TrackPointExtension>
        </extensions>
      </trkpt>
      <trkpt lat="37.78216506354510784149169921875" lon="-107.70332188345491886138916015625">
        <ele>3922.60009765625</ele>
        <time>2023-07-29T16:01:59.000Z</time>
        <extensions>
          <ns3:TrackPointExtension>
            <ns3:hr>125</ns3:hr>
            <ns3:cad>0</ns3:cad>
          </ns3:TrackPointExtension>
        </extensions>
      </trkpt>
      <trkpt lat="37.7821767143905162811279296875" lon="-107.7033291757106781005859375">
        <ele>3922.800048828125</ele>
        <time>2023-07-29T16:02:00.000Z</time>
        <extensions>
          <ns3:TrackPointExtension>
            <ns3:hr>125</ns3:hr>
            <ns3:cad>0</ns3:cad>
          </ns3:TrackPointExtension>
        </extensions>
      </trkpt>
      <trkpt lat="37.78218333609402179718017578125" lon="-107.70333412103354930877685546875">
        <ele>3923</ele>
        <time>2023-07-29T16:02:01.000Z</time>
        <extensions>
          <ns3:TrackPointExtension>
            <ns3:hr>125</ns3:hr>
            <ns3:cad>0</ns3:cad>
          </ns3:TrackPointExtension>
        </extensions>
      </trkpt>
      <trkpt lat="37.7821914665400981903076171875" lon="-107.70334049127995967864990234375">
        <ele>3923.199951171875</ele>
        <time>2023-07-29T16:02:02.000Z</time>
        <extensions>
          <ns3:TrackPointExtension>
            <ns3:hr>125</ns3:hr>
            <ns3:cad>0</ns3:cad>
          </ns3:TrackPointExtension>
        </extensions>
      </trkpt>
      <trkpt lat="37.782195322215557098388671875" lon="-107.7033430896699428558349609375">
        <ele>3923.60009765625</ele>
        <time>2023-07-29T16:02:03.000Z</time>
        <extensions>
          <ns3:TrackPointExtension>
            <ns3:hr>125</ns3:hr>
            <ns3:cad>66</ns3:cad>
          </ns3:TrackPointExtension>
        </extensions>
      </trkpt>
      <trkpt lat="37.782198004424571990966796875" lon="-107.7033451013267040252685546875">
        <ele>3923.60009765625</ele>
        <time>2023-07-29T16:02:04.000Z</time>
        <extensions>
          <ns3:TrackPointExtension>
            <ns3:hr>124</ns3:hr>
            <ns3:cad>66</ns3:cad>
          </ns3:TrackPointExtension>
        </extensions>
      </trkpt>
      <trkpt lat="37.78220261447131633758544921875" lon="-107.70334417931735515594482421875">
        <ele>3923.60009765625</ele>
        <time>2023-07-29T16:02:05.000Z</time>
        <extensions>
          <ns3:TrackPointExtension>
            <ns3:hr>124</ns3:hr>
            <ns3:cad>66</ns3:cad>
          </ns3:TrackPointExtension>
        </extensions>
      </trkpt>
      <trkpt lat="37.7822038717567920684814453125" lon="-107.70334635861217975616455078125">
        <ele>3923.800048828125</ele>
        <time>2023-07-29T16:02:06.000Z</time>
        <extensions>
          <ns3:TrackPointExtension>
            <ns3:hr>124</ns3:hr>
            <ns3:cad>66</ns3:cad>
          </ns3:TrackPointExtension>
        </extensions>
      </trkpt>
      <trkpt lat="37.78221133165061473846435546875" lon="-107.7033497951924800872802734375">
        <ele>3924</ele>
        <time>2023-07-29T16:02:07.000Z</time>
        <extensions>
          <ns3:TrackPointExtension>
            <ns3:hr>124</ns3:hr>
            <ns3:cad>0</ns3:cad>
          </ns3:TrackPointExtension>
        </extensions>
      </trkpt>
      <trkpt lat="37.78221166692674160003662109375" lon="-107.70335088483989238739013671875">
        <ele>3924.39990234375</ele>
        <time>2023-07-29T16:02:08.000Z</time>
        <extensions>
          <ns3:TrackPointExtension>
            <ns3:hr>124</ns3:hr>
            <ns3:cad>0</ns3:cad>
          </ns3:TrackPointExtension>
        </extensions>
      </trkpt>
      <trkpt lat="37.78221317566931247711181640625" lon="-107.7033528126776218414306640625">
        <ele>3924.39990234375</ele>
        <time>2023-07-29T16:02:09.000Z</time>
        <extensions>
          <ns3:TrackPointExtension>
            <ns3:hr>124</ns3:hr>
            <ns3:cad>0</ns3:cad>
          </ns3:TrackPointExtension>
        </extensions>
      </trkpt>
      <trkpt lat="37.7822132594883441925048828125" lon="-107.7033548243343830108642578125">
        <ele>3924.60009765625</ele>
        <time>2023-07-29T16:02:10.000Z</time>
        <extensions>
          <ns3:TrackPointExtension>
            <ns3:hr>126</ns3:hr>
            <ns3:cad>0</ns3:cad>
          </ns3:TrackPointExtension>
        </extensions>
      </trkpt>
      <trkpt lat="37.78221954591572284698486328125" lon="-107.7033585123717784881591796875">
        <ele>3925</ele>
        <time>2023-07-29T16:02:11.000Z</time>
        <extensions>
          <ns3:TrackPointExtension>
            <ns3:hr>126</ns3:hr>
            <ns3:cad>0</ns3:cad>
          </ns3:TrackPointExtension>
        </extensions>
      </trkpt>
      <trkpt lat="37.7822270058095455169677734375" lon="-107.7033667266368865966796875">
        <ele>3925</ele>
        <time>2023-07-29T16:02:12.000Z</time>
        <extensions>
          <ns3:TrackPointExtension>
            <ns3:hr>127</ns3:hr>
            <ns3:cad>0</ns3:cad>
          </ns3:TrackPointExtension>
        </extensions>
      </trkpt>
      <trkpt lat="37.7822278439998626708984375" lon="-107.7033729292452335357666015625">
        <ele>3925</ele>
        <time>2023-07-29T16:02:13.000Z</time>
        <extensions>
          <ns3:TrackPointExtension>
            <ns3:hr>128</ns3:hr>
            <ns3:cad>0</ns3:cad>
          </ns3:TrackPointExtension>
        </extensions>
      </trkpt>
      <trkpt lat="37.78223362751305103302001953125" lon="-107.70338424481451511383056640625">
        <ele>3925.199951171875</ele>
        <time>2023-07-29T16:02:14.000Z</time>
        <extensions>
          <ns3:TrackPointExtension>
            <ns3:hr>129</ns3:hr>
            <ns3:cad>0</ns3:cad>
          </ns3:TrackPointExtension>
        </extensions>
      </trkpt>
      <trkpt lat="37.78223999775946140289306640625" lon="-107.7033900283277034759521484375">
        <ele>3925.39990234375</ele>
        <time>2023-07-29T16:02:15.000Z</time>
        <extensions>
          <ns3:TrackPointExtension>
            <ns3:hr>130</ns3:hr>
            <ns3:cad>44</ns3:cad>
          </ns3:TrackPointExtension>
        </extensions>
      </trkpt>
      <trkpt lat="37.78225609101355075836181640625" lon="-107.70340201444923877716064453125">
        <ele>3925.39990234375</ele>
        <time>2023-07-29T16:02:16.000Z</time>
        <extensions>
          <ns3:TrackPointExtension>
            <ns3:hr>130</ns3:hr>
            <ns3:cad>44</ns3:cad>
          </ns3:TrackPointExtension>
        </extensions>
      </trkpt>
      <trkpt lat="37.78226472437381744384765625" lon="-107.703405283391475677490234375">
        <ele>3925.39990234375</ele>
        <time>2023-07-29T16:02:17.000Z</time>
        <extensions>
          <ns3:TrackPointExtension>
            <ns3:hr>130</ns3:hr>
            <ns3:cad>44</ns3:cad>
          </ns3:TrackPointExtension>
        </extensions>
      </trkpt>
      <trkpt lat="37.78227302245795726776123046875" lon="-107.70341089926660060882568359375">
        <ele>3925.39990234375</ele>
        <time>2023-07-29T16:02:18.000Z</time>
        <extensions>
          <ns3:TrackPointExtension>
            <ns3:hr>130</ns3:hr>
            <ns3:cad>44</ns3:cad>
          </ns3:TrackPointExtension>
        </extensions>
      </trkpt>
      <trkpt lat="37.78227545320987701416015625" lon="-107.70341207273304462432861328125">
        <ele>3925.60009765625</ele>
        <time>2023-07-29T16:02:19.000Z</time>
        <extensions>
          <ns3:TrackPointExtension>
            <ns3:hr>130</ns3:hr>
            <ns3:cad>44</ns3:cad>
          </ns3:TrackPointExtension>
        </extensions>
      </trkpt>
      <trkpt lat="37.78228073380887508392333984375" lon="-107.70341240800917148590087890625">
        <ele>3926</ele>
        <time>2023-07-29T16:02:20.000Z</time>
        <extensions>
          <ns3:TrackPointExtension>
            <ns3:hr>130</ns3:hr>
            <ns3:cad>69</ns3:cad>
          </ns3:TrackPointExtension>
        </extensions>
      </trkpt>
      <trkpt lat="37.7822890318930149078369140625" lon="-107.70341240800917148590087890625">
        <ele>3926.39990234375</ele>
        <time>2023-07-29T16:02:21.000Z</time>
        <extensions>
          <ns3:TrackPointExtension>
            <ns3:hr>130</ns3:hr>
            <ns3:cad>69</ns3:cad>
          </ns3:TrackPointExtension>
        </extensions>
      </trkpt>
      <trkpt lat="37.78229288756847381591796875" lon="-107.7034091390669345855712890625">
        <ele>3926.39990234375</ele>
        <time>2023-07-29T16:02:22.000Z</time>
        <extensions>
          <ns3:TrackPointExtension>
            <ns3:hr>130</ns3:hr>
            <ns3:cad>0</ns3:cad>
          </ns3:TrackPointExtension>
        </extensions>
      </trkpt>
      <trkpt lat="37.78229263611137866973876953125" lon="-107.70340503193438053131103515625">
        <ele>3926.60009765625</ele>
        <time>2023-07-29T16:02:23.000Z</time>
        <extensions>
          <ns3:TrackPointExtension>
            <ns3:hr>130</ns3:hr>
            <ns3:cad>0</ns3:cad>
          </ns3:TrackPointExtension>
        </extensions>
      </trkpt>
      <trkpt lat="37.7822913788259029388427734375" lon="-107.70340452902019023895263671875">
        <ele>3926.60009765625</ele>
        <time>2023-07-29T16:02:24.000Z</time>
        <extensions>
          <ns3:TrackPointExtension>
            <ns3:hr>130</ns3:hr>
            <ns3:cad>0</ns3:cad>
          </ns3:TrackPointExtension>
        </extensions>
      </trkpt>
      <trkpt lat="37.78229313902556896209716796875" lon="-107.7034061215817928314208984375">
        <ele>3926.60009765625</ele>
        <time>2023-07-29T16:02:25.000Z</time>
        <extensions>
          <ns3:TrackPointExtension>
            <ns3:hr>130</ns3:hr>
            <ns3:cad>0</ns3:cad>
          </ns3:TrackPointExtension>
        </extensions>
      </trkpt>
      <trkpt lat="37.7822960726916790008544921875" lon="-107.70340452902019023895263671875">
        <ele>3926.60009765625</ele>
        <time>2023-07-29T16:02:26.000Z</time>
        <extensions>
          <ns3:TrackPointExtension>
            <ns3:hr>130</ns3:hr>
            <ns3:cad>0</ns3:cad>
          </ns3:TrackPointExtension>
        </extensions>
      </trkpt>
      <trkpt lat="37.7822927199304103851318359375" lon="-107.7034054510295391082763671875">
        <ele>3926.60009765625</ele>
        <time>2023-07-29T16:02:27.000Z</time>
        <extensions>
          <ns3:TrackPointExtension>
            <ns3:hr>130</ns3:hr>
            <ns3:cad>0</ns3:cad>
          </ns3:TrackPointExtension>
        </extensions>
      </trkpt>
      <trkpt lat="37.782287858426570892333984375" lon="-107.70340503193438053131103515625">
        <ele>3926.60009765625</ele>
        <time>2023-07-29T16:02:28.000Z</time>
        <extensions>
          <ns3:TrackPointExtension>
            <ns3:hr>131</ns3:hr>
            <ns3:cad>0</ns3:cad>
          </ns3:TrackPointExtension>
        </extensions>
      </trkpt>
      <trkpt lat="37.782282494008541107177734375" lon="-107.7034034393727779388427734375">
        <ele>3926.60009765625</ele>
        <time>2023-07-29T16:02:29.000Z</time>
        <extensions>
          <ns3:TrackPointExtension>
            <ns3:hr>131</ns3:hr>
            <ns3:cad>0</ns3:cad>
          </ns3:TrackPointExtension>
        </extensions>
      </trkpt>
      <trkpt lat="37.7822742797434329986572265625" lon="-107.70340100862085819244384765625">
        <ele>3926.60009765625</ele>
        <time>2023-07-29T16:02:30.000Z</time>
        <extensions>
          <ns3:TrackPointExtension>
            <ns3:hr>130</ns3:hr>
            <ns3:cad>0</ns3:cad>
          </ns3:TrackPointExtension>
        </extensions>
      </trkpt>
      <trkpt lat="37.7822672389447689056396484375" lon="-107.70339832641184329986572265625">
        <ele>3926.60009765625</ele>
        <time>2023-07-29T16:02:31.000Z</time>
        <extensions>
          <ns3:TrackPointExtension>
            <ns3:hr>130</ns3:hr>
            <ns3:cad>0</ns3:cad>
          </ns3:TrackPointExtension>
        </extensions>
      </trkpt>
      <trkpt lat="37.7822467871010303497314453125" lon="-107.70339748822152614593505859375">
        <ele>3926.60009765625</ele>
        <time>2023-07-29T16:02:32.000Z</time>
        <extensions>
          <ns3:TrackPointExtension>
            <ns3:hr>130</ns3:hr>
            <ns3:cad>0</ns3:cad>
          </ns3:TrackPointExtension>
        </extensions>
      </trkpt>
      <trkpt lat="37.7822412550449371337890625" lon="-107.7033977396786212921142578125">
        <ele>3926.60009765625</ele>
        <time>2023-07-29T16:02:33.000Z</time>
        <extensions>
          <ns3:TrackPointExtension>
            <ns3:hr>130</ns3:hr>
            <ns3:cad>0</ns3:cad>
          </ns3:TrackPointExtension>
        </extensions>
      </trkpt>
      <trkpt lat="37.78223832137882709503173828125" lon="-107.70339312963187694549560546875">
        <ele>3926.60009765625</ele>
        <time>2023-07-29T16:02:34.000Z</time>
        <extensions>
          <ns3:TrackPointExtension>
            <ns3:hr>130</ns3:hr>
            <ns3:cad>0</ns3:cad>
          </ns3:TrackPointExtension>
        </extensions>
      </trkpt>
      <trkpt lat="37.7822457812726497650146484375" lon="-107.70338927395641803741455078125">
        <ele>3926.60009765625</ele>
        <time>2023-07-29T16:02:35.000Z</time>
        <extensions>
          <ns3:TrackPointExtension>
            <ns3:hr>129</ns3:hr>
            <ns3:cad>0</ns3:cad>
          </ns3:TrackPointExtension>
        </extensions>
      </trkpt>
      <trkpt lat="37.782253660261631011962890625" lon="-107.70338826812803745269775390625">
        <ele>3926.60009765625</ele>
        <time>2023-07-29T16:02:36.000Z</time>
        <extensions>
          <ns3:TrackPointExtension>
            <ns3:hr>129</ns3:hr>
            <ns3:cad>0</ns3:cad>
          </ns3:TrackPointExtension>
        </extensions>
      </trkpt>
      <trkpt lat="37.78226195834577083587646484375" lon="-107.7033900283277034759521484375">
        <ele>3926.60009765625</ele>
        <time>2023-07-29T16:02:37.000Z</time>
        <extensions>
          <ns3:TrackPointExtension>
            <ns3:hr>129</ns3:hr>
            <ns3:cad>0</ns3:cad>
          </ns3:TrackPointExtension>
        </extensions>
      </trkpt>
      <trkpt lat="37.78227034024894237518310546875" lon="-107.70339564420282840728759765625">
        <ele>3926.60009765625</ele>
        <time>2023-07-29T16:02:38.000Z</time>
        <extensions>
          <ns3:TrackPointExtension>
            <ns3:hr>128</ns3:hr>
            <ns3:cad>0</ns3:cad>
          </ns3:TrackPointExtension>
        </extensions>
      </trkpt>
      <trkpt lat="37.78227905742824077606201171875" lon="-107.70340151153504848480224609375">
        <ele>3926.800048828125</ele>
        <time>2023-07-29T16:02:39.000Z</time>
        <extensions>
          <ns3:TrackPointExtension>
            <ns3:hr>128</ns3:hr>
            <ns3:cad>0</ns3:cad>
          </ns3:TrackPointExtension>
        </extensions>
      </trkpt>
      <trkpt lat="37.78229012154042720794677734375" lon="-107.7034077979624271392822265625">
        <ele>3927</ele>
        <time>2023-07-29T16:02:40.000Z</time>
        <extensions>
          <ns3:TrackPointExtension>
            <ns3:hr>128</ns3:hr>
            <ns3:cad>0</ns3:cad>
          </ns3:TrackPointExtension>
        </extensions>
      </trkpt>
      <trkpt lat="37.782295234501361846923828125" lon="-107.703413665294647216796875">
        <ele>3927</ele>
        <time>2023-07-29T16:02:41.000Z</time>
        <extensions>
          <ns3:TrackPointExtension>
            <ns3:hr>127</ns3:hr>
            <ns3:cad>0</ns3:cad>
          </ns3:TrackPointExtension>
        </extensions>
      </trkpt>
      <trkpt lat="37.78230898082256317138671875" lon="-107.70341970026493072509765625">
        <ele>3927.199951171875</ele>
        <time>2023-07-29T16:02:42.000Z</time>
        <extensions>
          <ns3:TrackPointExtension>
            <ns3:hr>127</ns3:hr>
            <ns3:cad>0</ns3:cad>
          </ns3:TrackPointExtension>
        </extensions>
      </trkpt>
      <trkpt lat="37.7823205478489398956298828125" lon="-107.70342531614005565643310546875">
        <ele>3927.199951171875</ele>
        <time>2023-07-29T16:02:43.000Z</time>
        <extensions>
          <ns3:TrackPointExtension>
            <ns3:hr>127</ns3:hr>
            <ns3:cad>0</ns3:cad>
          </ns3:TrackPointExtension>
        </extensions>
      </trkpt>
      <trkpt lat="37.78232951648533344268798828125" lon="-107.7034339495003223419189453125">
        <ele>3927.199951171875</ele>
        <time>2023-07-29T16:02:44.000Z</time>
        <extensions>
          <ns3:TrackPointExtension>
            <ns3:hr>126</ns3:hr>
            <ns3:cad>0</ns3:cad>
          </ns3:TrackPointExtension>
        </extensions>
      </trkpt>
      <trkpt lat="37.78233353979885578155517578125" lon="-107.70343671552836894989013671875">
        <ele>3927.60009765625</ele>
        <time>2023-07-29T16:02:45.000Z</time>
        <extensions>
          <ns3:TrackPointExtension>
            <ns3:hr>126</ns3:hr>
            <ns3:cad>0</ns3:cad>
          </ns3:TrackPointExtension>
        </extensions>
      </trkpt>
      <trkpt lat="37.782339155673980712890625" lon="-107.70343738608062267303466796875">
        <ele>3927.60009765625</ele>
        <time>2023-07-29T16:02:46.000Z</time>
        <extensions>
          <ns3:TrackPointExtension>
            <ns3:hr>125</ns3:hr>
            <ns3:cad>0</ns3:cad>
          </ns3:TrackPointExtension>
        </extensions>
      </trkpt>
      <trkpt lat="37.78233873657882213592529296875" lon="-107.70343319512903690338134765625">
        <ele>3927.800048828125</ele>
        <time>2023-07-29T16:02:47.000Z</time>
        <extensions>
          <ns3:TrackPointExtension>
            <ns3:hr>125</ns3:hr>
            <ns3:cad>0</ns3:cad>
          </ns3:TrackPointExtension>
        </extensions>
      </trkpt>
      <trkpt lat="37.7823413349688053131103515625" lon="-107.70343336276710033416748046875">
        <ele>3928</ele>
        <time>2023-07-29T16:02:48.000Z</time>
        <extensions>
          <ns3:TrackPointExtension>
            <ns3:hr>125</ns3:hr>
            <ns3:cad>0</ns3:cad>
          </ns3:TrackPointExtension>
        </extensions>
      </trkpt>
      <trkpt lat="37.78234292753040790557861328125" lon="-107.70343302749097347259521484375">
        <ele>3928</ele>
        <time>2023-07-29T16:02:49.000Z</time>
        <extensions>
          <ns3:TrackPointExtension>
            <ns3:hr>125</ns3:hr>
            <ns3:cad>0</ns3:cad>
          </ns3:TrackPointExtension>
        </extensions>
      </trkpt>
      <trkpt lat="37.7823507227003574371337890625" lon="-107.70343554206192493438720703125">
        <ele>3928.199951171875</ele>
        <time>2023-07-29T16:02:50.000Z</time>
        <extensions>
          <ns3:TrackPointExtension>
            <ns3:hr>125</ns3:hr>
            <ns3:cad>0</ns3:cad>
          </ns3:TrackPointExtension>
        </extensions>
      </trkpt>
      <trkpt lat="37.7823557518422603607177734375" lon="-107.70343713462352752685546875">
        <ele>3928.39990234375</ele>
        <time>2023-07-29T16:02:51.000Z</time>
        <extensions>
          <ns3:TrackPointExtension>
            <ns3:hr>124</ns3:hr>
            <ns3:cad>0</ns3:cad>
          </ns3:TrackPointExtension>
        </extensions>
      </trkpt>
      <trkpt lat="37.78236865997314453125" lon="-107.7034430019557476043701171875">
        <ele>3928.60009765625</ele>
        <time>2023-07-29T16:02:52.000Z</time>
        <extensions>
          <ns3:TrackPointExtension>
            <ns3:hr>124</ns3:hr>
            <ns3:cad>0</ns3:cad>
          </ns3:TrackPointExtension>
        </extensions>
      </trkpt>
      <trkpt lat="37.7823701687157154083251953125" lon="-107.703446857631206512451171875">
        <ele>3928.800048828125</ele>
        <time>2023-07-29T16:02:53.000Z</time>
        <extensions>
          <ns3:TrackPointExtension>
            <ns3:hr>124</ns3:hr>
            <ns3:cad>0</ns3:cad>
          </ns3:TrackPointExtension>
        </extensions>
      </trkpt>
      <trkpt lat="37.78238047845661640167236328125" lon="-107.7034530602395534515380859375">
        <ele>3929</ele>
        <time>2023-07-29T16:02:54.000Z</time>
        <extensions>
          <ns3:TrackPointExtension>
            <ns3:hr>124</ns3:hr>
            <ns3:cad>71</ns3:cad>
          </ns3:TrackPointExtension>
        </extensions>
      </trkpt>
      <trkpt lat="37.78238852508366107940673828125" lon="-107.70345666445791721343994140625">
        <ele>3929.39990234375</ele>
        <time>2023-07-29T16:02:55.000Z</time>
        <extensions>
          <ns3:TrackPointExtension>
            <ns3:hr>123</ns3:hr>
            <ns3:cad>71</ns3:cad>
          </ns3:TrackPointExtension>
        </extensions>
      </trkpt>
      <trkpt lat="37.78239875100553035736083984375" lon="-107.703463621437549591064453125">
        <ele>3929.39990234375</ele>
        <time>2023-07-29T16:02:56.000Z</time>
        <extensions>
          <ns3:TrackPointExtension>
            <ns3:hr>123</ns3:hr>
            <ns3:cad>71</ns3:cad>
          </ns3:TrackPointExtension>
        </extensions>
      </trkpt>
      <trkpt lat="37.78240210376679897308349609375" lon="-107.70346529781818389892578125">
        <ele>3929.60009765625</ele>
        <time>2023-07-29T16:02:57.000Z</time>
        <extensions>
          <ns3:TrackPointExtension>
            <ns3:hr>123</ns3:hr>
            <ns3:cad>71</ns3:cad>
          </ns3:TrackPointExtension>
        </extensions>
      </trkpt>
      <trkpt lat="37.782403528690338134765625" lon="-107.70346839912235736846923828125">
        <ele>3929.800048828125</ele>
        <time>2023-07-29T16:02:58.000Z</time>
        <extensions>
          <ns3:TrackPointExtension>
            <ns3:hr>123</ns3:hr>
            <ns3:cad>71</ns3:cad>
          </ns3:TrackPointExtension>
        </extensions>
      </trkpt>
      <trkpt lat="37.78240763582289218902587890625" lon="-107.70346957258880138397216796875">
        <ele>3929.800048828125</ele>
        <time>2023-07-29T16:02:59.000Z</time>
        <extensions>
          <ns3:TrackPointExtension>
            <ns3:hr>123</ns3:hr>
            <ns3:cad>71</ns3:cad>
          </ns3:TrackPointExtension>
        </extensions>
      </trkpt>
      <trkpt lat="37.78241165913641452789306640625" lon="-107.70346739329397678375244140625">
        <ele>3930.199951171875</ele>
        <time>2023-07-29T16:03:00.000Z</time>
        <extensions>
          <ns3:TrackPointExtension>
            <ns3:hr>122</ns3:hr>
            <ns3:cad>71</ns3:cad>
          </ns3:TrackPointExtension>
        </extensions>
      </trkpt>
      <trkpt lat="37.78241232968866825103759765625" lon="-107.70346638746559619903564453125">
        <ele>3930.60009765625</ele>
        <time>2023-07-29T16:03:01.000Z</time>
        <extensions>
          <ns3:TrackPointExtension>
            <ns3:hr>121</ns3:hr>
            <ns3:cad>71</ns3:cad>
          </ns3:TrackPointExtension>
        </extensions>
      </trkpt>
      <trkpt lat="37.78242372907698154449462890625" lon="-107.703469656407833099365234375">
        <ele>3930.60009765625</ele>
        <time>2023-07-29T16:03:02.000Z</time>
        <extensions>
          <ns3:TrackPointExtension>
            <ns3:hr>121</ns3:hr>
            <ns3:cad>71</ns3:cad>
          </ns3:TrackPointExtension>
        </extensions>
      </trkpt>
      <trkpt lat="37.782424651086330413818359375" lon="-107.7034768648445606231689453125">
        <ele>3930.800048828125</ele>
        <time>2023-07-29T16:03:03.000Z</time>
        <extensions>
          <ns3:TrackPointExtension>
            <ns3:hr>121</ns3:hr>
            <ns3:cad>71</ns3:cad>
          </ns3:TrackPointExtension>
        </extensions>
      </trkpt>
      <trkpt lat="37.782428003847599029541015625" lon="-107.70347476936876773834228515625">
        <ele>3931</ele>
        <time>2023-07-29T16:03:04.000Z</time>
        <extensions>
          <ns3:TrackPointExtension>
            <ns3:hr>123</ns3:hr>
            <ns3:cad>0</ns3:cad>
          </ns3:TrackPointExtension>
        </extensions>
      </trkpt>
      <trkpt lat="37.78243697248399257659912109375" lon="-107.70347409881651401519775390625">
        <ele>3931.199951171875</ele>
        <time>2023-07-29T16:03:05.000Z</time>
        <extensions>
          <ns3:TrackPointExtension>
            <ns3:hr>124</ns3:hr>
            <ns3:cad>0</ns3:cad>
          </ns3:TrackPointExtension>
        </extensions>
      </trkpt>
      <trkpt lat="37.78244267217814922332763671875" lon="-107.70347510464489459991455078125">
        <ele>3931.39990234375</ele>
        <time>2023-07-29T16:03:06.000Z</time>
        <extensions>
          <ns3:TrackPointExtension>
            <ns3:hr>125</ns3:hr>
            <ns3:cad>0</ns3:cad>
          </ns3:TrackPointExtension>
        </extensions>
      </trkpt>
      <trkpt lat="37.7824469469487667083740234375" lon="-107.70347409881651401519775390625">
        <ele>3931.39990234375</ele>
        <time>2023-07-29T16:03:07.000Z</time>
        <extensions>
          <ns3:TrackPointExtension>
            <ns3:hr>126</ns3:hr>
            <ns3:cad>0</ns3:cad>
          </ns3:TrackPointExtension>
        </extensions>
      </trkpt>
      <trkpt lat="37.7824558317661285400390625" lon="-107.70347476936876773834228515625">
        <ele>3931.60009765625</ele>
        <time>2023-07-29T16:03:08.000Z</time>
        <extensions>
          <ns3:TrackPointExtension>
            <ns3:hr>126</ns3:hr>
            <ns3:cad>0</ns3:cad>
          </ns3:TrackPointExtension>
        </extensions>
      </trkpt>
      <trkpt lat="37.78246186673641204833984375" lon="-107.7034788765013217926025390625">
        <ele>3931.60009765625</ele>
        <time>2023-07-29T16:03:09.000Z</time>
        <extensions>
          <ns3:TrackPointExtension>
            <ns3:hr>127</ns3:hr>
            <ns3:cad>0</ns3:cad>
          </ns3:TrackPointExtension>
        </extensions>
      </trkpt>
      <trkpt lat="37.78246714733541011810302734375" lon="-107.70348432473838329315185546875">
        <ele>3931.800048828125</ele>
        <time>2023-07-29T16:03:10.000Z</time>
        <extensions>
          <ns3:TrackPointExtension>
            <ns3:hr>126</ns3:hr>
            <ns3:cad>50</ns3:cad>
          </ns3:TrackPointExtension>
        </extensions>
      </trkpt>
      <trkpt lat="37.7824670635163784027099609375" lon="-107.70349069498479366302490234375">
        <ele>3932</ele>
        <time>2023-07-29T16:03:11.000Z</time>
        <extensions>
          <ns3:TrackPointExtension>
            <ns3:hr>126</ns3:hr>
            <ns3:cad>50</ns3:cad>
          </ns3:TrackPointExtension>
        </extensions>
      </trkpt>
      <trkpt lat="37.7824746072292327880859375" lon="-107.7034996636211872100830078125">
        <ele>3932.199951171875</ele>
        <time>2023-07-29T16:03:12.000Z</time>
        <extensions>
          <ns3:TrackPointExtension>
            <ns3:hr>126</ns3:hr>
            <ns3:cad>50</ns3:cad>
          </ns3:TrackPointExtension>
        </extensions>
      </trkpt>
      <trkpt lat="37.782480977475643157958984375" lon="-107.70350645296275615692138671875">
        <ele>3932.199951171875</ele>
        <time>2023-07-29T16:03:13.000Z</time>
        <extensions>
          <ns3:TrackPointExtension>
            <ns3:hr>126</ns3:hr>
            <ns3:cad>50</ns3:cad>
          </ns3:TrackPointExtension>
        </extensions>
      </trkpt>
      <trkpt lat="37.7824794687330722808837890625" lon="-107.7035035192966461181640625">
        <ele>3932.199951171875</ele>
        <time>2023-07-29T16:03:14.000Z</time>
        <extensions>
          <ns3:TrackPointExtension>
            <ns3:hr>125</ns3:hr>
            <ns3:cad>0</ns3:cad>
          </ns3:TrackPointExtension>
        </extensions>
      </trkpt>
      <trkpt lat="37.78248407877981662750244140625" lon="-107.703504525125026702880859375">
        <ele>3932.39990234375</ele>
        <time>2023-07-29T16:03:15.000Z</time>
        <extensions>
          <ns3:TrackPointExtension>
            <ns3:hr>125</ns3:hr>
            <ns3:cad>0</ns3:cad>
          </ns3:TrackPointExtension>
        </extensions>
      </trkpt>
      <trkpt lat="37.782495729625225067138671875" lon="-107.7035070396959781646728515625">
        <ele>3932.800048828125</ele>
        <time>2023-07-29T16:03:16.000Z</time>
        <extensions>
          <ns3:TrackPointExtension>
            <ns3:hr>126</ns3:hr>
            <ns3:cad>0</ns3:cad>
          </ns3:TrackPointExtension>
        </extensions>
      </trkpt>
      <trkpt lat="37.78250302188098430633544921875" lon="-107.70350595004856586456298828125">
        <ele>3932.800048828125</ele>
        <time>2023-07-29T16:03:17.000Z</time>
        <extensions>
          <ns3:TrackPointExtension>
            <ns3:hr>126</ns3:hr>
            <ns3:cad>0</ns3:cad>
          </ns3:TrackPointExtension>
        </extensions>
      </trkpt>
      <trkpt lat="37.7825150080025196075439453125" lon="-107.70350678823888301849365234375">
        <ele>3933.199951171875</ele>
        <time>2023-07-29T16:03:18.000Z</time>
        <extensions>
          <ns3:TrackPointExtension>
            <ns3:hr>128</ns3:hr>
            <ns3:cad>0</ns3:cad>
          </ns3:TrackPointExtension>
        </extensions>
      </trkpt>
      <trkpt lat="37.78252582065761089324951171875" lon="-107.70350310020148754119873046875">
        <ele>3933.199951171875</ele>
        <time>2023-07-29T16:03:19.000Z</time>
        <extensions>
          <ns3:TrackPointExtension>
            <ns3:hr>128</ns3:hr>
            <ns3:cad>0</ns3:cad>
          </ns3:TrackPointExtension>
        </extensions>
      </trkpt>
      <trkpt lat="37.78253671713173389434814453125" lon="-107.703502513468265533447265625">
        <ele>3933.39990234375</ele>
        <time>2023-07-29T16:03:20.000Z</time>
        <extensions>
          <ns3:TrackPointExtension>
            <ns3:hr>127</ns3:hr>
            <ns3:cad>0</ns3:cad>
          </ns3:TrackPointExtension>
        </extensions>
      </trkpt>
      <trkpt lat="37.78254258446395397186279296875" lon="-107.70350410602986812591552734375">
        <ele>3933.39990234375</ele>
        <time>2023-07-29T16:03:21.000Z</time>
        <extensions>
          <ns3:TrackPointExtension>
            <ns3:hr>127</ns3:hr>
            <ns3:cad>0</ns3:cad>
          </ns3:TrackPointExtension>
        </extensions>
      </trkpt>
      <trkpt lat="37.782543338835239410400390625" lon="-107.703503854572772979736328125">
        <ele>3933.60009765625</ele>
        <time>2023-07-29T16:03:22.000Z</time>
        <extensions>
          <ns3:TrackPointExtension>
            <ns3:hr>127</ns3:hr>
            <ns3:cad>0</ns3:cad>
          </ns3:TrackPointExtension>
        </extensions>
      </trkpt>
      <trkpt lat="37.782546021044254302978515625" lon="-107.70350360311567783355712890625">
        <ele>3933.60009765625</ele>
        <time>2023-07-29T16:03:23.000Z</time>
        <extensions>
          <ns3:TrackPointExtension>
            <ns3:hr>127</ns3:hr>
            <ns3:cad>0</ns3:cad>
          </ns3:TrackPointExtension>
        </extensions>
      </trkpt>
      <trkpt lat="37.78254794888198375701904296875" lon="-107.70350293256342411041259765625">
        <ele>3933.60009765625</ele>
        <time>2023-07-29T16:03:24.000Z</time>
        <extensions>
          <ns3:TrackPointExtension>
            <ns3:hr>127</ns3:hr>
            <ns3:cad>0</ns3:cad>
          </ns3:TrackPointExtension>
        </extensions>
      </trkpt>
      <trkpt lat="37.7825471945106983184814453125" lon="-107.70350511185824871063232421875">
        <ele>3933.800048828125</ele>
        <time>2023-07-29T16:03:25.000Z</time>
        <extensions>
          <ns3:TrackPointExtension>
            <ns3:hr>127</ns3:hr>
            <ns3:cad>0</ns3:cad>
          </ns3:TrackPointExtension>
        </extensions>
      </trkpt>
      <trkpt lat="37.782550714910030364990234375" lon="-107.70350645296275615692138671875">
        <ele>3934</ele>
        <time>2023-07-29T16:03:26.000Z</time>
        <extensions>
          <ns3:TrackPointExtension>
            <ns3:hr>127</ns3:hr>
            <ns3:cad>0</ns3:cad>
          </ns3:TrackPointExtension>
        </extensions>
      </trkpt>
      <trkpt lat="37.78255683369934558868408203125" lon="-107.70350829698145389556884765625">
        <ele>3934.199951171875</ele>
        <time>2023-07-29T16:03:27.000Z</time>
        <extensions>
          <ns3:TrackPointExtension>
            <ns3:hr>128</ns3:hr>
            <ns3:cad>0</ns3:cad>
          </ns3:TrackPointExtension>
        </extensions>
      </trkpt>
      <trkpt lat="37.7825631201267242431640625" lon="-107.703511901199817657470703125">
        <ele>3934.199951171875</ele>
        <time>2023-07-29T16:03:28.000Z</time>
        <extensions>
          <ns3:TrackPointExtension>
            <ns3:hr>128</ns3:hr>
            <ns3:cad>0</ns3:cad>
          </ns3:TrackPointExtension>
        </extensions>
      </trkpt>
      <trkpt lat="37.78257451951503753662109375" lon="-107.70351299084722995758056640625">
        <ele>3934.39990234375</ele>
        <time>2023-07-29T16:03:29.000Z</time>
        <extensions>
          <ns3:TrackPointExtension>
            <ns3:hr>128</ns3:hr>
            <ns3:cad>0</ns3:cad>
          </ns3:TrackPointExtension>
        </extensions>
      </trkpt>
      <trkpt lat="37.782582230865955352783203125" lon="-107.7035169303417205810546875">
        <ele>3934.39990234375</ele>
        <time>2023-07-29T16:03:30.000Z</time>
        <extensions>
          <ns3:TrackPointExtension>
            <ns3:hr>128</ns3:hr>
            <ns3:cad>0</ns3:cad>
          </ns3:TrackPointExtension>
        </extensions>
      </trkpt>
      <trkpt lat="37.7825907804071903228759765625" lon="-107.7035227976739406585693359375">
        <ele>3934.39990234375</ele>
        <time>2023-07-29T16:03:31.000Z</time>
        <extensions>
          <ns3:TrackPointExtension>
            <ns3:hr>129</ns3:hr>
            <ns3:cad>0</ns3:cad>
          </ns3:TrackPointExtension>
        </extensions>
      </trkpt>
      <trkpt lat="37.7825981564819812774658203125" lon="-107.70352724008262157440185546875">
        <ele>3934.60009765625</ele>
        <time>2023-07-29T16:03:32.000Z</time>
        <extensions>
          <ns3:TrackPointExtension>
            <ns3:hr>129</ns3:hr>
            <ns3:cad>0</ns3:cad>
          </ns3:TrackPointExtension>
        </extensions>
      </trkpt>
      <trkpt lat="37.78260427527129650115966796875" lon="-107.70353327505290508270263671875">
        <ele>3934.60009765625</ele>
        <time>2023-07-29T16:03:33.000Z</time>
        <extensions>
          <ns3:TrackPointExtension>
            <ns3:hr>129</ns3:hr>
            <ns3:cad>0</ns3:cad>
          </ns3:TrackPointExtension>
        </extensions>
      </trkpt>
      <trkpt lat="37.78261148370802402496337890625" lon="-107.70354081876575946807861328125">
        <ele>3934.60009765625</ele>
        <time>2023-07-29T16:03:34.000Z</time>
        <extensions>
          <ns3:TrackPointExtension>
            <ns3:hr>129</ns3:hr>
            <ns3:cad>0</ns3:cad>
          </ns3:TrackPointExtension>
        </extensions>
      </trkpt>
      <trkpt lat="37.78261651284992694854736328125" lon="-107.70354668609797954559326171875">
        <ele>3934.60009765625</ele>
        <time>2023-07-29T16:03:35.000Z</time>
        <extensions>
          <ns3:TrackPointExtension>
            <ns3:hr>129</ns3:hr>
            <ns3:cad>0</ns3:cad>
          </ns3:TrackPointExtension>
        </extensions>
      </trkpt>
      <trkpt lat="37.78262011706829071044921875" lon="-107.7035563252866268157958984375">
        <ele>3935</ele>
        <time>2023-07-29T16:03:36.000Z</time>
        <extensions>
          <ns3:TrackPointExtension>
            <ns3:hr>129</ns3:hr>
            <ns3:cad>0</ns3:cad>
          </ns3:TrackPointExtension>
        </extensions>
      </trkpt>
      <trkpt lat="37.78262154199182987213134765625" lon="-107.70356764085590839385986328125">
        <ele>3935</ele>
        <time>2023-07-29T16:03:37.000Z</time>
        <extensions>
          <ns3:TrackPointExtension>
            <ns3:hr>129</ns3:hr>
            <ns3:cad>0</ns3:cad>
          </ns3:TrackPointExtension>
        </extensions>
      </trkpt>
      <trkpt lat="37.7826293371617794036865234375" lon="-107.703574933111667633056640625">
        <ele>3935.199951171875</ele>
        <time>2023-07-29T16:03:38.000Z</time>
        <extensions>
          <ns3:TrackPointExtension>
            <ns3:hr>129</ns3:hr>
            <ns3:cad>0</ns3:cad>
          </ns3:TrackPointExtension>
        </extensions>
      </trkpt>
      <trkpt lat="37.78263009153306484222412109375" lon="-107.70357669331133365631103515625">
        <ele>3935.199951171875</ele>
        <time>2023-07-29T16:03:39.000Z</time>
        <extensions>
          <ns3:TrackPointExtension>
            <ns3:hr>128</ns3:hr>
            <ns3:cad>0</ns3:cad>
          </ns3:TrackPointExtension>
        </extensions>
      </trkpt>
      <trkpt lat="37.7826355397701263427734375" lon="-107.703577615320682525634765625">
        <ele>3935.60009765625</ele>
        <time>2023-07-29T16:03:40.000Z</time>
        <extensions>
          <ns3:TrackPointExtension>
            <ns3:hr>128</ns3:hr>
            <ns3:cad>0</ns3:cad>
          </ns3:TrackPointExtension>
        </extensions>
      </trkpt>
      <trkpt lat="37.78263813816010951995849609375" lon="-107.70357501693069934844970703125">
        <ele>3935.800048828125</ele>
        <time>2023-07-29T16:03:41.000Z</time>
        <extensions>
          <ns3:TrackPointExtension>
            <ns3:hr>128</ns3:hr>
            <ns3:cad>0</ns3:cad>
          </ns3:TrackPointExtension>
        </extensions>
      </trkpt>
      <trkpt lat="37.782642580568790435791015625" lon="-107.7035717479884624481201171875">
        <ele>3935.800048828125</ele>
        <time>2023-07-29T16:03:42.000Z</time>
        <extensions>
          <ns3:TrackPointExtension>
            <ns3:hr>128</ns3:hr>
            <ns3:cad>0</ns3:cad>
          </ns3:TrackPointExtension>
        </extensions>
      </trkpt>
      <trkpt lat="37.782649956643581390380859375" lon="-107.7035720832645893096923828125">
        <ele>3936</ele>
        <time>2023-07-29T16:03:43.000Z</time>
        <extensions>
          <ns3:TrackPointExtension>
            <ns3:hr>128</ns3:hr>
            <ns3:cad>0</ns3:cad>
          </ns3:TrackPointExtension>
        </extensions>
      </trkpt>
      <trkpt lat="37.7826543152332305908203125" lon="-107.7035710774362087249755859375">
        <ele>3936.199951171875</ele>
        <time>2023-07-29T16:03:44.000Z</time>
        <extensions>
          <ns3:TrackPointExtension>
            <ns3:hr>128</ns3:hr>
            <ns3:cad>0</ns3:cad>
          </ns3:TrackPointExtension>
        </extensions>
      </trkpt>
      <trkpt lat="37.78266169130802154541015625" lon="-107.70357392728328704833984375">
        <ele>3936.199951171875</ele>
        <time>2023-07-29T16:03:45.000Z</time>
        <extensions>
          <ns3:TrackPointExtension>
            <ns3:hr>128</ns3:hr>
            <ns3:cad>0</ns3:cad>
          </ns3:TrackPointExtension>
        </extensions>
      </trkpt>
      <trkpt lat="37.7826635353267192840576171875" lon="-107.7035751007497310638427734375">
        <ele>3936.39990234375</ele>
        <time>2023-07-29T16:03:46.000Z</time>
        <extensions>
          <ns3:TrackPointExtension>
            <ns3:hr>128</ns3:hr>
            <ns3:cad>0</ns3:cad>
          </ns3:TrackPointExtension>
        </extensions>
      </trkpt>
      <trkpt lat="37.78267384506762027740478515625" lon="-107.70357820205390453338623046875">
        <ele>3936.39990234375</ele>
        <time>2023-07-29T16:03:47.000Z</time>
        <extensions>
          <ns3:TrackPointExtension>
            <ns3:hr>128</ns3:hr>
            <ns3:cad>0</ns3:cad>
          </ns3:TrackPointExtension>
        </extensions>
      </trkpt>
      <trkpt lat="37.78268314898014068603515625" lon="-107.70358356647193431854248046875">
        <ele>3936.60009765625</ele>
        <time>2023-07-29T16:03:48.000Z</time>
        <extensions>
          <ns3:TrackPointExtension>
            <ns3:hr>128</ns3:hr>
            <ns3:cad>0</ns3:cad>
          </ns3:TrackPointExtension>
        </extensions>
      </trkpt>
      <trkpt lat="37.78269647620618343353271484375" lon="-107.7035865001380443572998046875">
        <ele>3936.800048828125</ele>
        <time>2023-07-29T16:03:49.000Z</time>
        <extensions>
          <ns3:TrackPointExtension>
            <ns3:hr>129</ns3:hr>
            <ns3:cad>0</ns3:cad>
          </ns3:TrackPointExtension>
        </extensions>
      </trkpt>
      <trkpt lat="37.78270997107028961181640625" lon="-107.7035888470709323883056640625">
        <ele>3937</ele>
        <time>2023-07-29T16:03:50.000Z</time>
        <extensions>
          <ns3:TrackPointExtension>
            <ns3:hr>129</ns3:hr>
            <ns3:cad>0</ns3:cad>
          </ns3:TrackPointExtension>
        </extensions>
      </trkpt>
      <trkpt lat="37.782717011868953704833984375" lon="-107.70358842797577381134033203125">
        <ele>3937.199951171875</ele>
        <time>2023-07-29T16:03:51.000Z</time>
        <extensions>
          <ns3:TrackPointExtension>
            <ns3:hr>129</ns3:hr>
            <ns3:cad>0</ns3:cad>
          </ns3:TrackPointExtension>
        </extensions>
      </trkpt>
      <trkpt lat="37.7827248908579349517822265625" lon="-107.7035878412425518035888671875">
        <ele>3937.199951171875</ele>
        <time>2023-07-29T16:03:52.000Z</time>
        <extensions>
          <ns3:TrackPointExtension>
            <ns3:hr>130</ns3:hr>
            <ns3:cad>0</ns3:cad>
          </ns3:TrackPointExtension>
        </extensions>
      </trkpt>
      <trkpt lat="37.78272338211536407470703125" lon="-107.7035844884812831878662109375">
        <ele>3937.39990234375</ele>
        <time>2023-07-29T16:03:53.000Z</time>
        <extensions>
          <ns3:TrackPointExtension>
            <ns3:hr>130</ns3:hr>
            <ns3:cad>40</ns3:cad>
          </ns3:TrackPointExtension>
        </extensions>
      </trkpt>
      <trkpt lat="37.78273033909499645233154296875" lon="-107.70358289591968059539794921875">
        <ele>3937.60009765625</ele>
        <time>2023-07-29T16:03:54.000Z</time>
        <extensions>
          <ns3:TrackPointExtension>
            <ns3:hr>130</ns3:hr>
            <ns3:cad>40</ns3:cad>
          </ns3:TrackPointExtension>
        </extensions>
      </trkpt>
      <trkpt lat="37.78273553587496280670166015625" lon="-107.70358121953904628753662109375">
        <ele>3937.60009765625</ele>
        <time>2023-07-29T16:03:55.000Z</time>
        <extensions>
          <ns3:TrackPointExtension>
            <ns3:hr>131</ns3:hr>
            <ns3:cad>0</ns3:cad>
          </ns3:TrackPointExtension>
        </extensions>
      </trkpt>
      <trkpt lat="37.7827429957687854766845703125" lon="-107.7035828121006488800048828125">
        <ele>3938</ele>
        <time>2023-07-29T16:03:56.000Z</time>
        <extensions>
          <ns3:TrackPointExtension>
            <ns3:hr>131</ns3:hr>
            <ns3:cad>0</ns3:cad>
          </ns3:TrackPointExtension>
        </extensions>
      </trkpt>
      <trkpt lat="37.7827490307390689849853515625" lon="-107.70358406938612461090087890625">
        <ele>3938</ele>
        <time>2023-07-29T16:03:57.000Z</time>
        <extensions>
          <ns3:TrackPointExtension>
            <ns3:hr>131</ns3:hr>
            <ns3:cad>0</ns3:cad>
          </ns3:TrackPointExtension>
        </extensions>
      </trkpt>
      <trkpt lat="37.78275447897613048553466796875" lon="-107.7035861648619174957275390625">
        <ele>3938.199951171875</ele>
        <time>2023-07-29T16:03:58.000Z</time>
        <extensions>
          <ns3:TrackPointExtension>
            <ns3:hr>132</ns3:hr>
            <ns3:cad>0</ns3:cad>
          </ns3:TrackPointExtension>
        </extensions>
      </trkpt>
      <trkpt lat="37.782755903899669647216796875" lon="-107.70358859561383724212646484375">
        <ele>3938.199951171875</ele>
        <time>2023-07-29T16:03:59.000Z</time>
        <extensions>
          <ns3:TrackPointExtension>
            <ns3:hr>132</ns3:hr>
            <ns3:cad>0</ns3:cad>
          </ns3:TrackPointExtension>
        </extensions>
      </trkpt>
      <trkpt lat="37.78275766409933567047119140625" lon="-107.70359194837510585784912109375">
        <ele>3938.39990234375</ele>
        <time>2023-07-29T16:04:00.000Z</time>
        <extensions>
          <ns3:TrackPointExtension>
            <ns3:hr>132</ns3:hr>
            <ns3:cad>0</ns3:cad>
          </ns3:TrackPointExtension>
        </extensions>
      </trkpt>
      <trkpt lat="37.7827647887170314788818359375" lon="-107.7035958878695964813232421875">
        <ele>3938.800048828125</ele>
        <time>2023-07-29T16:04:01.000Z</time>
        <extensions>
          <ns3:TrackPointExtension>
            <ns3:hr>133</ns3:hr>
            <ns3:cad>0</ns3:cad>
          </ns3:TrackPointExtension>
        </extensions>
      </trkpt>
      <trkpt lat="37.78277124278247356414794921875" lon="-107.703603096306324005126953125">
        <ele>3938.800048828125</ele>
        <time>2023-07-29T16:04:02.000Z</time>
        <extensions>
          <ns3:TrackPointExtension>
            <ns3:hr>133</ns3:hr>
            <ns3:cad>0</ns3:cad>
          </ns3:TrackPointExtension>
        </extensions>
      </trkpt>
      <trkpt lat="37.78277593664824962615966796875" lon="-107.70360737107694149017333984375">
        <ele>3939</ele>
        <time>2023-07-29T16:04:03.000Z</time>
        <extensions>
          <ns3:TrackPointExtension>
            <ns3:hr>133</ns3:hr>
            <ns3:cad>0</ns3:cad>
          </ns3:TrackPointExtension>
        </extensions>
      </trkpt>
      <trkpt lat="37.78278230689465999603271484375" lon="-107.70361156202852725982666015625">
        <ele>3939</ele>
        <time>2023-07-29T16:04:04.000Z</time>
        <extensions>
          <ns3:TrackPointExtension>
            <ns3:hr>133</ns3:hr>
            <ns3:cad>0</ns3:cad>
          </ns3:TrackPointExtension>
        </extensions>
      </trkpt>
      <trkpt lat="37.78278373181819915771484375" lon="-107.7036133222281932830810546875">
        <ele>3939.199951171875</ele>
        <time>2023-07-29T16:04:05.000Z</time>
        <extensions>
          <ns3:TrackPointExtension>
            <ns3:hr>133</ns3:hr>
            <ns3:cad>0</ns3:cad>
          </ns3:TrackPointExtension>
        </extensions>
      </trkpt>
      <trkpt lat="37.78278633020818233489990234375" lon="-107.70361625589430332183837890625">
        <ele>3939.39990234375</ele>
        <time>2023-07-29T16:04:06.000Z</time>
        <extensions>
          <ns3:TrackPointExtension>
            <ns3:hr>133</ns3:hr>
            <ns3:cad>0</ns3:cad>
          </ns3:TrackPointExtension>
        </extensions>
      </trkpt>
      <trkpt lat="37.78279169462621212005615234375" lon="-107.7036215364933013916015625">
        <ele>3939.60009765625</ele>
        <time>2023-07-29T16:04:07.000Z</time>
        <extensions>
          <ns3:TrackPointExtension>
            <ns3:hr>134</ns3:hr>
            <ns3:cad>0</ns3:cad>
          </ns3:TrackPointExtension>
        </extensions>
      </trkpt>
      <trkpt lat="37.7827986516058444976806640625" lon="-107.7036297507584095001220703125">
        <ele>3939.60009765625</ele>
        <time>2023-07-29T16:04:08.000Z</time>
        <extensions>
          <ns3:TrackPointExtension>
            <ns3:hr>134</ns3:hr>
            <ns3:cad>0</ns3:cad>
          </ns3:TrackPointExtension>
        </extensions>
      </trkpt>
      <trkpt lat="37.78280309401452541351318359375" lon="-107.70363151095807552337646484375">
        <ele>3939.60009765625</ele>
        <time>2023-07-29T16:04:09.000Z</time>
        <extensions>
          <ns3:TrackPointExtension>
            <ns3:hr>134</ns3:hr>
            <ns3:cad>0</ns3:cad>
          </ns3:TrackPointExtension>
        </extensions>
      </trkpt>
      <trkpt lat="37.78280896134674549102783203125" lon="-107.703634612262248992919921875">
        <ele>3940</ele>
        <time>2023-07-29T16:04:10.000Z</time>
        <extensions>
          <ns3:TrackPointExtension>
            <ns3:hr>133</ns3:hr>
            <ns3:cad>0</ns3:cad>
          </ns3:TrackPointExtension>
        </extensions>
      </trkpt>
      <trkpt lat="37.782816253602504730224609375" lon="-107.7036351151764392852783203125">
        <ele>3940.39990234375</ele>
        <time>2023-07-29T16:04:11.000Z</time>
        <extensions>
          <ns3:TrackPointExtension>
            <ns3:hr>133</ns3:hr>
            <ns3:cad>0</ns3:cad>
          </ns3:TrackPointExtension>
        </extensions>
      </trkpt>
      <trkpt lat="37.78282874263823032379150390625" lon="-107.7036317624151706695556640625">
        <ele>3940.39990234375</ele>
        <time>2023-07-29T16:04:12.000Z</time>
        <extensions>
          <ns3:TrackPointExtension>
            <ns3:hr>132</ns3:hr>
            <ns3:cad>0</ns3:cad>
          </ns3:TrackPointExtension>
        </extensions>
      </trkpt>
      <trkpt lat="37.78284248895943164825439453125" lon="-107.70362899638712406158447265625">
        <ele>3940.39990234375</ele>
        <time>2023-07-29T16:04:13.000Z</time>
        <extensions>
          <ns3:TrackPointExtension>
            <ns3:hr>132</ns3:hr>
            <ns3:cad>0</ns3:cad>
          </ns3:TrackPointExtension>
        </extensions>
      </trkpt>
      <trkpt lat="37.7828566543757915496826171875" lon="-107.703630588948726654052734375">
        <ele>3940.60009765625</ele>
        <time>2023-07-29T16:04:14.000Z</time>
        <extensions>
          <ns3:TrackPointExtension>
            <ns3:hr>132</ns3:hr>
            <ns3:cad>0</ns3:cad>
          </ns3:TrackPointExtension>
        </extensions>
      </trkpt>
      <trkpt lat="37.782867215573787689208984375" lon="-107.70363100804388523101806640625">
        <ele>3941</ele>
        <time>2023-07-29T16:04:15.000Z</time>
        <extensions>
          <ns3:TrackPointExtension>
            <ns3:hr>132</ns3:hr>
            <ns3:cad>0</ns3:cad>
          </ns3:TrackPointExtension>
        </extensions>
      </trkpt>
      <trkpt lat="37.78287501074373722076416015625" lon="-107.70363301970064640045166015625">
        <ele>3941</ele>
        <time>2023-07-29T16:04:16.000Z</time>
        <extensions>
          <ns3:TrackPointExtension>
            <ns3:hr>132</ns3:hr>
            <ns3:cad>0</ns3:cad>
          </ns3:TrackPointExtension>
        </extensions>
      </trkpt>
      <trkpt lat="37.7828747592866420745849609375" lon="-107.7036351151764392852783203125">
        <ele>3941.39990234375</ele>
        <time>2023-07-29T16:04:17.000Z</time>
        <extensions>
          <ns3:TrackPointExtension>
            <ns3:hr>132</ns3:hr>
            <ns3:cad>0</ns3:cad>
          </ns3:TrackPointExtension>
        </extensions>
      </trkpt>
      <trkpt lat="37.78287819586694240570068359375" lon="-107.7036344446241855621337890625">
        <ele>3941.60009765625</ele>
        <time>2023-07-29T16:04:18.000Z</time>
        <extensions>
          <ns3:TrackPointExtension>
            <ns3:hr>132</ns3:hr>
            <ns3:cad>0</ns3:cad>
          </ns3:TrackPointExtension>
        </extensions>
      </trkpt>
      <trkpt lat="37.78288054279983043670654296875" lon="-107.70364006049931049346923828125">
        <ele>3941.60009765625</ele>
        <time>2023-07-29T16:04:19.000Z</time>
        <extensions>
          <ns3:TrackPointExtension>
            <ns3:hr>132</ns3:hr>
            <ns3:cad>0</ns3:cad>
          </ns3:TrackPointExtension>
        </extensions>
      </trkpt>
      <trkpt lat="37.78288020752370357513427734375" lon="-107.7036429941654205322265625">
        <ele>3942</ele>
        <time>2023-07-29T16:04:20.000Z</time>
        <extensions>
          <ns3:TrackPointExtension>
            <ns3:hr>132</ns3:hr>
            <ns3:cad>0</ns3:cad>
          </ns3:TrackPointExtension>
        </extensions>
      </trkpt>
      <trkpt lat="37.78288003988564014434814453125" lon="-107.70364693365991115570068359375">
        <ele>3942.199951171875</ele>
        <time>2023-07-29T16:04:21.000Z</time>
        <extensions>
          <ns3:TrackPointExtension>
            <ns3:hr>132</ns3:hr>
            <ns3:cad>0</ns3:cad>
          </ns3:TrackPointExtension>
        </extensions>
      </trkpt>
      <trkpt lat="37.78287651948630809783935546875" lon="-107.70365078933537006378173828125">
        <ele>3942.39990234375</ele>
        <time>2023-07-29T16:04:22.000Z</time>
        <extensions>
          <ns3:TrackPointExtension>
            <ns3:hr>132</ns3:hr>
            <ns3:cad>0</ns3:cad>
          </ns3:TrackPointExtension>
        </extensions>
      </trkpt>
      <trkpt lat="37.782877273857593536376953125" lon="-107.70365229807794094085693359375">
        <ele>3942.60009765625</ele>
        <time>2023-07-29T16:04:23.000Z</time>
        <extensions>
          <ns3:TrackPointExtension>
            <ns3:hr>133</ns3:hr>
            <ns3:cad>0</ns3:cad>
          </ns3:TrackPointExtension>
        </extensions>
      </trkpt>
      <trkpt lat="37.78288356028497219085693359375" lon="-107.703662775456905364990234375">
        <ele>3942.800048828125</ele>
        <time>2023-07-29T16:04:24.000Z</time>
        <extensions>
          <ns3:TrackPointExtension>
            <ns3:hr>133</ns3:hr>
            <ns3:cad>0</ns3:cad>
          </ns3:TrackPointExtension>
        </extensions>
      </trkpt>
      <trkpt lat="37.78288590721786022186279296875" lon="-107.70366252399981021881103515625">
        <ele>3943</ele>
        <time>2023-07-29T16:04:25.000Z</time>
        <extensions>
          <ns3:TrackPointExtension>
            <ns3:hr>133</ns3:hr>
            <ns3:cad>0</ns3:cad>
          </ns3:TrackPointExtension>
        </extensions>
      </trkpt>
      <trkpt lat="37.782892696559429168701171875" lon="-107.70366654731333255767822265625">
        <ele>3943</ele>
        <time>2023-07-29T16:04:26.000Z</time>
        <extensions>
          <ns3:TrackPointExtension>
            <ns3:hr>133</ns3:hr>
            <ns3:cad>0</ns3:cad>
          </ns3:TrackPointExtension>
        </extensions>
      </trkpt>
      <trkpt lat="37.78290015645325183868408203125" lon="-107.7036649547517299652099609375">
        <ele>3943.199951171875</ele>
        <time>2023-07-29T16:04:27.000Z</time>
        <extensions>
          <ns3:TrackPointExtension>
            <ns3:hr>134</ns3:hr>
            <ns3:cad>0</ns3:cad>
          </ns3:TrackPointExtension>
        </extensions>
      </trkpt>
      <trkpt lat="37.7829089574515819549560546875" lon="-107.7036689780652523040771484375">
        <ele>3943.39990234375</ele>
        <time>2023-07-29T16:04:28.000Z</time>
        <extensions>
          <ns3:TrackPointExtension>
            <ns3:hr>134</ns3:hr>
            <ns3:cad>0</ns3:cad>
          </ns3:TrackPointExtension>
        </extensions>
      </trkpt>
      <trkpt lat="37.7829200215637683868408203125" lon="-107.7036689780652523040771484375">
        <ele>3943.800048828125</ele>
        <time>2023-07-29T16:04:29.000Z</time>
        <extensions>
          <ns3:TrackPointExtension>
            <ns3:hr>134</ns3:hr>
            <ns3:cad>0</ns3:cad>
          </ns3:TrackPointExtension>
        </extensions>
      </trkpt>
      <trkpt lat="37.78292899020016193389892578125" lon="-107.70367090590298175811767578125">
        <ele>3944.199951171875</ele>
        <time>2023-07-29T16:04:30.000Z</time>
        <extensions>
          <ns3:TrackPointExtension>
            <ns3:hr>135</ns3:hr>
            <ns3:cad>0</ns3:cad>
          </ns3:TrackPointExtension>
        </extensions>
      </trkpt>
      <trkpt lat="37.7829334326088428497314453125" lon="-107.7036709897220134735107421875">
        <ele>3944.199951171875</ele>
        <time>2023-07-29T16:04:31.000Z</time>
        <extensions>
          <ns3:TrackPointExtension>
            <ns3:hr>135</ns3:hr>
            <ns3:cad>0</ns3:cad>
          </ns3:TrackPointExtension>
        </extensions>
      </trkpt>
      <trkpt lat="37.78294189833104610443115234375" lon="-107.70367291755974292755126953125">
        <ele>3944.39990234375</ele>
        <time>2023-07-29T16:04:32.000Z</time>
        <extensions>
          <ns3:TrackPointExtension>
            <ns3:hr>137</ns3:hr>
            <ns3:cad>0</ns3:cad>
          </ns3:TrackPointExtension>
        </extensions>
      </trkpt>
      <trkpt lat="37.78294357471168041229248046875" lon="-107.7036726661026477813720703125">
        <ele>3944.39990234375</ele>
        <time>2023-07-29T16:04:33.000Z</time>
        <extensions>
          <ns3:TrackPointExtension>
            <ns3:hr>137</ns3:hr>
            <ns3:cad>0</ns3:cad>
          </ns3:TrackPointExtension>
        </extensions>
      </trkpt>
      <trkpt lat="37.78294625692069530487060546875" lon="-107.7036724984645843505859375">
        <ele>3944.800048828125</ele>
        <time>2023-07-29T16:04:34.000Z</time>
        <extensions>
          <ns3:TrackPointExtension>
            <ns3:hr>137</ns3:hr>
            <ns3:cad>0</ns3:cad>
          </ns3:TrackPointExtension>
        </extensions>
      </trkpt>
      <trkpt lat="37.78295111842453479766845703125" lon="-107.7036699838936328887939453125">
        <ele>3944.800048828125</ele>
        <time>2023-07-29T16:04:35.000Z</time>
        <extensions>
          <ns3:TrackPointExtension>
            <ns3:hr>136</ns3:hr>
            <ns3:cad>0</ns3:cad>
          </ns3:TrackPointExtension>
        </extensions>
      </trkpt>
      <trkpt lat="37.78295849449932575225830078125" lon="-107.7036703191697597503662109375">
        <ele>3945.39990234375</ele>
        <time>2023-07-29T16:04:36.000Z</time>
        <extensions>
          <ns3:TrackPointExtension>
            <ns3:hr>136</ns3:hr>
            <ns3:cad>0</ns3:cad>
          </ns3:TrackPointExtension>
        </extensions>
      </trkpt>
      <trkpt lat="37.78296536765992641448974609375" lon="-107.70367023535072803497314453125">
        <ele>3945.39990234375</ele>
        <time>2023-07-29T16:04:37.000Z</time>
        <extensions>
          <ns3:TrackPointExtension>
            <ns3:hr>137</ns3:hr>
            <ns3:cad>0</ns3:cad>
          </ns3:TrackPointExtension>
        </extensions>
      </trkpt>
      <trkpt lat="37.78297207318246364593505859375" lon="-107.7036709897220134735107421875">
        <ele>3945.60009765625</ele>
        <time>2023-07-29T16:04:38.000Z</time>
        <extensions>
          <ns3:TrackPointExtension>
            <ns3:hr>138</ns3:hr>
            <ns3:cad>0</ns3:cad>
          </ns3:TrackPointExtension>
        </extensions>
      </trkpt>
      <trkpt lat="37.7829708158969879150390625" lon="-107.70366990007460117340087890625">
        <ele>3945.800048828125</ele>
        <time>2023-07-29T16:04:39.000Z</time>
        <extensions>
          <ns3:TrackPointExtension>
            <ns3:hr>138</ns3:hr>
            <ns3:cad>0</ns3:cad>
          </ns3:TrackPointExtension>
        </extensions>
      </trkpt>
      <trkpt lat="37.78297743760049343109130859375" lon="-107.7036713249981403350830078125">
        <ele>3945.800048828125</ele>
        <time>2023-07-29T16:04:40.000Z</time>
        <extensions>
          <ns3:TrackPointExtension>
            <ns3:hr>138</ns3:hr>
            <ns3:cad>0</ns3:cad>
          </ns3:TrackPointExtension>
        </extensions>
      </trkpt>
      <trkpt lat="37.7829776890575885772705078125" lon="-107.70367182791233062744140625">
        <ele>3946</ele>
        <time>2023-07-29T16:04:41.000Z</time>
        <extensions>
          <ns3:TrackPointExtension>
            <ns3:hr>138</ns3:hr>
            <ns3:cad>0</ns3:cad>
          </ns3:TrackPointExtension>
        </extensions>
      </trkpt>
      <trkpt lat="37.78298355638980865478515625" lon="-107.70367124117910861968994140625">
        <ele>3946</ele>
        <time>2023-07-29T16:04:42.000Z</time>
        <extensions>
          <ns3:TrackPointExtension>
            <ns3:hr>138</ns3:hr>
            <ns3:cad>0</ns3:cad>
          </ns3:TrackPointExtension>
        </extensions>
      </trkpt>
      <trkpt lat="37.78298766352236270904541015625" lon="-107.703673504292964935302734375">
        <ele>3946.39990234375</ele>
        <time>2023-07-29T16:04:43.000Z</time>
        <extensions>
          <ns3:TrackPointExtension>
            <ns3:hr>138</ns3:hr>
            <ns3:cad>0</ns3:cad>
          </ns3:TrackPointExtension>
        </extensions>
      </trkpt>
      <trkpt lat="37.78299051336944103240966796875" lon="-107.70367492921650409698486328125">
        <ele>3946.39990234375</ele>
        <time>2023-07-29T16:04:44.000Z</time>
        <extensions>
          <ns3:TrackPointExtension>
            <ns3:hr>139</ns3:hr>
            <ns3:cad>0</ns3:cad>
          </ns3:TrackPointExtension>
        </extensions>
      </trkpt>
      <trkpt lat="37.782992608845233917236328125" lon="-107.703678868710994720458984375">
        <ele>3946.39990234375</ele>
        <time>2023-07-29T16:04:45.000Z</time>
        <extensions>
          <ns3:TrackPointExtension>
            <ns3:hr>139</ns3:hr>
            <ns3:cad>0</ns3:cad>
          </ns3:TrackPointExtension>
        </extensions>
      </trkpt>
      <trkpt lat="37.7830014936625957489013671875" lon="-107.70368146710097789764404296875">
        <ele>3946.60009765625</ele>
        <time>2023-07-29T16:04:46.000Z</time>
        <extensions>
          <ns3:TrackPointExtension>
            <ns3:hr>139</ns3:hr>
            <ns3:cad>0</ns3:cad>
          </ns3:TrackPointExtension>
        </extensions>
      </trkpt>
      <trkpt lat="37.78301448561251163482666015625" lon="-107.703686915338039398193359375">
        <ele>3947</ele>
        <time>2023-07-29T16:04:47.000Z</time>
        <extensions>
          <ns3:TrackPointExtension>
            <ns3:hr>139</ns3:hr>
            <ns3:cad>0</ns3:cad>
          </ns3:TrackPointExtension>
        </extensions>
      </trkpt>
      <trkpt lat="37.7830231189727783203125" lon="-107.70369018428027629852294921875">
        <ele>3947</ele>
        <time>2023-07-29T16:04:48.000Z</time>
        <extensions>
          <ns3:TrackPointExtension>
            <ns3:hr>139</ns3:hr>
            <ns3:cad>0</ns3:cad>
          </ns3:TrackPointExtension>
        </extensions>
      </trkpt>
      <trkpt lat="37.7830299921333789825439453125" lon="-107.70369756035506725311279296875">
        <ele>3947.39990234375</ele>
        <time>2023-07-29T16:04:49.000Z</time>
        <extensions>
          <ns3:TrackPointExtension>
            <ns3:hr>138</ns3:hr>
            <ns3:cad>0</ns3:cad>
          </ns3:TrackPointExtension>
        </extensions>
      </trkpt>
      <trkpt lat="37.783044911921024322509765625" lon="-107.70370594225823879241943359375">
        <ele>3947.39990234375</ele>
        <time>2023-07-29T16:04:50.000Z</time>
        <extensions>
          <ns3:TrackPointExtension>
            <ns3:hr>137</ns3:hr>
            <ns3:cad>0</ns3:cad>
          </ns3:TrackPointExtension>
        </extensions>
      </trkpt>
      <trkpt lat="37.7830504439771175384521484375" lon="-107.7037105523049831390380859375">
        <ele>3947.60009765625</ele>
        <time>2023-07-29T16:04:51.000Z</time>
        <extensions>
          <ns3:TrackPointExtension>
            <ns3:hr>137</ns3:hr>
            <ns3:cad>0</ns3:cad>
          </ns3:TrackPointExtension>
        </extensions>
      </trkpt>
      <trkpt lat="37.7830593287944793701171875" lon="-107.7037192694842815399169921875">
        <ele>3947.800048828125</ele>
        <time>2023-07-29T16:04:52.000Z</time>
        <extensions>
          <ns3:TrackPointExtension>
            <ns3:hr>137</ns3:hr>
            <ns3:cad>0</ns3:cad>
          </ns3:TrackPointExtension>
        </extensions>
      </trkpt>
      <trkpt lat="37.78306511230766773223876953125" lon="-107.70372455008327960968017578125">
        <ele>3948</ele>
        <time>2023-07-29T16:04:53.000Z</time>
        <extensions>
          <ns3:TrackPointExtension>
            <ns3:hr>137</ns3:hr>
            <ns3:cad>0</ns3:cad>
          </ns3:TrackPointExtension>
        </extensions>
      </trkpt>
      <trkpt lat="37.7830708958208560943603515625" lon="-107.70372807048261165618896484375">
        <ele>3948</ele>
        <time>2023-07-29T16:04:54.000Z</time>
        <extensions>
          <ns3:TrackPointExtension>
            <ns3:hr>137</ns3:hr>
            <ns3:cad>0</ns3:cad>
          </ns3:TrackPointExtension>
        </extensions>
      </trkpt>
      <trkpt lat="37.78307835571467876434326171875" lon="-107.70372672937810420989990234375">
        <ele>3948.199951171875</ele>
        <time>2023-07-29T16:04:55.000Z</time>
        <extensions>
          <ns3:TrackPointExtension>
            <ns3:hr>137</ns3:hr>
            <ns3:cad>0</ns3:cad>
          </ns3:TrackPointExtension>
        </extensions>
      </trkpt>
      <trkpt lat="37.7830863185226917266845703125" lon="-107.70372455008327960968017578125">
        <ele>3948.199951171875</ele>
        <time>2023-07-29T16:04:56.000Z</time>
        <extensions>
          <ns3:TrackPointExtension>
            <ns3:hr>137</ns3:hr>
            <ns3:cad>0</ns3:cad>
          </ns3:TrackPointExtension>
        </extensions>
      </trkpt>
      <trkpt lat="37.7830967120826244354248046875" lon="-107.70372421480715274810791015625">
        <ele>3948.39990234375</ele>
        <time>2023-07-29T16:04:57.000Z</time>
        <extensions>
          <ns3:TrackPointExtension>
            <ns3:hr>137</ns3:hr>
            <ns3:cad>0</ns3:cad>
          </ns3:TrackPointExtension>
        </extensions>
      </trkpt>
      <trkpt lat="37.78310802765190601348876953125" lon="-107.70372337661683559417724609375">
        <ele>3948.39990234375</ele>
        <time>2023-07-29T16:04:58.000Z</time>
        <extensions>
          <ns3:TrackPointExtension>
            <ns3:hr>137</ns3:hr>
            <ns3:cad>0</ns3:cad>
          </ns3:TrackPointExtension>
        </extensions>
      </trkpt>
      <trkpt lat="37.78311121277511119842529296875" lon="-107.7037212811410427093505859375">
        <ele>3948.800048828125</ele>
        <time>2023-07-29T16:04:59.000Z</time>
        <extensions>
          <ns3:TrackPointExtension>
            <ns3:hr>137</ns3:hr>
            <ns3:cad>0</ns3:cad>
          </ns3:TrackPointExtension>
        </extensions>
      </trkpt>
      <trkpt lat="37.78311540372669696807861328125" lon="-107.7037212811410427093505859375">
        <ele>3948.800048828125</ele>
        <time>2023-07-29T16:05:00.000Z</time>
        <extensions>
          <ns3:TrackPointExtension>
            <ns3:hr>137</ns3:hr>
            <ns3:cad>0</ns3:cad>
          </ns3:TrackPointExtension>
        </extensions>
      </trkpt>
      <trkpt lat="37.78311523608863353729248046875" lon="-107.7037219516932964324951171875">
        <ele>3949.39990234375</ele>
        <time>2023-07-29T16:05:01.000Z</time>
        <extensions>
          <ns3:TrackPointExtension>
            <ns3:hr>136</ns3:hr>
            <ns3:cad>0</ns3:cad>
          </ns3:TrackPointExtension>
        </extensions>
      </trkpt>
      <trkpt lat="37.78311691246926784515380859375" lon="-107.70372639410197734832763671875">
        <ele>3949.39990234375</ele>
        <time>2023-07-29T16:05:02.000Z</time>
        <extensions>
          <ns3:TrackPointExtension>
            <ns3:hr>136</ns3:hr>
            <ns3:cad>0</ns3:cad>
          </ns3:TrackPointExtension>
        </extensions>
      </trkpt>
      <trkpt lat="37.7831210196018218994140625" lon="-107.70372974686324596405029296875">
        <ele>3949.60009765625</ele>
        <time>2023-07-29T16:05:03.000Z</time>
        <extensions>
          <ns3:TrackPointExtension>
            <ns3:hr>136</ns3:hr>
            <ns3:cad>0</ns3:cad>
          </ns3:TrackPointExtension>
        </extensions>
      </trkpt>
      <trkpt lat="37.78312361799180507659912109375" lon="-107.70373511128127574920654296875">
        <ele>3949.800048828125</ele>
        <time>2023-07-29T16:05:04.000Z</time>
        <extensions>
          <ns3:TrackPointExtension>
            <ns3:hr>137</ns3:hr>
            <ns3:cad>0</ns3:cad>
          </ns3:TrackPointExtension>
        </extensions>
      </trkpt>
      <trkpt lat="37.783129401504993438720703125" lon="-107.70373863168060779571533203125">
        <ele>3949.800048828125</ele>
        <time>2023-07-29T16:05:05.000Z</time>
        <extensions>
          <ns3:TrackPointExtension>
            <ns3:hr>138</ns3:hr>
            <ns3:cad>0</ns3:cad>
          </ns3:TrackPointExtension>
        </extensions>
      </trkpt>
      <trkpt lat="37.78313417918980121612548828125" lon="-107.7037390507757663726806640625">
        <ele>3950.199951171875</ele>
        <time>2023-07-29T16:05:06.000Z</time>
        <extensions>
          <ns3:TrackPointExtension>
            <ns3:hr>138</ns3:hr>
            <ns3:cad>0</ns3:cad>
          </ns3:TrackPointExtension>
        </extensions>
      </trkpt>
      <trkpt lat="37.7831376157701015472412109375" lon="-107.70373477600514888763427734375">
        <ele>3950.199951171875</ele>
        <time>2023-07-29T16:05:07.000Z</time>
        <extensions>
          <ns3:TrackPointExtension>
            <ns3:hr>138</ns3:hr>
            <ns3:cad>0</ns3:cad>
          </ns3:TrackPointExtension>
        </extensions>
      </trkpt>
      <trkpt lat="37.78314021416008472442626953125" lon="-107.7037341892719268798828125">
        <ele>3950.39990234375</ele>
        <time>2023-07-29T16:05:08.000Z</time>
        <extensions>
          <ns3:TrackPointExtension>
            <ns3:hr>138</ns3:hr>
            <ns3:cad>0</ns3:cad>
          </ns3:TrackPointExtension>
        </extensions>
      </trkpt>
      <trkpt lat="37.78314708732068538665771484375" lon="-107.70373226143419742584228515625">
        <ele>3950.39990234375</ele>
        <time>2023-07-29T16:05:09.000Z</time>
        <extensions>
          <ns3:TrackPointExtension>
            <ns3:hr>138</ns3:hr>
            <ns3:cad>0</ns3:cad>
          </ns3:TrackPointExtension>
        </extensions>
      </trkpt>
      <trkpt lat="37.783154547214508056640625" lon="-107.7037313394248485565185546875">
        <ele>3950.60009765625</ele>
        <time>2023-07-29T16:05:10.000Z</time>
        <extensions>
          <ns3:TrackPointExtension>
            <ns3:hr>138</ns3:hr>
            <ns3:cad>0</ns3:cad>
          </ns3:TrackPointExtension>
        </extensions>
      </trkpt>
      <trkpt lat="37.7831617556512355804443359375" lon="-107.7037274837493896484375">
        <ele>3950.800048828125</ele>
        <time>2023-07-29T16:05:11.000Z</time>
        <extensions>
          <ns3:TrackPointExtension>
            <ns3:hr>137</ns3:hr>
            <ns3:cad>0</ns3:cad>
          </ns3:TrackPointExtension>
        </extensions>
      </trkpt>
      <trkpt lat="37.78316552750766277313232421875" lon="-107.7037249691784381866455078125">
        <ele>3951.199951171875</ele>
        <time>2023-07-29T16:05:12.000Z</time>
        <extensions>
          <ns3:TrackPointExtension>
            <ns3:hr>136</ns3:hr>
            <ns3:cad>0</ns3:cad>
          </ns3:TrackPointExtension>
        </extensions>
      </trkpt>
      <trkpt lat="37.78317307122051715850830078125" lon="-107.70372404716908931732177734375">
        <ele>3951.39990234375</ele>
        <time>2023-07-29T16:05:13.000Z</time>
        <extensions>
          <ns3:TrackPointExtension>
            <ns3:hr>136</ns3:hr>
            <ns3:cad>0</ns3:cad>
          </ns3:TrackPointExtension>
        </extensions>
      </trkpt>
      <trkpt lat="37.783179692924022674560546875" lon="-107.70372371189296245574951171875">
        <ele>3951.39990234375</ele>
        <time>2023-07-29T16:05:14.000Z</time>
        <extensions>
          <ns3:TrackPointExtension>
            <ns3:hr>137</ns3:hr>
            <ns3:cad>0</ns3:cad>
          </ns3:TrackPointExtension>
        </extensions>
      </trkpt>
      <trkpt lat="37.78319050557911396026611328125" lon="-107.70372320897877216339111328125">
        <ele>3951.39990234375</ele>
        <time>2023-07-29T16:05:15.000Z</time>
        <extensions>
          <ns3:TrackPointExtension>
            <ns3:hr>137</ns3:hr>
            <ns3:cad>0</ns3:cad>
          </ns3:TrackPointExtension>
        </extensions>
      </trkpt>
      <trkpt lat="37.78319302015006542205810546875" lon="-107.7037232927978038787841796875">
        <ele>3951.800048828125</ele>
        <time>2023-07-29T16:05:16.000Z</time>
        <extensions>
          <ns3:TrackPointExtension>
            <ns3:hr>137</ns3:hr>
            <ns3:cad>0</ns3:cad>
          </ns3:TrackPointExtension>
        </extensions>
      </trkpt>
      <trkpt lat="37.78319922275841236114501953125" lon="-107.70372304134070873260498046875">
        <ele>3951.800048828125</ele>
        <time>2023-07-29T16:05:17.000Z</time>
        <extensions>
          <ns3:TrackPointExtension>
            <ns3:hr>137</ns3:hr>
            <ns3:cad>0</ns3:cad>
          </ns3:TrackPointExtension>
        </extensions>
      </trkpt>
      <trkpt lat="37.7832009829580783843994140625" lon="-107.70372739993035793304443359375">
        <ele>3952.199951171875</ele>
        <time>2023-07-29T16:05:18.000Z</time>
        <extensions>
          <ns3:TrackPointExtension>
            <ns3:hr>137</ns3:hr>
            <ns3:cad>49</ns3:cad>
          </ns3:TrackPointExtension>
        </extensions>
      </trkpt>
      <trkpt lat="37.7831999771296977996826171875" lon="-107.70372974686324596405029296875">
        <ele>3952.199951171875</ele>
        <time>2023-07-29T16:05:19.000Z</time>
        <extensions>
          <ns3:TrackPointExtension>
            <ns3:hr>137</ns3:hr>
            <ns3:cad>49</ns3:cad>
          </ns3:TrackPointExtension>
        </extensions>
      </trkpt>
      <trkpt lat="37.78320743702352046966552734375" lon="-107.703731842339038848876953125">
        <ele>3952.199951171875</ele>
        <time>2023-07-29T16:05:20.000Z</time>
        <extensions>
          <ns3:TrackPointExtension>
            <ns3:hr>137</ns3:hr>
            <ns3:cad>49</ns3:cad>
          </ns3:TrackPointExtension>
        </extensions>
      </trkpt>
      <trkpt lat="37.78321313671767711639404296875" lon="-107.7037320099771022796630859375">
        <ele>3952.60009765625</ele>
        <time>2023-07-29T16:05:21.000Z</time>
        <extensions>
          <ns3:TrackPointExtension>
            <ns3:hr>137</ns3:hr>
            <ns3:cad>0</ns3:cad>
          </ns3:TrackPointExtension>
        </extensions>
      </trkpt>
      <trkpt lat="37.78322202153503894805908203125" lon="-107.70373477600514888763427734375">
        <ele>3952.800048828125</ele>
        <time>2023-07-29T16:05:22.000Z</time>
        <extensions>
          <ns3:TrackPointExtension>
            <ns3:hr>137</ns3:hr>
            <ns3:cad>0</ns3:cad>
          </ns3:TrackPointExtension>
        </extensions>
      </trkpt>
      <trkpt lat="37.7832358516752719879150390625" lon="-107.70373896695673465728759765625">
        <ele>3952.800048828125</ele>
        <time>2023-07-29T16:05:23.000Z</time>
        <extensions>
          <ns3:TrackPointExtension>
            <ns3:hr>137</ns3:hr>
            <ns3:cad>0</ns3:cad>
          </ns3:TrackPointExtension>
        </extensions>
      </trkpt>
      <trkpt lat="37.783241383731365203857421875" lon="-107.70373946987092494964599609375">
        <ele>3953</ele>
        <time>2023-07-29T16:05:24.000Z</time>
        <extensions>
          <ns3:TrackPointExtension>
            <ns3:hr>137</ns3:hr>
            <ns3:cad>0</ns3:cad>
          </ns3:TrackPointExtension>
        </extensions>
      </trkpt>
      <trkpt lat="37.783246077597141265869140625" lon="-107.70374424755573272705078125">
        <ele>3953.199951171875</ele>
        <time>2023-07-29T16:05:25.000Z</time>
        <extensions>
          <ns3:TrackPointExtension>
            <ns3:hr>137</ns3:hr>
            <ns3:cad>79</ns3:cad>
          </ns3:TrackPointExtension>
        </extensions>
      </trkpt>
      <trkpt lat="37.78325018472969532012939453125" lon="-107.7037504501640796661376953125">
        <ele>3953.39990234375</ele>
        <time>2023-07-29T16:05:26.000Z</time>
        <extensions>
          <ns3:TrackPointExtension>
            <ns3:hr>137</ns3:hr>
            <ns3:cad>79</ns3:cad>
          </ns3:TrackPointExtension>
        </extensions>
      </trkpt>
      <trkpt lat="37.78325353749096393585205078125" lon="-107.7037529647350311279296875">
        <ele>3953.800048828125</ele>
        <time>2023-07-29T16:05:27.000Z</time>
        <extensions>
          <ns3:TrackPointExtension>
            <ns3:hr>137</ns3:hr>
            <ns3:cad>0</ns3:cad>
          </ns3:TrackPointExtension>
        </extensions>
      </trkpt>
      <trkpt lat="37.7832596562802791595458984375" lon="-107.70375858061015605926513671875">
        <ele>3954</ele>
        <time>2023-07-29T16:05:28.000Z</time>
        <extensions>
          <ns3:TrackPointExtension>
            <ns3:hr>137</ns3:hr>
            <ns3:cad>0</ns3:cad>
          </ns3:TrackPointExtension>
        </extensions>
      </trkpt>
      <trkpt lat="37.78325957246124744415283203125" lon="-107.7037601731717586517333984375">
        <ele>3954.39990234375</ele>
        <time>2023-07-29T16:05:29.000Z</time>
        <extensions>
          <ns3:TrackPointExtension>
            <ns3:hr>137</ns3:hr>
            <ns3:cad>0</ns3:cad>
          </ns3:TrackPointExtension>
        </extensions>
      </trkpt>
      <trkpt lat="37.7832658588886260986328125" lon="-107.7037635259330272674560546875">
        <ele>3954.60009765625</ele>
        <time>2023-07-29T16:05:30.000Z</time>
        <extensions>
          <ns3:TrackPointExtension>
            <ns3:hr>137</ns3:hr>
            <ns3:cad>0</ns3:cad>
          </ns3:TrackPointExtension>
        </extensions>
      </trkpt>
      <trkpt lat="37.7832730673253536224365234375" lon="-107.70376612432301044464111328125">
        <ele>3954.800048828125</ele>
        <time>2023-07-29T16:05:31.000Z</time>
        <extensions>
          <ns3:TrackPointExtension>
            <ns3:hr>136</ns3:hr>
            <ns3:cad>0</ns3:cad>
          </ns3:TrackPointExtension>
        </extensions>
      </trkpt>
      <trkpt lat="37.78327901847660541534423828125" lon="-107.7037672139704227447509765625">
        <ele>3954.800048828125</ele>
        <time>2023-07-29T16:05:32.000Z</time>
        <extensions>
          <ns3:TrackPointExtension>
            <ns3:hr>136</ns3:hr>
            <ns3:cad>0</ns3:cad>
          </ns3:TrackPointExtension>
        </extensions>
      </trkpt>
      <trkpt lat="37.783288322389125823974609375" lon="-107.703769393265247344970703125">
        <ele>3954.800048828125</ele>
        <time>2023-07-29T16:05:33.000Z</time>
        <extensions>
          <ns3:TrackPointExtension>
            <ns3:hr>136</ns3:hr>
            <ns3:cad>0</ns3:cad>
          </ns3:TrackPointExtension>
        </extensions>
      </trkpt>
      <trkpt lat="37.7832925133407115936279296875" lon="-107.7037648670375347137451171875">
        <ele>3955.39990234375</ele>
        <time>2023-07-29T16:05:34.000Z</time>
        <extensions>
          <ns3:TrackPointExtension>
            <ns3:hr>136</ns3:hr>
            <ns3:cad>0</ns3:cad>
          </ns3:TrackPointExtension>
        </extensions>
      </trkpt>
      <trkpt lat="37.78330047614872455596923828125" lon="-107.7037665434181690216064453125">
        <ele>3955.39990234375</ele>
        <time>2023-07-29T16:05:35.000Z</time>
        <extensions>
          <ns3:TrackPointExtension>
            <ns3:hr>136</ns3:hr>
            <ns3:cad>0</ns3:cad>
          </ns3:TrackPointExtension>
        </extensions>
      </trkpt>
      <trkpt lat="37.783301062881946563720703125" lon="-107.70376780070364475250244140625">
        <ele>3955.60009765625</ele>
        <time>2023-07-29T16:05:36.000Z</time>
        <extensions>
          <ns3:TrackPointExtension>
            <ns3:hr>135</ns3:hr>
            <ns3:cad>0</ns3:cad>
          </ns3:TrackPointExtension>
        </extensions>
      </trkpt>
      <trkpt lat="37.7833114564418792724609375" lon="-107.70377282984554767608642578125">
        <ele>3955.800048828125</ele>
        <time>2023-07-29T16:05:37.000Z</time>
        <extensions>
          <ns3:TrackPointExtension>
            <ns3:hr>135</ns3:hr>
            <ns3:cad>0</ns3:cad>
          </ns3:TrackPointExtension>
        </extensions>
      </trkpt>
      <trkpt lat="37.78331522829830646514892578125" lon="-107.70377576351165771484375">
        <ele>3956</ele>
        <time>2023-07-29T16:05:38.000Z</time>
        <extensions>
          <ns3:TrackPointExtension>
            <ns3:hr>135</ns3:hr>
            <ns3:cad>0</ns3:cad>
          </ns3:TrackPointExtension>
        </extensions>
      </trkpt>
      <trkpt lat="37.7833253704011440277099609375" lon="-107.7037819661200046539306640625">
        <ele>3956</ele>
        <time>2023-07-29T16:05:39.000Z</time>
        <extensions>
          <ns3:TrackPointExtension>
            <ns3:hr>135</ns3:hr>
            <ns3:cad>0</ns3:cad>
          </ns3:TrackPointExtension>
        </extensions>
      </trkpt>
      <trkpt lat="37.7833350934088230133056640625" lon="-107.7037856541574001312255859375">
        <ele>3956.199951171875</ele>
        <time>2023-07-29T16:05:40.000Z</time>
        <extensions>
          <ns3:TrackPointExtension>
            <ns3:hr>134</ns3:hr>
            <ns3:cad>0</ns3:cad>
          </ns3:TrackPointExtension>
        </extensions>
      </trkpt>
      <trkpt lat="37.78333785943686962127685546875" lon="-107.70378523506224155426025390625">
        <ele>3956.39990234375</ele>
        <time>2023-07-29T16:05:41.000Z</time>
        <extensions>
          <ns3:TrackPointExtension>
            <ns3:hr>134</ns3:hr>
            <ns3:cad>0</ns3:cad>
          </ns3:TrackPointExtension>
        </extensions>
      </trkpt>
      <trkpt lat="37.783348001539707183837890625" lon="-107.7037851512432098388671875">
        <ele>3956.39990234375</ele>
        <time>2023-07-29T16:05:42.000Z</time>
        <extensions>
          <ns3:TrackPointExtension>
            <ns3:hr>134</ns3:hr>
            <ns3:cad>0</ns3:cad>
          </ns3:TrackPointExtension>
        </extensions>
      </trkpt>
      <trkpt lat="37.7833525277674198150634765625" lon="-107.70378607325255870819091796875">
        <ele>3956.60009765625</ele>
        <time>2023-07-29T16:05:43.000Z</time>
        <extensions>
          <ns3:TrackPointExtension>
            <ns3:hr>134</ns3:hr>
            <ns3:cad>0</ns3:cad>
          </ns3:TrackPointExtension>
        </extensions>
      </trkpt>
      <trkpt lat="37.78336283750832080841064453125" lon="-107.70378925837576389312744140625">
        <ele>3956.800048828125</ele>
        <time>2023-07-29T16:05:44.000Z</time>
        <extensions>
          <ns3:TrackPointExtension>
            <ns3:hr>133</ns3:hr>
            <ns3:cad>0</ns3:cad>
          </ns3:TrackPointExtension>
        </extensions>
      </trkpt>
      <trkpt lat="37.78337155468761920928955078125" lon="-107.70379361696541309356689453125">
        <ele>3957</ele>
        <time>2023-07-29T16:05:45.000Z</time>
        <extensions>
          <ns3:TrackPointExtension>
            <ns3:hr>133</ns3:hr>
            <ns3:cad>0</ns3:cad>
          </ns3:TrackPointExtension>
        </extensions>
      </trkpt>
      <trkpt lat="37.7833838760852813720703125" lon="-107.7037980593740940093994140625">
        <ele>3957.199951171875</ele>
        <time>2023-07-29T16:05:46.000Z</time>
        <extensions>
          <ns3:TrackPointExtension>
            <ns3:hr>133</ns3:hr>
            <ns3:cad>0</ns3:cad>
          </ns3:TrackPointExtension>
        </extensions>
      </trkpt>
      <trkpt lat="37.783392257988452911376953125" lon="-107.7038012444972991943359375">
        <ele>3957.39990234375</ele>
        <time>2023-07-29T16:05:47.000Z</time>
        <extensions>
          <ns3:TrackPointExtension>
            <ns3:hr>133</ns3:hr>
            <ns3:cad>0</ns3:cad>
          </ns3:TrackPointExtension>
        </extensions>
      </trkpt>
      <trkpt lat="37.7834071777760982513427734375" lon="-107.70380593836307525634765625">
        <ele>3957.60009765625</ele>
        <time>2023-07-29T16:05:48.000Z</time>
        <extensions>
          <ns3:TrackPointExtension>
            <ns3:hr>133</ns3:hr>
            <ns3:cad>0</ns3:cad>
          </ns3:TrackPointExtension>
        </extensions>
      </trkpt>
      <trkpt lat="37.78342285193502902984619140625" lon="-107.703810296952724456787109375">
        <ele>3957.60009765625</ele>
        <time>2023-07-29T16:05:49.000Z</time>
        <extensions>
          <ns3:TrackPointExtension>
            <ns3:hr>134</ns3:hr>
            <ns3:cad>0</ns3:cad>
          </ns3:TrackPointExtension>
        </extensions>
      </trkpt>
      <trkpt lat="37.78343148529529571533203125" lon="-107.70381356589496135711669921875">
        <ele>3957.800048828125</ele>
        <time>2023-07-29T16:05:50.000Z</time>
        <extensions>
          <ns3:TrackPointExtension>
            <ns3:hr>134</ns3:hr>
            <ns3:cad>0</ns3:cad>
          </ns3:TrackPointExtension>
        </extensions>
      </trkpt>
      <trkpt lat="37.78344062156975269317626953125" lon="-107.7038175053894519805908203125">
        <ele>3957.800048828125</ele>
        <time>2023-07-29T16:05:51.000Z</time>
        <extensions>
          <ns3:TrackPointExtension>
            <ns3:hr>135</ns3:hr>
            <ns3:cad>0</ns3:cad>
          </ns3:TrackPointExtension>
        </extensions>
      </trkpt>
      <trkpt lat="37.78344690799713134765625" lon="-107.7038191817700862884521484375">
        <ele>3958</ele>
        <time>2023-07-29T16:05:52.000Z</time>
        <extensions>
          <ns3:TrackPointExtension>
            <ns3:hr>136</ns3:hr>
            <ns3:cad>0</ns3:cad>
          </ns3:TrackPointExtension>
        </extensions>
      </trkpt>
      <trkpt lat="37.783451266586780548095703125" lon="-107.7038171701133251190185546875">
        <ele>3958.199951171875</ele>
        <time>2023-07-29T16:05:53.000Z</time>
        <extensions>
          <ns3:TrackPointExtension>
            <ns3:hr>136</ns3:hr>
            <ns3:cad>0</ns3:cad>
          </ns3:TrackPointExtension>
        </extensions>
      </trkpt>
      <trkpt lat="37.7834584750235080718994140625" lon="-107.70381457172334194183349609375">
        <ele>3958.39990234375</ele>
        <time>2023-07-29T16:05:54.000Z</time>
        <extensions>
          <ns3:TrackPointExtension>
            <ns3:hr>137</ns3:hr>
            <ns3:cad>0</ns3:cad>
          </ns3:TrackPointExtension>
        </extensions>
      </trkpt>
      <trkpt lat="37.7834638394415378570556640625" lon="-107.70381054840981960296630859375">
        <ele>3958.39990234375</ele>
        <time>2023-07-29T16:05:55.000Z</time>
        <extensions>
          <ns3:TrackPointExtension>
            <ns3:hr>137</ns3:hr>
            <ns3:cad>0</ns3:cad>
          </ns3:TrackPointExtension>
        </extensions>
      </trkpt>
      <trkpt lat="37.7834702096879482269287109375" lon="-107.703805267810821533203125">
        <ele>3958.60009765625</ele>
        <time>2023-07-29T16:05:56.000Z</time>
        <extensions>
          <ns3:TrackPointExtension>
            <ns3:hr>138</ns3:hr>
            <ns3:cad>0</ns3:cad>
          </ns3:TrackPointExtension>
        </extensions>
      </trkpt>
      <trkpt lat="37.7834765799343585968017578125" lon="-107.7038027532398700714111328125">
        <ele>3958.60009765625</ele>
        <time>2023-07-29T16:05:57.000Z</time>
        <extensions>
          <ns3:TrackPointExtension>
            <ns3:hr>138</ns3:hr>
            <ns3:cad>0</ns3:cad>
          </ns3:TrackPointExtension>
        </extensions>
      </trkpt>
      <trkpt lat="37.783482111990451812744140625" lon="-107.70380191504955291748046875">
        <ele>3958.800048828125</ele>
        <time>2023-07-29T16:05:58.000Z</time>
        <extensions>
          <ns3:TrackPointExtension>
            <ns3:hr>138</ns3:hr>
            <ns3:cad>62</ns3:cad>
          </ns3:TrackPointExtension>
        </extensions>
      </trkpt>
      <trkpt lat="37.78348588384687900543212890625" lon="-107.7038010768592357635498046875">
        <ele>3958.800048828125</ele>
        <time>2023-07-29T16:05:59.000Z</time>
        <extensions>
          <ns3:TrackPointExtension>
            <ns3:hr>138</ns3:hr>
            <ns3:cad>62</ns3:cad>
          </ns3:TrackPointExtension>
        </extensions>
      </trkpt>
      <trkpt lat="37.7834970317780971527099609375" lon="-107.70379965193569660186767578125">
        <ele>3958.800048828125</ele>
        <time>2023-07-29T16:06:00.000Z</time>
        <extensions>
          <ns3:TrackPointExtension>
            <ns3:hr>139</ns3:hr>
            <ns3:cad>62</ns3:cad>
          </ns3:TrackPointExtension>
        </extensions>
      </trkpt>
      <trkpt lat="37.78350650332868099212646484375" lon="-107.703796885907649993896484375">
        <ele>3958.800048828125</ele>
        <time>2023-07-29T16:06:01.000Z</time>
        <extensions>
          <ns3:TrackPointExtension>
            <ns3:hr>139</ns3:hr>
            <ns3:cad>62</ns3:cad>
          </ns3:TrackPointExtension>
        </extensions>
      </trkpt>
      <trkpt lat="37.7835225127637386322021484375" lon="-107.70379344932734966278076171875">
        <ele>3958.60009765625</ele>
        <time>2023-07-29T16:06:02.000Z</time>
        <extensions>
          <ns3:TrackPointExtension>
            <ns3:hr>139</ns3:hr>
            <ns3:cad>62</ns3:cad>
          </ns3:TrackPointExtension>
        </extensions>
      </trkpt>
      <trkpt lat="37.78353215195238590240478515625" lon="-107.70379328168928623199462890625">
        <ele>3958.60009765625</ele>
        <time>2023-07-29T16:06:03.000Z</time>
        <extensions>
          <ns3:TrackPointExtension>
            <ns3:hr>139</ns3:hr>
            <ns3:cad>62</ns3:cad>
          </ns3:TrackPointExtension>
        </extensions>
      </trkpt>
      <trkpt lat="37.78354522772133350372314453125" lon="-107.70379127003252506256103515625">
        <ele>3958.60009765625</ele>
        <time>2023-07-29T16:06:04.000Z</time>
        <extensions>
          <ns3:TrackPointExtension>
            <ns3:hr>139</ns3:hr>
            <ns3:cad>62</ns3:cad>
          </ns3:TrackPointExtension>
        </extensions>
      </trkpt>
      <trkpt lat="37.78355620801448822021484375" lon="-107.7037906832993030548095703125">
        <ele>3958.60009765625</ele>
        <time>2023-07-29T16:06:05.000Z</time>
        <extensions>
          <ns3:TrackPointExtension>
            <ns3:hr>139</ns3:hr>
            <ns3:cad>62</ns3:cad>
          </ns3:TrackPointExtension>
        </extensions>
      </trkpt>
      <trkpt lat="37.7835610695183277130126953125" lon="-107.7037933655083179473876953125">
        <ele>3958.800048828125</ele>
        <time>2023-07-29T16:06:06.000Z</time>
        <extensions>
          <ns3:TrackPointExtension>
            <ns3:hr>139</ns3:hr>
            <ns3:cad>62</ns3:cad>
          </ns3:TrackPointExtension>
        </extensions>
      </trkpt>
      <trkpt lat="37.783579342067241668701171875" lon="-107.70379395224153995513916015625">
        <ele>3958.800048828125</ele>
        <time>2023-07-29T16:06:07.000Z</time>
        <extensions>
          <ns3:TrackPointExtension>
            <ns3:hr>139</ns3:hr>
            <ns3:cad>62</ns3:cad>
          </ns3:TrackPointExtension>
        </extensions>
      </trkpt>
      <trkpt lat="37.783589065074920654296875" lon="-107.703794538974761962890625">
        <ele>3959.199951171875</ele>
        <time>2023-07-29T16:06:08.000Z</time>
        <extensions>
          <ns3:TrackPointExtension>
            <ns3:hr>140</ns3:hr>
            <ns3:cad>62</ns3:cad>
          </ns3:TrackPointExtension>
        </extensions>
      </trkpt>
      <trkpt lat="37.783594764769077301025390625" lon="-107.70379864610731601715087890625">
        <ele>3959.199951171875</ele>
        <time>2023-07-29T16:06:09.000Z</time>
        <extensions>
          <ns3:TrackPointExtension>
            <ns3:hr>140</ns3:hr>
            <ns3:cad>62</ns3:cad>
          </ns3:TrackPointExtension>
        </extensions>
      </trkpt>
      <trkpt lat="37.7836011350154876708984375" lon="-107.7038007415831089019775390625">
        <ele>3959.39990234375</ele>
        <time>2023-07-29T16:06:10.000Z</time>
        <extensions>
          <ns3:TrackPointExtension>
            <ns3:hr>139</ns3:hr>
            <ns3:cad>62</ns3:cad>
          </ns3:TrackPointExtension>
        </extensions>
      </trkpt>
      <trkpt lat="37.78361161239445209503173828125" lon="-107.70379789173603057861328125">
        <ele>3959.39990234375</ele>
        <time>2023-07-29T16:06:11.000Z</time>
        <extensions>
          <ns3:TrackPointExtension>
            <ns3:hr>138</ns3:hr>
            <ns3:cad>62</ns3:cad>
          </ns3:TrackPointExtension>
        </extensions>
      </trkpt>
      <trkpt lat="37.78361630626022815704345703125" lon="-107.7037963829934597015380859375">
        <ele>3959.60009765625</ele>
        <time>2023-07-29T16:06:12.000Z</time>
        <extensions>
          <ns3:TrackPointExtension>
            <ns3:hr>138</ns3:hr>
            <ns3:cad>62</ns3:cad>
          </ns3:TrackPointExtension>
        </extensions>
      </trkpt>
      <trkpt lat="37.78362401761114597320556640625" lon="-107.7037918567657470703125">
        <ele>3959.800048828125</ele>
        <time>2023-07-29T16:06:13.000Z</time>
        <extensions>
          <ns3:TrackPointExtension>
            <ns3:hr>138</ns3:hr>
            <ns3:cad>62</ns3:cad>
          </ns3:TrackPointExtension>
        </extensions>
      </trkpt>
      <trkpt lat="37.78363156132400035858154296875" lon="-107.70378624089062213897705078125">
        <ele>3960</ele>
        <time>2023-07-29T16:06:14.000Z</time>
        <extensions>
          <ns3:TrackPointExtension>
            <ns3:hr>137</ns3:hr>
            <ns3:cad>62</ns3:cad>
          </ns3:TrackPointExtension>
        </extensions>
      </trkpt>
      <trkpt lat="37.7836425416171550750732421875" lon="-107.70378188230097293853759765625">
        <ele>3960.199951171875</ele>
        <time>2023-07-29T16:06:15.000Z</time>
        <extensions>
          <ns3:TrackPointExtension>
            <ns3:hr>137</ns3:hr>
            <ns3:cad>0</ns3:cad>
          </ns3:TrackPointExtension>
        </extensions>
      </trkpt>
      <trkpt lat="37.7836492471396923065185546875" lon="-107.70377903245389461517333984375">
        <ele>3960.39990234375</ele>
        <time>2023-07-29T16:06:16.000Z</time>
        <extensions>
          <ns3:TrackPointExtension>
            <ns3:hr>137</ns3:hr>
            <ns3:cad>0</ns3:cad>
          </ns3:TrackPointExtension>
        </extensions>
      </trkpt>
      <trkpt lat="37.78365955688059329986572265625" lon="-107.70377500914037227630615234375">
        <ele>3960.60009765625</ele>
        <time>2023-07-29T16:06:17.000Z</time>
        <extensions>
          <ns3:TrackPointExtension>
            <ns3:hr>137</ns3:hr>
            <ns3:cad>0</ns3:cad>
          </ns3:TrackPointExtension>
        </extensions>
      </trkpt>
      <trkpt lat="37.78366676531732082366943359375" lon="-107.7037739194929599761962890625">
        <ele>3960.800048828125</ele>
        <time>2023-07-29T16:06:18.000Z</time>
        <extensions>
          <ns3:TrackPointExtension>
            <ns3:hr>137</ns3:hr>
            <ns3:cad>0</ns3:cad>
          </ns3:TrackPointExtension>
        </extensions>
      </trkpt>
      <trkpt lat="37.78367430903017520904541015625" lon="-107.70377375185489654541015625">
        <ele>3961</ele>
        <time>2023-07-29T16:06:19.000Z</time>
        <extensions>
          <ns3:TrackPointExtension>
            <ns3:hr>137</ns3:hr>
            <ns3:cad>0</ns3:cad>
          </ns3:TrackPointExtension>
        </extensions>
      </trkpt>
      <trkpt lat="37.78367933817207813262939453125" lon="-107.70377509295940399169921875">
        <ele>3961</ele>
        <time>2023-07-29T16:06:20.000Z</time>
        <extensions>
          <ns3:TrackPointExtension>
            <ns3:hr>136</ns3:hr>
            <ns3:cad>0</ns3:cad>
          </ns3:TrackPointExtension>
        </extensions>
      </trkpt>
      <trkpt lat="37.78368294239044189453125" lon="-107.7037762664258480072021484375">
        <ele>3961.39990234375</ele>
        <time>2023-07-29T16:06:21.000Z</time>
        <extensions>
          <ns3:TrackPointExtension>
            <ns3:hr>136</ns3:hr>
            <ns3:cad>0</ns3:cad>
          </ns3:TrackPointExtension>
        </extensions>
      </trkpt>
      <trkpt lat="37.78368906117975711822509765625" lon="-107.703775428235530853271484375">
        <ele>3961.800048828125</ele>
        <time>2023-07-29T16:06:22.000Z</time>
        <extensions>
          <ns3:TrackPointExtension>
            <ns3:hr>136</ns3:hr>
            <ns3:cad>0</ns3:cad>
          </ns3:TrackPointExtension>
        </extensions>
      </trkpt>
      <trkpt lat="37.78369358740746974945068359375" lon="-107.70377316512167453765869140625">
        <ele>3962</ele>
        <time>2023-07-29T16:06:23.000Z</time>
        <extensions>
          <ns3:TrackPointExtension>
            <ns3:hr>136</ns3:hr>
            <ns3:cad>0</ns3:cad>
          </ns3:TrackPointExtension>
        </extensions>
      </trkpt>
      <trkpt lat="37.783694677054882049560546875" lon="-107.70377241075038909912109375">
        <ele>3962.199951171875</ele>
        <time>2023-07-29T16:06:24.000Z</time>
        <extensions>
          <ns3:TrackPointExtension>
            <ns3:hr>136</ns3:hr>
            <ns3:cad>0</ns3:cad>
          </ns3:TrackPointExtension>
        </extensions>
      </trkpt>
      <trkpt lat="37.7836992032825946807861328125" lon="-107.7037709020078182220458984375">
        <ele>3962.199951171875</ele>
        <time>2023-07-29T16:06:25.000Z</time>
        <extensions>
          <ns3:TrackPointExtension>
            <ns3:hr>136</ns3:hr>
            <ns3:cad>0</ns3:cad>
          </ns3:TrackPointExtension>
        </extensions>
      </trkpt>
      <trkpt lat="37.7837008796632289886474609375" lon="-107.70377106964588165283203125">
        <ele>3962.60009765625</ele>
        <time>2023-07-29T16:06:26.000Z</time>
        <extensions>
          <ns3:TrackPointExtension>
            <ns3:hr>135</ns3:hr>
            <ns3:cad>0</ns3:cad>
          </ns3:TrackPointExtension>
        </extensions>
      </trkpt>
      <trkpt lat="37.78370750136673450469970703125" lon="-107.70376930944621562957763671875">
        <ele>3962.800048828125</ele>
        <time>2023-07-29T16:06:27.000Z</time>
        <extensions>
          <ns3:TrackPointExtension>
            <ns3:hr>135</ns3:hr>
            <ns3:cad>0</ns3:cad>
          </ns3:TrackPointExtension>
        </extensions>
      </trkpt>
      <trkpt lat="37.78371219523251056671142578125" lon="-107.70376838743686676025390625">
        <ele>3963.199951171875</ele>
        <time>2023-07-29T16:06:28.000Z</time>
        <extensions>
          <ns3:TrackPointExtension>
            <ns3:hr>135</ns3:hr>
            <ns3:cad>0</ns3:cad>
          </ns3:TrackPointExtension>
        </extensions>
      </trkpt>
      <trkpt lat="37.78372392989695072174072265625" lon="-107.70376645959913730621337890625">
        <ele>3963.199951171875</ele>
        <time>2023-07-29T16:06:29.000Z</time>
        <extensions>
          <ns3:TrackPointExtension>
            <ns3:hr>135</ns3:hr>
            <ns3:cad>0</ns3:cad>
          </ns3:TrackPointExtension>
        </extensions>
      </trkpt>
      <trkpt lat="37.7837323956191539764404296875" lon="-107.703763358294963836669921875">
        <ele>3963.60009765625</ele>
        <time>2023-07-29T16:06:30.000Z</time>
        <extensions>
          <ns3:TrackPointExtension>
            <ns3:hr>134</ns3:hr>
            <ns3:cad>0</ns3:cad>
          </ns3:TrackPointExtension>
        </extensions>
      </trkpt>
      <trkpt lat="37.78374019078910350799560546875" lon="-107.70376008935272693634033203125">
        <ele>3964</ele>
        <time>2023-07-29T16:06:31.000Z</time>
        <extensions>
          <ns3:TrackPointExtension>
            <ns3:hr>134</ns3:hr>
            <ns3:cad>0</ns3:cad>
          </ns3:TrackPointExtension>
        </extensions>
      </trkpt>
      <trkpt lat="37.78375293128192424774169921875" lon="-107.7037538029253482818603515625">
        <ele>3964</ele>
        <time>2023-07-29T16:06:32.000Z</time>
        <extensions>
          <ns3:TrackPointExtension>
            <ns3:hr>134</ns3:hr>
            <ns3:cad>0</ns3:cad>
          </ns3:TrackPointExtension>
        </extensions>
      </trkpt>
      <trkpt lat="37.78376013971865177154541015625" lon="-107.70375254563987255096435546875">
        <ele>3964.199951171875</ele>
        <time>2023-07-29T16:06:33.000Z</time>
        <extensions>
          <ns3:TrackPointExtension>
            <ns3:hr>134</ns3:hr>
            <ns3:cad>0</ns3:cad>
          </ns3:TrackPointExtension>
        </extensions>
      </trkpt>
      <trkpt lat="37.78376542031764984130859375" lon="-107.7037504501640796661376953125">
        <ele>3964.39990234375</ele>
        <time>2023-07-29T16:06:34.000Z</time>
        <extensions>
          <ns3:TrackPointExtension>
            <ns3:hr>133</ns3:hr>
            <ns3:cad>0</ns3:cad>
          </ns3:TrackPointExtension>
        </extensions>
      </trkpt>
      <trkpt lat="37.783771455287933349609375" lon="-107.70374768413603305816650390625">
        <ele>3964.60009765625</ele>
        <time>2023-07-29T16:06:35.000Z</time>
        <extensions>
          <ns3:TrackPointExtension>
            <ns3:hr>133</ns3:hr>
            <ns3:cad>0</ns3:cad>
          </ns3:TrackPointExtension>
        </extensions>
      </trkpt>
      <trkpt lat="37.78377606533467769622802734375" lon="-107.7037504501640796661376953125">
        <ele>3965</ele>
        <time>2023-07-29T16:06:36.000Z</time>
        <extensions>
          <ns3:TrackPointExtension>
            <ns3:hr>133</ns3:hr>
            <ns3:cad>0</ns3:cad>
          </ns3:TrackPointExtension>
        </extensions>
      </trkpt>
      <trkpt lat="37.78378310613334178924560546875" lon="-107.70375271327793598175048828125">
        <ele>3965.199951171875</ele>
        <time>2023-07-29T16:06:37.000Z</time>
        <extensions>
          <ns3:TrackPointExtension>
            <ns3:hr>133</ns3:hr>
            <ns3:cad>0</ns3:cad>
          </ns3:TrackPointExtension>
        </extensions>
      </trkpt>
      <trkpt lat="37.78378813527524471282958984375" lon="-107.70375438965857028961181640625">
        <ele>3965.60009765625</ele>
        <time>2023-07-29T16:06:38.000Z</time>
        <extensions>
          <ns3:TrackPointExtension>
            <ns3:hr>132</ns3:hr>
            <ns3:cad>0</ns3:cad>
          </ns3:TrackPointExtension>
        </extensions>
      </trkpt>
      <trkpt lat="37.7837997861206531524658203125" lon="-107.70375271327793598175048828125">
        <ele>3965.800048828125</ele>
        <time>2023-07-29T16:06:39.000Z</time>
        <extensions>
          <ns3:TrackPointExtension>
            <ns3:hr>132</ns3:hr>
            <ns3:cad>0</ns3:cad>
          </ns3:TrackPointExtension>
        </extensions>
      </trkpt>
      <trkpt lat="37.783801965415477752685546875" lon="-107.70375371910631656646728515625">
        <ele>3966</ele>
        <time>2023-07-29T16:06:40.000Z</time>
        <extensions>
          <ns3:TrackPointExtension>
            <ns3:hr>132</ns3:hr>
            <ns3:cad>0</ns3:cad>
          </ns3:TrackPointExtension>
        </extensions>
      </trkpt>
      <trkpt lat="37.78380431234836578369140625" lon="-107.7037534676492214202880859375">
        <ele>3966.199951171875</ele>
        <time>2023-07-29T16:06:41.000Z</time>
        <extensions>
          <ns3:TrackPointExtension>
            <ns3:hr>131</ns3:hr>
            <ns3:cad>0</ns3:cad>
          </ns3:TrackPointExtension>
        </extensions>
      </trkpt>
      <trkpt lat="37.78380020521581172943115234375" lon="-107.70375254563987255096435546875">
        <ele>3966.60009765625</ele>
        <time>2023-07-29T16:06:42.000Z</time>
        <extensions>
          <ns3:TrackPointExtension>
            <ns3:hr>131</ns3:hr>
            <ns3:cad>0</ns3:cad>
          </ns3:TrackPointExtension>
        </extensions>
      </trkpt>
      <trkpt lat="37.783805988729000091552734375" lon="-107.70375070162117481231689453125">
        <ele>3966.60009765625</ele>
        <time>2023-07-29T16:06:43.000Z</time>
        <extensions>
          <ns3:TrackPointExtension>
            <ns3:hr>131</ns3:hr>
            <ns3:cad>0</ns3:cad>
          </ns3:TrackPointExtension>
        </extensions>
      </trkpt>
      <trkpt lat="37.7838108502328395843505859375" lon="-107.70374785177409648895263671875">
        <ele>3966.800048828125</ele>
        <time>2023-07-29T16:06:44.000Z</time>
        <extensions>
          <ns3:TrackPointExtension>
            <ns3:hr>133</ns3:hr>
            <ns3:cad>0</ns3:cad>
          </ns3:TrackPointExtension>
        </extensions>
      </trkpt>
      <trkpt lat="37.78381638228893280029296875" lon="-107.7037464268505573272705078125">
        <ele>3967.199951171875</ele>
        <time>2023-07-29T16:06:45.000Z</time>
        <extensions>
          <ns3:TrackPointExtension>
            <ns3:hr>134</ns3:hr>
            <ns3:cad>0</ns3:cad>
          </ns3:TrackPointExtension>
        </extensions>
      </trkpt>
      <trkpt lat="37.78381906449794769287109375" lon="-107.70374567247927188873291015625">
        <ele>3967.60009765625</ele>
        <time>2023-07-29T16:06:46.000Z</time>
        <extensions>
          <ns3:TrackPointExtension>
            <ns3:hr>135</ns3:hr>
            <ns3:cad>0</ns3:cad>
          </ns3:TrackPointExtension>
        </extensions>
      </trkpt>
      <trkpt lat="37.7838245965540409088134765625" lon="-107.703744582831859588623046875">
        <ele>3967.800048828125</ele>
        <time>2023-07-29T16:06:47.000Z</time>
        <extensions>
          <ns3:TrackPointExtension>
            <ns3:hr>135</ns3:hr>
            <ns3:cad>0</ns3:cad>
          </ns3:TrackPointExtension>
        </extensions>
      </trkpt>
      <trkpt lat="37.7838286198675632476806640625" lon="-107.70374424755573272705078125">
        <ele>3968</ele>
        <time>2023-07-29T16:06:48.000Z</time>
        <extensions>
          <ns3:TrackPointExtension>
            <ns3:hr>135</ns3:hr>
            <ns3:cad>0</ns3:cad>
          </ns3:TrackPointExtension>
        </extensions>
      </trkpt>
      <trkpt lat="37.78383918106555938720703125" lon="-107.7037417329847812652587890625">
        <ele>3968.199951171875</ele>
        <time>2023-07-29T16:06:49.000Z</time>
        <extensions>
          <ns3:TrackPointExtension>
            <ns3:hr>135</ns3:hr>
            <ns3:cad>0</ns3:cad>
          </ns3:TrackPointExtension>
        </extensions>
      </trkpt>
      <trkpt lat="37.78383909724652767181396484375" lon="-107.7037417329847812652587890625">
        <ele>3968.39990234375</ele>
        <time>2023-07-29T16:06:50.000Z</time>
        <extensions>
          <ns3:TrackPointExtension>
            <ns3:hr>135</ns3:hr>
            <ns3:cad>0</ns3:cad>
          </ns3:TrackPointExtension>
        </extensions>
      </trkpt>
      <trkpt lat="37.78384387493133544921875" lon="-107.70374030806124210357666015625">
        <ele>3968.800048828125</ele>
        <time>2023-07-29T16:06:51.000Z</time>
        <extensions>
          <ns3:TrackPointExtension>
            <ns3:hr>134</ns3:hr>
            <ns3:cad>0</ns3:cad>
          </ns3:TrackPointExtension>
        </extensions>
      </trkpt>
      <trkpt lat="37.783851921558380126953125" lon="-107.70373754203319549560546875">
        <ele>3968.800048828125</ele>
        <time>2023-07-29T16:06:52.000Z</time>
        <extensions>
          <ns3:TrackPointExtension>
            <ns3:hr>134</ns3:hr>
            <ns3:cad>0</ns3:cad>
          </ns3:TrackPointExtension>
        </extensions>
      </trkpt>
      <trkpt lat="37.78385569341480731964111328125" lon="-107.70373645238578319549560546875">
        <ele>3969</ele>
        <time>2023-07-29T16:06:53.000Z</time>
        <extensions>
          <ns3:TrackPointExtension>
            <ns3:hr>134</ns3:hr>
            <ns3:cad>0</ns3:cad>
          </ns3:TrackPointExtension>
        </extensions>
      </trkpt>
      <trkpt lat="37.78386223129928112030029296875" lon="-107.703735530376434326171875">
        <ele>3969</ele>
        <time>2023-07-29T16:06:54.000Z</time>
        <extensions>
          <ns3:TrackPointExtension>
            <ns3:hr>134</ns3:hr>
            <ns3:cad>0</ns3:cad>
          </ns3:TrackPointExtension>
        </extensions>
      </trkpt>
      <trkpt lat="37.78386332094669342041015625" lon="-107.703737206757068634033203125">
        <ele>3969.39990234375</ele>
        <time>2023-07-29T16:06:55.000Z</time>
        <extensions>
          <ns3:TrackPointExtension>
            <ns3:hr>134</ns3:hr>
            <ns3:cad>0</ns3:cad>
          </ns3:TrackPointExtension>
        </extensions>
      </trkpt>
      <trkpt lat="37.78386709280312061309814453125" lon="-107.7037395536899566650390625">
        <ele>3969.800048828125</ele>
        <time>2023-07-29T16:06:56.000Z</time>
        <extensions>
          <ns3:TrackPointExtension>
            <ns3:hr>135</ns3:hr>
            <ns3:cad>0</ns3:cad>
          </ns3:TrackPointExtension>
        </extensions>
      </trkpt>
      <trkpt lat="37.783872373402118682861328125" lon="-107.70374064333736896514892578125">
        <ele>3969.800048828125</ele>
        <time>2023-07-29T16:06:57.000Z</time>
        <extensions>
          <ns3:TrackPointExtension>
            <ns3:hr>135</ns3:hr>
            <ns3:cad>0</ns3:cad>
          </ns3:TrackPointExtension>
        </extensions>
      </trkpt>
      <trkpt lat="37.7838725410401821136474609375" lon="-107.7037417329847812652587890625">
        <ele>3970.199951171875</ele>
        <time>2023-07-29T16:06:58.000Z</time>
        <extensions>
          <ns3:TrackPointExtension>
            <ns3:hr>135</ns3:hr>
            <ns3:cad>0</ns3:cad>
          </ns3:TrackPointExtension>
        </extensions>
      </trkpt>
      <trkpt lat="37.78387606143951416015625" lon="-107.70374349318444728851318359375">
        <ele>3970.39990234375</ele>
        <time>2023-07-29T16:06:59.000Z</time>
        <extensions>
          <ns3:TrackPointExtension>
            <ns3:hr>135</ns3:hr>
            <ns3:cad>0</ns3:cad>
          </ns3:TrackPointExtension>
        </extensions>
      </trkpt>
      <trkpt lat="37.78387899510562419891357421875" lon="-107.70374215207993984222412109375">
        <ele>3970.60009765625</ele>
        <time>2023-07-29T16:07:00.000Z</time>
        <extensions>
          <ns3:TrackPointExtension>
            <ns3:hr>135</ns3:hr>
            <ns3:cad>0</ns3:cad>
          </ns3:TrackPointExtension>
        </extensions>
      </trkpt>
      <trkpt lat="37.78388737700879573822021484375" lon="-107.7037400566041469573974609375">
        <ele>3970.800048828125</ele>
        <time>2023-07-29T16:07:01.000Z</time>
        <extensions>
          <ns3:TrackPointExtension>
            <ns3:hr>136</ns3:hr>
            <ns3:cad>0</ns3:cad>
          </ns3:TrackPointExtension>
        </extensions>
      </trkpt>
      <trkpt lat="37.7838956750929355621337890625" lon="-107.70373812876641750335693359375">
        <ele>3971</ele>
        <time>2023-07-29T16:07:02.000Z</time>
        <extensions>
          <ns3:TrackPointExtension>
            <ns3:hr>136</ns3:hr>
            <ns3:cad>0</ns3:cad>
          </ns3:TrackPointExtension>
        </extensions>
      </trkpt>
      <trkpt lat="37.78390632010996341705322265625" lon="-107.703735865652561187744140625">
        <ele>3971.199951171875</ele>
        <time>2023-07-29T16:07:03.000Z</time>
        <extensions>
          <ns3:TrackPointExtension>
            <ns3:hr>136</ns3:hr>
            <ns3:cad>0</ns3:cad>
          </ns3:TrackPointExtension>
        </extensions>
      </trkpt>
      <trkpt lat="37.78391570784151554107666015625" lon="-107.70373645238578319549560546875">
        <ele>3971.39990234375</ele>
        <time>2023-07-29T16:07:04.000Z</time>
        <extensions>
          <ns3:TrackPointExtension>
            <ns3:hr>136</ns3:hr>
            <ns3:cad>0</ns3:cad>
          </ns3:TrackPointExtension>
        </extensions>
      </trkpt>
      <trkpt lat="37.78391671366989612579345703125" lon="-107.70373745821416378021240234375">
        <ele>3971.60009765625</ele>
        <time>2023-07-29T16:07:05.000Z</time>
        <extensions>
          <ns3:TrackPointExtension>
            <ns3:hr>136</ns3:hr>
            <ns3:cad>0</ns3:cad>
          </ns3:TrackPointExtension>
        </extensions>
      </trkpt>
      <trkpt lat="37.78392040170729160308837890625" lon="-107.703735195100307464599609375">
        <ele>3971.800048828125</ele>
        <time>2023-07-29T16:07:06.000Z</time>
        <extensions>
          <ns3:TrackPointExtension>
            <ns3:hr>135</ns3:hr>
            <ns3:cad>0</ns3:cad>
          </ns3:TrackPointExtension>
        </extensions>
      </trkpt>
      <trkpt lat="37.783917300403118133544921875" lon="-107.7037377096712589263916015625">
        <ele>3972</ele>
        <time>2023-07-29T16:07:07.000Z</time>
        <extensions>
          <ns3:TrackPointExtension>
            <ns3:hr>135</ns3:hr>
            <ns3:cad>0</ns3:cad>
          </ns3:TrackPointExtension>
        </extensions>
      </trkpt>
      <trkpt lat="37.78391688130795955657958984375" lon="-107.703735530376434326171875">
        <ele>3972</ele>
        <time>2023-07-29T16:07:08.000Z</time>
        <extensions>
          <ns3:TrackPointExtension>
            <ns3:hr>136</ns3:hr>
            <ns3:cad>0</ns3:cad>
          </ns3:TrackPointExtension>
        </extensions>
      </trkpt>
      <trkpt lat="37.783918641507625579833984375" lon="-107.7037356980144977569580078125">
        <ele>3972.199951171875</ele>
        <time>2023-07-29T16:07:09.000Z</time>
        <extensions>
          <ns3:TrackPointExtension>
            <ns3:hr>138</ns3:hr>
            <ns3:cad>0</ns3:cad>
          </ns3:TrackPointExtension>
        </extensions>
      </trkpt>
      <trkpt lat="37.78391486965119838714599609375" lon="-107.70373309962451457977294921875">
        <ele>3972.60009765625</ele>
        <time>2023-07-29T16:07:10.000Z</time>
        <extensions>
          <ns3:TrackPointExtension>
            <ns3:hr>139</ns3:hr>
            <ns3:cad>0</ns3:cad>
          </ns3:TrackPointExtension>
        </extensions>
      </trkpt>
      <trkpt lat="37.78391906060278415679931640625" lon="-107.70373628474771976470947265625">
        <ele>3972.60009765625</ele>
        <time>2023-07-29T16:07:11.000Z</time>
        <extensions>
          <ns3:TrackPointExtension>
            <ns3:hr>140</ns3:hr>
            <ns3:cad>0</ns3:cad>
          </ns3:TrackPointExtension>
        </extensions>
      </trkpt>
      <trkpt lat="37.78392459265887737274169921875" lon="-107.70374156534671783447265625">
        <ele>3972.800048828125</ele>
        <time>2023-07-29T16:07:12.000Z</time>
        <extensions>
          <ns3:TrackPointExtension>
            <ns3:hr>140</ns3:hr>
            <ns3:cad>0</ns3:cad>
          </ns3:TrackPointExtension>
        </extensions>
      </trkpt>
      <trkpt lat="37.78392325155436992645263671875" lon="-107.7037413977086544036865234375">
        <ele>3973</ele>
        <time>2023-07-29T16:07:13.000Z</time>
        <extensions>
          <ns3:TrackPointExtension>
            <ns3:hr>140</ns3:hr>
            <ns3:cad>0</ns3:cad>
          </ns3:TrackPointExtension>
        </extensions>
      </trkpt>
      <trkpt lat="37.7839281968772411346435546875" lon="-107.703745923936367034912109375">
        <ele>3973</ele>
        <time>2023-07-29T16:07:14.000Z</time>
        <extensions>
          <ns3:TrackPointExtension>
            <ns3:hr>140</ns3:hr>
            <ns3:cad>0</ns3:cad>
          </ns3:TrackPointExtension>
        </extensions>
      </trkpt>
      <trkpt lat="37.78393364511430263519287109375" lon="-107.70374936051666736602783203125">
        <ele>3973.199951171875</ele>
        <time>2023-07-29T16:07:15.000Z</time>
        <extensions>
          <ns3:TrackPointExtension>
            <ns3:hr>139</ns3:hr>
            <ns3:cad>0</ns3:cad>
          </ns3:TrackPointExtension>
        </extensions>
      </trkpt>
      <trkpt lat="37.78394286520779132843017578125" lon="-107.7037584967911243438720703125">
        <ele>3973.60009765625</ele>
        <time>2023-07-29T16:07:16.000Z</time>
        <extensions>
          <ns3:TrackPointExtension>
            <ns3:hr>140</ns3:hr>
            <ns3:cad>0</ns3:cad>
          </ns3:TrackPointExtension>
        </extensions>
      </trkpt>
      <trkpt lat="37.7839550189673900604248046875" lon="-107.7037685550749301910400390625">
        <ele>3973.60009765625</ele>
        <time>2023-07-29T16:07:17.000Z</time>
        <extensions>
          <ns3:TrackPointExtension>
            <ns3:hr>140</ns3:hr>
            <ns3:cad>58</ns3:cad>
          </ns3:TrackPointExtension>
        </extensions>
      </trkpt>
      <trkpt lat="37.78395677916705608367919921875" lon="-107.70377316512167453765869140625">
        <ele>3973.800048828125</ele>
        <time>2023-07-29T16:07:18.000Z</time>
        <extensions>
          <ns3:TrackPointExtension>
            <ns3:hr>140</ns3:hr>
            <ns3:cad>58</ns3:cad>
          </ns3:TrackPointExtension>
        </extensions>
      </trkpt>
      <trkpt lat="37.78396122157573699951171875" lon="-107.7037802897393703460693359375">
        <ele>3974</ele>
        <time>2023-07-29T16:07:19.000Z</time>
        <extensions>
          <ns3:TrackPointExtension>
            <ns3:hr>140</ns3:hr>
            <ns3:cad>0</ns3:cad>
          </ns3:TrackPointExtension>
        </extensions>
      </trkpt>
      <trkpt lat="37.7839657478034496307373046875" lon="-107.70378992892801761627197265625">
        <ele>3974.199951171875</ele>
        <time>2023-07-29T16:07:20.000Z</time>
        <extensions>
          <ns3:TrackPointExtension>
            <ns3:hr>141</ns3:hr>
            <ns3:cad>0</ns3:cad>
          </ns3:TrackPointExtension>
        </extensions>
      </trkpt>
      <trkpt lat="37.7839704416692256927490234375" lon="-107.70379395224153995513916015625">
        <ele>3974.39990234375</ele>
        <time>2023-07-29T16:07:21.000Z</time>
        <extensions>
          <ns3:TrackPointExtension>
            <ns3:hr>144</ns3:hr>
            <ns3:cad>0</ns3:cad>
          </ns3:TrackPointExtension>
        </extensions>
      </trkpt>
      <trkpt lat="37.78397337533533573150634765625" lon="-107.7037967182695865631103515625">
        <ele>3974.39990234375</ele>
        <time>2023-07-29T16:07:22.000Z</time>
        <extensions>
          <ns3:TrackPointExtension>
            <ns3:hr>144</ns3:hr>
            <ns3:cad>0</ns3:cad>
          </ns3:TrackPointExtension>
        </extensions>
      </trkpt>
      <trkpt lat="37.78397672809660434722900390625" lon="-107.70379881374537944793701171875">
        <ele>3974.60009765625</ele>
        <time>2023-07-29T16:07:23.000Z</time>
        <extensions>
          <ns3:TrackPointExtension>
            <ns3:hr>145</ns3:hr>
            <ns3:cad>0</ns3:cad>
          </ns3:TrackPointExtension>
        </extensions>
      </trkpt>
      <trkpt lat="37.78397806920111179351806640625" lon="-107.703799568116664886474609375">
        <ele>3974.800048828125</ele>
        <time>2023-07-29T16:07:24.000Z</time>
        <extensions>
          <ns3:TrackPointExtension>
            <ns3:hr>144</ns3:hr>
            <ns3:cad>0</ns3:cad>
          </ns3:TrackPointExtension>
        </extensions>
      </trkpt>
      <trkpt lat="37.7839835174381732940673828125" lon="-107.7038054354488849639892578125">
        <ele>3974.800048828125</ele>
        <time>2023-07-29T16:07:25.000Z</time>
        <extensions>
          <ns3:TrackPointExtension>
            <ns3:hr>144</ns3:hr>
            <ns3:cad>0</ns3:cad>
          </ns3:TrackPointExtension>
        </extensions>
      </trkpt>
      <trkpt lat="37.78398527763783931732177734375" lon="-107.70380669273436069488525390625">
        <ele>3975</ele>
        <time>2023-07-29T16:07:26.000Z</time>
        <extensions>
          <ns3:TrackPointExtension>
            <ns3:hr>144</ns3:hr>
            <ns3:cad>0</ns3:cad>
          </ns3:TrackPointExtension>
        </extensions>
      </trkpt>
      <trkpt lat="37.7839882113039493560791015625" lon="-107.70380719564855098724365234375">
        <ele>3975.39990234375</ele>
        <time>2023-07-29T16:07:27.000Z</time>
        <extensions>
          <ns3:TrackPointExtension>
            <ns3:hr>142</ns3:hr>
            <ns3:cad>0</ns3:cad>
          </ns3:TrackPointExtension>
        </extensions>
      </trkpt>
      <trkpt lat="37.7839898876845836639404296875" lon="-107.70380652509629726409912109375">
        <ele>3975.60009765625</ele>
        <time>2023-07-29T16:07:28.000Z</time>
        <extensions>
          <ns3:TrackPointExtension>
            <ns3:hr>142</ns3:hr>
            <ns3:cad>0</ns3:cad>
          </ns3:TrackPointExtension>
        </extensions>
      </trkpt>
      <trkpt lat="37.78398913331329822540283203125" lon="-107.703802920877933502197265625">
        <ele>3975.800048828125</ele>
        <time>2023-07-29T16:07:29.000Z</time>
        <extensions>
          <ns3:TrackPointExtension>
            <ns3:hr>141</ns3:hr>
            <ns3:cad>0</ns3:cad>
          </ns3:TrackPointExtension>
        </extensions>
      </trkpt>
      <trkpt lat="37.783990390598773956298828125" lon="-107.70380065776407718658447265625">
        <ele>3976</ele>
        <time>2023-07-29T16:07:30.000Z</time>
        <extensions>
          <ns3:TrackPointExtension>
            <ns3:hr>141</ns3:hr>
            <ns3:cad>0</ns3:cad>
          </ns3:TrackPointExtension>
        </extensions>
      </trkpt>
      <trkpt lat="37.78399684466421604156494140625" lon="-107.7037977240979671478271484375">
        <ele>3976.199951171875</ele>
        <time>2023-07-29T16:07:31.000Z</time>
        <extensions>
          <ns3:TrackPointExtension>
            <ns3:hr>141</ns3:hr>
            <ns3:cad>0</ns3:cad>
          </ns3:TrackPointExtension>
        </extensions>
      </trkpt>
      <trkpt lat="37.78400606475770473480224609375" lon="-107.70379546098411083221435546875">
        <ele>3976.39990234375</ele>
        <time>2023-07-29T16:07:32.000Z</time>
        <extensions>
          <ns3:TrackPointExtension>
            <ns3:hr>141</ns3:hr>
            <ns3:cad>0</ns3:cad>
          </ns3:TrackPointExtension>
        </extensions>
      </trkpt>
      <trkpt lat="37.78400505892932415008544921875" lon="-107.703795544803142547607421875">
        <ele>3976.60009765625</ele>
        <time>2023-07-29T16:07:33.000Z</time>
        <extensions>
          <ns3:TrackPointExtension>
            <ns3:hr>141</ns3:hr>
            <ns3:cad>0</ns3:cad>
          </ns3:TrackPointExtension>
        </extensions>
      </trkpt>
      <trkpt lat="37.78400405310094356536865234375" lon="-107.70379562862217426300048828125">
        <ele>3976.800048828125</ele>
        <time>2023-07-29T16:07:34.000Z</time>
        <extensions>
          <ns3:TrackPointExtension>
            <ns3:hr>142</ns3:hr>
            <ns3:cad>0</ns3:cad>
          </ns3:TrackPointExtension>
        </extensions>
      </trkpt>
      <trkpt lat="37.784008495509624481201171875" lon="-107.70379261113703250885009765625">
        <ele>3977.199951171875</ele>
        <time>2023-07-29T16:07:35.000Z</time>
        <extensions>
          <ns3:TrackPointExtension>
            <ns3:hr>142</ns3:hr>
            <ns3:cad>0</ns3:cad>
          </ns3:TrackPointExtension>
        </extensions>
      </trkpt>
      <trkpt lat="37.78400975279510021209716796875" lon="-107.70378892309963703155517578125">
        <ele>3977.39990234375</ele>
        <time>2023-07-29T16:07:36.000Z</time>
        <extensions>
          <ns3:TrackPointExtension>
            <ns3:hr>142</ns3:hr>
            <ns3:cad>0</ns3:cad>
          </ns3:TrackPointExtension>
        </extensions>
      </trkpt>
      <trkpt lat="37.7840153686702251434326171875" lon="-107.70378456450998783111572265625">
        <ele>3977.39990234375</ele>
        <time>2023-07-29T16:07:37.000Z</time>
        <extensions>
          <ns3:TrackPointExtension>
            <ns3:hr>142</ns3:hr>
            <ns3:cad>0</ns3:cad>
          </ns3:TrackPointExtension>
        </extensions>
      </trkpt>
      <trkpt lat="37.7840203978121280670166015625" lon="-107.7037802897393703460693359375">
        <ele>3977.800048828125</ele>
        <time>2023-07-29T16:07:38.000Z</time>
        <extensions>
          <ns3:TrackPointExtension>
            <ns3:hr>141</ns3:hr>
            <ns3:cad>0</ns3:cad>
          </ns3:TrackPointExtension>
        </extensions>
      </trkpt>
      <trkpt lat="37.78402534313499927520751953125" lon="-107.703774087131023406982421875">
        <ele>3978</ele>
        <time>2023-07-29T16:07:39.000Z</time>
        <extensions>
          <ns3:TrackPointExtension>
            <ns3:hr>138</ns3:hr>
            <ns3:cad>0</ns3:cad>
          </ns3:TrackPointExtension>
        </extensions>
      </trkpt>
      <trkpt lat="37.7840267680585384368896484375" lon="-107.70377048291265964508056640625">
        <ele>3978</ele>
        <time>2023-07-29T16:07:40.000Z</time>
        <extensions>
          <ns3:TrackPointExtension>
            <ns3:hr>137</ns3:hr>
            <ns3:cad>0</ns3:cad>
          </ns3:TrackPointExtension>
        </extensions>
      </trkpt>
      <trkpt lat="37.78402785770595073699951171875" lon="-107.70376176573336124420166015625">
        <ele>3978.199951171875</ele>
        <time>2023-07-29T16:07:41.000Z</time>
        <extensions>
          <ns3:TrackPointExtension>
            <ns3:hr>136</ns3:hr>
            <ns3:cad>0</ns3:cad>
          </ns3:TrackPointExtension>
        </extensions>
      </trkpt>
      <trkpt lat="37.78402232564985752105712890625" lon="-107.7037621848285198211669921875">
        <ele>3978.39990234375</ele>
        <time>2023-07-29T16:07:42.000Z</time>
        <extensions>
          <ns3:TrackPointExtension>
            <ns3:hr>136</ns3:hr>
            <ns3:cad>0</ns3:cad>
          </ns3:TrackPointExtension>
        </extensions>
      </trkpt>
      <trkpt lat="37.784021236002445220947265625" lon="-107.70375405438244342803955078125">
        <ele>3978.60009765625</ele>
        <time>2023-07-29T16:07:43.000Z</time>
        <extensions>
          <ns3:TrackPointExtension>
            <ns3:hr>137</ns3:hr>
            <ns3:cad>0</ns3:cad>
          </ns3:TrackPointExtension>
        </extensions>
      </trkpt>
      <trkpt lat="37.784019894897937774658203125" lon="-107.70374500192701816558837890625">
        <ele>3979</ele>
        <time>2023-07-29T16:07:44.000Z</time>
        <extensions>
          <ns3:TrackPointExtension>
            <ns3:hr>137</ns3:hr>
            <ns3:cad>0</ns3:cad>
          </ns3:TrackPointExtension>
        </extensions>
      </trkpt>
      <trkpt lat="37.78402165509760379791259765625" lon="-107.703730165958404541015625">
        <ele>3979.199951171875</ele>
        <time>2023-07-29T16:07:45.000Z</time>
        <extensions>
          <ns3:TrackPointExtension>
            <ns3:hr>137</ns3:hr>
            <ns3:cad>0</ns3:cad>
          </ns3:TrackPointExtension>
        </extensions>
      </trkpt>
      <trkpt lat="37.78402567841112613677978515625" lon="-107.70372337661683559417724609375">
        <ele>3979.199951171875</ele>
        <time>2023-07-29T16:07:46.000Z</time>
        <extensions>
          <ns3:TrackPointExtension>
            <ns3:hr>137</ns3:hr>
            <ns3:cad>0</ns3:cad>
          </ns3:TrackPointExtension>
        </extensions>
      </trkpt>
      <trkpt lat="37.78402634896337985992431640625" lon="-107.70371532998979091644287109375">
        <ele>3979.39990234375</ele>
        <time>2023-07-29T16:07:47.000Z</time>
        <extensions>
          <ns3:TrackPointExtension>
            <ns3:hr>137</ns3:hr>
            <ns3:cad>0</ns3:cad>
          </ns3:TrackPointExtension>
        </extensions>
      </trkpt>
      <trkpt lat="37.78402869589626789093017578125" lon="-107.70371583290398120880126953125">
        <ele>3979.60009765625</ele>
        <time>2023-07-29T16:07:48.000Z</time>
        <extensions>
          <ns3:TrackPointExtension>
            <ns3:hr>138</ns3:hr>
            <ns3:cad>0</ns3:cad>
          </ns3:TrackPointExtension>
        </extensions>
      </trkpt>
      <trkpt lat="37.78403221629559993743896484375" lon="-107.70371214486658573150634765625">
        <ele>3979.60009765625</ele>
        <time>2023-07-29T16:07:49.000Z</time>
        <extensions>
          <ns3:TrackPointExtension>
            <ns3:hr>138</ns3:hr>
            <ns3:cad>0</ns3:cad>
          </ns3:TrackPointExtension>
        </extensions>
      </trkpt>
      <trkpt lat="37.7840374968945980072021484375" lon="-107.70370376296341419219970703125">
        <ele>3980</ele>
        <time>2023-07-29T16:07:50.000Z</time>
        <extensions>
          <ns3:TrackPointExtension>
            <ns3:hr>139</ns3:hr>
            <ns3:cad>0</ns3:cad>
          </ns3:TrackPointExtension>
        </extensions>
      </trkpt>
      <trkpt lat="37.78404571115970611572265625" lon="-107.70369923673570156097412109375">
        <ele>3980.39990234375</ele>
        <time>2023-07-29T16:07:51.000Z</time>
        <extensions>
          <ns3:TrackPointExtension>
            <ns3:hr>140</ns3:hr>
            <ns3:cad>0</ns3:cad>
          </ns3:TrackPointExtension>
        </extensions>
      </trkpt>
      <trkpt lat="37.7840482257306575775146484375" lon="-107.70369504578411579132080078125">
        <ele>3980.39990234375</ele>
        <time>2023-07-29T16:07:52.000Z</time>
        <extensions>
          <ns3:TrackPointExtension>
            <ns3:hr>140</ns3:hr>
            <ns3:cad>0</ns3:cad>
          </ns3:TrackPointExtension>
        </extensions>
      </trkpt>
      <trkpt lat="37.78405048884451389312744140625" lon="-107.7036941237747669219970703125">
        <ele>3980.60009765625</ele>
        <time>2023-07-29T16:07:53.000Z</time>
        <extensions>
          <ns3:TrackPointExtension>
            <ns3:hr>140</ns3:hr>
            <ns3:cad>0</ns3:cad>
          </ns3:TrackPointExtension>
        </extensions>
      </trkpt>
      <trkpt lat="37.78405400924384593963623046875" lon="-107.70368884317576885223388671875">
        <ele>3980.800048828125</ele>
        <time>2023-07-29T16:07:54.000Z</time>
        <extensions>
          <ns3:TrackPointExtension>
            <ns3:hr>140</ns3:hr>
            <ns3:cad>0</ns3:cad>
          </ns3:TrackPointExtension>
        </extensions>
      </trkpt>
      <trkpt lat="37.784057445824146270751953125" lon="-107.70368498750030994415283203125">
        <ele>3980.800048828125</ele>
        <time>2023-07-29T16:07:55.000Z</time>
        <extensions>
          <ns3:TrackPointExtension>
            <ns3:hr>140</ns3:hr>
            <ns3:cad>0</ns3:cad>
          </ns3:TrackPointExtension>
        </extensions>
      </trkpt>
      <trkpt lat="37.78406105004251003265380859375" lon="-107.70368264056742191314697265625">
        <ele>3981.199951171875</ele>
        <time>2023-07-29T16:07:56.000Z</time>
        <extensions>
          <ns3:TrackPointExtension>
            <ns3:hr>141</ns3:hr>
            <ns3:cad>0</ns3:cad>
          </ns3:TrackPointExtension>
        </extensions>
      </trkpt>
      <trkpt lat="37.7840649895370006561279296875" lon="-107.70368062891066074371337890625">
        <ele>3981.199951171875</ele>
        <time>2023-07-29T16:07:57.000Z</time>
        <extensions>
          <ns3:TrackPointExtension>
            <ns3:hr>141</ns3:hr>
            <ns3:cad>0</ns3:cad>
          </ns3:TrackPointExtension>
        </extensions>
      </trkpt>
      <trkpt lat="37.78406943194568157196044921875" lon="-107.70368213765323162078857421875">
        <ele>3981.60009765625</ele>
        <time>2023-07-29T16:07:58.000Z</time>
        <extensions>
          <ns3:TrackPointExtension>
            <ns3:hr>141</ns3:hr>
            <ns3:cad>0</ns3:cad>
          </ns3:TrackPointExtension>
        </extensions>
      </trkpt>
      <trkpt lat="37.78407580219209194183349609375" lon="-107.703684903681278228759765625">
        <ele>3981.60009765625</ele>
        <time>2023-07-29T16:07:59.000Z</time>
        <extensions>
          <ns3:TrackPointExtension>
            <ns3:hr>141</ns3:hr>
            <ns3:cad>0</ns3:cad>
          </ns3:TrackPointExtension>
        </extensions>
      </trkpt>
      <trkpt lat="37.78408057987689971923828125" lon="-107.703688256442546844482421875">
        <ele>3981.800048828125</ele>
        <time>2023-07-29T16:08:00.000Z</time>
        <extensions>
          <ns3:TrackPointExtension>
            <ns3:hr>141</ns3:hr>
            <ns3:cad>0</ns3:cad>
          </ns3:TrackPointExtension>
        </extensions>
      </trkpt>
      <trkpt lat="37.78408569283783435821533203125" lon="-107.70369462668895721435546875">
        <ele>3982</ele>
        <time>2023-07-29T16:08:01.000Z</time>
        <extensions>
          <ns3:TrackPointExtension>
            <ns3:hr>142</ns3:hr>
            <ns3:cad>0</ns3:cad>
          </ns3:TrackPointExtension>
        </extensions>
      </trkpt>
      <trkpt lat="37.78408636339008808135986328125" lon="-107.703700326383113861083984375">
        <ele>3982.39990234375</ele>
        <time>2023-07-29T16:08:02.000Z</time>
        <extensions>
          <ns3:TrackPointExtension>
            <ns3:hr>142</ns3:hr>
            <ns3:cad>0</ns3:cad>
          </ns3:TrackPointExtension>
        </extensions>
      </trkpt>
      <trkpt lat="37.78408770449459552764892578125" lon="-107.70370963029563426971435546875">
        <ele>3982.39990234375</ele>
        <time>2023-07-29T16:08:03.000Z</time>
        <extensions>
          <ns3:TrackPointExtension>
            <ns3:hr>141</ns3:hr>
            <ns3:cad>0</ns3:cad>
          </ns3:TrackPointExtension>
        </extensions>
      </trkpt>
      <trkpt lat="37.78408653102815151214599609375" lon="-107.7037149108946323394775390625">
        <ele>3982.60009765625</ele>
        <time>2023-07-29T16:08:04.000Z</time>
        <extensions>
          <ns3:TrackPointExtension>
            <ns3:hr>141</ns3:hr>
            <ns3:cad>0</ns3:cad>
          </ns3:TrackPointExtension>
        </extensions>
      </trkpt>
      <trkpt lat="37.78409063816070556640625" lon="-107.703718431293964385986328125">
        <ele>3982.800048828125</ele>
        <time>2023-07-29T16:08:05.000Z</time>
        <extensions>
          <ns3:TrackPointExtension>
            <ns3:hr>140</ns3:hr>
            <ns3:cad>0</ns3:cad>
          </ns3:TrackPointExtension>
        </extensions>
      </trkpt>
      <trkpt lat="37.7840960025787353515625" lon="-107.70372270606458187103271484375">
        <ele>3982.800048828125</ele>
        <time>2023-07-29T16:08:06.000Z</time>
        <extensions>
          <ns3:TrackPointExtension>
            <ns3:hr>140</ns3:hr>
            <ns3:cad>0</ns3:cad>
          </ns3:TrackPointExtension>
        </extensions>
      </trkpt>
      <trkpt lat="37.784097008407115936279296875" lon="-107.7037179283797740936279296875">
        <ele>3983</ele>
        <time>2023-07-29T16:08:07.000Z</time>
        <extensions>
          <ns3:TrackPointExtension>
            <ns3:hr>140</ns3:hr>
            <ns3:cad>0</ns3:cad>
          </ns3:TrackPointExtension>
        </extensions>
      </trkpt>
      <trkpt lat="37.7841025404632091522216796875" lon="-107.70372387953102588653564453125">
        <ele>3983.199951171875</ele>
        <time>2023-07-29T16:08:08.000Z</time>
        <extensions>
          <ns3:TrackPointExtension>
            <ns3:hr>140</ns3:hr>
            <ns3:cad>0</ns3:cad>
          </ns3:TrackPointExtension>
        </extensions>
      </trkpt>
      <trkpt lat="37.78410681523382663726806640625" lon="-107.70372874103486537933349609375">
        <ele>3983.60009765625</ele>
        <time>2023-07-29T16:08:09.000Z</time>
        <extensions>
          <ns3:TrackPointExtension>
            <ns3:hr>140</ns3:hr>
            <ns3:cad>0</ns3:cad>
          </ns3:TrackPointExtension>
        </extensions>
      </trkpt>
      <trkpt lat="37.78411033563315868377685546875" lon="-107.7037315070629119873046875">
        <ele>3983.800048828125</ele>
        <time>2023-07-29T16:08:10.000Z</time>
        <extensions>
          <ns3:TrackPointExtension>
            <ns3:hr>140</ns3:hr>
            <ns3:cad>0</ns3:cad>
          </ns3:TrackPointExtension>
        </extensions>
      </trkpt>
      <trkpt lat="37.78411544859409332275390625" lon="-107.7037333510816097259521484375">
        <ele>3983.800048828125</ele>
        <time>2023-07-29T16:08:11.000Z</time>
        <extensions>
          <ns3:TrackPointExtension>
            <ns3:hr>139</ns3:hr>
            <ns3:cad>0</ns3:cad>
          </ns3:TrackPointExtension>
        </extensions>
      </trkpt>
      <trkpt lat="37.78411209583282470703125" lon="-107.70373092032968997955322265625">
        <ele>3984.199951171875</ele>
        <time>2023-07-29T16:08:12.000Z</time>
        <extensions>
          <ns3:TrackPointExtension>
            <ns3:hr>139</ns3:hr>
            <ns3:cad>0</ns3:cad>
          </ns3:TrackPointExtension>
        </extensions>
      </trkpt>
      <trkpt lat="37.78411050327122211456298828125" lon="-107.703731171786785125732421875">
        <ele>3984.199951171875</ele>
        <time>2023-07-29T16:08:13.000Z</time>
        <extensions>
          <ns3:TrackPointExtension>
            <ns3:hr>139</ns3:hr>
            <ns3:cad>0</ns3:cad>
          </ns3:TrackPointExtension>
        </extensions>
      </trkpt>
      <trkpt lat="37.78411067090928554534912109375" lon="-107.70373485982418060302734375">
        <ele>3984.39990234375</ele>
        <time>2023-07-29T16:08:14.000Z</time>
        <extensions>
          <ns3:TrackPointExtension>
            <ns3:hr>139</ns3:hr>
            <ns3:cad>0</ns3:cad>
          </ns3:TrackPointExtension>
        </extensions>
      </trkpt>
      <trkpt lat="37.78411008417606353759765625" lon="-107.703737206757068634033203125">
        <ele>3984.60009765625</ele>
        <time>2023-07-29T16:08:15.000Z</time>
        <extensions>
          <ns3:TrackPointExtension>
            <ns3:hr>139</ns3:hr>
            <ns3:cad>0</ns3:cad>
          </ns3:TrackPointExtension>
        </extensions>
      </trkpt>
      <trkpt lat="37.78411083854734897613525390625" lon="-107.70374332554638385772705078125">
        <ele>3985</ele>
        <time>2023-07-29T16:08:16.000Z</time>
        <extensions>
          <ns3:TrackPointExtension>
            <ns3:hr>138</ns3:hr>
            <ns3:cad>0</ns3:cad>
          </ns3:TrackPointExtension>
        </extensions>
      </trkpt>
      <trkpt lat="37.7841102518141269683837890625" lon="-107.7037467621266841888427734375">
        <ele>3985</ele>
        <time>2023-07-29T16:08:17.000Z</time>
        <extensions>
          <ns3:TrackPointExtension>
            <ns3:hr>139</ns3:hr>
            <ns3:cad>0</ns3:cad>
          </ns3:TrackPointExtension>
        </extensions>
      </trkpt>
      <trkpt lat="37.78410916216671466827392578125" lon="-107.70374600775539875030517578125">
        <ele>3985</ele>
        <time>2023-07-29T16:08:18.000Z</time>
        <extensions>
          <ns3:TrackPointExtension>
            <ns3:hr>140</ns3:hr>
            <ns3:cad>0</ns3:cad>
          </ns3:TrackPointExtension>
        </extensions>
      </trkpt>
      <trkpt lat="37.78410899452865123748779296875" lon="-107.70374785177409648895263671875">
        <ele>3985</ele>
        <time>2023-07-29T16:08:19.000Z</time>
        <extensions>
          <ns3:TrackPointExtension>
            <ns3:hr>141</ns3:hr>
            <ns3:cad>0</ns3:cad>
          </ns3:TrackPointExtension>
        </extensions>
      </trkpt>
      <trkpt lat="37.7841162867844104766845703125" lon="-107.70375070162117481231689453125">
        <ele>3985.199951171875</ele>
        <time>2023-07-29T16:08:20.000Z</time>
        <extensions>
          <ns3:TrackPointExtension>
            <ns3:hr>141</ns3:hr>
            <ns3:cad>0</ns3:cad>
          </ns3:TrackPointExtension>
        </extensions>
      </trkpt>
      <trkpt lat="37.78412207029759883880615234375" lon="-107.70375941880047321319580078125">
        <ele>3985.60009765625</ele>
        <time>2023-07-29T16:08:21.000Z</time>
        <extensions>
          <ns3:TrackPointExtension>
            <ns3:hr>141</ns3:hr>
            <ns3:cad>0</ns3:cad>
          </ns3:TrackPointExtension>
        </extensions>
      </trkpt>
      <trkpt lat="37.7841253392398357391357421875" lon="-107.70376126281917095184326171875">
        <ele>3985.60009765625</ele>
        <time>2023-07-29T16:08:22.000Z</time>
        <extensions>
          <ns3:TrackPointExtension>
            <ns3:hr>140</ns3:hr>
            <ns3:cad>0</ns3:cad>
          </ns3:TrackPointExtension>
        </extensions>
      </trkpt>
      <trkpt lat="37.78413011692464351654052734375" lon="-107.703763358294963836669921875">
        <ele>3985.800048828125</ele>
        <time>2023-07-29T16:08:23.000Z</time>
        <extensions>
          <ns3:TrackPointExtension>
            <ns3:hr>140</ns3:hr>
            <ns3:cad>0</ns3:cad>
          </ns3:TrackPointExtension>
        </extensions>
      </trkpt>
      <trkpt lat="37.7841333858668804168701171875" lon="-107.70376327447593212127685546875">
        <ele>3986.199951171875</ele>
        <time>2023-07-29T16:08:24.000Z</time>
        <extensions>
          <ns3:TrackPointExtension>
            <ns3:hr>140</ns3:hr>
            <ns3:cad>0</ns3:cad>
          </ns3:TrackPointExtension>
        </extensions>
      </trkpt>
      <trkpt lat="37.78414051048457622528076171875" lon="-107.70376847125589847564697265625">
        <ele>3986.199951171875</ele>
        <time>2023-07-29T16:08:25.000Z</time>
        <extensions>
          <ns3:TrackPointExtension>
            <ns3:hr>139</ns3:hr>
            <ns3:cad>0</ns3:cad>
          </ns3:TrackPointExtension>
        </extensions>
      </trkpt>
      <trkpt lat="37.78414092957973480224609375" lon="-107.7037658728659152984619140625">
        <ele>3986.39990234375</ele>
        <time>2023-07-29T16:08:26.000Z</time>
        <extensions>
          <ns3:TrackPointExtension>
            <ns3:hr>139</ns3:hr>
            <ns3:cad>0</ns3:cad>
          </ns3:TrackPointExtension>
        </extensions>
      </trkpt>
      <trkpt lat="37.7841421030461788177490234375" lon="-107.70376344211399555206298828125">
        <ele>3986.60009765625</ele>
        <time>2023-07-29T16:08:27.000Z</time>
        <extensions>
          <ns3:TrackPointExtension>
            <ns3:hr>139</ns3:hr>
            <ns3:cad>0</ns3:cad>
          </ns3:TrackPointExtension>
        </extensions>
      </trkpt>
      <trkpt lat="37.78414218686521053314208984375" lon="-107.70376109518110752105712890625">
        <ele>3986.800048828125</ele>
        <time>2023-07-29T16:08:28.000Z</time>
        <extensions>
          <ns3:TrackPointExtension>
            <ns3:hr>139</ns3:hr>
            <ns3:cad>0</ns3:cad>
          </ns3:TrackPointExtension>
        </extensions>
      </trkpt>
      <trkpt lat="37.78414419852197170257568359375" lon="-107.70375673659145832061767578125">
        <ele>3987</ele>
        <time>2023-07-29T16:08:29.000Z</time>
        <extensions>
          <ns3:TrackPointExtension>
            <ns3:hr>139</ns3:hr>
            <ns3:cad>0</ns3:cad>
          </ns3:TrackPointExtension>
        </extensions>
      </trkpt>
      <trkpt lat="37.78414939530193805694580078125" lon="-107.7037501148879528045654296875">
        <ele>3987.199951171875</ele>
        <time>2023-07-29T16:08:30.000Z</time>
        <extensions>
          <ns3:TrackPointExtension>
            <ns3:hr>139</ns3:hr>
            <ns3:cad>0</ns3:cad>
          </ns3:TrackPointExtension>
        </extensions>
      </trkpt>
      <trkpt lat="37.78415291570127010345458984375" lon="-107.70374835468828678131103515625">
        <ele>3987.199951171875</ele>
        <time>2023-07-29T16:08:31.000Z</time>
        <extensions>
          <ns3:TrackPointExtension>
            <ns3:hr>139</ns3:hr>
            <ns3:cad>0</ns3:cad>
          </ns3:TrackPointExtension>
        </extensions>
      </trkpt>
      <trkpt lat="37.78416196815669536590576171875" lon="-107.7037390507757663726806640625">
        <ele>3987.39990234375</ele>
        <time>2023-07-29T16:08:32.000Z</time>
        <extensions>
          <ns3:TrackPointExtension>
            <ns3:hr>139</ns3:hr>
            <ns3:cad>0</ns3:cad>
          </ns3:TrackPointExtension>
        </extensions>
      </trkpt>
      <trkpt lat="37.78416263870894908905029296875" lon="-107.7037356980144977569580078125">
        <ele>3987.39990234375</ele>
        <time>2023-07-29T16:08:33.000Z</time>
        <extensions>
          <ns3:TrackPointExtension>
            <ns3:hr>139</ns3:hr>
            <ns3:cad>0</ns3:cad>
          </ns3:TrackPointExtension>
        </extensions>
      </trkpt>
      <trkpt lat="37.78416465036571025848388671875" lon="-107.70373427309095859527587890625">
        <ele>3987.60009765625</ele>
        <time>2023-07-29T16:08:34.000Z</time>
        <extensions>
          <ns3:TrackPointExtension>
            <ns3:hr>138</ns3:hr>
            <ns3:cad>0</ns3:cad>
          </ns3:TrackPointExtension>
        </extensions>
      </trkpt>
      <trkpt lat="37.7841615490615367889404296875" lon="-107.70373695529997348785400390625">
        <ele>3987.800048828125</ele>
        <time>2023-07-29T16:08:35.000Z</time>
        <extensions>
          <ns3:TrackPointExtension>
            <ns3:hr>138</ns3:hr>
            <ns3:cad>0</ns3:cad>
          </ns3:TrackPointExtension>
        </extensions>
      </trkpt>
      <trkpt lat="37.7841618843376636505126953125" lon="-107.7037343569099903106689453125">
        <ele>3988</ele>
        <time>2023-07-29T16:08:36.000Z</time>
        <extensions>
          <ns3:TrackPointExtension>
            <ns3:hr>138</ns3:hr>
            <ns3:cad>0</ns3:cad>
          </ns3:TrackPointExtension>
        </extensions>
      </trkpt>
      <trkpt lat="37.78416238725185394287109375" lon="-107.70373460836708545684814453125">
        <ele>3988.199951171875</ele>
        <time>2023-07-29T16:08:37.000Z</time>
        <extensions>
          <ns3:TrackPointExtension>
            <ns3:hr>138</ns3:hr>
            <ns3:cad>0</ns3:cad>
          </ns3:TrackPointExtension>
        </extensions>
      </trkpt>
      <trkpt lat="37.7841612137854099273681640625" lon="-107.70373754203319549560546875">
        <ele>3988.39990234375</ele>
        <time>2023-07-29T16:08:38.000Z</time>
        <extensions>
          <ns3:TrackPointExtension>
            <ns3:hr>138</ns3:hr>
            <ns3:cad>0</ns3:cad>
          </ns3:TrackPointExtension>
        </extensions>
      </trkpt>
      <trkpt lat="37.7841638959944248199462890625" lon="-107.7037330158054828643798828125">
        <ele>3988.60009765625</ele>
        <time>2023-07-29T16:08:39.000Z</time>
        <extensions>
          <ns3:TrackPointExtension>
            <ns3:hr>138</ns3:hr>
            <ns3:cad>0</ns3:cad>
          </ns3:TrackPointExtension>
        </extensions>
      </trkpt>
      <trkpt lat="37.78417135588824748992919921875" lon="-107.7037259750068187713623046875">
        <ele>3988.800048828125</ele>
        <time>2023-07-29T16:08:40.000Z</time>
        <extensions>
          <ns3:TrackPointExtension>
            <ns3:hr>138</ns3:hr>
            <ns3:cad>0</ns3:cad>
          </ns3:TrackPointExtension>
        </extensions>
      </trkpt>
      <trkpt lat="37.7841804921627044677734375" lon="-107.70372019149363040924072265625">
        <ele>3989</ele>
        <time>2023-07-29T16:08:41.000Z</time>
        <extensions>
          <ns3:TrackPointExtension>
            <ns3:hr>138</ns3:hr>
            <ns3:cad>0</ns3:cad>
          </ns3:TrackPointExtension>
        </extensions>
      </trkpt>
      <trkpt lat="37.78418376110494136810302734375" lon="-107.70371935330331325531005859375">
        <ele>3989.199951171875</ele>
        <time>2023-07-29T16:08:42.000Z</time>
        <extensions>
          <ns3:TrackPointExtension>
            <ns3:hr>138</ns3:hr>
            <ns3:cad>0</ns3:cad>
          </ns3:TrackPointExtension>
        </extensions>
      </trkpt>
      <trkpt lat="37.78418610803782939910888671875" lon="-107.7037202753126621246337890625">
        <ele>3989.39990234375</ele>
        <time>2023-07-29T16:08:43.000Z</time>
        <extensions>
          <ns3:TrackPointExtension>
            <ns3:hr>138</ns3:hr>
            <ns3:cad>0</ns3:cad>
          </ns3:TrackPointExtension>
        </extensions>
      </trkpt>
      <trkpt lat="37.784189879894256591796875" lon="-107.7037179283797740936279296875">
        <ele>3989.39990234375</ele>
        <time>2023-07-29T16:08:44.000Z</time>
        <extensions>
          <ns3:TrackPointExtension>
            <ns3:hr>138</ns3:hr>
            <ns3:cad>0</ns3:cad>
          </ns3:TrackPointExtension>
        </extensions>
      </trkpt>
      <trkpt lat="37.78419415466487407684326171875" lon="-107.70371516235172748565673828125">
        <ele>3989.800048828125</ele>
        <time>2023-07-29T16:08:45.000Z</time>
        <extensions>
          <ns3:TrackPointExtension>
            <ns3:hr>139</ns3:hr>
            <ns3:cad>0</ns3:cad>
          </ns3:TrackPointExtension>
        </extensions>
      </trkpt>
      <trkpt lat="37.78419683687388896942138671875" lon="-107.703714407980442047119140625">
        <ele>3989.800048828125</ele>
        <time>2023-07-29T16:08:46.000Z</time>
        <extensions>
          <ns3:TrackPointExtension>
            <ns3:hr>139</ns3:hr>
            <ns3:cad>0</ns3:cad>
          </ns3:TrackPointExtension>
        </extensions>
      </trkpt>
      <trkpt lat="37.78419591486454010009765625" lon="-107.70371482707560062408447265625">
        <ele>3990</ele>
        <time>2023-07-29T16:08:47.000Z</time>
        <extensions>
          <ns3:TrackPointExtension>
            <ns3:hr>139</ns3:hr>
            <ns3:cad>0</ns3:cad>
          </ns3:TrackPointExtension>
        </extensions>
      </trkpt>
      <trkpt lat="37.78420002199709415435791015625" lon="-107.70371474325656890869140625">
        <ele>3990.60009765625</ele>
        <time>2023-07-29T16:08:48.000Z</time>
        <extensions>
          <ns3:TrackPointExtension>
            <ns3:hr>139</ns3:hr>
            <ns3:cad>0</ns3:cad>
          </ns3:TrackPointExtension>
        </extensions>
      </trkpt>
      <trkpt lat="37.78420136310160160064697265625" lon="-107.70371801219880580902099609375">
        <ele>3990.800048828125</ele>
        <time>2023-07-29T16:08:49.000Z</time>
        <extensions>
          <ns3:TrackPointExtension>
            <ns3:hr>139</ns3:hr>
            <ns3:cad>0</ns3:cad>
          </ns3:TrackPointExtension>
        </extensions>
      </trkpt>
      <trkpt lat="37.78420672751963138580322265625" lon="-107.70371901802718639373779296875">
        <ele>3991</ele>
        <time>2023-07-29T16:08:50.000Z</time>
        <extensions>
          <ns3:TrackPointExtension>
            <ns3:hr>139</ns3:hr>
            <ns3:cad>0</ns3:cad>
          </ns3:TrackPointExtension>
        </extensions>
      </trkpt>
      <trkpt lat="37.7842104993760585784912109375" lon="-107.703720442950725555419921875">
        <ele>3991.199951171875</ele>
        <time>2023-07-29T16:08:51.000Z</time>
        <extensions>
          <ns3:TrackPointExtension>
            <ns3:hr>139</ns3:hr>
            <ns3:cad>0</ns3:cad>
          </ns3:TrackPointExtension>
        </extensions>
      </trkpt>
      <trkpt lat="37.78421745635569095611572265625" lon="-107.7037232927978038787841796875">
        <ele>3991.199951171875</ele>
        <time>2023-07-29T16:08:52.000Z</time>
        <extensions>
          <ns3:TrackPointExtension>
            <ns3:hr>139</ns3:hr>
            <ns3:cad>0</ns3:cad>
          </ns3:TrackPointExtension>
        </extensions>
      </trkpt>
      <trkpt lat="37.7842182107269763946533203125" lon="-107.70372605882585048675537109375">
        <ele>3991.60009765625</ele>
        <time>2023-07-29T16:08:53.000Z</time>
        <extensions>
          <ns3:TrackPointExtension>
            <ns3:hr>139</ns3:hr>
            <ns3:cad>0</ns3:cad>
          </ns3:TrackPointExtension>
        </extensions>
      </trkpt>
      <trkpt lat="37.78421737253665924072265625" lon="-107.70372723229229450225830078125">
        <ele>3991.60009765625</ele>
        <time>2023-07-29T16:08:54.000Z</time>
        <extensions>
          <ns3:TrackPointExtension>
            <ns3:hr>140</ns3:hr>
            <ns3:cad>0</ns3:cad>
          </ns3:TrackPointExtension>
        </extensions>
      </trkpt>
      <trkpt lat="37.78422147966921329498291015625" lon="-107.70373377017676830291748046875">
        <ele>3991.800048828125</ele>
        <time>2023-07-29T16:08:55.000Z</time>
        <extensions>
          <ns3:TrackPointExtension>
            <ns3:hr>140</ns3:hr>
            <ns3:cad>0</ns3:cad>
          </ns3:TrackPointExtension>
        </extensions>
      </trkpt>
      <trkpt lat="37.78422617353498935699462890625" lon="-107.70374290645122528076171875">
        <ele>3992</ele>
        <time>2023-07-29T16:08:56.000Z</time>
        <extensions>
          <ns3:TrackPointExtension>
            <ns3:hr>140</ns3:hr>
            <ns3:cad>0</ns3:cad>
          </ns3:TrackPointExtension>
        </extensions>
      </trkpt>
      <trkpt lat="37.78423271141946315765380859375" lon="-107.7037474326789379119873046875">
        <ele>3992.199951171875</ele>
        <time>2023-07-29T16:08:57.000Z</time>
        <extensions>
          <ns3:TrackPointExtension>
            <ns3:hr>141</ns3:hr>
            <ns3:cad>0</ns3:cad>
          </ns3:TrackPointExtension>
        </extensions>
      </trkpt>
      <trkpt lat="37.7842366509139537811279296875" lon="-107.7037457562983036041259765625">
        <ele>3992.199951171875</ele>
        <time>2023-07-29T16:08:58.000Z</time>
        <extensions>
          <ns3:TrackPointExtension>
            <ns3:hr>141</ns3:hr>
            <ns3:cad>0</ns3:cad>
          </ns3:TrackPointExtension>
        </extensions>
      </trkpt>
      <trkpt lat="37.78424008749425411224365234375" lon="-107.70374449901282787322998046875">
        <ele>3992.199951171875</ele>
        <time>2023-07-29T16:08:59.000Z</time>
        <extensions>
          <ns3:TrackPointExtension>
            <ns3:hr>141</ns3:hr>
            <ns3:cad>0</ns3:cad>
          </ns3:TrackPointExtension>
        </extensions>
      </trkpt>
      <trkpt lat="37.7842413447797298431396484375" lon="-107.70374198444187641143798828125">
        <ele>3992.39990234375</ele>
        <time>2023-07-29T16:09:00.000Z</time>
        <extensions>
          <ns3:TrackPointExtension>
            <ns3:hr>141</ns3:hr>
            <ns3:cad>0</ns3:cad>
          </ns3:TrackPointExtension>
        </extensions>
      </trkpt>
      <trkpt lat="37.78424377553164958953857421875" lon="-107.70373846404254436492919921875">
        <ele>3992.60009765625</ele>
        <time>2023-07-29T16:09:01.000Z</time>
        <extensions>
          <ns3:TrackPointExtension>
            <ns3:hr>142</ns3:hr>
            <ns3:cad>0</ns3:cad>
          </ns3:TrackPointExtension>
        </extensions>
      </trkpt>
      <trkpt lat="37.784240506589412689208984375" lon="-107.7037336863577365875244140625">
        <ele>3992.800048828125</ele>
        <time>2023-07-29T16:09:02.000Z</time>
        <extensions>
          <ns3:TrackPointExtension>
            <ns3:hr>142</ns3:hr>
            <ns3:cad>0</ns3:cad>
          </ns3:TrackPointExtension>
        </extensions>
      </trkpt>
      <trkpt lat="37.78424377553164958953857421875" lon="-107.70373024977743625640869140625">
        <ele>3993.199951171875</ele>
        <time>2023-07-29T16:09:03.000Z</time>
        <extensions>
          <ns3:TrackPointExtension>
            <ns3:hr>143</ns3:hr>
            <ns3:cad>0</ns3:cad>
          </ns3:TrackPointExtension>
        </extensions>
      </trkpt>
      <trkpt lat="37.78424897231161594390869140625" lon="-107.7037266455590724945068359375">
        <ele>3993.39990234375</ele>
        <time>2023-07-29T16:09:04.000Z</time>
        <extensions>
          <ns3:TrackPointExtension>
            <ns3:hr>143</ns3:hr>
            <ns3:cad>0</ns3:cad>
          </ns3:TrackPointExtension>
        </extensions>
      </trkpt>
      <trkpt lat="37.7842544205486774444580078125" lon="-107.70371834747493267059326171875">
        <ele>3993.39990234375</ele>
        <time>2023-07-29T16:09:05.000Z</time>
        <extensions>
          <ns3:TrackPointExtension>
            <ns3:hr>142</ns3:hr>
            <ns3:cad>0</ns3:cad>
          </ns3:TrackPointExtension>
        </extensions>
      </trkpt>
      <trkpt lat="37.78425903059542179107666015625" lon="-107.70370803773403167724609375">
        <ele>3993.60009765625</ele>
        <time>2023-07-29T16:09:06.000Z</time>
        <extensions>
          <ns3:TrackPointExtension>
            <ns3:hr>142</ns3:hr>
            <ns3:cad>0</ns3:cad>
          </ns3:TrackPointExtension>
        </extensions>
      </trkpt>
      <trkpt lat="37.784257270395755767822265625" lon="-107.70370292477309703826904296875">
        <ele>3993.800048828125</ele>
        <time>2023-07-29T16:09:07.000Z</time>
        <extensions>
          <ns3:TrackPointExtension>
            <ns3:hr>142</ns3:hr>
            <ns3:cad>0</ns3:cad>
          </ns3:TrackPointExtension>
        </extensions>
      </trkpt>
      <trkpt lat="37.78426188044250011444091796875" lon="-107.7036988176405429840087890625">
        <ele>3994</ele>
        <time>2023-07-29T16:09:08.000Z</time>
        <extensions>
          <ns3:TrackPointExtension>
            <ns3:hr>142</ns3:hr>
            <ns3:cad>0</ns3:cad>
          </ns3:TrackPointExtension>
        </extensions>
      </trkpt>
      <trkpt lat="37.78426875360310077667236328125" lon="-107.70369471050798892974853515625">
        <ele>3994</ele>
        <time>2023-07-29T16:09:09.000Z</time>
        <extensions>
          <ns3:TrackPointExtension>
            <ns3:hr>142</ns3:hr>
            <ns3:cad>0</ns3:cad>
          </ns3:TrackPointExtension>
        </extensions>
      </trkpt>
      <trkpt lat="37.78427302837371826171875" lon="-107.70369403995573520660400390625">
        <ele>3994.199951171875</ele>
        <time>2023-07-29T16:09:10.000Z</time>
        <extensions>
          <ns3:TrackPointExtension>
            <ns3:hr>142</ns3:hr>
            <ns3:cad>0</ns3:cad>
          </ns3:TrackPointExtension>
        </extensions>
      </trkpt>
      <trkpt lat="37.78428199701011180877685546875" lon="-107.7036921121180057525634765625">
        <ele>3994.60009765625</ele>
        <time>2023-07-29T16:09:11.000Z</time>
        <extensions>
          <ns3:TrackPointExtension>
            <ns3:hr>142</ns3:hr>
            <ns3:cad>0</ns3:cad>
          </ns3:TrackPointExtension>
        </extensions>
      </trkpt>
      <trkpt lat="37.7842886187136173248291015625" lon="-107.7036934532225131988525390625">
        <ele>3994.800048828125</ele>
        <time>2023-07-29T16:09:12.000Z</time>
        <extensions>
          <ns3:TrackPointExtension>
            <ns3:hr>142</ns3:hr>
            <ns3:cad>0</ns3:cad>
          </ns3:TrackPointExtension>
        </extensions>
      </trkpt>
      <trkpt lat="37.784294821321964263916015625" lon="-107.70369387231767177581787109375">
        <ele>3995</ele>
        <time>2023-07-29T16:09:13.000Z</time>
        <extensions>
          <ns3:TrackPointExtension>
            <ns3:hr>142</ns3:hr>
            <ns3:cad>0</ns3:cad>
          </ns3:TrackPointExtension>
        </extensions>
      </trkpt>
      <trkpt lat="37.78429825790226459503173828125" lon="-107.7036927826702594757080078125">
        <ele>3995</ele>
        <time>2023-07-29T16:09:14.000Z</time>
        <extensions>
          <ns3:TrackPointExtension>
            <ns3:hr>142</ns3:hr>
            <ns3:cad>0</ns3:cad>
          </ns3:TrackPointExtension>
        </extensions>
      </trkpt>
      <trkpt lat="37.78430412523448467254638671875" lon="-107.703692950308322906494140625">
        <ele>3995.199951171875</ele>
        <time>2023-07-29T16:09:15.000Z</time>
        <extensions>
          <ns3:TrackPointExtension>
            <ns3:hr>142</ns3:hr>
            <ns3:cad>0</ns3:cad>
          </ns3:TrackPointExtension>
        </extensions>
      </trkpt>
      <trkpt lat="37.78430462814867496490478515625" lon="-107.703695632517337799072265625">
        <ele>3995.39990234375</ele>
        <time>2023-07-29T16:09:16.000Z</time>
        <extensions>
          <ns3:TrackPointExtension>
            <ns3:hr>142</ns3:hr>
            <ns3:cad>0</ns3:cad>
          </ns3:TrackPointExtension>
        </extensions>
      </trkpt>
      <trkpt lat="37.784301526844501495361328125" lon="-107.70369789563119411468505859375">
        <ele>3995.60009765625</ele>
        <time>2023-07-29T16:09:17.000Z</time>
        <extensions>
          <ns3:TrackPointExtension>
            <ns3:hr>142</ns3:hr>
            <ns3:cad>0</ns3:cad>
          </ns3:TrackPointExtension>
        </extensions>
      </trkpt>
      <trkpt lat="37.78429876081645488739013671875" lon="-107.7037035115063190460205078125">
        <ele>3995.800048828125</ele>
        <time>2023-07-29T16:09:18.000Z</time>
        <extensions>
          <ns3:TrackPointExtension>
            <ns3:hr>142</ns3:hr>
            <ns3:cad>0</ns3:cad>
          </ns3:TrackPointExtension>
        </extensions>
      </trkpt>
      <trkpt lat="37.7842998504638671875" lon="-107.703708708286285400390625">
        <ele>3996</ele>
        <time>2023-07-29T16:09:19.000Z</time>
        <extensions>
          <ns3:TrackPointExtension>
            <ns3:hr>142</ns3:hr>
            <ns3:cad>0</ns3:cad>
          </ns3:TrackPointExtension>
        </extensions>
      </trkpt>
      <trkpt lat="37.784306220710277557373046875" lon="-107.70371633581817150115966796875">
        <ele>3996</ele>
        <time>2023-07-29T16:09:20.000Z</time>
        <extensions>
          <ns3:TrackPointExtension>
            <ns3:hr>142</ns3:hr>
            <ns3:cad>0</ns3:cad>
          </ns3:TrackPointExtension>
        </extensions>
      </trkpt>
      <trkpt lat="37.7843090705573558807373046875" lon="-107.7037232927978038787841796875">
        <ele>3996.199951171875</ele>
        <time>2023-07-29T16:09:21.000Z</time>
        <extensions>
          <ns3:TrackPointExtension>
            <ns3:hr>142</ns3:hr>
            <ns3:cad>0</ns3:cad>
          </ns3:TrackPointExtension>
        </extensions>
      </trkpt>
      <trkpt lat="37.78430999256670475006103515625" lon="-107.7037273161113262176513671875">
        <ele>3996.39990234375</ele>
        <time>2023-07-29T16:09:22.000Z</time>
        <extensions>
          <ns3:TrackPointExtension>
            <ns3:hr>142</ns3:hr>
            <ns3:cad>0</ns3:cad>
          </ns3:TrackPointExtension>
        </extensions>
      </trkpt>
      <trkpt lat="37.7843087352812290191650390625" lon="-107.7037288248538970947265625">
        <ele>3996.60009765625</ele>
        <time>2023-07-29T16:09:23.000Z</time>
        <extensions>
          <ns3:TrackPointExtension>
            <ns3:hr>142</ns3:hr>
            <ns3:cad>0</ns3:cad>
          </ns3:TrackPointExtension>
        </extensions>
      </trkpt>
      <trkpt lat="37.78431116603314876556396484375" lon="-107.70373276434838771820068359375">
        <ele>3996.800048828125</ele>
        <time>2023-07-29T16:09:24.000Z</time>
        <extensions>
          <ns3:TrackPointExtension>
            <ns3:hr>142</ns3:hr>
            <ns3:cad>0</ns3:cad>
          </ns3:TrackPointExtension>
        </extensions>
      </trkpt>
      <trkpt lat="37.78431334532797336578369140625" lon="-107.70373620092868804931640625">
        <ele>3997</ele>
        <time>2023-07-29T16:09:25.000Z</time>
        <extensions>
          <ns3:TrackPointExtension>
            <ns3:hr>142</ns3:hr>
            <ns3:cad>0</ns3:cad>
          </ns3:TrackPointExtension>
        </extensions>
      </trkpt>
      <trkpt lat="37.7843171171844005584716796875" lon="-107.70373879931867122650146484375">
        <ele>3997.39990234375</ele>
        <time>2023-07-29T16:09:26.000Z</time>
        <extensions>
          <ns3:TrackPointExtension>
            <ns3:hr>142</ns3:hr>
            <ns3:cad>0</ns3:cad>
          </ns3:TrackPointExtension>
        </extensions>
      </trkpt>
      <trkpt lat="37.78432424180209636688232421875" lon="-107.70374617539346218109130859375">
        <ele>3997.39990234375</ele>
        <time>2023-07-29T16:09:27.000Z</time>
        <extensions>
          <ns3:TrackPointExtension>
            <ns3:hr>142</ns3:hr>
            <ns3:cad>0</ns3:cad>
          </ns3:TrackPointExtension>
        </extensions>
      </trkpt>
      <trkpt lat="37.78433077968657016754150390625" lon="-107.7037489414215087890625">
        <ele>3997.60009765625</ele>
        <time>2023-07-29T16:09:28.000Z</time>
        <extensions>
          <ns3:TrackPointExtension>
            <ns3:hr>142</ns3:hr>
            <ns3:cad>0</ns3:cad>
          </ns3:TrackPointExtension>
        </extensions>
      </trkpt>
      <trkpt lat="37.784340083599090576171875" lon="-107.70374449901282787322998046875">
        <ele>3997.60009765625</ele>
        <time>2023-07-29T16:09:29.000Z</time>
        <extensions>
          <ns3:TrackPointExtension>
            <ns3:hr>142</ns3:hr>
            <ns3:cad>0</ns3:cad>
          </ns3:TrackPointExtension>
        </extensions>
      </trkpt>
      <trkpt lat="37.78435148298740386962890625" lon="-107.70375019870698451995849609375">
        <ele>3997.800048828125</ele>
        <time>2023-07-29T16:09:30.000Z</time>
        <extensions>
          <ns3:TrackPointExtension>
            <ns3:hr>142</ns3:hr>
            <ns3:cad>0</ns3:cad>
          </ns3:TrackPointExtension>
        </extensions>
      </trkpt>
      <trkpt lat="37.78436623513698577880859375" lon="-107.70375791005790233612060546875">
        <ele>3997.800048828125</ele>
        <time>2023-07-29T16:09:31.000Z</time>
        <extensions>
          <ns3:TrackPointExtension>
            <ns3:hr>142</ns3:hr>
            <ns3:cad>0</ns3:cad>
          </ns3:TrackPointExtension>
        </extensions>
      </trkpt>
      <trkpt lat="37.7843754552304744720458984375" lon="-107.7037625201046466827392578125">
        <ele>3998</ele>
        <time>2023-07-29T16:09:32.000Z</time>
        <extensions>
          <ns3:TrackPointExtension>
            <ns3:hr>142</ns3:hr>
            <ns3:cad>0</ns3:cad>
          </ns3:TrackPointExtension>
        </extensions>
      </trkpt>
      <trkpt lat="37.7843831665813922882080078125" lon="-107.70376629196107387542724609375">
        <ele>3998.199951171875</ele>
        <time>2023-07-29T16:09:33.000Z</time>
        <extensions>
          <ns3:TrackPointExtension>
            <ns3:hr>142</ns3:hr>
            <ns3:cad>0</ns3:cad>
          </ns3:TrackPointExtension>
        </extensions>
      </trkpt>
      <trkpt lat="37.78438459150493144989013671875" lon="-107.70376830361783504486083984375">
        <ele>3998.60009765625</ele>
        <time>2023-07-29T16:09:34.000Z</time>
        <extensions>
          <ns3:TrackPointExtension>
            <ns3:hr>142</ns3:hr>
            <ns3:cad>0</ns3:cad>
          </ns3:TrackPointExtension>
        </extensions>
      </trkpt>
      <trkpt lat="37.78438475914299488067626953125" lon="-107.70376696251332759857177734375">
        <ele>3998.60009765625</ele>
        <time>2023-07-29T16:09:35.000Z</time>
        <extensions>
          <ns3:TrackPointExtension>
            <ns3:hr>142</ns3:hr>
            <ns3:cad>0</ns3:cad>
          </ns3:TrackPointExtension>
        </extensions>
      </trkpt>
      <trkpt lat="37.7843828313052654266357421875" lon="-107.70376930944621562957763671875">
        <ele>3998.800048828125</ele>
        <time>2023-07-29T16:09:36.000Z</time>
        <extensions>
          <ns3:TrackPointExtension>
            <ns3:hr>142</ns3:hr>
            <ns3:cad>0</ns3:cad>
          </ns3:TrackPointExtension>
        </extensions>
      </trkpt>
      <trkpt lat="37.7843875251710414886474609375" lon="-107.70376662723720073699951171875">
        <ele>3999</ele>
        <time>2023-07-29T16:09:37.000Z</time>
        <extensions>
          <ns3:TrackPointExtension>
            <ns3:hr>142</ns3:hr>
            <ns3:cad>0</ns3:cad>
          </ns3:TrackPointExtension>
        </extensions>
      </trkpt>
      <trkpt lat="37.78438995592296123504638671875" lon="-107.7037610113620758056640625">
        <ele>3999</ele>
        <time>2023-07-29T16:09:38.000Z</time>
        <extensions>
          <ns3:TrackPointExtension>
            <ns3:hr>141</ns3:hr>
            <ns3:cad>0</ns3:cad>
          </ns3:TrackPointExtension>
        </extensions>
      </trkpt>
      <trkpt lat="37.7843938954174518585205078125" lon="-107.70375858061015605926513671875">
        <ele>3999.199951171875</ele>
        <time>2023-07-29T16:09:39.000Z</time>
        <extensions>
          <ns3:TrackPointExtension>
            <ns3:hr>141</ns3:hr>
            <ns3:cad>0</ns3:cad>
          </ns3:TrackPointExtension>
        </extensions>
      </trkpt>
      <trkpt lat="37.78440219350159168243408203125" lon="-107.70375631749629974365234375">
        <ele>3999.199951171875</ele>
        <time>2023-07-29T16:09:40.000Z</time>
        <extensions>
          <ns3:TrackPointExtension>
            <ns3:hr>141</ns3:hr>
            <ns3:cad>0</ns3:cad>
          </ns3:TrackPointExtension>
        </extensions>
      </trkpt>
      <trkpt lat="37.78441141359508037567138671875" lon="-107.70375355146825313568115234375">
        <ele>3999.60009765625</ele>
        <time>2023-07-29T16:09:41.000Z</time>
        <extensions>
          <ns3:TrackPointExtension>
            <ns3:hr>141</ns3:hr>
            <ns3:cad>0</ns3:cad>
          </ns3:TrackPointExtension>
        </extensions>
      </trkpt>
      <trkpt lat="37.7844192087650299072265625" lon="-107.7037467621266841888427734375">
        <ele>3999.60009765625</ele>
        <time>2023-07-29T16:09:42.000Z</time>
        <extensions>
          <ns3:TrackPointExtension>
            <ns3:hr>140</ns3:hr>
            <ns3:cad>0</ns3:cad>
          </ns3:TrackPointExtension>
        </extensions>
      </trkpt>
      <trkpt lat="37.7844213880598545074462890625" lon="-107.7037424035370349884033203125">
        <ele>4000</ele>
        <time>2023-07-29T16:09:43.000Z</time>
        <extensions>
          <ns3:TrackPointExtension>
            <ns3:hr>140</ns3:hr>
            <ns3:cad>0</ns3:cad>
          </ns3:TrackPointExtension>
        </extensions>
      </trkpt>
      <trkpt lat="37.78442298062145709991455078125" lon="-107.70373745821416378021240234375">
        <ele>4000.199951171875</ele>
        <time>2023-07-29T16:09:44.000Z</time>
        <extensions>
          <ns3:TrackPointExtension>
            <ns3:hr>140</ns3:hr>
            <ns3:cad>0</ns3:cad>
          </ns3:TrackPointExtension>
        </extensions>
      </trkpt>
      <trkpt lat="37.7844190411269664764404296875" lon="-107.7037323452532291412353515625">
        <ele>4000.199951171875</ele>
        <time>2023-07-29T16:09:45.000Z</time>
        <extensions>
          <ns3:TrackPointExtension>
            <ns3:hr>140</ns3:hr>
            <ns3:cad>0</ns3:cad>
          </ns3:TrackPointExtension>
        </extensions>
      </trkpt>
      <trkpt lat="37.78442256152629852294921875" lon="-107.70372404716908931732177734375">
        <ele>4000.39990234375</ele>
        <time>2023-07-29T16:09:46.000Z</time>
        <extensions>
          <ns3:TrackPointExtension>
            <ns3:hr>140</ns3:hr>
            <ns3:cad>0</ns3:cad>
          </ns3:TrackPointExtension>
        </extensions>
      </trkpt>
      <trkpt lat="37.78442163951694965362548828125" lon="-107.7037192694842815399169921875">
        <ele>4000.60009765625</ele>
        <time>2023-07-29T16:09:47.000Z</time>
        <extensions>
          <ns3:TrackPointExtension>
            <ns3:hr>140</ns3:hr>
            <ns3:cad>0</ns3:cad>
          </ns3:TrackPointExtension>
        </extensions>
      </trkpt>
      <trkpt lat="37.78442197479307651519775390625" lon="-107.70371197722852230072021484375">
        <ele>4000.60009765625</ele>
        <time>2023-07-29T16:09:48.000Z</time>
        <extensions>
          <ns3:TrackPointExtension>
            <ns3:hr>140</ns3:hr>
            <ns3:cad>0</ns3:cad>
          </ns3:TrackPointExtension>
        </extensions>
      </trkpt>
      <trkpt lat="37.78442163951694965362548828125" lon="-107.703706361353397369384765625">
        <ele>4001</ele>
        <time>2023-07-29T16:09:49.000Z</time>
        <extensions>
          <ns3:TrackPointExtension>
            <ns3:hr>140</ns3:hr>
            <ns3:cad>0</ns3:cad>
          </ns3:TrackPointExtension>
        </extensions>
      </trkpt>
      <trkpt lat="37.78442281298339366912841796875" lon="-107.703701667487621307373046875">
        <ele>4001</ele>
        <time>2023-07-29T16:09:50.000Z</time>
        <extensions>
          <ns3:TrackPointExtension>
            <ns3:hr>140</ns3:hr>
            <ns3:cad>0</ns3:cad>
          </ns3:TrackPointExtension>
        </extensions>
      </trkpt>
      <trkpt lat="37.78442390263080596923828125" lon="-107.7037011645734310150146484375">
        <ele>4001.199951171875</ele>
        <time>2023-07-29T16:09:51.000Z</time>
        <extensions>
          <ns3:TrackPointExtension>
            <ns3:hr>140</ns3:hr>
            <ns3:cad>0</ns3:cad>
          </ns3:TrackPointExtension>
        </extensions>
      </trkpt>
      <trkpt lat="37.78442499227821826934814453125" lon="-107.7037092112004756927490234375">
        <ele>4001.199951171875</ele>
        <time>2023-07-29T16:09:52.000Z</time>
        <extensions>
          <ns3:TrackPointExtension>
            <ns3:hr>140</ns3:hr>
            <ns3:cad>0</ns3:cad>
          </ns3:TrackPointExtension>
        </extensions>
      </trkpt>
      <trkpt lat="37.78442800976336002349853515625" lon="-107.70371281541883945465087890625">
        <ele>4001.39990234375</ele>
        <time>2023-07-29T16:09:53.000Z</time>
        <extensions>
          <ns3:TrackPointExtension>
            <ns3:hr>141</ns3:hr>
            <ns3:cad>0</ns3:cad>
          </ns3:TrackPointExtension>
        </extensions>
      </trkpt>
      <trkpt lat="37.78443194925785064697265625" lon="-107.70372136496007442474365234375">
        <ele>4001.800048828125</ele>
        <time>2023-07-29T16:09:54.000Z</time>
        <extensions>
          <ns3:TrackPointExtension>
            <ns3:hr>141</ns3:hr>
            <ns3:cad>0</ns3:cad>
          </ns3:TrackPointExtension>
        </extensions>
      </trkpt>
      <trkpt lat="37.78443588875234127044677734375" lon="-107.7037299983203411102294921875">
        <ele>4001.800048828125</ele>
        <time>2023-07-29T16:09:55.000Z</time>
        <extensions>
          <ns3:TrackPointExtension>
            <ns3:hr>141</ns3:hr>
            <ns3:cad>0</ns3:cad>
          </ns3:TrackPointExtension>
        </extensions>
      </trkpt>
      <trkpt lat="37.784436307847499847412109375" lon="-107.703734524548053741455078125">
        <ele>4002.199951171875</ele>
        <time>2023-07-29T16:09:56.000Z</time>
        <extensions>
          <ns3:TrackPointExtension>
            <ns3:hr>141</ns3:hr>
            <ns3:cad>0</ns3:cad>
          </ns3:TrackPointExtension>
        </extensions>
      </trkpt>
      <trkpt lat="37.78444510884582996368408203125" lon="-107.70373444072902202606201171875">
        <ele>4002.199951171875</ele>
        <time>2023-07-29T16:09:57.000Z</time>
        <extensions>
          <ns3:TrackPointExtension>
            <ns3:hr>141</ns3:hr>
            <ns3:cad>0</ns3:cad>
          </ns3:TrackPointExtension>
        </extensions>
      </trkpt>
      <trkpt lat="37.78444879688322544097900390625" lon="-107.70373796112835407257080078125">
        <ele>4002.199951171875</ele>
        <time>2023-07-29T16:09:58.000Z</time>
        <extensions>
          <ns3:TrackPointExtension>
            <ns3:hr>141</ns3:hr>
            <ns3:cad>0</ns3:cad>
          </ns3:TrackPointExtension>
        </extensions>
      </trkpt>
      <trkpt lat="37.7844532392919063568115234375" lon="-107.7037400566041469573974609375">
        <ele>4002.39990234375</ele>
        <time>2023-07-29T16:09:59.000Z</time>
        <extensions>
          <ns3:TrackPointExtension>
            <ns3:hr>141</ns3:hr>
            <ns3:cad>0</ns3:cad>
          </ns3:TrackPointExtension>
        </extensions>
      </trkpt>
      <trkpt lat="37.78446271084249019622802734375" lon="-107.7037422358989715576171875">
        <ele>4002.60009765625</ele>
        <time>2023-07-29T16:10:00.000Z</time>
        <extensions>
          <ns3:TrackPointExtension>
            <ns3:hr>141</ns3:hr>
            <ns3:cad>0</ns3:cad>
          </ns3:TrackPointExtension>
        </extensions>
      </trkpt>
      <trkpt lat="37.78446991927921772003173828125" lon="-107.70374131388962268829345703125">
        <ele>4002.800048828125</ele>
        <time>2023-07-29T16:10:01.000Z</time>
        <extensions>
          <ns3:TrackPointExtension>
            <ns3:hr>141</ns3:hr>
            <ns3:cad>0</ns3:cad>
          </ns3:TrackPointExtension>
        </extensions>
      </trkpt>
      <trkpt lat="37.78446991927921772003173828125" lon="-107.70374131388962268829345703125">
        <ele>4003</ele>
        <time>2023-07-29T16:10:02.000Z</time>
        <extensions>
          <ns3:TrackPointExtension>
            <ns3:hr>141</ns3:hr>
            <ns3:cad>0</ns3:cad>
          </ns3:TrackPointExtension>
        </extensions>
      </trkpt>
      <trkpt lat="37.78446991927921772003173828125" lon="-107.70374131388962268829345703125">
        <ele>4003.199951171875</ele>
        <time>2023-07-29T16:10:03.000Z</time>
        <extensions>
          <ns3:TrackPointExtension>
            <ns3:hr>140</ns3:hr>
            <ns3:cad>0</ns3:cad>
          </ns3:TrackPointExtension>
        </extensions>
      </trkpt>
      <trkpt lat="37.78446991927921772003173828125" lon="-107.70374131388962268829345703125">
        <ele>4003.199951171875</ele>
        <time>2023-07-29T16:10:04.000Z</time>
        <extensions>
          <ns3:TrackPointExtension>
            <ns3:hr>140</ns3:hr>
            <ns3:cad>0</ns3:cad>
          </ns3:TrackPointExtension>
        </extensions>
      </trkpt>
      <trkpt lat="37.784485928714275360107421875" lon="-107.70374827086925506591796875">
        <ele>4003.39990234375</ele>
        <time>2023-07-29T16:10:05.000Z</time>
        <extensions>
          <ns3:TrackPointExtension>
            <ns3:hr>140</ns3:hr>
            <ns3:cad>0</ns3:cad>
          </ns3:TrackPointExtension>
        </extensions>
      </trkpt>
      <trkpt lat="37.78449095785617828369140625" lon="-107.70375388674437999725341796875">
        <ele>4003.800048828125</ele>
        <time>2023-07-29T16:10:06.000Z</time>
        <extensions>
          <ns3:TrackPointExtension>
            <ns3:hr>140</ns3:hr>
            <ns3:cad>0</ns3:cad>
          </ns3:TrackPointExtension>
        </extensions>
      </trkpt>
      <trkpt lat="37.78449095785617828369140625" lon="-107.70375388674437999725341796875">
        <ele>4004</ele>
        <time>2023-07-29T16:10:07.000Z</time>
        <extensions>
          <ns3:TrackPointExtension>
            <ns3:hr>140</ns3:hr>
            <ns3:cad>0</ns3:cad>
          </ns3:TrackPointExtension>
        </extensions>
      </trkpt>
      <trkpt lat="37.78450294397771358489990234375" lon="-107.70376444794237613677978515625">
        <ele>4004</ele>
        <time>2023-07-29T16:10:08.000Z</time>
        <extensions>
          <ns3:TrackPointExtension>
            <ns3:hr>140</ns3:hr>
            <ns3:cad>0</ns3:cad>
          </ns3:TrackPointExtension>
        </extensions>
      </trkpt>
      <trkpt lat="37.78450763784348964691162109375" lon="-107.70376696251332759857177734375">
        <ele>4004.199951171875</ele>
        <time>2023-07-29T16:10:09.000Z</time>
        <extensions>
          <ns3:TrackPointExtension>
            <ns3:hr>140</ns3:hr>
            <ns3:cad>0</ns3:cad>
          </ns3:TrackPointExtension>
        </extensions>
      </trkpt>
      <trkpt lat="37.78450763784348964691162109375" lon="-107.70376696251332759857177734375">
        <ele>4004.39990234375</ele>
        <time>2023-07-29T16:10:10.000Z</time>
        <extensions>
          <ns3:TrackPointExtension>
            <ns3:hr>140</ns3:hr>
            <ns3:cad>0</ns3:cad>
          </ns3:TrackPointExtension>
        </extensions>
      </trkpt>
      <trkpt lat="37.78450571000576019287109375" lon="-107.70376025699079036712646484375">
        <ele>4004.60009765625</ele>
        <time>2023-07-29T16:10:11.000Z</time>
        <extensions>
          <ns3:TrackPointExtension>
            <ns3:hr>140</ns3:hr>
            <ns3:cad>0</ns3:cad>
          </ns3:TrackPointExtension>
        </extensions>
      </trkpt>
      <trkpt lat="37.78450445272028446197509765625" lon="-107.70375589840114116668701171875">
        <ele>4004.800048828125</ele>
        <time>2023-07-29T16:10:12.000Z</time>
        <extensions>
          <ns3:TrackPointExtension>
            <ns3:hr>140</ns3:hr>
            <ns3:cad>0</ns3:cad>
          </ns3:TrackPointExtension>
        </extensions>
      </trkpt>
      <trkpt lat="37.784504704177379608154296875" lon="-107.703755982220172882080078125">
        <ele>4005</ele>
        <time>2023-07-29T16:10:13.000Z</time>
        <extensions>
          <ns3:TrackPointExtension>
            <ns3:hr>140</ns3:hr>
            <ns3:cad>0</ns3:cad>
          </ns3:TrackPointExtension>
        </extensions>
      </trkpt>
      <trkpt lat="37.78450227342545986175537109375" lon="-107.70375858061015605926513671875">
        <ele>4005</ele>
        <time>2023-07-29T16:10:14.000Z</time>
        <extensions>
          <ns3:TrackPointExtension>
            <ns3:hr>139</ns3:hr>
            <ns3:cad>0</ns3:cad>
          </ns3:TrackPointExtension>
        </extensions>
      </trkpt>
      <trkpt lat="37.78450210578739643096923828125" lon="-107.70375874824821949005126953125">
        <ele>4005</ele>
        <time>2023-07-29T16:10:15.000Z</time>
        <extensions>
          <ns3:TrackPointExtension>
            <ns3:hr>139</ns3:hr>
            <ns3:cad>0</ns3:cad>
          </ns3:TrackPointExtension>
        </extensions>
      </trkpt>
      <trkpt lat="37.78450168669223785400390625" lon="-107.70375824533402919769287109375">
        <ele>4005</ele>
        <time>2023-07-29T16:10:16.000Z</time>
        <extensions>
          <ns3:TrackPointExtension>
            <ns3:hr>139</ns3:hr>
            <ns3:cad>0</ns3:cad>
          </ns3:TrackPointExtension>
        </extensions>
      </trkpt>
      <trkpt lat="37.784501351416110992431640625" lon="-107.703757993876934051513671875">
        <ele>4005</ele>
        <time>2023-07-29T16:10:17.000Z</time>
        <extensions>
          <ns3:TrackPointExtension>
            <ns3:hr>139</ns3:hr>
            <ns3:cad>0</ns3:cad>
          </ns3:TrackPointExtension>
        </extensions>
      </trkpt>
      <trkpt lat="37.784501351416110992431640625" lon="-107.70375824533402919769287109375">
        <ele>4005</ele>
        <time>2023-07-29T16:10:18.000Z</time>
        <extensions>
          <ns3:TrackPointExtension>
            <ns3:hr>139</ns3:hr>
            <ns3:cad>0</ns3:cad>
          </ns3:TrackPointExtension>
        </extensions>
      </trkpt>
      <trkpt lat="37.78450126759707927703857421875" lon="-107.7037584967911243438720703125">
        <ele>4004.800048828125</ele>
        <time>2023-07-29T16:10:19.000Z</time>
        <extensions>
          <ns3:TrackPointExtension>
            <ns3:hr>139</ns3:hr>
            <ns3:cad>0</ns3:cad>
          </ns3:TrackPointExtension>
        </extensions>
      </trkpt>
      <trkpt lat="37.784501016139984130859375" lon="-107.70375841297209262847900390625">
        <ele>4004.800048828125</ele>
        <time>2023-07-29T16:10:20.000Z</time>
        <extensions>
          <ns3:TrackPointExtension>
            <ns3:hr>139</ns3:hr>
            <ns3:cad>0</ns3:cad>
          </ns3:TrackPointExtension>
        </extensions>
      </trkpt>
      <trkpt lat="37.784500680863857269287109375" lon="-107.70375807769596576690673828125">
        <ele>4004.800048828125</ele>
        <time>2023-07-29T16:10:21.000Z</time>
        <extensions>
          <ns3:TrackPointExtension>
            <ns3:hr>138</ns3:hr>
            <ns3:cad>0</ns3:cad>
          </ns3:TrackPointExtension>
        </extensions>
      </trkpt>
      <trkpt lat="37.78450009413063526153564453125" lon="-107.70375791005790233612060546875">
        <ele>4004.800048828125</ele>
        <time>2023-07-29T16:10:22.000Z</time>
        <extensions>
          <ns3:TrackPointExtension>
            <ns3:hr>137</ns3:hr>
            <ns3:cad>0</ns3:cad>
          </ns3:TrackPointExtension>
        </extensions>
      </trkpt>
      <trkpt lat="37.78449825011193752288818359375" lon="-107.7037581615149974822998046875">
        <ele>4004.800048828125</ele>
        <time>2023-07-29T16:10:23.000Z</time>
        <extensions>
          <ns3:TrackPointExtension>
            <ns3:hr>137</ns3:hr>
            <ns3:cad>0</ns3:cad>
          </ns3:TrackPointExtension>
        </extensions>
      </trkpt>
      <trkpt lat="37.7844981662929058074951171875" lon="-107.70375623367726802825927734375">
        <ele>4004.800048828125</ele>
        <time>2023-07-29T16:10:24.000Z</time>
        <extensions>
          <ns3:TrackPointExtension>
            <ns3:hr>137</ns3:hr>
            <ns3:cad>0</ns3:cad>
          </ns3:TrackPointExtension>
        </extensions>
      </trkpt>
      <trkpt lat="37.784497998654842376708984375" lon="-107.7037564851343631744384765625">
        <ele>4004.800048828125</ele>
        <time>2023-07-29T16:10:25.000Z</time>
        <extensions>
          <ns3:TrackPointExtension>
            <ns3:hr>137</ns3:hr>
            <ns3:cad>0</ns3:cad>
          </ns3:TrackPointExtension>
        </extensions>
      </trkpt>
      <trkpt lat="37.7844897843897342681884765625" lon="-107.70375858061015605926513671875">
        <ele>4005</ele>
        <time>2023-07-29T16:10:26.000Z</time>
        <extensions>
          <ns3:TrackPointExtension>
            <ns3:hr>137</ns3:hr>
            <ns3:cad>0</ns3:cad>
          </ns3:TrackPointExtension>
        </extensions>
      </trkpt>
      <trkpt lat="37.784489952027797698974609375" lon="-107.70375522784888744354248046875">
        <ele>4005</ele>
        <time>2023-07-29T16:10:27.000Z</time>
        <extensions>
          <ns3:TrackPointExtension>
            <ns3:hr>138</ns3:hr>
            <ns3:cad>0</ns3:cad>
          </ns3:TrackPointExtension>
        </extensions>
      </trkpt>
      <trkpt lat="37.784492634236812591552734375" lon="-107.70374734885990619659423828125">
        <ele>4005</ele>
        <time>2023-07-29T16:10:28.000Z</time>
        <extensions>
          <ns3:TrackPointExtension>
            <ns3:hr>138</ns3:hr>
            <ns3:cad>0</ns3:cad>
          </ns3:TrackPointExtension>
        </extensions>
      </trkpt>
      <trkpt lat="37.7844917960464954376220703125" lon="-107.70374148152768611907958984375">
        <ele>4005</ele>
        <time>2023-07-29T16:10:29.000Z</time>
        <extensions>
          <ns3:TrackPointExtension>
            <ns3:hr>137</ns3:hr>
            <ns3:cad>0</ns3:cad>
          </ns3:TrackPointExtension>
        </extensions>
      </trkpt>
      <trkpt lat="37.78449087403714656829833984375" lon="-107.70373846404254436492919921875">
        <ele>4005.199951171875</ele>
        <time>2023-07-29T16:10:30.000Z</time>
        <extensions>
          <ns3:TrackPointExtension>
            <ns3:hr>137</ns3:hr>
            <ns3:cad>0</ns3:cad>
          </ns3:TrackPointExtension>
        </extensions>
      </trkpt>
      <trkpt lat="37.78449104167520999908447265625" lon="-107.70373779349029064178466796875">
        <ele>4005.199951171875</ele>
        <time>2023-07-29T16:10:31.000Z</time>
        <extensions>
          <ns3:TrackPointExtension>
            <ns3:hr>137</ns3:hr>
            <ns3:cad>0</ns3:cad>
          </ns3:TrackPointExtension>
        </extensions>
      </trkpt>
      <trkpt lat="37.78449154458940029144287109375" lon="-107.70373896695673465728759765625">
        <ele>4005.199951171875</ele>
        <time>2023-07-29T16:10:32.000Z</time>
        <extensions>
          <ns3:TrackPointExtension>
            <ns3:hr>137</ns3:hr>
            <ns3:cad>0</ns3:cad>
          </ns3:TrackPointExtension>
        </extensions>
      </trkpt>
      <trkpt lat="37.7844948135316371917724609375" lon="-107.70374424755573272705078125">
        <ele>4005.199951171875</ele>
        <time>2023-07-29T16:10:33.000Z</time>
        <extensions>
          <ns3:TrackPointExtension>
            <ns3:hr>137</ns3:hr>
            <ns3:cad>0</ns3:cad>
          </ns3:TrackPointExtension>
        </extensions>
      </trkpt>
      <trkpt lat="37.78449992649257183074951171875" lon="-107.70374969579279422760009765625">
        <ele>4005.199951171875</ele>
        <time>2023-07-29T16:10:34.000Z</time>
        <extensions>
          <ns3:TrackPointExtension>
            <ns3:hr>137</ns3:hr>
            <ns3:cad>0</ns3:cad>
          </ns3:TrackPointExtension>
        </extensions>
      </trkpt>
      <trkpt lat="37.78450931422412395477294921875" lon="-107.70376377739012241363525390625">
        <ele>4005.199951171875</ele>
        <time>2023-07-29T16:10:35.000Z</time>
        <extensions>
          <ns3:TrackPointExtension>
            <ns3:hr>137</ns3:hr>
            <ns3:cad>0</ns3:cad>
          </ns3:TrackPointExtension>
        </extensions>
      </trkpt>
      <trkpt lat="37.7845182828605175018310546875" lon="-107.703767381608486175537109375">
        <ele>4005.199951171875</ele>
        <time>2023-07-29T16:10:36.000Z</time>
        <extensions>
          <ns3:TrackPointExtension>
            <ns3:hr>136</ns3:hr>
            <ns3:cad>0</ns3:cad>
          </ns3:TrackPointExtension>
        </extensions>
      </trkpt>
      <trkpt lat="37.78452591039240360260009765625" lon="-107.70375899970531463623046875">
        <ele>4005.199951171875</ele>
        <time>2023-07-29T16:10:37.000Z</time>
        <extensions>
          <ns3:TrackPointExtension>
            <ns3:hr>136</ns3:hr>
            <ns3:cad>0</ns3:cad>
          </ns3:TrackPointExtension>
        </extensions>
      </trkpt>
      <trkpt lat="37.78453228063881397247314453125" lon="-107.70375791005790233612060546875">
        <ele>4005.199951171875</ele>
        <time>2023-07-29T16:10:38.000Z</time>
        <extensions>
          <ns3:TrackPointExtension>
            <ns3:hr>136</ns3:hr>
            <ns3:cad>0</ns3:cad>
          </ns3:TrackPointExtension>
        </extensions>
      </trkpt>
      <trkpt lat="37.78453932143747806549072265625" lon="-107.70375573076307773590087890625">
        <ele>4005.199951171875</ele>
        <time>2023-07-29T16:10:39.000Z</time>
        <extensions>
          <ns3:TrackPointExtension>
            <ns3:hr>135</ns3:hr>
            <ns3:cad>0</ns3:cad>
          </ns3:TrackPointExtension>
        </extensions>
      </trkpt>
      <trkpt lat="37.7845394052565097808837890625" lon="-107.7037517912685871124267578125">
        <ele>4005.39990234375</ele>
        <time>2023-07-29T16:10:40.000Z</time>
        <extensions>
          <ns3:TrackPointExtension>
            <ns3:hr>135</ns3:hr>
            <ns3:cad>0</ns3:cad>
          </ns3:TrackPointExtension>
        </extensions>
      </trkpt>
      <trkpt lat="37.78454418294131755828857421875" lon="-107.70374584011733531951904296875">
        <ele>4005.39990234375</ele>
        <time>2023-07-29T16:10:41.000Z</time>
        <extensions>
          <ns3:TrackPointExtension>
            <ns3:hr>135</ns3:hr>
            <ns3:cad>0</ns3:cad>
          </ns3:TrackPointExtension>
        </extensions>
      </trkpt>
      <trkpt lat="37.78454451821744441986083984375" lon="-107.703741900622844696044921875">
        <ele>4005.800048828125</ele>
        <time>2023-07-29T16:10:42.000Z</time>
        <extensions>
          <ns3:TrackPointExtension>
            <ns3:hr>134</ns3:hr>
            <ns3:cad>0</ns3:cad>
          </ns3:TrackPointExtension>
        </extensions>
      </trkpt>
      <trkpt lat="37.7845466136932373046875" lon="-107.70373997278511524200439453125">
        <ele>4006</ele>
        <time>2023-07-29T16:10:43.000Z</time>
        <extensions>
          <ns3:TrackPointExtension>
            <ns3:hr>130</ns3:hr>
            <ns3:cad>0</ns3:cad>
          </ns3:TrackPointExtension>
        </extensions>
      </trkpt>
      <trkpt lat="37.7845487929880619049072265625" lon="-107.7037373743951320648193359375">
        <ele>4006.199951171875</ele>
        <time>2023-07-29T16:10:44.000Z</time>
        <extensions>
          <ns3:TrackPointExtension>
            <ns3:hr>128</ns3:hr>
            <ns3:cad>0</ns3:cad>
          </ns3:TrackPointExtension>
        </extensions>
      </trkpt>
      <trkpt lat="37.78455088846385478973388671875" lon="-107.70373712293803691864013671875">
        <ele>4006.60009765625</ele>
        <time>2023-07-29T16:10:45.000Z</time>
        <extensions>
          <ns3:TrackPointExtension>
            <ns3:hr>128</ns3:hr>
            <ns3:cad>0</ns3:cad>
          </ns3:TrackPointExtension>
        </extensions>
      </trkpt>
      <trkpt lat="37.78455189429223537445068359375" lon="-107.70373561419546604156494140625">
        <ele>4006.800048828125</ele>
        <time>2023-07-29T16:10:46.000Z</time>
        <extensions>
          <ns3:TrackPointExtension>
            <ns3:hr>128</ns3:hr>
            <ns3:cad>0</ns3:cad>
          </ns3:TrackPointExtension>
        </extensions>
      </trkpt>
      <trkpt lat="37.78455658815801143646240234375" lon="-107.7037370391190052032470703125">
        <ele>4006.800048828125</ele>
        <time>2023-07-29T16:10:47.000Z</time>
        <extensions>
          <ns3:TrackPointExtension>
            <ns3:hr>127</ns3:hr>
            <ns3:cad>0</ns3:cad>
          </ns3:TrackPointExtension>
        </extensions>
      </trkpt>
      <trkpt lat="37.78455725871026515960693359375" lon="-107.70373712293803691864013671875">
        <ele>4006.800048828125</ele>
        <time>2023-07-29T16:10:48.000Z</time>
        <extensions>
          <ns3:TrackPointExtension>
            <ns3:hr>126</ns3:hr>
            <ns3:cad>0</ns3:cad>
          </ns3:TrackPointExtension>
        </extensions>
      </trkpt>
      <trkpt lat="37.7845611982047557830810546875" lon="-107.703738547861576080322265625">
        <ele>4006.800048828125</ele>
        <time>2023-07-29T16:10:49.000Z</time>
        <extensions>
          <ns3:TrackPointExtension>
            <ns3:hr>125</ns3:hr>
            <ns3:cad>68</ns3:cad>
          </ns3:TrackPointExtension>
        </extensions>
      </trkpt>
      <trkpt lat="37.7845645509660243988037109375" lon="-107.7037395536899566650390625">
        <ele>4007</ele>
        <time>2023-07-29T16:10:50.000Z</time>
        <extensions>
          <ns3:TrackPointExtension>
            <ns3:hr>125</ns3:hr>
            <ns3:cad>68</ns3:cad>
          </ns3:TrackPointExtension>
        </extensions>
      </trkpt>
      <trkpt lat="37.7845662273466587066650390625" lon="-107.70373779349029064178466796875">
        <ele>4007</ele>
        <time>2023-07-29T16:10:51.000Z</time>
        <extensions>
          <ns3:TrackPointExtension>
            <ns3:hr>124</ns3:hr>
            <ns3:cad>68</ns3:cad>
          </ns3:TrackPointExtension>
        </extensions>
      </trkpt>
      <trkpt lat="37.78456966392695903778076171875" lon="-107.70373620092868804931640625">
        <ele>4007</ele>
        <time>2023-07-29T16:10:52.000Z</time>
        <extensions>
          <ns3:TrackPointExtension>
            <ns3:hr>124</ns3:hr>
            <ns3:cad>0</ns3:cad>
          </ns3:TrackPointExtension>
        </extensions>
      </trkpt>
      <trkpt lat="37.784568406641483306884765625" lon="-107.70373821258544921875">
        <ele>4007.60009765625</ele>
        <time>2023-07-29T16:10:53.000Z</time>
        <extensions>
          <ns3:TrackPointExtension>
            <ns3:hr>123</ns3:hr>
            <ns3:cad>0</ns3:cad>
          </ns3:TrackPointExtension>
        </extensions>
      </trkpt>
      <trkpt lat="37.78457284905016422271728515625" lon="-107.70373611710965633392333984375">
        <ele>4008.199951171875</ele>
        <time>2023-07-29T16:10:54.000Z</time>
        <extensions>
          <ns3:TrackPointExtension>
            <ns3:hr>123</ns3:hr>
            <ns3:cad>0</ns3:cad>
          </ns3:TrackPointExtension>
        </extensions>
      </trkpt>
      <trkpt lat="37.78457804583013057708740234375" lon="-107.70373410545289516448974609375">
        <ele>4008.39990234375</ele>
        <time>2023-07-29T16:10:55.000Z</time>
        <extensions>
          <ns3:TrackPointExtension>
            <ns3:hr>122</ns3:hr>
            <ns3:cad>0</ns3:cad>
          </ns3:TrackPointExtension>
        </extensions>
      </trkpt>
      <trkpt lat="37.78458726592361927032470703125" lon="-107.70372949540615081787109375">
        <ele>4008.60009765625</ele>
        <time>2023-07-29T16:10:56.000Z</time>
        <extensions>
          <ns3:TrackPointExtension>
            <ns3:hr>121</ns3:hr>
            <ns3:cad>0</ns3:cad>
          </ns3:TrackPointExtension>
        </extensions>
      </trkpt>
      <trkpt lat="37.784597910940647125244140625" lon="-107.7037288248538970947265625">
        <ele>4008.800048828125</ele>
        <time>2023-07-29T16:10:57.000Z</time>
        <extensions>
          <ns3:TrackPointExtension>
            <ns3:hr>121</ns3:hr>
            <ns3:cad>0</ns3:cad>
          </ns3:TrackPointExtension>
        </extensions>
      </trkpt>
      <trkpt lat="37.78460402972996234893798828125" lon="-107.70373008213937282562255859375">
        <ele>4008.800048828125</ele>
        <time>2023-07-29T16:10:58.000Z</time>
        <extensions>
          <ns3:TrackPointExtension>
            <ns3:hr>121</ns3:hr>
            <ns3:cad>0</ns3:cad>
          </ns3:TrackPointExtension>
        </extensions>
      </trkpt>
      <trkpt lat="37.7846111543476581573486328125" lon="-107.70373410545289516448974609375">
        <ele>4008.800048828125</ele>
        <time>2023-07-29T16:10:59.000Z</time>
        <extensions>
          <ns3:TrackPointExtension>
            <ns3:hr>121</ns3:hr>
            <ns3:cad>0</ns3:cad>
          </ns3:TrackPointExtension>
        </extensions>
      </trkpt>
      <trkpt lat="37.78461023233830928802490234375" lon="-107.7037363685667514801025390625">
        <ele>4009</ele>
        <time>2023-07-29T16:11:00.000Z</time>
        <extensions>
          <ns3:TrackPointExtension>
            <ns3:hr>122</ns3:hr>
            <ns3:cad>0</ns3:cad>
          </ns3:TrackPointExtension>
        </extensions>
      </trkpt>
      <trkpt lat="37.78461559675633907318115234375" lon="-107.70373863168060779571533203125">
        <ele>4009.199951171875</ele>
        <time>2023-07-29T16:11:01.000Z</time>
        <extensions>
          <ns3:TrackPointExtension>
            <ns3:hr>122</ns3:hr>
            <ns3:cad>0</ns3:cad>
          </ns3:TrackPointExtension>
        </extensions>
      </trkpt>
      <trkpt lat="37.7846198715269565582275390625" lon="-107.70373754203319549560546875">
        <ele>4009.39990234375</ele>
        <time>2023-07-29T16:11:02.000Z</time>
        <extensions>
          <ns3:TrackPointExtension>
            <ns3:hr>122</ns3:hr>
            <ns3:cad>0</ns3:cad>
          </ns3:TrackPointExtension>
        </extensions>
      </trkpt>
      <trkpt lat="37.7846306003630161285400390625" lon="-107.70373796112835407257080078125">
        <ele>4009.39990234375</ele>
        <time>2023-07-29T16:11:03.000Z</time>
        <extensions>
          <ns3:TrackPointExtension>
            <ns3:hr>122</ns3:hr>
            <ns3:cad>0</ns3:cad>
          </ns3:TrackPointExtension>
        </extensions>
      </trkpt>
      <trkpt lat="37.784639485180377960205078125" lon="-107.703733853995800018310546875">
        <ele>4009.60009765625</ele>
        <time>2023-07-29T16:11:04.000Z</time>
        <extensions>
          <ns3:TrackPointExtension>
            <ns3:hr>122</ns3:hr>
            <ns3:cad>0</ns3:cad>
          </ns3:TrackPointExtension>
        </extensions>
      </trkpt>
      <trkpt lat="37.78465013019740581512451171875" lon="-107.7037273161113262176513671875">
        <ele>4010</ele>
        <time>2023-07-29T16:11:05.000Z</time>
        <extensions>
          <ns3:TrackPointExtension>
            <ns3:hr>122</ns3:hr>
            <ns3:cad>0</ns3:cad>
          </ns3:TrackPointExtension>
        </extensions>
      </trkpt>
      <trkpt lat="37.7846564166247844696044921875" lon="-107.703723795711994171142578125">
        <ele>4010</ele>
        <time>2023-07-29T16:11:06.000Z</time>
        <extensions>
          <ns3:TrackPointExtension>
            <ns3:hr>123</ns3:hr>
            <ns3:cad>0</ns3:cad>
          </ns3:TrackPointExtension>
        </extensions>
      </trkpt>
      <trkpt lat="37.784662283957004547119140625" lon="-107.7037165872752666473388671875">
        <ele>4010.39990234375</ele>
        <time>2023-07-29T16:11:07.000Z</time>
        <extensions>
          <ns3:TrackPointExtension>
            <ns3:hr>123</ns3:hr>
            <ns3:cad>0</ns3:cad>
          </ns3:TrackPointExtension>
        </extensions>
      </trkpt>
      <trkpt lat="37.78467209078371524810791015625" lon="-107.70371231250464916229248046875">
        <ele>4010.60009765625</ele>
        <time>2023-07-29T16:11:08.000Z</time>
        <extensions>
          <ns3:TrackPointExtension>
            <ns3:hr>123</ns3:hr>
            <ns3:cad>0</ns3:cad>
          </ns3:TrackPointExtension>
        </extensions>
      </trkpt>
      <trkpt lat="37.78467628173530101776123046875" lon="-107.70370946265757083892822265625">
        <ele>4011</ele>
        <time>2023-07-29T16:11:09.000Z</time>
        <extensions>
          <ns3:TrackPointExtension>
            <ns3:hr>124</ns3:hr>
            <ns3:cad>0</ns3:cad>
          </ns3:TrackPointExtension>
        </extensions>
      </trkpt>
      <trkpt lat="37.78468483127653598785400390625" lon="-107.70370644517242908477783203125">
        <ele>4011</ele>
        <time>2023-07-29T16:11:10.000Z</time>
        <extensions>
          <ns3:TrackPointExtension>
            <ns3:hr>124</ns3:hr>
            <ns3:cad>0</ns3:cad>
          </ns3:TrackPointExtension>
        </extensions>
      </trkpt>
      <trkpt lat="37.78468550182878971099853515625" lon="-107.703708708286285400390625">
        <ele>4011.39990234375</ele>
        <time>2023-07-29T16:11:11.000Z</time>
        <extensions>
          <ns3:TrackPointExtension>
            <ns3:hr>124</ns3:hr>
            <ns3:cad>0</ns3:cad>
          </ns3:TrackPointExtension>
        </extensions>
      </trkpt>
      <trkpt lat="37.7846882678568363189697265625" lon="-107.7037142403423786163330078125">
        <ele>4011.60009765625</ele>
        <time>2023-07-29T16:11:12.000Z</time>
        <extensions>
          <ns3:TrackPointExtension>
            <ns3:hr>124</ns3:hr>
            <ns3:cad>0</ns3:cad>
          </ns3:TrackPointExtension>
        </extensions>
      </trkpt>
      <trkpt lat="37.7846969850361347198486328125" lon="-107.70371549762785434722900390625">
        <ele>4011.800048828125</ele>
        <time>2023-07-29T16:11:13.000Z</time>
        <extensions>
          <ns3:TrackPointExtension>
            <ns3:hr>124</ns3:hr>
            <ns3:cad>0</ns3:cad>
          </ns3:TrackPointExtension>
        </extensions>
      </trkpt>
      <trkpt lat="37.7847046963870525360107421875" lon="-107.703712396323680877685546875">
        <ele>4012</ele>
        <time>2023-07-29T16:11:14.000Z</time>
        <extensions>
          <ns3:TrackPointExtension>
            <ns3:hr>124</ns3:hr>
            <ns3:cad>0</ns3:cad>
          </ns3:TrackPointExtension>
        </extensions>
      </trkpt>
      <trkpt lat="37.7847157604992389678955078125" lon="-107.703711055219173431396484375">
        <ele>4012</ele>
        <time>2023-07-29T16:11:15.000Z</time>
        <extensions>
          <ns3:TrackPointExtension>
            <ns3:hr>124</ns3:hr>
            <ns3:cad>0</ns3:cad>
          </ns3:TrackPointExtension>
        </extensions>
      </trkpt>
      <trkpt lat="37.7847254835069179534912109375" lon="-107.7037125639617443084716796875">
        <ele>4012.39990234375</ele>
        <time>2023-07-29T16:11:16.000Z</time>
        <extensions>
          <ns3:TrackPointExtension>
            <ns3:hr>124</ns3:hr>
            <ns3:cad>79</ns3:cad>
          </ns3:TrackPointExtension>
        </extensions>
      </trkpt>
      <trkpt lat="37.78473411686718463897705078125" lon="-107.70371331833302974700927734375">
        <ele>4012.39990234375</ele>
        <time>2023-07-29T16:11:17.000Z</time>
        <extensions>
          <ns3:TrackPointExtension>
            <ns3:hr>124</ns3:hr>
            <ns3:cad>79</ns3:cad>
          </ns3:TrackPointExtension>
        </extensions>
      </trkpt>
      <trkpt lat="37.78474451042711734771728515625" lon="-107.70371415652334690093994140625">
        <ele>4012.60009765625</ele>
        <time>2023-07-29T16:11:18.000Z</time>
        <extensions>
          <ns3:TrackPointExtension>
            <ns3:hr>125</ns3:hr>
            <ns3:cad>79</ns3:cad>
          </ns3:TrackPointExtension>
        </extensions>
      </trkpt>
      <trkpt lat="37.7847566641867160797119140625" lon="-107.7037149108946323394775390625">
        <ele>4012.60009765625</ele>
        <time>2023-07-29T16:11:19.000Z</time>
        <extensions>
          <ns3:TrackPointExtension>
            <ns3:hr>125</ns3:hr>
            <ns3:cad>79</ns3:cad>
          </ns3:TrackPointExtension>
        </extensions>
      </trkpt>
      <trkpt lat="37.78476613573729991912841796875" lon="-107.7037122286856174468994140625">
        <ele>4012.800048828125</ele>
        <time>2023-07-29T16:11:20.000Z</time>
        <extensions>
          <ns3:TrackPointExtension>
            <ns3:hr>125</ns3:hr>
            <ns3:cad>79</ns3:cad>
          </ns3:TrackPointExtension>
        </extensions>
      </trkpt>
      <trkpt lat="37.7847683988511562347412109375" lon="-107.7037068642675876617431640625">
        <ele>4013</ele>
        <time>2023-07-29T16:11:21.000Z</time>
        <extensions>
          <ns3:TrackPointExtension>
            <ns3:hr>125</ns3:hr>
            <ns3:cad>79</ns3:cad>
          </ns3:TrackPointExtension>
        </extensions>
      </trkpt>
      <trkpt lat="37.78477585874497890472412109375" lon="-107.7037018351256847381591796875">
        <ele>4013</ele>
        <time>2023-07-29T16:11:22.000Z</time>
        <extensions>
          <ns3:TrackPointExtension>
            <ns3:hr>126</ns3:hr>
            <ns3:cad>79</ns3:cad>
          </ns3:TrackPointExtension>
        </extensions>
      </trkpt>
      <trkpt lat="37.78478340245783329010009765625" lon="-107.70369353704154491424560546875">
        <ele>4013</ele>
        <time>2023-07-29T16:11:23.000Z</time>
        <extensions>
          <ns3:TrackPointExtension>
            <ns3:hr>126</ns3:hr>
            <ns3:cad>0</ns3:cad>
          </ns3:TrackPointExtension>
        </extensions>
      </trkpt>
      <trkpt lat="37.7847881801426410675048828125" lon="-107.70368867553770542144775390625">
        <ele>4013.199951171875</ele>
        <time>2023-07-29T16:11:24.000Z</time>
        <extensions>
          <ns3:TrackPointExtension>
            <ns3:hr>127</ns3:hr>
            <ns3:cad>0</ns3:cad>
          </ns3:TrackPointExtension>
        </extensions>
      </trkpt>
      <trkpt lat="37.78479597531259059906005859375" lon="-107.70368398167192935943603515625">
        <ele>4013.199951171875</ele>
        <time>2023-07-29T16:11:25.000Z</time>
        <extensions>
          <ns3:TrackPointExtension>
            <ns3:hr>127</ns3:hr>
            <ns3:cad>0</ns3:cad>
          </ns3:TrackPointExtension>
        </extensions>
      </trkpt>
      <trkpt lat="37.7848052792251110076904296875" lon="-107.70367861725389957427978515625">
        <ele>4013.199951171875</ele>
        <time>2023-07-29T16:11:26.000Z</time>
        <extensions>
          <ns3:TrackPointExtension>
            <ns3:hr>128</ns3:hr>
            <ns3:cad>0</ns3:cad>
          </ns3:TrackPointExtension>
        </extensions>
      </trkpt>
      <trkpt lat="37.78481542132794857025146484375" lon="-107.70367241464555263519287109375">
        <ele>4013.39990234375</ele>
        <time>2023-07-29T16:11:27.000Z</time>
        <extensions>
          <ns3:TrackPointExtension>
            <ns3:hr>128</ns3:hr>
            <ns3:cad>0</ns3:cad>
          </ns3:TrackPointExtension>
        </extensions>
      </trkpt>
      <trkpt lat="37.7848223783075809478759765625" lon="-107.7036699838936328887939453125">
        <ele>4013.39990234375</ele>
        <time>2023-07-29T16:11:28.000Z</time>
        <extensions>
          <ns3:TrackPointExtension>
            <ns3:hr>129</ns3:hr>
            <ns3:cad>0</ns3:cad>
          </ns3:TrackPointExtension>
        </extensions>
      </trkpt>
      <trkpt lat="37.7848257310688495635986328125" lon="-107.7036683075129985809326171875">
        <ele>4013.60009765625</ele>
        <time>2023-07-29T16:11:29.000Z</time>
        <extensions>
          <ns3:TrackPointExtension>
            <ns3:hr>129</ns3:hr>
            <ns3:cad>0</ns3:cad>
          </ns3:TrackPointExtension>
        </extensions>
      </trkpt>
      <trkpt lat="37.7848287485539913177490234375" lon="-107.703669480979442596435546875">
        <ele>4013.60009765625</ele>
        <time>2023-07-29T16:11:30.000Z</time>
        <extensions>
          <ns3:TrackPointExtension>
            <ns3:hr>130</ns3:hr>
            <ns3:cad>0</ns3:cad>
          </ns3:TrackPointExtension>
        </extensions>
      </trkpt>
      <trkpt lat="37.7848317660391330718994140625" lon="-107.7036683075129985809326171875">
        <ele>4013.60009765625</ele>
        <time>2023-07-29T16:11:31.000Z</time>
        <extensions>
          <ns3:TrackPointExtension>
            <ns3:hr>130</ns3:hr>
            <ns3:cad>0</ns3:cad>
          </ns3:TrackPointExtension>
        </extensions>
      </trkpt>
      <trkpt lat="37.78484165668487548828125" lon="-107.7036671340465545654296875">
        <ele>4014</ele>
        <time>2023-07-29T16:11:32.000Z</time>
        <extensions>
          <ns3:TrackPointExtension>
            <ns3:hr>131</ns3:hr>
            <ns3:cad>0</ns3:cad>
          </ns3:TrackPointExtension>
        </extensions>
      </trkpt>
      <trkpt lat="37.78484894894063472747802734375" lon="-107.70366637967526912689208984375">
        <ele>4014.199951171875</ele>
        <time>2023-07-29T16:11:33.000Z</time>
        <extensions>
          <ns3:TrackPointExtension>
            <ns3:hr>132</ns3:hr>
            <ns3:cad>0</ns3:cad>
          </ns3:TrackPointExtension>
        </extensions>
      </trkpt>
      <trkpt lat="37.7848545648157596588134765625" lon="-107.70367006771266460418701171875">
        <ele>4014.199951171875</ele>
        <time>2023-07-29T16:11:34.000Z</time>
        <extensions>
          <ns3:TrackPointExtension>
            <ns3:hr>132</ns3:hr>
            <ns3:cad>0</ns3:cad>
          </ns3:TrackPointExtension>
        </extensions>
      </trkpt>
      <trkpt lat="37.784863449633121490478515625" lon="-107.703670822083950042724609375">
        <ele>4014.800048828125</ele>
        <time>2023-07-29T16:11:35.000Z</time>
        <extensions>
          <ns3:TrackPointExtension>
            <ns3:hr>133</ns3:hr>
            <ns3:cad>0</ns3:cad>
          </ns3:TrackPointExtension>
        </extensions>
      </trkpt>
      <trkpt lat="37.78487141244113445281982421875" lon="-107.7036719955503940582275390625">
        <ele>4014.800048828125</ele>
        <time>2023-07-29T16:11:36.000Z</time>
        <extensions>
          <ns3:TrackPointExtension>
            <ns3:hr>133</ns3:hr>
            <ns3:cad>0</ns3:cad>
          </ns3:TrackPointExtension>
        </extensions>
      </trkpt>
      <trkpt lat="37.784880213439464569091796875" lon="-107.7036730013787746429443359375">
        <ele>4014.800048828125</ele>
        <time>2023-07-29T16:11:37.000Z</time>
        <extensions>
          <ns3:TrackPointExtension>
            <ns3:hr>134</ns3:hr>
            <ns3:cad>0</ns3:cad>
          </ns3:TrackPointExtension>
        </extensions>
      </trkpt>
      <trkpt lat="37.78488616459071636199951171875" lon="-107.703671157360076904296875">
        <ele>4015.199951171875</ele>
        <time>2023-07-29T16:11:38.000Z</time>
        <extensions>
          <ns3:TrackPointExtension>
            <ns3:hr>133</ns3:hr>
            <ns3:cad>0</ns3:cad>
          </ns3:TrackPointExtension>
        </extensions>
      </trkpt>
      <trkpt lat="37.78488348238170146942138671875" lon="-107.70366705022752285003662109375">
        <ele>4015.199951171875</ele>
        <time>2023-07-29T16:11:39.000Z</time>
        <extensions>
          <ns3:TrackPointExtension>
            <ns3:hr>133</ns3:hr>
            <ns3:cad>0</ns3:cad>
          </ns3:TrackPointExtension>
        </extensions>
      </trkpt>
      <trkpt lat="37.78489169664680957794189453125" lon="-107.70366914570331573486328125">
        <ele>4015.39990234375</ele>
        <time>2023-07-29T16:11:40.000Z</time>
        <extensions>
          <ns3:TrackPointExtension>
            <ns3:hr>133</ns3:hr>
            <ns3:cad>0</ns3:cad>
          </ns3:TrackPointExtension>
        </extensions>
      </trkpt>
      <trkpt lat="37.78489672578871250152587890625" lon="-107.7036698162555694580078125">
        <ele>4015.60009765625</ele>
        <time>2023-07-29T16:11:41.000Z</time>
        <extensions>
          <ns3:TrackPointExtension>
            <ns3:hr>133</ns3:hr>
            <ns3:cad>0</ns3:cad>
          </ns3:TrackPointExtension>
        </extensions>
      </trkpt>
      <trkpt lat="37.78490309603512287139892578125" lon="-107.7036763541400432586669921875">
        <ele>4015.60009765625</ele>
        <time>2023-07-29T16:11:42.000Z</time>
        <extensions>
          <ns3:TrackPointExtension>
            <ns3:hr>132</ns3:hr>
            <ns3:cad>0</ns3:cad>
          </ns3:TrackPointExtension>
        </extensions>
      </trkpt>
      <trkpt lat="37.78490594588220119476318359375" lon="-107.70367962308228015899658203125">
        <ele>4015.800048828125</ele>
        <time>2023-07-29T16:11:43.000Z</time>
        <extensions>
          <ns3:TrackPointExtension>
            <ns3:hr>132</ns3:hr>
            <ns3:cad>0</ns3:cad>
          </ns3:TrackPointExtension>
        </extensions>
      </trkpt>
      <trkpt lat="37.7849098853766918182373046875" lon="-107.70367576740682125091552734375">
        <ele>4016.199951171875</ele>
        <time>2023-07-29T16:11:44.000Z</time>
        <extensions>
          <ns3:TrackPointExtension>
            <ns3:hr>132</ns3:hr>
            <ns3:cad>0</ns3:cad>
          </ns3:TrackPointExtension>
        </extensions>
      </trkpt>
      <trkpt lat="37.7849098853766918182373046875" lon="-107.70367727614939212799072265625">
        <ele>4016.39990234375</ele>
        <time>2023-07-29T16:11:45.000Z</time>
        <extensions>
          <ns3:TrackPointExtension>
            <ns3:hr>132</ns3:hr>
            <ns3:cad>0</ns3:cad>
          </ns3:TrackPointExtension>
        </extensions>
      </trkpt>
      <trkpt lat="37.7849135734140872955322265625" lon="-107.70368917845189571380615234375">
        <ele>4016.800048828125</ele>
        <time>2023-07-29T16:11:46.000Z</time>
        <extensions>
          <ns3:TrackPointExtension>
            <ns3:hr>132</ns3:hr>
            <ns3:cad>0</ns3:cad>
          </ns3:TrackPointExtension>
        </extensions>
      </trkpt>
      <trkpt lat="37.78491768054664134979248046875" lon="-107.70369923673570156097412109375">
        <ele>4017</ele>
        <time>2023-07-29T16:11:47.000Z</time>
        <extensions>
          <ns3:TrackPointExtension>
            <ns3:hr>132</ns3:hr>
            <ns3:cad>0</ns3:cad>
          </ns3:TrackPointExtension>
        </extensions>
      </trkpt>
      <trkpt lat="37.78491902165114879608154296875" lon="-107.703701667487621307373046875">
        <ele>4017.199951171875</ele>
        <time>2023-07-29T16:11:48.000Z</time>
        <extensions>
          <ns3:TrackPointExtension>
            <ns3:hr>132</ns3:hr>
            <ns3:cad>57</ns3:cad>
          </ns3:TrackPointExtension>
        </extensions>
      </trkpt>
      <trkpt lat="37.7849234640598297119140625" lon="-107.7037112228572368621826171875">
        <ele>4017.199951171875</ele>
        <time>2023-07-29T16:11:49.000Z</time>
        <extensions>
          <ns3:TrackPointExtension>
            <ns3:hr>132</ns3:hr>
            <ns3:cad>57</ns3:cad>
          </ns3:TrackPointExtension>
        </extensions>
      </trkpt>
      <trkpt lat="37.784923128783702850341796875" lon="-107.70371365360915660858154296875">
        <ele>4017.60009765625</ele>
        <time>2023-07-29T16:11:50.000Z</time>
        <extensions>
          <ns3:TrackPointExtension>
            <ns3:hr>132</ns3:hr>
            <ns3:cad>0</ns3:cad>
          </ns3:TrackPointExtension>
        </extensions>
      </trkpt>
      <trkpt lat="37.78492455370724201202392578125" lon="-107.70371918566524982452392578125">
        <ele>4017.60009765625</ele>
        <time>2023-07-29T16:11:51.000Z</time>
        <extensions>
          <ns3:TrackPointExtension>
            <ns3:hr>132</ns3:hr>
            <ns3:cad>0</ns3:cad>
          </ns3:TrackPointExtension>
        </extensions>
      </trkpt>
      <trkpt lat="37.784925140440464019775390625" lon="-107.70372019149363040924072265625">
        <ele>4017.800048828125</ele>
        <time>2023-07-29T16:11:52.000Z</time>
        <extensions>
          <ns3:TrackPointExtension>
            <ns3:hr>132</ns3:hr>
            <ns3:cad>0</ns3:cad>
          </ns3:TrackPointExtension>
        </extensions>
      </trkpt>
      <trkpt lat="37.784925810992717742919921875" lon="-107.70371717400848865509033203125">
        <ele>4018</ele>
        <time>2023-07-29T16:11:53.000Z</time>
        <extensions>
          <ns3:TrackPointExtension>
            <ns3:hr>133</ns3:hr>
            <ns3:cad>0</ns3:cad>
          </ns3:TrackPointExtension>
        </extensions>
      </trkpt>
      <trkpt lat="37.78492824174463748931884765625" lon="-107.703716754913330078125">
        <ele>4018.199951171875</ele>
        <time>2023-07-29T16:11:54.000Z</time>
        <extensions>
          <ns3:TrackPointExtension>
            <ns3:hr>133</ns3:hr>
            <ns3:cad>0</ns3:cad>
          </ns3:TrackPointExtension>
        </extensions>
      </trkpt>
      <trkpt lat="37.78492891229689121246337890625" lon="-107.7037175931036472320556640625">
        <ele>4018.39990234375</ele>
        <time>2023-07-29T16:11:55.000Z</time>
        <extensions>
          <ns3:TrackPointExtension>
            <ns3:hr>133</ns3:hr>
            <ns3:cad>0</ns3:cad>
          </ns3:TrackPointExtension>
        </extensions>
      </trkpt>
      <trkpt lat="37.78493486344814300537109375" lon="-107.70372203551232814788818359375">
        <ele>4018.39990234375</ele>
        <time>2023-07-29T16:11:56.000Z</time>
        <extensions>
          <ns3:TrackPointExtension>
            <ns3:hr>133</ns3:hr>
            <ns3:cad>0</ns3:cad>
          </ns3:TrackPointExtension>
        </extensions>
      </trkpt>
      <trkpt lat="37.78494014404714107513427734375" lon="-107.70371667109429836273193359375">
        <ele>4018.60009765625</ele>
        <time>2023-07-29T16:11:57.000Z</time>
        <extensions>
          <ns3:TrackPointExtension>
            <ns3:hr>133</ns3:hr>
            <ns3:cad>0</ns3:cad>
          </ns3:TrackPointExtension>
        </extensions>
      </trkpt>
      <trkpt lat="37.78494014404714107513427734375" lon="-107.70371281541883945465087890625">
        <ele>4019</ele>
        <time>2023-07-29T16:11:58.000Z</time>
        <extensions>
          <ns3:TrackPointExtension>
            <ns3:hr>133</ns3:hr>
            <ns3:cad>0</ns3:cad>
          </ns3:TrackPointExtension>
        </extensions>
      </trkpt>
      <trkpt lat="37.78494399972259998321533203125" lon="-107.70370895974338054656982421875">
        <ele>4019.199951171875</ele>
        <time>2023-07-29T16:11:59.000Z</time>
        <extensions>
          <ns3:TrackPointExtension>
            <ns3:hr>133</ns3:hr>
            <ns3:cad>0</ns3:cad>
          </ns3:TrackPointExtension>
        </extensions>
      </trkpt>
      <trkpt lat="37.784946262836456298828125" lon="-107.70370711572468280792236328125">
        <ele>4019.39990234375</ele>
        <time>2023-07-29T16:12:00.000Z</time>
        <extensions>
          <ns3:TrackPointExtension>
            <ns3:hr>134</ns3:hr>
            <ns3:cad>0</ns3:cad>
          </ns3:TrackPointExtension>
        </extensions>
      </trkpt>
      <trkpt lat="37.7849504537880420684814453125" lon="-107.70370401442050933837890625">
        <ele>4019.39990234375</ele>
        <time>2023-07-29T16:12:01.000Z</time>
        <extensions>
          <ns3:TrackPointExtension>
            <ns3:hr>134</ns3:hr>
            <ns3:cad>0</ns3:cad>
          </ns3:TrackPointExtension>
        </extensions>
      </trkpt>
      <trkpt lat="37.78495690785348415374755859375" lon="-107.70370066165924072265625">
        <ele>4019.39990234375</ele>
        <time>2023-07-29T16:12:02.000Z</time>
        <extensions>
          <ns3:TrackPointExtension>
            <ns3:hr>134</ns3:hr>
            <ns3:cad>0</ns3:cad>
          </ns3:TrackPointExtension>
        </extensions>
      </trkpt>
      <trkpt lat="37.78496411629021167755126953125" lon="-107.70369957201182842254638671875">
        <ele>4019.800048828125</ele>
        <time>2023-07-29T16:12:03.000Z</time>
        <extensions>
          <ns3:TrackPointExtension>
            <ns3:hr>134</ns3:hr>
            <ns3:cad>0</ns3:cad>
          </ns3:TrackPointExtension>
        </extensions>
      </trkpt>
      <trkpt lat="37.7849705703556537628173828125" lon="-107.70369940437376499176025390625">
        <ele>4020</ele>
        <time>2023-07-29T16:12:04.000Z</time>
        <extensions>
          <ns3:TrackPointExtension>
            <ns3:hr>134</ns3:hr>
            <ns3:cad>0</ns3:cad>
          </ns3:TrackPointExtension>
        </extensions>
      </trkpt>
      <trkpt lat="37.78497484512627124786376953125" lon="-107.70369705744087696075439453125">
        <ele>4020.199951171875</ele>
        <time>2023-07-29T16:12:05.000Z</time>
        <extensions>
          <ns3:TrackPointExtension>
            <ns3:hr>134</ns3:hr>
            <ns3:cad>0</ns3:cad>
          </ns3:TrackPointExtension>
        </extensions>
      </trkpt>
      <trkpt lat="37.7849802933633327484130859375" lon="-107.703696303069591522216796875">
        <ele>4020.39990234375</ele>
        <time>2023-07-29T16:12:06.000Z</time>
        <extensions>
          <ns3:TrackPointExtension>
            <ns3:hr>134</ns3:hr>
            <ns3:cad>0</ns3:cad>
          </ns3:TrackPointExtension>
        </extensions>
      </trkpt>
      <trkpt lat="37.7849876694381237030029296875" lon="-107.70369504578411579132080078125">
        <ele>4020.39990234375</ele>
        <time>2023-07-29T16:12:07.000Z</time>
        <extensions>
          <ns3:TrackPointExtension>
            <ns3:hr>134</ns3:hr>
            <ns3:cad>0</ns3:cad>
          </ns3:TrackPointExtension>
        </extensions>
      </trkpt>
      <trkpt lat="37.7849933691322803497314453125" lon="-107.70369286648929119110107421875">
        <ele>4020.60009765625</ele>
        <time>2023-07-29T16:12:08.000Z</time>
        <extensions>
          <ns3:TrackPointExtension>
            <ns3:hr>134</ns3:hr>
            <ns3:cad>0</ns3:cad>
          </ns3:TrackPointExtension>
        </extensions>
      </trkpt>
      <trkpt lat="37.78499563224613666534423828125" lon="-107.7036912739276885986328125">
        <ele>4020.800048828125</ele>
        <time>2023-07-29T16:12:09.000Z</time>
        <extensions>
          <ns3:TrackPointExtension>
            <ns3:hr>135</ns3:hr>
            <ns3:cad>0</ns3:cad>
          </ns3:TrackPointExtension>
        </extensions>
      </trkpt>
      <trkpt lat="37.78500149957835674285888671875" lon="-107.703687585890293121337890625">
        <ele>4021</ele>
        <time>2023-07-29T16:12:10.000Z</time>
        <extensions>
          <ns3:TrackPointExtension>
            <ns3:hr>135</ns3:hr>
            <ns3:cad>0</ns3:cad>
          </ns3:TrackPointExtension>
        </extensions>
      </trkpt>
      <trkpt lat="37.7850030921399593353271484375" lon="-107.70368683151900768280029296875">
        <ele>4021</ele>
        <time>2023-07-29T16:12:11.000Z</time>
        <extensions>
          <ns3:TrackPointExtension>
            <ns3:hr>135</ns3:hr>
            <ns3:cad>0</ns3:cad>
          </ns3:TrackPointExtension>
        </extensions>
      </trkpt>
      <trkpt lat="37.7850051037967205047607421875" lon="-107.703684903681278228759765625">
        <ele>4021.199951171875</ele>
        <time>2023-07-29T16:12:12.000Z</time>
        <extensions>
          <ns3:TrackPointExtension>
            <ns3:hr>136</ns3:hr>
            <ns3:cad>0</ns3:cad>
          </ns3:TrackPointExtension>
        </extensions>
      </trkpt>
      <trkpt lat="37.7850074507296085357666015625" lon="-107.70368331111967563629150390625">
        <ele>4021.39990234375</ele>
        <time>2023-07-29T16:12:13.000Z</time>
        <extensions>
          <ns3:TrackPointExtension>
            <ns3:hr>136</ns3:hr>
            <ns3:cad>0</ns3:cad>
          </ns3:TrackPointExtension>
        </extensions>
      </trkpt>
      <trkpt lat="37.78500887565314769744873046875" lon="-107.70368163473904132843017578125">
        <ele>4021.60009765625</ele>
        <time>2023-07-29T16:12:14.000Z</time>
        <extensions>
          <ns3:TrackPointExtension>
            <ns3:hr>136</ns3:hr>
            <ns3:cad>0</ns3:cad>
          </ns3:TrackPointExtension>
        </extensions>
      </trkpt>
      <trkpt lat="37.78501776047050952911376953125" lon="-107.70367610268294811248779296875">
        <ele>4021.800048828125</ele>
        <time>2023-07-29T16:12:15.000Z</time>
        <extensions>
          <ns3:TrackPointExtension>
            <ns3:hr>136</ns3:hr>
            <ns3:cad>0</ns3:cad>
          </ns3:TrackPointExtension>
        </extensions>
      </trkpt>
      <trkpt lat="37.78502463363111019134521484375" lon="-107.70367182791233062744140625">
        <ele>4022.199951171875</ele>
        <time>2023-07-29T16:12:16.000Z</time>
        <extensions>
          <ns3:TrackPointExtension>
            <ns3:hr>136</ns3:hr>
            <ns3:cad>0</ns3:cad>
          </ns3:TrackPointExtension>
        </extensions>
      </trkpt>
      <trkpt lat="37.78503050096333026885986328125" lon="-107.70366671495139598846435546875">
        <ele>4022.39990234375</ele>
        <time>2023-07-29T16:12:17.000Z</time>
        <extensions>
          <ns3:TrackPointExtension>
            <ns3:hr>136</ns3:hr>
            <ns3:cad>0</ns3:cad>
          </ns3:TrackPointExtension>
        </extensions>
      </trkpt>
      <trkpt lat="37.78503703884780406951904296875" lon="-107.7036612667143344879150390625">
        <ele>4022.39990234375</ele>
        <time>2023-07-29T16:12:18.000Z</time>
        <extensions>
          <ns3:TrackPointExtension>
            <ns3:hr>136</ns3:hr>
            <ns3:cad>0</ns3:cad>
          </ns3:TrackPointExtension>
        </extensions>
      </trkpt>
      <trkpt lat="37.78503410518169403076171875" lon="-107.70366185344755649566650390625">
        <ele>4022.60009765625</ele>
        <time>2023-07-29T16:12:19.000Z</time>
        <extensions>
          <ns3:TrackPointExtension>
            <ns3:hr>136</ns3:hr>
            <ns3:cad>0</ns3:cad>
          </ns3:TrackPointExtension>
        </extensions>
      </trkpt>
      <trkpt lat="37.7850379608571529388427734375" lon="-107.7036585845053195953369140625">
        <ele>4023</ele>
        <time>2023-07-29T16:12:20.000Z</time>
        <extensions>
          <ns3:TrackPointExtension>
            <ns3:hr>136</ns3:hr>
            <ns3:cad>0</ns3:cad>
          </ns3:TrackPointExtension>
        </extensions>
      </trkpt>
      <trkpt lat="37.785044498741626739501953125" lon="-107.70365363918244838714599609375">
        <ele>4023.199951171875</ele>
        <time>2023-07-29T16:12:21.000Z</time>
        <extensions>
          <ns3:TrackPointExtension>
            <ns3:hr>136</ns3:hr>
            <ns3:cad>0</ns3:cad>
          </ns3:TrackPointExtension>
        </extensions>
      </trkpt>
      <trkpt lat="37.78504860587418079376220703125" lon="-107.70365213043987751007080078125">
        <ele>4023.39990234375</ele>
        <time>2023-07-29T16:12:22.000Z</time>
        <extensions>
          <ns3:TrackPointExtension>
            <ns3:hr>136</ns3:hr>
            <ns3:cad>0</ns3:cad>
          </ns3:TrackPointExtension>
        </extensions>
      </trkpt>
      <trkpt lat="37.78505765832960605621337890625" lon="-107.7036488614976406097412109375">
        <ele>4023.60009765625</ele>
        <time>2023-07-29T16:12:23.000Z</time>
        <extensions>
          <ns3:TrackPointExtension>
            <ns3:hr>136</ns3:hr>
            <ns3:cad>0</ns3:cad>
          </ns3:TrackPointExtension>
        </extensions>
      </trkpt>
      <trkpt lat="37.78506319038569927215576171875" lon="-107.7036481909453868865966796875">
        <ele>4023.800048828125</ele>
        <time>2023-07-29T16:12:24.000Z</time>
        <extensions>
          <ns3:TrackPointExtension>
            <ns3:hr>136</ns3:hr>
            <ns3:cad>0</ns3:cad>
          </ns3:TrackPointExtension>
        </extensions>
      </trkpt>
      <trkpt lat="37.78506989590823650360107421875" lon="-107.70364810712635517120361328125">
        <ele>4024</ele>
        <time>2023-07-29T16:12:25.000Z</time>
        <extensions>
          <ns3:TrackPointExtension>
            <ns3:hr>136</ns3:hr>
            <ns3:cad>0</ns3:cad>
          </ns3:TrackPointExtension>
        </extensions>
      </trkpt>
      <trkpt lat="37.785074673593044281005859375" lon="-107.70364760421216487884521484375">
        <ele>4024.199951171875</ele>
        <time>2023-07-29T16:12:26.000Z</time>
        <extensions>
          <ns3:TrackPointExtension>
            <ns3:hr>136</ns3:hr>
            <ns3:cad>0</ns3:cad>
          </ns3:TrackPointExtension>
        </extensions>
      </trkpt>
      <trkpt lat="37.78507928363978862762451171875" lon="-107.70364961586892604827880859375">
        <ele>4024.39990234375</ele>
        <time>2023-07-29T16:12:27.000Z</time>
        <extensions>
          <ns3:TrackPointExtension>
            <ns3:hr>137</ns3:hr>
            <ns3:cad>0</ns3:cad>
          </ns3:TrackPointExtension>
        </extensions>
      </trkpt>
      <trkpt lat="37.78508649207651615142822265625" lon="-107.70365112461149692535400390625">
        <ele>4024.39990234375</ele>
        <time>2023-07-29T16:12:28.000Z</time>
        <extensions>
          <ns3:TrackPointExtension>
            <ns3:hr>137</ns3:hr>
            <ns3:cad>0</ns3:cad>
          </ns3:TrackPointExtension>
        </extensions>
      </trkpt>
      <trkpt lat="37.78509302996098995208740234375" lon="-107.7036532200872898101806640625">
        <ele>4024.60009765625</ele>
        <time>2023-07-29T16:12:29.000Z</time>
        <extensions>
          <ns3:TrackPointExtension>
            <ns3:hr>137</ns3:hr>
            <ns3:cad>0</ns3:cad>
          </ns3:TrackPointExtension>
        </extensions>
      </trkpt>
      <trkpt lat="37.78509336523711681365966796875" lon="-107.70365598611533641815185546875">
        <ele>4024.800048828125</ele>
        <time>2023-07-29T16:12:30.000Z</time>
        <extensions>
          <ns3:TrackPointExtension>
            <ns3:hr>138</ns3:hr>
            <ns3:cad>0</ns3:cad>
          </ns3:TrackPointExtension>
        </extensions>
      </trkpt>
      <trkpt lat="37.78509638272225856781005859375" lon="-107.70365850068628787994384765625">
        <ele>4025</ele>
        <time>2023-07-29T16:12:31.000Z</time>
        <extensions>
          <ns3:TrackPointExtension>
            <ns3:hr>138</ns3:hr>
            <ns3:cad>0</ns3:cad>
          </ns3:TrackPointExtension>
        </extensions>
      </trkpt>
      <trkpt lat="37.78509940020740032196044921875" lon="-107.7036626078188419342041015625">
        <ele>4025.199951171875</ele>
        <time>2023-07-29T16:12:32.000Z</time>
        <extensions>
          <ns3:TrackPointExtension>
            <ns3:hr>138</ns3:hr>
            <ns3:cad>0</ns3:cad>
          </ns3:TrackPointExtension>
        </extensions>
      </trkpt>
      <trkpt lat="37.78510208241641521453857421875" lon="-107.703667469322681427001953125">
        <ele>4025.199951171875</ele>
        <time>2023-07-29T16:12:33.000Z</time>
        <extensions>
          <ns3:TrackPointExtension>
            <ns3:hr>138</ns3:hr>
            <ns3:cad>0</ns3:cad>
          </ns3:TrackPointExtension>
        </extensions>
      </trkpt>
      <trkpt lat="37.78511012904345989227294921875" lon="-107.70367358811199665069580078125">
        <ele>4025.60009765625</ele>
        <time>2023-07-29T16:12:34.000Z</time>
        <extensions>
          <ns3:TrackPointExtension>
            <ns3:hr>138</ns3:hr>
            <ns3:cad>0</ns3:cad>
          </ns3:TrackPointExtension>
        </extensions>
      </trkpt>
      <trkpt lat="37.78511566109955310821533203125" lon="-107.70367710851132869720458984375">
        <ele>4025.800048828125</ele>
        <time>2023-07-29T16:12:35.000Z</time>
        <extensions>
          <ns3:TrackPointExtension>
            <ns3:hr>138</ns3:hr>
            <ns3:cad>0</ns3:cad>
          </ns3:TrackPointExtension>
        </extensions>
      </trkpt>
      <trkpt lat="37.785122953355312347412109375" lon="-107.70368146710097789764404296875">
        <ele>4025.800048828125</ele>
        <time>2023-07-29T16:12:36.000Z</time>
        <extensions>
          <ns3:TrackPointExtension>
            <ns3:hr>138</ns3:hr>
            <ns3:cad>0</ns3:cad>
          </ns3:TrackPointExtension>
        </extensions>
      </trkpt>
      <trkpt lat="37.7851264737546443939208984375" lon="-107.70368465222418308258056640625">
        <ele>4026</ele>
        <time>2023-07-29T16:12:37.000Z</time>
        <extensions>
          <ns3:TrackPointExtension>
            <ns3:hr>138</ns3:hr>
            <ns3:cad>0</ns3:cad>
          </ns3:TrackPointExtension>
        </extensions>
      </trkpt>
      <trkpt lat="37.78513208962976932525634765625" lon="-107.7036860771477222442626953125">
        <ele>4026.199951171875</ele>
        <time>2023-07-29T16:12:38.000Z</time>
        <extensions>
          <ns3:TrackPointExtension>
            <ns3:hr>138</ns3:hr>
            <ns3:cad>0</ns3:cad>
          </ns3:TrackPointExtension>
        </extensions>
      </trkpt>
      <trkpt lat="37.78513393364846706390380859375" lon="-107.7036897651851177215576171875">
        <ele>4026.39990234375</ele>
        <time>2023-07-29T16:12:39.000Z</time>
        <extensions>
          <ns3:TrackPointExtension>
            <ns3:hr>138</ns3:hr>
            <ns3:cad>0</ns3:cad>
          </ns3:TrackPointExtension>
        </extensions>
      </trkpt>
      <trkpt lat="37.78513477183878421783447265625" lon="-107.70369320176541805267333984375">
        <ele>4026.39990234375</ele>
        <time>2023-07-29T16:12:40.000Z</time>
        <extensions>
          <ns3:TrackPointExtension>
            <ns3:hr>138</ns3:hr>
            <ns3:cad>0</ns3:cad>
          </ns3:TrackPointExtension>
        </extensions>
      </trkpt>
      <trkpt lat="37.7851365320384502410888671875" lon="-107.70369923673570156097412109375">
        <ele>4026.60009765625</ele>
        <time>2023-07-29T16:12:41.000Z</time>
        <extensions>
          <ns3:TrackPointExtension>
            <ns3:hr>138</ns3:hr>
            <ns3:cad>0</ns3:cad>
          </ns3:TrackPointExtension>
        </extensions>
      </trkpt>
      <trkpt lat="37.78513980098068714141845703125" lon="-107.70370057784020900726318359375">
        <ele>4027</ele>
        <time>2023-07-29T16:12:42.000Z</time>
        <extensions>
          <ns3:TrackPointExtension>
            <ns3:hr>138</ns3:hr>
            <ns3:cad>0</ns3:cad>
          </ns3:TrackPointExtension>
        </extensions>
      </trkpt>
      <trkpt lat="37.78514868579804897308349609375" lon="-107.70370258949697017669677734375">
        <ele>4027</ele>
        <time>2023-07-29T16:12:43.000Z</time>
        <extensions>
          <ns3:TrackPointExtension>
            <ns3:hr>139</ns3:hr>
            <ns3:cad>0</ns3:cad>
          </ns3:TrackPointExtension>
        </extensions>
      </trkpt>
      <trkpt lat="37.78515639714896678924560546875" lon="-107.703703679144382476806640625">
        <ele>4027.39990234375</ele>
        <time>2023-07-29T16:12:44.000Z</time>
        <extensions>
          <ns3:TrackPointExtension>
            <ns3:hr>139</ns3:hr>
            <ns3:cad>0</ns3:cad>
          </ns3:TrackPointExtension>
        </extensions>
      </trkpt>
      <trkpt lat="37.78516142629086971282958984375" lon="-107.7037041820585727691650390625">
        <ele>4027.39990234375</ele>
        <time>2023-07-29T16:12:45.000Z</time>
        <extensions>
          <ns3:TrackPointExtension>
            <ns3:hr>139</ns3:hr>
            <ns3:cad>0</ns3:cad>
          </ns3:TrackPointExtension>
        </extensions>
      </trkpt>
      <trkpt lat="37.78516444377601146697998046875" lon="-107.70370292477309703826904296875">
        <ele>4027.60009765625</ele>
        <time>2023-07-29T16:12:46.000Z</time>
        <extensions>
          <ns3:TrackPointExtension>
            <ns3:hr>139</ns3:hr>
            <ns3:cad>0</ns3:cad>
          </ns3:TrackPointExtension>
        </extensions>
      </trkpt>
      <trkpt lat="37.78517064638435840606689453125" lon="-107.70370108075439929962158203125">
        <ele>4027.800048828125</ele>
        <time>2023-07-29T16:12:47.000Z</time>
        <extensions>
          <ns3:TrackPointExtension>
            <ns3:hr>139</ns3:hr>
            <ns3:cad>0</ns3:cad>
          </ns3:TrackPointExtension>
        </extensions>
      </trkpt>
      <trkpt lat="37.785177268087863922119140625" lon="-107.70370007492601871490478515625">
        <ele>4028</ele>
        <time>2023-07-29T16:12:48.000Z</time>
        <extensions>
          <ns3:TrackPointExtension>
            <ns3:hr>139</ns3:hr>
            <ns3:cad>0</ns3:cad>
          </ns3:TrackPointExtension>
        </extensions>
      </trkpt>
      <trkpt lat="37.78518321923911571502685546875" lon="-107.70370108075439929962158203125">
        <ele>4028</ele>
        <time>2023-07-29T16:12:49.000Z</time>
        <extensions>
          <ns3:TrackPointExtension>
            <ns3:hr>139</ns3:hr>
            <ns3:cad>0</ns3:cad>
          </ns3:TrackPointExtension>
        </extensions>
      </trkpt>
      <trkpt lat="37.78518573381006717681884765625" lon="-107.70370158366858959197998046875">
        <ele>4028.199951171875</ele>
        <time>2023-07-29T16:12:50.000Z</time>
        <extensions>
          <ns3:TrackPointExtension>
            <ns3:hr>139</ns3:hr>
            <ns3:cad>0</ns3:cad>
          </ns3:TrackPointExtension>
        </extensions>
      </trkpt>
      <trkpt lat="37.78518942184746265411376953125" lon="-107.70370460115373134613037109375">
        <ele>4028.39990234375</ele>
        <time>2023-07-29T16:12:51.000Z</time>
        <extensions>
          <ns3:TrackPointExtension>
            <ns3:hr>139</ns3:hr>
            <ns3:cad>0</ns3:cad>
          </ns3:TrackPointExtension>
        </extensions>
      </trkpt>
      <trkpt lat="37.78520098887383937835693359375" lon="-107.7037075348198413848876953125">
        <ele>4028.60009765625</ele>
        <time>2023-07-29T16:12:52.000Z</time>
        <extensions>
          <ns3:TrackPointExtension>
            <ns3:hr>139</ns3:hr>
            <ns3:cad>0</ns3:cad>
          </ns3:TrackPointExtension>
        </extensions>
      </trkpt>
      <trkpt lat="37.78520886786282062530517578125" lon="-107.70371080376207828521728515625">
        <ele>4028.800048828125</ele>
        <time>2023-07-29T16:12:53.000Z</time>
        <extensions>
          <ns3:TrackPointExtension>
            <ns3:hr>139</ns3:hr>
            <ns3:cad>0</ns3:cad>
          </ns3:TrackPointExtension>
        </extensions>
      </trkpt>
      <trkpt lat="37.785214148461818695068359375" lon="-107.70371197722852230072021484375">
        <ele>4029</ele>
        <time>2023-07-29T16:12:54.000Z</time>
        <extensions>
          <ns3:TrackPointExtension>
            <ns3:hr>138</ns3:hr>
            <ns3:cad>0</ns3:cad>
          </ns3:TrackPointExtension>
        </extensions>
      </trkpt>
      <trkpt lat="37.785218842327594757080078125" lon="-107.703715749084949493408203125">
        <ele>4029.199951171875</ele>
        <time>2023-07-29T16:12:55.000Z</time>
        <extensions>
          <ns3:TrackPointExtension>
            <ns3:hr>138</ns3:hr>
            <ns3:cad>0</ns3:cad>
          </ns3:TrackPointExtension>
        </extensions>
      </trkpt>
      <trkpt lat="37.78522093780338764190673828125" lon="-107.7037202753126621246337890625">
        <ele>4029.199951171875</ele>
        <time>2023-07-29T16:12:56.000Z</time>
        <extensions>
          <ns3:TrackPointExtension>
            <ns3:hr>137</ns3:hr>
            <ns3:cad>0</ns3:cad>
          </ns3:TrackPointExtension>
        </extensions>
      </trkpt>
      <trkpt lat="37.78522479347884654998779296875" lon="-107.7037239633500576019287109375">
        <ele>4029.39990234375</ele>
        <time>2023-07-29T16:12:57.000Z</time>
        <extensions>
          <ns3:TrackPointExtension>
            <ns3:hr>137</ns3:hr>
            <ns3:cad>0</ns3:cad>
          </ns3:TrackPointExtension>
        </extensions>
      </trkpt>
      <trkpt lat="37.78522856533527374267578125" lon="-107.70373175852000713348388671875">
        <ele>4029.39990234375</ele>
        <time>2023-07-29T16:12:58.000Z</time>
        <extensions>
          <ns3:TrackPointExtension>
            <ns3:hr>136</ns3:hr>
            <ns3:cad>0</ns3:cad>
          </ns3:TrackPointExtension>
        </extensions>
      </trkpt>
      <trkpt lat="37.7852334268391132354736328125" lon="-107.70373444072902202606201171875">
        <ele>4029.60009765625</ele>
        <time>2023-07-29T16:12:59.000Z</time>
        <extensions>
          <ns3:TrackPointExtension>
            <ns3:hr>136</ns3:hr>
            <ns3:cad>0</ns3:cad>
          </ns3:TrackPointExtension>
        </extensions>
      </trkpt>
      <trkpt lat="37.78524038381874561309814453125" lon="-107.703739218413829803466796875">
        <ele>4029.60009765625</ele>
        <time>2023-07-29T16:13:00.000Z</time>
        <extensions>
          <ns3:TrackPointExtension>
            <ns3:hr>136</ns3:hr>
            <ns3:cad>0</ns3:cad>
          </ns3:TrackPointExtension>
        </extensions>
      </trkpt>
      <trkpt lat="37.78524775989353656768798828125" lon="-107.70374424755573272705078125">
        <ele>4029.800048828125</ele>
        <time>2023-07-29T16:13:01.000Z</time>
        <extensions>
          <ns3:TrackPointExtension>
            <ns3:hr>136</ns3:hr>
            <ns3:cad>53</ns3:cad>
          </ns3:TrackPointExtension>
        </extensions>
      </trkpt>
      <trkpt lat="37.7852515317499637603759765625" lon="-107.70374667830765247344970703125">
        <ele>4030</ele>
        <time>2023-07-29T16:13:02.000Z</time>
        <extensions>
          <ns3:TrackPointExtension>
            <ns3:hr>136</ns3:hr>
            <ns3:cad>54</ns3:cad>
          </ns3:TrackPointExtension>
        </extensions>
      </trkpt>
      <trkpt lat="37.78526209294795989990234375" lon="-107.7037524618208408355712890625">
        <ele>4030.39990234375</ele>
        <time>2023-07-29T16:13:03.000Z</time>
        <extensions>
          <ns3:TrackPointExtension>
            <ns3:hr>136</ns3:hr>
            <ns3:cad>54</ns3:cad>
          </ns3:TrackPointExtension>
        </extensions>
      </trkpt>
      <trkpt lat="37.78527072630822658538818359375" lon="-107.7037574909627437591552734375">
        <ele>4030.39990234375</ele>
        <time>2023-07-29T16:13:04.000Z</time>
        <extensions>
          <ns3:TrackPointExtension>
            <ns3:hr>137</ns3:hr>
            <ns3:cad>0</ns3:cad>
          </ns3:TrackPointExtension>
        </extensions>
      </trkpt>
      <trkpt lat="37.7852801978588104248046875" lon="-107.70375858061015605926513671875">
        <ele>4030.39990234375</ele>
        <time>2023-07-29T16:13:05.000Z</time>
        <extensions>
          <ns3:TrackPointExtension>
            <ns3:hr>138</ns3:hr>
            <ns3:cad>0</ns3:cad>
          </ns3:TrackPointExtension>
        </extensions>
      </trkpt>
      <trkpt lat="37.785287909209728240966796875" lon="-107.70376176573336124420166015625">
        <ele>4030.60009765625</ele>
        <time>2023-07-29T16:13:06.000Z</time>
        <extensions>
          <ns3:TrackPointExtension>
            <ns3:hr>139</ns3:hr>
            <ns3:cad>0</ns3:cad>
          </ns3:TrackPointExtension>
        </extensions>
      </trkpt>
      <trkpt lat="37.78529754839837551116943359375" lon="-107.7037658728659152984619140625">
        <ele>4030.800048828125</ele>
        <time>2023-07-29T16:13:07.000Z</time>
        <extensions>
          <ns3:TrackPointExtension>
            <ns3:hr>139</ns3:hr>
            <ns3:cad>0</ns3:cad>
          </ns3:TrackPointExtension>
        </extensions>
      </trkpt>
      <trkpt lat="37.7853031642735004425048828125" lon="-107.70376981236040592193603515625">
        <ele>4031</ele>
        <time>2023-07-29T16:13:08.000Z</time>
        <extensions>
          <ns3:TrackPointExtension>
            <ns3:hr>139</ns3:hr>
            <ns3:cad>0</ns3:cad>
          </ns3:TrackPointExtension>
        </extensions>
      </trkpt>
      <trkpt lat="37.78531045652925968170166015625" lon="-107.70377232693135738372802734375">
        <ele>4031</ele>
        <time>2023-07-29T16:13:09.000Z</time>
        <extensions>
          <ns3:TrackPointExtension>
            <ns3:hr>139</ns3:hr>
            <ns3:cad>0</ns3:cad>
          </ns3:TrackPointExtension>
        </extensions>
      </trkpt>
      <trkpt lat="37.78531565330922603607177734375" lon="-107.70377098582684993743896484375">
        <ele>4031.39990234375</ele>
        <time>2023-07-29T16:13:10.000Z</time>
        <extensions>
          <ns3:TrackPointExtension>
            <ns3:hr>138</ns3:hr>
            <ns3:cad>0</ns3:cad>
          </ns3:TrackPointExtension>
        </extensions>
      </trkpt>
      <trkpt lat="37.78532554395496845245361328125" lon="-107.70377048291265964508056640625">
        <ele>4031.39990234375</ele>
        <time>2023-07-29T16:13:11.000Z</time>
        <extensions>
          <ns3:TrackPointExtension>
            <ns3:hr>138</ns3:hr>
            <ns3:cad>0</ns3:cad>
          </ns3:TrackPointExtension>
        </extensions>
      </trkpt>
      <trkpt lat="37.78533224947750568389892578125" lon="-107.7037709020078182220458984375">
        <ele>4031.60009765625</ele>
        <time>2023-07-29T16:13:12.000Z</time>
        <extensions>
          <ns3:TrackPointExtension>
            <ns3:hr>138</ns3:hr>
            <ns3:cad>0</ns3:cad>
          </ns3:TrackPointExtension>
        </extensions>
      </trkpt>
      <trkpt lat="37.78534549288451671600341796875" lon="-107.70376997999846935272216796875">
        <ele>4031.60009765625</ele>
        <time>2023-07-29T16:13:13.000Z</time>
        <extensions>
          <ns3:TrackPointExtension>
            <ns3:hr>137</ns3:hr>
            <ns3:cad>0</ns3:cad>
          </ns3:TrackPointExtension>
        </extensions>
      </trkpt>
      <trkpt lat="37.7853527851402759552001953125" lon="-107.70376981236040592193603515625">
        <ele>4031.800048828125</ele>
        <time>2023-07-29T16:13:14.000Z</time>
        <extensions>
          <ns3:TrackPointExtension>
            <ns3:hr>137</ns3:hr>
            <ns3:cad>0</ns3:cad>
          </ns3:TrackPointExtension>
        </extensions>
      </trkpt>
      <trkpt lat="37.78536242432892322540283203125" lon="-107.70376997999846935272216796875">
        <ele>4032</ele>
        <time>2023-07-29T16:13:15.000Z</time>
        <extensions>
          <ns3:TrackPointExtension>
            <ns3:hr>137</ns3:hr>
            <ns3:cad>0</ns3:cad>
          </ns3:TrackPointExtension>
        </extensions>
      </trkpt>
      <trkpt lat="37.78536762110888957977294921875" lon="-107.7037703990936279296875">
        <ele>4032.199951171875</ele>
        <time>2023-07-29T16:13:16.000Z</time>
        <extensions>
          <ns3:TrackPointExtension>
            <ns3:hr>137</ns3:hr>
            <ns3:cad>0</ns3:cad>
          </ns3:TrackPointExtension>
        </extensions>
      </trkpt>
      <trkpt lat="37.78537164442241191864013671875" lon="-107.70377241075038909912109375">
        <ele>4032.39990234375</ele>
        <time>2023-07-29T16:13:17.000Z</time>
        <extensions>
          <ns3:TrackPointExtension>
            <ns3:hr>137</ns3:hr>
            <ns3:cad>0</ns3:cad>
          </ns3:TrackPointExtension>
        </extensions>
      </trkpt>
      <trkpt lat="37.78538011014461517333984375" lon="-107.70377115346491336822509765625">
        <ele>4032.60009765625</ele>
        <time>2023-07-29T16:13:18.000Z</time>
        <extensions>
          <ns3:TrackPointExtension>
            <ns3:hr>137</ns3:hr>
            <ns3:cad>0</ns3:cad>
          </ns3:TrackPointExtension>
        </extensions>
      </trkpt>
      <trkpt lat="37.78537415899336338043212890625" lon="-107.7037675492465496063232421875">
        <ele>4032.800048828125</ele>
        <time>2023-07-29T16:13:19.000Z</time>
        <extensions>
          <ns3:TrackPointExtension>
            <ns3:hr>137</ns3:hr>
            <ns3:cad>0</ns3:cad>
          </ns3:TrackPointExtension>
        </extensions>
      </trkpt>
      <trkpt lat="37.7853759191930294036865234375" lon="-107.70376059226691722869873046875">
        <ele>4033</ele>
        <time>2023-07-29T16:13:20.000Z</time>
        <extensions>
          <ns3:TrackPointExtension>
            <ns3:hr>137</ns3:hr>
            <ns3:cad>0</ns3:cad>
          </ns3:TrackPointExtension>
        </extensions>
      </trkpt>
      <trkpt lat="37.7853752486407756805419921875" lon="-107.7037544734776020050048828125">
        <ele>4033</ele>
        <time>2023-07-29T16:13:21.000Z</time>
        <extensions>
          <ns3:TrackPointExtension>
            <ns3:hr>137</ns3:hr>
            <ns3:cad>0</ns3:cad>
          </ns3:TrackPointExtension>
        </extensions>
      </trkpt>
      <trkpt lat="37.7853772602975368499755859375" lon="-107.70374667830765247344970703125">
        <ele>4033.39990234375</ele>
        <time>2023-07-29T16:13:22.000Z</time>
        <extensions>
          <ns3:TrackPointExtension>
            <ns3:hr>137</ns3:hr>
            <ns3:cad>0</ns3:cad>
          </ns3:TrackPointExtension>
        </extensions>
      </trkpt>
      <trkpt lat="37.785379104316234588623046875" lon="-107.7037424035370349884033203125">
        <ele>4033.39990234375</ele>
        <time>2023-07-29T16:13:23.000Z</time>
        <extensions>
          <ns3:TrackPointExtension>
            <ns3:hr>137</ns3:hr>
            <ns3:cad>18</ns3:cad>
          </ns3:TrackPointExtension>
        </extensions>
      </trkpt>
      <trkpt lat="37.78538136743009090423583984375" lon="-107.7037353627383708953857421875">
        <ele>4033.60009765625</ele>
        <time>2023-07-29T16:13:24.000Z</time>
        <extensions>
          <ns3:TrackPointExtension>
            <ns3:hr>137</ns3:hr>
            <ns3:cad>18</ns3:cad>
          </ns3:TrackPointExtension>
        </extensions>
      </trkpt>
      <trkpt lat="37.78538119979202747344970703125" lon="-107.70373083651065826416015625">
        <ele>4034</ele>
        <time>2023-07-29T16:13:25.000Z</time>
        <extensions>
          <ns3:TrackPointExtension>
            <ns3:hr>137</ns3:hr>
            <ns3:cad>18</ns3:cad>
          </ns3:TrackPointExtension>
        </extensions>
      </trkpt>
      <trkpt lat="37.78538555838167667388916015625" lon="-107.70372220315039157867431640625">
        <ele>4034</ele>
        <time>2023-07-29T16:13:26.000Z</time>
        <extensions>
          <ns3:TrackPointExtension>
            <ns3:hr>137</ns3:hr>
            <ns3:cad>18</ns3:cad>
          </ns3:TrackPointExtension>
        </extensions>
      </trkpt>
      <trkpt lat="37.7853866480290889739990234375" lon="-107.703722454607486724853515625">
        <ele>4034.199951171875</ele>
        <time>2023-07-29T16:13:27.000Z</time>
        <extensions>
          <ns3:TrackPointExtension>
            <ns3:hr>137</ns3:hr>
            <ns3:cad>18</ns3:cad>
          </ns3:TrackPointExtension>
        </extensions>
      </trkpt>
      <trkpt lat="37.78539494611322879791259765625" lon="-107.703714072704315185546875">
        <ele>4034.199951171875</ele>
        <time>2023-07-29T16:13:28.000Z</time>
        <extensions>
          <ns3:TrackPointExtension>
            <ns3:hr>137</ns3:hr>
            <ns3:cad>0</ns3:cad>
          </ns3:TrackPointExtension>
        </extensions>
      </trkpt>
      <trkpt lat="37.78540299274027347564697265625" lon="-107.70370912738144397735595703125">
        <ele>4034.199951171875</ele>
        <time>2023-07-29T16:13:29.000Z</time>
        <extensions>
          <ns3:TrackPointExtension>
            <ns3:hr>137</ns3:hr>
            <ns3:cad>0</ns3:cad>
          </ns3:TrackPointExtension>
        </extensions>
      </trkpt>
      <trkpt lat="37.78541036881506443023681640625" lon="-107.70370543934404850006103515625">
        <ele>4034.60009765625</ele>
        <time>2023-07-29T16:13:30.000Z</time>
        <extensions>
          <ns3:TrackPointExtension>
            <ns3:hr>138</ns3:hr>
            <ns3:cad>0</ns3:cad>
          </ns3:TrackPointExtension>
        </extensions>
      </trkpt>
      <trkpt lat="37.7854151464998722076416015625" lon="-107.70370845682919025421142578125">
        <ele>4034.800048828125</ele>
        <time>2023-07-29T16:13:31.000Z</time>
        <extensions>
          <ns3:TrackPointExtension>
            <ns3:hr>138</ns3:hr>
            <ns3:cad>0</ns3:cad>
          </ns3:TrackPointExtension>
        </extensions>
      </trkpt>
      <trkpt lat="37.785424701869487762451171875" lon="-107.70371147431433200836181640625">
        <ele>4034.800048828125</ele>
        <time>2023-07-29T16:13:32.000Z</time>
        <extensions>
          <ns3:TrackPointExtension>
            <ns3:hr>138</ns3:hr>
            <ns3:cad>0</ns3:cad>
          </ns3:TrackPointExtension>
        </extensions>
      </trkpt>
      <trkpt lat="37.78543635271489620208740234375" lon="-107.7037132345139980316162109375">
        <ele>4035</ele>
        <time>2023-07-29T16:13:33.000Z</time>
        <extensions>
          <ns3:TrackPointExtension>
            <ns3:hr>138</ns3:hr>
            <ns3:cad>0</ns3:cad>
          </ns3:TrackPointExtension>
        </extensions>
      </trkpt>
      <trkpt lat="37.78544456698000431060791015625" lon="-107.70371608436107635498046875">
        <ele>4035.199951171875</ele>
        <time>2023-07-29T16:13:34.000Z</time>
        <extensions>
          <ns3:TrackPointExtension>
            <ns3:hr>138</ns3:hr>
            <ns3:cad>0</ns3:cad>
          </ns3:TrackPointExtension>
        </extensions>
      </trkpt>
      <trkpt lat="37.785446159541606903076171875" lon="-107.70371851511299610137939453125">
        <ele>4035.39990234375</ele>
        <time>2023-07-29T16:13:35.000Z</time>
        <extensions>
          <ns3:TrackPointExtension>
            <ns3:hr>138</ns3:hr>
            <ns3:cad>0</ns3:cad>
          </ns3:TrackPointExtension>
        </extensions>
      </trkpt>
      <trkpt lat="37.785448841750621795654296875" lon="-107.7037242986261844635009765625">
        <ele>4035.800048828125</ele>
        <time>2023-07-29T16:13:36.000Z</time>
        <extensions>
          <ns3:TrackPointExtension>
            <ns3:hr>137</ns3:hr>
            <ns3:cad>0</ns3:cad>
          </ns3:TrackPointExtension>
        </extensions>
      </trkpt>
      <trkpt lat="37.7854513563215732574462890625" lon="-107.70372807048261165618896484375">
        <ele>4035.800048828125</ele>
        <time>2023-07-29T16:13:37.000Z</time>
        <extensions>
          <ns3:TrackPointExtension>
            <ns3:hr>136</ns3:hr>
            <ns3:cad>0</ns3:cad>
          </ns3:TrackPointExtension>
        </extensions>
      </trkpt>
      <trkpt lat="37.7854560501873493194580078125" lon="-107.7037346921861171722412109375">
        <ele>4036</ele>
        <time>2023-07-29T16:13:38.000Z</time>
        <extensions>
          <ns3:TrackPointExtension>
            <ns3:hr>136</ns3:hr>
            <ns3:cad>0</ns3:cad>
          </ns3:TrackPointExtension>
        </extensions>
      </trkpt>
      <trkpt lat="37.78546200133860111236572265625" lon="-107.7037449181079864501953125">
        <ele>4036.199951171875</ele>
        <time>2023-07-29T16:13:39.000Z</time>
        <extensions>
          <ns3:TrackPointExtension>
            <ns3:hr>135</ns3:hr>
            <ns3:cad>0</ns3:cad>
          </ns3:TrackPointExtension>
        </extensions>
      </trkpt>
      <trkpt lat="37.78546669520437717437744140625" lon="-107.7037504501640796661376953125">
        <ele>4036.199951171875</ele>
        <time>2023-07-29T16:13:40.000Z</time>
        <extensions>
          <ns3:TrackPointExtension>
            <ns3:hr>135</ns3:hr>
            <ns3:cad>65</ns3:cad>
          </ns3:TrackPointExtension>
        </extensions>
      </trkpt>
      <trkpt lat="37.7854721434414386749267578125" lon="-107.7037581615149974822998046875">
        <ele>4036.39990234375</ele>
        <time>2023-07-29T16:13:41.000Z</time>
        <extensions>
          <ns3:TrackPointExtension>
            <ns3:hr>135</ns3:hr>
            <ns3:cad>65</ns3:cad>
          </ns3:TrackPointExtension>
        </extensions>
      </trkpt>
      <trkpt lat="37.785472311079502105712890625" lon="-107.703760005533695220947265625">
        <ele>4036.800048828125</ele>
        <time>2023-07-29T16:13:42.000Z</time>
        <extensions>
          <ns3:TrackPointExtension>
            <ns3:hr>135</ns3:hr>
            <ns3:cad>65</ns3:cad>
          </ns3:TrackPointExtension>
        </extensions>
      </trkpt>
      <trkpt lat="37.785480022430419921875" lon="-107.7037685550749301910400390625">
        <ele>4037</ele>
        <time>2023-07-29T16:13:43.000Z</time>
        <extensions>
          <ns3:TrackPointExtension>
            <ns3:hr>135</ns3:hr>
            <ns3:cad>0</ns3:cad>
          </ns3:TrackPointExtension>
        </extensions>
      </trkpt>
      <trkpt lat="37.78548471629619598388671875" lon="-107.7037745900452136993408203125">
        <ele>4037.199951171875</ele>
        <time>2023-07-29T16:13:44.000Z</time>
        <extensions>
          <ns3:TrackPointExtension>
            <ns3:hr>135</ns3:hr>
            <ns3:cad>0</ns3:cad>
          </ns3:TrackPointExtension>
        </extensions>
      </trkpt>
      <trkpt lat="37.785497792065143585205078125" lon="-107.70378707908093929290771484375">
        <ele>4037.39990234375</ele>
        <time>2023-07-29T16:13:45.000Z</time>
        <extensions>
          <ns3:TrackPointExtension>
            <ns3:hr>135</ns3:hr>
            <ns3:cad>0</ns3:cad>
          </ns3:TrackPointExtension>
        </extensions>
      </trkpt>
      <trkpt lat="37.785506509244441986083984375" lon="-107.70379227586090564727783203125">
        <ele>4037.60009765625</ele>
        <time>2023-07-29T16:13:46.000Z</time>
        <extensions>
          <ns3:TrackPointExtension>
            <ns3:hr>135</ns3:hr>
            <ns3:cad>0</ns3:cad>
          </ns3:TrackPointExtension>
        </extensions>
      </trkpt>
      <trkpt lat="37.78551430441439151763916015625" lon="-107.70378909073770046234130859375">
        <ele>4037.800048828125</ele>
        <time>2023-07-29T16:13:47.000Z</time>
        <extensions>
          <ns3:TrackPointExtension>
            <ns3:hr>135</ns3:hr>
            <ns3:cad>0</ns3:cad>
          </ns3:TrackPointExtension>
        </extensions>
      </trkpt>
      <trkpt lat="37.78551958501338958740234375" lon="-107.703782804310321807861328125">
        <ele>4038</ele>
        <time>2023-07-29T16:13:48.000Z</time>
        <extensions>
          <ns3:TrackPointExtension>
            <ns3:hr>136</ns3:hr>
            <ns3:cad>0</ns3:cad>
          </ns3:TrackPointExtension>
        </extensions>
      </trkpt>
      <trkpt lat="37.7855244465172290802001953125" lon="-107.703778445720672607421875">
        <ele>4038</ele>
        <time>2023-07-29T16:13:49.000Z</time>
        <extensions>
          <ns3:TrackPointExtension>
            <ns3:hr>136</ns3:hr>
            <ns3:cad>0</ns3:cad>
          </ns3:TrackPointExtension>
        </extensions>
      </trkpt>
      <trkpt lat="37.785529978573322296142578125" lon="-107.7037786133587360382080078125">
        <ele>4038.199951171875</ele>
        <time>2023-07-29T16:13:50.000Z</time>
        <extensions>
          <ns3:TrackPointExtension>
            <ns3:hr>136</ns3:hr>
            <ns3:cad>0</ns3:cad>
          </ns3:TrackPointExtension>
        </extensions>
      </trkpt>
      <trkpt lat="37.78553073294460773468017578125" lon="-107.70378154702484607696533203125">
        <ele>4038.60009765625</ele>
        <time>2023-07-29T16:13:51.000Z</time>
        <extensions>
          <ns3:TrackPointExtension>
            <ns3:hr>136</ns3:hr>
            <ns3:cad>0</ns3:cad>
          </ns3:TrackPointExtension>
        </extensions>
      </trkpt>
      <trkpt lat="37.785534001886844635009765625" lon="-107.70378272049129009246826171875">
        <ele>4038.60009765625</ele>
        <time>2023-07-29T16:13:52.000Z</time>
        <extensions>
          <ns3:TrackPointExtension>
            <ns3:hr>136</ns3:hr>
            <ns3:cad>0</ns3:cad>
          </ns3:TrackPointExtension>
        </extensions>
      </trkpt>
      <trkpt lat="37.78553701937198638916015625" lon="-107.7037816308438777923583984375">
        <ele>4039</ele>
        <time>2023-07-29T16:13:53.000Z</time>
        <extensions>
          <ns3:TrackPointExtension>
            <ns3:hr>136</ns3:hr>
            <ns3:cad>0</ns3:cad>
          </ns3:TrackPointExtension>
        </extensions>
      </trkpt>
      <trkpt lat="37.78553861193358898162841796875" lon="-107.70378154702484607696533203125">
        <ele>4039.199951171875</ele>
        <time>2023-07-29T16:13:54.000Z</time>
        <extensions>
          <ns3:TrackPointExtension>
            <ns3:hr>136</ns3:hr>
            <ns3:cad>0</ns3:cad>
          </ns3:TrackPointExtension>
        </extensions>
      </trkpt>
      <trkpt lat="37.78554012067615985870361328125" lon="-107.7037811279296875">
        <ele>4039.39990234375</ele>
        <time>2023-07-29T16:13:55.000Z</time>
        <extensions>
          <ns3:TrackPointExtension>
            <ns3:hr>136</ns3:hr>
            <ns3:cad>0</ns3:cad>
          </ns3:TrackPointExtension>
        </extensions>
      </trkpt>
      <trkpt lat="37.78554330579936504364013671875" lon="-107.703776769340038299560546875">
        <ele>4039.60009765625</ele>
        <time>2023-07-29T16:13:56.000Z</time>
        <extensions>
          <ns3:TrackPointExtension>
            <ns3:hr>136</ns3:hr>
            <ns3:cad>0</ns3:cad>
          </ns3:TrackPointExtension>
        </extensions>
      </trkpt>
      <trkpt lat="37.78554900549352169036865234375" lon="-107.70377215929329395294189453125">
        <ele>4039.60009765625</ele>
        <time>2023-07-29T16:13:57.000Z</time>
        <extensions>
          <ns3:TrackPointExtension>
            <ns3:hr>136</ns3:hr>
            <ns3:cad>0</ns3:cad>
          </ns3:TrackPointExtension>
        </extensions>
      </trkpt>
      <trkpt lat="37.78555219061672687530517578125" lon="-107.70376436412334442138671875">
        <ele>4039.800048828125</ele>
        <time>2023-07-29T16:13:58.000Z</time>
        <extensions>
          <ns3:TrackPointExtension>
            <ns3:hr>136</ns3:hr>
            <ns3:cad>0</ns3:cad>
          </ns3:TrackPointExtension>
        </extensions>
      </trkpt>
      <trkpt lat="37.78555353172123432159423828125" lon="-107.7037564851343631744384765625">
        <ele>4040</ele>
        <time>2023-07-29T16:13:59.000Z</time>
        <extensions>
          <ns3:TrackPointExtension>
            <ns3:hr>136</ns3:hr>
            <ns3:cad>0</ns3:cad>
          </ns3:TrackPointExtension>
        </extensions>
      </trkpt>
      <trkpt lat="37.78555445373058319091796875" lon="-107.70374919287860393524169921875">
        <ele>4040</ele>
        <time>2023-07-29T16:14:00.000Z</time>
        <extensions>
          <ns3:TrackPointExtension>
            <ns3:hr>136</ns3:hr>
            <ns3:cad>0</ns3:cad>
          </ns3:TrackPointExtension>
        </extensions>
      </trkpt>
      <trkpt lat="37.78555353172123432159423828125" lon="-107.70374315790832042694091796875">
        <ele>4040.199951171875</ele>
        <time>2023-07-29T16:14:01.000Z</time>
        <extensions>
          <ns3:TrackPointExtension>
            <ns3:hr>136</ns3:hr>
            <ns3:cad>0</ns3:cad>
          </ns3:TrackPointExtension>
        </extensions>
      </trkpt>
      <trkpt lat="37.78555202297866344451904296875" lon="-107.7037370391190052032470703125">
        <ele>4040.199951171875</ele>
        <time>2023-07-29T16:14:02.000Z</time>
        <extensions>
          <ns3:TrackPointExtension>
            <ns3:hr>137</ns3:hr>
            <ns3:cad>0</ns3:cad>
          </ns3:TrackPointExtension>
        </extensions>
      </trkpt>
      <trkpt lat="37.78555587865412235260009765625" lon="-107.70372723229229450225830078125">
        <ele>4040.39990234375</ele>
        <time>2023-07-29T16:14:03.000Z</time>
        <extensions>
          <ns3:TrackPointExtension>
            <ns3:hr>137</ns3:hr>
            <ns3:cad>0</ns3:cad>
          </ns3:TrackPointExtension>
        </extensions>
      </trkpt>
      <trkpt lat="37.78555654920637607574462890625" lon="-107.70371734164655208587646484375">
        <ele>4040.60009765625</ele>
        <time>2023-07-29T16:14:04.000Z</time>
        <extensions>
          <ns3:TrackPointExtension>
            <ns3:hr>137</ns3:hr>
            <ns3:cad>0</ns3:cad>
          </ns3:TrackPointExtension>
        </extensions>
      </trkpt>
      <trkpt lat="37.78555654920637607574462890625" lon="-107.70371331833302974700927734375">
        <ele>4040.800048828125</ele>
        <time>2023-07-29T16:14:05.000Z</time>
        <extensions>
          <ns3:TrackPointExtension>
            <ns3:hr>137</ns3:hr>
            <ns3:cad>0</ns3:cad>
          </ns3:TrackPointExtension>
        </extensions>
      </trkpt>
      <trkpt lat="37.785556130111217498779296875" lon="-107.7037149108946323394775390625">
        <ele>4041.199951171875</ele>
        <time>2023-07-29T16:14:06.000Z</time>
        <extensions>
          <ns3:TrackPointExtension>
            <ns3:hr>137</ns3:hr>
            <ns3:cad>0</ns3:cad>
          </ns3:TrackPointExtension>
        </extensions>
      </trkpt>
      <trkpt lat="37.785559482872486114501953125" lon="-107.703708373010158538818359375">
        <ele>4041.199951171875</ele>
        <time>2023-07-29T16:14:07.000Z</time>
        <extensions>
          <ns3:TrackPointExtension>
            <ns3:hr>137</ns3:hr>
            <ns3:cad>0</ns3:cad>
          </ns3:TrackPointExtension>
        </extensions>
      </trkpt>
      <trkpt lat="37.78556493110954761505126953125" lon="-107.7037061937153339385986328125">
        <ele>4041.199951171875</ele>
        <time>2023-07-29T16:14:08.000Z</time>
        <extensions>
          <ns3:TrackPointExtension>
            <ns3:hr>136</ns3:hr>
            <ns3:cad>0</ns3:cad>
          </ns3:TrackPointExtension>
        </extensions>
      </trkpt>
      <trkpt lat="37.78556920588016510009765625" lon="-107.7037020027637481689453125">
        <ele>4041.39990234375</ele>
        <time>2023-07-29T16:14:09.000Z</time>
        <extensions>
          <ns3:TrackPointExtension>
            <ns3:hr>136</ns3:hr>
            <ns3:cad>0</ns3:cad>
          </ns3:TrackPointExtension>
        </extensions>
      </trkpt>
      <trkpt lat="37.78556811623275279998779296875" lon="-107.70370401442050933837890625">
        <ele>4041.60009765625</ele>
        <time>2023-07-29T16:14:10.000Z</time>
        <extensions>
          <ns3:TrackPointExtension>
            <ns3:hr>135</ns3:hr>
            <ns3:cad>0</ns3:cad>
          </ns3:TrackPointExtension>
        </extensions>
      </trkpt>
      <trkpt lat="37.7855707146227359771728515625" lon="-107.7037055231630802154541015625">
        <ele>4041.800048828125</ele>
        <time>2023-07-29T16:14:11.000Z</time>
        <extensions>
          <ns3:TrackPointExtension>
            <ns3:hr>135</ns3:hr>
            <ns3:cad>0</ns3:cad>
          </ns3:TrackPointExtension>
        </extensions>
      </trkpt>
      <trkpt lat="37.7855744026601314544677734375" lon="-107.7037055231630802154541015625">
        <ele>4042</ele>
        <time>2023-07-29T16:14:12.000Z</time>
        <extensions>
          <ns3:TrackPointExtension>
            <ns3:hr>136</ns3:hr>
            <ns3:cad>0</ns3:cad>
          </ns3:TrackPointExtension>
        </extensions>
      </trkpt>
      <trkpt lat="37.7855760790407657623291015625" lon="-107.70370678044855594635009765625">
        <ele>4042</ele>
        <time>2023-07-29T16:14:13.000Z</time>
        <extensions>
          <ns3:TrackPointExtension>
            <ns3:hr>136</ns3:hr>
            <ns3:cad>0</ns3:cad>
          </ns3:TrackPointExtension>
        </extensions>
      </trkpt>
      <trkpt lat="37.785581611096858978271484375" lon="-107.7037001587450504302978515625">
        <ele>4042.39990234375</ele>
        <time>2023-07-29T16:14:14.000Z</time>
        <extensions>
          <ns3:TrackPointExtension>
            <ns3:hr>136</ns3:hr>
            <ns3:cad>0</ns3:cad>
          </ns3:TrackPointExtension>
        </extensions>
      </trkpt>
      <trkpt lat="37.7855837903916835784912109375" lon="-107.7036984823644161224365234375">
        <ele>4042.60009765625</ele>
        <time>2023-07-29T16:14:15.000Z</time>
        <extensions>
          <ns3:TrackPointExtension>
            <ns3:hr>136</ns3:hr>
            <ns3:cad>0</ns3:cad>
          </ns3:TrackPointExtension>
        </extensions>
      </trkpt>
      <trkpt lat="37.7855832874774932861328125" lon="-107.70369806326925754547119140625">
        <ele>4042.60009765625</ele>
        <time>2023-07-29T16:14:16.000Z</time>
        <extensions>
          <ns3:TrackPointExtension>
            <ns3:hr>136</ns3:hr>
            <ns3:cad>0</ns3:cad>
          </ns3:TrackPointExtension>
        </extensions>
      </trkpt>
      <trkpt lat="37.785581611096858978271484375" lon="-107.7037001587450504302978515625">
        <ele>4042.60009765625</ele>
        <time>2023-07-29T16:14:17.000Z</time>
        <extensions>
          <ns3:TrackPointExtension>
            <ns3:hr>136</ns3:hr>
            <ns3:cad>0</ns3:cad>
          </ns3:TrackPointExtension>
        </extensions>
      </trkpt>
      <trkpt lat="37.78557985089719295501708984375" lon="-107.70370267331600189208984375">
        <ele>4042.800048828125</ele>
        <time>2023-07-29T16:14:18.000Z</time>
        <extensions>
          <ns3:TrackPointExtension>
            <ns3:hr>136</ns3:hr>
            <ns3:cad>0</ns3:cad>
          </ns3:TrackPointExtension>
        </extensions>
      </trkpt>
      <trkpt lat="37.78557465411722660064697265625" lon="-107.7037073671817779541015625">
        <ele>4042.800048828125</ele>
        <time>2023-07-29T16:14:19.000Z</time>
        <extensions>
          <ns3:TrackPointExtension>
            <ns3:hr>136</ns3:hr>
            <ns3:cad>0</ns3:cad>
          </ns3:TrackPointExtension>
        </extensions>
      </trkpt>
      <trkpt lat="37.78557616285979747772216796875" lon="-107.70370661281049251556396484375">
        <ele>4042.800048828125</ele>
        <time>2023-07-29T16:14:20.000Z</time>
        <extensions>
          <ns3:TrackPointExtension>
            <ns3:hr>136</ns3:hr>
            <ns3:cad>0</ns3:cad>
          </ns3:TrackPointExtension>
        </extensions>
      </trkpt>
      <trkpt lat="37.785577587783336639404296875" lon="-107.7037065289914608001708984375">
        <ele>4042.800048828125</ele>
        <time>2023-07-29T16:14:21.000Z</time>
        <extensions>
          <ns3:TrackPointExtension>
            <ns3:hr>136</ns3:hr>
            <ns3:cad>0</ns3:cad>
          </ns3:TrackPointExtension>
        </extensions>
      </trkpt>
      <trkpt lat="37.78558236546814441680908203125" lon="-107.70371097140014171600341796875">
        <ele>4042.800048828125</ele>
        <time>2023-07-29T16:14:22.000Z</time>
        <extensions>
          <ns3:TrackPointExtension>
            <ns3:hr>136</ns3:hr>
            <ns3:cad>0</ns3:cad>
          </ns3:TrackPointExtension>
        </extensions>
      </trkpt>
      <trkpt lat="37.78558420948684215545654296875" lon="-107.70371398888528347015380859375">
        <ele>4043</ele>
        <time>2023-07-29T16:14:23.000Z</time>
        <extensions>
          <ns3:TrackPointExtension>
            <ns3:hr>136</ns3:hr>
            <ns3:cad>0</ns3:cad>
          </ns3:TrackPointExtension>
        </extensions>
      </trkpt>
      <trkpt lat="37.785588987171649932861328125" lon="-107.70372035913169384002685546875">
        <ele>4043.199951171875</ele>
        <time>2023-07-29T16:14:24.000Z</time>
        <extensions>
          <ns3:TrackPointExtension>
            <ns3:hr>136</ns3:hr>
            <ns3:cad>0</ns3:cad>
          </ns3:TrackPointExtension>
        </extensions>
      </trkpt>
      <trkpt lat="37.785588987171649932861328125" lon="-107.70372035913169384002685546875">
        <ele>4043.39990234375</ele>
        <time>2023-07-29T16:14:25.000Z</time>
        <extensions>
          <ns3:TrackPointExtension>
            <ns3:hr>136</ns3:hr>
            <ns3:cad>0</ns3:cad>
          </ns3:TrackPointExtension>
        </extensions>
      </trkpt>
      <trkpt lat="37.785600386559963226318359375" lon="-107.70373946987092494964599609375">
        <ele>4043.60009765625</ele>
        <time>2023-07-29T16:14:26.000Z</time>
        <extensions>
          <ns3:TrackPointExtension>
            <ns3:hr>135</ns3:hr>
            <ns3:cad>0</ns3:cad>
          </ns3:TrackPointExtension>
        </extensions>
      </trkpt>
      <trkpt lat="37.7856025658547878265380859375" lon="-107.70374449901282787322998046875">
        <ele>4043.60009765625</ele>
        <time>2023-07-29T16:14:27.000Z</time>
        <extensions>
          <ns3:TrackPointExtension>
            <ns3:hr>135</ns3:hr>
            <ns3:cad>0</ns3:cad>
          </ns3:TrackPointExtension>
        </extensions>
      </trkpt>
      <trkpt lat="37.7856025658547878265380859375" lon="-107.70374449901282787322998046875">
        <ele>4043.800048828125</ele>
        <time>2023-07-29T16:14:28.000Z</time>
        <extensions>
          <ns3:TrackPointExtension>
            <ns3:hr>135</ns3:hr>
            <ns3:cad>0</ns3:cad>
          </ns3:TrackPointExtension>
        </extensions>
      </trkpt>
      <trkpt lat="37.78560809791088104248046875" lon="-107.70374399609863758087158203125">
        <ele>4044</ele>
        <time>2023-07-29T16:14:29.000Z</time>
        <extensions>
          <ns3:TrackPointExtension>
            <ns3:hr>135</ns3:hr>
            <ns3:cad>0</ns3:cad>
          </ns3:TrackPointExtension>
        </extensions>
      </trkpt>
      <trkpt lat="37.785609774291515350341796875" lon="-107.7037457562983036041259765625">
        <ele>4044.199951171875</ele>
        <time>2023-07-29T16:14:30.000Z</time>
        <extensions>
          <ns3:TrackPointExtension>
            <ns3:hr>135</ns3:hr>
            <ns3:cad>0</ns3:cad>
          </ns3:TrackPointExtension>
        </extensions>
      </trkpt>
      <trkpt lat="37.78561170212924480438232421875" lon="-107.70374818705022335052490234375">
        <ele>4044.39990234375</ele>
        <time>2023-07-29T16:14:31.000Z</time>
        <extensions>
          <ns3:TrackPointExtension>
            <ns3:hr>135</ns3:hr>
            <ns3:cad>0</ns3:cad>
          </ns3:TrackPointExtension>
        </extensions>
      </trkpt>
      <trkpt lat="37.78561321087181568145751953125" lon="-107.703749947249889373779296875">
        <ele>4044.60009765625</ele>
        <time>2023-07-29T16:14:32.000Z</time>
        <extensions>
          <ns3:TrackPointExtension>
            <ns3:hr>135</ns3:hr>
            <ns3:cad>0</ns3:cad>
          </ns3:TrackPointExtension>
        </extensions>
      </trkpt>
      <trkpt lat="37.7856122888624668121337890625" lon="-107.703744582831859588623046875">
        <ele>4044.800048828125</ele>
        <time>2023-07-29T16:14:33.000Z</time>
        <extensions>
          <ns3:TrackPointExtension>
            <ns3:hr>135</ns3:hr>
            <ns3:cad>0</ns3:cad>
          </ns3:TrackPointExtension>
        </extensions>
      </trkpt>
      <trkpt lat="37.78561354614794254302978515625" lon="-107.70374483428895473480224609375">
        <ele>4045</ele>
        <time>2023-07-29T16:14:34.000Z</time>
        <extensions>
          <ns3:TrackPointExtension>
            <ns3:hr>135</ns3:hr>
            <ns3:cad>0</ns3:cad>
          </ns3:TrackPointExtension>
        </extensions>
      </trkpt>
      <trkpt lat="37.7856154739856719970703125" lon="-107.7037514559924602508544921875">
        <ele>4045</ele>
        <time>2023-07-29T16:14:35.000Z</time>
        <extensions>
          <ns3:TrackPointExtension>
            <ns3:hr>135</ns3:hr>
            <ns3:cad>0</ns3:cad>
          </ns3:TrackPointExtension>
        </extensions>
      </trkpt>
      <trkpt lat="37.78561622835695743560791015625" lon="-107.70375229418277740478515625">
        <ele>4045</ele>
        <time>2023-07-29T16:14:36.000Z</time>
        <extensions>
          <ns3:TrackPointExtension>
            <ns3:hr>135</ns3:hr>
            <ns3:cad>0</ns3:cad>
          </ns3:TrackPointExtension>
        </extensions>
      </trkpt>
      <trkpt lat="37.78561471961438655853271484375" lon="-107.7037524618208408355712890625">
        <ele>4045</ele>
        <time>2023-07-29T16:14:37.000Z</time>
        <extensions>
          <ns3:TrackPointExtension>
            <ns3:hr>134</ns3:hr>
            <ns3:cad>0</ns3:cad>
          </ns3:TrackPointExtension>
        </extensions>
      </trkpt>
      <trkpt lat="37.78561455197632312774658203125" lon="-107.703751623630523681640625">
        <ele>4045</ele>
        <time>2023-07-29T16:14:38.000Z</time>
        <extensions>
          <ns3:TrackPointExtension>
            <ns3:hr>133</ns3:hr>
            <ns3:cad>0</ns3:cad>
          </ns3:TrackPointExtension>
        </extensions>
      </trkpt>
      <trkpt lat="37.78561388142406940460205078125" lon="-107.7037511207163333892822265625">
        <ele>4045</ele>
        <time>2023-07-29T16:14:39.000Z</time>
        <extensions>
          <ns3:TrackPointExtension>
            <ns3:hr>133</ns3:hr>
            <ns3:cad>0</ns3:cad>
          </ns3:TrackPointExtension>
        </extensions>
      </trkpt>
      <trkpt lat="37.7856139652431011199951171875" lon="-107.70375229418277740478515625">
        <ele>4045</ele>
        <time>2023-07-29T16:14:40.000Z</time>
        <extensions>
          <ns3:TrackPointExtension>
            <ns3:hr>132</ns3:hr>
            <ns3:cad>0</ns3:cad>
          </ns3:TrackPointExtension>
        </extensions>
      </trkpt>
      <trkpt lat="37.78561438433825969696044921875" lon="-107.703751623630523681640625">
        <ele>4045</ele>
        <time>2023-07-29T16:14:41.000Z</time>
        <extensions>
          <ns3:TrackPointExtension>
            <ns3:hr>133</ns3:hr>
            <ns3:cad>0</ns3:cad>
          </ns3:TrackPointExtension>
        </extensions>
      </trkpt>
      <trkpt lat="37.7856139652431011199951171875" lon="-107.70375170744955539703369140625">
        <ele>4045</ele>
        <time>2023-07-29T16:14:42.000Z</time>
        <extensions>
          <ns3:TrackPointExtension>
            <ns3:hr>132</ns3:hr>
            <ns3:cad>0</ns3:cad>
          </ns3:TrackPointExtension>
        </extensions>
      </trkpt>
      <trkpt lat="37.7856139652431011199951171875" lon="-107.7037544734776020050048828125">
        <ele>4044.800048828125</ele>
        <time>2023-07-29T16:14:43.000Z</time>
        <extensions>
          <ns3:TrackPointExtension>
            <ns3:hr>132</ns3:hr>
            <ns3:cad>0</ns3:cad>
          </ns3:TrackPointExtension>
        </extensions>
      </trkpt>
      <trkpt lat="37.7856193296611309051513671875" lon="-107.7037722431123256683349609375">
        <ele>4044.800048828125</ele>
        <time>2023-07-29T16:14:44.000Z</time>
        <extensions>
          <ns3:TrackPointExtension>
            <ns3:hr>133</ns3:hr>
            <ns3:cad>0</ns3:cad>
          </ns3:TrackPointExtension>
        </extensions>
      </trkpt>
      <trkpt lat="37.785625867545604705810546875" lon="-107.70377534441649913787841796875">
        <ele>4044.800048828125</ele>
        <time>2023-07-29T16:14:45.000Z</time>
        <extensions>
          <ns3:TrackPointExtension>
            <ns3:hr>133</ns3:hr>
            <ns3:cad>0</ns3:cad>
          </ns3:TrackPointExtension>
        </extensions>
      </trkpt>
      <trkpt lat="37.78563215397298336029052734375" lon="-107.7037824690341949462890625">
        <ele>4044.800048828125</ele>
        <time>2023-07-29T16:14:46.000Z</time>
        <extensions>
          <ns3:TrackPointExtension>
            <ns3:hr>133</ns3:hr>
            <ns3:cad>0</ns3:cad>
          </ns3:TrackPointExtension>
        </extensions>
      </trkpt>
      <trkpt lat="37.78563600964844226837158203125" lon="-107.703787498176097869873046875">
        <ele>4045</ele>
        <time>2023-07-29T16:14:47.000Z</time>
        <extensions>
          <ns3:TrackPointExtension>
            <ns3:hr>133</ns3:hr>
            <ns3:cad>0</ns3:cad>
          </ns3:TrackPointExtension>
        </extensions>
      </trkpt>
      <trkpt lat="37.785637266933917999267578125" lon="-107.70378774963319301605224609375">
        <ele>4045.199951171875</ele>
        <time>2023-07-29T16:14:48.000Z</time>
        <extensions>
          <ns3:TrackPointExtension>
            <ns3:hr>134</ns3:hr>
            <ns3:cad>0</ns3:cad>
          </ns3:TrackPointExtension>
        </extensions>
      </trkpt>
      <trkpt lat="37.78563751839101314544677734375" lon="-107.7037886716425418853759765625">
        <ele>4045.199951171875</ele>
        <time>2023-07-29T16:14:49.000Z</time>
        <extensions>
          <ns3:TrackPointExtension>
            <ns3:hr>133</ns3:hr>
            <ns3:cad>0</ns3:cad>
          </ns3:TrackPointExtension>
        </extensions>
      </trkpt>
      <trkpt lat="37.78564020060002803802490234375" lon="-107.70378959365189075469970703125">
        <ele>4045.39990234375</ele>
        <time>2023-07-29T16:14:50.000Z</time>
        <extensions>
          <ns3:TrackPointExtension>
            <ns3:hr>133</ns3:hr>
            <ns3:cad>0</ns3:cad>
          </ns3:TrackPointExtension>
        </extensions>
      </trkpt>
      <trkpt lat="37.7856387756764888763427734375" lon="-107.70378925837576389312744140625">
        <ele>4045.60009765625</ele>
        <time>2023-07-29T16:14:51.000Z</time>
        <extensions>
          <ns3:TrackPointExtension>
            <ns3:hr>133</ns3:hr>
            <ns3:cad>0</ns3:cad>
          </ns3:TrackPointExtension>
        </extensions>
      </trkpt>
      <trkpt lat="37.7856444753706455230712890625" lon="-107.7037896774709224700927734375">
        <ele>4045.800048828125</ele>
        <time>2023-07-29T16:14:52.000Z</time>
        <extensions>
          <ns3:TrackPointExtension>
            <ns3:hr>133</ns3:hr>
            <ns3:cad>0</ns3:cad>
          </ns3:TrackPointExtension>
        </extensions>
      </trkpt>
      <trkpt lat="37.7856481634080410003662109375" lon="-107.7037906832993030548095703125">
        <ele>4046</ele>
        <time>2023-07-29T16:14:53.000Z</time>
        <extensions>
          <ns3:TrackPointExtension>
            <ns3:hr>132</ns3:hr>
            <ns3:cad>0</ns3:cad>
          </ns3:TrackPointExtension>
        </extensions>
      </trkpt>
      <trkpt lat="37.7856548689305782318115234375" lon="-107.7037947066128253936767578125">
        <ele>4046.199951171875</ele>
        <time>2023-07-29T16:14:54.000Z</time>
        <extensions>
          <ns3:TrackPointExtension>
            <ns3:hr>132</ns3:hr>
            <ns3:cad>0</ns3:cad>
          </ns3:TrackPointExtension>
        </extensions>
      </trkpt>
      <trkpt lat="37.78566098771989345550537109375" lon="-107.7037973888218402862548828125">
        <ele>4046.39990234375</ele>
        <time>2023-07-29T16:14:55.000Z</time>
        <extensions>
          <ns3:TrackPointExtension>
            <ns3:hr>132</ns3:hr>
            <ns3:cad>0</ns3:cad>
          </ns3:TrackPointExtension>
        </extensions>
      </trkpt>
      <trkpt lat="37.78566601686179637908935546875" lon="-107.7038000710308551788330078125">
        <ele>4046.60009765625</ele>
        <time>2023-07-29T16:14:56.000Z</time>
        <extensions>
          <ns3:TrackPointExtension>
            <ns3:hr>132</ns3:hr>
            <ns3:cad>0</ns3:cad>
          </ns3:TrackPointExtension>
        </extensions>
      </trkpt>
      <trkpt lat="37.78567322529852390289306640625" lon="-107.703799568116664886474609375">
        <ele>4046.800048828125</ele>
        <time>2023-07-29T16:14:57.000Z</time>
        <extensions>
          <ns3:TrackPointExtension>
            <ns3:hr>132</ns3:hr>
            <ns3:cad>0</ns3:cad>
          </ns3:TrackPointExtension>
        </extensions>
      </trkpt>
      <trkpt lat="37.78567515313625335693359375" lon="-107.7037985622882843017578125">
        <ele>4047</ele>
        <time>2023-07-29T16:14:58.000Z</time>
        <extensions>
          <ns3:TrackPointExtension>
            <ns3:hr>132</ns3:hr>
            <ns3:cad>0</ns3:cad>
          </ns3:TrackPointExtension>
        </extensions>
      </trkpt>
      <trkpt lat="37.7856780029833316802978515625" lon="-107.70380191504955291748046875">
        <ele>4047</ele>
        <time>2023-07-29T16:14:59.000Z</time>
        <extensions>
          <ns3:TrackPointExtension>
            <ns3:hr>132</ns3:hr>
            <ns3:cad>0</ns3:cad>
          </ns3:TrackPointExtension>
        </extensions>
      </trkpt>
      <trkpt lat="37.78567909263074398040771484375" lon="-107.70380686037242412567138671875">
        <ele>4047.199951171875</ele>
        <time>2023-07-29T16:15:00.000Z</time>
        <extensions>
          <ns3:TrackPointExtension>
            <ns3:hr>132</ns3:hr>
            <ns3:cad>0</ns3:cad>
          </ns3:TrackPointExtension>
        </extensions>
      </trkpt>
      <trkpt lat="37.785681188106536865234375" lon="-107.7038124762475490570068359375">
        <ele>4047.60009765625</ele>
        <time>2023-07-29T16:15:01.000Z</time>
        <extensions>
          <ns3:TrackPointExtension>
            <ns3:hr>131</ns3:hr>
            <ns3:cad>0</ns3:cad>
          </ns3:TrackPointExtension>
        </extensions>
      </trkpt>
      <trkpt lat="37.785675823688507080078125" lon="-107.70381373353302478790283203125">
        <ele>4047.800048828125</ele>
        <time>2023-07-29T16:15:02.000Z</time>
        <extensions>
          <ns3:TrackPointExtension>
            <ns3:hr>131</ns3:hr>
            <ns3:cad>0</ns3:cad>
          </ns3:TrackPointExtension>
        </extensions>
      </trkpt>
      <trkpt lat="37.785680852830410003662109375" lon="-107.70381624810397624969482421875">
        <ele>4047.800048828125</ele>
        <time>2023-07-29T16:15:03.000Z</time>
        <extensions>
          <ns3:TrackPointExtension>
            <ns3:hr>130</ns3:hr>
            <ns3:cad>0</ns3:cad>
          </ns3:TrackPointExtension>
        </extensions>
      </trkpt>
      <trkpt lat="37.78568143956363201141357421875" lon="-107.703817002475261688232421875">
        <ele>4048.199951171875</ele>
        <time>2023-07-29T16:15:04.000Z</time>
        <extensions>
          <ns3:TrackPointExtension>
            <ns3:hr>130</ns3:hr>
            <ns3:cad>0</ns3:cad>
          </ns3:TrackPointExtension>
        </extensions>
      </trkpt>
      <trkpt lat="37.78568479232490062713623046875" lon="-107.703817673027515411376953125">
        <ele>4048.199951171875</ele>
        <time>2023-07-29T16:15:05.000Z</time>
        <extensions>
          <ns3:TrackPointExtension>
            <ns3:hr>128</ns3:hr>
            <ns3:cad>0</ns3:cad>
          </ns3:TrackPointExtension>
        </extensions>
      </trkpt>
      <trkpt lat="37.78568948619067668914794921875" lon="-107.703818343579769134521484375">
        <ele>4048.39990234375</ele>
        <time>2023-07-29T16:15:06.000Z</time>
        <extensions>
          <ns3:TrackPointExtension>
            <ns3:hr>127</ns3:hr>
            <ns3:cad>0</ns3:cad>
          </ns3:TrackPointExtension>
        </extensions>
      </trkpt>
      <trkpt lat="37.78569585643708705902099609375" lon="-107.70382027141749858856201171875">
        <ele>4048.800048828125</ele>
        <time>2023-07-29T16:15:07.000Z</time>
        <extensions>
          <ns3:TrackPointExtension>
            <ns3:hr>128</ns3:hr>
            <ns3:cad>0</ns3:cad>
          </ns3:TrackPointExtension>
        </extensions>
      </trkpt>
      <trkpt lat="37.7857054956257343292236328125" lon="-107.70382379181683063507080078125">
        <ele>4048.800048828125</ele>
        <time>2023-07-29T16:15:08.000Z</time>
        <extensions>
          <ns3:TrackPointExtension>
            <ns3:hr>128</ns3:hr>
            <ns3:cad>0</ns3:cad>
          </ns3:TrackPointExtension>
        </extensions>
      </trkpt>
      <trkpt lat="37.78570457361638545989990234375" lon="-107.703830413520336151123046875">
        <ele>4049.199951171875</ele>
        <time>2023-07-29T16:15:09.000Z</time>
        <extensions>
          <ns3:TrackPointExtension>
            <ns3:hr>128</ns3:hr>
            <ns3:cad>0</ns3:cad>
          </ns3:TrackPointExtension>
        </extensions>
      </trkpt>
      <trkpt lat="37.78570742346346378326416015625" lon="-107.70382949151098728179931640625">
        <ele>4049.199951171875</ele>
        <time>2023-07-29T16:15:10.000Z</time>
        <extensions>
          <ns3:TrackPointExtension>
            <ns3:hr>128</ns3:hr>
            <ns3:cad>0</ns3:cad>
          </ns3:TrackPointExtension>
        </extensions>
      </trkpt>
      <trkpt lat="37.78571211732923984527587890625" lon="-107.70383535884320735931396484375">
        <ele>4049.39990234375</ele>
        <time>2023-07-29T16:15:11.000Z</time>
        <extensions>
          <ns3:TrackPointExtension>
            <ns3:hr>128</ns3:hr>
            <ns3:cad>0</ns3:cad>
          </ns3:TrackPointExtension>
        </extensions>
      </trkpt>
      <trkpt lat="37.78571882285177707672119140625" lon="-107.7038302458822727203369140625">
        <ele>4049.60009765625</ele>
        <time>2023-07-29T16:15:12.000Z</time>
        <extensions>
          <ns3:TrackPointExtension>
            <ns3:hr>128</ns3:hr>
            <ns3:cad>0</ns3:cad>
          </ns3:TrackPointExtension>
        </extensions>
      </trkpt>
      <trkpt lat="37.78572343289852142333984375" lon="-107.70383133552968502044677734375">
        <ele>4049.800048828125</ele>
        <time>2023-07-29T16:15:13.000Z</time>
        <extensions>
          <ns3:TrackPointExtension>
            <ns3:hr>128</ns3:hr>
            <ns3:cad>0</ns3:cad>
          </ns3:TrackPointExtension>
        </extensions>
      </trkpt>
      <trkpt lat="37.7857360057532787322998046875" lon="-107.70383418537676334381103515625">
        <ele>4050</ele>
        <time>2023-07-29T16:15:14.000Z</time>
        <extensions>
          <ns3:TrackPointExtension>
            <ns3:hr>129</ns3:hr>
            <ns3:cad>0</ns3:cad>
          </ns3:TrackPointExtension>
        </extensions>
      </trkpt>
      <trkpt lat="37.78574413619935512542724609375" lon="-107.703837454319000244140625">
        <ele>4050</ele>
        <time>2023-07-29T16:15:15.000Z</time>
        <extensions>
          <ns3:TrackPointExtension>
            <ns3:hr>129</ns3:hr>
            <ns3:cad>0</ns3:cad>
          </ns3:TrackPointExtension>
        </extensions>
      </trkpt>
      <trkpt lat="37.78575302101671695709228515625" lon="-107.70384239964187145233154296875">
        <ele>4050.199951171875</ele>
        <time>2023-07-29T16:15:16.000Z</time>
        <extensions>
          <ns3:TrackPointExtension>
            <ns3:hr>130</ns3:hr>
            <ns3:cad>0</ns3:cad>
          </ns3:TrackPointExtension>
        </extensions>
      </trkpt>
      <trkpt lat="37.78575821779668331146240234375" lon="-107.70384876988828182220458984375">
        <ele>4050.39990234375</ele>
        <time>2023-07-29T16:15:17.000Z</time>
        <extensions>
          <ns3:TrackPointExtension>
            <ns3:hr>130</ns3:hr>
            <ns3:cad>0</ns3:cad>
          </ns3:TrackPointExtension>
        </extensions>
      </trkpt>
      <trkpt lat="37.7857651747763156890869140625" lon="-107.7038537152111530303955078125">
        <ele>4050.60009765625</ele>
        <time>2023-07-29T16:15:18.000Z</time>
        <extensions>
          <ns3:TrackPointExtension>
            <ns3:hr>131</ns3:hr>
            <ns3:cad>0</ns3:cad>
          </ns3:TrackPointExtension>
        </extensions>
      </trkpt>
      <trkpt lat="37.7857745625078678131103515625" lon="-107.70386402495205402374267578125">
        <ele>4050.800048828125</ele>
        <time>2023-07-29T16:15:19.000Z</time>
        <extensions>
          <ns3:TrackPointExtension>
            <ns3:hr>131</ns3:hr>
            <ns3:cad>0</ns3:cad>
          </ns3:TrackPointExtension>
        </extensions>
      </trkpt>
      <trkpt lat="37.78578219003975391387939453125" lon="-107.70386368967592716217041015625">
        <ele>4051</ele>
        <time>2023-07-29T16:15:20.000Z</time>
        <extensions>
          <ns3:TrackPointExtension>
            <ns3:hr>131</ns3:hr>
            <ns3:cad>0</ns3:cad>
          </ns3:TrackPointExtension>
        </extensions>
      </trkpt>
      <trkpt lat="37.78578839264810085296630859375" lon="-107.70386251620948314666748046875">
        <ele>4051.199951171875</ele>
        <time>2023-07-29T16:15:21.000Z</time>
        <extensions>
          <ns3:TrackPointExtension>
            <ns3:hr>132</ns3:hr>
            <ns3:cad>0</ns3:cad>
          </ns3:TrackPointExtension>
        </extensions>
      </trkpt>
      <trkpt lat="37.78578604571521282196044921875" lon="-107.7038627676665782928466796875">
        <ele>4051.39990234375</ele>
        <time>2023-07-29T16:15:22.000Z</time>
        <extensions>
          <ns3:TrackPointExtension>
            <ns3:hr>132</ns3:hr>
            <ns3:cad>0</ns3:cad>
          </ns3:TrackPointExtension>
        </extensions>
      </trkpt>
      <trkpt lat="37.78578621335327625274658203125" lon="-107.7038600854575634002685546875">
        <ele>4051.60009765625</ele>
        <time>2023-07-29T16:15:23.000Z</time>
        <extensions>
          <ns3:TrackPointExtension>
            <ns3:hr>132</ns3:hr>
            <ns3:cad>0</ns3:cad>
          </ns3:TrackPointExtension>
        </extensions>
      </trkpt>
      <trkpt lat="37.78578487224876880645751953125" lon="-107.7038594149053096771240234375">
        <ele>4051.60009765625</ele>
        <time>2023-07-29T16:15:24.000Z</time>
        <extensions>
          <ns3:TrackPointExtension>
            <ns3:hr>133</ns3:hr>
            <ns3:cad>0</ns3:cad>
          </ns3:TrackPointExtension>
        </extensions>
      </trkpt>
      <trkpt lat="37.78578369878232479095458984375" lon="-107.703860588371753692626953125">
        <ele>4051.800048828125</ele>
        <time>2023-07-29T16:15:25.000Z</time>
        <extensions>
          <ns3:TrackPointExtension>
            <ns3:hr>133</ns3:hr>
            <ns3:cad>0</ns3:cad>
          </ns3:TrackPointExtension>
        </extensions>
      </trkpt>
      <trkpt lat="37.78578302823007106781005859375" lon="-107.70386218093335628509521484375">
        <ele>4052</ele>
        <time>2023-07-29T16:15:26.000Z</time>
        <extensions>
          <ns3:TrackPointExtension>
            <ns3:hr>133</ns3:hr>
            <ns3:cad>0</ns3:cad>
          </ns3:TrackPointExtension>
        </extensions>
      </trkpt>
      <trkpt lat="37.785786800086498260498046875" lon="-107.70386226475238800048828125">
        <ele>4052.199951171875</ele>
        <time>2023-07-29T16:15:27.000Z</time>
        <extensions>
          <ns3:TrackPointExtension>
            <ns3:hr>134</ns3:hr>
            <ns3:cad>0</ns3:cad>
          </ns3:TrackPointExtension>
        </extensions>
      </trkpt>
      <trkpt lat="37.78578872792422771453857421875" lon="-107.70386335439980030059814453125">
        <ele>4052.60009765625</ele>
        <time>2023-07-29T16:15:28.000Z</time>
        <extensions>
          <ns3:TrackPointExtension>
            <ns3:hr>134</ns3:hr>
            <ns3:cad>0</ns3:cad>
          </ns3:TrackPointExtension>
        </extensions>
      </trkpt>
      <trkpt lat="37.785794846713542938232421875" lon="-107.70386737771332263946533203125">
        <ele>4052.60009765625</ele>
        <time>2023-07-29T16:15:29.000Z</time>
        <extensions>
          <ns3:TrackPointExtension>
            <ns3:hr>134</ns3:hr>
            <ns3:cad>0</ns3:cad>
          </ns3:TrackPointExtension>
        </extensions>
      </trkpt>
      <trkpt lat="37.78580113314092159271240234375" lon="-107.70387374795973300933837890625">
        <ele>4052.60009765625</ele>
        <time>2023-07-29T16:15:30.000Z</time>
        <extensions>
          <ns3:TrackPointExtension>
            <ns3:hr>135</ns3:hr>
            <ns3:cad>0</ns3:cad>
          </ns3:TrackPointExtension>
        </extensions>
      </trkpt>
      <trkpt lat="37.7858059108257293701171875" lon="-107.7038795314729213714599609375">
        <ele>4052.800048828125</ele>
        <time>2023-07-29T16:15:31.000Z</time>
        <extensions>
          <ns3:TrackPointExtension>
            <ns3:hr>135</ns3:hr>
            <ns3:cad>0</ns3:cad>
          </ns3:TrackPointExtension>
        </extensions>
      </trkpt>
      <trkpt lat="37.78581286780536174774169921875" lon="-107.70388900302350521087646484375">
        <ele>4052.800048828125</ele>
        <time>2023-07-29T16:15:32.000Z</time>
        <extensions>
          <ns3:TrackPointExtension>
            <ns3:hr>136</ns3:hr>
            <ns3:cad>0</ns3:cad>
          </ns3:TrackPointExtension>
        </extensions>
      </trkpt>
      <trkpt lat="37.7858201600611209869384765625" lon="-107.7038966305553913116455078125">
        <ele>4053</ele>
        <time>2023-07-29T16:15:33.000Z</time>
        <extensions>
          <ns3:TrackPointExtension>
            <ns3:hr>136</ns3:hr>
            <ns3:cad>0</ns3:cad>
          </ns3:TrackPointExtension>
        </extensions>
      </trkpt>
      <trkpt lat="37.7858255244791507720947265625" lon="-107.70390249788761138916015625">
        <ele>4053</ele>
        <time>2023-07-29T16:15:34.000Z</time>
        <extensions>
          <ns3:TrackPointExtension>
            <ns3:hr>136</ns3:hr>
            <ns3:cad>0</ns3:cad>
          </ns3:TrackPointExtension>
        </extensions>
      </trkpt>
      <trkpt lat="37.7858340740203857421875" lon="-107.7039093710482120513916015625">
        <ele>4053.199951171875</ele>
        <time>2023-07-29T16:15:35.000Z</time>
        <extensions>
          <ns3:TrackPointExtension>
            <ns3:hr>136</ns3:hr>
            <ns3:cad>0</ns3:cad>
          </ns3:TrackPointExtension>
        </extensions>
      </trkpt>
      <trkpt lat="37.78583918698132038116455078125" lon="-107.70390995778143405914306640625">
        <ele>4053.39990234375</ele>
        <time>2023-07-29T16:15:36.000Z</time>
        <extensions>
          <ns3:TrackPointExtension>
            <ns3:hr>136</ns3:hr>
            <ns3:cad>0</ns3:cad>
          </ns3:TrackPointExtension>
        </extensions>
      </trkpt>
      <trkpt lat="37.78584371320903301239013671875" lon="-107.7039103768765926361083984375">
        <ele>4053.39990234375</ele>
        <time>2023-07-29T16:15:37.000Z</time>
        <extensions>
          <ns3:TrackPointExtension>
            <ns3:hr>135</ns3:hr>
            <ns3:cad>79</ns3:cad>
          </ns3:TrackPointExtension>
        </extensions>
      </trkpt>
      <trkpt lat="37.78585511259734630584716796875" lon="-107.703914232552051544189453125">
        <ele>4053.60009765625</ele>
        <time>2023-07-29T16:15:38.000Z</time>
        <extensions>
          <ns3:TrackPointExtension>
            <ns3:hr>135</ns3:hr>
            <ns3:cad>79</ns3:cad>
          </ns3:TrackPointExtension>
        </extensions>
      </trkpt>
      <trkpt lat="37.78586366213858127593994140625" lon="-107.70391683094203472137451171875">
        <ele>4053.60009765625</ele>
        <time>2023-07-29T16:15:39.000Z</time>
        <extensions>
          <ns3:TrackPointExtension>
            <ns3:hr>135</ns3:hr>
            <ns3:cad>79</ns3:cad>
          </ns3:TrackPointExtension>
        </extensions>
      </trkpt>
      <trkpt lat="37.78587472625076770782470703125" lon="-107.703914232552051544189453125">
        <ele>4053.60009765625</ele>
        <time>2023-07-29T16:15:40.000Z</time>
        <extensions>
          <ns3:TrackPointExtension>
            <ns3:hr>135</ns3:hr>
            <ns3:cad>79</ns3:cad>
          </ns3:TrackPointExtension>
        </extensions>
      </trkpt>
      <trkpt lat="37.78588444925844669342041015625" lon="-107.70390710793435573577880859375">
        <ele>4053.60009765625</ele>
        <time>2023-07-29T16:15:41.000Z</time>
        <extensions>
          <ns3:TrackPointExtension>
            <ns3:hr>136</ns3:hr>
            <ns3:cad>79</ns3:cad>
          </ns3:TrackPointExtension>
        </extensions>
      </trkpt>
      <trkpt lat="37.785887382924556732177734375" lon="-107.703905515372753143310546875">
        <ele>4053.60009765625</ele>
        <time>2023-07-29T16:15:42.000Z</time>
        <extensions>
          <ns3:TrackPointExtension>
            <ns3:hr>136</ns3:hr>
            <ns3:cad>79</ns3:cad>
          </ns3:TrackPointExtension>
        </extensions>
      </trkpt>
      <trkpt lat="37.7858966030180454254150390625" lon="-107.703901827335357666015625">
        <ele>4053.60009765625</ele>
        <time>2023-07-29T16:15:43.000Z</time>
        <extensions>
          <ns3:TrackPointExtension>
            <ns3:hr>136</ns3:hr>
            <ns3:cad>79</ns3:cad>
          </ns3:TrackPointExtension>
        </extensions>
      </trkpt>
      <trkpt lat="37.785906493663787841796875" lon="-107.70389847457408905029296875">
        <ele>4053.800048828125</ele>
        <time>2023-07-29T16:15:44.000Z</time>
        <extensions>
          <ns3:TrackPointExtension>
            <ns3:hr>135</ns3:hr>
            <ns3:cad>79</ns3:cad>
          </ns3:TrackPointExtension>
        </extensions>
      </trkpt>
      <trkpt lat="37.785908840596675872802734375" lon="-107.703899480402469635009765625">
        <ele>4054</ele>
        <time>2023-07-29T16:15:45.000Z</time>
        <extensions>
          <ns3:TrackPointExtension>
            <ns3:hr>135</ns3:hr>
            <ns3:cad>79</ns3:cad>
          </ns3:TrackPointExtension>
        </extensions>
      </trkpt>
      <trkpt lat="37.78591210953891277313232421875" lon="-107.7038979716598987579345703125">
        <ele>4054</ele>
        <time>2023-07-29T16:15:46.000Z</time>
        <extensions>
          <ns3:TrackPointExtension>
            <ns3:hr>134</ns3:hr>
            <ns3:cad>79</ns3:cad>
          </ns3:TrackPointExtension>
        </extensions>
      </trkpt>
      <trkpt lat="37.78591747395694255828857421875" lon="-107.70389981567859649658203125">
        <ele>4054.199951171875</ele>
        <time>2023-07-29T16:15:47.000Z</time>
        <extensions>
          <ns3:TrackPointExtension>
            <ns3:hr>134</ns3:hr>
            <ns3:cad>76</ns3:cad>
          </ns3:TrackPointExtension>
        </extensions>
      </trkpt>
      <trkpt lat="37.78591780923306941986083984375" lon="-107.70390593446791172027587890625">
        <ele>4054.60009765625</ele>
        <time>2023-07-29T16:15:48.000Z</time>
        <extensions>
          <ns3:TrackPointExtension>
            <ns3:hr>134</ns3:hr>
            <ns3:cad>76</ns3:cad>
          </ns3:TrackPointExtension>
        </extensions>
      </trkpt>
      <trkpt lat="37.7859234251081943511962890625" lon="-107.70390694029629230499267578125">
        <ele>4054.800048828125</ele>
        <time>2023-07-29T16:15:49.000Z</time>
        <extensions>
          <ns3:TrackPointExtension>
            <ns3:hr>134</ns3:hr>
            <ns3:cad>76</ns3:cad>
          </ns3:TrackPointExtension>
        </extensions>
      </trkpt>
      <trkpt lat="37.7859267778694629669189453125" lon="-107.70390945486724376678466796875">
        <ele>4055</ele>
        <time>2023-07-29T16:15:50.000Z</time>
        <extensions>
          <ns3:TrackPointExtension>
            <ns3:hr>135</ns3:hr>
            <ns3:cad>76</ns3:cad>
          </ns3:TrackPointExtension>
        </extensions>
      </trkpt>
      <trkpt lat="37.785929627716541290283203125" lon="-107.70391314290463924407958984375">
        <ele>4055.199951171875</ele>
        <time>2023-07-29T16:15:51.000Z</time>
        <extensions>
          <ns3:TrackPointExtension>
            <ns3:hr>135</ns3:hr>
            <ns3:cad>76</ns3:cad>
          </ns3:TrackPointExtension>
        </extensions>
      </trkpt>
      <trkpt lat="37.78593407012522220611572265625" lon="-107.7039137296378612518310546875">
        <ele>4055.199951171875</ele>
        <time>2023-07-29T16:15:52.000Z</time>
        <extensions>
          <ns3:TrackPointExtension>
            <ns3:hr>135</ns3:hr>
            <ns3:cad>76</ns3:cad>
          </ns3:TrackPointExtension>
        </extensions>
      </trkpt>
      <trkpt lat="37.7859391830861568450927734375" lon="-107.703910879790782928466796875">
        <ele>4055.199951171875</ele>
        <time>2023-07-29T16:15:53.000Z</time>
        <extensions>
          <ns3:TrackPointExtension>
            <ns3:hr>135</ns3:hr>
            <ns3:cad>76</ns3:cad>
          </ns3:TrackPointExtension>
        </extensions>
      </trkpt>
      <trkpt lat="37.78594396077096462249755859375" lon="-107.70390962250530719757080078125">
        <ele>4055.199951171875</ele>
        <time>2023-07-29T16:15:54.000Z</time>
        <extensions>
          <ns3:TrackPointExtension>
            <ns3:hr>135</ns3:hr>
            <ns3:cad>0</ns3:cad>
          </ns3:TrackPointExtension>
        </extensions>
      </trkpt>
      <trkpt lat="37.7859489060938358306884765625" lon="-107.70390777848660945892333984375">
        <ele>4055.199951171875</ele>
        <time>2023-07-29T16:15:55.000Z</time>
        <extensions>
          <ns3:TrackPointExtension>
            <ns3:hr>135</ns3:hr>
            <ns3:cad>0</ns3:cad>
          </ns3:TrackPointExtension>
        </extensions>
      </trkpt>
      <trkpt lat="37.78595821000635623931884765625" lon="-107.70390626974403858184814453125">
        <ele>4055.39990234375</ele>
        <time>2023-07-29T16:15:56.000Z</time>
        <extensions>
          <ns3:TrackPointExtension>
            <ns3:hr>135</ns3:hr>
            <ns3:cad>0</ns3:cad>
          </ns3:TrackPointExtension>
        </extensions>
      </trkpt>
      <trkpt lat="37.7859639935195446014404296875" lon="-107.70389989949762821197509765625">
        <ele>4055.39990234375</ele>
        <time>2023-07-29T16:15:57.000Z</time>
        <extensions>
          <ns3:TrackPointExtension>
            <ns3:hr>134</ns3:hr>
            <ns3:cad>0</ns3:cad>
          </ns3:TrackPointExtension>
        </extensions>
      </trkpt>
      <trkpt lat="37.7859582938253879547119140625" lon="-107.703902162611484527587890625">
        <ele>4055.39990234375</ele>
        <time>2023-07-29T16:15:58.000Z</time>
        <extensions>
          <ns3:TrackPointExtension>
            <ns3:hr>133</ns3:hr>
            <ns3:cad>0</ns3:cad>
          </ns3:TrackPointExtension>
        </extensions>
      </trkpt>
      <trkpt lat="37.78595745563507080078125" lon="-107.70390224643051624298095703125">
        <ele>4055.60009765625</ele>
        <time>2023-07-29T16:15:59.000Z</time>
        <extensions>
          <ns3:TrackPointExtension>
            <ns3:hr>132</ns3:hr>
            <ns3:cad>0</ns3:cad>
          </ns3:TrackPointExtension>
        </extensions>
      </trkpt>
      <trkpt lat="37.78595586307346820831298828125" lon="-107.70390241406857967376708984375">
        <ele>4055.60009765625</ele>
        <time>2023-07-29T16:16:00.000Z</time>
        <extensions>
          <ns3:TrackPointExtension>
            <ns3:hr>132</ns3:hr>
            <ns3:cad>0</ns3:cad>
          </ns3:TrackPointExtension>
        </extensions>
      </trkpt>
      <trkpt lat="37.78595904819667339324951171875" lon="-107.70390249788761138916015625">
        <ele>4055.60009765625</ele>
        <time>2023-07-29T16:16:01.000Z</time>
        <extensions>
          <ns3:TrackPointExtension>
            <ns3:hr>132</ns3:hr>
            <ns3:cad>0</ns3:cad>
          </ns3:TrackPointExtension>
        </extensions>
      </trkpt>
      <trkpt lat="37.78596407733857631683349609375" lon="-107.703899480402469635009765625">
        <ele>4055.60009765625</ele>
        <time>2023-07-29T16:16:02.000Z</time>
        <extensions>
          <ns3:TrackPointExtension>
            <ns3:hr>132</ns3:hr>
            <ns3:cad>0</ns3:cad>
          </ns3:TrackPointExtension>
        </extensions>
      </trkpt>
      <trkpt lat="37.78596885502338409423828125" lon="-107.7038991451263427734375">
        <ele>4055.60009765625</ele>
        <time>2023-07-29T16:16:03.000Z</time>
        <extensions>
          <ns3:TrackPointExtension>
            <ns3:hr>132</ns3:hr>
            <ns3:cad>0</ns3:cad>
          </ns3:TrackPointExtension>
        </extensions>
      </trkpt>
      <trkpt lat="37.78597128577530384063720703125" lon="-107.70390140824019908905029296875">
        <ele>4055.800048828125</ele>
        <time>2023-07-29T16:16:04.000Z</time>
        <extensions>
          <ns3:TrackPointExtension>
            <ns3:hr>132</ns3:hr>
            <ns3:cad>0</ns3:cad>
          </ns3:TrackPointExtension>
        </extensions>
      </trkpt>
      <trkpt lat="37.7859703637659549713134765625" lon="-107.70390425808727741241455078125">
        <ele>4056</ele>
        <time>2023-07-29T16:16:05.000Z</time>
        <extensions>
          <ns3:TrackPointExtension>
            <ns3:hr>132</ns3:hr>
            <ns3:cad>0</ns3:cad>
          </ns3:TrackPointExtension>
        </extensions>
      </trkpt>
      <trkpt lat="37.78597145341336727142333984375" lon="-107.70390710793435573577880859375">
        <ele>4056</ele>
        <time>2023-07-29T16:16:06.000Z</time>
        <extensions>
          <ns3:TrackPointExtension>
            <ns3:hr>132</ns3:hr>
            <ns3:cad>0</ns3:cad>
          </ns3:TrackPointExtension>
        </extensions>
      </trkpt>
      <trkpt lat="37.785974554717540740966796875" lon="-107.70390962250530719757080078125">
        <ele>4056</ele>
        <time>2023-07-29T16:16:07.000Z</time>
        <extensions>
          <ns3:TrackPointExtension>
            <ns3:hr>132</ns3:hr>
            <ns3:cad>0</ns3:cad>
          </ns3:TrackPointExtension>
        </extensions>
      </trkpt>
      <trkpt lat="37.78597447089850902557373046875" lon="-107.703910879790782928466796875">
        <ele>4056.199951171875</ele>
        <time>2023-07-29T16:16:08.000Z</time>
        <extensions>
          <ns3:TrackPointExtension>
            <ns3:hr>132</ns3:hr>
            <ns3:cad>0</ns3:cad>
          </ns3:TrackPointExtension>
        </extensions>
      </trkpt>
      <trkpt lat="37.78597681783139705657958984375" lon="-107.70391431637108325958251953125">
        <ele>4056.199951171875</ele>
        <time>2023-07-29T16:16:09.000Z</time>
        <extensions>
          <ns3:TrackPointExtension>
            <ns3:hr>132</ns3:hr>
            <ns3:cad>0</ns3:cad>
          </ns3:TrackPointExtension>
        </extensions>
      </trkpt>
      <trkpt lat="37.7859834395349025726318359375" lon="-107.7039211057126522064208984375">
        <ele>4056.39990234375</ele>
        <time>2023-07-29T16:16:10.000Z</time>
        <extensions>
          <ns3:TrackPointExtension>
            <ns3:hr>132</ns3:hr>
            <ns3:cad>0</ns3:cad>
          </ns3:TrackPointExtension>
        </extensions>
      </trkpt>
      <trkpt lat="37.7859851159155368804931640625" lon="-107.703924290835857391357421875">
        <ele>4056.39990234375</ele>
        <time>2023-07-29T16:16:11.000Z</time>
        <extensions>
          <ns3:TrackPointExtension>
            <ns3:hr>132</ns3:hr>
            <ns3:cad>0</ns3:cad>
          </ns3:TrackPointExtension>
        </extensions>
      </trkpt>
      <trkpt lat="37.78599031269550323486328125" lon="-107.7039234526455402374267578125">
        <ele>4056.39990234375</ele>
        <time>2023-07-29T16:16:12.000Z</time>
        <extensions>
          <ns3:TrackPointExtension>
            <ns3:hr>132</ns3:hr>
            <ns3:cad>0</ns3:cad>
          </ns3:TrackPointExtension>
        </extensions>
      </trkpt>
      <trkpt lat="37.78599458746612071990966796875" lon="-107.70392336882650852203369140625">
        <ele>4056.39990234375</ele>
        <time>2023-07-29T16:16:13.000Z</time>
        <extensions>
          <ns3:TrackPointExtension>
            <ns3:hr>132</ns3:hr>
            <ns3:cad>0</ns3:cad>
          </ns3:TrackPointExtension>
        </extensions>
      </trkpt>
      <trkpt lat="37.78599961660802364349365234375" lon="-107.703930325806140899658203125">
        <ele>4056.39990234375</ele>
        <time>2023-07-29T16:16:14.000Z</time>
        <extensions>
          <ns3:TrackPointExtension>
            <ns3:hr>132</ns3:hr>
            <ns3:cad>0</ns3:cad>
          </ns3:TrackPointExtension>
        </extensions>
      </trkpt>
      <trkpt lat="37.78600146062672138214111328125" lon="-107.70393242128193378448486328125">
        <ele>4056.39990234375</ele>
        <time>2023-07-29T16:16:15.000Z</time>
        <extensions>
          <ns3:TrackPointExtension>
            <ns3:hr>131</ns3:hr>
            <ns3:cad>0</ns3:cad>
          </ns3:TrackPointExtension>
        </extensions>
      </trkpt>
      <trkpt lat="37.7859991975128650665283203125" lon="-107.70392931997776031494140625">
        <ele>4056.199951171875</ele>
        <time>2023-07-29T16:16:16.000Z</time>
        <extensions>
          <ns3:TrackPointExtension>
            <ns3:hr>131</ns3:hr>
            <ns3:cad>0</ns3:cad>
          </ns3:TrackPointExtension>
        </extensions>
      </trkpt>
      <trkpt lat="37.78599542565643787384033203125" lon="-107.7039164118468761444091796875">
        <ele>4056.199951171875</ele>
        <time>2023-07-29T16:16:17.000Z</time>
        <extensions>
          <ns3:TrackPointExtension>
            <ns3:hr>131</ns3:hr>
            <ns3:cad>0</ns3:cad>
          </ns3:TrackPointExtension>
        </extensions>
      </trkpt>
      <trkpt lat="37.7859898097813129425048828125" lon="-107.70390425808727741241455078125">
        <ele>4056.199951171875</ele>
        <time>2023-07-29T16:16:18.000Z</time>
        <extensions>
          <ns3:TrackPointExtension>
            <ns3:hr>130</ns3:hr>
            <ns3:cad>0</ns3:cad>
          </ns3:TrackPointExtension>
        </extensions>
      </trkpt>
      <trkpt lat="37.78598360717296600341796875" lon="-107.70389906130731105804443359375">
        <ele>4056.199951171875</ele>
        <time>2023-07-29T16:16:19.000Z</time>
        <extensions>
          <ns3:TrackPointExtension>
            <ns3:hr>129</ns3:hr>
            <ns3:cad>0</ns3:cad>
          </ns3:TrackPointExtension>
        </extensions>
      </trkpt>
      <trkpt lat="37.78597732074558734893798828125" lon="-107.7038936130702495574951171875">
        <ele>4056.199951171875</ele>
        <time>2023-07-29T16:16:20.000Z</time>
        <extensions>
          <ns3:TrackPointExtension>
            <ns3:hr>129</ns3:hr>
            <ns3:cad>0</ns3:cad>
          </ns3:TrackPointExtension>
        </extensions>
      </trkpt>
      <trkpt lat="37.7859747223556041717529296875" lon="-107.70389134995639324188232421875">
        <ele>4056</ele>
        <time>2023-07-29T16:16:21.000Z</time>
        <extensions>
          <ns3:TrackPointExtension>
            <ns3:hr>128</ns3:hr>
            <ns3:cad>0</ns3:cad>
          </ns3:TrackPointExtension>
        </extensions>
      </trkpt>
      <trkpt lat="37.785976231098175048828125" lon="-107.70389922894537448883056640625">
        <ele>4056</ele>
        <time>2023-07-29T16:16:22.000Z</time>
        <extensions>
          <ns3:TrackPointExtension>
            <ns3:hr>127</ns3:hr>
            <ns3:cad>0</ns3:cad>
          </ns3:TrackPointExtension>
        </extensions>
      </trkpt>
      <trkpt lat="37.7859784103929996490478515625" lon="-107.7039066888391971588134765625">
        <ele>4055.800048828125</ele>
        <time>2023-07-29T16:16:23.000Z</time>
        <extensions>
          <ns3:TrackPointExtension>
            <ns3:hr>127</ns3:hr>
            <ns3:cad>0</ns3:cad>
          </ns3:TrackPointExtension>
        </extensions>
      </trkpt>
      <trkpt lat="37.78597824275493621826171875" lon="-107.70390895195305347442626953125">
        <ele>4055.800048828125</ele>
        <time>2023-07-29T16:16:24.000Z</time>
        <extensions>
          <ns3:TrackPointExtension>
            <ns3:hr>127</ns3:hr>
            <ns3:cad>0</ns3:cad>
          </ns3:TrackPointExtension>
        </extensions>
      </trkpt>
      <trkpt lat="37.7859810926020145416259765625" lon="-107.70391129888594150543212890625">
        <ele>4055.800048828125</ele>
        <time>2023-07-29T16:16:25.000Z</time>
        <extensions>
          <ns3:TrackPointExtension>
            <ns3:hr>126</ns3:hr>
            <ns3:cad>0</ns3:cad>
          </ns3:TrackPointExtension>
        </extensions>
      </trkpt>
      <trkpt lat="37.7859814278781414031982421875" lon="-107.70391398109495639801025390625">
        <ele>4055.60009765625</ele>
        <time>2023-07-29T16:16:26.000Z</time>
        <extensions>
          <ns3:TrackPointExtension>
            <ns3:hr>126</ns3:hr>
            <ns3:cad>0</ns3:cad>
          </ns3:TrackPointExtension>
        </extensions>
      </trkpt>
      <trkpt lat="37.78597899712622165679931640625" lon="-107.70391188561916351318359375">
        <ele>4055.60009765625</ele>
        <time>2023-07-29T16:16:27.000Z</time>
        <extensions>
          <ns3:TrackPointExtension>
            <ns3:hr>125</ns3:hr>
            <ns3:cad>0</ns3:cad>
          </ns3:TrackPointExtension>
        </extensions>
      </trkpt>
      <trkpt lat="37.7859787456691265106201171875" lon="-107.7039019949734210968017578125">
        <ele>4055.39990234375</ele>
        <time>2023-07-29T16:16:28.000Z</time>
        <extensions>
          <ns3:TrackPointExtension>
            <ns3:hr>124</ns3:hr>
            <ns3:cad>0</ns3:cad>
          </ns3:TrackPointExtension>
        </extensions>
      </trkpt>
      <trkpt lat="37.78598821721971035003662109375" lon="-107.70386218093335628509521484375">
        <ele>4055.39990234375</ele>
        <time>2023-07-29T16:16:29.000Z</time>
        <extensions>
          <ns3:TrackPointExtension>
            <ns3:hr>123</ns3:hr>
            <ns3:cad>0</ns3:cad>
          </ns3:TrackPointExtension>
        </extensions>
      </trkpt>
      <trkpt lat="37.78598402626812458038330078125" lon="-107.703850530087947845458984375">
        <ele>4055.39990234375</ele>
        <time>2023-07-29T16:16:30.000Z</time>
        <extensions>
          <ns3:TrackPointExtension>
            <ns3:hr>120</ns3:hr>
            <ns3:cad>0</ns3:cad>
          </ns3:TrackPointExtension>
        </extensions>
      </trkpt>
      <trkpt lat="37.78598318807780742645263671875" lon="-107.7038456685841083526611328125">
        <ele>4055.199951171875</ele>
        <time>2023-07-29T16:16:31.000Z</time>
        <extensions>
          <ns3:TrackPointExtension>
            <ns3:hr>119</ns3:hr>
            <ns3:cad>0</ns3:cad>
          </ns3:TrackPointExtension>
        </extensions>
      </trkpt>
      <trkpt lat="37.785981260240077972412109375" lon="-107.7038543857634067535400390625">
        <ele>4055.199951171875</ele>
        <time>2023-07-29T16:16:32.000Z</time>
        <extensions>
          <ns3:TrackPointExtension>
            <ns3:hr>118</ns3:hr>
            <ns3:cad>0</ns3:cad>
          </ns3:TrackPointExtension>
        </extensions>
      </trkpt>
      <trkpt lat="37.785976231098175048828125" lon="-107.70386100746691226959228515625">
        <ele>4055.199951171875</ele>
        <time>2023-07-29T16:16:33.000Z</time>
        <extensions>
          <ns3:TrackPointExtension>
            <ns3:hr>116</ns3:hr>
            <ns3:cad>0</ns3:cad>
          </ns3:TrackPointExtension>
        </extensions>
      </trkpt>
      <trkpt lat="37.78597011230885982513427734375" lon="-107.7038651145994663238525390625">
        <ele>4055.199951171875</ele>
        <time>2023-07-29T16:16:34.000Z</time>
        <extensions>
          <ns3:TrackPointExtension>
            <ns3:hr>114</ns3:hr>
            <ns3:cad>0</ns3:cad>
          </ns3:TrackPointExtension>
        </extensions>
      </trkpt>
      <trkpt lat="37.785969190299510955810546875" lon="-107.703875005245208740234375">
        <ele>4055.199951171875</ele>
        <time>2023-07-29T16:16:35.000Z</time>
        <extensions>
          <ns3:TrackPointExtension>
            <ns3:hr>114</ns3:hr>
            <ns3:cad>0</ns3:cad>
          </ns3:TrackPointExtension>
        </extensions>
      </trkpt>
      <trkpt lat="37.7859680168330669403076171875" lon="-107.70387743599712848663330078125">
        <ele>4055.199951171875</ele>
        <time>2023-07-29T16:16:36.000Z</time>
        <extensions>
          <ns3:TrackPointExtension>
            <ns3:hr>113</ns3:hr>
            <ns3:cad>0</ns3:cad>
          </ns3:TrackPointExtension>
        </extensions>
      </trkpt>
      <trkpt lat="37.7859670110046863555908203125" lon="-107.70388179458677768707275390625">
        <ele>4055</ele>
        <time>2023-07-29T16:16:37.000Z</time>
        <extensions>
          <ns3:TrackPointExtension>
            <ns3:hr>113</ns3:hr>
            <ns3:cad>0</ns3:cad>
          </ns3:TrackPointExtension>
        </extensions>
      </trkpt>
      <trkpt lat="37.78597061522305011749267578125" lon="-107.70387559197843074798583984375">
        <ele>4054.800048828125</ele>
        <time>2023-07-29T16:16:38.000Z</time>
        <extensions>
          <ns3:TrackPointExtension>
            <ns3:hr>113</ns3:hr>
            <ns3:cad>0</ns3:cad>
          </ns3:TrackPointExtension>
        </extensions>
      </trkpt>
      <trkpt lat="37.7859700284898281097412109375" lon="-107.70387575961649417877197265625">
        <ele>4054.800048828125</ele>
        <time>2023-07-29T16:16:39.000Z</time>
        <extensions>
          <ns3:TrackPointExtension>
            <ns3:hr>113</ns3:hr>
            <ns3:cad>0</ns3:cad>
          </ns3:TrackPointExtension>
        </extensions>
      </trkpt>
      <trkpt lat="37.785968519747257232666015625" lon="-107.70387760363519191741943359375">
        <ele>4054.800048828125</ele>
        <time>2023-07-29T16:16:40.000Z</time>
        <extensions>
          <ns3:TrackPointExtension>
            <ns3:hr>113</ns3:hr>
            <ns3:cad>0</ns3:cad>
          </ns3:TrackPointExtension>
        </extensions>
      </trkpt>
      <trkpt lat="37.785967849195003509521484375" lon="-107.703880369663238525390625">
        <ele>4054.800048828125</ele>
        <time>2023-07-29T16:16:41.000Z</time>
        <extensions>
          <ns3:TrackPointExtension>
            <ns3:hr>113</ns3:hr>
            <ns3:cad>0</ns3:cad>
          </ns3:TrackPointExtension>
        </extensions>
      </trkpt>
      <trkpt lat="37.785965837538242340087890625" lon="-107.7038825489580631256103515625">
        <ele>4055</ele>
        <time>2023-07-29T16:16:42.000Z</time>
        <extensions>
          <ns3:TrackPointExtension>
            <ns3:hr>114</ns3:hr>
            <ns3:cad>0</ns3:cad>
          </ns3:TrackPointExtension>
        </extensions>
      </trkpt>
      <trkpt lat="37.78596307151019573211669921875" lon="-107.70388447679579257965087890625">
        <ele>4055</ele>
        <time>2023-07-29T16:16:43.000Z</time>
        <extensions>
          <ns3:TrackPointExtension>
            <ns3:hr>113</ns3:hr>
            <ns3:cad>0</ns3:cad>
          </ns3:TrackPointExtension>
        </extensions>
      </trkpt>
      <trkpt lat="37.7859649993479251861572265625" lon="-107.70388196222484111785888671875">
        <ele>4055</ele>
        <time>2023-07-29T16:16:44.000Z</time>
        <extensions>
          <ns3:TrackPointExtension>
            <ns3:hr>113</ns3:hr>
            <ns3:cad>0</ns3:cad>
          </ns3:TrackPointExtension>
        </extensions>
      </trkpt>
      <trkpt lat="37.7859633229672908782958984375" lon="-107.70388481207191944122314453125">
        <ele>4055.199951171875</ele>
        <time>2023-07-29T16:16:45.000Z</time>
        <extensions>
          <ns3:TrackPointExtension>
            <ns3:hr>113</ns3:hr>
            <ns3:cad>0</ns3:cad>
          </ns3:TrackPointExtension>
        </extensions>
      </trkpt>
      <trkpt lat="37.78596483170986175537109375" lon="-107.70388565026223659515380859375">
        <ele>4055.199951171875</ele>
        <time>2023-07-29T16:16:46.000Z</time>
        <extensions>
          <ns3:TrackPointExtension>
            <ns3:hr>112</ns3:hr>
            <ns3:cad>0</ns3:cad>
          </ns3:TrackPointExtension>
        </extensions>
      </trkpt>
      <trkpt lat="37.78596675954759120941162109375" lon="-107.70388833247125148773193359375">
        <ele>4055</ele>
        <time>2023-07-29T16:16:47.000Z</time>
        <extensions>
          <ns3:TrackPointExtension>
            <ns3:hr>112</ns3:hr>
            <ns3:cad>0</ns3:cad>
          </ns3:TrackPointExtension>
        </extensions>
      </trkpt>
      <trkpt lat="37.7859666757285594940185546875" lon="-107.7038926072418689727783203125">
        <ele>4055</ele>
        <time>2023-07-29T16:16:48.000Z</time>
        <extensions>
          <ns3:TrackPointExtension>
            <ns3:hr>112</ns3:hr>
            <ns3:cad>0</ns3:cad>
          </ns3:TrackPointExtension>
        </extensions>
      </trkpt>
      <trkpt lat="37.7859660051763057708740234375" lon="-107.70390040241181850433349609375">
        <ele>4055</ele>
        <time>2023-07-29T16:16:49.000Z</time>
        <extensions>
          <ns3:TrackPointExtension>
            <ns3:hr>110</ns3:hr>
            <ns3:cad>0</ns3:cad>
          </ns3:TrackPointExtension>
        </extensions>
      </trkpt>
      <trkpt lat="37.78596944175660610198974609375" lon="-107.70389922894537448883056640625">
        <ele>4055</ele>
        <time>2023-07-29T16:16:50.000Z</time>
        <extensions>
          <ns3:TrackPointExtension>
            <ns3:hr>109</ns3:hr>
            <ns3:cad>0</ns3:cad>
          </ns3:TrackPointExtension>
        </extensions>
      </trkpt>
      <trkpt lat="37.78597019612789154052734375" lon="-107.70389872603118419647216796875">
        <ele>4055</ele>
        <time>2023-07-29T16:16:51.000Z</time>
        <extensions>
          <ns3:TrackPointExtension>
            <ns3:hr>108</ns3:hr>
            <ns3:cad>0</ns3:cad>
          </ns3:TrackPointExtension>
        </extensions>
      </trkpt>
      <trkpt lat="37.78597262687981128692626953125" lon="-107.7038959600031375885009765625">
        <ele>4055</ele>
        <time>2023-07-29T16:16:52.000Z</time>
        <extensions>
          <ns3:TrackPointExtension>
            <ns3:hr>108</ns3:hr>
            <ns3:cad>0</ns3:cad>
          </ns3:TrackPointExtension>
        </extensions>
      </trkpt>
      <trkpt lat="37.785974554717540740966796875" lon="-107.70389688201248645782470703125">
        <ele>4055</ele>
        <time>2023-07-29T16:16:53.000Z</time>
        <extensions>
          <ns3:TrackPointExtension>
            <ns3:hr>107</ns3:hr>
            <ns3:cad>0</ns3:cad>
          </ns3:TrackPointExtension>
        </extensions>
      </trkpt>
      <trkpt lat="37.78597396798431873321533203125" lon="-107.70389772020280361175537109375">
        <ele>4055</ele>
        <time>2023-07-29T16:16:54.000Z</time>
        <extensions>
          <ns3:TrackPointExtension>
            <ns3:hr>107</ns3:hr>
            <ns3:cad>0</ns3:cad>
          </ns3:TrackPointExtension>
        </extensions>
      </trkpt>
      <trkpt lat="37.7859733812510967254638671875" lon="-107.70389554090797901153564453125">
        <ele>4055</ele>
        <time>2023-07-29T16:16:55.000Z</time>
        <extensions>
          <ns3:TrackPointExtension>
            <ns3:hr>106</ns3:hr>
            <ns3:cad>0</ns3:cad>
          </ns3:TrackPointExtension>
        </extensions>
      </trkpt>
      <trkpt lat="37.78597346507012844085693359375" lon="-107.7038949541747570037841796875">
        <ele>4055</ele>
        <time>2023-07-29T16:16:56.000Z</time>
        <extensions>
          <ns3:TrackPointExtension>
            <ns3:hr>106</ns3:hr>
            <ns3:cad>0</ns3:cad>
          </ns3:TrackPointExtension>
        </extensions>
      </trkpt>
      <trkpt lat="37.78597363270819187164306640625" lon="-107.70389445126056671142578125">
        <ele>4055</ele>
        <time>2023-07-29T16:16:57.000Z</time>
        <extensions>
          <ns3:TrackPointExtension>
            <ns3:hr>105</ns3:hr>
            <ns3:cad>0</ns3:cad>
          </ns3:TrackPointExtension>
        </extensions>
      </trkpt>
      <trkpt lat="37.78597195632755756378173828125" lon="-107.7038991451263427734375">
        <ele>4055</ele>
        <time>2023-07-29T16:16:58.000Z</time>
        <extensions>
          <ns3:TrackPointExtension>
            <ns3:hr>105</ns3:hr>
            <ns3:cad>0</ns3:cad>
          </ns3:TrackPointExtension>
        </extensions>
      </trkpt>
      <trkpt lat="37.78596877120435237884521484375" lon="-107.70389738492667675018310546875">
        <ele>4055</ele>
        <time>2023-07-29T16:16:59.000Z</time>
        <extensions>
          <ns3:TrackPointExtension>
            <ns3:hr>105</ns3:hr>
            <ns3:cad>0</ns3:cad>
          </ns3:TrackPointExtension>
        </extensions>
      </trkpt>
      <trkpt lat="37.78596885502338409423828125" lon="-107.7038986422121524810791015625">
        <ele>4055</ele>
        <time>2023-07-29T16:17:00.000Z</time>
        <extensions>
          <ns3:TrackPointExtension>
            <ns3:hr>104</ns3:hr>
            <ns3:cad>0</ns3:cad>
          </ns3:TrackPointExtension>
        </extensions>
      </trkpt>
      <trkpt lat="37.78596675954759120941162109375" lon="-107.703899480402469635009765625">
        <ele>4055</ele>
        <time>2023-07-29T16:17:01.000Z</time>
        <extensions>
          <ns3:TrackPointExtension>
            <ns3:hr>104</ns3:hr>
            <ns3:cad>0</ns3:cad>
          </ns3:TrackPointExtension>
        </extensions>
      </trkpt>
      <trkpt lat="37.7859628200531005859375" lon="-107.70389956422150135040283203125">
        <ele>4055</ele>
        <time>2023-07-29T16:17:02.000Z</time>
        <extensions>
          <ns3:TrackPointExtension>
            <ns3:hr>103</ns3:hr>
            <ns3:cad>0</ns3:cad>
          </ns3:TrackPointExtension>
        </extensions>
      </trkpt>
      <trkpt lat="37.7859589643776416778564453125" lon="-107.70389788784086704254150390625">
        <ele>4055</ele>
        <time>2023-07-29T16:17:03.000Z</time>
        <extensions>
          <ns3:TrackPointExtension>
            <ns3:hr>103</ns3:hr>
            <ns3:cad>0</ns3:cad>
          </ns3:TrackPointExtension>
        </extensions>
      </trkpt>
      <trkpt lat="37.78595804236829280853271484375" lon="-107.70390258170664310455322265625">
        <ele>4055</ele>
        <time>2023-07-29T16:17:04.000Z</time>
        <extensions>
          <ns3:TrackPointExtension>
            <ns3:hr>103</ns3:hr>
            <ns3:cad>0</ns3:cad>
          </ns3:TrackPointExtension>
        </extensions>
      </trkpt>
      <trkpt lat="37.78595988638699054718017578125" lon="-107.7039066888391971588134765625">
        <ele>4055</ele>
        <time>2023-07-29T16:17:05.000Z</time>
        <extensions>
          <ns3:TrackPointExtension>
            <ns3:hr>102</ns3:hr>
            <ns3:cad>0</ns3:cad>
          </ns3:TrackPointExtension>
        </extensions>
      </trkpt>
      <trkpt lat="37.78596022166311740875244140625" lon="-107.703907191753387451171875">
        <ele>4055</ele>
        <time>2023-07-29T16:17:06.000Z</time>
        <extensions>
          <ns3:TrackPointExtension>
            <ns3:hr>102</ns3:hr>
            <ns3:cad>0</ns3:cad>
          </ns3:TrackPointExtension>
        </extensions>
      </trkpt>
      <trkpt lat="37.78596374206244945526123046875" lon="-107.70390979014337062835693359375">
        <ele>4055</ele>
        <time>2023-07-29T16:17:07.000Z</time>
        <extensions>
          <ns3:TrackPointExtension>
            <ns3:hr>103</ns3:hr>
            <ns3:cad>0</ns3:cad>
          </ns3:TrackPointExtension>
        </extensions>
      </trkpt>
      <trkpt lat="37.78596743009984493255615234375" lon="-107.7039097063243389129638671875">
        <ele>4055</ele>
        <time>2023-07-29T16:17:08.000Z</time>
        <extensions>
          <ns3:TrackPointExtension>
            <ns3:hr>103</ns3:hr>
            <ns3:cad>0</ns3:cad>
          </ns3:TrackPointExtension>
        </extensions>
      </trkpt>
      <trkpt lat="37.78597162105143070220947265625" lon="-107.70391079597175121307373046875">
        <ele>4055</ele>
        <time>2023-07-29T16:17:09.000Z</time>
        <extensions>
          <ns3:TrackPointExtension>
            <ns3:hr>103</ns3:hr>
            <ns3:cad>0</ns3:cad>
          </ns3:TrackPointExtension>
        </extensions>
      </trkpt>
      <trkpt lat="37.7859763987362384796142578125" lon="-107.70391113124787807464599609375">
        <ele>4055</ele>
        <time>2023-07-29T16:17:10.000Z</time>
        <extensions>
          <ns3:TrackPointExtension>
            <ns3:hr>102</ns3:hr>
            <ns3:cad>0</ns3:cad>
          </ns3:TrackPointExtension>
        </extensions>
      </trkpt>
      <trkpt lat="37.78598134405910968780517578125" lon="-107.7039120532572269439697265625">
        <ele>4055</ele>
        <time>2023-07-29T16:17:11.000Z</time>
        <extensions>
          <ns3:TrackPointExtension>
            <ns3:hr>102</ns3:hr>
            <ns3:cad>0</ns3:cad>
          </ns3:TrackPointExtension>
        </extensions>
      </trkpt>
      <trkpt lat="37.78598737902939319610595703125" lon="-107.70391431637108325958251953125">
        <ele>4055</ele>
        <time>2023-07-29T16:17:12.000Z</time>
        <extensions>
          <ns3:TrackPointExtension>
            <ns3:hr>100</ns3:hr>
            <ns3:cad>0</ns3:cad>
          </ns3:TrackPointExtension>
        </extensions>
      </trkpt>
      <trkpt lat="37.7859898097813129425048828125" lon="-107.7039154060184955596923828125">
        <ele>4055</ele>
        <time>2023-07-29T16:17:13.000Z</time>
        <extensions>
          <ns3:TrackPointExtension>
            <ns3:hr>98</ns3:hr>
            <ns3:cad>0</ns3:cad>
          </ns3:TrackPointExtension>
        </extensions>
      </trkpt>
      <trkpt lat="37.7859914861619472503662109375" lon="-107.7039187587797641754150390625">
        <ele>4055</ele>
        <time>2023-07-29T16:17:14.000Z</time>
        <extensions>
          <ns3:TrackPointExtension>
            <ns3:hr>97</ns3:hr>
            <ns3:cad>0</ns3:cad>
          </ns3:TrackPointExtension>
        </extensions>
      </trkpt>
      <trkpt lat="37.785992324352264404296875" lon="-107.7039200998842716217041015625">
        <ele>4055</ele>
        <time>2023-07-29T16:17:15.000Z</time>
        <extensions>
          <ns3:TrackPointExtension>
            <ns3:hr>96</ns3:hr>
            <ns3:cad>0</ns3:cad>
          </ns3:TrackPointExtension>
        </extensions>
      </trkpt>
      <trkpt lat="37.7859904803335666656494140625" lon="-107.703924961388111114501953125">
        <ele>4055</ele>
        <time>2023-07-29T16:17:16.000Z</time>
        <extensions>
          <ns3:TrackPointExtension>
            <ns3:hr>96</ns3:hr>
            <ns3:cad>0</ns3:cad>
          </ns3:TrackPointExtension>
        </extensions>
      </trkpt>
      <trkpt lat="37.7859908156096935272216796875" lon="-107.70392529666423797607421875">
        <ele>4055</ele>
        <time>2023-07-29T16:17:17.000Z</time>
        <extensions>
          <ns3:TrackPointExtension>
            <ns3:hr>96</ns3:hr>
            <ns3:cad>0</ns3:cad>
          </ns3:TrackPointExtension>
        </extensions>
      </trkpt>
      <trkpt lat="37.78599031269550323486328125" lon="-107.703926973044872283935546875">
        <ele>4055</ele>
        <time>2023-07-29T16:17:18.000Z</time>
        <extensions>
          <ns3:TrackPointExtension>
            <ns3:hr>96</ns3:hr>
            <ns3:cad>0</ns3:cad>
          </ns3:TrackPointExtension>
        </extensions>
      </trkpt>
      <trkpt lat="37.78599006123840808868408203125" lon="-107.7039273083209991455078125">
        <ele>4055</ele>
        <time>2023-07-29T16:17:19.000Z</time>
        <extensions>
          <ns3:TrackPointExtension>
            <ns3:hr>96</ns3:hr>
            <ns3:cad>0</ns3:cad>
          </ns3:TrackPointExtension>
        </extensions>
      </trkpt>
      <trkpt lat="37.785988636314868927001953125" lon="-107.70392705686390399932861328125">
        <ele>4055</ele>
        <time>2023-07-29T16:17:20.000Z</time>
        <extensions>
          <ns3:TrackPointExtension>
            <ns3:hr>96</ns3:hr>
            <ns3:cad>0</ns3:cad>
          </ns3:TrackPointExtension>
        </extensions>
      </trkpt>
      <trkpt lat="37.785987965762615203857421875" lon="-107.70392806269228458404541015625">
        <ele>4055</ele>
        <time>2023-07-29T16:17:21.000Z</time>
        <extensions>
          <ns3:TrackPointExtension>
            <ns3:hr>96</ns3:hr>
            <ns3:cad>0</ns3:cad>
          </ns3:TrackPointExtension>
        </extensions>
      </trkpt>
      <trkpt lat="37.7859856188297271728515625" lon="-107.70393057726323604583740234375">
        <ele>4055</ele>
        <time>2023-07-29T16:17:22.000Z</time>
        <extensions>
          <ns3:TrackPointExtension>
            <ns3:hr>96</ns3:hr>
            <ns3:cad>0</ns3:cad>
          </ns3:TrackPointExtension>
        </extensions>
      </trkpt>
      <trkpt lat="37.78598218224942684173583984375" lon="-107.70393200218677520751953125">
        <ele>4055</ele>
        <time>2023-07-29T16:17:23.000Z</time>
        <extensions>
          <ns3:TrackPointExtension>
            <ns3:hr>96</ns3:hr>
            <ns3:cad>0</ns3:cad>
          </ns3:TrackPointExtension>
        </extensions>
      </trkpt>
      <trkpt lat="37.785979919135570526123046875" lon="-107.703926973044872283935546875">
        <ele>4055</ele>
        <time>2023-07-29T16:17:24.000Z</time>
        <extensions>
          <ns3:TrackPointExtension>
            <ns3:hr>96</ns3:hr>
            <ns3:cad>0</ns3:cad>
          </ns3:TrackPointExtension>
        </extensions>
      </trkpt>
      <trkpt lat="37.78597899712622165679931640625" lon="-107.70392085425555706024169921875">
        <ele>4055</ele>
        <time>2023-07-29T16:17:25.000Z</time>
        <extensions>
          <ns3:TrackPointExtension>
            <ns3:hr>96</ns3:hr>
            <ns3:cad>0</ns3:cad>
          </ns3:TrackPointExtension>
        </extensions>
      </trkpt>
      <trkpt lat="37.78597514145076274871826171875" lon="-107.70391867496073246002197265625">
        <ele>4055</ele>
        <time>2023-07-29T16:17:26.000Z</time>
        <extensions>
          <ns3:TrackPointExtension>
            <ns3:hr>97</ns3:hr>
            <ns3:cad>0</ns3:cad>
          </ns3:TrackPointExtension>
        </extensions>
      </trkpt>
      <trkpt lat="37.78597229160368442535400390625" lon="-107.7039187587797641754150390625">
        <ele>4055</ele>
        <time>2023-07-29T16:17:27.000Z</time>
        <extensions>
          <ns3:TrackPointExtension>
            <ns3:hr>97</ns3:hr>
            <ns3:cad>0</ns3:cad>
          </ns3:TrackPointExtension>
        </extensions>
      </trkpt>
      <trkpt lat="37.78597011230885982513427734375" lon="-107.70391850732266902923583984375">
        <ele>4055</ele>
        <time>2023-07-29T16:17:28.000Z</time>
        <extensions>
          <ns3:TrackPointExtension>
            <ns3:hr>97</ns3:hr>
            <ns3:cad>0</ns3:cad>
          </ns3:TrackPointExtension>
        </extensions>
      </trkpt>
      <trkpt lat="37.7859676815569400787353515625" lon="-107.70391968078911304473876953125">
        <ele>4055</ele>
        <time>2023-07-29T16:17:29.000Z</time>
        <extensions>
          <ns3:TrackPointExtension>
            <ns3:hr>97</ns3:hr>
            <ns3:cad>0</ns3:cad>
          </ns3:TrackPointExtension>
        </extensions>
      </trkpt>
      <trkpt lat="37.78596617281436920166015625" lon="-107.7039207704365253448486328125">
        <ele>4055</ele>
        <time>2023-07-29T16:17:30.000Z</time>
        <extensions>
          <ns3:TrackPointExtension>
            <ns3:hr>97</ns3:hr>
            <ns3:cad>0</ns3:cad>
          </ns3:TrackPointExtension>
        </extensions>
      </trkpt>
      <trkpt lat="37.78596508316695690155029296875" lon="-107.70392085425555706024169921875">
        <ele>4055</ele>
        <time>2023-07-29T16:17:31.000Z</time>
        <extensions>
          <ns3:TrackPointExtension>
            <ns3:hr>97</ns3:hr>
            <ns3:cad>0</ns3:cad>
          </ns3:TrackPointExtension>
        </extensions>
      </trkpt>
      <trkpt lat="37.785963155329227447509765625" lon="-107.703919596970081329345703125">
        <ele>4055</ele>
        <time>2023-07-29T16:17:32.000Z</time>
        <extensions>
          <ns3:TrackPointExtension>
            <ns3:hr>97</ns3:hr>
            <ns3:cad>0</ns3:cad>
          </ns3:TrackPointExtension>
        </extensions>
      </trkpt>
      <trkpt lat="37.78596390970051288604736328125" lon="-107.70391666330397129058837890625">
        <ele>4055</ele>
        <time>2023-07-29T16:17:33.000Z</time>
        <extensions>
          <ns3:TrackPointExtension>
            <ns3:hr>96</ns3:hr>
            <ns3:cad>0</ns3:cad>
          </ns3:TrackPointExtension>
        </extensions>
      </trkpt>
      <trkpt lat="37.78596390970051288604736328125" lon="-107.7039154060184955596923828125">
        <ele>4055</ele>
        <time>2023-07-29T16:17:34.000Z</time>
        <extensions>
          <ns3:TrackPointExtension>
            <ns3:hr>96</ns3:hr>
            <ns3:cad>0</ns3:cad>
          </ns3:TrackPointExtension>
        </extensions>
      </trkpt>
      <trkpt lat="37.7859646640717983245849609375" lon="-107.703914903104305267333984375">
        <ele>4055</ele>
        <time>2023-07-29T16:17:35.000Z</time>
        <extensions>
          <ns3:TrackPointExtension>
            <ns3:hr>96</ns3:hr>
            <ns3:cad>0</ns3:cad>
          </ns3:TrackPointExtension>
        </extensions>
      </trkpt>
      <trkpt lat="37.7859676815569400787353515625" lon="-107.70391096360981464385986328125">
        <ele>4055</ele>
        <time>2023-07-29T16:17:36.000Z</time>
        <extensions>
          <ns3:TrackPointExtension>
            <ns3:hr>96</ns3:hr>
            <ns3:cad>0</ns3:cad>
          </ns3:TrackPointExtension>
        </extensions>
      </trkpt>
      <trkpt lat="37.7859683521091938018798828125" lon="-107.70391297526657581329345703125">
        <ele>4055</ele>
        <time>2023-07-29T16:17:37.000Z</time>
        <extensions>
          <ns3:TrackPointExtension>
            <ns3:hr>95</ns3:hr>
            <ns3:cad>0</ns3:cad>
          </ns3:TrackPointExtension>
        </extensions>
      </trkpt>
      <trkpt lat="37.78596793301403522491455078125" lon="-107.70391456782817840576171875">
        <ele>4055</ele>
        <time>2023-07-29T16:17:38.000Z</time>
        <extensions>
          <ns3:TrackPointExtension>
            <ns3:hr>94</ns3:hr>
            <ns3:cad>0</ns3:cad>
          </ns3:TrackPointExtension>
        </extensions>
      </trkpt>
      <trkpt lat="37.78596826829016208648681640625" lon="-107.70391515456140041351318359375">
        <ele>4055</ele>
        <time>2023-07-29T16:17:39.000Z</time>
        <extensions>
          <ns3:TrackPointExtension>
            <ns3:hr>94</ns3:hr>
            <ns3:cad>0</ns3:cad>
          </ns3:TrackPointExtension>
        </extensions>
      </trkpt>
      <trkpt lat="37.78596893884241580963134765625" lon="-107.7039184235036373138427734375">
        <ele>4055</ele>
        <time>2023-07-29T16:17:40.000Z</time>
        <extensions>
          <ns3:TrackPointExtension>
            <ns3:hr>94</ns3:hr>
            <ns3:cad>0</ns3:cad>
          </ns3:TrackPointExtension>
        </extensions>
      </trkpt>
      <trkpt lat="37.7859690226614475250244140625" lon="-107.7039214409887790679931640625">
        <ele>4055</ele>
        <time>2023-07-29T16:17:41.000Z</time>
        <extensions>
          <ns3:TrackPointExtension>
            <ns3:hr>94</ns3:hr>
            <ns3:cad>0</ns3:cad>
          </ns3:TrackPointExtension>
        </extensions>
      </trkpt>
      <trkpt lat="37.78597027994692325592041015625" lon="-107.70392789505422115325927734375">
        <ele>4055</ele>
        <time>2023-07-29T16:17:42.000Z</time>
        <extensions>
          <ns3:TrackPointExtension>
            <ns3:hr>94</ns3:hr>
            <ns3:cad>0</ns3:cad>
          </ns3:TrackPointExtension>
        </extensions>
      </trkpt>
      <trkpt lat="37.78597296215593814849853515625" lon="-107.7039257995784282684326171875">
        <ele>4055</ele>
        <time>2023-07-29T16:17:43.000Z</time>
        <extensions>
          <ns3:TrackPointExtension>
            <ns3:hr>94</ns3:hr>
            <ns3:cad>0</ns3:cad>
          </ns3:TrackPointExtension>
        </extensions>
      </trkpt>
      <trkpt lat="37.78597287833690643310546875" lon="-107.703926973044872283935546875">
        <ele>4055</ele>
        <time>2023-07-29T16:17:44.000Z</time>
        <extensions>
          <ns3:TrackPointExtension>
            <ns3:hr>95</ns3:hr>
            <ns3:cad>0</ns3:cad>
          </ns3:TrackPointExtension>
        </extensions>
      </trkpt>
      <trkpt lat="37.78597631491720676422119140625" lon="-107.70392655394971370697021484375">
        <ele>4055</ele>
        <time>2023-07-29T16:17:45.000Z</time>
        <extensions>
          <ns3:TrackPointExtension>
            <ns3:hr>94</ns3:hr>
            <ns3:cad>0</ns3:cad>
          </ns3:TrackPointExtension>
        </extensions>
      </trkpt>
      <trkpt lat="37.78597581200301647186279296875" lon="-107.703930325806140899658203125">
        <ele>4055</ele>
        <time>2023-07-29T16:17:46.000Z</time>
        <extensions>
          <ns3:TrackPointExtension>
            <ns3:hr>94</ns3:hr>
            <ns3:cad>0</ns3:cad>
          </ns3:TrackPointExtension>
        </extensions>
      </trkpt>
      <trkpt lat="37.78597614727914333343505859375" lon="-107.703931331634521484375">
        <ele>4055</ele>
        <time>2023-07-29T16:17:47.000Z</time>
        <extensions>
          <ns3:TrackPointExtension>
            <ns3:hr>94</ns3:hr>
            <ns3:cad>0</ns3:cad>
          </ns3:TrackPointExtension>
        </extensions>
      </trkpt>
      <trkpt lat="37.78597698546946048736572265625" lon="-107.70393359474837779998779296875">
        <ele>4055</ele>
        <time>2023-07-29T16:17:48.000Z</time>
        <extensions>
          <ns3:TrackPointExtension>
            <ns3:hr>93</ns3:hr>
            <ns3:cad>0</ns3:cad>
          </ns3:TrackPointExtension>
        </extensions>
      </trkpt>
      <trkpt lat="37.7859757281839847564697265625" lon="-107.70394348539412021636962890625">
        <ele>4055</ele>
        <time>2023-07-29T16:17:49.000Z</time>
        <extensions>
          <ns3:TrackPointExtension>
            <ns3:hr>93</ns3:hr>
            <ns3:cad>0</ns3:cad>
          </ns3:TrackPointExtension>
        </extensions>
      </trkpt>
      <trkpt lat="37.78597681783139705657958984375" lon="-107.7039465866982936859130859375">
        <ele>4055</ele>
        <time>2023-07-29T16:17:50.000Z</time>
        <extensions>
          <ns3:TrackPointExtension>
            <ns3:hr>93</ns3:hr>
            <ns3:cad>0</ns3:cad>
          </ns3:TrackPointExtension>
        </extensions>
      </trkpt>
      <trkpt lat="37.78597832657396793365478515625" lon="-107.70394348539412021636962890625">
        <ele>4055</ele>
        <time>2023-07-29T16:17:51.000Z</time>
        <extensions>
          <ns3:TrackPointExtension>
            <ns3:hr>93</ns3:hr>
            <ns3:cad>0</ns3:cad>
          </ns3:TrackPointExtension>
        </extensions>
      </trkpt>
      <trkpt lat="37.78597891330718994140625" lon="-107.70393929444253444671630859375">
        <ele>4055</ele>
        <time>2023-07-29T16:17:52.000Z</time>
        <extensions>
          <ns3:TrackPointExtension>
            <ns3:hr>94</ns3:hr>
            <ns3:cad>0</ns3:cad>
          </ns3:TrackPointExtension>
        </extensions>
      </trkpt>
      <trkpt lat="37.78598201461136341094970703125" lon="-107.70393610931932926177978515625">
        <ele>4055</ele>
        <time>2023-07-29T16:17:53.000Z</time>
        <extensions>
          <ns3:TrackPointExtension>
            <ns3:hr>94</ns3:hr>
            <ns3:cad>0</ns3:cad>
          </ns3:TrackPointExtension>
        </extensions>
      </trkpt>
      <trkpt lat="37.785982601344585418701171875" lon="-107.70393627695739269256591796875">
        <ele>4055</ele>
        <time>2023-07-29T16:17:54.000Z</time>
        <extensions>
          <ns3:TrackPointExtension>
            <ns3:hr>94</ns3:hr>
            <ns3:cad>0</ns3:cad>
          </ns3:TrackPointExtension>
        </extensions>
      </trkpt>
      <trkpt lat="37.78598251752555370330810546875" lon="-107.703935690224170684814453125">
        <ele>4055</ele>
        <time>2023-07-29T16:17:55.000Z</time>
        <extensions>
          <ns3:TrackPointExtension>
            <ns3:hr>95</ns3:hr>
            <ns3:cad>0</ns3:cad>
          </ns3:TrackPointExtension>
        </extensions>
      </trkpt>
      <trkpt lat="37.78598436154425144195556640625" lon="-107.70393443293869495391845703125">
        <ele>4055</ele>
        <time>2023-07-29T16:17:56.000Z</time>
        <extensions>
          <ns3:TrackPointExtension>
            <ns3:hr>95</ns3:hr>
            <ns3:cad>0</ns3:cad>
          </ns3:TrackPointExtension>
        </extensions>
      </trkpt>
      <trkpt lat="37.7859871275722980499267578125" lon="-107.70393292419612407684326171875">
        <ele>4055</ele>
        <time>2023-07-29T16:17:57.000Z</time>
        <extensions>
          <ns3:TrackPointExtension>
            <ns3:hr>95</ns3:hr>
            <ns3:cad>0</ns3:cad>
          </ns3:TrackPointExtension>
        </extensions>
      </trkpt>
      <trkpt lat="37.78598939068615436553955078125" lon="-107.70393158309161663055419921875">
        <ele>4055</ele>
        <time>2023-07-29T16:17:58.000Z</time>
        <extensions>
          <ns3:TrackPointExtension>
            <ns3:hr>95</ns3:hr>
            <ns3:cad>0</ns3:cad>
          </ns3:TrackPointExtension>
        </extensions>
      </trkpt>
      <trkpt lat="37.78599475510418415069580078125" lon="-107.7039274759590625762939453125">
        <ele>4055</ele>
        <time>2023-07-29T16:17:59.000Z</time>
        <extensions>
          <ns3:TrackPointExtension>
            <ns3:hr>95</ns3:hr>
            <ns3:cad>0</ns3:cad>
          </ns3:TrackPointExtension>
        </extensions>
      </trkpt>
      <trkpt lat="37.78599659912288188934326171875" lon="-107.70392504520714282989501953125">
        <ele>4055</ele>
        <time>2023-07-29T16:18:00.000Z</time>
        <extensions>
          <ns3:TrackPointExtension>
            <ns3:hr>95</ns3:hr>
            <ns3:cad>0</ns3:cad>
          </ns3:TrackPointExtension>
        </extensions>
      </trkpt>
      <trkpt lat="37.78599576093256473541259765625" lon="-107.70392353646457195281982421875">
        <ele>4055</ele>
        <time>2023-07-29T16:18:01.000Z</time>
        <extensions>
          <ns3:TrackPointExtension>
            <ns3:hr>95</ns3:hr>
            <ns3:cad>0</ns3:cad>
          </ns3:TrackPointExtension>
        </extensions>
      </trkpt>
      <trkpt lat="37.78599643148481845855712890625" lon="-107.70392303355038166046142578125">
        <ele>4055</ele>
        <time>2023-07-29T16:18:02.000Z</time>
        <extensions>
          <ns3:TrackPointExtension>
            <ns3:hr>94</ns3:hr>
            <ns3:cad>0</ns3:cad>
          </ns3:TrackPointExtension>
        </extensions>
      </trkpt>
      <trkpt lat="37.78599626384675502777099609375" lon="-107.7039227820932865142822265625">
        <ele>4055</ele>
        <time>2023-07-29T16:18:03.000Z</time>
        <extensions>
          <ns3:TrackPointExtension>
            <ns3:hr>92</ns3:hr>
            <ns3:cad>0</ns3:cad>
          </ns3:TrackPointExtension>
        </extensions>
      </trkpt>
      <trkpt lat="37.78599794022738933563232421875" lon="-107.7039219439029693603515625">
        <ele>4055</ele>
        <time>2023-07-29T16:18:04.000Z</time>
        <extensions>
          <ns3:TrackPointExtension>
            <ns3:hr>91</ns3:hr>
            <ns3:cad>0</ns3:cad>
          </ns3:TrackPointExtension>
        </extensions>
      </trkpt>
      <trkpt lat="37.78599794022738933563232421875" lon="-107.7039227820932865142822265625">
        <ele>4055</ele>
        <time>2023-07-29T16:18:05.000Z</time>
        <extensions>
          <ns3:TrackPointExtension>
            <ns3:hr>91</ns3:hr>
            <ns3:cad>0</ns3:cad>
          </ns3:TrackPointExtension>
        </extensions>
      </trkpt>
      <trkpt lat="37.78599928133189678192138671875" lon="-107.70392202772200107574462890625">
        <ele>4055</ele>
        <time>2023-07-29T16:18:06.000Z</time>
        <extensions>
          <ns3:TrackPointExtension>
            <ns3:hr>91</ns3:hr>
            <ns3:cad>0</ns3:cad>
          </ns3:TrackPointExtension>
        </extensions>
      </trkpt>
      <trkpt lat="37.78599928133189678192138671875" lon="-107.70392102189362049102783203125">
        <ele>4055</ele>
        <time>2023-07-29T16:18:07.000Z</time>
        <extensions>
          <ns3:TrackPointExtension>
            <ns3:hr>91</ns3:hr>
            <ns3:cad>0</ns3:cad>
          </ns3:TrackPointExtension>
        </extensions>
      </trkpt>
      <trkpt lat="37.7860008738934993743896484375" lon="-107.703917585313320159912109375">
        <ele>4055</ele>
        <time>2023-07-29T16:18:08.000Z</time>
        <extensions>
          <ns3:TrackPointExtension>
            <ns3:hr>91</ns3:hr>
            <ns3:cad>0</ns3:cad>
          </ns3:TrackPointExtension>
        </extensions>
      </trkpt>
      <trkpt lat="37.7860022149980068206787109375" lon="-107.70391414873301982879638671875">
        <ele>4055</ele>
        <time>2023-07-29T16:18:09.000Z</time>
        <extensions>
          <ns3:TrackPointExtension>
            <ns3:hr>91</ns3:hr>
            <ns3:cad>0</ns3:cad>
          </ns3:TrackPointExtension>
        </extensions>
      </trkpt>
      <trkpt lat="37.78600129298865795135498046875" lon="-107.70391146652400493621826171875">
        <ele>4055</ele>
        <time>2023-07-29T16:18:10.000Z</time>
        <extensions>
          <ns3:TrackPointExtension>
            <ns3:hr>91</ns3:hr>
            <ns3:cad>0</ns3:cad>
          </ns3:TrackPointExtension>
        </extensions>
      </trkpt>
      <trkpt lat="37.78599877841770648956298828125" lon="-107.7039076946675777435302734375">
        <ele>4055</ele>
        <time>2023-07-29T16:18:11.000Z</time>
        <extensions>
          <ns3:TrackPointExtension>
            <ns3:hr>90</ns3:hr>
            <ns3:cad>0</ns3:cad>
          </ns3:TrackPointExtension>
        </extensions>
      </trkpt>
      <trkpt lat="37.785995006561279296875" lon="-107.70390660502016544342041015625">
        <ele>4055</ele>
        <time>2023-07-29T16:18:12.000Z</time>
        <extensions>
          <ns3:TrackPointExtension>
            <ns3:hr>90</ns3:hr>
            <ns3:cad>0</ns3:cad>
          </ns3:TrackPointExtension>
        </extensions>
      </trkpt>
      <trkpt lat="37.7859881334006786346435546875" lon="-107.70390610210597515106201171875">
        <ele>4055</ele>
        <time>2023-07-29T16:18:13.000Z</time>
        <extensions>
          <ns3:TrackPointExtension>
            <ns3:hr>90</ns3:hr>
            <ns3:cad>0</ns3:cad>
          </ns3:TrackPointExtension>
        </extensions>
      </trkpt>
      <trkpt lat="37.7859777398407459259033203125" lon="-107.70390928722918033599853515625">
        <ele>4055</ele>
        <time>2023-07-29T16:18:14.000Z</time>
        <extensions>
          <ns3:TrackPointExtension>
            <ns3:hr>91</ns3:hr>
            <ns3:cad>0</ns3:cad>
          </ns3:TrackPointExtension>
        </extensions>
      </trkpt>
      <trkpt lat="37.78596910648047924041748046875" lon="-107.7039110474288463592529296875">
        <ele>4055</ele>
        <time>2023-07-29T16:18:15.000Z</time>
        <extensions>
          <ns3:TrackPointExtension>
            <ns3:hr>91</ns3:hr>
            <ns3:cad>0</ns3:cad>
          </ns3:TrackPointExtension>
        </extensions>
      </trkpt>
      <trkpt lat="37.785965837538242340087890625" lon="-107.7039100416004657745361328125">
        <ele>4055</ele>
        <time>2023-07-29T16:18:16.000Z</time>
        <extensions>
          <ns3:TrackPointExtension>
            <ns3:hr>92</ns3:hr>
            <ns3:cad>0</ns3:cad>
          </ns3:TrackPointExtension>
        </extensions>
      </trkpt>
      <trkpt lat="37.7859586291015148162841796875" lon="-107.703908197581768035888671875">
        <ele>4055</ele>
        <time>2023-07-29T16:18:17.000Z</time>
        <extensions>
          <ns3:TrackPointExtension>
            <ns3:hr>92</ns3:hr>
            <ns3:cad>0</ns3:cad>
          </ns3:TrackPointExtension>
        </extensions>
      </trkpt>
      <trkpt lat="37.78595167212188243865966796875" lon="-107.7039004862308502197265625">
        <ele>4054.800048828125</ele>
        <time>2023-07-29T16:18:18.000Z</time>
        <extensions>
          <ns3:TrackPointExtension>
            <ns3:hr>92</ns3:hr>
            <ns3:cad>0</ns3:cad>
          </ns3:TrackPointExtension>
        </extensions>
      </trkpt>
      <trkpt lat="37.78594345785677433013916015625" lon="-107.70389235578477382659912109375">
        <ele>4054.60009765625</ele>
        <time>2023-07-29T16:18:19.000Z</time>
        <extensions>
          <ns3:TrackPointExtension>
            <ns3:hr>93</ns3:hr>
            <ns3:cad>0</ns3:cad>
          </ns3:TrackPointExtension>
        </extensions>
      </trkpt>
      <trkpt lat="37.7859472297132015228271484375" lon="-107.70388682372868061065673828125">
        <ele>4054.39990234375</ele>
        <time>2023-07-29T16:18:20.000Z</time>
        <extensions>
          <ns3:TrackPointExtension>
            <ns3:hr>96</ns3:hr>
            <ns3:cad>0</ns3:cad>
          </ns3:TrackPointExtension>
        </extensions>
      </trkpt>
      <trkpt lat="37.7859532646834850311279296875" lon="-107.70387676544487476348876953125">
        <ele>4054.39990234375</ele>
        <time>2023-07-29T16:18:21.000Z</time>
        <extensions>
          <ns3:TrackPointExtension>
            <ns3:hr>96</ns3:hr>
            <ns3:cad>0</ns3:cad>
          </ns3:TrackPointExtension>
        </extensions>
      </trkpt>
      <trkpt lat="37.7859485708177089691162109375" lon="-107.70387676544487476348876953125">
        <ele>4054.39990234375</ele>
        <time>2023-07-29T16:18:22.000Z</time>
        <extensions>
          <ns3:TrackPointExtension>
            <ns3:hr>96</ns3:hr>
            <ns3:cad>0</ns3:cad>
          </ns3:TrackPointExtension>
        </extensions>
      </trkpt>
      <trkpt lat="37.7859445475041866302490234375" lon="-107.70388045348227024078369140625">
        <ele>4054.39990234375</ele>
        <time>2023-07-29T16:18:23.000Z</time>
        <extensions>
          <ns3:TrackPointExtension>
            <ns3:hr>96</ns3:hr>
            <ns3:cad>0</ns3:cad>
          </ns3:TrackPointExtension>
        </extensions>
      </trkpt>
      <trkpt lat="37.78594295494258403778076171875" lon="-107.70388380624353885650634765625">
        <ele>4054.60009765625</ele>
        <time>2023-07-29T16:18:24.000Z</time>
        <extensions>
          <ns3:TrackPointExtension>
            <ns3:hr>96</ns3:hr>
            <ns3:cad>0</ns3:cad>
          </ns3:TrackPointExtension>
        </extensions>
      </trkpt>
      <trkpt lat="37.78594614006578922271728515625" lon="-107.70388531498610973358154296875">
        <ele>4054.800048828125</ele>
        <time>2023-07-29T16:18:25.000Z</time>
        <extensions>
          <ns3:TrackPointExtension>
            <ns3:hr>95</ns3:hr>
            <ns3:cad>0</ns3:cad>
          </ns3:TrackPointExtension>
        </extensions>
      </trkpt>
      <trkpt lat="37.7859492413699626922607421875" lon="-107.7038912661373615264892578125">
        <ele>4054.800048828125</ele>
        <time>2023-07-29T16:18:26.000Z</time>
        <extensions>
          <ns3:TrackPointExtension>
            <ns3:hr>95</ns3:hr>
            <ns3:cad>0</ns3:cad>
          </ns3:TrackPointExtension>
        </extensions>
      </trkpt>
      <trkpt lat="37.78595100156962871551513671875" lon="-107.703892104327678680419921875">
        <ele>4054.800048828125</ele>
        <time>2023-07-29T16:18:27.000Z</time>
        <extensions>
          <ns3:TrackPointExtension>
            <ns3:hr>95</ns3:hr>
            <ns3:cad>0</ns3:cad>
          </ns3:TrackPointExtension>
        </extensions>
      </trkpt>
      <trkpt lat="37.78595753945410251617431640625" lon="-107.70390057004988193511962890625">
        <ele>4054.800048828125</ele>
        <time>2023-07-29T16:18:28.000Z</time>
        <extensions>
          <ns3:TrackPointExtension>
            <ns3:hr>96</ns3:hr>
            <ns3:cad>0</ns3:cad>
          </ns3:TrackPointExtension>
        </extensions>
      </trkpt>
      <trkpt lat="37.7859586291015148162841796875" lon="-107.70390450954437255859375">
        <ele>4054.800048828125</ele>
        <time>2023-07-29T16:18:29.000Z</time>
        <extensions>
          <ns3:TrackPointExtension>
            <ns3:hr>96</ns3:hr>
            <ns3:cad>0</ns3:cad>
          </ns3:TrackPointExtension>
        </extensions>
      </trkpt>
      <trkpt lat="37.78595871292054653167724609375" lon="-107.70390450954437255859375">
        <ele>4054.800048828125</ele>
        <time>2023-07-29T16:18:30.000Z</time>
        <extensions>
          <ns3:TrackPointExtension>
            <ns3:hr>95</ns3:hr>
            <ns3:cad>0</ns3:cad>
          </ns3:TrackPointExtension>
        </extensions>
      </trkpt>
      <trkpt lat="37.78595921583473682403564453125" lon="-107.7039031684398651123046875">
        <ele>4054.800048828125</ele>
        <time>2023-07-29T16:18:31.000Z</time>
        <extensions>
          <ns3:TrackPointExtension>
            <ns3:hr>95</ns3:hr>
            <ns3:cad>0</ns3:cad>
          </ns3:TrackPointExtension>
        </extensions>
      </trkpt>
      <trkpt lat="37.78595804236829280853271484375" lon="-107.7039019949734210968017578125">
        <ele>4054.800048828125</ele>
        <time>2023-07-29T16:18:32.000Z</time>
        <extensions>
          <ns3:TrackPointExtension>
            <ns3:hr>94</ns3:hr>
            <ns3:cad>0</ns3:cad>
          </ns3:TrackPointExtension>
        </extensions>
      </trkpt>
      <trkpt lat="37.785957120358943939208984375" lon="-107.7038999833166599273681640625">
        <ele>4054.800048828125</ele>
        <time>2023-07-29T16:18:33.000Z</time>
        <extensions>
          <ns3:TrackPointExtension>
            <ns3:hr>93</ns3:hr>
            <ns3:cad>0</ns3:cad>
          </ns3:TrackPointExtension>
        </extensions>
      </trkpt>
      <trkpt lat="37.78595569543540477752685546875" lon="-107.70389637909829616546630859375">
        <ele>4054.800048828125</ele>
        <time>2023-07-29T16:18:34.000Z</time>
        <extensions>
          <ns3:TrackPointExtension>
            <ns3:hr>93</ns3:hr>
            <ns3:cad>0</ns3:cad>
          </ns3:TrackPointExtension>
        </extensions>
      </trkpt>
      <trkpt lat="37.7859542705118656158447265625" lon="-107.7038946188986301422119140625">
        <ele>4054.800048828125</ele>
        <time>2023-07-29T16:18:35.000Z</time>
        <extensions>
          <ns3:TrackPointExtension>
            <ns3:hr>93</ns3:hr>
            <ns3:cad>0</ns3:cad>
          </ns3:TrackPointExtension>
        </extensions>
      </trkpt>
      <trkpt lat="37.7859525941312313079833984375" lon="-107.70389134995639324188232421875">
        <ele>4054.800048828125</ele>
        <time>2023-07-29T16:18:36.000Z</time>
        <extensions>
          <ns3:TrackPointExtension>
            <ns3:hr>92</ns3:hr>
            <ns3:cad>0</ns3:cad>
          </ns3:TrackPointExtension>
        </extensions>
      </trkpt>
      <trkpt lat="37.785952091217041015625" lon="-107.70388900302350521087646484375">
        <ele>4054.800048828125</ele>
        <time>2023-07-29T16:18:37.000Z</time>
        <extensions>
          <ns3:TrackPointExtension>
            <ns3:hr>90</ns3:hr>
            <ns3:cad>0</ns3:cad>
          </ns3:TrackPointExtension>
        </extensions>
      </trkpt>
      <trkpt lat="37.7859512530267238616943359375" lon="-107.7038852311670780181884765625">
        <ele>4054.800048828125</ele>
        <time>2023-07-29T16:18:38.000Z</time>
        <extensions>
          <ns3:TrackPointExtension>
            <ns3:hr>87</ns3:hr>
            <ns3:cad>0</ns3:cad>
          </ns3:TrackPointExtension>
        </extensions>
      </trkpt>
      <trkpt lat="37.78595183975994586944580078125" lon="-107.703883387148380279541015625">
        <ele>4054.800048828125</ele>
        <time>2023-07-29T16:18:39.000Z</time>
        <extensions>
          <ns3:TrackPointExtension>
            <ns3:hr>84</ns3:hr>
            <ns3:cad>0</ns3:cad>
          </ns3:TrackPointExtension>
        </extensions>
      </trkpt>
      <trkpt lat="37.7859539352357387542724609375" lon="-107.70388430915772914886474609375">
        <ele>4054.800048828125</ele>
        <time>2023-07-29T16:18:40.000Z</time>
        <extensions>
          <ns3:TrackPointExtension>
            <ns3:hr>83</ns3:hr>
            <ns3:cad>0</ns3:cad>
          </ns3:TrackPointExtension>
        </extensions>
      </trkpt>
      <trkpt lat="37.7859566174447536468505859375" lon="-107.70388565026223659515380859375">
        <ele>4054.800048828125</ele>
        <time>2023-07-29T16:18:41.000Z</time>
        <extensions>
          <ns3:TrackPointExtension>
            <ns3:hr>83</ns3:hr>
            <ns3:cad>0</ns3:cad>
          </ns3:TrackPointExtension>
        </extensions>
      </trkpt>
      <trkpt lat="37.78596307151019573211669921875" lon="-107.70388984121382236480712890625">
        <ele>4054.800048828125</ele>
        <time>2023-07-29T16:18:42.000Z</time>
        <extensions>
          <ns3:TrackPointExtension>
            <ns3:hr>83</ns3:hr>
            <ns3:cad>0</ns3:cad>
          </ns3:TrackPointExtension>
        </extensions>
      </trkpt>
      <trkpt lat="37.78596692718565464019775390625" lon="-107.70389176905155181884765625">
        <ele>4054.800048828125</ele>
        <time>2023-07-29T16:18:43.000Z</time>
        <extensions>
          <ns3:TrackPointExtension>
            <ns3:hr>83</ns3:hr>
            <ns3:cad>0</ns3:cad>
          </ns3:TrackPointExtension>
        </extensions>
      </trkpt>
      <trkpt lat="37.78597027994692325592041015625" lon="-107.70389269106090068817138671875">
        <ele>4054.800048828125</ele>
        <time>2023-07-29T16:18:44.000Z</time>
        <extensions>
          <ns3:TrackPointExtension>
            <ns3:hr>83</ns3:hr>
            <ns3:cad>0</ns3:cad>
          </ns3:TrackPointExtension>
        </extensions>
      </trkpt>
      <trkpt lat="37.78597178868949413299560546875" lon="-107.7038951218128204345703125">
        <ele>4054.800048828125</ele>
        <time>2023-07-29T16:18:45.000Z</time>
        <extensions>
          <ns3:TrackPointExtension>
            <ns3:hr>83</ns3:hr>
            <ns3:cad>0</ns3:cad>
          </ns3:TrackPointExtension>
        </extensions>
      </trkpt>
      <trkpt lat="37.78597287833690643310546875" lon="-107.703900150954723358154296875">
        <ele>4054.800048828125</ele>
        <time>2023-07-29T16:18:46.000Z</time>
        <extensions>
          <ns3:TrackPointExtension>
            <ns3:hr>84</ns3:hr>
            <ns3:cad>43</ns3:cad>
          </ns3:TrackPointExtension>
        </extensions>
      </trkpt>
      <trkpt lat="37.78597078286111354827880859375" lon="-107.70390191115438938140869140625">
        <ele>4054.800048828125</ele>
        <time>2023-07-29T16:18:47.000Z</time>
        <extensions>
          <ns3:TrackPointExtension>
            <ns3:hr>85</ns3:hr>
            <ns3:cad>43</ns3:cad>
          </ns3:TrackPointExtension>
        </extensions>
      </trkpt>
      <trkpt lat="37.78597111813724040985107421875" lon="-107.703906856477260589599609375">
        <ele>4054.800048828125</ele>
        <time>2023-07-29T16:18:48.000Z</time>
        <extensions>
          <ns3:TrackPointExtension>
            <ns3:hr>85</ns3:hr>
            <ns3:cad>0</ns3:cad>
          </ns3:TrackPointExtension>
        </extensions>
      </trkpt>
      <trkpt lat="37.78596910648047924041748046875" lon="-107.70390920341014862060546875">
        <ele>4054.60009765625</ele>
        <time>2023-07-29T16:18:49.000Z</time>
        <extensions>
          <ns3:TrackPointExtension>
            <ns3:hr>85</ns3:hr>
            <ns3:cad>0</ns3:cad>
          </ns3:TrackPointExtension>
        </extensions>
      </trkpt>
      <trkpt lat="37.78596592135727405548095703125" lon="-107.70391062833368778228759765625">
        <ele>4054.60009765625</ele>
        <time>2023-07-29T16:18:50.000Z</time>
        <extensions>
          <ns3:TrackPointExtension>
            <ns3:hr>85</ns3:hr>
            <ns3:cad>0</ns3:cad>
          </ns3:TrackPointExtension>
        </extensions>
      </trkpt>
      <trkpt lat="37.78596214950084686279296875" lon="-107.70391297526657581329345703125">
        <ele>4054.60009765625</ele>
        <time>2023-07-29T16:18:51.000Z</time>
        <extensions>
          <ns3:TrackPointExtension>
            <ns3:hr>86</ns3:hr>
            <ns3:cad>0</ns3:cad>
          </ns3:TrackPointExtension>
        </extensions>
      </trkpt>
      <trkpt lat="37.7859613113105297088623046875" lon="-107.70391347818076610565185546875">
        <ele>4054.60009765625</ele>
        <time>2023-07-29T16:18:52.000Z</time>
        <extensions>
          <ns3:TrackPointExtension>
            <ns3:hr>86</ns3:hr>
            <ns3:cad>0</ns3:cad>
          </ns3:TrackPointExtension>
        </extensions>
      </trkpt>
      <trkpt lat="37.78596105985343456268310546875" lon="-107.70391590893268585205078125">
        <ele>4054.60009765625</ele>
        <time>2023-07-29T16:18:53.000Z</time>
        <extensions>
          <ns3:TrackPointExtension>
            <ns3:hr>86</ns3:hr>
            <ns3:cad>0</ns3:cad>
          </ns3:TrackPointExtension>
        </extensions>
      </trkpt>
      <trkpt lat="37.7859606407582759857177734375" lon="-107.7039174176752567291259765625">
        <ele>4054.60009765625</ele>
        <time>2023-07-29T16:18:54.000Z</time>
        <extensions>
          <ns3:TrackPointExtension>
            <ns3:hr>87</ns3:hr>
            <ns3:cad>0</ns3:cad>
          </ns3:TrackPointExtension>
        </extensions>
      </trkpt>
      <trkpt lat="37.78595720417797565460205078125" lon="-107.70391347818076610565185546875">
        <ele>4054.60009765625</ele>
        <time>2023-07-29T16:18:55.000Z</time>
        <extensions>
          <ns3:TrackPointExtension>
            <ns3:hr>87</ns3:hr>
            <ns3:cad>0</ns3:cad>
          </ns3:TrackPointExtension>
        </extensions>
      </trkpt>
      <trkpt lat="37.785949409008026123046875" lon="-107.7039046771824359893798828125">
        <ele>4054.60009765625</ele>
        <time>2023-07-29T16:18:56.000Z</time>
        <extensions>
          <ns3:TrackPointExtension>
            <ns3:hr>87</ns3:hr>
            <ns3:cad>0</ns3:cad>
          </ns3:TrackPointExtension>
        </extensions>
      </trkpt>
      <trkpt lat="37.78593809343874454498291015625" lon="-107.70389034412801265716552734375">
        <ele>4054.39990234375</ele>
        <time>2023-07-29T16:18:57.000Z</time>
        <extensions>
          <ns3:TrackPointExtension>
            <ns3:hr>89</ns3:hr>
            <ns3:cad>48</ns3:cad>
          </ns3:TrackPointExtension>
        </extensions>
      </trkpt>
      <trkpt lat="37.7859319746494293212890625" lon="-107.7038704790174961090087890625">
        <ele>4054.39990234375</ele>
        <time>2023-07-29T16:18:58.000Z</time>
        <extensions>
          <ns3:TrackPointExtension>
            <ns3:hr>89</ns3:hr>
            <ns3:cad>48</ns3:cad>
          </ns3:TrackPointExtension>
        </extensions>
      </trkpt>
      <trkpt lat="37.78593172319233417510986328125" lon="-107.7038651145994663238525390625">
        <ele>4054.39990234375</ele>
        <time>2023-07-29T16:18:59.000Z</time>
        <extensions>
          <ns3:TrackPointExtension>
            <ns3:hr>89</ns3:hr>
            <ns3:cad>0</ns3:cad>
          </ns3:TrackPointExtension>
        </extensions>
      </trkpt>
      <trkpt lat="37.7859247662127017974853515625" lon="-107.703847847878932952880859375">
        <ele>4054.39990234375</ele>
        <time>2023-07-29T16:19:00.000Z</time>
        <extensions>
          <ns3:TrackPointExtension>
            <ns3:hr>89</ns3:hr>
            <ns3:cad>0</ns3:cad>
          </ns3:TrackPointExtension>
        </extensions>
      </trkpt>
      <trkpt lat="37.78593138791620731353759765625" lon="-107.703845165669918060302734375">
        <ele>4054.39990234375</ele>
        <time>2023-07-29T16:19:01.000Z</time>
        <extensions>
          <ns3:TrackPointExtension>
            <ns3:hr>89</ns3:hr>
            <ns3:cad>0</ns3:cad>
          </ns3:TrackPointExtension>
        </extensions>
      </trkpt>
      <trkpt lat="37.7859378419816493988037109375" lon="-107.70385329611599445343017578125">
        <ele>4054.39990234375</ele>
        <time>2023-07-29T16:19:02.000Z</time>
        <extensions>
          <ns3:TrackPointExtension>
            <ns3:hr>89</ns3:hr>
            <ns3:cad>0</ns3:cad>
          </ns3:TrackPointExtension>
        </extensions>
      </trkpt>
      <trkpt lat="37.78593893162906169891357421875" lon="-107.7038550563156604766845703125">
        <ele>4054.39990234375</ele>
        <time>2023-07-29T16:19:03.000Z</time>
        <extensions>
          <ns3:TrackPointExtension>
            <ns3:hr>89</ns3:hr>
            <ns3:cad>0</ns3:cad>
          </ns3:TrackPointExtension>
        </extensions>
      </trkpt>
      <trkpt lat="37.78593775816261768341064453125" lon="-107.70385690033435821533203125">
        <ele>4054.199951171875</ele>
        <time>2023-07-29T16:19:04.000Z</time>
        <extensions>
          <ns3:TrackPointExtension>
            <ns3:hr>89</ns3:hr>
            <ns3:cad>0</ns3:cad>
          </ns3:TrackPointExtension>
        </extensions>
      </trkpt>
      <trkpt lat="37.7859344892203807830810546875" lon="-107.70385019481182098388671875">
        <ele>4054.199951171875</ele>
        <time>2023-07-29T16:19:05.000Z</time>
        <extensions>
          <ns3:TrackPointExtension>
            <ns3:hr>90</ns3:hr>
            <ns3:cad>0</ns3:cad>
          </ns3:TrackPointExtension>
        </extensions>
      </trkpt>
      <trkpt lat="37.785937003791332244873046875" lon="-107.7038681320846080780029296875">
        <ele>4054.199951171875</ele>
        <time>2023-07-29T16:19:06.000Z</time>
        <extensions>
          <ns3:TrackPointExtension>
            <ns3:hr>91</ns3:hr>
            <ns3:cad>0</ns3:cad>
          </ns3:TrackPointExtension>
        </extensions>
      </trkpt>
      <trkpt lat="37.785939686000347137451171875" lon="-107.70387005992233753204345703125">
        <ele>4054.199951171875</ele>
        <time>2023-07-29T16:19:07.000Z</time>
        <extensions>
          <ns3:TrackPointExtension>
            <ns3:hr>92</ns3:hr>
            <ns3:cad>0</ns3:cad>
          </ns3:TrackPointExtension>
        </extensions>
      </trkpt>
      <trkpt lat="37.78594295494258403778076171875" lon="-107.7038734965026378631591796875">
        <ele>4054.199951171875</ele>
        <time>2023-07-29T16:19:08.000Z</time>
        <extensions>
          <ns3:TrackPointExtension>
            <ns3:hr>93</ns3:hr>
            <ns3:cad>0</ns3:cad>
          </ns3:TrackPointExtension>
        </extensions>
      </trkpt>
      <trkpt lat="37.78594261966645717620849609375" lon="-107.70386804826557636260986328125">
        <ele>4054.199951171875</ele>
        <time>2023-07-29T16:19:09.000Z</time>
        <extensions>
          <ns3:TrackPointExtension>
            <ns3:hr>92</ns3:hr>
            <ns3:cad>0</ns3:cad>
          </ns3:TrackPointExtension>
        </extensions>
      </trkpt>
      <trkpt lat="37.785949073731899261474609375" lon="-107.703869976103305816650390625">
        <ele>4054.39990234375</ele>
        <time>2023-07-29T16:19:10.000Z</time>
        <extensions>
          <ns3:TrackPointExtension>
            <ns3:hr>92</ns3:hr>
            <ns3:cad>0</ns3:cad>
          </ns3:TrackPointExtension>
        </extensions>
      </trkpt>
      <trkpt lat="37.785954773426055908203125" lon="-107.70387542434036731719970703125">
        <ele>4054.39990234375</ele>
        <time>2023-07-29T16:19:11.000Z</time>
        <extensions>
          <ns3:TrackPointExtension>
            <ns3:hr>91</ns3:hr>
            <ns3:cad>0</ns3:cad>
          </ns3:TrackPointExtension>
        </extensions>
      </trkpt>
      <trkpt lat="37.7859603054821491241455078125" lon="-107.70388380624353885650634765625">
        <ele>4054.39990234375</ele>
        <time>2023-07-29T16:19:12.000Z</time>
        <extensions>
          <ns3:TrackPointExtension>
            <ns3:hr>90</ns3:hr>
            <ns3:cad>0</ns3:cad>
          </ns3:TrackPointExtension>
        </extensions>
      </trkpt>
      <trkpt lat="37.785959132015705108642578125" lon="-107.703889422118663787841796875">
        <ele>4054.199951171875</ele>
        <time>2023-07-29T16:19:13.000Z</time>
        <extensions>
          <ns3:TrackPointExtension>
            <ns3:hr>89</ns3:hr>
            <ns3:cad>0</ns3:cad>
          </ns3:TrackPointExtension>
        </extensions>
      </trkpt>
      <trkpt lat="37.78595821000635623931884765625" lon="-107.70389302633702754974365234375">
        <ele>4054.199951171875</ele>
        <time>2023-07-29T16:19:14.000Z</time>
        <extensions>
          <ns3:TrackPointExtension>
            <ns3:hr>89</ns3:hr>
            <ns3:cad>0</ns3:cad>
          </ns3:TrackPointExtension>
        </extensions>
      </trkpt>
      <trkpt lat="37.7859549410641193389892578125" lon="-107.7038949541747570037841796875">
        <ele>4054.199951171875</ele>
        <time>2023-07-29T16:19:15.000Z</time>
        <extensions>
          <ns3:TrackPointExtension>
            <ns3:hr>89</ns3:hr>
            <ns3:cad>0</ns3:cad>
          </ns3:TrackPointExtension>
        </extensions>
      </trkpt>
      <trkpt lat="37.7859502471983432769775390625" lon="-107.70389704965054988861083984375">
        <ele>4054.199951171875</ele>
        <time>2023-07-29T16:19:16.000Z</time>
        <extensions>
          <ns3:TrackPointExtension>
            <ns3:hr>89</ns3:hr>
            <ns3:cad>0</ns3:cad>
          </ns3:TrackPointExtension>
        </extensions>
      </trkpt>
      <trkpt lat="37.78594194911420345306396484375" lon="-107.7038973011076450347900390625">
        <ele>4054.199951171875</ele>
        <time>2023-07-29T16:19:17.000Z</time>
        <extensions>
          <ns3:TrackPointExtension>
            <ns3:hr>89</ns3:hr>
            <ns3:cad>0</ns3:cad>
          </ns3:TrackPointExtension>
        </extensions>
      </trkpt>
      <trkpt lat="37.78592736460268497467041015625" lon="-107.703898139297962188720703125">
        <ele>4054.39990234375</ele>
        <time>2023-07-29T16:19:18.000Z</time>
        <extensions>
          <ns3:TrackPointExtension>
            <ns3:hr>89</ns3:hr>
            <ns3:cad>0</ns3:cad>
          </ns3:TrackPointExtension>
        </extensions>
      </trkpt>
      <trkpt lat="37.785910852253437042236328125" lon="-107.70389847457408905029296875">
        <ele>4054.39990234375</ele>
        <time>2023-07-29T16:19:19.000Z</time>
        <extensions>
          <ns3:TrackPointExtension>
            <ns3:hr>89</ns3:hr>
            <ns3:cad>0</ns3:cad>
          </ns3:TrackPointExtension>
        </extensions>
      </trkpt>
      <trkpt lat="37.7859078347682952880859375" lon="-107.70389906130731105804443359375">
        <ele>4054.39990234375</ele>
        <time>2023-07-29T16:19:20.000Z</time>
        <extensions>
          <ns3:TrackPointExtension>
            <ns3:hr>89</ns3:hr>
            <ns3:cad>0</ns3:cad>
          </ns3:TrackPointExtension>
        </extensions>
      </trkpt>
      <trkpt lat="37.7859023027122020721435546875" lon="-107.70389889366924762725830078125">
        <ele>4054.60009765625</ele>
        <time>2023-07-29T16:19:21.000Z</time>
        <extensions>
          <ns3:TrackPointExtension>
            <ns3:hr>89</ns3:hr>
            <ns3:cad>0</ns3:cad>
          </ns3:TrackPointExtension>
        </extensions>
      </trkpt>
      <trkpt lat="37.78590087778866291046142578125" lon="-107.7038986422121524810791015625">
        <ele>4054.60009765625</ele>
        <time>2023-07-29T16:19:22.000Z</time>
        <extensions>
          <ns3:TrackPointExtension>
            <ns3:hr>89</ns3:hr>
            <ns3:cad>0</ns3:cad>
          </ns3:TrackPointExtension>
        </extensions>
      </trkpt>
      <trkpt lat="37.78589777648448944091796875" lon="-107.70389688201248645782470703125">
        <ele>4054.60009765625</ele>
        <time>2023-07-29T16:19:23.000Z</time>
        <extensions>
          <ns3:TrackPointExtension>
            <ns3:hr>89</ns3:hr>
            <ns3:cad>0</ns3:cad>
          </ns3:TrackPointExtension>
        </extensions>
      </trkpt>
      <trkpt lat="37.7858932502567768096923828125" lon="-107.70389503799378871917724609375">
        <ele>4054.60009765625</ele>
        <time>2023-07-29T16:19:24.000Z</time>
        <extensions>
          <ns3:TrackPointExtension>
            <ns3:hr>88</ns3:hr>
            <ns3:cad>0</ns3:cad>
          </ns3:TrackPointExtension>
        </extensions>
      </trkpt>
      <trkpt lat="37.785891406238079071044921875" lon="-107.70390124060213565826416015625">
        <ele>4054.60009765625</ele>
        <time>2023-07-29T16:19:26.000Z</time>
        <extensions>
          <ns3:TrackPointExtension>
            <ns3:hr>87</ns3:hr>
            <ns3:cad>0</ns3:cad>
          </ns3:TrackPointExtension>
        </extensions>
      </trkpt>
      <trkpt lat="37.78589601628482341766357421875" lon="-107.70390115678310394287109375">
        <ele>4054.60009765625</ele>
        <time>2023-07-29T16:19:27.000Z</time>
        <extensions>
          <ns3:TrackPointExtension>
            <ns3:hr>86</ns3:hr>
            <ns3:cad>0</ns3:cad>
          </ns3:TrackPointExtension>
        </extensions>
      </trkpt>
      <trkpt lat="37.78591562993824481964111328125" lon="-107.70390492863953113555908203125">
        <ele>4054.60009765625</ele>
        <time>2023-07-29T16:19:28.000Z</time>
        <extensions>
          <ns3:TrackPointExtension>
            <ns3:hr>84</ns3:hr>
            <ns3:cad>0</ns3:cad>
          </ns3:TrackPointExtension>
        </extensions>
      </trkpt>
      <trkpt lat="37.78592937625944614410400390625" lon="-107.703903503715991973876953125">
        <ele>4054.60009765625</ele>
        <time>2023-07-29T16:19:29.000Z</time>
        <extensions>
          <ns3:TrackPointExtension>
            <ns3:hr>79</ns3:hr>
            <ns3:cad>0</ns3:cad>
          </ns3:TrackPointExtension>
        </extensions>
      </trkpt>
      <trkpt lat="37.785934321582317352294921875" lon="-107.703898809850215911865234375">
        <ele>4054.60009765625</ele>
        <time>2023-07-29T16:19:30.000Z</time>
        <extensions>
          <ns3:TrackPointExtension>
            <ns3:hr>75</ns3:hr>
            <ns3:cad>0</ns3:cad>
          </ns3:TrackPointExtension>
        </extensions>
      </trkpt>
      <trkpt lat="37.78593960218131542205810546875" lon="-107.70390023477375507354736328125">
        <ele>4054.60009765625</ele>
        <time>2023-07-29T16:19:31.000Z</time>
        <extensions>
          <ns3:TrackPointExtension>
            <ns3:hr>74</ns3:hr>
            <ns3:cad>0</ns3:cad>
          </ns3:TrackPointExtension>
        </extensions>
      </trkpt>
      <trkpt lat="37.7859418652951717376708984375" lon="-107.70390249788761138916015625">
        <ele>4054.60009765625</ele>
        <time>2023-07-29T16:19:32.000Z</time>
        <extensions>
          <ns3:TrackPointExtension>
            <ns3:hr>73</ns3:hr>
            <ns3:cad>0</ns3:cad>
          </ns3:TrackPointExtension>
        </extensions>
      </trkpt>
      <trkpt lat="37.785943038761615753173828125" lon="-107.70390115678310394287109375">
        <ele>4054.60009765625</ele>
        <time>2023-07-29T16:19:33.000Z</time>
        <extensions>
          <ns3:TrackPointExtension>
            <ns3:hr>73</ns3:hr>
            <ns3:cad>0</ns3:cad>
          </ns3:TrackPointExtension>
        </extensions>
      </trkpt>
      <trkpt lat="37.7859492413699626922607421875" lon="-107.70390358753502368927001953125">
        <ele>4054.39990234375</ele>
        <time>2023-07-29T16:19:34.000Z</time>
        <extensions>
          <ns3:TrackPointExtension>
            <ns3:hr>73</ns3:hr>
            <ns3:cad>0</ns3:cad>
          </ns3:TrackPointExtension>
        </extensions>
      </trkpt>
      <trkpt lat="37.78595678508281707763671875" lon="-107.70390694029629230499267578125">
        <ele>4054.39990234375</ele>
        <time>2023-07-29T16:19:35.000Z</time>
        <extensions>
          <ns3:TrackPointExtension>
            <ns3:hr>73</ns3:hr>
            <ns3:cad>0</ns3:cad>
          </ns3:TrackPointExtension>
        </extensions>
      </trkpt>
      <trkpt lat="37.785957120358943939208984375" lon="-107.7039073593914508819580078125">
        <ele>4054.199951171875</ele>
        <time>2023-07-29T16:19:36.000Z</time>
        <extensions>
          <ns3:TrackPointExtension>
            <ns3:hr>73</ns3:hr>
            <ns3:cad>0</ns3:cad>
          </ns3:TrackPointExtension>
        </extensions>
      </trkpt>
      <trkpt lat="37.785955108702182769775390625" lon="-107.70390694029629230499267578125">
        <ele>4054.199951171875</ele>
        <time>2023-07-29T16:19:37.000Z</time>
        <extensions>
          <ns3:TrackPointExtension>
            <ns3:hr>73</ns3:hr>
            <ns3:cad>0</ns3:cad>
          </ns3:TrackPointExtension>
        </extensions>
      </trkpt>
      <trkpt lat="37.7859539352357387542724609375" lon="-107.70390660502016544342041015625">
        <ele>4054</ele>
        <time>2023-07-29T16:19:38.000Z</time>
        <extensions>
          <ns3:TrackPointExtension>
            <ns3:hr>74</ns3:hr>
            <ns3:cad>0</ns3:cad>
          </ns3:TrackPointExtension>
        </extensions>
      </trkpt>
      <trkpt lat="37.78595251031219959259033203125" lon="-107.70390450954437255859375">
        <ele>4054</ele>
        <time>2023-07-29T16:19:39.000Z</time>
        <extensions>
          <ns3:TrackPointExtension>
            <ns3:hr>80</ns3:hr>
            <ns3:cad>0</ns3:cad>
          </ns3:TrackPointExtension>
        </extensions>
      </trkpt>
      <trkpt lat="37.7859480679035186767578125" lon="-107.7039003185927867889404296875">
        <ele>4054</ele>
        <time>2023-07-29T16:19:40.000Z</time>
        <extensions>
          <ns3:TrackPointExtension>
            <ns3:hr>87</ns3:hr>
            <ns3:cad>0</ns3:cad>
          </ns3:TrackPointExtension>
        </extensions>
      </trkpt>
      <trkpt lat="37.785944379866123199462890625" lon="-107.70389755256474018096923828125">
        <ele>4054</ele>
        <time>2023-07-29T16:19:41.000Z</time>
        <extensions>
          <ns3:TrackPointExtension>
            <ns3:hr>87</ns3:hr>
            <ns3:cad>0</ns3:cad>
          </ns3:TrackPointExtension>
        </extensions>
      </trkpt>
      <trkpt lat="37.785939686000347137451171875" lon="-107.7038932777941226959228515625">
        <ele>4054</ele>
        <time>2023-07-29T16:19:42.000Z</time>
        <extensions>
          <ns3:TrackPointExtension>
            <ns3:hr>86</ns3:hr>
            <ns3:cad>0</ns3:cad>
          </ns3:TrackPointExtension>
        </extensions>
      </trkpt>
      <trkpt lat="37.78593524359166622161865234375" lon="-107.703889422118663787841796875">
        <ele>4054</ele>
        <time>2023-07-29T16:19:43.000Z</time>
        <extensions>
          <ns3:TrackPointExtension>
            <ns3:hr>85</ns3:hr>
            <ns3:cad>0</ns3:cad>
          </ns3:TrackPointExtension>
        </extensions>
      </trkpt>
      <trkpt lat="37.7859344892203807830810546875" lon="-107.70388850010931491851806640625">
        <ele>4054</ele>
        <time>2023-07-29T16:19:44.000Z</time>
        <extensions>
          <ns3:TrackPointExtension>
            <ns3:hr>82</ns3:hr>
            <ns3:cad>0</ns3:cad>
          </ns3:TrackPointExtension>
        </extensions>
      </trkpt>
      <trkpt lat="37.785933315753936767578125" lon="-107.70388816483318805694580078125">
        <ele>4054.199951171875</ele>
        <time>2023-07-29T16:19:45.000Z</time>
        <extensions>
          <ns3:TrackPointExtension>
            <ns3:hr>79</ns3:hr>
            <ns3:cad>0</ns3:cad>
          </ns3:TrackPointExtension>
        </extensions>
      </trkpt>
      <trkpt lat="37.78593440540134906768798828125" lon="-107.70388883538544178009033203125">
        <ele>4054.199951171875</ele>
        <time>2023-07-29T16:19:46.000Z</time>
        <extensions>
          <ns3:TrackPointExtension>
            <ns3:hr>79</ns3:hr>
            <ns3:cad>0</ns3:cad>
          </ns3:TrackPointExtension>
        </extensions>
      </trkpt>
      <trkpt lat="37.78593675233423709869384765625" lon="-107.703890092670917510986328125">
        <ele>4054.199951171875</ele>
        <time>2023-07-29T16:19:47.000Z</time>
        <extensions>
          <ns3:TrackPointExtension>
            <ns3:hr>79</ns3:hr>
            <ns3:cad>0</ns3:cad>
          </ns3:TrackPointExtension>
        </extensions>
      </trkpt>
      <trkpt lat="37.7859375067055225372314453125" lon="-107.70389042794704437255859375">
        <ele>4054.199951171875</ele>
        <time>2023-07-29T16:19:48.000Z</time>
        <extensions>
          <ns3:TrackPointExtension>
            <ns3:hr>79</ns3:hr>
            <ns3:cad>0</ns3:cad>
          </ns3:TrackPointExtension>
        </extensions>
      </trkpt>
      <trkpt lat="37.7859401889145374298095703125" lon="-107.7038929425179958343505859375">
        <ele>4054</ele>
        <time>2023-07-29T16:19:49.000Z</time>
        <extensions>
          <ns3:TrackPointExtension>
            <ns3:hr>80</ns3:hr>
            <ns3:cad>0</ns3:cad>
          </ns3:TrackPointExtension>
        </extensions>
      </trkpt>
      <trkpt lat="37.78594144620001316070556640625" lon="-107.7038976363837718963623046875">
        <ele>4054</ele>
        <time>2023-07-29T16:19:50.000Z</time>
        <extensions>
          <ns3:TrackPointExtension>
            <ns3:hr>80</ns3:hr>
            <ns3:cad>0</ns3:cad>
          </ns3:TrackPointExtension>
        </extensions>
      </trkpt>
      <trkpt lat="37.78594245202839374542236328125" lon="-107.70390090532600879669189453125">
        <ele>4054</ele>
        <time>2023-07-29T16:19:51.000Z</time>
        <extensions>
          <ns3:TrackPointExtension>
            <ns3:hr>79</ns3:hr>
            <ns3:cad>0</ns3:cad>
          </ns3:TrackPointExtension>
        </extensions>
      </trkpt>
      <trkpt lat="37.7859425358474254608154296875" lon="-107.7039031684398651123046875">
        <ele>4054</ele>
        <time>2023-07-29T16:19:52.000Z</time>
        <extensions>
          <ns3:TrackPointExtension>
            <ns3:hr>79</ns3:hr>
            <ns3:cad>0</ns3:cad>
          </ns3:TrackPointExtension>
        </extensions>
      </trkpt>
      <trkpt lat="37.78594161383807659149169921875" lon="-107.70390492863953113555908203125">
        <ele>4054</ele>
        <time>2023-07-29T16:19:53.000Z</time>
        <extensions>
          <ns3:TrackPointExtension>
            <ns3:hr>78</ns3:hr>
            <ns3:cad>0</ns3:cad>
          </ns3:TrackPointExtension>
        </extensions>
      </trkpt>
      <trkpt lat="37.78594329021871089935302734375" lon="-107.7039053477346897125244140625">
        <ele>4054</ele>
        <time>2023-07-29T16:19:54.000Z</time>
        <extensions>
          <ns3:TrackPointExtension>
            <ns3:hr>78</ns3:hr>
            <ns3:cad>0</ns3:cad>
          </ns3:TrackPointExtension>
        </extensions>
      </trkpt>
      <trkpt lat="37.78594530187547206878662109375" lon="-107.703904844820499420166015625">
        <ele>4054</ele>
        <time>2023-07-29T16:19:55.000Z</time>
        <extensions>
          <ns3:TrackPointExtension>
            <ns3:hr>77</ns3:hr>
            <ns3:cad>0</ns3:cad>
          </ns3:TrackPointExtension>
        </extensions>
      </trkpt>
      <trkpt lat="37.78594563715159893035888671875" lon="-107.70390392281115055084228515625">
        <ele>4054</ele>
        <time>2023-07-29T16:19:56.000Z</time>
        <extensions>
          <ns3:TrackPointExtension>
            <ns3:hr>77</ns3:hr>
            <ns3:cad>0</ns3:cad>
          </ns3:TrackPointExtension>
        </extensions>
      </trkpt>
      <trkpt lat="37.78594060800969600677490234375" lon="-107.70390006713569164276123046875">
        <ele>4054</ele>
        <time>2023-07-29T16:19:57.000Z</time>
        <extensions>
          <ns3:TrackPointExtension>
            <ns3:hr>77</ns3:hr>
            <ns3:cad>0</ns3:cad>
          </ns3:TrackPointExtension>
        </extensions>
      </trkpt>
      <trkpt lat="37.78594245202839374542236328125" lon="-107.70390392281115055084228515625">
        <ele>4054</ele>
        <time>2023-07-29T16:19:58.000Z</time>
        <extensions>
          <ns3:TrackPointExtension>
            <ns3:hr>79</ns3:hr>
            <ns3:cad>0</ns3:cad>
          </ns3:TrackPointExtension>
        </extensions>
      </trkpt>
      <trkpt lat="37.78594069182872772216796875" lon="-107.7039040066301822662353515625">
        <ele>4054</ele>
        <time>2023-07-29T16:19:59.000Z</time>
        <extensions>
          <ns3:TrackPointExtension>
            <ns3:hr>79</ns3:hr>
            <ns3:cad>0</ns3:cad>
          </ns3:TrackPointExtension>
        </extensions>
      </trkpt>
      <trkpt lat="37.78594605624675750732421875" lon="-107.70390291698276996612548828125">
        <ele>4054</ele>
        <time>2023-07-29T16:20:00.000Z</time>
        <extensions>
          <ns3:TrackPointExtension>
            <ns3:hr>81</ns3:hr>
            <ns3:cad>0</ns3:cad>
          </ns3:TrackPointExtension>
        </extensions>
      </trkpt>
      <trkpt lat="37.78594714589416980743408203125" lon="-107.70390090532600879669189453125">
        <ele>4054</ele>
        <time>2023-07-29T16:20:01.000Z</time>
        <extensions>
          <ns3:TrackPointExtension>
            <ns3:hr>83</ns3:hr>
            <ns3:cad>0</ns3:cad>
          </ns3:TrackPointExtension>
        </extensions>
      </trkpt>
      <trkpt lat="37.7859472297132015228271484375" lon="-107.7038969658315181732177734375">
        <ele>4054</ele>
        <time>2023-07-29T16:20:02.000Z</time>
        <extensions>
          <ns3:TrackPointExtension>
            <ns3:hr>83</ns3:hr>
            <ns3:cad>0</ns3:cad>
          </ns3:TrackPointExtension>
        </extensions>
      </trkpt>
      <trkpt lat="37.78594865463674068450927734375" lon="-107.7038952894508838653564453125">
        <ele>4054</ele>
        <time>2023-07-29T16:20:03.000Z</time>
        <extensions>
          <ns3:TrackPointExtension>
            <ns3:hr>83</ns3:hr>
            <ns3:cad>0</ns3:cad>
          </ns3:TrackPointExtension>
        </extensions>
      </trkpt>
      <trkpt lat="37.785946391522884368896484375" lon="-107.70389218814671039581298828125">
        <ele>4054</ele>
        <time>2023-07-29T16:20:04.000Z</time>
        <extensions>
          <ns3:TrackPointExtension>
            <ns3:hr>84</ns3:hr>
            <ns3:cad>0</ns3:cad>
          </ns3:TrackPointExtension>
        </extensions>
      </trkpt>
      <trkpt lat="37.78594530187547206878662109375" lon="-107.70388833247125148773193359375">
        <ele>4054</ele>
        <time>2023-07-29T16:20:05.000Z</time>
        <extensions>
          <ns3:TrackPointExtension>
            <ns3:hr>84</ns3:hr>
            <ns3:cad>0</ns3:cad>
          </ns3:TrackPointExtension>
        </extensions>
      </trkpt>
      <trkpt lat="37.78594295494258403778076171875" lon="-107.7038838900625705718994140625">
        <ele>4054</ele>
        <time>2023-07-29T16:20:06.000Z</time>
        <extensions>
          <ns3:TrackPointExtension>
            <ns3:hr>84</ns3:hr>
            <ns3:cad>0</ns3:cad>
          </ns3:TrackPointExtension>
        </extensions>
      </trkpt>
      <trkpt lat="37.78593976981937885284423828125" lon="-107.70387844182550907135009765625">
        <ele>4054.199951171875</ele>
        <time>2023-07-29T16:20:07.000Z</time>
        <extensions>
          <ns3:TrackPointExtension>
            <ns3:hr>84</ns3:hr>
            <ns3:cad>0</ns3:cad>
          </ns3:TrackPointExtension>
        </extensions>
      </trkpt>
      <trkpt lat="37.7859358303248882293701171875" lon="-107.7038731612265110015869140625">
        <ele>4054.199951171875</ele>
        <time>2023-07-29T16:20:08.000Z</time>
        <extensions>
          <ns3:TrackPointExtension>
            <ns3:hr>84</ns3:hr>
            <ns3:cad>0</ns3:cad>
          </ns3:TrackPointExtension>
        </extensions>
      </trkpt>
      <trkpt lat="37.78593826107680797576904296875" lon="-107.70387240685522556304931640625">
        <ele>4054.199951171875</ele>
        <time>2023-07-29T16:20:09.000Z</time>
        <extensions>
          <ns3:TrackPointExtension>
            <ns3:hr>83</ns3:hr>
            <ns3:cad>0</ns3:cad>
          </ns3:TrackPointExtension>
        </extensions>
      </trkpt>
      <trkpt lat="37.78593725524842739105224609375" lon="-107.70386888645589351654052734375">
        <ele>4054.199951171875</ele>
        <time>2023-07-29T16:20:10.000Z</time>
        <extensions>
          <ns3:TrackPointExtension>
            <ns3:hr>83</ns3:hr>
            <ns3:cad>0</ns3:cad>
          </ns3:TrackPointExtension>
        </extensions>
      </trkpt>
      <trkpt lat="37.7859348244965076446533203125" lon="-107.70387039519846439361572265625">
        <ele>4054.199951171875</ele>
        <time>2023-07-29T16:20:11.000Z</time>
        <extensions>
          <ns3:TrackPointExtension>
            <ns3:hr>82</ns3:hr>
            <ns3:cad>0</ns3:cad>
          </ns3:TrackPointExtension>
        </extensions>
      </trkpt>
      <trkpt lat="37.7859348244965076446533203125" lon="-107.70387592725455760955810546875">
        <ele>4054.199951171875</ele>
        <time>2023-07-29T16:20:12.000Z</time>
        <extensions>
          <ns3:TrackPointExtension>
            <ns3:hr>82</ns3:hr>
            <ns3:cad>0</ns3:cad>
          </ns3:TrackPointExtension>
        </extensions>
      </trkpt>
      <trkpt lat="37.78593339957296848297119140625" lon="-107.70388011820614337921142578125">
        <ele>4054.199951171875</ele>
        <time>2023-07-29T16:20:13.000Z</time>
        <extensions>
          <ns3:TrackPointExtension>
            <ns3:hr>82</ns3:hr>
            <ns3:cad>0</ns3:cad>
          </ns3:TrackPointExtension>
        </extensions>
      </trkpt>
      <trkpt lat="37.7859371714293956756591796875" lon="-107.70389101468026638031005859375">
        <ele>4054.199951171875</ele>
        <time>2023-07-29T16:20:14.000Z</time>
        <extensions>
          <ns3:TrackPointExtension>
            <ns3:hr>81</ns3:hr>
            <ns3:cad>0</ns3:cad>
          </ns3:TrackPointExtension>
        </extensions>
      </trkpt>
      <trkpt lat="37.78593876399099826812744140625" lon="-107.70389386452734470367431640625">
        <ele>4054.199951171875</ele>
        <time>2023-07-29T16:20:15.000Z</time>
        <extensions>
          <ns3:TrackPointExtension>
            <ns3:hr>80</ns3:hr>
            <ns3:cad>0</ns3:cad>
          </ns3:TrackPointExtension>
        </extensions>
      </trkpt>
      <trkpt lat="37.785941027104854583740234375" lon="-107.7038966305553913116455078125">
        <ele>4054.199951171875</ele>
        <time>2023-07-29T16:20:16.000Z</time>
        <extensions>
          <ns3:TrackPointExtension>
            <ns3:hr>80</ns3:hr>
            <ns3:cad>0</ns3:cad>
          </ns3:TrackPointExtension>
        </extensions>
      </trkpt>
      <trkpt lat="37.78594027273356914520263671875" lon="-107.70390115678310394287109375">
        <ele>4054.199951171875</ele>
        <time>2023-07-29T16:20:17.000Z</time>
        <extensions>
          <ns3:TrackPointExtension>
            <ns3:hr>80</ns3:hr>
            <ns3:cad>0</ns3:cad>
          </ns3:TrackPointExtension>
        </extensions>
      </trkpt>
      <trkpt lat="37.78594044037163257598876953125" lon="-107.70390626974403858184814453125">
        <ele>4054.199951171875</ele>
        <time>2023-07-29T16:20:18.000Z</time>
        <extensions>
          <ns3:TrackPointExtension>
            <ns3:hr>80</ns3:hr>
            <ns3:cad>0</ns3:cad>
          </ns3:TrackPointExtension>
        </extensions>
      </trkpt>
      <trkpt lat="37.7859432063996791839599609375" lon="-107.70390777848660945892333984375">
        <ele>4054.199951171875</ele>
        <time>2023-07-29T16:20:19.000Z</time>
        <extensions>
          <ns3:TrackPointExtension>
            <ns3:hr>81</ns3:hr>
            <ns3:cad>0</ns3:cad>
          </ns3:TrackPointExtension>
        </extensions>
      </trkpt>
      <trkpt lat="37.7859445475041866302490234375" lon="-107.703912891447544097900390625">
        <ele>4054.199951171875</ele>
        <time>2023-07-29T16:20:20.000Z</time>
        <extensions>
          <ns3:TrackPointExtension>
            <ns3:hr>81</ns3:hr>
            <ns3:cad>0</ns3:cad>
          </ns3:TrackPointExtension>
        </extensions>
      </trkpt>
      <trkpt lat="37.78594496659934520721435546875" lon="-107.70391565747559070587158203125">
        <ele>4054</ele>
        <time>2023-07-29T16:20:21.000Z</time>
        <extensions>
          <ns3:TrackPointExtension>
            <ns3:hr>81</ns3:hr>
            <ns3:cad>0</ns3:cad>
          </ns3:TrackPointExtension>
        </extensions>
      </trkpt>
      <trkpt lat="37.78594731353223323822021484375" lon="-107.70392001606523990631103515625">
        <ele>4054.199951171875</ele>
        <time>2023-07-29T16:20:22.000Z</time>
        <extensions>
          <ns3:TrackPointExtension>
            <ns3:hr>81</ns3:hr>
            <ns3:cad>0</ns3:cad>
          </ns3:TrackPointExtension>
        </extensions>
      </trkpt>
      <trkpt lat="37.7859519235789775848388671875" lon="-107.70392152480781078338623046875">
        <ele>4054.199951171875</ele>
        <time>2023-07-29T16:20:23.000Z</time>
        <extensions>
          <ns3:TrackPointExtension>
            <ns3:hr>81</ns3:hr>
            <ns3:cad>0</ns3:cad>
          </ns3:TrackPointExtension>
        </extensions>
      </trkpt>
      <trkpt lat="37.78595971874892711639404296875" lon="-107.70392303355038166046142578125">
        <ele>4054.199951171875</ele>
        <time>2023-07-29T16:20:24.000Z</time>
        <extensions>
          <ns3:TrackPointExtension>
            <ns3:hr>81</ns3:hr>
            <ns3:cad>0</ns3:cad>
          </ns3:TrackPointExtension>
        </extensions>
      </trkpt>
      <trkpt lat="37.78596508316695690155029296875" lon="-107.7039219439029693603515625">
        <ele>4054.199951171875</ele>
        <time>2023-07-29T16:20:25.000Z</time>
        <extensions>
          <ns3:TrackPointExtension>
            <ns3:hr>81</ns3:hr>
            <ns3:cad>0</ns3:cad>
          </ns3:TrackPointExtension>
        </extensions>
      </trkpt>
      <trkpt lat="37.78596810065209865570068359375" lon="-107.703923620283603668212890625">
        <ele>4054.199951171875</ele>
        <time>2023-07-29T16:20:26.000Z</time>
        <extensions>
          <ns3:TrackPointExtension>
            <ns3:hr>81</ns3:hr>
            <ns3:cad>0</ns3:cad>
          </ns3:TrackPointExtension>
        </extensions>
      </trkpt>
      <trkpt lat="37.7859700284898281097412109375" lon="-107.70392672158777713775634765625">
        <ele>4054.199951171875</ele>
        <time>2023-07-29T16:20:27.000Z</time>
        <extensions>
          <ns3:TrackPointExtension>
            <ns3:hr>81</ns3:hr>
            <ns3:cad>0</ns3:cad>
          </ns3:TrackPointExtension>
        </extensions>
      </trkpt>
      <trkpt lat="37.785975895822048187255859375" lon="-107.70392571575939655303955078125">
        <ele>4054.199951171875</ele>
        <time>2023-07-29T16:20:28.000Z</time>
        <extensions>
          <ns3:TrackPointExtension>
            <ns3:hr>81</ns3:hr>
            <ns3:cad>0</ns3:cad>
          </ns3:TrackPointExtension>
        </extensions>
      </trkpt>
      <trkpt lat="37.78597514145076274871826171875" lon="-107.7039246261119842529296875">
        <ele>4054.199951171875</ele>
        <time>2023-07-29T16:20:29.000Z</time>
        <extensions>
          <ns3:TrackPointExtension>
            <ns3:hr>82</ns3:hr>
            <ns3:cad>0</ns3:cad>
          </ns3:TrackPointExtension>
        </extensions>
      </trkpt>
      <trkpt lat="37.78597363270819187164306640625" lon="-107.70392135716974735260009765625">
        <ele>4054.199951171875</ele>
        <time>2023-07-29T16:20:30.000Z</time>
        <extensions>
          <ns3:TrackPointExtension>
            <ns3:hr>82</ns3:hr>
            <ns3:cad>0</ns3:cad>
          </ns3:TrackPointExtension>
        </extensions>
      </trkpt>
      <trkpt lat="37.78597195632755756378173828125" lon="-107.7039150707423686981201171875">
        <ele>4054.199951171875</ele>
        <time>2023-07-29T16:20:31.000Z</time>
        <extensions>
          <ns3:TrackPointExtension>
            <ns3:hr>82</ns3:hr>
            <ns3:cad>0</ns3:cad>
          </ns3:TrackPointExtension>
        </extensions>
      </trkpt>
      <trkpt lat="37.7859717048704624176025390625" lon="-107.7039080299437046051025390625">
        <ele>4054.199951171875</ele>
        <time>2023-07-29T16:20:32.000Z</time>
        <extensions>
          <ns3:TrackPointExtension>
            <ns3:hr>82</ns3:hr>
            <ns3:cad>0</ns3:cad>
          </ns3:TrackPointExtension>
        </extensions>
      </trkpt>
      <trkpt lat="37.78596893884241580963134765625" lon="-107.7038973011076450347900390625">
        <ele>4054.199951171875</ele>
        <time>2023-07-29T16:20:33.000Z</time>
        <extensions>
          <ns3:TrackPointExtension>
            <ns3:hr>82</ns3:hr>
            <ns3:cad>0</ns3:cad>
          </ns3:TrackPointExtension>
        </extensions>
      </trkpt>
      <trkpt lat="37.78596743009984493255615234375" lon="-107.7038924396038055419921875">
        <ele>4054.199951171875</ele>
        <time>2023-07-29T16:20:34.000Z</time>
        <extensions>
          <ns3:TrackPointExtension>
            <ns3:hr>82</ns3:hr>
            <ns3:cad>0</ns3:cad>
          </ns3:TrackPointExtension>
        </extensions>
      </trkpt>
      <trkpt lat="37.785963155329227447509765625" lon="-107.70387575961649417877197265625">
        <ele>4054.199951171875</ele>
        <time>2023-07-29T16:20:35.000Z</time>
        <extensions>
          <ns3:TrackPointExtension>
            <ns3:hr>83</ns3:hr>
            <ns3:cad>0</ns3:cad>
          </ns3:TrackPointExtension>
        </extensions>
      </trkpt>
      <trkpt lat="37.78596223331987857818603515625" lon="-107.703863941133022308349609375">
        <ele>4054.199951171875</ele>
        <time>2023-07-29T16:20:36.000Z</time>
        <extensions>
          <ns3:TrackPointExtension>
            <ns3:hr>83</ns3:hr>
            <ns3:cad>0</ns3:cad>
          </ns3:TrackPointExtension>
        </extensions>
      </trkpt>
      <trkpt lat="37.78595821000635623931884765625" lon="-107.7038600854575634002685546875">
        <ele>4054.199951171875</ele>
        <time>2023-07-29T16:20:37.000Z</time>
        <extensions>
          <ns3:TrackPointExtension>
            <ns3:hr>85</ns3:hr>
            <ns3:cad>0</ns3:cad>
          </ns3:TrackPointExtension>
        </extensions>
      </trkpt>
      <trkpt lat="37.78595033101737499237060546875" lon="-107.7038624323904514312744140625">
        <ele>4054.199951171875</ele>
        <time>2023-07-29T16:20:38.000Z</time>
        <extensions>
          <ns3:TrackPointExtension>
            <ns3:hr>86</ns3:hr>
            <ns3:cad>0</ns3:cad>
          </ns3:TrackPointExtension>
        </extensions>
      </trkpt>
      <trkpt lat="37.78593876399099826812744140625" lon="-107.703863941133022308349609375">
        <ele>4054.199951171875</ele>
        <time>2023-07-29T16:20:39.000Z</time>
        <extensions>
          <ns3:TrackPointExtension>
            <ns3:hr>87</ns3:hr>
            <ns3:cad>0</ns3:cad>
          </ns3:TrackPointExtension>
        </extensions>
      </trkpt>
      <trkpt lat="37.78593842871487140655517578125" lon="-107.70386519841849803924560546875">
        <ele>4054.199951171875</ele>
        <time>2023-07-29T16:20:40.000Z</time>
        <extensions>
          <ns3:TrackPointExtension>
            <ns3:hr>87</ns3:hr>
            <ns3:cad>0</ns3:cad>
          </ns3:TrackPointExtension>
        </extensions>
      </trkpt>
      <trkpt lat="37.7859408594667911529541015625" lon="-107.70387165248394012451171875">
        <ele>4054.199951171875</ele>
        <time>2023-07-29T16:20:41.000Z</time>
        <extensions>
          <ns3:TrackPointExtension>
            <ns3:hr>87</ns3:hr>
            <ns3:cad>0</ns3:cad>
          </ns3:TrackPointExtension>
        </extensions>
      </trkpt>
      <trkpt lat="37.78594060800969600677490234375" lon="-107.70387609489262104034423828125">
        <ele>4054.199951171875</ele>
        <time>2023-07-29T16:20:42.000Z</time>
        <extensions>
          <ns3:TrackPointExtension>
            <ns3:hr>87</ns3:hr>
            <ns3:cad>0</ns3:cad>
          </ns3:TrackPointExtension>
        </extensions>
      </trkpt>
      <trkpt lat="37.7859435416758060455322265625" lon="-107.70387508906424045562744140625">
        <ele>4054.199951171875</ele>
        <time>2023-07-29T16:20:43.000Z</time>
        <extensions>
          <ns3:TrackPointExtension>
            <ns3:hr>87</ns3:hr>
            <ns3:cad>0</ns3:cad>
          </ns3:TrackPointExtension>
        </extensions>
      </trkpt>
      <trkpt lat="37.78594362549483776092529296875" lon="-107.70387609489262104034423828125">
        <ele>4054.39990234375</ele>
        <time>2023-07-29T16:20:44.000Z</time>
        <extensions>
          <ns3:TrackPointExtension>
            <ns3:hr>87</ns3:hr>
            <ns3:cad>0</ns3:cad>
          </ns3:TrackPointExtension>
        </extensions>
      </trkpt>
      <trkpt lat="37.785944379866123199462890625" lon="-107.7038755081593990325927734375">
        <ele>4054.39990234375</ele>
        <time>2023-07-29T16:20:45.000Z</time>
        <extensions>
          <ns3:TrackPointExtension>
            <ns3:hr>87</ns3:hr>
            <ns3:cad>0</ns3:cad>
          </ns3:TrackPointExtension>
        </extensions>
      </trkpt>
      <trkpt lat="37.7859453856945037841796875" lon="-107.70387626253068447113037109375">
        <ele>4054.39990234375</ele>
        <time>2023-07-29T16:20:46.000Z</time>
        <extensions>
          <ns3:TrackPointExtension>
            <ns3:hr>86</ns3:hr>
            <ns3:cad>0</ns3:cad>
          </ns3:TrackPointExtension>
        </extensions>
      </trkpt>
      <trkpt lat="37.785945720970630645751953125" lon="-107.70387676544487476348876953125">
        <ele>4054.39990234375</ele>
        <time>2023-07-29T16:20:47.000Z</time>
        <extensions>
          <ns3:TrackPointExtension>
            <ns3:hr>86</ns3:hr>
            <ns3:cad>0</ns3:cad>
          </ns3:TrackPointExtension>
        </extensions>
      </trkpt>
      <trkpt lat="37.78594672679901123046875" lon="-107.70387969911098480224609375">
        <ele>4054.39990234375</ele>
        <time>2023-07-29T16:20:48.000Z</time>
        <extensions>
          <ns3:TrackPointExtension>
            <ns3:hr>84</ns3:hr>
            <ns3:cad>0</ns3:cad>
          </ns3:TrackPointExtension>
        </extensions>
      </trkpt>
      <trkpt lat="37.78594731353223323822021484375" lon="-107.70388296805322170257568359375">
        <ele>4054.39990234375</ele>
        <time>2023-07-29T16:20:49.000Z</time>
        <extensions>
          <ns3:TrackPointExtension>
            <ns3:hr>82</ns3:hr>
            <ns3:cad>0</ns3:cad>
          </ns3:TrackPointExtension>
        </extensions>
      </trkpt>
      <trkpt lat="37.78594831936061382293701171875" lon="-107.70388430915772914886474609375">
        <ele>4054.39990234375</ele>
        <time>2023-07-29T16:20:50.000Z</time>
        <extensions>
          <ns3:TrackPointExtension>
            <ns3:hr>79</ns3:hr>
            <ns3:cad>0</ns3:cad>
          </ns3:TrackPointExtension>
        </extensions>
      </trkpt>
      <trkpt lat="37.78594982810318470001220703125" lon="-107.70388548262417316436767578125">
        <ele>4054.39990234375</ele>
        <time>2023-07-29T16:20:51.000Z</time>
        <extensions>
          <ns3:TrackPointExtension>
            <ns3:hr>76</ns3:hr>
            <ns3:cad>0</ns3:cad>
          </ns3:TrackPointExtension>
        </extensions>
      </trkpt>
      <trkpt lat="37.7859485708177089691162109375" lon="-107.70388984121382236480712890625">
        <ele>4054.199951171875</ele>
        <time>2023-07-29T16:20:52.000Z</time>
        <extensions>
          <ns3:TrackPointExtension>
            <ns3:hr>76</ns3:hr>
            <ns3:cad>0</ns3:cad>
          </ns3:TrackPointExtension>
        </extensions>
      </trkpt>
      <trkpt lat="37.7859489060938358306884765625" lon="-107.70388967357575893402099609375">
        <ele>4054.199951171875</ele>
        <time>2023-07-29T16:20:53.000Z</time>
        <extensions>
          <ns3:TrackPointExtension>
            <ns3:hr>75</ns3:hr>
            <ns3:cad>0</ns3:cad>
          </ns3:TrackPointExtension>
        </extensions>
      </trkpt>
      <trkpt lat="37.78594949282705783843994140625" lon="-107.7038869075477123260498046875">
        <ele>4054.199951171875</ele>
        <time>2023-07-29T16:20:54.000Z</time>
        <extensions>
          <ns3:TrackPointExtension>
            <ns3:hr>75</ns3:hr>
            <ns3:cad>0</ns3:cad>
          </ns3:TrackPointExtension>
        </extensions>
      </trkpt>
      <trkpt lat="37.7859502471983432769775390625" lon="-107.703884728252887725830078125">
        <ele>4054</ele>
        <time>2023-07-29T16:20:55.000Z</time>
        <extensions>
          <ns3:TrackPointExtension>
            <ns3:hr>75</ns3:hr>
            <ns3:cad>0</ns3:cad>
          </ns3:TrackPointExtension>
        </extensions>
      </trkpt>
      <trkpt lat="37.785949409008026123046875" lon="-107.7038817107677459716796875">
        <ele>4054</ele>
        <time>2023-07-29T16:20:56.000Z</time>
        <extensions>
          <ns3:TrackPointExtension>
            <ns3:hr>75</ns3:hr>
            <ns3:cad>0</ns3:cad>
          </ns3:TrackPointExtension>
        </extensions>
      </trkpt>
      <trkpt lat="37.78594781644642353057861328125" lon="-107.7038748376071453094482421875">
        <ele>4054</ele>
        <time>2023-07-29T16:20:57.000Z</time>
        <extensions>
          <ns3:TrackPointExtension>
            <ns3:hr>75</ns3:hr>
            <ns3:cad>0</ns3:cad>
          </ns3:TrackPointExtension>
        </extensions>
      </trkpt>
      <trkpt lat="37.7859468944370746612548828125" lon="-107.7038704790174961090087890625">
        <ele>4054</ele>
        <time>2023-07-29T16:20:58.000Z</time>
        <extensions>
          <ns3:TrackPointExtension>
            <ns3:hr>75</ns3:hr>
            <ns3:cad>0</ns3:cad>
          </ns3:TrackPointExtension>
        </extensions>
      </trkpt>
      <trkpt lat="37.78594848699867725372314453125" lon="-107.70387056283652782440185546875">
        <ele>4054</ele>
        <time>2023-07-29T16:20:59.000Z</time>
        <extensions>
          <ns3:TrackPointExtension>
            <ns3:hr>74</ns3:hr>
            <ns3:cad>0</ns3:cad>
          </ns3:TrackPointExtension>
        </extensions>
      </trkpt>
      <trkpt lat="37.78594831936061382293701171875" lon="-107.70387056283652782440185546875">
        <ele>4054</ele>
        <time>2023-07-29T16:21:00.000Z</time>
        <extensions>
          <ns3:TrackPointExtension>
            <ns3:hr>74</ns3:hr>
            <ns3:cad>0</ns3:cad>
          </ns3:TrackPointExtension>
        </extensions>
      </trkpt>
      <trkpt lat="37.7859492413699626922607421875" lon="-107.70387232303619384765625">
        <ele>4054</ele>
        <time>2023-07-29T16:21:01.000Z</time>
        <extensions>
          <ns3:TrackPointExtension>
            <ns3:hr>74</ns3:hr>
            <ns3:cad>0</ns3:cad>
          </ns3:TrackPointExtension>
        </extensions>
      </trkpt>
      <trkpt lat="37.7859492413699626922607421875" lon="-107.70387408323585987091064453125">
        <ele>4054</ele>
        <time>2023-07-29T16:21:02.000Z</time>
        <extensions>
          <ns3:TrackPointExtension>
            <ns3:hr>73</ns3:hr>
            <ns3:cad>0</ns3:cad>
          </ns3:TrackPointExtension>
        </extensions>
      </trkpt>
      <trkpt lat="37.785949409008026123046875" lon="-107.70387391559779644012451171875">
        <ele>4054</ele>
        <time>2023-07-29T16:21:03.000Z</time>
        <extensions>
          <ns3:TrackPointExtension>
            <ns3:hr>73</ns3:hr>
            <ns3:cad>0</ns3:cad>
          </ns3:TrackPointExtension>
        </extensions>
      </trkpt>
      <trkpt lat="37.785947062075138092041015625" lon="-107.7038694731891155242919921875">
        <ele>4054</ele>
        <time>2023-07-29T16:21:04.000Z</time>
        <extensions>
          <ns3:TrackPointExtension>
            <ns3:hr>73</ns3:hr>
            <ns3:cad>0</ns3:cad>
          </ns3:TrackPointExtension>
        </extensions>
      </trkpt>
      <trkpt lat="37.785945720970630645751953125" lon="-107.7038656175136566162109375">
        <ele>4053.800048828125</ele>
        <time>2023-07-29T16:21:05.000Z</time>
        <extensions>
          <ns3:TrackPointExtension>
            <ns3:hr>74</ns3:hr>
            <ns3:cad>0</ns3:cad>
          </ns3:TrackPointExtension>
        </extensions>
      </trkpt>
      <trkpt lat="37.785945720970630645751953125" lon="-107.70386553369462490081787109375">
        <ele>4053.800048828125</ele>
        <time>2023-07-29T16:21:06.000Z</time>
        <extensions>
          <ns3:TrackPointExtension>
            <ns3:hr>76</ns3:hr>
            <ns3:cad>0</ns3:cad>
          </ns3:TrackPointExtension>
        </extensions>
      </trkpt>
      <trkpt lat="37.78594764880836009979248046875" lon="-107.7038671262562274932861328125">
        <ele>4053.800048828125</ele>
        <time>2023-07-29T16:21:07.000Z</time>
        <extensions>
          <ns3:TrackPointExtension>
            <ns3:hr>77</ns3:hr>
            <ns3:cad>0</ns3:cad>
          </ns3:TrackPointExtension>
        </extensions>
      </trkpt>
      <trkpt lat="37.78595116920769214630126953125" lon="-107.7038724906742572784423828125">
        <ele>4053.800048828125</ele>
        <time>2023-07-29T16:21:08.000Z</time>
        <extensions>
          <ns3:TrackPointExtension>
            <ns3:hr>77</ns3:hr>
            <ns3:cad>0</ns3:cad>
          </ns3:TrackPointExtension>
        </extensions>
      </trkpt>
      <trkpt lat="37.7859559468924999237060546875" lon="-107.70388028584420680999755859375">
        <ele>4053.800048828125</ele>
        <time>2023-07-29T16:21:09.000Z</time>
        <extensions>
          <ns3:TrackPointExtension>
            <ns3:hr>77</ns3:hr>
            <ns3:cad>0</ns3:cad>
          </ns3:TrackPointExtension>
        </extensions>
      </trkpt>
      <trkpt lat="37.78595837764441967010498046875" lon="-107.70388280041515827178955078125">
        <ele>4053.800048828125</ele>
        <time>2023-07-29T16:21:10.000Z</time>
        <extensions>
          <ns3:TrackPointExtension>
            <ns3:hr>77</ns3:hr>
            <ns3:cad>0</ns3:cad>
          </ns3:TrackPointExtension>
        </extensions>
      </trkpt>
      <trkpt lat="37.7859614789485931396484375" lon="-107.70388632081449031829833984375">
        <ele>4053.800048828125</ele>
        <time>2023-07-29T16:21:11.000Z</time>
        <extensions>
          <ns3:TrackPointExtension>
            <ns3:hr>77</ns3:hr>
            <ns3:cad>0</ns3:cad>
          </ns3:TrackPointExtension>
        </extensions>
      </trkpt>
      <trkpt lat="37.7859629876911640167236328125" lon="-107.7038885839283466339111328125">
        <ele>4053.800048828125</ele>
        <time>2023-07-29T16:21:12.000Z</time>
        <extensions>
          <ns3:TrackPointExtension>
            <ns3:hr>77</ns3:hr>
            <ns3:cad>0</ns3:cad>
          </ns3:TrackPointExtension>
        </extensions>
      </trkpt>
      <trkpt lat="37.7859646640717983245849609375" lon="-107.70389084704220294952392578125">
        <ele>4053.800048828125</ele>
        <time>2023-07-29T16:21:13.000Z</time>
        <extensions>
          <ns3:TrackPointExtension>
            <ns3:hr>77</ns3:hr>
            <ns3:cad>0</ns3:cad>
          </ns3:TrackPointExtension>
        </extensions>
      </trkpt>
      <trkpt lat="37.7859653346240520477294921875" lon="-107.70389252342283725738525390625">
        <ele>4053.800048828125</ele>
        <time>2023-07-29T16:21:14.000Z</time>
        <extensions>
          <ns3:TrackPointExtension>
            <ns3:hr>77</ns3:hr>
            <ns3:cad>0</ns3:cad>
          </ns3:TrackPointExtension>
        </extensions>
      </trkpt>
      <trkpt lat="37.7859641611576080322265625" lon="-107.70389134995639324188232421875">
        <ele>4053.800048828125</ele>
        <time>2023-07-29T16:21:15.000Z</time>
        <extensions>
          <ns3:TrackPointExtension>
            <ns3:hr>78</ns3:hr>
            <ns3:cad>0</ns3:cad>
          </ns3:TrackPointExtension>
        </extensions>
      </trkpt>
      <trkpt lat="37.785961814224720001220703125" lon="-107.70388715900480747222900390625">
        <ele>4053.800048828125</ele>
        <time>2023-07-29T16:21:16.000Z</time>
        <extensions>
          <ns3:TrackPointExtension>
            <ns3:hr>78</ns3:hr>
            <ns3:cad>0</ns3:cad>
          </ns3:TrackPointExtension>
        </extensions>
      </trkpt>
      <trkpt lat="37.78596005402505397796630859375" lon="-107.70388263277709484100341796875">
        <ele>4053.800048828125</ele>
        <time>2023-07-29T16:21:17.000Z</time>
        <extensions>
          <ns3:TrackPointExtension>
            <ns3:hr>78</ns3:hr>
            <ns3:cad>0</ns3:cad>
          </ns3:TrackPointExtension>
        </extensions>
      </trkpt>
      <trkpt lat="37.78596105985343456268310546875" lon="-107.70388280041515827178955078125">
        <ele>4053.800048828125</ele>
        <time>2023-07-29T16:21:18.000Z</time>
        <extensions>
          <ns3:TrackPointExtension>
            <ns3:hr>78</ns3:hr>
            <ns3:cad>0</ns3:cad>
          </ns3:TrackPointExtension>
        </extensions>
      </trkpt>
      <trkpt lat="37.7859641611576080322265625" lon="-107.7038843929767608642578125">
        <ele>4054</ele>
        <time>2023-07-29T16:21:19.000Z</time>
        <extensions>
          <ns3:TrackPointExtension>
            <ns3:hr>79</ns3:hr>
            <ns3:cad>0</ns3:cad>
          </ns3:TrackPointExtension>
        </extensions>
      </trkpt>
      <trkpt lat="37.7859663404524326324462890625" lon="-107.70388212986290454864501953125">
        <ele>4054</ele>
        <time>2023-07-29T16:21:20.000Z</time>
        <extensions>
          <ns3:TrackPointExtension>
            <ns3:hr>79</ns3:hr>
            <ns3:cad>0</ns3:cad>
          </ns3:TrackPointExtension>
        </extensions>
      </trkpt>
      <trkpt lat="37.7859660051763057708740234375" lon="-107.70387827418744564056396484375">
        <ele>4054</ele>
        <time>2023-07-29T16:21:21.000Z</time>
        <extensions>
          <ns3:TrackPointExtension>
            <ns3:hr>80</ns3:hr>
            <ns3:cad>0</ns3:cad>
          </ns3:TrackPointExtension>
        </extensions>
      </trkpt>
      <trkpt lat="37.78596759773790836334228515625" lon="-107.7038761787116527557373046875">
        <ele>4054</ele>
        <time>2023-07-29T16:21:22.000Z</time>
        <extensions>
          <ns3:TrackPointExtension>
            <ns3:hr>80</ns3:hr>
            <ns3:cad>0</ns3:cad>
          </ns3:TrackPointExtension>
        </extensions>
      </trkpt>
      <trkpt lat="37.78596617281436920166015625" lon="-107.70387207157909870147705078125">
        <ele>4054</ele>
        <time>2023-07-29T16:21:23.000Z</time>
        <extensions>
          <ns3:TrackPointExtension>
            <ns3:hr>81</ns3:hr>
            <ns3:cad>0</ns3:cad>
          </ns3:TrackPointExtension>
        </extensions>
      </trkpt>
      <trkpt lat="37.78596709482371807098388671875" lon="-107.7038701437413692474365234375">
        <ele>4054</ele>
        <time>2023-07-29T16:21:24.000Z</time>
        <extensions>
          <ns3:TrackPointExtension>
            <ns3:hr>81</ns3:hr>
            <ns3:cad>0</ns3:cad>
          </ns3:TrackPointExtension>
        </extensions>
      </trkpt>
      <trkpt lat="37.78596927411854267120361328125" lon="-107.7038688026368618011474609375">
        <ele>4053.800048828125</ele>
        <time>2023-07-29T16:21:25.000Z</time>
        <extensions>
          <ns3:TrackPointExtension>
            <ns3:hr>81</ns3:hr>
            <ns3:cad>0</ns3:cad>
          </ns3:TrackPointExtension>
        </extensions>
      </trkpt>
      <trkpt lat="37.7859676815569400787353515625" lon="-107.703866623342037200927734375">
        <ele>4053.800048828125</ele>
        <time>2023-07-29T16:21:26.000Z</time>
        <extensions>
          <ns3:TrackPointExtension>
            <ns3:hr>82</ns3:hr>
            <ns3:cad>0</ns3:cad>
          </ns3:TrackPointExtension>
        </extensions>
      </trkpt>
      <trkpt lat="37.78596156276762485504150390625" lon="-107.703862600028514862060546875">
        <ele>4053.800048828125</ele>
        <time>2023-07-29T16:21:27.000Z</time>
        <extensions>
          <ns3:TrackPointExtension>
            <ns3:hr>83</ns3:hr>
            <ns3:cad>0</ns3:cad>
          </ns3:TrackPointExtension>
        </extensions>
      </trkpt>
      <trkpt lat="37.7859603054821491241455078125" lon="-107.70385949872434139251708984375">
        <ele>4053.800048828125</ele>
        <time>2023-07-29T16:21:28.000Z</time>
        <extensions>
          <ns3:TrackPointExtension>
            <ns3:hr>83</ns3:hr>
            <ns3:cad>0</ns3:cad>
          </ns3:TrackPointExtension>
        </extensions>
      </trkpt>
      <trkpt lat="37.7859587967395782470703125" lon="-107.70385748706758022308349609375">
        <ele>4053.800048828125</ele>
        <time>2023-07-29T16:21:29.000Z</time>
        <extensions>
          <ns3:TrackPointExtension>
            <ns3:hr>83</ns3:hr>
            <ns3:cad>0</ns3:cad>
          </ns3:TrackPointExtension>
        </extensions>
      </trkpt>
      <trkpt lat="37.785956449806690216064453125" lon="-107.7038570679724216461181640625">
        <ele>4053.800048828125</ele>
        <time>2023-07-29T16:21:30.000Z</time>
        <extensions>
          <ns3:TrackPointExtension>
            <ns3:hr>84</ns3:hr>
            <ns3:cad>0</ns3:cad>
          </ns3:TrackPointExtension>
        </extensions>
      </trkpt>
      <trkpt lat="37.78595276176929473876953125" lon="-107.70385849289596080780029296875">
        <ele>4053.60009765625</ele>
        <time>2023-07-29T16:21:31.000Z</time>
        <extensions>
          <ns3:TrackPointExtension>
            <ns3:hr>84</ns3:hr>
            <ns3:cad>0</ns3:cad>
          </ns3:TrackPointExtension>
        </extensions>
      </trkpt>
      <trkpt lat="37.78595183975994586944580078125" lon="-107.70386092364788055419921875">
        <ele>4053.60009765625</ele>
        <time>2023-07-29T16:21:32.000Z</time>
        <extensions>
          <ns3:TrackPointExtension>
            <ns3:hr>84</ns3:hr>
            <ns3:cad>0</ns3:cad>
          </ns3:TrackPointExtension>
        </extensions>
      </trkpt>
      <trkpt lat="37.78595284558832645416259765625" lon="-107.70386352203786373138427734375">
        <ele>4053.60009765625</ele>
        <time>2023-07-29T16:21:33.000Z</time>
        <extensions>
          <ns3:TrackPointExtension>
            <ns3:hr>84</ns3:hr>
            <ns3:cad>0</ns3:cad>
          </ns3:TrackPointExtension>
        </extensions>
      </trkpt>
      <trkpt lat="37.7859535999596118927001953125" lon="-107.703869976103305816650390625">
        <ele>4053.60009765625</ele>
        <time>2023-07-29T16:21:34.000Z</time>
        <extensions>
          <ns3:TrackPointExtension>
            <ns3:hr>84</ns3:hr>
            <ns3:cad>0</ns3:cad>
          </ns3:TrackPointExtension>
        </extensions>
      </trkpt>
      <trkpt lat="37.7859562821686267852783203125" lon="-107.70387341268360614776611328125">
        <ele>4053.60009765625</ele>
        <time>2023-07-29T16:21:35.000Z</time>
        <extensions>
          <ns3:TrackPointExtension>
            <ns3:hr>84</ns3:hr>
            <ns3:cad>0</ns3:cad>
          </ns3:TrackPointExtension>
        </extensions>
      </trkpt>
      <trkpt lat="37.78595753945410251617431640625" lon="-107.7038781903684139251708984375">
        <ele>4053.60009765625</ele>
        <time>2023-07-29T16:21:36.000Z</time>
        <extensions>
          <ns3:TrackPointExtension>
            <ns3:hr>84</ns3:hr>
            <ns3:cad>0</ns3:cad>
          </ns3:TrackPointExtension>
        </extensions>
      </trkpt>
      <trkpt lat="37.7859587967395782470703125" lon="-107.703882046043872833251953125">
        <ele>4053.60009765625</ele>
        <time>2023-07-29T16:21:37.000Z</time>
        <extensions>
          <ns3:TrackPointExtension>
            <ns3:hr>84</ns3:hr>
            <ns3:cad>0</ns3:cad>
          </ns3:TrackPointExtension>
        </extensions>
      </trkpt>
      <trkpt lat="37.78595946729183197021484375" lon="-107.703885398805141448974609375">
        <ele>4053.60009765625</ele>
        <time>2023-07-29T16:21:38.000Z</time>
        <extensions>
          <ns3:TrackPointExtension>
            <ns3:hr>84</ns3:hr>
            <ns3:cad>0</ns3:cad>
          </ns3:TrackPointExtension>
        </extensions>
      </trkpt>
      <trkpt lat="37.785959802567958831787109375" lon="-107.70388749428093433380126953125">
        <ele>4053.60009765625</ele>
        <time>2023-07-29T16:21:39.000Z</time>
        <extensions>
          <ns3:TrackPointExtension>
            <ns3:hr>83</ns3:hr>
            <ns3:cad>0</ns3:cad>
          </ns3:TrackPointExtension>
        </extensions>
      </trkpt>
      <trkpt lat="37.7859619818627834320068359375" lon="-107.70389042794704437255859375">
        <ele>4053.800048828125</ele>
        <time>2023-07-29T16:21:40.000Z</time>
        <extensions>
          <ns3:TrackPointExtension>
            <ns3:hr>82</ns3:hr>
            <ns3:cad>0</ns3:cad>
          </ns3:TrackPointExtension>
        </extensions>
      </trkpt>
      <trkpt lat="37.78596290387213230133056640625" lon="-107.7038902603089809417724609375">
        <ele>4053.800048828125</ele>
        <time>2023-07-29T16:21:41.000Z</time>
        <extensions>
          <ns3:TrackPointExtension>
            <ns3:hr>82</ns3:hr>
            <ns3:cad>0</ns3:cad>
          </ns3:TrackPointExtension>
        </extensions>
      </trkpt>
      <trkpt lat="37.7859639935195446014404296875" lon="-107.70389101468026638031005859375">
        <ele>4053.800048828125</ele>
        <time>2023-07-29T16:21:42.000Z</time>
        <extensions>
          <ns3:TrackPointExtension>
            <ns3:hr>82</ns3:hr>
            <ns3:cad>0</ns3:cad>
          </ns3:TrackPointExtension>
        </extensions>
      </trkpt>
      <trkpt lat="37.78596458025276660919189453125" lon="-107.7038946188986301422119140625">
        <ele>4053.800048828125</ele>
        <time>2023-07-29T16:21:43.000Z</time>
        <extensions>
          <ns3:TrackPointExtension>
            <ns3:hr>83</ns3:hr>
            <ns3:cad>0</ns3:cad>
          </ns3:TrackPointExtension>
        </extensions>
      </trkpt>
      <trkpt lat="37.78596474789083003997802734375" lon="-107.7038993127644062042236328125">
        <ele>4053.800048828125</ele>
        <time>2023-07-29T16:21:44.000Z</time>
        <extensions>
          <ns3:TrackPointExtension>
            <ns3:hr>83</ns3:hr>
            <ns3:cad>0</ns3:cad>
          </ns3:TrackPointExtension>
        </extensions>
      </trkpt>
      <trkpt lat="37.78596441261470317840576171875" lon="-107.70389721728861331939697265625">
        <ele>4053.60009765625</ele>
        <time>2023-07-29T16:21:45.000Z</time>
        <extensions>
          <ns3:TrackPointExtension>
            <ns3:hr>83</ns3:hr>
            <ns3:cad>0</ns3:cad>
          </ns3:TrackPointExtension>
        </extensions>
      </trkpt>
      <trkpt lat="37.78596139512956142425537109375" lon="-107.703893445432186126708984375">
        <ele>4053.60009765625</ele>
        <time>2023-07-29T16:21:46.000Z</time>
        <extensions>
          <ns3:TrackPointExtension>
            <ns3:hr>83</ns3:hr>
            <ns3:cad>0</ns3:cad>
          </ns3:TrackPointExtension>
        </extensions>
      </trkpt>
      <trkpt lat="37.78596005402505397796630859375" lon="-107.70389000885188579559326171875">
        <ele>4053.60009765625</ele>
        <time>2023-07-29T16:21:47.000Z</time>
        <extensions>
          <ns3:TrackPointExtension>
            <ns3:hr>83</ns3:hr>
            <ns3:cad>0</ns3:cad>
          </ns3:TrackPointExtension>
        </extensions>
      </trkpt>
      <trkpt lat="37.78595745563507080078125" lon="-107.703892104327678680419921875">
        <ele>4053.60009765625</ele>
        <time>2023-07-29T16:21:48.000Z</time>
        <extensions>
          <ns3:TrackPointExtension>
            <ns3:hr>82</ns3:hr>
            <ns3:cad>0</ns3:cad>
          </ns3:TrackPointExtension>
        </extensions>
      </trkpt>
      <trkpt lat="37.7859546057879924774169921875" lon="-107.70389436744153499603271484375">
        <ele>4053.60009765625</ele>
        <time>2023-07-29T16:21:49.000Z</time>
        <extensions>
          <ns3:TrackPointExtension>
            <ns3:hr>82</ns3:hr>
            <ns3:cad>0</ns3:cad>
          </ns3:TrackPointExtension>
        </extensions>
      </trkpt>
      <trkpt lat="37.7859512530267238616943359375" lon="-107.703897468745708465576171875">
        <ele>4053.60009765625</ele>
        <time>2023-07-29T16:21:50.000Z</time>
        <extensions>
          <ns3:TrackPointExtension>
            <ns3:hr>82</ns3:hr>
            <ns3:cad>0</ns3:cad>
          </ns3:TrackPointExtension>
        </extensions>
      </trkpt>
      <trkpt lat="37.785952091217041015625" lon="-107.7038989774882793426513671875">
        <ele>4053.60009765625</ele>
        <time>2023-07-29T16:21:51.000Z</time>
        <extensions>
          <ns3:TrackPointExtension>
            <ns3:hr>82</ns3:hr>
            <ns3:cad>0</ns3:cad>
          </ns3:TrackPointExtension>
        </extensions>
      </trkpt>
      <trkpt lat="37.78595536015927791595458984375" lon="-107.70389922894537448883056640625">
        <ele>4053.60009765625</ele>
        <time>2023-07-29T16:21:52.000Z</time>
        <extensions>
          <ns3:TrackPointExtension>
            <ns3:hr>83</ns3:hr>
            <ns3:cad>0</ns3:cad>
          </ns3:TrackPointExtension>
        </extensions>
      </trkpt>
      <trkpt lat="37.785957790911197662353515625" lon="-107.70390124060213565826416015625">
        <ele>4053.800048828125</ele>
        <time>2023-07-29T16:21:53.000Z</time>
        <extensions>
          <ns3:TrackPointExtension>
            <ns3:hr>83</ns3:hr>
            <ns3:cad>0</ns3:cad>
          </ns3:TrackPointExtension>
        </extensions>
      </trkpt>
      <trkpt lat="37.78595787473022937774658203125" lon="-107.70390375517308712005615234375">
        <ele>4053.800048828125</ele>
        <time>2023-07-29T16:21:54.000Z</time>
        <extensions>
          <ns3:TrackPointExtension>
            <ns3:hr>83</ns3:hr>
            <ns3:cad>0</ns3:cad>
          </ns3:TrackPointExtension>
        </extensions>
      </trkpt>
      <trkpt lat="37.78596240095794200897216796875" lon="-107.70390291698276996612548828125">
        <ele>4053.800048828125</ele>
        <time>2023-07-29T16:21:55.000Z</time>
        <extensions>
          <ns3:TrackPointExtension>
            <ns3:hr>83</ns3:hr>
            <ns3:cad>0</ns3:cad>
          </ns3:TrackPointExtension>
        </extensions>
      </trkpt>
      <trkpt lat="37.78596474789083003997802734375" lon="-107.7039030008018016815185546875">
        <ele>4053.800048828125</ele>
        <time>2023-07-29T16:21:56.000Z</time>
        <extensions>
          <ns3:TrackPointExtension>
            <ns3:hr>83</ns3:hr>
            <ns3:cad>0</ns3:cad>
          </ns3:TrackPointExtension>
        </extensions>
      </trkpt>
      <trkpt lat="37.78596508316695690155029296875" lon="-107.70390358753502368927001953125">
        <ele>4053.800048828125</ele>
        <time>2023-07-29T16:21:57.000Z</time>
        <extensions>
          <ns3:TrackPointExtension>
            <ns3:hr>83</ns3:hr>
            <ns3:cad>0</ns3:cad>
          </ns3:TrackPointExtension>
        </extensions>
      </trkpt>
      <trkpt lat="37.7859666757285594940185546875" lon="-107.703904174268245697021484375">
        <ele>4053.800048828125</ele>
        <time>2023-07-29T16:21:58.000Z</time>
        <extensions>
          <ns3:TrackPointExtension>
            <ns3:hr>83</ns3:hr>
            <ns3:cad>0</ns3:cad>
          </ns3:TrackPointExtension>
        </extensions>
      </trkpt>
      <trkpt lat="37.78597044758498668670654296875" lon="-107.7039076946675777435302734375">
        <ele>4053.800048828125</ele>
        <time>2023-07-29T16:21:59.000Z</time>
        <extensions>
          <ns3:TrackPointExtension>
            <ns3:hr>83</ns3:hr>
            <ns3:cad>0</ns3:cad>
          </ns3:TrackPointExtension>
        </extensions>
      </trkpt>
      <trkpt lat="37.78597212396562099456787109375" lon="-107.70391054451465606689453125">
        <ele>4053.800048828125</ele>
        <time>2023-07-29T16:22:00.000Z</time>
        <extensions>
          <ns3:TrackPointExtension>
            <ns3:hr>84</ns3:hr>
            <ns3:cad>0</ns3:cad>
          </ns3:TrackPointExtension>
        </extensions>
      </trkpt>
      <trkpt lat="37.7859730459749698638916015625" lon="-107.7039137296378612518310546875">
        <ele>4053.800048828125</ele>
        <time>2023-07-29T16:22:01.000Z</time>
        <extensions>
          <ns3:TrackPointExtension>
            <ns3:hr>84</ns3:hr>
            <ns3:cad>0</ns3:cad>
          </ns3:TrackPointExtension>
        </extensions>
      </trkpt>
      <trkpt lat="37.78597178868949413299560546875" lon="-107.7039154060184955596923828125">
        <ele>4053.800048828125</ele>
        <time>2023-07-29T16:22:02.000Z</time>
        <extensions>
          <ns3:TrackPointExtension>
            <ns3:hr>85</ns3:hr>
            <ns3:cad>0</ns3:cad>
          </ns3:TrackPointExtension>
        </extensions>
      </trkpt>
      <trkpt lat="37.78596994467079639434814453125" lon="-107.7039165794849395751953125">
        <ele>4053.800048828125</ele>
        <time>2023-07-29T16:22:03.000Z</time>
        <extensions>
          <ns3:TrackPointExtension>
            <ns3:hr>85</ns3:hr>
            <ns3:cad>0</ns3:cad>
          </ns3:TrackPointExtension>
        </extensions>
      </trkpt>
      <trkpt lat="37.78596843592822551727294921875" lon="-107.70391850732266902923583984375">
        <ele>4053.800048828125</ele>
        <time>2023-07-29T16:22:04.000Z</time>
        <extensions>
          <ns3:TrackPointExtension>
            <ns3:hr>85</ns3:hr>
            <ns3:cad>0</ns3:cad>
          </ns3:TrackPointExtension>
        </extensions>
      </trkpt>
      <trkpt lat="37.78596751391887664794921875" lon="-107.7039160765707492828369140625">
        <ele>4053.800048828125</ele>
        <time>2023-07-29T16:22:05.000Z</time>
        <extensions>
          <ns3:TrackPointExtension>
            <ns3:hr>84</ns3:hr>
            <ns3:cad>0</ns3:cad>
          </ns3:TrackPointExtension>
        </extensions>
      </trkpt>
      <trkpt lat="37.7859639935195446014404296875" lon="-107.70391666330397129058837890625">
        <ele>4054</ele>
        <time>2023-07-29T16:22:06.000Z</time>
        <extensions>
          <ns3:TrackPointExtension>
            <ns3:hr>83</ns3:hr>
            <ns3:cad>0</ns3:cad>
          </ns3:TrackPointExtension>
        </extensions>
      </trkpt>
      <trkpt lat="37.78596089221537113189697265625" lon="-107.70391582511365413665771484375">
        <ele>4054</ele>
        <time>2023-07-29T16:22:07.000Z</time>
        <extensions>
          <ns3:TrackPointExtension>
            <ns3:hr>83</ns3:hr>
            <ns3:cad>0</ns3:cad>
          </ns3:TrackPointExtension>
        </extensions>
      </trkpt>
      <trkpt lat="37.78595854528248310089111328125" lon="-107.7039165794849395751953125">
        <ele>4054</ele>
        <time>2023-07-29T16:22:08.000Z</time>
        <extensions>
          <ns3:TrackPointExtension>
            <ns3:hr>83</ns3:hr>
            <ns3:cad>0</ns3:cad>
          </ns3:TrackPointExtension>
        </extensions>
      </trkpt>
      <trkpt lat="37.7859559468924999237060546875" lon="-107.70391859114170074462890625">
        <ele>4054</ele>
        <time>2023-07-29T16:22:09.000Z</time>
        <extensions>
          <ns3:TrackPointExtension>
            <ns3:hr>83</ns3:hr>
            <ns3:cad>0</ns3:cad>
          </ns3:TrackPointExtension>
        </extensions>
      </trkpt>
      <trkpt lat="37.7859542705118656158447265625" lon="-107.70391498692333698272705078125">
        <ele>4053.800048828125</ele>
        <time>2023-07-29T16:22:10.000Z</time>
        <extensions>
          <ns3:TrackPointExtension>
            <ns3:hr>84</ns3:hr>
            <ns3:cad>0</ns3:cad>
          </ns3:TrackPointExtension>
        </extensions>
      </trkpt>
      <trkpt lat="37.7859549410641193389892578125" lon="-107.7039110474288463592529296875">
        <ele>4053.800048828125</ele>
        <time>2023-07-29T16:22:11.000Z</time>
        <extensions>
          <ns3:TrackPointExtension>
            <ns3:hr>84</ns3:hr>
            <ns3:cad>0</ns3:cad>
          </ns3:TrackPointExtension>
        </extensions>
      </trkpt>
      <trkpt lat="37.78595519252121448516845703125" lon="-107.70390425808727741241455078125">
        <ele>4053.800048828125</ele>
        <time>2023-07-29T16:22:12.000Z</time>
        <extensions>
          <ns3:TrackPointExtension>
            <ns3:hr>84</ns3:hr>
            <ns3:cad>0</ns3:cad>
          </ns3:TrackPointExtension>
        </extensions>
      </trkpt>
      <trkpt lat="37.7859556116163730621337890625" lon="-107.70389889366924762725830078125">
        <ele>4053.800048828125</ele>
        <time>2023-07-29T16:22:13.000Z</time>
        <extensions>
          <ns3:TrackPointExtension>
            <ns3:hr>84</ns3:hr>
            <ns3:cad>0</ns3:cad>
          </ns3:TrackPointExtension>
        </extensions>
      </trkpt>
      <trkpt lat="37.78595351614058017730712890625" lon="-107.70389637909829616546630859375">
        <ele>4053.800048828125</ele>
        <time>2023-07-29T16:22:14.000Z</time>
        <extensions>
          <ns3:TrackPointExtension>
            <ns3:hr>84</ns3:hr>
            <ns3:cad>0</ns3:cad>
          </ns3:TrackPointExtension>
        </extensions>
      </trkpt>
      <trkpt lat="37.785949073731899261474609375" lon="-107.70389503799378871917724609375">
        <ele>4053.800048828125</ele>
        <time>2023-07-29T16:22:15.000Z</time>
        <extensions>
          <ns3:TrackPointExtension>
            <ns3:hr>85</ns3:hr>
            <ns3:cad>0</ns3:cad>
          </ns3:TrackPointExtension>
        </extensions>
      </trkpt>
      <trkpt lat="37.78594647534191608428955078125" lon="-107.70389403216540813446044921875">
        <ele>4053.800048828125</ele>
        <time>2023-07-29T16:22:16.000Z</time>
        <extensions>
          <ns3:TrackPointExtension>
            <ns3:hr>87</ns3:hr>
            <ns3:cad>0</ns3:cad>
          </ns3:TrackPointExtension>
        </extensions>
      </trkpt>
      <trkpt lat="37.78594580478966236114501953125" lon="-107.70389311015605926513671875">
        <ele>4054</ele>
        <time>2023-07-29T16:22:17.000Z</time>
        <extensions>
          <ns3:TrackPointExtension>
            <ns3:hr>88</ns3:hr>
            <ns3:cad>0</ns3:cad>
          </ns3:TrackPointExtension>
        </extensions>
      </trkpt>
      <trkpt lat="37.7859455533325672149658203125" lon="-107.7038909308612346649169921875">
        <ele>4054</ele>
        <time>2023-07-29T16:22:18.000Z</time>
        <extensions>
          <ns3:TrackPointExtension>
            <ns3:hr>88</ns3:hr>
            <ns3:cad>0</ns3:cad>
          </ns3:TrackPointExtension>
        </extensions>
      </trkpt>
      <trkpt lat="37.78594471514225006103515625" lon="-107.7038879133760929107666015625">
        <ele>4054</ele>
        <time>2023-07-29T16:22:19.000Z</time>
        <extensions>
          <ns3:TrackPointExtension>
            <ns3:hr>89</ns3:hr>
            <ns3:cad>0</ns3:cad>
          </ns3:TrackPointExtension>
        </extensions>
      </trkpt>
      <trkpt lat="37.78594329021871089935302734375" lon="-107.70388481207191944122314453125">
        <ele>4054</ele>
        <time>2023-07-29T16:22:20.000Z</time>
        <extensions>
          <ns3:TrackPointExtension>
            <ns3:hr>89</ns3:hr>
            <ns3:cad>0</ns3:cad>
          </ns3:TrackPointExtension>
        </extensions>
      </trkpt>
      <trkpt lat="37.78594203293323516845703125" lon="-107.70388263277709484100341796875">
        <ele>4054</ele>
        <time>2023-07-29T16:22:21.000Z</time>
        <extensions>
          <ns3:TrackPointExtension>
            <ns3:hr>89</ns3:hr>
            <ns3:cad>0</ns3:cad>
          </ns3:TrackPointExtension>
        </extensions>
      </trkpt>
      <trkpt lat="37.7859482355415821075439453125" lon="-107.70388162694871425628662109375">
        <ele>4054</ele>
        <time>2023-07-29T16:22:22.000Z</time>
        <extensions>
          <ns3:TrackPointExtension>
            <ns3:hr>89</ns3:hr>
            <ns3:cad>0</ns3:cad>
          </ns3:TrackPointExtension>
        </extensions>
      </trkpt>
      <trkpt lat="37.7859442122280597686767578125" lon="-107.70387995056807994842529296875">
        <ele>4054</ele>
        <time>2023-07-29T16:22:23.000Z</time>
        <extensions>
          <ns3:TrackPointExtension>
            <ns3:hr>89</ns3:hr>
            <ns3:cad>0</ns3:cad>
          </ns3:TrackPointExtension>
        </extensions>
      </trkpt>
      <trkpt lat="37.7859442122280597686767578125" lon="-107.70387793891131877899169921875">
        <ele>4053.800048828125</ele>
        <time>2023-07-29T16:22:24.000Z</time>
        <extensions>
          <ns3:TrackPointExtension>
            <ns3:hr>89</ns3:hr>
            <ns3:cad>0</ns3:cad>
          </ns3:TrackPointExtension>
        </extensions>
      </trkpt>
      <trkpt lat="37.78594337403774261474609375" lon="-107.7038778550922870635986328125">
        <ele>4053.800048828125</ele>
        <time>2023-07-29T16:22:25.000Z</time>
        <extensions>
          <ns3:TrackPointExtension>
            <ns3:hr>90</ns3:hr>
            <ns3:cad>0</ns3:cad>
          </ns3:TrackPointExtension>
        </extensions>
      </trkpt>
      <trkpt lat="37.78594295494258403778076171875" lon="-107.70387877710163593292236328125">
        <ele>4053.800048828125</ele>
        <time>2023-07-29T16:22:26.000Z</time>
        <extensions>
          <ns3:TrackPointExtension>
            <ns3:hr>90</ns3:hr>
            <ns3:cad>0</ns3:cad>
          </ns3:TrackPointExtension>
        </extensions>
      </trkpt>
      <trkpt lat="37.78594362549483776092529296875" lon="-107.70387969911098480224609375">
        <ele>4053.800048828125</ele>
        <time>2023-07-29T16:22:27.000Z</time>
        <extensions>
          <ns3:TrackPointExtension>
            <ns3:hr>90</ns3:hr>
            <ns3:cad>0</ns3:cad>
          </ns3:TrackPointExtension>
        </extensions>
      </trkpt>
      <trkpt lat="37.78594496659934520721435546875" lon="-107.7038805373013019561767578125">
        <ele>4053.800048828125</ele>
        <time>2023-07-29T16:22:28.000Z</time>
        <extensions>
          <ns3:TrackPointExtension>
            <ns3:hr>90</ns3:hr>
            <ns3:cad>0</ns3:cad>
          </ns3:TrackPointExtension>
        </extensions>
      </trkpt>
      <trkpt lat="37.78594664297997951507568359375" lon="-107.703882046043872833251953125">
        <ele>4053.800048828125</ele>
        <time>2023-07-29T16:22:29.000Z</time>
        <extensions>
          <ns3:TrackPointExtension>
            <ns3:hr>90</ns3:hr>
            <ns3:cad>0</ns3:cad>
          </ns3:TrackPointExtension>
        </extensions>
      </trkpt>
      <trkpt lat="37.78594949282705783843994140625" lon="-107.7038825489580631256103515625">
        <ele>4053.800048828125</ele>
        <time>2023-07-29T16:22:30.000Z</time>
        <extensions>
          <ns3:TrackPointExtension>
            <ns3:hr>91</ns3:hr>
            <ns3:cad>0</ns3:cad>
          </ns3:TrackPointExtension>
        </extensions>
      </trkpt>
      <trkpt lat="37.7859509177505970001220703125" lon="-107.70388481207191944122314453125">
        <ele>4054</ele>
        <time>2023-07-29T16:22:31.000Z</time>
        <extensions>
          <ns3:TrackPointExtension>
            <ns3:hr>90</ns3:hr>
            <ns3:cad>0</ns3:cad>
          </ns3:TrackPointExtension>
        </extensions>
      </trkpt>
      <trkpt lat="37.78595066629350185394287109375" lon="-107.70388565026223659515380859375">
        <ele>4054</ele>
        <time>2023-07-29T16:22:32.000Z</time>
        <extensions>
          <ns3:TrackPointExtension>
            <ns3:hr>87</ns3:hr>
            <ns3:cad>0</ns3:cad>
          </ns3:TrackPointExtension>
        </extensions>
      </trkpt>
      <trkpt lat="37.78595318086445331573486328125" lon="-107.70388296805322170257568359375">
        <ele>4054</ele>
        <time>2023-07-29T16:22:33.000Z</time>
        <extensions>
          <ns3:TrackPointExtension>
            <ns3:hr>85</ns3:hr>
            <ns3:cad>0</ns3:cad>
          </ns3:TrackPointExtension>
        </extensions>
      </trkpt>
      <trkpt lat="37.78595351614058017730712890625" lon="-107.70388313569128513336181640625">
        <ele>4054</ele>
        <time>2023-07-29T16:22:34.000Z</time>
        <extensions>
          <ns3:TrackPointExtension>
            <ns3:hr>84</ns3:hr>
            <ns3:cad>0</ns3:cad>
          </ns3:TrackPointExtension>
        </extensions>
      </trkpt>
      <trkpt lat="37.7859534323215484619140625" lon="-107.7038838900625705718994140625">
        <ele>4053.800048828125</ele>
        <time>2023-07-29T16:22:35.000Z</time>
        <extensions>
          <ns3:TrackPointExtension>
            <ns3:hr>84</ns3:hr>
            <ns3:cad>0</ns3:cad>
          </ns3:TrackPointExtension>
        </extensions>
      </trkpt>
      <trkpt lat="37.785955779254436492919921875" lon="-107.7038842253386974334716796875">
        <ele>4053.800048828125</ele>
        <time>2023-07-29T16:22:36.000Z</time>
        <extensions>
          <ns3:TrackPointExtension>
            <ns3:hr>84</ns3:hr>
            <ns3:cad>0</ns3:cad>
          </ns3:TrackPointExtension>
        </extensions>
      </trkpt>
      <trkpt lat="37.7859589643776416778564453125" lon="-107.70388447679579257965087890625">
        <ele>4053.800048828125</ele>
        <time>2023-07-29T16:22:37.000Z</time>
        <extensions>
          <ns3:TrackPointExtension>
            <ns3:hr>83</ns3:hr>
            <ns3:cad>0</ns3:cad>
          </ns3:TrackPointExtension>
        </extensions>
      </trkpt>
      <trkpt lat="37.7859592996537685394287109375" lon="-107.70388598553836345672607421875">
        <ele>4053.800048828125</ele>
        <time>2023-07-29T16:22:38.000Z</time>
        <extensions>
          <ns3:TrackPointExtension>
            <ns3:hr>80</ns3:hr>
            <ns3:cad>0</ns3:cad>
          </ns3:TrackPointExtension>
        </extensions>
      </trkpt>
      <trkpt lat="37.785959132015705108642578125" lon="-107.703887410461902618408203125">
        <ele>4053.800048828125</ele>
        <time>2023-07-29T16:22:39.000Z</time>
        <extensions>
          <ns3:TrackPointExtension>
            <ns3:hr>80</ns3:hr>
            <ns3:cad>0</ns3:cad>
          </ns3:TrackPointExtension>
        </extensions>
      </trkpt>
      <trkpt lat="37.7859626524150371551513671875" lon="-107.7038879133760929107666015625">
        <ele>4053.800048828125</ele>
        <time>2023-07-29T16:22:40.000Z</time>
        <extensions>
          <ns3:TrackPointExtension>
            <ns3:hr>80</ns3:hr>
            <ns3:cad>0</ns3:cad>
          </ns3:TrackPointExtension>
        </extensions>
      </trkpt>
      <trkpt lat="37.78596424497663974761962890625" lon="-107.70389042794704437255859375">
        <ele>4053.800048828125</ele>
        <time>2023-07-29T16:22:41.000Z</time>
        <extensions>
          <ns3:TrackPointExtension>
            <ns3:hr>80</ns3:hr>
            <ns3:cad>0</ns3:cad>
          </ns3:TrackPointExtension>
        </extensions>
      </trkpt>
      <trkpt lat="37.785967178642749786376953125" lon="-107.703893445432186126708984375">
        <ele>4053.800048828125</ele>
        <time>2023-07-29T16:22:42.000Z</time>
        <extensions>
          <ns3:TrackPointExtension>
            <ns3:hr>79</ns3:hr>
            <ns3:cad>0</ns3:cad>
          </ns3:TrackPointExtension>
        </extensions>
      </trkpt>
      <trkpt lat="37.7859700284898281097412109375" lon="-107.70389453507959842681884765625">
        <ele>4053.800048828125</ele>
        <time>2023-07-29T16:22:43.000Z</time>
        <extensions>
          <ns3:TrackPointExtension>
            <ns3:hr>78</ns3:hr>
            <ns3:cad>0</ns3:cad>
          </ns3:TrackPointExtension>
        </extensions>
      </trkpt>
      <trkpt lat="37.78597044758498668670654296875" lon="-107.70389570854604244232177734375">
        <ele>4053.800048828125</ele>
        <time>2023-07-29T16:22:44.000Z</time>
        <extensions>
          <ns3:TrackPointExtension>
            <ns3:hr>77</ns3:hr>
            <ns3:cad>0</ns3:cad>
          </ns3:TrackPointExtension>
        </extensions>
      </trkpt>
      <trkpt lat="37.785971872508525848388671875" lon="-107.70389445126056671142578125">
        <ele>4053.800048828125</ele>
        <time>2023-07-29T16:22:45.000Z</time>
        <extensions>
          <ns3:TrackPointExtension>
            <ns3:hr>77</ns3:hr>
            <ns3:cad>0</ns3:cad>
          </ns3:TrackPointExtension>
        </extensions>
      </trkpt>
      <trkpt lat="37.78597027994692325592041015625" lon="-107.70389235578477382659912109375">
        <ele>4053.800048828125</ele>
        <time>2023-07-29T16:22:46.000Z</time>
        <extensions>
          <ns3:TrackPointExtension>
            <ns3:hr>77</ns3:hr>
            <ns3:cad>0</ns3:cad>
          </ns3:TrackPointExtension>
        </extensions>
      </trkpt>
      <trkpt lat="37.78596810065209865570068359375" lon="-107.70389202050864696502685546875">
        <ele>4053.800048828125</ele>
        <time>2023-07-29T16:22:47.000Z</time>
        <extensions>
          <ns3:TrackPointExtension>
            <ns3:hr>77</ns3:hr>
            <ns3:cad>0</ns3:cad>
          </ns3:TrackPointExtension>
        </extensions>
      </trkpt>
      <trkpt lat="37.78596407733857631683349609375" lon="-107.703891433775424957275390625">
        <ele>4053.800048828125</ele>
        <time>2023-07-29T16:22:48.000Z</time>
        <extensions>
          <ns3:TrackPointExtension>
            <ns3:hr>77</ns3:hr>
            <ns3:cad>0</ns3:cad>
          </ns3:TrackPointExtension>
        </extensions>
      </trkpt>
      <trkpt lat="37.78596340678632259368896484375" lon="-107.70389042794704437255859375">
        <ele>4053.800048828125</ele>
        <time>2023-07-29T16:22:49.000Z</time>
        <extensions>
          <ns3:TrackPointExtension>
            <ns3:hr>77</ns3:hr>
            <ns3:cad>0</ns3:cad>
          </ns3:TrackPointExtension>
        </extensions>
      </trkpt>
      <trkpt lat="37.78596474789083003997802734375" lon="-107.703889422118663787841796875">
        <ele>4053.800048828125</ele>
        <time>2023-07-29T16:22:50.000Z</time>
        <extensions>
          <ns3:TrackPointExtension>
            <ns3:hr>78</ns3:hr>
            <ns3:cad>0</ns3:cad>
          </ns3:TrackPointExtension>
        </extensions>
      </trkpt>
      <trkpt lat="37.78596458025276660919189453125" lon="-107.70389051176607608795166015625">
        <ele>4053.800048828125</ele>
        <time>2023-07-29T16:22:51.000Z</time>
        <extensions>
          <ns3:TrackPointExtension>
            <ns3:hr>78</ns3:hr>
            <ns3:cad>0</ns3:cad>
          </ns3:TrackPointExtension>
        </extensions>
      </trkpt>
      <trkpt lat="37.78596340678632259368896484375" lon="-107.70389118231832981109619140625">
        <ele>4053.800048828125</ele>
        <time>2023-07-29T16:22:52.000Z</time>
        <extensions>
          <ns3:TrackPointExtension>
            <ns3:hr>78</ns3:hr>
            <ns3:cad>0</ns3:cad>
          </ns3:TrackPointExtension>
        </extensions>
      </trkpt>
      <trkpt lat="37.7859623171389102935791015625" lon="-107.70389336161315441131591796875">
        <ele>4053.800048828125</ele>
        <time>2023-07-29T16:22:53.000Z</time>
        <extensions>
          <ns3:TrackPointExtension>
            <ns3:hr>78</ns3:hr>
            <ns3:cad>0</ns3:cad>
          </ns3:TrackPointExtension>
        </extensions>
      </trkpt>
      <trkpt lat="37.78596349060535430908203125" lon="-107.70389554090797901153564453125">
        <ele>4053.800048828125</ele>
        <time>2023-07-29T16:22:54.000Z</time>
        <extensions>
          <ns3:TrackPointExtension>
            <ns3:hr>78</ns3:hr>
            <ns3:cad>0</ns3:cad>
          </ns3:TrackPointExtension>
        </extensions>
      </trkpt>
      <trkpt lat="37.78596508316695690155029296875" lon="-107.7038969658315181732177734375">
        <ele>4053.800048828125</ele>
        <time>2023-07-29T16:22:55.000Z</time>
        <extensions>
          <ns3:TrackPointExtension>
            <ns3:hr>78</ns3:hr>
            <ns3:cad>0</ns3:cad>
          </ns3:TrackPointExtension>
        </extensions>
      </trkpt>
      <trkpt lat="37.7859646640717983245849609375" lon="-107.70389788784086704254150390625">
        <ele>4053.800048828125</ele>
        <time>2023-07-29T16:22:56.000Z</time>
        <extensions>
          <ns3:TrackPointExtension>
            <ns3:hr>78</ns3:hr>
            <ns3:cad>0</ns3:cad>
          </ns3:TrackPointExtension>
        </extensions>
      </trkpt>
      <trkpt lat="37.7859636582434177398681640625" lon="-107.70389855839312076568603515625">
        <ele>4053.800048828125</ele>
        <time>2023-07-29T16:22:57.000Z</time>
        <extensions>
          <ns3:TrackPointExtension>
            <ns3:hr>79</ns3:hr>
            <ns3:cad>0</ns3:cad>
          </ns3:TrackPointExtension>
        </extensions>
      </trkpt>
      <trkpt lat="37.78596323914825916290283203125" lon="-107.70389981567859649658203125">
        <ele>4053.800048828125</ele>
        <time>2023-07-29T16:22:58.000Z</time>
        <extensions>
          <ns3:TrackPointExtension>
            <ns3:hr>80</ns3:hr>
            <ns3:cad>0</ns3:cad>
          </ns3:TrackPointExtension>
        </extensions>
      </trkpt>
      <trkpt lat="37.7859628200531005859375" lon="-107.70389973185956478118896484375">
        <ele>4053.800048828125</ele>
        <time>2023-07-29T16:22:59.000Z</time>
        <extensions>
          <ns3:TrackPointExtension>
            <ns3:hr>80</ns3:hr>
            <ns3:cad>0</ns3:cad>
          </ns3:TrackPointExtension>
        </extensions>
      </trkpt>
      <trkpt lat="37.78596080839633941650390625" lon="-107.703899480402469635009765625">
        <ele>4053.800048828125</ele>
        <time>2023-07-29T16:23:00.000Z</time>
        <extensions>
          <ns3:TrackPointExtension>
            <ns3:hr>79</ns3:hr>
            <ns3:cad>0</ns3:cad>
          </ns3:TrackPointExtension>
        </extensions>
      </trkpt>
      <trkpt lat="37.78596189804375171661376953125" lon="-107.70389805547893047332763671875">
        <ele>4053.800048828125</ele>
        <time>2023-07-29T16:23:01.000Z</time>
        <extensions>
          <ns3:TrackPointExtension>
            <ns3:hr>79</ns3:hr>
            <ns3:cad>0</ns3:cad>
          </ns3:TrackPointExtension>
        </extensions>
      </trkpt>
      <trkpt lat="37.78596173040568828582763671875" lon="-107.7038952894508838653564453125">
        <ele>4053.800048828125</ele>
        <time>2023-07-29T16:23:02.000Z</time>
        <extensions>
          <ns3:TrackPointExtension>
            <ns3:hr>78</ns3:hr>
            <ns3:cad>0</ns3:cad>
          </ns3:TrackPointExtension>
        </extensions>
      </trkpt>
      <trkpt lat="37.78596349060535430908203125" lon="-107.703894786536693572998046875">
        <ele>4053.800048828125</ele>
        <time>2023-07-29T16:23:03.000Z</time>
        <extensions>
          <ns3:TrackPointExtension>
            <ns3:hr>75</ns3:hr>
            <ns3:cad>0</ns3:cad>
          </ns3:TrackPointExtension>
        </extensions>
      </trkpt>
      <trkpt lat="37.7859603054821491241455078125" lon="-107.7038932777941226959228515625">
        <ele>4053.800048828125</ele>
        <time>2023-07-29T16:23:04.000Z</time>
        <extensions>
          <ns3:TrackPointExtension>
            <ns3:hr>75</ns3:hr>
            <ns3:cad>0</ns3:cad>
          </ns3:TrackPointExtension>
        </extensions>
      </trkpt>
      <trkpt lat="37.78595452196896076202392578125" lon="-107.7038895897567272186279296875">
        <ele>4053.800048828125</ele>
        <time>2023-07-29T16:23:05.000Z</time>
        <extensions>
          <ns3:TrackPointExtension>
            <ns3:hr>74</ns3:hr>
            <ns3:cad>0</ns3:cad>
          </ns3:TrackPointExtension>
        </extensions>
      </trkpt>
      <trkpt lat="37.78595418669283390045166015625" lon="-107.70388883538544178009033203125">
        <ele>4053.800048828125</ele>
        <time>2023-07-29T16:23:06.000Z</time>
        <extensions>
          <ns3:TrackPointExtension>
            <ns3:hr>74</ns3:hr>
            <ns3:cad>0</ns3:cad>
          </ns3:TrackPointExtension>
        </extensions>
      </trkpt>
      <trkpt lat="37.7859546057879924774169921875" lon="-107.7038842253386974334716796875">
        <ele>4053.800048828125</ele>
        <time>2023-07-29T16:23:07.000Z</time>
        <extensions>
          <ns3:TrackPointExtension>
            <ns3:hr>73</ns3:hr>
            <ns3:cad>0</ns3:cad>
          </ns3:TrackPointExtension>
        </extensions>
      </trkpt>
      <trkpt lat="37.78595586307346820831298828125" lon="-107.703885734081268310546875">
        <ele>4053.800048828125</ele>
        <time>2023-07-29T16:23:08.000Z</time>
        <extensions>
          <ns3:TrackPointExtension>
            <ns3:hr>73</ns3:hr>
            <ns3:cad>0</ns3:cad>
          </ns3:TrackPointExtension>
        </extensions>
      </trkpt>
      <trkpt lat="37.7859522588551044464111328125" lon="-107.70388833247125148773193359375">
        <ele>4053.60009765625</ele>
        <time>2023-07-29T16:23:09.000Z</time>
        <extensions>
          <ns3:TrackPointExtension>
            <ns3:hr>73</ns3:hr>
            <ns3:cad>0</ns3:cad>
          </ns3:TrackPointExtension>
        </extensions>
      </trkpt>
      <trkpt lat="37.785951085388660430908203125" lon="-107.70389067940413951873779296875">
        <ele>4053.60009765625</ele>
        <time>2023-07-29T16:23:10.000Z</time>
        <extensions>
          <ns3:TrackPointExtension>
            <ns3:hr>73</ns3:hr>
            <ns3:cad>0</ns3:cad>
          </ns3:TrackPointExtension>
        </extensions>
      </trkpt>
      <trkpt lat="37.78595301322638988494873046875" lon="-107.70389084704220294952392578125">
        <ele>4053.60009765625</ele>
        <time>2023-07-29T16:23:11.000Z</time>
        <extensions>
          <ns3:TrackPointExtension>
            <ns3:hr>74</ns3:hr>
            <ns3:cad>0</ns3:cad>
          </ns3:TrackPointExtension>
        </extensions>
      </trkpt>
      <trkpt lat="37.78595410287380218505859375" lon="-107.70389218814671039581298828125">
        <ele>4053.60009765625</ele>
        <time>2023-07-29T16:23:12.000Z</time>
        <extensions>
          <ns3:TrackPointExtension>
            <ns3:hr>75</ns3:hr>
            <ns3:cad>0</ns3:cad>
          </ns3:TrackPointExtension>
        </extensions>
      </trkpt>
      <trkpt lat="37.7859535999596118927001953125" lon="-107.70389537326991558074951171875">
        <ele>4053.800048828125</ele>
        <time>2023-07-29T16:23:13.000Z</time>
        <extensions>
          <ns3:TrackPointExtension>
            <ns3:hr>75</ns3:hr>
            <ns3:cad>0</ns3:cad>
          </ns3:TrackPointExtension>
        </extensions>
      </trkpt>
      <trkpt lat="37.78595251031219959259033203125" lon="-107.703896462917327880859375">
        <ele>4053.800048828125</ele>
        <time>2023-07-29T16:23:14.000Z</time>
        <extensions>
          <ns3:TrackPointExtension>
            <ns3:hr>76</ns3:hr>
            <ns3:cad>0</ns3:cad>
          </ns3:TrackPointExtension>
        </extensions>
      </trkpt>
      <trkpt lat="37.78595200739800930023193359375" lon="-107.70389688201248645782470703125">
        <ele>4053.800048828125</ele>
        <time>2023-07-29T16:23:15.000Z</time>
        <extensions>
          <ns3:TrackPointExtension>
            <ns3:hr>78</ns3:hr>
            <ns3:cad>0</ns3:cad>
          </ns3:TrackPointExtension>
        </extensions>
      </trkpt>
      <trkpt lat="37.78595007956027984619140625" lon="-107.70389713346958160400390625">
        <ele>4053.800048828125</ele>
        <time>2023-07-29T16:23:16.000Z</time>
        <extensions>
          <ns3:TrackPointExtension>
            <ns3:hr>80</ns3:hr>
            <ns3:cad>0</ns3:cad>
          </ns3:TrackPointExtension>
        </extensions>
      </trkpt>
      <trkpt lat="37.7859458886086940765380859375" lon="-107.70389579236507415771484375">
        <ele>4053.800048828125</ele>
        <time>2023-07-29T16:23:17.000Z</time>
        <extensions>
          <ns3:TrackPointExtension>
            <ns3:hr>81</ns3:hr>
            <ns3:cad>0</ns3:cad>
          </ns3:TrackPointExtension>
        </extensions>
      </trkpt>
      <trkpt lat="37.78594647534191608428955078125" lon="-107.703896127641201019287109375">
        <ele>4053.800048828125</ele>
        <time>2023-07-29T16:23:18.000Z</time>
        <extensions>
          <ns3:TrackPointExtension>
            <ns3:hr>82</ns3:hr>
            <ns3:cad>0</ns3:cad>
          </ns3:TrackPointExtension>
        </extensions>
      </trkpt>
      <trkpt lat="37.7859482355415821075439453125" lon="-107.70389378070831298828125">
        <ele>4053.800048828125</ele>
        <time>2023-07-29T16:23:19.000Z</time>
        <extensions>
          <ns3:TrackPointExtension>
            <ns3:hr>83</ns3:hr>
            <ns3:cad>0</ns3:cad>
          </ns3:TrackPointExtension>
        </extensions>
      </trkpt>
      <trkpt lat="37.78594982810318470001220703125" lon="-107.7038924396038055419921875">
        <ele>4053.800048828125</ele>
        <time>2023-07-29T16:23:20.000Z</time>
        <extensions>
          <ns3:TrackPointExtension>
            <ns3:hr>84</ns3:hr>
            <ns3:cad>0</ns3:cad>
          </ns3:TrackPointExtension>
        </extensions>
      </trkpt>
      <trkpt lat="37.78595133684575557708740234375" lon="-107.70389168523252010345458984375">
        <ele>4053.800048828125</ele>
        <time>2023-07-29T16:23:21.000Z</time>
        <extensions>
          <ns3:TrackPointExtension>
            <ns3:hr>84</ns3:hr>
            <ns3:cad>0</ns3:cad>
          </ns3:TrackPointExtension>
        </extensions>
      </trkpt>
      <trkpt lat="37.78595468960702419281005859375" lon="-107.70388967357575893402099609375">
        <ele>4053.60009765625</ele>
        <time>2023-07-29T16:23:22.000Z</time>
        <extensions>
          <ns3:TrackPointExtension>
            <ns3:hr>84</ns3:hr>
            <ns3:cad>0</ns3:cad>
          </ns3:TrackPointExtension>
        </extensions>
      </trkpt>
      <trkpt lat="37.78595737181603908538818359375" lon="-107.70388984121382236480712890625">
        <ele>4053.60009765625</ele>
        <time>2023-07-29T16:23:23.000Z</time>
        <extensions>
          <ns3:TrackPointExtension>
            <ns3:hr>83</ns3:hr>
            <ns3:cad>0</ns3:cad>
          </ns3:TrackPointExtension>
        </extensions>
      </trkpt>
      <trkpt lat="37.78596005402505397796630859375" lon="-107.70389000885188579559326171875">
        <ele>4053.60009765625</ele>
        <time>2023-07-29T16:23:24.000Z</time>
        <extensions>
          <ns3:TrackPointExtension>
            <ns3:hr>83</ns3:hr>
            <ns3:cad>0</ns3:cad>
          </ns3:TrackPointExtension>
        </extensions>
      </trkpt>
      <trkpt lat="37.78595745563507080078125" lon="-107.7038889192044734954833984375">
        <ele>4053.60009765625</ele>
        <time>2023-07-29T16:23:25.000Z</time>
        <extensions>
          <ns3:TrackPointExtension>
            <ns3:hr>83</ns3:hr>
            <ns3:cad>0</ns3:cad>
          </ns3:TrackPointExtension>
        </extensions>
      </trkpt>
      <trkpt lat="37.78596173040568828582763671875" lon="-107.703893445432186126708984375">
        <ele>4053.60009765625</ele>
        <time>2023-07-29T16:23:26.000Z</time>
        <extensions>
          <ns3:TrackPointExtension>
            <ns3:hr>83</ns3:hr>
            <ns3:cad>0</ns3:cad>
          </ns3:TrackPointExtension>
        </extensions>
      </trkpt>
      <trkpt lat="37.78596424497663974761962890625" lon="-107.70389419980347156524658203125">
        <ele>4053.60009765625</ele>
        <time>2023-07-29T16:23:27.000Z</time>
        <extensions>
          <ns3:TrackPointExtension>
            <ns3:hr>83</ns3:hr>
            <ns3:cad>0</ns3:cad>
          </ns3:TrackPointExtension>
        </extensions>
      </trkpt>
      <trkpt lat="37.78596793301403522491455078125" lon="-107.7038989774882793426513671875">
        <ele>4053.60009765625</ele>
        <time>2023-07-29T16:23:28.000Z</time>
        <extensions>
          <ns3:TrackPointExtension>
            <ns3:hr>83</ns3:hr>
            <ns3:cad>0</ns3:cad>
          </ns3:TrackPointExtension>
        </extensions>
      </trkpt>
      <trkpt lat="37.7859680168330669403076171875" lon="-107.70389906130731105804443359375">
        <ele>4053.60009765625</ele>
        <time>2023-07-29T16:23:29.000Z</time>
        <extensions>
          <ns3:TrackPointExtension>
            <ns3:hr>83</ns3:hr>
            <ns3:cad>0</ns3:cad>
          </ns3:TrackPointExtension>
        </extensions>
      </trkpt>
      <trkpt lat="37.78596483170986175537109375" lon="-107.7038986422121524810791015625">
        <ele>4053.800048828125</ele>
        <time>2023-07-29T16:23:30.000Z</time>
        <extensions>
          <ns3:TrackPointExtension>
            <ns3:hr>83</ns3:hr>
            <ns3:cad>0</ns3:cad>
          </ns3:TrackPointExtension>
        </extensions>
      </trkpt>
      <trkpt lat="37.78596340678632259368896484375" lon="-107.7038973011076450347900390625">
        <ele>4054</ele>
        <time>2023-07-29T16:23:31.000Z</time>
        <extensions>
          <ns3:TrackPointExtension>
            <ns3:hr>82</ns3:hr>
            <ns3:cad>0</ns3:cad>
          </ns3:TrackPointExtension>
        </extensions>
      </trkpt>
      <trkpt lat="37.7859609760344028472900390625" lon="-107.70389302633702754974365234375">
        <ele>4054</ele>
        <time>2023-07-29T16:23:32.000Z</time>
        <extensions>
          <ns3:TrackPointExtension>
            <ns3:hr>81</ns3:hr>
            <ns3:cad>0</ns3:cad>
          </ns3:TrackPointExtension>
        </extensions>
      </trkpt>
      <trkpt lat="37.78596005402505397796630859375" lon="-107.703890763223171234130859375">
        <ele>4054</ele>
        <time>2023-07-29T16:23:33.000Z</time>
        <extensions>
          <ns3:TrackPointExtension>
            <ns3:hr>81</ns3:hr>
            <ns3:cad>0</ns3:cad>
          </ns3:TrackPointExtension>
        </extensions>
      </trkpt>
      <trkpt lat="37.78596038930118083953857421875" lon="-107.70388900302350521087646484375">
        <ele>4054</ele>
        <time>2023-07-29T16:23:34.000Z</time>
        <extensions>
          <ns3:TrackPointExtension>
            <ns3:hr>82</ns3:hr>
            <ns3:cad>0</ns3:cad>
          </ns3:TrackPointExtension>
        </extensions>
      </trkpt>
      <trkpt lat="37.7859603054821491241455078125" lon="-107.70388640463352203369140625">
        <ele>4053.800048828125</ele>
        <time>2023-07-29T16:23:35.000Z</time>
        <extensions>
          <ns3:TrackPointExtension>
            <ns3:hr>83</ns3:hr>
            <ns3:cad>0</ns3:cad>
          </ns3:TrackPointExtension>
        </extensions>
      </trkpt>
      <trkpt lat="37.7859549410641193389892578125" lon="-107.70389176905155181884765625">
        <ele>4053.800048828125</ele>
        <time>2023-07-29T16:23:36.000Z</time>
        <extensions>
          <ns3:TrackPointExtension>
            <ns3:hr>83</ns3:hr>
            <ns3:cad>0</ns3:cad>
          </ns3:TrackPointExtension>
        </extensions>
      </trkpt>
      <trkpt lat="37.78595083393156528472900390625" lon="-107.70388715900480747222900390625">
        <ele>4053.800048828125</ele>
        <time>2023-07-29T16:23:37.000Z</time>
        <extensions>
          <ns3:TrackPointExtension>
            <ns3:hr>83</ns3:hr>
            <ns3:cad>0</ns3:cad>
          </ns3:TrackPointExtension>
        </extensions>
      </trkpt>
      <trkpt lat="37.78595142066478729248046875" lon="-107.70388900302350521087646484375">
        <ele>4053.800048828125</ele>
        <time>2023-07-29T16:23:38.000Z</time>
        <extensions>
          <ns3:TrackPointExtension>
            <ns3:hr>83</ns3:hr>
            <ns3:cad>0</ns3:cad>
          </ns3:TrackPointExtension>
        </extensions>
      </trkpt>
      <trkpt lat="37.78595133684575557708740234375" lon="-107.7038889192044734954833984375">
        <ele>4053.800048828125</ele>
        <time>2023-07-29T16:23:39.000Z</time>
        <extensions>
          <ns3:TrackPointExtension>
            <ns3:hr>85</ns3:hr>
            <ns3:cad>0</ns3:cad>
          </ns3:TrackPointExtension>
        </extensions>
      </trkpt>
      <trkpt lat="37.78595183975994586944580078125" lon="-107.703889422118663787841796875">
        <ele>4053.800048828125</ele>
        <time>2023-07-29T16:23:40.000Z</time>
        <extensions>
          <ns3:TrackPointExtension>
            <ns3:hr>86</ns3:hr>
            <ns3:cad>0</ns3:cad>
          </ns3:TrackPointExtension>
        </extensions>
      </trkpt>
      <trkpt lat="37.78595385141670703887939453125" lon="-107.70389218814671039581298828125">
        <ele>4053.800048828125</ele>
        <time>2023-07-29T16:23:41.000Z</time>
        <extensions>
          <ns3:TrackPointExtension>
            <ns3:hr>88</ns3:hr>
            <ns3:cad>0</ns3:cad>
          </ns3:TrackPointExtension>
        </extensions>
      </trkpt>
      <trkpt lat="37.78595410287380218505859375" lon="-107.7038924396038055419921875">
        <ele>4054</ele>
        <time>2023-07-29T16:23:42.000Z</time>
        <extensions>
          <ns3:TrackPointExtension>
            <ns3:hr>88</ns3:hr>
            <ns3:cad>0</ns3:cad>
          </ns3:TrackPointExtension>
        </extensions>
      </trkpt>
      <trkpt lat="37.785954773426055908203125" lon="-107.70389285869896411895751953125">
        <ele>4054</ele>
        <time>2023-07-29T16:23:43.000Z</time>
        <extensions>
          <ns3:TrackPointExtension>
            <ns3:hr>89</ns3:hr>
            <ns3:cad>0</ns3:cad>
          </ns3:TrackPointExtension>
        </extensions>
      </trkpt>
      <trkpt lat="37.78595619834959506988525390625" lon="-107.70389470271766185760498046875">
        <ele>4054</ele>
        <time>2023-07-29T16:23:44.000Z</time>
        <extensions>
          <ns3:TrackPointExtension>
            <ns3:hr>89</ns3:hr>
            <ns3:cad>0</ns3:cad>
          </ns3:TrackPointExtension>
        </extensions>
      </trkpt>
      <trkpt lat="37.78595821000635623931884765625" lon="-107.703898809850215911865234375">
        <ele>4054</ele>
        <time>2023-07-29T16:23:45.000Z</time>
        <extensions>
          <ns3:TrackPointExtension>
            <ns3:hr>89</ns3:hr>
            <ns3:cad>0</ns3:cad>
          </ns3:TrackPointExtension>
        </extensions>
      </trkpt>
      <trkpt lat="37.785965837538242340087890625" lon="-107.7039019949734210968017578125">
        <ele>4053.800048828125</ele>
        <time>2023-07-29T16:23:46.000Z</time>
        <extensions>
          <ns3:TrackPointExtension>
            <ns3:hr>89</ns3:hr>
            <ns3:cad>0</ns3:cad>
          </ns3:TrackPointExtension>
        </extensions>
      </trkpt>
      <trkpt lat="37.785967178642749786376953125" lon="-107.70390383899211883544921875">
        <ele>4054</ele>
        <time>2023-07-29T16:23:47.000Z</time>
        <extensions>
          <ns3:TrackPointExtension>
            <ns3:hr>88</ns3:hr>
            <ns3:cad>0</ns3:cad>
          </ns3:TrackPointExtension>
        </extensions>
      </trkpt>
      <trkpt lat="37.78596407733857631683349609375" lon="-107.70389889366924762725830078125">
        <ele>4053.800048828125</ele>
        <time>2023-07-29T16:23:48.000Z</time>
        <extensions>
          <ns3:TrackPointExtension>
            <ns3:hr>88</ns3:hr>
            <ns3:cad>0</ns3:cad>
          </ns3:TrackPointExtension>
        </extensions>
      </trkpt>
      <trkpt lat="37.785958461463451385498046875" lon="-107.70389185287058353424072265625">
        <ele>4053.800048828125</ele>
        <time>2023-07-29T16:23:49.000Z</time>
        <extensions>
          <ns3:TrackPointExtension>
            <ns3:hr>87</ns3:hr>
            <ns3:cad>0</ns3:cad>
          </ns3:TrackPointExtension>
        </extensions>
      </trkpt>
      <trkpt lat="37.7859572879970073699951171875" lon="-107.70388766191899776458740234375">
        <ele>4053.800048828125</ele>
        <time>2023-07-29T16:23:50.000Z</time>
        <extensions>
          <ns3:TrackPointExtension>
            <ns3:hr>87</ns3:hr>
            <ns3:cad>0</ns3:cad>
          </ns3:TrackPointExtension>
        </extensions>
      </trkpt>
      <trkpt lat="37.78595955111086368560791015625" lon="-107.70388380624353885650634765625">
        <ele>4053.800048828125</ele>
        <time>2023-07-29T16:23:51.000Z</time>
        <extensions>
          <ns3:TrackPointExtension>
            <ns3:hr>87</ns3:hr>
            <ns3:cad>0</ns3:cad>
          </ns3:TrackPointExtension>
        </extensions>
      </trkpt>
      <trkpt lat="37.78596080839633941650390625" lon="-107.70388305187225341796875">
        <ele>4053.800048828125</ele>
        <time>2023-07-29T16:23:52.000Z</time>
        <extensions>
          <ns3:TrackPointExtension>
            <ns3:hr>87</ns3:hr>
            <ns3:cad>0</ns3:cad>
          </ns3:TrackPointExtension>
        </extensions>
      </trkpt>
      <trkpt lat="37.78596055693924427032470703125" lon="-107.7038822136819362640380859375">
        <ele>4053.800048828125</ele>
        <time>2023-07-29T16:23:53.000Z</time>
        <extensions>
          <ns3:TrackPointExtension>
            <ns3:hr>87</ns3:hr>
            <ns3:cad>0</ns3:cad>
          </ns3:TrackPointExtension>
        </extensions>
      </trkpt>
      <trkpt lat="37.785959132015705108642578125" lon="-107.70388062112033367156982421875">
        <ele>4053.800048828125</ele>
        <time>2023-07-29T16:23:54.000Z</time>
        <extensions>
          <ns3:TrackPointExtension>
            <ns3:hr>87</ns3:hr>
            <ns3:cad>0</ns3:cad>
          </ns3:TrackPointExtension>
        </extensions>
      </trkpt>
      <trkpt lat="37.78595519252121448516845703125" lon="-107.7038763463497161865234375">
        <ele>4053.39990234375</ele>
        <time>2023-07-29T16:23:55.000Z</time>
        <extensions>
          <ns3:TrackPointExtension>
            <ns3:hr>87</ns3:hr>
            <ns3:cad>0</ns3:cad>
          </ns3:TrackPointExtension>
        </extensions>
      </trkpt>
      <trkpt lat="37.7859485708177089691162109375" lon="-107.7038711495697498321533203125">
        <ele>4053.199951171875</ele>
        <time>2023-07-29T16:23:56.000Z</time>
        <extensions>
          <ns3:TrackPointExtension>
            <ns3:hr>87</ns3:hr>
            <ns3:cad>0</ns3:cad>
          </ns3:TrackPointExtension>
        </extensions>
      </trkpt>
      <trkpt lat="37.7859388478100299835205078125" lon="-107.7038629353046417236328125">
        <ele>4053</ele>
        <time>2023-07-29T16:23:57.000Z</time>
        <extensions>
          <ns3:TrackPointExtension>
            <ns3:hr>87</ns3:hr>
            <ns3:cad>0</ns3:cad>
          </ns3:TrackPointExtension>
        </extensions>
      </trkpt>
      <trkpt lat="37.78594211675226688385009765625" lon="-107.70386503078043460845947265625">
        <ele>4053</ele>
        <time>2023-07-29T16:23:58.000Z</time>
        <extensions>
          <ns3:TrackPointExtension>
            <ns3:hr>87</ns3:hr>
            <ns3:cad>0</ns3:cad>
          </ns3:TrackPointExtension>
        </extensions>
      </trkpt>
      <trkpt lat="37.785933651030063629150390625" lon="-107.7038704790174961090087890625">
        <ele>4053</ele>
        <time>2023-07-29T16:23:59.000Z</time>
        <extensions>
          <ns3:TrackPointExtension>
            <ns3:hr>87</ns3:hr>
            <ns3:cad>0</ns3:cad>
          </ns3:TrackPointExtension>
        </extensions>
      </trkpt>
      <trkpt lat="37.7859318070113658905029296875" lon="-107.70387701690196990966796875">
        <ele>4053</ele>
        <time>2023-07-29T16:24:00.000Z</time>
        <extensions>
          <ns3:TrackPointExtension>
            <ns3:hr>87</ns3:hr>
            <ns3:cad>0</ns3:cad>
          </ns3:TrackPointExtension>
        </extensions>
      </trkpt>
      <trkpt lat="37.78593398630619049072265625" lon="-107.70388229750096797943115234375">
        <ele>4053</ele>
        <time>2023-07-29T16:24:01.000Z</time>
        <extensions>
          <ns3:TrackPointExtension>
            <ns3:hr>87</ns3:hr>
            <ns3:cad>0</ns3:cad>
          </ns3:TrackPointExtension>
        </extensions>
      </trkpt>
      <trkpt lat="37.785928957164287567138671875" lon="-107.70389378070831298828125">
        <ele>4053.199951171875</ele>
        <time>2023-07-29T16:24:02.000Z</time>
        <extensions>
          <ns3:TrackPointExtension>
            <ns3:hr>86</ns3:hr>
            <ns3:cad>0</ns3:cad>
          </ns3:TrackPointExtension>
        </extensions>
      </trkpt>
      <trkpt lat="37.7859254367649555206298828125" lon="-107.7038939483463764190673828125">
        <ele>4053.199951171875</ele>
        <time>2023-07-29T16:24:03.000Z</time>
        <extensions>
          <ns3:TrackPointExtension>
            <ns3:hr>86</ns3:hr>
            <ns3:cad>0</ns3:cad>
          </ns3:TrackPointExtension>
        </extensions>
      </trkpt>
      <trkpt lat="37.785930968821048736572265625" lon="-107.70389252342283725738525390625">
        <ele>4053.199951171875</ele>
        <time>2023-07-29T16:24:04.000Z</time>
        <extensions>
          <ns3:TrackPointExtension>
            <ns3:hr>87</ns3:hr>
            <ns3:cad>0</ns3:cad>
          </ns3:TrackPointExtension>
        </extensions>
      </trkpt>
      <trkpt lat="37.78593155555427074432373046875" lon="-107.70389579236507415771484375">
        <ele>4053.199951171875</ele>
        <time>2023-07-29T16:24:05.000Z</time>
        <extensions>
          <ns3:TrackPointExtension>
            <ns3:hr>87</ns3:hr>
            <ns3:cad>0</ns3:cad>
          </ns3:TrackPointExtension>
        </extensions>
      </trkpt>
      <trkpt lat="37.7859324775636196136474609375" lon="-107.7038973011076450347900390625">
        <ele>4053.199951171875</ele>
        <time>2023-07-29T16:24:06.000Z</time>
        <extensions>
          <ns3:TrackPointExtension>
            <ns3:hr>87</ns3:hr>
            <ns3:cad>0</ns3:cad>
          </ns3:TrackPointExtension>
        </extensions>
      </trkpt>
      <trkpt lat="37.78593507595360279083251953125" lon="-107.7038993127644062042236328125">
        <ele>4053.39990234375</ele>
        <time>2023-07-29T16:24:07.000Z</time>
        <extensions>
          <ns3:TrackPointExtension>
            <ns3:hr>87</ns3:hr>
            <ns3:cad>0</ns3:cad>
          </ns3:TrackPointExtension>
        </extensions>
      </trkpt>
      <trkpt lat="37.78593842871487140655517578125" lon="-107.70390383899211883544921875">
        <ele>4053.60009765625</ele>
        <time>2023-07-29T16:24:08.000Z</time>
        <extensions>
          <ns3:TrackPointExtension>
            <ns3:hr>87</ns3:hr>
            <ns3:cad>0</ns3:cad>
          </ns3:TrackPointExtension>
        </extensions>
      </trkpt>
      <trkpt lat="37.78594781644642353057861328125" lon="-107.7038978040218353271484375">
        <ele>4053.60009765625</ele>
        <time>2023-07-29T16:24:09.000Z</time>
        <extensions>
          <ns3:TrackPointExtension>
            <ns3:hr>87</ns3:hr>
            <ns3:cad>0</ns3:cad>
          </ns3:TrackPointExtension>
        </extensions>
      </trkpt>
      <trkpt lat="37.78594882227480411529541015625" lon="-107.70389939658343791961669921875">
        <ele>4053.800048828125</ele>
        <time>2023-07-29T16:24:10.000Z</time>
        <extensions>
          <ns3:TrackPointExtension>
            <ns3:hr>87</ns3:hr>
            <ns3:cad>0</ns3:cad>
          </ns3:TrackPointExtension>
        </extensions>
      </trkpt>
      <trkpt lat="37.78594932518899440765380859375" lon="-107.70389311015605926513671875">
        <ele>4053.800048828125</ele>
        <time>2023-07-29T16:24:11.000Z</time>
        <extensions>
          <ns3:TrackPointExtension>
            <ns3:hr>87</ns3:hr>
            <ns3:cad>62</ns3:cad>
          </ns3:TrackPointExtension>
        </extensions>
      </trkpt>
      <trkpt lat="37.78596156276762485504150390625" lon="-107.7038869075477123260498046875">
        <ele>4053.800048828125</ele>
        <time>2023-07-29T16:24:12.000Z</time>
        <extensions>
          <ns3:TrackPointExtension>
            <ns3:hr>87</ns3:hr>
            <ns3:cad>62</ns3:cad>
          </ns3:TrackPointExtension>
        </extensions>
      </trkpt>
      <trkpt lat="37.78596022166311740875244140625" lon="-107.70388430915772914886474609375">
        <ele>4053.800048828125</ele>
        <time>2023-07-29T16:24:13.000Z</time>
        <extensions>
          <ns3:TrackPointExtension>
            <ns3:hr>87</ns3:hr>
            <ns3:cad>62</ns3:cad>
          </ns3:TrackPointExtension>
        </extensions>
      </trkpt>
      <trkpt lat="37.78596173040568828582763671875" lon="-107.70387978293001651763916015625">
        <ele>4053.800048828125</ele>
        <time>2023-07-29T16:24:14.000Z</time>
        <extensions>
          <ns3:TrackPointExtension>
            <ns3:hr>87</ns3:hr>
            <ns3:cad>62</ns3:cad>
          </ns3:TrackPointExtension>
        </extensions>
      </trkpt>
      <trkpt lat="37.7859606407582759857177734375" lon="-107.70387944765388965606689453125">
        <ele>4054</ele>
        <time>2023-07-29T16:24:15.000Z</time>
        <extensions>
          <ns3:TrackPointExtension>
            <ns3:hr>86</ns3:hr>
            <ns3:cad>62</ns3:cad>
          </ns3:TrackPointExtension>
        </extensions>
      </trkpt>
      <trkpt lat="37.785957790911197662353515625" lon="-107.70387860946357250213623046875">
        <ele>4054</ele>
        <time>2023-07-29T16:24:16.000Z</time>
        <extensions>
          <ns3:TrackPointExtension>
            <ns3:hr>86</ns3:hr>
            <ns3:cad>62</ns3:cad>
          </ns3:TrackPointExtension>
        </extensions>
      </trkpt>
      <trkpt lat="37.785949744284152984619140625" lon="-107.7038771845400333404541015625">
        <ele>4054</ele>
        <time>2023-07-29T16:24:17.000Z</time>
        <extensions>
          <ns3:TrackPointExtension>
            <ns3:hr>84</ns3:hr>
            <ns3:cad>0</ns3:cad>
          </ns3:TrackPointExtension>
        </extensions>
      </trkpt>
      <trkpt lat="37.7859472297132015228271484375" lon="-107.70387609489262104034423828125">
        <ele>4054</ele>
        <time>2023-07-29T16:24:18.000Z</time>
        <extensions>
          <ns3:TrackPointExtension>
            <ns3:hr>84</ns3:hr>
            <ns3:cad>0</ns3:cad>
          </ns3:TrackPointExtension>
        </extensions>
      </trkpt>
      <trkpt lat="37.7859462238848209381103515625" lon="-107.7038736641407012939453125">
        <ele>4054</ele>
        <time>2023-07-29T16:24:19.000Z</time>
        <extensions>
          <ns3:TrackPointExtension>
            <ns3:hr>83</ns3:hr>
            <ns3:cad>0</ns3:cad>
          </ns3:TrackPointExtension>
        </extensions>
      </trkpt>
      <trkpt lat="37.7859475649893283843994140625" lon="-107.70387140102684497833251953125">
        <ele>4054</ele>
        <time>2023-07-29T16:24:20.000Z</time>
        <extensions>
          <ns3:TrackPointExtension>
            <ns3:hr>83</ns3:hr>
            <ns3:cad>0</ns3:cad>
          </ns3:TrackPointExtension>
        </extensions>
      </trkpt>
      <trkpt lat="37.7859502471983432769775390625" lon="-107.703867293894290924072265625">
        <ele>4054</ele>
        <time>2023-07-29T16:24:21.000Z</time>
        <extensions>
          <ns3:TrackPointExtension>
            <ns3:hr>83</ns3:hr>
            <ns3:cad>0</ns3:cad>
          </ns3:TrackPointExtension>
        </extensions>
      </trkpt>
      <trkpt lat="37.78595234267413616180419921875" lon="-107.70386922173202037811279296875">
        <ele>4054</ele>
        <time>2023-07-29T16:24:22.000Z</time>
        <extensions>
          <ns3:TrackPointExtension>
            <ns3:hr>83</ns3:hr>
            <ns3:cad>0</ns3:cad>
          </ns3:TrackPointExtension>
        </extensions>
      </trkpt>
      <trkpt lat="37.7859529294073581695556640625" lon="-107.70387391559779644012451171875">
        <ele>4054</ele>
        <time>2023-07-29T16:24:23.000Z</time>
        <extensions>
          <ns3:TrackPointExtension>
            <ns3:hr>83</ns3:hr>
            <ns3:cad>0</ns3:cad>
          </ns3:TrackPointExtension>
        </extensions>
      </trkpt>
      <trkpt lat="37.785952426493167877197265625" lon="-107.70388162694871425628662109375">
        <ele>4054</ele>
        <time>2023-07-29T16:24:24.000Z</time>
        <extensions>
          <ns3:TrackPointExtension>
            <ns3:hr>83</ns3:hr>
            <ns3:cad>0</ns3:cad>
          </ns3:TrackPointExtension>
        </extensions>
      </trkpt>
      <trkpt lat="37.78594563715159893035888671875" lon="-107.70389218814671039581298828125">
        <ele>4053.60009765625</ele>
        <time>2023-07-29T16:24:25.000Z</time>
        <extensions>
          <ns3:TrackPointExtension>
            <ns3:hr>83</ns3:hr>
            <ns3:cad>0</ns3:cad>
          </ns3:TrackPointExtension>
        </extensions>
      </trkpt>
      <trkpt lat="37.78594605624675750732421875" lon="-107.70389755256474018096923828125">
        <ele>4053.39990234375</ele>
        <time>2023-07-29T16:24:26.000Z</time>
        <extensions>
          <ns3:TrackPointExtension>
            <ns3:hr>84</ns3:hr>
            <ns3:cad>0</ns3:cad>
          </ns3:TrackPointExtension>
        </extensions>
      </trkpt>
      <trkpt lat="37.78594563715159893035888671875" lon="-107.70390140824019908905029296875">
        <ele>4053.199951171875</ele>
        <time>2023-07-29T16:24:27.000Z</time>
        <extensions>
          <ns3:TrackPointExtension>
            <ns3:hr>85</ns3:hr>
            <ns3:cad>0</ns3:cad>
          </ns3:TrackPointExtension>
        </extensions>
      </trkpt>
      <trkpt lat="37.78594463132321834564208984375" lon="-107.70388598553836345672607421875">
        <ele>4053.199951171875</ele>
        <time>2023-07-29T16:24:28.000Z</time>
        <extensions>
          <ns3:TrackPointExtension>
            <ns3:hr>85</ns3:hr>
            <ns3:cad>0</ns3:cad>
          </ns3:TrackPointExtension>
        </extensions>
      </trkpt>
      <trkpt lat="37.78595217503607273101806640625" lon="-107.70387701690196990966796875">
        <ele>4053.199951171875</ele>
        <time>2023-07-29T16:24:29.000Z</time>
        <extensions>
          <ns3:TrackPointExtension>
            <ns3:hr>86</ns3:hr>
            <ns3:cad>0</ns3:cad>
          </ns3:TrackPointExtension>
        </extensions>
      </trkpt>
      <trkpt lat="37.78595586307346820831298828125" lon="-107.70387860946357250213623046875">
        <ele>4053.39990234375</ele>
        <time>2023-07-29T16:24:30.000Z</time>
        <extensions>
          <ns3:TrackPointExtension>
            <ns3:hr>86</ns3:hr>
            <ns3:cad>0</ns3:cad>
          </ns3:TrackPointExtension>
        </extensions>
      </trkpt>
      <trkpt lat="37.7859576232731342315673828125" lon="-107.70388196222484111785888671875">
        <ele>4053.39990234375</ele>
        <time>2023-07-29T16:24:31.000Z</time>
        <extensions>
          <ns3:TrackPointExtension>
            <ns3:hr>86</ns3:hr>
            <ns3:cad>0</ns3:cad>
          </ns3:TrackPointExtension>
        </extensions>
      </trkpt>
      <trkpt lat="37.78595737181603908538818359375" lon="-107.7038892544806003570556640625">
        <ele>4053.39990234375</ele>
        <time>2023-07-29T16:24:32.000Z</time>
        <extensions>
          <ns3:TrackPointExtension>
            <ns3:hr>85</ns3:hr>
            <ns3:cad>0</ns3:cad>
          </ns3:TrackPointExtension>
        </extensions>
      </trkpt>
      <trkpt lat="37.78595804236829280853271484375" lon="-107.7038952894508838653564453125">
        <ele>4053.60009765625</ele>
        <time>2023-07-29T16:24:33.000Z</time>
        <extensions>
          <ns3:TrackPointExtension>
            <ns3:hr>85</ns3:hr>
            <ns3:cad>0</ns3:cad>
          </ns3:TrackPointExtension>
        </extensions>
      </trkpt>
      <trkpt lat="37.7859556116163730621337890625" lon="-107.70389319397509098052978515625">
        <ele>4053.800048828125</ele>
        <time>2023-07-29T16:24:34.000Z</time>
        <extensions>
          <ns3:TrackPointExtension>
            <ns3:hr>85</ns3:hr>
            <ns3:cad>0</ns3:cad>
          </ns3:TrackPointExtension>
        </extensions>
      </trkpt>
      <trkpt lat="37.7859519235789775848388671875" lon="-107.7038895897567272186279296875">
        <ele>4053.800048828125</ele>
        <time>2023-07-29T16:24:35.000Z</time>
        <extensions>
          <ns3:TrackPointExtension>
            <ns3:hr>85</ns3:hr>
            <ns3:cad>0</ns3:cad>
          </ns3:TrackPointExtension>
        </extensions>
      </trkpt>
      <trkpt lat="37.7859479002654552459716796875" lon="-107.70388648845255374908447265625">
        <ele>4053.800048828125</ele>
        <time>2023-07-29T16:24:36.000Z</time>
        <extensions>
          <ns3:TrackPointExtension>
            <ns3:hr>85</ns3:hr>
            <ns3:cad>0</ns3:cad>
          </ns3:TrackPointExtension>
        </extensions>
      </trkpt>
      <trkpt lat="37.78594295494258403778076171875" lon="-107.7038805373013019561767578125">
        <ele>4053.800048828125</ele>
        <time>2023-07-29T16:24:37.000Z</time>
        <extensions>
          <ns3:TrackPointExtension>
            <ns3:hr>85</ns3:hr>
            <ns3:cad>0</ns3:cad>
          </ns3:TrackPointExtension>
        </extensions>
      </trkpt>
      <trkpt lat="37.78593926690518856048583984375" lon="-107.70387559197843074798583984375">
        <ele>4053.800048828125</ele>
        <time>2023-07-29T16:24:38.000Z</time>
        <extensions>
          <ns3:TrackPointExtension>
            <ns3:hr>85</ns3:hr>
            <ns3:cad>0</ns3:cad>
          </ns3:TrackPointExtension>
        </extensions>
      </trkpt>
      <trkpt lat="37.785939686000347137451171875" lon="-107.703880034387111663818359375">
        <ele>4053.800048828125</ele>
        <time>2023-07-29T16:24:39.000Z</time>
        <extensions>
          <ns3:TrackPointExtension>
            <ns3:hr>85</ns3:hr>
            <ns3:cad>0</ns3:cad>
          </ns3:TrackPointExtension>
        </extensions>
      </trkpt>
      <trkpt lat="37.78594144620001316070556640625" lon="-107.70388598553836345672607421875">
        <ele>4053.800048828125</ele>
        <time>2023-07-29T16:24:40.000Z</time>
        <extensions>
          <ns3:TrackPointExtension>
            <ns3:hr>86</ns3:hr>
            <ns3:cad>0</ns3:cad>
          </ns3:TrackPointExtension>
        </extensions>
      </trkpt>
      <trkpt lat="37.7859435416758060455322265625" lon="-107.70388917066156864166259765625">
        <ele>4053.800048828125</ele>
        <time>2023-07-29T16:24:41.000Z</time>
        <extensions>
          <ns3:TrackPointExtension>
            <ns3:hr>86</ns3:hr>
            <ns3:cad>0</ns3:cad>
          </ns3:TrackPointExtension>
        </extensions>
      </trkpt>
      <trkpt lat="37.7859425358474254608154296875" lon="-107.70389017648994922637939453125">
        <ele>4053.60009765625</ele>
        <time>2023-07-29T16:24:42.000Z</time>
        <extensions>
          <ns3:TrackPointExtension>
            <ns3:hr>87</ns3:hr>
            <ns3:cad>0</ns3:cad>
          </ns3:TrackPointExtension>
        </extensions>
      </trkpt>
      <trkpt lat="37.78592686168849468231201171875" lon="-107.703864611685276031494140625">
        <ele>4053.39990234375</ele>
        <time>2023-07-29T16:24:43.000Z</time>
        <extensions>
          <ns3:TrackPointExtension>
            <ns3:hr>87</ns3:hr>
            <ns3:cad>0</ns3:cad>
          </ns3:TrackPointExtension>
        </extensions>
      </trkpt>
      <trkpt lat="37.78592468239367008209228515625" lon="-107.70387165248394012451171875">
        <ele>4053.199951171875</ele>
        <time>2023-07-29T16:24:44.000Z</time>
        <extensions>
          <ns3:TrackPointExtension>
            <ns3:hr>87</ns3:hr>
            <ns3:cad>0</ns3:cad>
          </ns3:TrackPointExtension>
        </extensions>
      </trkpt>
      <trkpt lat="37.7859227545559406280517578125" lon="-107.703875005245208740234375">
        <ele>4053.199951171875</ele>
        <time>2023-07-29T16:24:45.000Z</time>
        <extensions>
          <ns3:TrackPointExtension>
            <ns3:hr>87</ns3:hr>
            <ns3:cad>0</ns3:cad>
          </ns3:TrackPointExtension>
        </extensions>
      </trkpt>
      <trkpt lat="37.78592417947947978973388671875" lon="-107.70388011820614337921142578125">
        <ele>4053.199951171875</ele>
        <time>2023-07-29T16:24:46.000Z</time>
        <extensions>
          <ns3:TrackPointExtension>
            <ns3:hr>87</ns3:hr>
            <ns3:cad>0</ns3:cad>
          </ns3:TrackPointExtension>
        </extensions>
      </trkpt>
      <trkpt lat="37.78592669405043125152587890625" lon="-107.7038869075477123260498046875">
        <ele>4053.199951171875</ele>
        <time>2023-07-29T16:24:47.000Z</time>
        <extensions>
          <ns3:TrackPointExtension>
            <ns3:hr>88</ns3:hr>
            <ns3:cad>0</ns3:cad>
          </ns3:TrackPointExtension>
        </extensions>
      </trkpt>
      <trkpt lat="37.785928286612033843994140625" lon="-107.70389419980347156524658203125">
        <ele>4053.60009765625</ele>
        <time>2023-07-29T16:24:48.000Z</time>
        <extensions>
          <ns3:TrackPointExtension>
            <ns3:hr>88</ns3:hr>
            <ns3:cad>0</ns3:cad>
          </ns3:TrackPointExtension>
        </extensions>
      </trkpt>
      <trkpt lat="37.78593122027814388275146484375" lon="-107.70390224643051624298095703125">
        <ele>4053.60009765625</ele>
        <time>2023-07-29T16:24:49.000Z</time>
        <extensions>
          <ns3:TrackPointExtension>
            <ns3:hr>88</ns3:hr>
            <ns3:cad>0</ns3:cad>
          </ns3:TrackPointExtension>
        </extensions>
      </trkpt>
      <trkpt lat="37.78593264520168304443359375" lon="-107.70390526391565799713134765625">
        <ele>4053.60009765625</ele>
        <time>2023-07-29T16:24:50.000Z</time>
        <extensions>
          <ns3:TrackPointExtension>
            <ns3:hr>88</ns3:hr>
            <ns3:cad>75</ns3:cad>
          </ns3:TrackPointExtension>
        </extensions>
      </trkpt>
      <trkpt lat="37.7859338186681270599365234375" lon="-107.70390526391565799713134765625">
        <ele>4053.800048828125</ele>
        <time>2023-07-29T16:24:51.000Z</time>
        <extensions>
          <ns3:TrackPointExtension>
            <ns3:hr>88</ns3:hr>
            <ns3:cad>75</ns3:cad>
          </ns3:TrackPointExtension>
        </extensions>
      </trkpt>
      <trkpt lat="37.78593800961971282958984375" lon="-107.7039033360779285430908203125">
        <ele>4053.800048828125</ele>
        <time>2023-07-29T16:24:52.000Z</time>
        <extensions>
          <ns3:TrackPointExtension>
            <ns3:hr>88</ns3:hr>
            <ns3:cad>75</ns3:cad>
          </ns3:TrackPointExtension>
        </extensions>
      </trkpt>
      <trkpt lat="37.7859418652951717376708984375" lon="-107.70390392281115055084228515625">
        <ele>4053.800048828125</ele>
        <time>2023-07-29T16:24:53.000Z</time>
        <extensions>
          <ns3:TrackPointExtension>
            <ns3:hr>88</ns3:hr>
            <ns3:cad>75</ns3:cad>
          </ns3:TrackPointExtension>
        </extensions>
      </trkpt>
      <trkpt lat="37.7859418652951717376708984375" lon="-107.70389805547893047332763671875">
        <ele>4053.800048828125</ele>
        <time>2023-07-29T16:24:54.000Z</time>
        <extensions>
          <ns3:TrackPointExtension>
            <ns3:hr>88</ns3:hr>
            <ns3:cad>75</ns3:cad>
          </ns3:TrackPointExtension>
        </extensions>
      </trkpt>
      <trkpt lat="37.78594261966645717620849609375" lon="-107.70389285869896411895751953125">
        <ele>4053.60009765625</ele>
        <time>2023-07-29T16:24:55.000Z</time>
        <extensions>
          <ns3:TrackPointExtension>
            <ns3:hr>88</ns3:hr>
            <ns3:cad>40</ns3:cad>
          </ns3:TrackPointExtension>
        </extensions>
      </trkpt>
      <trkpt lat="37.7859455533325672149658203125" lon="-107.70389101468026638031005859375">
        <ele>4053.60009765625</ele>
        <time>2023-07-29T16:24:56.000Z</time>
        <extensions>
          <ns3:TrackPointExtension>
            <ns3:hr>88</ns3:hr>
            <ns3:cad>40</ns3:cad>
          </ns3:TrackPointExtension>
        </extensions>
      </trkpt>
      <trkpt lat="37.78594580478966236114501953125" lon="-107.70389134995639324188232421875">
        <ele>4053.60009765625</ele>
        <time>2023-07-29T16:24:57.000Z</time>
        <extensions>
          <ns3:TrackPointExtension>
            <ns3:hr>88</ns3:hr>
            <ns3:cad>40</ns3:cad>
          </ns3:TrackPointExtension>
        </extensions>
      </trkpt>
      <trkpt lat="37.7859458886086940765380859375" lon="-107.7038909308612346649169921875">
        <ele>4053.60009765625</ele>
        <time>2023-07-29T16:24:58.000Z</time>
        <extensions>
          <ns3:TrackPointExtension>
            <ns3:hr>88</ns3:hr>
            <ns3:cad>40</ns3:cad>
          </ns3:TrackPointExtension>
        </extensions>
      </trkpt>
      <trkpt lat="37.7859519235789775848388671875" lon="-107.703889422118663787841796875">
        <ele>4053.800048828125</ele>
        <time>2023-07-29T16:24:59.000Z</time>
        <extensions>
          <ns3:TrackPointExtension>
            <ns3:hr>88</ns3:hr>
            <ns3:cad>40</ns3:cad>
          </ns3:TrackPointExtension>
        </extensions>
      </trkpt>
      <trkpt lat="37.785954773426055908203125" lon="-107.7038912661373615264892578125">
        <ele>4053.800048828125</ele>
        <time>2023-07-29T16:25:00.000Z</time>
        <extensions>
          <ns3:TrackPointExtension>
            <ns3:hr>88</ns3:hr>
            <ns3:cad>40</ns3:cad>
          </ns3:TrackPointExtension>
        </extensions>
      </trkpt>
      <trkpt lat="37.78595552779734134674072265625" lon="-107.7038949541747570037841796875">
        <ele>4053.800048828125</ele>
        <time>2023-07-29T16:25:01.000Z</time>
        <extensions>
          <ns3:TrackPointExtension>
            <ns3:hr>88</ns3:hr>
            <ns3:cad>0</ns3:cad>
          </ns3:TrackPointExtension>
        </extensions>
      </trkpt>
      <trkpt lat="37.78595837764441967010498046875" lon="-107.703897468745708465576171875">
        <ele>4053.800048828125</ele>
        <time>2023-07-29T16:25:02.000Z</time>
        <extensions>
          <ns3:TrackPointExtension>
            <ns3:hr>87</ns3:hr>
            <ns3:cad>0</ns3:cad>
          </ns3:TrackPointExtension>
        </extensions>
      </trkpt>
      <trkpt lat="37.78595653362572193145751953125" lon="-107.70389855839312076568603515625">
        <ele>4053.60009765625</ele>
        <time>2023-07-29T16:25:03.000Z</time>
        <extensions>
          <ns3:TrackPointExtension>
            <ns3:hr>87</ns3:hr>
            <ns3:cad>0</ns3:cad>
          </ns3:TrackPointExtension>
        </extensions>
      </trkpt>
      <trkpt lat="37.7859562821686267852783203125" lon="-107.703896798193454742431640625">
        <ele>4053.39990234375</ele>
        <time>2023-07-29T16:25:04.000Z</time>
        <extensions>
          <ns3:TrackPointExtension>
            <ns3:hr>87</ns3:hr>
            <ns3:cad>0</ns3:cad>
          </ns3:TrackPointExtension>
        </extensions>
      </trkpt>
      <trkpt lat="37.785952091217041015625" lon="-107.70389352925121784210205078125">
        <ele>4053</ele>
        <time>2023-07-29T16:25:05.000Z</time>
        <extensions>
          <ns3:TrackPointExtension>
            <ns3:hr>87</ns3:hr>
            <ns3:cad>0</ns3:cad>
          </ns3:TrackPointExtension>
        </extensions>
      </trkpt>
      <trkpt lat="37.78595385141670703887939453125" lon="-107.70389587618410587310791015625">
        <ele>4053</ele>
        <time>2023-07-29T16:25:06.000Z</time>
        <extensions>
          <ns3:TrackPointExtension>
            <ns3:hr>87</ns3:hr>
            <ns3:cad>0</ns3:cad>
          </ns3:TrackPointExtension>
        </extensions>
      </trkpt>
      <trkpt lat="37.785956449806690216064453125" lon="-107.70389713346958160400390625">
        <ele>4053</ele>
        <time>2023-07-29T16:25:07.000Z</time>
        <extensions>
          <ns3:TrackPointExtension>
            <ns3:hr>87</ns3:hr>
            <ns3:cad>0</ns3:cad>
          </ns3:TrackPointExtension>
        </extensions>
      </trkpt>
      <trkpt lat="37.78596038930118083953857421875" lon="-107.7038993127644062042236328125">
        <ele>4053</ele>
        <time>2023-07-29T16:25:08.000Z</time>
        <extensions>
          <ns3:TrackPointExtension>
            <ns3:hr>87</ns3:hr>
            <ns3:cad>0</ns3:cad>
          </ns3:TrackPointExtension>
        </extensions>
      </trkpt>
      <trkpt lat="37.78596357442438602447509765625" lon="-107.70390191115438938140869140625">
        <ele>4053.199951171875</ele>
        <time>2023-07-29T16:25:09.000Z</time>
        <extensions>
          <ns3:TrackPointExtension>
            <ns3:hr>87</ns3:hr>
            <ns3:cad>0</ns3:cad>
          </ns3:TrackPointExtension>
        </extensions>
      </trkpt>
      <trkpt lat="37.78596575371921062469482421875" lon="-107.7039019949734210968017578125">
        <ele>4053.39990234375</ele>
        <time>2023-07-29T16:25:10.000Z</time>
        <extensions>
          <ns3:TrackPointExtension>
            <ns3:hr>87</ns3:hr>
            <ns3:cad>0</ns3:cad>
          </ns3:TrackPointExtension>
        </extensions>
      </trkpt>
      <trkpt lat="37.78596323914825916290283203125" lon="-107.7039036713540554046630859375">
        <ele>4053.39990234375</ele>
        <time>2023-07-29T16:25:11.000Z</time>
        <extensions>
          <ns3:TrackPointExtension>
            <ns3:hr>87</ns3:hr>
            <ns3:cad>0</ns3:cad>
          </ns3:TrackPointExtension>
        </extensions>
      </trkpt>
      <trkpt lat="37.7859572879970073699951171875" lon="-107.7039076946675777435302734375">
        <ele>4053.60009765625</ele>
        <time>2023-07-29T16:25:12.000Z</time>
        <extensions>
          <ns3:TrackPointExtension>
            <ns3:hr>87</ns3:hr>
            <ns3:cad>0</ns3:cad>
          </ns3:TrackPointExtension>
        </extensions>
      </trkpt>
      <trkpt lat="37.785957790911197662353515625" lon="-107.70391263999044895172119140625">
        <ele>4053.60009765625</ele>
        <time>2023-07-29T16:25:13.000Z</time>
        <extensions>
          <ns3:TrackPointExtension>
            <ns3:hr>87</ns3:hr>
            <ns3:cad>0</ns3:cad>
          </ns3:TrackPointExtension>
        </extensions>
      </trkpt>
      <trkpt lat="37.785955779254436492919921875" lon="-107.70391616038978099822998046875">
        <ele>4053.60009765625</ele>
        <time>2023-07-29T16:25:14.000Z</time>
        <extensions>
          <ns3:TrackPointExtension>
            <ns3:hr>87</ns3:hr>
            <ns3:cad>62</ns3:cad>
          </ns3:TrackPointExtension>
        </extensions>
      </trkpt>
      <trkpt lat="37.78595435433089733123779296875" lon="-107.70391993224620819091796875">
        <ele>4053.60009765625</ele>
        <time>2023-07-29T16:25:15.000Z</time>
        <extensions>
          <ns3:TrackPointExtension>
            <ns3:hr>86</ns3:hr>
            <ns3:cad>62</ns3:cad>
          </ns3:TrackPointExtension>
        </extensions>
      </trkpt>
      <trkpt lat="37.7859546057879924774169921875" lon="-107.70392219536006450653076171875">
        <ele>4053.60009765625</ele>
        <time>2023-07-29T16:25:16.000Z</time>
        <extensions>
          <ns3:TrackPointExtension>
            <ns3:hr>86</ns3:hr>
            <ns3:cad>62</ns3:cad>
          </ns3:TrackPointExtension>
        </extensions>
      </trkpt>
      <trkpt lat="37.7859525941312313079833984375" lon="-107.703920938074588775634765625">
        <ele>4053.60009765625</ele>
        <time>2023-07-29T16:25:17.000Z</time>
        <extensions>
          <ns3:TrackPointExtension>
            <ns3:hr>86</ns3:hr>
            <ns3:cad>0</ns3:cad>
          </ns3:TrackPointExtension>
        </extensions>
      </trkpt>
      <trkpt lat="37.785951085388660430908203125" lon="-107.70392186008393764495849609375">
        <ele>4053.60009765625</ele>
        <time>2023-07-29T16:25:18.000Z</time>
        <extensions>
          <ns3:TrackPointExtension>
            <ns3:hr>85</ns3:hr>
            <ns3:cad>0</ns3:cad>
          </ns3:TrackPointExtension>
        </extensions>
      </trkpt>
      <trkpt lat="37.785951755940914154052734375" lon="-107.70392890088260173797607421875">
        <ele>4053.39990234375</ele>
        <time>2023-07-29T16:25:19.000Z</time>
        <extensions>
          <ns3:TrackPointExtension>
            <ns3:hr>85</ns3:hr>
            <ns3:cad>0</ns3:cad>
          </ns3:TrackPointExtension>
        </extensions>
      </trkpt>
      <trkpt lat="37.785948403179645538330078125" lon="-107.70392923615872859954833984375">
        <ele>4053</ele>
        <time>2023-07-29T16:25:20.000Z</time>
        <extensions>
          <ns3:TrackPointExtension>
            <ns3:hr>85</ns3:hr>
            <ns3:cad>0</ns3:cad>
          </ns3:TrackPointExtension>
        </extensions>
      </trkpt>
      <trkpt lat="37.78594312258064746856689453125" lon="-107.7039311639964580535888671875">
        <ele>4053</ele>
        <time>2023-07-29T16:25:21.000Z</time>
        <extensions>
          <ns3:TrackPointExtension>
            <ns3:hr>85</ns3:hr>
            <ns3:cad>0</ns3:cad>
          </ns3:TrackPointExtension>
        </extensions>
      </trkpt>
      <trkpt lat="37.7859452180564403533935546875" lon="-107.70392772741615772247314453125">
        <ele>4053</ele>
        <time>2023-07-29T16:25:22.000Z</time>
        <extensions>
          <ns3:TrackPointExtension>
            <ns3:hr>85</ns3:hr>
            <ns3:cad>0</ns3:cad>
          </ns3:TrackPointExtension>
        </extensions>
      </trkpt>
      <trkpt lat="37.7859505824744701385498046875" lon="-107.70392403937876224517822265625">
        <ele>4053</ele>
        <time>2023-07-29T16:25:23.000Z</time>
        <extensions>
          <ns3:TrackPointExtension>
            <ns3:hr>85</ns3:hr>
            <ns3:cad>0</ns3:cad>
          </ns3:TrackPointExtension>
        </extensions>
      </trkpt>
      <trkpt lat="37.78595619834959506988525390625" lon="-107.70391968078911304473876953125">
        <ele>4053</ele>
        <time>2023-07-29T16:25:24.000Z</time>
        <extensions>
          <ns3:TrackPointExtension>
            <ns3:hr>86</ns3:hr>
            <ns3:cad>0</ns3:cad>
          </ns3:TrackPointExtension>
        </extensions>
      </trkpt>
      <trkpt lat="37.78595737181603908538818359375" lon="-107.70391414873301982879638671875">
        <ele>4053.199951171875</ele>
        <time>2023-07-29T16:25:25.000Z</time>
        <extensions>
          <ns3:TrackPointExtension>
            <ns3:hr>86</ns3:hr>
            <ns3:cad>0</ns3:cad>
          </ns3:TrackPointExtension>
        </extensions>
      </trkpt>
      <trkpt lat="37.78595418669283390045166015625" lon="-107.7039040066301822662353515625">
        <ele>4053.199951171875</ele>
        <time>2023-07-29T16:25:26.000Z</time>
        <extensions>
          <ns3:TrackPointExtension>
            <ns3:hr>87</ns3:hr>
            <ns3:cad>0</ns3:cad>
          </ns3:TrackPointExtension>
        </extensions>
      </trkpt>
      <trkpt lat="37.7859515883028507232666015625" lon="-107.7039006538689136505126953125">
        <ele>4053.39990234375</ele>
        <time>2023-07-29T16:25:27.000Z</time>
        <extensions>
          <ns3:TrackPointExtension>
            <ns3:hr>88</ns3:hr>
            <ns3:cad>0</ns3:cad>
          </ns3:TrackPointExtension>
        </extensions>
      </trkpt>
      <trkpt lat="37.7859525941312313079833984375" lon="-107.70390794612467288970947265625">
        <ele>4053.39990234375</ele>
        <time>2023-07-29T16:25:28.000Z</time>
        <extensions>
          <ns3:TrackPointExtension>
            <ns3:hr>88</ns3:hr>
            <ns3:cad>0</ns3:cad>
          </ns3:TrackPointExtension>
        </extensions>
      </trkpt>
      <trkpt lat="37.78595167212188243865966796875" lon="-107.70390308462083339691162109375">
        <ele>4053.39990234375</ele>
        <time>2023-07-29T16:25:29.000Z</time>
        <extensions>
          <ns3:TrackPointExtension>
            <ns3:hr>88</ns3:hr>
            <ns3:cad>0</ns3:cad>
          </ns3:TrackPointExtension>
        </extensions>
      </trkpt>
      <trkpt lat="37.78595167212188243865966796875" lon="-107.70390383899211883544921875">
        <ele>4053.39990234375</ele>
        <time>2023-07-29T16:25:30.000Z</time>
        <extensions>
          <ns3:TrackPointExtension>
            <ns3:hr>88</ns3:hr>
            <ns3:cad>0</ns3:cad>
          </ns3:TrackPointExtension>
        </extensions>
      </trkpt>
      <trkpt lat="37.78595334850251674652099609375" lon="-107.70390241406857967376708984375">
        <ele>4053.39990234375</ele>
        <time>2023-07-29T16:25:31.000Z</time>
        <extensions>
          <ns3:TrackPointExtension>
            <ns3:hr>88</ns3:hr>
            <ns3:cad>0</ns3:cad>
          </ns3:TrackPointExtension>
        </extensions>
      </trkpt>
      <trkpt lat="37.78595217503607273101806640625" lon="-107.703898139297962188720703125">
        <ele>4053.39990234375</ele>
        <time>2023-07-29T16:25:32.000Z</time>
        <extensions>
          <ns3:TrackPointExtension>
            <ns3:hr>87</ns3:hr>
            <ns3:cad>0</ns3:cad>
          </ns3:TrackPointExtension>
        </extensions>
      </trkpt>
      <trkpt lat="37.78595318086445331573486328125" lon="-107.70390090532600879669189453125">
        <ele>4053.39990234375</ele>
        <time>2023-07-29T16:25:33.000Z</time>
        <extensions>
          <ns3:TrackPointExtension>
            <ns3:hr>87</ns3:hr>
            <ns3:cad>0</ns3:cad>
          </ns3:TrackPointExtension>
        </extensions>
      </trkpt>
      <trkpt lat="37.7859542705118656158447265625" lon="-107.70390191115438938140869140625">
        <ele>4053.199951171875</ele>
        <time>2023-07-29T16:25:34.000Z</time>
        <extensions>
          <ns3:TrackPointExtension>
            <ns3:hr>87</ns3:hr>
            <ns3:cad>0</ns3:cad>
          </ns3:TrackPointExtension>
        </extensions>
      </trkpt>
      <trkpt lat="37.78595745563507080078125" lon="-107.70390241406857967376708984375">
        <ele>4053.199951171875</ele>
        <time>2023-07-29T16:25:35.000Z</time>
        <extensions>
          <ns3:TrackPointExtension>
            <ns3:hr>87</ns3:hr>
            <ns3:cad>0</ns3:cad>
          </ns3:TrackPointExtension>
        </extensions>
      </trkpt>
      <trkpt lat="37.78595837764441967010498046875" lon="-107.7039023302495479583740234375">
        <ele>4053.199951171875</ele>
        <time>2023-07-29T16:25:36.000Z</time>
        <extensions>
          <ns3:TrackPointExtension>
            <ns3:hr>87</ns3:hr>
            <ns3:cad>0</ns3:cad>
          </ns3:TrackPointExtension>
        </extensions>
      </trkpt>
      <trkpt lat="37.7859589643776416778564453125" lon="-107.70389839075505733489990234375">
        <ele>4053</ele>
        <time>2023-07-29T16:25:37.000Z</time>
        <extensions>
          <ns3:TrackPointExtension>
            <ns3:hr>86</ns3:hr>
            <ns3:cad>0</ns3:cad>
          </ns3:TrackPointExtension>
        </extensions>
      </trkpt>
      <trkpt lat="37.78595955111086368560791015625" lon="-107.703896127641201019287109375">
        <ele>4053</ele>
        <time>2023-07-29T16:25:38.000Z</time>
        <extensions>
          <ns3:TrackPointExtension>
            <ns3:hr>86</ns3:hr>
            <ns3:cad>0</ns3:cad>
          </ns3:TrackPointExtension>
        </extensions>
      </trkpt>
      <trkpt lat="37.785959802567958831787109375" lon="-107.7038922719657421112060546875">
        <ele>4053</ele>
        <time>2023-07-29T16:25:39.000Z</time>
        <extensions>
          <ns3:TrackPointExtension>
            <ns3:hr>86</ns3:hr>
            <ns3:cad>0</ns3:cad>
          </ns3:TrackPointExtension>
        </extensions>
      </trkpt>
      <trkpt lat="37.78596089221537113189697265625" lon="-107.70389235578477382659912109375">
        <ele>4053</ele>
        <time>2023-07-29T16:25:40.000Z</time>
        <extensions>
          <ns3:TrackPointExtension>
            <ns3:hr>85</ns3:hr>
            <ns3:cad>0</ns3:cad>
          </ns3:TrackPointExtension>
        </extensions>
      </trkpt>
      <trkpt lat="37.78596240095794200897216796875" lon="-107.70389336161315441131591796875">
        <ele>4052.800048828125</ele>
        <time>2023-07-29T16:25:41.000Z</time>
        <extensions>
          <ns3:TrackPointExtension>
            <ns3:hr>85</ns3:hr>
            <ns3:cad>0</ns3:cad>
          </ns3:TrackPointExtension>
        </extensions>
      </trkpt>
      <trkpt lat="37.785963155329227447509765625" lon="-107.7038989774882793426513671875">
        <ele>4052.800048828125</ele>
        <time>2023-07-29T16:25:42.000Z</time>
        <extensions>
          <ns3:TrackPointExtension>
            <ns3:hr>85</ns3:hr>
            <ns3:cad>0</ns3:cad>
          </ns3:TrackPointExtension>
        </extensions>
      </trkpt>
      <trkpt lat="37.7859599702060222625732421875" lon="-107.70390241406857967376708984375">
        <ele>4052.800048828125</ele>
        <time>2023-07-29T16:25:43.000Z</time>
        <extensions>
          <ns3:TrackPointExtension>
            <ns3:hr>86</ns3:hr>
            <ns3:cad>0</ns3:cad>
          </ns3:TrackPointExtension>
        </extensions>
      </trkpt>
      <trkpt lat="37.7859572879970073699951171875" lon="-107.70390409044921398162841796875">
        <ele>4052.800048828125</ele>
        <time>2023-07-29T16:25:44.000Z</time>
        <extensions>
          <ns3:TrackPointExtension>
            <ns3:hr>86</ns3:hr>
            <ns3:cad>0</ns3:cad>
          </ns3:TrackPointExtension>
        </extensions>
      </trkpt>
      <trkpt lat="37.785956449806690216064453125" lon="-107.70391079597175121307373046875">
        <ele>4052.800048828125</ele>
        <time>2023-07-29T16:25:45.000Z</time>
        <extensions>
          <ns3:TrackPointExtension>
            <ns3:hr>86</ns3:hr>
            <ns3:cad>0</ns3:cad>
          </ns3:TrackPointExtension>
        </extensions>
      </trkpt>
      <trkpt lat="37.78595678508281707763671875" lon="-107.7039097063243389129638671875">
        <ele>4052.800048828125</ele>
        <time>2023-07-29T16:25:46.000Z</time>
        <extensions>
          <ns3:TrackPointExtension>
            <ns3:hr>87</ns3:hr>
            <ns3:cad>0</ns3:cad>
          </ns3:TrackPointExtension>
        </extensions>
      </trkpt>
      <trkpt lat="37.78595678508281707763671875" lon="-107.70390526391565799713134765625">
        <ele>4052.800048828125</ele>
        <time>2023-07-29T16:25:47.000Z</time>
        <extensions>
          <ns3:TrackPointExtension>
            <ns3:hr>87</ns3:hr>
            <ns3:cad>0</ns3:cad>
          </ns3:TrackPointExtension>
        </extensions>
      </trkpt>
      <trkpt lat="37.7859562821686267852783203125" lon="-107.70390442572534084320068359375">
        <ele>4052.800048828125</ele>
        <time>2023-07-29T16:25:48.000Z</time>
        <extensions>
          <ns3:TrackPointExtension>
            <ns3:hr>88</ns3:hr>
            <ns3:cad>0</ns3:cad>
          </ns3:TrackPointExtension>
        </extensions>
      </trkpt>
      <trkpt lat="37.78595703653991222381591796875" lon="-107.703902833163738250732421875">
        <ele>4052.800048828125</ele>
        <time>2023-07-29T16:25:49.000Z</time>
        <extensions>
          <ns3:TrackPointExtension>
            <ns3:hr>88</ns3:hr>
            <ns3:cad>0</ns3:cad>
          </ns3:TrackPointExtension>
        </extensions>
      </trkpt>
      <trkpt lat="37.78595871292054653167724609375" lon="-107.70390593446791172027587890625">
        <ele>4052.800048828125</ele>
        <time>2023-07-29T16:25:50.000Z</time>
        <extensions>
          <ns3:TrackPointExtension>
            <ns3:hr>89</ns3:hr>
            <ns3:cad>0</ns3:cad>
          </ns3:TrackPointExtension>
        </extensions>
      </trkpt>
      <trkpt lat="37.78595737181603908538818359375" lon="-107.70390626974403858184814453125">
        <ele>4052.800048828125</ele>
        <time>2023-07-29T16:25:51.000Z</time>
        <extensions>
          <ns3:TrackPointExtension>
            <ns3:hr>90</ns3:hr>
            <ns3:cad>0</ns3:cad>
          </ns3:TrackPointExtension>
        </extensions>
      </trkpt>
      <trkpt lat="37.78595753945410251617431640625" lon="-107.70390576682984828948974609375">
        <ele>4052.800048828125</ele>
        <time>2023-07-29T16:25:52.000Z</time>
        <extensions>
          <ns3:TrackPointExtension>
            <ns3:hr>91</ns3:hr>
            <ns3:cad>0</ns3:cad>
          </ns3:TrackPointExtension>
        </extensions>
      </trkpt>
      <trkpt lat="37.78596005402505397796630859375" lon="-107.70390945486724376678466796875">
        <ele>4052.800048828125</ele>
        <time>2023-07-29T16:25:53.000Z</time>
        <extensions>
          <ns3:TrackPointExtension>
            <ns3:hr>91</ns3:hr>
            <ns3:cad>0</ns3:cad>
          </ns3:TrackPointExtension>
        </extensions>
      </trkpt>
      <trkpt lat="37.78596173040568828582763671875" lon="-107.70390979014337062835693359375">
        <ele>4052.60009765625</ele>
        <time>2023-07-29T16:25:54.000Z</time>
        <extensions>
          <ns3:TrackPointExtension>
            <ns3:hr>91</ns3:hr>
            <ns3:cad>0</ns3:cad>
          </ns3:TrackPointExtension>
        </extensions>
      </trkpt>
      <trkpt lat="37.78596307151019573211669921875" lon="-107.70391548983752727508544921875">
        <ele>4052.60009765625</ele>
        <time>2023-07-29T16:25:55.000Z</time>
        <extensions>
          <ns3:TrackPointExtension>
            <ns3:hr>91</ns3:hr>
            <ns3:cad>0</ns3:cad>
          </ns3:TrackPointExtension>
        </extensions>
      </trkpt>
      <trkpt lat="37.78596173040568828582763671875" lon="-107.70391062833368778228759765625">
        <ele>4052.60009765625</ele>
        <time>2023-07-29T16:25:56.000Z</time>
        <extensions>
          <ns3:TrackPointExtension>
            <ns3:hr>91</ns3:hr>
            <ns3:cad>0</ns3:cad>
          </ns3:TrackPointExtension>
        </extensions>
      </trkpt>
      <trkpt lat="37.78596189804375171661376953125" lon="-107.70390928722918033599853515625">
        <ele>4052.60009765625</ele>
        <time>2023-07-29T16:25:57.000Z</time>
        <extensions>
          <ns3:TrackPointExtension>
            <ns3:hr>91</ns3:hr>
            <ns3:cad>0</ns3:cad>
          </ns3:TrackPointExtension>
        </extensions>
      </trkpt>
      <trkpt lat="37.7859609760344028472900390625" lon="-107.70390543155372142791748046875">
        <ele>4052.60009765625</ele>
        <time>2023-07-29T16:25:58.000Z</time>
        <extensions>
          <ns3:TrackPointExtension>
            <ns3:hr>90</ns3:hr>
            <ns3:cad>0</ns3:cad>
          </ns3:TrackPointExtension>
        </extensions>
      </trkpt>
      <trkpt lat="37.78595745563507080078125" lon="-107.7039033360779285430908203125">
        <ele>4052.60009765625</ele>
        <time>2023-07-29T16:25:59.000Z</time>
        <extensions>
          <ns3:TrackPointExtension>
            <ns3:hr>90</ns3:hr>
            <ns3:cad>0</ns3:cad>
          </ns3:TrackPointExtension>
        </extensions>
      </trkpt>
      <trkpt lat="37.7859549410641193389892578125" lon="-107.7039026655256748199462890625">
        <ele>4052.60009765625</ele>
        <time>2023-07-29T16:26:00.000Z</time>
        <extensions>
          <ns3:TrackPointExtension>
            <ns3:hr>90</ns3:hr>
            <ns3:cad>0</ns3:cad>
          </ns3:TrackPointExtension>
        </extensions>
      </trkpt>
      <trkpt lat="37.7859505824744701385498046875" lon="-107.7039030008018016815185546875">
        <ele>4052.60009765625</ele>
        <time>2023-07-29T16:26:01.000Z</time>
        <extensions>
          <ns3:TrackPointExtension>
            <ns3:hr>89</ns3:hr>
            <ns3:cad>0</ns3:cad>
          </ns3:TrackPointExtension>
        </extensions>
      </trkpt>
      <trkpt lat="37.78594463132321834564208984375" lon="-107.703893445432186126708984375">
        <ele>4052.60009765625</ele>
        <time>2023-07-29T16:26:02.000Z</time>
        <extensions>
          <ns3:TrackPointExtension>
            <ns3:hr>89</ns3:hr>
            <ns3:cad>0</ns3:cad>
          </ns3:TrackPointExtension>
        </extensions>
      </trkpt>
      <trkpt lat="37.78594228439033031463623046875" lon="-107.7038919366896152496337890625">
        <ele>4052.60009765625</ele>
        <time>2023-07-29T16:26:03.000Z</time>
        <extensions>
          <ns3:TrackPointExtension>
            <ns3:hr>89</ns3:hr>
            <ns3:cad>0</ns3:cad>
          </ns3:TrackPointExtension>
        </extensions>
      </trkpt>
      <trkpt lat="37.78594044037163257598876953125" lon="-107.70389084704220294952392578125">
        <ele>4052.60009765625</ele>
        <time>2023-07-29T16:26:04.000Z</time>
        <extensions>
          <ns3:TrackPointExtension>
            <ns3:hr>89</ns3:hr>
            <ns3:cad>0</ns3:cad>
          </ns3:TrackPointExtension>
        </extensions>
      </trkpt>
      <trkpt lat="37.78593876399099826812744140625" lon="-107.70389168523252010345458984375">
        <ele>4052.60009765625</ele>
        <time>2023-07-29T16:26:05.000Z</time>
        <extensions>
          <ns3:TrackPointExtension>
            <ns3:hr>89</ns3:hr>
            <ns3:cad>0</ns3:cad>
          </ns3:TrackPointExtension>
        </extensions>
      </trkpt>
      <trkpt lat="37.78594127856194972991943359375" lon="-107.7038926072418689727783203125">
        <ele>4052.60009765625</ele>
        <time>2023-07-29T16:26:06.000Z</time>
        <extensions>
          <ns3:TrackPointExtension>
            <ns3:hr>89</ns3:hr>
            <ns3:cad>0</ns3:cad>
          </ns3:TrackPointExtension>
        </extensions>
      </trkpt>
      <trkpt lat="37.78594278730452060699462890625" lon="-107.7038919366896152496337890625">
        <ele>4052.800048828125</ele>
        <time>2023-07-29T16:26:07.000Z</time>
        <extensions>
          <ns3:TrackPointExtension>
            <ns3:hr>89</ns3:hr>
            <ns3:cad>0</ns3:cad>
          </ns3:TrackPointExtension>
        </extensions>
      </trkpt>
      <trkpt lat="37.78594161383807659149169921875" lon="-107.7038859017193317413330078125">
        <ele>4052.800048828125</ele>
        <time>2023-07-29T16:26:08.000Z</time>
        <extensions>
          <ns3:TrackPointExtension>
            <ns3:hr>89</ns3:hr>
            <ns3:cad>0</ns3:cad>
          </ns3:TrackPointExtension>
        </extensions>
      </trkpt>
      <trkpt lat="37.7859411947429180145263671875" lon="-107.70387710072100162506103515625">
        <ele>4052.800048828125</ele>
        <time>2023-07-29T16:26:09.000Z</time>
        <extensions>
          <ns3:TrackPointExtension>
            <ns3:hr>89</ns3:hr>
            <ns3:cad>0</ns3:cad>
          </ns3:TrackPointExtension>
        </extensions>
      </trkpt>
      <trkpt lat="37.78594479896128177642822265625" lon="-107.70387693308293819427490234375">
        <ele>4052.800048828125</ele>
        <time>2023-07-29T16:26:10.000Z</time>
        <extensions>
          <ns3:TrackPointExtension>
            <ns3:hr>89</ns3:hr>
            <ns3:cad>0</ns3:cad>
          </ns3:TrackPointExtension>
        </extensions>
      </trkpt>
      <trkpt lat="37.7859472297132015228271484375" lon="-107.7038765139877796173095703125">
        <ele>4052.60009765625</ele>
        <time>2023-07-29T16:26:11.000Z</time>
        <extensions>
          <ns3:TrackPointExtension>
            <ns3:hr>89</ns3:hr>
            <ns3:cad>0</ns3:cad>
          </ns3:TrackPointExtension>
        </extensions>
      </trkpt>
      <trkpt lat="37.78595150448381900787353515625" lon="-107.70387860946357250213623046875">
        <ele>4052.60009765625</ele>
        <time>2023-07-29T16:26:12.000Z</time>
        <extensions>
          <ns3:TrackPointExtension>
            <ns3:hr>90</ns3:hr>
            <ns3:cad>0</ns3:cad>
          </ns3:TrackPointExtension>
        </extensions>
      </trkpt>
      <trkpt lat="37.7859561145305633544921875" lon="-107.70387860946357250213623046875">
        <ele>4052.60009765625</ele>
        <time>2023-07-29T16:26:13.000Z</time>
        <extensions>
          <ns3:TrackPointExtension>
            <ns3:hr>90</ns3:hr>
            <ns3:cad>0</ns3:cad>
          </ns3:TrackPointExtension>
        </extensions>
      </trkpt>
      <trkpt lat="37.78595770709216594696044921875" lon="-107.7038791961967945098876953125">
        <ele>4052.39990234375</ele>
        <time>2023-07-29T16:26:14.000Z</time>
        <extensions>
          <ns3:TrackPointExtension>
            <ns3:hr>90</ns3:hr>
            <ns3:cad>0</ns3:cad>
          </ns3:TrackPointExtension>
        </extensions>
      </trkpt>
      <trkpt lat="37.78595670126378536224365234375" lon="-107.703876011073589324951171875">
        <ele>4052.39990234375</ele>
        <time>2023-07-29T16:26:15.000Z</time>
        <extensions>
          <ns3:TrackPointExtension>
            <ns3:hr>90</ns3:hr>
            <ns3:cad>0</ns3:cad>
          </ns3:TrackPointExtension>
        </extensions>
      </trkpt>
      <trkpt lat="37.7859586291015148162841796875" lon="-107.7038771845400333404541015625">
        <ele>4052.39990234375</ele>
        <time>2023-07-29T16:26:16.000Z</time>
        <extensions>
          <ns3:TrackPointExtension>
            <ns3:hr>90</ns3:hr>
            <ns3:cad>0</ns3:cad>
          </ns3:TrackPointExtension>
        </extensions>
      </trkpt>
      <trkpt lat="37.78596055693924427032470703125" lon="-107.70387693308293819427490234375">
        <ele>4052.39990234375</ele>
        <time>2023-07-29T16:26:17.000Z</time>
        <extensions>
          <ns3:TrackPointExtension>
            <ns3:hr>89</ns3:hr>
            <ns3:cad>0</ns3:cad>
          </ns3:TrackPointExtension>
        </extensions>
      </trkpt>
      <trkpt lat="37.7859596349298954010009765625" lon="-107.7038790285587310791015625">
        <ele>4052.39990234375</ele>
        <time>2023-07-29T16:26:18.000Z</time>
        <extensions>
          <ns3:TrackPointExtension>
            <ns3:hr>89</ns3:hr>
            <ns3:cad>0</ns3:cad>
          </ns3:TrackPointExtension>
        </extensions>
      </trkpt>
      <trkpt lat="37.7859572879970073699951171875" lon="-107.70387567579746246337890625">
        <ele>4052.39990234375</ele>
        <time>2023-07-29T16:26:19.000Z</time>
        <extensions>
          <ns3:TrackPointExtension>
            <ns3:hr>88</ns3:hr>
            <ns3:cad>0</ns3:cad>
          </ns3:TrackPointExtension>
        </extensions>
      </trkpt>
      <trkpt lat="37.78595502488315105438232421875" lon="-107.7038745023310184478759765625">
        <ele>4052.39990234375</ele>
        <time>2023-07-29T16:26:20.000Z</time>
        <extensions>
          <ns3:TrackPointExtension>
            <ns3:hr>88</ns3:hr>
            <ns3:cad>0</ns3:cad>
          </ns3:TrackPointExtension>
        </extensions>
      </trkpt>
      <trkpt lat="37.78595217503607273101806640625" lon="-107.70386905409395694732666015625">
        <ele>4052.39990234375</ele>
        <time>2023-07-29T16:26:21.000Z</time>
        <extensions>
          <ns3:TrackPointExtension>
            <ns3:hr>88</ns3:hr>
            <ns3:cad>0</ns3:cad>
          </ns3:TrackPointExtension>
        </extensions>
      </trkpt>
      <trkpt lat="37.78595301322638988494873046875" lon="-107.70387659780681133270263671875">
        <ele>4052.39990234375</ele>
        <time>2023-07-29T16:26:22.000Z</time>
        <extensions>
          <ns3:TrackPointExtension>
            <ns3:hr>88</ns3:hr>
            <ns3:cad>0</ns3:cad>
          </ns3:TrackPointExtension>
        </extensions>
      </trkpt>
      <trkpt lat="37.785952426493167877197265625" lon="-107.70388531498610973358154296875">
        <ele>4052.39990234375</ele>
        <time>2023-07-29T16:26:23.000Z</time>
        <extensions>
          <ns3:TrackPointExtension>
            <ns3:hr>88</ns3:hr>
            <ns3:cad>0</ns3:cad>
          </ns3:TrackPointExtension>
        </extensions>
      </trkpt>
      <trkpt lat="37.7859519235789775848388671875" lon="-107.70389579236507415771484375">
        <ele>4052.39990234375</ele>
        <time>2023-07-29T16:26:24.000Z</time>
        <extensions>
          <ns3:TrackPointExtension>
            <ns3:hr>88</ns3:hr>
            <ns3:cad>0</ns3:cad>
          </ns3:TrackPointExtension>
        </extensions>
      </trkpt>
      <trkpt lat="37.78594714589416980743408203125" lon="-107.7039133943617343902587890625">
        <ele>4052.60009765625</ele>
        <time>2023-07-29T16:26:25.000Z</time>
        <extensions>
          <ns3:TrackPointExtension>
            <ns3:hr>88</ns3:hr>
            <ns3:cad>0</ns3:cad>
          </ns3:TrackPointExtension>
        </extensions>
      </trkpt>
      <trkpt lat="37.78593893162906169891357421875" lon="-107.7039227820932865142822265625">
        <ele>4052.800048828125</ele>
        <time>2023-07-29T16:26:26.000Z</time>
        <extensions>
          <ns3:TrackPointExtension>
            <ns3:hr>88</ns3:hr>
            <ns3:cad>0</ns3:cad>
          </ns3:TrackPointExtension>
        </extensions>
      </trkpt>
      <trkpt lat="37.78593532741069793701171875" lon="-107.7039234526455402374267578125">
        <ele>4053</ele>
        <time>2023-07-29T16:26:27.000Z</time>
        <extensions>
          <ns3:TrackPointExtension>
            <ns3:hr>88</ns3:hr>
            <ns3:cad>0</ns3:cad>
          </ns3:TrackPointExtension>
        </extensions>
      </trkpt>
      <trkpt lat="37.78593457303941249847412109375" lon="-107.703920267522335052490234375">
        <ele>4053</ele>
        <time>2023-07-29T16:26:28.000Z</time>
        <extensions>
          <ns3:TrackPointExtension>
            <ns3:hr>88</ns3:hr>
            <ns3:cad>0</ns3:cad>
          </ns3:TrackPointExtension>
        </extensions>
      </trkpt>
      <trkpt lat="37.7859341539442539215087890625" lon="-107.70391297526657581329345703125">
        <ele>4053</ele>
        <time>2023-07-29T16:26:29.000Z</time>
        <extensions>
          <ns3:TrackPointExtension>
            <ns3:hr>88</ns3:hr>
            <ns3:cad>0</ns3:cad>
          </ns3:TrackPointExtension>
        </extensions>
      </trkpt>
      <trkpt lat="37.78593205846846103668212890625" lon="-107.70391029305756092071533203125">
        <ele>4053</ele>
        <time>2023-07-29T16:26:30.000Z</time>
        <extensions>
          <ns3:TrackPointExtension>
            <ns3:hr>88</ns3:hr>
            <ns3:cad>0</ns3:cad>
          </ns3:TrackPointExtension>
        </extensions>
      </trkpt>
      <trkpt lat="37.7859308011829853057861328125" lon="-107.7039060182869434356689453125">
        <ele>4052.800048828125</ele>
        <time>2023-07-29T16:26:31.000Z</time>
        <extensions>
          <ns3:TrackPointExtension>
            <ns3:hr>88</ns3:hr>
            <ns3:cad>0</ns3:cad>
          </ns3:TrackPointExtension>
        </extensions>
      </trkpt>
      <trkpt lat="37.7859292924404144287109375" lon="-107.70390006713569164276123046875">
        <ele>4052.800048828125</ele>
        <time>2023-07-29T16:26:32.000Z</time>
        <extensions>
          <ns3:TrackPointExtension>
            <ns3:hr>88</ns3:hr>
            <ns3:cad>0</ns3:cad>
          </ns3:TrackPointExtension>
        </extensions>
      </trkpt>
      <trkpt lat="37.78592987917363643646240234375" lon="-107.70389319397509098052978515625">
        <ele>4052.60009765625</ele>
        <time>2023-07-29T16:26:33.000Z</time>
        <extensions>
          <ns3:TrackPointExtension>
            <ns3:hr>88</ns3:hr>
            <ns3:cad>0</ns3:cad>
          </ns3:TrackPointExtension>
        </extensions>
      </trkpt>
      <trkpt lat="37.78592996299266815185546875" lon="-107.70388933829963207244873046875">
        <ele>4052.60009765625</ele>
        <time>2023-07-29T16:26:34.000Z</time>
        <extensions>
          <ns3:TrackPointExtension>
            <ns3:hr>88</ns3:hr>
            <ns3:cad>0</ns3:cad>
          </ns3:TrackPointExtension>
        </extensions>
      </trkpt>
      <trkpt lat="37.7859324775636196136474609375" lon="-107.70388414151966571807861328125">
        <ele>4052.60009765625</ele>
        <time>2023-07-29T16:26:35.000Z</time>
        <extensions>
          <ns3:TrackPointExtension>
            <ns3:hr>88</ns3:hr>
            <ns3:cad>0</ns3:cad>
          </ns3:TrackPointExtension>
        </extensions>
      </trkpt>
      <trkpt lat="37.78593356721103191375732421875" lon="-107.70388095639646053314208984375">
        <ele>4052.39990234375</ele>
        <time>2023-07-29T16:26:36.000Z</time>
        <extensions>
          <ns3:TrackPointExtension>
            <ns3:hr>88</ns3:hr>
            <ns3:cad>0</ns3:cad>
          </ns3:TrackPointExtension>
        </extensions>
      </trkpt>
      <trkpt lat="37.785932980477809906005859375" lon="-107.70387743599712848663330078125">
        <ele>4052.39990234375</ele>
        <time>2023-07-29T16:26:37.000Z</time>
        <extensions>
          <ns3:TrackPointExtension>
            <ns3:hr>88</ns3:hr>
            <ns3:cad>0</ns3:cad>
          </ns3:TrackPointExtension>
        </extensions>
      </trkpt>
      <trkpt lat="37.78593323193490505218505859375" lon="-107.703878022730350494384765625">
        <ele>4052.39990234375</ele>
        <time>2023-07-29T16:26:38.000Z</time>
        <extensions>
          <ns3:TrackPointExtension>
            <ns3:hr>88</ns3:hr>
            <ns3:cad>0</ns3:cad>
          </ns3:TrackPointExtension>
        </extensions>
      </trkpt>
      <trkpt lat="37.785933651030063629150390625" lon="-107.70387995056807994842529296875">
        <ele>4052.39990234375</ele>
        <time>2023-07-29T16:26:39.000Z</time>
        <extensions>
          <ns3:TrackPointExtension>
            <ns3:hr>88</ns3:hr>
            <ns3:cad>0</ns3:cad>
          </ns3:TrackPointExtension>
        </extensions>
      </trkpt>
      <trkpt lat="37.78593323193490505218505859375" lon="-107.70388263277709484100341796875">
        <ele>4052.39990234375</ele>
        <time>2023-07-29T16:26:40.000Z</time>
        <extensions>
          <ns3:TrackPointExtension>
            <ns3:hr>88</ns3:hr>
            <ns3:cad>0</ns3:cad>
          </ns3:TrackPointExtension>
        </extensions>
      </trkpt>
      <trkpt lat="37.7859348244965076446533203125" lon="-107.70388238131999969482421875">
        <ele>4052.39990234375</ele>
        <time>2023-07-29T16:26:41.000Z</time>
        <extensions>
          <ns3:TrackPointExtension>
            <ns3:hr>88</ns3:hr>
            <ns3:cad>0</ns3:cad>
          </ns3:TrackPointExtension>
        </extensions>
      </trkpt>
      <trkpt lat="37.78593658469617366790771484375" lon="-107.70388263277709484100341796875">
        <ele>4052.39990234375</ele>
        <time>2023-07-29T16:26:42.000Z</time>
        <extensions>
          <ns3:TrackPointExtension>
            <ns3:hr>87</ns3:hr>
            <ns3:cad>0</ns3:cad>
          </ns3:TrackPointExtension>
        </extensions>
      </trkpt>
      <trkpt lat="37.78593800961971282958984375" lon="-107.7038818784058094024658203125">
        <ele>4052.39990234375</ele>
        <time>2023-07-29T16:26:43.000Z</time>
        <extensions>
          <ns3:TrackPointExtension>
            <ns3:hr>85</ns3:hr>
            <ns3:cad>0</ns3:cad>
          </ns3:TrackPointExtension>
        </extensions>
      </trkpt>
      <trkpt lat="37.7859400212764739990234375" lon="-107.7038822136819362640380859375">
        <ele>4052.39990234375</ele>
        <time>2023-07-29T16:26:44.000Z</time>
        <extensions>
          <ns3:TrackPointExtension>
            <ns3:hr>82</ns3:hr>
            <ns3:cad>0</ns3:cad>
          </ns3:TrackPointExtension>
        </extensions>
      </trkpt>
      <trkpt lat="37.7859427034854888916015625" lon="-107.7038818784058094024658203125">
        <ele>4052.39990234375</ele>
        <time>2023-07-29T16:26:45.000Z</time>
        <extensions>
          <ns3:TrackPointExtension>
            <ns3:hr>80</ns3:hr>
            <ns3:cad>0</ns3:cad>
          </ns3:TrackPointExtension>
        </extensions>
      </trkpt>
      <trkpt lat="37.78594513423740863800048828125" lon="-107.70387928001582622528076171875">
        <ele>4052.39990234375</ele>
        <time>2023-07-29T16:26:46.000Z</time>
        <extensions>
          <ns3:TrackPointExtension>
            <ns3:hr>80</ns3:hr>
            <ns3:cad>0</ns3:cad>
          </ns3:TrackPointExtension>
        </extensions>
      </trkpt>
      <trkpt lat="37.78594563715159893035888671875" lon="-107.703875005245208740234375">
        <ele>4052.39990234375</ele>
        <time>2023-07-29T16:26:47.000Z</time>
        <extensions>
          <ns3:TrackPointExtension>
            <ns3:hr>80</ns3:hr>
            <ns3:cad>0</ns3:cad>
          </ns3:TrackPointExtension>
        </extensions>
      </trkpt>
      <trkpt lat="37.78594949282705783843994140625" lon="-107.70387123338878154754638671875">
        <ele>4052.39990234375</ele>
        <time>2023-07-29T16:26:48.000Z</time>
        <extensions>
          <ns3:TrackPointExtension>
            <ns3:hr>80</ns3:hr>
            <ns3:cad>0</ns3:cad>
          </ns3:TrackPointExtension>
        </extensions>
      </trkpt>
      <trkpt lat="37.78595217503607273101806640625" lon="-107.70386855117976665496826171875">
        <ele>4052.39990234375</ele>
        <time>2023-07-29T16:26:49.000Z</time>
        <extensions>
          <ns3:TrackPointExtension>
            <ns3:hr>79</ns3:hr>
            <ns3:cad>0</ns3:cad>
          </ns3:TrackPointExtension>
        </extensions>
      </trkpt>
      <trkpt lat="37.78595334850251674652099609375" lon="-107.703867964446544647216796875">
        <ele>4052.39990234375</ele>
        <time>2023-07-29T16:26:50.000Z</time>
        <extensions>
          <ns3:TrackPointExtension>
            <ns3:hr>79</ns3:hr>
            <ns3:cad>0</ns3:cad>
          </ns3:TrackPointExtension>
        </extensions>
      </trkpt>
      <trkpt lat="37.7859532646834850311279296875" lon="-107.703869305551052093505859375">
        <ele>4052.39990234375</ele>
        <time>2023-07-29T16:26:51.000Z</time>
        <extensions>
          <ns3:TrackPointExtension>
            <ns3:hr>79</ns3:hr>
            <ns3:cad>0</ns3:cad>
          </ns3:TrackPointExtension>
        </extensions>
      </trkpt>
      <trkpt lat="37.785954773426055908203125" lon="-107.7038701437413692474365234375">
        <ele>4052.39990234375</ele>
        <time>2023-07-29T16:26:52.000Z</time>
        <extensions>
          <ns3:TrackPointExtension>
            <ns3:hr>79</ns3:hr>
            <ns3:cad>0</ns3:cad>
          </ns3:TrackPointExtension>
        </extensions>
      </trkpt>
      <trkpt lat="37.78595468960702419281005859375" lon="-107.70386855117976665496826171875">
        <ele>4052.39990234375</ele>
        <time>2023-07-29T16:26:53.000Z</time>
        <extensions>
          <ns3:TrackPointExtension>
            <ns3:hr>79</ns3:hr>
            <ns3:cad>0</ns3:cad>
          </ns3:TrackPointExtension>
        </extensions>
      </trkpt>
      <trkpt lat="37.78595410287380218505859375" lon="-107.70387073047459125518798828125">
        <ele>4052.39990234375</ele>
        <time>2023-07-29T16:26:54.000Z</time>
        <extensions>
          <ns3:TrackPointExtension>
            <ns3:hr>79</ns3:hr>
            <ns3:cad>0</ns3:cad>
          </ns3:TrackPointExtension>
        </extensions>
      </trkpt>
      <trkpt lat="37.78595401905477046966552734375" lon="-107.70387559197843074798583984375">
        <ele>4052.60009765625</ele>
        <time>2023-07-29T16:26:55.000Z</time>
        <extensions>
          <ns3:TrackPointExtension>
            <ns3:hr>80</ns3:hr>
            <ns3:cad>0</ns3:cad>
          </ns3:TrackPointExtension>
        </extensions>
      </trkpt>
      <trkpt lat="37.78595670126378536224365234375" lon="-107.7038795314729213714599609375">
        <ele>4052.60009765625</ele>
        <time>2023-07-29T16:26:56.000Z</time>
        <extensions>
          <ns3:TrackPointExtension>
            <ns3:hr>80</ns3:hr>
            <ns3:cad>0</ns3:cad>
          </ns3:TrackPointExtension>
        </extensions>
      </trkpt>
      <trkpt lat="37.78595552779734134674072265625" lon="-107.70388548262417316436767578125">
        <ele>4052.800048828125</ele>
        <time>2023-07-29T16:26:57.000Z</time>
        <extensions>
          <ns3:TrackPointExtension>
            <ns3:hr>80</ns3:hr>
            <ns3:cad>0</ns3:cad>
          </ns3:TrackPointExtension>
        </extensions>
      </trkpt>
      <trkpt lat="37.78595686890184879302978515625" lon="-107.70389118231832981109619140625">
        <ele>4052.800048828125</ele>
        <time>2023-07-29T16:26:58.000Z</time>
        <extensions>
          <ns3:TrackPointExtension>
            <ns3:hr>80</ns3:hr>
            <ns3:cad>0</ns3:cad>
          </ns3:TrackPointExtension>
        </extensions>
      </trkpt>
      <trkpt lat="37.78595720417797565460205078125" lon="-107.703894786536693572998046875">
        <ele>4053</ele>
        <time>2023-07-29T16:26:59.000Z</time>
        <extensions>
          <ns3:TrackPointExtension>
            <ns3:hr>80</ns3:hr>
            <ns3:cad>0</ns3:cad>
          </ns3:TrackPointExtension>
        </extensions>
      </trkpt>
      <trkpt lat="37.78595519252121448516845703125" lon="-107.70389956422150135040283203125">
        <ele>4053.199951171875</ele>
        <time>2023-07-29T16:27:00.000Z</time>
        <extensions>
          <ns3:TrackPointExtension>
            <ns3:hr>80</ns3:hr>
            <ns3:cad>0</ns3:cad>
          </ns3:TrackPointExtension>
        </extensions>
      </trkpt>
      <trkpt lat="37.785951085388660430908203125" lon="-107.703906185925006866455078125">
        <ele>4053.39990234375</ele>
        <time>2023-07-29T16:27:01.000Z</time>
        <extensions>
          <ns3:TrackPointExtension>
            <ns3:hr>80</ns3:hr>
            <ns3:cad>0</ns3:cad>
          </ns3:TrackPointExtension>
        </extensions>
      </trkpt>
      <trkpt lat="37.78595007956027984619140625" lon="-107.703912891447544097900390625">
        <ele>4053.39990234375</ele>
        <time>2023-07-29T16:27:02.000Z</time>
        <extensions>
          <ns3:TrackPointExtension>
            <ns3:hr>77</ns3:hr>
            <ns3:cad>0</ns3:cad>
          </ns3:TrackPointExtension>
        </extensions>
      </trkpt>
      <trkpt lat="37.7859472297132015228271484375" lon="-107.70391733385622501373291015625">
        <ele>4053.39990234375</ele>
        <time>2023-07-29T16:27:03.000Z</time>
        <extensions>
          <ns3:TrackPointExtension>
            <ns3:hr>76</ns3:hr>
            <ns3:cad>0</ns3:cad>
          </ns3:TrackPointExtension>
        </extensions>
      </trkpt>
      <trkpt lat="37.78594546951353549957275390625" lon="-107.703916244208812713623046875">
        <ele>4053.39990234375</ele>
        <time>2023-07-29T16:27:04.000Z</time>
        <extensions>
          <ns3:TrackPointExtension>
            <ns3:hr>75</ns3:hr>
            <ns3:cad>0</ns3:cad>
          </ns3:TrackPointExtension>
        </extensions>
      </trkpt>
      <trkpt lat="37.78594245202839374542236328125" lon="-107.7039133943617343902587890625">
        <ele>4053.39990234375</ele>
        <time>2023-07-29T16:27:05.000Z</time>
        <extensions>
          <ns3:TrackPointExtension>
            <ns3:hr>75</ns3:hr>
            <ns3:cad>0</ns3:cad>
          </ns3:TrackPointExtension>
        </extensions>
      </trkpt>
      <trkpt lat="37.7859400212764739990234375" lon="-107.70390358753502368927001953125">
        <ele>4053.199951171875</ele>
        <time>2023-07-29T16:27:06.000Z</time>
        <extensions>
          <ns3:TrackPointExtension>
            <ns3:hr>75</ns3:hr>
            <ns3:cad>0</ns3:cad>
          </ns3:TrackPointExtension>
        </extensions>
      </trkpt>
      <trkpt lat="37.78594261966645717620849609375" lon="-107.70389487035572528839111328125">
        <ele>4053.199951171875</ele>
        <time>2023-07-29T16:27:07.000Z</time>
        <extensions>
          <ns3:TrackPointExtension>
            <ns3:hr>75</ns3:hr>
            <ns3:cad>0</ns3:cad>
          </ns3:TrackPointExtension>
        </extensions>
      </trkpt>
      <trkpt lat="37.78594245202839374542236328125" lon="-107.7038936130702495574951171875">
        <ele>4053.199951171875</ele>
        <time>2023-07-29T16:27:08.000Z</time>
        <extensions>
          <ns3:TrackPointExtension>
            <ns3:hr>75</ns3:hr>
            <ns3:cad>0</ns3:cad>
          </ns3:TrackPointExtension>
        </extensions>
      </trkpt>
      <trkpt lat="37.78594245202839374542236328125" lon="-107.703892104327678680419921875">
        <ele>4053.199951171875</ele>
        <time>2023-07-29T16:27:09.000Z</time>
        <extensions>
          <ns3:TrackPointExtension>
            <ns3:hr>75</ns3:hr>
            <ns3:cad>0</ns3:cad>
          </ns3:TrackPointExtension>
        </extensions>
      </trkpt>
      <trkpt lat="37.7859438769519329071044921875" lon="-107.70389034412801265716552734375">
        <ele>4053.199951171875</ele>
        <time>2023-07-29T16:27:10.000Z</time>
        <extensions>
          <ns3:TrackPointExtension>
            <ns3:hr>75</ns3:hr>
            <ns3:cad>0</ns3:cad>
          </ns3:TrackPointExtension>
        </extensions>
      </trkpt>
      <trkpt lat="37.78594094328582286834716796875" lon="-107.703894786536693572998046875">
        <ele>4053.199951171875</ele>
        <time>2023-07-29T16:27:11.000Z</time>
        <extensions>
          <ns3:TrackPointExtension>
            <ns3:hr>75</ns3:hr>
            <ns3:cad>0</ns3:cad>
          </ns3:TrackPointExtension>
        </extensions>
      </trkpt>
      <trkpt lat="37.78594245202839374542236328125" lon="-107.7038939483463764190673828125">
        <ele>4053.199951171875</ele>
        <time>2023-07-29T16:27:12.000Z</time>
        <extensions>
          <ns3:TrackPointExtension>
            <ns3:hr>75</ns3:hr>
            <ns3:cad>0</ns3:cad>
          </ns3:TrackPointExtension>
        </extensions>
      </trkpt>
      <trkpt lat="37.78594261966645717620849609375" lon="-107.70389587618410587310791015625">
        <ele>4053.199951171875</ele>
        <time>2023-07-29T16:27:13.000Z</time>
        <extensions>
          <ns3:TrackPointExtension>
            <ns3:hr>75</ns3:hr>
            <ns3:cad>0</ns3:cad>
          </ns3:TrackPointExtension>
        </extensions>
      </trkpt>
      <trkpt lat="37.78594396077096462249755859375" lon="-107.70389755256474018096923828125">
        <ele>4053.199951171875</ele>
        <time>2023-07-29T16:27:14.000Z</time>
        <extensions>
          <ns3:TrackPointExtension>
            <ns3:hr>74</ns3:hr>
            <ns3:cad>0</ns3:cad>
          </ns3:TrackPointExtension>
        </extensions>
      </trkpt>
      <trkpt lat="37.78594194911420345306396484375" lon="-107.7038979716598987579345703125">
        <ele>4053.199951171875</ele>
        <time>2023-07-29T16:27:15.000Z</time>
        <extensions>
          <ns3:TrackPointExtension>
            <ns3:hr>73</ns3:hr>
            <ns3:cad>0</ns3:cad>
          </ns3:TrackPointExtension>
        </extensions>
      </trkpt>
      <trkpt lat="37.78594194911420345306396484375" lon="-107.7038949541747570037841796875">
        <ele>4053.199951171875</ele>
        <time>2023-07-29T16:27:16.000Z</time>
        <extensions>
          <ns3:TrackPointExtension>
            <ns3:hr>72</ns3:hr>
            <ns3:cad>0</ns3:cad>
          </ns3:TrackPointExtension>
        </extensions>
      </trkpt>
      <trkpt lat="37.78594194911420345306396484375" lon="-107.7038926072418689727783203125">
        <ele>4053</ele>
        <time>2023-07-29T16:27:17.000Z</time>
        <extensions>
          <ns3:TrackPointExtension>
            <ns3:hr>72</ns3:hr>
            <ns3:cad>0</ns3:cad>
          </ns3:TrackPointExtension>
        </extensions>
      </trkpt>
      <trkpt lat="37.78594161383807659149169921875" lon="-107.70388782955706119537353515625">
        <ele>4053</ele>
        <time>2023-07-29T16:27:18.000Z</time>
        <extensions>
          <ns3:TrackPointExtension>
            <ns3:hr>72</ns3:hr>
            <ns3:cad>0</ns3:cad>
          </ns3:TrackPointExtension>
        </extensions>
      </trkpt>
      <trkpt lat="37.785941027104854583740234375" lon="-107.703887410461902618408203125">
        <ele>4053</ele>
        <time>2023-07-29T16:27:19.000Z</time>
        <extensions>
          <ns3:TrackPointExtension>
            <ns3:hr>72</ns3:hr>
            <ns3:cad>0</ns3:cad>
          </ns3:TrackPointExtension>
        </extensions>
      </trkpt>
      <trkpt lat="37.7859411947429180145263671875" lon="-107.70388715900480747222900390625">
        <ele>4053</ele>
        <time>2023-07-29T16:27:20.000Z</time>
        <extensions>
          <ns3:TrackPointExtension>
            <ns3:hr>72</ns3:hr>
            <ns3:cad>0</ns3:cad>
          </ns3:TrackPointExtension>
        </extensions>
      </trkpt>
      <trkpt lat="37.785940356552600860595703125" lon="-107.703889422118663787841796875">
        <ele>4053</ele>
        <time>2023-07-29T16:27:21.000Z</time>
        <extensions>
          <ns3:TrackPointExtension>
            <ns3:hr>72</ns3:hr>
            <ns3:cad>0</ns3:cad>
          </ns3:TrackPointExtension>
        </extensions>
      </trkpt>
      <trkpt lat="37.7859378419816493988037109375" lon="-107.70388598553836345672607421875">
        <ele>4053</ele>
        <time>2023-07-29T16:27:22.000Z</time>
        <extensions>
          <ns3:TrackPointExtension>
            <ns3:hr>72</ns3:hr>
            <ns3:cad>0</ns3:cad>
          </ns3:TrackPointExtension>
        </extensions>
      </trkpt>
      <trkpt lat="37.78593289665877819061279296875" lon="-107.70388372242450714111328125">
        <ele>4052.800048828125</ele>
        <time>2023-07-29T16:27:23.000Z</time>
        <extensions>
          <ns3:TrackPointExtension>
            <ns3:hr>71</ns3:hr>
            <ns3:cad>0</ns3:cad>
          </ns3:TrackPointExtension>
        </extensions>
      </trkpt>
      <trkpt lat="37.7859287895262241363525390625" lon="-107.70388464443385601043701171875">
        <ele>4052.800048828125</ele>
        <time>2023-07-29T16:27:24.000Z</time>
        <extensions>
          <ns3:TrackPointExtension>
            <ns3:hr>71</ns3:hr>
            <ns3:cad>0</ns3:cad>
          </ns3:TrackPointExtension>
        </extensions>
      </trkpt>
      <trkpt lat="37.78592602349817752838134765625" lon="-107.70388296805322170257568359375">
        <ele>4052.800048828125</ele>
        <time>2023-07-29T16:27:25.000Z</time>
        <extensions>
          <ns3:TrackPointExtension>
            <ns3:hr>71</ns3:hr>
            <ns3:cad>0</ns3:cad>
          </ns3:TrackPointExtension>
        </extensions>
      </trkpt>
      <trkpt lat="37.785922922194004058837890625" lon="-107.703877352178096771240234375">
        <ele>4052.800048828125</ele>
        <time>2023-07-29T16:27:26.000Z</time>
        <extensions>
          <ns3:TrackPointExtension>
            <ns3:hr>71</ns3:hr>
            <ns3:cad>0</ns3:cad>
          </ns3:TrackPointExtension>
        </extensions>
      </trkpt>
      <trkpt lat="37.78592032380402088165283203125" lon="-107.70387609489262104034423828125">
        <ele>4052.800048828125</ele>
        <time>2023-07-29T16:27:27.000Z</time>
        <extensions>
          <ns3:TrackPointExtension>
            <ns3:hr>71</ns3:hr>
            <ns3:cad>0</ns3:cad>
          </ns3:TrackPointExtension>
        </extensions>
      </trkpt>
      <trkpt lat="37.785917222499847412109375" lon="-107.70387425087392330169677734375">
        <ele>4053</ele>
        <time>2023-07-29T16:27:28.000Z</time>
        <extensions>
          <ns3:TrackPointExtension>
            <ns3:hr>71</ns3:hr>
            <ns3:cad>0</ns3:cad>
          </ns3:TrackPointExtension>
        </extensions>
      </trkpt>
      <trkpt lat="37.78591462410986423492431640625" lon="-107.7038734965026378631591796875">
        <ele>4053</ele>
        <time>2023-07-29T16:27:29.000Z</time>
        <extensions>
          <ns3:TrackPointExtension>
            <ns3:hr>71</ns3:hr>
            <ns3:cad>0</ns3:cad>
          </ns3:TrackPointExtension>
        </extensions>
      </trkpt>
      <trkpt lat="37.78590850532054901123046875" lon="-107.7038728259503841400146484375">
        <ele>4053</ele>
        <time>2023-07-29T16:27:30.000Z</time>
        <extensions>
          <ns3:TrackPointExtension>
            <ns3:hr>71</ns3:hr>
            <ns3:cad>0</ns3:cad>
          </ns3:TrackPointExtension>
        </extensions>
      </trkpt>
      <trkpt lat="37.7859130315482616424560546875" lon="-107.70386586897075176239013671875">
        <ele>4053</ele>
        <time>2023-07-29T16:27:31.000Z</time>
        <extensions>
          <ns3:TrackPointExtension>
            <ns3:hr>71</ns3:hr>
            <ns3:cad>0</ns3:cad>
          </ns3:TrackPointExtension>
        </extensions>
      </trkpt>
      <trkpt lat="37.78591462410986423492431640625" lon="-107.70386368967592716217041015625">
        <ele>4053</ele>
        <time>2023-07-29T16:27:32.000Z</time>
        <extensions>
          <ns3:TrackPointExtension>
            <ns3:hr>70</ns3:hr>
            <ns3:cad>0</ns3:cad>
          </ns3:TrackPointExtension>
        </extensions>
      </trkpt>
      <trkpt lat="37.78592300601303577423095703125" lon="-107.70386922173202037811279296875">
        <ele>4053</ele>
        <time>2023-07-29T16:27:33.000Z</time>
        <extensions>
          <ns3:TrackPointExtension>
            <ns3:hr>70</ns3:hr>
            <ns3:cad>0</ns3:cad>
          </ns3:TrackPointExtension>
        </extensions>
      </trkpt>
      <trkpt lat="37.7859266102313995361328125" lon="-107.703869976103305816650390625">
        <ele>4053</ele>
        <time>2023-07-29T16:27:34.000Z</time>
        <extensions>
          <ns3:TrackPointExtension>
            <ns3:hr>69</ns3:hr>
            <ns3:cad>0</ns3:cad>
          </ns3:TrackPointExtension>
        </extensions>
      </trkpt>
      <trkpt lat="37.7859304659068584442138671875" lon="-107.70386855117976665496826171875">
        <ele>4053</ele>
        <time>2023-07-29T16:27:35.000Z</time>
        <extensions>
          <ns3:TrackPointExtension>
            <ns3:hr>69</ns3:hr>
            <ns3:cad>0</ns3:cad>
          </ns3:TrackPointExtension>
        </extensions>
      </trkpt>
      <trkpt lat="37.7859319746494293212890625" lon="-107.7038718201220035552978515625">
        <ele>4053</ele>
        <time>2023-07-29T16:27:36.000Z</time>
        <extensions>
          <ns3:TrackPointExtension>
            <ns3:hr>69</ns3:hr>
            <ns3:cad>0</ns3:cad>
          </ns3:TrackPointExtension>
        </extensions>
      </trkpt>
      <trkpt lat="37.785930633544921875" lon="-107.70387710072100162506103515625">
        <ele>4053</ele>
        <time>2023-07-29T16:27:37.000Z</time>
        <extensions>
          <ns3:TrackPointExtension>
            <ns3:hr>69</ns3:hr>
            <ns3:cad>0</ns3:cad>
          </ns3:TrackPointExtension>
        </extensions>
      </trkpt>
      <trkpt lat="37.78592996299266815185546875" lon="-107.703882716596126556396484375">
        <ele>4052.800048828125</ele>
        <time>2023-07-29T16:27:38.000Z</time>
        <extensions>
          <ns3:TrackPointExtension>
            <ns3:hr>70</ns3:hr>
            <ns3:cad>0</ns3:cad>
          </ns3:TrackPointExtension>
        </extensions>
      </trkpt>
      <trkpt lat="37.7859287895262241363525390625" lon="-107.7038892544806003570556640625">
        <ele>4052.800048828125</ele>
        <time>2023-07-29T16:27:39.000Z</time>
        <extensions>
          <ns3:TrackPointExtension>
            <ns3:hr>70</ns3:hr>
            <ns3:cad>0</ns3:cad>
          </ns3:TrackPointExtension>
        </extensions>
      </trkpt>
      <trkpt lat="37.7859292924404144287109375" lon="-107.7038939483463764190673828125">
        <ele>4052.800048828125</ele>
        <time>2023-07-29T16:27:40.000Z</time>
        <extensions>
          <ns3:TrackPointExtension>
            <ns3:hr>70</ns3:hr>
            <ns3:cad>0</ns3:cad>
          </ns3:TrackPointExtension>
        </extensions>
      </trkpt>
      <trkpt lat="37.78593054972589015960693359375" lon="-107.7038956247270107269287109375">
        <ele>4052.800048828125</ele>
        <time>2023-07-29T16:27:41.000Z</time>
        <extensions>
          <ns3:TrackPointExtension>
            <ns3:hr>71</ns3:hr>
            <ns3:cad>0</ns3:cad>
          </ns3:TrackPointExtension>
        </extensions>
      </trkpt>
      <trkpt lat="37.78593054972589015960693359375" lon="-107.703896127641201019287109375">
        <ele>4053</ele>
        <time>2023-07-29T16:27:42.000Z</time>
        <extensions>
          <ns3:TrackPointExtension>
            <ns3:hr>71</ns3:hr>
            <ns3:cad>0</ns3:cad>
          </ns3:TrackPointExtension>
        </extensions>
      </trkpt>
      <trkpt lat="37.78593289665877819061279296875" lon="-107.703896127641201019287109375">
        <ele>4053</ele>
        <time>2023-07-29T16:27:43.000Z</time>
        <extensions>
          <ns3:TrackPointExtension>
            <ns3:hr>72</ns3:hr>
            <ns3:cad>0</ns3:cad>
          </ns3:TrackPointExtension>
        </extensions>
      </trkpt>
      <trkpt lat="37.78593323193490505218505859375" lon="-107.70389520563185214996337890625">
        <ele>4053</ele>
        <time>2023-07-29T16:27:44.000Z</time>
        <extensions>
          <ns3:TrackPointExtension>
            <ns3:hr>73</ns3:hr>
            <ns3:cad>0</ns3:cad>
          </ns3:TrackPointExtension>
        </extensions>
      </trkpt>
      <trkpt lat="37.7859341539442539215087890625" lon="-107.70389403216540813446044921875">
        <ele>4053</ele>
        <time>2023-07-29T16:27:45.000Z</time>
        <extensions>
          <ns3:TrackPointExtension>
            <ns3:hr>73</ns3:hr>
            <ns3:cad>0</ns3:cad>
          </ns3:TrackPointExtension>
        </extensions>
      </trkpt>
      <trkpt lat="37.785932309925556182861328125" lon="-107.70389084704220294952392578125">
        <ele>4053</ele>
        <time>2023-07-29T16:27:46.000Z</time>
        <extensions>
          <ns3:TrackPointExtension>
            <ns3:hr>75</ns3:hr>
            <ns3:cad>0</ns3:cad>
          </ns3:TrackPointExtension>
        </extensions>
      </trkpt>
      <trkpt lat="37.78593172319233417510986328125" lon="-107.70388917066156864166259765625">
        <ele>4053</ele>
        <time>2023-07-29T16:27:47.000Z</time>
        <extensions>
          <ns3:TrackPointExtension>
            <ns3:hr>78</ns3:hr>
            <ns3:cad>0</ns3:cad>
          </ns3:TrackPointExtension>
        </extensions>
      </trkpt>
      <trkpt lat="37.78593172319233417510986328125" lon="-107.70388866774737834930419921875">
        <ele>4053</ele>
        <time>2023-07-29T16:27:48.000Z</time>
        <extensions>
          <ns3:TrackPointExtension>
            <ns3:hr>80</ns3:hr>
            <ns3:cad>0</ns3:cad>
          </ns3:TrackPointExtension>
        </extensions>
      </trkpt>
      <trkpt lat="37.785932309925556182861328125" lon="-107.7038895897567272186279296875">
        <ele>4053</ele>
        <time>2023-07-29T16:27:49.000Z</time>
        <extensions>
          <ns3:TrackPointExtension>
            <ns3:hr>82</ns3:hr>
            <ns3:cad>0</ns3:cad>
          </ns3:TrackPointExtension>
        </extensions>
      </trkpt>
      <trkpt lat="37.78593356721103191375732421875" lon="-107.70388816483318805694580078125">
        <ele>4053</ele>
        <time>2023-07-29T16:27:50.000Z</time>
        <extensions>
          <ns3:TrackPointExtension>
            <ns3:hr>84</ns3:hr>
            <ns3:cad>0</ns3:cad>
          </ns3:TrackPointExtension>
        </extensions>
      </trkpt>
      <trkpt lat="37.78593557886779308319091796875" lon="-107.70388648845255374908447265625">
        <ele>4053</ele>
        <time>2023-07-29T16:27:51.000Z</time>
        <extensions>
          <ns3:TrackPointExtension>
            <ns3:hr>85</ns3:hr>
            <ns3:cad>0</ns3:cad>
          </ns3:TrackPointExtension>
        </extensions>
      </trkpt>
      <trkpt lat="37.78593809343874454498291015625" lon="-107.70388481207191944122314453125">
        <ele>4052.800048828125</ele>
        <time>2023-07-29T16:27:52.000Z</time>
        <extensions>
          <ns3:TrackPointExtension>
            <ns3:hr>86</ns3:hr>
            <ns3:cad>0</ns3:cad>
          </ns3:TrackPointExtension>
        </extensions>
      </trkpt>
      <trkpt lat="37.78594111092388629913330078125" lon="-107.70388212986290454864501953125">
        <ele>4052.800048828125</ele>
        <time>2023-07-29T16:27:53.000Z</time>
        <extensions>
          <ns3:TrackPointExtension>
            <ns3:hr>87</ns3:hr>
            <ns3:cad>0</ns3:cad>
          </ns3:TrackPointExtension>
        </extensions>
      </trkpt>
      <trkpt lat="37.7859462238848209381103515625" lon="-107.70388447679579257965087890625">
        <ele>4052.800048828125</ele>
        <time>2023-07-29T16:27:54.000Z</time>
        <extensions>
          <ns3:TrackPointExtension>
            <ns3:hr>87</ns3:hr>
            <ns3:cad>0</ns3:cad>
          </ns3:TrackPointExtension>
        </extensions>
      </trkpt>
      <trkpt lat="37.78595251031219959259033203125" lon="-107.7038922719657421112060546875">
        <ele>4052.800048828125</ele>
        <time>2023-07-29T16:27:55.000Z</time>
        <extensions>
          <ns3:TrackPointExtension>
            <ns3:hr>87</ns3:hr>
            <ns3:cad>0</ns3:cad>
          </ns3:TrackPointExtension>
        </extensions>
      </trkpt>
      <trkpt lat="37.785958461463451385498046875" lon="-107.70389470271766185760498046875">
        <ele>4052.800048828125</ele>
        <time>2023-07-29T16:27:56.000Z</time>
        <extensions>
          <ns3:TrackPointExtension>
            <ns3:hr>87</ns3:hr>
            <ns3:cad>0</ns3:cad>
          </ns3:TrackPointExtension>
        </extensions>
      </trkpt>
      <trkpt lat="37.785963825881481170654296875" lon="-107.70390040241181850433349609375">
        <ele>4052.800048828125</ele>
        <time>2023-07-29T16:27:57.000Z</time>
        <extensions>
          <ns3:TrackPointExtension>
            <ns3:hr>87</ns3:hr>
            <ns3:cad>0</ns3:cad>
          </ns3:TrackPointExtension>
        </extensions>
      </trkpt>
      <trkpt lat="37.7859696932137012481689453125" lon="-107.703904844820499420166015625">
        <ele>4052.800048828125</ele>
        <time>2023-07-29T16:27:58.000Z</time>
        <extensions>
          <ns3:TrackPointExtension>
            <ns3:hr>88</ns3:hr>
            <ns3:cad>0</ns3:cad>
          </ns3:TrackPointExtension>
        </extensions>
      </trkpt>
      <trkpt lat="37.785975225269794464111328125" lon="-107.703907527029514312744140625">
        <ele>4052.800048828125</ele>
        <time>2023-07-29T16:27:59.000Z</time>
        <extensions>
          <ns3:TrackPointExtension>
            <ns3:hr>88</ns3:hr>
            <ns3:cad>0</ns3:cad>
          </ns3:TrackPointExtension>
        </extensions>
      </trkpt>
      <trkpt lat="37.7859753929078578948974609375" lon="-107.7039085328578948974609375">
        <ele>4053</ele>
        <time>2023-07-29T16:28:00.000Z</time>
        <extensions>
          <ns3:TrackPointExtension>
            <ns3:hr>87</ns3:hr>
            <ns3:cad>0</ns3:cad>
          </ns3:TrackPointExtension>
        </extensions>
      </trkpt>
      <trkpt lat="37.78597480617463588714599609375" lon="-107.70390861667692661285400390625">
        <ele>4053</ele>
        <time>2023-07-29T16:28:01.000Z</time>
        <extensions>
          <ns3:TrackPointExtension>
            <ns3:hr>87</ns3:hr>
            <ns3:cad>0</ns3:cad>
          </ns3:TrackPointExtension>
        </extensions>
      </trkpt>
      <trkpt lat="37.7859727106988430023193359375" lon="-107.703906856477260589599609375">
        <ele>4053</ele>
        <time>2023-07-29T16:28:02.000Z</time>
        <extensions>
          <ns3:TrackPointExtension>
            <ns3:hr>87</ns3:hr>
            <ns3:cad>0</ns3:cad>
          </ns3:TrackPointExtension>
        </extensions>
      </trkpt>
      <trkpt lat="37.78596994467079639434814453125" lon="-107.70390425808727741241455078125">
        <ele>4053.199951171875</ele>
        <time>2023-07-29T16:28:03.000Z</time>
        <extensions>
          <ns3:TrackPointExtension>
            <ns3:hr>87</ns3:hr>
            <ns3:cad>0</ns3:cad>
          </ns3:TrackPointExtension>
        </extensions>
      </trkpt>
      <trkpt lat="37.7859660051763057708740234375" lon="-107.703902833163738250732421875">
        <ele>4053.199951171875</ele>
        <time>2023-07-29T16:28:04.000Z</time>
        <extensions>
          <ns3:TrackPointExtension>
            <ns3:hr>87</ns3:hr>
            <ns3:cad>0</ns3:cad>
          </ns3:TrackPointExtension>
        </extensions>
      </trkpt>
      <trkpt lat="37.78596290387213230133056640625" lon="-107.70390308462083339691162109375">
        <ele>4053.199951171875</ele>
        <time>2023-07-29T16:28:05.000Z</time>
        <extensions>
          <ns3:TrackPointExtension>
            <ns3:hr>87</ns3:hr>
            <ns3:cad>0</ns3:cad>
          </ns3:TrackPointExtension>
        </extensions>
      </trkpt>
      <trkpt lat="37.7859556116163730621337890625" lon="-107.70390140824019908905029296875">
        <ele>4053.199951171875</ele>
        <time>2023-07-29T16:28:06.000Z</time>
        <extensions>
          <ns3:TrackPointExtension>
            <ns3:hr>87</ns3:hr>
            <ns3:cad>0</ns3:cad>
          </ns3:TrackPointExtension>
        </extensions>
      </trkpt>
      <trkpt lat="37.785951085388660430908203125" lon="-107.703902833163738250732421875">
        <ele>4053.199951171875</ele>
        <time>2023-07-29T16:28:07.000Z</time>
        <extensions>
          <ns3:TrackPointExtension>
            <ns3:hr>88</ns3:hr>
            <ns3:cad>0</ns3:cad>
          </ns3:TrackPointExtension>
        </extensions>
      </trkpt>
      <trkpt lat="37.785949409008026123046875" lon="-107.70390308462083339691162109375">
        <ele>4053.199951171875</ele>
        <time>2023-07-29T16:28:08.000Z</time>
        <extensions>
          <ns3:TrackPointExtension>
            <ns3:hr>88</ns3:hr>
            <ns3:cad>0</ns3:cad>
          </ns3:TrackPointExtension>
        </extensions>
      </trkpt>
      <trkpt lat="37.78594479896128177642822265625" lon="-107.7039006538689136505126953125">
        <ele>4053.199951171875</ele>
        <time>2023-07-29T16:28:09.000Z</time>
        <extensions>
          <ns3:TrackPointExtension>
            <ns3:hr>87</ns3:hr>
            <ns3:cad>0</ns3:cad>
          </ns3:TrackPointExtension>
        </extensions>
      </trkpt>
      <trkpt lat="37.7859408594667911529541015625" lon="-107.703897468745708465576171875">
        <ele>4053.199951171875</ele>
        <time>2023-07-29T16:28:10.000Z</time>
        <extensions>
          <ns3:TrackPointExtension>
            <ns3:hr>87</ns3:hr>
            <ns3:cad>0</ns3:cad>
          </ns3:TrackPointExtension>
        </extensions>
      </trkpt>
      <trkpt lat="37.78594111092388629913330078125" lon="-107.7038996480405330657958984375">
        <ele>4053.199951171875</ele>
        <time>2023-07-29T16:28:11.000Z</time>
        <extensions>
          <ns3:TrackPointExtension>
            <ns3:hr>87</ns3:hr>
            <ns3:cad>0</ns3:cad>
          </ns3:TrackPointExtension>
        </extensions>
      </trkpt>
      <trkpt lat="37.785942368209362030029296875" lon="-107.70390157587826251983642578125">
        <ele>4053.199951171875</ele>
        <time>2023-07-29T16:28:12.000Z</time>
        <extensions>
          <ns3:TrackPointExtension>
            <ns3:hr>87</ns3:hr>
            <ns3:cad>0</ns3:cad>
          </ns3:TrackPointExtension>
        </extensions>
      </trkpt>
      <trkpt lat="37.785946391522884368896484375" lon="-107.7039046771824359893798828125">
        <ele>4053</ele>
        <time>2023-07-29T16:28:13.000Z</time>
        <extensions>
          <ns3:TrackPointExtension>
            <ns3:hr>87</ns3:hr>
            <ns3:cad>0</ns3:cad>
          </ns3:TrackPointExtension>
        </extensions>
      </trkpt>
      <trkpt lat="37.78594798408448696136474609375" lon="-107.7039050124585628509521484375">
        <ele>4053</ele>
        <time>2023-07-29T16:28:14.000Z</time>
        <extensions>
          <ns3:TrackPointExtension>
            <ns3:hr>87</ns3:hr>
            <ns3:cad>0</ns3:cad>
          </ns3:TrackPointExtension>
        </extensions>
      </trkpt>
      <trkpt lat="37.78594764880836009979248046875" lon="-107.7038969658315181732177734375">
        <ele>4053</ele>
        <time>2023-07-29T16:28:15.000Z</time>
        <extensions>
          <ns3:TrackPointExtension>
            <ns3:hr>87</ns3:hr>
            <ns3:cad>0</ns3:cad>
          </ns3:TrackPointExtension>
        </extensions>
      </trkpt>
      <trkpt lat="37.7859482355415821075439453125" lon="-107.70389503799378871917724609375">
        <ele>4053</ele>
        <time>2023-07-29T16:28:16.000Z</time>
        <extensions>
          <ns3:TrackPointExtension>
            <ns3:hr>86</ns3:hr>
            <ns3:cad>0</ns3:cad>
          </ns3:TrackPointExtension>
        </extensions>
      </trkpt>
      <trkpt lat="37.785949073731899261474609375" lon="-107.70389336161315441131591796875">
        <ele>4053</ele>
        <time>2023-07-29T16:28:17.000Z</time>
        <extensions>
          <ns3:TrackPointExtension>
            <ns3:hr>85</ns3:hr>
            <ns3:cad>0</ns3:cad>
          </ns3:TrackPointExtension>
        </extensions>
      </trkpt>
      <trkpt lat="37.78594815172255039215087890625" lon="-107.70388447679579257965087890625">
        <ele>4053</ele>
        <time>2023-07-29T16:28:18.000Z</time>
        <extensions>
          <ns3:TrackPointExtension>
            <ns3:hr>83</ns3:hr>
            <ns3:cad>0</ns3:cad>
          </ns3:TrackPointExtension>
        </extensions>
      </trkpt>
      <trkpt lat="37.785948403179645538330078125" lon="-107.703883387148380279541015625">
        <ele>4053</ele>
        <time>2023-07-29T16:28:19.000Z</time>
        <extensions>
          <ns3:TrackPointExtension>
            <ns3:hr>82</ns3:hr>
            <ns3:cad>0</ns3:cad>
          </ns3:TrackPointExtension>
        </extensions>
      </trkpt>
      <trkpt lat="37.7859485708177089691162109375" lon="-107.70388565026223659515380859375">
        <ele>4053</ele>
        <time>2023-07-29T16:28:20.000Z</time>
        <extensions>
          <ns3:TrackPointExtension>
            <ns3:hr>80</ns3:hr>
            <ns3:cad>0</ns3:cad>
          </ns3:TrackPointExtension>
        </extensions>
      </trkpt>
      <trkpt lat="37.78594882227480411529541015625" lon="-107.70388615317642688751220703125">
        <ele>4053</ele>
        <time>2023-07-29T16:28:21.000Z</time>
        <extensions>
          <ns3:TrackPointExtension>
            <ns3:hr>79</ns3:hr>
            <ns3:cad>0</ns3:cad>
          </ns3:TrackPointExtension>
        </extensions>
      </trkpt>
      <trkpt lat="37.785952091217041015625" lon="-107.703892774879932403564453125">
        <ele>4053</ele>
        <time>2023-07-29T16:28:22.000Z</time>
        <extensions>
          <ns3:TrackPointExtension>
            <ns3:hr>79</ns3:hr>
            <ns3:cad>0</ns3:cad>
          </ns3:TrackPointExtension>
        </extensions>
      </trkpt>
      <trkpt lat="37.78595116920769214630126953125" lon="-107.70389176905155181884765625">
        <ele>4053</ele>
        <time>2023-07-29T16:28:23.000Z</time>
        <extensions>
          <ns3:TrackPointExtension>
            <ns3:hr>79</ns3:hr>
            <ns3:cad>0</ns3:cad>
          </ns3:TrackPointExtension>
        </extensions>
      </trkpt>
      <trkpt lat="37.78595284558832645416259765625" lon="-107.703895457088947296142578125">
        <ele>4053</ele>
        <time>2023-07-29T16:28:24.000Z</time>
        <extensions>
          <ns3:TrackPointExtension>
            <ns3:hr>78</ns3:hr>
            <ns3:cad>0</ns3:cad>
          </ns3:TrackPointExtension>
        </extensions>
      </trkpt>
      <trkpt lat="37.78595217503607273101806640625" lon="-107.70389604382216930389404296875">
        <ele>4053</ele>
        <time>2023-07-29T16:28:25.000Z</time>
        <extensions>
          <ns3:TrackPointExtension>
            <ns3:hr>78</ns3:hr>
            <ns3:cad>0</ns3:cad>
          </ns3:TrackPointExtension>
        </extensions>
      </trkpt>
      <trkpt lat="37.785951755940914154052734375" lon="-107.7038976363837718963623046875">
        <ele>4053</ele>
        <time>2023-07-29T16:28:26.000Z</time>
        <extensions>
          <ns3:TrackPointExtension>
            <ns3:hr>78</ns3:hr>
            <ns3:cad>0</ns3:cad>
          </ns3:TrackPointExtension>
        </extensions>
      </trkpt>
      <trkpt lat="37.78595133684575557708740234375" lon="-107.70389755256474018096923828125">
        <ele>4053</ele>
        <time>2023-07-29T16:28:27.000Z</time>
        <extensions>
          <ns3:TrackPointExtension>
            <ns3:hr>78</ns3:hr>
            <ns3:cad>0</ns3:cad>
          </ns3:TrackPointExtension>
        </extensions>
      </trkpt>
      <trkpt lat="37.78595217503607273101806640625" lon="-107.7038993127644062042236328125">
        <ele>4053</ele>
        <time>2023-07-29T16:28:28.000Z</time>
        <extensions>
          <ns3:TrackPointExtension>
            <ns3:hr>79</ns3:hr>
            <ns3:cad>0</ns3:cad>
          </ns3:TrackPointExtension>
        </extensions>
      </trkpt>
      <trkpt lat="37.78595267795026302337646484375" lon="-107.7039016596972942352294921875">
        <ele>4053</ele>
        <time>2023-07-29T16:28:29.000Z</time>
        <extensions>
          <ns3:TrackPointExtension>
            <ns3:hr>79</ns3:hr>
            <ns3:cad>0</ns3:cad>
          </ns3:TrackPointExtension>
        </extensions>
      </trkpt>
      <trkpt lat="37.7859534323215484619140625" lon="-107.7039040066301822662353515625">
        <ele>4053</ele>
        <time>2023-07-29T16:28:30.000Z</time>
        <extensions>
          <ns3:TrackPointExtension>
            <ns3:hr>79</ns3:hr>
            <ns3:cad>0</ns3:cad>
          </ns3:TrackPointExtension>
        </extensions>
      </trkpt>
      <trkpt lat="37.7859529294073581695556640625" lon="-107.70390677265822887420654296875">
        <ele>4053</ele>
        <time>2023-07-29T16:28:31.000Z</time>
        <extensions>
          <ns3:TrackPointExtension>
            <ns3:hr>80</ns3:hr>
            <ns3:cad>0</ns3:cad>
          </ns3:TrackPointExtension>
        </extensions>
      </trkpt>
      <trkpt lat="37.785953097045421600341796875" lon="-107.70390911959111690521240234375">
        <ele>4053</ele>
        <time>2023-07-29T16:28:32.000Z</time>
        <extensions>
          <ns3:TrackPointExtension>
            <ns3:hr>81</ns3:hr>
            <ns3:cad>0</ns3:cad>
          </ns3:TrackPointExtension>
        </extensions>
      </trkpt>
      <trkpt lat="37.78595385141670703887939453125" lon="-107.70390945486724376678466796875">
        <ele>4053</ele>
        <time>2023-07-29T16:28:33.000Z</time>
        <extensions>
          <ns3:TrackPointExtension>
            <ns3:hr>82</ns3:hr>
            <ns3:cad>0</ns3:cad>
          </ns3:TrackPointExtension>
        </extensions>
      </trkpt>
      <trkpt lat="37.78595401905477046966552734375" lon="-107.7039123885333538055419921875">
        <ele>4053.199951171875</ele>
        <time>2023-07-29T16:28:34.000Z</time>
        <extensions>
          <ns3:TrackPointExtension>
            <ns3:hr>84</ns3:hr>
            <ns3:cad>0</ns3:cad>
          </ns3:TrackPointExtension>
        </extensions>
      </trkpt>
      <trkpt lat="37.78595318086445331573486328125" lon="-107.70391381345689296722412109375">
        <ele>4053.199951171875</ele>
        <time>2023-07-29T16:28:35.000Z</time>
        <extensions>
          <ns3:TrackPointExtension>
            <ns3:hr>86</ns3:hr>
            <ns3:cad>0</ns3:cad>
          </ns3:TrackPointExtension>
        </extensions>
      </trkpt>
      <trkpt lat="37.78595276176929473876953125" lon="-107.70391297526657581329345703125">
        <ele>4053.199951171875</ele>
        <time>2023-07-29T16:28:36.000Z</time>
        <extensions>
          <ns3:TrackPointExtension>
            <ns3:hr>87</ns3:hr>
            <ns3:cad>0</ns3:cad>
          </ns3:TrackPointExtension>
        </extensions>
      </trkpt>
      <trkpt lat="37.7859502471983432769775390625" lon="-107.70390911959111690521240234375">
        <ele>4053.199951171875</ele>
        <time>2023-07-29T16:28:37.000Z</time>
        <extensions>
          <ns3:TrackPointExtension>
            <ns3:hr>89</ns3:hr>
            <ns3:cad>0</ns3:cad>
          </ns3:TrackPointExtension>
        </extensions>
      </trkpt>
      <trkpt lat="37.78594815172255039215087890625" lon="-107.70390777848660945892333984375">
        <ele>4053.199951171875</ele>
        <time>2023-07-29T16:28:38.000Z</time>
        <extensions>
          <ns3:TrackPointExtension>
            <ns3:hr>91</ns3:hr>
            <ns3:cad>0</ns3:cad>
          </ns3:TrackPointExtension>
        </extensions>
      </trkpt>
      <trkpt lat="37.78594614006578922271728515625" lon="-107.70391188561916351318359375">
        <ele>4053.199951171875</ele>
        <time>2023-07-29T16:28:39.000Z</time>
        <extensions>
          <ns3:TrackPointExtension>
            <ns3:hr>92</ns3:hr>
            <ns3:cad>0</ns3:cad>
          </ns3:TrackPointExtension>
        </extensions>
      </trkpt>
      <trkpt lat="37.785944379866123199462890625" lon="-107.7039147354662418365478515625">
        <ele>4053.199951171875</ele>
        <time>2023-07-29T16:28:40.000Z</time>
        <extensions>
          <ns3:TrackPointExtension>
            <ns3:hr>93</ns3:hr>
            <ns3:cad>0</ns3:cad>
          </ns3:TrackPointExtension>
        </extensions>
      </trkpt>
      <trkpt lat="37.785943038761615753173828125" lon="-107.70391263999044895172119140625">
        <ele>4053.199951171875</ele>
        <time>2023-07-29T16:28:41.000Z</time>
        <extensions>
          <ns3:TrackPointExtension>
            <ns3:hr>94</ns3:hr>
            <ns3:cad>0</ns3:cad>
          </ns3:TrackPointExtension>
        </extensions>
      </trkpt>
      <trkpt lat="37.7859455533325672149658203125" lon="-107.70391096360981464385986328125">
        <ele>4053.199951171875</ele>
        <time>2023-07-29T16:28:42.000Z</time>
        <extensions>
          <ns3:TrackPointExtension>
            <ns3:hr>95</ns3:hr>
            <ns3:cad>0</ns3:cad>
          </ns3:TrackPointExtension>
        </extensions>
      </trkpt>
      <trkpt lat="37.7859532646834850311279296875" lon="-107.70390761084854602813720703125">
        <ele>4053.199951171875</ele>
        <time>2023-07-29T16:28:43.000Z</time>
        <extensions>
          <ns3:TrackPointExtension>
            <ns3:hr>96</ns3:hr>
            <ns3:cad>0</ns3:cad>
          </ns3:TrackPointExtension>
        </extensions>
      </trkpt>
      <trkpt lat="37.78595737181603908538818359375" lon="-107.70390895195305347442626953125">
        <ele>4053.199951171875</ele>
        <time>2023-07-29T16:28:44.000Z</time>
        <extensions>
          <ns3:TrackPointExtension>
            <ns3:hr>96</ns3:hr>
            <ns3:cad>0</ns3:cad>
          </ns3:TrackPointExtension>
        </extensions>
      </trkpt>
      <trkpt lat="37.78595871292054653167724609375" lon="-107.70391029305756092071533203125">
        <ele>4053.199951171875</ele>
        <time>2023-07-29T16:28:45.000Z</time>
        <extensions>
          <ns3:TrackPointExtension>
            <ns3:hr>95</ns3:hr>
            <ns3:cad>0</ns3:cad>
          </ns3:TrackPointExtension>
        </extensions>
      </trkpt>
      <trkpt lat="37.78595971874892711639404296875" lon="-107.703907191753387451171875">
        <ele>4053.199951171875</ele>
        <time>2023-07-29T16:28:46.000Z</time>
        <extensions>
          <ns3:TrackPointExtension>
            <ns3:hr>95</ns3:hr>
            <ns3:cad>0</ns3:cad>
          </ns3:TrackPointExtension>
        </extensions>
      </trkpt>
      <trkpt lat="37.78595812618732452392578125" lon="-107.7039031684398651123046875">
        <ele>4053.199951171875</ele>
        <time>2023-07-29T16:28:47.000Z</time>
        <extensions>
          <ns3:TrackPointExtension>
            <ns3:hr>95</ns3:hr>
            <ns3:cad>0</ns3:cad>
          </ns3:TrackPointExtension>
        </extensions>
      </trkpt>
      <trkpt lat="37.7859515883028507232666015625" lon="-107.70390258170664310455322265625">
        <ele>4053.199951171875</ele>
        <time>2023-07-29T16:28:48.000Z</time>
        <extensions>
          <ns3:TrackPointExtension>
            <ns3:hr>95</ns3:hr>
            <ns3:cad>0</ns3:cad>
          </ns3:TrackPointExtension>
        </extensions>
      </trkpt>
      <trkpt lat="37.78594831936061382293701171875" lon="-107.703901827335357666015625">
        <ele>4053</ele>
        <time>2023-07-29T16:28:49.000Z</time>
        <extensions>
          <ns3:TrackPointExtension>
            <ns3:hr>95</ns3:hr>
            <ns3:cad>0</ns3:cad>
          </ns3:TrackPointExtension>
        </extensions>
      </trkpt>
      <trkpt lat="37.78594563715159893035888671875" lon="-107.70390023477375507354736328125">
        <ele>4053</ele>
        <time>2023-07-29T16:28:50.000Z</time>
        <extensions>
          <ns3:TrackPointExtension>
            <ns3:hr>95</ns3:hr>
            <ns3:cad>0</ns3:cad>
          </ns3:TrackPointExtension>
        </extensions>
      </trkpt>
      <trkpt lat="37.78594144620001316070556640625" lon="-107.70390157587826251983642578125">
        <ele>4053</ele>
        <time>2023-07-29T16:28:51.000Z</time>
        <extensions>
          <ns3:TrackPointExtension>
            <ns3:hr>96</ns3:hr>
            <ns3:cad>0</ns3:cad>
          </ns3:TrackPointExtension>
        </extensions>
      </trkpt>
      <trkpt lat="37.78593675233423709869384765625" lon="-107.70389939658343791961669921875">
        <ele>4053</ele>
        <time>2023-07-29T16:28:52.000Z</time>
        <extensions>
          <ns3:TrackPointExtension>
            <ns3:hr>96</ns3:hr>
            <ns3:cad>0</ns3:cad>
          </ns3:TrackPointExtension>
        </extensions>
      </trkpt>
      <trkpt lat="37.7859365008771419525146484375" lon="-107.70389704965054988861083984375">
        <ele>4053</ele>
        <time>2023-07-29T16:28:53.000Z</time>
        <extensions>
          <ns3:TrackPointExtension>
            <ns3:hr>96</ns3:hr>
            <ns3:cad>0</ns3:cad>
          </ns3:TrackPointExtension>
        </extensions>
      </trkpt>
      <trkpt lat="37.7859361656010150909423828125" lon="-107.7038936130702495574951171875">
        <ele>4053</ele>
        <time>2023-07-29T16:28:54.000Z</time>
        <extensions>
          <ns3:TrackPointExtension>
            <ns3:hr>96</ns3:hr>
            <ns3:cad>0</ns3:cad>
          </ns3:TrackPointExtension>
        </extensions>
      </trkpt>
      <trkpt lat="37.7859368361532688140869140625" lon="-107.70389218814671039581298828125">
        <ele>4053.199951171875</ele>
        <time>2023-07-29T16:28:55.000Z</time>
        <extensions>
          <ns3:TrackPointExtension>
            <ns3:hr>96</ns3:hr>
            <ns3:cad>0</ns3:cad>
          </ns3:TrackPointExtension>
        </extensions>
      </trkpt>
      <trkpt lat="37.7859400212764739990234375" lon="-107.70388908684253692626953125">
        <ele>4053.199951171875</ele>
        <time>2023-07-29T16:28:56.000Z</time>
        <extensions>
          <ns3:TrackPointExtension>
            <ns3:hr>96</ns3:hr>
            <ns3:cad>0</ns3:cad>
          </ns3:TrackPointExtension>
        </extensions>
      </trkpt>
      <trkpt lat="37.78593909926712512969970703125" lon="-107.70388648845255374908447265625">
        <ele>4053.199951171875</ele>
        <time>2023-07-29T16:28:57.000Z</time>
        <extensions>
          <ns3:TrackPointExtension>
            <ns3:hr>97</ns3:hr>
            <ns3:cad>0</ns3:cad>
          </ns3:TrackPointExtension>
        </extensions>
      </trkpt>
      <trkpt lat="37.7859292924404144287109375" lon="-107.70387835800647735595703125">
        <ele>4053.199951171875</ele>
        <time>2023-07-29T16:28:58.000Z</time>
        <extensions>
          <ns3:TrackPointExtension>
            <ns3:hr>97</ns3:hr>
            <ns3:cad>0</ns3:cad>
          </ns3:TrackPointExtension>
        </extensions>
      </trkpt>
      <trkpt lat="37.78592753224074840545654296875" lon="-107.703876681625843048095703125">
        <ele>4053.199951171875</ele>
        <time>2023-07-29T16:28:59.000Z</time>
        <extensions>
          <ns3:TrackPointExtension>
            <ns3:hr>97</ns3:hr>
            <ns3:cad>0</ns3:cad>
          </ns3:TrackPointExtension>
        </extensions>
      </trkpt>
      <trkpt lat="37.78592904098331928253173828125" lon="-107.7038714848458766937255859375">
        <ele>4053.199951171875</ele>
        <time>2023-07-29T16:29:00.000Z</time>
        <extensions>
          <ns3:TrackPointExtension>
            <ns3:hr>97</ns3:hr>
            <ns3:cad>0</ns3:cad>
          </ns3:TrackPointExtension>
        </extensions>
      </trkpt>
      <trkpt lat="37.78592820279300212860107421875" lon="-107.703868634998798370361328125">
        <ele>4053.199951171875</ele>
        <time>2023-07-29T16:29:01.000Z</time>
        <extensions>
          <ns3:TrackPointExtension>
            <ns3:hr>97</ns3:hr>
            <ns3:cad>0</ns3:cad>
          </ns3:TrackPointExtension>
        </extensions>
      </trkpt>
      <trkpt lat="37.78592619113624095916748046875" lon="-107.7038694731891155242919921875">
        <ele>4053.199951171875</ele>
        <time>2023-07-29T16:29:02.000Z</time>
        <extensions>
          <ns3:TrackPointExtension>
            <ns3:hr>97</ns3:hr>
            <ns3:cad>0</ns3:cad>
          </ns3:TrackPointExtension>
        </extensions>
      </trkpt>
      <trkpt lat="37.78592904098331928253173828125" lon="-107.703867293894290924072265625">
        <ele>4053.199951171875</ele>
        <time>2023-07-29T16:29:03.000Z</time>
        <extensions>
          <ns3:TrackPointExtension>
            <ns3:hr>97</ns3:hr>
            <ns3:cad>0</ns3:cad>
          </ns3:TrackPointExtension>
        </extensions>
      </trkpt>
      <trkpt lat="37.78593122027814388275146484375" lon="-107.70386385731399059295654296875">
        <ele>4053</ele>
        <time>2023-07-29T16:29:04.000Z</time>
        <extensions>
          <ns3:TrackPointExtension>
            <ns3:hr>97</ns3:hr>
            <ns3:cad>0</ns3:cad>
          </ns3:TrackPointExtension>
        </extensions>
      </trkpt>
      <trkpt lat="37.78593306429684162139892578125" lon="-107.70386385731399059295654296875">
        <ele>4052.800048828125</ele>
        <time>2023-07-29T16:29:05.000Z</time>
        <extensions>
          <ns3:TrackPointExtension>
            <ns3:hr>97</ns3:hr>
            <ns3:cad>0</ns3:cad>
          </ns3:TrackPointExtension>
        </extensions>
      </trkpt>
      <trkpt lat="37.785930968821048736572265625" lon="-107.70387106575071811676025390625">
        <ele>4052.800048828125</ele>
        <time>2023-07-29T16:29:06.000Z</time>
        <extensions>
          <ns3:TrackPointExtension>
            <ns3:hr>97</ns3:hr>
            <ns3:cad>0</ns3:cad>
          </ns3:TrackPointExtension>
        </extensions>
      </trkpt>
      <trkpt lat="37.7859308011829853057861328125" lon="-107.70387290976941585540771484375">
        <ele>4052.800048828125</ele>
        <time>2023-07-29T16:29:07.000Z</time>
        <extensions>
          <ns3:TrackPointExtension>
            <ns3:hr>96</ns3:hr>
            <ns3:cad>0</ns3:cad>
          </ns3:TrackPointExtension>
        </extensions>
      </trkpt>
      <trkpt lat="37.78593826107680797576904296875" lon="-107.70387307740747928619384765625">
        <ele>4052.800048828125</ele>
        <time>2023-07-29T16:29:08.000Z</time>
        <extensions>
          <ns3:TrackPointExtension>
            <ns3:hr>96</ns3:hr>
            <ns3:cad>0</ns3:cad>
          </ns3:TrackPointExtension>
        </extensions>
      </trkpt>
      <trkpt lat="37.78594077564775943756103515625" lon="-107.70387575961649417877197265625">
        <ele>4053</ele>
        <time>2023-07-29T16:29:09.000Z</time>
        <extensions>
          <ns3:TrackPointExtension>
            <ns3:hr>96</ns3:hr>
            <ns3:cad>0</ns3:cad>
          </ns3:TrackPointExtension>
        </extensions>
      </trkpt>
      <trkpt lat="37.7859453856945037841796875" lon="-107.703875340521335601806640625">
        <ele>4053</ele>
        <time>2023-07-29T16:29:10.000Z</time>
        <extensions>
          <ns3:TrackPointExtension>
            <ns3:hr>96</ns3:hr>
            <ns3:cad>0</ns3:cad>
          </ns3:TrackPointExtension>
        </extensions>
      </trkpt>
      <trkpt lat="37.78594362549483776092529296875" lon="-107.70387693308293819427490234375">
        <ele>4053</ele>
        <time>2023-07-29T16:29:11.000Z</time>
        <extensions>
          <ns3:TrackPointExtension>
            <ns3:hr>95</ns3:hr>
            <ns3:cad>0</ns3:cad>
          </ns3:TrackPointExtension>
        </extensions>
      </trkpt>
      <trkpt lat="37.785941697657108306884765625" lon="-107.70387810654938220977783203125">
        <ele>4053</ele>
        <time>2023-07-29T16:29:12.000Z</time>
        <extensions>
          <ns3:TrackPointExtension>
            <ns3:hr>95</ns3:hr>
            <ns3:cad>0</ns3:cad>
          </ns3:TrackPointExtension>
        </extensions>
      </trkpt>
      <trkpt lat="37.78594127856194972991943359375" lon="-107.7038795314729213714599609375">
        <ele>4053</ele>
        <time>2023-07-29T16:29:13.000Z</time>
        <extensions>
          <ns3:TrackPointExtension>
            <ns3:hr>95</ns3:hr>
            <ns3:cad>0</ns3:cad>
          </ns3:TrackPointExtension>
        </extensions>
      </trkpt>
      <trkpt lat="37.78594027273356914520263671875" lon="-107.7038822136819362640380859375">
        <ele>4053</ele>
        <time>2023-07-29T16:29:14.000Z</time>
        <extensions>
          <ns3:TrackPointExtension>
            <ns3:hr>95</ns3:hr>
            <ns3:cad>0</ns3:cad>
          </ns3:TrackPointExtension>
        </extensions>
      </trkpt>
      <trkpt lat="37.78594228439033031463623046875" lon="-107.70388372242450714111328125">
        <ele>4053</ele>
        <time>2023-07-29T16:29:15.000Z</time>
        <extensions>
          <ns3:TrackPointExtension>
            <ns3:hr>95</ns3:hr>
            <ns3:cad>0</ns3:cad>
          </ns3:TrackPointExtension>
        </extensions>
      </trkpt>
      <trkpt lat="37.78594245202839374542236328125" lon="-107.70388548262417316436767578125">
        <ele>4053.199951171875</ele>
        <time>2023-07-29T16:29:16.000Z</time>
        <extensions>
          <ns3:TrackPointExtension>
            <ns3:hr>95</ns3:hr>
            <ns3:cad>0</ns3:cad>
          </ns3:TrackPointExtension>
        </extensions>
      </trkpt>
      <trkpt lat="37.78594496659934520721435546875" lon="-107.7038855664432048797607421875">
        <ele>4053.199951171875</ele>
        <time>2023-07-29T16:29:17.000Z</time>
        <extensions>
          <ns3:TrackPointExtension>
            <ns3:hr>94</ns3:hr>
            <ns3:cad>0</ns3:cad>
          </ns3:TrackPointExtension>
        </extensions>
      </trkpt>
      <trkpt lat="37.7859509177505970001220703125" lon="-107.7038859017193317413330078125">
        <ele>4053.199951171875</ele>
        <time>2023-07-29T16:29:18.000Z</time>
        <extensions>
          <ns3:TrackPointExtension>
            <ns3:hr>95</ns3:hr>
            <ns3:cad>0</ns3:cad>
          </ns3:TrackPointExtension>
        </extensions>
      </trkpt>
      <trkpt lat="37.78595519252121448516845703125" lon="-107.703885398805141448974609375">
        <ele>4053.199951171875</ele>
        <time>2023-07-29T16:29:19.000Z</time>
        <extensions>
          <ns3:TrackPointExtension>
            <ns3:hr>95</ns3:hr>
            <ns3:cad>0</ns3:cad>
          </ns3:TrackPointExtension>
        </extensions>
      </trkpt>
      <trkpt lat="37.78595720417797565460205078125" lon="-107.703885398805141448974609375">
        <ele>4053.199951171875</ele>
        <time>2023-07-29T16:29:20.000Z</time>
        <extensions>
          <ns3:TrackPointExtension>
            <ns3:hr>95</ns3:hr>
            <ns3:cad>0</ns3:cad>
          </ns3:TrackPointExtension>
        </extensions>
      </trkpt>
      <trkpt lat="37.78595753945410251617431640625" lon="-107.7038843929767608642578125">
        <ele>4053.199951171875</ele>
        <time>2023-07-29T16:29:21.000Z</time>
        <extensions>
          <ns3:TrackPointExtension>
            <ns3:hr>94</ns3:hr>
            <ns3:cad>0</ns3:cad>
          </ns3:TrackPointExtension>
        </extensions>
      </trkpt>
      <trkpt lat="37.78596122749149799346923828125" lon="-107.70388263277709484100341796875">
        <ele>4053.199951171875</ele>
        <time>2023-07-29T16:29:22.000Z</time>
        <extensions>
          <ns3:TrackPointExtension>
            <ns3:hr>94</ns3:hr>
            <ns3:cad>0</ns3:cad>
          </ns3:TrackPointExtension>
        </extensions>
      </trkpt>
      <trkpt lat="37.7859626524150371551513671875" lon="-107.7038822136819362640380859375">
        <ele>4053.199951171875</ele>
        <time>2023-07-29T16:29:23.000Z</time>
        <extensions>
          <ns3:TrackPointExtension>
            <ns3:hr>94</ns3:hr>
            <ns3:cad>0</ns3:cad>
          </ns3:TrackPointExtension>
        </extensions>
      </trkpt>
      <trkpt lat="37.78596751391887664794921875" lon="-107.70388129167258739471435546875">
        <ele>4053</ele>
        <time>2023-07-29T16:29:24.000Z</time>
        <extensions>
          <ns3:TrackPointExtension>
            <ns3:hr>94</ns3:hr>
            <ns3:cad>0</ns3:cad>
          </ns3:TrackPointExtension>
        </extensions>
      </trkpt>
      <trkpt lat="37.7859676815569400787353515625" lon="-107.70388481207191944122314453125">
        <ele>4052.800048828125</ele>
        <time>2023-07-29T16:29:25.000Z</time>
        <extensions>
          <ns3:TrackPointExtension>
            <ns3:hr>94</ns3:hr>
            <ns3:cad>0</ns3:cad>
          </ns3:TrackPointExtension>
        </extensions>
      </trkpt>
      <trkpt lat="37.78597061522305011749267578125" lon="-107.7038848958909511566162109375">
        <ele>4052.800048828125</ele>
        <time>2023-07-29T16:29:26.000Z</time>
        <extensions>
          <ns3:TrackPointExtension>
            <ns3:hr>94</ns3:hr>
            <ns3:cad>0</ns3:cad>
          </ns3:TrackPointExtension>
        </extensions>
      </trkpt>
      <trkpt lat="37.7859696932137012481689453125" lon="-107.7038862369954586029052734375">
        <ele>4052.800048828125</ele>
        <time>2023-07-29T16:29:27.000Z</time>
        <extensions>
          <ns3:TrackPointExtension>
            <ns3:hr>94</ns3:hr>
            <ns3:cad>0</ns3:cad>
          </ns3:TrackPointExtension>
        </extensions>
      </trkpt>
      <trkpt lat="37.78596977703273296356201171875" lon="-107.70388749428093433380126953125">
        <ele>4052.800048828125</ele>
        <time>2023-07-29T16:29:28.000Z</time>
        <extensions>
          <ns3:TrackPointExtension>
            <ns3:hr>93</ns3:hr>
            <ns3:cad>0</ns3:cad>
          </ns3:TrackPointExtension>
        </extensions>
      </trkpt>
      <trkpt lat="37.785966508090496063232421875" lon="-107.703892104327678680419921875">
        <ele>4052.800048828125</ele>
        <time>2023-07-29T16:29:29.000Z</time>
        <extensions>
          <ns3:TrackPointExtension>
            <ns3:hr>92</ns3:hr>
            <ns3:cad>0</ns3:cad>
          </ns3:TrackPointExtension>
        </extensions>
      </trkpt>
      <trkpt lat="37.78596642427146434783935546875" lon="-107.70389218814671039581298828125">
        <ele>4052.800048828125</ele>
        <time>2023-07-29T16:29:30.000Z</time>
        <extensions>
          <ns3:TrackPointExtension>
            <ns3:hr>93</ns3:hr>
            <ns3:cad>0</ns3:cad>
          </ns3:TrackPointExtension>
        </extensions>
      </trkpt>
      <trkpt lat="37.78596525080502033233642578125" lon="-107.7038969658315181732177734375">
        <ele>4052.800048828125</ele>
        <time>2023-07-29T16:29:31.000Z</time>
        <extensions>
          <ns3:TrackPointExtension>
            <ns3:hr>93</ns3:hr>
            <ns3:cad>0</ns3:cad>
          </ns3:TrackPointExtension>
        </extensions>
      </trkpt>
      <trkpt lat="37.78597019612789154052734375" lon="-107.7038926072418689727783203125">
        <ele>4052.800048828125</ele>
        <time>2023-07-29T16:29:32.000Z</time>
        <extensions>
          <ns3:TrackPointExtension>
            <ns3:hr>93</ns3:hr>
            <ns3:cad>0</ns3:cad>
          </ns3:TrackPointExtension>
        </extensions>
      </trkpt>
      <trkpt lat="37.78596709482371807098388671875" lon="-107.70388850010931491851806640625">
        <ele>4052.800048828125</ele>
        <time>2023-07-29T16:29:33.000Z</time>
        <extensions>
          <ns3:TrackPointExtension>
            <ns3:hr>93</ns3:hr>
            <ns3:cad>0</ns3:cad>
          </ns3:TrackPointExtension>
        </extensions>
      </trkpt>
      <trkpt lat="37.78596625663340091705322265625" lon="-107.70388397388160228729248046875">
        <ele>4052.800048828125</ele>
        <time>2023-07-29T16:29:34.000Z</time>
        <extensions>
          <ns3:TrackPointExtension>
            <ns3:hr>93</ns3:hr>
            <ns3:cad>0</ns3:cad>
          </ns3:TrackPointExtension>
        </extensions>
      </trkpt>
      <trkpt lat="37.78596843592822551727294921875" lon="-107.70388212986290454864501953125">
        <ele>4052.800048828125</ele>
        <time>2023-07-29T16:29:35.000Z</time>
        <extensions>
          <ns3:TrackPointExtension>
            <ns3:hr>93</ns3:hr>
            <ns3:cad>0</ns3:cad>
          </ns3:TrackPointExtension>
        </extensions>
      </trkpt>
      <trkpt lat="37.78597027994692325592041015625" lon="-107.703882046043872833251953125">
        <ele>4052.60009765625</ele>
        <time>2023-07-29T16:29:36.000Z</time>
        <extensions>
          <ns3:TrackPointExtension>
            <ns3:hr>93</ns3:hr>
            <ns3:cad>0</ns3:cad>
          </ns3:TrackPointExtension>
        </extensions>
      </trkpt>
      <trkpt lat="37.785973213613033294677734375" lon="-107.7038822136819362640380859375">
        <ele>4052.60009765625</ele>
        <time>2023-07-29T16:29:37.000Z</time>
        <extensions>
          <ns3:TrackPointExtension>
            <ns3:hr>94</ns3:hr>
            <ns3:cad>0</ns3:cad>
          </ns3:TrackPointExtension>
        </extensions>
      </trkpt>
      <trkpt lat="37.785973213613033294677734375" lon="-107.703880369663238525390625">
        <ele>4052.60009765625</ele>
        <time>2023-07-29T16:29:38.000Z</time>
        <extensions>
          <ns3:TrackPointExtension>
            <ns3:hr>94</ns3:hr>
            <ns3:cad>0</ns3:cad>
          </ns3:TrackPointExtension>
        </extensions>
      </trkpt>
      <trkpt lat="37.78597229160368442535400390625" lon="-107.70388145931065082550048828125">
        <ele>4052.60009765625</ele>
        <time>2023-07-29T16:29:39.000Z</time>
        <extensions>
          <ns3:TrackPointExtension>
            <ns3:hr>94</ns3:hr>
            <ns3:cad>0</ns3:cad>
          </ns3:TrackPointExtension>
        </extensions>
      </trkpt>
      <trkpt lat="37.7859693579375743865966796875" lon="-107.70388095639646053314208984375">
        <ele>4052.39990234375</ele>
        <time>2023-07-29T16:29:40.000Z</time>
        <extensions>
          <ns3:TrackPointExtension>
            <ns3:hr>95</ns3:hr>
            <ns3:cad>0</ns3:cad>
          </ns3:TrackPointExtension>
        </extensions>
      </trkpt>
      <trkpt lat="37.78596659190952777862548828125" lon="-107.70388112403452396392822265625">
        <ele>4052.60009765625</ele>
        <time>2023-07-29T16:29:41.000Z</time>
        <extensions>
          <ns3:TrackPointExtension>
            <ns3:hr>95</ns3:hr>
            <ns3:cad>0</ns3:cad>
          </ns3:TrackPointExtension>
        </extensions>
      </trkpt>
      <trkpt lat="37.785964496433734893798828125" lon="-107.70388305187225341796875">
        <ele>4052.60009765625</ele>
        <time>2023-07-29T16:29:42.000Z</time>
        <extensions>
          <ns3:TrackPointExtension>
            <ns3:hr>96</ns3:hr>
            <ns3:cad>0</ns3:cad>
          </ns3:TrackPointExtension>
        </extensions>
      </trkpt>
      <trkpt lat="37.78596290387213230133056640625" lon="-107.70388648845255374908447265625">
        <ele>4052.60009765625</ele>
        <time>2023-07-29T16:29:43.000Z</time>
        <extensions>
          <ns3:TrackPointExtension>
            <ns3:hr>96</ns3:hr>
            <ns3:cad>0</ns3:cad>
          </ns3:TrackPointExtension>
        </extensions>
      </trkpt>
      <trkpt lat="37.78596214950084686279296875" lon="-107.703889422118663787841796875">
        <ele>4052.800048828125</ele>
        <time>2023-07-29T16:29:44.000Z</time>
        <extensions>
          <ns3:TrackPointExtension>
            <ns3:hr>96</ns3:hr>
            <ns3:cad>0</ns3:cad>
          </ns3:TrackPointExtension>
        </extensions>
      </trkpt>
      <trkpt lat="37.78596206568181514739990234375" lon="-107.70389336161315441131591796875">
        <ele>4052.800048828125</ele>
        <time>2023-07-29T16:29:45.000Z</time>
        <extensions>
          <ns3:TrackPointExtension>
            <ns3:hr>96</ns3:hr>
            <ns3:cad>0</ns3:cad>
          </ns3:TrackPointExtension>
        </extensions>
      </trkpt>
      <trkpt lat="37.7859613113105297088623046875" lon="-107.7038946188986301422119140625">
        <ele>4052.800048828125</ele>
        <time>2023-07-29T16:29:46.000Z</time>
        <extensions>
          <ns3:TrackPointExtension>
            <ns3:hr>96</ns3:hr>
            <ns3:cad>0</ns3:cad>
          </ns3:TrackPointExtension>
        </extensions>
      </trkpt>
      <trkpt lat="37.7859606407582759857177734375" lon="-107.70389487035572528839111328125">
        <ele>4053</ele>
        <time>2023-07-29T16:29:47.000Z</time>
        <extensions>
          <ns3:TrackPointExtension>
            <ns3:hr>96</ns3:hr>
            <ns3:cad>0</ns3:cad>
          </ns3:TrackPointExtension>
        </extensions>
      </trkpt>
      <trkpt lat="37.78595921583473682403564453125" lon="-107.70389839075505733489990234375">
        <ele>4053</ele>
        <time>2023-07-29T16:29:48.000Z</time>
        <extensions>
          <ns3:TrackPointExtension>
            <ns3:hr>96</ns3:hr>
            <ns3:cad>0</ns3:cad>
          </ns3:TrackPointExtension>
        </extensions>
      </trkpt>
      <trkpt lat="37.78596005402505397796630859375" lon="-107.70389872603118419647216796875">
        <ele>4053</ele>
        <time>2023-07-29T16:29:49.000Z</time>
        <extensions>
          <ns3:TrackPointExtension>
            <ns3:hr>96</ns3:hr>
            <ns3:cad>0</ns3:cad>
          </ns3:TrackPointExtension>
        </extensions>
      </trkpt>
      <trkpt lat="37.785960137844085693359375" lon="-107.70389554090797901153564453125">
        <ele>4053</ele>
        <time>2023-07-29T16:29:50.000Z</time>
        <extensions>
          <ns3:TrackPointExtension>
            <ns3:hr>96</ns3:hr>
            <ns3:cad>0</ns3:cad>
          </ns3:TrackPointExtension>
        </extensions>
      </trkpt>
      <trkpt lat="37.78596206568181514739990234375" lon="-107.70389587618410587310791015625">
        <ele>4053</ele>
        <time>2023-07-29T16:29:51.000Z</time>
        <extensions>
          <ns3:TrackPointExtension>
            <ns3:hr>96</ns3:hr>
            <ns3:cad>0</ns3:cad>
          </ns3:TrackPointExtension>
        </extensions>
      </trkpt>
      <trkpt lat="37.78596214950084686279296875" lon="-107.70389688201248645782470703125">
        <ele>4053</ele>
        <time>2023-07-29T16:29:52.000Z</time>
        <extensions>
          <ns3:TrackPointExtension>
            <ns3:hr>96</ns3:hr>
            <ns3:cad>0</ns3:cad>
          </ns3:TrackPointExtension>
        </extensions>
      </trkpt>
      <trkpt lat="37.78596240095794200897216796875" lon="-107.703900150954723358154296875">
        <ele>4053</ele>
        <time>2023-07-29T16:29:53.000Z</time>
        <extensions>
          <ns3:TrackPointExtension>
            <ns3:hr>96</ns3:hr>
            <ns3:cad>0</ns3:cad>
          </ns3:TrackPointExtension>
        </extensions>
      </trkpt>
      <trkpt lat="37.7859641611576080322265625" lon="-107.7039016596972942352294921875">
        <ele>4053</ele>
        <time>2023-07-29T16:29:54.000Z</time>
        <extensions>
          <ns3:TrackPointExtension>
            <ns3:hr>96</ns3:hr>
            <ns3:cad>0</ns3:cad>
          </ns3:TrackPointExtension>
        </extensions>
      </trkpt>
      <trkpt lat="37.78596374206244945526123046875" lon="-107.7039004862308502197265625">
        <ele>4053</ele>
        <time>2023-07-29T16:29:55.000Z</time>
        <extensions>
          <ns3:TrackPointExtension>
            <ns3:hr>96</ns3:hr>
            <ns3:cad>0</ns3:cad>
          </ns3:TrackPointExtension>
        </extensions>
      </trkpt>
      <trkpt lat="37.7859628200531005859375" lon="-107.70389704965054988861083984375">
        <ele>4053</ele>
        <time>2023-07-29T16:29:56.000Z</time>
        <extensions>
          <ns3:TrackPointExtension>
            <ns3:hr>95</ns3:hr>
            <ns3:cad>0</ns3:cad>
          </ns3:TrackPointExtension>
        </extensions>
      </trkpt>
      <trkpt lat="37.7859629876911640167236328125" lon="-107.70389839075505733489990234375">
        <ele>4053</ele>
        <time>2023-07-29T16:29:57.000Z</time>
        <extensions>
          <ns3:TrackPointExtension>
            <ns3:hr>95</ns3:hr>
            <ns3:cad>0</ns3:cad>
          </ns3:TrackPointExtension>
        </extensions>
      </trkpt>
      <trkpt lat="37.78596458025276660919189453125" lon="-107.7039019949734210968017578125">
        <ele>4053</ele>
        <time>2023-07-29T16:29:58.000Z</time>
        <extensions>
          <ns3:TrackPointExtension>
            <ns3:hr>95</ns3:hr>
            <ns3:cad>0</ns3:cad>
          </ns3:TrackPointExtension>
        </extensions>
      </trkpt>
      <trkpt lat="37.78596357442438602447509765625" lon="-107.7039036713540554046630859375">
        <ele>4053</ele>
        <time>2023-07-29T16:29:59.000Z</time>
        <extensions>
          <ns3:TrackPointExtension>
            <ns3:hr>95</ns3:hr>
            <ns3:cad>0</ns3:cad>
          </ns3:TrackPointExtension>
        </extensions>
      </trkpt>
      <trkpt lat="37.7859639935195446014404296875" lon="-107.70390727557241916656494140625">
        <ele>4053</ele>
        <time>2023-07-29T16:30:00.000Z</time>
        <extensions>
          <ns3:TrackPointExtension>
            <ns3:hr>93</ns3:hr>
            <ns3:cad>0</ns3:cad>
          </ns3:TrackPointExtension>
        </extensions>
      </trkpt>
      <trkpt lat="37.785963825881481170654296875" lon="-107.7039083652198314666748046875">
        <ele>4053</ele>
        <time>2023-07-29T16:30:01.000Z</time>
        <extensions>
          <ns3:TrackPointExtension>
            <ns3:hr>93</ns3:hr>
            <ns3:cad>0</ns3:cad>
          </ns3:TrackPointExtension>
        </extensions>
      </trkpt>
      <trkpt lat="37.7859668433666229248046875" lon="-107.7039150707423686981201171875">
        <ele>4053</ele>
        <time>2023-07-29T16:30:02.000Z</time>
        <extensions>
          <ns3:TrackPointExtension>
            <ns3:hr>92</ns3:hr>
            <ns3:cad>0</ns3:cad>
          </ns3:TrackPointExtension>
        </extensions>
      </trkpt>
      <trkpt lat="37.78596751391887664794921875" lon="-107.70391213707625865936279296875">
        <ele>4053</ele>
        <time>2023-07-29T16:30:03.000Z</time>
        <extensions>
          <ns3:TrackPointExtension>
            <ns3:hr>91</ns3:hr>
            <ns3:cad>0</ns3:cad>
          </ns3:TrackPointExtension>
        </extensions>
      </trkpt>
      <trkpt lat="37.785968519747257232666015625" lon="-107.70390920341014862060546875">
        <ele>4053</ele>
        <time>2023-07-29T16:30:04.000Z</time>
        <extensions>
          <ns3:TrackPointExtension>
            <ns3:hr>91</ns3:hr>
            <ns3:cad>0</ns3:cad>
          </ns3:TrackPointExtension>
        </extensions>
      </trkpt>
      <trkpt lat="37.78596860356628894805908203125" lon="-107.7039060182869434356689453125">
        <ele>4053</ele>
        <time>2023-07-29T16:30:05.000Z</time>
        <extensions>
          <ns3:TrackPointExtension>
            <ns3:hr>91</ns3:hr>
            <ns3:cad>0</ns3:cad>
          </ns3:TrackPointExtension>
        </extensions>
      </trkpt>
      <trkpt lat="37.7859683521091938018798828125" lon="-107.7039040066301822662353515625">
        <ele>4053</ele>
        <time>2023-07-29T16:30:06.000Z</time>
        <extensions>
          <ns3:TrackPointExtension>
            <ns3:hr>91</ns3:hr>
            <ns3:cad>0</ns3:cad>
          </ns3:TrackPointExtension>
        </extensions>
      </trkpt>
      <trkpt lat="37.78596709482371807098388671875" lon="-107.70390023477375507354736328125">
        <ele>4053</ele>
        <time>2023-07-29T16:30:07.000Z</time>
        <extensions>
          <ns3:TrackPointExtension>
            <ns3:hr>91</ns3:hr>
            <ns3:cad>0</ns3:cad>
          </ns3:TrackPointExtension>
        </extensions>
      </trkpt>
      <trkpt lat="37.78596541844308376312255859375" lon="-107.7038983069360256195068359375">
        <ele>4052.800048828125</ele>
        <time>2023-07-29T16:30:08.000Z</time>
        <extensions>
          <ns3:TrackPointExtension>
            <ns3:hr>91</ns3:hr>
            <ns3:cad>0</ns3:cad>
          </ns3:TrackPointExtension>
        </extensions>
      </trkpt>
      <trkpt lat="37.785965166985988616943359375" lon="-107.70390115678310394287109375">
        <ele>4052.800048828125</ele>
        <time>2023-07-29T16:30:09.000Z</time>
        <extensions>
          <ns3:TrackPointExtension>
            <ns3:hr>90</ns3:hr>
            <ns3:cad>0</ns3:cad>
          </ns3:TrackPointExtension>
        </extensions>
      </trkpt>
      <trkpt lat="37.78596357442438602447509765625" lon="-107.70389704965054988861083984375">
        <ele>4052.60009765625</ele>
        <time>2023-07-29T16:30:10.000Z</time>
        <extensions>
          <ns3:TrackPointExtension>
            <ns3:hr>90</ns3:hr>
            <ns3:cad>0</ns3:cad>
          </ns3:TrackPointExtension>
        </extensions>
      </trkpt>
      <trkpt lat="37.78595804236829280853271484375" lon="-107.70389067940413951873779296875">
        <ele>4052.60009765625</ele>
        <time>2023-07-29T16:30:11.000Z</time>
        <extensions>
          <ns3:TrackPointExtension>
            <ns3:hr>90</ns3:hr>
            <ns3:cad>0</ns3:cad>
          </ns3:TrackPointExtension>
        </extensions>
      </trkpt>
      <trkpt lat="37.7859552763402462005615234375" lon="-107.7038865722715854644775390625">
        <ele>4052.60009765625</ele>
        <time>2023-07-29T16:30:12.000Z</time>
        <extensions>
          <ns3:TrackPointExtension>
            <ns3:hr>89</ns3:hr>
            <ns3:cad>0</ns3:cad>
          </ns3:TrackPointExtension>
        </extensions>
      </trkpt>
      <trkpt lat="37.7859529294073581695556640625" lon="-107.70388447679579257965087890625">
        <ele>4052.60009765625</ele>
        <time>2023-07-29T16:30:13.000Z</time>
        <extensions>
          <ns3:TrackPointExtension>
            <ns3:hr>89</ns3:hr>
            <ns3:cad>0</ns3:cad>
          </ns3:TrackPointExtension>
        </extensions>
      </trkpt>
      <trkpt lat="37.785952091217041015625" lon="-107.70388548262417316436767578125">
        <ele>4052.60009765625</ele>
        <time>2023-07-29T16:30:14.000Z</time>
        <extensions>
          <ns3:TrackPointExtension>
            <ns3:hr>89</ns3:hr>
            <ns3:cad>0</ns3:cad>
          </ns3:TrackPointExtension>
        </extensions>
      </trkpt>
      <trkpt lat="37.7859502471983432769775390625" lon="-107.70388263277709484100341796875">
        <ele>4052.60009765625</ele>
        <time>2023-07-29T16:30:15.000Z</time>
        <extensions>
          <ns3:TrackPointExtension>
            <ns3:hr>88</ns3:hr>
            <ns3:cad>0</ns3:cad>
          </ns3:TrackPointExtension>
        </extensions>
      </trkpt>
      <trkpt lat="37.785949409008026123046875" lon="-107.70387978293001651763916015625">
        <ele>4052.60009765625</ele>
        <time>2023-07-29T16:30:16.000Z</time>
        <extensions>
          <ns3:TrackPointExtension>
            <ns3:hr>88</ns3:hr>
            <ns3:cad>0</ns3:cad>
          </ns3:TrackPointExtension>
        </extensions>
      </trkpt>
      <trkpt lat="37.78595100156962871551513671875" lon="-107.70388246513903141021728515625">
        <ele>4052.60009765625</ele>
        <time>2023-07-29T16:30:17.000Z</time>
        <extensions>
          <ns3:TrackPointExtension>
            <ns3:hr>88</ns3:hr>
            <ns3:cad>0</ns3:cad>
          </ns3:TrackPointExtension>
        </extensions>
      </trkpt>
      <trkpt lat="37.78594898991286754608154296875" lon="-107.70388280041515827178955078125">
        <ele>4052.60009765625</ele>
        <time>2023-07-29T16:30:18.000Z</time>
        <extensions>
          <ns3:TrackPointExtension>
            <ns3:hr>87</ns3:hr>
            <ns3:cad>0</ns3:cad>
          </ns3:TrackPointExtension>
        </extensions>
      </trkpt>
      <trkpt lat="37.78594798408448696136474609375" lon="-107.70388548262417316436767578125">
        <ele>4052.60009765625</ele>
        <time>2023-07-29T16:30:19.000Z</time>
        <extensions>
          <ns3:TrackPointExtension>
            <ns3:hr>87</ns3:hr>
            <ns3:cad>0</ns3:cad>
          </ns3:TrackPointExtension>
        </extensions>
      </trkpt>
      <trkpt lat="37.78594647534191608428955078125" lon="-107.70388732664287090301513671875">
        <ele>4052.60009765625</ele>
        <time>2023-07-29T16:30:20.000Z</time>
        <extensions>
          <ns3:TrackPointExtension>
            <ns3:hr>87</ns3:hr>
            <ns3:cad>0</ns3:cad>
          </ns3:TrackPointExtension>
        </extensions>
      </trkpt>
      <trkpt lat="37.78594672679901123046875" lon="-107.70388766191899776458740234375">
        <ele>4052.60009765625</ele>
        <time>2023-07-29T16:30:21.000Z</time>
        <extensions>
          <ns3:TrackPointExtension>
            <ns3:hr>87</ns3:hr>
            <ns3:cad>0</ns3:cad>
          </ns3:TrackPointExtension>
        </extensions>
      </trkpt>
      <trkpt lat="37.78594630770385265350341796875" lon="-107.703893445432186126708984375">
        <ele>4052.60009765625</ele>
        <time>2023-07-29T16:30:22.000Z</time>
        <extensions>
          <ns3:TrackPointExtension>
            <ns3:hr>87</ns3:hr>
            <ns3:cad>0</ns3:cad>
          </ns3:TrackPointExtension>
        </extensions>
      </trkpt>
      <trkpt lat="37.785948403179645538330078125" lon="-107.70389872603118419647216796875">
        <ele>4052.60009765625</ele>
        <time>2023-07-29T16:30:23.000Z</time>
        <extensions>
          <ns3:TrackPointExtension>
            <ns3:hr>88</ns3:hr>
            <ns3:cad>0</ns3:cad>
          </ns3:TrackPointExtension>
        </extensions>
      </trkpt>
      <trkpt lat="37.78595167212188243865966796875" lon="-107.703900150954723358154296875">
        <ele>4052.60009765625</ele>
        <time>2023-07-29T16:30:24.000Z</time>
        <extensions>
          <ns3:TrackPointExtension>
            <ns3:hr>88</ns3:hr>
            <ns3:cad>0</ns3:cad>
          </ns3:TrackPointExtension>
        </extensions>
      </trkpt>
      <trkpt lat="37.785955779254436492919921875" lon="-107.70390492863953113555908203125">
        <ele>4052.60009765625</ele>
        <time>2023-07-29T16:30:25.000Z</time>
        <extensions>
          <ns3:TrackPointExtension>
            <ns3:hr>88</ns3:hr>
            <ns3:cad>0</ns3:cad>
          </ns3:TrackPointExtension>
        </extensions>
      </trkpt>
      <trkpt lat="37.785962484776973724365234375" lon="-107.70391532219946384429931640625">
        <ele>4052.60009765625</ele>
        <time>2023-07-29T16:30:26.000Z</time>
        <extensions>
          <ns3:TrackPointExtension>
            <ns3:hr>88</ns3:hr>
            <ns3:cad>0</ns3:cad>
          </ns3:TrackPointExtension>
        </extensions>
      </trkpt>
      <trkpt lat="37.78596424497663974761962890625" lon="-107.703916244208812713623046875">
        <ele>4052.60009765625</ele>
        <time>2023-07-29T16:30:27.000Z</time>
        <extensions>
          <ns3:TrackPointExtension>
            <ns3:hr>87</ns3:hr>
            <ns3:cad>0</ns3:cad>
          </ns3:TrackPointExtension>
        </extensions>
      </trkpt>
      <trkpt lat="37.78596491552889347076416015625" lon="-107.70390811376273632049560546875">
        <ele>4052.60009765625</ele>
        <time>2023-07-29T16:30:28.000Z</time>
        <extensions>
          <ns3:TrackPointExtension>
            <ns3:hr>87</ns3:hr>
            <ns3:cad>0</ns3:cad>
          </ns3:TrackPointExtension>
        </extensions>
      </trkpt>
      <trkpt lat="37.7859641611576080322265625" lon="-107.70390006713569164276123046875">
        <ele>4052.39990234375</ele>
        <time>2023-07-29T16:30:29.000Z</time>
        <extensions>
          <ns3:TrackPointExtension>
            <ns3:hr>87</ns3:hr>
            <ns3:cad>0</ns3:cad>
          </ns3:TrackPointExtension>
        </extensions>
      </trkpt>
      <trkpt lat="37.78596525080502033233642578125" lon="-107.703894115984439849853515625">
        <ele>4052.39990234375</ele>
        <time>2023-07-29T16:30:30.000Z</time>
        <extensions>
          <ns3:TrackPointExtension>
            <ns3:hr>87</ns3:hr>
            <ns3:cad>0</ns3:cad>
          </ns3:TrackPointExtension>
        </extensions>
      </trkpt>
      <trkpt lat="37.78596810065209865570068359375" lon="-107.7038939483463764190673828125">
        <ele>4052.39990234375</ele>
        <time>2023-07-29T16:30:31.000Z</time>
        <extensions>
          <ns3:TrackPointExtension>
            <ns3:hr>87</ns3:hr>
            <ns3:cad>0</ns3:cad>
          </ns3:TrackPointExtension>
        </extensions>
      </trkpt>
      <trkpt lat="37.7859693579375743865966796875" lon="-107.7038885839283466339111328125">
        <ele>4052.39990234375</ele>
        <time>2023-07-29T16:30:32.000Z</time>
        <extensions>
          <ns3:TrackPointExtension>
            <ns3:hr>88</ns3:hr>
            <ns3:cad>0</ns3:cad>
          </ns3:TrackPointExtension>
        </extensions>
      </trkpt>
      <trkpt lat="37.78597296215593814849853515625" lon="-107.70389034412801265716552734375">
        <ele>4052.39990234375</ele>
        <time>2023-07-29T16:30:33.000Z</time>
        <extensions>
          <ns3:TrackPointExtension>
            <ns3:hr>88</ns3:hr>
            <ns3:cad>0</ns3:cad>
          </ns3:TrackPointExtension>
        </extensions>
      </trkpt>
      <trkpt lat="37.78597631491720676422119140625" lon="-107.7038889192044734954833984375">
        <ele>4052.39990234375</ele>
        <time>2023-07-29T16:30:34.000Z</time>
        <extensions>
          <ns3:TrackPointExtension>
            <ns3:hr>88</ns3:hr>
            <ns3:cad>0</ns3:cad>
          </ns3:TrackPointExtension>
        </extensions>
      </trkpt>
      <trkpt lat="37.78598167933523654937744140625" lon="-107.7038986422121524810791015625">
        <ele>4052.39990234375</ele>
        <time>2023-07-29T16:30:35.000Z</time>
        <extensions>
          <ns3:TrackPointExtension>
            <ns3:hr>89</ns3:hr>
            <ns3:cad>0</ns3:cad>
          </ns3:TrackPointExtension>
        </extensions>
      </trkpt>
      <trkpt lat="37.7859867922961711883544921875" lon="-107.70389654673635959625244140625">
        <ele>4052.39990234375</ele>
        <time>2023-07-29T16:30:36.000Z</time>
        <extensions>
          <ns3:TrackPointExtension>
            <ns3:hr>89</ns3:hr>
            <ns3:cad>0</ns3:cad>
          </ns3:TrackPointExtension>
        </extensions>
      </trkpt>
      <trkpt lat="37.7859921567142009735107421875" lon="-107.7039046771824359893798828125">
        <ele>4052.39990234375</ele>
        <time>2023-07-29T16:30:37.000Z</time>
        <extensions>
          <ns3:TrackPointExtension>
            <ns3:hr>90</ns3:hr>
            <ns3:cad>0</ns3:cad>
          </ns3:TrackPointExtension>
        </extensions>
      </trkpt>
      <trkpt lat="37.785994000732898712158203125" lon="-107.70391314290463924407958984375">
        <ele>4052.39990234375</ele>
        <time>2023-07-29T16:30:38.000Z</time>
        <extensions>
          <ns3:TrackPointExtension>
            <ns3:hr>90</ns3:hr>
            <ns3:cad>0</ns3:cad>
          </ns3:TrackPointExtension>
        </extensions>
      </trkpt>
      <trkpt lat="37.78599592857062816619873046875" lon="-107.70391230471432209014892578125">
        <ele>4052.800048828125</ele>
        <time>2023-07-29T16:30:39.000Z</time>
        <extensions>
          <ns3:TrackPointExtension>
            <ns3:hr>89</ns3:hr>
            <ns3:cad>0</ns3:cad>
          </ns3:TrackPointExtension>
        </extensions>
      </trkpt>
      <trkpt lat="37.78599433600902557373046875" lon="-107.70390786230564117431640625">
        <ele>4052.800048828125</ele>
        <time>2023-07-29T16:30:40.000Z</time>
        <extensions>
          <ns3:TrackPointExtension>
            <ns3:hr>89</ns3:hr>
            <ns3:cad>0</ns3:cad>
          </ns3:TrackPointExtension>
        </extensions>
      </trkpt>
      <trkpt lat="37.785991989076137542724609375" lon="-107.7039053477346897125244140625">
        <ele>4052.800048828125</ele>
        <time>2023-07-29T16:30:41.000Z</time>
        <extensions>
          <ns3:TrackPointExtension>
            <ns3:hr>89</ns3:hr>
            <ns3:cad>0</ns3:cad>
          </ns3:TrackPointExtension>
        </extensions>
      </trkpt>
      <trkpt lat="37.785989977419376373291015625" lon="-107.70390258170664310455322265625">
        <ele>4052.800048828125</ele>
        <time>2023-07-29T16:30:42.000Z</time>
        <extensions>
          <ns3:TrackPointExtension>
            <ns3:hr>91</ns3:hr>
            <ns3:cad>0</ns3:cad>
          </ns3:TrackPointExtension>
        </extensions>
      </trkpt>
      <trkpt lat="37.78598587028682231903076171875" lon="-107.70389721728861331939697265625">
        <ele>4052.800048828125</ele>
        <time>2023-07-29T16:30:43.000Z</time>
        <extensions>
          <ns3:TrackPointExtension>
            <ns3:hr>92</ns3:hr>
            <ns3:cad>0</ns3:cad>
          </ns3:TrackPointExtension>
        </extensions>
      </trkpt>
      <trkpt lat="37.7859831042587757110595703125" lon="-107.7038932777941226959228515625">
        <ele>4052.800048828125</ele>
        <time>2023-07-29T16:30:44.000Z</time>
        <extensions>
          <ns3:TrackPointExtension>
            <ns3:hr>92</ns3:hr>
            <ns3:cad>0</ns3:cad>
          </ns3:TrackPointExtension>
        </extensions>
      </trkpt>
      <trkpt lat="37.785979919135570526123046875" lon="-107.703885734081268310546875">
        <ele>4052.800048828125</ele>
        <time>2023-07-29T16:30:45.000Z</time>
        <extensions>
          <ns3:TrackPointExtension>
            <ns3:hr>92</ns3:hr>
            <ns3:cad>0</ns3:cad>
          </ns3:TrackPointExtension>
        </extensions>
      </trkpt>
      <trkpt lat="37.7859802544116973876953125" lon="-107.70387961529195308685302734375">
        <ele>4052.800048828125</ele>
        <time>2023-07-29T16:30:46.000Z</time>
        <extensions>
          <ns3:TrackPointExtension>
            <ns3:hr>93</ns3:hr>
            <ns3:cad>0</ns3:cad>
          </ns3:TrackPointExtension>
        </extensions>
      </trkpt>
      <trkpt lat="37.7859802544116973876953125" lon="-107.70387710072100162506103515625">
        <ele>4052.800048828125</ele>
        <time>2023-07-29T16:30:47.000Z</time>
        <extensions>
          <ns3:TrackPointExtension>
            <ns3:hr>93</ns3:hr>
            <ns3:cad>0</ns3:cad>
          </ns3:TrackPointExtension>
        </extensions>
      </trkpt>
      <trkpt lat="37.78597849421203136444091796875" lon="-107.70386360585689544677734375">
        <ele>4052.800048828125</ele>
        <time>2023-07-29T16:30:48.000Z</time>
        <extensions>
          <ns3:TrackPointExtension>
            <ns3:hr>94</ns3:hr>
            <ns3:cad>0</ns3:cad>
          </ns3:TrackPointExtension>
        </extensions>
      </trkpt>
      <trkpt lat="37.78597665019333362579345703125" lon="-107.7038563974201679229736328125">
        <ele>4052.800048828125</ele>
        <time>2023-07-29T16:30:49.000Z</time>
        <extensions>
          <ns3:TrackPointExtension>
            <ns3:hr>94</ns3:hr>
            <ns3:cad>45</ns3:cad>
          </ns3:TrackPointExtension>
        </extensions>
      </trkpt>
      <trkpt lat="37.78597262687981128692626953125" lon="-107.703853212296962738037109375">
        <ele>4052.800048828125</ele>
        <time>2023-07-29T16:30:50.000Z</time>
        <extensions>
          <ns3:TrackPointExtension>
            <ns3:hr>97</ns3:hr>
            <ns3:cad>45</ns3:cad>
          </ns3:TrackPointExtension>
        </extensions>
      </trkpt>
      <trkpt lat="37.78597346507012844085693359375" lon="-107.70385715179145336151123046875">
        <ele>4052.800048828125</ele>
        <time>2023-07-29T16:30:51.000Z</time>
        <extensions>
          <ns3:TrackPointExtension>
            <ns3:hr>99</ns3:hr>
            <ns3:cad>45</ns3:cad>
          </ns3:TrackPointExtension>
        </extensions>
      </trkpt>
      <trkpt lat="37.7859740518033504486083984375" lon="-107.703855223953723907470703125">
        <ele>4052.800048828125</ele>
        <time>2023-07-29T16:30:52.000Z</time>
        <extensions>
          <ns3:TrackPointExtension>
            <ns3:hr>99</ns3:hr>
            <ns3:cad>0</ns3:cad>
          </ns3:TrackPointExtension>
        </extensions>
      </trkpt>
      <trkpt lat="37.78597447089850902557373046875" lon="-107.7038644440472126007080078125">
        <ele>4052.800048828125</ele>
        <time>2023-07-29T16:30:53.000Z</time>
        <extensions>
          <ns3:TrackPointExtension>
            <ns3:hr>99</ns3:hr>
            <ns3:cad>0</ns3:cad>
          </ns3:TrackPointExtension>
        </extensions>
      </trkpt>
      <trkpt lat="37.78597556054592132568359375" lon="-107.70388145931065082550048828125">
        <ele>4052.800048828125</ele>
        <time>2023-07-29T16:30:54.000Z</time>
        <extensions>
          <ns3:TrackPointExtension>
            <ns3:hr>99</ns3:hr>
            <ns3:cad>0</ns3:cad>
          </ns3:TrackPointExtension>
        </extensions>
      </trkpt>
      <trkpt lat="37.7859740518033504486083984375" lon="-107.7038822136819362640380859375">
        <ele>4052.800048828125</ele>
        <time>2023-07-29T16:30:55.000Z</time>
        <extensions>
          <ns3:TrackPointExtension>
            <ns3:hr>100</ns3:hr>
            <ns3:cad>0</ns3:cad>
          </ns3:TrackPointExtension>
        </extensions>
      </trkpt>
      <trkpt lat="37.78597514145076274871826171875" lon="-107.70389000885188579559326171875">
        <ele>4052.800048828125</ele>
        <time>2023-07-29T16:30:56.000Z</time>
        <extensions>
          <ns3:TrackPointExtension>
            <ns3:hr>100</ns3:hr>
            <ns3:cad>0</ns3:cad>
          </ns3:TrackPointExtension>
        </extensions>
      </trkpt>
      <trkpt lat="37.7859767340123653411865234375" lon="-107.7039180882275104522705078125">
        <ele>4053</ele>
        <time>2023-07-29T16:30:57.000Z</time>
        <extensions>
          <ns3:TrackPointExtension>
            <ns3:hr>100</ns3:hr>
            <ns3:cad>0</ns3:cad>
          </ns3:TrackPointExtension>
        </extensions>
      </trkpt>
      <trkpt lat="37.7859784103929996490478515625" lon="-107.70392253063619136810302734375">
        <ele>4053</ele>
        <time>2023-07-29T16:30:58.000Z</time>
        <extensions>
          <ns3:TrackPointExtension>
            <ns3:hr>100</ns3:hr>
            <ns3:cad>0</ns3:cad>
          </ns3:TrackPointExtension>
        </extensions>
      </trkpt>
      <trkpt lat="37.78597765602171421051025390625" lon="-107.70392403937876224517822265625">
        <ele>4053</ele>
        <time>2023-07-29T16:30:59.000Z</time>
        <extensions>
          <ns3:TrackPointExtension>
            <ns3:hr>100</ns3:hr>
            <ns3:cad>0</ns3:cad>
          </ns3:TrackPointExtension>
        </extensions>
      </trkpt>
      <trkpt lat="37.785975895822048187255859375" lon="-107.70392127335071563720703125">
        <ele>4053</ele>
        <time>2023-07-29T16:31:00.000Z</time>
        <extensions>
          <ns3:TrackPointExtension>
            <ns3:hr>100</ns3:hr>
            <ns3:cad>0</ns3:cad>
          </ns3:TrackPointExtension>
        </extensions>
      </trkpt>
      <trkpt lat="37.78597430326044559478759765625" lon="-107.70392035134136676788330078125">
        <ele>4053</ele>
        <time>2023-07-29T16:31:01.000Z</time>
        <extensions>
          <ns3:TrackPointExtension>
            <ns3:hr>100</ns3:hr>
            <ns3:cad>0</ns3:cad>
          </ns3:TrackPointExtension>
        </extensions>
      </trkpt>
      <trkpt lat="37.7859747223556041717529296875" lon="-107.70391523838043212890625">
        <ele>4053</ele>
        <time>2023-07-29T16:31:02.000Z</time>
        <extensions>
          <ns3:TrackPointExtension>
            <ns3:hr>100</ns3:hr>
            <ns3:cad>0</ns3:cad>
          </ns3:TrackPointExtension>
        </extensions>
      </trkpt>
      <trkpt lat="37.78597421944141387939453125" lon="-107.70391062833368778228759765625">
        <ele>4053</ele>
        <time>2023-07-29T16:31:03.000Z</time>
        <extensions>
          <ns3:TrackPointExtension>
            <ns3:hr>99</ns3:hr>
            <ns3:cad>0</ns3:cad>
          </ns3:TrackPointExtension>
        </extensions>
      </trkpt>
      <trkpt lat="37.7859740518033504486083984375" lon="-107.7039058506488800048828125">
        <ele>4053</ele>
        <time>2023-07-29T16:31:04.000Z</time>
        <extensions>
          <ns3:TrackPointExtension>
            <ns3:hr>99</ns3:hr>
            <ns3:cad>0</ns3:cad>
          </ns3:TrackPointExtension>
        </extensions>
      </trkpt>
      <trkpt lat="37.785971872508525848388671875" lon="-107.70390559919178485870361328125">
        <ele>4053</ele>
        <time>2023-07-29T16:31:05.000Z</time>
        <extensions>
          <ns3:TrackPointExtension>
            <ns3:hr>99</ns3:hr>
            <ns3:cad>0</ns3:cad>
          </ns3:TrackPointExtension>
        </extensions>
      </trkpt>
      <trkpt lat="37.78596860356628894805908203125" lon="-107.70390786230564117431640625">
        <ele>4053.199951171875</ele>
        <time>2023-07-29T16:31:06.000Z</time>
        <extensions>
          <ns3:TrackPointExtension>
            <ns3:hr>100</ns3:hr>
            <ns3:cad>0</ns3:cad>
          </ns3:TrackPointExtension>
        </extensions>
      </trkpt>
      <trkpt lat="37.78596877120435237884521484375" lon="-107.7039063535630702972412109375">
        <ele>4053.199951171875</ele>
        <time>2023-07-29T16:31:07.000Z</time>
        <extensions>
          <ns3:TrackPointExtension>
            <ns3:hr>100</ns3:hr>
            <ns3:cad>0</ns3:cad>
          </ns3:TrackPointExtension>
        </extensions>
      </trkpt>
      <trkpt lat="37.7859680168330669403076171875" lon="-107.703902833163738250732421875">
        <ele>4053.199951171875</ele>
        <time>2023-07-29T16:31:08.000Z</time>
        <extensions>
          <ns3:TrackPointExtension>
            <ns3:hr>100</ns3:hr>
            <ns3:cad>0</ns3:cad>
          </ns3:TrackPointExtension>
        </extensions>
      </trkpt>
      <trkpt lat="37.78596751391887664794921875" lon="-107.70390241406857967376708984375">
        <ele>4053.199951171875</ele>
        <time>2023-07-29T16:31:09.000Z</time>
        <extensions>
          <ns3:TrackPointExtension>
            <ns3:hr>100</ns3:hr>
            <ns3:cad>0</ns3:cad>
          </ns3:TrackPointExtension>
        </extensions>
      </trkpt>
      <trkpt lat="37.78596575371921062469482421875" lon="-107.70390124060213565826416015625">
        <ele>4053.199951171875</ele>
        <time>2023-07-29T16:31:10.000Z</time>
        <extensions>
          <ns3:TrackPointExtension>
            <ns3:hr>100</ns3:hr>
            <ns3:cad>0</ns3:cad>
          </ns3:TrackPointExtension>
        </extensions>
      </trkpt>
      <trkpt lat="37.7859639935195446014404296875" lon="-107.70390325225889682769775390625">
        <ele>4053.199951171875</ele>
        <time>2023-07-29T16:31:11.000Z</time>
        <extensions>
          <ns3:TrackPointExtension>
            <ns3:hr>101</ns3:hr>
            <ns3:cad>0</ns3:cad>
          </ns3:TrackPointExtension>
        </extensions>
      </trkpt>
      <trkpt lat="37.7859639935195446014404296875" lon="-107.7038993127644062042236328125">
        <ele>4053.199951171875</ele>
        <time>2023-07-29T16:31:12.000Z</time>
        <extensions>
          <ns3:TrackPointExtension>
            <ns3:hr>101</ns3:hr>
            <ns3:cad>0</ns3:cad>
          </ns3:TrackPointExtension>
        </extensions>
      </trkpt>
      <trkpt lat="37.785963825881481170654296875" lon="-107.70389403216540813446044921875">
        <ele>4053.199951171875</ele>
        <time>2023-07-29T16:31:13.000Z</time>
        <extensions>
          <ns3:TrackPointExtension>
            <ns3:hr>101</ns3:hr>
            <ns3:cad>0</ns3:cad>
          </ns3:TrackPointExtension>
        </extensions>
      </trkpt>
      <trkpt lat="37.7859643287956714630126953125" lon="-107.70389285869896411895751953125">
        <ele>4053.199951171875</ele>
        <time>2023-07-29T16:31:14.000Z</time>
        <extensions>
          <ns3:TrackPointExtension>
            <ns3:hr>101</ns3:hr>
            <ns3:cad>0</ns3:cad>
          </ns3:TrackPointExtension>
        </extensions>
      </trkpt>
      <trkpt lat="37.78596474789083003997802734375" lon="-107.70389436744153499603271484375">
        <ele>4053</ele>
        <time>2023-07-29T16:31:15.000Z</time>
        <extensions>
          <ns3:TrackPointExtension>
            <ns3:hr>101</ns3:hr>
            <ns3:cad>0</ns3:cad>
          </ns3:TrackPointExtension>
        </extensions>
      </trkpt>
      <trkpt lat="37.78596390970051288604736328125" lon="-107.70389084704220294952392578125">
        <ele>4053</ele>
        <time>2023-07-29T16:31:16.000Z</time>
        <extensions>
          <ns3:TrackPointExtension>
            <ns3:hr>101</ns3:hr>
            <ns3:cad>0</ns3:cad>
          </ns3:TrackPointExtension>
        </extensions>
      </trkpt>
      <trkpt lat="37.785963825881481170654296875" lon="-107.70389176905155181884765625">
        <ele>4053</ele>
        <time>2023-07-29T16:31:17.000Z</time>
        <extensions>
          <ns3:TrackPointExtension>
            <ns3:hr>101</ns3:hr>
            <ns3:cad>0</ns3:cad>
          </ns3:TrackPointExtension>
        </extensions>
      </trkpt>
      <trkpt lat="37.78596592135727405548095703125" lon="-107.7038946188986301422119140625">
        <ele>4053</ele>
        <time>2023-07-29T16:31:18.000Z</time>
        <extensions>
          <ns3:TrackPointExtension>
            <ns3:hr>101</ns3:hr>
            <ns3:cad>0</ns3:cad>
          </ns3:TrackPointExtension>
        </extensions>
      </trkpt>
      <trkpt lat="37.7859700284898281097412109375" lon="-107.70390157587826251983642578125">
        <ele>4053</ele>
        <time>2023-07-29T16:31:19.000Z</time>
        <extensions>
          <ns3:TrackPointExtension>
            <ns3:hr>101</ns3:hr>
            <ns3:cad>0</ns3:cad>
          </ns3:TrackPointExtension>
        </extensions>
      </trkpt>
      <trkpt lat="37.78597044758498668670654296875" lon="-107.70390325225889682769775390625">
        <ele>4053</ele>
        <time>2023-07-29T16:31:20.000Z</time>
        <extensions>
          <ns3:TrackPointExtension>
            <ns3:hr>101</ns3:hr>
            <ns3:cad>0</ns3:cad>
          </ns3:TrackPointExtension>
        </extensions>
      </trkpt>
      <trkpt lat="37.78596994467079639434814453125" lon="-107.703901492059230804443359375">
        <ele>4053</ele>
        <time>2023-07-29T16:31:21.000Z</time>
        <extensions>
          <ns3:TrackPointExtension>
            <ns3:hr>101</ns3:hr>
            <ns3:cad>0</ns3:cad>
          </ns3:TrackPointExtension>
        </extensions>
      </trkpt>
      <trkpt lat="37.78597178868949413299560546875" lon="-107.703901827335357666015625">
        <ele>4053.199951171875</ele>
        <time>2023-07-29T16:31:22.000Z</time>
        <extensions>
          <ns3:TrackPointExtension>
            <ns3:hr>101</ns3:hr>
            <ns3:cad>0</ns3:cad>
          </ns3:TrackPointExtension>
        </extensions>
      </trkpt>
      <trkpt lat="37.785973213613033294677734375" lon="-107.70390207879245281219482421875">
        <ele>4053.39990234375</ele>
        <time>2023-07-29T16:31:23.000Z</time>
        <extensions>
          <ns3:TrackPointExtension>
            <ns3:hr>100</ns3:hr>
            <ns3:cad>0</ns3:cad>
          </ns3:TrackPointExtension>
        </extensions>
      </trkpt>
      <trkpt lat="37.7859737165272235870361328125" lon="-107.70390174351632595062255859375">
        <ele>4053.60009765625</ele>
        <time>2023-07-29T16:31:24.000Z</time>
        <extensions>
          <ns3:TrackPointExtension>
            <ns3:hr>100</ns3:hr>
            <ns3:cad>0</ns3:cad>
          </ns3:TrackPointExtension>
        </extensions>
      </trkpt>
      <trkpt lat="37.78597380034625530242919921875" lon="-107.70390191115438938140869140625">
        <ele>4053.60009765625</ele>
        <time>2023-07-29T16:31:25.000Z</time>
        <extensions>
          <ns3:TrackPointExtension>
            <ns3:hr>100</ns3:hr>
            <ns3:cad>0</ns3:cad>
          </ns3:TrackPointExtension>
        </extensions>
      </trkpt>
      <trkpt lat="37.78597363270819187164306640625" lon="-107.70390325225889682769775390625">
        <ele>4053.60009765625</ele>
        <time>2023-07-29T16:31:26.000Z</time>
        <extensions>
          <ns3:TrackPointExtension>
            <ns3:hr>99</ns3:hr>
            <ns3:cad>0</ns3:cad>
          </ns3:TrackPointExtension>
        </extensions>
      </trkpt>
      <trkpt lat="37.78597111813724040985107421875" lon="-107.703899480402469635009765625">
        <ele>4053.800048828125</ele>
        <time>2023-07-29T16:31:27.000Z</time>
        <extensions>
          <ns3:TrackPointExtension>
            <ns3:hr>99</ns3:hr>
            <ns3:cad>0</ns3:cad>
          </ns3:TrackPointExtension>
        </extensions>
      </trkpt>
      <trkpt lat="37.7859680168330669403076171875" lon="-107.70389403216540813446044921875">
        <ele>4053.800048828125</ele>
        <time>2023-07-29T16:31:28.000Z</time>
        <extensions>
          <ns3:TrackPointExtension>
            <ns3:hr>99</ns3:hr>
            <ns3:cad>0</ns3:cad>
          </ns3:TrackPointExtension>
        </extensions>
      </trkpt>
      <trkpt lat="37.78596508316695690155029296875" lon="-107.70388850010931491851806640625">
        <ele>4053.800048828125</ele>
        <time>2023-07-29T16:31:29.000Z</time>
        <extensions>
          <ns3:TrackPointExtension>
            <ns3:hr>99</ns3:hr>
            <ns3:cad>0</ns3:cad>
          </ns3:TrackPointExtension>
        </extensions>
      </trkpt>
      <trkpt lat="37.7859626524150371551513671875" lon="-107.70388565026223659515380859375">
        <ele>4053.800048828125</ele>
        <time>2023-07-29T16:31:30.000Z</time>
        <extensions>
          <ns3:TrackPointExtension>
            <ns3:hr>100</ns3:hr>
            <ns3:cad>0</ns3:cad>
          </ns3:TrackPointExtension>
        </extensions>
      </trkpt>
      <trkpt lat="37.78596072457730770111083984375" lon="-107.70388263277709484100341796875">
        <ele>4053.800048828125</ele>
        <time>2023-07-29T16:31:31.000Z</time>
        <extensions>
          <ns3:TrackPointExtension>
            <ns3:hr>100</ns3:hr>
            <ns3:cad>0</ns3:cad>
          </ns3:TrackPointExtension>
        </extensions>
      </trkpt>
      <trkpt lat="37.78596005402505397796630859375" lon="-107.703880704939365386962890625">
        <ele>4053.800048828125</ele>
        <time>2023-07-29T16:31:32.000Z</time>
        <extensions>
          <ns3:TrackPointExtension>
            <ns3:hr>99</ns3:hr>
            <ns3:cad>0</ns3:cad>
          </ns3:TrackPointExtension>
        </extensions>
      </trkpt>
      <trkpt lat="37.7859603054821491241455078125" lon="-107.7038805373013019561767578125">
        <ele>4053.800048828125</ele>
        <time>2023-07-29T16:31:33.000Z</time>
        <extensions>
          <ns3:TrackPointExtension>
            <ns3:hr>97</ns3:hr>
            <ns3:cad>0</ns3:cad>
          </ns3:TrackPointExtension>
        </extensions>
      </trkpt>
      <trkpt lat="37.7859603054821491241455078125" lon="-107.70388028584420680999755859375">
        <ele>4053.800048828125</ele>
        <time>2023-07-29T16:31:34.000Z</time>
        <extensions>
          <ns3:TrackPointExtension>
            <ns3:hr>94</ns3:hr>
            <ns3:cad>0</ns3:cad>
          </ns3:TrackPointExtension>
        </extensions>
      </trkpt>
      <trkpt lat="37.785961143672466278076171875" lon="-107.7038879133760929107666015625">
        <ele>4053.800048828125</ele>
        <time>2023-07-29T16:31:35.000Z</time>
        <extensions>
          <ns3:TrackPointExtension>
            <ns3:hr>90</ns3:hr>
            <ns3:cad>0</ns3:cad>
          </ns3:TrackPointExtension>
        </extensions>
      </trkpt>
      <trkpt lat="37.78596290387213230133056640625" lon="-107.703885734081268310546875">
        <ele>4053.800048828125</ele>
        <time>2023-07-29T16:31:36.000Z</time>
        <extensions>
          <ns3:TrackPointExtension>
            <ns3:hr>90</ns3:hr>
            <ns3:cad>0</ns3:cad>
          </ns3:TrackPointExtension>
        </extensions>
      </trkpt>
      <trkpt lat="37.7859626524150371551513671875" lon="-107.70388565026223659515380859375">
        <ele>4053.800048828125</ele>
        <time>2023-07-29T16:31:37.000Z</time>
        <extensions>
          <ns3:TrackPointExtension>
            <ns3:hr>91</ns3:hr>
            <ns3:cad>0</ns3:cad>
          </ns3:TrackPointExtension>
        </extensions>
      </trkpt>
      <trkpt lat="37.78596214950084686279296875" lon="-107.7038828842341899871826171875">
        <ele>4053.800048828125</ele>
        <time>2023-07-29T16:31:38.000Z</time>
        <extensions>
          <ns3:TrackPointExtension>
            <ns3:hr>91</ns3:hr>
            <ns3:cad>0</ns3:cad>
          </ns3:TrackPointExtension>
        </extensions>
      </trkpt>
      <trkpt lat="37.78596105985343456268310546875" lon="-107.703881375491619110107421875">
        <ele>4053.800048828125</ele>
        <time>2023-07-29T16:31:39.000Z</time>
        <extensions>
          <ns3:TrackPointExtension>
            <ns3:hr>92</ns3:hr>
            <ns3:cad>0</ns3:cad>
          </ns3:TrackPointExtension>
        </extensions>
      </trkpt>
      <trkpt lat="37.785958461463451385498046875" lon="-107.7038788609206676483154296875">
        <ele>4053.60009765625</ele>
        <time>2023-07-29T16:31:40.000Z</time>
        <extensions>
          <ns3:TrackPointExtension>
            <ns3:hr>94</ns3:hr>
            <ns3:cad>0</ns3:cad>
          </ns3:TrackPointExtension>
        </extensions>
      </trkpt>
      <trkpt lat="37.78595418669283390045166015625" lon="-107.70387760363519191741943359375">
        <ele>4053.60009765625</ele>
        <time>2023-07-29T16:31:41.000Z</time>
        <extensions>
          <ns3:TrackPointExtension>
            <ns3:hr>94</ns3:hr>
            <ns3:cad>0</ns3:cad>
          </ns3:TrackPointExtension>
        </extensions>
      </trkpt>
      <trkpt lat="37.78594932518899440765380859375" lon="-107.703875005245208740234375">
        <ele>4053.60009765625</ele>
        <time>2023-07-29T16:31:42.000Z</time>
        <extensions>
          <ns3:TrackPointExtension>
            <ns3:hr>95</ns3:hr>
            <ns3:cad>0</ns3:cad>
          </ns3:TrackPointExtension>
        </extensions>
      </trkpt>
      <trkpt lat="37.78594513423740863800048828125" lon="-107.703871987760066986083984375">
        <ele>4053.60009765625</ele>
        <time>2023-07-29T16:31:43.000Z</time>
        <extensions>
          <ns3:TrackPointExtension>
            <ns3:hr>95</ns3:hr>
            <ns3:cad>0</ns3:cad>
          </ns3:TrackPointExtension>
        </extensions>
      </trkpt>
      <trkpt lat="37.7859400212764739990234375" lon="-107.70387609489262104034423828125">
        <ele>4053.60009765625</ele>
        <time>2023-07-29T16:31:44.000Z</time>
        <extensions>
          <ns3:TrackPointExtension>
            <ns3:hr>96</ns3:hr>
            <ns3:cad>0</ns3:cad>
          </ns3:TrackPointExtension>
        </extensions>
      </trkpt>
      <trkpt lat="37.78593105264008045196533203125" lon="-107.70387961529195308685302734375">
        <ele>4053.39990234375</ele>
        <time>2023-07-29T16:31:45.000Z</time>
        <extensions>
          <ns3:TrackPointExtension>
            <ns3:hr>96</ns3:hr>
            <ns3:cad>0</ns3:cad>
          </ns3:TrackPointExtension>
        </extensions>
      </trkpt>
      <trkpt lat="37.78592116199433803558349609375" lon="-107.703876681625843048095703125">
        <ele>4053.39990234375</ele>
        <time>2023-07-29T16:31:46.000Z</time>
        <extensions>
          <ns3:TrackPointExtension>
            <ns3:hr>96</ns3:hr>
            <ns3:cad>0</ns3:cad>
          </ns3:TrackPointExtension>
        </extensions>
      </trkpt>
      <trkpt lat="37.78591931797564029693603515625" lon="-107.70387567579746246337890625">
        <ele>4053.39990234375</ele>
        <time>2023-07-29T16:31:47.000Z</time>
        <extensions>
          <ns3:TrackPointExtension>
            <ns3:hr>96</ns3:hr>
            <ns3:cad>0</ns3:cad>
          </ns3:TrackPointExtension>
        </extensions>
      </trkpt>
      <trkpt lat="37.7859197370707988739013671875" lon="-107.70387693308293819427490234375">
        <ele>4053.39990234375</ele>
        <time>2023-07-29T16:31:48.000Z</time>
        <extensions>
          <ns3:TrackPointExtension>
            <ns3:hr>96</ns3:hr>
            <ns3:cad>0</ns3:cad>
          </ns3:TrackPointExtension>
        </extensions>
      </trkpt>
      <trkpt lat="37.7859239280223846435546875" lon="-107.703880369663238525390625">
        <ele>4053.39990234375</ele>
        <time>2023-07-29T16:31:49.000Z</time>
        <extensions>
          <ns3:TrackPointExtension>
            <ns3:hr>96</ns3:hr>
            <ns3:cad>0</ns3:cad>
          </ns3:TrackPointExtension>
        </extensions>
      </trkpt>
      <trkpt lat="37.7859271131455898284912109375" lon="-107.703884728252887725830078125">
        <ele>4053.60009765625</ele>
        <time>2023-07-29T16:31:50.000Z</time>
        <extensions>
          <ns3:TrackPointExtension>
            <ns3:hr>95</ns3:hr>
            <ns3:cad>0</ns3:cad>
          </ns3:TrackPointExtension>
        </extensions>
      </trkpt>
      <trkpt lat="37.785930633544921875" lon="-107.70388640463352203369140625">
        <ele>4053.800048828125</ele>
        <time>2023-07-29T16:31:51.000Z</time>
        <extensions>
          <ns3:TrackPointExtension>
            <ns3:hr>95</ns3:hr>
            <ns3:cad>0</ns3:cad>
          </ns3:TrackPointExtension>
        </extensions>
      </trkpt>
      <trkpt lat="37.78593373484909534454345703125" lon="-107.7038879133760929107666015625">
        <ele>4053.800048828125</ele>
        <time>2023-07-29T16:31:52.000Z</time>
        <extensions>
          <ns3:TrackPointExtension>
            <ns3:hr>95</ns3:hr>
            <ns3:cad>0</ns3:cad>
          </ns3:TrackPointExtension>
        </extensions>
      </trkpt>
      <trkpt lat="37.78593826107680797576904296875" lon="-107.70389084704220294952392578125">
        <ele>4053.800048828125</ele>
        <time>2023-07-29T16:31:53.000Z</time>
        <extensions>
          <ns3:TrackPointExtension>
            <ns3:hr>96</ns3:hr>
            <ns3:cad>0</ns3:cad>
          </ns3:TrackPointExtension>
        </extensions>
      </trkpt>
      <trkpt lat="37.7859465591609477996826171875" lon="-107.7038962952792644500732421875">
        <ele>4053.800048828125</ele>
        <time>2023-07-29T16:31:54.000Z</time>
        <extensions>
          <ns3:TrackPointExtension>
            <ns3:hr>96</ns3:hr>
            <ns3:cad>0</ns3:cad>
          </ns3:TrackPointExtension>
        </extensions>
      </trkpt>
      <trkpt lat="37.785952091217041015625" lon="-107.70389570854604244232177734375">
        <ele>4053.800048828125</ele>
        <time>2023-07-29T16:31:55.000Z</time>
        <extensions>
          <ns3:TrackPointExtension>
            <ns3:hr>96</ns3:hr>
            <ns3:cad>0</ns3:cad>
          </ns3:TrackPointExtension>
        </extensions>
      </trkpt>
      <trkpt lat="37.7859572879970073699951171875" lon="-107.70389713346958160400390625">
        <ele>4053.800048828125</ele>
        <time>2023-07-29T16:31:56.000Z</time>
        <extensions>
          <ns3:TrackPointExtension>
            <ns3:hr>95</ns3:hr>
            <ns3:cad>0</ns3:cad>
          </ns3:TrackPointExtension>
        </extensions>
      </trkpt>
      <trkpt lat="37.785958461463451385498046875" lon="-107.70389738492667675018310546875">
        <ele>4053.800048828125</ele>
        <time>2023-07-29T16:31:57.000Z</time>
        <extensions>
          <ns3:TrackPointExtension>
            <ns3:hr>93</ns3:hr>
            <ns3:cad>0</ns3:cad>
          </ns3:TrackPointExtension>
        </extensions>
      </trkpt>
      <trkpt lat="37.78595636598765850067138671875" lon="-107.70389378070831298828125">
        <ele>4053.800048828125</ele>
        <time>2023-07-29T16:31:58.000Z</time>
        <extensions>
          <ns3:TrackPointExtension>
            <ns3:hr>92</ns3:hr>
            <ns3:cad>0</ns3:cad>
          </ns3:TrackPointExtension>
        </extensions>
      </trkpt>
      <trkpt lat="37.7859561145305633544921875" lon="-107.7038936130702495574951171875">
        <ele>4053.60009765625</ele>
        <time>2023-07-29T16:31:59.000Z</time>
        <extensions>
          <ns3:TrackPointExtension>
            <ns3:hr>91</ns3:hr>
            <ns3:cad>0</ns3:cad>
          </ns3:TrackPointExtension>
        </extensions>
      </trkpt>
      <trkpt lat="37.78595485724508762359619140625" lon="-107.70389168523252010345458984375">
        <ele>4053.60009765625</ele>
        <time>2023-07-29T16:32:00.000Z</time>
        <extensions>
          <ns3:TrackPointExtension>
            <ns3:hr>91</ns3:hr>
            <ns3:cad>0</ns3:cad>
          </ns3:TrackPointExtension>
        </extensions>
      </trkpt>
      <trkpt lat="37.785952091217041015625" lon="-107.70388799719512462615966796875">
        <ele>4053.60009765625</ele>
        <time>2023-07-29T16:32:01.000Z</time>
        <extensions>
          <ns3:TrackPointExtension>
            <ns3:hr>92</ns3:hr>
            <ns3:cad>0</ns3:cad>
          </ns3:TrackPointExtension>
        </extensions>
      </trkpt>
      <trkpt lat="37.78594949282705783843994140625" lon="-107.70388196222484111785888671875">
        <ele>4053.60009765625</ele>
        <time>2023-07-29T16:32:02.000Z</time>
        <extensions>
          <ns3:TrackPointExtension>
            <ns3:hr>92</ns3:hr>
            <ns3:cad>0</ns3:cad>
          </ns3:TrackPointExtension>
        </extensions>
      </trkpt>
      <trkpt lat="37.7859489060938358306884765625" lon="-107.7038825489580631256103515625">
        <ele>4053.60009765625</ele>
        <time>2023-07-29T16:32:03.000Z</time>
        <extensions>
          <ns3:TrackPointExtension>
            <ns3:hr>92</ns3:hr>
            <ns3:cad>0</ns3:cad>
          </ns3:TrackPointExtension>
        </extensions>
      </trkpt>
      <trkpt lat="37.7859472297132015228271484375" lon="-107.7038788609206676483154296875">
        <ele>4053.60009765625</ele>
        <time>2023-07-29T16:32:04.000Z</time>
        <extensions>
          <ns3:TrackPointExtension>
            <ns3:hr>92</ns3:hr>
            <ns3:cad>0</ns3:cad>
          </ns3:TrackPointExtension>
        </extensions>
      </trkpt>
      <trkpt lat="37.78594446368515491485595703125" lon="-107.703875340521335601806640625">
        <ele>4053.60009765625</ele>
        <time>2023-07-29T16:32:05.000Z</time>
        <extensions>
          <ns3:TrackPointExtension>
            <ns3:hr>92</ns3:hr>
            <ns3:cad>0</ns3:cad>
          </ns3:TrackPointExtension>
        </extensions>
      </trkpt>
      <trkpt lat="37.7859432063996791839599609375" lon="-107.7038708142936229705810546875">
        <ele>4053.39990234375</ele>
        <time>2023-07-29T16:32:06.000Z</time>
        <extensions>
          <ns3:TrackPointExtension>
            <ns3:hr>92</ns3:hr>
            <ns3:cad>0</ns3:cad>
          </ns3:TrackPointExtension>
        </extensions>
      </trkpt>
      <trkpt lat="37.78594278730452060699462890625" lon="-107.70386855117976665496826171875">
        <ele>4053.39990234375</ele>
        <time>2023-07-29T16:32:07.000Z</time>
        <extensions>
          <ns3:TrackPointExtension>
            <ns3:hr>92</ns3:hr>
            <ns3:cad>0</ns3:cad>
          </ns3:TrackPointExtension>
        </extensions>
      </trkpt>
      <trkpt lat="37.7859435416758060455322265625" lon="-107.70386452786624431610107421875">
        <ele>4053.39990234375</ele>
        <time>2023-07-29T16:32:08.000Z</time>
        <extensions>
          <ns3:TrackPointExtension>
            <ns3:hr>92</ns3:hr>
            <ns3:cad>0</ns3:cad>
          </ns3:TrackPointExtension>
        </extensions>
      </trkpt>
      <trkpt lat="37.78594379313290119171142578125" lon="-107.70386754535138607025146484375">
        <ele>4053.60009765625</ele>
        <time>2023-07-29T16:32:09.000Z</time>
        <extensions>
          <ns3:TrackPointExtension>
            <ns3:hr>93</ns3:hr>
            <ns3:cad>0</ns3:cad>
          </ns3:TrackPointExtension>
        </extensions>
      </trkpt>
      <trkpt lat="37.78594530187547206878662109375" lon="-107.70386704243719577789306640625">
        <ele>4053.800048828125</ele>
        <time>2023-07-29T16:32:10.000Z</time>
        <extensions>
          <ns3:TrackPointExtension>
            <ns3:hr>93</ns3:hr>
            <ns3:cad>0</ns3:cad>
          </ns3:TrackPointExtension>
        </extensions>
      </trkpt>
      <trkpt lat="37.78594697825610637664794921875" lon="-107.7038718201220035552978515625">
        <ele>4053.800048828125</ele>
        <time>2023-07-29T16:32:11.000Z</time>
        <extensions>
          <ns3:TrackPointExtension>
            <ns3:hr>94</ns3:hr>
            <ns3:cad>0</ns3:cad>
          </ns3:TrackPointExtension>
        </extensions>
      </trkpt>
      <trkpt lat="37.78594982810318470001220703125" lon="-107.703878693282604217529296875">
        <ele>4053.800048828125</ele>
        <time>2023-07-29T16:32:12.000Z</time>
        <extensions>
          <ns3:TrackPointExtension>
            <ns3:hr>94</ns3:hr>
            <ns3:cad>0</ns3:cad>
          </ns3:TrackPointExtension>
        </extensions>
      </trkpt>
      <trkpt lat="37.7859535999596118927001953125" lon="-107.70389017648994922637939453125">
        <ele>4053.800048828125</ele>
        <time>2023-07-29T16:32:13.000Z</time>
        <extensions>
          <ns3:TrackPointExtension>
            <ns3:hr>94</ns3:hr>
            <ns3:cad>0</ns3:cad>
          </ns3:TrackPointExtension>
        </extensions>
      </trkpt>
      <trkpt lat="37.78595871292054653167724609375" lon="-107.7038916014134883880615234375">
        <ele>4053.800048828125</ele>
        <time>2023-07-29T16:32:14.000Z</time>
        <extensions>
          <ns3:TrackPointExtension>
            <ns3:hr>94</ns3:hr>
            <ns3:cad>59</ns3:cad>
          </ns3:TrackPointExtension>
        </extensions>
      </trkpt>
      <trkpt lat="37.78596357442438602447509765625" lon="-107.70388900302350521087646484375">
        <ele>4053.800048828125</ele>
        <time>2023-07-29T16:32:15.000Z</time>
        <extensions>
          <ns3:TrackPointExtension>
            <ns3:hr>94</ns3:hr>
            <ns3:cad>59</ns3:cad>
          </ns3:TrackPointExtension>
        </extensions>
      </trkpt>
      <trkpt lat="37.785966508090496063232421875" lon="-107.703889422118663787841796875">
        <ele>4053.800048828125</ele>
        <time>2023-07-29T16:32:16.000Z</time>
        <extensions>
          <ns3:TrackPointExtension>
            <ns3:hr>95</ns3:hr>
            <ns3:cad>0</ns3:cad>
          </ns3:TrackPointExtension>
        </extensions>
      </trkpt>
      <trkpt lat="37.78596709482371807098388671875" lon="-107.70388967357575893402099609375">
        <ele>4053.800048828125</ele>
        <time>2023-07-29T16:32:17.000Z</time>
        <extensions>
          <ns3:TrackPointExtension>
            <ns3:hr>95</ns3:hr>
            <ns3:cad>0</ns3:cad>
          </ns3:TrackPointExtension>
        </extensions>
      </trkpt>
      <trkpt lat="37.785969860851764678955078125" lon="-107.70389235578477382659912109375">
        <ele>4053.800048828125</ele>
        <time>2023-07-29T16:32:18.000Z</time>
        <extensions>
          <ns3:TrackPointExtension>
            <ns3:hr>98</ns3:hr>
            <ns3:cad>0</ns3:cad>
          </ns3:TrackPointExtension>
        </extensions>
      </trkpt>
      <trkpt lat="37.785970866680145263671875" lon="-107.70389302633702754974365234375">
        <ele>4053.800048828125</ele>
        <time>2023-07-29T16:32:19.000Z</time>
        <extensions>
          <ns3:TrackPointExtension>
            <ns3:hr>100</ns3:hr>
            <ns3:cad>0</ns3:cad>
          </ns3:TrackPointExtension>
        </extensions>
      </trkpt>
      <trkpt lat="37.78597011230885982513427734375" lon="-107.70389302633702754974365234375">
        <ele>4053.800048828125</ele>
        <time>2023-07-29T16:32:20.000Z</time>
        <extensions>
          <ns3:TrackPointExtension>
            <ns3:hr>100</ns3:hr>
            <ns3:cad>0</ns3:cad>
          </ns3:TrackPointExtension>
        </extensions>
      </trkpt>
      <trkpt lat="37.78596860356628894805908203125" lon="-107.70389302633702754974365234375">
        <ele>4053.60009765625</ele>
        <time>2023-07-29T16:32:21.000Z</time>
        <extensions>
          <ns3:TrackPointExtension>
            <ns3:hr>101</ns3:hr>
            <ns3:cad>0</ns3:cad>
          </ns3:TrackPointExtension>
        </extensions>
      </trkpt>
      <trkpt lat="37.785965837538242340087890625" lon="-107.70389369688928127288818359375">
        <ele>4053.60009765625</ele>
        <time>2023-07-29T16:32:22.000Z</time>
        <extensions>
          <ns3:TrackPointExtension>
            <ns3:hr>101</ns3:hr>
            <ns3:cad>0</ns3:cad>
          </ns3:TrackPointExtension>
        </extensions>
      </trkpt>
      <trkpt lat="37.785960473120212554931640625" lon="-107.70389772020280361175537109375">
        <ele>4053.60009765625</ele>
        <time>2023-07-29T16:32:23.000Z</time>
        <extensions>
          <ns3:TrackPointExtension>
            <ns3:hr>102</ns3:hr>
            <ns3:cad>0</ns3:cad>
          </ns3:TrackPointExtension>
        </extensions>
      </trkpt>
      <trkpt lat="37.78596080839633941650390625" lon="-107.7038969658315181732177734375">
        <ele>4053.60009765625</ele>
        <time>2023-07-29T16:32:24.000Z</time>
        <extensions>
          <ns3:TrackPointExtension>
            <ns3:hr>102</ns3:hr>
            <ns3:cad>0</ns3:cad>
          </ns3:TrackPointExtension>
        </extensions>
      </trkpt>
      <trkpt lat="37.7859629876911640167236328125" lon="-107.7038978040218353271484375">
        <ele>4053.60009765625</ele>
        <time>2023-07-29T16:32:25.000Z</time>
        <extensions>
          <ns3:TrackPointExtension>
            <ns3:hr>101</ns3:hr>
            <ns3:cad>0</ns3:cad>
          </ns3:TrackPointExtension>
        </extensions>
      </trkpt>
      <trkpt lat="37.78596390970051288604736328125" lon="-107.70390040241181850433349609375">
        <ele>4053.60009765625</ele>
        <time>2023-07-29T16:32:26.000Z</time>
        <extensions>
          <ns3:TrackPointExtension>
            <ns3:hr>101</ns3:hr>
            <ns3:cad>0</ns3:cad>
          </ns3:TrackPointExtension>
        </extensions>
      </trkpt>
      <trkpt lat="37.78596323914825916290283203125" lon="-107.70390274934470653533935546875">
        <ele>4053.800048828125</ele>
        <time>2023-07-29T16:32:27.000Z</time>
        <extensions>
          <ns3:TrackPointExtension>
            <ns3:hr>101</ns3:hr>
            <ns3:cad>0</ns3:cad>
          </ns3:TrackPointExtension>
        </extensions>
      </trkpt>
      <trkpt lat="37.7859649993479251861572265625" lon="-107.7039019949734210968017578125">
        <ele>4053.800048828125</ele>
        <time>2023-07-29T16:32:28.000Z</time>
        <extensions>
          <ns3:TrackPointExtension>
            <ns3:hr>101</ns3:hr>
            <ns3:cad>0</ns3:cad>
          </ns3:TrackPointExtension>
        </extensions>
      </trkpt>
      <trkpt lat="37.78597019612789154052734375" lon="-107.70389989949762821197509765625">
        <ele>4053.800048828125</ele>
        <time>2023-07-29T16:32:29.000Z</time>
        <extensions>
          <ns3:TrackPointExtension>
            <ns3:hr>101</ns3:hr>
            <ns3:cad>0</ns3:cad>
          </ns3:TrackPointExtension>
        </extensions>
      </trkpt>
      <trkpt lat="37.78597497381269931793212890625" lon="-107.70389822311699390411376953125">
        <ele>4053.800048828125</ele>
        <time>2023-07-29T16:32:30.000Z</time>
        <extensions>
          <ns3:TrackPointExtension>
            <ns3:hr>101</ns3:hr>
            <ns3:cad>0</ns3:cad>
          </ns3:TrackPointExtension>
        </extensions>
      </trkpt>
      <trkpt lat="37.785979248583316802978515625" lon="-107.70389889366924762725830078125">
        <ele>4053.800048828125</ele>
        <time>2023-07-29T16:32:31.000Z</time>
        <extensions>
          <ns3:TrackPointExtension>
            <ns3:hr>101</ns3:hr>
            <ns3:cad>0</ns3:cad>
          </ns3:TrackPointExtension>
        </extensions>
      </trkpt>
      <trkpt lat="37.78598134405910968780517578125" lon="-107.70390107296407222747802734375">
        <ele>4053.800048828125</ele>
        <time>2023-07-29T16:32:32.000Z</time>
        <extensions>
          <ns3:TrackPointExtension>
            <ns3:hr>101</ns3:hr>
            <ns3:cad>0</ns3:cad>
          </ns3:TrackPointExtension>
        </extensions>
      </trkpt>
      <trkpt lat="37.785981595516204833984375" lon="-107.70390526391565799713134765625">
        <ele>4053.800048828125</ele>
        <time>2023-07-29T16:32:33.000Z</time>
        <extensions>
          <ns3:TrackPointExtension>
            <ns3:hr>101</ns3:hr>
            <ns3:cad>0</ns3:cad>
          </ns3:TrackPointExtension>
        </extensions>
      </trkpt>
      <trkpt lat="37.785981260240077972412109375" lon="-107.70391188561916351318359375">
        <ele>4053.800048828125</ele>
        <time>2023-07-29T16:32:34.000Z</time>
        <extensions>
          <ns3:TrackPointExtension>
            <ns3:hr>101</ns3:hr>
            <ns3:cad>0</ns3:cad>
          </ns3:TrackPointExtension>
        </extensions>
      </trkpt>
      <trkpt lat="37.785978578031063079833984375" lon="-107.70391984842717647552490234375">
        <ele>4053.800048828125</ele>
        <time>2023-07-29T16:32:35.000Z</time>
        <extensions>
          <ns3:TrackPointExtension>
            <ns3:hr>101</ns3:hr>
            <ns3:cad>0</ns3:cad>
          </ns3:TrackPointExtension>
        </extensions>
      </trkpt>
      <trkpt lat="37.78597564436495304107666015625" lon="-107.7039247937500476837158203125">
        <ele>4053.800048828125</ele>
        <time>2023-07-29T16:32:36.000Z</time>
        <extensions>
          <ns3:TrackPointExtension>
            <ns3:hr>100</ns3:hr>
            <ns3:cad>0</ns3:cad>
          </ns3:TrackPointExtension>
        </extensions>
      </trkpt>
      <trkpt lat="37.78597421944141387939453125" lon="-107.7039268054068088531494140625">
        <ele>4053.800048828125</ele>
        <time>2023-07-29T16:32:37.000Z</time>
        <extensions>
          <ns3:TrackPointExtension>
            <ns3:hr>100</ns3:hr>
            <ns3:cad>0</ns3:cad>
          </ns3:TrackPointExtension>
        </extensions>
      </trkpt>
      <trkpt lat="37.78597329743206501007080078125" lon="-107.70392588339745998382568359375">
        <ele>4053.800048828125</ele>
        <time>2023-07-29T16:32:38.000Z</time>
        <extensions>
          <ns3:TrackPointExtension>
            <ns3:hr>100</ns3:hr>
            <ns3:cad>0</ns3:cad>
          </ns3:TrackPointExtension>
        </extensions>
      </trkpt>
      <trkpt lat="37.785970866680145263671875" lon="-107.70392261445522308349609375">
        <ele>4053.800048828125</ele>
        <time>2023-07-29T16:32:39.000Z</time>
        <extensions>
          <ns3:TrackPointExtension>
            <ns3:hr>100</ns3:hr>
            <ns3:cad>0</ns3:cad>
          </ns3:TrackPointExtension>
        </extensions>
      </trkpt>
      <trkpt lat="37.78596483170986175537109375" lon="-107.7039164118468761444091796875">
        <ele>4053.800048828125</ele>
        <time>2023-07-29T16:32:40.000Z</time>
        <extensions>
          <ns3:TrackPointExtension>
            <ns3:hr>100</ns3:hr>
            <ns3:cad>0</ns3:cad>
          </ns3:TrackPointExtension>
        </extensions>
      </trkpt>
      <trkpt lat="37.78595720417797565460205078125" lon="-107.703913561999797821044921875">
        <ele>4053.800048828125</ele>
        <time>2023-07-29T16:32:41.000Z</time>
        <extensions>
          <ns3:TrackPointExtension>
            <ns3:hr>100</ns3:hr>
            <ns3:cad>0</ns3:cad>
          </ns3:TrackPointExtension>
        </extensions>
      </trkpt>
      <trkpt lat="37.7859559468924999237060546875" lon="-107.70390928722918033599853515625">
        <ele>4053.800048828125</ele>
        <time>2023-07-29T16:32:42.000Z</time>
        <extensions>
          <ns3:TrackPointExtension>
            <ns3:hr>100</ns3:hr>
            <ns3:cad>0</ns3:cad>
          </ns3:TrackPointExtension>
        </extensions>
      </trkpt>
      <trkpt lat="37.78595603071153163909912109375" lon="-107.70390593446791172027587890625">
        <ele>4053.800048828125</ele>
        <time>2023-07-29T16:32:43.000Z</time>
        <extensions>
          <ns3:TrackPointExtension>
            <ns3:hr>100</ns3:hr>
            <ns3:cad>0</ns3:cad>
          </ns3:TrackPointExtension>
        </extensions>
      </trkpt>
      <trkpt lat="37.78595586307346820831298828125" lon="-107.7039063535630702972412109375">
        <ele>4054</ele>
        <time>2023-07-29T16:32:44.000Z</time>
        <extensions>
          <ns3:TrackPointExtension>
            <ns3:hr>100</ns3:hr>
            <ns3:cad>0</ns3:cad>
          </ns3:TrackPointExtension>
        </extensions>
      </trkpt>
      <trkpt lat="37.78595653362572193145751953125" lon="-107.70390459336340427398681640625">
        <ele>4054</ele>
        <time>2023-07-29T16:32:45.000Z</time>
        <extensions>
          <ns3:TrackPointExtension>
            <ns3:hr>100</ns3:hr>
            <ns3:cad>0</ns3:cad>
          </ns3:TrackPointExtension>
        </extensions>
      </trkpt>
      <trkpt lat="37.78595552779734134674072265625" lon="-107.703901827335357666015625">
        <ele>4054</ele>
        <time>2023-07-29T16:32:46.000Z</time>
        <extensions>
          <ns3:TrackPointExtension>
            <ns3:hr>100</ns3:hr>
            <ns3:cad>0</ns3:cad>
          </ns3:TrackPointExtension>
        </extensions>
      </trkpt>
      <trkpt lat="37.785957120358943939208984375" lon="-107.70389889366924762725830078125">
        <ele>4054</ele>
        <time>2023-07-29T16:32:47.000Z</time>
        <extensions>
          <ns3:TrackPointExtension>
            <ns3:hr>100</ns3:hr>
            <ns3:cad>0</ns3:cad>
          </ns3:TrackPointExtension>
        </extensions>
      </trkpt>
      <trkpt lat="37.7859569527208805084228515625" lon="-107.7038951218128204345703125">
        <ele>4054</ele>
        <time>2023-07-29T16:32:48.000Z</time>
        <extensions>
          <ns3:TrackPointExtension>
            <ns3:hr>100</ns3:hr>
            <ns3:cad>0</ns3:cad>
          </ns3:TrackPointExtension>
        </extensions>
      </trkpt>
      <trkpt lat="37.7859596349298954010009765625" lon="-107.7038926072418689727783203125">
        <ele>4054</ele>
        <time>2023-07-29T16:32:49.000Z</time>
        <extensions>
          <ns3:TrackPointExtension>
            <ns3:hr>100</ns3:hr>
            <ns3:cad>0</ns3:cad>
          </ns3:TrackPointExtension>
        </extensions>
      </trkpt>
      <trkpt lat="37.78596005402505397796630859375" lon="-107.7038892544806003570556640625">
        <ele>4054</ele>
        <time>2023-07-29T16:32:50.000Z</time>
        <extensions>
          <ns3:TrackPointExtension>
            <ns3:hr>100</ns3:hr>
            <ns3:cad>0</ns3:cad>
          </ns3:TrackPointExtension>
        </extensions>
      </trkpt>
      <trkpt lat="37.7859582938253879547119140625" lon="-107.703886739909648895263671875">
        <ele>4053.800048828125</ele>
        <time>2023-07-29T16:32:51.000Z</time>
        <extensions>
          <ns3:TrackPointExtension>
            <ns3:hr>100</ns3:hr>
            <ns3:cad>0</ns3:cad>
          </ns3:TrackPointExtension>
        </extensions>
      </trkpt>
      <trkpt lat="37.78595946729183197021484375" lon="-107.70388028584420680999755859375">
        <ele>4053.800048828125</ele>
        <time>2023-07-29T16:32:52.000Z</time>
        <extensions>
          <ns3:TrackPointExtension>
            <ns3:hr>100</ns3:hr>
            <ns3:cad>0</ns3:cad>
          </ns3:TrackPointExtension>
        </extensions>
      </trkpt>
      <trkpt lat="37.7859596349298954010009765625" lon="-107.703879363834857940673828125">
        <ele>4053.60009765625</ele>
        <time>2023-07-29T16:32:53.000Z</time>
        <extensions>
          <ns3:TrackPointExtension>
            <ns3:hr>100</ns3:hr>
            <ns3:cad>0</ns3:cad>
          </ns3:TrackPointExtension>
        </extensions>
      </trkpt>
      <trkpt lat="37.78595821000635623931884765625" lon="-107.70387835800647735595703125">
        <ele>4053.60009765625</ele>
        <time>2023-07-29T16:32:54.000Z</time>
        <extensions>
          <ns3:TrackPointExtension>
            <ns3:hr>99</ns3:hr>
            <ns3:cad>0</ns3:cad>
          </ns3:TrackPointExtension>
        </extensions>
      </trkpt>
      <trkpt lat="37.7859572879970073699951171875" lon="-107.70388263277709484100341796875">
        <ele>4053.60009765625</ele>
        <time>2023-07-29T16:32:55.000Z</time>
        <extensions>
          <ns3:TrackPointExtension>
            <ns3:hr>94</ns3:hr>
            <ns3:cad>0</ns3:cad>
          </ns3:TrackPointExtension>
        </extensions>
      </trkpt>
      <trkpt lat="37.78595770709216594696044921875" lon="-107.70388447679579257965087890625">
        <ele>4053.60009765625</ele>
        <time>2023-07-29T16:32:56.000Z</time>
        <extensions>
          <ns3:TrackPointExtension>
            <ns3:hr>92</ns3:hr>
            <ns3:cad>0</ns3:cad>
          </ns3:TrackPointExtension>
        </extensions>
      </trkpt>
      <trkpt lat="37.78596156276762485504150390625" lon="-107.7038895897567272186279296875">
        <ele>4053.60009765625</ele>
        <time>2023-07-29T16:32:57.000Z</time>
        <extensions>
          <ns3:TrackPointExtension>
            <ns3:hr>93</ns3:hr>
            <ns3:cad>0</ns3:cad>
          </ns3:TrackPointExtension>
        </extensions>
      </trkpt>
      <trkpt lat="37.78596340678632259368896484375" lon="-107.70389151759445667266845703125">
        <ele>4053.60009765625</ele>
        <time>2023-07-29T16:32:58.000Z</time>
        <extensions>
          <ns3:TrackPointExtension>
            <ns3:hr>93</ns3:hr>
            <ns3:cad>0</ns3:cad>
          </ns3:TrackPointExtension>
        </extensions>
      </trkpt>
      <trkpt lat="37.78596877120435237884521484375" lon="-107.703890092670917510986328125">
        <ele>4053.60009765625</ele>
        <time>2023-07-29T16:32:59.000Z</time>
        <extensions>
          <ns3:TrackPointExtension>
            <ns3:hr>92</ns3:hr>
            <ns3:cad>0</ns3:cad>
          </ns3:TrackPointExtension>
        </extensions>
      </trkpt>
      <trkpt lat="37.78597019612789154052734375" lon="-107.7038902603089809417724609375">
        <ele>4053.60009765625</ele>
        <time>2023-07-29T16:33:00.000Z</time>
        <extensions>
          <ns3:TrackPointExtension>
            <ns3:hr>92</ns3:hr>
            <ns3:cad>0</ns3:cad>
          </ns3:TrackPointExtension>
        </extensions>
      </trkpt>
      <trkpt lat="37.7859730459749698638916015625" lon="-107.70389101468026638031005859375">
        <ele>4053.800048828125</ele>
        <time>2023-07-29T16:33:01.000Z</time>
        <extensions>
          <ns3:TrackPointExtension>
            <ns3:hr>92</ns3:hr>
            <ns3:cad>0</ns3:cad>
          </ns3:TrackPointExtension>
        </extensions>
      </trkpt>
      <trkpt lat="37.78597480617463588714599609375" lon="-107.70389378070831298828125">
        <ele>4053.800048828125</ele>
        <time>2023-07-29T16:33:02.000Z</time>
        <extensions>
          <ns3:TrackPointExtension>
            <ns3:hr>92</ns3:hr>
            <ns3:cad>0</ns3:cad>
          </ns3:TrackPointExtension>
        </extensions>
      </trkpt>
      <trkpt lat="37.78597547672688961029052734375" lon="-107.70389855839312076568603515625">
        <ele>4053.800048828125</ele>
        <time>2023-07-29T16:33:03.000Z</time>
        <extensions>
          <ns3:TrackPointExtension>
            <ns3:hr>92</ns3:hr>
            <ns3:cad>0</ns3:cad>
          </ns3:TrackPointExtension>
        </extensions>
      </trkpt>
      <trkpt lat="37.78597581200301647186279296875" lon="-107.70390459336340427398681640625">
        <ele>4053.800048828125</ele>
        <time>2023-07-29T16:33:04.000Z</time>
        <extensions>
          <ns3:TrackPointExtension>
            <ns3:hr>92</ns3:hr>
            <ns3:cad>0</ns3:cad>
          </ns3:TrackPointExtension>
        </extensions>
      </trkpt>
      <trkpt lat="37.78597581200301647186279296875" lon="-107.7039066888391971588134765625">
        <ele>4053.800048828125</ele>
        <time>2023-07-29T16:33:05.000Z</time>
        <extensions>
          <ns3:TrackPointExtension>
            <ns3:hr>91</ns3:hr>
            <ns3:cad>0</ns3:cad>
          </ns3:TrackPointExtension>
        </extensions>
      </trkpt>
      <trkpt lat="37.7859750576317310333251953125" lon="-107.70390492863953113555908203125">
        <ele>4053.800048828125</ele>
        <time>2023-07-29T16:33:06.000Z</time>
        <extensions>
          <ns3:TrackPointExtension>
            <ns3:hr>90</ns3:hr>
            <ns3:cad>0</ns3:cad>
          </ns3:TrackPointExtension>
        </extensions>
      </trkpt>
      <trkpt lat="37.785972543060779571533203125" lon="-107.70390425808727741241455078125">
        <ele>4053.800048828125</ele>
        <time>2023-07-29T16:33:07.000Z</time>
        <extensions>
          <ns3:TrackPointExtension>
            <ns3:hr>88</ns3:hr>
            <ns3:cad>0</ns3:cad>
          </ns3:TrackPointExtension>
        </extensions>
      </trkpt>
      <trkpt lat="37.78596944175660610198974609375" lon="-107.7039004862308502197265625">
        <ele>4053.800048828125</ele>
        <time>2023-07-29T16:33:08.000Z</time>
        <extensions>
          <ns3:TrackPointExtension>
            <ns3:hr>89</ns3:hr>
            <ns3:cad>0</ns3:cad>
          </ns3:TrackPointExtension>
        </extensions>
      </trkpt>
      <trkpt lat="37.785964496433734893798828125" lon="-107.7038926072418689727783203125">
        <ele>4053.800048828125</ele>
        <time>2023-07-29T16:33:09.000Z</time>
        <extensions>
          <ns3:TrackPointExtension>
            <ns3:hr>90</ns3:hr>
            <ns3:cad>0</ns3:cad>
          </ns3:TrackPointExtension>
        </extensions>
      </trkpt>
      <trkpt lat="37.78596038930118083953857421875" lon="-107.70388866774737834930419921875">
        <ele>4053.800048828125</ele>
        <time>2023-07-29T16:33:10.000Z</time>
        <extensions>
          <ns3:TrackPointExtension>
            <ns3:hr>91</ns3:hr>
            <ns3:cad>0</ns3:cad>
          </ns3:TrackPointExtension>
        </extensions>
      </trkpt>
      <trkpt lat="37.78595552779734134674072265625" lon="-107.70388514734804630279541015625">
        <ele>4053.800048828125</ele>
        <time>2023-07-29T16:33:11.000Z</time>
        <extensions>
          <ns3:TrackPointExtension>
            <ns3:hr>91</ns3:hr>
            <ns3:cad>0</ns3:cad>
          </ns3:TrackPointExtension>
        </extensions>
      </trkpt>
      <trkpt lat="37.785952091217041015625" lon="-107.703879363834857940673828125">
        <ele>4053.800048828125</ele>
        <time>2023-07-29T16:33:12.000Z</time>
        <extensions>
          <ns3:TrackPointExtension>
            <ns3:hr>92</ns3:hr>
            <ns3:cad>0</ns3:cad>
          </ns3:TrackPointExtension>
        </extensions>
      </trkpt>
      <trkpt lat="37.78594999574124813079833984375" lon="-107.70387760363519191741943359375">
        <ele>4053.800048828125</ele>
        <time>2023-07-29T16:33:13.000Z</time>
        <extensions>
          <ns3:TrackPointExtension>
            <ns3:hr>93</ns3:hr>
            <ns3:cad>0</ns3:cad>
          </ns3:TrackPointExtension>
        </extensions>
      </trkpt>
      <trkpt lat="37.78594932518899440765380859375" lon="-107.70387894473969936370849609375">
        <ele>4053.800048828125</ele>
        <time>2023-07-29T16:33:14.000Z</time>
        <extensions>
          <ns3:TrackPointExtension>
            <ns3:hr>93</ns3:hr>
            <ns3:cad>0</ns3:cad>
          </ns3:TrackPointExtension>
        </extensions>
      </trkpt>
      <trkpt lat="37.78595016337931156158447265625" lon="-107.70388162694871425628662109375">
        <ele>4053.800048828125</ele>
        <time>2023-07-29T16:33:15.000Z</time>
        <extensions>
          <ns3:TrackPointExtension>
            <ns3:hr>94</ns3:hr>
            <ns3:cad>0</ns3:cad>
          </ns3:TrackPointExtension>
        </extensions>
      </trkpt>
      <trkpt lat="37.78595200739800930023193359375" lon="-107.70388363860547542572021484375">
        <ele>4053.800048828125</ele>
        <time>2023-07-29T16:33:16.000Z</time>
        <extensions>
          <ns3:TrackPointExtension>
            <ns3:hr>93</ns3:hr>
            <ns3:cad>0</ns3:cad>
          </ns3:TrackPointExtension>
        </extensions>
      </trkpt>
      <trkpt lat="37.78595586307346820831298828125" lon="-107.70388682372868061065673828125">
        <ele>4053.800048828125</ele>
        <time>2023-07-29T16:33:17.000Z</time>
        <extensions>
          <ns3:TrackPointExtension>
            <ns3:hr>93</ns3:hr>
            <ns3:cad>0</ns3:cad>
          </ns3:TrackPointExtension>
        </extensions>
      </trkpt>
      <trkpt lat="37.78595821000635623931884765625" lon="-107.70388732664287090301513671875">
        <ele>4053.800048828125</ele>
        <time>2023-07-29T16:33:18.000Z</time>
        <extensions>
          <ns3:TrackPointExtension>
            <ns3:hr>92</ns3:hr>
            <ns3:cad>0</ns3:cad>
          </ns3:TrackPointExtension>
        </extensions>
      </trkpt>
      <trkpt lat="37.785960137844085693359375" lon="-107.703887410461902618408203125">
        <ele>4053.800048828125</ele>
        <time>2023-07-29T16:33:19.000Z</time>
        <extensions>
          <ns3:TrackPointExtension>
            <ns3:hr>92</ns3:hr>
            <ns3:cad>0</ns3:cad>
          </ns3:TrackPointExtension>
        </extensions>
      </trkpt>
      <trkpt lat="37.78595946729183197021484375" lon="-107.7038802020251750946044921875">
        <ele>4053.800048828125</ele>
        <time>2023-07-29T16:33:20.000Z</time>
        <extensions>
          <ns3:TrackPointExtension>
            <ns3:hr>91</ns3:hr>
            <ns3:cad>0</ns3:cad>
          </ns3:TrackPointExtension>
        </extensions>
      </trkpt>
      <trkpt lat="37.7859559468924999237060546875" lon="-107.703876681625843048095703125">
        <ele>4053.800048828125</ele>
        <time>2023-07-29T16:33:21.000Z</time>
        <extensions>
          <ns3:TrackPointExtension>
            <ns3:hr>91</ns3:hr>
            <ns3:cad>0</ns3:cad>
          </ns3:TrackPointExtension>
        </extensions>
      </trkpt>
      <trkpt lat="37.7859532646834850311279296875" lon="-107.703872658312320709228515625">
        <ele>4053.800048828125</ele>
        <time>2023-07-29T16:33:22.000Z</time>
        <extensions>
          <ns3:TrackPointExtension>
            <ns3:hr>90</ns3:hr>
            <ns3:cad>0</ns3:cad>
          </ns3:TrackPointExtension>
        </extensions>
      </trkpt>
      <trkpt lat="37.78594873845577239990234375" lon="-107.70386721007525920867919921875">
        <ele>4053.800048828125</ele>
        <time>2023-07-29T16:33:23.000Z</time>
        <extensions>
          <ns3:TrackPointExtension>
            <ns3:hr>88</ns3:hr>
            <ns3:cad>0</ns3:cad>
          </ns3:TrackPointExtension>
        </extensions>
      </trkpt>
      <trkpt lat="37.78594764880836009979248046875" lon="-107.7038644440472126007080078125">
        <ele>4053.800048828125</ele>
        <time>2023-07-29T16:33:24.000Z</time>
        <extensions>
          <ns3:TrackPointExtension>
            <ns3:hr>86</ns3:hr>
            <ns3:cad>0</ns3:cad>
          </ns3:TrackPointExtension>
        </extensions>
      </trkpt>
      <trkpt lat="37.78594530187547206878662109375" lon="-107.703859247267246246337890625">
        <ele>4053.800048828125</ele>
        <time>2023-07-29T16:33:25.000Z</time>
        <extensions>
          <ns3:TrackPointExtension>
            <ns3:hr>85</ns3:hr>
            <ns3:cad>0</ns3:cad>
          </ns3:TrackPointExtension>
        </extensions>
      </trkpt>
      <trkpt lat="37.7859400212764739990234375" lon="-107.70385178737342357635498046875">
        <ele>4053.800048828125</ele>
        <time>2023-07-29T16:33:26.000Z</time>
        <extensions>
          <ns3:TrackPointExtension>
            <ns3:hr>84</ns3:hr>
            <ns3:cad>44</ns3:cad>
          </ns3:TrackPointExtension>
        </extensions>
      </trkpt>
      <trkpt lat="37.7859331481158733367919921875" lon="-107.70384675823152065277099609375">
        <ele>4053.800048828125</ele>
        <time>2023-07-29T16:33:27.000Z</time>
        <extensions>
          <ns3:TrackPointExtension>
            <ns3:hr>84</ns3:hr>
            <ns3:cad>45</ns3:cad>
          </ns3:TrackPointExtension>
        </extensions>
      </trkpt>
      <trkpt lat="37.78592987917363643646240234375" lon="-107.70384508185088634490966796875">
        <ele>4053.800048828125</ele>
        <time>2023-07-29T16:33:28.000Z</time>
        <extensions>
          <ns3:TrackPointExtension>
            <ns3:hr>84</ns3:hr>
            <ns3:cad>45</ns3:cad>
          </ns3:TrackPointExtension>
        </extensions>
      </trkpt>
      <trkpt lat="37.78592250309884548187255859375" lon="-107.7038396336138248443603515625">
        <ele>4054</ele>
        <time>2023-07-29T16:33:29.000Z</time>
        <extensions>
          <ns3:TrackPointExtension>
            <ns3:hr>85</ns3:hr>
            <ns3:cad>45</ns3:cad>
          </ns3:TrackPointExtension>
        </extensions>
      </trkpt>
      <trkpt lat="37.78591160662472248077392578125" lon="-107.70383167080581188201904296875">
        <ele>4054</ele>
        <time>2023-07-29T16:33:30.000Z</time>
        <extensions>
          <ns3:TrackPointExtension>
            <ns3:hr>89</ns3:hr>
            <ns3:cad>45</ns3:cad>
          </ns3:TrackPointExtension>
        </extensions>
      </trkpt>
      <trkpt lat="37.78591026552021503448486328125" lon="-107.703832425177097320556640625">
        <ele>4054</ele>
        <time>2023-07-29T16:33:31.000Z</time>
        <extensions>
          <ns3:TrackPointExtension>
            <ns3:hr>90</ns3:hr>
            <ns3:cad>45</ns3:cad>
          </ns3:TrackPointExtension>
        </extensions>
      </trkpt>
      <trkpt lat="37.785906828939914703369140625" lon="-107.703836448490619659423828125">
        <ele>4054</ele>
        <time>2023-07-29T16:33:32.000Z</time>
        <extensions>
          <ns3:TrackPointExtension>
            <ns3:hr>91</ns3:hr>
            <ns3:cad>0</ns3:cad>
          </ns3:TrackPointExtension>
        </extensions>
      </trkpt>
      <trkpt lat="37.7859036438167095184326171875" lon="-107.703840471804141998291015625">
        <ele>4054</ele>
        <time>2023-07-29T16:33:33.000Z</time>
        <extensions>
          <ns3:TrackPointExtension>
            <ns3:hr>91</ns3:hr>
            <ns3:cad>0</ns3:cad>
          </ns3:TrackPointExtension>
        </extensions>
      </trkpt>
      <trkpt lat="37.785902135074138641357421875" lon="-107.70384080708026885986328125">
        <ele>4054</ele>
        <time>2023-07-29T16:33:34.000Z</time>
        <extensions>
          <ns3:TrackPointExtension>
            <ns3:hr>91</ns3:hr>
            <ns3:cad>0</ns3:cad>
          </ns3:TrackPointExtension>
        </extensions>
      </trkpt>
      <trkpt lat="37.7858996205031871795654296875" lon="-107.70383988507091999053955078125">
        <ele>4054.199951171875</ele>
        <time>2023-07-29T16:33:35.000Z</time>
        <extensions>
          <ns3:TrackPointExtension>
            <ns3:hr>91</ns3:hr>
            <ns3:cad>0</ns3:cad>
          </ns3:TrackPointExtension>
        </extensions>
      </trkpt>
      <trkpt lat="37.78589702211320400238037109375" lon="-107.7038413099944591522216796875">
        <ele>4054.199951171875</ele>
        <time>2023-07-29T16:33:36.000Z</time>
        <extensions>
          <ns3:TrackPointExtension>
            <ns3:hr>90</ns3:hr>
            <ns3:cad>0</ns3:cad>
          </ns3:TrackPointExtension>
        </extensions>
      </trkpt>
      <trkpt lat="37.78589501045644283294677734375" lon="-107.70383921451866626739501953125">
        <ele>4054.199951171875</ele>
        <time>2023-07-29T16:33:37.000Z</time>
        <extensions>
          <ns3:TrackPointExtension>
            <ns3:hr>90</ns3:hr>
            <ns3:cad>0</ns3:cad>
          </ns3:TrackPointExtension>
        </extensions>
      </trkpt>
      <trkpt lat="37.785890400409698486328125" lon="-107.7038387954235076904296875">
        <ele>4054.199951171875</ele>
        <time>2023-07-29T16:33:38.000Z</time>
        <extensions>
          <ns3:TrackPointExtension>
            <ns3:hr>90</ns3:hr>
            <ns3:cad>0</ns3:cad>
          </ns3:TrackPointExtension>
        </extensions>
      </trkpt>
      <trkpt lat="37.78589249588549137115478515625" lon="-107.70383854396641254425048828125">
        <ele>4054</ele>
        <time>2023-07-29T16:33:39.000Z</time>
        <extensions>
          <ns3:TrackPointExtension>
            <ns3:hr>91</ns3:hr>
            <ns3:cad>0</ns3:cad>
          </ns3:TrackPointExtension>
        </extensions>
      </trkpt>
      <trkpt lat="37.785892076790332794189453125" lon="-107.70383787341415882110595703125">
        <ele>4054</ele>
        <time>2023-07-29T16:33:40.000Z</time>
        <extensions>
          <ns3:TrackPointExtension>
            <ns3:hr>91</ns3:hr>
            <ns3:cad>0</ns3:cad>
          </ns3:TrackPointExtension>
        </extensions>
      </trkpt>
      <trkpt lat="37.785890400409698486328125" lon="-107.70383737049996852874755859375">
        <ele>4054</ele>
        <time>2023-07-29T16:33:41.000Z</time>
        <extensions>
          <ns3:TrackPointExtension>
            <ns3:hr>91</ns3:hr>
            <ns3:cad>0</ns3:cad>
          </ns3:TrackPointExtension>
        </extensions>
      </trkpt>
      <trkpt lat="37.78588629327714443206787109375" lon="-107.70383519120514392852783203125">
        <ele>4054.199951171875</ele>
        <time>2023-07-29T16:33:42.000Z</time>
        <extensions>
          <ns3:TrackPointExtension>
            <ns3:hr>91</ns3:hr>
            <ns3:cad>0</ns3:cad>
          </ns3:TrackPointExtension>
        </extensions>
      </trkpt>
      <trkpt lat="37.78588361106812953948974609375" lon="-107.70383234135806560516357421875">
        <ele>4054.39990234375</ele>
        <time>2023-07-29T16:33:43.000Z</time>
        <extensions>
          <ns3:TrackPointExtension>
            <ns3:hr>91</ns3:hr>
            <ns3:cad>0</ns3:cad>
          </ns3:TrackPointExtension>
        </extensions>
      </trkpt>
      <trkpt lat="37.78588143177330493927001953125" lon="-107.70382429473102092742919921875">
        <ele>4054.39990234375</ele>
        <time>2023-07-29T16:33:44.000Z</time>
        <extensions>
          <ns3:TrackPointExtension>
            <ns3:hr>90</ns3:hr>
            <ns3:cad>0</ns3:cad>
          </ns3:TrackPointExtension>
        </extensions>
      </trkpt>
      <trkpt lat="37.7858810126781463623046875" lon="-107.70381842739880084991455078125">
        <ele>4054.39990234375</ele>
        <time>2023-07-29T16:33:45.000Z</time>
        <extensions>
          <ns3:TrackPointExtension>
            <ns3:hr>90</ns3:hr>
            <ns3:cad>0</ns3:cad>
          </ns3:TrackPointExtension>
        </extensions>
      </trkpt>
      <trkpt lat="37.78588168323040008544921875" lon="-107.7038201875984668731689453125">
        <ele>4054.39990234375</ele>
        <time>2023-07-29T16:33:46.000Z</time>
        <extensions>
          <ns3:TrackPointExtension>
            <ns3:hr>89</ns3:hr>
            <ns3:cad>0</ns3:cad>
          </ns3:TrackPointExtension>
        </extensions>
      </trkpt>
      <trkpt lat="37.78588545508682727813720703125" lon="-107.7038255520164966583251953125">
        <ele>4054.39990234375</ele>
        <time>2023-07-29T16:33:47.000Z</time>
        <extensions>
          <ns3:TrackPointExtension>
            <ns3:hr>89</ns3:hr>
            <ns3:cad>0</ns3:cad>
          </ns3:TrackPointExtension>
        </extensions>
      </trkpt>
      <trkpt lat="37.7858915738761425018310546875" lon="-107.70383116789162158966064453125">
        <ele>4054.39990234375</ele>
        <time>2023-07-29T16:33:48.000Z</time>
        <extensions>
          <ns3:TrackPointExtension>
            <ns3:hr>89</ns3:hr>
            <ns3:cad>0</ns3:cad>
          </ns3:TrackPointExtension>
        </extensions>
      </trkpt>
      <trkpt lat="37.7858972735702991485595703125" lon="-107.703837119042873382568359375">
        <ele>4054.199951171875</ele>
        <time>2023-07-29T16:33:49.000Z</time>
        <extensions>
          <ns3:TrackPointExtension>
            <ns3:hr>89</ns3:hr>
            <ns3:cad>0</ns3:cad>
          </ns3:TrackPointExtension>
        </extensions>
      </trkpt>
      <trkpt lat="37.78590045869350433349609375" lon="-107.70384013652801513671875">
        <ele>4054.199951171875</ele>
        <time>2023-07-29T16:33:50.000Z</time>
        <extensions>
          <ns3:TrackPointExtension>
            <ns3:hr>89</ns3:hr>
            <ns3:cad>0</ns3:cad>
          </ns3:TrackPointExtension>
        </extensions>
      </trkpt>
      <trkpt lat="37.7859023027122020721435546875" lon="-107.70383954979479312896728515625">
        <ele>4054.199951171875</ele>
        <time>2023-07-29T16:33:51.000Z</time>
        <extensions>
          <ns3:TrackPointExtension>
            <ns3:hr>90</ns3:hr>
            <ns3:cad>0</ns3:cad>
          </ns3:TrackPointExtension>
        </extensions>
      </trkpt>
      <trkpt lat="37.78590473346412181854248046875" lon="-107.70384038798511028289794921875">
        <ele>4054.39990234375</ele>
        <time>2023-07-29T16:33:52.000Z</time>
        <extensions>
          <ns3:TrackPointExtension>
            <ns3:hr>90</ns3:hr>
            <ns3:cad>0</ns3:cad>
          </ns3:TrackPointExtension>
        </extensions>
      </trkpt>
      <trkpt lat="37.7859056554734706878662109375" lon="-107.7038419805467128753662109375">
        <ele>4054.39990234375</ele>
        <time>2023-07-29T16:33:53.000Z</time>
        <extensions>
          <ns3:TrackPointExtension>
            <ns3:hr>90</ns3:hr>
            <ns3:cad>0</ns3:cad>
          </ns3:TrackPointExtension>
        </extensions>
      </trkpt>
      <trkpt lat="37.78590381145477294921875" lon="-107.70384374074637889862060546875">
        <ele>4054.39990234375</ele>
        <time>2023-07-29T16:33:54.000Z</time>
        <extensions>
          <ns3:TrackPointExtension>
            <ns3:hr>90</ns3:hr>
            <ns3:cad>0</ns3:cad>
          </ns3:TrackPointExtension>
        </extensions>
      </trkpt>
      <trkpt lat="37.7859023027122020721435546875" lon="-107.7038456685841083526611328125">
        <ele>4054.39990234375</ele>
        <time>2023-07-29T16:33:55.000Z</time>
        <extensions>
          <ns3:TrackPointExtension>
            <ns3:hr>90</ns3:hr>
            <ns3:cad>0</ns3:cad>
          </ns3:TrackPointExtension>
        </extensions>
      </trkpt>
      <trkpt lat="37.78590071015059947967529296875" lon="-107.70385514013469219207763671875">
        <ele>4054.39990234375</ele>
        <time>2023-07-29T16:33:56.000Z</time>
        <extensions>
          <ns3:TrackPointExtension>
            <ns3:hr>90</ns3:hr>
            <ns3:cad>0</ns3:cad>
          </ns3:TrackPointExtension>
        </extensions>
      </trkpt>
      <trkpt lat="37.7859033085405826568603515625" lon="-107.7038604207336902618408203125">
        <ele>4054.39990234375</ele>
        <time>2023-07-29T16:33:57.000Z</time>
        <extensions>
          <ns3:TrackPointExtension>
            <ns3:hr>90</ns3:hr>
            <ns3:cad>0</ns3:cad>
          </ns3:TrackPointExtension>
        </extensions>
      </trkpt>
      <trkpt lat="37.785909511148929595947265625" lon="-107.70386360585689544677734375">
        <ele>4054.39990234375</ele>
        <time>2023-07-29T16:33:58.000Z</time>
        <extensions>
          <ns3:TrackPointExtension>
            <ns3:hr>90</ns3:hr>
            <ns3:cad>0</ns3:cad>
          </ns3:TrackPointExtension>
        </extensions>
      </trkpt>
      <trkpt lat="37.78591328300535678863525390625" lon="-107.70387207157909870147705078125">
        <ele>4054.199951171875</ele>
        <time>2023-07-29T16:33:59.000Z</time>
        <extensions>
          <ns3:TrackPointExtension>
            <ns3:hr>90</ns3:hr>
            <ns3:cad>0</ns3:cad>
          </ns3:TrackPointExtension>
        </extensions>
      </trkpt>
      <trkpt lat="37.78591386973857879638671875" lon="-107.70388280041515827178955078125">
        <ele>4054.199951171875</ele>
        <time>2023-07-29T16:34:00.000Z</time>
        <extensions>
          <ns3:TrackPointExtension>
            <ns3:hr>90</ns3:hr>
            <ns3:cad>0</ns3:cad>
          </ns3:TrackPointExtension>
        </extensions>
      </trkpt>
      <trkpt lat="37.78591495938599109649658203125" lon="-107.7038899250328540802001953125">
        <ele>4054.199951171875</ele>
        <time>2023-07-29T16:34:01.000Z</time>
        <extensions>
          <ns3:TrackPointExtension>
            <ns3:hr>90</ns3:hr>
            <ns3:cad>0</ns3:cad>
          </ns3:TrackPointExtension>
        </extensions>
      </trkpt>
      <trkpt lat="37.78591847978532314300537109375" lon="-107.70389839075505733489990234375">
        <ele>4054.199951171875</ele>
        <time>2023-07-29T16:34:02.000Z</time>
        <extensions>
          <ns3:TrackPointExtension>
            <ns3:hr>89</ns3:hr>
            <ns3:cad>0</ns3:cad>
          </ns3:TrackPointExtension>
        </extensions>
      </trkpt>
      <trkpt lat="37.785916216671466827392578125" lon="-107.70390425808727741241455078125">
        <ele>4054.199951171875</ele>
        <time>2023-07-29T16:34:03.000Z</time>
        <extensions>
          <ns3:TrackPointExtension>
            <ns3:hr>89</ns3:hr>
            <ns3:cad>0</ns3:cad>
          </ns3:TrackPointExtension>
        </extensions>
      </trkpt>
      <trkpt lat="37.7859143726527690887451171875" lon="-107.70390425808727741241455078125">
        <ele>4054.199951171875</ele>
        <time>2023-07-29T16:34:04.000Z</time>
        <extensions>
          <ns3:TrackPointExtension>
            <ns3:hr>89</ns3:hr>
            <ns3:cad>0</ns3:cad>
          </ns3:TrackPointExtension>
        </extensions>
      </trkpt>
      <trkpt lat="37.7859126962721347808837890625" lon="-107.70390576682984828948974609375">
        <ele>4054.199951171875</ele>
        <time>2023-07-29T16:34:05.000Z</time>
        <extensions>
          <ns3:TrackPointExtension>
            <ns3:hr>89</ns3:hr>
            <ns3:cad>0</ns3:cad>
          </ns3:TrackPointExtension>
        </extensions>
      </trkpt>
      <trkpt lat="37.78591278009116649627685546875" lon="-107.703904844820499420166015625">
        <ele>4054.199951171875</ele>
        <time>2023-07-29T16:34:06.000Z</time>
        <extensions>
          <ns3:TrackPointExtension>
            <ns3:hr>89</ns3:hr>
            <ns3:cad>0</ns3:cad>
          </ns3:TrackPointExtension>
        </extensions>
      </trkpt>
      <trkpt lat="37.785914205014705657958984375" lon="-107.70390308462083339691162109375">
        <ele>4054.199951171875</ele>
        <time>2023-07-29T16:34:07.000Z</time>
        <extensions>
          <ns3:TrackPointExtension>
            <ns3:hr>89</ns3:hr>
            <ns3:cad>0</ns3:cad>
          </ns3:TrackPointExtension>
        </extensions>
      </trkpt>
      <trkpt lat="37.78591412119567394256591796875" lon="-107.70390518009662628173828125">
        <ele>4054.199951171875</ele>
        <time>2023-07-29T16:34:08.000Z</time>
        <extensions>
          <ns3:TrackPointExtension>
            <ns3:hr>89</ns3:hr>
            <ns3:cad>0</ns3:cad>
          </ns3:TrackPointExtension>
        </extensions>
      </trkpt>
      <trkpt lat="37.785914205014705657958984375" lon="-107.70390652120113372802734375">
        <ele>4054.199951171875</ele>
        <time>2023-07-29T16:34:09.000Z</time>
        <extensions>
          <ns3:TrackPointExtension>
            <ns3:hr>90</ns3:hr>
            <ns3:cad>0</ns3:cad>
          </ns3:TrackPointExtension>
        </extensions>
      </trkpt>
      <trkpt lat="37.78591143898665904998779296875" lon="-107.7039097063243389129638671875">
        <ele>4054.199951171875</ele>
        <time>2023-07-29T16:34:10.000Z</time>
        <extensions>
          <ns3:TrackPointExtension>
            <ns3:hr>90</ns3:hr>
            <ns3:cad>0</ns3:cad>
          </ns3:TrackPointExtension>
        </extensions>
      </trkpt>
      <trkpt lat="37.785905487835407257080078125" lon="-107.703913561999797821044921875">
        <ele>4054.199951171875</ele>
        <time>2023-07-29T16:34:11.000Z</time>
        <extensions>
          <ns3:TrackPointExtension>
            <ns3:hr>90</ns3:hr>
            <ns3:cad>0</ns3:cad>
          </ns3:TrackPointExtension>
        </extensions>
      </trkpt>
      <trkpt lat="37.78589819557964801788330078125" lon="-107.70392186008393764495849609375">
        <ele>4054.199951171875</ele>
        <time>2023-07-29T16:34:12.000Z</time>
        <extensions>
          <ns3:TrackPointExtension>
            <ns3:hr>90</ns3:hr>
            <ns3:cad>0</ns3:cad>
          </ns3:TrackPointExtension>
        </extensions>
      </trkpt>
      <trkpt lat="37.785890065133571624755859375" lon="-107.7039204351603984832763671875">
        <ele>4054.199951171875</ele>
        <time>2023-07-29T16:34:13.000Z</time>
        <extensions>
          <ns3:TrackPointExtension>
            <ns3:hr>90</ns3:hr>
            <ns3:cad>0</ns3:cad>
          </ns3:TrackPointExtension>
        </extensions>
      </trkpt>
      <trkpt lat="37.7858818508684635162353515625" lon="-107.70391817204654216766357421875">
        <ele>4054.199951171875</ele>
        <time>2023-07-29T16:34:14.000Z</time>
        <extensions>
          <ns3:TrackPointExtension>
            <ns3:hr>90</ns3:hr>
            <ns3:cad>0</ns3:cad>
          </ns3:TrackPointExtension>
        </extensions>
      </trkpt>
      <trkpt lat="37.78587522916495800018310546875" lon="-107.7039174176752567291259765625">
        <ele>4054</ele>
        <time>2023-07-29T16:34:15.000Z</time>
        <extensions>
          <ns3:TrackPointExtension>
            <ns3:hr>90</ns3:hr>
            <ns3:cad>0</ns3:cad>
          </ns3:TrackPointExtension>
        </extensions>
      </trkpt>
      <trkpt lat="37.78587003238499164581298828125" lon="-107.70391448400914669036865234375">
        <ele>4053.60009765625</ele>
        <time>2023-07-29T16:34:16.000Z</time>
        <extensions>
          <ns3:TrackPointExtension>
            <ns3:hr>90</ns3:hr>
            <ns3:cad>52</ns3:cad>
          </ns3:TrackPointExtension>
        </extensions>
      </trkpt>
      <trkpt lat="37.78586315922439098358154296875" lon="-107.7039112150669097900390625">
        <ele>4053.39990234375</ele>
        <time>2023-07-29T16:34:17.000Z</time>
        <extensions>
          <ns3:TrackPointExtension>
            <ns3:hr>89</ns3:hr>
            <ns3:cad>52</ns3:cad>
          </ns3:TrackPointExtension>
        </extensions>
      </trkpt>
      <trkpt lat="37.7858580462634563446044921875" lon="-107.70390375517308712005615234375">
        <ele>4053.199951171875</ele>
        <time>2023-07-29T16:34:18.000Z</time>
        <extensions>
          <ns3:TrackPointExtension>
            <ns3:hr>89</ns3:hr>
            <ns3:cad>47</ns3:cad>
          </ns3:TrackPointExtension>
        </extensions>
      </trkpt>
      <trkpt lat="37.7858530171215534210205078125" lon="-107.70390090532600879669189453125">
        <ele>4053.199951171875</ele>
        <time>2023-07-29T16:34:19.000Z</time>
        <extensions>
          <ns3:TrackPointExtension>
            <ns3:hr>89</ns3:hr>
            <ns3:cad>47</ns3:cad>
          </ns3:TrackPointExtension>
        </extensions>
      </trkpt>
      <trkpt lat="37.7858459763228893280029296875" lon="-107.70389453507959842681884765625">
        <ele>4053.199951171875</ele>
        <time>2023-07-29T16:34:20.000Z</time>
        <extensions>
          <ns3:TrackPointExtension>
            <ns3:hr>88</ns3:hr>
            <ns3:cad>51</ns3:cad>
          </ns3:TrackPointExtension>
        </extensions>
      </trkpt>
      <trkpt lat="37.7858359180390834808349609375" lon="-107.70388732664287090301513671875">
        <ele>4053.199951171875</ele>
        <time>2023-07-29T16:34:21.000Z</time>
        <extensions>
          <ns3:TrackPointExtension>
            <ns3:hr>88</ns3:hr>
            <ns3:cad>51</ns3:cad>
          </ns3:TrackPointExtension>
        </extensions>
      </trkpt>
      <trkpt lat="37.785826362669467926025390625" lon="-107.70388179458677768707275390625">
        <ele>4053.199951171875</ele>
        <time>2023-07-29T16:34:22.000Z</time>
        <extensions>
          <ns3:TrackPointExtension>
            <ns3:hr>88</ns3:hr>
            <ns3:cad>51</ns3:cad>
          </ns3:TrackPointExtension>
        </extensions>
      </trkpt>
      <trkpt lat="37.78581739403307437896728515625" lon="-107.70387559197843074798583984375">
        <ele>4053.199951171875</ele>
        <time>2023-07-29T16:34:23.000Z</time>
        <extensions>
          <ns3:TrackPointExtension>
            <ns3:hr>88</ns3:hr>
            <ns3:cad>51</ns3:cad>
          </ns3:TrackPointExtension>
        </extensions>
      </trkpt>
      <trkpt lat="37.78581102378666400909423828125" lon="-107.70387089811265468597412109375">
        <ele>4053.199951171875</ele>
        <time>2023-07-29T16:34:24.000Z</time>
        <extensions>
          <ns3:TrackPointExtension>
            <ns3:hr>87</ns3:hr>
            <ns3:cad>51</ns3:cad>
          </ns3:TrackPointExtension>
        </extensions>
      </trkpt>
      <trkpt lat="37.7858074195683002471923828125" lon="-107.7038709819316864013671875">
        <ele>4053.199951171875</ele>
        <time>2023-07-29T16:34:25.000Z</time>
        <extensions>
          <ns3:TrackPointExtension>
            <ns3:hr>87</ns3:hr>
            <ns3:cad>0</ns3:cad>
          </ns3:TrackPointExtension>
        </extensions>
      </trkpt>
      <trkpt lat="37.78579652309417724609375" lon="-107.70386360585689544677734375">
        <ele>4053.199951171875</ele>
        <time>2023-07-29T16:34:26.000Z</time>
        <extensions>
          <ns3:TrackPointExtension>
            <ns3:hr>87</ns3:hr>
            <ns3:cad>0</ns3:cad>
          </ns3:TrackPointExtension>
        </extensions>
      </trkpt>
      <trkpt lat="37.78579157777130603790283203125" lon="-107.70385765470564365386962890625">
        <ele>4053</ele>
        <time>2023-07-29T16:34:27.000Z</time>
        <extensions>
          <ns3:TrackPointExtension>
            <ns3:hr>87</ns3:hr>
            <ns3:cad>0</ns3:cad>
          </ns3:TrackPointExtension>
        </extensions>
      </trkpt>
      <trkpt lat="37.78578571043908596038818359375" lon="-107.70385396666824817657470703125">
        <ele>4052.800048828125</ele>
        <time>2023-07-29T16:34:28.000Z</time>
        <extensions>
          <ns3:TrackPointExtension>
            <ns3:hr>88</ns3:hr>
            <ns3:cad>50</ns3:cad>
          </ns3:TrackPointExtension>
        </extensions>
      </trkpt>
      <trkpt lat="37.78578068129718303680419921875" lon="-107.703848183155059814453125">
        <ele>4052.800048828125</ele>
        <time>2023-07-29T16:34:29.000Z</time>
        <extensions>
          <ns3:TrackPointExtension>
            <ns3:hr>88</ns3:hr>
            <ns3:cad>50</ns3:cad>
          </ns3:TrackPointExtension>
        </extensions>
      </trkpt>
      <trkpt lat="37.78577305376529693603515625" lon="-107.70384206436574459075927734375">
        <ele>4052.60009765625</ele>
        <time>2023-07-29T16:34:30.000Z</time>
        <extensions>
          <ns3:TrackPointExtension>
            <ns3:hr>88</ns3:hr>
            <ns3:cad>48</ns3:cad>
          </ns3:TrackPointExtension>
        </extensions>
      </trkpt>
      <trkpt lat="37.78576768934726715087890625" lon="-107.70383586175739765167236328125">
        <ele>4052.39990234375</ele>
        <time>2023-07-29T16:34:31.000Z</time>
        <extensions>
          <ns3:TrackPointExtension>
            <ns3:hr>88</ns3:hr>
            <ns3:cad>0</ns3:cad>
          </ns3:TrackPointExtension>
        </extensions>
      </trkpt>
      <trkpt lat="37.78576525859534740447998046875" lon="-107.7038346044719219207763671875">
        <ele>4052.39990234375</ele>
        <time>2023-07-29T16:34:32.000Z</time>
        <extensions>
          <ns3:TrackPointExtension>
            <ns3:hr>88</ns3:hr>
            <ns3:cad>0</ns3:cad>
          </ns3:TrackPointExtension>
        </extensions>
      </trkpt>
      <trkpt lat="37.7857614867389202117919921875" lon="-107.70383368246257305145263671875">
        <ele>4052.199951171875</ele>
        <time>2023-07-29T16:34:33.000Z</time>
        <extensions>
          <ns3:TrackPointExtension>
            <ns3:hr>89</ns3:hr>
            <ns3:cad>0</ns3:cad>
          </ns3:TrackPointExtension>
        </extensions>
      </trkpt>
      <trkpt lat="37.78575805015861988067626953125" lon="-107.703829742968082427978515625">
        <ele>4052</ele>
        <time>2023-07-29T16:34:34.000Z</time>
        <extensions>
          <ns3:TrackPointExtension>
            <ns3:hr>89</ns3:hr>
            <ns3:cad>0</ns3:cad>
          </ns3:TrackPointExtension>
        </extensions>
      </trkpt>
      <trkpt lat="37.78575503267347812652587890625" lon="-107.70382714457809925079345703125">
        <ele>4051.800048828125</ele>
        <time>2023-07-29T16:34:35.000Z</time>
        <extensions>
          <ns3:TrackPointExtension>
            <ns3:hr>89</ns3:hr>
            <ns3:cad>0</ns3:cad>
          </ns3:TrackPointExtension>
        </extensions>
      </trkpt>
      <trkpt lat="37.7857495844364166259765625" lon="-107.7038242109119892120361328125">
        <ele>4051.60009765625</ele>
        <time>2023-07-29T16:34:36.000Z</time>
        <extensions>
          <ns3:TrackPointExtension>
            <ns3:hr>89</ns3:hr>
            <ns3:cad>0</ns3:cad>
          </ns3:TrackPointExtension>
        </extensions>
      </trkpt>
      <trkpt lat="37.7857430465519428253173828125" lon="-107.7038175053894519805908203125">
        <ele>4051.39990234375</ele>
        <time>2023-07-29T16:34:37.000Z</time>
        <extensions>
          <ns3:TrackPointExtension>
            <ns3:hr>88</ns3:hr>
            <ns3:cad>16</ns3:cad>
          </ns3:TrackPointExtension>
        </extensions>
      </trkpt>
      <trkpt lat="37.7857410348951816558837890625" lon="-107.7038178406655788421630859375">
        <ele>4051.39990234375</ele>
        <time>2023-07-29T16:34:38.000Z</time>
        <extensions>
          <ns3:TrackPointExtension>
            <ns3:hr>89</ns3:hr>
            <ns3:cad>16</ns3:cad>
          </ns3:TrackPointExtension>
        </extensions>
      </trkpt>
      <trkpt lat="37.7857339940965175628662109375" lon="-107.703817002475261688232421875">
        <ele>4051.199951171875</ele>
        <time>2023-07-29T16:34:39.000Z</time>
        <extensions>
          <ns3:TrackPointExtension>
            <ns3:hr>89</ns3:hr>
            <ns3:cad>16</ns3:cad>
          </ns3:TrackPointExtension>
        </extensions>
      </trkpt>
      <trkpt lat="37.785731144249439239501953125" lon="-107.703818343579769134521484375">
        <ele>4051</ele>
        <time>2023-07-29T16:34:40.000Z</time>
        <extensions>
          <ns3:TrackPointExtension>
            <ns3:hr>89</ns3:hr>
            <ns3:cad>16</ns3:cad>
          </ns3:TrackPointExtension>
        </extensions>
      </trkpt>
      <trkpt lat="37.7857259474694728851318359375" lon="-107.70381540991365909576416015625">
        <ele>4050.800048828125</ele>
        <time>2023-07-29T16:34:41.000Z</time>
        <extensions>
          <ns3:TrackPointExtension>
            <ns3:hr>89</ns3:hr>
            <ns3:cad>0</ns3:cad>
          </ns3:TrackPointExtension>
        </extensions>
      </trkpt>
      <trkpt lat="37.785720415413379669189453125" lon="-107.70381666719913482666015625">
        <ele>4050.60009765625</ele>
        <time>2023-07-29T16:34:42.000Z</time>
        <extensions>
          <ns3:TrackPointExtension>
            <ns3:hr>88</ns3:hr>
            <ns3:cad>0</ns3:cad>
          </ns3:TrackPointExtension>
        </extensions>
      </trkpt>
      <trkpt lat="37.78572184033691883087158203125" lon="-107.703806944191455841064453125">
        <ele>4050.199951171875</ele>
        <time>2023-07-29T16:34:43.000Z</time>
        <extensions>
          <ns3:TrackPointExtension>
            <ns3:hr>88</ns3:hr>
            <ns3:cad>0</ns3:cad>
          </ns3:TrackPointExtension>
        </extensions>
      </trkpt>
      <trkpt lat="37.785715721547603607177734375" lon="-107.70380518399178981781005859375">
        <ele>4050.199951171875</ele>
        <time>2023-07-29T16:34:44.000Z</time>
        <extensions>
          <ns3:TrackPointExtension>
            <ns3:hr>88</ns3:hr>
            <ns3:cad>0</ns3:cad>
          </ns3:TrackPointExtension>
        </extensions>
      </trkpt>
      <trkpt lat="37.7857138775289058685302734375" lon="-107.70380518399178981781005859375">
        <ele>4050.199951171875</ele>
        <time>2023-07-29T16:34:45.000Z</time>
        <extensions>
          <ns3:TrackPointExtension>
            <ns3:hr>87</ns3:hr>
            <ns3:cad>0</ns3:cad>
          </ns3:TrackPointExtension>
        </extensions>
      </trkpt>
      <trkpt lat="37.78570859692990779876708984375" lon="-107.70380191504955291748046875">
        <ele>4050</ele>
        <time>2023-07-29T16:34:46.000Z</time>
        <extensions>
          <ns3:TrackPointExtension>
            <ns3:hr>85</ns3:hr>
            <ns3:cad>0</ns3:cad>
          </ns3:TrackPointExtension>
        </extensions>
      </trkpt>
      <trkpt lat="37.7857065014541149139404296875" lon="-107.70380032248795032501220703125">
        <ele>4049.800048828125</ele>
        <time>2023-07-29T16:34:47.000Z</time>
        <extensions>
          <ns3:TrackPointExtension>
            <ns3:hr>85</ns3:hr>
            <ns3:cad>0</ns3:cad>
          </ns3:TrackPointExtension>
        </extensions>
      </trkpt>
      <trkpt lat="37.78570457361638545989990234375" lon="-107.703799903392791748046875">
        <ele>4049.60009765625</ele>
        <time>2023-07-29T16:34:48.000Z</time>
        <extensions>
          <ns3:TrackPointExtension>
            <ns3:hr>85</ns3:hr>
            <ns3:cad>0</ns3:cad>
          </ns3:TrackPointExtension>
        </extensions>
      </trkpt>
      <trkpt lat="37.78569853864610195159912109375" lon="-107.70379914902150630950927734375">
        <ele>4049.39990234375</ele>
        <time>2023-07-29T16:34:49.000Z</time>
        <extensions>
          <ns3:TrackPointExtension>
            <ns3:hr>85</ns3:hr>
            <ns3:cad>0</ns3:cad>
          </ns3:TrackPointExtension>
        </extensions>
      </trkpt>
      <trkpt lat="37.78570172376930713653564453125" lon="-107.70379814319312572479248046875">
        <ele>4049.39990234375</ele>
        <time>2023-07-29T16:34:50.000Z</time>
        <extensions>
          <ns3:TrackPointExtension>
            <ns3:hr>85</ns3:hr>
            <ns3:cad>0</ns3:cad>
          </ns3:TrackPointExtension>
        </extensions>
      </trkpt>
      <trkpt lat="37.78569535352289676666259765625" lon="-107.70379378460347652435302734375">
        <ele>4049</ele>
        <time>2023-07-29T16:34:51.000Z</time>
        <extensions>
          <ns3:TrackPointExtension>
            <ns3:hr>85</ns3:hr>
            <ns3:cad>0</ns3:cad>
          </ns3:TrackPointExtension>
        </extensions>
      </trkpt>
      <trkpt lat="37.7856940962374210357666015625" lon="-107.7037916891276836395263671875">
        <ele>4049</ele>
        <time>2023-07-29T16:34:52.000Z</time>
        <extensions>
          <ns3:TrackPointExtension>
            <ns3:hr>84</ns3:hr>
            <ns3:cad>0</ns3:cad>
          </ns3:TrackPointExtension>
        </extensions>
      </trkpt>
      <trkpt lat="37.78569116257131099700927734375" lon="-107.7037910185754299163818359375">
        <ele>4048.800048828125</ele>
        <time>2023-07-29T16:34:53.000Z</time>
        <extensions>
          <ns3:TrackPointExtension>
            <ns3:hr>84</ns3:hr>
            <ns3:cad>0</ns3:cad>
          </ns3:TrackPointExtension>
        </extensions>
      </trkpt>
      <trkpt lat="37.7856900729238986968994140625" lon="-107.703790850937366485595703125">
        <ele>4048.800048828125</ele>
        <time>2023-07-29T16:34:54.000Z</time>
        <extensions>
          <ns3:TrackPointExtension>
            <ns3:hr>84</ns3:hr>
            <ns3:cad>0</ns3:cad>
          </ns3:TrackPointExtension>
        </extensions>
      </trkpt>
      <trkpt lat="37.7856863848865032196044921875" lon="-107.703792192041873931884765625">
        <ele>4048.60009765625</ele>
        <time>2023-07-29T16:34:55.000Z</time>
        <extensions>
          <ns3:TrackPointExtension>
            <ns3:hr>84</ns3:hr>
            <ns3:cad>0</ns3:cad>
          </ns3:TrackPointExtension>
        </extensions>
      </trkpt>
      <trkpt lat="37.78568646870553493499755859375" lon="-107.70379252731800079345703125">
        <ele>4048.60009765625</ele>
        <time>2023-07-29T16:34:56.000Z</time>
        <extensions>
          <ns3:TrackPointExtension>
            <ns3:hr>84</ns3:hr>
            <ns3:cad>0</ns3:cad>
          </ns3:TrackPointExtension>
        </extensions>
      </trkpt>
      <trkpt lat="37.78568043373525142669677734375" lon="-107.703791521489620208740234375">
        <ele>4048.39990234375</ele>
        <time>2023-07-29T16:34:57.000Z</time>
        <extensions>
          <ns3:TrackPointExtension>
            <ns3:hr>85</ns3:hr>
            <ns3:cad>0</ns3:cad>
          </ns3:TrackPointExtension>
        </extensions>
      </trkpt>
      <trkpt lat="37.7856790088117122650146484375" lon="-107.70379118621349334716796875">
        <ele>4048.39990234375</ele>
        <time>2023-07-29T16:34:58.000Z</time>
        <extensions>
          <ns3:TrackPointExtension>
            <ns3:hr>85</ns3:hr>
            <ns3:cad>0</ns3:cad>
          </ns3:TrackPointExtension>
        </extensions>
      </trkpt>
      <trkpt lat="37.78568194247782230377197265625" lon="-107.703790850937366485595703125">
        <ele>4048.199951171875</ele>
        <time>2023-07-29T16:34:59.000Z</time>
        <extensions>
          <ns3:TrackPointExtension>
            <ns3:hr>86</ns3:hr>
            <ns3:cad>0</ns3:cad>
          </ns3:TrackPointExtension>
        </extensions>
      </trkpt>
      <trkpt lat="37.7856739796698093414306640625" lon="-107.70378724671900272369384765625">
        <ele>4048</ele>
        <time>2023-07-29T16:35:00.000Z</time>
        <extensions>
          <ns3:TrackPointExtension>
            <ns3:hr>87</ns3:hr>
            <ns3:cad>0</ns3:cad>
          </ns3:TrackPointExtension>
        </extensions>
      </trkpt>
      <trkpt lat="37.78567071072757244110107421875" lon="-107.7037843130528926849365234375">
        <ele>4047.800048828125</ele>
        <time>2023-07-29T16:35:01.000Z</time>
        <extensions>
          <ns3:TrackPointExtension>
            <ns3:hr>87</ns3:hr>
            <ns3:cad>0</ns3:cad>
          </ns3:TrackPointExtension>
        </extensions>
      </trkpt>
      <trkpt lat="37.7856655977666378021240234375" lon="-107.70378137938678264617919921875">
        <ele>4047.800048828125</ele>
        <time>2023-07-29T16:35:02.000Z</time>
        <extensions>
          <ns3:TrackPointExtension>
            <ns3:hr>87</ns3:hr>
            <ns3:cad>0</ns3:cad>
          </ns3:TrackPointExtension>
        </extensions>
      </trkpt>
      <trkpt lat="37.78566853143274784088134765625" lon="-107.703785486519336700439453125">
        <ele>4047.60009765625</ele>
        <time>2023-07-29T16:35:03.000Z</time>
        <extensions>
          <ns3:TrackPointExtension>
            <ns3:hr>87</ns3:hr>
            <ns3:cad>0</ns3:cad>
          </ns3:TrackPointExtension>
        </extensions>
      </trkpt>
      <trkpt lat="37.78566442430019378662109375" lon="-107.70378272049129009246826171875">
        <ele>4047.60009765625</ele>
        <time>2023-07-29T16:35:04.000Z</time>
        <extensions>
          <ns3:TrackPointExtension>
            <ns3:hr>87</ns3:hr>
            <ns3:cad>0</ns3:cad>
          </ns3:TrackPointExtension>
        </extensions>
      </trkpt>
      <trkpt lat="37.7856598980724811553955078125" lon="-107.70378624089062213897705078125">
        <ele>4047.60009765625</ele>
        <time>2023-07-29T16:35:05.000Z</time>
        <extensions>
          <ns3:TrackPointExtension>
            <ns3:hr>88</ns3:hr>
            <ns3:cad>0</ns3:cad>
          </ns3:TrackPointExtension>
        </extensions>
      </trkpt>
      <trkpt lat="37.785653360188007354736328125" lon="-107.7037916891276836395263671875">
        <ele>4047.39990234375</ele>
        <time>2023-07-29T16:35:06.000Z</time>
        <extensions>
          <ns3:TrackPointExtension>
            <ns3:hr>88</ns3:hr>
            <ns3:cad>0</ns3:cad>
          </ns3:TrackPointExtension>
        </extensions>
      </trkpt>
      <trkpt lat="37.785649336874485015869140625" lon="-107.7037913538515567779541015625">
        <ele>4047.199951171875</ele>
        <time>2023-07-29T16:35:07.000Z</time>
        <extensions>
          <ns3:TrackPointExtension>
            <ns3:hr>88</ns3:hr>
            <ns3:cad>0</ns3:cad>
          </ns3:TrackPointExtension>
        </extensions>
      </trkpt>
      <trkpt lat="37.78564539737999439239501953125" lon="-107.7037916891276836395263671875">
        <ele>4047</ele>
        <time>2023-07-29T16:35:08.000Z</time>
        <extensions>
          <ns3:TrackPointExtension>
            <ns3:hr>88</ns3:hr>
            <ns3:cad>0</ns3:cad>
          </ns3:TrackPointExtension>
        </extensions>
      </trkpt>
      <trkpt lat="37.7856404520571231842041015625" lon="-107.70379277877509593963623046875">
        <ele>4046.800048828125</ele>
        <time>2023-07-29T16:35:09.000Z</time>
        <extensions>
          <ns3:TrackPointExtension>
            <ns3:hr>88</ns3:hr>
            <ns3:cad>0</ns3:cad>
          </ns3:TrackPointExtension>
        </extensions>
      </trkpt>
      <trkpt lat="37.78563701547682285308837890625" lon="-107.7037913538515567779541015625">
        <ele>4046.60009765625</ele>
        <time>2023-07-29T16:35:10.000Z</time>
        <extensions>
          <ns3:TrackPointExtension>
            <ns3:hr>89</ns3:hr>
            <ns3:cad>0</ns3:cad>
          </ns3:TrackPointExtension>
        </extensions>
      </trkpt>
      <trkpt lat="37.78562896884977817535400390625" lon="-107.7037876658141613006591796875">
        <ele>4046.39990234375</ele>
        <time>2023-07-29T16:35:11.000Z</time>
        <extensions>
          <ns3:TrackPointExtension>
            <ns3:hr>89</ns3:hr>
            <ns3:cad>0</ns3:cad>
          </ns3:TrackPointExtension>
        </extensions>
      </trkpt>
      <trkpt lat="37.78562226332724094390869140625" lon="-107.703783474862575531005859375">
        <ele>4046.39990234375</ele>
        <time>2023-07-29T16:35:12.000Z</time>
        <extensions>
          <ns3:TrackPointExtension>
            <ns3:hr>89</ns3:hr>
            <ns3:cad>0</ns3:cad>
          </ns3:TrackPointExtension>
        </extensions>
      </trkpt>
      <trkpt lat="37.78561455197632312774658203125" lon="-107.703778110444545745849609375">
        <ele>4046.39990234375</ele>
        <time>2023-07-29T16:35:13.000Z</time>
        <extensions>
          <ns3:TrackPointExtension>
            <ns3:hr>89</ns3:hr>
            <ns3:cad>0</ns3:cad>
          </ns3:TrackPointExtension>
        </extensions>
      </trkpt>
      <trkpt lat="37.78561413288116455078125" lon="-107.70377635024487972259521484375">
        <ele>4046.199951171875</ele>
        <time>2023-07-29T16:35:14.000Z</time>
        <extensions>
          <ns3:TrackPointExtension>
            <ns3:hr>89</ns3:hr>
            <ns3:cad>0</ns3:cad>
          </ns3:TrackPointExtension>
        </extensions>
      </trkpt>
      <trkpt lat="37.78561019338667392730712890625" lon="-107.7037729136645793914794921875">
        <ele>4046.199951171875</ele>
        <time>2023-07-29T16:35:15.000Z</time>
        <extensions>
          <ns3:TrackPointExtension>
            <ns3:hr>89</ns3:hr>
            <ns3:cad>0</ns3:cad>
          </ns3:TrackPointExtension>
        </extensions>
      </trkpt>
      <trkpt lat="37.78560834936797618865966796875" lon="-107.7037690579891204833984375">
        <ele>4046.199951171875</ele>
        <time>2023-07-29T16:35:16.000Z</time>
        <extensions>
          <ns3:TrackPointExtension>
            <ns3:hr>89</ns3:hr>
            <ns3:cad>0</ns3:cad>
          </ns3:TrackPointExtension>
        </extensions>
      </trkpt>
      <trkpt lat="37.78560684062540531158447265625" lon="-107.7037615142762660980224609375">
        <ele>4046</ele>
        <time>2023-07-29T16:35:17.000Z</time>
        <extensions>
          <ns3:TrackPointExtension>
            <ns3:hr>89</ns3:hr>
            <ns3:cad>0</ns3:cad>
          </ns3:TrackPointExtension>
        </extensions>
      </trkpt>
      <trkpt lat="37.7856059186160564422607421875" lon="-107.70375229418277740478515625">
        <ele>4045.800048828125</ele>
        <time>2023-07-29T16:35:18.000Z</time>
        <extensions>
          <ns3:TrackPointExtension>
            <ns3:hr>89</ns3:hr>
            <ns3:cad>0</ns3:cad>
          </ns3:TrackPointExtension>
        </extensions>
      </trkpt>
      <trkpt lat="37.785606421530246734619140625" lon="-107.70374349318444728851318359375">
        <ele>4045.60009765625</ele>
        <time>2023-07-29T16:35:19.000Z</time>
        <extensions>
          <ns3:TrackPointExtension>
            <ns3:hr>89</ns3:hr>
            <ns3:cad>0</ns3:cad>
          </ns3:TrackPointExtension>
        </extensions>
      </trkpt>
      <trkpt lat="37.785604409873485565185546875" lon="-107.70373075269162654876708984375">
        <ele>4045.39990234375</ele>
        <time>2023-07-29T16:35:20.000Z</time>
        <extensions>
          <ns3:TrackPointExtension>
            <ns3:hr>89</ns3:hr>
            <ns3:cad>0</ns3:cad>
          </ns3:TrackPointExtension>
        </extensions>
      </trkpt>
      <trkpt lat="37.78560482896864414215087890625" lon="-107.703727819025516510009765625">
        <ele>4045.199951171875</ele>
        <time>2023-07-29T16:35:21.000Z</time>
        <extensions>
          <ns3:TrackPointExtension>
            <ns3:hr>90</ns3:hr>
            <ns3:cad>0</ns3:cad>
          </ns3:TrackPointExtension>
        </extensions>
      </trkpt>
      <trkpt lat="37.78560214675962924957275390625" lon="-107.703722454607486724853515625">
        <ele>4045</ele>
        <time>2023-07-29T16:35:22.000Z</time>
        <extensions>
          <ns3:TrackPointExtension>
            <ns3:hr>91</ns3:hr>
            <ns3:cad>0</ns3:cad>
          </ns3:TrackPointExtension>
        </extensions>
      </trkpt>
      <trkpt lat="37.785601727664470672607421875" lon="-107.70372136496007442474365234375">
        <ele>4045</ele>
        <time>2023-07-29T16:35:23.000Z</time>
        <extensions>
          <ns3:TrackPointExtension>
            <ns3:hr>92</ns3:hr>
            <ns3:cad>0</ns3:cad>
          </ns3:TrackPointExtension>
        </extensions>
      </trkpt>
      <trkpt lat="37.7855992130935192108154296875" lon="-107.70371734164655208587646484375">
        <ele>4044.800048828125</ele>
        <time>2023-07-29T16:35:24.000Z</time>
        <extensions>
          <ns3:TrackPointExtension>
            <ns3:hr>93</ns3:hr>
            <ns3:cad>0</ns3:cad>
          </ns3:TrackPointExtension>
        </extensions>
      </trkpt>
      <trkpt lat="37.7855992130935192108154296875" lon="-107.70371734164655208587646484375">
        <ele>4044.60009765625</ele>
        <time>2023-07-29T16:35:25.000Z</time>
        <extensions>
          <ns3:TrackPointExtension>
            <ns3:hr>93</ns3:hr>
            <ns3:cad>0</ns3:cad>
          </ns3:TrackPointExtension>
        </extensions>
      </trkpt>
      <trkpt lat="37.7855951897799968719482421875" lon="-107.7037261426448822021484375">
        <ele>4044.60009765625</ele>
        <time>2023-07-29T16:35:26.000Z</time>
        <extensions>
          <ns3:TrackPointExtension>
            <ns3:hr>93</ns3:hr>
            <ns3:cad>0</ns3:cad>
          </ns3:TrackPointExtension>
        </extensions>
      </trkpt>
      <trkpt lat="37.78559443540871143341064453125" lon="-107.703731171786785125732421875">
        <ele>4044.39990234375</ele>
        <time>2023-07-29T16:35:27.000Z</time>
        <extensions>
          <ns3:TrackPointExtension>
            <ns3:hr>93</ns3:hr>
            <ns3:cad>0</ns3:cad>
          </ns3:TrackPointExtension>
        </extensions>
      </trkpt>
      <trkpt lat="37.78559267520904541015625" lon="-107.7037326805293560028076171875">
        <ele>4044.39990234375</ele>
        <time>2023-07-29T16:35:28.000Z</time>
        <extensions>
          <ns3:TrackPointExtension>
            <ns3:hr>93</ns3:hr>
            <ns3:cad>0</ns3:cad>
          </ns3:TrackPointExtension>
        </extensions>
      </trkpt>
      <trkpt lat="37.78559200465679168701171875" lon="-107.703736536204814910888671875">
        <ele>4044.39990234375</ele>
        <time>2023-07-29T16:35:29.000Z</time>
        <extensions>
          <ns3:TrackPointExtension>
            <ns3:hr>93</ns3:hr>
            <ns3:cad>0</ns3:cad>
          </ns3:TrackPointExtension>
        </extensions>
      </trkpt>
      <trkpt lat="37.78559200465679168701171875" lon="-107.703740894794464111328125">
        <ele>4044.199951171875</ele>
        <time>2023-07-29T16:35:30.000Z</time>
        <extensions>
          <ns3:TrackPointExtension>
            <ns3:hr>94</ns3:hr>
            <ns3:cad>0</ns3:cad>
          </ns3:TrackPointExtension>
        </extensions>
      </trkpt>
      <trkpt lat="37.7855928428471088409423828125" lon="-107.7037413977086544036865234375">
        <ele>4044</ele>
        <time>2023-07-29T16:35:31.000Z</time>
        <extensions>
          <ns3:TrackPointExtension>
            <ns3:hr>94</ns3:hr>
            <ns3:cad>0</ns3:cad>
          </ns3:TrackPointExtension>
        </extensions>
      </trkpt>
      <trkpt lat="37.78559309430420398712158203125" lon="-107.70374290645122528076171875">
        <ele>4044</ele>
        <time>2023-07-29T16:35:32.000Z</time>
        <extensions>
          <ns3:TrackPointExtension>
            <ns3:hr>93</ns3:hr>
            <ns3:cad>0</ns3:cad>
          </ns3:TrackPointExtension>
        </extensions>
      </trkpt>
      <trkpt lat="37.78559426777064800262451171875" lon="-107.703740894794464111328125">
        <ele>4044</ele>
        <time>2023-07-29T16:35:33.000Z</time>
        <extensions>
          <ns3:TrackPointExtension>
            <ns3:hr>93</ns3:hr>
            <ns3:cad>0</ns3:cad>
          </ns3:TrackPointExtension>
        </extensions>
      </trkpt>
      <trkpt lat="37.785595357418060302734375" lon="-107.70373620092868804931640625">
        <ele>4044</ele>
        <time>2023-07-29T16:35:34.000Z</time>
        <extensions>
          <ns3:TrackPointExtension>
            <ns3:hr>93</ns3:hr>
            <ns3:cad>0</ns3:cad>
          </ns3:TrackPointExtension>
        </extensions>
      </trkpt>
      <trkpt lat="37.785599045455455780029296875" lon="-107.7037356980144977569580078125">
        <ele>4044</ele>
        <time>2023-07-29T16:35:35.000Z</time>
        <extensions>
          <ns3:TrackPointExtension>
            <ns3:hr>93</ns3:hr>
            <ns3:cad>0</ns3:cad>
          </ns3:TrackPointExtension>
        </extensions>
      </trkpt>
      <trkpt lat="37.7855978719890117645263671875" lon="-107.70373485982418060302734375">
        <ele>4044.199951171875</ele>
        <time>2023-07-29T16:35:36.000Z</time>
        <extensions>
          <ns3:TrackPointExtension>
            <ns3:hr>93</ns3:hr>
            <ns3:cad>0</ns3:cad>
          </ns3:TrackPointExtension>
        </extensions>
      </trkpt>
      <trkpt lat="37.785597033798694610595703125" lon="-107.70373092032968997955322265625">
        <ele>4044.199951171875</ele>
        <time>2023-07-29T16:35:37.000Z</time>
        <extensions>
          <ns3:TrackPointExtension>
            <ns3:hr>92</ns3:hr>
            <ns3:cad>0</ns3:cad>
          </ns3:TrackPointExtension>
        </extensions>
      </trkpt>
      <trkpt lat="37.78559627942740917205810546875" lon="-107.70373041741549968719482421875">
        <ele>4044.199951171875</ele>
        <time>2023-07-29T16:35:38.000Z</time>
        <extensions>
          <ns3:TrackPointExtension>
            <ns3:hr>92</ns3:hr>
            <ns3:cad>0</ns3:cad>
          </ns3:TrackPointExtension>
        </extensions>
      </trkpt>
      <trkpt lat="37.78559493832290172576904296875" lon="-107.7037274837493896484375">
        <ele>4044</ele>
        <time>2023-07-29T16:35:39.000Z</time>
        <extensions>
          <ns3:TrackPointExtension>
            <ns3:hr>91</ns3:hr>
            <ns3:cad>0</ns3:cad>
          </ns3:TrackPointExtension>
        </extensions>
      </trkpt>
      <trkpt lat="37.7855941839516162872314453125" lon="-107.70372555591166019439697265625">
        <ele>4044</ele>
        <time>2023-07-29T16:35:40.000Z</time>
        <extensions>
          <ns3:TrackPointExtension>
            <ns3:hr>91</ns3:hr>
            <ns3:cad>0</ns3:cad>
          </ns3:TrackPointExtension>
        </extensions>
      </trkpt>
      <trkpt lat="37.785588316619396209716796875" lon="-107.7037206105887889862060546875">
        <ele>4043.800048828125</ele>
        <time>2023-07-29T16:35:41.000Z</time>
        <extensions>
          <ns3:TrackPointExtension>
            <ns3:hr>90</ns3:hr>
            <ns3:cad>0</ns3:cad>
          </ns3:TrackPointExtension>
        </extensions>
      </trkpt>
      <trkpt lat="37.785590328276157379150390625" lon="-107.7037283219397068023681640625">
        <ele>4043.60009765625</ele>
        <time>2023-07-29T16:35:42.000Z</time>
        <extensions>
          <ns3:TrackPointExtension>
            <ns3:hr>90</ns3:hr>
            <ns3:cad>0</ns3:cad>
          </ns3:TrackPointExtension>
        </extensions>
      </trkpt>
      <trkpt lat="37.78558219783008098602294921875" lon="-107.70372413098812103271484375">
        <ele>4043.60009765625</ele>
        <time>2023-07-29T16:35:43.000Z</time>
        <extensions>
          <ns3:TrackPointExtension>
            <ns3:hr>89</ns3:hr>
            <ns3:cad>0</ns3:cad>
          </ns3:TrackPointExtension>
        </extensions>
      </trkpt>
      <trkpt lat="37.78557549230754375457763671875" lon="-107.703724466264247894287109375">
        <ele>4043.60009765625</ele>
        <time>2023-07-29T16:35:44.000Z</time>
        <extensions>
          <ns3:TrackPointExtension>
            <ns3:hr>89</ns3:hr>
            <ns3:cad>0</ns3:cad>
          </ns3:TrackPointExtension>
        </extensions>
      </trkpt>
      <trkpt lat="37.78557063080370426177978515625" lon="-107.7037261426448822021484375">
        <ele>4043.60009765625</ele>
        <time>2023-07-29T16:35:45.000Z</time>
        <extensions>
          <ns3:TrackPointExtension>
            <ns3:hr>89</ns3:hr>
            <ns3:cad>0</ns3:cad>
          </ns3:TrackPointExtension>
        </extensions>
      </trkpt>
      <trkpt lat="37.7855683676898479461669921875" lon="-107.70372153259813785552978515625">
        <ele>4043.39990234375</ele>
        <time>2023-07-29T16:35:46.000Z</time>
        <extensions>
          <ns3:TrackPointExtension>
            <ns3:hr>89</ns3:hr>
            <ns3:cad>0</ns3:cad>
          </ns3:TrackPointExtension>
        </extensions>
      </trkpt>
      <trkpt lat="37.785564176738262176513671875" lon="-107.703724801540374755859375">
        <ele>4043.39990234375</ele>
        <time>2023-07-29T16:35:47.000Z</time>
        <extensions>
          <ns3:TrackPointExtension>
            <ns3:hr>89</ns3:hr>
            <ns3:cad>0</ns3:cad>
          </ns3:TrackPointExtension>
        </extensions>
      </trkpt>
      <trkpt lat="37.78556208126246929168701171875" lon="-107.70372639410197734832763671875">
        <ele>4043.199951171875</ele>
        <time>2023-07-29T16:35:48.000Z</time>
        <extensions>
          <ns3:TrackPointExtension>
            <ns3:hr>89</ns3:hr>
            <ns3:cad>0</ns3:cad>
          </ns3:TrackPointExtension>
        </extensions>
      </trkpt>
      <trkpt lat="37.78556107543408870697021484375" lon="-107.70373041741549968719482421875">
        <ele>4043</ele>
        <time>2023-07-29T16:35:49.000Z</time>
        <extensions>
          <ns3:TrackPointExtension>
            <ns3:hr>89</ns3:hr>
            <ns3:cad>0</ns3:cad>
          </ns3:TrackPointExtension>
        </extensions>
      </trkpt>
      <trkpt lat="37.78555906377732753753662109375" lon="-107.703734524548053741455078125">
        <ele>4043</ele>
        <time>2023-07-29T16:35:50.000Z</time>
        <extensions>
          <ns3:TrackPointExtension>
            <ns3:hr>88</ns3:hr>
            <ns3:cad>0</ns3:cad>
          </ns3:TrackPointExtension>
        </extensions>
      </trkpt>
      <trkpt lat="37.78555990196764469146728515625" lon="-107.7037346921861171722412109375">
        <ele>4042.800048828125</ele>
        <time>2023-07-29T16:35:51.000Z</time>
        <extensions>
          <ns3:TrackPointExtension>
            <ns3:hr>88</ns3:hr>
            <ns3:cad>0</ns3:cad>
          </ns3:TrackPointExtension>
        </extensions>
      </trkpt>
      <trkpt lat="37.78555738739669322967529296875" lon="-107.7037315070629119873046875">
        <ele>4042.60009765625</ele>
        <time>2023-07-29T16:35:52.000Z</time>
        <extensions>
          <ns3:TrackPointExtension>
            <ns3:hr>89</ns3:hr>
            <ns3:cad>0</ns3:cad>
          </ns3:TrackPointExtension>
        </extensions>
      </trkpt>
      <trkpt lat="37.7855526097118854522705078125" lon="-107.70373326726257801055908203125">
        <ele>4042.39990234375</ele>
        <time>2023-07-29T16:35:53.000Z</time>
        <extensions>
          <ns3:TrackPointExtension>
            <ns3:hr>89</ns3:hr>
            <ns3:cad>0</ns3:cad>
          </ns3:TrackPointExtension>
        </extensions>
      </trkpt>
      <trkpt lat="37.7855502627789974212646484375" lon="-107.70373620092868804931640625">
        <ele>4042.199951171875</ele>
        <time>2023-07-29T16:35:54.000Z</time>
        <extensions>
          <ns3:TrackPointExtension>
            <ns3:hr>89</ns3:hr>
            <ns3:cad>0</ns3:cad>
          </ns3:TrackPointExtension>
        </extensions>
      </trkpt>
      <trkpt lat="37.78554749675095081329345703125" lon="-107.70373980514705181121826171875">
        <ele>4042</ele>
        <time>2023-07-29T16:35:55.000Z</time>
        <extensions>
          <ns3:TrackPointExtension>
            <ns3:hr>89</ns3:hr>
            <ns3:cad>0</ns3:cad>
          </ns3:TrackPointExtension>
        </extensions>
      </trkpt>
      <trkpt lat="37.78554380871355533599853515625" lon="-107.7037417329847812652587890625">
        <ele>4042</ele>
        <time>2023-07-29T16:35:56.000Z</time>
        <extensions>
          <ns3:TrackPointExtension>
            <ns3:hr>89</ns3:hr>
            <ns3:cad>0</ns3:cad>
          </ns3:TrackPointExtension>
        </extensions>
      </trkpt>
      <trkpt lat="37.785540036857128143310546875" lon="-107.70374357700347900390625">
        <ele>4041.800048828125</ele>
        <time>2023-07-29T16:35:57.000Z</time>
        <extensions>
          <ns3:TrackPointExtension>
            <ns3:hr>89</ns3:hr>
            <ns3:cad>0</ns3:cad>
          </ns3:TrackPointExtension>
        </extensions>
      </trkpt>
      <trkpt lat="37.78553559444844722747802734375" lon="-107.70374617539346218109130859375">
        <ele>4041.60009765625</ele>
        <time>2023-07-29T16:35:58.000Z</time>
        <extensions>
          <ns3:TrackPointExtension>
            <ns3:hr>89</ns3:hr>
            <ns3:cad>0</ns3:cad>
          </ns3:TrackPointExtension>
        </extensions>
      </trkpt>
      <trkpt lat="37.78553341515362262725830078125" lon="-107.70375095307826995849609375">
        <ele>4041.60009765625</ele>
        <time>2023-07-29T16:35:59.000Z</time>
        <extensions>
          <ns3:TrackPointExtension>
            <ns3:hr>89</ns3:hr>
            <ns3:cad>0</ns3:cad>
          </ns3:TrackPointExtension>
        </extensions>
      </trkpt>
      <trkpt lat="37.785529308021068572998046875" lon="-107.703756652772426605224609375">
        <ele>4041.39990234375</ele>
        <time>2023-07-29T16:36:00.000Z</time>
        <extensions>
          <ns3:TrackPointExtension>
            <ns3:hr>89</ns3:hr>
            <ns3:cad>0</ns3:cad>
          </ns3:TrackPointExtension>
        </extensions>
      </trkpt>
      <trkpt lat="37.78552603907883167266845703125" lon="-107.7037588320672512054443359375">
        <ele>4041.199951171875</ele>
        <time>2023-07-29T16:36:01.000Z</time>
        <extensions>
          <ns3:TrackPointExtension>
            <ns3:hr>89</ns3:hr>
            <ns3:cad>0</ns3:cad>
          </ns3:TrackPointExtension>
        </extensions>
      </trkpt>
      <trkpt lat="37.78552092611789703369140625" lon="-107.70376478321850299835205078125">
        <ele>4041.199951171875</ele>
        <time>2023-07-29T16:36:02.000Z</time>
        <extensions>
          <ns3:TrackPointExtension>
            <ns3:hr>89</ns3:hr>
            <ns3:cad>0</ns3:cad>
          </ns3:TrackPointExtension>
        </extensions>
      </trkpt>
      <trkpt lat="37.78551799245178699493408203125" lon="-107.70376830361783504486083984375">
        <ele>4041</ele>
        <time>2023-07-29T16:36:03.000Z</time>
        <extensions>
          <ns3:TrackPointExtension>
            <ns3:hr>89</ns3:hr>
            <ns3:cad>0</ns3:cad>
          </ns3:TrackPointExtension>
        </extensions>
      </trkpt>
      <trkpt lat="37.7855157293379306793212890625" lon="-107.703775428235530853271484375">
        <ele>4040.800048828125</ele>
        <time>2023-07-29T16:36:04.000Z</time>
        <extensions>
          <ns3:TrackPointExtension>
            <ns3:hr>89</ns3:hr>
            <ns3:cad>0</ns3:cad>
          </ns3:TrackPointExtension>
        </extensions>
      </trkpt>
      <trkpt lat="37.7855120413005352020263671875" lon="-107.70377852953970432281494140625">
        <ele>4040.800048828125</ele>
        <time>2023-07-29T16:36:05.000Z</time>
        <extensions>
          <ns3:TrackPointExtension>
            <ns3:hr>89</ns3:hr>
            <ns3:cad>0</ns3:cad>
          </ns3:TrackPointExtension>
        </extensions>
      </trkpt>
      <trkpt lat="37.78550810180604457855224609375" lon="-107.70377819426357746124267578125">
        <ele>4040.800048828125</ele>
        <time>2023-07-29T16:36:06.000Z</time>
        <extensions>
          <ns3:TrackPointExtension>
            <ns3:hr>89</ns3:hr>
            <ns3:cad>0</ns3:cad>
          </ns3:TrackPointExtension>
        </extensions>
      </trkpt>
      <trkpt lat="37.78550106100738048553466796875" lon="-107.70377467386424541473388671875">
        <ele>4040.60009765625</ele>
        <time>2023-07-29T16:36:07.000Z</time>
        <extensions>
          <ns3:TrackPointExtension>
            <ns3:hr>89</ns3:hr>
            <ns3:cad>0</ns3:cad>
          </ns3:TrackPointExtension>
        </extensions>
      </trkpt>
      <trkpt lat="37.7855006419122219085693359375" lon="-107.70377098582684993743896484375">
        <ele>4040.199951171875</ele>
        <time>2023-07-29T16:36:08.000Z</time>
        <extensions>
          <ns3:TrackPointExtension>
            <ns3:hr>88</ns3:hr>
            <ns3:cad>0</ns3:cad>
          </ns3:TrackPointExtension>
        </extensions>
      </trkpt>
      <trkpt lat="37.78549812734127044677734375" lon="-107.70376511849462985992431640625">
        <ele>4040.199951171875</ele>
        <time>2023-07-29T16:36:09.000Z</time>
        <extensions>
          <ns3:TrackPointExtension>
            <ns3:hr>88</ns3:hr>
            <ns3:cad>0</ns3:cad>
          </ns3:TrackPointExtension>
        </extensions>
      </trkpt>
      <trkpt lat="37.7854947745800018310546875" lon="-107.70375992171466350555419921875">
        <ele>4040</ele>
        <time>2023-07-29T16:36:10.000Z</time>
        <extensions>
          <ns3:TrackPointExtension>
            <ns3:hr>87</ns3:hr>
            <ns3:cad>0</ns3:cad>
          </ns3:TrackPointExtension>
        </extensions>
      </trkpt>
      <trkpt lat="37.78549133799970149993896484375" lon="-107.7037531323730945587158203125">
        <ele>4039.800048828125</ele>
        <time>2023-07-29T16:36:11.000Z</time>
        <extensions>
          <ns3:TrackPointExtension>
            <ns3:hr>87</ns3:hr>
            <ns3:cad>0</ns3:cad>
          </ns3:TrackPointExtension>
        </extensions>
      </trkpt>
      <trkpt lat="37.7854838781058788299560546875" lon="-107.7037437446415424346923828125">
        <ele>4039.800048828125</ele>
        <time>2023-07-29T16:36:12.000Z</time>
        <extensions>
          <ns3:TrackPointExtension>
            <ns3:hr>87</ns3:hr>
            <ns3:cad>0</ns3:cad>
          </ns3:TrackPointExtension>
        </extensions>
      </trkpt>
      <trkpt lat="37.78547910042107105255126953125" lon="-107.70373326726257801055908203125">
        <ele>4039.39990234375</ele>
        <time>2023-07-29T16:36:13.000Z</time>
        <extensions>
          <ns3:TrackPointExtension>
            <ns3:hr>87</ns3:hr>
            <ns3:cad>0</ns3:cad>
          </ns3:TrackPointExtension>
        </extensions>
      </trkpt>
      <trkpt lat="37.78547641821205615997314453125" lon="-107.7037276513874530792236328125">
        <ele>4039.199951171875</ele>
        <time>2023-07-29T16:36:14.000Z</time>
        <extensions>
          <ns3:TrackPointExtension>
            <ns3:hr>86</ns3:hr>
            <ns3:cad>0</ns3:cad>
          </ns3:TrackPointExtension>
        </extensions>
      </trkpt>
      <trkpt lat="37.78547289781272411346435546875" lon="-107.7037229575216770172119140625">
        <ele>4039.199951171875</ele>
        <time>2023-07-29T16:36:15.000Z</time>
        <extensions>
          <ns3:TrackPointExtension>
            <ns3:hr>86</ns3:hr>
            <ns3:cad>43</ns3:cad>
          </ns3:TrackPointExtension>
        </extensions>
      </trkpt>
      <trkpt lat="37.7854644320905208587646484375" lon="-107.7037207782268524169921875">
        <ele>4039</ele>
        <time>2023-07-29T16:36:16.000Z</time>
        <extensions>
          <ns3:TrackPointExtension>
            <ns3:hr>86</ns3:hr>
            <ns3:cad>43</ns3:cad>
          </ns3:TrackPointExtension>
        </extensions>
      </trkpt>
      <trkpt lat="37.7854607440531253814697265625" lon="-107.7037209458649158477783203125">
        <ele>4038.800048828125</ele>
        <time>2023-07-29T16:36:17.000Z</time>
        <extensions>
          <ns3:TrackPointExtension>
            <ns3:hr>86</ns3:hr>
            <ns3:cad>0</ns3:cad>
          </ns3:TrackPointExtension>
        </extensions>
      </trkpt>
      <trkpt lat="37.7854520268738269805908203125" lon="-107.70372203551232814788818359375">
        <ele>4038.60009765625</ele>
        <time>2023-07-29T16:36:18.000Z</time>
        <extensions>
          <ns3:TrackPointExtension>
            <ns3:hr>87</ns3:hr>
            <ns3:cad>0</ns3:cad>
          </ns3:TrackPointExtension>
        </extensions>
      </trkpt>
      <trkpt lat="37.785442806780338287353515625" lon="-107.70371876657009124755859375">
        <ele>4038.39990234375</ele>
        <time>2023-07-29T16:36:19.000Z</time>
        <extensions>
          <ns3:TrackPointExtension>
            <ns3:hr>87</ns3:hr>
            <ns3:cad>0</ns3:cad>
          </ns3:TrackPointExtension>
        </extensions>
      </trkpt>
      <trkpt lat="37.78543517924845218658447265625" lon="-107.70371801219880580902099609375">
        <ele>4038</ele>
        <time>2023-07-29T16:36:20.000Z</time>
        <extensions>
          <ns3:TrackPointExtension>
            <ns3:hr>87</ns3:hr>
            <ns3:cad>0</ns3:cad>
          </ns3:TrackPointExtension>
        </extensions>
      </trkpt>
      <trkpt lat="37.78542042709887027740478515625" lon="-107.7037202753126621246337890625">
        <ele>4037.800048828125</ele>
        <time>2023-07-29T16:36:21.000Z</time>
        <extensions>
          <ns3:TrackPointExtension>
            <ns3:hr>88</ns3:hr>
            <ns3:cad>0</ns3:cad>
          </ns3:TrackPointExtension>
        </extensions>
      </trkpt>
      <trkpt lat="37.78540902771055698394775390625" lon="-107.7037212811410427093505859375">
        <ele>4037.39990234375</ele>
        <time>2023-07-29T16:36:22.000Z</time>
        <extensions>
          <ns3:TrackPointExtension>
            <ns3:hr>88</ns3:hr>
            <ns3:cad>0</ns3:cad>
          </ns3:TrackPointExtension>
        </extensions>
      </trkpt>
      <trkpt lat="37.785403244197368621826171875" lon="-107.70372555591166019439697265625">
        <ele>4037.199951171875</ele>
        <time>2023-07-29T16:36:23.000Z</time>
        <extensions>
          <ns3:TrackPointExtension>
            <ns3:hr>89</ns3:hr>
            <ns3:cad>0</ns3:cad>
          </ns3:TrackPointExtension>
        </extensions>
      </trkpt>
      <trkpt lat="37.7853955328464508056640625" lon="-107.70373108796775341033935546875">
        <ele>4037</ele>
        <time>2023-07-29T16:36:24.000Z</time>
        <extensions>
          <ns3:TrackPointExtension>
            <ns3:hr>89</ns3:hr>
            <ns3:cad>0</ns3:cad>
          </ns3:TrackPointExtension>
        </extensions>
      </trkpt>
      <trkpt lat="37.785386145114898681640625" lon="-107.703738547861576080322265625">
        <ele>4037</ele>
        <time>2023-07-29T16:36:25.000Z</time>
        <extensions>
          <ns3:TrackPointExtension>
            <ns3:hr>90</ns3:hr>
            <ns3:cad>0</ns3:cad>
          </ns3:TrackPointExtension>
        </extensions>
      </trkpt>
      <trkpt lat="37.7853786014020442962646484375" lon="-107.70374801941215991973876953125">
        <ele>4037</ele>
        <time>2023-07-29T16:36:26.000Z</time>
        <extensions>
          <ns3:TrackPointExtension>
            <ns3:hr>90</ns3:hr>
            <ns3:cad>0</ns3:cad>
          </ns3:TrackPointExtension>
        </extensions>
      </trkpt>
      <trkpt lat="37.78537533245980739593505859375" lon="-107.7037548087537288665771484375">
        <ele>4036.800048828125</ele>
        <time>2023-07-29T16:36:27.000Z</time>
        <extensions>
          <ns3:TrackPointExtension>
            <ns3:hr>90</ns3:hr>
            <ns3:cad>0</ns3:cad>
          </ns3:TrackPointExtension>
        </extensions>
      </trkpt>
      <trkpt lat="37.785370051860809326171875" lon="-107.70376092754304409027099609375">
        <ele>4036.199951171875</ele>
        <time>2023-07-29T16:36:28.000Z</time>
        <extensions>
          <ns3:TrackPointExtension>
            <ns3:hr>91</ns3:hr>
            <ns3:cad>61</ns3:cad>
          </ns3:TrackPointExtension>
        </extensions>
      </trkpt>
      <trkpt lat="37.78536611236631870269775390625" lon="-107.70376645959913730621337890625">
        <ele>4035.800048828125</ele>
        <time>2023-07-29T16:36:29.000Z</time>
        <extensions>
          <ns3:TrackPointExtension>
            <ns3:hr>91</ns3:hr>
            <ns3:cad>61</ns3:cad>
          </ns3:TrackPointExtension>
        </extensions>
      </trkpt>
      <trkpt lat="37.78535538353025913238525390625" lon="-107.7037636935710906982421875">
        <ele>4035.800048828125</ele>
        <time>2023-07-29T16:36:30.000Z</time>
        <extensions>
          <ns3:TrackPointExtension>
            <ns3:hr>91</ns3:hr>
            <ns3:cad>61</ns3:cad>
          </ns3:TrackPointExtension>
        </extensions>
      </trkpt>
      <trkpt lat="37.785345576703548431396484375" lon="-107.70376964472234249114990234375">
        <ele>4035.39990234375</ele>
        <time>2023-07-29T16:36:31.000Z</time>
        <extensions>
          <ns3:TrackPointExtension>
            <ns3:hr>92</ns3:hr>
            <ns3:cad>61</ns3:cad>
          </ns3:TrackPointExtension>
        </extensions>
      </trkpt>
      <trkpt lat="37.7853405475616455078125" lon="-107.703776098787784576416015625">
        <ele>4035.39990234375</ele>
        <time>2023-07-29T16:36:32.000Z</time>
        <extensions>
          <ns3:TrackPointExtension>
            <ns3:hr>92</ns3:hr>
            <ns3:cad>61</ns3:cad>
          </ns3:TrackPointExtension>
        </extensions>
      </trkpt>
      <trkpt lat="37.78533074073493480682373046875" lon="-107.70377869717776775360107421875">
        <ele>4035</ele>
        <time>2023-07-29T16:36:33.000Z</time>
        <extensions>
          <ns3:TrackPointExtension>
            <ns3:hr>91</ns3:hr>
            <ns3:cad>61</ns3:cad>
          </ns3:TrackPointExtension>
        </extensions>
      </trkpt>
      <trkpt lat="37.785325460135936737060546875" lon="-107.7037819661200046539306640625">
        <ele>4034.60009765625</ele>
        <time>2023-07-29T16:36:34.000Z</time>
        <extensions>
          <ns3:TrackPointExtension>
            <ns3:hr>91</ns3:hr>
            <ns3:cad>61</ns3:cad>
          </ns3:TrackPointExtension>
        </extensions>
      </trkpt>
      <trkpt lat="37.78531573712825775146484375" lon="-107.7037786133587360382080078125">
        <ele>4034.39990234375</ele>
        <time>2023-07-29T16:36:35.000Z</time>
        <extensions>
          <ns3:TrackPointExtension>
            <ns3:hr>92</ns3:hr>
            <ns3:cad>61</ns3:cad>
          </ns3:TrackPointExtension>
        </extensions>
      </trkpt>
      <trkpt lat="37.785308025777339935302734375" lon="-107.70378104411065578460693359375">
        <ele>4034.199951171875</ele>
        <time>2023-07-29T16:36:36.000Z</time>
        <extensions>
          <ns3:TrackPointExtension>
            <ns3:hr>92</ns3:hr>
            <ns3:cad>62</ns3:cad>
          </ns3:TrackPointExtension>
        </extensions>
      </trkpt>
      <trkpt lat="37.7852976322174072265625" lon="-107.70378087647259235382080078125">
        <ele>4034</ele>
        <time>2023-07-29T16:36:37.000Z</time>
        <extensions>
          <ns3:TrackPointExtension>
            <ns3:hr>92</ns3:hr>
            <ns3:cad>62</ns3:cad>
          </ns3:TrackPointExtension>
        </extensions>
      </trkpt>
      <trkpt lat="37.7852924354374408721923828125" lon="-107.7037802897393703460693359375">
        <ele>4033.800048828125</ele>
        <time>2023-07-29T16:36:38.000Z</time>
        <extensions>
          <ns3:TrackPointExtension>
            <ns3:hr>92</ns3:hr>
            <ns3:cad>62</ns3:cad>
          </ns3:TrackPointExtension>
        </extensions>
      </trkpt>
      <trkpt lat="37.785280533134937286376953125" lon="-107.70378758199512958526611328125">
        <ele>4033.60009765625</ele>
        <time>2023-07-29T16:36:39.000Z</time>
        <extensions>
          <ns3:TrackPointExtension>
            <ns3:hr>92</ns3:hr>
            <ns3:cad>65</ns3:cad>
          </ns3:TrackPointExtension>
        </extensions>
      </trkpt>
      <trkpt lat="37.78526854701340198516845703125" lon="-107.70378850400447845458984375">
        <ele>4033.199951171875</ele>
        <time>2023-07-29T16:36:40.000Z</time>
        <extensions>
          <ns3:TrackPointExtension>
            <ns3:hr>93</ns3:hr>
            <ns3:cad>65</ns3:cad>
          </ns3:TrackPointExtension>
        </extensions>
      </trkpt>
      <trkpt lat="37.7852545492351055145263671875" lon="-107.70378976128995418548583984375">
        <ele>4033</ele>
        <time>2023-07-29T16:36:41.000Z</time>
        <extensions>
          <ns3:TrackPointExtension>
            <ns3:hr>93</ns3:hr>
            <ns3:cad>65</ns3:cad>
          </ns3:TrackPointExtension>
        </extensions>
      </trkpt>
      <trkpt lat="37.785241641104221343994140625" lon="-107.703786157071590423583984375">
        <ele>4033</ele>
        <time>2023-07-29T16:36:42.000Z</time>
        <extensions>
          <ns3:TrackPointExtension>
            <ns3:hr>93</ns3:hr>
            <ns3:cad>65</ns3:cad>
          </ns3:TrackPointExtension>
        </extensions>
      </trkpt>
      <trkpt lat="37.7852287329733371734619140625" lon="-107.70378406159579753875732421875">
        <ele>4032.800048828125</ele>
        <time>2023-07-29T16:36:43.000Z</time>
        <extensions>
          <ns3:TrackPointExtension>
            <ns3:hr>93</ns3:hr>
            <ns3:cad>65</ns3:cad>
          </ns3:TrackPointExtension>
        </extensions>
      </trkpt>
      <trkpt lat="37.7852247096598148345947265625" lon="-107.70377014763653278350830078125">
        <ele>4032.60009765625</ele>
        <time>2023-07-29T16:36:44.000Z</time>
        <extensions>
          <ns3:TrackPointExtension>
            <ns3:hr>94</ns3:hr>
            <ns3:cad>65</ns3:cad>
          </ns3:TrackPointExtension>
        </extensions>
      </trkpt>
      <trkpt lat="37.785212807357311248779296875" lon="-107.70376159809529781341552734375">
        <ele>4032.199951171875</ele>
        <time>2023-07-29T16:36:45.000Z</time>
        <extensions>
          <ns3:TrackPointExtension>
            <ns3:hr>94</ns3:hr>
            <ns3:cad>65</ns3:cad>
          </ns3:TrackPointExtension>
        </extensions>
      </trkpt>
      <trkpt lat="37.7851982228457927703857421875" lon="-107.7037551440298557281494140625">
        <ele>4032</ele>
        <time>2023-07-29T16:36:46.000Z</time>
        <extensions>
          <ns3:TrackPointExtension>
            <ns3:hr>95</ns3:hr>
            <ns3:cad>65</ns3:cad>
          </ns3:TrackPointExtension>
        </extensions>
      </trkpt>
      <trkpt lat="37.78518523089587688446044921875" lon="-107.70375153981149196624755859375">
        <ele>4032</ele>
        <time>2023-07-29T16:36:47.000Z</time>
        <extensions>
          <ns3:TrackPointExtension>
            <ns3:hr>95</ns3:hr>
            <ns3:cad>65</ns3:cad>
          </ns3:TrackPointExtension>
        </extensions>
      </trkpt>
      <trkpt lat="37.785171233117580413818359375" lon="-107.70374952815473079681396484375">
        <ele>4031.800048828125</ele>
        <time>2023-07-29T16:36:48.000Z</time>
        <extensions>
          <ns3:TrackPointExtension>
            <ns3:hr>95</ns3:hr>
            <ns3:cad>0</ns3:cad>
          </ns3:TrackPointExtension>
        </extensions>
      </trkpt>
      <trkpt lat="37.7851620130240917205810546875" lon="-107.70374651066958904266357421875">
        <ele>4031.60009765625</ele>
        <time>2023-07-29T16:36:49.000Z</time>
        <extensions>
          <ns3:TrackPointExtension>
            <ns3:hr>95</ns3:hr>
            <ns3:cad>0</ns3:cad>
          </ns3:TrackPointExtension>
        </extensions>
      </trkpt>
      <trkpt lat="37.78515455313026905059814453125" lon="-107.70374181680381298065185546875">
        <ele>4031.39990234375</ele>
        <time>2023-07-29T16:36:50.000Z</time>
        <extensions>
          <ns3:TrackPointExtension>
            <ns3:hr>95</ns3:hr>
            <ns3:cad>0</ns3:cad>
          </ns3:TrackPointExtension>
        </extensions>
      </trkpt>
      <trkpt lat="37.78514466248452663421630859375" lon="-107.7037383802235126495361328125">
        <ele>4031</ele>
        <time>2023-07-29T16:36:51.000Z</time>
        <extensions>
          <ns3:TrackPointExtension>
            <ns3:hr>94</ns3:hr>
            <ns3:cad>0</ns3:cad>
          </ns3:TrackPointExtension>
        </extensions>
      </trkpt>
      <trkpt lat="37.78513661585748195648193359375" lon="-107.70373620092868804931640625">
        <ele>4030.800048828125</ele>
        <time>2023-07-29T16:36:52.000Z</time>
        <extensions>
          <ns3:TrackPointExtension>
            <ns3:hr>92</ns3:hr>
            <ns3:cad>0</ns3:cad>
          </ns3:TrackPointExtension>
        </extensions>
      </trkpt>
      <trkpt lat="37.78512890450656414031982421875" lon="-107.70374064333736896514892578125">
        <ele>4030.800048828125</ele>
        <time>2023-07-29T16:36:53.000Z</time>
        <extensions>
          <ns3:TrackPointExtension>
            <ns3:hr>91</ns3:hr>
            <ns3:cad>0</ns3:cad>
          </ns3:TrackPointExtension>
        </extensions>
      </trkpt>
      <trkpt lat="37.7851321734488010406494140625" lon="-107.70374156534671783447265625">
        <ele>4030.800048828125</ele>
        <time>2023-07-29T16:36:54.000Z</time>
        <extensions>
          <ns3:TrackPointExtension>
            <ns3:hr>90</ns3:hr>
            <ns3:cad>0</ns3:cad>
          </ns3:TrackPointExtension>
        </extensions>
      </trkpt>
      <trkpt lat="37.7851246297359466552734375" lon="-107.70373997278511524200439453125">
        <ele>4030.60009765625</ele>
        <time>2023-07-29T16:36:55.000Z</time>
        <extensions>
          <ns3:TrackPointExtension>
            <ns3:hr>90</ns3:hr>
            <ns3:cad>17</ns3:cad>
          </ns3:TrackPointExtension>
        </extensions>
      </trkpt>
      <trkpt lat="37.7851211093366146087646484375" lon="-107.70374030806124210357666015625">
        <ele>4030.39990234375</ele>
        <time>2023-07-29T16:36:56.000Z</time>
        <extensions>
          <ns3:TrackPointExtension>
            <ns3:hr>90</ns3:hr>
            <ns3:cad>0</ns3:cad>
          </ns3:TrackPointExtension>
        </extensions>
      </trkpt>
      <trkpt lat="37.785112559795379638671875" lon="-107.7037395536899566650390625">
        <ele>4030.199951171875</ele>
        <time>2023-07-29T16:36:57.000Z</time>
        <extensions>
          <ns3:TrackPointExtension>
            <ns3:hr>90</ns3:hr>
            <ns3:cad>0</ns3:cad>
          </ns3:TrackPointExtension>
        </extensions>
      </trkpt>
      <trkpt lat="37.78511457145214080810546875" lon="-107.70373662002384662628173828125">
        <ele>4030.199951171875</ele>
        <time>2023-07-29T16:36:58.000Z</time>
        <extensions>
          <ns3:TrackPointExtension>
            <ns3:hr>90</ns3:hr>
            <ns3:cad>0</ns3:cad>
          </ns3:TrackPointExtension>
        </extensions>
      </trkpt>
      <trkpt lat="37.78510929085314273834228515625" lon="-107.70373578183352947235107421875">
        <ele>4030</ele>
        <time>2023-07-29T16:36:59.000Z</time>
        <extensions>
          <ns3:TrackPointExtension>
            <ns3:hr>90</ns3:hr>
            <ns3:cad>0</ns3:cad>
          </ns3:TrackPointExtension>
        </extensions>
      </trkpt>
      <trkpt lat="37.785100825130939483642578125" lon="-107.70373343490064144134521484375">
        <ele>4030</ele>
        <time>2023-07-29T16:37:00.000Z</time>
        <extensions>
          <ns3:TrackPointExtension>
            <ns3:hr>90</ns3:hr>
            <ns3:cad>67</ns3:cad>
          </ns3:TrackPointExtension>
        </extensions>
      </trkpt>
      <trkpt lat="37.785100825130939483642578125" lon="-107.70373494364321231842041015625">
        <ele>4029.800048828125</ele>
        <time>2023-07-29T16:37:01.000Z</time>
        <extensions>
          <ns3:TrackPointExtension>
            <ns3:hr>90</ns3:hr>
            <ns3:cad>67</ns3:cad>
          </ns3:TrackPointExtension>
        </extensions>
      </trkpt>
      <trkpt lat="37.785099484026432037353515625" lon="-107.70373888313770294189453125">
        <ele>4029.60009765625</ele>
        <time>2023-07-29T16:37:02.000Z</time>
        <extensions>
          <ns3:TrackPointExtension>
            <ns3:hr>90</ns3:hr>
            <ns3:cad>0</ns3:cad>
          </ns3:TrackPointExtension>
        </extensions>
      </trkpt>
      <trkpt lat="37.78509571217000484466552734375" lon="-107.70374265499413013458251953125">
        <ele>4029.199951171875</ele>
        <time>2023-07-29T16:37:03.000Z</time>
        <extensions>
          <ns3:TrackPointExtension>
            <ns3:hr>90</ns3:hr>
            <ns3:cad>0</ns3:cad>
          </ns3:TrackPointExtension>
        </extensions>
      </trkpt>
      <trkpt lat="37.78509286232292652130126953125" lon="-107.70374349318444728851318359375">
        <ele>4029.199951171875</ele>
        <time>2023-07-29T16:37:04.000Z</time>
        <extensions>
          <ns3:TrackPointExtension>
            <ns3:hr>90</ns3:hr>
            <ns3:cad>0</ns3:cad>
          </ns3:TrackPointExtension>
        </extensions>
      </trkpt>
      <trkpt lat="37.78508649207651615142822265625" lon="-107.7037511207163333892822265625">
        <ele>4029</ele>
        <time>2023-07-29T16:37:05.000Z</time>
        <extensions>
          <ns3:TrackPointExtension>
            <ns3:hr>90</ns3:hr>
            <ns3:cad>0</ns3:cad>
          </ns3:TrackPointExtension>
        </extensions>
      </trkpt>
      <trkpt lat="37.78508515097200870513916015625" lon="-107.703748606145381927490234375">
        <ele>4029</ele>
        <time>2023-07-29T16:37:06.000Z</time>
        <extensions>
          <ns3:TrackPointExtension>
            <ns3:hr>90</ns3:hr>
            <ns3:cad>0</ns3:cad>
          </ns3:TrackPointExtension>
        </extensions>
      </trkpt>
      <trkpt lat="37.7850815467536449432373046875" lon="-107.70374600775539875030517578125">
        <ele>4028.60009765625</ele>
        <time>2023-07-29T16:37:07.000Z</time>
        <extensions>
          <ns3:TrackPointExtension>
            <ns3:hr>91</ns3:hr>
            <ns3:cad>0</ns3:cad>
          </ns3:TrackPointExtension>
        </extensions>
      </trkpt>
      <trkpt lat="37.7850745059549808502197265625" lon="-107.70374617539346218109130859375">
        <ele>4028.39990234375</ele>
        <time>2023-07-29T16:37:08.000Z</time>
        <extensions>
          <ns3:TrackPointExtension>
            <ns3:hr>92</ns3:hr>
            <ns3:cad>0</ns3:cad>
          </ns3:TrackPointExtension>
        </extensions>
      </trkpt>
      <trkpt lat="37.785068638622760772705078125" lon="-107.7037437446415424346923828125">
        <ele>4028.39990234375</ele>
        <time>2023-07-29T16:37:09.000Z</time>
        <extensions>
          <ns3:TrackPointExtension>
            <ns3:hr>92</ns3:hr>
            <ns3:cad>0</ns3:cad>
          </ns3:TrackPointExtension>
        </extensions>
      </trkpt>
      <trkpt lat="37.78506101109087467193603515625" lon="-107.70374156534671783447265625">
        <ele>4028.199951171875</ele>
        <time>2023-07-29T16:37:10.000Z</time>
        <extensions>
          <ns3:TrackPointExtension>
            <ns3:hr>92</ns3:hr>
            <ns3:cad>0</ns3:cad>
          </ns3:TrackPointExtension>
        </extensions>
      </trkpt>
      <trkpt lat="37.78505464084446430206298828125" lon="-107.7037397213280200958251953125">
        <ele>4028.199951171875</ele>
        <time>2023-07-29T16:37:11.000Z</time>
        <extensions>
          <ns3:TrackPointExtension>
            <ns3:hr>92</ns3:hr>
            <ns3:cad>0</ns3:cad>
          </ns3:TrackPointExtension>
        </extensions>
      </trkpt>
      <trkpt lat="37.78504743240773677825927734375" lon="-107.7037310041487216949462890625">
        <ele>4028</ele>
        <time>2023-07-29T16:37:12.000Z</time>
        <extensions>
          <ns3:TrackPointExtension>
            <ns3:hr>93</ns3:hr>
            <ns3:cad>0</ns3:cad>
          </ns3:TrackPointExtension>
        </extensions>
      </trkpt>
      <trkpt lat="37.78504190035164356231689453125" lon="-107.70372773520648479461669921875">
        <ele>4028</ele>
        <time>2023-07-29T16:37:13.000Z</time>
        <extensions>
          <ns3:TrackPointExtension>
            <ns3:hr>93</ns3:hr>
            <ns3:cad>0</ns3:cad>
          </ns3:TrackPointExtension>
        </extensions>
      </trkpt>
      <trkpt lat="37.78504215180873870849609375" lon="-107.7037246339023113250732421875">
        <ele>4027.800048828125</ele>
        <time>2023-07-29T16:37:14.000Z</time>
        <extensions>
          <ns3:TrackPointExtension>
            <ns3:hr>94</ns3:hr>
            <ns3:cad>0</ns3:cad>
          </ns3:TrackPointExtension>
        </extensions>
      </trkpt>
      <trkpt lat="37.78503737412393093109130859375" lon="-107.70372203551232814788818359375">
        <ele>4027.60009765625</ele>
        <time>2023-07-29T16:37:15.000Z</time>
        <extensions>
          <ns3:TrackPointExtension>
            <ns3:hr>94</ns3:hr>
            <ns3:cad>0</ns3:cad>
          </ns3:TrackPointExtension>
        </extensions>
      </trkpt>
      <trkpt lat="37.78503536246716976165771484375" lon="-107.70372119732201099395751953125">
        <ele>4027.39990234375</ele>
        <time>2023-07-29T16:37:16.000Z</time>
        <extensions>
          <ns3:TrackPointExtension>
            <ns3:hr>95</ns3:hr>
            <ns3:cad>0</ns3:cad>
          </ns3:TrackPointExtension>
        </extensions>
      </trkpt>
      <trkpt lat="37.78503536246716976165771484375" lon="-107.7037226222455501556396484375">
        <ele>4027.39990234375</ele>
        <time>2023-07-29T16:37:17.000Z</time>
        <extensions>
          <ns3:TrackPointExtension>
            <ns3:hr>95</ns3:hr>
            <ns3:cad>0</ns3:cad>
          </ns3:TrackPointExtension>
        </extensions>
      </trkpt>
      <trkpt lat="37.78502949513494968414306640625" lon="-107.70372211933135986328125">
        <ele>4027.39990234375</ele>
        <time>2023-07-29T16:37:18.000Z</time>
        <extensions>
          <ns3:TrackPointExtension>
            <ns3:hr>95</ns3:hr>
            <ns3:cad>0</ns3:cad>
          </ns3:TrackPointExtension>
        </extensions>
      </trkpt>
      <trkpt lat="37.78502874076366424560546875" lon="-107.70372186787426471710205078125">
        <ele>4027.199951171875</ele>
        <time>2023-07-29T16:37:19.000Z</time>
        <extensions>
          <ns3:TrackPointExtension>
            <ns3:hr>96</ns3:hr>
            <ns3:cad>0</ns3:cad>
          </ns3:TrackPointExtension>
        </extensions>
      </trkpt>
      <trkpt lat="37.78502915985882282257080078125" lon="-107.7037216164171695709228515625">
        <ele>4026.800048828125</ele>
        <time>2023-07-29T16:37:20.000Z</time>
        <extensions>
          <ns3:TrackPointExtension>
            <ns3:hr>96</ns3:hr>
            <ns3:cad>0</ns3:cad>
          </ns3:TrackPointExtension>
        </extensions>
      </trkpt>
      <trkpt lat="37.78502614237368106842041015625" lon="-107.703717090189456939697265625">
        <ele>4026.60009765625</ele>
        <time>2023-07-29T16:37:21.000Z</time>
        <extensions>
          <ns3:TrackPointExtension>
            <ns3:hr>96</ns3:hr>
            <ns3:cad>0</ns3:cad>
          </ns3:TrackPointExtension>
        </extensions>
      </trkpt>
      <trkpt lat="37.78502429835498332977294921875" lon="-107.7037127315998077392578125">
        <ele>4026.60009765625</ele>
        <time>2023-07-29T16:37:22.000Z</time>
        <extensions>
          <ns3:TrackPointExtension>
            <ns3:hr>96</ns3:hr>
            <ns3:cad>0</ns3:cad>
          </ns3:TrackPointExtension>
        </extensions>
      </trkpt>
      <trkpt lat="37.7850215323269367218017578125" lon="-107.703708373010158538818359375">
        <ele>4026.39990234375</ele>
        <time>2023-07-29T16:37:23.000Z</time>
        <extensions>
          <ns3:TrackPointExtension>
            <ns3:hr>96</ns3:hr>
            <ns3:cad>0</ns3:cad>
          </ns3:TrackPointExtension>
        </extensions>
      </trkpt>
      <trkpt lat="37.78501935303211212158203125" lon="-107.70370493642985820770263671875">
        <ele>4026.39990234375</ele>
        <time>2023-07-29T16:37:24.000Z</time>
        <extensions>
          <ns3:TrackPointExtension>
            <ns3:hr>96</ns3:hr>
            <ns3:cad>0</ns3:cad>
          </ns3:TrackPointExtension>
        </extensions>
      </trkpt>
      <trkpt lat="37.7850175090134143829345703125" lon="-107.703700996935367584228515625">
        <ele>4026.199951171875</ele>
        <time>2023-07-29T16:37:25.000Z</time>
        <extensions>
          <ns3:TrackPointExtension>
            <ns3:hr>96</ns3:hr>
            <ns3:cad>0</ns3:cad>
          </ns3:TrackPointExtension>
        </extensions>
      </trkpt>
      <trkpt lat="37.785009630024433135986328125" lon="-107.7036914415657520294189453125">
        <ele>4026.199951171875</ele>
        <time>2023-07-29T16:37:26.000Z</time>
        <extensions>
          <ns3:TrackPointExtension>
            <ns3:hr>97</ns3:hr>
            <ns3:cad>0</ns3:cad>
          </ns3:TrackPointExtension>
        </extensions>
      </trkpt>
      <trkpt lat="37.785007953643798828125" lon="-107.703687250614166259765625">
        <ele>4026</ele>
        <time>2023-07-29T16:37:27.000Z</time>
        <extensions>
          <ns3:TrackPointExtension>
            <ns3:hr>96</ns3:hr>
            <ns3:cad>0</ns3:cad>
          </ns3:TrackPointExtension>
        </extensions>
      </trkpt>
      <trkpt lat="37.7850067801773548126220703125" lon="-107.703687250614166259765625">
        <ele>4025.800048828125</ele>
        <time>2023-07-29T16:37:28.000Z</time>
        <extensions>
          <ns3:TrackPointExtension>
            <ns3:hr>96</ns3:hr>
            <ns3:cad>0</ns3:cad>
          </ns3:TrackPointExtension>
        </extensions>
      </trkpt>
      <trkpt lat="37.7850057743489742279052734375" lon="-107.70369102247059345245361328125">
        <ele>4025.800048828125</ele>
        <time>2023-07-29T16:37:29.000Z</time>
        <extensions>
          <ns3:TrackPointExtension>
            <ns3:hr>96</ns3:hr>
            <ns3:cad>0</ns3:cad>
          </ns3:TrackPointExtension>
        </extensions>
      </trkpt>
      <trkpt lat="37.7850027568638324737548828125" lon="-107.70368817262351512908935546875">
        <ele>4025.60009765625</ele>
        <time>2023-07-29T16:37:30.000Z</time>
        <extensions>
          <ns3:TrackPointExtension>
            <ns3:hr>96</ns3:hr>
            <ns3:cad>0</ns3:cad>
          </ns3:TrackPointExtension>
        </extensions>
      </trkpt>
      <trkpt lat="37.78500334359705448150634765625" lon="-107.70368599332869052886962890625">
        <ele>4025.199951171875</ele>
        <time>2023-07-29T16:37:31.000Z</time>
        <extensions>
          <ns3:TrackPointExtension>
            <ns3:hr>95</ns3:hr>
            <ns3:cad>0</ns3:cad>
          </ns3:TrackPointExtension>
        </extensions>
      </trkpt>
      <trkpt lat="37.78500267304480075836181640625" lon="-107.70368481986224651336669921875">
        <ele>4025</ele>
        <time>2023-07-29T16:37:32.000Z</time>
        <extensions>
          <ns3:TrackPointExtension>
            <ns3:hr>95</ns3:hr>
            <ns3:cad>0</ns3:cad>
          </ns3:TrackPointExtension>
        </extensions>
      </trkpt>
      <trkpt lat="37.7849970571696758270263671875" lon="-107.70367627032101154327392578125">
        <ele>4025</ele>
        <time>2023-07-29T16:37:33.000Z</time>
        <extensions>
          <ns3:TrackPointExtension>
            <ns3:hr>95</ns3:hr>
            <ns3:cad>0</ns3:cad>
          </ns3:TrackPointExtension>
        </extensions>
      </trkpt>
      <trkpt lat="37.78498875908553600311279296875" lon="-107.7036730013787746429443359375">
        <ele>4024.800048828125</ele>
        <time>2023-07-29T16:37:34.000Z</time>
        <extensions>
          <ns3:TrackPointExtension>
            <ns3:hr>94</ns3:hr>
            <ns3:cad>0</ns3:cad>
          </ns3:TrackPointExtension>
        </extensions>
      </trkpt>
      <trkpt lat="37.78498305939137935638427734375" lon="-107.703671492636203765869140625">
        <ele>4024.60009765625</ele>
        <time>2023-07-29T16:37:35.000Z</time>
        <extensions>
          <ns3:TrackPointExtension>
            <ns3:hr>94</ns3:hr>
            <ns3:cad>0</ns3:cad>
          </ns3:TrackPointExtension>
        </extensions>
      </trkpt>
      <trkpt lat="37.7849771082401275634765625" lon="-107.70367593504488468170166015625">
        <ele>4024.60009765625</ele>
        <time>2023-07-29T16:37:36.000Z</time>
        <extensions>
          <ns3:TrackPointExtension>
            <ns3:hr>94</ns3:hr>
            <ns3:cad>0</ns3:cad>
          </ns3:TrackPointExtension>
        </extensions>
      </trkpt>
      <trkpt lat="37.78497417457401752471923828125" lon="-107.7036793716251850128173828125">
        <ele>4024.60009765625</ele>
        <time>2023-07-29T16:37:37.000Z</time>
        <extensions>
          <ns3:TrackPointExtension>
            <ns3:hr>94</ns3:hr>
            <ns3:cad>0</ns3:cad>
          </ns3:TrackPointExtension>
        </extensions>
      </trkpt>
      <trkpt lat="37.7849662117660045623779296875" lon="-107.7036817185580730438232421875">
        <ele>4024.39990234375</ele>
        <time>2023-07-29T16:37:38.000Z</time>
        <extensions>
          <ns3:TrackPointExtension>
            <ns3:hr>94</ns3:hr>
            <ns3:cad>0</ns3:cad>
          </ns3:TrackPointExtension>
        </extensions>
      </trkpt>
      <trkpt lat="37.7849635295569896697998046875" lon="-107.7036813832819461822509765625">
        <ele>4024.39990234375</ele>
        <time>2023-07-29T16:37:39.000Z</time>
        <extensions>
          <ns3:TrackPointExtension>
            <ns3:hr>94</ns3:hr>
            <ns3:cad>0</ns3:cad>
          </ns3:TrackPointExtension>
        </extensions>
      </trkpt>
      <trkpt lat="37.784959338605403900146484375" lon="-107.70368062891066074371337890625">
        <ele>4024.199951171875</ele>
        <time>2023-07-29T16:37:40.000Z</time>
        <extensions>
          <ns3:TrackPointExtension>
            <ns3:hr>94</ns3:hr>
            <ns3:cad>0</ns3:cad>
          </ns3:TrackPointExtension>
        </extensions>
      </trkpt>
      <trkpt lat="37.78495020233094692230224609375" lon="-107.70368230529129505157470703125">
        <ele>4024.199951171875</ele>
        <time>2023-07-29T16:37:41.000Z</time>
        <extensions>
          <ns3:TrackPointExtension>
            <ns3:hr>93</ns3:hr>
            <ns3:cad>0</ns3:cad>
          </ns3:TrackPointExtension>
        </extensions>
      </trkpt>
      <trkpt lat="37.78494567610323429107666015625" lon="-107.70368247292935848236083984375">
        <ele>4024</ele>
        <time>2023-07-29T16:37:42.000Z</time>
        <extensions>
          <ns3:TrackPointExtension>
            <ns3:hr>93</ns3:hr>
            <ns3:cad>0</ns3:cad>
          </ns3:TrackPointExtension>
        </extensions>
      </trkpt>
      <trkpt lat="37.784940563142299652099609375" lon="-107.7036805450916290283203125">
        <ele>4024</ele>
        <time>2023-07-29T16:37:43.000Z</time>
        <extensions>
          <ns3:TrackPointExtension>
            <ns3:hr>93</ns3:hr>
            <ns3:cad>0</ns3:cad>
          </ns3:TrackPointExtension>
        </extensions>
      </trkpt>
      <trkpt lat="37.7849427424371242523193359375" lon="-107.703681550920009613037109375">
        <ele>4023.800048828125</ele>
        <time>2023-07-29T16:37:44.000Z</time>
        <extensions>
          <ns3:TrackPointExtension>
            <ns3:hr>93</ns3:hr>
            <ns3:cad>0</ns3:cad>
          </ns3:TrackPointExtension>
        </extensions>
      </trkpt>
      <trkpt lat="37.7849437482655048370361328125" lon="-107.70367643795907497406005859375">
        <ele>4023.60009765625</ele>
        <time>2023-07-29T16:37:45.000Z</time>
        <extensions>
          <ns3:TrackPointExtension>
            <ns3:hr>92</ns3:hr>
            <ns3:cad>0</ns3:cad>
          </ns3:TrackPointExtension>
        </extensions>
      </trkpt>
      <trkpt lat="37.7849430777132511138916015625" lon="-107.70367157645523548126220703125">
        <ele>4023.60009765625</ele>
        <time>2023-07-29T16:37:46.000Z</time>
        <extensions>
          <ns3:TrackPointExtension>
            <ns3:hr>92</ns3:hr>
            <ns3:cad>0</ns3:cad>
          </ns3:TrackPointExtension>
        </extensions>
      </trkpt>
      <trkpt lat="37.7849407307803630828857421875" lon="-107.70367853343486785888671875">
        <ele>4023.39990234375</ele>
        <time>2023-07-29T16:37:47.000Z</time>
        <extensions>
          <ns3:TrackPointExtension>
            <ns3:hr>91</ns3:hr>
            <ns3:cad>0</ns3:cad>
          </ns3:TrackPointExtension>
        </extensions>
      </trkpt>
      <trkpt lat="37.78493595309555530548095703125" lon="-107.70368230529129505157470703125">
        <ele>4023.199951171875</ele>
        <time>2023-07-29T16:37:48.000Z</time>
        <extensions>
          <ns3:TrackPointExtension>
            <ns3:hr>91</ns3:hr>
            <ns3:cad>0</ns3:cad>
          </ns3:TrackPointExtension>
        </extensions>
      </trkpt>
      <trkpt lat="37.7849353663623332977294921875" lon="-107.70368255674839019775390625">
        <ele>4023.199951171875</ele>
        <time>2023-07-29T16:37:49.000Z</time>
        <extensions>
          <ns3:TrackPointExtension>
            <ns3:hr>90</ns3:hr>
            <ns3:cad>0</ns3:cad>
          </ns3:TrackPointExtension>
        </extensions>
      </trkpt>
      <trkpt lat="37.78493377380073070526123046875" lon="-107.70368381403386592864990234375">
        <ele>4023</ele>
        <time>2023-07-29T16:37:50.000Z</time>
        <extensions>
          <ns3:TrackPointExtension>
            <ns3:hr>89</ns3:hr>
            <ns3:cad>0</ns3:cad>
          </ns3:TrackPointExtension>
        </extensions>
      </trkpt>
      <trkpt lat="37.78493729420006275177001953125" lon="-107.70368297584354877471923828125">
        <ele>4022.800048828125</ele>
        <time>2023-07-29T16:37:51.000Z</time>
        <extensions>
          <ns3:TrackPointExtension>
            <ns3:hr>88</ns3:hr>
            <ns3:cad>0</ns3:cad>
          </ns3:TrackPointExtension>
        </extensions>
      </trkpt>
      <trkpt lat="37.78493779711425304412841796875" lon="-107.70368414930999279022216796875">
        <ele>4022.800048828125</ele>
        <time>2023-07-29T16:37:52.000Z</time>
        <extensions>
          <ns3:TrackPointExtension>
            <ns3:hr>88</ns3:hr>
            <ns3:cad>0</ns3:cad>
          </ns3:TrackPointExtension>
        </extensions>
      </trkpt>
      <trkpt lat="37.78493511490523815155029296875" lon="-107.7036847360432147979736328125">
        <ele>4022.60009765625</ele>
        <time>2023-07-29T16:37:53.000Z</time>
        <extensions>
          <ns3:TrackPointExtension>
            <ns3:hr>88</ns3:hr>
            <ns3:cad>0</ns3:cad>
          </ns3:TrackPointExtension>
        </extensions>
      </trkpt>
      <trkpt lat="37.7849326841533184051513671875" lon="-107.70368616096675395965576171875">
        <ele>4022.60009765625</ele>
        <time>2023-07-29T16:37:54.000Z</time>
        <extensions>
          <ns3:TrackPointExtension>
            <ns3:hr>88</ns3:hr>
            <ns3:cad>0</ns3:cad>
          </ns3:TrackPointExtension>
        </extensions>
      </trkpt>
      <trkpt lat="37.7849263139069080352783203125" lon="-107.703682892024517059326171875">
        <ele>4022.60009765625</ele>
        <time>2023-07-29T16:37:55.000Z</time>
        <extensions>
          <ns3:TrackPointExtension>
            <ns3:hr>88</ns3:hr>
            <ns3:cad>0</ns3:cad>
          </ns3:TrackPointExtension>
        </extensions>
      </trkpt>
      <trkpt lat="37.7849202789366245269775390625" lon="-107.70368213765323162078857421875">
        <ele>4022.39990234375</ele>
        <time>2023-07-29T16:37:56.000Z</time>
        <extensions>
          <ns3:TrackPointExtension>
            <ns3:hr>88</ns3:hr>
            <ns3:cad>0</ns3:cad>
          </ns3:TrackPointExtension>
        </extensions>
      </trkpt>
      <trkpt lat="37.78492011129856109619140625" lon="-107.70368280820548534393310546875">
        <ele>4022.39990234375</ele>
        <time>2023-07-29T16:37:57.000Z</time>
        <extensions>
          <ns3:TrackPointExtension>
            <ns3:hr>88</ns3:hr>
            <ns3:cad>0</ns3:cad>
          </ns3:TrackPointExtension>
        </extensions>
      </trkpt>
      <trkpt lat="37.78492002747952938079833984375" lon="-107.7036813832819461822509765625">
        <ele>4022.199951171875</ele>
        <time>2023-07-29T16:37:58.000Z</time>
        <extensions>
          <ns3:TrackPointExtension>
            <ns3:hr>88</ns3:hr>
            <ns3:cad>0</ns3:cad>
          </ns3:TrackPointExtension>
        </extensions>
      </trkpt>
      <trkpt lat="37.78492053039371967315673828125" lon="-107.70368096418678760528564453125">
        <ele>4022</ele>
        <time>2023-07-29T16:37:59.000Z</time>
        <extensions>
          <ns3:TrackPointExtension>
            <ns3:hr>87</ns3:hr>
            <ns3:cad>0</ns3:cad>
          </ns3:TrackPointExtension>
        </extensions>
      </trkpt>
      <trkpt lat="37.78491650708019733428955078125" lon="-107.70367342047393321990966796875">
        <ele>4021.800048828125</ele>
        <time>2023-07-29T16:38:00.000Z</time>
        <extensions>
          <ns3:TrackPointExtension>
            <ns3:hr>86</ns3:hr>
            <ns3:cad>0</ns3:cad>
          </ns3:TrackPointExtension>
        </extensions>
      </trkpt>
      <trkpt lat="37.7849142439663410186767578125" lon="-107.70366973243653774261474609375">
        <ele>4021.800048828125</ele>
        <time>2023-07-29T16:38:01.000Z</time>
        <extensions>
          <ns3:TrackPointExtension>
            <ns3:hr>86</ns3:hr>
            <ns3:cad>0</ns3:cad>
          </ns3:TrackPointExtension>
        </extensions>
      </trkpt>
      <trkpt lat="37.78490938246250152587890625" lon="-107.703665457665920257568359375">
        <ele>4021.800048828125</ele>
        <time>2023-07-29T16:38:02.000Z</time>
        <extensions>
          <ns3:TrackPointExtension>
            <ns3:hr>86</ns3:hr>
            <ns3:cad>0</ns3:cad>
          </ns3:TrackPointExtension>
        </extensions>
      </trkpt>
      <trkpt lat="37.7848998270928859710693359375" lon="-107.7036585845053195953369140625">
        <ele>4021.800048828125</ele>
        <time>2023-07-29T16:38:03.000Z</time>
        <extensions>
          <ns3:TrackPointExtension>
            <ns3:hr>86</ns3:hr>
            <ns3:cad>0</ns3:cad>
          </ns3:TrackPointExtension>
        </extensions>
      </trkpt>
      <trkpt lat="37.78489756397902965545654296875" lon="-107.703660763800144195556640625">
        <ele>4021.39990234375</ele>
        <time>2023-07-29T16:38:04.000Z</time>
        <extensions>
          <ns3:TrackPointExtension>
            <ns3:hr>86</ns3:hr>
            <ns3:cad>0</ns3:cad>
          </ns3:TrackPointExtension>
        </extensions>
      </trkpt>
      <trkpt lat="37.78489387594163417816162109375" lon="-107.7036609314382076263427734375">
        <ele>4021.199951171875</ele>
        <time>2023-07-29T16:38:05.000Z</time>
        <extensions>
          <ns3:TrackPointExtension>
            <ns3:hr>86</ns3:hr>
            <ns3:cad>0</ns3:cad>
          </ns3:TrackPointExtension>
        </extensions>
      </trkpt>
      <trkpt lat="37.784895636141300201416015625" lon="-107.703667469322681427001953125">
        <ele>4021</ele>
        <time>2023-07-29T16:38:06.000Z</time>
        <extensions>
          <ns3:TrackPointExtension>
            <ns3:hr>86</ns3:hr>
            <ns3:cad>0</ns3:cad>
          </ns3:TrackPointExtension>
        </extensions>
      </trkpt>
      <trkpt lat="37.7848951332271099090576171875" lon="-107.70367124117910861968994140625">
        <ele>4021</ele>
        <time>2023-07-29T16:38:07.000Z</time>
        <extensions>
          <ns3:TrackPointExtension>
            <ns3:hr>86</ns3:hr>
            <ns3:cad>0</ns3:cad>
          </ns3:TrackPointExtension>
        </extensions>
      </trkpt>
      <trkpt lat="37.78489270247519016265869140625" lon="-107.703677527606487274169921875">
        <ele>4020.800048828125</ele>
        <time>2023-07-29T16:38:08.000Z</time>
        <extensions>
          <ns3:TrackPointExtension>
            <ns3:hr>86</ns3:hr>
            <ns3:cad>0</ns3:cad>
          </ns3:TrackPointExtension>
        </extensions>
      </trkpt>
      <trkpt lat="37.784884236752986907958984375" lon="-107.70367987453937530517578125">
        <ele>4020.39990234375</ele>
        <time>2023-07-29T16:38:09.000Z</time>
        <extensions>
          <ns3:TrackPointExtension>
            <ns3:hr>86</ns3:hr>
            <ns3:cad>0</ns3:cad>
          </ns3:TrackPointExtension>
        </extensions>
      </trkpt>
      <trkpt lat="37.7848790399730205535888671875" lon="-107.70368331111967563629150390625">
        <ele>4020.39990234375</ele>
        <time>2023-07-29T16:38:10.000Z</time>
        <extensions>
          <ns3:TrackPointExtension>
            <ns3:hr>86</ns3:hr>
            <ns3:cad>0</ns3:cad>
          </ns3:TrackPointExtension>
        </extensions>
      </trkpt>
      <trkpt lat="37.7848733402788639068603515625" lon="-107.70368750207126140594482421875">
        <ele>4020.39990234375</ele>
        <time>2023-07-29T16:38:11.000Z</time>
        <extensions>
          <ns3:TrackPointExtension>
            <ns3:hr>86</ns3:hr>
            <ns3:cad>0</ns3:cad>
          </ns3:TrackPointExtension>
        </extensions>
      </trkpt>
      <trkpt lat="37.7848756872117519378662109375" lon="-107.70368817262351512908935546875">
        <ele>4020.199951171875</ele>
        <time>2023-07-29T16:38:12.000Z</time>
        <extensions>
          <ns3:TrackPointExtension>
            <ns3:hr>86</ns3:hr>
            <ns3:cad>0</ns3:cad>
          </ns3:TrackPointExtension>
        </extensions>
      </trkpt>
      <trkpt lat="37.78487258590757846832275390625" lon="-107.70368599332869052886962890625">
        <ele>4020</ele>
        <time>2023-07-29T16:38:13.000Z</time>
        <extensions>
          <ns3:TrackPointExtension>
            <ns3:hr>86</ns3:hr>
            <ns3:cad>0</ns3:cad>
          </ns3:TrackPointExtension>
        </extensions>
      </trkpt>
      <trkpt lat="37.78487325645983219146728515625" lon="-107.70368498750030994415283203125">
        <ele>4019.800048828125</ele>
        <time>2023-07-29T16:38:14.000Z</time>
        <extensions>
          <ns3:TrackPointExtension>
            <ns3:hr>87</ns3:hr>
            <ns3:cad>0</ns3:cad>
          </ns3:TrackPointExtension>
        </extensions>
      </trkpt>
      <trkpt lat="37.7848750166594982147216796875" lon="-107.7036817185580730438232421875">
        <ele>4019.60009765625</ele>
        <time>2023-07-29T16:38:15.000Z</time>
        <extensions>
          <ns3:TrackPointExtension>
            <ns3:hr>87</ns3:hr>
            <ns3:cad>0</ns3:cad>
          </ns3:TrackPointExtension>
        </extensions>
      </trkpt>
      <trkpt lat="37.78487442992627620697021484375" lon="-107.70367920398712158203125">
        <ele>4019.39990234375</ele>
        <time>2023-07-29T16:38:16.000Z</time>
        <extensions>
          <ns3:TrackPointExtension>
            <ns3:hr>87</ns3:hr>
            <ns3:cad>0</ns3:cad>
          </ns3:TrackPointExtension>
        </extensions>
      </trkpt>
      <trkpt lat="37.78486839495599269866943359375" lon="-107.70367912016808986663818359375">
        <ele>4019.199951171875</ele>
        <time>2023-07-29T16:38:17.000Z</time>
        <extensions>
          <ns3:TrackPointExtension>
            <ns3:hr>87</ns3:hr>
            <ns3:cad>0</ns3:cad>
          </ns3:TrackPointExtension>
        </extensions>
      </trkpt>
      <trkpt lat="37.7848592586815357208251953125" lon="-107.7036797069013118743896484375">
        <ele>4019</ele>
        <time>2023-07-29T16:38:18.000Z</time>
        <extensions>
          <ns3:TrackPointExtension>
            <ns3:hr>86</ns3:hr>
            <ns3:cad>0</ns3:cad>
          </ns3:TrackPointExtension>
        </extensions>
      </trkpt>
      <trkpt lat="37.78484995476901531219482421875" lon="-107.70368683151900768280029296875">
        <ele>4019</ele>
        <time>2023-07-29T16:38:19.000Z</time>
        <extensions>
          <ns3:TrackPointExtension>
            <ns3:hr>86</ns3:hr>
            <ns3:cad>0</ns3:cad>
          </ns3:TrackPointExtension>
        </extensions>
      </trkpt>
      <trkpt lat="37.78483285568654537200927734375" lon="-107.70368867553770542144775390625">
        <ele>4019</ele>
        <time>2023-07-29T16:38:20.000Z</time>
        <extensions>
          <ns3:TrackPointExtension>
            <ns3:hr>86</ns3:hr>
            <ns3:cad>0</ns3:cad>
          </ns3:TrackPointExtension>
        </extensions>
      </trkpt>
      <trkpt lat="37.7848190255463123321533203125" lon="-107.70369186066091060638427734375">
        <ele>4018.800048828125</ele>
        <time>2023-07-29T16:38:21.000Z</time>
        <extensions>
          <ns3:TrackPointExtension>
            <ns3:hr>86</ns3:hr>
            <ns3:cad>0</ns3:cad>
          </ns3:TrackPointExtension>
        </extensions>
      </trkpt>
      <trkpt lat="37.78480477631092071533203125" lon="-107.70369554869830608367919921875">
        <ele>4018.39990234375</ele>
        <time>2023-07-29T16:38:22.000Z</time>
        <extensions>
          <ns3:TrackPointExtension>
            <ns3:hr>86</ns3:hr>
            <ns3:cad>0</ns3:cad>
          </ns3:TrackPointExtension>
        </extensions>
      </trkpt>
      <trkpt lat="37.78479061089456081390380859375" lon="-107.703698985278606414794921875">
        <ele>4018.39990234375</ele>
        <time>2023-07-29T16:38:23.000Z</time>
        <extensions>
          <ns3:TrackPointExtension>
            <ns3:hr>86</ns3:hr>
            <ns3:cad>0</ns3:cad>
          </ns3:TrackPointExtension>
        </extensions>
      </trkpt>
      <trkpt lat="37.78477795422077178955078125" lon="-107.70370443351566791534423828125">
        <ele>4018.39990234375</ele>
        <time>2023-07-29T16:38:24.000Z</time>
        <extensions>
          <ns3:TrackPointExtension>
            <ns3:hr>86</ns3:hr>
            <ns3:cad>0</ns3:cad>
          </ns3:TrackPointExtension>
        </extensions>
      </trkpt>
      <trkpt lat="37.78476144187152385711669921875" lon="-107.703707702457904815673828125">
        <ele>4018.199951171875</ele>
        <time>2023-07-29T16:38:25.000Z</time>
        <extensions>
          <ns3:TrackPointExtension>
            <ns3:hr>86</ns3:hr>
            <ns3:cad>0</ns3:cad>
          </ns3:TrackPointExtension>
        </extensions>
      </trkpt>
      <trkpt lat="37.78474920429289340972900390625" lon="-107.7037055231630802154541015625">
        <ele>4018.199951171875</ele>
        <time>2023-07-29T16:38:26.000Z</time>
        <extensions>
          <ns3:TrackPointExtension>
            <ns3:hr>86</ns3:hr>
            <ns3:cad>0</ns3:cad>
          </ns3:TrackPointExtension>
        </extensions>
      </trkpt>
      <trkpt lat="37.7847419120371341705322265625" lon="-107.7037045173346996307373046875">
        <ele>4018</ele>
        <time>2023-07-29T16:38:27.000Z</time>
        <extensions>
          <ns3:TrackPointExtension>
            <ns3:hr>86</ns3:hr>
            <ns3:cad>0</ns3:cad>
          </ns3:TrackPointExtension>
        </extensions>
      </trkpt>
      <trkpt lat="37.78473143465816974639892578125" lon="-107.70370409823954105377197265625">
        <ele>4018</ele>
        <time>2023-07-29T16:38:28.000Z</time>
        <extensions>
          <ns3:TrackPointExtension>
            <ns3:hr>87</ns3:hr>
            <ns3:cad>0</ns3:cad>
          </ns3:TrackPointExtension>
        </extensions>
      </trkpt>
      <trkpt lat="37.7847211249172687530517578125" lon="-107.70370745100080966949462890625">
        <ele>4018</ele>
        <time>2023-07-29T16:38:29.000Z</time>
        <extensions>
          <ns3:TrackPointExtension>
            <ns3:hr>87</ns3:hr>
            <ns3:cad>55</ns3:cad>
          </ns3:TrackPointExtension>
        </extensions>
      </trkpt>
      <trkpt lat="37.78471148572862148284912109375" lon="-107.70371080376207828521728515625">
        <ele>4018</ele>
        <time>2023-07-29T16:38:30.000Z</time>
        <extensions>
          <ns3:TrackPointExtension>
            <ns3:hr>88</ns3:hr>
            <ns3:cad>55</ns3:cad>
          </ns3:TrackPointExtension>
        </extensions>
      </trkpt>
      <trkpt lat="37.7847023494541645050048828125" lon="-107.70371449179947376251220703125">
        <ele>4018</ele>
        <time>2023-07-29T16:38:31.000Z</time>
        <extensions>
          <ns3:TrackPointExtension>
            <ns3:hr>88</ns3:hr>
            <ns3:cad>55</ns3:cad>
          </ns3:TrackPointExtension>
        </extensions>
      </trkpt>
      <trkpt lat="37.784699164330959320068359375" lon="-107.70371465943753719329833984375">
        <ele>4017.60009765625</ele>
        <time>2023-07-29T16:38:32.000Z</time>
        <extensions>
          <ns3:TrackPointExtension>
            <ns3:hr>88</ns3:hr>
            <ns3:cad>0</ns3:cad>
          </ns3:TrackPointExtension>
        </extensions>
      </trkpt>
      <trkpt lat="37.7846919558942317962646484375" lon="-107.7037159167230129241943359375">
        <ele>4017.60009765625</ele>
        <time>2023-07-29T16:38:33.000Z</time>
        <extensions>
          <ns3:TrackPointExtension>
            <ns3:hr>88</ns3:hr>
            <ns3:cad>0</ns3:cad>
          </ns3:TrackPointExtension>
        </extensions>
      </trkpt>
      <trkpt lat="37.784688435494899749755859375" lon="-107.70371449179947376251220703125">
        <ele>4017.60009765625</ele>
        <time>2023-07-29T16:38:34.000Z</time>
        <extensions>
          <ns3:TrackPointExtension>
            <ns3:hr>88</ns3:hr>
            <ns3:cad>0</ns3:cad>
          </ns3:TrackPointExtension>
        </extensions>
      </trkpt>
      <trkpt lat="37.784679047763347625732421875" lon="-107.7037154138088226318359375">
        <ele>4017.39990234375</ele>
        <time>2023-07-29T16:38:35.000Z</time>
        <extensions>
          <ns3:TrackPointExtension>
            <ns3:hr>88</ns3:hr>
            <ns3:cad>0</ns3:cad>
          </ns3:TrackPointExtension>
        </extensions>
      </trkpt>
      <trkpt lat="37.78467024676501750946044921875" lon="-107.70371717400848865509033203125">
        <ele>4017</ele>
        <time>2023-07-29T16:38:36.000Z</time>
        <extensions>
          <ns3:TrackPointExtension>
            <ns3:hr>89</ns3:hr>
            <ns3:cad>0</ns3:cad>
          </ns3:TrackPointExtension>
        </extensions>
      </trkpt>
      <trkpt lat="37.78466538526117801666259765625" lon="-107.7037175931036472320556640625">
        <ele>4017</ele>
        <time>2023-07-29T16:38:37.000Z</time>
        <extensions>
          <ns3:TrackPointExtension>
            <ns3:hr>89</ns3:hr>
            <ns3:cad>0</ns3:cad>
          </ns3:TrackPointExtension>
        </extensions>
      </trkpt>
      <trkpt lat="37.78466127812862396240234375" lon="-107.7037196047604084014892578125">
        <ele>4016.800048828125</ele>
        <time>2023-07-29T16:38:38.000Z</time>
        <extensions>
          <ns3:TrackPointExtension>
            <ns3:hr>89</ns3:hr>
            <ns3:cad>0</ns3:cad>
          </ns3:TrackPointExtension>
        </extensions>
      </trkpt>
      <trkpt lat="37.7846611104905605316162109375" lon="-107.7037216164171695709228515625">
        <ele>4016.800048828125</ele>
        <time>2023-07-29T16:38:39.000Z</time>
        <extensions>
          <ns3:TrackPointExtension>
            <ns3:hr>89</ns3:hr>
            <ns3:cad>0</ns3:cad>
          </ns3:TrackPointExtension>
        </extensions>
      </trkpt>
      <trkpt lat="37.78465314768254756927490234375" lon="-107.70372672937810420989990234375">
        <ele>4016.800048828125</ele>
        <time>2023-07-29T16:38:40.000Z</time>
        <extensions>
          <ns3:TrackPointExtension>
            <ns3:hr>89</ns3:hr>
            <ns3:cad>0</ns3:cad>
          </ns3:TrackPointExtension>
        </extensions>
      </trkpt>
      <trkpt lat="37.7846480347216129302978515625" lon="-107.70373092032968997955322265625">
        <ele>4016.39990234375</ele>
        <time>2023-07-29T16:38:41.000Z</time>
        <extensions>
          <ns3:TrackPointExtension>
            <ns3:hr>90</ns3:hr>
            <ns3:cad>0</ns3:cad>
          </ns3:TrackPointExtension>
        </extensions>
      </trkpt>
      <trkpt lat="37.78464610688388347625732421875" lon="-107.703732512891292572021484375">
        <ele>4016.199951171875</ele>
        <time>2023-07-29T16:38:42.000Z</time>
        <extensions>
          <ns3:TrackPointExtension>
            <ns3:hr>90</ns3:hr>
            <ns3:cad>0</ns3:cad>
          </ns3:TrackPointExtension>
        </extensions>
      </trkpt>
      <trkpt lat="37.78464250266551971435546875" lon="-107.7037341892719268798828125">
        <ele>4015.800048828125</ele>
        <time>2023-07-29T16:38:43.000Z</time>
        <extensions>
          <ns3:TrackPointExtension>
            <ns3:hr>92</ns3:hr>
            <ns3:cad>0</ns3:cad>
          </ns3:TrackPointExtension>
        </extensions>
      </trkpt>
      <trkpt lat="37.78463856317102909088134765625" lon="-107.7037368714809417724609375">
        <ele>4015.800048828125</ele>
        <time>2023-07-29T16:38:44.000Z</time>
        <extensions>
          <ns3:TrackPointExtension>
            <ns3:hr>92</ns3:hr>
            <ns3:cad>0</ns3:cad>
          </ns3:TrackPointExtension>
        </extensions>
      </trkpt>
      <trkpt lat="37.7846356295049190521240234375" lon="-107.70373695529997348785400390625">
        <ele>4015.60009765625</ele>
        <time>2023-07-29T16:38:45.000Z</time>
        <extensions>
          <ns3:TrackPointExtension>
            <ns3:hr>92</ns3:hr>
            <ns3:cad>0</ns3:cad>
          </ns3:TrackPointExtension>
        </extensions>
      </trkpt>
      <trkpt lat="37.78463252820074558258056640625" lon="-107.70373863168060779571533203125">
        <ele>4015.199951171875</ele>
        <time>2023-07-29T16:38:46.000Z</time>
        <extensions>
          <ns3:TrackPointExtension>
            <ns3:hr>93</ns3:hr>
            <ns3:cad>0</ns3:cad>
          </ns3:TrackPointExtension>
        </extensions>
      </trkpt>
      <trkpt lat="37.78462716378271579742431640625" lon="-107.7037400566041469573974609375">
        <ele>4015.199951171875</ele>
        <time>2023-07-29T16:38:47.000Z</time>
        <extensions>
          <ns3:TrackPointExtension>
            <ns3:hr>93</ns3:hr>
            <ns3:cad>0</ns3:cad>
          </ns3:TrackPointExtension>
        </extensions>
      </trkpt>
      <trkpt lat="37.78461593203246593475341796875" lon="-107.70373712293803691864013671875">
        <ele>4015</ele>
        <time>2023-07-29T16:38:48.000Z</time>
        <extensions>
          <ns3:TrackPointExtension>
            <ns3:hr>93</ns3:hr>
            <ns3:cad>0</ns3:cad>
          </ns3:TrackPointExtension>
        </extensions>
      </trkpt>
      <trkpt lat="37.78461157344281673431396484375" lon="-107.703739888966083526611328125">
        <ele>4015</ele>
        <time>2023-07-29T16:38:49.000Z</time>
        <extensions>
          <ns3:TrackPointExtension>
            <ns3:hr>93</ns3:hr>
            <ns3:cad>0</ns3:cad>
          </ns3:TrackPointExtension>
        </extensions>
      </trkpt>
      <trkpt lat="37.7846044488251209259033203125" lon="-107.703741900622844696044921875">
        <ele>4015</ele>
        <time>2023-07-29T16:38:50.000Z</time>
        <extensions>
          <ns3:TrackPointExtension>
            <ns3:hr>93</ns3:hr>
            <ns3:cad>0</ns3:cad>
          </ns3:TrackPointExtension>
        </extensions>
      </trkpt>
      <trkpt lat="37.7846027724444866180419921875" lon="-107.70374349318444728851318359375">
        <ele>4015</ele>
        <time>2023-07-29T16:38:51.000Z</time>
        <extensions>
          <ns3:TrackPointExtension>
            <ns3:hr>93</ns3:hr>
            <ns3:cad>0</ns3:cad>
          </ns3:TrackPointExtension>
        </extensions>
      </trkpt>
      <trkpt lat="37.7846000902354717254638671875" lon="-107.70373662002384662628173828125">
        <ele>4014.800048828125</ele>
        <time>2023-07-29T16:38:52.000Z</time>
        <extensions>
          <ns3:TrackPointExtension>
            <ns3:hr>93</ns3:hr>
            <ns3:cad>0</ns3:cad>
          </ns3:TrackPointExtension>
        </extensions>
      </trkpt>
      <trkpt lat="37.78460185043513774871826171875" lon="-107.70374198444187641143798828125">
        <ele>4014.800048828125</ele>
        <time>2023-07-29T16:38:53.000Z</time>
        <extensions>
          <ns3:TrackPointExtension>
            <ns3:hr>93</ns3:hr>
            <ns3:cad>0</ns3:cad>
          </ns3:TrackPointExtension>
        </extensions>
      </trkpt>
      <trkpt lat="37.78459598310291767120361328125" lon="-107.70374064333736896514892578125">
        <ele>4014.60009765625</ele>
        <time>2023-07-29T16:38:54.000Z</time>
        <extensions>
          <ns3:TrackPointExtension>
            <ns3:hr>93</ns3:hr>
            <ns3:cad>0</ns3:cad>
          </ns3:TrackPointExtension>
        </extensions>
      </trkpt>
      <trkpt lat="37.78458843939006328582763671875" lon="-107.70374081097543239593505859375">
        <ele>4014.39990234375</ele>
        <time>2023-07-29T16:38:55.000Z</time>
        <extensions>
          <ns3:TrackPointExtension>
            <ns3:hr>93</ns3:hr>
            <ns3:cad>0</ns3:cad>
          </ns3:TrackPointExtension>
        </extensions>
      </trkpt>
      <trkpt lat="37.78458558954298496246337890625" lon="-107.703737877309322357177734375">
        <ele>4014.199951171875</ele>
        <time>2023-07-29T16:38:56.000Z</time>
        <extensions>
          <ns3:TrackPointExtension>
            <ns3:hr>93</ns3:hr>
            <ns3:cad>0</ns3:cad>
          </ns3:TrackPointExtension>
        </extensions>
      </trkpt>
      <trkpt lat="37.7845762856304645538330078125" lon="-107.7037353627383708953857421875">
        <ele>4014.199951171875</ele>
        <time>2023-07-29T16:38:57.000Z</time>
        <extensions>
          <ns3:TrackPointExtension>
            <ns3:hr>93</ns3:hr>
            <ns3:cad>0</ns3:cad>
          </ns3:TrackPointExtension>
        </extensions>
      </trkpt>
      <trkpt lat="37.7845720946788787841796875" lon="-107.70373351871967315673828125">
        <ele>4014</ele>
        <time>2023-07-29T16:38:58.000Z</time>
        <extensions>
          <ns3:TrackPointExtension>
            <ns3:hr>93</ns3:hr>
            <ns3:cad>0</ns3:cad>
          </ns3:TrackPointExtension>
        </extensions>
      </trkpt>
      <trkpt lat="37.78457268141210079193115234375" lon="-107.7037336863577365875244140625">
        <ele>4013.60009765625</ele>
        <time>2023-07-29T16:38:59.000Z</time>
        <extensions>
          <ns3:TrackPointExtension>
            <ns3:hr>93</ns3:hr>
            <ns3:cad>0</ns3:cad>
          </ns3:TrackPointExtension>
        </extensions>
      </trkpt>
      <trkpt lat="37.7845665626227855682373046875" lon="-107.70373209379613399505615234375">
        <ele>4013.39990234375</ele>
        <time>2023-07-29T16:39:00.000Z</time>
        <extensions>
          <ns3:TrackPointExtension>
            <ns3:hr>93</ns3:hr>
            <ns3:cad>0</ns3:cad>
          </ns3:TrackPointExtension>
        </extensions>
      </trkpt>
      <trkpt lat="37.784563042223453521728515625" lon="-107.7037313394248485565185546875">
        <ele>4013.199951171875</ele>
        <time>2023-07-29T16:39:01.000Z</time>
        <extensions>
          <ns3:TrackPointExtension>
            <ns3:hr>93</ns3:hr>
            <ns3:cad>0</ns3:cad>
          </ns3:TrackPointExtension>
        </extensions>
      </trkpt>
      <trkpt lat="37.7845575101673603057861328125" lon="-107.70373142324388027191162109375">
        <ele>4013.199951171875</ele>
        <time>2023-07-29T16:39:02.000Z</time>
        <extensions>
          <ns3:TrackPointExtension>
            <ns3:hr>93</ns3:hr>
            <ns3:cad>0</ns3:cad>
          </ns3:TrackPointExtension>
        </extensions>
      </trkpt>
      <trkpt lat="37.7845531515777111053466796875" lon="-107.70373678766191005706787109375">
        <ele>4013</ele>
        <time>2023-07-29T16:39:03.000Z</time>
        <extensions>
          <ns3:TrackPointExtension>
            <ns3:hr>92</ns3:hr>
            <ns3:cad>0</ns3:cad>
          </ns3:TrackPointExtension>
        </extensions>
      </trkpt>
      <trkpt lat="37.78455105610191822052001953125" lon="-107.70373821258544921875">
        <ele>4013</ele>
        <time>2023-07-29T16:39:04.000Z</time>
        <extensions>
          <ns3:TrackPointExtension>
            <ns3:hr>92</ns3:hr>
            <ns3:cad>0</ns3:cad>
          </ns3:TrackPointExtension>
        </extensions>
      </trkpt>
      <trkpt lat="37.7845528163015842437744140625" lon="-107.7037460915744304656982421875">
        <ele>4013</ele>
        <time>2023-07-29T16:39:05.000Z</time>
        <extensions>
          <ns3:TrackPointExtension>
            <ns3:hr>92</ns3:hr>
            <ns3:cad>0</ns3:cad>
          </ns3:TrackPointExtension>
        </extensions>
      </trkpt>
      <trkpt lat="37.78455373831093311309814453125" lon="-107.703747935593128204345703125">
        <ele>4013</ele>
        <time>2023-07-29T16:39:06.000Z</time>
        <extensions>
          <ns3:TrackPointExtension>
            <ns3:hr>92</ns3:hr>
            <ns3:cad>0</ns3:cad>
          </ns3:TrackPointExtension>
        </extensions>
      </trkpt>
      <trkpt lat="37.78455256484448909759521484375" lon="-107.7037584967911243438720703125">
        <ele>4012.800048828125</ele>
        <time>2023-07-29T16:39:07.000Z</time>
        <extensions>
          <ns3:TrackPointExtension>
            <ns3:hr>92</ns3:hr>
            <ns3:cad>0</ns3:cad>
          </ns3:TrackPointExtension>
        </extensions>
      </trkpt>
      <trkpt lat="37.78455390594899654388427734375" lon="-107.7037636935710906982421875">
        <ele>4012.60009765625</ele>
        <time>2023-07-29T16:39:08.000Z</time>
        <extensions>
          <ns3:TrackPointExtension>
            <ns3:hr>92</ns3:hr>
            <ns3:cad>0</ns3:cad>
          </ns3:TrackPointExtension>
        </extensions>
      </trkpt>
      <trkpt lat="37.78455558232963085174560546875" lon="-107.70376394502818584442138671875">
        <ele>4012.60009765625</ele>
        <time>2023-07-29T16:39:09.000Z</time>
        <extensions>
          <ns3:TrackPointExtension>
            <ns3:hr>92</ns3:hr>
            <ns3:cad>0</ns3:cad>
          </ns3:TrackPointExtension>
        </extensions>
      </trkpt>
      <trkpt lat="37.7845544926822185516357421875" lon="-107.7037658728659152984619140625">
        <ele>4012.60009765625</ele>
        <time>2023-07-29T16:39:10.000Z</time>
        <extensions>
          <ns3:TrackPointExtension>
            <ns3:hr>91</ns3:hr>
            <ns3:cad>0</ns3:cad>
          </ns3:TrackPointExtension>
        </extensions>
      </trkpt>
      <trkpt lat="37.78454971499741077423095703125" lon="-107.70376612432301044464111328125">
        <ele>4012.39990234375</ele>
        <time>2023-07-29T16:39:11.000Z</time>
        <extensions>
          <ns3:TrackPointExtension>
            <ns3:hr>91</ns3:hr>
            <ns3:cad>0</ns3:cad>
          </ns3:TrackPointExtension>
        </extensions>
      </trkpt>
      <trkpt lat="37.78454652987420558929443359375" lon="-107.70376713015139102935791015625">
        <ele>4012</ele>
        <time>2023-07-29T16:39:12.000Z</time>
        <extensions>
          <ns3:TrackPointExtension>
            <ns3:hr>91</ns3:hr>
            <ns3:cad>0</ns3:cad>
          </ns3:TrackPointExtension>
        </extensions>
      </trkpt>
      <trkpt lat="37.78453663922846317291259765625" lon="-107.7037695609033107757568359375">
        <ele>4012</ele>
        <time>2023-07-29T16:39:13.000Z</time>
        <extensions>
          <ns3:TrackPointExtension>
            <ns3:hr>91</ns3:hr>
            <ns3:cad>0</ns3:cad>
          </ns3:TrackPointExtension>
        </extensions>
      </trkpt>
      <trkpt lat="37.784531526267528533935546875" lon="-107.7037645317614078521728515625">
        <ele>4011.800048828125</ele>
        <time>2023-07-29T16:39:14.000Z</time>
        <extensions>
          <ns3:TrackPointExtension>
            <ns3:hr>91</ns3:hr>
            <ns3:cad>0</ns3:cad>
          </ns3:TrackPointExtension>
        </extensions>
      </trkpt>
      <trkpt lat="37.7845238149166107177734375" lon="-107.70375975407660007476806640625">
        <ele>4011.60009765625</ele>
        <time>2023-07-29T16:39:15.000Z</time>
        <extensions>
          <ns3:TrackPointExtension>
            <ns3:hr>91</ns3:hr>
            <ns3:cad>0</ns3:cad>
          </ns3:TrackPointExtension>
        </extensions>
      </trkpt>
      <trkpt lat="37.784516103565692901611328125" lon="-107.70375438965857028961181640625">
        <ele>4011.60009765625</ele>
        <time>2023-07-29T16:39:16.000Z</time>
        <extensions>
          <ns3:TrackPointExtension>
            <ns3:hr>91</ns3:hr>
            <ns3:cad>0</ns3:cad>
          </ns3:TrackPointExtension>
        </extensions>
      </trkpt>
      <trkpt lat="37.78450864367187023162841796875" lon="-107.7037517912685871124267578125">
        <ele>4011.39990234375</ele>
        <time>2023-07-29T16:39:17.000Z</time>
        <extensions>
          <ns3:TrackPointExtension>
            <ns3:hr>92</ns3:hr>
            <ns3:cad>0</ns3:cad>
          </ns3:TrackPointExtension>
        </extensions>
      </trkpt>
      <trkpt lat="37.78450327925384044647216796875" lon="-107.70374969579279422760009765625">
        <ele>4011.199951171875</ele>
        <time>2023-07-29T16:39:18.000Z</time>
        <extensions>
          <ns3:TrackPointExtension>
            <ns3:hr>92</ns3:hr>
            <ns3:cad>0</ns3:cad>
          </ns3:TrackPointExtension>
        </extensions>
      </trkpt>
      <trkpt lat="37.78450529091060161590576171875" lon="-107.7037489414215087890625">
        <ele>4011</ele>
        <time>2023-07-29T16:39:19.000Z</time>
        <extensions>
          <ns3:TrackPointExtension>
            <ns3:hr>92</ns3:hr>
            <ns3:cad>0</ns3:cad>
          </ns3:TrackPointExtension>
        </extensions>
      </trkpt>
      <trkpt lat="37.784502692520618438720703125" lon="-107.703747935593128204345703125">
        <ele>4011</ele>
        <time>2023-07-29T16:39:20.000Z</time>
        <extensions>
          <ns3:TrackPointExtension>
            <ns3:hr>93</ns3:hr>
            <ns3:cad>0</ns3:cad>
          </ns3:TrackPointExtension>
        </extensions>
      </trkpt>
      <trkpt lat="37.7844985015690326690673828125" lon="-107.7037476003170013427734375">
        <ele>4010.800048828125</ele>
        <time>2023-07-29T16:39:21.000Z</time>
        <extensions>
          <ns3:TrackPointExtension>
            <ns3:hr>93</ns3:hr>
            <ns3:cad>0</ns3:cad>
          </ns3:TrackPointExtension>
        </extensions>
      </trkpt>
      <trkpt lat="37.78449204750359058380126953125" lon="-107.70374584011733531951904296875">
        <ele>4010.60009765625</ele>
        <time>2023-07-29T16:39:22.000Z</time>
        <extensions>
          <ns3:TrackPointExtension>
            <ns3:hr>93</ns3:hr>
            <ns3:cad>0</ns3:cad>
          </ns3:TrackPointExtension>
        </extensions>
      </trkpt>
      <trkpt lat="37.7844864316284656524658203125" lon="-107.70374852232635021209716796875">
        <ele>4010.39990234375</ele>
        <time>2023-07-29T16:39:23.000Z</time>
        <extensions>
          <ns3:TrackPointExtension>
            <ns3:hr>94</ns3:hr>
            <ns3:cad>0</ns3:cad>
          </ns3:TrackPointExtension>
        </extensions>
      </trkpt>
      <trkpt lat="37.78447897173464298248291015625" lon="-107.70375019870698451995849609375">
        <ele>4010.199951171875</ele>
        <time>2023-07-29T16:39:24.000Z</time>
        <extensions>
          <ns3:TrackPointExtension>
            <ns3:hr>94</ns3:hr>
            <ns3:cad>48</ns3:cad>
          </ns3:TrackPointExtension>
        </extensions>
      </trkpt>
      <trkpt lat="37.784477211534976959228515625" lon="-107.70374919287860393524169921875">
        <ele>4009.800048828125</ele>
        <time>2023-07-29T16:39:25.000Z</time>
        <extensions>
          <ns3:TrackPointExtension>
            <ns3:hr>94</ns3:hr>
            <ns3:cad>48</ns3:cad>
          </ns3:TrackPointExtension>
        </extensions>
      </trkpt>
      <trkpt lat="37.78447352349758148193359375" lon="-107.70375086925923824310302734375">
        <ele>4009.60009765625</ele>
        <time>2023-07-29T16:39:26.000Z</time>
        <extensions>
          <ns3:TrackPointExtension>
            <ns3:hr>94</ns3:hr>
            <ns3:cad>0</ns3:cad>
          </ns3:TrackPointExtension>
        </extensions>
      </trkpt>
      <trkpt lat="37.7844710089266300201416015625" lon="-107.703751623630523681640625">
        <ele>4009.199951171875</ele>
        <time>2023-07-29T16:39:27.000Z</time>
        <extensions>
          <ns3:TrackPointExtension>
            <ns3:hr>94</ns3:hr>
            <ns3:cad>0</ns3:cad>
          </ns3:TrackPointExtension>
        </extensions>
      </trkpt>
      <trkpt lat="37.784468494355678558349609375" lon="-107.70375254563987255096435546875">
        <ele>4009.199951171875</ele>
        <time>2023-07-29T16:39:28.000Z</time>
        <extensions>
          <ns3:TrackPointExtension>
            <ns3:hr>94</ns3:hr>
            <ns3:cad>0</ns3:cad>
          </ns3:TrackPointExtension>
        </extensions>
      </trkpt>
      <trkpt lat="37.784465141594409942626953125" lon="-107.70375497639179229736328125">
        <ele>4009</ele>
        <time>2023-07-29T16:39:29.000Z</time>
        <extensions>
          <ns3:TrackPointExtension>
            <ns3:hr>94</ns3:hr>
            <ns3:cad>0</ns3:cad>
          </ns3:TrackPointExtension>
        </extensions>
      </trkpt>
      <trkpt lat="37.78446187265217304229736328125" lon="-107.703754641115665435791015625">
        <ele>4008.800048828125</ele>
        <time>2023-07-29T16:39:30.000Z</time>
        <extensions>
          <ns3:TrackPointExtension>
            <ns3:hr>94</ns3:hr>
            <ns3:cad>0</ns3:cad>
          </ns3:TrackPointExtension>
        </extensions>
      </trkpt>
      <trkpt lat="37.784459777176380157470703125" lon="-107.70375363528728485107421875">
        <ele>4008.60009765625</ele>
        <time>2023-07-29T16:39:31.000Z</time>
        <extensions>
          <ns3:TrackPointExtension>
            <ns3:hr>94</ns3:hr>
            <ns3:cad>0</ns3:cad>
          </ns3:TrackPointExtension>
        </extensions>
      </trkpt>
      <trkpt lat="37.78445315547287464141845703125" lon="-107.70375229418277740478515625">
        <ele>4008.39990234375</ele>
        <time>2023-07-29T16:39:32.000Z</time>
        <extensions>
          <ns3:TrackPointExtension>
            <ns3:hr>94</ns3:hr>
            <ns3:cad>0</ns3:cad>
          </ns3:TrackPointExtension>
        </extensions>
      </trkpt>
      <trkpt lat="37.7844522334635257720947265625" lon="-107.70374902524054050445556640625">
        <ele>4008.39990234375</ele>
        <time>2023-07-29T16:39:33.000Z</time>
        <extensions>
          <ns3:TrackPointExtension>
            <ns3:hr>95</ns3:hr>
            <ns3:cad>0</ns3:cad>
          </ns3:TrackPointExtension>
        </extensions>
      </trkpt>
      <trkpt lat="37.78444946743547916412353515625" lon="-107.7037454210221767425537109375">
        <ele>4008</ele>
        <time>2023-07-29T16:39:34.000Z</time>
        <extensions>
          <ns3:TrackPointExtension>
            <ns3:hr>95</ns3:hr>
            <ns3:cad>0</ns3:cad>
          </ns3:TrackPointExtension>
        </extensions>
      </trkpt>
      <trkpt lat="37.78444611467421054840087890625" lon="-107.703743241727352142333984375">
        <ele>4008</ele>
        <time>2023-07-29T16:39:35.000Z</time>
        <extensions>
          <ns3:TrackPointExtension>
            <ns3:hr>95</ns3:hr>
            <ns3:cad>0</ns3:cad>
          </ns3:TrackPointExtension>
        </extensions>
      </trkpt>
      <trkpt lat="37.7844388224184513092041015625" lon="-107.7037387154996395111083984375">
        <ele>4007.60009765625</ele>
        <time>2023-07-29T16:39:36.000Z</time>
        <extensions>
          <ns3:TrackPointExtension>
            <ns3:hr>95</ns3:hr>
            <ns3:cad>0</ns3:cad>
          </ns3:TrackPointExtension>
        </extensions>
      </trkpt>
      <trkpt lat="37.784428931772708892822265625" lon="-107.70373754203319549560546875">
        <ele>4007.60009765625</ele>
        <time>2023-07-29T16:39:37.000Z</time>
        <extensions>
          <ns3:TrackPointExtension>
            <ns3:hr>96</ns3:hr>
            <ns3:cad>0</ns3:cad>
          </ns3:TrackPointExtension>
        </extensions>
      </trkpt>
      <trkpt lat="37.7844220586121082305908203125" lon="-107.7037370391190052032470703125">
        <ele>4007.60009765625</ele>
        <time>2023-07-29T16:39:38.000Z</time>
        <extensions>
          <ns3:TrackPointExtension>
            <ns3:hr>96</ns3:hr>
            <ns3:cad>0</ns3:cad>
          </ns3:TrackPointExtension>
        </extensions>
      </trkpt>
      <trkpt lat="37.78441744856536388397216796875" lon="-107.70373879931867122650146484375">
        <ele>4007.39990234375</ele>
        <time>2023-07-29T16:39:39.000Z</time>
        <extensions>
          <ns3:TrackPointExtension>
            <ns3:hr>96</ns3:hr>
            <ns3:cad>71</ns3:cad>
          </ns3:TrackPointExtension>
        </extensions>
      </trkpt>
      <trkpt lat="37.7844183705747127532958984375" lon="-107.7037387154996395111083984375">
        <ele>4007.39990234375</ele>
        <time>2023-07-29T16:39:40.000Z</time>
        <extensions>
          <ns3:TrackPointExtension>
            <ns3:hr>96</ns3:hr>
            <ns3:cad>71</ns3:cad>
          </ns3:TrackPointExtension>
        </extensions>
      </trkpt>
      <trkpt lat="37.78441392816603183746337890625" lon="-107.7037460915744304656982421875">
        <ele>4007.39990234375</ele>
        <time>2023-07-29T16:39:41.000Z</time>
        <extensions>
          <ns3:TrackPointExtension>
            <ns3:hr>96</ns3:hr>
            <ns3:cad>71</ns3:cad>
          </ns3:TrackPointExtension>
        </extensions>
      </trkpt>
      <trkpt lat="37.7844130061566829681396484375" lon="-107.70375288091599941253662109375">
        <ele>4007.39990234375</ele>
        <time>2023-07-29T16:39:42.000Z</time>
        <extensions>
          <ns3:TrackPointExtension>
            <ns3:hr>96</ns3:hr>
            <ns3:cad>0</ns3:cad>
          </ns3:TrackPointExtension>
        </extensions>
      </trkpt>
      <trkpt lat="37.7844109944999217987060546875" lon="-107.703757323324680328369140625">
        <ele>4007.199951171875</ele>
        <time>2023-07-29T16:39:43.000Z</time>
        <extensions>
          <ns3:TrackPointExtension>
            <ns3:hr>96</ns3:hr>
            <ns3:cad>0</ns3:cad>
          </ns3:TrackPointExtension>
        </extensions>
      </trkpt>
      <trkpt lat="37.784409485757350921630859375" lon="-107.70376159809529781341552734375">
        <ele>4007</ele>
        <time>2023-07-29T16:39:44.000Z</time>
        <extensions>
          <ns3:TrackPointExtension>
            <ns3:hr>95</ns3:hr>
            <ns3:cad>0</ns3:cad>
          </ns3:TrackPointExtension>
        </extensions>
      </trkpt>
      <trkpt lat="37.78441208414733409881591796875" lon="-107.70376008935272693634033203125">
        <ele>4007</ele>
        <time>2023-07-29T16:39:45.000Z</time>
        <extensions>
          <ns3:TrackPointExtension>
            <ns3:hr>94</ns3:hr>
            <ns3:cad>0</ns3:cad>
          </ns3:TrackPointExtension>
        </extensions>
      </trkpt>
      <trkpt lat="37.78441107831895351409912109375" lon="-107.7037598378956317901611328125">
        <ele>4006.60009765625</ele>
        <time>2023-07-29T16:39:46.000Z</time>
        <extensions>
          <ns3:TrackPointExtension>
            <ns3:hr>94</ns3:hr>
            <ns3:cad>0</ns3:cad>
          </ns3:TrackPointExtension>
        </extensions>
      </trkpt>
      <trkpt lat="37.78441141359508037567138671875" lon="-107.70375858061015605926513671875">
        <ele>4006.60009765625</ele>
        <time>2023-07-29T16:39:47.000Z</time>
        <extensions>
          <ns3:TrackPointExtension>
            <ns3:hr>94</ns3:hr>
            <ns3:cad>0</ns3:cad>
          </ns3:TrackPointExtension>
        </extensions>
      </trkpt>
      <trkpt lat="37.784405462443828582763671875" lon="-107.7037628553807735443115234375">
        <ele>4006.39990234375</ele>
        <time>2023-07-29T16:39:48.000Z</time>
        <extensions>
          <ns3:TrackPointExtension>
            <ns3:hr>93</ns3:hr>
            <ns3:cad>0</ns3:cad>
          </ns3:TrackPointExtension>
        </extensions>
      </trkpt>
      <trkpt lat="37.78440403752028942108154296875" lon="-107.70376210100948810577392578125">
        <ele>4006.199951171875</ele>
        <time>2023-07-29T16:39:49.000Z</time>
        <extensions>
          <ns3:TrackPointExtension>
            <ns3:hr>93</ns3:hr>
            <ns3:cad>0</ns3:cad>
          </ns3:TrackPointExtension>
        </extensions>
      </trkpt>
      <trkpt lat="37.78440085239708423614501953125" lon="-107.70376025699079036712646484375">
        <ele>4006</ele>
        <time>2023-07-29T16:39:50.000Z</time>
        <extensions>
          <ns3:TrackPointExtension>
            <ns3:hr>93</ns3:hr>
            <ns3:cad>0</ns3:cad>
          </ns3:TrackPointExtension>
        </extensions>
      </trkpt>
      <trkpt lat="37.78439842164516448974609375" lon="-107.7037581615149974822998046875">
        <ele>4006</ele>
        <time>2023-07-29T16:39:51.000Z</time>
        <extensions>
          <ns3:TrackPointExtension>
            <ns3:hr>93</ns3:hr>
            <ns3:cad>71</ns3:cad>
          </ns3:TrackPointExtension>
        </extensions>
      </trkpt>
      <trkpt lat="37.78439833782613277435302734375" lon="-107.7037571556866168975830078125">
        <ele>4005.800048828125</ele>
        <time>2023-07-29T16:39:52.000Z</time>
        <extensions>
          <ns3:TrackPointExtension>
            <ns3:hr>93</ns3:hr>
            <ns3:cad>71</ns3:cad>
          </ns3:TrackPointExtension>
        </extensions>
      </trkpt>
      <trkpt lat="37.784392721951007843017578125" lon="-107.70375807769596576690673828125">
        <ele>4005.800048828125</ele>
        <time>2023-07-29T16:39:53.000Z</time>
        <extensions>
          <ns3:TrackPointExtension>
            <ns3:hr>93</ns3:hr>
            <ns3:cad>0</ns3:cad>
          </ns3:TrackPointExtension>
        </extensions>
      </trkpt>
      <trkpt lat="37.78439230285584926605224609375" lon="-107.7037574909627437591552734375">
        <ele>4005.60009765625</ele>
        <time>2023-07-29T16:39:54.000Z</time>
        <extensions>
          <ns3:TrackPointExtension>
            <ns3:hr>93</ns3:hr>
            <ns3:cad>0</ns3:cad>
          </ns3:TrackPointExtension>
        </extensions>
      </trkpt>
      <trkpt lat="37.78438777662813663482666015625" lon="-107.703755311667919158935546875">
        <ele>4005.60009765625</ele>
        <time>2023-07-29T16:39:55.000Z</time>
        <extensions>
          <ns3:TrackPointExtension>
            <ns3:hr>93</ns3:hr>
            <ns3:cad>0</ns3:cad>
          </ns3:TrackPointExtension>
        </extensions>
      </trkpt>
      <trkpt lat="37.78438291512429714202880859375" lon="-107.70375690422952175140380859375">
        <ele>4005.39990234375</ele>
        <time>2023-07-29T16:39:56.000Z</time>
        <extensions>
          <ns3:TrackPointExtension>
            <ns3:hr>94</ns3:hr>
            <ns3:cad>0</ns3:cad>
          </ns3:TrackPointExtension>
        </extensions>
      </trkpt>
      <trkpt lat="37.78437587432563304901123046875" lon="-107.70375874824821949005126953125">
        <ele>4005.39990234375</ele>
        <time>2023-07-29T16:39:57.000Z</time>
        <extensions>
          <ns3:TrackPointExtension>
            <ns3:hr>95</ns3:hr>
            <ns3:cad>0</ns3:cad>
          </ns3:TrackPointExtension>
        </extensions>
      </trkpt>
      <trkpt lat="37.7843694202601909637451171875" lon="-107.7037595026195049285888671875">
        <ele>4005</ele>
        <time>2023-07-29T16:39:58.000Z</time>
        <extensions>
          <ns3:TrackPointExtension>
            <ns3:hr>95</ns3:hr>
            <ns3:cad>0</ns3:cad>
          </ns3:TrackPointExtension>
        </extensions>
      </trkpt>
      <trkpt lat="37.78436296619474887847900390625" lon="-107.7037571556866168975830078125">
        <ele>4005</ele>
        <time>2023-07-29T16:39:59.000Z</time>
        <extensions>
          <ns3:TrackPointExtension>
            <ns3:hr>95</ns3:hr>
            <ns3:cad>0</ns3:cad>
          </ns3:TrackPointExtension>
        </extensions>
      </trkpt>
      <trkpt lat="37.78436078689992427825927734375" lon="-107.7037554793059825897216796875">
        <ele>4004.60009765625</ele>
        <time>2023-07-29T16:40:00.000Z</time>
        <extensions>
          <ns3:TrackPointExtension>
            <ns3:hr>95</ns3:hr>
            <ns3:cad>0</ns3:cad>
          </ns3:TrackPointExtension>
        </extensions>
      </trkpt>
      <trkpt lat="37.7843543328344821929931640625" lon="-107.7037534676492214202880859375">
        <ele>4004.60009765625</ele>
        <time>2023-07-29T16:40:01.000Z</time>
        <extensions>
          <ns3:TrackPointExtension>
            <ns3:hr>95</ns3:hr>
            <ns3:cad>0</ns3:cad>
          </ns3:TrackPointExtension>
        </extensions>
      </trkpt>
      <trkpt lat="37.78435341082513332366943359375" lon="-107.703751958906650543212890625">
        <ele>4004.60009765625</ele>
        <time>2023-07-29T16:40:02.000Z</time>
        <extensions>
          <ns3:TrackPointExtension>
            <ns3:hr>95</ns3:hr>
            <ns3:cad>0</ns3:cad>
          </ns3:TrackPointExtension>
        </extensions>
      </trkpt>
      <trkpt lat="37.78434670530259609222412109375" lon="-107.703747265040874481201171875">
        <ele>4004.199951171875</ele>
        <time>2023-07-29T16:40:03.000Z</time>
        <extensions>
          <ns3:TrackPointExtension>
            <ns3:hr>95</ns3:hr>
            <ns3:cad>0</ns3:cad>
          </ns3:TrackPointExtension>
        </extensions>
      </trkpt>
      <trkpt lat="37.78434469364583492279052734375" lon="-107.7037454210221767425537109375">
        <ele>4004.199951171875</ele>
        <time>2023-07-29T16:40:04.000Z</time>
        <extensions>
          <ns3:TrackPointExtension>
            <ns3:hr>94</ns3:hr>
            <ns3:cad>0</ns3:cad>
          </ns3:TrackPointExtension>
        </extensions>
      </trkpt>
      <trkpt lat="37.78434184379875659942626953125" lon="-107.703743241727352142333984375">
        <ele>4004</ele>
        <time>2023-07-29T16:40:05.000Z</time>
        <extensions>
          <ns3:TrackPointExtension>
            <ns3:hr>93</ns3:hr>
            <ns3:cad>0</ns3:cad>
          </ns3:TrackPointExtension>
        </extensions>
      </trkpt>
      <trkpt lat="37.78434167616069316864013671875" lon="-107.7037397213280200958251953125">
        <ele>4004</ele>
        <time>2023-07-29T16:40:06.000Z</time>
        <extensions>
          <ns3:TrackPointExtension>
            <ns3:hr>93</ns3:hr>
            <ns3:cad>0</ns3:cad>
          </ns3:TrackPointExtension>
        </extensions>
      </trkpt>
      <trkpt lat="37.78433714993298053741455078125" lon="-107.70373779349029064178466796875">
        <ele>4003.800048828125</ele>
        <time>2023-07-29T16:40:07.000Z</time>
        <extensions>
          <ns3:TrackPointExtension>
            <ns3:hr>93</ns3:hr>
            <ns3:cad>0</ns3:cad>
          </ns3:TrackPointExtension>
        </extensions>
      </trkpt>
      <trkpt lat="37.78433681465685367584228515625" lon="-107.70373779349029064178466796875">
        <ele>4003.800048828125</ele>
        <time>2023-07-29T16:40:08.000Z</time>
        <extensions>
          <ns3:TrackPointExtension>
            <ns3:hr>93</ns3:hr>
            <ns3:cad>0</ns3:cad>
          </ns3:TrackPointExtension>
        </extensions>
      </trkpt>
      <trkpt lat="37.784330360591411590576171875" lon="-107.703733853995800018310546875">
        <ele>4003.60009765625</ele>
        <time>2023-07-29T16:40:09.000Z</time>
        <extensions>
          <ns3:TrackPointExtension>
            <ns3:hr>93</ns3:hr>
            <ns3:cad>0</ns3:cad>
          </ns3:TrackPointExtension>
        </extensions>
      </trkpt>
      <trkpt lat="37.7843261696398258209228515625" lon="-107.70373092032968997955322265625">
        <ele>4003.39990234375</ele>
        <time>2023-07-29T16:40:10.000Z</time>
        <extensions>
          <ns3:TrackPointExtension>
            <ns3:hr>92</ns3:hr>
            <ns3:cad>0</ns3:cad>
          </ns3:TrackPointExtension>
        </extensions>
      </trkpt>
      <trkpt lat="37.784323990345001220703125" lon="-107.7037279866635799407958984375">
        <ele>4003.39990234375</ele>
        <time>2023-07-29T16:40:11.000Z</time>
        <extensions>
          <ns3:TrackPointExtension>
            <ns3:hr>92</ns3:hr>
            <ns3:cad>68</ns3:cad>
          </ns3:TrackPointExtension>
        </extensions>
      </trkpt>
      <trkpt lat="37.7843278460204601287841796875" lon="-107.70373645238578319549560546875">
        <ele>4003.199951171875</ele>
        <time>2023-07-29T16:40:12.000Z</time>
        <extensions>
          <ns3:TrackPointExtension>
            <ns3:hr>92</ns3:hr>
            <ns3:cad>68</ns3:cad>
          </ns3:TrackPointExtension>
        </extensions>
      </trkpt>
      <trkpt lat="37.78432759456336498260498046875" lon="-107.70373997278511524200439453125">
        <ele>4003.199951171875</ele>
        <time>2023-07-29T16:40:13.000Z</time>
        <extensions>
          <ns3:TrackPointExtension>
            <ns3:hr>92</ns3:hr>
            <ns3:cad>68</ns3:cad>
          </ns3:TrackPointExtension>
        </extensions>
      </trkpt>
      <trkpt lat="37.7843208052217960357666015625" lon="-107.703735195100307464599609375">
        <ele>4003</ele>
        <time>2023-07-29T16:40:14.000Z</time>
        <extensions>
          <ns3:TrackPointExtension>
            <ns3:hr>92</ns3:hr>
            <ns3:cad>63</ns3:cad>
          </ns3:TrackPointExtension>
        </extensions>
      </trkpt>
      <trkpt lat="37.78431988321244716644287109375" lon="-107.70373175852000713348388671875">
        <ele>4003</ele>
        <time>2023-07-29T16:40:15.000Z</time>
        <extensions>
          <ns3:TrackPointExtension>
            <ns3:hr>92</ns3:hr>
            <ns3:cad>63</ns3:cad>
          </ns3:TrackPointExtension>
        </extensions>
      </trkpt>
      <trkpt lat="37.78432005085051059722900390625" lon="-107.70373142324388027191162109375">
        <ele>4002.60009765625</ele>
        <time>2023-07-29T16:40:16.000Z</time>
        <extensions>
          <ns3:TrackPointExtension>
            <ns3:hr>92</ns3:hr>
            <ns3:cad>63</ns3:cad>
          </ns3:TrackPointExtension>
        </extensions>
      </trkpt>
      <trkpt lat="37.78431594371795654296875" lon="-107.70373351871967315673828125">
        <ele>4002.60009765625</ele>
        <time>2023-07-29T16:40:17.000Z</time>
        <extensions>
          <ns3:TrackPointExtension>
            <ns3:hr>92</ns3:hr>
            <ns3:cad>0</ns3:cad>
          </ns3:TrackPointExtension>
        </extensions>
      </trkpt>
      <trkpt lat="37.7843127585947513580322265625" lon="-107.7037323452532291412353515625">
        <ele>4002.60009765625</ele>
        <time>2023-07-29T16:40:18.000Z</time>
        <extensions>
          <ns3:TrackPointExtension>
            <ns3:hr>92</ns3:hr>
            <ns3:cad>0</ns3:cad>
          </ns3:TrackPointExtension>
        </extensions>
      </trkpt>
      <trkpt lat="37.7843073941767215728759765625" lon="-107.70373393781483173370361328125">
        <ele>4002.39990234375</ele>
        <time>2023-07-29T16:40:19.000Z</time>
        <extensions>
          <ns3:TrackPointExtension>
            <ns3:hr>92</ns3:hr>
            <ns3:cad>0</ns3:cad>
          </ns3:TrackPointExtension>
        </extensions>
      </trkpt>
      <trkpt lat="37.784305550158023834228515625" lon="-107.70373041741549968719482421875">
        <ele>4002.39990234375</ele>
        <time>2023-07-29T16:40:20.000Z</time>
        <extensions>
          <ns3:TrackPointExtension>
            <ns3:hr>92</ns3:hr>
            <ns3:cad>0</ns3:cad>
          </ns3:TrackPointExtension>
        </extensions>
      </trkpt>
      <trkpt lat="37.7843043766915798187255859375" lon="-107.703730501234531402587890625">
        <ele>4002.199951171875</ele>
        <time>2023-07-29T16:40:21.000Z</time>
        <extensions>
          <ns3:TrackPointExtension>
            <ns3:hr>92</ns3:hr>
            <ns3:cad>0</ns3:cad>
          </ns3:TrackPointExtension>
        </extensions>
      </trkpt>
      <trkpt lat="37.7842980064451694488525390625" lon="-107.7037286572158336639404296875">
        <ele>4002.199951171875</ele>
        <time>2023-07-29T16:40:22.000Z</time>
        <extensions>
          <ns3:TrackPointExtension>
            <ns3:hr>92</ns3:hr>
            <ns3:cad>0</ns3:cad>
          </ns3:TrackPointExtension>
        </extensions>
      </trkpt>
      <trkpt lat="37.78428819961845874786376953125" lon="-107.70372941158711910247802734375">
        <ele>4002</ele>
        <time>2023-07-29T16:40:23.000Z</time>
        <extensions>
          <ns3:TrackPointExtension>
            <ns3:hr>92</ns3:hr>
            <ns3:cad>0</ns3:cad>
          </ns3:TrackPointExtension>
        </extensions>
      </trkpt>
      <trkpt lat="37.78428736142814159393310546875" lon="-107.703735530376434326171875">
        <ele>4001.800048828125</ele>
        <time>2023-07-29T16:40:24.000Z</time>
        <extensions>
          <ns3:TrackPointExtension>
            <ns3:hr>92</ns3:hr>
            <ns3:cad>0</ns3:cad>
          </ns3:TrackPointExtension>
        </extensions>
      </trkpt>
      <trkpt lat="37.78428333811461925506591796875" lon="-107.70374215207993984222412109375">
        <ele>4001.60009765625</ele>
        <time>2023-07-29T16:40:25.000Z</time>
        <extensions>
          <ns3:TrackPointExtension>
            <ns3:hr>92</ns3:hr>
            <ns3:cad>0</ns3:cad>
          </ns3:TrackPointExtension>
        </extensions>
      </trkpt>
      <trkpt lat="37.7842778898775577545166015625" lon="-107.70373879931867122650146484375">
        <ele>4001.39990234375</ele>
        <time>2023-07-29T16:40:26.000Z</time>
        <extensions>
          <ns3:TrackPointExtension>
            <ns3:hr>92</ns3:hr>
            <ns3:cad>0</ns3:cad>
          </ns3:TrackPointExtension>
        </extensions>
      </trkpt>
      <trkpt lat="37.7842745371162891387939453125" lon="-107.70374022424221038818359375">
        <ele>4001</ele>
        <time>2023-07-29T16:40:27.000Z</time>
        <extensions>
          <ns3:TrackPointExtension>
            <ns3:hr>92</ns3:hr>
            <ns3:cad>0</ns3:cad>
          </ns3:TrackPointExtension>
        </extensions>
      </trkpt>
      <trkpt lat="37.7842690050601959228515625" lon="-107.70374433137476444244384765625">
        <ele>4000.800048828125</ele>
        <time>2023-07-29T16:40:28.000Z</time>
        <extensions>
          <ns3:TrackPointExtension>
            <ns3:hr>92</ns3:hr>
            <ns3:cad>0</ns3:cad>
          </ns3:TrackPointExtension>
        </extensions>
      </trkpt>
      <trkpt lat="37.78426724486052989959716796875" lon="-107.703743241727352142333984375">
        <ele>4000.60009765625</ele>
        <time>2023-07-29T16:40:29.000Z</time>
        <extensions>
          <ns3:TrackPointExtension>
            <ns3:hr>92</ns3:hr>
            <ns3:cad>0</ns3:cad>
          </ns3:TrackPointExtension>
        </extensions>
      </trkpt>
      <trkpt lat="37.78426506556570529937744140625" lon="-107.7037440799176692962646484375">
        <ele>4000.199951171875</ele>
        <time>2023-07-29T16:40:30.000Z</time>
        <extensions>
          <ns3:TrackPointExtension>
            <ns3:hr>91</ns3:hr>
            <ns3:cad>0</ns3:cad>
          </ns3:TrackPointExtension>
        </extensions>
      </trkpt>
      <trkpt lat="37.78426087461411952972412109375" lon="-107.703745923936367034912109375">
        <ele>4000.199951171875</ele>
        <time>2023-07-29T16:40:31.000Z</time>
        <extensions>
          <ns3:TrackPointExtension>
            <ns3:hr>91</ns3:hr>
            <ns3:cad>0</ns3:cad>
          </ns3:TrackPointExtension>
        </extensions>
      </trkpt>
      <trkpt lat="37.7842587791383266448974609375" lon="-107.70374684594571590423583984375">
        <ele>4000</ele>
        <time>2023-07-29T16:40:32.000Z</time>
        <extensions>
          <ns3:TrackPointExtension>
            <ns3:hr>91</ns3:hr>
            <ns3:cad>0</ns3:cad>
          </ns3:TrackPointExtension>
        </extensions>
      </trkpt>
      <trkpt lat="37.78425282798707485198974609375" lon="-107.7037477679550647735595703125">
        <ele>3999.800048828125</ele>
        <time>2023-07-29T16:40:33.000Z</time>
        <extensions>
          <ns3:TrackPointExtension>
            <ns3:hr>91</ns3:hr>
            <ns3:cad>0</ns3:cad>
          </ns3:TrackPointExtension>
        </extensions>
      </trkpt>
      <trkpt lat="37.7842470444738864898681640625" lon="-107.70374852232635021209716796875">
        <ele>3999.60009765625</ele>
        <time>2023-07-29T16:40:34.000Z</time>
        <extensions>
          <ns3:TrackPointExtension>
            <ns3:hr>91</ns3:hr>
            <ns3:cad>0</ns3:cad>
          </ns3:TrackPointExtension>
        </extensions>
      </trkpt>
      <trkpt lat="37.78424344025552272796630859375" lon="-107.7037424035370349884033203125">
        <ele>3999.60009765625</ele>
        <time>2023-07-29T16:40:35.000Z</time>
        <extensions>
          <ns3:TrackPointExtension>
            <ns3:hr>91</ns3:hr>
            <ns3:cad>17</ns3:cad>
          </ns3:TrackPointExtension>
        </extensions>
      </trkpt>
      <trkpt lat="37.784239836037158966064453125" lon="-107.703735195100307464599609375">
        <ele>3999.60009765625</ele>
        <time>2023-07-29T16:40:36.000Z</time>
        <extensions>
          <ns3:TrackPointExtension>
            <ns3:hr>91</ns3:hr>
            <ns3:cad>17</ns3:cad>
          </ns3:TrackPointExtension>
        </extensions>
      </trkpt>
      <trkpt lat="37.7842416800558567047119140625" lon="-107.7037289924919605255126953125">
        <ele>3999.60009765625</ele>
        <time>2023-07-29T16:40:37.000Z</time>
        <extensions>
          <ns3:TrackPointExtension>
            <ns3:hr>91</ns3:hr>
            <ns3:cad>17</ns3:cad>
          </ns3:TrackPointExtension>
        </extensions>
      </trkpt>
      <trkpt lat="37.78424092568457126617431640625" lon="-107.70372010767459869384765625">
        <ele>3999.60009765625</ele>
        <time>2023-07-29T16:40:38.000Z</time>
        <extensions>
          <ns3:TrackPointExtension>
            <ns3:hr>91</ns3:hr>
            <ns3:cad>0</ns3:cad>
          </ns3:TrackPointExtension>
        </extensions>
      </trkpt>
      <trkpt lat="37.784242518246173858642578125" lon="-107.7037165872752666473388671875">
        <ele>3999.60009765625</ele>
        <time>2023-07-29T16:40:39.000Z</time>
        <extensions>
          <ns3:TrackPointExtension>
            <ns3:hr>91</ns3:hr>
            <ns3:cad>0</ns3:cad>
          </ns3:TrackPointExtension>
        </extensions>
      </trkpt>
      <trkpt lat="37.784241177141666412353515625" lon="-107.70371499471366405487060546875">
        <ele>3999.60009765625</ele>
        <time>2023-07-29T16:40:40.000Z</time>
        <extensions>
          <ns3:TrackPointExtension>
            <ns3:hr>90</ns3:hr>
            <ns3:cad>0</ns3:cad>
          </ns3:TrackPointExtension>
        </extensions>
      </trkpt>
      <trkpt lat="37.784241177141666412353515625" lon="-107.70371499471366405487060546875">
        <ele>3999.60009765625</ele>
        <time>2023-07-29T16:40:41.000Z</time>
        <extensions>
          <ns3:TrackPointExtension>
            <ns3:hr>90</ns3:hr>
            <ns3:cad>0</ns3:cad>
          </ns3:TrackPointExtension>
        </extensions>
      </trkpt>
      <trkpt lat="37.784241177141666412353515625" lon="-107.70371499471366405487060546875">
        <ele>3999.39990234375</ele>
        <time>2023-07-29T16:40:42.000Z</time>
        <extensions>
          <ns3:TrackPointExtension>
            <ns3:hr>90</ns3:hr>
            <ns3:cad>0</ns3:cad>
          </ns3:TrackPointExtension>
        </extensions>
      </trkpt>
      <trkpt lat="37.784235477447509765625" lon="-107.7037152461707592010498046875">
        <ele>3999.199951171875</ele>
        <time>2023-07-29T16:40:43.000Z</time>
        <extensions>
          <ns3:TrackPointExtension>
            <ns3:hr>90</ns3:hr>
            <ns3:cad>0</ns3:cad>
          </ns3:TrackPointExtension>
        </extensions>
      </trkpt>
      <trkpt lat="37.784241177141666412353515625" lon="-107.70371499471366405487060546875">
        <ele>3998.800048828125</ele>
        <time>2023-07-29T16:40:44.000Z</time>
        <extensions>
          <ns3:TrackPointExtension>
            <ns3:hr>90</ns3:hr>
            <ns3:cad>0</ns3:cad>
          </ns3:TrackPointExtension>
        </extensions>
      </trkpt>
      <trkpt lat="37.78423505835235118865966796875" lon="-107.703719101846218109130859375">
        <ele>3998.60009765625</ele>
        <time>2023-07-29T16:40:45.000Z</time>
        <extensions>
          <ns3:TrackPointExtension>
            <ns3:hr>90</ns3:hr>
            <ns3:cad>0</ns3:cad>
          </ns3:TrackPointExtension>
        </extensions>
      </trkpt>
      <trkpt lat="37.78423220850527286529541015625" lon="-107.70371801219880580902099609375">
        <ele>3998.39990234375</ele>
        <time>2023-07-29T16:40:46.000Z</time>
        <extensions>
          <ns3:TrackPointExtension>
            <ns3:hr>90</ns3:hr>
            <ns3:cad>0</ns3:cad>
          </ns3:TrackPointExtension>
        </extensions>
      </trkpt>
      <trkpt lat="37.784232459962368011474609375" lon="-107.7037149108946323394775390625">
        <ele>3997.800048828125</ele>
        <time>2023-07-29T16:40:47.000Z</time>
        <extensions>
          <ns3:TrackPointExtension>
            <ns3:hr>90</ns3:hr>
            <ns3:cad>0</ns3:cad>
          </ns3:TrackPointExtension>
        </extensions>
      </trkpt>
      <trkpt lat="37.78422273695468902587890625" lon="-107.70371968857944011688232421875">
        <ele>3997.60009765625</ele>
        <time>2023-07-29T16:40:48.000Z</time>
        <extensions>
          <ns3:TrackPointExtension>
            <ns3:hr>90</ns3:hr>
            <ns3:cad>0</ns3:cad>
          </ns3:TrackPointExtension>
        </extensions>
      </trkpt>
      <trkpt lat="37.78421829454600811004638671875" lon="-107.703723125159740447998046875">
        <ele>3997.39990234375</ele>
        <time>2023-07-29T16:40:49.000Z</time>
        <extensions>
          <ns3:TrackPointExtension>
            <ns3:hr>90</ns3:hr>
            <ns3:cad>0</ns3:cad>
          </ns3:TrackPointExtension>
        </extensions>
      </trkpt>
      <trkpt lat="37.78421829454600811004638671875" lon="-107.703723125159740447998046875">
        <ele>3997.199951171875</ele>
        <time>2023-07-29T16:40:50.000Z</time>
        <extensions>
          <ns3:TrackPointExtension>
            <ns3:hr>90</ns3:hr>
            <ns3:cad>0</ns3:cad>
          </ns3:TrackPointExtension>
        </extensions>
      </trkpt>
      <trkpt lat="37.7842141874134540557861328125" lon="-107.70372337661683559417724609375">
        <ele>3997</ele>
        <time>2023-07-29T16:40:51.000Z</time>
        <extensions>
          <ns3:TrackPointExtension>
            <ns3:hr>90</ns3:hr>
            <ns3:cad>0</ns3:cad>
          </ns3:TrackPointExtension>
        </extensions>
      </trkpt>
      <trkpt lat="37.78421075083315372467041015625" lon="-107.70372672937810420989990234375">
        <ele>3997</ele>
        <time>2023-07-29T16:40:52.000Z</time>
        <extensions>
          <ns3:TrackPointExtension>
            <ns3:hr>90</ns3:hr>
            <ns3:cad>0</ns3:cad>
          </ns3:TrackPointExtension>
        </extensions>
      </trkpt>
      <trkpt lat="37.784211672842502593994140625" lon="-107.70372170023620128631591796875">
        <ele>3997</ele>
        <time>2023-07-29T16:40:53.000Z</time>
        <extensions>
          <ns3:TrackPointExtension>
            <ns3:hr>90</ns3:hr>
            <ns3:cad>0</ns3:cad>
          </ns3:TrackPointExtension>
        </extensions>
      </trkpt>
      <trkpt lat="37.784210331737995147705078125" lon="-107.70372052676975727081298828125">
        <ele>3997</ele>
        <time>2023-07-29T16:40:54.000Z</time>
        <extensions>
          <ns3:TrackPointExtension>
            <ns3:hr>89</ns3:hr>
            <ns3:cad>0</ns3:cad>
          </ns3:TrackPointExtension>
        </extensions>
      </trkpt>
      <trkpt lat="37.78421075083315372467041015625" lon="-107.70372086204588413238525390625">
        <ele>3996.800048828125</ele>
        <time>2023-07-29T16:40:55.000Z</time>
        <extensions>
          <ns3:TrackPointExtension>
            <ns3:hr>89</ns3:hr>
            <ns3:cad>0</ns3:cad>
          </ns3:TrackPointExtension>
        </extensions>
      </trkpt>
      <trkpt lat="37.7842098288238048553466796875" lon="-107.70372102968394756317138671875">
        <ele>3996.60009765625</ele>
        <time>2023-07-29T16:40:56.000Z</time>
        <extensions>
          <ns3:TrackPointExtension>
            <ns3:hr>89</ns3:hr>
            <ns3:cad>0</ns3:cad>
          </ns3:TrackPointExtension>
        </extensions>
      </trkpt>
      <trkpt lat="37.78420857153832912445068359375" lon="-107.7037209458649158477783203125">
        <ele>3996.39990234375</ele>
        <time>2023-07-29T16:40:57.000Z</time>
        <extensions>
          <ns3:TrackPointExtension>
            <ns3:hr>89</ns3:hr>
            <ns3:cad>0</ns3:cad>
          </ns3:TrackPointExtension>
        </extensions>
      </trkpt>
      <trkpt lat="37.78420664370059967041015625" lon="-107.70372186787426471710205078125">
        <ele>3996.199951171875</ele>
        <time>2023-07-29T16:40:58.000Z</time>
        <extensions>
          <ns3:TrackPointExtension>
            <ns3:hr>89</ns3:hr>
            <ns3:cad>0</ns3:cad>
          </ns3:TrackPointExtension>
        </extensions>
      </trkpt>
      <trkpt lat="37.78420588932931423187255859375" lon="-107.70372211933135986328125">
        <ele>3996.199951171875</ele>
        <time>2023-07-29T16:40:59.000Z</time>
        <extensions>
          <ns3:TrackPointExtension>
            <ns3:hr>89</ns3:hr>
            <ns3:cad>0</ns3:cad>
          </ns3:TrackPointExtension>
        </extensions>
      </trkpt>
      <trkpt lat="37.7842032909393310546875" lon="-107.7037249691784381866455078125">
        <ele>3996.199951171875</ele>
        <time>2023-07-29T16:41:00.000Z</time>
        <extensions>
          <ns3:TrackPointExtension>
            <ns3:hr>89</ns3:hr>
            <ns3:cad>0</ns3:cad>
          </ns3:TrackPointExtension>
        </extensions>
      </trkpt>
      <trkpt lat="37.78420471586287021636962890625" lon="-107.70372949540615081787109375">
        <ele>3996.199951171875</ele>
        <time>2023-07-29T16:41:01.000Z</time>
        <extensions>
          <ns3:TrackPointExtension>
            <ns3:hr>90</ns3:hr>
            <ns3:cad>0</ns3:cad>
          </ns3:TrackPointExtension>
        </extensions>
      </trkpt>
      <trkpt lat="37.7842031233012676239013671875" lon="-107.70373159088194370269775390625">
        <ele>3996</ele>
        <time>2023-07-29T16:41:02.000Z</time>
        <extensions>
          <ns3:TrackPointExtension>
            <ns3:hr>90</ns3:hr>
            <ns3:cad>0</ns3:cad>
          </ns3:TrackPointExtension>
        </extensions>
      </trkpt>
      <trkpt lat="37.78420287184417247772216796875" lon="-107.7037315070629119873046875">
        <ele>3996</ele>
        <time>2023-07-29T16:41:03.000Z</time>
        <extensions>
          <ns3:TrackPointExtension>
            <ns3:hr>90</ns3:hr>
            <ns3:cad>0</ns3:cad>
          </ns3:TrackPointExtension>
        </extensions>
      </trkpt>
      <trkpt lat="37.784202955663204193115234375" lon="-107.70373276434838771820068359375">
        <ele>3995.800048828125</ele>
        <time>2023-07-29T16:41:04.000Z</time>
        <extensions>
          <ns3:TrackPointExtension>
            <ns3:hr>90</ns3:hr>
            <ns3:cad>0</ns3:cad>
          </ns3:TrackPointExtension>
        </extensions>
      </trkpt>
      <trkpt lat="37.784201614558696746826171875" lon="-107.70373477600514888763427734375">
        <ele>3995.39990234375</ele>
        <time>2023-07-29T16:41:05.000Z</time>
        <extensions>
          <ns3:TrackPointExtension>
            <ns3:hr>90</ns3:hr>
            <ns3:cad>0</ns3:cad>
          </ns3:TrackPointExtension>
        </extensions>
      </trkpt>
      <trkpt lat="37.78419683687388896942138671875" lon="-107.70373276434838771820068359375">
        <ele>3995.199951171875</ele>
        <time>2023-07-29T16:41:06.000Z</time>
        <extensions>
          <ns3:TrackPointExtension>
            <ns3:hr>91</ns3:hr>
            <ns3:cad>0</ns3:cad>
          </ns3:TrackPointExtension>
        </extensions>
      </trkpt>
      <trkpt lat="37.7841934002935886383056640625" lon="-107.70373242907226085662841796875">
        <ele>3995.199951171875</ele>
        <time>2023-07-29T16:41:07.000Z</time>
        <extensions>
          <ns3:TrackPointExtension>
            <ns3:hr>91</ns3:hr>
            <ns3:cad>0</ns3:cad>
          </ns3:TrackPointExtension>
        </extensions>
      </trkpt>
      <trkpt lat="37.784191556274890899658203125" lon="-107.7037336863577365875244140625">
        <ele>3995.199951171875</ele>
        <time>2023-07-29T16:41:08.000Z</time>
        <extensions>
          <ns3:TrackPointExtension>
            <ns3:hr>92</ns3:hr>
            <ns3:cad>0</ns3:cad>
          </ns3:TrackPointExtension>
        </extensions>
      </trkpt>
      <trkpt lat="37.7841890417039394378662109375" lon="-107.70373511128127574920654296875">
        <ele>3995.199951171875</ele>
        <time>2023-07-29T16:41:09.000Z</time>
        <extensions>
          <ns3:TrackPointExtension>
            <ns3:hr>92</ns3:hr>
            <ns3:cad>0</ns3:cad>
          </ns3:TrackPointExtension>
        </extensions>
      </trkpt>
      <trkpt lat="37.78418778441846370697021484375" lon="-107.70373695529997348785400390625">
        <ele>3995</ele>
        <time>2023-07-29T16:41:10.000Z</time>
        <extensions>
          <ns3:TrackPointExtension>
            <ns3:hr>92</ns3:hr>
            <ns3:cad>0</ns3:cad>
          </ns3:TrackPointExtension>
        </extensions>
      </trkpt>
      <trkpt lat="37.78418510220944881439208984375" lon="-107.70374231971800327301025390625">
        <ele>3994.800048828125</ele>
        <time>2023-07-29T16:41:11.000Z</time>
        <extensions>
          <ns3:TrackPointExtension>
            <ns3:hr>92</ns3:hr>
            <ns3:cad>0</ns3:cad>
          </ns3:TrackPointExtension>
        </extensions>
      </trkpt>
      <trkpt lat="37.7841804921627044677734375" lon="-107.70374466665089130401611328125">
        <ele>3994.800048828125</ele>
        <time>2023-07-29T16:41:12.000Z</time>
        <extensions>
          <ns3:TrackPointExtension>
            <ns3:hr>92</ns3:hr>
            <ns3:cad>0</ns3:cad>
          </ns3:TrackPointExtension>
        </extensions>
      </trkpt>
      <trkpt lat="37.7841779775917530059814453125" lon="-107.7037481032311916351318359375">
        <ele>3994.800048828125</ele>
        <time>2023-07-29T16:41:13.000Z</time>
        <extensions>
          <ns3:TrackPointExtension>
            <ns3:hr>92</ns3:hr>
            <ns3:cad>0</ns3:cad>
          </ns3:TrackPointExtension>
        </extensions>
      </trkpt>
      <trkpt lat="37.78417177498340606689453125" lon="-107.7037531323730945587158203125">
        <ele>3994.60009765625</ele>
        <time>2023-07-29T16:41:14.000Z</time>
        <extensions>
          <ns3:TrackPointExtension>
            <ns3:hr>92</ns3:hr>
            <ns3:cad>0</ns3:cad>
          </ns3:TrackPointExtension>
        </extensions>
      </trkpt>
      <trkpt lat="37.78416884131729602813720703125" lon="-107.703761346638202667236328125">
        <ele>3994.60009765625</ele>
        <time>2023-07-29T16:41:15.000Z</time>
        <extensions>
          <ns3:TrackPointExtension>
            <ns3:hr>92</ns3:hr>
            <ns3:cad>0</ns3:cad>
          </ns3:TrackPointExtension>
        </extensions>
      </trkpt>
      <trkpt lat="37.7841625548899173736572265625" lon="-107.70376495085656642913818359375">
        <ele>3994.39990234375</ele>
        <time>2023-07-29T16:41:16.000Z</time>
        <extensions>
          <ns3:TrackPointExtension>
            <ns3:hr>93</ns3:hr>
            <ns3:cad>0</ns3:cad>
          </ns3:TrackPointExtension>
        </extensions>
      </trkpt>
      <trkpt lat="37.78416280634701251983642578125" lon="-107.7037652023136615753173828125">
        <ele>3994.39990234375</ele>
        <time>2023-07-29T16:41:17.000Z</time>
        <extensions>
          <ns3:TrackPointExtension>
            <ns3:hr>92</ns3:hr>
            <ns3:cad>0</ns3:cad>
          </ns3:TrackPointExtension>
        </extensions>
      </trkpt>
      <trkpt lat="37.7841575257480144500732421875" lon="-107.70376981236040592193603515625">
        <ele>3994.39990234375</ele>
        <time>2023-07-29T16:41:18.000Z</time>
        <extensions>
          <ns3:TrackPointExtension>
            <ns3:hr>92</ns3:hr>
            <ns3:cad>0</ns3:cad>
          </ns3:TrackPointExtension>
        </extensions>
      </trkpt>
      <trkpt lat="37.78415392152965068817138671875" lon="-107.703764699399471282958984375">
        <ele>3994.199951171875</ele>
        <time>2023-07-29T16:41:19.000Z</time>
        <extensions>
          <ns3:TrackPointExtension>
            <ns3:hr>92</ns3:hr>
            <ns3:cad>0</ns3:cad>
          </ns3:TrackPointExtension>
        </extensions>
      </trkpt>
      <trkpt lat="37.78414922766387462615966796875" lon="-107.70376092754304409027099609375">
        <ele>3994.199951171875</ele>
        <time>2023-07-29T16:41:20.000Z</time>
        <extensions>
          <ns3:TrackPointExtension>
            <ns3:hr>92</ns3:hr>
            <ns3:cad>0</ns3:cad>
          </ns3:TrackPointExtension>
        </extensions>
      </trkpt>
      <trkpt lat="37.78414453379809856414794921875" lon="-107.70376143045723438262939453125">
        <ele>3994.199951171875</ele>
        <time>2023-07-29T16:41:21.000Z</time>
        <extensions>
          <ns3:TrackPointExtension>
            <ns3:hr>93</ns3:hr>
            <ns3:cad>0</ns3:cad>
          </ns3:TrackPointExtension>
        </extensions>
      </trkpt>
      <trkpt lat="37.78414361178874969482421875" lon="-107.70376092754304409027099609375">
        <ele>3993.800048828125</ele>
        <time>2023-07-29T16:41:22.000Z</time>
        <extensions>
          <ns3:TrackPointExtension>
            <ns3:hr>93</ns3:hr>
            <ns3:cad>0</ns3:cad>
          </ns3:TrackPointExtension>
        </extensions>
      </trkpt>
      <trkpt lat="37.78414386324584484100341796875" lon="-107.703756652772426605224609375">
        <ele>3993.800048828125</ele>
        <time>2023-07-29T16:41:23.000Z</time>
        <extensions>
          <ns3:TrackPointExtension>
            <ns3:hr>93</ns3:hr>
            <ns3:cad>0</ns3:cad>
          </ns3:TrackPointExtension>
        </extensions>
      </trkpt>
      <trkpt lat="37.78414235450327396392822265625" lon="-107.7037564851343631744384765625">
        <ele>3993.60009765625</ele>
        <time>2023-07-29T16:41:24.000Z</time>
        <extensions>
          <ns3:TrackPointExtension>
            <ns3:hr>93</ns3:hr>
            <ns3:cad>0</ns3:cad>
          </ns3:TrackPointExtension>
        </extensions>
      </trkpt>
      <trkpt lat="37.78413950465619564056396484375" lon="-107.70375321619212627410888671875">
        <ele>3993.60009765625</ele>
        <time>2023-07-29T16:41:25.000Z</time>
        <extensions>
          <ns3:TrackPointExtension>
            <ns3:hr>93</ns3:hr>
            <ns3:cad>0</ns3:cad>
          </ns3:TrackPointExtension>
        </extensions>
      </trkpt>
      <trkpt lat="37.7841360680758953094482421875" lon="-107.7037497796118259429931640625">
        <ele>3993.60009765625</ele>
        <time>2023-07-29T16:41:26.000Z</time>
        <extensions>
          <ns3:TrackPointExtension>
            <ns3:hr>93</ns3:hr>
            <ns3:cad>0</ns3:cad>
          </ns3:TrackPointExtension>
        </extensions>
      </trkpt>
      <trkpt lat="37.78414067812263965606689453125" lon="-107.70375388674437999725341796875">
        <ele>3993.39990234375</ele>
        <time>2023-07-29T16:41:27.000Z</time>
        <extensions>
          <ns3:TrackPointExtension>
            <ns3:hr>93</ns3:hr>
            <ns3:cad>0</ns3:cad>
          </ns3:TrackPointExtension>
        </extensions>
      </trkpt>
      <trkpt lat="37.784139923751354217529296875" lon="-107.70375522784888744354248046875">
        <ele>3993.39990234375</ele>
        <time>2023-07-29T16:41:28.000Z</time>
        <extensions>
          <ns3:TrackPointExtension>
            <ns3:hr>92</ns3:hr>
            <ns3:cad>0</ns3:cad>
          </ns3:TrackPointExtension>
        </extensions>
      </trkpt>
      <trkpt lat="37.7841402590274810791015625" lon="-107.7037571556866168975830078125">
        <ele>3993.39990234375</ele>
        <time>2023-07-29T16:41:29.000Z</time>
        <extensions>
          <ns3:TrackPointExtension>
            <ns3:hr>92</ns3:hr>
            <ns3:cad>0</ns3:cad>
          </ns3:TrackPointExtension>
        </extensions>
      </trkpt>
      <trkpt lat="37.7841375768184661865234375" lon="-107.70375631749629974365234375">
        <ele>3993.199951171875</ele>
        <time>2023-07-29T16:41:30.000Z</time>
        <extensions>
          <ns3:TrackPointExtension>
            <ns3:hr>92</ns3:hr>
            <ns3:cad>0</ns3:cad>
          </ns3:TrackPointExtension>
        </extensions>
      </trkpt>
      <trkpt lat="37.784133218228816986083984375" lon="-107.70375170744955539703369140625">
        <ele>3993</ele>
        <time>2023-07-29T16:41:31.000Z</time>
        <extensions>
          <ns3:TrackPointExtension>
            <ns3:hr>92</ns3:hr>
            <ns3:cad>0</ns3:cad>
          </ns3:TrackPointExtension>
        </extensions>
      </trkpt>
      <trkpt lat="37.78412978164851665496826171875" lon="-107.70374801941215991973876953125">
        <ele>3992.800048828125</ele>
        <time>2023-07-29T16:41:32.000Z</time>
        <extensions>
          <ns3:TrackPointExtension>
            <ns3:hr>91</ns3:hr>
            <ns3:cad>0</ns3:cad>
          </ns3:TrackPointExtension>
        </extensions>
      </trkpt>
      <trkpt lat="37.784126512706279754638671875" lon="-107.70374433137476444244384765625">
        <ele>3992.800048828125</ele>
        <time>2023-07-29T16:41:33.000Z</time>
        <extensions>
          <ns3:TrackPointExtension>
            <ns3:hr>91</ns3:hr>
            <ns3:cad>0</ns3:cad>
          </ns3:TrackPointExtension>
        </extensions>
      </trkpt>
      <trkpt lat="37.78412408195436000823974609375" lon="-107.703741900622844696044921875">
        <ele>3992.60009765625</ele>
        <time>2023-07-29T16:41:34.000Z</time>
        <extensions>
          <ns3:TrackPointExtension>
            <ns3:hr>90</ns3:hr>
            <ns3:cad>0</ns3:cad>
          </ns3:TrackPointExtension>
        </extensions>
      </trkpt>
      <trkpt lat="37.78412290848791599273681640625" lon="-107.70374097861349582672119140625">
        <ele>3992.39990234375</ele>
        <time>2023-07-29T16:41:35.000Z</time>
        <extensions>
          <ns3:TrackPointExtension>
            <ns3:hr>90</ns3:hr>
            <ns3:cad>0</ns3:cad>
          </ns3:TrackPointExtension>
        </extensions>
      </trkpt>
      <trkpt lat="37.7841193042695522308349609375" lon="-107.70373930223286151885986328125">
        <ele>3992.39990234375</ele>
        <time>2023-07-29T16:41:36.000Z</time>
        <extensions>
          <ns3:TrackPointExtension>
            <ns3:hr>90</ns3:hr>
            <ns3:cad>0</ns3:cad>
          </ns3:TrackPointExtension>
        </extensions>
      </trkpt>
      <trkpt lat="37.7841115929186344146728515625" lon="-107.70373226143419742584228515625">
        <ele>3992.199951171875</ele>
        <time>2023-07-29T16:41:37.000Z</time>
        <extensions>
          <ns3:TrackPointExtension>
            <ns3:hr>89</ns3:hr>
            <ns3:cad>0</ns3:cad>
          </ns3:TrackPointExtension>
        </extensions>
      </trkpt>
      <trkpt lat="37.78410849161446094512939453125" lon="-107.70372739993035793304443359375">
        <ele>3992.199951171875</ele>
        <time>2023-07-29T16:41:38.000Z</time>
        <extensions>
          <ns3:TrackPointExtension>
            <ns3:hr>88</ns3:hr>
            <ns3:cad>0</ns3:cad>
          </ns3:TrackPointExtension>
        </extensions>
      </trkpt>
      <trkpt lat="37.78410480357706546783447265625" lon="-107.70371817983686923980712890625">
        <ele>3992.199951171875</ele>
        <time>2023-07-29T16:41:39.000Z</time>
        <extensions>
          <ns3:TrackPointExtension>
            <ns3:hr>88</ns3:hr>
            <ns3:cad>0</ns3:cad>
          </ns3:TrackPointExtension>
        </extensions>
      </trkpt>
      <trkpt lat="37.78410471975803375244140625" lon="-107.70371851511299610137939453125">
        <ele>3992</ele>
        <time>2023-07-29T16:41:40.000Z</time>
        <extensions>
          <ns3:TrackPointExtension>
            <ns3:hr>87</ns3:hr>
            <ns3:cad>0</ns3:cad>
          </ns3:TrackPointExtension>
        </extensions>
      </trkpt>
      <trkpt lat="37.7841062285006046295166015625" lon="-107.70371717400848865509033203125">
        <ele>3991.60009765625</ele>
        <time>2023-07-29T16:41:41.000Z</time>
        <extensions>
          <ns3:TrackPointExtension>
            <ns3:hr>87</ns3:hr>
            <ns3:cad>0</ns3:cad>
          </ns3:TrackPointExtension>
        </extensions>
      </trkpt>
      <trkpt lat="37.7841085754334926605224609375" lon="-107.70371633581817150115966796875">
        <ele>3991.39990234375</ele>
        <time>2023-07-29T16:41:42.000Z</time>
        <extensions>
          <ns3:TrackPointExtension>
            <ns3:hr>86</ns3:hr>
            <ns3:cad>0</ns3:cad>
          </ns3:TrackPointExtension>
        </extensions>
      </trkpt>
      <trkpt lat="37.78410614468157291412353515625" lon="-107.70371248014271259307861328125">
        <ele>3991.199951171875</ele>
        <time>2023-07-29T16:41:43.000Z</time>
        <extensions>
          <ns3:TrackPointExtension>
            <ns3:hr>86</ns3:hr>
            <ns3:cad>0</ns3:cad>
          </ns3:TrackPointExtension>
        </extensions>
      </trkpt>
      <trkpt lat="37.7841027081012725830078125" lon="-107.7037075348198413848876953125">
        <ele>3991</ele>
        <time>2023-07-29T16:41:44.000Z</time>
        <extensions>
          <ns3:TrackPointExtension>
            <ns3:hr>85</ns3:hr>
            <ns3:cad>0</ns3:cad>
          </ns3:TrackPointExtension>
        </extensions>
      </trkpt>
      <trkpt lat="37.7840981818735599517822265625" lon="-107.70369705744087696075439453125">
        <ele>3990.800048828125</ele>
        <time>2023-07-29T16:41:45.000Z</time>
        <extensions>
          <ns3:TrackPointExtension>
            <ns3:hr>84</ns3:hr>
            <ns3:cad>0</ns3:cad>
          </ns3:TrackPointExtension>
        </extensions>
      </trkpt>
      <trkpt lat="37.784098349511623382568359375" lon="-107.70369328558444976806640625">
        <ele>3990.60009765625</ele>
        <time>2023-07-29T16:41:46.000Z</time>
        <extensions>
          <ns3:TrackPointExtension>
            <ns3:hr>83</ns3:hr>
            <ns3:cad>0</ns3:cad>
          </ns3:TrackPointExtension>
        </extensions>
      </trkpt>
      <trkpt lat="37.7840973436832427978515625" lon="-107.703687585890293121337890625">
        <ele>3990.39990234375</ele>
        <time>2023-07-29T16:41:47.000Z</time>
        <extensions>
          <ns3:TrackPointExtension>
            <ns3:hr>83</ns3:hr>
            <ns3:cad>0</ns3:cad>
          </ns3:TrackPointExtension>
        </extensions>
      </trkpt>
      <trkpt lat="37.78408468700945377349853515625" lon="-107.70368917845189571380615234375">
        <ele>3990.39990234375</ele>
        <time>2023-07-29T16:41:48.000Z</time>
        <extensions>
          <ns3:TrackPointExtension>
            <ns3:hr>83</ns3:hr>
            <ns3:cad>0</ns3:cad>
          </ns3:TrackPointExtension>
        </extensions>
      </trkpt>
      <trkpt lat="37.78407831676304340362548828125" lon="-107.703686915338039398193359375">
        <ele>3990.39990234375</ele>
        <time>2023-07-29T16:41:49.000Z</time>
        <extensions>
          <ns3:TrackPointExtension>
            <ns3:hr>82</ns3:hr>
            <ns3:cad>0</ns3:cad>
          </ns3:TrackPointExtension>
        </extensions>
      </trkpt>
      <trkpt lat="37.78408066369593143463134765625" lon="-107.703694961965084075927734375">
        <ele>3990.199951171875</ele>
        <time>2023-07-29T16:41:50.000Z</time>
        <extensions>
          <ns3:TrackPointExtension>
            <ns3:hr>82</ns3:hr>
            <ns3:cad>0</ns3:cad>
          </ns3:TrackPointExtension>
        </extensions>
      </trkpt>
      <trkpt lat="37.7840797416865825653076171875" lon="-107.7036958001554012298583984375">
        <ele>3989.800048828125</ele>
        <time>2023-07-29T16:41:51.000Z</time>
        <extensions>
          <ns3:TrackPointExtension>
            <ns3:hr>82</ns3:hr>
            <ns3:cad>0</ns3:cad>
          </ns3:TrackPointExtension>
        </extensions>
      </trkpt>
      <trkpt lat="37.78407680802047252655029296875" lon="-107.70370074547827243804931640625">
        <ele>3989.60009765625</ele>
        <time>2023-07-29T16:41:52.000Z</time>
        <extensions>
          <ns3:TrackPointExtension>
            <ns3:hr>82</ns3:hr>
            <ns3:cad>0</ns3:cad>
          </ns3:TrackPointExtension>
        </extensions>
      </trkpt>
      <trkpt lat="37.78407596983015537261962890625" lon="-107.70370208658277988433837890625">
        <ele>3989.39990234375</ele>
        <time>2023-07-29T16:41:53.000Z</time>
        <extensions>
          <ns3:TrackPointExtension>
            <ns3:hr>81</ns3:hr>
            <ns3:cad>0</ns3:cad>
          </ns3:TrackPointExtension>
        </extensions>
      </trkpt>
      <trkpt lat="37.784072868525981903076171875" lon="-107.7037078700959682464599609375">
        <ele>3989.199951171875</ele>
        <time>2023-07-29T16:41:54.000Z</time>
        <extensions>
          <ns3:TrackPointExtension>
            <ns3:hr>81</ns3:hr>
            <ns3:cad>0</ns3:cad>
          </ns3:TrackPointExtension>
        </extensions>
      </trkpt>
      <trkpt lat="37.78407144360244274139404296875" lon="-107.703708373010158538818359375">
        <ele>3989.199951171875</ele>
        <time>2023-07-29T16:41:55.000Z</time>
        <extensions>
          <ns3:TrackPointExtension>
            <ns3:hr>81</ns3:hr>
            <ns3:cad>0</ns3:cad>
          </ns3:TrackPointExtension>
        </extensions>
      </trkpt>
      <trkpt lat="37.7840686775743961334228515625" lon="-107.70371474325656890869140625">
        <ele>3989</ele>
        <time>2023-07-29T16:41:56.000Z</time>
        <extensions>
          <ns3:TrackPointExtension>
            <ns3:hr>81</ns3:hr>
            <ns3:cad>0</ns3:cad>
          </ns3:TrackPointExtension>
        </extensions>
      </trkpt>
      <trkpt lat="37.78406725265085697174072265625" lon="-107.70371532998979091644287109375">
        <ele>3988.800048828125</ele>
        <time>2023-07-29T16:41:57.000Z</time>
        <extensions>
          <ns3:TrackPointExtension>
            <ns3:hr>81</ns3:hr>
            <ns3:cad>0</ns3:cad>
          </ns3:TrackPointExtension>
        </extensions>
      </trkpt>
      <trkpt lat="37.7840659953653812408447265625" lon="-107.7037216164171695709228515625">
        <ele>3988.60009765625</ele>
        <time>2023-07-29T16:41:58.000Z</time>
        <extensions>
          <ns3:TrackPointExtension>
            <ns3:hr>80</ns3:hr>
            <ns3:cad>0</ns3:cad>
          </ns3:TrackPointExtension>
        </extensions>
      </trkpt>
      <trkpt lat="37.78406389988958835601806640625" lon="-107.70373092032968997955322265625">
        <ele>3988.39990234375</ele>
        <time>2023-07-29T16:41:59.000Z</time>
        <extensions>
          <ns3:TrackPointExtension>
            <ns3:hr>80</ns3:hr>
            <ns3:cad>0</ns3:cad>
          </ns3:TrackPointExtension>
        </extensions>
      </trkpt>
      <trkpt lat="37.7840653248131275177001953125" lon="-107.7037350274622440338134765625">
        <ele>3988</ele>
        <time>2023-07-29T16:42:00.000Z</time>
        <extensions>
          <ns3:TrackPointExtension>
            <ns3:hr>80</ns3:hr>
            <ns3:cad>0</ns3:cad>
          </ns3:TrackPointExtension>
        </extensions>
      </trkpt>
      <trkpt lat="37.78406306169927120208740234375" lon="-107.7037437446415424346923828125">
        <ele>3987.800048828125</ele>
        <time>2023-07-29T16:42:01.000Z</time>
        <extensions>
          <ns3:TrackPointExtension>
            <ns3:hr>80</ns3:hr>
            <ns3:cad>0</ns3:cad>
          </ns3:TrackPointExtension>
        </extensions>
      </trkpt>
      <trkpt lat="37.7840624749660491943359375" lon="-107.70374567247927188873291015625">
        <ele>3987.800048828125</ele>
        <time>2023-07-29T16:42:02.000Z</time>
        <extensions>
          <ns3:TrackPointExtension>
            <ns3:hr>80</ns3:hr>
            <ns3:cad>0</ns3:cad>
          </ns3:TrackPointExtension>
        </extensions>
      </trkpt>
      <trkpt lat="37.784058116376399993896484375" lon="-107.70375506021082401275634765625">
        <ele>3987.39990234375</ele>
        <time>2023-07-29T16:42:03.000Z</time>
        <extensions>
          <ns3:TrackPointExtension>
            <ns3:hr>80</ns3:hr>
            <ns3:cad>0</ns3:cad>
          </ns3:TrackPointExtension>
        </extensions>
      </trkpt>
      <trkpt lat="37.784058786928653717041015625" lon="-107.7037554793059825897216796875">
        <ele>3987.199951171875</ele>
        <time>2023-07-29T16:42:04.000Z</time>
        <extensions>
          <ns3:TrackPointExtension>
            <ns3:hr>80</ns3:hr>
            <ns3:cad>0</ns3:cad>
          </ns3:TrackPointExtension>
        </extensions>
      </trkpt>
      <trkpt lat="37.78405467979609966278076171875" lon="-107.70376662723720073699951171875">
        <ele>3987</ele>
        <time>2023-07-29T16:42:05.000Z</time>
        <extensions>
          <ns3:TrackPointExtension>
            <ns3:hr>80</ns3:hr>
            <ns3:cad>0</ns3:cad>
          </ns3:TrackPointExtension>
        </extensions>
      </trkpt>
      <trkpt lat="37.78405115939676761627197265625" lon="-107.703772746026515960693359375">
        <ele>3987</ele>
        <time>2023-07-29T16:42:06.000Z</time>
        <extensions>
          <ns3:TrackPointExtension>
            <ns3:hr>80</ns3:hr>
            <ns3:cad>0</ns3:cad>
          </ns3:TrackPointExtension>
        </extensions>
      </trkpt>
      <trkpt lat="37.78404965065419673919677734375" lon="-107.7037786133587360382080078125">
        <ele>3986.800048828125</ele>
        <time>2023-07-29T16:42:07.000Z</time>
        <extensions>
          <ns3:TrackPointExtension>
            <ns3:hr>80</ns3:hr>
            <ns3:cad>0</ns3:cad>
          </ns3:TrackPointExtension>
        </extensions>
      </trkpt>
      <trkpt lat="37.7840478904545307159423828125" lon="-107.70378255285322666168212890625">
        <ele>3986.39990234375</ele>
        <time>2023-07-29T16:42:08.000Z</time>
        <extensions>
          <ns3:TrackPointExtension>
            <ns3:hr>80</ns3:hr>
            <ns3:cad>0</ns3:cad>
          </ns3:TrackPointExtension>
        </extensions>
      </trkpt>
      <trkpt lat="37.78404571115970611572265625" lon="-107.70378707908093929290771484375">
        <ele>3986.39990234375</ele>
        <time>2023-07-29T16:42:09.000Z</time>
        <extensions>
          <ns3:TrackPointExtension>
            <ns3:hr>80</ns3:hr>
            <ns3:cad>0</ns3:cad>
          </ns3:TrackPointExtension>
        </extensions>
      </trkpt>
      <trkpt lat="37.7840452082455158233642578125" lon="-107.7037893421947956085205078125">
        <ele>3986.199951171875</ele>
        <time>2023-07-29T16:42:10.000Z</time>
        <extensions>
          <ns3:TrackPointExtension>
            <ns3:hr>80</ns3:hr>
            <ns3:cad>0</ns3:cad>
          </ns3:TrackPointExtension>
        </extensions>
      </trkpt>
      <trkpt lat="37.784044705331325531005859375" lon="-107.703788839280605316162109375">
        <ele>3986</ele>
        <time>2023-07-29T16:42:11.000Z</time>
        <extensions>
          <ns3:TrackPointExtension>
            <ns3:hr>80</ns3:hr>
            <ns3:cad>0</ns3:cad>
          </ns3:TrackPointExtension>
        </extensions>
      </trkpt>
      <trkpt lat="37.78404168784618377685546875" lon="-107.70379764027893543243408203125">
        <ele>3985.800048828125</ele>
        <time>2023-07-29T16:42:12.000Z</time>
        <extensions>
          <ns3:TrackPointExtension>
            <ns3:hr>80</ns3:hr>
            <ns3:cad>0</ns3:cad>
          </ns3:TrackPointExtension>
        </extensions>
      </trkpt>
      <trkpt lat="37.78403892181813716888427734375" lon="-107.70380669273436069488525390625">
        <ele>3985.39990234375</ele>
        <time>2023-07-29T16:42:13.000Z</time>
        <extensions>
          <ns3:TrackPointExtension>
            <ns3:hr>79</ns3:hr>
            <ns3:cad>0</ns3:cad>
          </ns3:TrackPointExtension>
        </extensions>
      </trkpt>
      <trkpt lat="37.78403473086655139923095703125" lon="-107.703814320266246795654296875">
        <ele>3985.39990234375</ele>
        <time>2023-07-29T16:42:14.000Z</time>
        <extensions>
          <ns3:TrackPointExtension>
            <ns3:hr>79</ns3:hr>
            <ns3:cad>0</ns3:cad>
          </ns3:TrackPointExtension>
        </extensions>
      </trkpt>
      <trkpt lat="37.7840316295623779296875" lon="-107.7038208581507205963134765625">
        <ele>3985.199951171875</ele>
        <time>2023-07-29T16:42:15.000Z</time>
        <extensions>
          <ns3:TrackPointExtension>
            <ns3:hr>79</ns3:hr>
            <ns3:cad>0</ns3:cad>
          </ns3:TrackPointExtension>
        </extensions>
      </trkpt>
      <trkpt lat="37.784024588763713836669921875" lon="-107.70383150316774845123291015625">
        <ele>3985</ele>
        <time>2023-07-29T16:42:16.000Z</time>
        <extensions>
          <ns3:TrackPointExtension>
            <ns3:hr>78</ns3:hr>
            <ns3:cad>0</ns3:cad>
          </ns3:TrackPointExtension>
        </extensions>
      </trkpt>
      <trkpt lat="37.78402282856404781341552734375" lon="-107.70382664166390895843505859375">
        <ele>3984.800048828125</ele>
        <time>2023-07-29T16:42:17.000Z</time>
        <extensions>
          <ns3:TrackPointExtension>
            <ns3:hr>78</ns3:hr>
            <ns3:cad>0</ns3:cad>
          </ns3:TrackPointExtension>
        </extensions>
      </trkpt>
      <trkpt lat="37.784018553793430328369140625" lon="-107.70382613874971866607666015625">
        <ele>3984.60009765625</ele>
        <time>2023-07-29T16:42:18.000Z</time>
        <extensions>
          <ns3:TrackPointExtension>
            <ns3:hr>78</ns3:hr>
            <ns3:cad>0</ns3:cad>
          </ns3:TrackPointExtension>
        </extensions>
      </trkpt>
      <trkpt lat="37.7840140275657176971435546875" lon="-107.70382731221616268157958984375">
        <ele>3984.60009765625</ele>
        <time>2023-07-29T16:42:19.000Z</time>
        <extensions>
          <ns3:TrackPointExtension>
            <ns3:hr>77</ns3:hr>
            <ns3:cad>0</ns3:cad>
          </ns3:TrackPointExtension>
        </extensions>
      </trkpt>
      <trkpt lat="37.78400992043316364288330078125" lon="-107.7038235403597354888916015625">
        <ele>3984.60009765625</ele>
        <time>2023-07-29T16:42:20.000Z</time>
        <extensions>
          <ns3:TrackPointExtension>
            <ns3:hr>77</ns3:hr>
            <ns3:cad>0</ns3:cad>
          </ns3:TrackPointExtension>
        </extensions>
      </trkpt>
      <trkpt lat="37.784002460539340972900390625" lon="-107.7038232050836086273193359375">
        <ele>3984.60009765625</ele>
        <time>2023-07-29T16:42:21.000Z</time>
        <extensions>
          <ns3:TrackPointExtension>
            <ns3:hr>77</ns3:hr>
            <ns3:cad>0</ns3:cad>
          </ns3:TrackPointExtension>
        </extensions>
      </trkpt>
      <trkpt lat="37.7839981019496917724609375" lon="-107.70381859503686428070068359375">
        <ele>3984.60009765625</ele>
        <time>2023-07-29T16:42:22.000Z</time>
        <extensions>
          <ns3:TrackPointExtension>
            <ns3:hr>77</ns3:hr>
            <ns3:cad>0</ns3:cad>
          </ns3:TrackPointExtension>
        </extensions>
      </trkpt>
      <trkpt lat="37.78399298898875713348388671875" lon="-107.7038144879043102264404296875">
        <ele>3984.60009765625</ele>
        <time>2023-07-29T16:42:23.000Z</time>
        <extensions>
          <ns3:TrackPointExtension>
            <ns3:hr>77</ns3:hr>
            <ns3:cad>0</ns3:cad>
          </ns3:TrackPointExtension>
        </extensions>
      </trkpt>
      <trkpt lat="37.783990390598773956298828125" lon="-107.7038138173520565032958984375">
        <ele>3984.60009765625</ele>
        <time>2023-07-29T16:42:24.000Z</time>
        <extensions>
          <ns3:TrackPointExtension>
            <ns3:hr>77</ns3:hr>
            <ns3:cad>0</ns3:cad>
          </ns3:TrackPointExtension>
        </extensions>
      </trkpt>
      <trkpt lat="37.78399131260812282562255859375" lon="-107.703814990818500518798828125">
        <ele>3984.199951171875</ele>
        <time>2023-07-29T16:42:25.000Z</time>
        <extensions>
          <ns3:TrackPointExtension>
            <ns3:hr>78</ns3:hr>
            <ns3:cad>0</ns3:cad>
          </ns3:TrackPointExtension>
        </extensions>
      </trkpt>
      <trkpt lat="37.7839932404458522796630859375" lon="-107.7038138173520565032958984375">
        <ele>3983.800048828125</ele>
        <time>2023-07-29T16:42:26.000Z</time>
        <extensions>
          <ns3:TrackPointExtension>
            <ns3:hr>78</ns3:hr>
            <ns3:cad>0</ns3:cad>
          </ns3:TrackPointExtension>
        </extensions>
      </trkpt>
      <trkpt lat="37.78399734757840633392333984375" lon="-107.70381406880915164947509765625">
        <ele>3983.800048828125</ele>
        <time>2023-07-29T16:42:27.000Z</time>
        <extensions>
          <ns3:TrackPointExtension>
            <ns3:hr>79</ns3:hr>
            <ns3:cad>0</ns3:cad>
          </ns3:TrackPointExtension>
        </extensions>
      </trkpt>
      <trkpt lat="37.78399650938808917999267578125" lon="-107.7038119733333587646484375">
        <ele>3983.60009765625</ele>
        <time>2023-07-29T16:42:28.000Z</time>
        <extensions>
          <ns3:TrackPointExtension>
            <ns3:hr>79</ns3:hr>
            <ns3:cad>0</ns3:cad>
          </ns3:TrackPointExtension>
        </extensions>
      </trkpt>
      <trkpt lat="37.78399500064551830291748046875" lon="-107.70380887202918529510498046875">
        <ele>3983.60009765625</ele>
        <time>2023-07-29T16:42:29.000Z</time>
        <extensions>
          <ns3:TrackPointExtension>
            <ns3:hr>79</ns3:hr>
            <ns3:cad>0</ns3:cad>
          </ns3:TrackPointExtension>
        </extensions>
      </trkpt>
      <trkpt lat="37.78399315662682056427001953125" lon="-107.70380434580147266387939453125">
        <ele>3983.39990234375</ele>
        <time>2023-07-29T16:42:30.000Z</time>
        <extensions>
          <ns3:TrackPointExtension>
            <ns3:hr>79</ns3:hr>
            <ns3:cad>0</ns3:cad>
          </ns3:TrackPointExtension>
        </extensions>
      </trkpt>
      <trkpt lat="37.7839875407516956329345703125" lon="-107.70379655063152313232421875">
        <ele>3983</ele>
        <time>2023-07-29T16:42:31.000Z</time>
        <extensions>
          <ns3:TrackPointExtension>
            <ns3:hr>80</ns3:hr>
            <ns3:cad>0</ns3:cad>
          </ns3:TrackPointExtension>
        </extensions>
      </trkpt>
      <trkpt lat="37.78398226015269756317138671875" lon="-107.70379093475639820098876953125">
        <ele>3983</ele>
        <time>2023-07-29T16:42:32.000Z</time>
        <extensions>
          <ns3:TrackPointExtension>
            <ns3:hr>80</ns3:hr>
            <ns3:cad>0</ns3:cad>
          </ns3:TrackPointExtension>
        </extensions>
      </trkpt>
      <trkpt lat="37.78397605754435062408447265625" lon="-107.70378640852868556976318359375">
        <ele>3983</ele>
        <time>2023-07-29T16:42:33.000Z</time>
        <extensions>
          <ns3:TrackPointExtension>
            <ns3:hr>80</ns3:hr>
            <ns3:cad>0</ns3:cad>
          </ns3:TrackPointExtension>
        </extensions>
      </trkpt>
      <trkpt lat="37.7839701063930988311767578125" lon="-107.703782133758068084716796875">
        <ele>3983</ele>
        <time>2023-07-29T16:42:34.000Z</time>
        <extensions>
          <ns3:TrackPointExtension>
            <ns3:hr>81</ns3:hr>
            <ns3:cad>0</ns3:cad>
          </ns3:TrackPointExtension>
        </extensions>
      </trkpt>
      <trkpt lat="37.7839597128331661224365234375" lon="-107.70377182401716709136962890625">
        <ele>3982.800048828125</ele>
        <time>2023-07-29T16:42:35.000Z</time>
        <extensions>
          <ns3:TrackPointExtension>
            <ns3:hr>81</ns3:hr>
            <ns3:cad>0</ns3:cad>
          </ns3:TrackPointExtension>
        </extensions>
      </trkpt>
      <trkpt lat="37.783949486911296844482421875" lon="-107.7037618495523929595947265625">
        <ele>3982.60009765625</ele>
        <time>2023-07-29T16:42:36.000Z</time>
        <extensions>
          <ns3:TrackPointExtension>
            <ns3:hr>82</ns3:hr>
            <ns3:cad>0</ns3:cad>
          </ns3:TrackPointExtension>
        </extensions>
      </trkpt>
      <trkpt lat="37.7839419431984424591064453125" lon="-107.7037538029253482818603515625">
        <ele>3982.39990234375</ele>
        <time>2023-07-29T16:42:37.000Z</time>
        <extensions>
          <ns3:TrackPointExtension>
            <ns3:hr>83</ns3:hr>
            <ns3:cad>0</ns3:cad>
          </ns3:TrackPointExtension>
        </extensions>
      </trkpt>
      <trkpt lat="37.7839308790862560272216796875" lon="-107.703745253384113311767578125">
        <ele>3982.39990234375</ele>
        <time>2023-07-29T16:42:38.000Z</time>
        <extensions>
          <ns3:TrackPointExtension>
            <ns3:hr>83</ns3:hr>
            <ns3:cad>0</ns3:cad>
          </ns3:TrackPointExtension>
        </extensions>
      </trkpt>
      <trkpt lat="37.78392911888659000396728515625" lon="-107.70374768413603305816650390625">
        <ele>3982</ele>
        <time>2023-07-29T16:42:39.000Z</time>
        <extensions>
          <ns3:TrackPointExtension>
            <ns3:hr>83</ns3:hr>
            <ns3:cad>0</ns3:cad>
          </ns3:TrackPointExtension>
        </extensions>
      </trkpt>
      <trkpt lat="37.7839265204966068267822265625" lon="-107.70375363528728485107421875">
        <ele>3981.60009765625</ele>
        <time>2023-07-29T16:42:40.000Z</time>
        <extensions>
          <ns3:TrackPointExtension>
            <ns3:hr>83</ns3:hr>
            <ns3:cad>0</ns3:cad>
          </ns3:TrackPointExtension>
        </extensions>
      </trkpt>
      <trkpt lat="37.7839204855263233184814453125" lon="-107.703757323324680328369140625">
        <ele>3981.39990234375</ele>
        <time>2023-07-29T16:42:41.000Z</time>
        <extensions>
          <ns3:TrackPointExtension>
            <ns3:hr>84</ns3:hr>
            <ns3:cad>0</ns3:cad>
          </ns3:TrackPointExtension>
        </extensions>
      </trkpt>
      <trkpt lat="37.7839114330708980560302734375" lon="-107.7037605084478855133056640625">
        <ele>3981</ele>
        <time>2023-07-29T16:42:42.000Z</time>
        <extensions>
          <ns3:TrackPointExtension>
            <ns3:hr>84</ns3:hr>
            <ns3:cad>0</ns3:cad>
          </ns3:TrackPointExtension>
        </extensions>
      </trkpt>
      <trkpt lat="37.78390330262482166290283203125" lon="-107.70376260392367839813232421875">
        <ele>3980.39990234375</ele>
        <time>2023-07-29T16:42:43.000Z</time>
        <extensions>
          <ns3:TrackPointExtension>
            <ns3:hr>85</ns3:hr>
            <ns3:cad>0</ns3:cad>
          </ns3:TrackPointExtension>
        </extensions>
      </trkpt>
      <trkpt lat="37.78389592655003070831298828125" lon="-107.70376277156174182891845703125">
        <ele>3980.199951171875</ele>
        <time>2023-07-29T16:42:44.000Z</time>
        <extensions>
          <ns3:TrackPointExtension>
            <ns3:hr>85</ns3:hr>
            <ns3:cad>0</ns3:cad>
          </ns3:TrackPointExtension>
        </extensions>
      </trkpt>
      <trkpt lat="37.78389290906488895416259765625" lon="-107.7037618495523929595947265625">
        <ele>3980</ele>
        <time>2023-07-29T16:42:45.000Z</time>
        <extensions>
          <ns3:TrackPointExtension>
            <ns3:hr>86</ns3:hr>
            <ns3:cad>0</ns3:cad>
          </ns3:TrackPointExtension>
        </extensions>
      </trkpt>
      <trkpt lat="37.783884443342685699462890625" lon="-107.70375958643853664398193359375">
        <ele>3979.800048828125</ele>
        <time>2023-07-29T16:42:46.000Z</time>
        <extensions>
          <ns3:TrackPointExtension>
            <ns3:hr>86</ns3:hr>
            <ns3:cad>48</ns3:cad>
          </ns3:TrackPointExtension>
        </extensions>
      </trkpt>
      <trkpt lat="37.7838782407343387603759765625" lon="-107.703759334981441497802734375">
        <ele>3979.800048828125</ele>
        <time>2023-07-29T16:42:47.000Z</time>
        <extensions>
          <ns3:TrackPointExtension>
            <ns3:hr>86</ns3:hr>
            <ns3:cad>69</ns3:cad>
          </ns3:TrackPointExtension>
        </extensions>
      </trkpt>
      <trkpt lat="37.78387195430696010589599609375" lon="-107.70376143045723438262939453125">
        <ele>3979.60009765625</ele>
        <time>2023-07-29T16:42:48.000Z</time>
        <extensions>
          <ns3:TrackPointExtension>
            <ns3:hr>86</ns3:hr>
            <ns3:cad>69</ns3:cad>
          </ns3:TrackPointExtension>
        </extensions>
      </trkpt>
      <trkpt lat="37.78386608697474002838134765625" lon="-107.70376243628561496734619140625">
        <ele>3979.39990234375</ele>
        <time>2023-07-29T16:42:49.000Z</time>
        <extensions>
          <ns3:TrackPointExtension>
            <ns3:hr>86</ns3:hr>
            <ns3:cad>69</ns3:cad>
          </ns3:TrackPointExtension>
        </extensions>
      </trkpt>
      <trkpt lat="37.78386005200445652008056640625" lon="-107.70375807769596576690673828125">
        <ele>3979</ele>
        <time>2023-07-29T16:42:50.000Z</time>
        <extensions>
          <ns3:TrackPointExtension>
            <ns3:hr>86</ns3:hr>
            <ns3:cad>0</ns3:cad>
          </ns3:TrackPointExtension>
        </extensions>
      </trkpt>
      <trkpt lat="37.78385351411998271942138671875" lon="-107.70375631749629974365234375">
        <ele>3978.60009765625</ele>
        <time>2023-07-29T16:42:51.000Z</time>
        <extensions>
          <ns3:TrackPointExtension>
            <ns3:hr>86</ns3:hr>
            <ns3:cad>0</ns3:cad>
          </ns3:TrackPointExtension>
        </extensions>
      </trkpt>
      <trkpt lat="37.78384094126522541046142578125" lon="-107.70375438965857028961181640625">
        <ele>3978.39990234375</ele>
        <time>2023-07-29T16:42:52.000Z</time>
        <extensions>
          <ns3:TrackPointExtension>
            <ns3:hr>86</ns3:hr>
            <ns3:cad>0</ns3:cad>
          </ns3:TrackPointExtension>
        </extensions>
      </trkpt>
      <trkpt lat="37.783834822475910186767578125" lon="-107.7037568204104900360107421875">
        <ele>3978</ele>
        <time>2023-07-29T16:42:53.000Z</time>
        <extensions>
          <ns3:TrackPointExtension>
            <ns3:hr>86</ns3:hr>
            <ns3:cad>0</ns3:cad>
          </ns3:TrackPointExtension>
        </extensions>
      </trkpt>
      <trkpt lat="37.783824093639850616455078125" lon="-107.70375757478177547454833984375">
        <ele>3977.800048828125</ele>
        <time>2023-07-29T16:42:54.000Z</time>
        <extensions>
          <ns3:TrackPointExtension>
            <ns3:hr>86</ns3:hr>
            <ns3:cad>0</ns3:cad>
          </ns3:TrackPointExtension>
        </extensions>
      </trkpt>
      <trkpt lat="37.7838175557553768157958984375" lon="-107.7037571556866168975830078125">
        <ele>3977.39990234375</ele>
        <time>2023-07-29T16:42:55.000Z</time>
        <extensions>
          <ns3:TrackPointExtension>
            <ns3:hr>86</ns3:hr>
            <ns3:cad>0</ns3:cad>
          </ns3:TrackPointExtension>
        </extensions>
      </trkpt>
      <trkpt lat="37.78381126932799816131591796875" lon="-107.70375497639179229736328125">
        <ele>3977</ele>
        <time>2023-07-29T16:42:56.000Z</time>
        <extensions>
          <ns3:TrackPointExtension>
            <ns3:hr>86</ns3:hr>
            <ns3:cad>0</ns3:cad>
          </ns3:TrackPointExtension>
        </extensions>
      </trkpt>
      <trkpt lat="37.7838085032999515533447265625" lon="-107.70375405438244342803955078125">
        <ele>3976.60009765625</ele>
        <time>2023-07-29T16:42:57.000Z</time>
        <extensions>
          <ns3:TrackPointExtension>
            <ns3:hr>86</ns3:hr>
            <ns3:cad>0</ns3:cad>
          </ns3:TrackPointExtension>
        </extensions>
      </trkpt>
      <trkpt lat="37.78379752300679683685302734375" lon="-107.7037534676492214202880859375">
        <ele>3976.199951171875</ele>
        <time>2023-07-29T16:42:58.000Z</time>
        <extensions>
          <ns3:TrackPointExtension>
            <ns3:hr>86</ns3:hr>
            <ns3:cad>0</ns3:cad>
          </ns3:TrackPointExtension>
        </extensions>
      </trkpt>
      <trkpt lat="37.78378746472299098968505859375" lon="-107.70375422202050685882568359375">
        <ele>3976</ele>
        <time>2023-07-29T16:42:59.000Z</time>
        <extensions>
          <ns3:TrackPointExtension>
            <ns3:hr>86</ns3:hr>
            <ns3:cad>0</ns3:cad>
          </ns3:TrackPointExtension>
        </extensions>
      </trkpt>
      <trkpt lat="37.78378285467624664306640625" lon="-107.70376025699079036712646484375">
        <ele>3975.800048828125</ele>
        <time>2023-07-29T16:43:00.000Z</time>
        <extensions>
          <ns3:TrackPointExtension>
            <ns3:hr>86</ns3:hr>
            <ns3:cad>0</ns3:cad>
          </ns3:TrackPointExtension>
        </extensions>
      </trkpt>
      <trkpt lat="37.783775813877582550048828125" lon="-107.70376830361783504486083984375">
        <ele>3975.199951171875</ele>
        <time>2023-07-29T16:43:01.000Z</time>
        <extensions>
          <ns3:TrackPointExtension>
            <ns3:hr>87</ns3:hr>
            <ns3:cad>0</ns3:cad>
          </ns3:TrackPointExtension>
        </extensions>
      </trkpt>
      <trkpt lat="37.783770449459552764892578125" lon="-107.70376964472234249114990234375">
        <ele>3975</ele>
        <time>2023-07-29T16:43:02.000Z</time>
        <extensions>
          <ns3:TrackPointExtension>
            <ns3:hr>87</ns3:hr>
            <ns3:cad>0</ns3:cad>
          </ns3:TrackPointExtension>
        </extensions>
      </trkpt>
      <trkpt lat="37.7837649174034595489501953125" lon="-107.70376562140882015228271484375">
        <ele>3974.39990234375</ele>
        <time>2023-07-29T16:43:03.000Z</time>
        <extensions>
          <ns3:TrackPointExtension>
            <ns3:hr>87</ns3:hr>
            <ns3:cad>0</ns3:cad>
          </ns3:TrackPointExtension>
        </extensions>
      </trkpt>
      <trkpt lat="37.78375896625220775604248046875" lon="-107.7037663757801055908203125">
        <ele>3974.39990234375</ele>
        <time>2023-07-29T16:43:04.000Z</time>
        <extensions>
          <ns3:TrackPointExtension>
            <ns3:hr>87</ns3:hr>
            <ns3:cad>0</ns3:cad>
          </ns3:TrackPointExtension>
        </extensions>
      </trkpt>
      <trkpt lat="37.783748991787433624267578125" lon="-107.70376545377075672149658203125">
        <ele>3974.199951171875</ele>
        <time>2023-07-29T16:43:05.000Z</time>
        <extensions>
          <ns3:TrackPointExtension>
            <ns3:hr>87</ns3:hr>
            <ns3:cad>0</ns3:cad>
          </ns3:TrackPointExtension>
        </extensions>
      </trkpt>
      <trkpt lat="37.78374270536005496978759765625" lon="-107.70376972854137420654296875">
        <ele>3974</ele>
        <time>2023-07-29T16:43:06.000Z</time>
        <extensions>
          <ns3:TrackPointExtension>
            <ns3:hr>87</ns3:hr>
            <ns3:cad>0</ns3:cad>
          </ns3:TrackPointExtension>
        </extensions>
      </trkpt>
      <trkpt lat="37.7837245166301727294921875" lon="-107.7037759311497211456298828125">
        <ele>3973.800048828125</ele>
        <time>2023-07-29T16:43:07.000Z</time>
        <extensions>
          <ns3:TrackPointExtension>
            <ns3:hr>87</ns3:hr>
            <ns3:cad>0</ns3:cad>
          </ns3:TrackPointExtension>
        </extensions>
      </trkpt>
      <trkpt lat="37.7837099321186542510986328125" lon="-107.7037771046161651611328125">
        <ele>3973.199951171875</ele>
        <time>2023-07-29T16:43:08.000Z</time>
        <extensions>
          <ns3:TrackPointExtension>
            <ns3:hr>86</ns3:hr>
            <ns3:cad>0</ns3:cad>
          </ns3:TrackPointExtension>
        </extensions>
      </trkpt>
      <trkpt lat="37.7836948446929454803466796875" lon="-107.70378238521516323089599609375">
        <ele>3972.800048828125</ele>
        <time>2023-07-29T16:43:09.000Z</time>
        <extensions>
          <ns3:TrackPointExtension>
            <ns3:hr>86</ns3:hr>
            <ns3:cad>0</ns3:cad>
          </ns3:TrackPointExtension>
        </extensions>
      </trkpt>
      <trkpt lat="37.7836787514388561248779296875" lon="-107.70378557033836841583251953125">
        <ele>3972.60009765625</ele>
        <time>2023-07-29T16:43:10.000Z</time>
        <extensions>
          <ns3:TrackPointExtension>
            <ns3:hr>86</ns3:hr>
            <ns3:cad>0</ns3:cad>
          </ns3:TrackPointExtension>
        </extensions>
      </trkpt>
      <trkpt lat="37.783665172755718231201171875" lon="-107.7037886716425418853759765625">
        <ele>3972.199951171875</ele>
        <time>2023-07-29T16:43:11.000Z</time>
        <extensions>
          <ns3:TrackPointExtension>
            <ns3:hr>85</ns3:hr>
            <ns3:cad>0</ns3:cad>
          </ns3:TrackPointExtension>
        </extensions>
      </trkpt>
      <trkpt lat="37.78364664874970912933349609375" lon="-107.70379261113703250885009765625">
        <ele>3971.199951171875</ele>
        <time>2023-07-29T16:43:12.000Z</time>
        <extensions>
          <ns3:TrackPointExtension>
            <ns3:hr>86</ns3:hr>
            <ns3:cad>0</ns3:cad>
          </ns3:TrackPointExtension>
        </extensions>
      </trkpt>
      <trkpt lat="37.78363399207592010498046875" lon="-107.70379546098411083221435546875">
        <ele>3970.800048828125</ele>
        <time>2023-07-29T16:43:13.000Z</time>
        <extensions>
          <ns3:TrackPointExtension>
            <ns3:hr>86</ns3:hr>
            <ns3:cad>0</ns3:cad>
          </ns3:TrackPointExtension>
        </extensions>
      </trkpt>
      <trkpt lat="37.78362435288727283477783203125" lon="-107.70379814319312572479248046875">
        <ele>3970.39990234375</ele>
        <time>2023-07-29T16:43:14.000Z</time>
        <extensions>
          <ns3:TrackPointExtension>
            <ns3:hr>87</ns3:hr>
            <ns3:cad>0</ns3:cad>
          </ns3:TrackPointExtension>
        </extensions>
      </trkpt>
      <trkpt lat="37.78361379168927669525146484375" lon="-107.7038012444972991943359375">
        <ele>3970</ele>
        <time>2023-07-29T16:43:15.000Z</time>
        <extensions>
          <ns3:TrackPointExtension>
            <ns3:hr>88</ns3:hr>
            <ns3:cad>0</ns3:cad>
          </ns3:TrackPointExtension>
        </extensions>
      </trkpt>
      <trkpt lat="37.78360172174870967864990234375" lon="-107.70380459725856781005859375">
        <ele>3970</ele>
        <time>2023-07-29T16:43:16.000Z</time>
        <extensions>
          <ns3:TrackPointExtension>
            <ns3:hr>88</ns3:hr>
            <ns3:cad>0</ns3:cad>
          </ns3:TrackPointExtension>
        </extensions>
      </trkpt>
      <trkpt lat="37.78358797542750835418701171875" lon="-107.70381038077175617218017578125">
        <ele>3969.60009765625</ele>
        <time>2023-07-29T16:43:17.000Z</time>
        <extensions>
          <ns3:TrackPointExtension>
            <ns3:hr>89</ns3:hr>
            <ns3:cad>0</ns3:cad>
          </ns3:TrackPointExtension>
        </extensions>
      </trkpt>
      <trkpt lat="37.78357657603919506072998046875" lon="-107.70380987785756587982177734375">
        <ele>3969.199951171875</ele>
        <time>2023-07-29T16:43:18.000Z</time>
        <extensions>
          <ns3:TrackPointExtension>
            <ns3:hr>89</ns3:hr>
            <ns3:cad>0</ns3:cad>
          </ns3:TrackPointExtension>
        </extensions>
      </trkpt>
      <trkpt lat="37.783561237156391143798828125" lon="-107.70380987785756587982177734375">
        <ele>3969.199951171875</ele>
        <time>2023-07-29T16:43:19.000Z</time>
        <extensions>
          <ns3:TrackPointExtension>
            <ns3:hr>90</ns3:hr>
            <ns3:cad>0</ns3:cad>
          </ns3:TrackPointExtension>
        </extensions>
      </trkpt>
      <trkpt lat="37.783551514148712158203125" lon="-107.703810632228851318359375">
        <ele>3969</ele>
        <time>2023-07-29T16:43:20.000Z</time>
        <extensions>
          <ns3:TrackPointExtension>
            <ns3:hr>90</ns3:hr>
            <ns3:cad>0</ns3:cad>
          </ns3:TrackPointExtension>
        </extensions>
      </trkpt>
      <trkpt lat="37.7835399471223354339599609375" lon="-107.703806944191455841064453125">
        <ele>3969</ele>
        <time>2023-07-29T16:43:21.000Z</time>
        <extensions>
          <ns3:TrackPointExtension>
            <ns3:hr>90</ns3:hr>
            <ns3:cad>0</ns3:cad>
          </ns3:TrackPointExtension>
        </extensions>
      </trkpt>
      <trkpt lat="37.7835319004952907562255859375" lon="-107.703805267810821533203125">
        <ele>3968.800048828125</ele>
        <time>2023-07-29T16:43:22.000Z</time>
        <extensions>
          <ns3:TrackPointExtension>
            <ns3:hr>90</ns3:hr>
            <ns3:cad>0</ns3:cad>
          </ns3:TrackPointExtension>
        </extensions>
      </trkpt>
      <trkpt lat="37.78351957909762859344482421875" lon="-107.70380266942083835601806640625">
        <ele>3968.60009765625</ele>
        <time>2023-07-29T16:43:23.000Z</time>
        <extensions>
          <ns3:TrackPointExtension>
            <ns3:hr>90</ns3:hr>
            <ns3:cad>0</ns3:cad>
          </ns3:TrackPointExtension>
        </extensions>
      </trkpt>
      <trkpt lat="37.78350616805255413055419921875" lon="-107.70380996167659759521484375">
        <ele>3968.60009765625</ele>
        <time>2023-07-29T16:43:24.000Z</time>
        <extensions>
          <ns3:TrackPointExtension>
            <ns3:hr>91</ns3:hr>
            <ns3:cad>0</ns3:cad>
          </ns3:TrackPointExtension>
        </extensions>
      </trkpt>
      <trkpt lat="37.783498205244541168212890625" lon="-107.7038171701133251190185546875">
        <ele>3968.39990234375</ele>
        <time>2023-07-29T16:43:25.000Z</time>
        <extensions>
          <ns3:TrackPointExtension>
            <ns3:hr>92</ns3:hr>
            <ns3:cad>0</ns3:cad>
          </ns3:TrackPointExtension>
        </extensions>
      </trkpt>
      <trkpt lat="37.7834926731884479522705078125" lon="-107.703826390206813812255859375">
        <ele>3968.199951171875</ele>
        <time>2023-07-29T16:43:26.000Z</time>
        <extensions>
          <ns3:TrackPointExtension>
            <ns3:hr>94</ns3:hr>
            <ns3:cad>60</ns3:cad>
          </ns3:TrackPointExtension>
        </extensions>
      </trkpt>
      <trkpt lat="37.78348336927592754364013671875" lon="-107.703832425177097320556640625">
        <ele>3968.199951171875</ele>
        <time>2023-07-29T16:43:27.000Z</time>
        <extensions>
          <ns3:TrackPointExtension>
            <ns3:hr>95</ns3:hr>
            <ns3:cad>60</ns3:cad>
          </ns3:TrackPointExtension>
        </extensions>
      </trkpt>
      <trkpt lat="37.78347498737275600433349609375" lon="-107.7038379572331905364990234375">
        <ele>3968.199951171875</ele>
        <time>2023-07-29T16:43:28.000Z</time>
        <extensions>
          <ns3:TrackPointExtension>
            <ns3:hr>96</ns3:hr>
            <ns3:cad>56</ns3:cad>
          </ns3:TrackPointExtension>
        </extensions>
      </trkpt>
      <trkpt lat="37.7834661863744258880615234375" lon="-107.703830413520336151123046875">
        <ele>3968.199951171875</ele>
        <time>2023-07-29T16:43:29.000Z</time>
        <extensions>
          <ns3:TrackPointExtension>
            <ns3:hr>97</ns3:hr>
            <ns3:cad>0</ns3:cad>
          </ns3:TrackPointExtension>
        </extensions>
      </trkpt>
      <trkpt lat="37.7834534458816051483154296875" lon="-107.70382882095873355865478515625">
        <ele>3968.199951171875</ele>
        <time>2023-07-29T16:43:30.000Z</time>
        <extensions>
          <ns3:TrackPointExtension>
            <ns3:hr>97</ns3:hr>
            <ns3:cad>0</ns3:cad>
          </ns3:TrackPointExtension>
        </extensions>
      </trkpt>
      <trkpt lat="37.78344648890197277069091796875" lon="-107.703825719654560089111328125">
        <ele>3968</ele>
        <time>2023-07-29T16:43:31.000Z</time>
        <extensions>
          <ns3:TrackPointExtension>
            <ns3:hr>97</ns3:hr>
            <ns3:cad>0</ns3:cad>
          </ns3:TrackPointExtension>
        </extensions>
      </trkpt>
      <trkpt lat="37.7834380231797695159912109375" lon="-107.703821025788784027099609375">
        <ele>3968.199951171875</ele>
        <time>2023-07-29T16:43:32.000Z</time>
        <extensions>
          <ns3:TrackPointExtension>
            <ns3:hr>98</ns3:hr>
            <ns3:cad>0</ns3:cad>
          </ns3:TrackPointExtension>
        </extensions>
      </trkpt>
      <trkpt lat="37.7834289707243442535400390625" lon="-107.7038185112178325653076171875">
        <ele>3968</ele>
        <time>2023-07-29T16:43:33.000Z</time>
        <extensions>
          <ns3:TrackPointExtension>
            <ns3:hr>98</ns3:hr>
            <ns3:cad>0</ns3:cad>
          </ns3:TrackPointExtension>
        </extensions>
      </trkpt>
      <trkpt lat="37.7834214270114898681640625" lon="-107.70381574518978595733642578125">
        <ele>3968</ele>
        <time>2023-07-29T16:43:34.000Z</time>
        <extensions>
          <ns3:TrackPointExtension>
            <ns3:hr>98</ns3:hr>
            <ns3:cad>0</ns3:cad>
          </ns3:TrackPointExtension>
        </extensions>
      </trkpt>
      <trkpt lat="37.78341530822217464447021484375" lon="-107.7038131467998027801513671875">
        <ele>3968</ele>
        <time>2023-07-29T16:43:35.000Z</time>
        <extensions>
          <ns3:TrackPointExtension>
            <ns3:hr>98</ns3:hr>
            <ns3:cad>0</ns3:cad>
          </ns3:TrackPointExtension>
        </extensions>
      </trkpt>
      <trkpt lat="37.78340491466224193572998046875" lon="-107.7038119733333587646484375">
        <ele>3967.800048828125</ele>
        <time>2023-07-29T16:43:36.000Z</time>
        <extensions>
          <ns3:TrackPointExtension>
            <ns3:hr>98</ns3:hr>
            <ns3:cad>19</ns3:cad>
          </ns3:TrackPointExtension>
        </extensions>
      </trkpt>
      <trkpt lat="37.783393599092960357666015625" lon="-107.70380795001983642578125">
        <ele>3967.60009765625</ele>
        <time>2023-07-29T16:43:37.000Z</time>
        <extensions>
          <ns3:TrackPointExtension>
            <ns3:hr>98</ns3:hr>
            <ns3:cad>19</ns3:cad>
          </ns3:TrackPointExtension>
        </extensions>
      </trkpt>
      <trkpt lat="37.7833813615143299102783203125" lon="-107.7038027532398700714111328125">
        <ele>3967.60009765625</ele>
        <time>2023-07-29T16:43:38.000Z</time>
        <extensions>
          <ns3:TrackPointExtension>
            <ns3:hr>98</ns3:hr>
            <ns3:cad>19</ns3:cad>
          </ns3:TrackPointExtension>
        </extensions>
      </trkpt>
      <trkpt lat="37.78337205760180950164794921875" lon="-107.7037997357547283172607421875">
        <ele>3967.39990234375</ele>
        <time>2023-07-29T16:43:39.000Z</time>
        <extensions>
          <ns3:TrackPointExtension>
            <ns3:hr>98</ns3:hr>
            <ns3:cad>19</ns3:cad>
          </ns3:TrackPointExtension>
        </extensions>
      </trkpt>
      <trkpt lat="37.78336049057543277740478515625" lon="-107.7037957124412059783935546875">
        <ele>3967.199951171875</ele>
        <time>2023-07-29T16:43:40.000Z</time>
        <extensions>
          <ns3:TrackPointExtension>
            <ns3:hr>98</ns3:hr>
            <ns3:cad>19</ns3:cad>
          </ns3:TrackPointExtension>
        </extensions>
      </trkpt>
      <trkpt lat="37.78334842063486576080322265625" lon="-107.70379261113703250885009765625">
        <ele>3967</ele>
        <time>2023-07-29T16:43:41.000Z</time>
        <extensions>
          <ns3:TrackPointExtension>
            <ns3:hr>98</ns3:hr>
            <ns3:cad>19</ns3:cad>
          </ns3:TrackPointExtension>
        </extensions>
      </trkpt>
      <trkpt lat="37.78333836235105991363525390625" lon="-107.70378984510898590087890625">
        <ele>3966.800048828125</ele>
        <time>2023-07-29T16:43:42.000Z</time>
        <extensions>
          <ns3:TrackPointExtension>
            <ns3:hr>98</ns3:hr>
            <ns3:cad>19</ns3:cad>
          </ns3:TrackPointExtension>
        </extensions>
      </trkpt>
      <trkpt lat="37.7833263762295246124267578125" lon="-107.70378624089062213897705078125">
        <ele>3966.60009765625</ele>
        <time>2023-07-29T16:43:43.000Z</time>
        <extensions>
          <ns3:TrackPointExtension>
            <ns3:hr>98</ns3:hr>
            <ns3:cad>19</ns3:cad>
          </ns3:TrackPointExtension>
        </extensions>
      </trkpt>
      <trkpt lat="37.7833190001547336578369140625" lon="-107.703783810138702392578125">
        <ele>3966.39990234375</ele>
        <time>2023-07-29T16:43:44.000Z</time>
        <extensions>
          <ns3:TrackPointExtension>
            <ns3:hr>98</ns3:hr>
            <ns3:cad>19</ns3:cad>
          </ns3:TrackPointExtension>
        </extensions>
      </trkpt>
      <trkpt lat="37.7833069302141666412353515625" lon="-107.703782133758068084716796875">
        <ele>3966.39990234375</ele>
        <time>2023-07-29T16:43:45.000Z</time>
        <extensions>
          <ns3:TrackPointExtension>
            <ns3:hr>98</ns3:hr>
            <ns3:cad>19</ns3:cad>
          </ns3:TrackPointExtension>
        </extensions>
      </trkpt>
      <trkpt lat="37.7832962013781070709228515625" lon="-107.70377635024487972259521484375">
        <ele>3966.199951171875</ele>
        <time>2023-07-29T16:43:46.000Z</time>
        <extensions>
          <ns3:TrackPointExtension>
            <ns3:hr>98</ns3:hr>
            <ns3:cad>19</ns3:cad>
          </ns3:TrackPointExtension>
        </extensions>
      </trkpt>
      <trkpt lat="37.7832831256091594696044921875" lon="-107.7037698961794376373291015625">
        <ele>3965.800048828125</ele>
        <time>2023-07-29T16:43:47.000Z</time>
        <extensions>
          <ns3:TrackPointExtension>
            <ns3:hr>98</ns3:hr>
            <ns3:cad>19</ns3:cad>
          </ns3:TrackPointExtension>
        </extensions>
      </trkpt>
      <trkpt lat="37.78327717445790767669677734375" lon="-107.70376830361783504486083984375">
        <ele>3965.60009765625</ele>
        <time>2023-07-29T16:43:48.000Z</time>
        <extensions>
          <ns3:TrackPointExtension>
            <ns3:hr>97</ns3:hr>
            <ns3:cad>19</ns3:cad>
          </ns3:TrackPointExtension>
        </extensions>
      </trkpt>
      <trkpt lat="37.78326426632702350616455078125" lon="-107.70376436412334442138671875">
        <ele>3965.39990234375</ele>
        <time>2023-07-29T16:43:49.000Z</time>
        <extensions>
          <ns3:TrackPointExtension>
            <ns3:hr>97</ns3:hr>
            <ns3:cad>19</ns3:cad>
          </ns3:TrackPointExtension>
        </extensions>
      </trkpt>
      <trkpt lat="37.78325605206191539764404296875" lon="-107.70375992171466350555419921875">
        <ele>3965.199951171875</ele>
        <time>2023-07-29T16:43:50.000Z</time>
        <extensions>
          <ns3:TrackPointExtension>
            <ns3:hr>97</ns3:hr>
            <ns3:cad>19</ns3:cad>
          </ns3:TrackPointExtension>
        </extensions>
      </trkpt>
      <trkpt lat="37.7832432277500629425048828125" lon="-107.703757323324680328369140625">
        <ele>3964.800048828125</ele>
        <time>2023-07-29T16:43:51.000Z</time>
        <extensions>
          <ns3:TrackPointExtension>
            <ns3:hr>97</ns3:hr>
            <ns3:cad>19</ns3:cad>
          </ns3:TrackPointExtension>
        </extensions>
      </trkpt>
      <trkpt lat="37.7832412160933017730712890625" lon="-107.703758664429187774658203125">
        <ele>3964.800048828125</ele>
        <time>2023-07-29T16:43:52.000Z</time>
        <extensions>
          <ns3:TrackPointExtension>
            <ns3:hr>97</ns3:hr>
            <ns3:cad>19</ns3:cad>
          </ns3:TrackPointExtension>
        </extensions>
      </trkpt>
      <trkpt lat="37.7832341752946376800537109375" lon="-107.7037588320672512054443359375">
        <ele>3964.60009765625</ele>
        <time>2023-07-29T16:43:53.000Z</time>
        <extensions>
          <ns3:TrackPointExtension>
            <ns3:hr>97</ns3:hr>
            <ns3:cad>19</ns3:cad>
          </ns3:TrackPointExtension>
        </extensions>
      </trkpt>
      <trkpt lat="37.7832284756004810333251953125" lon="-107.70375908352434635162353515625">
        <ele>3964.199951171875</ele>
        <time>2023-07-29T16:43:54.000Z</time>
        <extensions>
          <ns3:TrackPointExtension>
            <ns3:hr>97</ns3:hr>
            <ns3:cad>19</ns3:cad>
          </ns3:TrackPointExtension>
        </extensions>
      </trkpt>
      <trkpt lat="37.78322420082986354827880859375" lon="-107.70375765860080718994140625">
        <ele>3963.800048828125</ele>
        <time>2023-07-29T16:43:55.000Z</time>
        <extensions>
          <ns3:TrackPointExtension>
            <ns3:hr>96</ns3:hr>
            <ns3:cad>0</ns3:cad>
          </ns3:TrackPointExtension>
        </extensions>
      </trkpt>
      <trkpt lat="37.78322705067694187164306640625" lon="-107.70374969579279422760009765625">
        <ele>3963.800048828125</ele>
        <time>2023-07-29T16:43:56.000Z</time>
        <extensions>
          <ns3:TrackPointExtension>
            <ns3:hr>95</ns3:hr>
            <ns3:cad>0</ns3:cad>
          </ns3:TrackPointExtension>
        </extensions>
      </trkpt>
      <trkpt lat="37.78322453610599040985107421875" lon="-107.7037430740892887115478515625">
        <ele>3963.39990234375</ele>
        <time>2023-07-29T16:43:57.000Z</time>
        <extensions>
          <ns3:TrackPointExtension>
            <ns3:hr>95</ns3:hr>
            <ns3:cad>0</ns3:cad>
          </ns3:TrackPointExtension>
        </extensions>
      </trkpt>
      <trkpt lat="37.78322068043053150177001953125" lon="-107.7037387154996395111083984375">
        <ele>3963.199951171875</ele>
        <time>2023-07-29T16:43:58.000Z</time>
        <extensions>
          <ns3:TrackPointExtension>
            <ns3:hr>95</ns3:hr>
            <ns3:cad>0</ns3:cad>
          </ns3:TrackPointExtension>
        </extensions>
      </trkpt>
      <trkpt lat="37.78321246616542339324951171875" lon="-107.7037407271564006805419921875">
        <ele>3963</ele>
        <time>2023-07-29T16:43:59.000Z</time>
        <extensions>
          <ns3:TrackPointExtension>
            <ns3:hr>95</ns3:hr>
            <ns3:cad>0</ns3:cad>
          </ns3:TrackPointExtension>
        </extensions>
      </trkpt>
      <trkpt lat="37.7832068502902984619140625" lon="-107.7037447504699230194091796875">
        <ele>3962.800048828125</ele>
        <time>2023-07-29T16:44:00.000Z</time>
        <extensions>
          <ns3:TrackPointExtension>
            <ns3:hr>95</ns3:hr>
            <ns3:cad>0</ns3:cad>
          </ns3:TrackPointExtension>
        </extensions>
      </trkpt>
      <trkpt lat="37.78320089913904666900634765625" lon="-107.7037420682609081268310546875">
        <ele>3962.60009765625</ele>
        <time>2023-07-29T16:44:01.000Z</time>
        <extensions>
          <ns3:TrackPointExtension>
            <ns3:hr>95</ns3:hr>
            <ns3:cad>0</ns3:cad>
          </ns3:TrackPointExtension>
        </extensions>
      </trkpt>
      <trkpt lat="37.783194445073604583740234375" lon="-107.7037403918802738189697265625">
        <ele>3962.60009765625</ele>
        <time>2023-07-29T16:44:02.000Z</time>
        <extensions>
          <ns3:TrackPointExtension>
            <ns3:hr>95</ns3:hr>
            <ns3:cad>57</ns3:cad>
          </ns3:TrackPointExtension>
        </extensions>
      </trkpt>
      <trkpt lat="37.78318740427494049072265625" lon="-107.703740559518337249755859375">
        <ele>3962.60009765625</ele>
        <time>2023-07-29T16:44:03.000Z</time>
        <extensions>
          <ns3:TrackPointExtension>
            <ns3:hr>95</ns3:hr>
            <ns3:cad>57</ns3:cad>
          </ns3:TrackPointExtension>
        </extensions>
      </trkpt>
      <trkpt lat="37.7831853926181793212890625" lon="-107.70374651066958904266357421875">
        <ele>3962.199951171875</ele>
        <time>2023-07-29T16:44:04.000Z</time>
        <extensions>
          <ns3:TrackPointExtension>
            <ns3:hr>95</ns3:hr>
            <ns3:cad>59</ns3:cad>
          </ns3:TrackPointExtension>
        </extensions>
      </trkpt>
      <trkpt lat="37.78318262659013271331787109375" lon="-107.70374692976474761962890625">
        <ele>3962.199951171875</ele>
        <time>2023-07-29T16:44:05.000Z</time>
        <extensions>
          <ns3:TrackPointExtension>
            <ns3:hr>96</ns3:hr>
            <ns3:cad>60</ns3:cad>
          </ns3:TrackPointExtension>
        </extensions>
      </trkpt>
      <trkpt lat="37.78318145312368869781494140625" lon="-107.7037450857460498809814453125">
        <ele>3961.800048828125</ele>
        <time>2023-07-29T16:44:06.000Z</time>
        <extensions>
          <ns3:TrackPointExtension>
            <ns3:hr>96</ns3:hr>
            <ns3:cad>59</ns3:cad>
          </ns3:TrackPointExtension>
        </extensions>
      </trkpt>
      <trkpt lat="37.78317424468696117401123046875" lon="-107.70374315790832042694091796875">
        <ele>3961.39990234375</ele>
        <time>2023-07-29T16:44:07.000Z</time>
        <extensions>
          <ns3:TrackPointExtension>
            <ns3:hr>96</ns3:hr>
            <ns3:cad>0</ns3:cad>
          </ns3:TrackPointExtension>
        </extensions>
      </trkpt>
      <trkpt lat="37.7831714786589145660400390625" lon="-107.70374299027025699615478515625">
        <ele>3961.199951171875</ele>
        <time>2023-07-29T16:44:08.000Z</time>
        <extensions>
          <ns3:TrackPointExtension>
            <ns3:hr>96</ns3:hr>
            <ns3:cad>0</ns3:cad>
          </ns3:TrackPointExtension>
        </extensions>
      </trkpt>
      <trkpt lat="37.78316318057477474212646484375" lon="-107.7037397213280200958251953125">
        <ele>3961</ele>
        <time>2023-07-29T16:44:09.000Z</time>
        <extensions>
          <ns3:TrackPointExtension>
            <ns3:hr>96</ns3:hr>
            <ns3:cad>0</ns3:cad>
          </ns3:TrackPointExtension>
        </extensions>
      </trkpt>
      <trkpt lat="37.78315513394773006439208984375" lon="-107.7037269808351993560791015625">
        <ele>3960.800048828125</ele>
        <time>2023-07-29T16:44:10.000Z</time>
        <extensions>
          <ns3:TrackPointExtension>
            <ns3:hr>96</ns3:hr>
            <ns3:cad>0</ns3:cad>
          </ns3:TrackPointExtension>
        </extensions>
      </trkpt>
      <trkpt lat="37.78315178118646144866943359375" lon="-107.70372689701616764068603515625">
        <ele>3960.60009765625</ele>
        <time>2023-07-29T16:44:11.000Z</time>
        <extensions>
          <ns3:TrackPointExtension>
            <ns3:hr>96</ns3:hr>
            <ns3:cad>0</ns3:cad>
          </ns3:TrackPointExtension>
        </extensions>
      </trkpt>
      <trkpt lat="37.783142812550067901611328125" lon="-107.70372639410197734832763671875">
        <ele>3960.39990234375</ele>
        <time>2023-07-29T16:44:12.000Z</time>
        <extensions>
          <ns3:TrackPointExtension>
            <ns3:hr>96</ns3:hr>
            <ns3:cad>0</ns3:cad>
          </ns3:TrackPointExtension>
        </extensions>
      </trkpt>
      <trkpt lat="37.783133089542388916015625" lon="-107.70373142324388027191162109375">
        <ele>3960.199951171875</ele>
        <time>2023-07-29T16:44:13.000Z</time>
        <extensions>
          <ns3:TrackPointExtension>
            <ns3:hr>96</ns3:hr>
            <ns3:cad>0</ns3:cad>
          </ns3:TrackPointExtension>
        </extensions>
      </trkpt>
      <trkpt lat="37.78312060050666332244873046875" lon="-107.70373309962451457977294921875">
        <ele>3960</ele>
        <time>2023-07-29T16:44:14.000Z</time>
        <extensions>
          <ns3:TrackPointExtension>
            <ns3:hr>97</ns3:hr>
            <ns3:cad>0</ns3:cad>
          </ns3:TrackPointExtension>
        </extensions>
      </trkpt>
      <trkpt lat="37.7831124700605869293212890625" lon="-107.70373041741549968719482421875">
        <ele>3960</ele>
        <time>2023-07-29T16:44:15.000Z</time>
        <extensions>
          <ns3:TrackPointExtension>
            <ns3:hr>97</ns3:hr>
            <ns3:cad>0</ns3:cad>
          </ns3:TrackPointExtension>
        </extensions>
      </trkpt>
      <trkpt lat="37.7831014059484004974365234375" lon="-107.7037263102829456329345703125">
        <ele>3959.60009765625</ele>
        <time>2023-07-29T16:44:16.000Z</time>
        <extensions>
          <ns3:TrackPointExtension>
            <ns3:hr>97</ns3:hr>
            <ns3:cad>0</ns3:cad>
          </ns3:TrackPointExtension>
        </extensions>
      </trkpt>
      <trkpt lat="37.7830920182168483734130859375" lon="-107.70372102968394756317138671875">
        <ele>3959.39990234375</ele>
        <time>2023-07-29T16:44:17.000Z</time>
        <extensions>
          <ns3:TrackPointExtension>
            <ns3:hr>97</ns3:hr>
            <ns3:cad>0</ns3:cad>
          </ns3:TrackPointExtension>
        </extensions>
      </trkpt>
      <trkpt lat="37.7830856479704380035400390625" lon="-107.70371700637042522430419921875">
        <ele>3959.199951171875</ele>
        <time>2023-07-29T16:44:18.000Z</time>
        <extensions>
          <ns3:TrackPointExtension>
            <ns3:hr>97</ns3:hr>
            <ns3:cad>71</ns3:cad>
          </ns3:TrackPointExtension>
        </extensions>
      </trkpt>
      <trkpt lat="37.78307869099080562591552734375" lon="-107.70371465943753719329833984375">
        <ele>3959</ele>
        <time>2023-07-29T16:44:19.000Z</time>
        <extensions>
          <ns3:TrackPointExtension>
            <ns3:hr>97</ns3:hr>
            <ns3:cad>71</ns3:cad>
          </ns3:TrackPointExtension>
        </extensions>
      </trkpt>
      <trkpt lat="37.7830700576305389404296875" lon="-107.70370895974338054656982421875">
        <ele>3958.800048828125</ele>
        <time>2023-07-29T16:44:20.000Z</time>
        <extensions>
          <ns3:TrackPointExtension>
            <ns3:hr>96</ns3:hr>
            <ns3:cad>71</ns3:cad>
          </ns3:TrackPointExtension>
        </extensions>
      </trkpt>
      <trkpt lat="37.783063687384128570556640625" lon="-107.7037071995437145233154296875">
        <ele>3958.60009765625</ele>
        <time>2023-07-29T16:44:21.000Z</time>
        <extensions>
          <ns3:TrackPointExtension>
            <ns3:hr>95</ns3:hr>
            <ns3:cad>18</ns3:cad>
          </ns3:TrackPointExtension>
        </extensions>
      </trkpt>
      <trkpt lat="37.7830566465854644775390625" lon="-107.7037058584392070770263671875">
        <ele>3958.39990234375</ele>
        <time>2023-07-29T16:44:22.000Z</time>
        <extensions>
          <ns3:TrackPointExtension>
            <ns3:hr>95</ns3:hr>
            <ns3:cad>18</ns3:cad>
          </ns3:TrackPointExtension>
        </extensions>
      </trkpt>
      <trkpt lat="37.7830504439771175384521484375" lon="-107.7037046849727630615234375">
        <ele>3958.39990234375</ele>
        <time>2023-07-29T16:44:23.000Z</time>
        <extensions>
          <ns3:TrackPointExtension>
            <ns3:hr>95</ns3:hr>
            <ns3:cad>0</ns3:cad>
          </ns3:TrackPointExtension>
        </extensions>
      </trkpt>
      <trkpt lat="37.78304449282586574554443359375" lon="-107.703705020248889923095703125">
        <ele>3958.199951171875</ele>
        <time>2023-07-29T16:44:24.000Z</time>
        <extensions>
          <ns3:TrackPointExtension>
            <ns3:hr>94</ns3:hr>
            <ns3:cad>0</ns3:cad>
          </ns3:TrackPointExtension>
        </extensions>
      </trkpt>
      <trkpt lat="37.783038206398487091064453125" lon="-107.70370393060147762298583984375">
        <ele>3957.800048828125</ele>
        <time>2023-07-29T16:44:25.000Z</time>
        <extensions>
          <ns3:TrackPointExtension>
            <ns3:hr>93</ns3:hr>
            <ns3:cad>0</ns3:cad>
          </ns3:TrackPointExtension>
        </extensions>
      </trkpt>
      <trkpt lat="37.78302806429564952850341796875" lon="-107.70370108075439929962158203125">
        <ele>3957.39990234375</ele>
        <time>2023-07-29T16:44:26.000Z</time>
        <extensions>
          <ns3:TrackPointExtension>
            <ns3:hr>93</ns3:hr>
            <ns3:cad>0</ns3:cad>
          </ns3:TrackPointExtension>
        </extensions>
      </trkpt>
      <trkpt lat="37.7830222807824611663818359375" lon="-107.703698985278606414794921875">
        <ele>3957.199951171875</ele>
        <time>2023-07-29T16:44:27.000Z</time>
        <extensions>
          <ns3:TrackPointExtension>
            <ns3:hr>92</ns3:hr>
            <ns3:cad>0</ns3:cad>
          </ns3:TrackPointExtension>
        </extensions>
      </trkpt>
      <trkpt lat="37.78301347978413105010986328125" lon="-107.7036951296031475067138671875">
        <ele>3957</ele>
        <time>2023-07-29T16:44:28.000Z</time>
        <extensions>
          <ns3:TrackPointExtension>
            <ns3:hr>92</ns3:hr>
            <ns3:cad>0</ns3:cad>
          </ns3:TrackPointExtension>
        </extensions>
      </trkpt>
      <trkpt lat="37.7830061875283718109130859375" lon="-107.70369269885122776031494140625">
        <ele>3956.800048828125</ele>
        <time>2023-07-29T16:44:29.000Z</time>
        <extensions>
          <ns3:TrackPointExtension>
            <ns3:hr>92</ns3:hr>
            <ns3:cad>0</ns3:cad>
          </ns3:TrackPointExtension>
        </extensions>
      </trkpt>
      <trkpt lat="37.7829998172819614410400390625" lon="-107.70368984900414943695068359375">
        <ele>3956.60009765625</ele>
        <time>2023-07-29T16:44:30.000Z</time>
        <extensions>
          <ns3:TrackPointExtension>
            <ns3:hr>92</ns3:hr>
            <ns3:cad>0</ns3:cad>
          </ns3:TrackPointExtension>
        </extensions>
      </trkpt>
      <trkpt lat="37.782993949949741363525390625" lon="-107.7036857418715953826904296875">
        <ele>3956.39990234375</ele>
        <time>2023-07-29T16:44:31.000Z</time>
        <extensions>
          <ns3:TrackPointExtension>
            <ns3:hr>93</ns3:hr>
            <ns3:cad>0</ns3:cad>
          </ns3:TrackPointExtension>
        </extensions>
      </trkpt>
      <trkpt lat="37.78298749588429927825927734375" lon="-107.7036803774535655975341796875">
        <ele>3956.39990234375</ele>
        <time>2023-07-29T16:44:32.000Z</time>
        <extensions>
          <ns3:TrackPointExtension>
            <ns3:hr>93</ns3:hr>
            <ns3:cad>0</ns3:cad>
          </ns3:TrackPointExtension>
        </extensions>
      </trkpt>
      <trkpt lat="37.78298129327595233917236328125" lon="-107.70367451012134552001953125">
        <ele>3956</ele>
        <time>2023-07-29T16:44:33.000Z</time>
        <extensions>
          <ns3:TrackPointExtension>
            <ns3:hr>93</ns3:hr>
            <ns3:cad>0</ns3:cad>
          </ns3:TrackPointExtension>
        </extensions>
      </trkpt>
      <trkpt lat="37.782974503934383392333984375" lon="-107.70367258228361606597900390625">
        <ele>3955.800048828125</ele>
        <time>2023-07-29T16:44:34.000Z</time>
        <extensions>
          <ns3:TrackPointExtension>
            <ns3:hr>93</ns3:hr>
            <ns3:cad>0</ns3:cad>
          </ns3:TrackPointExtension>
        </extensions>
      </trkpt>
      <trkpt lat="37.78296553529798984527587890625" lon="-107.70367124117910861968994140625">
        <ele>3955.60009765625</ele>
        <time>2023-07-29T16:44:35.000Z</time>
        <extensions>
          <ns3:TrackPointExtension>
            <ns3:hr>93</ns3:hr>
            <ns3:cad>0</ns3:cad>
          </ns3:TrackPointExtension>
        </extensions>
      </trkpt>
      <trkpt lat="37.78296167962253093719482421875" lon="-107.70366705022752285003662109375">
        <ele>3955.39990234375</ele>
        <time>2023-07-29T16:44:36.000Z</time>
        <extensions>
          <ns3:TrackPointExtension>
            <ns3:hr>93</ns3:hr>
            <ns3:cad>0</ns3:cad>
          </ns3:TrackPointExtension>
        </extensions>
      </trkpt>
      <trkpt lat="37.78295698575675487518310546875" lon="-107.70366403274238109588623046875">
        <ele>3955.199951171875</ele>
        <time>2023-07-29T16:44:37.000Z</time>
        <extensions>
          <ns3:TrackPointExtension>
            <ns3:hr>93</ns3:hr>
            <ns3:cad>0</ns3:cad>
          </ns3:TrackPointExtension>
        </extensions>
      </trkpt>
      <trkpt lat="37.782952375710010528564453125" lon="-107.70366378128528594970703125">
        <ele>3955</ele>
        <time>2023-07-29T16:44:38.000Z</time>
        <extensions>
          <ns3:TrackPointExtension>
            <ns3:hr>93</ns3:hr>
            <ns3:cad>0</ns3:cad>
          </ns3:TrackPointExtension>
        </extensions>
      </trkpt>
      <trkpt lat="37.78294189833104610443115234375" lon="-107.7036617696285247802734375">
        <ele>3955</ele>
        <time>2023-07-29T16:44:39.000Z</time>
        <extensions>
          <ns3:TrackPointExtension>
            <ns3:hr>93</ns3:hr>
            <ns3:cad>0</ns3:cad>
          </ns3:TrackPointExtension>
        </extensions>
      </trkpt>
      <trkpt lat="37.7829341031610965728759765625" lon="-107.703662775456905364990234375">
        <ele>3954.60009765625</ele>
        <time>2023-07-29T16:44:40.000Z</time>
        <extensions>
          <ns3:TrackPointExtension>
            <ns3:hr>94</ns3:hr>
            <ns3:cad>0</ns3:cad>
          </ns3:TrackPointExtension>
        </extensions>
      </trkpt>
      <trkpt lat="37.78292630799114704132080078125" lon="-107.7036644518375396728515625">
        <ele>3954.39990234375</ele>
        <time>2023-07-29T16:44:41.000Z</time>
        <extensions>
          <ns3:TrackPointExtension>
            <ns3:hr>94</ns3:hr>
            <ns3:cad>0</ns3:cad>
          </ns3:TrackPointExtension>
        </extensions>
      </trkpt>
      <trkpt lat="37.78292295522987842559814453125" lon="-107.7036636136472225189208984375">
        <ele>3954</ele>
        <time>2023-07-29T16:44:42.000Z</time>
        <extensions>
          <ns3:TrackPointExtension>
            <ns3:hr>95</ns3:hr>
            <ns3:cad>0</ns3:cad>
          </ns3:TrackPointExtension>
        </extensions>
      </trkpt>
      <trkpt lat="37.782918177545070648193359375" lon="-107.70365707576274871826171875">
        <ele>3953.800048828125</ele>
        <time>2023-07-29T16:44:43.000Z</time>
        <extensions>
          <ns3:TrackPointExtension>
            <ns3:hr>95</ns3:hr>
            <ns3:cad>0</ns3:cad>
          </ns3:TrackPointExtension>
        </extensions>
      </trkpt>
      <trkpt lat="37.782918177545070648193359375" lon="-107.70365581847727298736572265625">
        <ele>3953.60009765625</ele>
        <time>2023-07-29T16:44:44.000Z</time>
        <extensions>
          <ns3:TrackPointExtension>
            <ns3:hr>96</ns3:hr>
            <ns3:cad>0</ns3:cad>
          </ns3:TrackPointExtension>
        </extensions>
      </trkpt>
      <trkpt lat="37.7829136513173580169677734375" lon="-107.70365196280181407928466796875">
        <ele>3953.39990234375</ele>
        <time>2023-07-29T16:44:45.000Z</time>
        <extensions>
          <ns3:TrackPointExtension>
            <ns3:hr>96</ns3:hr>
            <ns3:cad>0</ns3:cad>
          </ns3:TrackPointExtension>
        </extensions>
      </trkpt>
      <trkpt lat="37.7829109691083431243896484375" lon="-107.70364928059279918670654296875">
        <ele>3953.199951171875</ele>
        <time>2023-07-29T16:44:46.000Z</time>
        <extensions>
          <ns3:TrackPointExtension>
            <ns3:hr>95</ns3:hr>
            <ns3:cad>0</ns3:cad>
          </ns3:TrackPointExtension>
        </extensions>
      </trkpt>
      <trkpt lat="37.7829064428806304931640625" lon="-107.70364643074572086334228515625">
        <ele>3953</ele>
        <time>2023-07-29T16:44:47.000Z</time>
        <extensions>
          <ns3:TrackPointExtension>
            <ns3:hr>95</ns3:hr>
            <ns3:cad>0</ns3:cad>
          </ns3:TrackPointExtension>
        </extensions>
      </trkpt>
      <trkpt lat="37.782902754843235015869140625" lon="-107.7036438323557376861572265625">
        <ele>3953</ele>
        <time>2023-07-29T16:44:48.000Z</time>
        <extensions>
          <ns3:TrackPointExtension>
            <ns3:hr>95</ns3:hr>
            <ns3:cad>0</ns3:cad>
          </ns3:TrackPointExtension>
        </extensions>
      </trkpt>
      <trkpt lat="37.78289848007261753082275390625" lon="-107.7036414854228496551513671875">
        <ele>3952.800048828125</ele>
        <time>2023-07-29T16:44:49.000Z</time>
        <extensions>
          <ns3:TrackPointExtension>
            <ns3:hr>95</ns3:hr>
            <ns3:cad>0</ns3:cad>
          </ns3:TrackPointExtension>
        </extensions>
      </trkpt>
      <trkpt lat="37.7829002402722835540771484375" lon="-107.703636623919010162353515625">
        <ele>3952.60009765625</ele>
        <time>2023-07-29T16:44:50.000Z</time>
        <extensions>
          <ns3:TrackPointExtension>
            <ns3:hr>95</ns3:hr>
            <ns3:cad>0</ns3:cad>
          </ns3:TrackPointExtension>
        </extensions>
      </trkpt>
      <trkpt lat="37.7828948758542537689208984375" lon="-107.70362866111099720001220703125">
        <ele>3952.199951171875</ele>
        <time>2023-07-29T16:44:51.000Z</time>
        <extensions>
          <ns3:TrackPointExtension>
            <ns3:hr>95</ns3:hr>
            <ns3:cad>0</ns3:cad>
          </ns3:TrackPointExtension>
        </extensions>
      </trkpt>
      <trkpt lat="37.78289060108363628387451171875" lon="-107.70362530834972858428955078125">
        <ele>3952</ele>
        <time>2023-07-29T16:44:52.000Z</time>
        <extensions>
          <ns3:TrackPointExtension>
            <ns3:hr>95</ns3:hr>
            <ns3:cad>0</ns3:cad>
          </ns3:TrackPointExtension>
        </extensions>
      </trkpt>
      <trkpt lat="37.78288825415074825286865234375" lon="-107.7036230452358722686767578125">
        <ele>3952</ele>
        <time>2023-07-29T16:44:53.000Z</time>
        <extensions>
          <ns3:TrackPointExtension>
            <ns3:hr>95</ns3:hr>
            <ns3:cad>0</ns3:cad>
          </ns3:TrackPointExtension>
        </extensions>
      </trkpt>
      <trkpt lat="37.78288473375141620635986328125" lon="-107.70362623035907745361328125">
        <ele>3951.60009765625</ele>
        <time>2023-07-29T16:44:54.000Z</time>
        <extensions>
          <ns3:TrackPointExtension>
            <ns3:hr>95</ns3:hr>
            <ns3:cad>0</ns3:cad>
          </ns3:TrackPointExtension>
        </extensions>
      </trkpt>
      <trkpt lat="37.78288138099014759063720703125" lon="-107.7036294154822826385498046875">
        <ele>3951.39990234375</ele>
        <time>2023-07-29T16:44:55.000Z</time>
        <extensions>
          <ns3:TrackPointExtension>
            <ns3:hr>95</ns3:hr>
            <ns3:cad>0</ns3:cad>
          </ns3:TrackPointExtension>
        </extensions>
      </trkpt>
      <trkpt lat="37.782874591648578643798828125" lon="-107.70363427698612213134765625">
        <ele>3951.199951171875</ele>
        <time>2023-07-29T16:44:56.000Z</time>
        <extensions>
          <ns3:TrackPointExtension>
            <ns3:hr>95</ns3:hr>
            <ns3:cad>0</ns3:cad>
          </ns3:TrackPointExtension>
        </extensions>
      </trkpt>
      <trkpt lat="37.782873921096324920654296875" lon="-107.7036411501467227935791015625">
        <ele>3951.199951171875</ele>
        <time>2023-07-29T16:44:57.000Z</time>
        <extensions>
          <ns3:TrackPointExtension>
            <ns3:hr>94</ns3:hr>
            <ns3:cad>0</ns3:cad>
          </ns3:TrackPointExtension>
        </extensions>
      </trkpt>
      <trkpt lat="37.7828720770776271820068359375" lon="-107.703641988337039947509765625">
        <ele>3951</ele>
        <time>2023-07-29T16:44:58.000Z</time>
        <extensions>
          <ns3:TrackPointExtension>
            <ns3:hr>94</ns3:hr>
            <ns3:cad>0</ns3:cad>
          </ns3:TrackPointExtension>
        </extensions>
      </trkpt>
      <trkpt lat="37.78286285698413848876953125" lon="-107.70365028642117977142333984375">
        <ele>3950.800048828125</ele>
        <time>2023-07-29T16:44:59.000Z</time>
        <extensions>
          <ns3:TrackPointExtension>
            <ns3:hr>94</ns3:hr>
            <ns3:cad>0</ns3:cad>
          </ns3:TrackPointExtension>
        </extensions>
      </trkpt>
      <trkpt lat="37.7828623540699481964111328125" lon="-107.70364911295473575592041015625">
        <ele>3950.60009765625</ele>
        <time>2023-07-29T16:45:00.000Z</time>
        <extensions>
          <ns3:TrackPointExtension>
            <ns3:hr>94</ns3:hr>
            <ns3:cad>0</ns3:cad>
          </ns3:TrackPointExtension>
        </extensions>
      </trkpt>
      <trkpt lat="37.7828556485474109649658203125" lon="-107.70364844240248203277587890625">
        <ele>3950.60009765625</ele>
        <time>2023-07-29T16:45:01.000Z</time>
        <extensions>
          <ns3:TrackPointExtension>
            <ns3:hr>94</ns3:hr>
            <ns3:cad>0</ns3:cad>
          </ns3:TrackPointExtension>
        </extensions>
      </trkpt>
      <trkpt lat="37.78285422362387180328369140625" lon="-107.703648023307323455810546875">
        <ele>3950.39990234375</ele>
        <time>2023-07-29T16:45:02.000Z</time>
        <extensions>
          <ns3:TrackPointExtension>
            <ns3:hr>94</ns3:hr>
            <ns3:cad>0</ns3:cad>
          </ns3:TrackPointExtension>
        </extensions>
      </trkpt>
      <trkpt lat="37.78284416534006595611572265625" lon="-107.70364726893603801727294921875">
        <ele>3950.199951171875</ele>
        <time>2023-07-29T16:45:03.000Z</time>
        <extensions>
          <ns3:TrackPointExtension>
            <ns3:hr>94</ns3:hr>
            <ns3:cad>0</ns3:cad>
          </ns3:TrackPointExtension>
        </extensions>
      </trkpt>
      <trkpt lat="37.78284198604524135589599609375" lon="-107.703644335269927978515625">
        <ele>3950</ele>
        <time>2023-07-29T16:45:04.000Z</time>
        <extensions>
          <ns3:TrackPointExtension>
            <ns3:hr>94</ns3:hr>
            <ns3:cad>0</ns3:cad>
          </ns3:TrackPointExtension>
        </extensions>
      </trkpt>
      <trkpt lat="37.78283729217946529388427734375" lon="-107.70363821648061275482177734375">
        <ele>3949.60009765625</ele>
        <time>2023-07-29T16:45:05.000Z</time>
        <extensions>
          <ns3:TrackPointExtension>
            <ns3:hr>93</ns3:hr>
            <ns3:cad>0</ns3:cad>
          </ns3:TrackPointExtension>
        </extensions>
      </trkpt>
      <trkpt lat="37.78282991610467433929443359375" lon="-107.703637294471263885498046875">
        <ele>3949.39990234375</ele>
        <time>2023-07-29T16:45:06.000Z</time>
        <extensions>
          <ns3:TrackPointExtension>
            <ns3:hr>93</ns3:hr>
            <ns3:cad>0</ns3:cad>
          </ns3:TrackPointExtension>
        </extensions>
      </trkpt>
      <trkpt lat="37.7828224562108516693115234375" lon="-107.7036354504525661468505859375">
        <ele>3949.199951171875</ele>
        <time>2023-07-29T16:45:07.000Z</time>
        <extensions>
          <ns3:TrackPointExtension>
            <ns3:hr>93</ns3:hr>
            <ns3:cad>0</ns3:cad>
          </ns3:TrackPointExtension>
        </extensions>
      </trkpt>
      <trkpt lat="37.782818265259265899658203125" lon="-107.703630924224853515625">
        <ele>3949</ele>
        <time>2023-07-29T16:45:08.000Z</time>
        <extensions>
          <ns3:TrackPointExtension>
            <ns3:hr>93</ns3:hr>
            <ns3:cad>0</ns3:cad>
          </ns3:TrackPointExtension>
        </extensions>
      </trkpt>
      <trkpt lat="37.78281348757445812225341796875" lon="-107.70362664945423603057861328125">
        <ele>3949</ele>
        <time>2023-07-29T16:45:09.000Z</time>
        <extensions>
          <ns3:TrackPointExtension>
            <ns3:hr>94</ns3:hr>
            <ns3:cad>0</ns3:cad>
          </ns3:TrackPointExtension>
        </extensions>
      </trkpt>
      <trkpt lat="37.78280409984290599822998046875" lon="-107.70361960865557193756103515625">
        <ele>3948.800048828125</ele>
        <time>2023-07-29T16:45:10.000Z</time>
        <extensions>
          <ns3:TrackPointExtension>
            <ns3:hr>94</ns3:hr>
            <ns3:cad>0</ns3:cad>
          </ns3:TrackPointExtension>
        </extensions>
      </trkpt>
      <trkpt lat="37.7827919460833072662353515625" lon="-107.7036119811236858367919921875">
        <ele>3948.60009765625</ele>
        <time>2023-07-29T16:45:11.000Z</time>
        <extensions>
          <ns3:TrackPointExtension>
            <ns3:hr>94</ns3:hr>
            <ns3:cad>0</ns3:cad>
          </ns3:TrackPointExtension>
        </extensions>
      </trkpt>
      <trkpt lat="37.78278104960918426513671875" lon="-107.7036086283624172210693359375">
        <ele>3948.39990234375</ele>
        <time>2023-07-29T16:45:12.000Z</time>
        <extensions>
          <ns3:TrackPointExtension>
            <ns3:hr>93</ns3:hr>
            <ns3:cad>0</ns3:cad>
          </ns3:TrackPointExtension>
        </extensions>
      </trkpt>
      <trkpt lat="37.78277258388698101043701171875" lon="-107.703606449067592620849609375">
        <ele>3948</ele>
        <time>2023-07-29T16:45:13.000Z</time>
        <extensions>
          <ns3:TrackPointExtension>
            <ns3:hr>93</ns3:hr>
            <ns3:cad>0</ns3:cad>
          </ns3:TrackPointExtension>
        </extensions>
      </trkpt>
      <trkpt lat="37.78276604600250720977783203125" lon="-107.70360552705824375152587890625">
        <ele>3947.800048828125</ele>
        <time>2023-07-29T16:45:14.000Z</time>
        <extensions>
          <ns3:TrackPointExtension>
            <ns3:hr>93</ns3:hr>
            <ns3:cad>0</ns3:cad>
          </ns3:TrackPointExtension>
        </extensions>
      </trkpt>
      <trkpt lat="37.78275690972805023193359375" lon="-107.703601755201816558837890625">
        <ele>3947.800048828125</ele>
        <time>2023-07-29T16:45:15.000Z</time>
        <extensions>
          <ns3:TrackPointExtension>
            <ns3:hr>92</ns3:hr>
            <ns3:cad>0</ns3:cad>
          </ns3:TrackPointExtension>
        </extensions>
      </trkpt>
      <trkpt lat="37.78275514952838420867919921875" lon="-107.70360502414405345916748046875">
        <ele>3947.60009765625</ele>
        <time>2023-07-29T16:45:16.000Z</time>
        <extensions>
          <ns3:TrackPointExtension>
            <ns3:hr>92</ns3:hr>
            <ns3:cad>0</ns3:cad>
          </ns3:TrackPointExtension>
        </extensions>
      </trkpt>
      <trkpt lat="37.7827493660151958465576171875" lon="-107.703606449067592620849609375">
        <ele>3947.39990234375</ele>
        <time>2023-07-29T16:45:17.000Z</time>
        <extensions>
          <ns3:TrackPointExtension>
            <ns3:hr>91</ns3:hr>
            <ns3:cad>0</ns3:cad>
          </ns3:TrackPointExtension>
        </extensions>
      </trkpt>
      <trkpt lat="37.7827453427016735076904296875" lon="-107.70360619761049747467041015625">
        <ele>3947.199951171875</ele>
        <time>2023-07-29T16:45:18.000Z</time>
        <extensions>
          <ns3:TrackPointExtension>
            <ns3:hr>91</ns3:hr>
            <ns3:cad>0</ns3:cad>
          </ns3:TrackPointExtension>
        </extensions>
      </trkpt>
      <trkpt lat="37.78274257667362689971923828125" lon="-107.70360703580081462860107421875">
        <ele>3947</ele>
        <time>2023-07-29T16:45:19.000Z</time>
        <extensions>
          <ns3:TrackPointExtension>
            <ns3:hr>91</ns3:hr>
            <ns3:cad>0</ns3:cad>
          </ns3:TrackPointExtension>
        </extensions>
      </trkpt>
      <trkpt lat="37.78273687697947025299072265625" lon="-107.70360619761049747467041015625">
        <ele>3946.60009765625</ele>
        <time>2023-07-29T16:45:20.000Z</time>
        <extensions>
          <ns3:TrackPointExtension>
            <ns3:hr>90</ns3:hr>
            <ns3:cad>0</ns3:cad>
          </ns3:TrackPointExtension>
        </extensions>
      </trkpt>
      <trkpt lat="37.78273117728531360626220703125" lon="-107.70360820926725864410400390625">
        <ele>3946.39990234375</ele>
        <time>2023-07-29T16:45:21.000Z</time>
        <extensions>
          <ns3:TrackPointExtension>
            <ns3:hr>90</ns3:hr>
            <ns3:cad>0</ns3:cad>
          </ns3:TrackPointExtension>
        </extensions>
      </trkpt>
      <trkpt lat="37.78272497467696666717529296875" lon="-107.70360703580081462860107421875">
        <ele>3946.199951171875</ele>
        <time>2023-07-29T16:45:22.000Z</time>
        <extensions>
          <ns3:TrackPointExtension>
            <ns3:hr>90</ns3:hr>
            <ns3:cad>0</ns3:cad>
          </ns3:TrackPointExtension>
        </extensions>
      </trkpt>
      <trkpt lat="37.78271910734474658966064453125" lon="-107.70360586233437061309814453125">
        <ele>3946</ele>
        <time>2023-07-29T16:45:23.000Z</time>
        <extensions>
          <ns3:TrackPointExtension>
            <ns3:hr>90</ns3:hr>
            <ns3:cad>0</ns3:cad>
          </ns3:TrackPointExtension>
        </extensions>
      </trkpt>
      <trkpt lat="37.78271575458347797393798828125" lon="-107.7036062814295291900634765625">
        <ele>3945.800048828125</ele>
        <time>2023-07-29T16:45:24.000Z</time>
        <extensions>
          <ns3:TrackPointExtension>
            <ns3:hr>90</ns3:hr>
            <ns3:cad>0</ns3:cad>
          </ns3:TrackPointExtension>
        </extensions>
      </trkpt>
      <trkpt lat="37.78271106071770191192626953125" lon="-107.70360611379146575927734375">
        <ele>3945.39990234375</ele>
        <time>2023-07-29T16:45:25.000Z</time>
        <extensions>
          <ns3:TrackPointExtension>
            <ns3:hr>89</ns3:hr>
            <ns3:cad>0</ns3:cad>
          </ns3:TrackPointExtension>
        </extensions>
      </trkpt>
      <trkpt lat="37.78270904906094074249267578125" lon="-107.70360770635306835174560546875">
        <ele>3945.39990234375</ele>
        <time>2023-07-29T16:45:26.000Z</time>
        <extensions>
          <ns3:TrackPointExtension>
            <ns3:hr>88</ns3:hr>
            <ns3:cad>0</ns3:cad>
          </ns3:TrackPointExtension>
        </extensions>
      </trkpt>
      <trkpt lat="37.7827007509768009185791015625" lon="-107.7036082930862903594970703125">
        <ele>3945.199951171875</ele>
        <time>2023-07-29T16:45:27.000Z</time>
        <extensions>
          <ns3:TrackPointExtension>
            <ns3:hr>87</ns3:hr>
            <ns3:cad>0</ns3:cad>
          </ns3:TrackPointExtension>
        </extensions>
      </trkpt>
      <trkpt lat="37.782690525054931640625" lon="-107.70360871218144893646240234375">
        <ele>3945</ele>
        <time>2023-07-29T16:45:28.000Z</time>
        <extensions>
          <ns3:TrackPointExtension>
            <ns3:hr>87</ns3:hr>
            <ns3:cad>51</ns3:cad>
          </ns3:TrackPointExtension>
        </extensions>
      </trkpt>
      <trkpt lat="37.78268155641853809356689453125" lon="-107.70360745489597320556640625">
        <ele>3944.800048828125</ele>
        <time>2023-07-29T16:45:29.000Z</time>
        <extensions>
          <ns3:TrackPointExtension>
            <ns3:hr>86</ns3:hr>
            <ns3:cad>51</ns3:cad>
          </ns3:TrackPointExtension>
        </extensions>
      </trkpt>
      <trkpt lat="37.78267401270568370819091796875" lon="-107.70360468886792659759521484375">
        <ele>3944.60009765625</ele>
        <time>2023-07-29T16:45:30.000Z</time>
        <extensions>
          <ns3:TrackPointExtension>
            <ns3:hr>85</ns3:hr>
            <ns3:cad>51</ns3:cad>
          </ns3:TrackPointExtension>
        </extensions>
      </trkpt>
      <trkpt lat="37.78266697190701961517333984375" lon="-107.70360133610665798187255859375">
        <ele>3944.60009765625</ele>
        <time>2023-07-29T16:45:31.000Z</time>
        <extensions>
          <ns3:TrackPointExtension>
            <ns3:hr>85</ns3:hr>
            <ns3:cad>51</ns3:cad>
          </ns3:TrackPointExtension>
        </extensions>
      </trkpt>
      <trkpt lat="37.7826578356325626373291015625" lon="-107.7035968936979770660400390625">
        <ele>3944.199951171875</ele>
        <time>2023-07-29T16:45:32.000Z</time>
        <extensions>
          <ns3:TrackPointExtension>
            <ns3:hr>85</ns3:hr>
            <ns3:cad>0</ns3:cad>
          </ns3:TrackPointExtension>
        </extensions>
      </trkpt>
      <trkpt lat="37.78264953754842281341552734375" lon="-107.70359270274639129638671875">
        <ele>3944</ele>
        <time>2023-07-29T16:45:33.000Z</time>
        <extensions>
          <ns3:TrackPointExtension>
            <ns3:hr>85</ns3:hr>
            <ns3:cad>0</ns3:cad>
          </ns3:TrackPointExtension>
        </extensions>
      </trkpt>
      <trkpt lat="37.78263880871236324310302734375" lon="-107.70358926616609096527099609375">
        <ele>3943.800048828125</ele>
        <time>2023-07-29T16:45:34.000Z</time>
        <extensions>
          <ns3:TrackPointExtension>
            <ns3:hr>85</ns3:hr>
            <ns3:cad>18</ns3:cad>
          </ns3:TrackPointExtension>
        </extensions>
      </trkpt>
      <trkpt lat="37.78263025917112827301025390625" lon="-107.70358859561383724212646484375">
        <ele>3943.60009765625</ele>
        <time>2023-07-29T16:45:35.000Z</time>
        <extensions>
          <ns3:TrackPointExtension>
            <ns3:hr>85</ns3:hr>
            <ns3:cad>18</ns3:cad>
          </ns3:TrackPointExtension>
        </extensions>
      </trkpt>
      <trkpt lat="37.78262338601052761077880859375" lon="-107.70358725450932979583740234375">
        <ele>3943.39990234375</ele>
        <time>2023-07-29T16:45:36.000Z</time>
        <extensions>
          <ns3:TrackPointExtension>
            <ns3:hr>85</ns3:hr>
            <ns3:cad>55</ns3:cad>
          </ns3:TrackPointExtension>
        </extensions>
      </trkpt>
      <trkpt lat="37.782613076269626617431640625" lon="-107.70358524285256862640380859375">
        <ele>3943.199951171875</ele>
        <time>2023-07-29T16:45:37.000Z</time>
        <extensions>
          <ns3:TrackPointExtension>
            <ns3:hr>85</ns3:hr>
            <ns3:cad>55</ns3:cad>
          </ns3:TrackPointExtension>
        </extensions>
      </trkpt>
      <trkpt lat="37.78260310180485248565673828125" lon="-107.70358063280582427978515625">
        <ele>3943</ele>
        <time>2023-07-29T16:45:38.000Z</time>
        <extensions>
          <ns3:TrackPointExtension>
            <ns3:hr>85</ns3:hr>
            <ns3:cad>55</ns3:cad>
          </ns3:TrackPointExtension>
        </extensions>
      </trkpt>
      <trkpt lat="37.78259488753974437713623046875" lon="-107.70357585512101650238037109375">
        <ele>3942.800048828125</ele>
        <time>2023-07-29T16:45:39.000Z</time>
        <extensions>
          <ns3:TrackPointExtension>
            <ns3:hr>85</ns3:hr>
            <ns3:cad>0</ns3:cad>
          </ns3:TrackPointExtension>
        </extensions>
      </trkpt>
      <trkpt lat="37.7825887687504291534423828125" lon="-107.7035720832645893096923828125">
        <ele>3942.60009765625</ele>
        <time>2023-07-29T16:45:40.000Z</time>
        <extensions>
          <ns3:TrackPointExtension>
            <ns3:hr>85</ns3:hr>
            <ns3:cad>0</ns3:cad>
          </ns3:TrackPointExtension>
        </extensions>
      </trkpt>
      <trkpt lat="37.78258390724658966064453125" lon="-107.7035700716078281402587890625">
        <ele>3942.39990234375</ele>
        <time>2023-07-29T16:45:41.000Z</time>
        <extensions>
          <ns3:TrackPointExtension>
            <ns3:hr>85</ns3:hr>
            <ns3:cad>0</ns3:cad>
          </ns3:TrackPointExtension>
        </extensions>
      </trkpt>
      <trkpt lat="37.78257929719984531402587890625" lon="-107.70356831140816211700439453125">
        <ele>3942.199951171875</ele>
        <time>2023-07-29T16:45:42.000Z</time>
        <extensions>
          <ns3:TrackPointExtension>
            <ns3:hr>85</ns3:hr>
            <ns3:cad>0</ns3:cad>
          </ns3:TrackPointExtension>
        </extensions>
      </trkpt>
      <trkpt lat="37.7825711667537689208984375" lon="-107.70356629975140094757080078125">
        <ele>3942</ele>
        <time>2023-07-29T16:45:43.000Z</time>
        <extensions>
          <ns3:TrackPointExtension>
            <ns3:hr>85</ns3:hr>
            <ns3:cad>0</ns3:cad>
          </ns3:TrackPointExtension>
        </extensions>
      </trkpt>
      <trkpt lat="37.78255566023290157318115234375" lon="-107.703562192618846893310546875">
        <ele>3942</ele>
        <time>2023-07-29T16:45:44.000Z</time>
        <extensions>
          <ns3:TrackPointExtension>
            <ns3:hr>85</ns3:hr>
            <ns3:cad>0</ns3:cad>
          </ns3:TrackPointExtension>
        </extensions>
      </trkpt>
      <trkpt lat="37.78254107572138309478759765625" lon="-107.70356093533337116241455078125">
        <ele>3941.800048828125</ele>
        <time>2023-07-29T16:45:45.000Z</time>
        <extensions>
          <ns3:TrackPointExtension>
            <ns3:hr>86</ns3:hr>
            <ns3:cad>0</ns3:cad>
          </ns3:TrackPointExtension>
        </extensions>
      </trkpt>
      <trkpt lat="37.782527245581150054931640625" lon="-107.70355825312435626983642578125">
        <ele>3941.800048828125</ele>
        <time>2023-07-29T16:45:46.000Z</time>
        <extensions>
          <ns3:TrackPointExtension>
            <ns3:hr>87</ns3:hr>
            <ns3:cad>0</ns3:cad>
          </ns3:TrackPointExtension>
        </extensions>
      </trkpt>
      <trkpt lat="37.78251743875443935394287109375" lon="-107.70355691201984882354736328125">
        <ele>3941.800048828125</ele>
        <time>2023-07-29T16:45:47.000Z</time>
        <extensions>
          <ns3:TrackPointExtension>
            <ns3:hr>87</ns3:hr>
            <ns3:cad>0</ns3:cad>
          </ns3:TrackPointExtension>
        </extensions>
      </trkpt>
      <trkpt lat="37.78251039795577526092529296875" lon="-107.70355707965791225433349609375">
        <ele>3941.60009765625</ele>
        <time>2023-07-29T16:45:48.000Z</time>
        <extensions>
          <ns3:TrackPointExtension>
            <ns3:hr>87</ns3:hr>
            <ns3:cad>0</ns3:cad>
          </ns3:TrackPointExtension>
        </extensions>
      </trkpt>
      <trkpt lat="37.78251810930669307708740234375" lon="-107.70355557091534137725830078125">
        <ele>3941.199951171875</ele>
        <time>2023-07-29T16:45:49.000Z</time>
        <extensions>
          <ns3:TrackPointExtension>
            <ns3:hr>88</ns3:hr>
            <ns3:cad>0</ns3:cad>
          </ns3:TrackPointExtension>
        </extensions>
      </trkpt>
      <trkpt lat="37.78252112679183483123779296875" lon="-107.70355355925858020782470703125">
        <ele>3941</ele>
        <time>2023-07-29T16:45:50.000Z</time>
        <extensions>
          <ns3:TrackPointExtension>
            <ns3:hr>88</ns3:hr>
            <ns3:cad>0</ns3:cad>
          </ns3:TrackPointExtension>
        </extensions>
      </trkpt>
      <trkpt lat="37.78252230025827884674072265625" lon="-107.7035512961447238922119140625">
        <ele>3941</ele>
        <time>2023-07-29T16:45:51.000Z</time>
        <extensions>
          <ns3:TrackPointExtension>
            <ns3:hr>88</ns3:hr>
            <ns3:cad>0</ns3:cad>
          </ns3:TrackPointExtension>
        </extensions>
      </trkpt>
      <trkpt lat="37.78251844458281993865966796875" lon="-107.7035502903163433074951171875">
        <ele>3940.800048828125</ele>
        <time>2023-07-29T16:45:52.000Z</time>
        <extensions>
          <ns3:TrackPointExtension>
            <ns3:hr>88</ns3:hr>
            <ns3:cad>0</ns3:cad>
          </ns3:TrackPointExtension>
        </extensions>
      </trkpt>
      <trkpt lat="37.782508470118045806884765625" lon="-107.70354551263153553009033203125">
        <ele>3940.60009765625</ele>
        <time>2023-07-29T16:45:53.000Z</time>
        <extensions>
          <ns3:TrackPointExtension>
            <ns3:hr>88</ns3:hr>
            <ns3:cad>79</ns3:cad>
          </ns3:TrackPointExtension>
        </extensions>
      </trkpt>
      <trkpt lat="37.7825052849948406219482421875" lon="-107.70353880710899829864501953125">
        <ele>3940.39990234375</ele>
        <time>2023-07-29T16:45:54.000Z</time>
        <extensions>
          <ns3:TrackPointExtension>
            <ns3:hr>89</ns3:hr>
            <ns3:cad>79</ns3:cad>
          </ns3:TrackPointExtension>
        </extensions>
      </trkpt>
      <trkpt lat="37.78250436298549175262451171875" lon="-107.70353310741484165191650390625">
        <ele>3940.199951171875</ele>
        <time>2023-07-29T16:45:55.000Z</time>
        <extensions>
          <ns3:TrackPointExtension>
            <ns3:hr>89</ns3:hr>
            <ns3:cad>0</ns3:cad>
          </ns3:TrackPointExtension>
        </extensions>
      </trkpt>
      <trkpt lat="37.7825046144425868988037109375" lon="-107.70352992229163646697998046875">
        <ele>3940</ele>
        <time>2023-07-29T16:45:56.000Z</time>
        <extensions>
          <ns3:TrackPointExtension>
            <ns3:hr>90</ns3:hr>
            <ns3:cad>0</ns3:cad>
          </ns3:TrackPointExtension>
        </extensions>
      </trkpt>
      <trkpt lat="37.7824995853006839752197265625" lon="-107.7035184390842914581298828125">
        <ele>3940</ele>
        <time>2023-07-29T16:45:57.000Z</time>
        <extensions>
          <ns3:TrackPointExtension>
            <ns3:hr>91</ns3:hr>
            <ns3:cad>0</ns3:cad>
          </ns3:TrackPointExtension>
        </extensions>
      </trkpt>
      <trkpt lat="37.782497070729732513427734375" lon="-107.70350662060081958770751953125">
        <ele>3939.800048828125</ele>
        <time>2023-07-29T16:45:58.000Z</time>
        <extensions>
          <ns3:TrackPointExtension>
            <ns3:hr>92</ns3:hr>
            <ns3:cad>0</ns3:cad>
          </ns3:TrackPointExtension>
        </extensions>
      </trkpt>
      <trkpt lat="37.78249715454876422882080078125" lon="-107.7035020105540752410888671875">
        <ele>3939.800048828125</ele>
        <time>2023-07-29T16:45:59.000Z</time>
        <extensions>
          <ns3:TrackPointExtension>
            <ns3:hr>93</ns3:hr>
            <ns3:cad>0</ns3:cad>
          </ns3:TrackPointExtension>
        </extensions>
      </trkpt>
      <trkpt lat="37.7824932150542736053466796875" lon="-107.70350125618278980255126953125">
        <ele>3939.800048828125</ele>
        <time>2023-07-29T16:46:00.000Z</time>
        <extensions>
          <ns3:TrackPointExtension>
            <ns3:hr>93</ns3:hr>
            <ns3:cad>0</ns3:cad>
          </ns3:TrackPointExtension>
        </extensions>
      </trkpt>
      <trkpt lat="37.78249212540686130523681640625" lon="-107.70350326783955097198486328125">
        <ele>3939.60009765625</ele>
        <time>2023-07-29T16:46:01.000Z</time>
        <extensions>
          <ns3:TrackPointExtension>
            <ns3:hr>94</ns3:hr>
            <ns3:cad>0</ns3:cad>
          </ns3:TrackPointExtension>
        </extensions>
      </trkpt>
      <trkpt lat="37.782491035759449005126953125" lon="-107.70350477658212184906005859375">
        <ele>3939.39990234375</ele>
        <time>2023-07-29T16:46:02.000Z</time>
        <extensions>
          <ns3:TrackPointExtension>
            <ns3:hr>94</ns3:hr>
            <ns3:cad>0</ns3:cad>
          </ns3:TrackPointExtension>
        </extensions>
      </trkpt>
      <trkpt lat="37.78248198330402374267578125" lon="-107.703497819602489471435546875">
        <ele>3939</ele>
        <time>2023-07-29T16:46:03.000Z</time>
        <extensions>
          <ns3:TrackPointExtension>
            <ns3:hr>93</ns3:hr>
            <ns3:cad>0</ns3:cad>
          </ns3:TrackPointExtension>
        </extensions>
      </trkpt>
      <trkpt lat="37.78247351758182048797607421875" lon="-107.70348700694739818572998046875">
        <ele>3938.800048828125</ele>
        <time>2023-07-29T16:46:04.000Z</time>
        <extensions>
          <ns3:TrackPointExtension>
            <ns3:hr>93</ns3:hr>
            <ns3:cad>0</ns3:cad>
          </ns3:TrackPointExtension>
        </extensions>
      </trkpt>
      <trkpt lat="37.7824667282402515411376953125" lon="-107.70348197780549526214599609375">
        <ele>3938.39990234375</ele>
        <time>2023-07-29T16:46:05.000Z</time>
        <extensions>
          <ns3:TrackPointExtension>
            <ns3:hr>93</ns3:hr>
            <ns3:cad>0</ns3:cad>
          </ns3:TrackPointExtension>
        </extensions>
      </trkpt>
      <trkpt lat="37.7824630402028560638427734375" lon="-107.7034798823297023773193359375">
        <ele>3938.199951171875</ele>
        <time>2023-07-29T16:46:06.000Z</time>
        <extensions>
          <ns3:TrackPointExtension>
            <ns3:hr>93</ns3:hr>
            <ns3:cad>0</ns3:cad>
          </ns3:TrackPointExtension>
        </extensions>
      </trkpt>
      <trkpt lat="37.78246010653674602508544921875" lon="-107.70348231308162212371826171875">
        <ele>3938</ele>
        <time>2023-07-29T16:46:07.000Z</time>
        <extensions>
          <ns3:TrackPointExtension>
            <ns3:hr>93</ns3:hr>
            <ns3:cad>0</ns3:cad>
          </ns3:TrackPointExtension>
        </extensions>
      </trkpt>
      <trkpt lat="37.78245457448065280914306640625" lon="-107.70348072052001953125">
        <ele>3937.800048828125</ele>
        <time>2023-07-29T16:46:08.000Z</time>
        <extensions>
          <ns3:TrackPointExtension>
            <ns3:hr>93</ns3:hr>
            <ns3:cad>0</ns3:cad>
          </ns3:TrackPointExtension>
        </extensions>
      </trkpt>
      <trkpt lat="37.78244786895811557769775390625" lon="-107.70348063670098781585693359375">
        <ele>3937.39990234375</ele>
        <time>2023-07-29T16:46:09.000Z</time>
        <extensions>
          <ns3:TrackPointExtension>
            <ns3:hr>93</ns3:hr>
            <ns3:cad>0</ns3:cad>
          </ns3:TrackPointExtension>
        </extensions>
      </trkpt>
      <trkpt lat="37.78244099579751491546630859375" lon="-107.7034798823297023773193359375">
        <ele>3937.199951171875</ele>
        <time>2023-07-29T16:46:10.000Z</time>
        <extensions>
          <ns3:TrackPointExtension>
            <ns3:hr>93</ns3:hr>
            <ns3:cad>0</ns3:cad>
          </ns3:TrackPointExtension>
        </extensions>
      </trkpt>
      <trkpt lat="37.78243915177881717681884765625" lon="-107.7034793794155120849609375">
        <ele>3937</ele>
        <time>2023-07-29T16:46:11.000Z</time>
        <extensions>
          <ns3:TrackPointExtension>
            <ns3:hr>93</ns3:hr>
            <ns3:cad>0</ns3:cad>
          </ns3:TrackPointExtension>
        </extensions>
      </trkpt>
      <trkpt lat="37.78243361972272396087646484375" lon="-107.70347963087260723114013671875">
        <ele>3937</ele>
        <time>2023-07-29T16:46:12.000Z</time>
        <extensions>
          <ns3:TrackPointExtension>
            <ns3:hr>93</ns3:hr>
            <ns3:cad>0</ns3:cad>
          </ns3:TrackPointExtension>
        </extensions>
      </trkpt>
      <trkpt lat="37.78243177570402622222900390625" lon="-107.7034798823297023773193359375">
        <ele>3936.800048828125</ele>
        <time>2023-07-29T16:46:13.000Z</time>
        <extensions>
          <ns3:TrackPointExtension>
            <ns3:hr>93</ns3:hr>
            <ns3:cad>0</ns3:cad>
          </ns3:TrackPointExtension>
        </extensions>
      </trkpt>
      <trkpt lat="37.7824248187243938446044921875" lon="-107.70347510464489459991455078125">
        <ele>3936.60009765625</ele>
        <time>2023-07-29T16:46:14.000Z</time>
        <extensions>
          <ns3:TrackPointExtension>
            <ns3:hr>93</ns3:hr>
            <ns3:cad>0</ns3:cad>
          </ns3:TrackPointExtension>
        </extensions>
      </trkpt>
      <trkpt lat="37.7824181132018566131591796875" lon="-107.703472338616847991943359375">
        <ele>3936.199951171875</ele>
        <time>2023-07-29T16:46:15.000Z</time>
        <extensions>
          <ns3:TrackPointExtension>
            <ns3:hr>93</ns3:hr>
            <ns3:cad>0</ns3:cad>
          </ns3:TrackPointExtension>
        </extensions>
      </trkpt>
      <trkpt lat="37.78241015039384365081787109375" lon="-107.70346798002719879150390625">
        <ele>3936</ele>
        <time>2023-07-29T16:46:16.000Z</time>
        <extensions>
          <ns3:TrackPointExtension>
            <ns3:hr>93</ns3:hr>
            <ns3:cad>0</ns3:cad>
          </ns3:TrackPointExtension>
        </extensions>
      </trkpt>
      <trkpt lat="37.78240662999451160430908203125" lon="-107.7034637890756130218505859375">
        <ele>3935.800048828125</ele>
        <time>2023-07-29T16:46:17.000Z</time>
        <extensions>
          <ns3:TrackPointExtension>
            <ns3:hr>92</ns3:hr>
            <ns3:cad>0</ns3:cad>
          </ns3:TrackPointExtension>
        </extensions>
      </trkpt>
      <trkpt lat="37.78239673934876918792724609375" lon="-107.70345817320048809051513671875">
        <ele>3935.60009765625</ele>
        <time>2023-07-29T16:46:18.000Z</time>
        <extensions>
          <ns3:TrackPointExtension>
            <ns3:hr>92</ns3:hr>
            <ns3:cad>0</ns3:cad>
          </ns3:TrackPointExtension>
        </extensions>
      </trkpt>
      <trkpt lat="37.782390452921390533447265625" lon="-107.7034570835530757904052734375">
        <ele>3935.39990234375</ele>
        <time>2023-07-29T16:46:19.000Z</time>
        <extensions>
          <ns3:TrackPointExtension>
            <ns3:hr>92</ns3:hr>
            <ns3:cad>0</ns3:cad>
          </ns3:TrackPointExtension>
        </extensions>
      </trkpt>
      <trkpt lat="37.782381065189838409423828125" lon="-107.70345130003988742828369140625">
        <ele>3935.199951171875</ele>
        <time>2023-07-29T16:46:20.000Z</time>
        <extensions>
          <ns3:TrackPointExtension>
            <ns3:hr>92</ns3:hr>
            <ns3:cad>0</ns3:cad>
          </ns3:TrackPointExtension>
        </extensions>
      </trkpt>
      <trkpt lat="37.78237394057214260101318359375" lon="-107.7034456841647624969482421875">
        <ele>3935.199951171875</ele>
        <time>2023-07-29T16:46:21.000Z</time>
        <extensions>
          <ns3:TrackPointExtension>
            <ns3:hr>92</ns3:hr>
            <ns3:cad>0</ns3:cad>
          </ns3:TrackPointExtension>
        </extensions>
      </trkpt>
      <trkpt lat="37.7823694981634616851806640625" lon="-107.70344392396509647369384765625">
        <ele>3935</ele>
        <time>2023-07-29T16:46:22.000Z</time>
        <extensions>
          <ns3:TrackPointExtension>
            <ns3:hr>92</ns3:hr>
            <ns3:cad>0</ns3:cad>
          </ns3:TrackPointExtension>
        </extensions>
      </trkpt>
      <trkpt lat="37.7823637984693050384521484375" lon="-107.703440822660923004150390625">
        <ele>3934.60009765625</ele>
        <time>2023-07-29T16:46:23.000Z</time>
        <extensions>
          <ns3:TrackPointExtension>
            <ns3:hr>91</ns3:hr>
            <ns3:cad>0</ns3:cad>
          </ns3:TrackPointExtension>
        </extensions>
      </trkpt>
      <trkpt lat="37.7823594398796558380126953125" lon="-107.70343847572803497314453125">
        <ele>3934.39990234375</ele>
        <time>2023-07-29T16:46:24.000Z</time>
        <extensions>
          <ns3:TrackPointExtension>
            <ns3:hr>92</ns3:hr>
            <ns3:cad>0</ns3:cad>
          </ns3:TrackPointExtension>
        </extensions>
      </trkpt>
      <trkpt lat="37.78235566802322864532470703125" lon="-107.7034379728138446807861328125">
        <ele>3934.199951171875</ele>
        <time>2023-07-29T16:46:25.000Z</time>
        <extensions>
          <ns3:TrackPointExtension>
            <ns3:hr>92</ns3:hr>
            <ns3:cad>0</ns3:cad>
          </ns3:TrackPointExtension>
        </extensions>
      </trkpt>
      <trkpt lat="37.782349884510040283203125" lon="-107.703436128795146942138671875">
        <ele>3933.800048828125</ele>
        <time>2023-07-29T16:46:26.000Z</time>
        <extensions>
          <ns3:TrackPointExtension>
            <ns3:hr>92</ns3:hr>
            <ns3:cad>0</ns3:cad>
          </ns3:TrackPointExtension>
        </extensions>
      </trkpt>
      <trkpt lat="37.7823413349688053131103515625" lon="-107.70343202166259288787841796875">
        <ele>3933.39990234375</ele>
        <time>2023-07-29T16:46:27.000Z</time>
        <extensions>
          <ns3:TrackPointExtension>
            <ns3:hr>92</ns3:hr>
            <ns3:cad>0</ns3:cad>
          </ns3:TrackPointExtension>
        </extensions>
      </trkpt>
      <trkpt lat="37.78232800774276256561279296875" lon="-107.70342347212135791778564453125">
        <ele>3933.199951171875</ele>
        <time>2023-07-29T16:46:28.000Z</time>
        <extensions>
          <ns3:TrackPointExtension>
            <ns3:hr>92</ns3:hr>
            <ns3:cad>0</ns3:cad>
          </ns3:TrackPointExtension>
        </extensions>
      </trkpt>
      <trkpt lat="37.78232331387698650360107421875" lon="-107.70341835916042327880859375">
        <ele>3933.199951171875</ele>
        <time>2023-07-29T16:46:29.000Z</time>
        <extensions>
          <ns3:TrackPointExtension>
            <ns3:hr>92</ns3:hr>
            <ns3:cad>0</ns3:cad>
          </ns3:TrackPointExtension>
        </extensions>
      </trkpt>
      <trkpt lat="37.78232046402990818023681640625" lon="-107.703414671123027801513671875">
        <ele>3933</ele>
        <time>2023-07-29T16:46:30.000Z</time>
        <extensions>
          <ns3:TrackPointExtension>
            <ns3:hr>92</ns3:hr>
            <ns3:cad>0</ns3:cad>
          </ns3:TrackPointExtension>
        </extensions>
      </trkpt>
      <trkpt lat="37.78231996111571788787841796875" lon="-107.7034114859998226165771484375">
        <ele>3933</ele>
        <time>2023-07-29T16:46:31.000Z</time>
        <extensions>
          <ns3:TrackPointExtension>
            <ns3:hr>91</ns3:hr>
            <ns3:cad>0</ns3:cad>
          </ns3:TrackPointExtension>
        </extensions>
      </trkpt>
      <trkpt lat="37.782316021621227264404296875" lon="-107.7034054510295391082763671875">
        <ele>3932.800048828125</ele>
        <time>2023-07-29T16:46:32.000Z</time>
        <extensions>
          <ns3:TrackPointExtension>
            <ns3:hr>91</ns3:hr>
            <ns3:cad>0</ns3:cad>
          </ns3:TrackPointExtension>
        </extensions>
      </trkpt>
      <trkpt lat="37.78231325559318065643310546875" lon="-107.70339832641184329986572265625">
        <ele>3932.39990234375</ele>
        <time>2023-07-29T16:46:33.000Z</time>
        <extensions>
          <ns3:TrackPointExtension>
            <ns3:hr>91</ns3:hr>
            <ns3:cad>0</ns3:cad>
          </ns3:TrackPointExtension>
        </extensions>
      </trkpt>
      <trkpt lat="37.78230889700353145599365234375" lon="-107.70339128561317920684814453125">
        <ele>3932</ele>
        <time>2023-07-29T16:46:34.000Z</time>
        <extensions>
          <ns3:TrackPointExtension>
            <ns3:hr>91</ns3:hr>
            <ns3:cad>0</ns3:cad>
          </ns3:TrackPointExtension>
        </extensions>
      </trkpt>
      <trkpt lat="37.7823007665574550628662109375" lon="-107.70338189788162708282470703125">
        <ele>3931.800048828125</ele>
        <time>2023-07-29T16:46:35.000Z</time>
        <extensions>
          <ns3:TrackPointExtension>
            <ns3:hr>91</ns3:hr>
            <ns3:cad>0</ns3:cad>
          </ns3:TrackPointExtension>
        </extensions>
      </trkpt>
      <trkpt lat="37.782295905053615570068359375" lon="-107.7033746056258678436279296875">
        <ele>3931.60009765625</ele>
        <time>2023-07-29T16:46:36.000Z</time>
        <extensions>
          <ns3:TrackPointExtension>
            <ns3:hr>91</ns3:hr>
            <ns3:cad>0</ns3:cad>
          </ns3:TrackPointExtension>
        </extensions>
      </trkpt>
      <trkpt lat="37.78229380957782268524169921875" lon="-107.70336697809398174285888671875">
        <ele>3931.39990234375</ele>
        <time>2023-07-29T16:46:37.000Z</time>
        <extensions>
          <ns3:TrackPointExtension>
            <ns3:hr>91</ns3:hr>
            <ns3:cad>0</ns3:cad>
          </ns3:TrackPointExtension>
        </extensions>
      </trkpt>
      <trkpt lat="37.7822870202362537384033203125" lon="-107.7033628709614276885986328125">
        <ele>3931.39990234375</ele>
        <time>2023-07-29T16:46:38.000Z</time>
        <extensions>
          <ns3:TrackPointExtension>
            <ns3:hr>91</ns3:hr>
            <ns3:cad>0</ns3:cad>
          </ns3:TrackPointExtension>
        </extensions>
      </trkpt>
      <trkpt lat="37.7822826616466045379638671875" lon="-107.70336228422820568084716796875">
        <ele>3931.199951171875</ele>
        <time>2023-07-29T16:46:39.000Z</time>
        <extensions>
          <ns3:TrackPointExtension>
            <ns3:hr>92</ns3:hr>
            <ns3:cad>0</ns3:cad>
          </ns3:TrackPointExtension>
        </extensions>
      </trkpt>
      <trkpt lat="37.782279141247272491455078125" lon="-107.70336245186626911163330078125">
        <ele>3930.800048828125</ele>
        <time>2023-07-29T16:46:40.000Z</time>
        <extensions>
          <ns3:TrackPointExtension>
            <ns3:hr>93</ns3:hr>
            <ns3:cad>0</ns3:cad>
          </ns3:TrackPointExtension>
        </extensions>
      </trkpt>
      <trkpt lat="37.7822732739150524139404296875" lon="-107.7033618651330471038818359375">
        <ele>3930.800048828125</ele>
        <time>2023-07-29T16:46:41.000Z</time>
        <extensions>
          <ns3:TrackPointExtension>
            <ns3:hr>93</ns3:hr>
            <ns3:cad>0</ns3:cad>
          </ns3:TrackPointExtension>
        </extensions>
      </trkpt>
      <trkpt lat="37.78226614929735660552978515625" lon="-107.70336111076176166534423828125">
        <ele>3930.60009765625</ele>
        <time>2023-07-29T16:46:42.000Z</time>
        <extensions>
          <ns3:TrackPointExtension>
            <ns3:hr>94</ns3:hr>
            <ns3:cad>50</ns3:cad>
          </ns3:TrackPointExtension>
        </extensions>
      </trkpt>
      <trkpt lat="37.78225843794643878936767578125" lon="-107.703361697494983673095703125">
        <ele>3930.39990234375</ele>
        <time>2023-07-29T16:46:43.000Z</time>
        <extensions>
          <ns3:TrackPointExtension>
            <ns3:hr>94</ns3:hr>
            <ns3:cad>50</ns3:cad>
          </ns3:TrackPointExtension>
        </extensions>
      </trkpt>
      <trkpt lat="37.78224863111972808837890625" lon="-107.7033586800098419189453125">
        <ele>3930.39990234375</ele>
        <time>2023-07-29T16:46:44.000Z</time>
        <extensions>
          <ns3:TrackPointExtension>
            <ns3:hr>94</ns3:hr>
            <ns3:cad>50</ns3:cad>
          </ns3:TrackPointExtension>
        </extensions>
      </trkpt>
      <trkpt lat="37.7822404168546199798583984375" lon="-107.7033534832298755645751953125">
        <ele>3930.39990234375</ele>
        <time>2023-07-29T16:46:45.000Z</time>
        <extensions>
          <ns3:TrackPointExtension>
            <ns3:hr>94</ns3:hr>
            <ns3:cad>0</ns3:cad>
          </ns3:TrackPointExtension>
        </extensions>
      </trkpt>
      <trkpt lat="37.782230190932750701904296875" lon="-107.7033477835357189178466796875">
        <ele>3930</ele>
        <time>2023-07-29T16:46:46.000Z</time>
        <extensions>
          <ns3:TrackPointExtension>
            <ns3:hr>94</ns3:hr>
            <ns3:cad>0</ns3:cad>
          </ns3:TrackPointExtension>
        </extensions>
      </trkpt>
      <trkpt lat="37.78221954591572284698486328125" lon="-107.70334099419414997100830078125">
        <ele>3929.800048828125</ele>
        <time>2023-07-29T16:46:47.000Z</time>
        <extensions>
          <ns3:TrackPointExtension>
            <ns3:hr>94</ns3:hr>
            <ns3:cad>0</ns3:cad>
          </ns3:TrackPointExtension>
        </extensions>
      </trkpt>
      <trkpt lat="37.78221267275512218475341796875" lon="-107.70333613269031047821044921875">
        <ele>3929.39990234375</ele>
        <time>2023-07-29T16:46:48.000Z</time>
        <extensions>
          <ns3:TrackPointExtension>
            <ns3:hr>95</ns3:hr>
            <ns3:cad>0</ns3:cad>
          </ns3:TrackPointExtension>
        </extensions>
      </trkpt>
      <trkpt lat="37.782200016081333160400390625" lon="-107.70333060063421726226806640625">
        <ele>3929.199951171875</ele>
        <time>2023-07-29T16:46:49.000Z</time>
        <extensions>
          <ns3:TrackPointExtension>
            <ns3:hr>95</ns3:hr>
            <ns3:cad>0</ns3:cad>
          </ns3:TrackPointExtension>
        </extensions>
      </trkpt>
      <trkpt lat="37.782194651663303375244140625" lon="-107.7033259905874729156494140625">
        <ele>3929</ele>
        <time>2023-07-29T16:46:50.000Z</time>
        <extensions>
          <ns3:TrackPointExtension>
            <ns3:hr>95</ns3:hr>
            <ns3:cad>0</ns3:cad>
          </ns3:TrackPointExtension>
        </extensions>
      </trkpt>
      <trkpt lat="37.78218937106430530548095703125" lon="-107.70332087762653827667236328125">
        <ele>3928.800048828125</ele>
        <time>2023-07-29T16:46:51.000Z</time>
        <extensions>
          <ns3:TrackPointExtension>
            <ns3:hr>95</ns3:hr>
            <ns3:cad>0</ns3:cad>
          </ns3:TrackPointExtension>
        </extensions>
      </trkpt>
      <trkpt lat="37.78218090534210205078125" lon="-107.70331786014139652252197265625">
        <ele>3928.199951171875</ele>
        <time>2023-07-29T16:46:52.000Z</time>
        <extensions>
          <ns3:TrackPointExtension>
            <ns3:hr>95</ns3:hr>
            <ns3:cad>0</ns3:cad>
          </ns3:TrackPointExtension>
        </extensions>
      </trkpt>
      <trkpt lat="37.78217663057148456573486328125" lon="-107.70331375300884246826171875">
        <ele>3928</ele>
        <time>2023-07-29T16:46:53.000Z</time>
        <extensions>
          <ns3:TrackPointExtension>
            <ns3:hr>94</ns3:hr>
            <ns3:cad>0</ns3:cad>
          </ns3:TrackPointExtension>
        </extensions>
      </trkpt>
      <trkpt lat="37.78217176906764507293701171875" lon="-107.703313417732715606689453125">
        <ele>3927.60009765625</ele>
        <time>2023-07-29T16:46:54.000Z</time>
        <extensions>
          <ns3:TrackPointExtension>
            <ns3:hr>94</ns3:hr>
            <ns3:cad>0</ns3:cad>
          </ns3:TrackPointExtension>
        </extensions>
      </trkpt>
      <trkpt lat="37.782163806259632110595703125" lon="-107.70331216044723987579345703125">
        <ele>3927.39990234375</ele>
        <time>2023-07-29T16:46:55.000Z</time>
        <extensions>
          <ns3:TrackPointExtension>
            <ns3:hr>94</ns3:hr>
            <ns3:cad>0</ns3:cad>
          </ns3:TrackPointExtension>
        </extensions>
      </trkpt>
      <trkpt lat="37.782153077423572540283203125" lon="-107.703308723866939544677734375">
        <ele>3927</ele>
        <time>2023-07-29T16:46:56.000Z</time>
        <extensions>
          <ns3:TrackPointExtension>
            <ns3:hr>94</ns3:hr>
            <ns3:cad>0</ns3:cad>
          </ns3:TrackPointExtension>
        </extensions>
      </trkpt>
      <trkpt lat="37.7821433544158935546875" lon="-107.70330562256276607513427734375">
        <ele>3927</ele>
        <time>2023-07-29T16:46:57.000Z</time>
        <extensions>
          <ns3:TrackPointExtension>
            <ns3:hr>94</ns3:hr>
            <ns3:cad>0</ns3:cad>
          </ns3:TrackPointExtension>
        </extensions>
      </trkpt>
      <trkpt lat="37.78213061392307281494140625" lon="-107.70330210216343402862548828125">
        <ele>3926.60009765625</ele>
        <time>2023-07-29T16:46:58.000Z</time>
        <extensions>
          <ns3:TrackPointExtension>
            <ns3:hr>94</ns3:hr>
            <ns3:cad>58</ns3:cad>
          </ns3:TrackPointExtension>
        </extensions>
      </trkpt>
      <trkpt lat="37.78212751261889934539794921875" lon="-107.70330034196376800537109375">
        <ele>3926.199951171875</ele>
        <time>2023-07-29T16:46:59.000Z</time>
        <extensions>
          <ns3:TrackPointExtension>
            <ns3:hr>94</ns3:hr>
            <ns3:cad>58</ns3:cad>
          </ns3:TrackPointExtension>
        </extensions>
      </trkpt>
      <trkpt lat="37.7821205556392669677734375" lon="-107.7032984979450702667236328125">
        <ele>3926.199951171875</ele>
        <time>2023-07-29T16:47:00.000Z</time>
        <extensions>
          <ns3:TrackPointExtension>
            <ns3:hr>94</ns3:hr>
            <ns3:cad>59</ns3:cad>
          </ns3:TrackPointExtension>
        </extensions>
      </trkpt>
      <trkpt lat="37.78210823424160480499267578125" lon="-107.7032944746315479278564453125">
        <ele>3926</ele>
        <time>2023-07-29T16:47:01.000Z</time>
        <extensions>
          <ns3:TrackPointExtension>
            <ns3:hr>94</ns3:hr>
            <ns3:cad>59</ns3:cad>
          </ns3:TrackPointExtension>
        </extensions>
      </trkpt>
      <trkpt lat="37.78209976851940155029296875" lon="-107.70328969694674015045166015625">
        <ele>3925.60009765625</ele>
        <time>2023-07-29T16:47:02.000Z</time>
        <extensions>
          <ns3:TrackPointExtension>
            <ns3:hr>94</ns3:hr>
            <ns3:cad>59</ns3:cad>
          </ns3:TrackPointExtension>
        </extensions>
      </trkpt>
      <trkpt lat="37.78209130279719829559326171875" lon="-107.70328718237578868865966796875">
        <ele>3925.39990234375</ele>
        <time>2023-07-29T16:47:03.000Z</time>
        <extensions>
          <ns3:TrackPointExtension>
            <ns3:hr>94</ns3:hr>
            <ns3:cad>0</ns3:cad>
          </ns3:TrackPointExtension>
        </extensions>
      </trkpt>
      <trkpt lat="37.782082669436931610107421875" lon="-107.7032901160418987274169921875">
        <ele>3925</ele>
        <time>2023-07-29T16:47:04.000Z</time>
        <extensions>
          <ns3:TrackPointExtension>
            <ns3:hr>94</ns3:hr>
            <ns3:cad>0</ns3:cad>
          </ns3:TrackPointExtension>
        </extensions>
      </trkpt>
      <trkpt lat="37.78207185678184032440185546875" lon="-107.70329891704022884368896484375">
        <ele>3924.60009765625</ele>
        <time>2023-07-29T16:47:05.000Z</time>
        <extensions>
          <ns3:TrackPointExtension>
            <ns3:hr>94</ns3:hr>
            <ns3:cad>0</ns3:cad>
          </ns3:TrackPointExtension>
        </extensions>
      </trkpt>
      <trkpt lat="37.7820627205073833465576171875" lon="-107.70330109633505344390869140625">
        <ele>3924.39990234375</ele>
        <time>2023-07-29T16:47:06.000Z</time>
        <extensions>
          <ns3:TrackPointExtension>
            <ns3:hr>94</ns3:hr>
            <ns3:cad>58</ns3:cad>
          </ns3:TrackPointExtension>
        </extensions>
      </trkpt>
      <trkpt lat="37.78205291368067264556884765625" lon="-107.7033011801540851593017578125">
        <ele>3924</ele>
        <time>2023-07-29T16:47:07.000Z</time>
        <extensions>
          <ns3:TrackPointExtension>
            <ns3:hr>94</ns3:hr>
            <ns3:cad>58</ns3:cad>
          </ns3:TrackPointExtension>
        </extensions>
      </trkpt>
      <trkpt lat="37.7820402570068836212158203125" lon="-107.70330629311501979827880859375">
        <ele>3923.60009765625</ele>
        <time>2023-07-29T16:47:08.000Z</time>
        <extensions>
          <ns3:TrackPointExtension>
            <ns3:hr>94</ns3:hr>
            <ns3:cad>0</ns3:cad>
          </ns3:TrackPointExtension>
        </extensions>
      </trkpt>
      <trkpt lat="37.78202894143760204315185546875" lon="-107.70331048406660556793212890625">
        <ele>3923.39990234375</ele>
        <time>2023-07-29T16:47:09.000Z</time>
        <extensions>
          <ns3:TrackPointExtension>
            <ns3:hr>94</ns3:hr>
            <ns3:cad>0</ns3:cad>
          </ns3:TrackPointExtension>
        </extensions>
      </trkpt>
      <trkpt lat="37.7820214815437793731689453125" lon="-107.70331283099949359893798828125">
        <ele>3923</ele>
        <time>2023-07-29T16:47:10.000Z</time>
        <extensions>
          <ns3:TrackPointExtension>
            <ns3:hr>94</ns3:hr>
            <ns3:cad>0</ns3:cad>
          </ns3:TrackPointExtension>
        </extensions>
      </trkpt>
      <trkpt lat="37.78201259672641754150390625" lon="-107.703312076628208160400390625">
        <ele>3922.800048828125</ele>
        <time>2023-07-29T16:47:11.000Z</time>
        <extensions>
          <ns3:TrackPointExtension>
            <ns3:hr>94</ns3:hr>
            <ns3:cad>0</ns3:cad>
          </ns3:TrackPointExtension>
        </extensions>
      </trkpt>
      <trkpt lat="37.782005555927753448486328125" lon="-107.703310064971446990966796875">
        <ele>3922.60009765625</ele>
        <time>2023-07-29T16:47:12.000Z</time>
        <extensions>
          <ns3:TrackPointExtension>
            <ns3:hr>94</ns3:hr>
            <ns3:cad>0</ns3:cad>
          </ns3:TrackPointExtension>
        </extensions>
      </trkpt>
      <trkpt lat="37.78199759311974048614501953125" lon="-107.703308723866939544677734375">
        <ele>3922.39990234375</ele>
        <time>2023-07-29T16:47:13.000Z</time>
        <extensions>
          <ns3:TrackPointExtension>
            <ns3:hr>94</ns3:hr>
            <ns3:cad>0</ns3:cad>
          </ns3:TrackPointExtension>
        </extensions>
      </trkpt>
      <trkpt lat="37.78199172578752040863037109375" lon="-107.70330562256276607513427734375">
        <ele>3922.39990234375</ele>
        <time>2023-07-29T16:47:14.000Z</time>
        <extensions>
          <ns3:TrackPointExtension>
            <ns3:hr>94</ns3:hr>
            <ns3:cad>0</ns3:cad>
          </ns3:TrackPointExtension>
        </extensions>
      </trkpt>
      <trkpt lat="37.78198183514177799224853515625" lon="-107.703302018344402313232421875">
        <ele>3922</ele>
        <time>2023-07-29T16:47:15.000Z</time>
        <extensions>
          <ns3:TrackPointExtension>
            <ns3:hr>94</ns3:hr>
            <ns3:cad>0</ns3:cad>
          </ns3:TrackPointExtension>
        </extensions>
      </trkpt>
      <trkpt lat="37.78196859173476696014404296875" lon="-107.7032961510121822357177734375">
        <ele>3921.800048828125</ele>
        <time>2023-07-29T16:47:16.000Z</time>
        <extensions>
          <ns3:TrackPointExtension>
            <ns3:hr>94</ns3:hr>
            <ns3:cad>0</ns3:cad>
          </ns3:TrackPointExtension>
        </extensions>
      </trkpt>
      <trkpt lat="37.78196004219353199005126953125" lon="-107.70329254679381847381591796875">
        <ele>3921.39990234375</ele>
        <time>2023-07-29T16:47:17.000Z</time>
        <extensions>
          <ns3:TrackPointExtension>
            <ns3:hr>94</ns3:hr>
            <ns3:cad>0</ns3:cad>
          </ns3:TrackPointExtension>
        </extensions>
      </trkpt>
      <trkpt lat="37.78195090591907501220703125" lon="-107.7032867632806301116943359375">
        <ele>3921.199951171875</ele>
        <time>2023-07-29T16:47:18.000Z</time>
        <extensions>
          <ns3:TrackPointExtension>
            <ns3:hr>93</ns3:hr>
            <ns3:cad>0</ns3:cad>
          </ns3:TrackPointExtension>
        </extensions>
      </trkpt>
      <trkpt lat="37.78194411657750606536865234375" lon="-107.70327930338680744171142578125">
        <ele>3921</ele>
        <time>2023-07-29T16:47:19.000Z</time>
        <extensions>
          <ns3:TrackPointExtension>
            <ns3:hr>93</ns3:hr>
            <ns3:cad>0</ns3:cad>
          </ns3:TrackPointExtension>
        </extensions>
      </trkpt>
      <trkpt lat="37.78192768804728984832763671875" lon="-107.70327486097812652587890625">
        <ele>3920.800048828125</ele>
        <time>2023-07-29T16:47:20.000Z</time>
        <extensions>
          <ns3:TrackPointExtension>
            <ns3:hr>93</ns3:hr>
            <ns3:cad>0</ns3:cad>
          </ns3:TrackPointExtension>
        </extensions>
      </trkpt>
      <trkpt lat="37.781918384134769439697265625" lon="-107.7032720111310482025146484375">
        <ele>3920.39990234375</ele>
        <time>2023-07-29T16:47:21.000Z</time>
        <extensions>
          <ns3:TrackPointExtension>
            <ns3:hr>93</ns3:hr>
            <ns3:cad>0</ns3:cad>
          </ns3:TrackPointExtension>
        </extensions>
      </trkpt>
      <trkpt lat="37.7819101698696613311767578125" lon="-107.70326706580817699432373046875">
        <ele>3920</ele>
        <time>2023-07-29T16:47:22.000Z</time>
        <extensions>
          <ns3:TrackPointExtension>
            <ns3:hr>93</ns3:hr>
            <ns3:cad>0</ns3:cad>
          </ns3:TrackPointExtension>
        </extensions>
      </trkpt>
      <trkpt lat="37.7819007821381092071533203125" lon="-107.703263126313686370849609375">
        <ele>3919.800048828125</ele>
        <time>2023-07-29T16:47:23.000Z</time>
        <extensions>
          <ns3:TrackPointExtension>
            <ns3:hr>92</ns3:hr>
            <ns3:cad>0</ns3:cad>
          </ns3:TrackPointExtension>
        </extensions>
      </trkpt>
      <trkpt lat="37.78189684264361858367919921875" lon="-107.70326153375208377838134765625">
        <ele>3919.39990234375</ele>
        <time>2023-07-29T16:47:24.000Z</time>
        <extensions>
          <ns3:TrackPointExtension>
            <ns3:hr>92</ns3:hr>
            <ns3:cad>0</ns3:cad>
          </ns3:TrackPointExtension>
        </extensions>
      </trkpt>
      <trkpt lat="37.7818900533020496368408203125" lon="-107.70325876772403717041015625">
        <ele>3919.39990234375</ele>
        <time>2023-07-29T16:47:25.000Z</time>
        <extensions>
          <ns3:TrackPointExtension>
            <ns3:hr>92</ns3:hr>
            <ns3:cad>0</ns3:cad>
          </ns3:TrackPointExtension>
        </extensions>
      </trkpt>
      <trkpt lat="37.78188242577016353607177734375" lon="-107.7032549120485782623291015625">
        <ele>3919.199951171875</ele>
        <time>2023-07-29T16:47:26.000Z</time>
        <extensions>
          <ns3:TrackPointExtension>
            <ns3:hr>92</ns3:hr>
            <ns3:cad>0</ns3:cad>
          </ns3:TrackPointExtension>
        </extensions>
      </trkpt>
      <trkpt lat="37.7818776480853557586669921875" lon="-107.70325248129665851593017578125">
        <ele>3919</ele>
        <time>2023-07-29T16:47:27.000Z</time>
        <extensions>
          <ns3:TrackPointExtension>
            <ns3:hr>92</ns3:hr>
            <ns3:cad>0</ns3:cad>
          </ns3:TrackPointExtension>
        </extensions>
      </trkpt>
      <trkpt lat="37.78186968527734279632568359375" lon="-107.70324862562119960784912109375">
        <ele>3918.800048828125</ele>
        <time>2023-07-29T16:47:28.000Z</time>
        <extensions>
          <ns3:TrackPointExtension>
            <ns3:hr>92</ns3:hr>
            <ns3:cad>0</ns3:cad>
          </ns3:TrackPointExtension>
        </extensions>
      </trkpt>
      <trkpt lat="37.781860716640949249267578125" lon="-107.7032461948692798614501953125">
        <ele>3918.60009765625</ele>
        <time>2023-07-29T16:47:29.000Z</time>
        <extensions>
          <ns3:TrackPointExtension>
            <ns3:hr>92</ns3:hr>
            <ns3:cad>0</ns3:cad>
          </ns3:TrackPointExtension>
        </extensions>
      </trkpt>
      <trkpt lat="37.78185359202325344085693359375" lon="-107.7032460272312164306640625">
        <ele>3918.39990234375</ele>
        <time>2023-07-29T16:47:30.000Z</time>
        <extensions>
          <ns3:TrackPointExtension>
            <ns3:hr>91</ns3:hr>
            <ns3:cad>0</ns3:cad>
          </ns3:TrackPointExtension>
        </extensions>
      </trkpt>
      <trkpt lat="37.78184906579554080963134765625" lon="-107.703247033059597015380859375">
        <ele>3918.199951171875</ele>
        <time>2023-07-29T16:47:31.000Z</time>
        <extensions>
          <ns3:TrackPointExtension>
            <ns3:hr>91</ns3:hr>
            <ns3:cad>0</ns3:cad>
          </ns3:TrackPointExtension>
        </extensions>
      </trkpt>
      <trkpt lat="37.7818461321294307708740234375" lon="-107.703249044716358184814453125">
        <ele>3917.800048828125</ele>
        <time>2023-07-29T16:47:32.000Z</time>
        <extensions>
          <ns3:TrackPointExtension>
            <ns3:hr>91</ns3:hr>
            <ns3:cad>0</ns3:cad>
          </ns3:TrackPointExtension>
        </extensions>
      </trkpt>
      <trkpt lat="37.7818400971591472625732421875" lon="-107.7032495476305484771728515625">
        <ele>3917.800048828125</ele>
        <time>2023-07-29T16:47:33.000Z</time>
        <extensions>
          <ns3:TrackPointExtension>
            <ns3:hr>91</ns3:hr>
            <ns3:cad>0</ns3:cad>
          </ns3:TrackPointExtension>
        </extensions>
      </trkpt>
      <trkpt lat="37.78183422982692718505859375" lon="-107.70325013436377048492431640625">
        <ele>3917.60009765625</ele>
        <time>2023-07-29T16:47:34.000Z</time>
        <extensions>
          <ns3:TrackPointExtension>
            <ns3:hr>91</ns3:hr>
            <ns3:cad>0</ns3:cad>
          </ns3:TrackPointExtension>
        </extensions>
      </trkpt>
      <trkpt lat="37.78182710520923137664794921875" lon="-107.70325030200183391571044921875">
        <ele>3917.39990234375</ele>
        <time>2023-07-29T16:47:35.000Z</time>
        <extensions>
          <ns3:TrackPointExtension>
            <ns3:hr>91</ns3:hr>
            <ns3:cad>0</ns3:cad>
          </ns3:TrackPointExtension>
        </extensions>
      </trkpt>
      <trkpt lat="37.78181671164929866790771484375" lon="-107.7032518945634365081787109375">
        <ele>3917.39990234375</ele>
        <time>2023-07-29T16:47:36.000Z</time>
        <extensions>
          <ns3:TrackPointExtension>
            <ns3:hr>90</ns3:hr>
            <ns3:cad>0</ns3:cad>
          </ns3:TrackPointExtension>
        </extensions>
      </trkpt>
      <trkpt lat="37.7818065695464611053466796875" lon="-107.70325608551502227783203125">
        <ele>3917.199951171875</ele>
        <time>2023-07-29T16:47:37.000Z</time>
        <extensions>
          <ns3:TrackPointExtension>
            <ns3:hr>90</ns3:hr>
            <ns3:cad>61</ns3:cad>
          </ns3:TrackPointExtension>
        </extensions>
      </trkpt>
      <trkpt lat="37.781801037490367889404296875" lon="-107.703257091343402862548828125">
        <ele>3917</ele>
        <time>2023-07-29T16:47:38.000Z</time>
        <extensions>
          <ns3:TrackPointExtension>
            <ns3:hr>90</ns3:hr>
            <ns3:cad>61</ns3:cad>
          </ns3:TrackPointExtension>
        </extensions>
      </trkpt>
      <trkpt lat="37.781794331967830657958984375" lon="-107.70326103083789348602294921875">
        <ele>3916.800048828125</ele>
        <time>2023-07-29T16:47:39.000Z</time>
        <extensions>
          <ns3:TrackPointExtension>
            <ns3:hr>90</ns3:hr>
            <ns3:cad>61</ns3:cad>
          </ns3:TrackPointExtension>
        </extensions>
      </trkpt>
      <trkpt lat="37.7817928232252597808837890625" lon="-107.70326220430433750152587890625">
        <ele>3916.60009765625</ele>
        <time>2023-07-29T16:47:40.000Z</time>
        <extensions>
          <ns3:TrackPointExtension>
            <ns3:hr>90</ns3:hr>
            <ns3:cad>61</ns3:cad>
          </ns3:TrackPointExtension>
        </extensions>
      </trkpt>
      <trkpt lat="37.7817904762923717498779296875" lon="-107.70326287485659122467041015625">
        <ele>3916.39990234375</ele>
        <time>2023-07-29T16:47:41.000Z</time>
        <extensions>
          <ns3:TrackPointExtension>
            <ns3:hr>90</ns3:hr>
            <ns3:cad>61</ns3:cad>
          </ns3:TrackPointExtension>
        </extensions>
      </trkpt>
      <trkpt lat="37.78178335167467594146728515625" lon="-107.70326488651335239410400390625">
        <ele>3916.199951171875</ele>
        <time>2023-07-29T16:47:42.000Z</time>
        <extensions>
          <ns3:TrackPointExtension>
            <ns3:hr>90</ns3:hr>
            <ns3:cad>61</ns3:cad>
          </ns3:TrackPointExtension>
        </extensions>
      </trkpt>
      <trkpt lat="37.781777568161487579345703125" lon="-107.7032669819891452789306640625">
        <ele>3915.800048828125</ele>
        <time>2023-07-29T16:47:43.000Z</time>
        <extensions>
          <ns3:TrackPointExtension>
            <ns3:hr>90</ns3:hr>
            <ns3:cad>59</ns3:cad>
          </ns3:TrackPointExtension>
        </extensions>
      </trkpt>
      <trkpt lat="37.78177010826766490936279296875" lon="-107.70326756872236728668212890625">
        <ele>3915.60009765625</ele>
        <time>2023-07-29T16:47:44.000Z</time>
        <extensions>
          <ns3:TrackPointExtension>
            <ns3:hr>90</ns3:hr>
            <ns3:cad>59</ns3:cad>
          </ns3:TrackPointExtension>
        </extensions>
      </trkpt>
      <trkpt lat="37.78176658786833286285400390625" lon="-107.70326723344624042510986328125">
        <ele>3915.60009765625</ele>
        <time>2023-07-29T16:47:45.000Z</time>
        <extensions>
          <ns3:TrackPointExtension>
            <ns3:hr>90</ns3:hr>
            <ns3:cad>59</ns3:cad>
          </ns3:TrackPointExtension>
        </extensions>
      </trkpt>
      <trkpt lat="37.781754769384860992431640625" lon="-107.70325499586760997772216796875">
        <ele>3915.39990234375</ele>
        <time>2023-07-29T16:47:46.000Z</time>
        <extensions>
          <ns3:TrackPointExtension>
            <ns3:hr>90</ns3:hr>
            <ns3:cad>59</ns3:cad>
          </ns3:TrackPointExtension>
        </extensions>
      </trkpt>
      <trkpt lat="37.7817438729107379913330078125" lon="-107.703255750238895416259765625">
        <ele>3915.199951171875</ele>
        <time>2023-07-29T16:47:47.000Z</time>
        <extensions>
          <ns3:TrackPointExtension>
            <ns3:hr>90</ns3:hr>
            <ns3:cad>59</ns3:cad>
          </ns3:TrackPointExtension>
        </extensions>
      </trkpt>
      <trkpt lat="37.78173373080790042877197265625" lon="-107.703255079686641693115234375">
        <ele>3915</ele>
        <time>2023-07-29T16:47:48.000Z</time>
        <extensions>
          <ns3:TrackPointExtension>
            <ns3:hr>90</ns3:hr>
            <ns3:cad>0</ns3:cad>
          </ns3:TrackPointExtension>
        </extensions>
      </trkpt>
      <trkpt lat="37.7817250974476337432861328125" lon="-107.7032554149627685546875">
        <ele>3915</ele>
        <time>2023-07-29T16:47:49.000Z</time>
        <extensions>
          <ns3:TrackPointExtension>
            <ns3:hr>90</ns3:hr>
            <ns3:cad>0</ns3:cad>
          </ns3:TrackPointExtension>
        </extensions>
      </trkpt>
      <trkpt lat="37.78171814046800136566162109375" lon="-107.7032569237053394317626953125">
        <ele>3914.800048828125</ele>
        <time>2023-07-29T16:47:50.000Z</time>
        <extensions>
          <ns3:TrackPointExtension>
            <ns3:hr>90</ns3:hr>
            <ns3:cad>0</ns3:cad>
          </ns3:TrackPointExtension>
        </extensions>
      </trkpt>
      <trkpt lat="37.78171143494546413421630859375" lon="-107.70325801335275173187255859375">
        <ele>3914.60009765625</ele>
        <time>2023-07-29T16:47:51.000Z</time>
        <extensions>
          <ns3:TrackPointExtension>
            <ns3:hr>90</ns3:hr>
            <ns3:cad>17</ns3:cad>
          </ns3:TrackPointExtension>
        </extensions>
      </trkpt>
      <trkpt lat="37.78170221485197544097900390625" lon="-107.703257091343402862548828125">
        <ele>3914.39990234375</ele>
        <time>2023-07-29T16:47:52.000Z</time>
        <extensions>
          <ns3:TrackPointExtension>
            <ns3:hr>90</ns3:hr>
            <ns3:cad>17</ns3:cad>
          </ns3:TrackPointExtension>
        </extensions>
      </trkpt>
      <trkpt lat="37.78169475495815277099609375" lon="-107.70325650461018085479736328125">
        <ele>3914.199951171875</ele>
        <time>2023-07-29T16:47:53.000Z</time>
        <extensions>
          <ns3:TrackPointExtension>
            <ns3:hr>90</ns3:hr>
            <ns3:cad>0</ns3:cad>
          </ns3:TrackPointExtension>
        </extensions>
      </trkpt>
      <trkpt lat="37.78168913908302783966064453125" lon="-107.70325566641986370086669921875">
        <ele>3914</ele>
        <time>2023-07-29T16:47:54.000Z</time>
        <extensions>
          <ns3:TrackPointExtension>
            <ns3:hr>91</ns3:hr>
            <ns3:cad>0</ns3:cad>
          </ns3:TrackPointExtension>
        </extensions>
      </trkpt>
      <trkpt lat="37.7816731296479701995849609375" lon="-107.70324996672570705413818359375">
        <ele>3913.800048828125</ele>
        <time>2023-07-29T16:47:55.000Z</time>
        <extensions>
          <ns3:TrackPointExtension>
            <ns3:hr>91</ns3:hr>
            <ns3:cad>0</ns3:cad>
          </ns3:TrackPointExtension>
        </extensions>
      </trkpt>
      <trkpt lat="37.78166382573544979095458984375" lon="-107.7032461948692798614501953125">
        <ele>3913.60009765625</ele>
        <time>2023-07-29T16:47:56.000Z</time>
        <extensions>
          <ns3:TrackPointExtension>
            <ns3:hr>92</ns3:hr>
            <ns3:cad>0</ns3:cad>
          </ns3:TrackPointExtension>
        </extensions>
      </trkpt>
      <trkpt lat="37.781654186546802520751953125" lon="-107.70324409939348697662353515625">
        <ele>3913.199951171875</ele>
        <time>2023-07-29T16:47:57.000Z</time>
        <extensions>
          <ns3:TrackPointExtension>
            <ns3:hr>93</ns3:hr>
            <ns3:cad>0</ns3:cad>
          </ns3:TrackPointExtension>
        </extensions>
      </trkpt>
      <trkpt lat="37.78164245188236236572265625" lon="-107.7032406628131866455078125">
        <ele>3913</ele>
        <time>2023-07-29T16:47:58.000Z</time>
        <extensions>
          <ns3:TrackPointExtension>
            <ns3:hr>93</ns3:hr>
            <ns3:cad>0</ns3:cad>
          </ns3:TrackPointExtension>
        </extensions>
      </trkpt>
      <trkpt lat="37.78163708746433258056640625" lon="-107.70324074663221836090087890625">
        <ele>3912.800048828125</ele>
        <time>2023-07-29T16:47:59.000Z</time>
        <extensions>
          <ns3:TrackPointExtension>
            <ns3:hr>94</ns3:hr>
            <ns3:cad>0</ns3:cad>
          </ns3:TrackPointExtension>
        </extensions>
      </trkpt>
      <trkpt lat="37.78162828646600246429443359375" lon="-107.703240327537059783935546875">
        <ele>3912.39990234375</ele>
        <time>2023-07-29T16:48:00.000Z</time>
        <extensions>
          <ns3:TrackPointExtension>
            <ns3:hr>94</ns3:hr>
            <ns3:cad>0</ns3:cad>
          </ns3:TrackPointExtension>
        </extensions>
      </trkpt>
      <trkpt lat="37.78161705471575260162353515625" lon="-107.70323974080383777618408203125">
        <ele>3912.39990234375</ele>
        <time>2023-07-29T16:48:01.000Z</time>
        <extensions>
          <ns3:TrackPointExtension>
            <ns3:hr>93</ns3:hr>
            <ns3:cad>0</ns3:cad>
          </ns3:TrackPointExtension>
        </extensions>
      </trkpt>
      <trkpt lat="37.78161169029772281646728515625" lon="-107.703238315880298614501953125">
        <ele>3912</ele>
        <time>2023-07-29T16:48:02.000Z</time>
        <extensions>
          <ns3:TrackPointExtension>
            <ns3:hr>93</ns3:hr>
            <ns3:cad>57</ns3:cad>
          </ns3:TrackPointExtension>
        </extensions>
      </trkpt>
      <trkpt lat="37.78160565532743930816650390625" lon="-107.70323932170867919921875">
        <ele>3912</ele>
        <time>2023-07-29T16:48:03.000Z</time>
        <extensions>
          <ns3:TrackPointExtension>
            <ns3:hr>93</ns3:hr>
            <ns3:cad>57</ns3:cad>
          </ns3:TrackPointExtension>
        </extensions>
      </trkpt>
      <trkpt lat="37.78159685432910919189453125" lon="-107.70323865115642547607421875">
        <ele>3911.60009765625</ele>
        <time>2023-07-29T16:48:04.000Z</time>
        <extensions>
          <ns3:TrackPointExtension>
            <ns3:hr>93</ns3:hr>
            <ns3:cad>0</ns3:cad>
          </ns3:TrackPointExtension>
        </extensions>
      </trkpt>
      <trkpt lat="37.78158738277852535247802734375" lon="-107.70323873497545719146728515625">
        <ele>3911.60009765625</ele>
        <time>2023-07-29T16:48:05.000Z</time>
        <extensions>
          <ns3:TrackPointExtension>
            <ns3:hr>92</ns3:hr>
            <ns3:cad>0</ns3:cad>
          </ns3:TrackPointExtension>
        </extensions>
      </trkpt>
      <trkpt lat="37.78157246299088001251220703125" lon="-107.7032401598989963531494140625">
        <ele>3911.199951171875</ele>
        <time>2023-07-29T16:48:06.000Z</time>
        <extensions>
          <ns3:TrackPointExtension>
            <ns3:hr>92</ns3:hr>
            <ns3:cad>0</ns3:cad>
          </ns3:TrackPointExtension>
        </extensions>
      </trkpt>
      <trkpt lat="37.78155972249805927276611328125" lon="-107.7032401598989963531494140625">
        <ele>3911</ele>
        <time>2023-07-29T16:48:07.000Z</time>
        <extensions>
          <ns3:TrackPointExtension>
            <ns3:hr>92</ns3:hr>
            <ns3:cad>0</ns3:cad>
          </ns3:TrackPointExtension>
        </extensions>
      </trkpt>
      <trkpt lat="37.7815544418990612030029296875" lon="-107.7032438479363918304443359375">
        <ele>3910.800048828125</ele>
        <time>2023-07-29T16:48:08.000Z</time>
        <extensions>
          <ns3:TrackPointExtension>
            <ns3:hr>91</ns3:hr>
            <ns3:cad>0</ns3:cad>
          </ns3:TrackPointExtension>
        </extensions>
      </trkpt>
      <trkpt lat="37.7815406955778598785400390625" lon="-107.7032433450222015380859375">
        <ele>3910.800048828125</ele>
        <time>2023-07-29T16:48:09.000Z</time>
        <extensions>
          <ns3:TrackPointExtension>
            <ns3:hr>91</ns3:hr>
            <ns3:cad>0</ns3:cad>
          </ns3:TrackPointExtension>
        </extensions>
      </trkpt>
      <trkpt lat="37.781528793275356292724609375" lon="-107.7032394893467426300048828125">
        <ele>3910.800048828125</ele>
        <time>2023-07-29T16:48:10.000Z</time>
        <extensions>
          <ns3:TrackPointExtension>
            <ns3:hr>91</ns3:hr>
            <ns3:cad>0</ns3:cad>
          </ns3:TrackPointExtension>
        </extensions>
      </trkpt>
      <trkpt lat="37.78151714242994785308837890625" lon="-107.70323596894741058349609375">
        <ele>3910.39990234375</ele>
        <time>2023-07-29T16:48:11.000Z</time>
        <extensions>
          <ns3:TrackPointExtension>
            <ns3:hr>91</ns3:hr>
            <ns3:cad>0</ns3:cad>
          </ns3:TrackPointExtension>
        </extensions>
      </trkpt>
      <trkpt lat="37.78150574304163455963134765625" lon="-107.7032339572906494140625">
        <ele>3910.199951171875</ele>
        <time>2023-07-29T16:48:12.000Z</time>
        <extensions>
          <ns3:TrackPointExtension>
            <ns3:hr>91</ns3:hr>
            <ns3:cad>0</ns3:cad>
          </ns3:TrackPointExtension>
        </extensions>
      </trkpt>
      <trkpt lat="37.7814937569200992584228515625" lon="-107.70323521457612514495849609375">
        <ele>3910.199951171875</ele>
        <time>2023-07-29T16:48:13.000Z</time>
        <extensions>
          <ns3:TrackPointExtension>
            <ns3:hr>91</ns3:hr>
            <ns3:cad>0</ns3:cad>
          </ns3:TrackPointExtension>
        </extensions>
      </trkpt>
      <trkpt lat="37.781481184065341949462890625" lon="-107.7032334543764591217041015625">
        <ele>3910</ele>
        <time>2023-07-29T16:48:14.000Z</time>
        <extensions>
          <ns3:TrackPointExtension>
            <ns3:hr>91</ns3:hr>
            <ns3:cad>0</ns3:cad>
          </ns3:TrackPointExtension>
        </extensions>
      </trkpt>
      <trkpt lat="37.78147037141025066375732421875" lon="-107.70323236472904682159423828125">
        <ele>3909.800048828125</ele>
        <time>2023-07-29T16:48:15.000Z</time>
        <extensions>
          <ns3:TrackPointExtension>
            <ns3:hr>91</ns3:hr>
            <ns3:cad>0</ns3:cad>
          </ns3:TrackPointExtension>
        </extensions>
      </trkpt>
      <trkpt lat="37.7814592234790325164794921875" lon="-107.70323135890066623687744140625">
        <ele>3909.60009765625</ele>
        <time>2023-07-29T16:48:16.000Z</time>
        <extensions>
          <ns3:TrackPointExtension>
            <ns3:hr>91</ns3:hr>
            <ns3:cad>0</ns3:cad>
          </ns3:TrackPointExtension>
        </extensions>
      </trkpt>
      <trkpt lat="37.78145444579422473907470703125" lon="-107.7032321132719516754150390625">
        <ele>3909.39990234375</ele>
        <time>2023-07-29T16:48:17.000Z</time>
        <extensions>
          <ns3:TrackPointExtension>
            <ns3:hr>92</ns3:hr>
            <ns3:cad>0</ns3:cad>
          </ns3:TrackPointExtension>
        </extensions>
      </trkpt>
      <trkpt lat="37.7814434655010700225830078125" lon="-107.70322431810200214385986328125">
        <ele>3909.39990234375</ele>
        <time>2023-07-29T16:48:18.000Z</time>
        <extensions>
          <ns3:TrackPointExtension>
            <ns3:hr>92</ns3:hr>
            <ns3:cad>0</ns3:cad>
          </ns3:TrackPointExtension>
        </extensions>
      </trkpt>
      <trkpt lat="37.78143349103629589080810546875" lon="-107.70321928896009922027587890625">
        <ele>3909.199951171875</ele>
        <time>2023-07-29T16:48:19.000Z</time>
        <extensions>
          <ns3:TrackPointExtension>
            <ns3:hr>92</ns3:hr>
            <ns3:cad>0</ns3:cad>
          </ns3:TrackPointExtension>
        </extensions>
      </trkpt>
      <trkpt lat="37.78141991235315799713134765625" lon="-107.70321845076978206634521484375">
        <ele>3909</ele>
        <time>2023-07-29T16:48:20.000Z</time>
        <extensions>
          <ns3:TrackPointExtension>
            <ns3:hr>93</ns3:hr>
            <ns3:cad>0</ns3:cad>
          </ns3:TrackPointExtension>
        </extensions>
      </trkpt>
      <trkpt lat="37.78140666894614696502685546875" lon="-107.70321560092270374298095703125">
        <ele>3908.60009765625</ele>
        <time>2023-07-29T16:48:21.000Z</time>
        <extensions>
          <ns3:TrackPointExtension>
            <ns3:hr>94</ns3:hr>
            <ns3:cad>0</ns3:cad>
          </ns3:TrackPointExtension>
        </extensions>
      </trkpt>
      <trkpt lat="37.78139929287135601043701171875" lon="-107.70321526564657688140869140625">
        <ele>3908.60009765625</ele>
        <time>2023-07-29T16:48:22.000Z</time>
        <extensions>
          <ns3:TrackPointExtension>
            <ns3:hr>94</ns3:hr>
            <ns3:cad>0</ns3:cad>
          </ns3:TrackPointExtension>
        </extensions>
      </trkpt>
      <trkpt lat="37.78138252906501293182373046875" lon="-107.70321291871368885040283203125">
        <ele>3908.39990234375</ele>
        <time>2023-07-29T16:48:23.000Z</time>
        <extensions>
          <ns3:TrackPointExtension>
            <ns3:hr>95</ns3:hr>
            <ns3:cad>0</ns3:cad>
          </ns3:TrackPointExtension>
        </extensions>
      </trkpt>
      <trkpt lat="37.78137548826634883880615234375" lon="-107.70321057178080081939697265625">
        <ele>3908.39990234375</ele>
        <time>2023-07-29T16:48:24.000Z</time>
        <extensions>
          <ns3:TrackPointExtension>
            <ns3:hr>95</ns3:hr>
            <ns3:cad>0</ns3:cad>
          </ns3:TrackPointExtension>
        </extensions>
      </trkpt>
      <trkpt lat="37.78136291541159152984619140625" lon="-107.703207470476627349853515625">
        <ele>3908.199951171875</ele>
        <time>2023-07-29T16:48:25.000Z</time>
        <extensions>
          <ns3:TrackPointExtension>
            <ns3:hr>95</ns3:hr>
            <ns3:cad>0</ns3:cad>
          </ns3:TrackPointExtension>
        </extensions>
      </trkpt>
      <trkpt lat="37.781351767480373382568359375" lon="-107.70320302806794643402099609375">
        <ele>3908</ele>
        <time>2023-07-29T16:48:26.000Z</time>
        <extensions>
          <ns3:TrackPointExtension>
            <ns3:hr>95</ns3:hr>
            <ns3:cad>0</ns3:cad>
          </ns3:TrackPointExtension>
        </extensions>
      </trkpt>
      <trkpt lat="37.78134145773947238922119140625" lon="-107.7031975798308849334716796875">
        <ele>3907.800048828125</ele>
        <time>2023-07-29T16:48:27.000Z</time>
        <extensions>
          <ns3:TrackPointExtension>
            <ns3:hr>96</ns3:hr>
            <ns3:cad>0</ns3:cad>
          </ns3:TrackPointExtension>
        </extensions>
      </trkpt>
      <trkpt lat="37.7813338302075862884521484375" lon="-107.7031925506889820098876953125">
        <ele>3907.800048828125</ele>
        <time>2023-07-29T16:48:28.000Z</time>
        <extensions>
          <ns3:TrackPointExtension>
            <ns3:hr>96</ns3:hr>
            <ns3:cad>0</ns3:cad>
          </ns3:TrackPointExtension>
        </extensions>
      </trkpt>
      <trkpt lat="37.781324274837970733642578125" lon="-107.70318567752838134765625">
        <ele>3907.60009765625</ele>
        <time>2023-07-29T16:48:29.000Z</time>
        <extensions>
          <ns3:TrackPointExtension>
            <ns3:hr>96</ns3:hr>
            <ns3:cad>0</ns3:cad>
          </ns3:TrackPointExtension>
        </extensions>
      </trkpt>
      <trkpt lat="37.78131815604865550994873046875" lon="-107.70317737944424152374267578125">
        <ele>3907.60009765625</ele>
        <time>2023-07-29T16:48:30.000Z</time>
        <extensions>
          <ns3:TrackPointExtension>
            <ns3:hr>96</ns3:hr>
            <ns3:cad>0</ns3:cad>
          </ns3:TrackPointExtension>
        </extensions>
      </trkpt>
      <trkpt lat="37.7813117019832134246826171875" lon="-107.703171931207180023193359375">
        <ele>3907.39990234375</ele>
        <time>2023-07-29T16:48:31.000Z</time>
        <extensions>
          <ns3:TrackPointExtension>
            <ns3:hr>96</ns3:hr>
            <ns3:cad>0</ns3:cad>
          </ns3:TrackPointExtension>
        </extensions>
      </trkpt>
      <trkpt lat="37.78130474500358104705810546875" lon="-107.70316698588430881500244140625">
        <ele>3907.39990234375</ele>
        <time>2023-07-29T16:48:32.000Z</time>
        <extensions>
          <ns3:TrackPointExtension>
            <ns3:hr>96</ns3:hr>
            <ns3:cad>0</ns3:cad>
          </ns3:TrackPointExtension>
        </extensions>
      </trkpt>
      <trkpt lat="37.7813026495277881622314453125" lon="-107.7031680755317211151123046875">
        <ele>3907.199951171875</ele>
        <time>2023-07-29T16:48:33.000Z</time>
        <extensions>
          <ns3:TrackPointExtension>
            <ns3:hr>96</ns3:hr>
            <ns3:cad>45</ns3:cad>
          </ns3:TrackPointExtension>
        </extensions>
      </trkpt>
      <trkpt lat="37.781298123300075531005859375" lon="-107.7031717635691165924072265625">
        <ele>3907</ele>
        <time>2023-07-29T16:48:34.000Z</time>
        <extensions>
          <ns3:TrackPointExtension>
            <ns3:hr>96</ns3:hr>
            <ns3:cad>45</ns3:cad>
          </ns3:TrackPointExtension>
        </extensions>
      </trkpt>
      <trkpt lat="37.78129686601459980010986328125" lon="-107.7031754516065120697021484375">
        <ele>3907</ele>
        <time>2023-07-29T16:48:35.000Z</time>
        <extensions>
          <ns3:TrackPointExtension>
            <ns3:hr>95</ns3:hr>
            <ns3:cad>45</ns3:cad>
          </ns3:TrackPointExtension>
        </extensions>
      </trkpt>
      <trkpt lat="37.7812905795872211456298828125" lon="-107.70318056456744670867919921875">
        <ele>3906.60009765625</ele>
        <time>2023-07-29T16:48:36.000Z</time>
        <extensions>
          <ns3:TrackPointExtension>
            <ns3:hr>95</ns3:hr>
            <ns3:cad>0</ns3:cad>
          </ns3:TrackPointExtension>
        </extensions>
      </trkpt>
      <trkpt lat="37.781282030045986175537109375" lon="-107.703181989490985870361328125">
        <ele>3906.39990234375</ele>
        <time>2023-07-29T16:48:37.000Z</time>
        <extensions>
          <ns3:TrackPointExtension>
            <ns3:hr>95</ns3:hr>
            <ns3:cad>0</ns3:cad>
          </ns3:TrackPointExtension>
        </extensions>
      </trkpt>
      <trkpt lat="37.781274318695068359375" lon="-107.7031762897968292236328125">
        <ele>3906.199951171875</ele>
        <time>2023-07-29T16:48:38.000Z</time>
        <extensions>
          <ns3:TrackPointExtension>
            <ns3:hr>95</ns3:hr>
            <ns3:cad>0</ns3:cad>
          </ns3:TrackPointExtension>
        </extensions>
      </trkpt>
      <trkpt lat="37.78126300312578678131103515625" lon="-107.7031704224646091461181640625">
        <ele>3906</ele>
        <time>2023-07-29T16:48:39.000Z</time>
        <extensions>
          <ns3:TrackPointExtension>
            <ns3:hr>95</ns3:hr>
            <ns3:cad>0</ns3:cad>
          </ns3:TrackPointExtension>
        </extensions>
      </trkpt>
      <trkpt lat="37.78125596232712268829345703125" lon="-107.70316413603723049163818359375">
        <ele>3906</ele>
        <time>2023-07-29T16:48:40.000Z</time>
        <extensions>
          <ns3:TrackPointExtension>
            <ns3:hr>95</ns3:hr>
            <ns3:cad>0</ns3:cad>
          </ns3:TrackPointExtension>
        </extensions>
      </trkpt>
      <trkpt lat="37.78124506585299968719482421875" lon="-107.70315458066761493682861328125">
        <ele>3906</ele>
        <time>2023-07-29T16:48:41.000Z</time>
        <extensions>
          <ns3:TrackPointExtension>
            <ns3:hr>95</ns3:hr>
            <ns3:cad>0</ns3:cad>
          </ns3:TrackPointExtension>
        </extensions>
      </trkpt>
      <trkpt lat="37.78123634867370128631591796875" lon="-107.7031466178596019744873046875">
        <ele>3905.800048828125</ele>
        <time>2023-07-29T16:48:42.000Z</time>
        <extensions>
          <ns3:TrackPointExtension>
            <ns3:hr>95</ns3:hr>
            <ns3:cad>0</ns3:cad>
          </ns3:TrackPointExtension>
        </extensions>
      </trkpt>
      <trkpt lat="37.781220339238643646240234375" lon="-107.7031375654041767120361328125">
        <ele>3905.60009765625</ele>
        <time>2023-07-29T16:48:43.000Z</time>
        <extensions>
          <ns3:TrackPointExtension>
            <ns3:hr>95</ns3:hr>
            <ns3:cad>0</ns3:cad>
          </ns3:TrackPointExtension>
        </extensions>
      </trkpt>
      <trkpt lat="37.78120659291744232177734375" lon="-107.7031288482248783111572265625">
        <ele>3905.39990234375</ele>
        <time>2023-07-29T16:48:44.000Z</time>
        <extensions>
          <ns3:TrackPointExtension>
            <ns3:hr>95</ns3:hr>
            <ns3:cad>0</ns3:cad>
          </ns3:TrackPointExtension>
        </extensions>
      </trkpt>
      <trkpt lat="37.78119561262428760528564453125" lon="-107.703120298683643341064453125">
        <ele>3905.199951171875</ele>
        <time>2023-07-29T16:48:45.000Z</time>
        <extensions>
          <ns3:TrackPointExtension>
            <ns3:hr>95</ns3:hr>
            <ns3:cad>55</ns3:cad>
          </ns3:TrackPointExtension>
        </extensions>
      </trkpt>
      <trkpt lat="37.7811898291110992431640625" lon="-107.70311401225626468658447265625">
        <ele>3905</ele>
        <time>2023-07-29T16:48:46.000Z</time>
        <extensions>
          <ns3:TrackPointExtension>
            <ns3:hr>95</ns3:hr>
            <ns3:cad>55</ns3:cad>
          </ns3:TrackPointExtension>
        </extensions>
      </trkpt>
      <trkpt lat="37.78118438087403774261474609375" lon="-107.70310982130467891693115234375">
        <ele>3905</ele>
        <time>2023-07-29T16:48:47.000Z</time>
        <extensions>
          <ns3:TrackPointExtension>
            <ns3:hr>94</ns3:hr>
            <ns3:cad>55</ns3:cad>
          </ns3:TrackPointExtension>
        </extensions>
      </trkpt>
      <trkpt lat="37.781179435551166534423828125" lon="-107.7030996792018413543701171875">
        <ele>3904.800048828125</ele>
        <time>2023-07-29T16:48:48.000Z</time>
        <extensions>
          <ns3:TrackPointExtension>
            <ns3:hr>95</ns3:hr>
            <ns3:cad>55</ns3:cad>
          </ns3:TrackPointExtension>
        </extensions>
      </trkpt>
      <trkpt lat="37.7811651863157749176025390625" lon="-107.703090123832225799560546875">
        <ele>3904.800048828125</ele>
        <time>2023-07-29T16:48:49.000Z</time>
        <extensions>
          <ns3:TrackPointExtension>
            <ns3:hr>95</ns3:hr>
            <ns3:cad>0</ns3:cad>
          </ns3:TrackPointExtension>
        </extensions>
      </trkpt>
      <trkpt lat="37.7811511047184467315673828125" lon="-107.70308232866227626800537109375">
        <ele>3904.800048828125</ele>
        <time>2023-07-29T16:48:50.000Z</time>
        <extensions>
          <ns3:TrackPointExtension>
            <ns3:hr>95</ns3:hr>
            <ns3:cad>0</ns3:cad>
          </ns3:TrackPointExtension>
        </extensions>
      </trkpt>
      <trkpt lat="37.781142555177211761474609375" lon="-107.7030735276639461517333984375">
        <ele>3904.800048828125</ele>
        <time>2023-07-29T16:48:51.000Z</time>
        <extensions>
          <ns3:TrackPointExtension>
            <ns3:hr>95</ns3:hr>
            <ns3:cad>0</ns3:cad>
          </ns3:TrackPointExtension>
        </extensions>
      </trkpt>
      <trkpt lat="37.7811306528747081756591796875" lon="-107.70306321792304515838623046875">
        <ele>3904.800048828125</ele>
        <time>2023-07-29T16:48:52.000Z</time>
        <extensions>
          <ns3:TrackPointExtension>
            <ns3:hr>95</ns3:hr>
            <ns3:cad>0</ns3:cad>
          </ns3:TrackPointExtension>
        </extensions>
      </trkpt>
      <trkpt lat="37.78112453408539295196533203125" lon="-107.70305986516177654266357421875">
        <ele>3904.60009765625</ele>
        <time>2023-07-29T16:48:53.000Z</time>
        <extensions>
          <ns3:TrackPointExtension>
            <ns3:hr>96</ns3:hr>
            <ns3:cad>0</ns3:cad>
          </ns3:TrackPointExtension>
        </extensions>
      </trkpt>
      <trkpt lat="37.7811165712773799896240234375" lon="-107.703049890697002410888671875">
        <ele>3904.39990234375</ele>
        <time>2023-07-29T16:48:54.000Z</time>
        <extensions>
          <ns3:TrackPointExtension>
            <ns3:hr>96</ns3:hr>
            <ns3:cad>0</ns3:cad>
          </ns3:TrackPointExtension>
        </extensions>
      </trkpt>
      <trkpt lat="37.7811095304787158966064453125" lon="-107.70304276607930660247802734375">
        <ele>3904.199951171875</ele>
        <time>2023-07-29T16:48:55.000Z</time>
        <extensions>
          <ns3:TrackPointExtension>
            <ns3:hr>97</ns3:hr>
            <ns3:cad>0</ns3:cad>
          </ns3:TrackPointExtension>
        </extensions>
      </trkpt>
      <trkpt lat="37.78110156767070293426513671875" lon="-107.70303706638514995574951171875">
        <ele>3904.199951171875</ele>
        <time>2023-07-29T16:48:56.000Z</time>
        <extensions>
          <ns3:TrackPointExtension>
            <ns3:hr>97</ns3:hr>
            <ns3:cad>0</ns3:cad>
          </ns3:TrackPointExtension>
        </extensions>
      </trkpt>
      <trkpt lat="37.78109519742429256439208984375" lon="-107.70303237251937389373779296875">
        <ele>3903.800048828125</ele>
        <time>2023-07-29T16:48:57.000Z</time>
        <extensions>
          <ns3:TrackPointExtension>
            <ns3:hr>98</ns3:hr>
            <ns3:cad>53</ns3:cad>
          </ns3:TrackPointExtension>
        </extensions>
      </trkpt>
      <trkpt lat="37.78108748607337474822998046875" lon="-107.70303052850067615509033203125">
        <ele>3903.800048828125</ele>
        <time>2023-07-29T16:48:58.000Z</time>
        <extensions>
          <ns3:TrackPointExtension>
            <ns3:hr>98</ns3:hr>
            <ns3:cad>53</ns3:cad>
          </ns3:TrackPointExtension>
        </extensions>
      </trkpt>
      <trkpt lat="37.78107860125601291656494140625" lon="-107.70302616991102695465087890625">
        <ele>3903.800048828125</ele>
        <time>2023-07-29T16:48:59.000Z</time>
        <extensions>
          <ns3:TrackPointExtension>
            <ns3:hr>98</ns3:hr>
            <ns3:cad>53</ns3:cad>
          </ns3:TrackPointExtension>
        </extensions>
      </trkpt>
      <trkpt lat="37.78106669895350933074951171875" lon="-107.703021056950092315673828125">
        <ele>3903.60009765625</ele>
        <time>2023-07-29T16:49:00.000Z</time>
        <extensions>
          <ns3:TrackPointExtension>
            <ns3:hr>98</ns3:hr>
            <ns3:cad>53</ns3:cad>
          </ns3:TrackPointExtension>
        </extensions>
      </trkpt>
      <trkpt lat="37.7810584008693695068359375" lon="-107.70301627926528453826904296875">
        <ele>3903.39990234375</ele>
        <time>2023-07-29T16:49:01.000Z</time>
        <extensions>
          <ns3:TrackPointExtension>
            <ns3:hr>98</ns3:hr>
            <ns3:cad>52</ns3:cad>
          </ns3:TrackPointExtension>
        </extensions>
      </trkpt>
      <trkpt lat="37.781051360070705413818359375" lon="-107.703008316457271575927734375">
        <ele>3903.199951171875</ele>
        <time>2023-07-29T16:49:02.000Z</time>
        <extensions>
          <ns3:TrackPointExtension>
            <ns3:hr>98</ns3:hr>
            <ns3:cad>0</ns3:cad>
          </ns3:TrackPointExtension>
        </extensions>
      </trkpt>
      <trkpt lat="37.78104255907237529754638671875" lon="-107.70299918018281459808349609375">
        <ele>3903.199951171875</ele>
        <time>2023-07-29T16:49:03.000Z</time>
        <extensions>
          <ns3:TrackPointExtension>
            <ns3:hr>98</ns3:hr>
            <ns3:cad>0</ns3:cad>
          </ns3:TrackPointExtension>
        </extensions>
      </trkpt>
      <trkpt lat="37.78103602118790149688720703125" lon="-107.70299364812672138214111328125">
        <ele>3903</ele>
        <time>2023-07-29T16:49:04.000Z</time>
        <extensions>
          <ns3:TrackPointExtension>
            <ns3:hr>98</ns3:hr>
            <ns3:cad>0</ns3:cad>
          </ns3:TrackPointExtension>
        </extensions>
      </trkpt>
      <trkpt lat="37.78103048913180828094482421875" lon="-107.70299096591770648956298828125">
        <ele>3902.800048828125</ele>
        <time>2023-07-29T16:49:05.000Z</time>
        <extensions>
          <ns3:TrackPointExtension>
            <ns3:hr>98</ns3:hr>
            <ns3:cad>0</ns3:cad>
          </ns3:TrackPointExtension>
        </extensions>
      </trkpt>
      <trkpt lat="37.7810233645141124725341796875" lon="-107.70298778079450130462646484375">
        <ele>3902.39990234375</ele>
        <time>2023-07-29T16:49:06.000Z</time>
        <extensions>
          <ns3:TrackPointExtension>
            <ns3:hr>98</ns3:hr>
            <ns3:cad>0</ns3:cad>
          </ns3:TrackPointExtension>
        </extensions>
      </trkpt>
      <trkpt lat="37.78101523406803607940673828125" lon="-107.70298526622354984283447265625">
        <ele>3902.199951171875</ele>
        <time>2023-07-29T16:49:07.000Z</time>
        <extensions>
          <ns3:TrackPointExtension>
            <ns3:hr>98</ns3:hr>
            <ns3:cad>0</ns3:cad>
          </ns3:TrackPointExtension>
        </extensions>
      </trkpt>
      <trkpt lat="37.78100769035518169403076171875" lon="-107.7029793150722980499267578125">
        <ele>3902.199951171875</ele>
        <time>2023-07-29T16:49:08.000Z</time>
        <extensions>
          <ns3:TrackPointExtension>
            <ns3:hr>98</ns3:hr>
            <ns3:cad>0</ns3:cad>
          </ns3:TrackPointExtension>
        </extensions>
      </trkpt>
      <trkpt lat="37.78099897317588329315185546875" lon="-107.70297001115977764129638671875">
        <ele>3902</ele>
        <time>2023-07-29T16:49:09.000Z</time>
        <extensions>
          <ns3:TrackPointExtension>
            <ns3:hr>98</ns3:hr>
            <ns3:cad>0</ns3:cad>
          </ns3:TrackPointExtension>
        </extensions>
      </trkpt>
      <trkpt lat="37.78099444694817066192626953125" lon="-107.70296682603657245635986328125">
        <ele>3902</ele>
        <time>2023-07-29T16:49:10.000Z</time>
        <extensions>
          <ns3:TrackPointExtension>
            <ns3:hr>98</ns3:hr>
            <ns3:cad>0</ns3:cad>
          </ns3:TrackPointExtension>
        </extensions>
      </trkpt>
      <trkpt lat="37.78098891489207744598388671875" lon="-107.70296095870435237884521484375">
        <ele>3901.800048828125</ele>
        <time>2023-07-29T16:49:11.000Z</time>
        <extensions>
          <ns3:TrackPointExtension>
            <ns3:hr>98</ns3:hr>
            <ns3:cad>0</ns3:cad>
          </ns3:TrackPointExtension>
        </extensions>
      </trkpt>
      <trkpt lat="37.78098036535084247589111328125" lon="-107.70295433700084686279296875">
        <ele>3901.60009765625</ele>
        <time>2023-07-29T16:49:12.000Z</time>
        <extensions>
          <ns3:TrackPointExtension>
            <ns3:hr>98</ns3:hr>
            <ns3:cad>0</ns3:cad>
          </ns3:TrackPointExtension>
        </extensions>
      </trkpt>
      <trkpt lat="37.7809727378189563751220703125" lon="-107.7029518224298954010009765625">
        <ele>3901.199951171875</ele>
        <time>2023-07-29T16:49:13.000Z</time>
        <extensions>
          <ns3:TrackPointExtension>
            <ns3:hr>98</ns3:hr>
            <ns3:cad>0</ns3:cad>
          </ns3:TrackPointExtension>
        </extensions>
      </trkpt>
      <trkpt lat="37.780962176620960235595703125" lon="-107.7029456198215484619140625">
        <ele>3901.199951171875</ele>
        <time>2023-07-29T16:49:14.000Z</time>
        <extensions>
          <ns3:TrackPointExtension>
            <ns3:hr>98</ns3:hr>
            <ns3:cad>0</ns3:cad>
          </ns3:TrackPointExtension>
        </extensions>
      </trkpt>
      <trkpt lat="37.78095371089875698089599609375" lon="-107.70294067449867725372314453125">
        <ele>3901</ele>
        <time>2023-07-29T16:49:15.000Z</time>
        <extensions>
          <ns3:TrackPointExtension>
            <ns3:hr>98</ns3:hr>
            <ns3:cad>0</ns3:cad>
          </ns3:TrackPointExtension>
        </extensions>
      </trkpt>
      <trkpt lat="37.78094097040593624114990234375" lon="-107.70293891429901123046875">
        <ele>3900.60009765625</ele>
        <time>2023-07-29T16:49:16.000Z</time>
        <extensions>
          <ns3:TrackPointExtension>
            <ns3:hr>98</ns3:hr>
            <ns3:cad>0</ns3:cad>
          </ns3:TrackPointExtension>
        </extensions>
      </trkpt>
      <trkpt lat="37.7809281460940837860107421875" lon="-107.70293681882321834564208984375">
        <ele>3900.199951171875</ele>
        <time>2023-07-29T16:49:17.000Z</time>
        <extensions>
          <ns3:TrackPointExtension>
            <ns3:hr>98</ns3:hr>
            <ns3:cad>0</ns3:cad>
          </ns3:TrackPointExtension>
        </extensions>
      </trkpt>
      <trkpt lat="37.7809143997728824615478515625" lon="-107.7029380761086940765380859375">
        <ele>3900</ele>
        <time>2023-07-29T16:49:18.000Z</time>
        <extensions>
          <ns3:TrackPointExtension>
            <ns3:hr>98</ns3:hr>
            <ns3:cad>0</ns3:cad>
          </ns3:TrackPointExtension>
        </extensions>
      </trkpt>
      <trkpt lat="37.78090056963264942169189453125" lon="-107.70293866284191608428955078125">
        <ele>3899.800048828125</ele>
        <time>2023-07-29T16:49:19.000Z</time>
        <extensions>
          <ns3:TrackPointExtension>
            <ns3:hr>98</ns3:hr>
            <ns3:cad>0</ns3:cad>
          </ns3:TrackPointExtension>
        </extensions>
      </trkpt>
      <trkpt lat="37.780888415873050689697265625" lon="-107.70293933339416980743408203125">
        <ele>3899.800048828125</ele>
        <time>2023-07-29T16:49:20.000Z</time>
        <extensions>
          <ns3:TrackPointExtension>
            <ns3:hr>98</ns3:hr>
            <ns3:cad>0</ns3:cad>
          </ns3:TrackPointExtension>
        </extensions>
      </trkpt>
      <trkpt lat="37.780875004827976226806640625" lon="-107.702936567366123199462890625">
        <ele>3899.60009765625</ele>
        <time>2023-07-29T16:49:21.000Z</time>
        <extensions>
          <ns3:TrackPointExtension>
            <ns3:hr>98</ns3:hr>
            <ns3:cad>0</ns3:cad>
          </ns3:TrackPointExtension>
        </extensions>
      </trkpt>
      <trkpt lat="37.78086729347705841064453125" lon="-107.70293447189033031463623046875">
        <ele>3899.60009765625</ele>
        <time>2023-07-29T16:49:22.000Z</time>
        <extensions>
          <ns3:TrackPointExtension>
            <ns3:hr>98</ns3:hr>
            <ns3:cad>0</ns3:cad>
          </ns3:TrackPointExtension>
        </extensions>
      </trkpt>
      <trkpt lat="37.78085698373615741729736328125" lon="-107.7029303647577762603759765625">
        <ele>3899.39990234375</ele>
        <time>2023-07-29T16:49:23.000Z</time>
        <extensions>
          <ns3:TrackPointExtension>
            <ns3:hr>98</ns3:hr>
            <ns3:cad>0</ns3:cad>
          </ns3:TrackPointExtension>
        </extensions>
      </trkpt>
      <trkpt lat="37.780844829976558685302734375" lon="-107.70292491652071475982666015625">
        <ele>3899.199951171875</ele>
        <time>2023-07-29T16:49:24.000Z</time>
        <extensions>
          <ns3:TrackPointExtension>
            <ns3:hr>98</ns3:hr>
            <ns3:cad>0</ns3:cad>
          </ns3:TrackPointExtension>
        </extensions>
      </trkpt>
      <trkpt lat="37.7808330953121185302734375" lon="-107.70291812717914581298828125">
        <ele>3899</ele>
        <time>2023-07-29T16:49:25.000Z</time>
        <extensions>
          <ns3:TrackPointExtension>
            <ns3:hr>98</ns3:hr>
            <ns3:cad>0</ns3:cad>
          </ns3:TrackPointExtension>
        </extensions>
      </trkpt>
      <trkpt lat="37.780822701752185821533203125" lon="-107.7029109187424182891845703125">
        <ele>3899</ele>
        <time>2023-07-29T16:49:26.000Z</time>
        <extensions>
          <ns3:TrackPointExtension>
            <ns3:hr>99</ns3:hr>
            <ns3:cad>0</ns3:cad>
          </ns3:TrackPointExtension>
        </extensions>
      </trkpt>
      <trkpt lat="37.78081490658223628997802734375" lon="-107.702898345887660980224609375">
        <ele>3898.800048828125</ele>
        <time>2023-07-29T16:49:27.000Z</time>
        <extensions>
          <ns3:TrackPointExtension>
            <ns3:hr>99</ns3:hr>
            <ns3:cad>0</ns3:cad>
          </ns3:TrackPointExtension>
        </extensions>
      </trkpt>
      <trkpt lat="37.78081088326871395111083984375" lon="-107.702892310917377471923828125">
        <ele>3898.60009765625</ele>
        <time>2023-07-29T16:49:28.000Z</time>
        <extensions>
          <ns3:TrackPointExtension>
            <ns3:hr>99</ns3:hr>
            <ns3:cad>0</ns3:cad>
          </ns3:TrackPointExtension>
        </extensions>
      </trkpt>
      <trkpt lat="37.78080828487873077392578125" lon="-107.702890299260616302490234375">
        <ele>3898.39990234375</ele>
        <time>2023-07-29T16:49:29.000Z</time>
        <extensions>
          <ns3:TrackPointExtension>
            <ns3:hr>99</ns3:hr>
            <ns3:cad>0</ns3:cad>
          </ns3:TrackPointExtension>
        </extensions>
      </trkpt>
      <trkpt lat="37.780799567699432373046875" lon="-107.702878229320049285888671875">
        <ele>3898.199951171875</ele>
        <time>2023-07-29T16:49:30.000Z</time>
        <extensions>
          <ns3:TrackPointExtension>
            <ns3:hr>99</ns3:hr>
            <ns3:cad>0</ns3:cad>
          </ns3:TrackPointExtension>
        </extensions>
      </trkpt>
      <trkpt lat="37.7807880006730556488037109375" lon="-107.7028716914355754852294921875">
        <ele>3898.199951171875</ele>
        <time>2023-07-29T16:49:31.000Z</time>
        <extensions>
          <ns3:TrackPointExtension>
            <ns3:hr>99</ns3:hr>
            <ns3:cad>0</ns3:cad>
          </ns3:TrackPointExtension>
        </extensions>
      </trkpt>
      <trkpt lat="37.78078280389308929443359375" lon="-107.7028666622936725616455078125">
        <ele>3898</ele>
        <time>2023-07-29T16:49:32.000Z</time>
        <extensions>
          <ns3:TrackPointExtension>
            <ns3:hr>98</ns3:hr>
            <ns3:cad>0</ns3:cad>
          </ns3:TrackPointExtension>
        </extensions>
      </trkpt>
      <trkpt lat="37.7807792834937572479248046875" lon="-107.70285643637180328369140625">
        <ele>3897.800048828125</ele>
        <time>2023-07-29T16:49:33.000Z</time>
        <extensions>
          <ns3:TrackPointExtension>
            <ns3:hr>98</ns3:hr>
            <ns3:cad>0</ns3:cad>
          </ns3:TrackPointExtension>
        </extensions>
      </trkpt>
      <trkpt lat="37.78077316470444202423095703125" lon="-107.7028472162783145904541015625">
        <ele>3897.60009765625</ele>
        <time>2023-07-29T16:49:34.000Z</time>
        <extensions>
          <ns3:TrackPointExtension>
            <ns3:hr>98</ns3:hr>
            <ns3:cad>0</ns3:cad>
          </ns3:TrackPointExtension>
        </extensions>
      </trkpt>
      <trkpt lat="37.78076360933482646942138671875" lon="-107.70283422432839870452880859375">
        <ele>3897.39990234375</ele>
        <time>2023-07-29T16:49:35.000Z</time>
        <extensions>
          <ns3:TrackPointExtension>
            <ns3:hr>98</ns3:hr>
            <ns3:cad>0</ns3:cad>
          </ns3:TrackPointExtension>
        </extensions>
      </trkpt>
      <trkpt lat="37.78075673617422580718994140625" lon="-107.702828608453273773193359375">
        <ele>3897.39990234375</ele>
        <time>2023-07-29T16:49:36.000Z</time>
        <extensions>
          <ns3:TrackPointExtension>
            <ns3:hr>98</ns3:hr>
            <ns3:cad>0</ns3:cad>
          </ns3:TrackPointExtension>
        </extensions>
      </trkpt>
      <trkpt lat="37.7807434089481830596923828125" lon="-107.7028180472552776336669921875">
        <ele>3897.39990234375</ele>
        <time>2023-07-29T16:49:37.000Z</time>
        <extensions>
          <ns3:TrackPointExtension>
            <ns3:hr>99</ns3:hr>
            <ns3:cad>0</ns3:cad>
          </ns3:TrackPointExtension>
        </extensions>
      </trkpt>
      <trkpt lat="37.78073024936020374298095703125" lon="-107.7028106711804866790771484375">
        <ele>3897.199951171875</ele>
        <time>2023-07-29T16:49:38.000Z</time>
        <extensions>
          <ns3:TrackPointExtension>
            <ns3:hr>98</ns3:hr>
            <ns3:cad>0</ns3:cad>
          </ns3:TrackPointExtension>
        </extensions>
      </trkpt>
      <trkpt lat="37.78071834705770015716552734375" lon="-107.70280555821955204010009765625">
        <ele>3897</ele>
        <time>2023-07-29T16:49:39.000Z</time>
        <extensions>
          <ns3:TrackPointExtension>
            <ns3:hr>98</ns3:hr>
            <ns3:cad>0</ns3:cad>
          </ns3:TrackPointExtension>
        </extensions>
      </trkpt>
      <trkpt lat="37.78070610947906970977783203125" lon="-107.7027975954115390777587890625">
        <ele>3896.800048828125</ele>
        <time>2023-07-29T16:49:40.000Z</time>
        <extensions>
          <ns3:TrackPointExtension>
            <ns3:hr>98</ns3:hr>
            <ns3:cad>0</ns3:cad>
          </ns3:TrackPointExtension>
        </extensions>
      </trkpt>
      <trkpt lat="37.78070032596588134765625" lon="-107.702795080840587615966796875">
        <ele>3896.800048828125</ele>
        <time>2023-07-29T16:49:41.000Z</time>
        <extensions>
          <ns3:TrackPointExtension>
            <ns3:hr>98</ns3:hr>
            <ns3:cad>0</ns3:cad>
          </ns3:TrackPointExtension>
        </extensions>
      </trkpt>
      <trkpt lat="37.7806904353201389312744140625" lon="-107.70279130898416042327880859375">
        <ele>3896.39990234375</ele>
        <time>2023-07-29T16:49:42.000Z</time>
        <extensions>
          <ns3:TrackPointExtension>
            <ns3:hr>97</ns3:hr>
            <ns3:cad>0</ns3:cad>
          </ns3:TrackPointExtension>
        </extensions>
      </trkpt>
      <trkpt lat="37.7806766889989376068115234375" lon="-107.70278443582355976104736328125">
        <ele>3896.39990234375</ele>
        <time>2023-07-29T16:49:43.000Z</time>
        <extensions>
          <ns3:TrackPointExtension>
            <ns3:hr>98</ns3:hr>
            <ns3:cad>0</ns3:cad>
          </ns3:TrackPointExtension>
        </extensions>
      </trkpt>
      <trkpt lat="37.7806642837822437286376953125" lon="-107.7027788199484348297119140625">
        <ele>3896.39990234375</ele>
        <time>2023-07-29T16:49:44.000Z</time>
        <extensions>
          <ns3:TrackPointExtension>
            <ns3:hr>98</ns3:hr>
            <ns3:cad>0</ns3:cad>
          </ns3:TrackPointExtension>
        </extensions>
      </trkpt>
      <trkpt lat="37.780654393136501312255859375" lon="-107.70277328789234161376953125">
        <ele>3896.39990234375</ele>
        <time>2023-07-29T16:49:45.000Z</time>
        <extensions>
          <ns3:TrackPointExtension>
            <ns3:hr>98</ns3:hr>
            <ns3:cad>0</ns3:cad>
          </ns3:TrackPointExtension>
        </extensions>
      </trkpt>
      <trkpt lat="37.7806438319385051727294921875" lon="-107.70276716910302639007568359375">
        <ele>3896.39990234375</ele>
        <time>2023-07-29T16:49:46.000Z</time>
        <extensions>
          <ns3:TrackPointExtension>
            <ns3:hr>98</ns3:hr>
            <ns3:cad>0</ns3:cad>
          </ns3:TrackPointExtension>
        </extensions>
      </trkpt>
      <trkpt lat="37.78063201345503330230712890625" lon="-107.70276146940886974334716796875">
        <ele>3896.199951171875</ele>
        <time>2023-07-29T16:49:47.000Z</time>
        <extensions>
          <ns3:TrackPointExtension>
            <ns3:hr>98</ns3:hr>
            <ns3:cad>0</ns3:cad>
          </ns3:TrackPointExtension>
        </extensions>
      </trkpt>
      <trkpt lat="37.78062497265636920928955078125" lon="-107.7027543447911739349365234375">
        <ele>3896.199951171875</ele>
        <time>2023-07-29T16:49:48.000Z</time>
        <extensions>
          <ns3:TrackPointExtension>
            <ns3:hr>97</ns3:hr>
            <ns3:cad>0</ns3:cad>
          </ns3:TrackPointExtension>
        </extensions>
      </trkpt>
      <trkpt lat="37.78061927296221256256103515625" lon="-107.70274789072573184967041015625">
        <ele>3896.199951171875</ele>
        <time>2023-07-29T16:49:49.000Z</time>
        <extensions>
          <ns3:TrackPointExtension>
            <ns3:hr>97</ns3:hr>
            <ns3:cad>53</ns3:cad>
          </ns3:TrackPointExtension>
        </extensions>
      </trkpt>
      <trkpt lat="37.78061323799192905426025390625" lon="-107.70274017937481403350830078125">
        <ele>3896.199951171875</ele>
        <time>2023-07-29T16:49:50.000Z</time>
        <extensions>
          <ns3:TrackPointExtension>
            <ns3:hr>97</ns3:hr>
            <ns3:cad>53</ns3:cad>
          </ns3:TrackPointExtension>
        </extensions>
      </trkpt>
      <trkpt lat="37.78060435317456722259521484375" lon="-107.70273028872907161712646484375">
        <ele>3896.199951171875</ele>
        <time>2023-07-29T16:49:51.000Z</time>
        <extensions>
          <ns3:TrackPointExtension>
            <ns3:hr>96</ns3:hr>
            <ns3:cad>53</ns3:cad>
          </ns3:TrackPointExtension>
        </extensions>
      </trkpt>
      <trkpt lat="37.78059580363333225250244140625" lon="-107.702719978988170623779296875">
        <ele>3896.199951171875</ele>
        <time>2023-07-29T16:49:52.000Z</time>
        <extensions>
          <ns3:TrackPointExtension>
            <ns3:hr>96</ns3:hr>
            <ns3:cad>53</ns3:cad>
          </ns3:TrackPointExtension>
        </extensions>
      </trkpt>
      <trkpt lat="37.78058758936822414398193359375" lon="-107.7027095854282379150390625">
        <ele>3896</ele>
        <time>2023-07-29T16:49:53.000Z</time>
        <extensions>
          <ns3:TrackPointExtension>
            <ns3:hr>96</ns3:hr>
            <ns3:cad>53</ns3:cad>
          </ns3:TrackPointExtension>
        </extensions>
      </trkpt>
      <trkpt lat="37.78058029711246490478515625" lon="-107.7027020417153835296630859375">
        <ele>3895.800048828125</ele>
        <time>2023-07-29T16:49:54.000Z</time>
        <extensions>
          <ns3:TrackPointExtension>
            <ns3:hr>97</ns3:hr>
            <ns3:cad>53</ns3:cad>
          </ns3:TrackPointExtension>
        </extensions>
      </trkpt>
      <trkpt lat="37.78057686053216457366943359375" lon="-107.70269424654543399810791015625">
        <ele>3895.60009765625</ele>
        <time>2023-07-29T16:49:55.000Z</time>
        <extensions>
          <ns3:TrackPointExtension>
            <ns3:hr>97</ns3:hr>
            <ns3:cad>53</ns3:cad>
          </ns3:TrackPointExtension>
        </extensions>
      </trkpt>
      <trkpt lat="37.780574597418308258056640625" lon="-107.70269072614610195159912109375">
        <ele>3895.60009765625</ele>
        <time>2023-07-29T16:49:56.000Z</time>
        <extensions>
          <ns3:TrackPointExtension>
            <ns3:hr>98</ns3:hr>
            <ns3:cad>0</ns3:cad>
          </ns3:TrackPointExtension>
        </extensions>
      </trkpt>
      <trkpt lat="37.7805687300860881805419921875" lon="-107.70268435589969158172607421875">
        <ele>3895.60009765625</ele>
        <time>2023-07-29T16:49:57.000Z</time>
        <extensions>
          <ns3:TrackPointExtension>
            <ns3:hr>98</ns3:hr>
            <ns3:cad>0</ns3:cad>
          </ns3:TrackPointExtension>
        </extensions>
      </trkpt>
      <trkpt lat="37.78057015500962734222412109375" lon="-107.7026839368045330047607421875">
        <ele>3895.39990234375</ele>
        <time>2023-07-29T16:49:58.000Z</time>
        <extensions>
          <ns3:TrackPointExtension>
            <ns3:hr>99</ns3:hr>
            <ns3:cad>0</ns3:cad>
          </ns3:TrackPointExtension>
        </extensions>
      </trkpt>
      <trkpt lat="37.78056462295353412628173828125" lon="-107.702679745852947235107421875">
        <ele>3895.199951171875</ele>
        <time>2023-07-29T16:49:59.000Z</time>
        <extensions>
          <ns3:TrackPointExtension>
            <ns3:hr>99</ns3:hr>
            <ns3:cad>0</ns3:cad>
          </ns3:TrackPointExtension>
        </extensions>
      </trkpt>
      <trkpt lat="37.7805621922016143798828125" lon="-107.702680416405200958251953125">
        <ele>3895</ele>
        <time>2023-07-29T16:50:00.000Z</time>
        <extensions>
          <ns3:TrackPointExtension>
            <ns3:hr>100</ns3:hr>
            <ns3:cad>0</ns3:cad>
          </ns3:TrackPointExtension>
        </extensions>
      </trkpt>
      <trkpt lat="37.78055749833583831787109375" lon="-107.70267966203391551971435546875">
        <ele>3894.800048828125</ele>
        <time>2023-07-29T16:50:01.000Z</time>
        <extensions>
          <ns3:TrackPointExtension>
            <ns3:hr>100</ns3:hr>
            <ns3:cad>19</ns3:cad>
          </ns3:TrackPointExtension>
        </extensions>
      </trkpt>
      <trkpt lat="37.78055657632648944854736328125" lon="-107.70267949439585208892822265625">
        <ele>3894.39990234375</ele>
        <time>2023-07-29T16:50:02.000Z</time>
        <extensions>
          <ns3:TrackPointExtension>
            <ns3:hr>100</ns3:hr>
            <ns3:cad>0</ns3:cad>
          </ns3:TrackPointExtension>
        </extensions>
      </trkpt>
      <trkpt lat="37.780547104775905609130859375" lon="-107.7026825957000255584716796875">
        <ele>3894.199951171875</ele>
        <time>2023-07-29T16:50:03.000Z</time>
        <extensions>
          <ns3:TrackPointExtension>
            <ns3:hr>100</ns3:hr>
            <ns3:cad>0</ns3:cad>
          </ns3:TrackPointExtension>
        </extensions>
      </trkpt>
      <trkpt lat="37.780542410910129547119140625" lon="-107.702683098614215850830078125">
        <ele>3894</ele>
        <time>2023-07-29T16:50:04.000Z</time>
        <extensions>
          <ns3:TrackPointExtension>
            <ns3:hr>100</ns3:hr>
            <ns3:cad>0</ns3:cad>
          </ns3:TrackPointExtension>
        </extensions>
      </trkpt>
      <trkpt lat="37.78053042478859424591064453125" lon="-107.70268754102289676666259765625">
        <ele>3893.800048828125</ele>
        <time>2023-07-29T16:50:05.000Z</time>
        <extensions>
          <ns3:TrackPointExtension>
            <ns3:hr>100</ns3:hr>
            <ns3:cad>0</ns3:cad>
          </ns3:TrackPointExtension>
        </extensions>
      </trkpt>
      <trkpt lat="37.78052489273250102996826171875" lon="-107.70269089378416538238525390625">
        <ele>3893.39990234375</ele>
        <time>2023-07-29T16:50:06.000Z</time>
        <extensions>
          <ns3:TrackPointExtension>
            <ns3:hr>99</ns3:hr>
            <ns3:cad>0</ns3:cad>
          </ns3:TrackPointExtension>
        </extensions>
      </trkpt>
      <trkpt lat="37.7805191092193126678466796875" lon="-107.70269474945962429046630859375">
        <ele>3893.199951171875</ele>
        <time>2023-07-29T16:50:07.000Z</time>
        <extensions>
          <ns3:TrackPointExtension>
            <ns3:hr>99</ns3:hr>
            <ns3:cad>0</ns3:cad>
          </ns3:TrackPointExtension>
        </extensions>
      </trkpt>
      <trkpt lat="37.7805154211819171905517578125" lon="-107.702699862420558929443359375">
        <ele>3893</ele>
        <time>2023-07-29T16:50:08.000Z</time>
        <extensions>
          <ns3:TrackPointExtension>
            <ns3:hr>99</ns3:hr>
            <ns3:cad>0</ns3:cad>
          </ns3:TrackPointExtension>
        </extensions>
      </trkpt>
      <trkpt lat="37.7805077098309993743896484375" lon="-107.70269592292606830596923828125">
        <ele>3892.60009765625</ele>
        <time>2023-07-29T16:50:09.000Z</time>
        <extensions>
          <ns3:TrackPointExtension>
            <ns3:hr>99</ns3:hr>
            <ns3:cad>0</ns3:cad>
          </ns3:TrackPointExtension>
        </extensions>
      </trkpt>
      <trkpt lat="37.7805005013942718505859375" lon="-107.70269508473575115203857421875">
        <ele>3892.39990234375</ele>
        <time>2023-07-29T16:50:10.000Z</time>
        <extensions>
          <ns3:TrackPointExtension>
            <ns3:hr>99</ns3:hr>
            <ns3:cad>0</ns3:cad>
          </ns3:TrackPointExtension>
        </extensions>
      </trkpt>
      <trkpt lat="37.78049186803400516510009765625" lon="-107.702692486345767974853515625">
        <ele>3892.199951171875</ele>
        <time>2023-07-29T16:50:11.000Z</time>
        <extensions>
          <ns3:TrackPointExtension>
            <ns3:hr>99</ns3:hr>
            <ns3:cad>0</ns3:cad>
          </ns3:TrackPointExtension>
        </extensions>
      </trkpt>
      <trkpt lat="37.7804879285395145416259765625" lon="-107.70268402062356472015380859375">
        <ele>3892</ele>
        <time>2023-07-29T16:50:12.000Z</time>
        <extensions>
          <ns3:TrackPointExtension>
            <ns3:hr>99</ns3:hr>
            <ns3:cad>55</ns3:cad>
          </ns3:TrackPointExtension>
        </extensions>
      </trkpt>
      <trkpt lat="37.78048080392181873321533203125" lon="-107.70267697982490062713623046875">
        <ele>3891.800048828125</ele>
        <time>2023-07-29T16:50:13.000Z</time>
        <extensions>
          <ns3:TrackPointExtension>
            <ns3:hr>99</ns3:hr>
            <ns3:cad>55</ns3:cad>
          </ns3:TrackPointExtension>
        </extensions>
      </trkpt>
      <trkpt lat="37.78047191910445690155029296875" lon="-107.70267262123525142669677734375">
        <ele>3891.60009765625</ele>
        <time>2023-07-29T16:50:14.000Z</time>
        <extensions>
          <ns3:TrackPointExtension>
            <ns3:hr>99</ns3:hr>
            <ns3:cad>55</ns3:cad>
          </ns3:TrackPointExtension>
        </extensions>
      </trkpt>
      <trkpt lat="37.78046169318258762359619140625" lon="-107.7026681788265705108642578125">
        <ele>3891.39990234375</ele>
        <time>2023-07-29T16:50:15.000Z</time>
        <extensions>
          <ns3:TrackPointExtension>
            <ns3:hr>99</ns3:hr>
            <ns3:cad>55</ns3:cad>
          </ns3:TrackPointExtension>
        </extensions>
      </trkpt>
      <trkpt lat="37.7804575860500335693359375" lon="-107.702665664255619049072265625">
        <ele>3890.800048828125</ele>
        <time>2023-07-29T16:50:16.000Z</time>
        <extensions>
          <ns3:TrackPointExtension>
            <ns3:hr>99</ns3:hr>
            <ns3:cad>55</ns3:cad>
          </ns3:TrackPointExtension>
        </extensions>
      </trkpt>
      <trkpt lat="37.7804520539939403533935546875" lon="-107.70266038365662097930908203125">
        <ele>3890.60009765625</ele>
        <time>2023-07-29T16:50:17.000Z</time>
        <extensions>
          <ns3:TrackPointExtension>
            <ns3:hr>99</ns3:hr>
            <ns3:cad>55</ns3:cad>
          </ns3:TrackPointExtension>
        </extensions>
      </trkpt>
      <trkpt lat="37.78044342063367366790771484375" lon="-107.70265451632440090179443359375">
        <ele>3890.199951171875</ele>
        <time>2023-07-29T16:50:18.000Z</time>
        <extensions>
          <ns3:TrackPointExtension>
            <ns3:hr>98</ns3:hr>
            <ns3:cad>55</ns3:cad>
          </ns3:TrackPointExtension>
        </extensions>
      </trkpt>
      <trkpt lat="37.7804403193295001983642578125" lon="-107.7026500739157199859619140625">
        <ele>3890</ele>
        <time>2023-07-29T16:50:19.000Z</time>
        <extensions>
          <ns3:TrackPointExtension>
            <ns3:hr>98</ns3:hr>
            <ns3:cad>55</ns3:cad>
          </ns3:TrackPointExtension>
        </extensions>
      </trkpt>
      <trkpt lat="37.78043436817824840545654296875" lon="-107.7026463858783245086669921875">
        <ele>3889.60009765625</ele>
        <time>2023-07-29T16:50:20.000Z</time>
        <extensions>
          <ns3:TrackPointExtension>
            <ns3:hr>98</ns3:hr>
            <ns3:cad>55</ns3:cad>
          </ns3:TrackPointExtension>
        </extensions>
      </trkpt>
      <trkpt lat="37.78042732737958431243896484375" lon="-107.702642865478992462158203125">
        <ele>3889.60009765625</ele>
        <time>2023-07-29T16:50:21.000Z</time>
        <extensions>
          <ns3:TrackPointExtension>
            <ns3:hr>98</ns3:hr>
            <ns3:cad>55</ns3:cad>
          </ns3:TrackPointExtension>
        </extensions>
      </trkpt>
      <trkpt lat="37.7804128266870975494384765625" lon="-107.70263808779418468475341796875">
        <ele>3889.199951171875</ele>
        <time>2023-07-29T16:50:22.000Z</time>
        <extensions>
          <ns3:TrackPointExtension>
            <ns3:hr>98</ns3:hr>
            <ns3:cad>55</ns3:cad>
          </ns3:TrackPointExtension>
        </extensions>
      </trkpt>
      <trkpt lat="37.780398912727832794189453125" lon="-107.70263272337615489959716796875">
        <ele>3888.800048828125</ele>
        <time>2023-07-29T16:50:23.000Z</time>
        <extensions>
          <ns3:TrackPointExtension>
            <ns3:hr>98</ns3:hr>
            <ns3:cad>0</ns3:cad>
          </ns3:TrackPointExtension>
        </extensions>
      </trkpt>
      <trkpt lat="37.7803769521415233612060546875" lon="-107.7026252634823322296142578125">
        <ele>3888.60009765625</ele>
        <time>2023-07-29T16:50:24.000Z</time>
        <extensions>
          <ns3:TrackPointExtension>
            <ns3:hr>97</ns3:hr>
            <ns3:cad>0</ns3:cad>
          </ns3:TrackPointExtension>
        </extensions>
      </trkpt>
      <trkpt lat="37.7803521417081356048583984375" lon="-107.7026178874075412750244140625">
        <ele>3888.199951171875</ele>
        <time>2023-07-29T16:50:25.000Z</time>
        <extensions>
          <ns3:TrackPointExtension>
            <ns3:hr>97</ns3:hr>
            <ns3:cad>0</ns3:cad>
          </ns3:TrackPointExtension>
        </extensions>
      </trkpt>
      <trkpt lat="37.780335880815982818603515625" lon="-107.70260087214410305023193359375">
        <ele>3887.800048828125</ele>
        <time>2023-07-29T16:50:26.000Z</time>
        <extensions>
          <ns3:TrackPointExtension>
            <ns3:hr>98</ns3:hr>
            <ns3:cad>0</ns3:cad>
          </ns3:TrackPointExtension>
        </extensions>
      </trkpt>
      <trkpt lat="37.780319117009639739990234375" lon="-107.70259098149836063385009765625">
        <ele>3887.60009765625</ele>
        <time>2023-07-29T16:50:27.000Z</time>
        <extensions>
          <ns3:TrackPointExtension>
            <ns3:hr>98</ns3:hr>
            <ns3:cad>0</ns3:cad>
          </ns3:TrackPointExtension>
        </extensions>
      </trkpt>
      <trkpt lat="37.78030578978359699249267578125" lon="-107.70258360542356967926025390625">
        <ele>3887.199951171875</ele>
        <time>2023-07-29T16:50:28.000Z</time>
        <extensions>
          <ns3:TrackPointExtension>
            <ns3:hr>98</ns3:hr>
            <ns3:cad>0</ns3:cad>
          </ns3:TrackPointExtension>
        </extensions>
      </trkpt>
      <trkpt lat="37.78029137291014194488525390625" lon="-107.702579498291015625">
        <ele>3887</ele>
        <time>2023-07-29T16:50:29.000Z</time>
        <extensions>
          <ns3:TrackPointExtension>
            <ns3:hr>98</ns3:hr>
            <ns3:cad>0</ns3:cad>
          </ns3:TrackPointExtension>
        </extensions>
      </trkpt>
      <trkpt lat="37.7802773751318454742431640625" lon="-107.70257606171071529388427734375">
        <ele>3887</ele>
        <time>2023-07-29T16:50:30.000Z</time>
        <extensions>
          <ns3:TrackPointExtension>
            <ns3:hr>98</ns3:hr>
            <ns3:cad>0</ns3:cad>
          </ns3:TrackPointExtension>
        </extensions>
      </trkpt>
      <trkpt lat="37.780263125896453857421875" lon="-107.702571786940097808837890625">
        <ele>3887</ele>
        <time>2023-07-29T16:50:31.000Z</time>
        <extensions>
          <ns3:TrackPointExtension>
            <ns3:hr>99</ns3:hr>
            <ns3:cad>0</ns3:cad>
          </ns3:TrackPointExtension>
        </extensions>
      </trkpt>
      <trkpt lat="37.78025248087942600250244140625" lon="-107.70257153548300266265869140625">
        <ele>3887.199951171875</ele>
        <time>2023-07-29T16:50:32.000Z</time>
        <extensions>
          <ns3:TrackPointExtension>
            <ns3:hr>99</ns3:hr>
            <ns3:cad>0</ns3:cad>
          </ns3:TrackPointExtension>
        </extensions>
      </trkpt>
      <trkpt lat="37.7802411653101444244384765625" lon="-107.70256952382624149322509765625">
        <ele>3887.199951171875</ele>
        <time>2023-07-29T16:50:33.000Z</time>
        <extensions>
          <ns3:TrackPointExtension>
            <ns3:hr>98</ns3:hr>
            <ns3:cad>0</ns3:cad>
          </ns3:TrackPointExtension>
        </extensions>
      </trkpt>
      <trkpt lat="37.780237309634685516357421875" lon="-107.70257019437849521636962890625">
        <ele>3887.39990234375</ele>
        <time>2023-07-29T16:50:34.000Z</time>
        <extensions>
          <ns3:TrackPointExtension>
            <ns3:hr>98</ns3:hr>
            <ns3:cad>0</ns3:cad>
          </ns3:TrackPointExtension>
        </extensions>
      </trkpt>
      <trkpt lat="37.78022180311381816864013671875" lon="-107.7025674283504486083984375">
        <ele>3887.60009765625</ele>
        <time>2023-07-29T16:50:35.000Z</time>
        <extensions>
          <ns3:TrackPointExtension>
            <ns3:hr>98</ns3:hr>
            <ns3:cad>55</ns3:cad>
          </ns3:TrackPointExtension>
        </extensions>
      </trkpt>
      <trkpt lat="37.78021291829645633697509765625" lon="-107.70256482996046543121337890625">
        <ele>3888</ele>
        <time>2023-07-29T16:50:36.000Z</time>
        <extensions>
          <ns3:TrackPointExtension>
            <ns3:hr>98</ns3:hr>
            <ns3:cad>55</ns3:cad>
          </ns3:TrackPointExtension>
        </extensions>
      </trkpt>
      <trkpt lat="37.78019900433719158172607421875" lon="-107.70255862735211849212646484375">
        <ele>3888</ele>
        <time>2023-07-29T16:50:37.000Z</time>
        <extensions>
          <ns3:TrackPointExtension>
            <ns3:hr>97</ns3:hr>
            <ns3:cad>55</ns3:cad>
          </ns3:TrackPointExtension>
        </extensions>
      </trkpt>
      <trkpt lat="37.78018676675856113433837890625" lon="-107.7025508321821689605712890625">
        <ele>3888</ele>
        <time>2023-07-29T16:50:38.000Z</time>
        <extensions>
          <ns3:TrackPointExtension>
            <ns3:hr>97</ns3:hr>
            <ns3:cad>0</ns3:cad>
          </ns3:TrackPointExtension>
        </extensions>
      </trkpt>
      <trkpt lat="37.78016882948577404022216796875" lon="-107.7025387622416019439697265625">
        <ele>3888.199951171875</ele>
        <time>2023-07-29T16:50:39.000Z</time>
        <extensions>
          <ns3:TrackPointExtension>
            <ns3:hr>97</ns3:hr>
            <ns3:cad>0</ns3:cad>
          </ns3:TrackPointExtension>
        </extensions>
      </trkpt>
      <trkpt lat="37.780158519744873046875" lon="-107.70253197290003299713134765625">
        <ele>3888.199951171875</ele>
        <time>2023-07-29T16:50:40.000Z</time>
        <extensions>
          <ns3:TrackPointExtension>
            <ns3:hr>97</ns3:hr>
            <ns3:cad>0</ns3:cad>
          </ns3:TrackPointExtension>
        </extensions>
      </trkpt>
      <trkpt lat="37.78014452196657657623291015625" lon="-107.70251671783626079559326171875">
        <ele>3888.199951171875</ele>
        <time>2023-07-29T16:50:41.000Z</time>
        <extensions>
          <ns3:TrackPointExtension>
            <ns3:hr>97</ns3:hr>
            <ns3:cad>0</ns3:cad>
          </ns3:TrackPointExtension>
        </extensions>
      </trkpt>
      <trkpt lat="37.78013228438794612884521484375" lon="-107.7025022171437740325927734375">
        <ele>3888.39990234375</ele>
        <time>2023-07-29T16:50:42.000Z</time>
        <extensions>
          <ns3:TrackPointExtension>
            <ns3:hr>97</ns3:hr>
            <ns3:cad>44</ns3:cad>
          </ns3:TrackPointExtension>
        </extensions>
      </trkpt>
      <trkpt lat="37.78011820279061794281005859375" lon="-107.702485956251621246337890625">
        <ele>3888.39990234375</ele>
        <time>2023-07-29T16:50:43.000Z</time>
        <extensions>
          <ns3:TrackPointExtension>
            <ns3:hr>97</ns3:hr>
            <ns3:cad>44</ns3:cad>
          </ns3:TrackPointExtension>
        </extensions>
      </trkpt>
      <trkpt lat="37.78010764159262180328369140625" lon="-107.7024707011878490447998046875">
        <ele>3888.60009765625</ele>
        <time>2023-07-29T16:50:44.000Z</time>
        <extensions>
          <ns3:TrackPointExtension>
            <ns3:hr>97</ns3:hr>
            <ns3:cad>44</ns3:cad>
          </ns3:TrackPointExtension>
        </extensions>
      </trkpt>
      <trkpt lat="37.78009825386106967926025390625" lon="-107.70246122963726520538330078125">
        <ele>3888.60009765625</ele>
        <time>2023-07-29T16:50:45.000Z</time>
        <extensions>
          <ns3:TrackPointExtension>
            <ns3:hr>97</ns3:hr>
            <ns3:cad>44</ns3:cad>
          </ns3:TrackPointExtension>
        </extensions>
      </trkpt>
      <trkpt lat="37.78008551336824893951416015625" lon="-107.7024495787918567657470703125">
        <ele>3888.60009765625</ele>
        <time>2023-07-29T16:50:46.000Z</time>
        <extensions>
          <ns3:TrackPointExtension>
            <ns3:hr>97</ns3:hr>
            <ns3:cad>44</ns3:cad>
          </ns3:TrackPointExtension>
        </extensions>
      </trkpt>
      <trkpt lat="37.7800708450376987457275390625" lon="-107.70244077779352664947509765625">
        <ele>3888.60009765625</ele>
        <time>2023-07-29T16:50:47.000Z</time>
        <extensions>
          <ns3:TrackPointExtension>
            <ns3:hr>97</ns3:hr>
            <ns3:cad>44</ns3:cad>
          </ns3:TrackPointExtension>
        </extensions>
      </trkpt>
      <trkpt lat="37.78005785308778285980224609375" lon="-107.702433653175830841064453125">
        <ele>3888.800048828125</ele>
        <time>2023-07-29T16:50:48.000Z</time>
        <extensions>
          <ns3:TrackPointExtension>
            <ns3:hr>97</ns3:hr>
            <ns3:cad>57</ns3:cad>
          </ns3:TrackPointExtension>
        </extensions>
      </trkpt>
      <trkpt lat="37.78004779480397701263427734375" lon="-107.70242862403392791748046875">
        <ele>3888.800048828125</ele>
        <time>2023-07-29T16:50:49.000Z</time>
        <extensions>
          <ns3:TrackPointExtension>
            <ns3:hr>97</ns3:hr>
            <ns3:cad>57</ns3:cad>
          </ns3:TrackPointExtension>
        </extensions>
      </trkpt>
      <trkpt lat="37.78003321029245853424072265625" lon="-107.70242057740688323974609375">
        <ele>3888.800048828125</ele>
        <time>2023-07-29T16:50:50.000Z</time>
        <extensions>
          <ns3:TrackPointExtension>
            <ns3:hr>97</ns3:hr>
            <ns3:cad>57</ns3:cad>
          </ns3:TrackPointExtension>
        </extensions>
      </trkpt>
      <trkpt lat="37.7800239063799381256103515625" lon="-107.70241680555045604705810546875">
        <ele>3888.800048828125</ele>
        <time>2023-07-29T16:50:51.000Z</time>
        <extensions>
          <ns3:TrackPointExtension>
            <ns3:hr>97</ns3:hr>
            <ns3:cad>57</ns3:cad>
          </ns3:TrackPointExtension>
        </extensions>
      </trkpt>
      <trkpt lat="37.78000890277326107025146484375" lon="-107.7024086751043796539306640625">
        <ele>3889</ele>
        <time>2023-07-29T16:50:52.000Z</time>
        <extensions>
          <ns3:TrackPointExtension>
            <ns3:hr>96</ns3:hr>
            <ns3:cad>57</ns3:cad>
          </ns3:TrackPointExtension>
        </extensions>
      </trkpt>
      <trkpt lat="37.78000387363135814666748046875" lon="-107.7024063281714916229248046875">
        <ele>3889</ele>
        <time>2023-07-29T16:50:53.000Z</time>
        <extensions>
          <ns3:TrackPointExtension>
            <ns3:hr>96</ns3:hr>
            <ns3:cad>57</ns3:cad>
          </ns3:TrackPointExtension>
        </extensions>
      </trkpt>
      <trkpt lat="37.77999297715723514556884765625" lon="-107.7023996226489543914794921875">
        <ele>3889</ele>
        <time>2023-07-29T16:50:54.000Z</time>
        <extensions>
          <ns3:TrackPointExtension>
            <ns3:hr>96</ns3:hr>
            <ns3:cad>57</ns3:cad>
          </ns3:TrackPointExtension>
        </extensions>
      </trkpt>
      <trkpt lat="37.779984176158905029296875" lon="-107.70239434204995632171630859375">
        <ele>3889</ele>
        <time>2023-07-29T16:50:55.000Z</time>
        <extensions>
          <ns3:TrackPointExtension>
            <ns3:hr>95</ns3:hr>
            <ns3:cad>57</ns3:cad>
          </ns3:TrackPointExtension>
        </extensions>
      </trkpt>
      <trkpt lat="37.7799732796847820281982421875" lon="-107.70239115692675113677978515625">
        <ele>3889.39990234375</ele>
        <time>2023-07-29T16:50:56.000Z</time>
        <extensions>
          <ns3:TrackPointExtension>
            <ns3:hr>95</ns3:hr>
            <ns3:cad>57</ns3:cad>
          </ns3:TrackPointExtension>
        </extensions>
      </trkpt>
      <trkpt lat="37.779957354068756103515625" lon="-107.70238612778484821319580078125">
        <ele>3889.39990234375</ele>
        <time>2023-07-29T16:50:57.000Z</time>
        <extensions>
          <ns3:TrackPointExtension>
            <ns3:hr>95</ns3:hr>
            <ns3:cad>57</ns3:cad>
          </ns3:TrackPointExtension>
        </extensions>
      </trkpt>
      <trkpt lat="37.77994838543236255645751953125" lon="-107.70238126628100872039794921875">
        <ele>3889.60009765625</ele>
        <time>2023-07-29T16:50:58.000Z</time>
        <extensions>
          <ns3:TrackPointExtension>
            <ns3:hr>96</ns3:hr>
            <ns3:cad>57</ns3:cad>
          </ns3:TrackPointExtension>
        </extensions>
      </trkpt>
      <trkpt lat="37.77993514202535152435302734375" lon="-107.70237221382558345794677734375">
        <ele>3889.800048828125</ele>
        <time>2023-07-29T16:50:59.000Z</time>
        <extensions>
          <ns3:TrackPointExtension>
            <ns3:hr>96</ns3:hr>
            <ns3:cad>57</ns3:cad>
          </ns3:TrackPointExtension>
        </extensions>
      </trkpt>
      <trkpt lat="37.77992860414087772369384765625" lon="-107.70236886106431484222412109375">
        <ele>3890</ele>
        <time>2023-07-29T16:51:00.000Z</time>
        <extensions>
          <ns3:TrackPointExtension>
            <ns3:hr>97</ns3:hr>
            <ns3:cad>57</ns3:cad>
          </ns3:TrackPointExtension>
        </extensions>
      </trkpt>
      <trkpt lat="37.7799166180193424224853515625" lon="-107.7023580484092235565185546875">
        <ele>3890.199951171875</ele>
        <time>2023-07-29T16:51:01.000Z</time>
        <extensions>
          <ns3:TrackPointExtension>
            <ns3:hr>99</ns3:hr>
            <ns3:cad>50</ns3:cad>
          </ns3:TrackPointExtension>
        </extensions>
      </trkpt>
      <trkpt lat="37.779907397925853729248046875" lon="-107.70234882831573486328125">
        <ele>3890.39990234375</ele>
        <time>2023-07-29T16:51:02.000Z</time>
        <extensions>
          <ns3:TrackPointExtension>
            <ns3:hr>100</ns3:hr>
            <ns3:cad>50</ns3:cad>
          </ns3:TrackPointExtension>
        </extensions>
      </trkpt>
      <trkpt lat="37.77989943511784076690673828125" lon="-107.70234120078384876251220703125">
        <ele>3890.39990234375</ele>
        <time>2023-07-29T16:51:03.000Z</time>
        <extensions>
          <ns3:TrackPointExtension>
            <ns3:hr>102</ns3:hr>
            <ns3:cad>50</ns3:cad>
          </ns3:TrackPointExtension>
        </extensions>
      </trkpt>
      <trkpt lat="37.77988619171082973480224609375" lon="-107.702327705919742584228515625">
        <ele>3890.60009765625</ele>
        <time>2023-07-29T16:51:04.000Z</time>
        <extensions>
          <ns3:TrackPointExtension>
            <ns3:hr>103</ns3:hr>
            <ns3:cad>50</ns3:cad>
          </ns3:TrackPointExtension>
        </extensions>
      </trkpt>
      <trkpt lat="37.7798783965408802032470703125" lon="-107.70231940783560276031494140625">
        <ele>3890.800048828125</ele>
        <time>2023-07-29T16:51:05.000Z</time>
        <extensions>
          <ns3:TrackPointExtension>
            <ns3:hr>105</ns3:hr>
            <ns3:cad>50</ns3:cad>
          </ns3:TrackPointExtension>
        </extensions>
      </trkpt>
      <trkpt lat="37.77986775152385234832763671875" lon="-107.7023067511618137359619140625">
        <ele>3891</ele>
        <time>2023-07-29T16:51:06.000Z</time>
        <extensions>
          <ns3:TrackPointExtension>
            <ns3:hr>106</ns3:hr>
            <ns3:cad>50</ns3:cad>
          </ns3:TrackPointExtension>
        </extensions>
      </trkpt>
      <trkpt lat="37.77986154891550540924072265625" lon="-107.702300213277339935302734375">
        <ele>3891</ele>
        <time>2023-07-29T16:51:07.000Z</time>
        <extensions>
          <ns3:TrackPointExtension>
            <ns3:hr>107</ns3:hr>
            <ns3:cad>50</ns3:cad>
          </ns3:TrackPointExtension>
        </extensions>
      </trkpt>
      <trkpt lat="37.77985073626041412353515625" lon="-107.70228873006999492645263671875">
        <ele>3891</ele>
        <time>2023-07-29T16:51:08.000Z</time>
        <extensions>
          <ns3:TrackPointExtension>
            <ns3:hr>107</ns3:hr>
            <ns3:cad>50</ns3:cad>
          </ns3:TrackPointExtension>
        </extensions>
      </trkpt>
      <trkpt lat="37.77983841486275196075439453125" lon="-107.7022762410342693328857421875">
        <ele>3891.199951171875</ele>
        <time>2023-07-29T16:51:09.000Z</time>
        <extensions>
          <ns3:TrackPointExtension>
            <ns3:hr>108</ns3:hr>
            <ns3:cad>50</ns3:cad>
          </ns3:TrackPointExtension>
        </extensions>
      </trkpt>
      <trkpt lat="37.779828608036041259765625" lon="-107.70226593129336833953857421875">
        <ele>3891.39990234375</ele>
        <time>2023-07-29T16:51:10.000Z</time>
        <extensions>
          <ns3:TrackPointExtension>
            <ns3:hr>109</ns3:hr>
            <ns3:cad>50</ns3:cad>
          </ns3:TrackPointExtension>
        </extensions>
      </trkpt>
      <trkpt lat="37.77982265688478946685791015625" lon="-107.7022589743137359619140625">
        <ele>3891.39990234375</ele>
        <time>2023-07-29T16:51:11.000Z</time>
        <extensions>
          <ns3:TrackPointExtension>
            <ns3:hr>110</ns3:hr>
            <ns3:cad>50</ns3:cad>
          </ns3:TrackPointExtension>
        </extensions>
      </trkpt>
      <trkpt lat="37.779817543923854827880859375" lon="-107.70225335843861103057861328125">
        <ele>3891.60009765625</ele>
        <time>2023-07-29T16:51:12.000Z</time>
        <extensions>
          <ns3:TrackPointExtension>
            <ns3:hr>111</ns3:hr>
            <ns3:cad>50</ns3:cad>
          </ns3:TrackPointExtension>
        </extensions>
      </trkpt>
      <trkpt lat="37.7798073180019855499267578125" lon="-107.70224011503159999847412109375">
        <ele>3891.800048828125</ele>
        <time>2023-07-29T16:51:13.000Z</time>
        <extensions>
          <ns3:TrackPointExtension>
            <ns3:hr>112</ns3:hr>
            <ns3:cad>50</ns3:cad>
          </ns3:TrackPointExtension>
        </extensions>
      </trkpt>
      <trkpt lat="37.77979767881333827972412109375" lon="-107.702232487499713897705078125">
        <ele>3892</ele>
        <time>2023-07-29T16:51:14.000Z</time>
        <extensions>
          <ns3:TrackPointExtension>
            <ns3:hr>112</ns3:hr>
            <ns3:cad>50</ns3:cad>
          </ns3:TrackPointExtension>
        </extensions>
      </trkpt>
      <trkpt lat="37.77978477068245410919189453125" lon="-107.70222821272909641265869140625">
        <ele>3892.199951171875</ele>
        <time>2023-07-29T16:51:15.000Z</time>
        <extensions>
          <ns3:TrackPointExtension>
            <ns3:hr>113</ns3:hr>
            <ns3:cad>49</ns3:cad>
          </ns3:TrackPointExtension>
        </extensions>
      </trkpt>
      <trkpt lat="37.77977622114121913909912109375" lon="-107.7022222615778446197509765625">
        <ele>3892.199951171875</ele>
        <time>2023-07-29T16:51:16.000Z</time>
        <extensions>
          <ns3:TrackPointExtension>
            <ns3:hr>113</ns3:hr>
            <ns3:cad>49</ns3:cad>
          </ns3:TrackPointExtension>
        </extensions>
      </trkpt>
      <trkpt lat="37.77976482175290584564208984375" lon="-107.7022148855030536651611328125">
        <ele>3892.199951171875</ele>
        <time>2023-07-29T16:51:17.000Z</time>
        <extensions>
          <ns3:TrackPointExtension>
            <ns3:hr>114</ns3:hr>
            <ns3:cad>49</ns3:cad>
          </ns3:TrackPointExtension>
        </extensions>
      </trkpt>
      <trkpt lat="37.779757864773273468017578125" lon="-107.702200971543788909912109375">
        <ele>3892.199951171875</ele>
        <time>2023-07-29T16:51:18.000Z</time>
        <extensions>
          <ns3:TrackPointExtension>
            <ns3:hr>115</ns3:hr>
            <ns3:cad>0</ns3:cad>
          </ns3:TrackPointExtension>
        </extensions>
      </trkpt>
      <trkpt lat="37.77975409291684627532958984375" lon="-107.702192924916744232177734375">
        <ele>3892.39990234375</ele>
        <time>2023-07-29T16:51:19.000Z</time>
        <extensions>
          <ns3:TrackPointExtension>
            <ns3:hr>116</ns3:hr>
            <ns3:cad>0</ns3:cad>
          </ns3:TrackPointExtension>
        </extensions>
      </trkpt>
      <trkpt lat="37.779750823974609375" lon="-107.70218932069838047027587890625">
        <ele>3892.39990234375</ele>
        <time>2023-07-29T16:51:20.000Z</time>
        <extensions>
          <ns3:TrackPointExtension>
            <ns3:hr>120</ns3:hr>
            <ns3:cad>0</ns3:cad>
          </ns3:TrackPointExtension>
        </extensions>
      </trkpt>
      <trkpt lat="37.77974654920399188995361328125" lon="-107.7021825313568115234375">
        <ele>3892.39990234375</ele>
        <time>2023-07-29T16:51:21.000Z</time>
        <extensions>
          <ns3:TrackPointExtension>
            <ns3:hr>121</ns3:hr>
            <ns3:cad>0</ns3:cad>
          </ns3:TrackPointExtension>
        </extensions>
      </trkpt>
      <trkpt lat="37.77973799966275691986083984375" lon="-107.7021736465394496917724609375">
        <ele>3892.60009765625</ele>
        <time>2023-07-29T16:51:22.000Z</time>
        <extensions>
          <ns3:TrackPointExtension>
            <ns3:hr>122</ns3:hr>
            <ns3:cad>0</ns3:cad>
          </ns3:TrackPointExtension>
        </extensions>
      </trkpt>
      <trkpt lat="37.77972676791250705718994140625" lon="-107.7021635882556438446044921875">
        <ele>3892.39990234375</ele>
        <time>2023-07-29T16:51:23.000Z</time>
        <extensions>
          <ns3:TrackPointExtension>
            <ns3:hr>125</ns3:hr>
            <ns3:cad>0</ns3:cad>
          </ns3:TrackPointExtension>
        </extensions>
      </trkpt>
      <trkpt lat="37.7797211520373821258544921875" lon="-107.7021592296659946441650390625">
        <ele>3892.39990234375</ele>
        <time>2023-07-29T16:51:24.000Z</time>
        <extensions>
          <ns3:TrackPointExtension>
            <ns3:hr>127</ns3:hr>
            <ns3:cad>0</ns3:cad>
          </ns3:TrackPointExtension>
        </extensions>
      </trkpt>
      <trkpt lat="37.77971201576292514801025390625" lon="-107.70215461961925029754638671875">
        <ele>3892.39990234375</ele>
        <time>2023-07-29T16:51:25.000Z</time>
        <extensions>
          <ns3:TrackPointExtension>
            <ns3:hr>129</ns3:hr>
            <ns3:cad>0</ns3:cad>
          </ns3:TrackPointExtension>
        </extensions>
      </trkpt>
      <trkpt lat="37.77970463968813419342041015625" lon="-107.70215260796248912811279296875">
        <ele>3892.39990234375</ele>
        <time>2023-07-29T16:51:26.000Z</time>
        <extensions>
          <ns3:TrackPointExtension>
            <ns3:hr>129</ns3:hr>
            <ns3:cad>51</ns3:cad>
          </ns3:TrackPointExtension>
        </extensions>
      </trkpt>
      <trkpt lat="37.7796896360814571380615234375" lon="-107.70214556716382503509521484375">
        <ele>3892.39990234375</ele>
        <time>2023-07-29T16:51:27.000Z</time>
        <extensions>
          <ns3:TrackPointExtension>
            <ns3:hr>129</ns3:hr>
            <ns3:cad>51</ns3:cad>
          </ns3:TrackPointExtension>
        </extensions>
      </trkpt>
      <trkpt lat="37.77967647649347782135009765625" lon="-107.7021394483745098114013671875">
        <ele>3892.39990234375</ele>
        <time>2023-07-29T16:51:28.000Z</time>
        <extensions>
          <ns3:TrackPointExtension>
            <ns3:hr>130</ns3:hr>
            <ns3:cad>51</ns3:cad>
          </ns3:TrackPointExtension>
        </extensions>
      </trkpt>
      <trkpt lat="37.77966474182903766632080078125" lon="-107.7021307311952114105224609375">
        <ele>3892.39990234375</ele>
        <time>2023-07-29T16:51:29.000Z</time>
        <extensions>
          <ns3:TrackPointExtension>
            <ns3:hr>129</ns3:hr>
            <ns3:cad>51</ns3:cad>
          </ns3:TrackPointExtension>
        </extensions>
      </trkpt>
      <trkpt lat="37.77965501882135868072509765625" lon="-107.70212075673043727874755859375">
        <ele>3892.199951171875</ele>
        <time>2023-07-29T16:51:30.000Z</time>
        <extensions>
          <ns3:TrackPointExtension>
            <ns3:hr>129</ns3:hr>
            <ns3:cad>51</ns3:cad>
          </ns3:TrackPointExtension>
        </extensions>
      </trkpt>
      <trkpt lat="37.779640853404998779296875" lon="-107.70210701040923595428466796875">
        <ele>3892.199951171875</ele>
        <time>2023-07-29T16:51:31.000Z</time>
        <extensions>
          <ns3:TrackPointExtension>
            <ns3:hr>128</ns3:hr>
            <ns3:cad>51</ns3:cad>
          </ns3:TrackPointExtension>
        </extensions>
      </trkpt>
      <trkpt lat="37.7796279452741146087646484375" lon="-107.70209158770740032196044921875">
        <ele>3892.199951171875</ele>
        <time>2023-07-29T16:51:32.000Z</time>
        <extensions>
          <ns3:TrackPointExtension>
            <ns3:hr>128</ns3:hr>
            <ns3:cad>51</ns3:cad>
          </ns3:TrackPointExtension>
        </extensions>
      </trkpt>
      <trkpt lat="37.779621742665767669677734375" lon="-107.70208287052810192108154296875">
        <ele>3892.199951171875</ele>
        <time>2023-07-29T16:51:33.000Z</time>
        <extensions>
          <ns3:TrackPointExtension>
            <ns3:hr>127</ns3:hr>
            <ns3:cad>51</ns3:cad>
          </ns3:TrackPointExtension>
        </extensions>
      </trkpt>
      <trkpt lat="37.7796126902103424072265625" lon="-107.70206652581691741943359375">
        <ele>3892</ele>
        <time>2023-07-29T16:51:34.000Z</time>
        <extensions>
          <ns3:TrackPointExtension>
            <ns3:hr>127</ns3:hr>
            <ns3:cad>51</ns3:cad>
          </ns3:TrackPointExtension>
        </extensions>
      </trkpt>
      <trkpt lat="37.7796078287065029144287109375" lon="-107.7020537853240966796875">
        <ele>3892</ele>
        <time>2023-07-29T16:51:35.000Z</time>
        <extensions>
          <ns3:TrackPointExtension>
            <ns3:hr>127</ns3:hr>
            <ns3:cad>51</ns3:cad>
          </ns3:TrackPointExtension>
        </extensions>
      </trkpt>
      <trkpt lat="37.77960388921201229095458984375" lon="-107.70204297266900539398193359375">
        <ele>3892</ele>
        <time>2023-07-29T16:51:36.000Z</time>
        <extensions>
          <ns3:TrackPointExtension>
            <ns3:hr>127</ns3:hr>
            <ns3:cad>51</ns3:cad>
          </ns3:TrackPointExtension>
        </extensions>
      </trkpt>
      <trkpt lat="37.77959651313722133636474609375" lon="-107.70203358493745326995849609375">
        <ele>3892</ele>
        <time>2023-07-29T16:51:37.000Z</time>
        <extensions>
          <ns3:TrackPointExtension>
            <ns3:hr>127</ns3:hr>
            <ns3:cad>0</ns3:cad>
          </ns3:TrackPointExtension>
        </extensions>
      </trkpt>
      <trkpt lat="37.77958829887211322784423828125" lon="-107.70203324966132640838623046875">
        <ele>3892</ele>
        <time>2023-07-29T16:51:38.000Z</time>
        <extensions>
          <ns3:TrackPointExtension>
            <ns3:hr>127</ns3:hr>
            <ns3:cad>0</ns3:cad>
          </ns3:TrackPointExtension>
        </extensions>
      </trkpt>
      <trkpt lat="37.77958142571151256561279296875" lon="-107.70202654413878917694091796875">
        <ele>3892</ele>
        <time>2023-07-29T16:51:39.000Z</time>
        <extensions>
          <ns3:TrackPointExtension>
            <ns3:hr>127</ns3:hr>
            <ns3:cad>0</ns3:cad>
          </ns3:TrackPointExtension>
        </extensions>
      </trkpt>
      <trkpt lat="37.77956985868513584136962890625" lon="-107.7020157314836978912353515625">
        <ele>3892</ele>
        <time>2023-07-29T16:51:40.000Z</time>
        <extensions>
          <ns3:TrackPointExtension>
            <ns3:hr>127</ns3:hr>
            <ns3:cad>0</ns3:cad>
          </ns3:TrackPointExtension>
        </extensions>
      </trkpt>
      <trkpt lat="37.77955971658229827880859375" lon="-107.7020066790282726287841796875">
        <ele>3892</ele>
        <time>2023-07-29T16:51:41.000Z</time>
        <extensions>
          <ns3:TrackPointExtension>
            <ns3:hr>127</ns3:hr>
            <ns3:cad>0</ns3:cad>
          </ns3:TrackPointExtension>
        </extensions>
      </trkpt>
      <trkpt lat="37.77954789809882640838623046875" lon="-107.70199544727802276611328125">
        <ele>3892</ele>
        <time>2023-07-29T16:51:42.000Z</time>
        <extensions>
          <ns3:TrackPointExtension>
            <ns3:hr>127</ns3:hr>
            <ns3:cad>0</ns3:cad>
          </ns3:TrackPointExtension>
        </extensions>
      </trkpt>
      <trkpt lat="37.77953825891017913818359375" lon="-107.7019875682890415191650390625">
        <ele>3892</ele>
        <time>2023-07-29T16:51:43.000Z</time>
        <extensions>
          <ns3:TrackPointExtension>
            <ns3:hr>126</ns3:hr>
            <ns3:cad>0</ns3:cad>
          </ns3:TrackPointExtension>
        </extensions>
      </trkpt>
      <trkpt lat="37.779533229768276214599609375" lon="-107.7019771747291088104248046875">
        <ele>3892.199951171875</ele>
        <time>2023-07-29T16:51:44.000Z</time>
        <extensions>
          <ns3:TrackPointExtension>
            <ns3:hr>126</ns3:hr>
            <ns3:cad>0</ns3:cad>
          </ns3:TrackPointExtension>
        </extensions>
      </trkpt>
      <trkpt lat="37.77951839379966259002685546875" lon="-107.70196116529405117034912109375">
        <ele>3892.39990234375</ele>
        <time>2023-07-29T16:51:45.000Z</time>
        <extensions>
          <ns3:TrackPointExtension>
            <ns3:hr>126</ns3:hr>
            <ns3:cad>0</ns3:cad>
          </ns3:TrackPointExtension>
        </extensions>
      </trkpt>
      <trkpt lat="37.77950749732553958892822265625" lon="-107.7019503526389598846435546875">
        <ele>3892.39990234375</ele>
        <time>2023-07-29T16:51:46.000Z</time>
        <extensions>
          <ns3:TrackPointExtension>
            <ns3:hr>126</ns3:hr>
            <ns3:cad>0</ns3:cad>
          </ns3:TrackPointExtension>
        </extensions>
      </trkpt>
      <trkpt lat="37.7794955112040042877197265625" lon="-107.7019382826983928680419921875">
        <ele>3892.39990234375</ele>
        <time>2023-07-29T16:51:47.000Z</time>
        <extensions>
          <ns3:TrackPointExtension>
            <ns3:hr>127</ns3:hr>
            <ns3:cad>0</ns3:cad>
          </ns3:TrackPointExtension>
        </extensions>
      </trkpt>
      <trkpt lat="37.77948587201535701751708984375" lon="-107.70193040370941162109375">
        <ele>3892.39990234375</ele>
        <time>2023-07-29T16:51:48.000Z</time>
        <extensions>
          <ns3:TrackPointExtension>
            <ns3:hr>127</ns3:hr>
            <ns3:cad>0</ns3:cad>
          </ns3:TrackPointExtension>
        </extensions>
      </trkpt>
      <trkpt lat="37.77947950176894664764404296875" lon="-107.7019185014069080352783203125">
        <ele>3892.60009765625</ele>
        <time>2023-07-29T16:51:49.000Z</time>
        <extensions>
          <ns3:TrackPointExtension>
            <ns3:hr>127</ns3:hr>
            <ns3:cad>0</ns3:cad>
          </ns3:TrackPointExtension>
        </extensions>
      </trkpt>
      <trkpt lat="37.77947816066443920135498046875" lon="-107.70190869458019733428955078125">
        <ele>3892.800048828125</ele>
        <time>2023-07-29T16:51:50.000Z</time>
        <extensions>
          <ns3:TrackPointExtension>
            <ns3:hr>127</ns3:hr>
            <ns3:cad>0</ns3:cad>
          </ns3:TrackPointExtension>
        </extensions>
      </trkpt>
      <trkpt lat="37.77947447262704372406005859375" lon="-107.701905257999897003173828125">
        <ele>3892.800048828125</ele>
        <time>2023-07-29T16:51:51.000Z</time>
        <extensions>
          <ns3:TrackPointExtension>
            <ns3:hr>127</ns3:hr>
            <ns3:cad>0</ns3:cad>
          </ns3:TrackPointExtension>
        </extensions>
      </trkpt>
      <trkpt lat="37.77946642599999904632568359375" lon="-107.701891176402568817138671875">
        <ele>3893</ele>
        <time>2023-07-29T16:51:52.000Z</time>
        <extensions>
          <ns3:TrackPointExtension>
            <ns3:hr>127</ns3:hr>
            <ns3:cad>0</ns3:cad>
          </ns3:TrackPointExtension>
        </extensions>
      </trkpt>
      <trkpt lat="37.7794613130390644073486328125" lon="-107.7018866501748561859130859375">
        <ele>3893.39990234375</ele>
        <time>2023-07-29T16:51:53.000Z</time>
        <extensions>
          <ns3:TrackPointExtension>
            <ns3:hr>126</ns3:hr>
            <ns3:cad>0</ns3:cad>
          </ns3:TrackPointExtension>
        </extensions>
      </trkpt>
      <trkpt lat="37.77945511043071746826171875" lon="-107.70187885500490665435791015625">
        <ele>3893.60009765625</ele>
        <time>2023-07-29T16:51:54.000Z</time>
        <extensions>
          <ns3:TrackPointExtension>
            <ns3:hr>126</ns3:hr>
            <ns3:cad>0</ns3:cad>
          </ns3:TrackPointExtension>
        </extensions>
      </trkpt>
      <trkpt lat="37.7794455550611019134521484375" lon="-107.7018695510923862457275390625">
        <ele>3893.60009765625</ele>
        <time>2023-07-29T16:51:55.000Z</time>
        <extensions>
          <ns3:TrackPointExtension>
            <ns3:hr>126</ns3:hr>
            <ns3:cad>0</ns3:cad>
          </ns3:TrackPointExtension>
        </extensions>
      </trkpt>
      <trkpt lat="37.77944169938564300537109375" lon="-107.701865024864673614501953125">
        <ele>3893.800048828125</ele>
        <time>2023-07-29T16:51:56.000Z</time>
        <extensions>
          <ns3:TrackPointExtension>
            <ns3:hr>126</ns3:hr>
            <ns3:cad>0</ns3:cad>
          </ns3:TrackPointExtension>
        </extensions>
      </trkpt>
      <trkpt lat="37.7794308029115200042724609375" lon="-107.70185505039989948272705078125">
        <ele>3894</ele>
        <time>2023-07-29T16:51:57.000Z</time>
        <extensions>
          <ns3:TrackPointExtension>
            <ns3:hr>127</ns3:hr>
            <ns3:cad>0</ns3:cad>
          </ns3:TrackPointExtension>
        </extensions>
      </trkpt>
      <trkpt lat="37.7794261090457439422607421875" lon="-107.7018512785434722900390625">
        <ele>3894.39990234375</ele>
        <time>2023-07-29T16:51:58.000Z</time>
        <extensions>
          <ns3:TrackPointExtension>
            <ns3:hr>127</ns3:hr>
            <ns3:cad>0</ns3:cad>
          </ns3:TrackPointExtension>
        </extensions>
      </trkpt>
      <trkpt lat="37.77941948734223842620849609375" lon="-107.70184448920190334320068359375">
        <ele>3894.39990234375</ele>
        <time>2023-07-29T16:51:59.000Z</time>
        <extensions>
          <ns3:TrackPointExtension>
            <ns3:hr>128</ns3:hr>
            <ns3:cad>0</ns3:cad>
          </ns3:TrackPointExtension>
        </extensions>
      </trkpt>
      <trkpt lat="37.77940951287746429443359375" lon="-107.7018387056887149810791015625">
        <ele>3894.60009765625</ele>
        <time>2023-07-29T16:52:00.000Z</time>
        <extensions>
          <ns3:TrackPointExtension>
            <ns3:hr>128</ns3:hr>
            <ns3:cad>0</ns3:cad>
          </ns3:TrackPointExtension>
        </extensions>
      </trkpt>
      <trkpt lat="37.77939652092754840850830078125" lon="-107.7018298208713531494140625">
        <ele>3894.800048828125</ele>
        <time>2023-07-29T16:52:01.000Z</time>
        <extensions>
          <ns3:TrackPointExtension>
            <ns3:hr>128</ns3:hr>
            <ns3:cad>0</ns3:cad>
          </ns3:TrackPointExtension>
        </extensions>
      </trkpt>
      <trkpt lat="37.77938663028180599212646484375" lon="-107.7018226124346256256103515625">
        <ele>3894.800048828125</ele>
        <time>2023-07-29T16:52:02.000Z</time>
        <extensions>
          <ns3:TrackPointExtension>
            <ns3:hr>128</ns3:hr>
            <ns3:cad>0</ns3:cad>
          </ns3:TrackPointExtension>
        </extensions>
      </trkpt>
      <trkpt lat="37.77937640435993671417236328125" lon="-107.70181431435048580169677734375">
        <ele>3895.199951171875</ele>
        <time>2023-07-29T16:52:03.000Z</time>
        <extensions>
          <ns3:TrackPointExtension>
            <ns3:hr>128</ns3:hr>
            <ns3:cad>0</ns3:cad>
          </ns3:TrackPointExtension>
        </extensions>
      </trkpt>
      <trkpt lat="37.77936584316194057464599609375" lon="-107.70180727355182170867919921875">
        <ele>3895.199951171875</ele>
        <time>2023-07-29T16:52:04.000Z</time>
        <extensions>
          <ns3:TrackPointExtension>
            <ns3:hr>128</ns3:hr>
            <ns3:cad>0</ns3:cad>
          </ns3:TrackPointExtension>
        </extensions>
      </trkpt>
      <trkpt lat="37.77935930527746677398681640625" lon="-107.70180241204798221588134765625">
        <ele>3895.60009765625</ele>
        <time>2023-07-29T16:52:05.000Z</time>
        <extensions>
          <ns3:TrackPointExtension>
            <ns3:hr>128</ns3:hr>
            <ns3:cad>0</ns3:cad>
          </ns3:TrackPointExtension>
        </extensions>
      </trkpt>
      <trkpt lat="37.77935461141169071197509765625" lon="-107.7017991431057453155517578125">
        <ele>3895.800048828125</ele>
        <time>2023-07-29T16:52:06.000Z</time>
        <extensions>
          <ns3:TrackPointExtension>
            <ns3:hr>128</ns3:hr>
            <ns3:cad>0</ns3:cad>
          </ns3:TrackPointExtension>
        </extensions>
      </trkpt>
      <trkpt lat="37.77935192920267581939697265625" lon="-107.7017981372773647308349609375">
        <ele>3896</ele>
        <time>2023-07-29T16:52:07.000Z</time>
        <extensions>
          <ns3:TrackPointExtension>
            <ns3:hr>128</ns3:hr>
            <ns3:cad>0</ns3:cad>
          </ns3:TrackPointExtension>
        </extensions>
      </trkpt>
      <trkpt lat="37.77934690006077289581298828125" lon="-107.7017931081354618072509765625">
        <ele>3896</ele>
        <time>2023-07-29T16:52:08.000Z</time>
        <extensions>
          <ns3:TrackPointExtension>
            <ns3:hr>129</ns3:hr>
            <ns3:cad>0</ns3:cad>
          </ns3:TrackPointExtension>
        </extensions>
      </trkpt>
      <trkpt lat="37.77934304438531398773193359375" lon="-107.70178950391709804534912109375">
        <ele>3896.199951171875</ele>
        <time>2023-07-29T16:52:09.000Z</time>
        <extensions>
          <ns3:TrackPointExtension>
            <ns3:hr>129</ns3:hr>
            <ns3:cad>0</ns3:cad>
          </ns3:TrackPointExtension>
        </extensions>
      </trkpt>
      <trkpt lat="37.7793349139392375946044921875" lon="-107.70178095437586307525634765625">
        <ele>3896.199951171875</ele>
        <time>2023-07-29T16:52:10.000Z</time>
        <extensions>
          <ns3:TrackPointExtension>
            <ns3:hr>130</ns3:hr>
            <ns3:cad>0</ns3:cad>
          </ns3:TrackPointExtension>
        </extensions>
      </trkpt>
      <trkpt lat="37.77933198027312755584716796875" lon="-107.701774500310420989990234375">
        <ele>3896.39990234375</ele>
        <time>2023-07-29T16:52:11.000Z</time>
        <extensions>
          <ns3:TrackPointExtension>
            <ns3:hr>130</ns3:hr>
            <ns3:cad>0</ns3:cad>
          </ns3:TrackPointExtension>
        </extensions>
      </trkpt>
      <trkpt lat="37.77932611294090747833251953125" lon="-107.70176502875983715057373046875">
        <ele>3896.60009765625</ele>
        <time>2023-07-29T16:52:12.000Z</time>
        <extensions>
          <ns3:TrackPointExtension>
            <ns3:hr>131</ns3:hr>
            <ns3:cad>0</ns3:cad>
          </ns3:TrackPointExtension>
        </extensions>
      </trkpt>
      <trkpt lat="37.7793211676180362701416015625" lon="-107.70176075398921966552734375">
        <ele>3896.60009765625</ele>
        <time>2023-07-29T16:52:13.000Z</time>
        <extensions>
          <ns3:TrackPointExtension>
            <ns3:hr>131</ns3:hr>
            <ns3:cad>57</ns3:cad>
          </ns3:TrackPointExtension>
        </extensions>
      </trkpt>
      <trkpt lat="37.77931404300034046173095703125" lon="-107.70175396464765071868896484375">
        <ele>3897</ele>
        <time>2023-07-29T16:52:14.000Z</time>
        <extensions>
          <ns3:TrackPointExtension>
            <ns3:hr>131</ns3:hr>
            <ns3:cad>57</ns3:cad>
          </ns3:TrackPointExtension>
        </extensions>
      </trkpt>
      <trkpt lat="37.779303230345249176025390625" lon="-107.7017466723918914794921875">
        <ele>3897</ele>
        <time>2023-07-29T16:52:15.000Z</time>
        <extensions>
          <ns3:TrackPointExtension>
            <ns3:hr>131</ns3:hr>
            <ns3:cad>57</ns3:cad>
          </ns3:TrackPointExtension>
        </extensions>
      </trkpt>
      <trkpt lat="37.77929845266044139862060546875" lon="-107.70174323581159114837646484375">
        <ele>3897.199951171875</ele>
        <time>2023-07-29T16:52:16.000Z</time>
        <extensions>
          <ns3:TrackPointExtension>
            <ns3:hr>131</ns3:hr>
            <ns3:cad>57</ns3:cad>
          </ns3:TrackPointExtension>
        </extensions>
      </trkpt>
      <trkpt lat="37.7792889811098575592041015625" lon="-107.70173284225165843963623046875">
        <ele>3897.199951171875</ele>
        <time>2023-07-29T16:52:17.000Z</time>
        <extensions>
          <ns3:TrackPointExtension>
            <ns3:hr>131</ns3:hr>
            <ns3:cad>57</ns3:cad>
          </ns3:TrackPointExtension>
        </extensions>
      </trkpt>
      <trkpt lat="37.77928101830184459686279296875" lon="-107.7017253823578357696533203125">
        <ele>3897.60009765625</ele>
        <time>2023-07-29T16:52:18.000Z</time>
        <extensions>
          <ns3:TrackPointExtension>
            <ns3:hr>131</ns3:hr>
            <ns3:cad>57</ns3:cad>
          </ns3:TrackPointExtension>
        </extensions>
      </trkpt>
      <trkpt lat="37.77927464805543422698974609375" lon="-107.7017203532159328460693359375">
        <ele>3897.800048828125</ele>
        <time>2023-07-29T16:52:19.000Z</time>
        <extensions>
          <ns3:TrackPointExtension>
            <ns3:hr>132</ns3:hr>
            <ns3:cad>57</ns3:cad>
          </ns3:TrackPointExtension>
        </extensions>
      </trkpt>
      <trkpt lat="37.77926358394324779510498046875" lon="-107.70171306096017360687255859375">
        <ele>3897.800048828125</ele>
        <time>2023-07-29T16:52:20.000Z</time>
        <extensions>
          <ns3:TrackPointExtension>
            <ns3:hr>132</ns3:hr>
            <ns3:cad>0</ns3:cad>
          </ns3:TrackPointExtension>
        </extensions>
      </trkpt>
      <trkpt lat="37.779260315001010894775390625" lon="-107.70171071402728557586669921875">
        <ele>3898</ele>
        <time>2023-07-29T16:52:21.000Z</time>
        <extensions>
          <ns3:TrackPointExtension>
            <ns3:hr>132</ns3:hr>
            <ns3:cad>0</ns3:cad>
          </ns3:TrackPointExtension>
        </extensions>
      </trkpt>
      <trkpt lat="37.77925134636461734771728515625" lon="-107.701705433428287506103515625">
        <ele>3898.199951171875</ele>
        <time>2023-07-29T16:52:22.000Z</time>
        <extensions>
          <ns3:TrackPointExtension>
            <ns3:hr>132</ns3:hr>
            <ns3:cad>0</ns3:cad>
          </ns3:TrackPointExtension>
        </extensions>
      </trkpt>
      <trkpt lat="37.7792396955192089080810546875" lon="-107.701701410114765167236328125">
        <ele>3898.199951171875</ele>
        <time>2023-07-29T16:52:23.000Z</time>
        <extensions>
          <ns3:TrackPointExtension>
            <ns3:hr>133</ns3:hr>
            <ns3:cad>0</ns3:cad>
          </ns3:TrackPointExtension>
        </extensions>
      </trkpt>
      <trkpt lat="37.7792313136160373687744140625" lon="-107.70169814117252826690673828125">
        <ele>3898.39990234375</ele>
        <time>2023-07-29T16:52:24.000Z</time>
        <extensions>
          <ns3:TrackPointExtension>
            <ns3:hr>133</ns3:hr>
            <ns3:cad>0</ns3:cad>
          </ns3:TrackPointExtension>
        </extensions>
      </trkpt>
      <trkpt lat="37.77921999804675579071044921875" lon="-107.70169462077319622039794921875">
        <ele>3898.60009765625</ele>
        <time>2023-07-29T16:52:25.000Z</time>
        <extensions>
          <ns3:TrackPointExtension>
            <ns3:hr>133</ns3:hr>
            <ns3:cad>0</ns3:cad>
          </ns3:TrackPointExtension>
        </extensions>
      </trkpt>
      <trkpt lat="37.77921295724809169769287109375" lon="-107.70169395022094249725341796875">
        <ele>3898.800048828125</ele>
        <time>2023-07-29T16:52:26.000Z</time>
        <extensions>
          <ns3:TrackPointExtension>
            <ns3:hr>133</ns3:hr>
            <ns3:cad>0</ns3:cad>
          </ns3:TrackPointExtension>
        </extensions>
      </trkpt>
      <trkpt lat="37.779202647507190704345703125" lon="-107.7016918547451496124267578125">
        <ele>3898.800048828125</ele>
        <time>2023-07-29T16:52:27.000Z</time>
        <extensions>
          <ns3:TrackPointExtension>
            <ns3:hr>133</ns3:hr>
            <ns3:cad>0</ns3:cad>
          </ns3:TrackPointExtension>
        </extensions>
      </trkpt>
      <trkpt lat="37.779189236462116241455078125" lon="-107.70168959163129329681396484375">
        <ele>3899.199951171875</ele>
        <time>2023-07-29T16:52:28.000Z</time>
        <extensions>
          <ns3:TrackPointExtension>
            <ns3:hr>133</ns3:hr>
            <ns3:cad>0</ns3:cad>
          </ns3:TrackPointExtension>
        </extensions>
      </trkpt>
      <trkpt lat="37.77917926199734210968017578125" lon="-107.7016854844987392425537109375">
        <ele>3899.199951171875</ele>
        <time>2023-07-29T16:52:29.000Z</time>
        <extensions>
          <ns3:TrackPointExtension>
            <ns3:hr>134</ns3:hr>
            <ns3:cad>0</ns3:cad>
          </ns3:TrackPointExtension>
        </extensions>
      </trkpt>
      <trkpt lat="37.77916367165744304656982421875" lon="-107.70167894661426544189453125">
        <ele>3899.199951171875</ele>
        <time>2023-07-29T16:52:30.000Z</time>
        <extensions>
          <ns3:TrackPointExtension>
            <ns3:hr>134</ns3:hr>
            <ns3:cad>0</ns3:cad>
          </ns3:TrackPointExtension>
        </extensions>
      </trkpt>
      <trkpt lat="37.779158391058444976806640625" lon="-107.7016767673194408416748046875">
        <ele>3899.199951171875</ele>
        <time>2023-07-29T16:52:31.000Z</time>
        <extensions>
          <ns3:TrackPointExtension>
            <ns3:hr>134</ns3:hr>
            <ns3:cad>0</ns3:cad>
          </ns3:TrackPointExtension>
        </extensions>
      </trkpt>
      <trkpt lat="37.7791498415172100067138671875" lon="-107.70167224109172821044921875">
        <ele>3899.39990234375</ele>
        <time>2023-07-29T16:52:32.000Z</time>
        <extensions>
          <ns3:TrackPointExtension>
            <ns3:hr>134</ns3:hr>
            <ns3:cad>0</ns3:cad>
          </ns3:TrackPointExtension>
        </extensions>
      </trkpt>
      <trkpt lat="37.77914338745176792144775390625" lon="-107.70166821777820587158203125">
        <ele>3899.39990234375</ele>
        <time>2023-07-29T16:52:33.000Z</time>
        <extensions>
          <ns3:TrackPointExtension>
            <ns3:hr>133</ns3:hr>
            <ns3:cad>0</ns3:cad>
          </ns3:TrackPointExtension>
        </extensions>
      </trkpt>
      <trkpt lat="37.77914137579500675201416015625" lon="-107.7016670443117618560791015625">
        <ele>3899.60009765625</ele>
        <time>2023-07-29T16:52:34.000Z</time>
        <extensions>
          <ns3:TrackPointExtension>
            <ns3:hr>133</ns3:hr>
            <ns3:cad>0</ns3:cad>
          </ns3:TrackPointExtension>
        </extensions>
      </trkpt>
      <trkpt lat="37.779134921729564666748046875" lon="-107.701661847531795501708984375">
        <ele>3899.60009765625</ele>
        <time>2023-07-29T16:52:35.000Z</time>
        <extensions>
          <ns3:TrackPointExtension>
            <ns3:hr>133</ns3:hr>
            <ns3:cad>0</ns3:cad>
          </ns3:TrackPointExtension>
        </extensions>
      </trkpt>
      <trkpt lat="37.7791325747966766357421875" lon="-107.70166017115116119384765625">
        <ele>3900</ele>
        <time>2023-07-29T16:52:36.000Z</time>
        <extensions>
          <ns3:TrackPointExtension>
            <ns3:hr>133</ns3:hr>
            <ns3:cad>0</ns3:cad>
          </ns3:TrackPointExtension>
        </extensions>
      </trkpt>
      <trkpt lat="37.779127545654773712158203125" lon="-107.7016566507518291473388671875">
        <ele>3900.199951171875</ele>
        <time>2023-07-29T16:52:37.000Z</time>
        <extensions>
          <ns3:TrackPointExtension>
            <ns3:hr>133</ns3:hr>
            <ns3:cad>47</ns3:cad>
          </ns3:TrackPointExtension>
        </extensions>
      </trkpt>
      <trkpt lat="37.77912360616028308868408203125" lon="-107.701651789247989654541015625">
        <ele>3900.39990234375</ele>
        <time>2023-07-29T16:52:38.000Z</time>
        <extensions>
          <ns3:TrackPointExtension>
            <ns3:hr>133</ns3:hr>
            <ns3:cad>47</ns3:cad>
          </ns3:TrackPointExtension>
        </extensions>
      </trkpt>
      <trkpt lat="37.77912142686545848846435546875" lon="-107.701644413173198699951171875">
        <ele>3900.39990234375</ele>
        <time>2023-07-29T16:52:39.000Z</time>
        <extensions>
          <ns3:TrackPointExtension>
            <ns3:hr>133</ns3:hr>
            <ns3:cad>47</ns3:cad>
          </ns3:TrackPointExtension>
        </extensions>
      </trkpt>
      <trkpt lat="37.77911757118999958038330078125" lon="-107.70163913257420063018798828125">
        <ele>3900.60009765625</ele>
        <time>2023-07-29T16:52:40.000Z</time>
        <extensions>
          <ns3:TrackPointExtension>
            <ns3:hr>133</ns3:hr>
            <ns3:cad>0</ns3:cad>
          </ns3:TrackPointExtension>
        </extensions>
      </trkpt>
      <trkpt lat="37.7791166491806507110595703125" lon="-107.70163661800324916839599609375">
        <ele>3901</ele>
        <time>2023-07-29T16:52:41.000Z</time>
        <extensions>
          <ns3:TrackPointExtension>
            <ns3:hr>133</ns3:hr>
            <ns3:cad>0</ns3:cad>
          </ns3:TrackPointExtension>
        </extensions>
      </trkpt>
      <trkpt lat="37.779110781848430633544921875" lon="-107.70163024775683879852294921875">
        <ele>3901.199951171875</ele>
        <time>2023-07-29T16:52:42.000Z</time>
        <extensions>
          <ns3:TrackPointExtension>
            <ns3:hr>133</ns3:hr>
            <ns3:cad>0</ns3:cad>
          </ns3:TrackPointExtension>
        </extensions>
      </trkpt>
      <trkpt lat="37.7791065908968448638916015625" lon="-107.70162723027169704437255859375">
        <ele>3901.60009765625</ele>
        <time>2023-07-29T16:52:43.000Z</time>
        <extensions>
          <ns3:TrackPointExtension>
            <ns3:hr>133</ns3:hr>
            <ns3:cad>0</ns3:cad>
          </ns3:TrackPointExtension>
        </extensions>
      </trkpt>
      <trkpt lat="37.779098041355609893798828125" lon="-107.70161683671176433563232421875">
        <ele>3901.800048828125</ele>
        <time>2023-07-29T16:52:44.000Z</time>
        <extensions>
          <ns3:TrackPointExtension>
            <ns3:hr>133</ns3:hr>
            <ns3:cad>0</ns3:cad>
          </ns3:TrackPointExtension>
        </extensions>
      </trkpt>
      <trkpt lat="37.77909074909985065460205078125" lon="-107.70161063410341739654541015625">
        <ele>3902.199951171875</ele>
        <time>2023-07-29T16:52:45.000Z</time>
        <extensions>
          <ns3:TrackPointExtension>
            <ns3:hr>133</ns3:hr>
            <ns3:cad>0</ns3:cad>
          </ns3:TrackPointExtension>
        </extensions>
      </trkpt>
      <trkpt lat="37.7790817804634571075439453125" lon="-107.7016031742095947265625">
        <ele>3902.199951171875</ele>
        <time>2023-07-29T16:52:46.000Z</time>
        <extensions>
          <ns3:TrackPointExtension>
            <ns3:hr>133</ns3:hr>
            <ns3:cad>0</ns3:cad>
          </ns3:TrackPointExtension>
        </extensions>
      </trkpt>
      <trkpt lat="37.7790757454931735992431640625" lon="-107.7016003243625164031982421875">
        <ele>3902.39990234375</ele>
        <time>2023-07-29T16:52:47.000Z</time>
        <extensions>
          <ns3:TrackPointExtension>
            <ns3:hr>133</ns3:hr>
            <ns3:cad>0</ns3:cad>
          </ns3:TrackPointExtension>
        </extensions>
      </trkpt>
      <trkpt lat="37.7790670283138751983642578125" lon="-107.70159219391644001007080078125">
        <ele>3902.60009765625</ele>
        <time>2023-07-29T16:52:48.000Z</time>
        <extensions>
          <ns3:TrackPointExtension>
            <ns3:hr>133</ns3:hr>
            <ns3:cad>0</ns3:cad>
          </ns3:TrackPointExtension>
        </extensions>
      </trkpt>
      <trkpt lat="37.77905839495360851287841796875" lon="-107.701588757336139678955078125">
        <ele>3902.800048828125</ele>
        <time>2023-07-29T16:52:49.000Z</time>
        <extensions>
          <ns3:TrackPointExtension>
            <ns3:hr>134</ns3:hr>
            <ns3:cad>0</ns3:cad>
          </ns3:TrackPointExtension>
        </extensions>
      </trkpt>
      <trkpt lat="37.77905546128749847412109375" lon="-107.701584398746490478515625">
        <ele>3903.199951171875</ele>
        <time>2023-07-29T16:52:50.000Z</time>
        <extensions>
          <ns3:TrackPointExtension>
            <ns3:hr>134</ns3:hr>
            <ns3:cad>0</ns3:cad>
          </ns3:TrackPointExtension>
        </extensions>
      </trkpt>
      <trkpt lat="37.77904808521270751953125" lon="-107.701576016843318939208984375">
        <ele>3903.199951171875</ele>
        <time>2023-07-29T16:52:51.000Z</time>
        <extensions>
          <ns3:TrackPointExtension>
            <ns3:hr>135</ns3:hr>
            <ns3:cad>0</ns3:cad>
          </ns3:TrackPointExtension>
        </extensions>
      </trkpt>
      <trkpt lat="37.7790462411940097808837890625" lon="-107.70157090388238430023193359375">
        <ele>3903.800048828125</ele>
        <time>2023-07-29T16:52:52.000Z</time>
        <extensions>
          <ns3:TrackPointExtension>
            <ns3:hr>135</ns3:hr>
            <ns3:cad>0</ns3:cad>
          </ns3:TrackPointExtension>
        </extensions>
      </trkpt>
      <trkpt lat="37.7790438942611217498779296875" lon="-107.7015669643878936767578125">
        <ele>3903.800048828125</ele>
        <time>2023-07-29T16:52:53.000Z</time>
        <extensions>
          <ns3:TrackPointExtension>
            <ns3:hr>135</ns3:hr>
            <ns3:cad>0</ns3:cad>
          </ns3:TrackPointExtension>
        </extensions>
      </trkpt>
      <trkpt lat="37.77903676964342594146728515625" lon="-107.7015610970556735992431640625">
        <ele>3904</ele>
        <time>2023-07-29T16:52:54.000Z</time>
        <extensions>
          <ns3:TrackPointExtension>
            <ns3:hr>135</ns3:hr>
            <ns3:cad>0</ns3:cad>
          </ns3:TrackPointExtension>
        </extensions>
      </trkpt>
      <trkpt lat="37.7790271304547786712646484375" lon="-107.70155430771410465240478515625">
        <ele>3904.199951171875</ele>
        <time>2023-07-29T16:52:55.000Z</time>
        <extensions>
          <ns3:TrackPointExtension>
            <ns3:hr>135</ns3:hr>
            <ns3:cad>0</ns3:cad>
          </ns3:TrackPointExtension>
        </extensions>
      </trkpt>
      <trkpt lat="37.77901682071387767791748046875" lon="-107.7015490271151065826416015625">
        <ele>3904.199951171875</ele>
        <time>2023-07-29T16:52:56.000Z</time>
        <extensions>
          <ns3:TrackPointExtension>
            <ns3:hr>135</ns3:hr>
            <ns3:cad>0</ns3:cad>
          </ns3:TrackPointExtension>
        </extensions>
      </trkpt>
      <trkpt lat="37.77901120483875274658203125" lon="-107.7015453390777111053466796875">
        <ele>3904.39990234375</ele>
        <time>2023-07-29T16:52:57.000Z</time>
        <extensions>
          <ns3:TrackPointExtension>
            <ns3:hr>135</ns3:hr>
            <ns3:cad>0</ns3:cad>
          </ns3:TrackPointExtension>
        </extensions>
      </trkpt>
      <trkpt lat="37.7790029905736446380615234375" lon="-107.701541148126125335693359375">
        <ele>3904.39990234375</ele>
        <time>2023-07-29T16:52:58.000Z</time>
        <extensions>
          <ns3:TrackPointExtension>
            <ns3:hr>136</ns3:hr>
            <ns3:cad>0</ns3:cad>
          </ns3:TrackPointExtension>
        </extensions>
      </trkpt>
      <trkpt lat="37.77899569831788539886474609375" lon="-107.701541818678379058837890625">
        <ele>3904.60009765625</ele>
        <time>2023-07-29T16:52:59.000Z</time>
        <extensions>
          <ns3:TrackPointExtension>
            <ns3:hr>136</ns3:hr>
            <ns3:cad>0</ns3:cad>
          </ns3:TrackPointExtension>
        </extensions>
      </trkpt>
      <trkpt lat="37.778992094099521636962890625" lon="-107.7015426568686962127685546875">
        <ele>3904.60009765625</ele>
        <time>2023-07-29T16:53:00.000Z</time>
        <extensions>
          <ns3:TrackPointExtension>
            <ns3:hr>137</ns3:hr>
            <ns3:cad>0</ns3:cad>
          </ns3:TrackPointExtension>
        </extensions>
      </trkpt>
      <trkpt lat="37.7789850533008575439453125" lon="-107.70154324360191822052001953125">
        <ele>3904.60009765625</ele>
        <time>2023-07-29T16:53:01.000Z</time>
        <extensions>
          <ns3:TrackPointExtension>
            <ns3:hr>138</ns3:hr>
            <ns3:cad>0</ns3:cad>
          </ns3:TrackPointExtension>
        </extensions>
      </trkpt>
      <trkpt lat="37.77898178435862064361572265625" lon="-107.7015429921448230743408203125">
        <ele>3905</ele>
        <time>2023-07-29T16:53:02.000Z</time>
        <extensions>
          <ns3:TrackPointExtension>
            <ns3:hr>138</ns3:hr>
            <ns3:cad>0</ns3:cad>
          </ns3:TrackPointExtension>
        </extensions>
      </trkpt>
      <trkpt lat="37.77897499501705169677734375" lon="-107.701539136469364166259765625">
        <ele>3905</ele>
        <time>2023-07-29T16:53:03.000Z</time>
        <extensions>
          <ns3:TrackPointExtension>
            <ns3:hr>139</ns3:hr>
            <ns3:cad>0</ns3:cad>
          </ns3:TrackPointExtension>
        </extensions>
      </trkpt>
      <trkpt lat="37.77896887622773647308349609375" lon="-107.70154005847871303558349609375">
        <ele>3905.199951171875</ele>
        <time>2023-07-29T16:53:04.000Z</time>
        <extensions>
          <ns3:TrackPointExtension>
            <ns3:hr>140</ns3:hr>
            <ns3:cad>0</ns3:cad>
          </ns3:TrackPointExtension>
        </extensions>
      </trkpt>
      <trkpt lat="37.77895881794393062591552734375" lon="-107.7015369571745395660400390625">
        <ele>3905.39990234375</ele>
        <time>2023-07-29T16:53:05.000Z</time>
        <extensions>
          <ns3:TrackPointExtension>
            <ns3:hr>141</ns3:hr>
            <ns3:cad>0</ns3:cad>
          </ns3:TrackPointExtension>
        </extensions>
      </trkpt>
      <trkpt lat="37.77894775383174419403076171875" lon="-107.70153268240392208099365234375">
        <ele>3905.39990234375</ele>
        <time>2023-07-29T16:53:06.000Z</time>
        <extensions>
          <ns3:TrackPointExtension>
            <ns3:hr>142</ns3:hr>
            <ns3:cad>0</ns3:cad>
          </ns3:TrackPointExtension>
        </extensions>
      </trkpt>
      <trkpt lat="37.77893601916730403900146484375" lon="-107.70152497105300426483154296875">
        <ele>3905.60009765625</ele>
        <time>2023-07-29T16:53:07.000Z</time>
        <extensions>
          <ns3:TrackPointExtension>
            <ns3:hr>141</ns3:hr>
            <ns3:cad>0</ns3:cad>
          </ns3:TrackPointExtension>
        </extensions>
      </trkpt>
      <trkpt lat="37.77892814017832279205322265625" lon="-107.7015198580920696258544921875">
        <ele>3905.60009765625</ele>
        <time>2023-07-29T16:53:08.000Z</time>
        <extensions>
          <ns3:TrackPointExtension>
            <ns3:hr>138</ns3:hr>
            <ns3:cad>0</ns3:cad>
          </ns3:TrackPointExtension>
        </extensions>
      </trkpt>
      <trkpt lat="37.77891925536096096038818359375" lon="-107.70151223056018352508544921875">
        <ele>3906</ele>
        <time>2023-07-29T16:53:09.000Z</time>
        <extensions>
          <ns3:TrackPointExtension>
            <ns3:hr>137</ns3:hr>
            <ns3:cad>0</ns3:cad>
          </ns3:TrackPointExtension>
        </extensions>
      </trkpt>
      <trkpt lat="37.7789138071238994598388671875" lon="-107.7015079557895660400390625">
        <ele>3906</ele>
        <time>2023-07-29T16:53:10.000Z</time>
        <extensions>
          <ns3:TrackPointExtension>
            <ns3:hr>136</ns3:hr>
            <ns3:cad>0</ns3:cad>
          </ns3:TrackPointExtension>
        </extensions>
      </trkpt>
      <trkpt lat="37.77890659868717193603515625" lon="-107.7014990709722042083740234375">
        <ele>3906</ele>
        <time>2023-07-29T16:53:11.000Z</time>
        <extensions>
          <ns3:TrackPointExtension>
            <ns3:hr>136</ns3:hr>
            <ns3:cad>0</ns3:cad>
          </ns3:TrackPointExtension>
        </extensions>
      </trkpt>
      <trkpt lat="37.77889863587915897369384765625" lon="-107.70149211399257183074951171875">
        <ele>3906.199951171875</ele>
        <time>2023-07-29T16:53:12.000Z</time>
        <extensions>
          <ns3:TrackPointExtension>
            <ns3:hr>136</ns3:hr>
            <ns3:cad>0</ns3:cad>
          </ns3:TrackPointExtension>
        </extensions>
      </trkpt>
      <trkpt lat="37.77888991869986057281494140625" lon="-107.70148448646068572998046875">
        <ele>3906.39990234375</ele>
        <time>2023-07-29T16:53:13.000Z</time>
        <extensions>
          <ns3:TrackPointExtension>
            <ns3:hr>136</ns3:hr>
            <ns3:cad>0</ns3:cad>
          </ns3:TrackPointExtension>
        </extensions>
      </trkpt>
      <trkpt lat="37.77888690121471881866455078125" lon="-107.70148104988038539886474609375">
        <ele>3906.60009765625</ele>
        <time>2023-07-29T16:53:14.000Z</time>
        <extensions>
          <ns3:TrackPointExtension>
            <ns3:hr>135</ns3:hr>
            <ns3:cad>0</ns3:cad>
          </ns3:TrackPointExtension>
        </extensions>
      </trkpt>
      <trkpt lat="37.77888338081538677215576171875" lon="-107.701476775109767913818359375">
        <ele>3906.60009765625</ele>
        <time>2023-07-29T16:53:15.000Z</time>
        <extensions>
          <ns3:TrackPointExtension>
            <ns3:hr>134</ns3:hr>
            <ns3:cad>0</ns3:cad>
          </ns3:TrackPointExtension>
        </extensions>
      </trkpt>
      <trkpt lat="37.7788846381008625030517578125" lon="-107.70147920586168766021728515625">
        <ele>3906.800048828125</ele>
        <time>2023-07-29T16:53:16.000Z</time>
        <extensions>
          <ns3:TrackPointExtension>
            <ns3:hr>134</ns3:hr>
            <ns3:cad>0</ns3:cad>
          </ns3:TrackPointExtension>
        </extensions>
      </trkpt>
      <trkpt lat="37.77888556011021137237548828125" lon="-107.7014786191284656524658203125">
        <ele>3907</ele>
        <time>2023-07-29T16:53:17.000Z</time>
        <extensions>
          <ns3:TrackPointExtension>
            <ns3:hr>134</ns3:hr>
            <ns3:cad>0</ns3:cad>
          </ns3:TrackPointExtension>
        </extensions>
      </trkpt>
      <trkpt lat="37.7788846381008625030517578125" lon="-107.7014759369194507598876953125">
        <ele>3907</ele>
        <time>2023-07-29T16:53:18.000Z</time>
        <extensions>
          <ns3:TrackPointExtension>
            <ns3:hr>135</ns3:hr>
            <ns3:cad>0</ns3:cad>
          </ns3:TrackPointExtension>
        </extensions>
      </trkpt>
      <trkpt lat="37.77888103388249874114990234375" lon="-107.7014752663671970367431640625">
        <ele>3907</ele>
        <time>2023-07-29T16:53:19.000Z</time>
        <extensions>
          <ns3:TrackPointExtension>
            <ns3:hr>134</ns3:hr>
            <ns3:cad>0</ns3:cad>
          </ns3:TrackPointExtension>
        </extensions>
      </trkpt>
      <trkpt lat="37.7788762561976909637451171875" lon="-107.70147484727203845977783203125">
        <ele>3907.199951171875</ele>
        <time>2023-07-29T16:53:20.000Z</time>
        <extensions>
          <ns3:TrackPointExtension>
            <ns3:hr>135</ns3:hr>
            <ns3:cad>0</ns3:cad>
          </ns3:TrackPointExtension>
        </extensions>
      </trkpt>
      <trkpt lat="37.7788729034364223480224609375" lon="-107.70147484727203845977783203125">
        <ele>3907.199951171875</ele>
        <time>2023-07-29T16:53:21.000Z</time>
        <extensions>
          <ns3:TrackPointExtension>
            <ns3:hr>135</ns3:hr>
            <ns3:cad>0</ns3:cad>
          </ns3:TrackPointExtension>
        </extensions>
      </trkpt>
      <trkpt lat="37.77887172996997833251953125" lon="-107.70146713592112064361572265625">
        <ele>3907.199951171875</ele>
        <time>2023-07-29T16:53:22.000Z</time>
        <extensions>
          <ns3:TrackPointExtension>
            <ns3:hr>135</ns3:hr>
            <ns3:cad>0</ns3:cad>
          </ns3:TrackPointExtension>
        </extensions>
      </trkpt>
      <trkpt lat="37.77886980213224887847900390625" lon="-107.7014551497995853424072265625">
        <ele>3907.199951171875</ele>
        <time>2023-07-29T16:53:23.000Z</time>
        <extensions>
          <ns3:TrackPointExtension>
            <ns3:hr>135</ns3:hr>
            <ns3:cad>0</ns3:cad>
          </ns3:TrackPointExtension>
        </extensions>
      </trkpt>
      <trkpt lat="37.77886896394193172454833984375" lon="-107.70144634880125522613525390625">
        <ele>3907.199951171875</ele>
        <time>2023-07-29T16:53:24.000Z</time>
        <extensions>
          <ns3:TrackPointExtension>
            <ns3:hr>134</ns3:hr>
            <ns3:cad>0</ns3:cad>
          </ns3:TrackPointExtension>
        </extensions>
      </trkpt>
      <trkpt lat="37.778866700828075408935546875" lon="-107.70144852809607982635498046875">
        <ele>3907.199951171875</ele>
        <time>2023-07-29T16:53:25.000Z</time>
        <extensions>
          <ns3:TrackPointExtension>
            <ns3:hr>134</ns3:hr>
            <ns3:cad>0</ns3:cad>
          </ns3:TrackPointExtension>
        </extensions>
      </trkpt>
      <trkpt lat="37.77886326424777507781982421875" lon="-107.70144903101027011871337890625">
        <ele>3907.39990234375</ele>
        <time>2023-07-29T16:53:26.000Z</time>
        <extensions>
          <ns3:TrackPointExtension>
            <ns3:hr>134</ns3:hr>
            <ns3:cad>0</ns3:cad>
          </ns3:TrackPointExtension>
        </extensions>
      </trkpt>
      <trkpt lat="37.778862677514553070068359375" lon="-107.70144886337220668792724609375">
        <ele>3907.39990234375</ele>
        <time>2023-07-29T16:53:27.000Z</time>
        <extensions>
          <ns3:TrackPointExtension>
            <ns3:hr>132</ns3:hr>
            <ns3:cad>0</ns3:cad>
          </ns3:TrackPointExtension>
        </extensions>
      </trkpt>
      <trkpt lat="37.77885806746780872344970703125" lon="-107.7014511264860630035400390625">
        <ele>3907.39990234375</ele>
        <time>2023-07-29T16:53:28.000Z</time>
        <extensions>
          <ns3:TrackPointExtension>
            <ns3:hr>131</ns3:hr>
            <ns3:cad>0</ns3:cad>
          </ns3:TrackPointExtension>
        </extensions>
      </trkpt>
      <trkpt lat="37.7788536250591278076171875" lon="-107.70144836045801639556884765625">
        <ele>3907.39990234375</ele>
        <time>2023-07-29T16:53:29.000Z</time>
        <extensions>
          <ns3:TrackPointExtension>
            <ns3:hr>131</ns3:hr>
            <ns3:cad>0</ns3:cad>
          </ns3:TrackPointExtension>
        </extensions>
      </trkpt>
      <trkpt lat="37.7788494341075420379638671875" lon="-107.701443247497081756591796875">
        <ele>3907.39990234375</ele>
        <time>2023-07-29T16:53:30.000Z</time>
        <extensions>
          <ns3:TrackPointExtension>
            <ns3:hr>130</ns3:hr>
            <ns3:cad>0</ns3:cad>
          </ns3:TrackPointExtension>
        </extensions>
      </trkpt>
      <trkpt lat="37.77884314768016338348388671875" lon="-107.7014357037842273712158203125">
        <ele>3907.39990234375</ele>
        <time>2023-07-29T16:53:31.000Z</time>
        <extensions>
          <ns3:TrackPointExtension>
            <ns3:hr>130</ns3:hr>
            <ns3:cad>0</ns3:cad>
          </ns3:TrackPointExtension>
        </extensions>
      </trkpt>
      <trkpt lat="37.7788376994431018829345703125" lon="-107.70142556168138980865478515625">
        <ele>3907.60009765625</ele>
        <time>2023-07-29T16:53:32.000Z</time>
        <extensions>
          <ns3:TrackPointExtension>
            <ns3:hr>129</ns3:hr>
            <ns3:cad>0</ns3:cad>
          </ns3:TrackPointExtension>
        </extensions>
      </trkpt>
      <trkpt lat="37.77882906608283519744873046875" lon="-107.70141231827437877655029296875">
        <ele>3907.60009765625</ele>
        <time>2023-07-29T16:53:33.000Z</time>
        <extensions>
          <ns3:TrackPointExtension>
            <ns3:hr>129</ns3:hr>
            <ns3:cad>45</ns3:cad>
          </ns3:TrackPointExtension>
        </extensions>
      </trkpt>
      <trkpt lat="37.778820432722568511962890625" lon="-107.70140158943831920623779296875">
        <ele>3907.800048828125</ele>
        <time>2023-07-29T16:53:34.000Z</time>
        <extensions>
          <ns3:TrackPointExtension>
            <ns3:hr>129</ns3:hr>
            <ns3:cad>45</ns3:cad>
          </ns3:TrackPointExtension>
        </extensions>
      </trkpt>
      <trkpt lat="37.7788105420768260955810546875" lon="-107.70138734020292758941650390625">
        <ele>3907.800048828125</ele>
        <time>2023-07-29T16:53:35.000Z</time>
        <extensions>
          <ns3:TrackPointExtension>
            <ns3:hr>129</ns3:hr>
            <ns3:cad>45</ns3:cad>
          </ns3:TrackPointExtension>
        </extensions>
      </trkpt>
      <trkpt lat="37.778805680572986602783203125" lon="-107.70137988030910491943359375">
        <ele>3907.800048828125</ele>
        <time>2023-07-29T16:53:36.000Z</time>
        <extensions>
          <ns3:TrackPointExtension>
            <ns3:hr>128</ns3:hr>
            <ns3:cad>45</ns3:cad>
          </ns3:TrackPointExtension>
        </extensions>
      </trkpt>
      <trkpt lat="37.778799645602703094482421875" lon="-107.70137091167271137237548828125">
        <ele>3907.800048828125</ele>
        <time>2023-07-29T16:53:37.000Z</time>
        <extensions>
          <ns3:TrackPointExtension>
            <ns3:hr>128</ns3:hr>
            <ns3:cad>45</ns3:cad>
          </ns3:TrackPointExtension>
        </extensions>
      </trkpt>
      <trkpt lat="37.77879151515662670135498046875" lon="-107.70136035047471523284912109375">
        <ele>3908</ele>
        <time>2023-07-29T16:53:38.000Z</time>
        <extensions>
          <ns3:TrackPointExtension>
            <ns3:hr>128</ns3:hr>
            <ns3:cad>45</ns3:cad>
          </ns3:TrackPointExtension>
        </extensions>
      </trkpt>
      <trkpt lat="37.77878782711923122406005859375" lon="-107.70135515369474887847900390625">
        <ele>3908.199951171875</ele>
        <time>2023-07-29T16:53:39.000Z</time>
        <extensions>
          <ns3:TrackPointExtension>
            <ns3:hr>127</ns3:hr>
            <ns3:cad>0</ns3:cad>
          </ns3:TrackPointExtension>
        </extensions>
      </trkpt>
      <trkpt lat="37.77878179214894771575927734375" lon="-107.70135305821895599365234375">
        <ele>3908.199951171875</ele>
        <time>2023-07-29T16:53:40.000Z</time>
        <extensions>
          <ns3:TrackPointExtension>
            <ns3:hr>127</ns3:hr>
            <ns3:cad>0</ns3:cad>
          </ns3:TrackPointExtension>
        </extensions>
      </trkpt>
      <trkpt lat="37.778775505721569061279296875" lon="-107.70135062746703624725341796875">
        <ele>3908.60009765625</ele>
        <time>2023-07-29T16:53:41.000Z</time>
        <extensions>
          <ns3:TrackPointExtension>
            <ns3:hr>127</ns3:hr>
            <ns3:cad>0</ns3:cad>
          </ns3:TrackPointExtension>
        </extensions>
      </trkpt>
      <trkpt lat="37.7787679620087146759033203125" lon="-107.7013455145061016082763671875">
        <ele>3908.60009765625</ele>
        <time>2023-07-29T16:53:42.000Z</time>
        <extensions>
          <ns3:TrackPointExtension>
            <ns3:hr>127</ns3:hr>
            <ns3:cad>0</ns3:cad>
          </ns3:TrackPointExtension>
        </extensions>
      </trkpt>
      <trkpt lat="37.7787572331726551055908203125" lon="-107.701346687972545623779296875">
        <ele>3908.60009765625</ele>
        <time>2023-07-29T16:53:43.000Z</time>
        <extensions>
          <ns3:TrackPointExtension>
            <ns3:hr>127</ns3:hr>
            <ns3:cad>0</ns3:cad>
          </ns3:TrackPointExtension>
        </extensions>
      </trkpt>
      <trkpt lat="37.77875279076397418975830078125" lon="-107.70134878344833850860595703125">
        <ele>3908.800048828125</ele>
        <time>2023-07-29T16:53:44.000Z</time>
        <extensions>
          <ns3:TrackPointExtension>
            <ns3:hr>127</ns3:hr>
            <ns3:cad>0</ns3:cad>
          </ns3:TrackPointExtension>
        </extensions>
      </trkpt>
      <trkpt lat="37.77874524705111980438232421875" lon="-107.7013502083718776702880859375">
        <ele>3908.800048828125</ele>
        <time>2023-07-29T16:53:45.000Z</time>
        <extensions>
          <ns3:TrackPointExtension>
            <ns3:hr>127</ns3:hr>
            <ns3:cad>0</ns3:cad>
          </ns3:TrackPointExtension>
        </extensions>
      </trkpt>
      <trkpt lat="37.778742313385009765625" lon="-107.7013508789241313934326171875">
        <ele>3908.800048828125</ele>
        <time>2023-07-29T16:53:46.000Z</time>
        <extensions>
          <ns3:TrackPointExtension>
            <ns3:hr>127</ns3:hr>
            <ns3:cad>0</ns3:cad>
          </ns3:TrackPointExtension>
        </extensions>
      </trkpt>
      <trkpt lat="37.7787340991199016571044921875" lon="-107.70135180093348026275634765625">
        <ele>3909</ele>
        <time>2023-07-29T16:53:47.000Z</time>
        <extensions>
          <ns3:TrackPointExtension>
            <ns3:hr>128</ns3:hr>
            <ns3:cad>0</ns3:cad>
          </ns3:TrackPointExtension>
        </extensions>
      </trkpt>
      <trkpt lat="37.7787257172167301177978515625" lon="-107.7013528905808925628662109375">
        <ele>3909</ele>
        <time>2023-07-29T16:53:48.000Z</time>
        <extensions>
          <ns3:TrackPointExtension>
            <ns3:hr>128</ns3:hr>
            <ns3:cad>0</ns3:cad>
          </ns3:TrackPointExtension>
        </extensions>
      </trkpt>
      <trkpt lat="37.77871456928551197052001953125" lon="-107.70135305821895599365234375">
        <ele>3909</ele>
        <time>2023-07-29T16:53:49.000Z</time>
        <extensions>
          <ns3:TrackPointExtension>
            <ns3:hr>128</ns3:hr>
            <ns3:cad>0</ns3:cad>
          </ns3:TrackPointExtension>
        </extensions>
      </trkpt>
      <trkpt lat="37.77870350517332553863525390625" lon="-107.70135230384767055511474609375">
        <ele>3909</ele>
        <time>2023-07-29T16:53:50.000Z</time>
        <extensions>
          <ns3:TrackPointExtension>
            <ns3:hr>128</ns3:hr>
            <ns3:cad>0</ns3:cad>
          </ns3:TrackPointExtension>
        </extensions>
      </trkpt>
      <trkpt lat="37.77869738638401031494140625" lon="-107.70135163329541683197021484375">
        <ele>3909</ele>
        <time>2023-07-29T16:53:51.000Z</time>
        <extensions>
          <ns3:TrackPointExtension>
            <ns3:hr>128</ns3:hr>
            <ns3:cad>0</ns3:cad>
          </ns3:TrackPointExtension>
        </extensions>
      </trkpt>
      <trkpt lat="37.77868439443409442901611328125" lon="-107.7013465203344821929931640625">
        <ele>3909</ele>
        <time>2023-07-29T16:53:52.000Z</time>
        <extensions>
          <ns3:TrackPointExtension>
            <ns3:hr>128</ns3:hr>
            <ns3:cad>0</ns3:cad>
          </ns3:TrackPointExtension>
        </extensions>
      </trkpt>
      <trkpt lat="37.77867726981639862060546875" lon="-107.7013414911925792694091796875">
        <ele>3909</ele>
        <time>2023-07-29T16:53:53.000Z</time>
        <extensions>
          <ns3:TrackPointExtension>
            <ns3:hr>128</ns3:hr>
            <ns3:cad>0</ns3:cad>
          </ns3:TrackPointExtension>
        </extensions>
      </trkpt>
      <trkpt lat="37.77866545133292675018310546875" lon="-107.701337635517120361328125">
        <ele>3908.800048828125</ele>
        <time>2023-07-29T16:53:54.000Z</time>
        <extensions>
          <ns3:TrackPointExtension>
            <ns3:hr>128</ns3:hr>
            <ns3:cad>0</ns3:cad>
          </ns3:TrackPointExtension>
        </extensions>
      </trkpt>
      <trkpt lat="37.7786563150584697723388671875" lon="-107.70133252255618572235107421875">
        <ele>3908.60009765625</ele>
        <time>2023-07-29T16:53:55.000Z</time>
        <extensions>
          <ns3:TrackPointExtension>
            <ns3:hr>128</ns3:hr>
            <ns3:cad>0</ns3:cad>
          </ns3:TrackPointExtension>
        </extensions>
      </trkpt>
      <trkpt lat="37.77864248491823673248291015625" lon="-107.70132414065301418304443359375">
        <ele>3908.60009765625</ele>
        <time>2023-07-29T16:53:56.000Z</time>
        <extensions>
          <ns3:TrackPointExtension>
            <ns3:hr>128</ns3:hr>
            <ns3:cad>0</ns3:cad>
          </ns3:TrackPointExtension>
        </extensions>
      </trkpt>
      <trkpt lat="37.7786321751773357391357421875" lon="-107.70131927914917469024658203125">
        <ele>3908.800048828125</ele>
        <time>2023-07-29T16:53:57.000Z</time>
        <extensions>
          <ns3:TrackPointExtension>
            <ns3:hr>128</ns3:hr>
            <ns3:cad>0</ns3:cad>
          </ns3:TrackPointExtension>
        </extensions>
      </trkpt>
      <trkpt lat="37.7786211110651493072509765625" lon="-107.7013129927217960357666015625">
        <ele>3908.800048828125</ele>
        <time>2023-07-29T16:53:58.000Z</time>
        <extensions>
          <ns3:TrackPointExtension>
            <ns3:hr>127</ns3:hr>
            <ns3:cad>0</ns3:cad>
          </ns3:TrackPointExtension>
        </extensions>
      </trkpt>
      <trkpt lat="37.77861147187650203704833984375" lon="-107.70130687393248081207275390625">
        <ele>3908.800048828125</ele>
        <time>2023-07-29T16:53:59.000Z</time>
        <extensions>
          <ns3:TrackPointExtension>
            <ns3:hr>127</ns3:hr>
            <ns3:cad>0</ns3:cad>
          </ns3:TrackPointExtension>
        </extensions>
      </trkpt>
      <trkpt lat="37.77860392816364765167236328125" lon="-107.70130435936152935028076171875">
        <ele>3909</ele>
        <time>2023-07-29T16:54:00.000Z</time>
        <extensions>
          <ns3:TrackPointExtension>
            <ns3:hr>127</ns3:hr>
            <ns3:cad>0</ns3:cad>
          </ns3:TrackPointExtension>
        </extensions>
      </trkpt>
      <trkpt lat="37.77859085239470005035400390625" lon="-107.7012992464005947113037109375">
        <ele>3909</ele>
        <time>2023-07-29T16:54:01.000Z</time>
        <extensions>
          <ns3:TrackPointExtension>
            <ns3:hr>127</ns3:hr>
            <ns3:cad>0</ns3:cad>
          </ns3:TrackPointExtension>
        </extensions>
      </trkpt>
      <trkpt lat="37.7785818837583065032958984375" lon="-107.70129698328673839569091796875">
        <ele>3909.199951171875</ele>
        <time>2023-07-29T16:54:02.000Z</time>
        <extensions>
          <ns3:TrackPointExtension>
            <ns3:hr>126</ns3:hr>
            <ns3:cad>0</ns3:cad>
          </ns3:TrackPointExtension>
        </extensions>
      </trkpt>
      <trkpt lat="37.77856855653226375579833984375" lon="-107.70129430107772350311279296875">
        <ele>3909.39990234375</ele>
        <time>2023-07-29T16:54:03.000Z</time>
        <extensions>
          <ns3:TrackPointExtension>
            <ns3:hr>126</ns3:hr>
            <ns3:cad>0</ns3:cad>
          </ns3:TrackPointExtension>
        </extensions>
      </trkpt>
      <trkpt lat="37.7785574086010456085205078125" lon="-107.701291032135486602783203125">
        <ele>3909.39990234375</ele>
        <time>2023-07-29T16:54:04.000Z</time>
        <extensions>
          <ns3:TrackPointExtension>
            <ns3:hr>126</ns3:hr>
            <ns3:cad>0</ns3:cad>
          </ns3:TrackPointExtension>
        </extensions>
      </trkpt>
      <trkpt lat="37.77854894287884235382080078125" lon="-107.7012885175645351409912109375">
        <ele>3909.39990234375</ele>
        <time>2023-07-29T16:54:05.000Z</time>
        <extensions>
          <ns3:TrackPointExtension>
            <ns3:hr>126</ns3:hr>
            <ns3:cad>0</ns3:cad>
          </ns3:TrackPointExtension>
        </extensions>
      </trkpt>
      <trkpt lat="37.778537459671497344970703125" lon="-107.701284997165203094482421875">
        <ele>3909.60009765625</ele>
        <time>2023-07-29T16:54:06.000Z</time>
        <extensions>
          <ns3:TrackPointExtension>
            <ns3:hr>126</ns3:hr>
            <ns3:cad>0</ns3:cad>
          </ns3:TrackPointExtension>
        </extensions>
      </trkpt>
      <trkpt lat="37.7785292454063892364501953125" lon="-107.70128197968006134033203125">
        <ele>3909.60009765625</ele>
        <time>2023-07-29T16:54:07.000Z</time>
        <extensions>
          <ns3:TrackPointExtension>
            <ns3:hr>126</ns3:hr>
            <ns3:cad>0</ns3:cad>
          </ns3:TrackPointExtension>
        </extensions>
      </trkpt>
      <trkpt lat="37.7785225398838520050048828125" lon="-107.70127904601395130157470703125">
        <ele>3909.60009765625</ele>
        <time>2023-07-29T16:54:08.000Z</time>
        <extensions>
          <ns3:TrackPointExtension>
            <ns3:hr>126</ns3:hr>
            <ns3:cad>0</ns3:cad>
          </ns3:TrackPointExtension>
        </extensions>
      </trkpt>
      <trkpt lat="37.7785161696374416351318359375" lon="-107.701273597776889801025390625">
        <ele>3909.60009765625</ele>
        <time>2023-07-29T16:54:09.000Z</time>
        <extensions>
          <ns3:TrackPointExtension>
            <ns3:hr>126</ns3:hr>
            <ns3:cad>0</ns3:cad>
          </ns3:TrackPointExtension>
        </extensions>
      </trkpt>
      <trkpt lat="37.77850921265780925750732421875" lon="-107.70126831717789173126220703125">
        <ele>3909.60009765625</ele>
        <time>2023-07-29T16:54:10.000Z</time>
        <extensions>
          <ns3:TrackPointExtension>
            <ns3:hr>126</ns3:hr>
            <ns3:cad>0</ns3:cad>
          </ns3:TrackPointExtension>
        </extensions>
      </trkpt>
      <trkpt lat="37.7785027585923671722412109375" lon="-107.701263539493083953857421875">
        <ele>3909.60009765625</ele>
        <time>2023-07-29T16:54:11.000Z</time>
        <extensions>
          <ns3:TrackPointExtension>
            <ns3:hr>126</ns3:hr>
            <ns3:cad>0</ns3:cad>
          </ns3:TrackPointExtension>
        </extensions>
      </trkpt>
      <trkpt lat="37.7784906886518001556396484375" lon="-107.7012543193995952606201171875">
        <ele>3909.60009765625</ele>
        <time>2023-07-29T16:54:12.000Z</time>
        <extensions>
          <ns3:TrackPointExtension>
            <ns3:hr>125</ns3:hr>
            <ns3:cad>0</ns3:cad>
          </ns3:TrackPointExtension>
        </extensions>
      </trkpt>
      <trkpt lat="37.77848239056766033172607421875" lon="-107.70124417729675769805908203125">
        <ele>3909.199951171875</ele>
        <time>2023-07-29T16:54:13.000Z</time>
        <extensions>
          <ns3:TrackPointExtension>
            <ns3:hr>125</ns3:hr>
            <ns3:cad>0</ns3:cad>
          </ns3:TrackPointExtension>
        </extensions>
      </trkpt>
      <trkpt lat="37.77847819961607456207275390625" lon="-107.70123462192714214324951171875">
        <ele>3909.199951171875</ele>
        <time>2023-07-29T16:54:14.000Z</time>
        <extensions>
          <ns3:TrackPointExtension>
            <ns3:hr>125</ns3:hr>
            <ns3:cad>0</ns3:cad>
          </ns3:TrackPointExtension>
        </extensions>
      </trkpt>
      <trkpt lat="37.7784742601215839385986328125" lon="-107.701229341328144073486328125">
        <ele>3909.199951171875</ele>
        <time>2023-07-29T16:54:15.000Z</time>
        <extensions>
          <ns3:TrackPointExtension>
            <ns3:hr>124</ns3:hr>
            <ns3:cad>0</ns3:cad>
          </ns3:TrackPointExtension>
        </extensions>
      </trkpt>
      <trkpt lat="37.77847476303577423095703125" lon="-107.70122624002397060394287109375">
        <ele>3909.199951171875</ele>
        <time>2023-07-29T16:54:16.000Z</time>
        <extensions>
          <ns3:TrackPointExtension>
            <ns3:hr>124</ns3:hr>
            <ns3:cad>0</ns3:cad>
          </ns3:TrackPointExtension>
        </extensions>
      </trkpt>
      <trkpt lat="37.77847032062709331512451171875" lon="-107.70121953450143337249755859375">
        <ele>3909.39990234375</ele>
        <time>2023-07-29T16:54:17.000Z</time>
        <extensions>
          <ns3:TrackPointExtension>
            <ns3:hr>124</ns3:hr>
            <ns3:cad>0</ns3:cad>
          </ns3:TrackPointExtension>
        </extensions>
      </trkpt>
      <trkpt lat="37.77846646495163440704345703125" lon="-107.7012160979211330413818359375">
        <ele>3909.39990234375</ele>
        <time>2023-07-29T16:54:18.000Z</time>
        <extensions>
          <ns3:TrackPointExtension>
            <ns3:hr>123</ns3:hr>
            <ns3:cad>0</ns3:cad>
          </ns3:TrackPointExtension>
        </extensions>
      </trkpt>
      <trkpt lat="37.778460681438446044921875" lon="-107.70121232606470584869384765625">
        <ele>3909.60009765625</ele>
        <time>2023-07-29T16:54:19.000Z</time>
        <extensions>
          <ns3:TrackPointExtension>
            <ns3:hr>123</ns3:hr>
            <ns3:cad>0</ns3:cad>
          </ns3:TrackPointExtension>
        </extensions>
      </trkpt>
      <trkpt lat="37.77845464646816253662109375" lon="-107.70121115259826183319091796875">
        <ele>3909.800048828125</ele>
        <time>2023-07-29T16:54:20.000Z</time>
        <extensions>
          <ns3:TrackPointExtension>
            <ns3:hr>123</ns3:hr>
            <ns3:cad>0</ns3:cad>
          </ns3:TrackPointExtension>
        </extensions>
      </trkpt>
      <trkpt lat="37.778449952602386474609375" lon="-107.70121383480727672576904296875">
        <ele>3910</ele>
        <time>2023-07-29T16:54:21.000Z</time>
        <extensions>
          <ns3:TrackPointExtension>
            <ns3:hr>123</ns3:hr>
            <ns3:cad>0</ns3:cad>
          </ns3:TrackPointExtension>
        </extensions>
      </trkpt>
      <trkpt lat="37.77844383381307125091552734375" lon="-107.7012127451598644256591796875">
        <ele>3910</ele>
        <time>2023-07-29T16:54:22.000Z</time>
        <extensions>
          <ns3:TrackPointExtension>
            <ns3:hr>123</ns3:hr>
            <ns3:cad>0</ns3:cad>
          </ns3:TrackPointExtension>
        </extensions>
      </trkpt>
      <trkpt lat="37.778436876833438873291015625" lon="-107.70120897330343723297119140625">
        <ele>3910.199951171875</ele>
        <time>2023-07-29T16:54:23.000Z</time>
        <extensions>
          <ns3:TrackPointExtension>
            <ns3:hr>123</ns3:hr>
            <ns3:cad>0</ns3:cad>
          </ns3:TrackPointExtension>
        </extensions>
      </trkpt>
      <trkpt lat="37.7784310095012187957763671875" lon="-107.70120679400861263275146484375">
        <ele>3910.39990234375</ele>
        <time>2023-07-29T16:54:24.000Z</time>
        <extensions>
          <ns3:TrackPointExtension>
            <ns3:hr>123</ns3:hr>
            <ns3:cad>0</ns3:cad>
          </ns3:TrackPointExtension>
        </extensions>
      </trkpt>
      <trkpt lat="37.7784216217696666717529296875" lon="-107.7012036927044391632080078125">
        <ele>3910.800048828125</ele>
        <time>2023-07-29T16:54:25.000Z</time>
        <extensions>
          <ns3:TrackPointExtension>
            <ns3:hr>123</ns3:hr>
            <ns3:cad>0</ns3:cad>
          </ns3:TrackPointExtension>
        </extensions>
      </trkpt>
      <trkpt lat="37.7784115634858608245849609375" lon="-107.70119925029575824737548828125">
        <ele>3910.800048828125</ele>
        <time>2023-07-29T16:54:26.000Z</time>
        <extensions>
          <ns3:TrackPointExtension>
            <ns3:hr>122</ns3:hr>
            <ns3:cad>0</ns3:cad>
          </ns3:TrackPointExtension>
        </extensions>
      </trkpt>
      <trkpt lat="37.778397984802722930908203125" lon="-107.70119220949709415435791015625">
        <ele>3910.800048828125</ele>
        <time>2023-07-29T16:54:27.000Z</time>
        <extensions>
          <ns3:TrackPointExtension>
            <ns3:hr>122</ns3:hr>
            <ns3:cad>0</ns3:cad>
          </ns3:TrackPointExtension>
        </extensions>
      </trkpt>
      <trkpt lat="37.7783797122538089752197265625" lon="-107.70118768326938152313232421875">
        <ele>3911</ele>
        <time>2023-07-29T16:54:28.000Z</time>
        <extensions>
          <ns3:TrackPointExtension>
            <ns3:hr>122</ns3:hr>
            <ns3:cad>0</ns3:cad>
          </ns3:TrackPointExtension>
        </extensions>
      </trkpt>
      <trkpt lat="37.778371162712574005126953125" lon="-107.7011842466890811920166015625">
        <ele>3911</ele>
        <time>2023-07-29T16:54:29.000Z</time>
        <extensions>
          <ns3:TrackPointExtension>
            <ns3:hr>122</ns3:hr>
            <ns3:cad>0</ns3:cad>
          </ns3:TrackPointExtension>
        </extensions>
      </trkpt>
      <trkpt lat="37.77835817076265811920166015625" lon="-107.70118181593716144561767578125">
        <ele>3911</ele>
        <time>2023-07-29T16:54:30.000Z</time>
        <extensions>
          <ns3:TrackPointExtension>
            <ns3:hr>122</ns3:hr>
            <ns3:cad>0</ns3:cad>
          </ns3:TrackPointExtension>
        </extensions>
      </trkpt>
      <trkpt lat="37.77835045941174030303955078125" lon="-107.70117980428040027618408203125">
        <ele>3911</ele>
        <time>2023-07-29T16:54:31.000Z</time>
        <extensions>
          <ns3:TrackPointExtension>
            <ns3:hr>122</ns3:hr>
            <ns3:cad>0</ns3:cad>
          </ns3:TrackPointExtension>
        </extensions>
      </trkpt>
      <trkpt lat="37.77833973057568073272705078125" lon="-107.7011751942336559295654296875">
        <ele>3911</ele>
        <time>2023-07-29T16:54:32.000Z</time>
        <extensions>
          <ns3:TrackPointExtension>
            <ns3:hr>123</ns3:hr>
            <ns3:cad>0</ns3:cad>
          </ns3:TrackPointExtension>
        </extensions>
      </trkpt>
      <trkpt lat="37.7783252298831939697265625" lon="-107.70117091946303844451904296875">
        <ele>3911</ele>
        <time>2023-07-29T16:54:33.000Z</time>
        <extensions>
          <ns3:TrackPointExtension>
            <ns3:hr>123</ns3:hr>
            <ns3:cad>0</ns3:cad>
          </ns3:TrackPointExtension>
        </extensions>
      </trkpt>
      <trkpt lat="37.77831776998937129974365234375" lon="-107.701168321073055267333984375">
        <ele>3911.199951171875</ele>
        <time>2023-07-29T16:54:34.000Z</time>
        <extensions>
          <ns3:TrackPointExtension>
            <ns3:hr>125</ns3:hr>
            <ns3:cad>0</ns3:cad>
          </ns3:TrackPointExtension>
        </extensions>
      </trkpt>
      <trkpt lat="37.77830469422042369842529296875" lon="-107.70116521976888179779052734375">
        <ele>3911.199951171875</ele>
        <time>2023-07-29T16:54:35.000Z</time>
        <extensions>
          <ns3:TrackPointExtension>
            <ns3:hr>126</ns3:hr>
            <ns3:cad>0</ns3:cad>
          </ns3:TrackPointExtension>
        </extensions>
      </trkpt>
      <trkpt lat="37.77829916216433048248291015625" lon="-107.701162286102771759033203125">
        <ele>3911.199951171875</ele>
        <time>2023-07-29T16:54:36.000Z</time>
        <extensions>
          <ns3:TrackPointExtension>
            <ns3:hr>127</ns3:hr>
            <ns3:cad>0</ns3:cad>
          </ns3:TrackPointExtension>
        </extensions>
      </trkpt>
      <trkpt lat="37.7782876789569854736328125" lon="-107.70115499384701251983642578125">
        <ele>3911.39990234375</ele>
        <time>2023-07-29T16:54:37.000Z</time>
        <extensions>
          <ns3:TrackPointExtension>
            <ns3:hr>128</ns3:hr>
            <ns3:cad>0</ns3:cad>
          </ns3:TrackPointExtension>
        </extensions>
      </trkpt>
      <trkpt lat="37.77828432619571685791015625" lon="-107.70114921033382415771484375">
        <ele>3911.39990234375</ele>
        <time>2023-07-29T16:54:38.000Z</time>
        <extensions>
          <ns3:TrackPointExtension>
            <ns3:hr>129</ns3:hr>
            <ns3:cad>0</ns3:cad>
          </ns3:TrackPointExtension>
        </extensions>
      </trkpt>
      <trkpt lat="37.778280638158321380615234375" lon="-107.70114225335419178009033203125">
        <ele>3911.60009765625</ele>
        <time>2023-07-29T16:54:39.000Z</time>
        <extensions>
          <ns3:TrackPointExtension>
            <ns3:hr>129</ns3:hr>
            <ns3:cad>0</ns3:cad>
          </ns3:TrackPointExtension>
        </extensions>
      </trkpt>
      <trkpt lat="37.7782727591693401336669921875" lon="-107.70113253034651279449462890625">
        <ele>3911.800048828125</ele>
        <time>2023-07-29T16:54:40.000Z</time>
        <extensions>
          <ns3:TrackPointExtension>
            <ns3:hr>129</ns3:hr>
            <ns3:cad>0</ns3:cad>
          </ns3:TrackPointExtension>
        </extensions>
      </trkpt>
      <trkpt lat="37.7782687358558177947998046875" lon="-107.7011282555758953094482421875">
        <ele>3912</ele>
        <time>2023-07-29T16:54:41.000Z</time>
        <extensions>
          <ns3:TrackPointExtension>
            <ns3:hr>130</ns3:hr>
            <ns3:cad>0</ns3:cad>
          </ns3:TrackPointExtension>
        </extensions>
      </trkpt>
      <trkpt lat="37.77826429344713687896728515625" lon="-107.701125405728816986083984375">
        <ele>3912</ele>
        <time>2023-07-29T16:54:42.000Z</time>
        <extensions>
          <ns3:TrackPointExtension>
            <ns3:hr>131</ns3:hr>
            <ns3:cad>0</ns3:cad>
          </ns3:TrackPointExtension>
        </extensions>
      </trkpt>
      <trkpt lat="37.7782590128481388092041015625" lon="-107.701121382415294647216796875">
        <ele>3912.39990234375</ele>
        <time>2023-07-29T16:54:43.000Z</time>
        <extensions>
          <ns3:TrackPointExtension>
            <ns3:hr>131</ns3:hr>
            <ns3:cad>0</ns3:cad>
          </ns3:TrackPointExtension>
        </extensions>
      </trkpt>
      <trkpt lat="37.77825155295431613922119140625" lon="-107.70111643709242343902587890625">
        <ele>3912.39990234375</ele>
        <time>2023-07-29T16:54:44.000Z</time>
        <extensions>
          <ns3:TrackPointExtension>
            <ns3:hr>131</ns3:hr>
            <ns3:cad>0</ns3:cad>
          </ns3:TrackPointExtension>
        </extensions>
      </trkpt>
      <trkpt lat="37.77824006974697113037109375" lon="-107.7011081390082836151123046875">
        <ele>3912.60009765625</ele>
        <time>2023-07-29T16:54:45.000Z</time>
        <extensions>
          <ns3:TrackPointExtension>
            <ns3:hr>128</ns3:hr>
            <ns3:cad>0</ns3:cad>
          </ns3:TrackPointExtension>
        </extensions>
      </trkpt>
      <trkpt lat="37.77823478914797306060791015625" lon="-107.70110629498958587646484375">
        <ele>3912.800048828125</ele>
        <time>2023-07-29T16:54:46.000Z</time>
        <extensions>
          <ns3:TrackPointExtension>
            <ns3:hr>124</ns3:hr>
            <ns3:cad>0</ns3:cad>
          </ns3:TrackPointExtension>
        </extensions>
      </trkpt>
      <trkpt lat="37.77821903117001056671142578125" lon="-107.701101265847682952880859375">
        <ele>3913</ele>
        <time>2023-07-29T16:54:47.000Z</time>
        <extensions>
          <ns3:TrackPointExtension>
            <ns3:hr>124</ns3:hr>
            <ns3:cad>0</ns3:cad>
          </ns3:TrackPointExtension>
        </extensions>
      </trkpt>
      <trkpt lat="37.7782070450484752655029296875" lon="-107.70109665580093860626220703125">
        <ele>3913.39990234375</ele>
        <time>2023-07-29T16:54:48.000Z</time>
        <extensions>
          <ns3:TrackPointExtension>
            <ns3:hr>124</ns3:hr>
            <ns3:cad>0</ns3:cad>
          </ns3:TrackPointExtension>
        </extensions>
      </trkpt>
      <trkpt lat="37.778193466365337371826171875" lon="-107.701090537011623382568359375">
        <ele>3913.39990234375</ele>
        <time>2023-07-29T16:54:49.000Z</time>
        <extensions>
          <ns3:TrackPointExtension>
            <ns3:hr>125</ns3:hr>
            <ns3:cad>0</ns3:cad>
          </ns3:TrackPointExtension>
        </extensions>
      </trkpt>
      <trkpt lat="37.77817904949188232421875" lon="-107.70108282566070556640625">
        <ele>3913.60009765625</ele>
        <time>2023-07-29T16:54:50.000Z</time>
        <extensions>
          <ns3:TrackPointExtension>
            <ns3:hr>125</ns3:hr>
            <ns3:cad>0</ns3:cad>
          </ns3:TrackPointExtension>
        </extensions>
      </trkpt>
      <trkpt lat="37.77817326597869396209716796875" lon="-107.70108123309910297393798828125">
        <ele>3913.800048828125</ele>
        <time>2023-07-29T16:54:51.000Z</time>
        <extensions>
          <ns3:TrackPointExtension>
            <ns3:hr>125</ns3:hr>
            <ns3:cad>0</ns3:cad>
          </ns3:TrackPointExtension>
        </extensions>
      </trkpt>
      <trkpt lat="37.77816521935164928436279296875" lon="-107.7010796405375003814697265625">
        <ele>3913.800048828125</ele>
        <time>2023-07-29T16:54:52.000Z</time>
        <extensions>
          <ns3:TrackPointExtension>
            <ns3:hr>126</ns3:hr>
            <ns3:cad>43</ns3:cad>
          </ns3:TrackPointExtension>
        </extensions>
      </trkpt>
      <trkpt lat="37.77816102840006351470947265625" lon="-107.70107989199459552764892578125">
        <ele>3914</ele>
        <time>2023-07-29T16:54:53.000Z</time>
        <extensions>
          <ns3:TrackPointExtension>
            <ns3:hr>127</ns3:hr>
            <ns3:cad>43</ns3:cad>
          </ns3:TrackPointExtension>
        </extensions>
      </trkpt>
      <trkpt lat="37.77815289795398712158203125" lon="-107.7010806463658809661865234375">
        <ele>3914.199951171875</ele>
        <time>2023-07-29T16:54:54.000Z</time>
        <extensions>
          <ns3:TrackPointExtension>
            <ns3:hr>127</ns3:hr>
            <ns3:cad>0</ns3:cad>
          </ns3:TrackPointExtension>
        </extensions>
      </trkpt>
      <trkpt lat="37.7781463600695133209228515625" lon="-107.701080143451690673828125">
        <ele>3914.39990234375</ele>
        <time>2023-07-29T16:54:55.000Z</time>
        <extensions>
          <ns3:TrackPointExtension>
            <ns3:hr>127</ns3:hr>
            <ns3:cad>0</ns3:cad>
          </ns3:TrackPointExtension>
        </extensions>
      </trkpt>
      <trkpt lat="37.77813772670924663543701171875" lon="-107.7010793052613735198974609375">
        <ele>3914.60009765625</ele>
        <time>2023-07-29T16:54:56.000Z</time>
        <extensions>
          <ns3:TrackPointExtension>
            <ns3:hr>127</ns3:hr>
            <ns3:cad>0</ns3:cad>
          </ns3:TrackPointExtension>
        </extensions>
      </trkpt>
      <trkpt lat="37.77813009917736053466796875" lon="-107.701077125966548919677734375">
        <ele>3914.800048828125</ele>
        <time>2023-07-29T16:54:57.000Z</time>
        <extensions>
          <ns3:TrackPointExtension>
            <ns3:hr>127</ns3:hr>
            <ns3:cad>0</ns3:cad>
          </ns3:TrackPointExtension>
        </extensions>
      </trkpt>
      <trkpt lat="37.77812339365482330322265625" lon="-107.70107586868107318878173828125">
        <ele>3915.199951171875</ele>
        <time>2023-07-29T16:54:58.000Z</time>
        <extensions>
          <ns3:TrackPointExtension>
            <ns3:hr>127</ns3:hr>
            <ns3:cad>0</ns3:cad>
          </ns3:TrackPointExtension>
        </extensions>
      </trkpt>
      <trkpt lat="37.77811174280941486358642578125" lon="-107.70107385702431201934814453125">
        <ele>3915.39990234375</ele>
        <time>2023-07-29T16:54:59.000Z</time>
        <extensions>
          <ns3:TrackPointExtension>
            <ns3:hr>127</ns3:hr>
            <ns3:cad>0</ns3:cad>
          </ns3:TrackPointExtension>
        </extensions>
      </trkpt>
      <trkpt lat="37.7781047858297824859619140625" lon="-107.70107142627239227294921875">
        <ele>3915.800048828125</ele>
        <time>2023-07-29T16:55:00.000Z</time>
        <extensions>
          <ns3:TrackPointExtension>
            <ns3:hr>127</ns3:hr>
            <ns3:cad>0</ns3:cad>
          </ns3:TrackPointExtension>
        </extensions>
      </trkpt>
      <trkpt lat="37.7780957333743572235107421875" lon="-107.70106513984501361846923828125">
        <ele>3916</ele>
        <time>2023-07-29T16:55:01.000Z</time>
        <extensions>
          <ns3:TrackPointExtension>
            <ns3:hr>128</ns3:hr>
            <ns3:cad>0</ns3:cad>
          </ns3:TrackPointExtension>
        </extensions>
      </trkpt>
      <trkpt lat="37.7780937217175960540771484375" lon="-107.70106178708374500274658203125">
        <ele>3916.199951171875</ele>
        <time>2023-07-29T16:55:02.000Z</time>
        <extensions>
          <ns3:TrackPointExtension>
            <ns3:hr>128</ns3:hr>
            <ns3:cad>0</ns3:cad>
          </ns3:TrackPointExtension>
        </extensions>
      </trkpt>
      <trkpt lat="37.7780873514711856842041015625" lon="-107.70105541683733463287353515625">
        <ele>3916.39990234375</ele>
        <time>2023-07-29T16:55:03.000Z</time>
        <extensions>
          <ns3:TrackPointExtension>
            <ns3:hr>128</ns3:hr>
            <ns3:cad>0</ns3:cad>
          </ns3:TrackPointExtension>
        </extensions>
      </trkpt>
      <trkpt lat="37.7780836634337902069091796875" lon="-107.70104954950511455535888671875">
        <ele>3916.60009765625</ele>
        <time>2023-07-29T16:55:04.000Z</time>
        <extensions>
          <ns3:TrackPointExtension>
            <ns3:hr>128</ns3:hr>
            <ns3:cad>0</ns3:cad>
          </ns3:TrackPointExtension>
        </extensions>
      </trkpt>
      <trkpt lat="37.7780756168067455291748046875" lon="-107.70104460418224334716796875">
        <ele>3916.800048828125</ele>
        <time>2023-07-29T16:55:05.000Z</time>
        <extensions>
          <ns3:TrackPointExtension>
            <ns3:hr>128</ns3:hr>
            <ns3:cad>0</ns3:cad>
          </ns3:TrackPointExtension>
        </extensions>
      </trkpt>
      <trkpt lat="37.77806379832327365875244140625" lon="-107.70103965885937213897705078125">
        <ele>3917.199951171875</ele>
        <time>2023-07-29T16:55:06.000Z</time>
        <extensions>
          <ns3:TrackPointExtension>
            <ns3:hr>128</ns3:hr>
            <ns3:cad>0</ns3:cad>
          </ns3:TrackPointExtension>
        </extensions>
      </trkpt>
      <trkpt lat="37.77805876918137073516845703125" lon="-107.7010387368500232696533203125">
        <ele>3917.39990234375</ele>
        <time>2023-07-29T16:55:07.000Z</time>
        <extensions>
          <ns3:TrackPointExtension>
            <ns3:hr>129</ns3:hr>
            <ns3:cad>0</ns3:cad>
          </ns3:TrackPointExtension>
        </extensions>
      </trkpt>
      <trkpt lat="37.77805097401142120361328125" lon="-107.70103496499359607696533203125">
        <ele>3917.60009765625</ele>
        <time>2023-07-29T16:55:08.000Z</time>
        <extensions>
          <ns3:TrackPointExtension>
            <ns3:hr>129</ns3:hr>
            <ns3:cad>0</ns3:cad>
          </ns3:TrackPointExtension>
        </extensions>
      </trkpt>
      <trkpt lat="37.7780435979366302490234375" lon="-107.7010333724319934844970703125">
        <ele>3917.800048828125</ele>
        <time>2023-07-29T16:55:09.000Z</time>
        <extensions>
          <ns3:TrackPointExtension>
            <ns3:hr>131</ns3:hr>
            <ns3:cad>0</ns3:cad>
          </ns3:TrackPointExtension>
        </extensions>
      </trkpt>
      <trkpt lat="37.77803647331893444061279296875" lon="-107.701031528413295745849609375">
        <ele>3918</ele>
        <time>2023-07-29T16:55:10.000Z</time>
        <extensions>
          <ns3:TrackPointExtension>
            <ns3:hr>131</ns3:hr>
            <ns3:cad>0</ns3:cad>
          </ns3:TrackPointExtension>
        </extensions>
      </trkpt>
      <trkpt lat="37.778029851615428924560546875" lon="-107.70103043876588344573974609375">
        <ele>3918.199951171875</ele>
        <time>2023-07-29T16:55:11.000Z</time>
        <extensions>
          <ns3:TrackPointExtension>
            <ns3:hr>132</ns3:hr>
            <ns3:cad>0</ns3:cad>
          </ns3:TrackPointExtension>
        </extensions>
      </trkpt>
      <trkpt lat="37.7780249901115894317626953125" lon="-107.70103161223232746124267578125">
        <ele>3918.39990234375</ele>
        <time>2023-07-29T16:55:12.000Z</time>
        <extensions>
          <ns3:TrackPointExtension>
            <ns3:hr>132</ns3:hr>
            <ns3:cad>0</ns3:cad>
          </ns3:TrackPointExtension>
        </extensions>
      </trkpt>
      <trkpt lat="37.77802012860774993896484375" lon="-107.70103228278458118438720703125">
        <ele>3918.60009765625</ele>
        <time>2023-07-29T16:55:13.000Z</time>
        <extensions>
          <ns3:TrackPointExtension>
            <ns3:hr>132</ns3:hr>
            <ns3:cad>0</ns3:cad>
          </ns3:TrackPointExtension>
        </extensions>
      </trkpt>
      <trkpt lat="37.7780129201710224151611328125" lon="-107.70103253424167633056640625">
        <ele>3918.60009765625</ele>
        <time>2023-07-29T16:55:14.000Z</time>
        <extensions>
          <ns3:TrackPointExtension>
            <ns3:hr>132</ns3:hr>
            <ns3:cad>0</ns3:cad>
          </ns3:TrackPointExtension>
        </extensions>
      </trkpt>
      <trkpt lat="37.778009735047817230224609375" lon="-107.70103211514651775360107421875">
        <ele>3918.800048828125</ele>
        <time>2023-07-29T16:55:15.000Z</time>
        <extensions>
          <ns3:TrackPointExtension>
            <ns3:hr>133</ns3:hr>
            <ns3:cad>0</ns3:cad>
          </ns3:TrackPointExtension>
        </extensions>
      </trkpt>
      <trkpt lat="37.7780078910291194915771484375" lon="-107.7010305225849151611328125">
        <ele>3919</ele>
        <time>2023-07-29T16:55:16.000Z</time>
        <extensions>
          <ns3:TrackPointExtension>
            <ns3:hr>134</ns3:hr>
            <ns3:cad>62</ns3:cad>
          </ns3:TrackPointExtension>
        </extensions>
      </trkpt>
      <trkpt lat="37.77800043113529682159423828125" lon="-107.70102985203266143798828125">
        <ele>3919.199951171875</ele>
        <time>2023-07-29T16:55:17.000Z</time>
        <extensions>
          <ns3:TrackPointExtension>
            <ns3:hr>135</ns3:hr>
            <ns3:cad>62</ns3:cad>
          </ns3:TrackPointExtension>
        </extensions>
      </trkpt>
      <trkpt lat="37.7779928036034107208251953125" lon="-107.70102825947105884552001953125">
        <ele>3919.39990234375</ele>
        <time>2023-07-29T16:55:18.000Z</time>
        <extensions>
          <ns3:TrackPointExtension>
            <ns3:hr>135</ns3:hr>
            <ns3:cad>0</ns3:cad>
          </ns3:TrackPointExtension>
        </extensions>
      </trkpt>
      <trkpt lat="37.77798735536634922027587890625" lon="-107.70102624781429767608642578125">
        <ele>3919.39990234375</ele>
        <time>2023-07-29T16:55:19.000Z</time>
        <extensions>
          <ns3:TrackPointExtension>
            <ns3:hr>136</ns3:hr>
            <ns3:cad>0</ns3:cad>
          </ns3:TrackPointExtension>
        </extensions>
      </trkpt>
      <trkpt lat="37.777982242405414581298828125" lon="-107.7010223083198070526123046875">
        <ele>3919.60009765625</ele>
        <time>2023-07-29T16:55:20.000Z</time>
        <extensions>
          <ns3:TrackPointExtension>
            <ns3:hr>136</ns3:hr>
            <ns3:cad>0</ns3:cad>
          </ns3:TrackPointExtension>
        </extensions>
      </trkpt>
      <trkpt lat="37.7779733575880527496337890625" lon="-107.70101970992982387542724609375">
        <ele>3919.60009765625</ele>
        <time>2023-07-29T16:55:21.000Z</time>
        <extensions>
          <ns3:TrackPointExtension>
            <ns3:hr>135</ns3:hr>
            <ns3:cad>0</ns3:cad>
          </ns3:TrackPointExtension>
        </extensions>
      </trkpt>
      <trkpt lat="37.77796405367553234100341796875" lon="-107.701014764606952667236328125">
        <ele>3919.60009765625</ele>
        <time>2023-07-29T16:55:22.000Z</time>
        <extensions>
          <ns3:TrackPointExtension>
            <ns3:hr>134</ns3:hr>
            <ns3:cad>0</ns3:cad>
          </ns3:TrackPointExtension>
        </extensions>
      </trkpt>
      <trkpt lat="37.7779532410204410552978515625" lon="-107.7010075561702251434326171875">
        <ele>3919.800048828125</ele>
        <time>2023-07-29T16:55:23.000Z</time>
        <extensions>
          <ns3:TrackPointExtension>
            <ns3:hr>133</ns3:hr>
            <ns3:cad>0</ns3:cad>
          </ns3:TrackPointExtension>
        </extensions>
      </trkpt>
      <trkpt lat="37.77794226072728633880615234375" lon="-107.7010008506476879119873046875">
        <ele>3919.800048828125</ele>
        <time>2023-07-29T16:55:24.000Z</time>
        <extensions>
          <ns3:TrackPointExtension>
            <ns3:hr>132</ns3:hr>
            <ns3:cad>0</ns3:cad>
          </ns3:TrackPointExtension>
        </extensions>
      </trkpt>
      <trkpt lat="37.77793572284281253814697265625" lon="-107.700993977487087249755859375">
        <ele>3919.800048828125</ele>
        <time>2023-07-29T16:55:25.000Z</time>
        <extensions>
          <ns3:TrackPointExtension>
            <ns3:hr>131</ns3:hr>
            <ns3:cad>0</ns3:cad>
          </ns3:TrackPointExtension>
        </extensions>
      </trkpt>
      <trkpt lat="37.7779237367212772369384765625" lon="-107.70098031498491764068603515625">
        <ele>3919.800048828125</ele>
        <time>2023-07-29T16:55:26.000Z</time>
        <extensions>
          <ns3:TrackPointExtension>
            <ns3:hr>131</ns3:hr>
            <ns3:cad>0</ns3:cad>
          </ns3:TrackPointExtension>
        </extensions>
      </trkpt>
      <trkpt lat="37.7779200486838817596435546875" lon="-107.700969837605953216552734375">
        <ele>3919.800048828125</ele>
        <time>2023-07-29T16:55:27.000Z</time>
        <extensions>
          <ns3:TrackPointExtension>
            <ns3:hr>130</ns3:hr>
            <ns3:cad>0</ns3:cad>
          </ns3:TrackPointExtension>
        </extensions>
      </trkpt>
      <trkpt lat="37.7779166959226131439208984375" lon="-107.70096279680728912353515625">
        <ele>3919.800048828125</ele>
        <time>2023-07-29T16:55:28.000Z</time>
        <extensions>
          <ns3:TrackPointExtension>
            <ns3:hr>130</ns3:hr>
            <ns3:cad>0</ns3:cad>
          </ns3:TrackPointExtension>
        </extensions>
      </trkpt>
      <trkpt lat="37.777912504971027374267578125" lon="-107.70095567218959331512451171875">
        <ele>3920</ele>
        <time>2023-07-29T16:55:29.000Z</time>
        <extensions>
          <ns3:TrackPointExtension>
            <ns3:hr>131</ns3:hr>
            <ns3:cad>0</ns3:cad>
          </ns3:TrackPointExtension>
        </extensions>
      </trkpt>
      <trkpt lat="37.77790672145783901214599609375" lon="-107.7009482122957706451416015625">
        <ele>3920.199951171875</ele>
        <time>2023-07-29T16:55:30.000Z</time>
        <extensions>
          <ns3:TrackPointExtension>
            <ns3:hr>131</ns3:hr>
            <ns3:cad>0</ns3:cad>
          </ns3:TrackPointExtension>
        </extensions>
      </trkpt>
      <trkpt lat="37.77790169231593608856201171875" lon="-107.70094745792448520660400390625">
        <ele>3920.39990234375</ele>
        <time>2023-07-29T16:55:31.000Z</time>
        <extensions>
          <ns3:TrackPointExtension>
            <ns3:hr>131</ns3:hr>
            <ns3:cad>0</ns3:cad>
          </ns3:TrackPointExtension>
        </extensions>
      </trkpt>
      <trkpt lat="37.7779006026685237884521484375" lon="-107.70094879902899265289306640625">
        <ele>3920.39990234375</ele>
        <time>2023-07-29T16:55:32.000Z</time>
        <extensions>
          <ns3:TrackPointExtension>
            <ns3:hr>131</ns3:hr>
            <ns3:cad>0</ns3:cad>
          </ns3:TrackPointExtension>
        </extensions>
      </trkpt>
      <trkpt lat="37.77789901010692119598388671875" lon="-107.7009555883705615997314453125">
        <ele>3920.60009765625</ele>
        <time>2023-07-29T16:55:33.000Z</time>
        <extensions>
          <ns3:TrackPointExtension>
            <ns3:hr>131</ns3:hr>
            <ns3:cad>0</ns3:cad>
          </ns3:TrackPointExtension>
        </extensions>
      </trkpt>
      <trkpt lat="37.7778987586498260498046875" lon="-107.70096153952181339263916015625">
        <ele>3920.60009765625</ele>
        <time>2023-07-29T16:55:34.000Z</time>
        <extensions>
          <ns3:TrackPointExtension>
            <ns3:hr>131</ns3:hr>
            <ns3:cad>0</ns3:cad>
          </ns3:TrackPointExtension>
        </extensions>
      </trkpt>
      <trkpt lat="37.77789884246885776519775390625" lon="-107.70096841268241405487060546875">
        <ele>3920.60009765625</ele>
        <time>2023-07-29T16:55:35.000Z</time>
        <extensions>
          <ns3:TrackPointExtension>
            <ns3:hr>132</ns3:hr>
            <ns3:cad>0</ns3:cad>
          </ns3:TrackPointExtension>
        </extensions>
      </trkpt>
      <trkpt lat="37.77789297513663768768310546875" lon="-107.70097042433917522430419921875">
        <ele>3920.800048828125</ele>
        <time>2023-07-29T16:55:36.000Z</time>
        <extensions>
          <ns3:TrackPointExtension>
            <ns3:hr>133</ns3:hr>
            <ns3:cad>0</ns3:cad>
          </ns3:TrackPointExtension>
        </extensions>
      </trkpt>
      <trkpt lat="37.77789347805082798004150390625" lon="-107.70097059197723865509033203125">
        <ele>3920.800048828125</ele>
        <time>2023-07-29T16:55:37.000Z</time>
        <extensions>
          <ns3:TrackPointExtension>
            <ns3:hr>133</ns3:hr>
            <ns3:cad>0</ns3:cad>
          </ns3:TrackPointExtension>
        </extensions>
      </trkpt>
      <trkpt lat="37.777891047298908233642578125" lon="-107.70097159780561923980712890625">
        <ele>3920.60009765625</ele>
        <time>2023-07-29T16:55:38.000Z</time>
        <extensions>
          <ns3:TrackPointExtension>
            <ns3:hr>133</ns3:hr>
            <ns3:cad>0</ns3:cad>
          </ns3:TrackPointExtension>
        </extensions>
      </trkpt>
      <trkpt lat="37.77788811363279819488525390625" lon="-107.70097260363399982452392578125">
        <ele>3920.39990234375</ele>
        <time>2023-07-29T16:55:39.000Z</time>
        <extensions>
          <ns3:TrackPointExtension>
            <ns3:hr>133</ns3:hr>
            <ns3:cad>0</ns3:cad>
          </ns3:TrackPointExtension>
        </extensions>
      </trkpt>
      <trkpt lat="37.7778828330338001251220703125" lon="-107.700971849262714385986328125">
        <ele>3920.39990234375</ele>
        <time>2023-07-29T16:55:40.000Z</time>
        <extensions>
          <ns3:TrackPointExtension>
            <ns3:hr>133</ns3:hr>
            <ns3:cad>0</ns3:cad>
          </ns3:TrackPointExtension>
        </extensions>
      </trkpt>
      <trkpt lat="37.7778767980635166168212890625" lon="-107.700974531471729278564453125">
        <ele>3920.199951171875</ele>
        <time>2023-07-29T16:55:41.000Z</time>
        <extensions>
          <ns3:TrackPointExtension>
            <ns3:hr>132</ns3:hr>
            <ns3:cad>0</ns3:cad>
          </ns3:TrackPointExtension>
        </extensions>
      </trkpt>
      <trkpt lat="37.777868248522281646728515625" lon="-107.70097830332815647125244140625">
        <ele>3920</ele>
        <time>2023-07-29T16:55:42.000Z</time>
        <extensions>
          <ns3:TrackPointExtension>
            <ns3:hr>132</ns3:hr>
            <ns3:cad>0</ns3:cad>
          </ns3:TrackPointExtension>
        </extensions>
      </trkpt>
      <trkpt lat="37.77785651385784149169921875" lon="-107.70097997970879077911376953125">
        <ele>3920</ele>
        <time>2023-07-29T16:55:43.000Z</time>
        <extensions>
          <ns3:TrackPointExtension>
            <ns3:hr>132</ns3:hr>
            <ns3:cad>0</ns3:cad>
          </ns3:TrackPointExtension>
        </extensions>
      </trkpt>
      <trkpt lat="37.777848131954669952392578125" lon="-107.7009800635278224945068359375">
        <ele>3920</ele>
        <time>2023-07-29T16:55:44.000Z</time>
        <extensions>
          <ns3:TrackPointExtension>
            <ns3:hr>131</ns3:hr>
            <ns3:cad>0</ns3:cad>
          </ns3:TrackPointExtension>
        </extensions>
      </trkpt>
      <trkpt lat="37.77783564291894435882568359375" lon="-107.70098249427974224090576171875">
        <ele>3920</ele>
        <time>2023-07-29T16:55:45.000Z</time>
        <extensions>
          <ns3:TrackPointExtension>
            <ns3:hr>131</ns3:hr>
            <ns3:cad>0</ns3:cad>
          </ns3:TrackPointExtension>
        </extensions>
      </trkpt>
      <trkpt lat="37.7778278477489948272705078125" lon="-107.70098316483199596405029296875">
        <ele>3920</ele>
        <time>2023-07-29T16:55:46.000Z</time>
        <extensions>
          <ns3:TrackPointExtension>
            <ns3:hr>131</ns3:hr>
            <ns3:cad>0</ns3:cad>
          </ns3:TrackPointExtension>
        </extensions>
      </trkpt>
      <trkpt lat="37.7778218127787113189697265625" lon="-107.70098148845136165618896484375">
        <ele>3919.800048828125</ele>
        <time>2023-07-29T16:55:47.000Z</time>
        <extensions>
          <ns3:TrackPointExtension>
            <ns3:hr>131</ns3:hr>
            <ns3:cad>0</ns3:cad>
          </ns3:TrackPointExtension>
        </extensions>
      </trkpt>
      <trkpt lat="37.77781418524682521820068359375" lon="-107.7009793929755687713623046875">
        <ele>3919.60009765625</ele>
        <time>2023-07-29T16:55:48.000Z</time>
        <extensions>
          <ns3:TrackPointExtension>
            <ns3:hr>130</ns3:hr>
            <ns3:cad>0</ns3:cad>
          </ns3:TrackPointExtension>
        </extensions>
      </trkpt>
      <trkpt lat="37.77780882082879543304443359375" lon="-107.70097553730010986328125">
        <ele>3919.39990234375</ele>
        <time>2023-07-29T16:55:49.000Z</time>
        <extensions>
          <ns3:TrackPointExtension>
            <ns3:hr>130</ns3:hr>
            <ns3:cad>0</ns3:cad>
          </ns3:TrackPointExtension>
        </extensions>
      </trkpt>
      <trkpt lat="37.77780286967754364013671875" lon="-107.70097344182431697845458984375">
        <ele>3919</ele>
        <time>2023-07-29T16:55:50.000Z</time>
        <extensions>
          <ns3:TrackPointExtension>
            <ns3:hr>130</ns3:hr>
            <ns3:cad>0</ns3:cad>
          </ns3:TrackPointExtension>
        </extensions>
      </trkpt>
      <trkpt lat="37.77779792435467243194580078125" lon="-107.70096992142498493194580078125">
        <ele>3918.800048828125</ele>
        <time>2023-07-29T16:55:51.000Z</time>
        <extensions>
          <ns3:TrackPointExtension>
            <ns3:hr>130</ns3:hr>
            <ns3:cad>0</ns3:cad>
          </ns3:TrackPointExtension>
        </extensions>
      </trkpt>
      <trkpt lat="37.77778971008956432342529296875" lon="-107.70096547901630401611328125">
        <ele>3918.60009765625</ele>
        <time>2023-07-29T16:55:52.000Z</time>
        <extensions>
          <ns3:TrackPointExtension>
            <ns3:hr>129</ns3:hr>
            <ns3:cad>0</ns3:cad>
          </ns3:TrackPointExtension>
        </extensions>
      </trkpt>
      <trkpt lat="37.777782417833805084228515625" lon="-107.70096145570278167724609375">
        <ele>3918.39990234375</ele>
        <time>2023-07-29T16:55:53.000Z</time>
        <extensions>
          <ns3:TrackPointExtension>
            <ns3:hr>129</ns3:hr>
            <ns3:cad>0</ns3:cad>
          </ns3:TrackPointExtension>
        </extensions>
      </trkpt>
      <trkpt lat="37.777766324579715728759765625" lon="-107.70095634274184703826904296875">
        <ele>3918.199951171875</ele>
        <time>2023-07-29T16:55:54.000Z</time>
        <extensions>
          <ns3:TrackPointExtension>
            <ns3:hr>129</ns3:hr>
            <ns3:cad>0</ns3:cad>
          </ns3:TrackPointExtension>
        </extensions>
      </trkpt>
      <trkpt lat="37.777752578258514404296875" lon="-107.7009529061615467071533203125">
        <ele>3918</ele>
        <time>2023-07-29T16:55:55.000Z</time>
        <extensions>
          <ns3:TrackPointExtension>
            <ns3:hr>128</ns3:hr>
            <ns3:cad>0</ns3:cad>
          </ns3:TrackPointExtension>
        </extensions>
      </trkpt>
      <trkpt lat="37.7777386642992496490478515625" lon="-107.70094963721930980682373046875">
        <ele>3918</ele>
        <time>2023-07-29T16:55:56.000Z</time>
        <extensions>
          <ns3:TrackPointExtension>
            <ns3:hr>126</ns3:hr>
            <ns3:cad>0</ns3:cad>
          </ns3:TrackPointExtension>
        </extensions>
      </trkpt>
      <trkpt lat="37.777732126414775848388671875" lon="-107.70094812847673892974853515625">
        <ele>3917.800048828125</ele>
        <time>2023-07-29T16:55:57.000Z</time>
        <extensions>
          <ns3:TrackPointExtension>
            <ns3:hr>124</ns3:hr>
            <ns3:cad>0</ns3:cad>
          </ns3:TrackPointExtension>
        </extensions>
      </trkpt>
      <trkpt lat="37.77772776782512664794921875" lon="-107.70094913430511951446533203125">
        <ele>3917.60009765625</ele>
        <time>2023-07-29T16:55:58.000Z</time>
        <extensions>
          <ns3:TrackPointExtension>
            <ns3:hr>123</ns3:hr>
            <ns3:cad>54</ns3:cad>
          </ns3:TrackPointExtension>
        </extensions>
      </trkpt>
      <trkpt lat="37.7777225710451602935791015625" lon="-107.700951732695102691650390625">
        <ele>3917.39990234375</ele>
        <time>2023-07-29T16:55:59.000Z</time>
        <extensions>
          <ns3:TrackPointExtension>
            <ns3:hr>122</ns3:hr>
            <ns3:cad>54</ns3:cad>
          </ns3:TrackPointExtension>
        </extensions>
      </trkpt>
      <trkpt lat="37.777715362608432769775390625" lon="-107.70095349289476871490478515625">
        <ele>3917.39990234375</ele>
        <time>2023-07-29T16:56:00.000Z</time>
        <extensions>
          <ns3:TrackPointExtension>
            <ns3:hr>121</ns3:hr>
            <ns3:cad>54</ns3:cad>
          </ns3:TrackPointExtension>
        </extensions>
      </trkpt>
      <trkpt lat="37.77771167457103729248046875" lon="-107.70095651037991046905517578125">
        <ele>3917.39990234375</ele>
        <time>2023-07-29T16:56:01.000Z</time>
        <extensions>
          <ns3:TrackPointExtension>
            <ns3:hr>120</ns3:hr>
            <ns3:cad>54</ns3:cad>
          </ns3:TrackPointExtension>
        </extensions>
      </trkpt>
      <trkpt lat="37.77770765125751495361328125" lon="-107.7009572647511959075927734375">
        <ele>3917.199951171875</ele>
        <time>2023-07-29T16:56:02.000Z</time>
        <extensions>
          <ns3:TrackPointExtension>
            <ns3:hr>120</ns3:hr>
            <ns3:cad>54</ns3:cad>
          </ns3:TrackPointExtension>
        </extensions>
      </trkpt>
      <trkpt lat="37.77770237065851688385009765625" lon="-107.70095634274184703826904296875">
        <ele>3917.199951171875</ele>
        <time>2023-07-29T16:56:03.000Z</time>
        <extensions>
          <ns3:TrackPointExtension>
            <ns3:hr>120</ns3:hr>
            <ns3:cad>54</ns3:cad>
          </ns3:TrackPointExtension>
        </extensions>
      </trkpt>
      <trkpt lat="37.77769700624048709869384765625" lon="-107.70096036605536937713623046875">
        <ele>3917.199951171875</ele>
        <time>2023-07-29T16:56:04.000Z</time>
        <extensions>
          <ns3:TrackPointExtension>
            <ns3:hr>120</ns3:hr>
            <ns3:cad>0</ns3:cad>
          </ns3:TrackPointExtension>
        </extensions>
      </trkpt>
      <trkpt lat="37.77769030071794986724853515625" lon="-107.7009632997214794158935546875">
        <ele>3917</ele>
        <time>2023-07-29T16:56:05.000Z</time>
        <extensions>
          <ns3:TrackPointExtension>
            <ns3:hr>120</ns3:hr>
            <ns3:cad>0</ns3:cad>
          </ns3:TrackPointExtension>
        </extensions>
      </trkpt>
      <trkpt lat="37.77768409810960292816162109375" lon="-107.70096573047339916229248046875">
        <ele>3917</ele>
        <time>2023-07-29T16:56:06.000Z</time>
        <extensions>
          <ns3:TrackPointExtension>
            <ns3:hr>119</ns3:hr>
            <ns3:cad>0</ns3:cad>
          </ns3:TrackPointExtension>
        </extensions>
      </trkpt>
      <trkpt lat="37.77768082916736602783203125" lon="-107.70096556283533573150634765625">
        <ele>3916.800048828125</ele>
        <time>2023-07-29T16:56:07.000Z</time>
        <extensions>
          <ns3:TrackPointExtension>
            <ns3:hr>119</ns3:hr>
            <ns3:cad>0</ns3:cad>
          </ns3:TrackPointExtension>
        </extensions>
      </trkpt>
      <trkpt lat="37.77767722494900226593017578125" lon="-107.700967490673065185546875">
        <ele>3916.60009765625</ele>
        <time>2023-07-29T16:56:08.000Z</time>
        <extensions>
          <ns3:TrackPointExtension>
            <ns3:hr>119</ns3:hr>
            <ns3:cad>0</ns3:cad>
          </ns3:TrackPointExtension>
        </extensions>
      </trkpt>
      <trkpt lat="37.7776759676635265350341796875" lon="-107.7009688317775726318359375">
        <ele>3916.60009765625</ele>
        <time>2023-07-29T16:56:09.000Z</time>
        <extensions>
          <ns3:TrackPointExtension>
            <ns3:hr>119</ns3:hr>
            <ns3:cad>0</ns3:cad>
          </ns3:TrackPointExtension>
        </extensions>
      </trkpt>
      <trkpt lat="37.7776756323873996734619140625" lon="-107.70096573047339916229248046875">
        <ele>3916.39990234375</ele>
        <time>2023-07-29T16:56:10.000Z</time>
        <extensions>
          <ns3:TrackPointExtension>
            <ns3:hr>119</ns3:hr>
            <ns3:cad>0</ns3:cad>
          </ns3:TrackPointExtension>
        </extensions>
      </trkpt>
      <trkpt lat="37.77767320163547992706298828125" lon="-107.700962126255035400390625">
        <ele>3916.199951171875</ele>
        <time>2023-07-29T16:56:11.000Z</time>
        <extensions>
          <ns3:TrackPointExtension>
            <ns3:hr>119</ns3:hr>
            <ns3:cad>0</ns3:cad>
          </ns3:TrackPointExtension>
        </extensions>
      </trkpt>
      <trkpt lat="37.77767680585384368896484375" lon="-107.70096137188374996185302734375">
        <ele>3916.199951171875</ele>
        <time>2023-07-29T16:56:12.000Z</time>
        <extensions>
          <ns3:TrackPointExtension>
            <ns3:hr>120</ns3:hr>
            <ns3:cad>0</ns3:cad>
          </ns3:TrackPointExtension>
        </extensions>
      </trkpt>
      <trkpt lat="37.7776799909770488739013671875" lon="-107.70095868967473506927490234375">
        <ele>3916.199951171875</ele>
        <time>2023-07-29T16:56:13.000Z</time>
        <extensions>
          <ns3:TrackPointExtension>
            <ns3:hr>120</ns3:hr>
            <ns3:cad>0</ns3:cad>
          </ns3:TrackPointExtension>
        </extensions>
      </trkpt>
      <trkpt lat="37.777678482234477996826171875" lon="-107.700956426560878753662109375">
        <ele>3916</ele>
        <time>2023-07-29T16:56:14.000Z</time>
        <extensions>
          <ns3:TrackPointExtension>
            <ns3:hr>120</ns3:hr>
            <ns3:cad>0</ns3:cad>
          </ns3:TrackPointExtension>
        </extensions>
      </trkpt>
      <trkpt lat="37.77767412364482879638671875" lon="-107.70095768384635448455810546875">
        <ele>3916</ele>
        <time>2023-07-29T16:56:15.000Z</time>
        <extensions>
          <ns3:TrackPointExtension>
            <ns3:hr>120</ns3:hr>
            <ns3:cad>0</ns3:cad>
          </ns3:TrackPointExtension>
        </extensions>
      </trkpt>
      <trkpt lat="37.7776726149022579193115234375" lon="-107.700958438217639923095703125">
        <ele>3916</ele>
        <time>2023-07-29T16:56:16.000Z</time>
        <extensions>
          <ns3:TrackPointExtension>
            <ns3:hr>119</ns3:hr>
            <ns3:cad>0</ns3:cad>
          </ns3:TrackPointExtension>
        </extensions>
      </trkpt>
      <trkpt lat="37.77767051942646503448486328125" lon="-107.7009572647511959075927734375">
        <ele>3916</ele>
        <time>2023-07-29T16:56:17.000Z</time>
        <extensions>
          <ns3:TrackPointExtension>
            <ns3:hr>119</ns3:hr>
            <ns3:cad>0</ns3:cad>
          </ns3:TrackPointExtension>
        </extensions>
      </trkpt>
      <trkpt lat="37.777669094502925872802734375" lon="-107.700956761837005615234375">
        <ele>3916</ele>
        <time>2023-07-29T16:56:18.000Z</time>
        <extensions>
          <ns3:TrackPointExtension>
            <ns3:hr>119</ns3:hr>
            <ns3:cad>0</ns3:cad>
          </ns3:TrackPointExtension>
        </extensions>
      </trkpt>
      <trkpt lat="37.7776654064655303955078125" lon="-107.70095433108508586883544921875">
        <ele>3915.800048828125</ele>
        <time>2023-07-29T16:56:19.000Z</time>
        <extensions>
          <ns3:TrackPointExtension>
            <ns3:hr>119</ns3:hr>
            <ns3:cad>0</ns3:cad>
          </ns3:TrackPointExtension>
        </extensions>
      </trkpt>
      <trkpt lat="37.77766314335167407989501953125" lon="-107.70095433108508586883544921875">
        <ele>3915.800048828125</ele>
        <time>2023-07-29T16:56:20.000Z</time>
        <extensions>
          <ns3:TrackPointExtension>
            <ns3:hr>118</ns3:hr>
            <ns3:cad>0</ns3:cad>
          </ns3:TrackPointExtension>
        </extensions>
      </trkpt>
      <trkpt lat="37.77766431681811809539794921875" lon="-107.70095466636121273040771484375">
        <ele>3915.800048828125</ele>
        <time>2023-07-29T16:56:21.000Z</time>
        <extensions>
          <ns3:TrackPointExtension>
            <ns3:hr>118</ns3:hr>
            <ns3:cad>0</ns3:cad>
          </ns3:TrackPointExtension>
        </extensions>
      </trkpt>
      <trkpt lat="37.77766565792262554168701171875" lon="-107.7009559236466884613037109375">
        <ele>3915.800048828125</ele>
        <time>2023-07-29T16:56:22.000Z</time>
        <extensions>
          <ns3:TrackPointExtension>
            <ns3:hr>118</ns3:hr>
            <ns3:cad>0</ns3:cad>
          </ns3:TrackPointExtension>
        </extensions>
      </trkpt>
      <trkpt lat="37.77766314335167407989501953125" lon="-107.7009562589228153228759765625">
        <ele>3915.60009765625</ele>
        <time>2023-07-29T16:56:23.000Z</time>
        <extensions>
          <ns3:TrackPointExtension>
            <ns3:hr>117</ns3:hr>
            <ns3:cad>0</ns3:cad>
          </ns3:TrackPointExtension>
        </extensions>
      </trkpt>
      <trkpt lat="37.77766205370426177978515625" lon="-107.70095801912248134613037109375">
        <ele>3915.60009765625</ele>
        <time>2023-07-29T16:56:24.000Z</time>
        <extensions>
          <ns3:TrackPointExtension>
            <ns3:hr>117</ns3:hr>
            <ns3:cad>0</ns3:cad>
          </ns3:TrackPointExtension>
        </extensions>
      </trkpt>
      <trkpt lat="37.7776588685810565948486328125" lon="-107.70096237771213054656982421875">
        <ele>3915.39990234375</ele>
        <time>2023-07-29T16:56:25.000Z</time>
        <extensions>
          <ns3:TrackPointExtension>
            <ns3:hr>118</ns3:hr>
            <ns3:cad>0</ns3:cad>
          </ns3:TrackPointExtension>
        </extensions>
      </trkpt>
      <trkpt lat="37.77765342034399509429931640625" lon="-107.700967490673065185546875">
        <ele>3915.199951171875</ele>
        <time>2023-07-29T16:56:26.000Z</time>
        <extensions>
          <ns3:TrackPointExtension>
            <ns3:hr>119</ns3:hr>
            <ns3:cad>0</ns3:cad>
          </ns3:TrackPointExtension>
        </extensions>
      </trkpt>
      <trkpt lat="37.77764327824115753173828125" lon="-107.7009716816246509552001953125">
        <ele>3915.199951171875</ele>
        <time>2023-07-29T16:56:27.000Z</time>
        <extensions>
          <ns3:TrackPointExtension>
            <ns3:hr>120</ns3:hr>
            <ns3:cad>0</ns3:cad>
          </ns3:TrackPointExtension>
        </extensions>
      </trkpt>
      <trkpt lat="37.77763791382312774658203125" lon="-107.7009750343859195709228515625">
        <ele>3915.199951171875</ele>
        <time>2023-07-29T16:56:28.000Z</time>
        <extensions>
          <ns3:TrackPointExtension>
            <ns3:hr>120</ns3:hr>
            <ns3:cad>0</ns3:cad>
          </ns3:TrackPointExtension>
        </extensions>
      </trkpt>
      <trkpt lat="37.77763179503381252288818359375" lon="-107.700980566442012786865234375">
        <ele>3915.199951171875</ele>
        <time>2023-07-29T16:56:29.000Z</time>
        <extensions>
          <ns3:TrackPointExtension>
            <ns3:hr>120</ns3:hr>
            <ns3:cad>0</ns3:cad>
          </ns3:TrackPointExtension>
        </extensions>
      </trkpt>
      <trkpt lat="37.77762777172029018402099609375" lon="-107.7009830810129642486572265625">
        <ele>3915.199951171875</ele>
        <time>2023-07-29T16:56:30.000Z</time>
        <extensions>
          <ns3:TrackPointExtension>
            <ns3:hr>120</ns3:hr>
            <ns3:cad>0</ns3:cad>
          </ns3:TrackPointExtension>
        </extensions>
      </trkpt>
      <trkpt lat="37.777626514434814453125" lon="-107.70098500885069370269775390625">
        <ele>3915</ele>
        <time>2023-07-29T16:56:31.000Z</time>
        <extensions>
          <ns3:TrackPointExtension>
            <ns3:hr>119</ns3:hr>
            <ns3:cad>0</ns3:cad>
          </ns3:TrackPointExtension>
        </extensions>
      </trkpt>
      <trkpt lat="37.77762316167354583740234375" lon="-107.70098626613616943359375">
        <ele>3915</ele>
        <time>2023-07-29T16:56:32.000Z</time>
        <extensions>
          <ns3:TrackPointExtension>
            <ns3:hr>119</ns3:hr>
            <ns3:cad>0</ns3:cad>
          </ns3:TrackPointExtension>
        </extensions>
      </trkpt>
      <trkpt lat="37.777620144188404083251953125" lon="-107.70098735578358173370361328125">
        <ele>3914.60009765625</ele>
        <time>2023-07-29T16:56:33.000Z</time>
        <extensions>
          <ns3:TrackPointExtension>
            <ns3:hr>118</ns3:hr>
            <ns3:cad>0</ns3:cad>
          </ns3:TrackPointExtension>
        </extensions>
      </trkpt>
      <trkpt lat="37.7776152826845645904541015625" lon="-107.700991295278072357177734375">
        <ele>3914.39990234375</ele>
        <time>2023-07-29T16:56:34.000Z</time>
        <extensions>
          <ns3:TrackPointExtension>
            <ns3:hr>117</ns3:hr>
            <ns3:cad>0</ns3:cad>
          </ns3:TrackPointExtension>
        </extensions>
      </trkpt>
      <trkpt lat="37.77761553414165973663330078125" lon="-107.7009891159832477569580078125">
        <ele>3914.39990234375</ele>
        <time>2023-07-29T16:56:35.000Z</time>
        <extensions>
          <ns3:TrackPointExtension>
            <ns3:hr>117</ns3:hr>
            <ns3:cad>0</ns3:cad>
          </ns3:TrackPointExtension>
        </extensions>
      </trkpt>
      <trkpt lat="37.7776142768561840057373046875" lon="-107.70098702050745487213134765625">
        <ele>3914.199951171875</ele>
        <time>2023-07-29T16:56:36.000Z</time>
        <extensions>
          <ns3:TrackPointExtension>
            <ns3:hr>116</ns3:hr>
            <ns3:cad>0</ns3:cad>
          </ns3:TrackPointExtension>
        </extensions>
      </trkpt>
      <trkpt lat="37.77761042118072509765625" lon="-107.70098769105970859527587890625">
        <ele>3914</ele>
        <time>2023-07-29T16:56:37.000Z</time>
        <extensions>
          <ns3:TrackPointExtension>
            <ns3:hr>116</ns3:hr>
            <ns3:cad>0</ns3:cad>
          </ns3:TrackPointExtension>
        </extensions>
      </trkpt>
      <trkpt lat="37.77760975062847137451171875" lon="-107.7009891159832477569580078125">
        <ele>3913.800048828125</ele>
        <time>2023-07-29T16:56:38.000Z</time>
        <extensions>
          <ns3:TrackPointExtension>
            <ns3:hr>116</ns3:hr>
            <ns3:cad>0</ns3:cad>
          </ns3:TrackPointExtension>
        </extensions>
      </trkpt>
      <trkpt lat="37.7776102535426616668701171875" lon="-107.70098718814551830291748046875">
        <ele>3913.60009765625</ele>
        <time>2023-07-29T16:56:39.000Z</time>
        <extensions>
          <ns3:TrackPointExtension>
            <ns3:hr>115</ns3:hr>
            <ns3:cad>0</ns3:cad>
          </ns3:TrackPointExtension>
        </extensions>
      </trkpt>
      <trkpt lat="37.7776063978672027587890625" lon="-107.70098584704101085662841796875">
        <ele>3913.60009765625</ele>
        <time>2023-07-29T16:56:40.000Z</time>
        <extensions>
          <ns3:TrackPointExtension>
            <ns3:hr>115</ns3:hr>
            <ns3:cad>41</ns3:cad>
          </ns3:TrackPointExtension>
        </extensions>
      </trkpt>
      <trkpt lat="37.77760413475334644317626953125" lon="-107.70098425447940826416015625">
        <ele>3913.60009765625</ele>
        <time>2023-07-29T16:56:41.000Z</time>
        <extensions>
          <ns3:TrackPointExtension>
            <ns3:hr>115</ns3:hr>
            <ns3:cad>41</ns3:cad>
          </ns3:TrackPointExtension>
        </extensions>
      </trkpt>
      <trkpt lat="37.777599357068538665771484375" lon="-107.70098601467907428741455078125">
        <ele>3913.39990234375</ele>
        <time>2023-07-29T16:56:42.000Z</time>
        <extensions>
          <ns3:TrackPointExtension>
            <ns3:hr>114</ns3:hr>
            <ns3:cad>41</ns3:cad>
          </ns3:TrackPointExtension>
        </extensions>
      </trkpt>
      <trkpt lat="37.777589298784732818603515625" lon="-107.700983919203281402587890625">
        <ele>3913.39990234375</ele>
        <time>2023-07-29T16:56:43.000Z</time>
        <extensions>
          <ns3:TrackPointExtension>
            <ns3:hr>112</ns3:hr>
            <ns3:cad>41</ns3:cad>
          </ns3:TrackPointExtension>
        </extensions>
      </trkpt>
      <trkpt lat="37.77758183889091014862060546875" lon="-107.7009800635278224945068359375">
        <ele>3913.39990234375</ele>
        <time>2023-07-29T16:56:44.000Z</time>
        <extensions>
          <ns3:TrackPointExtension>
            <ns3:hr>111</ns3:hr>
            <ns3:cad>41</ns3:cad>
          </ns3:TrackPointExtension>
        </extensions>
      </trkpt>
      <trkpt lat="37.7775733731687068939208984375" lon="-107.70097595639526844024658203125">
        <ele>3913.199951171875</ele>
        <time>2023-07-29T16:56:45.000Z</time>
        <extensions>
          <ns3:TrackPointExtension>
            <ns3:hr>111</ns3:hr>
            <ns3:cad>41</ns3:cad>
          </ns3:TrackPointExtension>
        </extensions>
      </trkpt>
      <trkpt lat="37.77756272815167903900146484375" lon="-107.70096975378692150115966796875">
        <ele>3913.199951171875</ele>
        <time>2023-07-29T16:56:46.000Z</time>
        <extensions>
          <ns3:TrackPointExtension>
            <ns3:hr>110</ns3:hr>
            <ns3:cad>41</ns3:cad>
          </ns3:TrackPointExtension>
        </extensions>
      </trkpt>
      <trkpt lat="37.77755350805819034576416015625" lon="-107.70096472464501857757568359375">
        <ele>3913.199951171875</ele>
        <time>2023-07-29T16:56:47.000Z</time>
        <extensions>
          <ns3:TrackPointExtension>
            <ns3:hr>110</ns3:hr>
            <ns3:cad>41</ns3:cad>
          </ns3:TrackPointExtension>
        </extensions>
      </trkpt>
      <trkpt lat="37.77754948474466800689697265625" lon="-107.70096011459827423095703125">
        <ele>3913.199951171875</ele>
        <time>2023-07-29T16:56:48.000Z</time>
        <extensions>
          <ns3:TrackPointExtension>
            <ns3:hr>110</ns3:hr>
            <ns3:cad>41</ns3:cad>
          </ns3:TrackPointExtension>
        </extensions>
      </trkpt>
      <trkpt lat="37.77753959409892559051513671875" lon="-107.70095206797122955322265625">
        <ele>3913.39990234375</ele>
        <time>2023-07-29T16:56:49.000Z</time>
        <extensions>
          <ns3:TrackPointExtension>
            <ns3:hr>110</ns3:hr>
            <ns3:cad>41</ns3:cad>
          </ns3:TrackPointExtension>
        </extensions>
      </trkpt>
      <trkpt lat="37.77752886526286602020263671875" lon="-107.70094410516321659088134765625">
        <ele>3913.39990234375</ele>
        <time>2023-07-29T16:56:50.000Z</time>
        <extensions>
          <ns3:TrackPointExtension>
            <ns3:hr>109</ns3:hr>
            <ns3:cad>41</ns3:cad>
          </ns3:TrackPointExtension>
        </extensions>
      </trkpt>
      <trkpt lat="37.77752031572163105010986328125" lon="-107.700939662754535675048828125">
        <ele>3913.60009765625</ele>
        <time>2023-07-29T16:56:51.000Z</time>
        <extensions>
          <ns3:TrackPointExtension>
            <ns3:hr>109</ns3:hr>
            <ns3:cad>0</ns3:cad>
          </ns3:TrackPointExtension>
        </extensions>
      </trkpt>
      <trkpt lat="37.7775130234658718109130859375" lon="-107.7009358070790767669677734375">
        <ele>3913.800048828125</ele>
        <time>2023-07-29T16:56:52.000Z</time>
        <extensions>
          <ns3:TrackPointExtension>
            <ns3:hr>109</ns3:hr>
            <ns3:cad>0</ns3:cad>
          </ns3:TrackPointExtension>
        </extensions>
      </trkpt>
      <trkpt lat="37.777505815029144287109375" lon="-107.70093287341296672821044921875">
        <ele>3914</ele>
        <time>2023-07-29T16:56:53.000Z</time>
        <extensions>
          <ns3:TrackPointExtension>
            <ns3:hr>109</ns3:hr>
            <ns3:cad>48</ns3:cad>
          </ns3:TrackPointExtension>
        </extensions>
      </trkpt>
      <trkpt lat="37.7775006182491779327392578125" lon="-107.70093102939426898956298828125">
        <ele>3914.199951171875</ele>
        <time>2023-07-29T16:56:54.000Z</time>
        <extensions>
          <ns3:TrackPointExtension>
            <ns3:hr>109</ns3:hr>
            <ns3:cad>48</ns3:cad>
          </ns3:TrackPointExtension>
        </extensions>
      </trkpt>
      <trkpt lat="37.77749517001211643218994140625" lon="-107.70093086175620555877685546875">
        <ele>3914.39990234375</ele>
        <time>2023-07-29T16:56:55.000Z</time>
        <extensions>
          <ns3:TrackPointExtension>
            <ns3:hr>109</ns3:hr>
            <ns3:cad>48</ns3:cad>
          </ns3:TrackPointExtension>
        </extensions>
      </trkpt>
      <trkpt lat="37.77749198488891124725341796875" lon="-107.70093195140361785888671875">
        <ele>3914.39990234375</ele>
        <time>2023-07-29T16:56:56.000Z</time>
        <extensions>
          <ns3:TrackPointExtension>
            <ns3:hr>109</ns3:hr>
            <ns3:cad>0</ns3:cad>
          </ns3:TrackPointExtension>
        </extensions>
      </trkpt>
      <trkpt lat="37.77749064378440380096435546875" lon="-107.7009341306984424591064453125">
        <ele>3914.39990234375</ele>
        <time>2023-07-29T16:56:57.000Z</time>
        <extensions>
          <ns3:TrackPointExtension>
            <ns3:hr>109</ns3:hr>
            <ns3:cad>0</ns3:cad>
          </ns3:TrackPointExtension>
        </extensions>
      </trkpt>
      <trkpt lat="37.77749332599341869354248046875" lon="-107.70094670355319976806640625">
        <ele>3914.39990234375</ele>
        <time>2023-07-29T16:56:58.000Z</time>
        <extensions>
          <ns3:TrackPointExtension>
            <ns3:hr>109</ns3:hr>
            <ns3:cad>0</ns3:cad>
          </ns3:TrackPointExtension>
        </extensions>
      </trkpt>
      <trkpt lat="37.7774969302117824554443359375" lon="-107.70094863139092922210693359375">
        <ele>3914.39990234375</ele>
        <time>2023-07-29T16:56:59.000Z</time>
        <extensions>
          <ns3:TrackPointExtension>
            <ns3:hr>108</ns3:hr>
            <ns3:cad>0</ns3:cad>
          </ns3:TrackPointExtension>
        </extensions>
      </trkpt>
      <trkpt lat="37.7774972654879093170166015625" lon="-107.70095936022698879241943359375">
        <ele>3914.39990234375</ele>
        <time>2023-07-29T16:57:00.000Z</time>
        <extensions>
          <ns3:TrackPointExtension>
            <ns3:hr>108</ns3:hr>
            <ns3:cad>0</ns3:cad>
          </ns3:TrackPointExtension>
        </extensions>
      </trkpt>
      <trkpt lat="37.77749215252697467803955078125" lon="-107.70096371881663799285888671875">
        <ele>3914.39990234375</ele>
        <time>2023-07-29T16:57:01.000Z</time>
        <extensions>
          <ns3:TrackPointExtension>
            <ns3:hr>108</ns3:hr>
            <ns3:cad>0</ns3:cad>
          </ns3:TrackPointExtension>
        </extensions>
      </trkpt>
      <trkpt lat="37.77748293243348598480224609375" lon="-107.70097645930945873260498046875">
        <ele>3914.60009765625</ele>
        <time>2023-07-29T16:57:02.000Z</time>
        <extensions>
          <ns3:TrackPointExtension>
            <ns3:hr>108</ns3:hr>
            <ns3:cad>0</ns3:cad>
          </ns3:TrackPointExtension>
        </extensions>
      </trkpt>
      <trkpt lat="37.77747555635869503021240234375" lon="-107.700980566442012786865234375">
        <ele>3914.60009765625</ele>
        <time>2023-07-29T16:57:03.000Z</time>
        <extensions>
          <ns3:TrackPointExtension>
            <ns3:hr>108</ns3:hr>
            <ns3:cad>0</ns3:cad>
          </ns3:TrackPointExtension>
        </extensions>
      </trkpt>
      <trkpt lat="37.777471952140331268310546875" lon="-107.700978554785251617431640625">
        <ele>3914.60009765625</ele>
        <time>2023-07-29T16:57:04.000Z</time>
        <extensions>
          <ns3:TrackPointExtension>
            <ns3:hr>108</ns3:hr>
            <ns3:cad>0</ns3:cad>
          </ns3:TrackPointExtension>
        </extensions>
      </trkpt>
      <trkpt lat="37.7774667553603649139404296875" lon="-107.70097461529076099395751953125">
        <ele>3914.60009765625</ele>
        <time>2023-07-29T16:57:05.000Z</time>
        <extensions>
          <ns3:TrackPointExtension>
            <ns3:hr>108</ns3:hr>
            <ns3:cad>0</ns3:cad>
          </ns3:TrackPointExtension>
        </extensions>
      </trkpt>
      <trkpt lat="37.777457535266876220703125" lon="-107.70096958614885807037353515625">
        <ele>3914.60009765625</ele>
        <time>2023-07-29T16:57:06.000Z</time>
        <extensions>
          <ns3:TrackPointExtension>
            <ns3:hr>108</ns3:hr>
            <ns3:cad>0</ns3:cad>
          </ns3:TrackPointExtension>
        </extensions>
      </trkpt>
      <trkpt lat="37.77744839899241924285888671875" lon="-107.70096413791179656982421875">
        <ele>3914.60009765625</ele>
        <time>2023-07-29T16:57:07.000Z</time>
        <extensions>
          <ns3:TrackPointExtension>
            <ns3:hr>108</ns3:hr>
            <ns3:cad>0</ns3:cad>
          </ns3:TrackPointExtension>
        </extensions>
      </trkpt>
      <trkpt lat="37.777439765632152557373046875" lon="-107.70095969550311565399169921875">
        <ele>3914.60009765625</ele>
        <time>2023-07-29T16:57:08.000Z</time>
        <extensions>
          <ns3:TrackPointExtension>
            <ns3:hr>108</ns3:hr>
            <ns3:cad>0</ns3:cad>
          </ns3:TrackPointExtension>
        </extensions>
      </trkpt>
      <trkpt lat="37.7774385921657085418701171875" lon="-107.7009549178183078765869140625">
        <ele>3914.800048828125</ele>
        <time>2023-07-29T16:57:09.000Z</time>
        <extensions>
          <ns3:TrackPointExtension>
            <ns3:hr>108</ns3:hr>
            <ns3:cad>0</ns3:cad>
          </ns3:TrackPointExtension>
        </extensions>
      </trkpt>
      <trkpt lat="37.777434401214122772216796875" lon="-107.700951062142848968505859375">
        <ele>3914.800048828125</ele>
        <time>2023-07-29T16:57:10.000Z</time>
        <extensions>
          <ns3:TrackPointExtension>
            <ns3:hr>107</ns3:hr>
            <ns3:cad>43</ns3:cad>
          </ns3:TrackPointExtension>
        </extensions>
      </trkpt>
      <trkpt lat="37.77742409147322177886962890625" lon="-107.70094444043934345245361328125">
        <ele>3914.800048828125</ele>
        <time>2023-07-29T16:57:11.000Z</time>
        <extensions>
          <ns3:TrackPointExtension>
            <ns3:hr>107</ns3:hr>
            <ns3:cad>43</ns3:cad>
          </ns3:TrackPointExtension>
        </extensions>
      </trkpt>
      <trkpt lat="37.77741805650293827056884765625" lon="-107.700937651097774505615234375">
        <ele>3914.800048828125</ele>
        <time>2023-07-29T16:57:12.000Z</time>
        <extensions>
          <ns3:TrackPointExtension>
            <ns3:hr>107</ns3:hr>
            <ns3:cad>43</ns3:cad>
          </ns3:TrackPointExtension>
        </extensions>
      </trkpt>
      <trkpt lat="37.77740950696170330047607421875" lon="-107.7009287662804126739501953125">
        <ele>3914.800048828125</ele>
        <time>2023-07-29T16:57:13.000Z</time>
        <extensions>
          <ns3:TrackPointExtension>
            <ns3:hr>107</ns3:hr>
            <ns3:cad>43</ns3:cad>
          </ns3:TrackPointExtension>
        </extensions>
      </trkpt>
      <trkpt lat="37.7774053998291492462158203125" lon="-107.7009232342243194580078125">
        <ele>3915</ele>
        <time>2023-07-29T16:57:14.000Z</time>
        <extensions>
          <ns3:TrackPointExtension>
            <ns3:hr>106</ns3:hr>
            <ns3:cad>40</ns3:cad>
          </ns3:TrackPointExtension>
        </extensions>
      </trkpt>
      <trkpt lat="37.7774007059633731842041015625" lon="-107.70091476850211620330810546875">
        <ele>3915</ele>
        <time>2023-07-29T16:57:15.000Z</time>
        <extensions>
          <ns3:TrackPointExtension>
            <ns3:hr>106</ns3:hr>
            <ns3:cad>40</ns3:cad>
          </ns3:TrackPointExtension>
        </extensions>
      </trkpt>
      <trkpt lat="37.77739743702113628387451171875" lon="-107.70090705715119838714599609375">
        <ele>3915</ele>
        <time>2023-07-29T16:57:16.000Z</time>
        <extensions>
          <ns3:TrackPointExtension>
            <ns3:hr>106</ns3:hr>
            <ns3:cad>0</ns3:cad>
          </ns3:TrackPointExtension>
        </extensions>
      </trkpt>
      <trkpt lat="37.777389474213123321533203125" lon="-107.70089766941964626312255859375">
        <ele>3915.199951171875</ele>
        <time>2023-07-29T16:57:17.000Z</time>
        <extensions>
          <ns3:TrackPointExtension>
            <ns3:hr>106</ns3:hr>
            <ns3:cad>0</ns3:cad>
          </ns3:TrackPointExtension>
        </extensions>
      </trkpt>
      <trkpt lat="37.77738436125218868255615234375" lon="-107.70089213736355304718017578125">
        <ele>3915.39990234375</ele>
        <time>2023-07-29T16:57:18.000Z</time>
        <extensions>
          <ns3:TrackPointExtension>
            <ns3:hr>105</ns3:hr>
            <ns3:cad>0</ns3:cad>
          </ns3:TrackPointExtension>
        </extensions>
      </trkpt>
      <trkpt lat="37.7773758955299854278564453125" lon="-107.70088191144168376922607421875">
        <ele>3915.39990234375</ele>
        <time>2023-07-29T16:57:19.000Z</time>
        <extensions>
          <ns3:TrackPointExtension>
            <ns3:hr>105</ns3:hr>
            <ns3:cad>0</ns3:cad>
          </ns3:TrackPointExtension>
        </extensions>
      </trkpt>
      <trkpt lat="37.7773688547313213348388671875" lon="-107.70087503828108310699462890625">
        <ele>3915.800048828125</ele>
        <time>2023-07-29T16:57:20.000Z</time>
        <extensions>
          <ns3:TrackPointExtension>
            <ns3:hr>105</ns3:hr>
            <ns3:cad>0</ns3:cad>
          </ns3:TrackPointExtension>
        </extensions>
      </trkpt>
      <trkpt lat="37.7773648314177989959716796875" lon="-107.70086883567273616790771484375">
        <ele>3916</ele>
        <time>2023-07-29T16:57:21.000Z</time>
        <extensions>
          <ns3:TrackPointExtension>
            <ns3:hr>105</ns3:hr>
            <ns3:cad>0</ns3:cad>
          </ns3:TrackPointExtension>
        </extensions>
      </trkpt>
      <trkpt lat="37.77736022137105464935302734375" lon="-107.7008630521595478057861328125">
        <ele>3916.199951171875</ele>
        <time>2023-07-29T16:57:22.000Z</time>
        <extensions>
          <ns3:TrackPointExtension>
            <ns3:hr>105</ns3:hr>
            <ns3:cad>0</ns3:cad>
          </ns3:TrackPointExtension>
        </extensions>
      </trkpt>
      <trkpt lat="37.77735385112464427947998046875" lon="-107.700856514275074005126953125">
        <ele>3916.39990234375</ele>
        <time>2023-07-29T16:57:23.000Z</time>
        <extensions>
          <ns3:TrackPointExtension>
            <ns3:hr>106</ns3:hr>
            <ns3:cad>0</ns3:cad>
          </ns3:TrackPointExtension>
        </extensions>
      </trkpt>
      <trkpt lat="37.7773440442979335784912109375" lon="-107.70085106603801250457763671875">
        <ele>3916.60009765625</ele>
        <time>2023-07-29T16:57:24.000Z</time>
        <extensions>
          <ns3:TrackPointExtension>
            <ns3:hr>106</ns3:hr>
            <ns3:cad>0</ns3:cad>
          </ns3:TrackPointExtension>
        </extensions>
      </trkpt>
      <trkpt lat="37.7773386798799037933349609375" lon="-107.7008472941815853118896484375">
        <ele>3917</ele>
        <time>2023-07-29T16:57:25.000Z</time>
        <extensions>
          <ns3:TrackPointExtension>
            <ns3:hr>107</ns3:hr>
            <ns3:cad>0</ns3:cad>
          </ns3:TrackPointExtension>
        </extensions>
      </trkpt>
      <trkpt lat="37.7773266099393367767333984375" lon="-107.7008439414203166961669921875">
        <ele>3917</ele>
        <time>2023-07-29T16:57:26.000Z</time>
        <extensions>
          <ns3:TrackPointExtension>
            <ns3:hr>107</ns3:hr>
            <ns3:cad>0</ns3:cad>
          </ns3:TrackPointExtension>
        </extensions>
      </trkpt>
      <trkpt lat="37.7773155458271503448486328125" lon="-107.700839750468730926513671875">
        <ele>3917.199951171875</ele>
        <time>2023-07-29T16:57:27.000Z</time>
        <extensions>
          <ns3:TrackPointExtension>
            <ns3:hr>108</ns3:hr>
            <ns3:cad>0</ns3:cad>
          </ns3:TrackPointExtension>
        </extensions>
      </trkpt>
      <trkpt lat="37.777309678494930267333984375" lon="-107.7008399181067943572998046875">
        <ele>3917.39990234375</ele>
        <time>2023-07-29T16:57:28.000Z</time>
        <extensions>
          <ns3:TrackPointExtension>
            <ns3:hr>108</ns3:hr>
            <ns3:cad>0</ns3:cad>
          </ns3:TrackPointExtension>
        </extensions>
      </trkpt>
      <trkpt lat="37.77729936875402927398681640625" lon="-107.700839750468730926513671875">
        <ele>3917.39990234375</ele>
        <time>2023-07-29T16:57:29.000Z</time>
        <extensions>
          <ns3:TrackPointExtension>
            <ns3:hr>108</ns3:hr>
            <ns3:cad>47</ns3:cad>
          </ns3:TrackPointExtension>
        </extensions>
      </trkpt>
      <trkpt lat="37.77728729881346225738525390625" lon="-107.7008432708680629730224609375">
        <ele>3917.39990234375</ele>
        <time>2023-07-29T16:57:30.000Z</time>
        <extensions>
          <ns3:TrackPointExtension>
            <ns3:hr>108</ns3:hr>
            <ns3:cad>48</ns3:cad>
          </ns3:TrackPointExtension>
        </extensions>
      </trkpt>
      <trkpt lat="37.7772724628448486328125" lon="-107.7008436061441898345947265625">
        <ele>3917.39990234375</ele>
        <time>2023-07-29T16:57:31.000Z</time>
        <extensions>
          <ns3:TrackPointExtension>
            <ns3:hr>109</ns3:hr>
            <ns3:cad>49</ns3:cad>
          </ns3:TrackPointExtension>
        </extensions>
      </trkpt>
      <trkpt lat="37.77725595049560070037841796875" lon="-107.7008429355919361114501953125">
        <ele>3917.39990234375</ele>
        <time>2023-07-29T16:57:32.000Z</time>
        <extensions>
          <ns3:TrackPointExtension>
            <ns3:hr>109</ns3:hr>
            <ns3:cad>49</ns3:cad>
          </ns3:TrackPointExtension>
        </extensions>
      </trkpt>
      <trkpt lat="37.77724069543182849884033203125" lon="-107.7008427679538726806640625">
        <ele>3917.39990234375</ele>
        <time>2023-07-29T16:57:33.000Z</time>
        <extensions>
          <ns3:TrackPointExtension>
            <ns3:hr>110</ns3:hr>
            <ns3:cad>49</ns3:cad>
          </ns3:TrackPointExtension>
        </extensions>
      </trkpt>
      <trkpt lat="37.7772206626832485198974609375" lon="-107.700840421020984649658203125">
        <ele>3917.39990234375</ele>
        <time>2023-07-29T16:57:34.000Z</time>
        <extensions>
          <ns3:TrackPointExtension>
            <ns3:hr>110</ns3:hr>
            <ns3:cad>49</ns3:cad>
          </ns3:TrackPointExtension>
        </extensions>
      </trkpt>
      <trkpt lat="37.7772035636007785797119140625" lon="-107.70083446986973285675048828125">
        <ele>3917.39990234375</ele>
        <time>2023-07-29T16:57:35.000Z</time>
        <extensions>
          <ns3:TrackPointExtension>
            <ns3:hr>110</ns3:hr>
            <ns3:cad>49</ns3:cad>
          </ns3:TrackPointExtension>
        </extensions>
      </trkpt>
      <trkpt lat="37.7771945111453533172607421875" lon="-107.70083078183233737945556640625">
        <ele>3917.39990234375</ele>
        <time>2023-07-29T16:57:36.000Z</time>
        <extensions>
          <ns3:TrackPointExtension>
            <ns3:hr>111</ns3:hr>
            <ns3:cad>49</ns3:cad>
          </ns3:TrackPointExtension>
        </extensions>
      </trkpt>
      <trkpt lat="37.777180261909961700439453125" lon="-107.70082457922399044036865234375">
        <ele>3917.60009765625</ele>
        <time>2023-07-29T16:57:37.000Z</time>
        <extensions>
          <ns3:TrackPointExtension>
            <ns3:hr>112</ns3:hr>
            <ns3:cad>49</ns3:cad>
          </ns3:TrackPointExtension>
        </extensions>
      </trkpt>
      <trkpt lat="37.77716676704585552215576171875" lon="-107.70082038827240467071533203125">
        <ele>3917.800048828125</ele>
        <time>2023-07-29T16:57:38.000Z</time>
        <extensions>
          <ns3:TrackPointExtension>
            <ns3:hr>112</ns3:hr>
            <ns3:cad>49</ns3:cad>
          </ns3:TrackPointExtension>
        </extensions>
      </trkpt>
      <trkpt lat="37.77716492302715778350830078125" lon="-107.700816281139850616455078125">
        <ele>3917.800048828125</ele>
        <time>2023-07-29T16:57:39.000Z</time>
        <extensions>
          <ns3:TrackPointExtension>
            <ns3:hr>112</ns3:hr>
            <ns3:cad>49</ns3:cad>
          </ns3:TrackPointExtension>
        </extensions>
      </trkpt>
      <trkpt lat="37.777151763439178466796875" lon="-107.700816281139850616455078125">
        <ele>3917.800048828125</ele>
        <time>2023-07-29T16:57:40.000Z</time>
        <extensions>
          <ns3:TrackPointExtension>
            <ns3:hr>112</ns3:hr>
            <ns3:cad>49</ns3:cad>
          </ns3:TrackPointExtension>
        </extensions>
      </trkpt>
      <trkpt lat="37.777140699326992034912109375" lon="-107.70081787370145320892333984375">
        <ele>3918.199951171875</ele>
        <time>2023-07-29T16:57:41.000Z</time>
        <extensions>
          <ns3:TrackPointExtension>
            <ns3:hr>112</ns3:hr>
            <ns3:cad>49</ns3:cad>
          </ns3:TrackPointExtension>
        </extensions>
      </trkpt>
      <trkpt lat="37.77712653391063213348388671875" lon="-107.70081887952983379364013671875">
        <ele>3918.199951171875</ele>
        <time>2023-07-29T16:57:42.000Z</time>
        <extensions>
          <ns3:TrackPointExtension>
            <ns3:hr>112</ns3:hr>
            <ns3:cad>49</ns3:cad>
          </ns3:TrackPointExtension>
        </extensions>
      </trkpt>
      <trkpt lat="37.7771137095987796783447265625" lon="-107.7008198015391826629638671875">
        <ele>3918.39990234375</ele>
        <time>2023-07-29T16:57:43.000Z</time>
        <extensions>
          <ns3:TrackPointExtension>
            <ns3:hr>112</ns3:hr>
            <ns3:cad>0</ns3:cad>
          </ns3:TrackPointExtension>
        </extensions>
      </trkpt>
      <trkpt lat="37.77710239402949810028076171875" lon="-107.7008208073675632476806640625">
        <ele>3918.39990234375</ele>
        <time>2023-07-29T16:57:44.000Z</time>
        <extensions>
          <ns3:TrackPointExtension>
            <ns3:hr>112</ns3:hr>
            <ns3:cad>0</ns3:cad>
          </ns3:TrackPointExtension>
        </extensions>
      </trkpt>
      <trkpt lat="37.7770919166505336761474609375" lon="-107.70081921480596065521240234375">
        <ele>3918.39990234375</ele>
        <time>2023-07-29T16:57:45.000Z</time>
        <extensions>
          <ns3:TrackPointExtension>
            <ns3:hr>113</ns3:hr>
            <ns3:cad>0</ns3:cad>
          </ns3:TrackPointExtension>
        </extensions>
      </trkpt>
      <trkpt lat="37.77708361856639385223388671875" lon="-107.70082005299627780914306640625">
        <ele>3918.60009765625</ele>
        <time>2023-07-29T16:57:46.000Z</time>
        <extensions>
          <ns3:TrackPointExtension>
            <ns3:hr>113</ns3:hr>
            <ns3:cad>0</ns3:cad>
          </ns3:TrackPointExtension>
        </extensions>
      </trkpt>
      <trkpt lat="37.7770724706351757049560546875" lon="-107.7008208073675632476806640625">
        <ele>3918.60009765625</ele>
        <time>2023-07-29T16:57:47.000Z</time>
        <extensions>
          <ns3:TrackPointExtension>
            <ns3:hr>114</ns3:hr>
            <ns3:cad>0</ns3:cad>
          </ns3:TrackPointExtension>
        </extensions>
      </trkpt>
      <trkpt lat="37.7770610712468624114990234375" lon="-107.700820304453372955322265625">
        <ele>3918.60009765625</ele>
        <time>2023-07-29T16:57:48.000Z</time>
        <extensions>
          <ns3:TrackPointExtension>
            <ns3:hr>114</ns3:hr>
            <ns3:cad>0</ns3:cad>
          </ns3:TrackPointExtension>
        </extensions>
      </trkpt>
      <trkpt lat="37.7770426310598850250244140625" lon="-107.700818292796611785888671875">
        <ele>3918.60009765625</ele>
        <time>2023-07-29T16:57:49.000Z</time>
        <extensions>
          <ns3:TrackPointExtension>
            <ns3:hr>114</ns3:hr>
            <ns3:cad>0</ns3:cad>
          </ns3:TrackPointExtension>
        </extensions>
      </trkpt>
      <trkpt lat="37.77703383006155490875244140625" lon="-107.7008147723972797393798828125">
        <ele>3918.60009765625</ele>
        <time>2023-07-29T16:57:50.000Z</time>
        <extensions>
          <ns3:TrackPointExtension>
            <ns3:hr>114</ns3:hr>
            <ns3:cad>0</ns3:cad>
          </ns3:TrackPointExtension>
        </extensions>
      </trkpt>
      <trkpt lat="37.77701522223651409149169921875" lon="-107.7008078992366790771484375">
        <ele>3918.60009765625</ele>
        <time>2023-07-29T16:57:51.000Z</time>
        <extensions>
          <ns3:TrackPointExtension>
            <ns3:hr>115</ns3:hr>
            <ns3:cad>0</ns3:cad>
          </ns3:TrackPointExtension>
        </extensions>
      </trkpt>
      <trkpt lat="37.7770023979246616363525390625" lon="-107.70080245099961757659912109375">
        <ele>3918.60009765625</ele>
        <time>2023-07-29T16:57:52.000Z</time>
        <extensions>
          <ns3:TrackPointExtension>
            <ns3:hr>115</ns3:hr>
            <ns3:cad>0</ns3:cad>
          </ns3:TrackPointExtension>
        </extensions>
      </trkpt>
      <trkpt lat="37.77698890306055545806884765625" lon="-107.7007971704006195068359375">
        <ele>3918.60009765625</ele>
        <time>2023-07-29T16:57:53.000Z</time>
        <extensions>
          <ns3:TrackPointExtension>
            <ns3:hr>115</ns3:hr>
            <ns3:cad>0</ns3:cad>
          </ns3:TrackPointExtension>
        </extensions>
      </trkpt>
      <trkpt lat="37.77697532437741756439208984375" lon="-107.70079272799193859100341796875">
        <ele>3918.800048828125</ele>
        <time>2023-07-29T16:57:54.000Z</time>
        <extensions>
          <ns3:TrackPointExtension>
            <ns3:hr>115</ns3:hr>
            <ns3:cad>0</ns3:cad>
          </ns3:TrackPointExtension>
        </extensions>
      </trkpt>
      <trkpt lat="37.7769661881029605865478515625" lon="-107.70078971050679683685302734375">
        <ele>3919</ele>
        <time>2023-07-29T16:57:55.000Z</time>
        <extensions>
          <ns3:TrackPointExtension>
            <ns3:hr>115</ns3:hr>
            <ns3:cad>0</ns3:cad>
          </ns3:TrackPointExtension>
        </extensions>
      </trkpt>
      <trkpt lat="37.77695906348526477813720703125" lon="-107.70078602246940135955810546875">
        <ele>3919.199951171875</ele>
        <time>2023-07-29T16:57:56.000Z</time>
        <extensions>
          <ns3:TrackPointExtension>
            <ns3:hr>115</ns3:hr>
            <ns3:cad>0</ns3:cad>
          </ns3:TrackPointExtension>
        </extensions>
      </trkpt>
      <trkpt lat="37.77694548480212688446044921875" lon="-107.70078367553651332855224609375">
        <ele>3919.199951171875</ele>
        <time>2023-07-29T16:57:57.000Z</time>
        <extensions>
          <ns3:TrackPointExtension>
            <ns3:hr>115</ns3:hr>
            <ns3:cad>0</ns3:cad>
          </ns3:TrackPointExtension>
        </extensions>
      </trkpt>
      <trkpt lat="37.77693375013768672943115234375" lon="-107.7007822506129741668701171875">
        <ele>3919.199951171875</ele>
        <time>2023-07-29T16:57:58.000Z</time>
        <extensions>
          <ns3:TrackPointExtension>
            <ns3:hr>114</ns3:hr>
            <ns3:cad>53</ns3:cad>
          </ns3:TrackPointExtension>
        </extensions>
      </trkpt>
      <trkpt lat="37.776924110949039459228515625" lon="-107.70078183151781558990478515625">
        <ele>3919.39990234375</ele>
        <time>2023-07-29T16:57:59.000Z</time>
        <extensions>
          <ns3:TrackPointExtension>
            <ns3:hr>114</ns3:hr>
            <ns3:cad>53</ns3:cad>
          </ns3:TrackPointExtension>
        </extensions>
      </trkpt>
      <trkpt lat="37.77691028080880641937255859375" lon="-107.70078099332749843597412109375">
        <ele>3919.39990234375</ele>
        <time>2023-07-29T16:58:00.000Z</time>
        <extensions>
          <ns3:TrackPointExtension>
            <ns3:hr>114</ns3:hr>
            <ns3:cad>53</ns3:cad>
          </ns3:TrackPointExtension>
        </extensions>
      </trkpt>
      <trkpt lat="37.7768991328775882720947265625" lon="-107.70078116096556186676025390625">
        <ele>3919.39990234375</ele>
        <time>2023-07-29T16:58:01.000Z</time>
        <extensions>
          <ns3:TrackPointExtension>
            <ns3:hr>114</ns3:hr>
            <ns3:cad>53</ns3:cad>
          </ns3:TrackPointExtension>
        </extensions>
      </trkpt>
      <trkpt lat="37.77688530273735523223876953125" lon="-107.7007809095084667205810546875">
        <ele>3919.60009765625</ele>
        <time>2023-07-29T16:58:02.000Z</time>
        <extensions>
          <ns3:TrackPointExtension>
            <ns3:hr>113</ns3:hr>
            <ns3:cad>53</ns3:cad>
          </ns3:TrackPointExtension>
        </extensions>
      </trkpt>
      <trkpt lat="37.77687658555805683135986328125" lon="-107.700782753527164459228515625">
        <ele>3919.60009765625</ele>
        <time>2023-07-29T16:58:03.000Z</time>
        <extensions>
          <ns3:TrackPointExtension>
            <ns3:hr>113</ns3:hr>
            <ns3:cad>49</ns3:cad>
          </ns3:TrackPointExtension>
        </extensions>
      </trkpt>
      <trkpt lat="37.77686585672199726104736328125" lon="-107.70078300498425960540771484375">
        <ele>3919.60009765625</ele>
        <time>2023-07-29T16:58:04.000Z</time>
        <extensions>
          <ns3:TrackPointExtension>
            <ns3:hr>113</ns3:hr>
            <ns3:cad>49</ns3:cad>
          </ns3:TrackPointExtension>
        </extensions>
      </trkpt>
      <trkpt lat="37.776854373514652252197265625" lon="-107.70078300498425960540771484375">
        <ele>3919.60009765625</ele>
        <time>2023-07-29T16:58:05.000Z</time>
        <extensions>
          <ns3:TrackPointExtension>
            <ns3:hr>113</ns3:hr>
            <ns3:cad>17</ns3:cad>
          </ns3:TrackPointExtension>
        </extensions>
      </trkpt>
      <trkpt lat="37.77684205211699008941650390625" lon="-107.7007835917174816131591796875">
        <ele>3919.60009765625</ele>
        <time>2023-07-29T16:58:06.000Z</time>
        <extensions>
          <ns3:TrackPointExtension>
            <ns3:hr>113</ns3:hr>
            <ns3:cad>0</ns3:cad>
          </ns3:TrackPointExtension>
        </extensions>
      </trkpt>
      <trkpt lat="37.776826210319995880126953125" lon="-107.7007839269936084747314453125">
        <ele>3919.60009765625</ele>
        <time>2023-07-29T16:58:07.000Z</time>
        <extensions>
          <ns3:TrackPointExtension>
            <ns3:hr>113</ns3:hr>
            <ns3:cad>0</ns3:cad>
          </ns3:TrackPointExtension>
        </extensions>
      </trkpt>
      <trkpt lat="37.77681120671331882476806640625" lon="-107.7007849328219890594482421875">
        <ele>3919.60009765625</ele>
        <time>2023-07-29T16:58:08.000Z</time>
        <extensions>
          <ns3:TrackPointExtension>
            <ns3:hr>113</ns3:hr>
            <ns3:cad>0</ns3:cad>
          </ns3:TrackPointExtension>
        </extensions>
      </trkpt>
      <trkpt lat="37.776794694364070892333984375" lon="-107.70078241825103759765625">
        <ele>3919.60009765625</ele>
        <time>2023-07-29T16:58:09.000Z</time>
        <extensions>
          <ns3:TrackPointExtension>
            <ns3:hr>113</ns3:hr>
            <ns3:cad>0</ns3:cad>
          </ns3:TrackPointExtension>
        </extensions>
      </trkpt>
      <trkpt lat="37.776786647737026214599609375" lon="-107.7007792331278324127197265625">
        <ele>3919.60009765625</ele>
        <time>2023-07-29T16:58:10.000Z</time>
        <extensions>
          <ns3:TrackPointExtension>
            <ns3:hr>113</ns3:hr>
            <ns3:cad>0</ns3:cad>
          </ns3:TrackPointExtension>
        </extensions>
      </trkpt>
      <trkpt lat="37.77677566744387149810791015625" lon="-107.7007738687098026275634765625">
        <ele>3919.60009765625</ele>
        <time>2023-07-29T16:58:11.000Z</time>
        <extensions>
          <ns3:TrackPointExtension>
            <ns3:hr>113</ns3:hr>
            <ns3:cad>0</ns3:cad>
          </ns3:TrackPointExtension>
        </extensions>
      </trkpt>
      <trkpt lat="37.77676728554069995880126953125" lon="-107.700767330825328826904296875">
        <ele>3919.60009765625</ele>
        <time>2023-07-29T16:58:12.000Z</time>
        <extensions>
          <ns3:TrackPointExtension>
            <ns3:hr>112</ns3:hr>
            <ns3:cad>0</ns3:cad>
          </ns3:TrackPointExtension>
        </extensions>
      </trkpt>
      <trkpt lat="37.77675437740981578826904296875" lon="-107.70075920037925243377685546875">
        <ele>3919.60009765625</ele>
        <time>2023-07-29T16:58:13.000Z</time>
        <extensions>
          <ns3:TrackPointExtension>
            <ns3:hr>112</ns3:hr>
            <ns3:cad>0</ns3:cad>
          </ns3:TrackPointExtension>
        </extensions>
      </trkpt>
      <trkpt lat="37.7767442353069782257080078125" lon="-107.700751237571239471435546875">
        <ele>3919.800048828125</ele>
        <time>2023-07-29T16:58:14.000Z</time>
        <extensions>
          <ns3:TrackPointExtension>
            <ns3:hr>112</ns3:hr>
            <ns3:cad>0</ns3:cad>
          </ns3:TrackPointExtension>
        </extensions>
      </trkpt>
      <trkpt lat="37.77673476375639438629150390625" lon="-107.70074126310646533966064453125">
        <ele>3920</ele>
        <time>2023-07-29T16:58:15.000Z</time>
        <extensions>
          <ns3:TrackPointExtension>
            <ns3:hr>112</ns3:hr>
            <ns3:cad>0</ns3:cad>
          </ns3:TrackPointExtension>
        </extensions>
      </trkpt>
      <trkpt lat="37.77672235853970050811767578125" lon="-107.7007349766790866851806640625">
        <ele>3920</ele>
        <time>2023-07-29T16:58:16.000Z</time>
        <extensions>
          <ns3:TrackPointExtension>
            <ns3:hr>112</ns3:hr>
            <ns3:cad>0</ns3:cad>
          </ns3:TrackPointExtension>
        </extensions>
      </trkpt>
      <trkpt lat="37.77671582065522670745849609375" lon="-107.70072584040462970733642578125">
        <ele>3920.199951171875</ele>
        <time>2023-07-29T16:58:17.000Z</time>
        <extensions>
          <ns3:TrackPointExtension>
            <ns3:hr>112</ns3:hr>
            <ns3:cad>0</ns3:cad>
          </ns3:TrackPointExtension>
        </extensions>
      </trkpt>
      <trkpt lat="37.77670475654304027557373046875" lon="-107.70071846432983875274658203125">
        <ele>3920.199951171875</ele>
        <time>2023-07-29T16:58:18.000Z</time>
        <extensions>
          <ns3:TrackPointExtension>
            <ns3:hr>112</ns3:hr>
            <ns3:cad>51</ns3:cad>
          </ns3:TrackPointExtension>
        </extensions>
      </trkpt>
      <trkpt lat="37.77669721283018589019775390625" lon="-107.7007128484547138214111328125">
        <ele>3920.39990234375</ele>
        <time>2023-07-29T16:58:19.000Z</time>
        <extensions>
          <ns3:TrackPointExtension>
            <ns3:hr>112</ns3:hr>
            <ns3:cad>51</ns3:cad>
          </ns3:TrackPointExtension>
        </extensions>
      </trkpt>
      <trkpt lat="37.77668547816574573516845703125" lon="-107.70070807076990604400634765625">
        <ele>3920.800048828125</ele>
        <time>2023-07-29T16:58:20.000Z</time>
        <extensions>
          <ns3:TrackPointExtension>
            <ns3:hr>113</ns3:hr>
            <ns3:cad>51</ns3:cad>
          </ns3:TrackPointExtension>
        </extensions>
      </trkpt>
      <trkpt lat="37.77667977847158908843994140625" lon="-107.70070572383701801300048828125">
        <ele>3920.800048828125</ele>
        <time>2023-07-29T16:58:21.000Z</time>
        <extensions>
          <ns3:TrackPointExtension>
            <ns3:hr>113</ns3:hr>
            <ns3:cad>0</ns3:cad>
          </ns3:TrackPointExtension>
        </extensions>
      </trkpt>
      <trkpt lat="37.77667072601616382598876953125" lon="-107.7007058076560497283935546875">
        <ele>3920.800048828125</ele>
        <time>2023-07-29T16:58:22.000Z</time>
        <extensions>
          <ns3:TrackPointExtension>
            <ns3:hr>113</ns3:hr>
            <ns3:cad>0</ns3:cad>
          </ns3:TrackPointExtension>
        </extensions>
      </trkpt>
      <trkpt lat="37.77666284702718257904052734375" lon="-107.70070605911314487457275390625">
        <ele>3920.800048828125</ele>
        <time>2023-07-29T16:58:23.000Z</time>
        <extensions>
          <ns3:TrackPointExtension>
            <ns3:hr>114</ns3:hr>
            <ns3:cad>0</ns3:cad>
          </ns3:TrackPointExtension>
        </extensions>
      </trkpt>
      <trkpt lat="37.77665446512401103973388671875" lon="-107.70070756785571575164794921875">
        <ele>3920.800048828125</ele>
        <time>2023-07-29T16:58:24.000Z</time>
        <extensions>
          <ns3:TrackPointExtension>
            <ns3:hr>114</ns3:hr>
            <ns3:cad>0</ns3:cad>
          </ns3:TrackPointExtension>
        </extensions>
      </trkpt>
      <trkpt lat="37.77664289809763431549072265625" lon="-107.70071125589311122894287109375">
        <ele>3920.800048828125</ele>
        <time>2023-07-29T16:58:25.000Z</time>
        <extensions>
          <ns3:TrackPointExtension>
            <ns3:hr>114</ns3:hr>
            <ns3:cad>0</ns3:cad>
          </ns3:TrackPointExtension>
        </extensions>
      </trkpt>
      <trkpt lat="37.77663552202284336090087890625" lon="-107.70071125589311122894287109375">
        <ele>3920.800048828125</ele>
        <time>2023-07-29T16:58:26.000Z</time>
        <extensions>
          <ns3:TrackPointExtension>
            <ns3:hr>114</ns3:hr>
            <ns3:cad>0</ns3:cad>
          </ns3:TrackPointExtension>
        </extensions>
      </trkpt>
      <trkpt lat="37.7766232006251811981201171875" lon="-107.70071527920663356781005859375">
        <ele>3920.60009765625</ele>
        <time>2023-07-29T16:58:27.000Z</time>
        <extensions>
          <ns3:TrackPointExtension>
            <ns3:hr>114</ns3:hr>
            <ns3:cad>0</ns3:cad>
          </ns3:TrackPointExtension>
        </extensions>
      </trkpt>
      <trkpt lat="37.7766121365129947662353515625" lon="-107.700719051063060760498046875">
        <ele>3920.39990234375</ele>
        <time>2023-07-29T16:58:28.000Z</time>
        <extensions>
          <ns3:TrackPointExtension>
            <ns3:hr>114</ns3:hr>
            <ns3:cad>57</ns3:cad>
          </ns3:TrackPointExtension>
        </extensions>
      </trkpt>
      <trkpt lat="37.77660098858177661895751953125" lon="-107.70072198472917079925537109375">
        <ele>3920.39990234375</ele>
        <time>2023-07-29T16:58:29.000Z</time>
        <extensions>
          <ns3:TrackPointExtension>
            <ns3:hr>114</ns3:hr>
            <ns3:cad>57</ns3:cad>
          </ns3:TrackPointExtension>
        </extensions>
      </trkpt>
      <trkpt lat="37.77658808045089244842529296875" lon="-107.7007247507572174072265625">
        <ele>3920.199951171875</ele>
        <time>2023-07-29T16:58:30.000Z</time>
        <extensions>
          <ns3:TrackPointExtension>
            <ns3:hr>114</ns3:hr>
            <ns3:cad>57</ns3:cad>
          </ns3:TrackPointExtension>
        </extensions>
      </trkpt>
      <trkpt lat="37.77657818980515003204345703125" lon="-107.70072734914720058441162109375">
        <ele>3920</ele>
        <time>2023-07-29T16:58:31.000Z</time>
        <extensions>
          <ns3:TrackPointExtension>
            <ns3:hr>114</ns3:hr>
            <ns3:cad>57</ns3:cad>
          </ns3:TrackPointExtension>
        </extensions>
      </trkpt>
      <trkpt lat="37.7765683829784393310546875" lon="-107.70072810351848602294921875">
        <ele>3919.800048828125</ele>
        <time>2023-07-29T16:58:32.000Z</time>
        <extensions>
          <ns3:TrackPointExtension>
            <ns3:hr>113</ns3:hr>
            <ns3:cad>57</ns3:cad>
          </ns3:TrackPointExtension>
        </extensions>
      </trkpt>
      <trkpt lat="37.77656176127493381500244140625" lon="-107.7007312886416912078857421875">
        <ele>3919.800048828125</ele>
        <time>2023-07-29T16:58:33.000Z</time>
        <extensions>
          <ns3:TrackPointExtension>
            <ns3:hr>113</ns3:hr>
            <ns3:cad>57</ns3:cad>
          </ns3:TrackPointExtension>
        </extensions>
      </trkpt>
      <trkpt lat="37.77655639685690402984619140625" lon="-107.70073237828910350799560546875">
        <ele>3919.60009765625</ele>
        <time>2023-07-29T16:58:34.000Z</time>
        <extensions>
          <ns3:TrackPointExtension>
            <ns3:hr>113</ns3:hr>
            <ns3:cad>57</ns3:cad>
          </ns3:TrackPointExtension>
        </extensions>
      </trkpt>
      <trkpt lat="37.77655438520014286041259765625" lon="-107.70073221065104007720947265625">
        <ele>3919.39990234375</ele>
        <time>2023-07-29T16:58:35.000Z</time>
        <extensions>
          <ns3:TrackPointExtension>
            <ns3:hr>113</ns3:hr>
            <ns3:cad>57</ns3:cad>
          </ns3:TrackPointExtension>
        </extensions>
      </trkpt>
      <trkpt lat="37.77654281817376613616943359375" lon="-107.70073615014553070068359375">
        <ele>3919.39990234375</ele>
        <time>2023-07-29T16:58:36.000Z</time>
        <extensions>
          <ns3:TrackPointExtension>
            <ns3:hr>113</ns3:hr>
            <ns3:cad>57</ns3:cad>
          </ns3:TrackPointExtension>
        </extensions>
      </trkpt>
      <trkpt lat="37.7765353582799434661865234375" lon="-107.7007406763732433319091796875">
        <ele>3919.199951171875</ele>
        <time>2023-07-29T16:58:37.000Z</time>
        <extensions>
          <ns3:TrackPointExtension>
            <ns3:hr>113</ns3:hr>
            <ns3:cad>57</ns3:cad>
          </ns3:TrackPointExtension>
        </extensions>
      </trkpt>
      <trkpt lat="37.7765303291380405426025390625" lon="-107.70073992200195789337158203125">
        <ele>3918.800048828125</ele>
        <time>2023-07-29T16:58:38.000Z</time>
        <extensions>
          <ns3:TrackPointExtension>
            <ns3:hr>112</ns3:hr>
            <ns3:cad>57</ns3:cad>
          </ns3:TrackPointExtension>
        </extensions>
      </trkpt>
      <trkpt lat="37.776524126529693603515625" lon="-107.70074059255421161651611328125">
        <ele>3918.800048828125</ele>
        <time>2023-07-29T16:58:39.000Z</time>
        <extensions>
          <ns3:TrackPointExtension>
            <ns3:hr>112</ns3:hr>
            <ns3:cad>0</ns3:cad>
          </ns3:TrackPointExtension>
        </extensions>
      </trkpt>
      <trkpt lat="37.77652001939713954925537109375" lon="-107.70073958672583103179931640625">
        <ele>3918.60009765625</ele>
        <time>2023-07-29T16:58:40.000Z</time>
        <extensions>
          <ns3:TrackPointExtension>
            <ns3:hr>112</ns3:hr>
            <ns3:cad>0</ns3:cad>
          </ns3:TrackPointExtension>
        </extensions>
      </trkpt>
      <trkpt lat="37.7765088714659214019775390625" lon="-107.70074210129678249359130859375">
        <ele>3918.199951171875</ele>
        <time>2023-07-29T16:58:41.000Z</time>
        <extensions>
          <ns3:TrackPointExtension>
            <ns3:hr>112</ns3:hr>
            <ns3:cad>0</ns3:cad>
          </ns3:TrackPointExtension>
        </extensions>
      </trkpt>
      <trkpt lat="37.77649487368762493133544921875" lon="-107.70073874853551387786865234375">
        <ele>3918.199951171875</ele>
        <time>2023-07-29T16:58:42.000Z</time>
        <extensions>
          <ns3:TrackPointExtension>
            <ns3:hr>111</ns3:hr>
            <ns3:cad>0</ns3:cad>
          </ns3:TrackPointExtension>
        </extensions>
      </trkpt>
      <trkpt lat="37.77648448012769222259521484375" lon="-107.700732462108135223388671875">
        <ele>3918</ele>
        <time>2023-07-29T16:58:43.000Z</time>
        <extensions>
          <ns3:TrackPointExtension>
            <ns3:hr>110</ns3:hr>
            <ns3:cad>0</ns3:cad>
          </ns3:TrackPointExtension>
        </extensions>
      </trkpt>
      <trkpt lat="37.776472829282283782958984375" lon="-107.70072550512850284576416015625">
        <ele>3918</ele>
        <time>2023-07-29T16:58:44.000Z</time>
        <extensions>
          <ns3:TrackPointExtension>
            <ns3:hr>110</ns3:hr>
            <ns3:cad>0</ns3:cad>
          </ns3:TrackPointExtension>
        </extensions>
      </trkpt>
      <trkpt lat="37.77646201662719249725341796875" lon="-107.7007193863391876220703125">
        <ele>3918</ele>
        <time>2023-07-29T16:58:45.000Z</time>
        <extensions>
          <ns3:TrackPointExtension>
            <ns3:hr>109</ns3:hr>
            <ns3:cad>0</ns3:cad>
          </ns3:TrackPointExtension>
        </extensions>
      </trkpt>
      <trkpt lat="37.77645363472402095794677734375" lon="-107.70071377046406269073486328125">
        <ele>3918</ele>
        <time>2023-07-29T16:58:46.000Z</time>
        <extensions>
          <ns3:TrackPointExtension>
            <ns3:hr>109</ns3:hr>
            <ns3:cad>0</ns3:cad>
          </ns3:TrackPointExtension>
        </extensions>
      </trkpt>
      <trkpt lat="37.77644097805023193359375" lon="-107.70070664584636688232421875">
        <ele>3918</ele>
        <time>2023-07-29T16:58:47.000Z</time>
        <extensions>
          <ns3:TrackPointExtension>
            <ns3:hr>109</ns3:hr>
            <ns3:cad>0</ns3:cad>
          </ns3:TrackPointExtension>
        </extensions>
      </trkpt>
      <trkpt lat="37.776426561176776885986328125" lon="-107.700699269771575927734375">
        <ele>3918</ele>
        <time>2023-07-29T16:58:48.000Z</time>
        <extensions>
          <ns3:TrackPointExtension>
            <ns3:hr>108</ns3:hr>
            <ns3:cad>0</ns3:cad>
          </ns3:TrackPointExtension>
        </extensions>
      </trkpt>
      <trkpt lat="37.776415161788463592529296875" lon="-107.70069189369678497314453125">
        <ele>3918</ele>
        <time>2023-07-29T16:58:49.000Z</time>
        <extensions>
          <ns3:TrackPointExtension>
            <ns3:hr>108</ns3:hr>
            <ns3:cad>0</ns3:cad>
          </ns3:TrackPointExtension>
        </extensions>
      </trkpt>
      <trkpt lat="37.77640971355140209197998046875" lon="-107.7006863616406917572021484375">
        <ele>3918</ele>
        <time>2023-07-29T16:58:50.000Z</time>
        <extensions>
          <ns3:TrackPointExtension>
            <ns3:hr>108</ns3:hr>
            <ns3:cad>0</ns3:cad>
          </ns3:TrackPointExtension>
        </extensions>
      </trkpt>
      <trkpt lat="37.7764066122472286224365234375" lon="-107.70068342797458171844482421875">
        <ele>3918.199951171875</ele>
        <time>2023-07-29T16:58:51.000Z</time>
        <extensions>
          <ns3:TrackPointExtension>
            <ns3:hr>108</ns3:hr>
            <ns3:cad>0</ns3:cad>
          </ns3:TrackPointExtension>
        </extensions>
      </trkpt>
      <trkpt lat="37.77639881707727909088134765625" lon="-107.7006759680807590484619140625">
        <ele>3918.199951171875</ele>
        <time>2023-07-29T16:58:52.000Z</time>
        <extensions>
          <ns3:TrackPointExtension>
            <ns3:hr>108</ns3:hr>
            <ns3:cad>0</ns3:cad>
          </ns3:TrackPointExtension>
        </extensions>
      </trkpt>
      <trkpt lat="37.77638909406960010528564453125" lon="-107.70066884346306324005126953125">
        <ele>3918.39990234375</ele>
        <time>2023-07-29T16:58:53.000Z</time>
        <extensions>
          <ns3:TrackPointExtension>
            <ns3:hr>107</ns3:hr>
            <ns3:cad>0</ns3:cad>
          </ns3:TrackPointExtension>
        </extensions>
      </trkpt>
      <trkpt lat="37.77638356201350688934326171875" lon="-107.70066129975020885467529296875">
        <ele>3918.39990234375</ele>
        <time>2023-07-29T16:58:54.000Z</time>
        <extensions>
          <ns3:TrackPointExtension>
            <ns3:hr>107</ns3:hr>
            <ns3:cad>0</ns3:cad>
          </ns3:TrackPointExtension>
        </extensions>
      </trkpt>
      <trkpt lat="37.7763774432241916656494140625" lon="-107.70065568387508392333984375">
        <ele>3918.39990234375</ele>
        <time>2023-07-29T16:58:55.000Z</time>
        <extensions>
          <ns3:TrackPointExtension>
            <ns3:hr>107</ns3:hr>
            <ns3:cad>0</ns3:cad>
          </ns3:TrackPointExtension>
        </extensions>
      </trkpt>
      <trkpt lat="37.7763740904629230499267578125" lon="-107.700653336942195892333984375">
        <ele>3919</ele>
        <time>2023-07-29T16:58:56.000Z</time>
        <extensions>
          <ns3:TrackPointExtension>
            <ns3:hr>107</ns3:hr>
            <ns3:cad>0</ns3:cad>
          </ns3:TrackPointExtension>
        </extensions>
      </trkpt>
      <trkpt lat="37.77637459337711334228515625" lon="-107.70065710879862308502197265625">
        <ele>3919</ele>
        <time>2023-07-29T16:58:57.000Z</time>
        <extensions>
          <ns3:TrackPointExtension>
            <ns3:hr>107</ns3:hr>
            <ns3:cad>0</ns3:cad>
          </ns3:TrackPointExtension>
        </extensions>
      </trkpt>
      <trkpt lat="37.7763712406158447265625" lon="-107.7006575278937816619873046875">
        <ele>3919.199951171875</ele>
        <time>2023-07-29T16:58:58.000Z</time>
        <extensions>
          <ns3:TrackPointExtension>
            <ns3:hr>107</ns3:hr>
            <ns3:cad>0</ns3:cad>
          </ns3:TrackPointExtension>
        </extensions>
      </trkpt>
      <trkpt lat="37.776370234787464141845703125" lon="-107.70066012628376483917236328125">
        <ele>3919.60009765625</ele>
        <time>2023-07-29T16:58:59.000Z</time>
        <extensions>
          <ns3:TrackPointExtension>
            <ns3:hr>107</ns3:hr>
            <ns3:cad>0</ns3:cad>
          </ns3:TrackPointExtension>
        </extensions>
      </trkpt>
      <trkpt lat="37.7763643674552440643310546875" lon="-107.70066129975020885467529296875">
        <ele>3920</ele>
        <time>2023-07-29T16:59:00.000Z</time>
        <extensions>
          <ns3:TrackPointExtension>
            <ns3:hr>108</ns3:hr>
            <ns3:cad>69</ns3:cad>
          </ns3:TrackPointExtension>
        </extensions>
      </trkpt>
      <trkpt lat="37.7763630263507366180419921875" lon="-107.7006625570356845855712890625">
        <ele>3920</ele>
        <time>2023-07-29T16:59:01.000Z</time>
        <extensions>
          <ns3:TrackPointExtension>
            <ns3:hr>108</ns3:hr>
            <ns3:cad>69</ns3:cad>
          </ns3:TrackPointExtension>
        </extensions>
      </trkpt>
      <trkpt lat="37.77635774575173854827880859375" lon="-107.70066297613084316253662109375">
        <ele>3920.199951171875</ele>
        <time>2023-07-29T16:59:02.000Z</time>
        <extensions>
          <ns3:TrackPointExtension>
            <ns3:hr>108</ns3:hr>
            <ns3:cad>69</ns3:cad>
          </ns3:TrackPointExtension>
        </extensions>
      </trkpt>
      <trkpt lat="37.77635271660983562469482421875" lon="-107.70066431723535060882568359375">
        <ele>3920.199951171875</ele>
        <time>2023-07-29T16:59:03.000Z</time>
        <extensions>
          <ns3:TrackPointExtension>
            <ns3:hr>108</ns3:hr>
            <ns3:cad>0</ns3:cad>
          </ns3:TrackPointExtension>
        </extensions>
      </trkpt>
      <trkpt lat="37.77634441852569580078125" lon="-107.70066565833985805511474609375">
        <ele>3920.199951171875</ele>
        <time>2023-07-29T16:59:04.000Z</time>
        <extensions>
          <ns3:TrackPointExtension>
            <ns3:hr>107</ns3:hr>
            <ns3:cad>0</ns3:cad>
          </ns3:TrackPointExtension>
        </extensions>
      </trkpt>
      <trkpt lat="37.7763341926038265228271484375" lon="-107.70066800527274608612060546875">
        <ele>3920.199951171875</ele>
        <time>2023-07-29T16:59:05.000Z</time>
        <extensions>
          <ns3:TrackPointExtension>
            <ns3:hr>108</ns3:hr>
            <ns3:cad>0</ns3:cad>
          </ns3:TrackPointExtension>
        </extensions>
      </trkpt>
      <trkpt lat="37.7763278223574161529541015625" lon="-107.70066800527274608612060546875">
        <ele>3920</ele>
        <time>2023-07-29T16:59:06.000Z</time>
        <extensions>
          <ns3:TrackPointExtension>
            <ns3:hr>107</ns3:hr>
            <ns3:cad>0</ns3:cad>
          </ns3:TrackPointExtension>
        </extensions>
      </trkpt>
      <trkpt lat="37.77631684206426143646240234375" lon="-107.70067051984369754791259765625">
        <ele>3920</ele>
        <time>2023-07-29T16:59:07.000Z</time>
        <extensions>
          <ns3:TrackPointExtension>
            <ns3:hr>107</ns3:hr>
            <ns3:cad>0</ns3:cad>
          </ns3:TrackPointExtension>
        </extensions>
      </trkpt>
      <trkpt lat="37.7763063646852970123291015625" lon="-107.70067119039595127105712890625">
        <ele>3919.800048828125</ele>
        <time>2023-07-29T16:59:08.000Z</time>
        <extensions>
          <ns3:TrackPointExtension>
            <ns3:hr>107</ns3:hr>
            <ns3:cad>0</ns3:cad>
          </ns3:TrackPointExtension>
        </extensions>
      </trkpt>
      <trkpt lat="37.77629102580249309539794921875" lon="-107.7006692625582218170166015625">
        <ele>3919.199951171875</ele>
        <time>2023-07-29T16:59:09.000Z</time>
        <extensions>
          <ns3:TrackPointExtension>
            <ns3:hr>106</ns3:hr>
            <ns3:cad>0</ns3:cad>
          </ns3:TrackPointExtension>
        </extensions>
      </trkpt>
      <trkpt lat="37.77627945877611637115478515625" lon="-107.700669765472412109375">
        <ele>3919</ele>
        <time>2023-07-29T16:59:10.000Z</time>
        <extensions>
          <ns3:TrackPointExtension>
            <ns3:hr>106</ns3:hr>
            <ns3:cad>0</ns3:cad>
          </ns3:TrackPointExtension>
        </extensions>
      </trkpt>
      <trkpt lat="37.77627157978713512420654296875" lon="-107.70067043602466583251953125">
        <ele>3918.60009765625</ele>
        <time>2023-07-29T16:59:11.000Z</time>
        <extensions>
          <ns3:TrackPointExtension>
            <ns3:hr>105</ns3:hr>
            <ns3:cad>0</ns3:cad>
          </ns3:TrackPointExtension>
        </extensions>
      </trkpt>
      <trkpt lat="37.77625925838947296142578125" lon="-107.70067236386239528656005859375">
        <ele>3918.199951171875</ele>
        <time>2023-07-29T16:59:12.000Z</time>
        <extensions>
          <ns3:TrackPointExtension>
            <ns3:hr>105</ns3:hr>
            <ns3:cad>0</ns3:cad>
          </ns3:TrackPointExtension>
        </extensions>
      </trkpt>
      <trkpt lat="37.77624676935374736785888671875" lon="-107.7006749622523784637451171875">
        <ele>3918.199951171875</ele>
        <time>2023-07-29T16:59:13.000Z</time>
        <extensions>
          <ns3:TrackPointExtension>
            <ns3:hr>103</ns3:hr>
            <ns3:cad>0</ns3:cad>
          </ns3:TrackPointExtension>
        </extensions>
      </trkpt>
      <trkpt lat="37.77623218484222888946533203125" lon="-107.70067756064236164093017578125">
        <ele>3918</ele>
        <time>2023-07-29T16:59:14.000Z</time>
        <extensions>
          <ns3:TrackPointExtension>
            <ns3:hr>99</ns3:hr>
            <ns3:cad>0</ns3:cad>
          </ns3:TrackPointExtension>
        </extensions>
      </trkpt>
      <trkpt lat="37.77621768414974212646484375" lon="-107.70068091340363025665283203125">
        <ele>3917.800048828125</ele>
        <time>2023-07-29T16:59:15.000Z</time>
        <extensions>
          <ns3:TrackPointExtension>
            <ns3:hr>99</ns3:hr>
            <ns3:cad>0</ns3:cad>
          </ns3:TrackPointExtension>
        </extensions>
      </trkpt>
      <trkpt lat="37.77620770968496799468994140625" lon="-107.70067806355655193328857421875">
        <ele>3917.60009765625</ele>
        <time>2023-07-29T16:59:16.000Z</time>
        <extensions>
          <ns3:TrackPointExtension>
            <ns3:hr>98</ns3:hr>
            <ns3:cad>0</ns3:cad>
          </ns3:TrackPointExtension>
        </extensions>
      </trkpt>
      <trkpt lat="37.7761940471827983856201171875" lon="-107.70067705772817134857177734375">
        <ele>3917.39990234375</ele>
        <time>2023-07-29T16:59:17.000Z</time>
        <extensions>
          <ns3:TrackPointExtension>
            <ns3:hr>98</ns3:hr>
            <ns3:cad>0</ns3:cad>
          </ns3:TrackPointExtension>
        </extensions>
      </trkpt>
      <trkpt lat="37.7761839888989925384521484375" lon="-107.7006716094911098480224609375">
        <ele>3917.39990234375</ele>
        <time>2023-07-29T16:59:18.000Z</time>
        <extensions>
          <ns3:TrackPointExtension>
            <ns3:hr>98</ns3:hr>
            <ns3:cad>0</ns3:cad>
          </ns3:TrackPointExtension>
        </extensions>
      </trkpt>
      <trkpt lat="37.7761714160442352294921875" lon="-107.700665406882762908935546875">
        <ele>3917.199951171875</ele>
        <time>2023-07-29T16:59:19.000Z</time>
        <extensions>
          <ns3:TrackPointExtension>
            <ns3:hr>98</ns3:hr>
            <ns3:cad>0</ns3:cad>
          </ns3:TrackPointExtension>
        </extensions>
      </trkpt>
      <trkpt lat="37.776160351932048797607421875" lon="-107.700660713016986846923828125">
        <ele>3917</ele>
        <time>2023-07-29T16:59:20.000Z</time>
        <extensions>
          <ns3:TrackPointExtension>
            <ns3:hr>98</ns3:hr>
            <ns3:cad>0</ns3:cad>
          </ns3:TrackPointExtension>
        </extensions>
      </trkpt>
      <trkpt lat="37.7761474438011646270751953125" lon="-107.7006588689982891082763671875">
        <ele>3917</ele>
        <time>2023-07-29T16:59:21.000Z</time>
        <extensions>
          <ns3:TrackPointExtension>
            <ns3:hr>99</ns3:hr>
            <ns3:cad>0</ns3:cad>
          </ns3:TrackPointExtension>
        </extensions>
      </trkpt>
      <trkpt lat="37.77613646350800991058349609375" lon="-107.70065828226506710052490234375">
        <ele>3917</ele>
        <time>2023-07-29T16:59:22.000Z</time>
        <extensions>
          <ns3:TrackPointExtension>
            <ns3:hr>99</ns3:hr>
            <ns3:cad>0</ns3:cad>
          </ns3:TrackPointExtension>
        </extensions>
      </trkpt>
      <trkpt lat="37.77612238191068172454833984375" lon="-107.7006581984460353851318359375">
        <ele>3917</ele>
        <time>2023-07-29T16:59:23.000Z</time>
        <extensions>
          <ns3:TrackPointExtension>
            <ns3:hr>100</ns3:hr>
            <ns3:cad>0</ns3:cad>
          </ns3:TrackPointExtension>
        </extensions>
      </trkpt>
      <trkpt lat="37.77611416764557361602783203125" lon="-107.7006588689982891082763671875">
        <ele>3917</ele>
        <time>2023-07-29T16:59:24.000Z</time>
        <extensions>
          <ns3:TrackPointExtension>
            <ns3:hr>102</ns3:hr>
            <ns3:cad>0</ns3:cad>
          </ns3:TrackPointExtension>
        </extensions>
      </trkpt>
      <trkpt lat="37.77609857730567455291748046875" lon="-107.700660042464733123779296875">
        <ele>3917</ele>
        <time>2023-07-29T16:59:25.000Z</time>
        <extensions>
          <ns3:TrackPointExtension>
            <ns3:hr>104</ns3:hr>
            <ns3:cad>0</ns3:cad>
          </ns3:TrackPointExtension>
        </extensions>
      </trkpt>
      <trkpt lat="37.7760877646505832672119140625" lon="-107.70066062919795513153076171875">
        <ele>3917.39990234375</ele>
        <time>2023-07-29T16:59:26.000Z</time>
        <extensions>
          <ns3:TrackPointExtension>
            <ns3:hr>104</ns3:hr>
            <ns3:cad>0</ns3:cad>
          </ns3:TrackPointExtension>
        </extensions>
      </trkpt>
      <trkpt lat="37.77607477270066738128662109375" lon="-107.7006615512073040008544921875">
        <ele>3917.39990234375</ele>
        <time>2023-07-29T16:59:27.000Z</time>
        <extensions>
          <ns3:TrackPointExtension>
            <ns3:hr>105</ns3:hr>
            <ns3:cad>0</ns3:cad>
          </ns3:TrackPointExtension>
        </extensions>
      </trkpt>
      <trkpt lat="37.7760626189410686492919921875" lon="-107.70066532306373119354248046875">
        <ele>3917.39990234375</ele>
        <time>2023-07-29T16:59:28.000Z</time>
        <extensions>
          <ns3:TrackPointExtension>
            <ns3:hr>104</ns3:hr>
            <ns3:cad>0</ns3:cad>
          </ns3:TrackPointExtension>
        </extensions>
      </trkpt>
      <trkpt lat="37.776052057743072509765625" lon="-107.70066909492015838623046875">
        <ele>3917.60009765625</ele>
        <time>2023-07-29T16:59:29.000Z</time>
        <extensions>
          <ns3:TrackPointExtension>
            <ns3:hr>104</ns3:hr>
            <ns3:cad>0</ns3:cad>
          </ns3:TrackPointExtension>
        </extensions>
      </trkpt>
      <trkpt lat="37.77604074217379093170166015625" lon="-107.7006749622523784637451171875">
        <ele>3917.60009765625</ele>
        <time>2023-07-29T16:59:30.000Z</time>
        <extensions>
          <ns3:TrackPointExtension>
            <ns3:hr>104</ns3:hr>
            <ns3:cad>0</ns3:cad>
          </ns3:TrackPointExtension>
        </extensions>
      </trkpt>
      <trkpt lat="37.77602934278547763824462890625" lon="-107.70067714154720306396484375">
        <ele>3917.60009765625</ele>
        <time>2023-07-29T16:59:31.000Z</time>
        <extensions>
          <ns3:TrackPointExtension>
            <ns3:hr>104</ns3:hr>
            <ns3:cad>0</ns3:cad>
          </ns3:TrackPointExtension>
        </extensions>
      </trkpt>
      <trkpt lat="37.77601727284491062164306640625" lon="-107.70067957229912281036376953125">
        <ele>3917.60009765625</ele>
        <time>2023-07-29T16:59:32.000Z</time>
        <extensions>
          <ns3:TrackPointExtension>
            <ns3:hr>103</ns3:hr>
            <ns3:cad>0</ns3:cad>
          </ns3:TrackPointExtension>
        </extensions>
      </trkpt>
      <trkpt lat="37.77600537054240703582763671875" lon="-107.70068242214620113372802734375">
        <ele>3917.39990234375</ele>
        <time>2023-07-29T16:59:33.000Z</time>
        <extensions>
          <ns3:TrackPointExtension>
            <ns3:hr>104</ns3:hr>
            <ns3:cad>0</ns3:cad>
          </ns3:TrackPointExtension>
        </extensions>
      </trkpt>
      <trkpt lat="37.77598793618381023406982421875" lon="-107.70068787038326263427734375">
        <ele>3917.199951171875</ele>
        <time>2023-07-29T16:59:34.000Z</time>
        <extensions>
          <ns3:TrackPointExtension>
            <ns3:hr>104</ns3:hr>
            <ns3:cad>0</ns3:cad>
          </ns3:TrackPointExtension>
        </extensions>
      </trkpt>
      <trkpt lat="37.775976620614528656005859375" lon="-107.70069264806807041168212890625">
        <ele>3917.199951171875</ele>
        <time>2023-07-29T16:59:35.000Z</time>
        <extensions>
          <ns3:TrackPointExtension>
            <ns3:hr>104</ns3:hr>
            <ns3:cad>0</ns3:cad>
          </ns3:TrackPointExtension>
        </extensions>
      </trkpt>
      <trkpt lat="37.7759595215320587158203125" lon="-107.700699605047702789306640625">
        <ele>3917</ele>
        <time>2023-07-29T16:59:36.000Z</time>
        <extensions>
          <ns3:TrackPointExtension>
            <ns3:hr>104</ns3:hr>
            <ns3:cad>0</ns3:cad>
          </ns3:TrackPointExtension>
        </extensions>
      </trkpt>
      <trkpt lat="37.775945775210857391357421875" lon="-107.700704969465732574462890625">
        <ele>3917</ele>
        <time>2023-07-29T16:59:37.000Z</time>
        <extensions>
          <ns3:TrackPointExtension>
            <ns3:hr>103</ns3:hr>
            <ns3:cad>0</ns3:cad>
          </ns3:TrackPointExtension>
        </extensions>
      </trkpt>
      <trkpt lat="37.77592624537646770477294921875" lon="-107.70071377046406269073486328125">
        <ele>3917</ele>
        <time>2023-07-29T16:59:38.000Z</time>
        <extensions>
          <ns3:TrackPointExtension>
            <ns3:hr>103</ns3:hr>
            <ns3:cad>0</ns3:cad>
          </ns3:TrackPointExtension>
        </extensions>
      </trkpt>
      <trkpt lat="37.77591333724558353424072265625" lon="-107.70071930252015590667724609375">
        <ele>3916.800048828125</ele>
        <time>2023-07-29T16:59:39.000Z</time>
        <extensions>
          <ns3:TrackPointExtension>
            <ns3:hr>103</ns3:hr>
            <ns3:cad>54</ns3:cad>
          </ns3:TrackPointExtension>
        </extensions>
      </trkpt>
      <trkpt lat="37.77590059675276279449462890625" lon="-107.70072500221431255340576171875">
        <ele>3916.60009765625</ele>
        <time>2023-07-29T16:59:40.000Z</time>
        <extensions>
          <ns3:TrackPointExtension>
            <ns3:hr>103</ns3:hr>
            <ns3:cad>54</ns3:cad>
          </ns3:TrackPointExtension>
        </extensions>
      </trkpt>
      <trkpt lat="37.77589003555476665496826171875" lon="-107.7007274329662322998046875">
        <ele>3916.60009765625</ele>
        <time>2023-07-29T16:59:41.000Z</time>
        <extensions>
          <ns3:TrackPointExtension>
            <ns3:hr>103</ns3:hr>
            <ns3:cad>54</ns3:cad>
          </ns3:TrackPointExtension>
        </extensions>
      </trkpt>
      <trkpt lat="37.775874026119709014892578125" lon="-107.7007296122610569000244140625">
        <ele>3916.39990234375</ele>
        <time>2023-07-29T16:59:42.000Z</time>
        <extensions>
          <ns3:TrackPointExtension>
            <ns3:hr>102</ns3:hr>
            <ns3:cad>54</ns3:cad>
          </ns3:TrackPointExtension>
        </extensions>
      </trkpt>
      <trkpt lat="37.77586220763623714447021484375" lon="-107.7007289417088031768798828125">
        <ele>3916.199951171875</ele>
        <time>2023-07-29T16:59:43.000Z</time>
        <extensions>
          <ns3:TrackPointExtension>
            <ns3:hr>102</ns3:hr>
            <ns3:cad>0</ns3:cad>
          </ns3:TrackPointExtension>
        </extensions>
      </trkpt>
      <trkpt lat="37.77584929950535297393798828125" lon="-107.700729109346866607666015625">
        <ele>3916.199951171875</ele>
        <time>2023-07-29T16:59:44.000Z</time>
        <extensions>
          <ns3:TrackPointExtension>
            <ns3:hr>102</ns3:hr>
            <ns3:cad>0</ns3:cad>
          </ns3:TrackPointExtension>
        </extensions>
      </trkpt>
      <trkpt lat="37.7758373133838176727294921875" lon="-107.70072986371815204620361328125">
        <ele>3916.199951171875</ele>
        <time>2023-07-29T16:59:45.000Z</time>
        <extensions>
          <ns3:TrackPointExtension>
            <ns3:hr>102</ns3:hr>
            <ns3:cad>0</ns3:cad>
          </ns3:TrackPointExtension>
        </extensions>
      </trkpt>
      <trkpt lat="37.77582935057580471038818359375" lon="-107.70073003135621547698974609375">
        <ele>3916</ele>
        <time>2023-07-29T16:59:46.000Z</time>
        <extensions>
          <ns3:TrackPointExtension>
            <ns3:hr>102</ns3:hr>
            <ns3:cad>59</ns3:cad>
          </ns3:TrackPointExtension>
        </extensions>
      </trkpt>
      <trkpt lat="37.77581803500652313232421875" lon="-107.7007286064326763153076171875">
        <ele>3916</ele>
        <time>2023-07-29T16:59:47.000Z</time>
        <extensions>
          <ns3:TrackPointExtension>
            <ns3:hr>102</ns3:hr>
            <ns3:cad>59</ns3:cad>
          </ns3:TrackPointExtension>
        </extensions>
      </trkpt>
      <trkpt lat="37.775810323655605316162109375" lon="-107.70072684623301029205322265625">
        <ele>3916</ele>
        <time>2023-07-29T16:59:48.000Z</time>
        <extensions>
          <ns3:TrackPointExtension>
            <ns3:hr>101</ns3:hr>
            <ns3:cad>0</ns3:cad>
          </ns3:TrackPointExtension>
        </extensions>
      </trkpt>
      <trkpt lat="37.7757997624576091766357421875" lon="-107.7007276006042957305908203125">
        <ele>3915.800048828125</ele>
        <time>2023-07-29T16:59:49.000Z</time>
        <extensions>
          <ns3:TrackPointExtension>
            <ns3:hr>101</ns3:hr>
            <ns3:cad>0</ns3:cad>
          </ns3:TrackPointExtension>
        </extensions>
      </trkpt>
      <trkpt lat="37.77578978799283504486083984375" lon="-107.7007289417088031768798828125">
        <ele>3915.60009765625</ele>
        <time>2023-07-29T16:59:50.000Z</time>
        <extensions>
          <ns3:TrackPointExtension>
            <ns3:hr>101</ns3:hr>
            <ns3:cad>0</ns3:cad>
          </ns3:TrackPointExtension>
        </extensions>
      </trkpt>
      <trkpt lat="37.77577050961554050445556640625" lon="-107.70073170773684978485107421875">
        <ele>3915.60009765625</ele>
        <time>2023-07-29T16:59:51.000Z</time>
        <extensions>
          <ns3:TrackPointExtension>
            <ns3:hr>101</ns3:hr>
            <ns3:cad>0</ns3:cad>
          </ns3:TrackPointExtension>
        </extensions>
      </trkpt>
      <trkpt lat="37.775753326714038848876953125" lon="-107.70073480904102325439453125">
        <ele>3915.39990234375</ele>
        <time>2023-07-29T16:59:52.000Z</time>
        <extensions>
          <ns3:TrackPointExtension>
            <ns3:hr>101</ns3:hr>
            <ns3:cad>0</ns3:cad>
          </ns3:TrackPointExtension>
        </extensions>
      </trkpt>
      <trkpt lat="37.7757422626018524169921875" lon="-107.70073640160262584686279296875">
        <ele>3915.199951171875</ele>
        <time>2023-07-29T16:59:53.000Z</time>
        <extensions>
          <ns3:TrackPointExtension>
            <ns3:hr>101</ns3:hr>
            <ns3:cad>0</ns3:cad>
          </ns3:TrackPointExtension>
        </extensions>
      </trkpt>
      <trkpt lat="37.77572608552873134613037109375" lon="-107.70073723979294300079345703125">
        <ele>3914.800048828125</ele>
        <time>2023-07-29T16:59:54.000Z</time>
        <extensions>
          <ns3:TrackPointExtension>
            <ns3:hr>101</ns3:hr>
            <ns3:cad>0</ns3:cad>
          </ns3:TrackPointExtension>
        </extensions>
      </trkpt>
      <trkpt lat="37.77571074664592742919921875" lon="-107.70073791034519672393798828125">
        <ele>3914.60009765625</ele>
        <time>2023-07-29T16:59:55.000Z</time>
        <extensions>
          <ns3:TrackPointExtension>
            <ns3:hr>101</ns3:hr>
            <ns3:cad>0</ns3:cad>
          </ns3:TrackPointExtension>
        </extensions>
      </trkpt>
      <trkpt lat="37.77569239027798175811767578125" lon="-107.70073749125003814697265625">
        <ele>3914.39990234375</ele>
        <time>2023-07-29T16:59:56.000Z</time>
        <extensions>
          <ns3:TrackPointExtension>
            <ns3:hr>101</ns3:hr>
            <ns3:cad>61</ns3:cad>
          </ns3:TrackPointExtension>
        </extensions>
      </trkpt>
      <trkpt lat="37.77567587792873382568359375" lon="-107.7007396705448627471923828125">
        <ele>3914.39990234375</ele>
        <time>2023-07-29T16:59:57.000Z</time>
        <extensions>
          <ns3:TrackPointExtension>
            <ns3:hr>101</ns3:hr>
            <ns3:cad>61</ns3:cad>
          </ns3:TrackPointExtension>
        </extensions>
      </trkpt>
      <trkpt lat="37.7756683342158794403076171875" lon="-107.700737826526165008544921875">
        <ele>3914.39990234375</ele>
        <time>2023-07-29T16:59:58.000Z</time>
        <extensions>
          <ns3:TrackPointExtension>
            <ns3:hr>101</ns3:hr>
            <ns3:cad>61</ns3:cad>
          </ns3:TrackPointExtension>
        </extensions>
      </trkpt>
      <trkpt lat="37.77565584518015384674072265625" lon="-107.70073723979294300079345703125">
        <ele>3914.39990234375</ele>
        <time>2023-07-29T16:59:59.000Z</time>
        <extensions>
          <ns3:TrackPointExtension>
            <ns3:hr>102</ns3:hr>
            <ns3:cad>61</ns3:cad>
          </ns3:TrackPointExtension>
        </extensions>
      </trkpt>
      <trkpt lat="37.77564503252506256103515625" lon="-107.7007366530597209930419921875">
        <ele>3914.39990234375</ele>
        <time>2023-07-29T17:00:00.000Z</time>
        <extensions>
          <ns3:TrackPointExtension>
            <ns3:hr>103</ns3:hr>
            <ns3:cad>61</ns3:cad>
          </ns3:TrackPointExtension>
        </extensions>
      </trkpt>
      <trkpt lat="37.775638997554779052734375" lon="-107.70073749125003814697265625">
        <ele>3914.39990234375</ele>
        <time>2023-07-29T17:00:01.000Z</time>
        <extensions>
          <ns3:TrackPointExtension>
            <ns3:hr>103</ns3:hr>
            <ns3:cad>55</ns3:cad>
          </ns3:TrackPointExtension>
        </extensions>
      </trkpt>
      <trkpt lat="37.775631956756114959716796875" lon="-107.7007366530597209930419921875">
        <ele>3914.39990234375</ele>
        <time>2023-07-29T17:00:02.000Z</time>
        <extensions>
          <ns3:TrackPointExtension>
            <ns3:hr>104</ns3:hr>
            <ns3:cad>55</ns3:cad>
          </ns3:TrackPointExtension>
        </extensions>
      </trkpt>
      <trkpt lat="37.77562282048165798187255859375" lon="-107.70073858089745044708251953125">
        <ele>3914.39990234375</ele>
        <time>2023-07-29T17:00:03.000Z</time>
        <extensions>
          <ns3:TrackPointExtension>
            <ns3:hr>105</ns3:hr>
            <ns3:cad>0</ns3:cad>
          </ns3:TrackPointExtension>
        </extensions>
      </trkpt>
      <trkpt lat="37.77561209164559841156005859375" lon="-107.70074377767741680145263671875">
        <ele>3914.39990234375</ele>
        <time>2023-07-29T17:00:04.000Z</time>
        <extensions>
          <ns3:TrackPointExtension>
            <ns3:hr>106</ns3:hr>
            <ns3:cad>0</ns3:cad>
          </ns3:TrackPointExtension>
        </extensions>
      </trkpt>
      <trkpt lat="37.7756016142666339874267578125" lon="-107.70074847154319286346435546875">
        <ele>3914.199951171875</ele>
        <time>2023-07-29T17:00:05.000Z</time>
        <extensions>
          <ns3:TrackPointExtension>
            <ns3:hr>106</ns3:hr>
            <ns3:cad>0</ns3:cad>
          </ns3:TrackPointExtension>
        </extensions>
      </trkpt>
      <trkpt lat="37.7755945734679698944091796875" lon="-107.70075182430446147918701171875">
        <ele>3913.800048828125</ele>
        <time>2023-07-29T17:00:06.000Z</time>
        <extensions>
          <ns3:TrackPointExtension>
            <ns3:hr>106</ns3:hr>
            <ns3:cad>0</ns3:cad>
          </ns3:TrackPointExtension>
        </extensions>
      </trkpt>
      <trkpt lat="37.7755747921764850616455078125" lon="-107.70076154731214046478271484375">
        <ele>3913.39990234375</ele>
        <time>2023-07-29T17:00:07.000Z</time>
        <extensions>
          <ns3:TrackPointExtension>
            <ns3:hr>106</ns3:hr>
            <ns3:cad>0</ns3:cad>
          </ns3:TrackPointExtension>
        </extensions>
      </trkpt>
      <trkpt lat="37.77556397952139377593994140625" lon="-107.70076707936823368072509765625">
        <ele>3913.199951171875</ele>
        <time>2023-07-29T17:00:08.000Z</time>
        <extensions>
          <ns3:TrackPointExtension>
            <ns3:hr>106</ns3:hr>
            <ns3:cad>0</ns3:cad>
          </ns3:TrackPointExtension>
        </extensions>
      </trkpt>
      <trkpt lat="37.7755513228476047515869140625" lon="-107.70077562890946865081787109375">
        <ele>3913</ele>
        <time>2023-07-29T17:00:09.000Z</time>
        <extensions>
          <ns3:TrackPointExtension>
            <ns3:hr>106</ns3:hr>
            <ns3:cad>0</ns3:cad>
          </ns3:TrackPointExtension>
        </extensions>
      </trkpt>
      <trkpt lat="37.7755451202392578125" lon="-107.70078166387975215911865234375">
        <ele>3912.39990234375</ele>
        <time>2023-07-29T17:00:10.000Z</time>
        <extensions>
          <ns3:TrackPointExtension>
            <ns3:hr>106</ns3:hr>
            <ns3:cad>0</ns3:cad>
          </ns3:TrackPointExtension>
        </extensions>
      </trkpt>
      <trkpt lat="37.7755436114966869354248046875" lon="-107.70078602246940135955810546875">
        <ele>3912.39990234375</ele>
        <time>2023-07-29T17:00:11.000Z</time>
        <extensions>
          <ns3:TrackPointExtension>
            <ns3:hr>106</ns3:hr>
            <ns3:cad>0</ns3:cad>
          </ns3:TrackPointExtension>
        </extensions>
      </trkpt>
      <trkpt lat="37.77553212828934192657470703125" lon="-107.70079356618225574493408203125">
        <ele>3912.39990234375</ele>
        <time>2023-07-29T17:00:12.000Z</time>
        <extensions>
          <ns3:TrackPointExtension>
            <ns3:hr>106</ns3:hr>
            <ns3:cad>0</ns3:cad>
          </ns3:TrackPointExtension>
        </extensions>
      </trkpt>
      <trkpt lat="37.775526680052280426025390625" lon="-107.70079893060028553009033203125">
        <ele>3912.39990234375</ele>
        <time>2023-07-29T17:00:13.000Z</time>
        <extensions>
          <ns3:TrackPointExtension>
            <ns3:hr>106</ns3:hr>
            <ns3:cad>43</ns3:cad>
          </ns3:TrackPointExtension>
        </extensions>
      </trkpt>
      <trkpt lat="37.775521315634250640869140625" lon="-107.70080245099961757659912109375">
        <ele>3912.199951171875</ele>
        <time>2023-07-29T17:00:14.000Z</time>
        <extensions>
          <ns3:TrackPointExtension>
            <ns3:hr>106</ns3:hr>
            <ns3:cad>43</ns3:cad>
          </ns3:TrackPointExtension>
        </extensions>
      </trkpt>
      <trkpt lat="37.77552827261388301849365234375" lon="-107.7008013613522052764892578125">
        <ele>3912.199951171875</ele>
        <time>2023-07-29T17:00:15.000Z</time>
        <extensions>
          <ns3:TrackPointExtension>
            <ns3:hr>106</ns3:hr>
            <ns3:cad>43</ns3:cad>
          </ns3:TrackPointExtension>
        </extensions>
      </trkpt>
      <trkpt lat="37.77552609331905841827392578125" lon="-107.70080312155187129974365234375">
        <ele>3912.199951171875</ele>
        <time>2023-07-29T17:00:16.000Z</time>
        <extensions>
          <ns3:TrackPointExtension>
            <ns3:hr>106</ns3:hr>
            <ns3:cad>0</ns3:cad>
          </ns3:TrackPointExtension>
        </extensions>
      </trkpt>
      <trkpt lat="37.77552039362490177154541015625" lon="-107.70080479793250560760498046875">
        <ele>3912.199951171875</ele>
        <time>2023-07-29T17:00:17.000Z</time>
        <extensions>
          <ns3:TrackPointExtension>
            <ns3:hr>106</ns3:hr>
            <ns3:cad>0</ns3:cad>
          </ns3:TrackPointExtension>
        </extensions>
      </trkpt>
      <trkpt lat="37.77552039362490177154541015625" lon="-107.70080479793250560760498046875">
        <ele>3912.199951171875</ele>
        <time>2023-07-29T17:00:18.000Z</time>
        <extensions>
          <ns3:TrackPointExtension>
            <ns3:hr>106</ns3:hr>
            <ns3:cad>0</ns3:cad>
          </ns3:TrackPointExtension>
        </extensions>
      </trkpt>
      <trkpt lat="37.77549960650503635406494140625" lon="-107.70081720314919948577880859375">
        <ele>3912.199951171875</ele>
        <time>2023-07-29T17:00:19.000Z</time>
        <extensions>
          <ns3:TrackPointExtension>
            <ns3:hr>107</ns3:hr>
            <ns3:cad>0</ns3:cad>
          </ns3:TrackPointExtension>
        </extensions>
      </trkpt>
      <trkpt lat="37.77548837475478649139404296875" lon="-107.70081686787307262420654296875">
        <ele>3912</ele>
        <time>2023-07-29T17:00:20.000Z</time>
        <extensions>
          <ns3:TrackPointExtension>
            <ns3:hr>107</ns3:hr>
            <ns3:cad>0</ns3:cad>
          </ns3:TrackPointExtension>
        </extensions>
      </trkpt>
      <trkpt lat="37.77548837475478649139404296875" lon="-107.70081686787307262420654296875">
        <ele>3911.800048828125</ele>
        <time>2023-07-29T17:00:21.000Z</time>
        <extensions>
          <ns3:TrackPointExtension>
            <ns3:hr>108</ns3:hr>
            <ns3:cad>0</ns3:cad>
          </ns3:TrackPointExtension>
        </extensions>
      </trkpt>
      <trkpt lat="37.77548837475478649139404296875" lon="-107.70081686787307262420654296875">
        <ele>3911.39990234375</ele>
        <time>2023-07-29T17:00:22.000Z</time>
        <extensions>
          <ns3:TrackPointExtension>
            <ns3:hr>108</ns3:hr>
            <ns3:cad>0</ns3:cad>
          </ns3:TrackPointExtension>
        </extensions>
      </trkpt>
      <trkpt lat="37.77547043748199939727783203125" lon="-107.70081301219761371612548828125">
        <ele>3911.39990234375</ele>
        <time>2023-07-29T17:00:23.000Z</time>
        <extensions>
          <ns3:TrackPointExtension>
            <ns3:hr>109</ns3:hr>
            <ns3:cad>0</ns3:cad>
          </ns3:TrackPointExtension>
        </extensions>
      </trkpt>
      <trkpt lat="37.7754713594913482666015625" lon="-107.70081468857824802398681640625">
        <ele>3911.199951171875</ele>
        <time>2023-07-29T17:00:24.000Z</time>
        <extensions>
          <ns3:TrackPointExtension>
            <ns3:hr>110</ns3:hr>
            <ns3:cad>0</ns3:cad>
          </ns3:TrackPointExtension>
        </extensions>
      </trkpt>
      <trkpt lat="37.7754624746739864349365234375" lon="-107.7008117549121379852294921875">
        <ele>3911.199951171875</ele>
        <time>2023-07-29T17:00:25.000Z</time>
        <extensions>
          <ns3:TrackPointExtension>
            <ns3:hr>111</ns3:hr>
            <ns3:cad>0</ns3:cad>
          </ns3:TrackPointExtension>
        </extensions>
      </trkpt>
      <trkpt lat="37.77545400895178318023681640625" lon="-107.70081418566405773162841796875">
        <ele>3911.199951171875</ele>
        <time>2023-07-29T17:00:26.000Z</time>
        <extensions>
          <ns3:TrackPointExtension>
            <ns3:hr>112</ns3:hr>
            <ns3:cad>0</ns3:cad>
          </ns3:TrackPointExtension>
        </extensions>
      </trkpt>
      <trkpt lat="37.77545602060854434967041015625" lon="-107.70080999471247196197509765625">
        <ele>3910.60009765625</ele>
        <time>2023-07-29T17:00:27.000Z</time>
        <extensions>
          <ns3:TrackPointExtension>
            <ns3:hr>113</ns3:hr>
            <ns3:cad>0</ns3:cad>
          </ns3:TrackPointExtension>
        </extensions>
      </trkpt>
      <trkpt lat="37.77545166201889514923095703125" lon="-107.70080530084669589996337890625">
        <ele>3910.39990234375</ele>
        <time>2023-07-29T17:00:28.000Z</time>
        <extensions>
          <ns3:TrackPointExtension>
            <ns3:hr>113</ns3:hr>
            <ns3:cad>0</ns3:cad>
          </ns3:TrackPointExtension>
        </extensions>
      </trkpt>
      <trkpt lat="37.7754473872482776641845703125" lon="-107.70080320537090301513671875">
        <ele>3910.39990234375</ele>
        <time>2023-07-29T17:00:29.000Z</time>
        <extensions>
          <ns3:TrackPointExtension>
            <ns3:hr>113</ns3:hr>
            <ns3:cad>0</ns3:cad>
          </ns3:TrackPointExtension>
        </extensions>
      </trkpt>
      <trkpt lat="37.775448225438594818115234375" lon="-107.70080328918993473052978515625">
        <ele>3910.39990234375</ele>
        <time>2023-07-29T17:00:30.000Z</time>
        <extensions>
          <ns3:TrackPointExtension>
            <ns3:hr>112</ns3:hr>
            <ns3:cad>0</ns3:cad>
          </ns3:TrackPointExtension>
        </extensions>
      </trkpt>
      <trkpt lat="37.7754443697631359100341796875" lon="-107.70079993642866611480712890625">
        <ele>3910.39990234375</ele>
        <time>2023-07-29T17:00:31.000Z</time>
        <extensions>
          <ns3:TrackPointExtension>
            <ns3:hr>111</ns3:hr>
            <ns3:cad>0</ns3:cad>
          </ns3:TrackPointExtension>
        </extensions>
      </trkpt>
      <trkpt lat="37.7754447050392627716064453125" lon="-107.70079960115253925323486328125">
        <ele>3910.39990234375</ele>
        <time>2023-07-29T17:00:32.000Z</time>
        <extensions>
          <ns3:TrackPointExtension>
            <ns3:hr>109</ns3:hr>
            <ns3:cad>0</ns3:cad>
          </ns3:TrackPointExtension>
        </extensions>
      </trkpt>
      <trkpt lat="37.77544428594410419464111328125" lon="-107.7008010260760784149169921875">
        <ele>3910.39990234375</ele>
        <time>2023-07-29T17:00:33.000Z</time>
        <extensions>
          <ns3:TrackPointExtension>
            <ns3:hr>108</ns3:hr>
            <ns3:cad>0</ns3:cad>
          </ns3:TrackPointExtension>
        </extensions>
      </trkpt>
      <trkpt lat="37.77544411830604076385498046875" lon="-107.70080027170479297637939453125">
        <ele>3910.39990234375</ele>
        <time>2023-07-29T17:00:34.000Z</time>
        <extensions>
          <ns3:TrackPointExtension>
            <ns3:hr>107</ns3:hr>
            <ns3:cad>0</ns3:cad>
          </ns3:TrackPointExtension>
        </extensions>
      </trkpt>
      <trkpt lat="37.7754443697631359100341796875" lon="-107.70080043934285640716552734375">
        <ele>3910.39990234375</ele>
        <time>2023-07-29T17:00:35.000Z</time>
        <extensions>
          <ns3:TrackPointExtension>
            <ns3:hr>107</ns3:hr>
            <ns3:cad>0</ns3:cad>
          </ns3:TrackPointExtension>
        </extensions>
      </trkpt>
      <trkpt lat="37.77544395066797733306884765625" lon="-107.7008000202476978302001953125">
        <ele>3910.39990234375</ele>
        <time>2023-07-29T17:00:36.000Z</time>
        <extensions>
          <ns3:TrackPointExtension>
            <ns3:hr>108</ns3:hr>
            <ns3:cad>0</ns3:cad>
          </ns3:TrackPointExtension>
        </extensions>
      </trkpt>
      <trkpt lat="37.7754436992108821868896484375" lon="-107.7008010260760784149169921875">
        <ele>3910.39990234375</ele>
        <time>2023-07-29T17:00:37.000Z</time>
        <extensions>
          <ns3:TrackPointExtension>
            <ns3:hr>112</ns3:hr>
            <ns3:cad>0</ns3:cad>
          </ns3:TrackPointExtension>
        </extensions>
      </trkpt>
      <trkpt lat="37.77544378302991390228271484375" lon="-107.70080312155187129974365234375">
        <ele>3910.39990234375</ele>
        <time>2023-07-29T17:00:38.000Z</time>
        <extensions>
          <ns3:TrackPointExtension>
            <ns3:hr>113</ns3:hr>
            <ns3:cad>0</ns3:cad>
          </ns3:TrackPointExtension>
        </extensions>
      </trkpt>
      <trkpt lat="37.775439508259296417236328125" lon="-107.700812928378582000732421875">
        <ele>3910.39990234375</ele>
        <time>2023-07-29T17:00:39.000Z</time>
        <extensions>
          <ns3:TrackPointExtension>
            <ns3:hr>113</ns3:hr>
            <ns3:cad>0</ns3:cad>
          </ns3:TrackPointExtension>
        </extensions>
      </trkpt>
      <trkpt lat="37.7754379995167255401611328125" lon="-107.70081921480596065521240234375">
        <ele>3910.39990234375</ele>
        <time>2023-07-29T17:00:40.000Z</time>
        <extensions>
          <ns3:TrackPointExtension>
            <ns3:hr>113</ns3:hr>
            <ns3:cad>0</ns3:cad>
          </ns3:TrackPointExtension>
        </extensions>
      </trkpt>
      <trkpt lat="37.7754363231360912322998046875" lon="-107.700820975005626678466796875">
        <ele>3910.199951171875</ele>
        <time>2023-07-29T17:00:41.000Z</time>
        <extensions>
          <ns3:TrackPointExtension>
            <ns3:hr>113</ns3:hr>
            <ns3:cad>0</ns3:cad>
          </ns3:TrackPointExtension>
        </extensions>
      </trkpt>
      <trkpt lat="37.775430791079998016357421875" lon="-107.70082508213818073272705078125">
        <ele>3910.199951171875</ele>
        <time>2023-07-29T17:00:42.000Z</time>
        <extensions>
          <ns3:TrackPointExtension>
            <ns3:hr>114</ns3:hr>
            <ns3:cad>0</ns3:cad>
          </ns3:TrackPointExtension>
        </extensions>
      </trkpt>
      <trkpt lat="37.77542500756680965423583984375" lon="-107.70083111710846424102783203125">
        <ele>3910</ele>
        <time>2023-07-29T17:00:43.000Z</time>
        <extensions>
          <ns3:TrackPointExtension>
            <ns3:hr>114</ns3:hr>
            <ns3:cad>0</ns3:cad>
          </ns3:TrackPointExtension>
        </extensions>
      </trkpt>
      <trkpt lat="37.77541293762624263763427734375" lon="-107.70083949901163578033447265625">
        <ele>3910</ele>
        <time>2023-07-29T17:00:44.000Z</time>
        <extensions>
          <ns3:TrackPointExtension>
            <ns3:hr>114</ns3:hr>
            <ns3:cad>65</ns3:cad>
          </ns3:TrackPointExtension>
        </extensions>
      </trkpt>
      <trkpt lat="37.77540422044694423675537109375" lon="-107.70084612071514129638671875">
        <ele>3909.800048828125</ele>
        <time>2023-07-29T17:00:45.000Z</time>
        <extensions>
          <ns3:TrackPointExtension>
            <ns3:hr>114</ns3:hr>
            <ns3:cad>65</ns3:cad>
          </ns3:TrackPointExtension>
        </extensions>
      </trkpt>
      <trkpt lat="37.77540019713342189788818359375" lon="-107.7008499763906002044677734375">
        <ele>3909.60009765625</ele>
        <time>2023-07-29T17:00:46.000Z</time>
        <extensions>
          <ns3:TrackPointExtension>
            <ns3:hr>114</ns3:hr>
            <ns3:cad>65</ns3:cad>
          </ns3:TrackPointExtension>
        </extensions>
      </trkpt>
      <trkpt lat="37.77540153823792934417724609375" lon="-107.700856514275074005126953125">
        <ele>3909.39990234375</ele>
        <time>2023-07-29T17:00:47.000Z</time>
        <extensions>
          <ns3:TrackPointExtension>
            <ns3:hr>114</ns3:hr>
            <ns3:cad>65</ns3:cad>
          </ns3:TrackPointExtension>
        </extensions>
      </trkpt>
      <trkpt lat="37.77540237642824649810791015625" lon="-107.70086179487407207489013671875">
        <ele>3909</ele>
        <time>2023-07-29T17:00:48.000Z</time>
        <extensions>
          <ns3:TrackPointExtension>
            <ns3:hr>114</ns3:hr>
            <ns3:cad>65</ns3:cad>
          </ns3:TrackPointExtension>
        </extensions>
      </trkpt>
      <trkpt lat="37.77539969421923160552978515625" lon="-107.7008690871298313140869140625">
        <ele>3909</ele>
        <time>2023-07-29T17:00:49.000Z</time>
        <extensions>
          <ns3:TrackPointExtension>
            <ns3:hr>114</ns3:hr>
            <ns3:cad>0</ns3:cad>
          </ns3:TrackPointExtension>
        </extensions>
      </trkpt>
      <trkpt lat="37.77539558708667755126953125" lon="-107.70086749456822872161865234375">
        <ele>3908.800048828125</ele>
        <time>2023-07-29T17:00:50.000Z</time>
        <extensions>
          <ns3:TrackPointExtension>
            <ns3:hr>114</ns3:hr>
            <ns3:cad>0</ns3:cad>
          </ns3:TrackPointExtension>
        </extensions>
      </trkpt>
      <trkpt lat="37.77539231814444065093994140625" lon="-107.70086581818759441375732421875">
        <ele>3908.60009765625</ele>
        <time>2023-07-29T17:00:51.000Z</time>
        <extensions>
          <ns3:TrackPointExtension>
            <ns3:hr>114</ns3:hr>
            <ns3:cad>0</ns3:cad>
          </ns3:TrackPointExtension>
        </extensions>
      </trkpt>
      <trkpt lat="37.77538980357348918914794921875" lon="-107.70086816512048244476318359375">
        <ele>3908.60009765625</ele>
        <time>2023-07-29T17:00:52.000Z</time>
        <extensions>
          <ns3:TrackPointExtension>
            <ns3:hr>114</ns3:hr>
            <ns3:cad>0</ns3:cad>
          </ns3:TrackPointExtension>
        </extensions>
      </trkpt>
      <trkpt lat="37.77539298869669437408447265625" lon="-107.70087218843400478363037109375">
        <ele>3908.199951171875</ele>
        <time>2023-07-29T17:00:53.000Z</time>
        <extensions>
          <ns3:TrackPointExtension>
            <ns3:hr>115</ns3:hr>
            <ns3:cad>0</ns3:cad>
          </ns3:TrackPointExtension>
        </extensions>
      </trkpt>
      <trkpt lat="37.77539483271539211273193359375" lon="-107.70087319426238536834716796875">
        <ele>3908.199951171875</ele>
        <time>2023-07-29T17:00:54.000Z</time>
        <extensions>
          <ns3:TrackPointExtension>
            <ns3:hr>115</ns3:hr>
            <ns3:cad>0</ns3:cad>
          </ns3:TrackPointExtension>
        </extensions>
      </trkpt>
      <trkpt lat="37.77539365924894809722900390625" lon="-107.7008744515478610992431640625">
        <ele>3908</ele>
        <time>2023-07-29T17:00:55.000Z</time>
        <extensions>
          <ns3:TrackPointExtension>
            <ns3:hr>114</ns3:hr>
            <ns3:cad>0</ns3:cad>
          </ns3:TrackPointExtension>
        </extensions>
      </trkpt>
      <trkpt lat="37.77539365924894809722900390625" lon="-107.7008744515478610992431640625">
        <ele>3907.800048828125</ele>
        <time>2023-07-29T17:00:56.000Z</time>
        <extensions>
          <ns3:TrackPointExtension>
            <ns3:hr>114</ns3:hr>
            <ns3:cad>0</ns3:cad>
          </ns3:TrackPointExtension>
        </extensions>
      </trkpt>
      <trkpt lat="37.77539365924894809722900390625" lon="-107.7008744515478610992431640625">
        <ele>3907.39990234375</ele>
        <time>2023-07-29T17:00:57.000Z</time>
        <extensions>
          <ns3:TrackPointExtension>
            <ns3:hr>114</ns3:hr>
            <ns3:cad>0</ns3:cad>
          </ns3:TrackPointExtension>
        </extensions>
      </trkpt>
      <trkpt lat="37.7753786556422710418701171875" lon="-107.70086984150111675262451171875">
        <ele>3907.199951171875</ele>
        <time>2023-07-29T17:00:58.000Z</time>
        <extensions>
          <ns3:TrackPointExtension>
            <ns3:hr>114</ns3:hr>
            <ns3:cad>0</ns3:cad>
          </ns3:TrackPointExtension>
        </extensions>
      </trkpt>
      <trkpt lat="37.775370441377162933349609375" lon="-107.70087319426238536834716796875">
        <ele>3907.199951171875</ele>
        <time>2023-07-29T17:00:59.000Z</time>
        <extensions>
          <ns3:TrackPointExtension>
            <ns3:hr>114</ns3:hr>
            <ns3:cad>0</ns3:cad>
          </ns3:TrackPointExtension>
        </extensions>
      </trkpt>
      <trkpt lat="37.77536365203559398651123046875" lon="-107.70087604410946369171142578125">
        <ele>3907</ele>
        <time>2023-07-29T17:01:00.000Z</time>
        <extensions>
          <ns3:TrackPointExtension>
            <ns3:hr>114</ns3:hr>
            <ns3:cad>0</ns3:cad>
          </ns3:TrackPointExtension>
        </extensions>
      </trkpt>
      <trkpt lat="37.77535225264728069305419921875" lon="-107.7008821628987789154052734375">
        <ele>3906.800048828125</ele>
        <time>2023-07-29T17:01:01.000Z</time>
        <extensions>
          <ns3:TrackPointExtension>
            <ns3:hr>114</ns3:hr>
            <ns3:cad>0</ns3:cad>
          </ns3:TrackPointExtension>
        </extensions>
      </trkpt>
      <trkpt lat="37.775344960391521453857421875" lon="-107.70088291727006435394287109375">
        <ele>3906.60009765625</ele>
        <time>2023-07-29T17:01:02.000Z</time>
        <extensions>
          <ns3:TrackPointExtension>
            <ns3:hr>114</ns3:hr>
            <ns3:cad>0</ns3:cad>
          </ns3:TrackPointExtension>
        </extensions>
      </trkpt>
      <trkpt lat="37.77533750049769878387451171875" lon="-107.70088911987841129302978515625">
        <ele>3906.39990234375</ele>
        <time>2023-07-29T17:01:03.000Z</time>
        <extensions>
          <ns3:TrackPointExtension>
            <ns3:hr>114</ns3:hr>
            <ns3:cad>0</ns3:cad>
          </ns3:TrackPointExtension>
        </extensions>
      </trkpt>
      <trkpt lat="37.775333561003208160400390625" lon="-107.70089129917323589324951171875">
        <ele>3906.199951171875</ele>
        <time>2023-07-29T17:01:04.000Z</time>
        <extensions>
          <ns3:TrackPointExtension>
            <ns3:hr>114</ns3:hr>
            <ns3:cad>0</ns3:cad>
          </ns3:TrackPointExtension>
        </extensions>
      </trkpt>
      <trkpt lat="37.7753293700516223907470703125" lon="-107.700892388820648193359375">
        <ele>3905.800048828125</ele>
        <time>2023-07-29T17:01:05.000Z</time>
        <extensions>
          <ns3:TrackPointExtension>
            <ns3:hr>114</ns3:hr>
            <ns3:cad>0</ns3:cad>
          </ns3:TrackPointExtension>
        </extensions>
      </trkpt>
      <trkpt lat="37.77532710693776607513427734375" lon="-107.70089616067707538604736328125">
        <ele>3905.800048828125</ele>
        <time>2023-07-29T17:01:06.000Z</time>
        <extensions>
          <ns3:TrackPointExtension>
            <ns3:hr>113</ns3:hr>
            <ns3:cad>0</ns3:cad>
          </ns3:TrackPointExtension>
        </extensions>
      </trkpt>
      <trkpt lat="37.775328196585178375244140625" lon="-107.700898759067058563232421875">
        <ele>3905.60009765625</ele>
        <time>2023-07-29T17:01:07.000Z</time>
        <extensions>
          <ns3:TrackPointExtension>
            <ns3:hr>114</ns3:hr>
            <ns3:cad>0</ns3:cad>
          </ns3:TrackPointExtension>
        </extensions>
      </trkpt>
      <trkpt lat="37.775325514376163482666015625" lon="-107.700896076858043670654296875">
        <ele>3905.60009765625</ele>
        <time>2023-07-29T17:01:08.000Z</time>
        <extensions>
          <ns3:TrackPointExtension>
            <ns3:hr>113</ns3:hr>
            <ns3:cad>0</ns3:cad>
          </ns3:TrackPointExtension>
        </extensions>
      </trkpt>
      <trkpt lat="37.7753253467381000518798828125" lon="-107.7008962444961071014404296875">
        <ele>3905.39990234375</ele>
        <time>2023-07-29T17:01:09.000Z</time>
        <extensions>
          <ns3:TrackPointExtension>
            <ns3:hr>113</ns3:hr>
            <ns3:cad>0</ns3:cad>
          </ns3:TrackPointExtension>
        </extensions>
      </trkpt>
      <trkpt lat="37.77532492764294147491455078125" lon="-107.7008955739438533782958984375">
        <ele>3905.199951171875</ele>
        <time>2023-07-29T17:01:10.000Z</time>
        <extensions>
          <ns3:TrackPointExtension>
            <ns3:hr>113</ns3:hr>
            <ns3:cad>0</ns3:cad>
          </ns3:TrackPointExtension>
        </extensions>
      </trkpt>
      <trkpt lat="37.77532517910003662109375" lon="-107.70089532248675823211669921875">
        <ele>3905.199951171875</ele>
        <time>2023-07-29T17:01:11.000Z</time>
        <extensions>
          <ns3:TrackPointExtension>
            <ns3:hr>113</ns3:hr>
            <ns3:cad>0</ns3:cad>
          </ns3:TrackPointExtension>
        </extensions>
      </trkpt>
      <trkpt lat="37.7753250114619731903076171875" lon="-107.70089481957256793975830078125">
        <ele>3905.199951171875</ele>
        <time>2023-07-29T17:01:12.000Z</time>
        <extensions>
          <ns3:TrackPointExtension>
            <ns3:hr>113</ns3:hr>
            <ns3:cad>0</ns3:cad>
          </ns3:TrackPointExtension>
        </extensions>
      </trkpt>
      <trkpt lat="37.77532459236681461334228515625" lon="-107.7008938975632190704345703125">
        <ele>3905.199951171875</ele>
        <time>2023-07-29T17:01:13.000Z</time>
        <extensions>
          <ns3:TrackPointExtension>
            <ns3:hr>113</ns3:hr>
            <ns3:cad>0</ns3:cad>
          </ns3:TrackPointExtension>
        </extensions>
      </trkpt>
      <trkpt lat="37.77532358653843402862548828125" lon="-107.7008922211825847625732421875">
        <ele>3905.199951171875</ele>
        <time>2023-07-29T17:01:14.000Z</time>
        <extensions>
          <ns3:TrackPointExtension>
            <ns3:hr>112</ns3:hr>
            <ns3:cad>0</ns3:cad>
          </ns3:TrackPointExtension>
        </extensions>
      </trkpt>
      <trkpt lat="37.77531889267265796661376953125" lon="-107.70087185315787792205810546875">
        <ele>3905.199951171875</ele>
        <time>2023-07-29T17:01:15.000Z</time>
        <extensions>
          <ns3:TrackPointExtension>
            <ns3:hr>110</ns3:hr>
            <ns3:cad>0</ns3:cad>
          </ns3:TrackPointExtension>
        </extensions>
      </trkpt>
      <trkpt lat="37.77531168423593044281005859375" lon="-107.70087252371013164520263671875">
        <ele>3905.199951171875</ele>
        <time>2023-07-29T17:01:16.000Z</time>
        <extensions>
          <ns3:TrackPointExtension>
            <ns3:hr>108</ns3:hr>
            <ns3:cad>0</ns3:cad>
          </ns3:TrackPointExtension>
        </extensions>
      </trkpt>
      <trkpt lat="37.77530397288501262664794921875" lon="-107.70087621174752712249755859375">
        <ele>3905.199951171875</ele>
        <time>2023-07-29T17:01:17.000Z</time>
        <extensions>
          <ns3:TrackPointExtension>
            <ns3:hr>106</ns3:hr>
            <ns3:cad>0</ns3:cad>
          </ns3:TrackPointExtension>
        </extensions>
      </trkpt>
      <trkpt lat="37.7753015421330928802490234375" lon="-107.70088878460228443145751953125">
        <ele>3905.199951171875</ele>
        <time>2023-07-29T17:01:18.000Z</time>
        <extensions>
          <ns3:TrackPointExtension>
            <ns3:hr>105</ns3:hr>
            <ns3:cad>0</ns3:cad>
          </ns3:TrackPointExtension>
        </extensions>
      </trkpt>
      <trkpt lat="37.77530062012374401092529296875" lon="-107.70089833997189998626708984375">
        <ele>3905</ele>
        <time>2023-07-29T17:01:19.000Z</time>
        <extensions>
          <ns3:TrackPointExtension>
            <ns3:hr>105</ns3:hr>
            <ns3:cad>0</ns3:cad>
          </ns3:TrackPointExtension>
        </extensions>
      </trkpt>
      <trkpt lat="37.77529240585863590240478515625" lon="-107.70091510377824306488037109375">
        <ele>3904.800048828125</ele>
        <time>2023-07-29T17:01:20.000Z</time>
        <extensions>
          <ns3:TrackPointExtension>
            <ns3:hr>104</ns3:hr>
            <ns3:cad>0</ns3:cad>
          </ns3:TrackPointExtension>
        </extensions>
      </trkpt>
      <trkpt lat="37.77528159320354461669921875" lon="-107.70093069411814212799072265625">
        <ele>3904.800048828125</ele>
        <time>2023-07-29T17:01:21.000Z</time>
        <extensions>
          <ns3:TrackPointExtension>
            <ns3:hr>104</ns3:hr>
            <ns3:cad>0</ns3:cad>
          </ns3:TrackPointExtension>
        </extensions>
      </trkpt>
      <trkpt lat="37.77527295984327793121337890625" lon="-107.7009445242583751678466796875">
        <ele>3904.60009765625</ele>
        <time>2023-07-29T17:01:22.000Z</time>
        <extensions>
          <ns3:TrackPointExtension>
            <ns3:hr>104</ns3:hr>
            <ns3:cad>0</ns3:cad>
          </ns3:TrackPointExtension>
        </extensions>
      </trkpt>
      <trkpt lat="37.775263823568820953369140625" lon="-107.7009435184299945831298828125">
        <ele>3904.199951171875</ele>
        <time>2023-07-29T17:01:23.000Z</time>
        <extensions>
          <ns3:TrackPointExtension>
            <ns3:hr>104</ns3:hr>
            <ns3:cad>0</ns3:cad>
          </ns3:TrackPointExtension>
        </extensions>
      </trkpt>
      <trkpt lat="37.77526005171239376068115234375" lon="-107.700947038829326629638671875">
        <ele>3904</ele>
        <time>2023-07-29T17:01:24.000Z</time>
        <extensions>
          <ns3:TrackPointExtension>
            <ns3:hr>104</ns3:hr>
            <ns3:cad>0</ns3:cad>
          </ns3:TrackPointExtension>
        </extensions>
      </trkpt>
      <trkpt lat="37.7752546034753322601318359375" lon="-107.70095231942832469940185546875">
        <ele>3903.800048828125</ele>
        <time>2023-07-29T17:01:25.000Z</time>
        <extensions>
          <ns3:TrackPointExtension>
            <ns3:hr>104</ns3:hr>
            <ns3:cad>0</ns3:cad>
          </ns3:TrackPointExtension>
        </extensions>
      </trkpt>
      <trkpt lat="37.77525351382791996002197265625" lon="-107.7009559236466884613037109375">
        <ele>3903.800048828125</ele>
        <time>2023-07-29T17:01:26.000Z</time>
        <extensions>
          <ns3:TrackPointExtension>
            <ns3:hr>104</ns3:hr>
            <ns3:cad>0</ns3:cad>
          </ns3:TrackPointExtension>
        </extensions>
      </trkpt>
      <trkpt lat="37.7752579562366008758544921875" lon="-107.700966484844684600830078125">
        <ele>3903.60009765625</ele>
        <time>2023-07-29T17:01:27.000Z</time>
        <extensions>
          <ns3:TrackPointExtension>
            <ns3:hr>104</ns3:hr>
            <ns3:cad>0</ns3:cad>
          </ns3:TrackPointExtension>
        </extensions>
      </trkpt>
      <trkpt lat="37.77525317855179309844970703125" lon="-107.7009809017181396484375">
        <ele>3903.60009765625</ele>
        <time>2023-07-29T17:01:28.000Z</time>
        <extensions>
          <ns3:TrackPointExtension>
            <ns3:hr>104</ns3:hr>
            <ns3:cad>0</ns3:cad>
          </ns3:TrackPointExtension>
        </extensions>
      </trkpt>
      <trkpt lat="37.77524814940989017486572265625" lon="-107.70099204964935779571533203125">
        <ele>3903.39990234375</ele>
        <time>2023-07-29T17:01:29.000Z</time>
        <extensions>
          <ns3:TrackPointExtension>
            <ns3:hr>104</ns3:hr>
            <ns3:cad>0</ns3:cad>
          </ns3:TrackPointExtension>
        </extensions>
      </trkpt>
      <trkpt lat="37.775232978165149688720703125" lon="-107.70099137909710407257080078125">
        <ele>3903.199951171875</ele>
        <time>2023-07-29T17:01:30.000Z</time>
        <extensions>
          <ns3:TrackPointExtension>
            <ns3:hr>104</ns3:hr>
            <ns3:cad>0</ns3:cad>
          </ns3:TrackPointExtension>
        </extensions>
      </trkpt>
      <trkpt lat="37.77522065676748752593994140625" lon="-107.7009988389909267425537109375">
        <ele>3903</ele>
        <time>2023-07-29T17:01:31.000Z</time>
        <extensions>
          <ns3:TrackPointExtension>
            <ns3:hr>104</ns3:hr>
            <ns3:cad>0</ns3:cad>
          </ns3:TrackPointExtension>
        </extensions>
      </trkpt>
      <trkpt lat="37.775205485522747039794921875" lon="-107.701005376875400543212890625">
        <ele>3902.60009765625</ele>
        <time>2023-07-29T17:01:32.000Z</time>
        <extensions>
          <ns3:TrackPointExtension>
            <ns3:hr>103</ns3:hr>
            <ns3:cad>0</ns3:cad>
          </ns3:TrackPointExtension>
        </extensions>
      </trkpt>
      <trkpt lat="37.775196097791194915771484375" lon="-107.701010406017303466796875">
        <ele>3902.199951171875</ele>
        <time>2023-07-29T17:01:33.000Z</time>
        <extensions>
          <ns3:TrackPointExtension>
            <ns3:hr>103</ns3:hr>
            <ns3:cad>0</ns3:cad>
          </ns3:TrackPointExtension>
        </extensions>
      </trkpt>
      <trkpt lat="37.77518235146999359130859375" lon="-107.7010179497301578521728515625">
        <ele>3901.800048828125</ele>
        <time>2023-07-29T17:01:34.000Z</time>
        <extensions>
          <ns3:TrackPointExtension>
            <ns3:hr>103</ns3:hr>
            <ns3:cad>0</ns3:cad>
          </ns3:TrackPointExtension>
        </extensions>
      </trkpt>
      <trkpt lat="37.77516768313944339752197265625" lon="-107.70102440379559993743896484375">
        <ele>3901.39990234375</ele>
        <time>2023-07-29T17:01:35.000Z</time>
        <extensions>
          <ns3:TrackPointExtension>
            <ns3:hr>103</ns3:hr>
            <ns3:cad>0</ns3:cad>
          </ns3:TrackPointExtension>
        </extensions>
      </trkpt>
      <trkpt lat="37.7751546911895275115966796875" lon="-107.70102758891880512237548828125">
        <ele>3901.199951171875</ele>
        <time>2023-07-29T17:01:36.000Z</time>
        <extensions>
          <ns3:TrackPointExtension>
            <ns3:hr>103</ns3:hr>
            <ns3:cad>0</ns3:cad>
          </ns3:TrackPointExtension>
        </extensions>
      </trkpt>
      <trkpt lat="37.77514354325830936431884765625" lon="-107.70103379152715206146240234375">
        <ele>3901</ele>
        <time>2023-07-29T17:01:37.000Z</time>
        <extensions>
          <ns3:TrackPointExtension>
            <ns3:hr>103</ns3:hr>
            <ns3:cad>0</ns3:cad>
          </ns3:TrackPointExtension>
        </extensions>
      </trkpt>
      <trkpt lat="37.7751315571367740631103515625" lon="-107.70103798247873783111572265625">
        <ele>3901</ele>
        <time>2023-07-29T17:01:38.000Z</time>
        <extensions>
          <ns3:TrackPointExtension>
            <ns3:hr>103</ns3:hr>
            <ns3:cad>0</ns3:cad>
          </ns3:TrackPointExtension>
        </extensions>
      </trkpt>
      <trkpt lat="37.775124013423919677734375" lon="-107.70104217343032360076904296875">
        <ele>3901</ele>
        <time>2023-07-29T17:01:39.000Z</time>
        <extensions>
          <ns3:TrackPointExtension>
            <ns3:hr>103</ns3:hr>
            <ns3:cad>0</ns3:cad>
          </ns3:TrackPointExtension>
        </extensions>
      </trkpt>
      <trkpt lat="37.77511403895914554595947265625" lon="-107.70104485563933849334716796875">
        <ele>3901</ele>
        <time>2023-07-29T17:01:40.000Z</time>
        <extensions>
          <ns3:TrackPointExtension>
            <ns3:hr>104</ns3:hr>
            <ns3:cad>0</ns3:cad>
          </ns3:TrackPointExtension>
        </extensions>
      </trkpt>
      <trkpt lat="37.7751037292182445526123046875" lon="-107.70104787312448024749755859375">
        <ele>3901</ele>
        <time>2023-07-29T17:01:41.000Z</time>
        <extensions>
          <ns3:TrackPointExtension>
            <ns3:hr>105</ns3:hr>
            <ns3:cad>0</ns3:cad>
          </ns3:TrackPointExtension>
        </extensions>
      </trkpt>
      <trkpt lat="37.7750913240015506744384765625" lon="-107.701057009398937225341796875">
        <ele>3901</ele>
        <time>2023-07-29T17:01:42.000Z</time>
        <extensions>
          <ns3:TrackPointExtension>
            <ns3:hr>105</ns3:hr>
            <ns3:cad>0</ns3:cad>
          </ns3:TrackPointExtension>
        </extensions>
      </trkpt>
      <trkpt lat="37.77508403174579143524169921875" lon="-107.701064050197601318359375">
        <ele>3901</ele>
        <time>2023-07-29T17:01:43.000Z</time>
        <extensions>
          <ns3:TrackPointExtension>
            <ns3:hr>106</ns3:hr>
            <ns3:cad>0</ns3:cad>
          </ns3:TrackPointExtension>
        </extensions>
      </trkpt>
      <trkpt lat="37.77507564984261989593505859375" lon="-107.70107603631913661956787109375">
        <ele>3901</ele>
        <time>2023-07-29T17:01:44.000Z</time>
        <extensions>
          <ns3:TrackPointExtension>
            <ns3:hr>106</ns3:hr>
            <ns3:cad>0</ns3:cad>
          </ns3:TrackPointExtension>
        </extensions>
      </trkpt>
      <trkpt lat="37.77507129125297069549560546875" lon="-107.7010819874703884124755859375">
        <ele>3900.800048828125</ele>
        <time>2023-07-29T17:01:45.000Z</time>
        <extensions>
          <ns3:TrackPointExtension>
            <ns3:hr>106</ns3:hr>
            <ns3:cad>0</ns3:cad>
          </ns3:TrackPointExtension>
        </extensions>
      </trkpt>
      <trkpt lat="37.77506005950272083282470703125" lon="-107.70109464414417743682861328125">
        <ele>3900.60009765625</ele>
        <time>2023-07-29T17:01:46.000Z</time>
        <extensions>
          <ns3:TrackPointExtension>
            <ns3:hr>106</ns3:hr>
            <ns3:cad>0</ns3:cad>
          </ns3:TrackPointExtension>
        </extensions>
      </trkpt>
      <trkpt lat="37.77504815720021724700927734375" lon="-107.70110520534217357635498046875">
        <ele>3900.60009765625</ele>
        <time>2023-07-29T17:01:47.000Z</time>
        <extensions>
          <ns3:TrackPointExtension>
            <ns3:hr>107</ns3:hr>
            <ns3:cad>0</ns3:cad>
          </ns3:TrackPointExtension>
        </extensions>
      </trkpt>
      <trkpt lat="37.77503977529704570770263671875" lon="-107.70110906101763248443603515625">
        <ele>3900.60009765625</ele>
        <time>2023-07-29T17:01:48.000Z</time>
        <extensions>
          <ns3:TrackPointExtension>
            <ns3:hr>108</ns3:hr>
            <ns3:cad>0</ns3:cad>
          </ns3:TrackPointExtension>
        </extensions>
      </trkpt>
      <trkpt lat="37.77502887882292270660400390625" lon="-107.70111543126404285430908203125">
        <ele>3900.39990234375</ele>
        <time>2023-07-29T17:01:49.000Z</time>
        <extensions>
          <ns3:TrackPointExtension>
            <ns3:hr>109</ns3:hr>
            <ns3:cad>0</ns3:cad>
          </ns3:TrackPointExtension>
        </extensions>
      </trkpt>
      <trkpt lat="37.77501446194946765899658203125" lon="-107.70112196914851665496826171875">
        <ele>3900.199951171875</ele>
        <time>2023-07-29T17:01:50.000Z</time>
        <extensions>
          <ns3:TrackPointExtension>
            <ns3:hr>113</ns3:hr>
            <ns3:cad>0</ns3:cad>
          </ns3:TrackPointExtension>
        </extensions>
      </trkpt>
      <trkpt lat="37.77500691823661327362060546875" lon="-107.70112507045269012451171875">
        <ele>3900</ele>
        <time>2023-07-29T17:01:51.000Z</time>
        <extensions>
          <ns3:TrackPointExtension>
            <ns3:hr>116</ns3:hr>
            <ns3:cad>0</ns3:cad>
          </ns3:TrackPointExtension>
        </extensions>
      </trkpt>
      <trkpt lat="37.77499769814312458038330078125" lon="-107.701130099594593048095703125">
        <ele>3900</ele>
        <time>2023-07-29T17:01:52.000Z</time>
        <extensions>
          <ns3:TrackPointExtension>
            <ns3:hr>118</ns3:hr>
            <ns3:cad>0</ns3:cad>
          </ns3:TrackPointExtension>
        </extensions>
      </trkpt>
      <trkpt lat="37.7749880589544773101806640625" lon="-107.70113504491746425628662109375">
        <ele>3900</ele>
        <time>2023-07-29T17:01:53.000Z</time>
        <extensions>
          <ns3:TrackPointExtension>
            <ns3:hr>119</ns3:hr>
            <ns3:cad>0</ns3:cad>
          </ns3:TrackPointExtension>
        </extensions>
      </trkpt>
      <trkpt lat="37.7749729715287685394287109375" lon="-107.70114527083933353424072265625">
        <ele>3899.800048828125</ele>
        <time>2023-07-29T17:01:54.000Z</time>
        <extensions>
          <ns3:TrackPointExtension>
            <ns3:hr>119</ns3:hr>
            <ns3:cad>0</ns3:cad>
          </ns3:TrackPointExtension>
        </extensions>
      </trkpt>
      <trkpt lat="37.77496249414980411529541015625" lon="-107.70115348510444164276123046875">
        <ele>3899.800048828125</ele>
        <time>2023-07-29T17:01:55.000Z</time>
        <extensions>
          <ns3:TrackPointExtension>
            <ns3:hr>120</ns3:hr>
            <ns3:cad>0</ns3:cad>
          </ns3:TrackPointExtension>
        </extensions>
      </trkpt>
      <trkpt lat="37.7749538607895374298095703125" lon="-107.701160944998264312744140625">
        <ele>3900</ele>
        <time>2023-07-29T17:01:56.000Z</time>
        <extensions>
          <ns3:TrackPointExtension>
            <ns3:hr>120</ns3:hr>
            <ns3:cad>0</ns3:cad>
          </ns3:TrackPointExtension>
        </extensions>
      </trkpt>
      <trkpt lat="37.7749505080282688140869140625" lon="-107.70116530358791351318359375">
        <ele>3900</ele>
        <time>2023-07-29T17:01:57.000Z</time>
        <extensions>
          <ns3:TrackPointExtension>
            <ns3:hr>120</ns3:hr>
            <ns3:cad>0</ns3:cad>
          </ns3:TrackPointExtension>
        </extensions>
      </trkpt>
      <trkpt lat="37.77494573034346103668212890625" lon="-107.701169662177562713623046875">
        <ele>3900.199951171875</ele>
        <time>2023-07-29T17:01:58.000Z</time>
        <extensions>
          <ns3:TrackPointExtension>
            <ns3:hr>120</ns3:hr>
            <ns3:cad>0</ns3:cad>
          </ns3:TrackPointExtension>
        </extensions>
      </trkpt>
      <trkpt lat="37.77493701316416263580322265625" lon="-107.70117762498557567596435546875">
        <ele>3900.199951171875</ele>
        <time>2023-07-29T17:01:59.000Z</time>
        <extensions>
          <ns3:TrackPointExtension>
            <ns3:hr>120</ns3:hr>
            <ns3:cad>0</ns3:cad>
          </ns3:TrackPointExtension>
        </extensions>
      </trkpt>
      <trkpt lat="37.7749407850205898284912109375" lon="-107.701185084879398345947265625">
        <ele>3900.199951171875</ele>
        <time>2023-07-29T17:02:00.000Z</time>
        <extensions>
          <ns3:TrackPointExtension>
            <ns3:hr>120</ns3:hr>
            <ns3:cad>0</ns3:cad>
          </ns3:TrackPointExtension>
        </extensions>
      </trkpt>
      <trkpt lat="37.77493868954479694366455078125" lon="-107.70119153894484043121337890625">
        <ele>3900.199951171875</ele>
        <time>2023-07-29T17:02:01.000Z</time>
        <extensions>
          <ns3:TrackPointExtension>
            <ns3:hr>120</ns3:hr>
            <ns3:cad>0</ns3:cad>
          </ns3:TrackPointExtension>
        </extensions>
      </trkpt>
      <trkpt lat="37.77493449859321117401123046875" lon="-107.70120075903832912445068359375">
        <ele>3900.199951171875</ele>
        <time>2023-07-29T17:02:02.000Z</time>
        <extensions>
          <ns3:TrackPointExtension>
            <ns3:hr>120</ns3:hr>
            <ns3:cad>52</ns3:cad>
          </ns3:TrackPointExtension>
        </extensions>
      </trkpt>
      <trkpt lat="37.77492276392877101898193359375" lon="-107.70120344124734401702880859375">
        <ele>3900</ele>
        <time>2023-07-29T17:02:03.000Z</time>
        <extensions>
          <ns3:TrackPointExtension>
            <ns3:hr>120</ns3:hr>
            <ns3:cad>52</ns3:cad>
          </ns3:TrackPointExtension>
        </extensions>
      </trkpt>
      <trkpt lat="37.77491547167301177978515625" lon="-107.70120863802731037139892578125">
        <ele>3900</ele>
        <time>2023-07-29T17:02:04.000Z</time>
        <extensions>
          <ns3:TrackPointExtension>
            <ns3:hr>120</ns3:hr>
            <ns3:cad>0</ns3:cad>
          </ns3:TrackPointExtension>
        </extensions>
      </trkpt>
      <trkpt lat="37.77490214444696903228759765625" lon="-107.701216600835323333740234375">
        <ele>3900</ele>
        <time>2023-07-29T17:02:05.000Z</time>
        <extensions>
          <ns3:TrackPointExtension>
            <ns3:hr>120</ns3:hr>
            <ns3:cad>0</ns3:cad>
          </ns3:TrackPointExtension>
        </extensions>
      </trkpt>
      <trkpt lat="37.77489242143929004669189453125" lon="-107.70122699439525604248046875">
        <ele>3899.800048828125</ele>
        <time>2023-07-29T17:02:06.000Z</time>
        <extensions>
          <ns3:TrackPointExtension>
            <ns3:hr>119</ns3:hr>
            <ns3:cad>0</ns3:cad>
          </ns3:TrackPointExtension>
        </extensions>
      </trkpt>
      <trkpt lat="37.77487532235682010650634765625" lon="-107.701238729059696197509765625">
        <ele>3899.800048828125</ele>
        <time>2023-07-29T17:02:07.000Z</time>
        <extensions>
          <ns3:TrackPointExtension>
            <ns3:hr>119</ns3:hr>
            <ns3:cad>0</ns3:cad>
          </ns3:TrackPointExtension>
        </extensions>
      </trkpt>
      <trkpt lat="37.7748643420636653900146484375" lon="-107.70124350674450397491455078125">
        <ele>3899.60009765625</ele>
        <time>2023-07-29T17:02:08.000Z</time>
        <extensions>
          <ns3:TrackPointExtension>
            <ns3:hr>119</ns3:hr>
            <ns3:cad>0</ns3:cad>
          </ns3:TrackPointExtension>
        </extensions>
      </trkpt>
      <trkpt lat="37.7748477458953857421875" lon="-107.7012526430189609527587890625">
        <ele>3899.60009765625</ele>
        <time>2023-07-29T17:02:09.000Z</time>
        <extensions>
          <ns3:TrackPointExtension>
            <ns3:hr>119</ns3:hr>
            <ns3:cad>0</ns3:cad>
          </ns3:TrackPointExtension>
        </extensions>
      </trkpt>
      <trkpt lat="37.77483743615448474884033203125" lon="-107.70126077346503734588623046875">
        <ele>3899.60009765625</ele>
        <time>2023-07-29T17:02:10.000Z</time>
        <extensions>
          <ns3:TrackPointExtension>
            <ns3:hr>119</ns3:hr>
            <ns3:cad>0</ns3:cad>
          </ns3:TrackPointExtension>
        </extensions>
      </trkpt>
      <trkpt lat="37.7748288027942180633544921875" lon="-107.7012680657207965850830078125">
        <ele>3899.60009765625</ele>
        <time>2023-07-29T17:02:11.000Z</time>
        <extensions>
          <ns3:TrackPointExtension>
            <ns3:hr>118</ns3:hr>
            <ns3:cad>0</ns3:cad>
          </ns3:TrackPointExtension>
        </extensions>
      </trkpt>
      <trkpt lat="37.77482067234814167022705078125" lon="-107.7012744359672069549560546875">
        <ele>3899.60009765625</ele>
        <time>2023-07-29T17:02:12.000Z</time>
        <extensions>
          <ns3:TrackPointExtension>
            <ns3:hr>118</ns3:hr>
            <ns3:cad>0</ns3:cad>
          </ns3:TrackPointExtension>
        </extensions>
      </trkpt>
      <trkpt lat="37.7748103626072406768798828125" lon="-107.7012772858142852783203125">
        <ele>3899.39990234375</ele>
        <time>2023-07-29T17:02:13.000Z</time>
        <extensions>
          <ns3:TrackPointExtension>
            <ns3:hr>118</ns3:hr>
            <ns3:cad>57</ns3:cad>
          </ns3:TrackPointExtension>
        </extensions>
      </trkpt>
      <trkpt lat="37.774797789752483367919921875" lon="-107.70128424279391765594482421875">
        <ele>3899.60009765625</ele>
        <time>2023-07-29T17:02:14.000Z</time>
        <extensions>
          <ns3:TrackPointExtension>
            <ns3:hr>118</ns3:hr>
            <ns3:cad>57</ns3:cad>
          </ns3:TrackPointExtension>
        </extensions>
      </trkpt>
      <trkpt lat="37.77478379197418689727783203125" lon="-107.7012928761541843414306640625">
        <ele>3899.60009765625</ele>
        <time>2023-07-29T17:02:15.000Z</time>
        <extensions>
          <ns3:TrackPointExtension>
            <ns3:hr>118</ns3:hr>
            <ns3:cad>57</ns3:cad>
          </ns3:TrackPointExtension>
        </extensions>
      </trkpt>
      <trkpt lat="37.7747701294720172882080078125" lon="-107.70130000077188014984130859375">
        <ele>3899.60009765625</ele>
        <time>2023-07-29T17:02:16.000Z</time>
        <extensions>
          <ns3:TrackPointExtension>
            <ns3:hr>118</ns3:hr>
            <ns3:cad>53</ns3:cad>
          </ns3:TrackPointExtension>
        </extensions>
      </trkpt>
      <trkpt lat="37.7747604064643383026123046875" lon="-107.70130502991378307342529296875">
        <ele>3900</ele>
        <time>2023-07-29T17:02:17.000Z</time>
        <extensions>
          <ns3:TrackPointExtension>
            <ns3:hr>118</ns3:hr>
            <ns3:cad>53</ns3:cad>
          </ns3:TrackPointExtension>
        </extensions>
      </trkpt>
      <trkpt lat="37.77475479058921337127685546875" lon="-107.70130804739892482757568359375">
        <ele>3900.199951171875</ele>
        <time>2023-07-29T17:02:18.000Z</time>
        <extensions>
          <ns3:TrackPointExtension>
            <ns3:hr>118</ns3:hr>
            <ns3:cad>53</ns3:cad>
          </ns3:TrackPointExtension>
        </extensions>
      </trkpt>
      <trkpt lat="37.77474557049572467803955078125" lon="-107.7013146691024303436279296875">
        <ele>3900.60009765625</ele>
        <time>2023-07-29T17:02:19.000Z</time>
        <extensions>
          <ns3:TrackPointExtension>
            <ns3:hr>118</ns3:hr>
            <ns3:cad>53</ns3:cad>
          </ns3:TrackPointExtension>
        </extensions>
      </trkpt>
      <trkpt lat="37.77473869733512401580810546875" lon="-107.70132011733949184417724609375">
        <ele>3900.800048828125</ele>
        <time>2023-07-29T17:02:20.000Z</time>
        <extensions>
          <ns3:TrackPointExtension>
            <ns3:hr>119</ns3:hr>
            <ns3:cad>0</ns3:cad>
          </ns3:TrackPointExtension>
        </extensions>
      </trkpt>
      <trkpt lat="37.77472880668938159942626953125" lon="-107.70132598467171192169189453125">
        <ele>3900.800048828125</ele>
        <time>2023-07-29T17:02:21.000Z</time>
        <extensions>
          <ns3:TrackPointExtension>
            <ns3:hr>119</ns3:hr>
            <ns3:cad>0</ns3:cad>
          </ns3:TrackPointExtension>
        </extensions>
      </trkpt>
      <trkpt lat="37.77472310699522495269775390625" lon="-107.70133118145167827606201171875">
        <ele>3901</ele>
        <time>2023-07-29T17:02:22.000Z</time>
        <extensions>
          <ns3:TrackPointExtension>
            <ns3:hr>120</ns3:hr>
            <ns3:cad>52</ns3:cad>
          </ns3:TrackPointExtension>
        </extensions>
      </trkpt>
      <trkpt lat="37.7747138030827045440673828125" lon="-107.70133721642196178436279296875">
        <ele>3901</ele>
        <time>2023-07-29T17:02:23.000Z</time>
        <extensions>
          <ns3:TrackPointExtension>
            <ns3:hr>120</ns3:hr>
            <ns3:cad>52</ns3:cad>
          </ns3:TrackPointExtension>
        </extensions>
      </trkpt>
      <trkpt lat="37.7747050859034061431884765625" lon="-107.70134274847805500030517578125">
        <ele>3901.199951171875</ele>
        <time>2023-07-29T17:02:24.000Z</time>
        <extensions>
          <ns3:TrackPointExtension>
            <ns3:hr>121</ns3:hr>
            <ns3:cad>52</ns3:cad>
          </ns3:TrackPointExtension>
        </extensions>
      </trkpt>
      <trkpt lat="37.77469829656183719635009765625" lon="-107.70134660415351390838623046875">
        <ele>3901.199951171875</ele>
        <time>2023-07-29T17:02:25.000Z</time>
        <extensions>
          <ns3:TrackPointExtension>
            <ns3:hr>122</ns3:hr>
            <ns3:cad>52</ns3:cad>
          </ns3:TrackPointExtension>
        </extensions>
      </trkpt>
      <trkpt lat="37.77469360269606113433837890625" lon="-107.70134911872446537017822265625">
        <ele>3901.39990234375</ele>
        <time>2023-07-29T17:02:26.000Z</time>
        <extensions>
          <ns3:TrackPointExtension>
            <ns3:hr>123</ns3:hr>
            <ns3:cad>52</ns3:cad>
          </ns3:TrackPointExtension>
        </extensions>
      </trkpt>
      <trkpt lat="37.77468153275549411773681640625" lon="-107.701358087360858917236328125">
        <ele>3901.60009765625</ele>
        <time>2023-07-29T17:02:27.000Z</time>
        <extensions>
          <ns3:TrackPointExtension>
            <ns3:hr>124</ns3:hr>
            <ns3:cad>53</ns3:cad>
          </ns3:TrackPointExtension>
        </extensions>
      </trkpt>
      <trkpt lat="37.7746685408055782318115234375" lon="-107.7013575844466686248779296875">
        <ele>3901.800048828125</ele>
        <time>2023-07-29T17:02:28.000Z</time>
        <extensions>
          <ns3:TrackPointExtension>
            <ns3:hr>125</ns3:hr>
            <ns3:cad>53</ns3:cad>
          </ns3:TrackPointExtension>
        </extensions>
      </trkpt>
      <trkpt lat="37.774663008749485015869140625" lon="-107.7013629488646984100341796875">
        <ele>3901.60009765625</ele>
        <time>2023-07-29T17:02:29.000Z</time>
        <extensions>
          <ns3:TrackPointExtension>
            <ns3:hr>126</ns3:hr>
            <ns3:cad>0</ns3:cad>
          </ns3:TrackPointExtension>
        </extensions>
      </trkpt>
      <trkpt lat="37.77465035207569599151611328125" lon="-107.70136940293014049530029296875">
        <ele>3901.800048828125</ele>
        <time>2023-07-29T17:02:30.000Z</time>
        <extensions>
          <ns3:TrackPointExtension>
            <ns3:hr>126</ns3:hr>
            <ns3:cad>0</ns3:cad>
          </ns3:TrackPointExtension>
        </extensions>
      </trkpt>
      <trkpt lat="37.77463861741125583648681640625" lon="-107.70137996412813663482666015625">
        <ele>3902</ele>
        <time>2023-07-29T17:02:31.000Z</time>
        <extensions>
          <ns3:TrackPointExtension>
            <ns3:hr>127</ns3:hr>
            <ns3:cad>0</ns3:cad>
          </ns3:TrackPointExtension>
        </extensions>
      </trkpt>
      <trkpt lat="37.774628140032291412353515625" lon="-107.7013885974884033203125">
        <ele>3902.199951171875</ele>
        <time>2023-07-29T17:02:32.000Z</time>
        <extensions>
          <ns3:TrackPointExtension>
            <ns3:hr>127</ns3:hr>
            <ns3:cad>0</ns3:cad>
          </ns3:TrackPointExtension>
        </extensions>
      </trkpt>
      <trkpt lat="37.77461984194815158843994140625" lon="-107.7013974823057651519775390625">
        <ele>3902.39990234375</ele>
        <time>2023-07-29T17:02:33.000Z</time>
        <extensions>
          <ns3:TrackPointExtension>
            <ns3:hr>127</ns3:hr>
            <ns3:cad>0</ns3:cad>
          </ns3:TrackPointExtension>
        </extensions>
      </trkpt>
      <trkpt lat="37.77460944838821887969970703125" lon="-107.70140779204666614532470703125">
        <ele>3902.39990234375</ele>
        <time>2023-07-29T17:02:34.000Z</time>
        <extensions>
          <ns3:TrackPointExtension>
            <ns3:hr>127</ns3:hr>
            <ns3:cad>0</ns3:cad>
          </ns3:TrackPointExtension>
        </extensions>
      </trkpt>
      <trkpt lat="37.77459897100925445556640625" lon="-107.7014194428920745849609375">
        <ele>3902.60009765625</ele>
        <time>2023-07-29T17:02:35.000Z</time>
        <extensions>
          <ns3:TrackPointExtension>
            <ns3:hr>127</ns3:hr>
            <ns3:cad>0</ns3:cad>
          </ns3:TrackPointExtension>
        </extensions>
      </trkpt>
      <trkpt lat="37.77459218166768550872802734375" lon="-107.701427154242992401123046875">
        <ele>3902.60009765625</ele>
        <time>2023-07-29T17:02:36.000Z</time>
        <extensions>
          <ns3:TrackPointExtension>
            <ns3:hr>128</ns3:hr>
            <ns3:cad>0</ns3:cad>
          </ns3:TrackPointExtension>
        </extensions>
      </trkpt>
      <trkpt lat="37.77458287775516510009765625" lon="-107.70143595524132251739501953125">
        <ele>3902.60009765625</ele>
        <time>2023-07-29T17:02:37.000Z</time>
        <extensions>
          <ns3:TrackPointExtension>
            <ns3:hr>128</ns3:hr>
            <ns3:cad>0</ns3:cad>
          </ns3:TrackPointExtension>
        </extensions>
      </trkpt>
      <trkpt lat="37.77458044700324535369873046875" lon="-107.701437883079051971435546875">
        <ele>3902.800048828125</ele>
        <time>2023-07-29T17:02:38.000Z</time>
        <extensions>
          <ns3:TrackPointExtension>
            <ns3:hr>129</ns3:hr>
            <ns3:cad>50</ns3:cad>
          </ns3:TrackPointExtension>
        </extensions>
      </trkpt>
      <trkpt lat="37.77457172982394695281982421875" lon="-107.70144383423030376434326171875">
        <ele>3902.800048828125</ele>
        <time>2023-07-29T17:02:39.000Z</time>
        <extensions>
          <ns3:TrackPointExtension>
            <ns3:hr>129</ns3:hr>
            <ns3:cad>50</ns3:cad>
          </ns3:TrackPointExtension>
        </extensions>
      </trkpt>
      <trkpt lat="37.774566449224948883056640625" lon="-107.70144618116319179534912109375">
        <ele>3902.800048828125</ele>
        <time>2023-07-29T17:02:40.000Z</time>
        <extensions>
          <ns3:TrackPointExtension>
            <ns3:hr>129</ns3:hr>
            <ns3:cad>50</ns3:cad>
          </ns3:TrackPointExtension>
        </extensions>
      </trkpt>
      <trkpt lat="37.77455580420792102813720703125" lon="-107.7014543116092681884765625">
        <ele>3903.199951171875</ele>
        <time>2023-07-29T17:02:41.000Z</time>
        <extensions>
          <ns3:TrackPointExtension>
            <ns3:hr>129</ns3:hr>
            <ns3:cad>50</ns3:cad>
          </ns3:TrackPointExtension>
        </extensions>
      </trkpt>
      <trkpt lat="37.77454532682895660400390625" lon="-107.70146110095083713531494140625">
        <ele>3903.199951171875</ele>
        <time>2023-07-29T17:02:42.000Z</time>
        <extensions>
          <ns3:TrackPointExtension>
            <ns3:hr>130</ns3:hr>
            <ns3:cad>0</ns3:cad>
          </ns3:TrackPointExtension>
        </extensions>
      </trkpt>
      <trkpt lat="37.7745371125638484954833984375" lon="-107.7014648728072643280029296875">
        <ele>3903.39990234375</ele>
        <time>2023-07-29T17:02:43.000Z</time>
        <extensions>
          <ns3:TrackPointExtension>
            <ns3:hr>130</ns3:hr>
            <ns3:cad>0</ns3:cad>
          </ns3:TrackPointExtension>
        </extensions>
      </trkpt>
      <trkpt lat="37.7745310775935649871826171875" lon="-107.70146495662629604339599609375">
        <ele>3903.39990234375</ele>
        <time>2023-07-29T17:02:44.000Z</time>
        <extensions>
          <ns3:TrackPointExtension>
            <ns3:hr>130</ns3:hr>
            <ns3:cad>0</ns3:cad>
          </ns3:TrackPointExtension>
        </extensions>
      </trkpt>
      <trkpt lat="37.7745330892503261566162109375" lon="-107.701462022960186004638671875">
        <ele>3903.800048828125</ele>
        <time>2023-07-29T17:02:45.000Z</time>
        <extensions>
          <ns3:TrackPointExtension>
            <ns3:hr>131</ns3:hr>
            <ns3:cad>0</ns3:cad>
          </ns3:TrackPointExtension>
        </extensions>
      </trkpt>
      <trkpt lat="37.77453015558421611785888671875" lon="-107.70146361552178859710693359375">
        <ele>3903.800048828125</ele>
        <time>2023-07-29T17:02:46.000Z</time>
        <extensions>
          <ns3:TrackPointExtension>
            <ns3:hr>131</ns3:hr>
            <ns3:cad>0</ns3:cad>
          </ns3:TrackPointExtension>
        </extensions>
      </trkpt>
      <trkpt lat="37.7745283953845500946044921875" lon="-107.7014665491878986358642578125">
        <ele>3904</ele>
        <time>2023-07-29T17:02:47.000Z</time>
        <extensions>
          <ns3:TrackPointExtension>
            <ns3:hr>131</ns3:hr>
            <ns3:cad>0</ns3:cad>
          </ns3:TrackPointExtension>
        </extensions>
      </trkpt>
      <trkpt lat="37.77452529408037662506103515625" lon="-107.70147015340626239776611328125">
        <ele>3904.199951171875</ele>
        <time>2023-07-29T17:02:48.000Z</time>
        <extensions>
          <ns3:TrackPointExtension>
            <ns3:hr>131</ns3:hr>
            <ns3:cad>0</ns3:cad>
          </ns3:TrackPointExtension>
        </extensions>
      </trkpt>
      <trkpt lat="37.77452252805233001708984375" lon="-107.70147585310041904449462890625">
        <ele>3904.39990234375</ele>
        <time>2023-07-29T17:02:49.000Z</time>
        <extensions>
          <ns3:TrackPointExtension>
            <ns3:hr>131</ns3:hr>
            <ns3:cad>0</ns3:cad>
          </ns3:TrackPointExtension>
        </extensions>
      </trkpt>
      <trkpt lat="37.77451942674815654754638671875" lon="-107.70148037932813167572021484375">
        <ele>3904.39990234375</ele>
        <time>2023-07-29T17:02:50.000Z</time>
        <extensions>
          <ns3:TrackPointExtension>
            <ns3:hr>131</ns3:hr>
            <ns3:cad>0</ns3:cad>
          </ns3:TrackPointExtension>
        </extensions>
      </trkpt>
      <trkpt lat="37.774508111178874969482421875" lon="-107.70149496383965015411376953125">
        <ele>3904.39990234375</ele>
        <time>2023-07-29T17:02:51.000Z</time>
        <extensions>
          <ns3:TrackPointExtension>
            <ns3:hr>131</ns3:hr>
            <ns3:cad>0</ns3:cad>
          </ns3:TrackPointExtension>
        </extensions>
      </trkpt>
      <trkpt lat="37.77449570596218109130859375" lon="-107.70150233991444110870361328125">
        <ele>3904.39990234375</ele>
        <time>2023-07-29T17:02:52.000Z</time>
        <extensions>
          <ns3:TrackPointExtension>
            <ns3:hr>131</ns3:hr>
            <ns3:cad>0</ns3:cad>
          </ns3:TrackPointExtension>
        </extensions>
      </trkpt>
      <trkpt lat="37.7744878269731998443603515625" lon="-107.70151725970208644866943359375">
        <ele>3904.39990234375</ele>
        <time>2023-07-29T17:02:53.000Z</time>
        <extensions>
          <ns3:TrackPointExtension>
            <ns3:hr>131</ns3:hr>
            <ns3:cad>0</ns3:cad>
          </ns3:TrackPointExtension>
        </extensions>
      </trkpt>
      <trkpt lat="37.7744844742119312286376953125" lon="-107.701522372663021087646484375">
        <ele>3904.39990234375</ele>
        <time>2023-07-29T17:02:54.000Z</time>
        <extensions>
          <ns3:TrackPointExtension>
            <ns3:hr>131</ns3:hr>
            <ns3:cad>0</ns3:cad>
          </ns3:TrackPointExtension>
        </extensions>
      </trkpt>
      <trkpt lat="37.77448204346001148223876953125" lon="-107.701524384319782257080078125">
        <ele>3904.39990234375</ele>
        <time>2023-07-29T17:02:55.000Z</time>
        <extensions>
          <ns3:TrackPointExtension>
            <ns3:hr>131</ns3:hr>
            <ns3:cad>0</ns3:cad>
          </ns3:TrackPointExtension>
        </extensions>
      </trkpt>
      <trkpt lat="37.7744841389358043670654296875" lon="-107.70152128301560878753662109375">
        <ele>3904.39990234375</ele>
        <time>2023-07-29T17:02:56.000Z</time>
        <extensions>
          <ns3:TrackPointExtension>
            <ns3:hr>131</ns3:hr>
            <ns3:cad>0</ns3:cad>
          </ns3:TrackPointExtension>
        </extensions>
      </trkpt>
      <trkpt lat="37.774477936327457427978515625" lon="-107.7015201933681964874267578125">
        <ele>3904.39990234375</ele>
        <time>2023-07-29T17:02:57.000Z</time>
        <extensions>
          <ns3:TrackPointExtension>
            <ns3:hr>131</ns3:hr>
            <ns3:cad>0</ns3:cad>
          </ns3:TrackPointExtension>
        </extensions>
      </trkpt>
      <trkpt lat="37.774475254118442535400390625" lon="-107.70151826553046703338623046875">
        <ele>3904.800048828125</ele>
        <time>2023-07-29T17:02:58.000Z</time>
        <extensions>
          <ns3:TrackPointExtension>
            <ns3:hr>131</ns3:hr>
            <ns3:cad>0</ns3:cad>
          </ns3:TrackPointExtension>
        </extensions>
      </trkpt>
      <trkpt lat="37.77447114698588848114013671875" lon="-107.7015211991965770721435546875">
        <ele>3904.800048828125</ele>
        <time>2023-07-29T17:02:59.000Z</time>
        <extensions>
          <ns3:TrackPointExtension>
            <ns3:hr>131</ns3:hr>
            <ns3:cad>0</ns3:cad>
          </ns3:TrackPointExtension>
        </extensions>
      </trkpt>
      <trkpt lat="37.77446561492979526519775390625" lon="-107.70152212120592594146728515625">
        <ele>3905</ele>
        <time>2023-07-29T17:03:00.000Z</time>
        <extensions>
          <ns3:TrackPointExtension>
            <ns3:hr>131</ns3:hr>
            <ns3:cad>0</ns3:cad>
          </ns3:TrackPointExtension>
        </extensions>
      </trkpt>
      <trkpt lat="37.77446326799690723419189453125" lon="-107.7015346102416515350341796875">
        <ele>3905.199951171875</ele>
        <time>2023-07-29T17:03:01.000Z</time>
        <extensions>
          <ns3:TrackPointExtension>
            <ns3:hr>131</ns3:hr>
            <ns3:cad>0</ns3:cad>
          </ns3:TrackPointExtension>
        </extensions>
      </trkpt>
      <trkpt lat="37.7744574844837188720703125" lon="-107.7015409804880619049072265625">
        <ele>3905.39990234375</ele>
        <time>2023-07-29T17:03:02.000Z</time>
        <extensions>
          <ns3:TrackPointExtension>
            <ns3:hr>131</ns3:hr>
            <ns3:cad>0</ns3:cad>
          </ns3:TrackPointExtension>
        </extensions>
      </trkpt>
      <trkpt lat="37.77445656247437000274658203125" lon="-107.7015476860105991363525390625">
        <ele>3905.60009765625</ele>
        <time>2023-07-29T17:03:03.000Z</time>
        <extensions>
          <ns3:TrackPointExtension>
            <ns3:hr>131</ns3:hr>
            <ns3:cad>0</ns3:cad>
          </ns3:TrackPointExtension>
        </extensions>
      </trkpt>
      <trkpt lat="37.774447761476039886474609375" lon="-107.70155916921794414520263671875">
        <ele>3906</ele>
        <time>2023-07-29T17:03:04.000Z</time>
        <extensions>
          <ns3:TrackPointExtension>
            <ns3:hr>132</ns3:hr>
            <ns3:cad>0</ns3:cad>
          </ns3:TrackPointExtension>
        </extensions>
      </trkpt>
      <trkpt lat="37.774437367916107177734375" lon="-107.7015674673020839691162109375">
        <ele>3906.199951171875</ele>
        <time>2023-07-29T17:03:05.000Z</time>
        <extensions>
          <ns3:TrackPointExtension>
            <ns3:hr>132</ns3:hr>
            <ns3:cad>0</ns3:cad>
          </ns3:TrackPointExtension>
        </extensions>
      </trkpt>
      <trkpt lat="37.774434350430965423583984375" lon="-107.7015681378543376922607421875">
        <ele>3906.199951171875</ele>
        <time>2023-07-29T17:03:06.000Z</time>
        <extensions>
          <ns3:TrackPointExtension>
            <ns3:hr>132</ns3:hr>
            <ns3:cad>0</ns3:cad>
          </ns3:TrackPointExtension>
        </extensions>
      </trkpt>
      <trkpt lat="37.77442621998488903045654296875" lon="-107.70156838931143283843994140625">
        <ele>3906.39990234375</ele>
        <time>2023-07-29T17:03:07.000Z</time>
        <extensions>
          <ns3:TrackPointExtension>
            <ns3:hr>133</ns3:hr>
            <ns3:cad>0</ns3:cad>
          </ns3:TrackPointExtension>
        </extensions>
      </trkpt>
      <trkpt lat="37.7744185924530029296875" lon="-107.701568305492401123046875">
        <ele>3906.60009765625</ele>
        <time>2023-07-29T17:03:08.000Z</time>
        <extensions>
          <ns3:TrackPointExtension>
            <ns3:hr>133</ns3:hr>
            <ns3:cad>41</ns3:cad>
          </ns3:TrackPointExtension>
        </extensions>
      </trkpt>
      <trkpt lat="37.774412222206592559814453125" lon="-107.7015704847872257232666015625">
        <ele>3907</ele>
        <time>2023-07-29T17:03:09.000Z</time>
        <extensions>
          <ns3:TrackPointExtension>
            <ns3:hr>133</ns3:hr>
            <ns3:cad>41</ns3:cad>
          </ns3:TrackPointExtension>
        </extensions>
      </trkpt>
      <trkpt lat="37.774408198893070220947265625" lon="-107.70156403072178363800048828125">
        <ele>3907.199951171875</ele>
        <time>2023-07-29T17:03:10.000Z</time>
        <extensions>
          <ns3:TrackPointExtension>
            <ns3:hr>134</ns3:hr>
            <ns3:cad>41</ns3:cad>
          </ns3:TrackPointExtension>
        </extensions>
      </trkpt>
      <trkpt lat="37.7744038403034210205078125" lon="-107.70156470127403736114501953125">
        <ele>3907.39990234375</ele>
        <time>2023-07-29T17:03:11.000Z</time>
        <extensions>
          <ns3:TrackPointExtension>
            <ns3:hr>135</ns3:hr>
            <ns3:cad>0</ns3:cad>
          </ns3:TrackPointExtension>
        </extensions>
      </trkpt>
      <trkpt lat="37.7744006551802158355712890625" lon="-107.70156201906502246856689453125">
        <ele>3907.39990234375</ele>
        <time>2023-07-29T17:03:12.000Z</time>
        <extensions>
          <ns3:TrackPointExtension>
            <ns3:hr>135</ns3:hr>
            <ns3:cad>0</ns3:cad>
          </ns3:TrackPointExtension>
        </extensions>
      </trkpt>
      <trkpt lat="37.77439721859991550445556640625" lon="-107.70156017504632472991943359375">
        <ele>3907.39990234375</ele>
        <time>2023-07-29T17:03:13.000Z</time>
        <extensions>
          <ns3:TrackPointExtension>
            <ns3:hr>136</ns3:hr>
            <ns3:cad>0</ns3:cad>
          </ns3:TrackPointExtension>
        </extensions>
      </trkpt>
      <trkpt lat="37.77439487166702747344970703125" lon="-107.701558582484722137451171875">
        <ele>3907.39990234375</ele>
        <time>2023-07-29T17:03:14.000Z</time>
        <extensions>
          <ns3:TrackPointExtension>
            <ns3:hr>136</ns3:hr>
            <ns3:cad>0</ns3:cad>
          </ns3:TrackPointExtension>
        </extensions>
      </trkpt>
      <trkpt lat="37.77438296936452388763427734375" lon="-107.70155958831310272216796875">
        <ele>3907.39990234375</ele>
        <time>2023-07-29T17:03:15.000Z</time>
        <extensions>
          <ns3:TrackPointExtension>
            <ns3:hr>136</ns3:hr>
            <ns3:cad>0</ns3:cad>
          </ns3:TrackPointExtension>
        </extensions>
      </trkpt>
      <trkpt lat="37.77437609620392322540283203125" lon="-107.701559923589229583740234375">
        <ele>3907.39990234375</ele>
        <time>2023-07-29T17:03:16.000Z</time>
        <extensions>
          <ns3:TrackPointExtension>
            <ns3:hr>135</ns3:hr>
            <ns3:cad>0</ns3:cad>
          </ns3:TrackPointExtension>
        </extensions>
      </trkpt>
      <trkpt lat="37.7743647806346416473388671875" lon="-107.70155958831310272216796875">
        <ele>3907.39990234375</ele>
        <time>2023-07-29T17:03:17.000Z</time>
        <extensions>
          <ns3:TrackPointExtension>
            <ns3:hr>132</ns3:hr>
            <ns3:cad>0</ns3:cad>
          </ns3:TrackPointExtension>
        </extensions>
      </trkpt>
      <trkpt lat="37.77435732074081897735595703125" lon="-107.701560594141483306884765625">
        <ele>3907.39990234375</ele>
        <time>2023-07-29T17:03:18.000Z</time>
        <extensions>
          <ns3:TrackPointExtension>
            <ns3:hr>132</ns3:hr>
            <ns3:cad>0</ns3:cad>
          </ns3:TrackPointExtension>
        </extensions>
      </trkpt>
      <trkpt lat="37.7743644453585147857666015625" lon="-107.70156084559857845306396484375">
        <ele>3907.39990234375</ele>
        <time>2023-07-29T17:03:19.000Z</time>
        <extensions>
          <ns3:TrackPointExtension>
            <ns3:hr>131</ns3:hr>
            <ns3:cad>0</ns3:cad>
          </ns3:TrackPointExtension>
        </extensions>
      </trkpt>
      <trkpt lat="37.774357907474040985107421875" lon="-107.701565288007259368896484375">
        <ele>3907.60009765625</ele>
        <time>2023-07-29T17:03:20.000Z</time>
        <extensions>
          <ns3:TrackPointExtension>
            <ns3:hr>132</ns3:hr>
            <ns3:cad>0</ns3:cad>
          </ns3:TrackPointExtension>
        </extensions>
      </trkpt>
      <trkpt lat="37.7743560634553432464599609375" lon="-107.70156922750174999237060546875">
        <ele>3908</ele>
        <time>2023-07-29T17:03:21.000Z</time>
        <extensions>
          <ns3:TrackPointExtension>
            <ns3:hr>131</ns3:hr>
            <ns3:cad>0</ns3:cad>
          </ns3:TrackPointExtension>
        </extensions>
      </trkpt>
      <trkpt lat="37.774347849190235137939453125" lon="-107.7015735022723674774169921875">
        <ele>3908</ele>
        <time>2023-07-29T17:03:22.000Z</time>
        <extensions>
          <ns3:TrackPointExtension>
            <ns3:hr>131</ns3:hr>
            <ns3:cad>0</ns3:cad>
          </ns3:TrackPointExtension>
        </extensions>
      </trkpt>
      <trkpt lat="37.7743433229625225067138671875" lon="-107.70157811231911182403564453125">
        <ele>3908</ele>
        <time>2023-07-29T17:03:23.000Z</time>
        <extensions>
          <ns3:TrackPointExtension>
            <ns3:hr>131</ns3:hr>
            <ns3:cad>0</ns3:cad>
          </ns3:TrackPointExtension>
        </extensions>
      </trkpt>
      <trkpt lat="37.77433955110609531402587890625" lon="-107.70158163271844387054443359375">
        <ele>3908.199951171875</ele>
        <time>2023-07-29T17:03:24.000Z</time>
        <extensions>
          <ns3:TrackPointExtension>
            <ns3:hr>131</ns3:hr>
            <ns3:cad>0</ns3:cad>
          </ns3:TrackPointExtension>
        </extensions>
      </trkpt>
      <trkpt lat="37.7743325941264629364013671875" lon="-107.70158532075583934783935546875">
        <ele>3908.199951171875</ele>
        <time>2023-07-29T17:03:25.000Z</time>
        <extensions>
          <ns3:TrackPointExtension>
            <ns3:hr>131</ns3:hr>
            <ns3:cad>0</ns3:cad>
          </ns3:TrackPointExtension>
        </extensions>
      </trkpt>
      <trkpt lat="37.7743268944323062896728515625" lon="-107.70158984698355197906494140625">
        <ele>3908.800048828125</ele>
        <time>2023-07-29T17:03:26.000Z</time>
        <extensions>
          <ns3:TrackPointExtension>
            <ns3:hr>131</ns3:hr>
            <ns3:cad>0</ns3:cad>
          </ns3:TrackPointExtension>
        </extensions>
      </trkpt>
      <trkpt lat="37.77431909926235675811767578125" lon="-107.7015946246683597564697265625">
        <ele>3909</ele>
        <time>2023-07-29T17:03:27.000Z</time>
        <extensions>
          <ns3:TrackPointExtension>
            <ns3:hr>131</ns3:hr>
            <ns3:cad>0</ns3:cad>
          </ns3:TrackPointExtension>
        </extensions>
      </trkpt>
      <trkpt lat="37.774309627711772918701171875" lon="-107.7015986479818820953369140625">
        <ele>3909</ele>
        <time>2023-07-29T17:03:28.000Z</time>
        <extensions>
          <ns3:TrackPointExtension>
            <ns3:hr>131</ns3:hr>
            <ns3:cad>0</ns3:cad>
          </ns3:TrackPointExtension>
        </extensions>
      </trkpt>
      <trkpt lat="37.774304933845996856689453125" lon="-107.7016107179224491119384765625">
        <ele>3909.199951171875</ele>
        <time>2023-07-29T17:03:29.000Z</time>
        <extensions>
          <ns3:TrackPointExtension>
            <ns3:hr>130</ns3:hr>
            <ns3:cad>0</ns3:cad>
          </ns3:TrackPointExtension>
        </extensions>
      </trkpt>
      <trkpt lat="37.77430099435150623321533203125" lon="-107.70161348395049571990966796875">
        <ele>3909.199951171875</ele>
        <time>2023-07-29T17:03:30.000Z</time>
        <extensions>
          <ns3:TrackPointExtension>
            <ns3:hr>131</ns3:hr>
            <ns3:cad>0</ns3:cad>
          </ns3:TrackPointExtension>
        </extensions>
      </trkpt>
      <trkpt lat="37.77429445646703243255615234375" lon="-107.70161365158855915069580078125">
        <ele>3909.39990234375</ele>
        <time>2023-07-29T17:03:31.000Z</time>
        <extensions>
          <ns3:TrackPointExtension>
            <ns3:hr>131</ns3:hr>
            <ns3:cad>0</ns3:cad>
          </ns3:TrackPointExtension>
        </extensions>
      </trkpt>
      <trkpt lat="37.77428339235484600067138671875" lon="-107.70162203349173069000244140625">
        <ele>3909.60009765625</ele>
        <time>2023-07-29T17:03:32.000Z</time>
        <extensions>
          <ns3:TrackPointExtension>
            <ns3:hr>131</ns3:hr>
            <ns3:cad>0</ns3:cad>
          </ns3:TrackPointExtension>
        </extensions>
      </trkpt>
      <trkpt lat="37.7742812968790531158447265625" lon="-107.70162438042461872100830078125">
        <ele>3909.60009765625</ele>
        <time>2023-07-29T17:03:33.000Z</time>
        <extensions>
          <ns3:TrackPointExtension>
            <ns3:hr>131</ns3:hr>
            <ns3:cad>0</ns3:cad>
          </ns3:TrackPointExtension>
        </extensions>
      </trkpt>
      <trkpt lat="37.7742759324610233306884765625" lon="-107.70162991248071193695068359375">
        <ele>3909.800048828125</ele>
        <time>2023-07-29T17:03:34.000Z</time>
        <extensions>
          <ns3:TrackPointExtension>
            <ns3:hr>131</ns3:hr>
            <ns3:cad>0</ns3:cad>
          </ns3:TrackPointExtension>
        </extensions>
      </trkpt>
      <trkpt lat="37.77427484281361103057861328125" lon="-107.70163343288004398345947265625">
        <ele>3910</ele>
        <time>2023-07-29T17:03:35.000Z</time>
        <extensions>
          <ns3:TrackPointExtension>
            <ns3:hr>132</ns3:hr>
            <ns3:cad>0</ns3:cad>
          </ns3:TrackPointExtension>
        </extensions>
      </trkpt>
      <trkpt lat="37.774271070957183837890625" lon="-107.701633013784885406494140625">
        <ele>3910</ele>
        <time>2023-07-29T17:03:36.000Z</time>
        <extensions>
          <ns3:TrackPointExtension>
            <ns3:hr>132</ns3:hr>
            <ns3:cad>0</ns3:cad>
          </ns3:TrackPointExtension>
        </extensions>
      </trkpt>
      <trkpt lat="37.77426746673882007598876953125" lon="-107.70163360051810741424560546875">
        <ele>3910.199951171875</ele>
        <time>2023-07-29T17:03:37.000Z</time>
        <extensions>
          <ns3:TrackPointExtension>
            <ns3:hr>133</ns3:hr>
            <ns3:cad>0</ns3:cad>
          </ns3:TrackPointExtension>
        </extensions>
      </trkpt>
      <trkpt lat="37.7742658741772174835205078125" lon="-107.70163075067102909088134765625">
        <ele>3910.199951171875</ele>
        <time>2023-07-29T17:03:38.000Z</time>
        <extensions>
          <ns3:TrackPointExtension>
            <ns3:hr>133</ns3:hr>
            <ns3:cad>0</ns3:cad>
          </ns3:TrackPointExtension>
        </extensions>
      </trkpt>
      <trkpt lat="37.7742635272443294525146484375" lon="-107.701629661023616790771484375">
        <ele>3910.199951171875</ele>
        <time>2023-07-29T17:03:39.000Z</time>
        <extensions>
          <ns3:TrackPointExtension>
            <ns3:hr>133</ns3:hr>
            <ns3:cad>0</ns3:cad>
          </ns3:TrackPointExtension>
        </extensions>
      </trkpt>
      <trkpt lat="37.77426302433013916015625" lon="-107.7016259729862213134765625">
        <ele>3910.39990234375</ele>
        <time>2023-07-29T17:03:40.000Z</time>
        <extensions>
          <ns3:TrackPointExtension>
            <ns3:hr>134</ns3:hr>
            <ns3:cad>0</ns3:cad>
          </ns3:TrackPointExtension>
        </extensions>
      </trkpt>
      <trkpt lat="37.774255983531475067138671875" lon="-107.701630331575870513916015625">
        <ele>3910.39990234375</ele>
        <time>2023-07-29T17:03:41.000Z</time>
        <extensions>
          <ns3:TrackPointExtension>
            <ns3:hr>133</ns3:hr>
            <ns3:cad>0</ns3:cad>
          </ns3:TrackPointExtension>
        </extensions>
      </trkpt>
      <trkpt lat="37.77425028383731842041015625" lon="-107.70163334906101226806640625">
        <ele>3910.800048828125</ele>
        <time>2023-07-29T17:03:42.000Z</time>
        <extensions>
          <ns3:TrackPointExtension>
            <ns3:hr>133</ns3:hr>
            <ns3:cad>47</ns3:cad>
          </ns3:TrackPointExtension>
        </extensions>
      </trkpt>
      <trkpt lat="37.774238884449005126953125" lon="-107.70164072513580322265625">
        <ele>3910.800048828125</ele>
        <time>2023-07-29T17:03:43.000Z</time>
        <extensions>
          <ns3:TrackPointExtension>
            <ns3:hr>133</ns3:hr>
            <ns3:cad>47</ns3:cad>
          </ns3:TrackPointExtension>
        </extensions>
      </trkpt>
      <trkpt lat="37.7742375433444976806640625" lon="-107.7016415633261203765869140625">
        <ele>3911.199951171875</ele>
        <time>2023-07-29T17:03:44.000Z</time>
        <extensions>
          <ns3:TrackPointExtension>
            <ns3:hr>132</ns3:hr>
            <ns3:cad>0</ns3:cad>
          </ns3:TrackPointExtension>
        </extensions>
      </trkpt>
      <trkpt lat="37.77422689832746982574462890625" lon="-107.7016474306583404541015625">
        <ele>3911.199951171875</ele>
        <time>2023-07-29T17:03:45.000Z</time>
        <extensions>
          <ns3:TrackPointExtension>
            <ns3:hr>132</ns3:hr>
            <ns3:cad>0</ns3:cad>
          </ns3:TrackPointExtension>
        </extensions>
      </trkpt>
      <trkpt lat="37.77421943843364715576171875" lon="-107.70165145397186279296875">
        <ele>3911.39990234375</ele>
        <time>2023-07-29T17:03:46.000Z</time>
        <extensions>
          <ns3:TrackPointExtension>
            <ns3:hr>132</ns3:hr>
            <ns3:cad>0</ns3:cad>
          </ns3:TrackPointExtension>
        </extensions>
      </trkpt>
      <trkpt lat="37.77421541512012481689453125" lon="-107.70165639929473400115966796875">
        <ele>3911.60009765625</ele>
        <time>2023-07-29T17:03:47.000Z</time>
        <extensions>
          <ns3:TrackPointExtension>
            <ns3:hr>133</ns3:hr>
            <ns3:cad>0</ns3:cad>
          </ns3:TrackPointExtension>
        </extensions>
      </trkpt>
      <trkpt lat="37.77420175261795520782470703125" lon="-107.70166494883596897125244140625">
        <ele>3911.800048828125</ele>
        <time>2023-07-29T17:03:48.000Z</time>
        <extensions>
          <ns3:TrackPointExtension>
            <ns3:hr>133</ns3:hr>
            <ns3:cad>0</ns3:cad>
          </ns3:TrackPointExtension>
        </extensions>
      </trkpt>
      <trkpt lat="37.77419839985668659210205078125" lon="-107.70166662521660327911376953125">
        <ele>3912</ele>
        <time>2023-07-29T17:03:49.000Z</time>
        <extensions>
          <ns3:TrackPointExtension>
            <ns3:hr>133</ns3:hr>
            <ns3:cad>0</ns3:cad>
          </ns3:TrackPointExtension>
        </extensions>
      </trkpt>
      <trkpt lat="37.77419102378189563751220703125" lon="-107.70166821777820587158203125">
        <ele>3912</ele>
        <time>2023-07-29T17:03:50.000Z</time>
        <extensions>
          <ns3:TrackPointExtension>
            <ns3:hr>134</ns3:hr>
            <ns3:cad>0</ns3:cad>
          </ns3:TrackPointExtension>
        </extensions>
      </trkpt>
      <trkpt lat="37.774182222783565521240234375" lon="-107.7016769349575042724609375">
        <ele>3912.199951171875</ele>
        <time>2023-07-29T17:03:51.000Z</time>
        <extensions>
          <ns3:TrackPointExtension>
            <ns3:hr>135</ns3:hr>
            <ns3:cad>0</ns3:cad>
          </ns3:TrackPointExtension>
        </extensions>
      </trkpt>
      <trkpt lat="37.7741770260035991668701171875" lon="-107.70168255083262920379638671875">
        <ele>3912.199951171875</ele>
        <time>2023-07-29T17:03:52.000Z</time>
        <extensions>
          <ns3:TrackPointExtension>
            <ns3:hr>136</ns3:hr>
            <ns3:cad>0</ns3:cad>
          </ns3:TrackPointExtension>
        </extensions>
      </trkpt>
      <trkpt lat="37.7741666324436664581298828125" lon="-107.70169076509773731231689453125">
        <ele>3912.199951171875</ele>
        <time>2023-07-29T17:03:53.000Z</time>
        <extensions>
          <ns3:TrackPointExtension>
            <ns3:hr>136</ns3:hr>
            <ns3:cad>0</ns3:cad>
          </ns3:TrackPointExtension>
        </extensions>
      </trkpt>
      <trkpt lat="37.77416252531111240386962890625" lon="-107.70169235765933990478515625">
        <ele>3912.60009765625</ele>
        <time>2023-07-29T17:03:54.000Z</time>
        <extensions>
          <ns3:TrackPointExtension>
            <ns3:hr>137</ns3:hr>
            <ns3:cad>0</ns3:cad>
          </ns3:TrackPointExtension>
        </extensions>
      </trkpt>
      <trkpt lat="37.7741559036076068878173828125" lon="-107.701695375144481658935546875">
        <ele>3912.60009765625</ele>
        <time>2023-07-29T17:03:55.000Z</time>
        <extensions>
          <ns3:TrackPointExtension>
            <ns3:hr>138</ns3:hr>
            <ns3:cad>0</ns3:cad>
          </ns3:TrackPointExtension>
        </extensions>
      </trkpt>
      <trkpt lat="37.77415146119892597198486328125" lon="-107.701698057353496551513671875">
        <ele>3912.800048828125</ele>
        <time>2023-07-29T17:03:56.000Z</time>
        <extensions>
          <ns3:TrackPointExtension>
            <ns3:hr>139</ns3:hr>
            <ns3:cad>0</ns3:cad>
          </ns3:TrackPointExtension>
        </extensions>
      </trkpt>
      <trkpt lat="37.77414291165769100189208984375" lon="-107.70170082338154315948486328125">
        <ele>3913</ele>
        <time>2023-07-29T17:03:57.000Z</time>
        <extensions>
          <ns3:TrackPointExtension>
            <ns3:hr>139</ns3:hr>
            <ns3:cad>0</ns3:cad>
          </ns3:TrackPointExtension>
        </extensions>
      </trkpt>
      <trkpt lat="37.7741374634206295013427734375" lon="-107.7017056010663509368896484375">
        <ele>3913</ele>
        <time>2023-07-29T17:03:58.000Z</time>
        <extensions>
          <ns3:TrackPointExtension>
            <ns3:hr>139</ns3:hr>
            <ns3:cad>0</ns3:cad>
          </ns3:TrackPointExtension>
        </extensions>
      </trkpt>
      <trkpt lat="37.7741287462413311004638671875" lon="-107.70170970819890499114990234375">
        <ele>3913.39990234375</ele>
        <time>2023-07-29T17:03:59.000Z</time>
        <extensions>
          <ns3:TrackPointExtension>
            <ns3:hr>139</ns3:hr>
            <ns3:cad>0</ns3:cad>
          </ns3:TrackPointExtension>
        </extensions>
      </trkpt>
      <trkpt lat="37.77412262745201587677001953125" lon="-107.70171557553112506866455078125">
        <ele>3913.39990234375</ele>
        <time>2023-07-29T17:04:00.000Z</time>
        <extensions>
          <ns3:TrackPointExtension>
            <ns3:hr>139</ns3:hr>
            <ns3:cad>0</ns3:cad>
          </ns3:TrackPointExtension>
        </extensions>
      </trkpt>
      <trkpt lat="37.77412698604166507720947265625" lon="-107.70171775482594966888427734375">
        <ele>3913.800048828125</ele>
        <time>2023-07-29T17:04:01.000Z</time>
        <extensions>
          <ns3:TrackPointExtension>
            <ns3:hr>137</ns3:hr>
            <ns3:cad>0</ns3:cad>
          </ns3:TrackPointExtension>
        </extensions>
      </trkpt>
      <trkpt lat="37.7741243876516819000244140625" lon="-107.7017233707010746002197265625">
        <ele>3913.800048828125</ele>
        <time>2023-07-29T17:04:02.000Z</time>
        <extensions>
          <ns3:TrackPointExtension>
            <ns3:hr>135</ns3:hr>
            <ns3:cad>0</ns3:cad>
          </ns3:TrackPointExtension>
        </extensions>
      </trkpt>
      <trkpt lat="37.774121202528476715087890625" lon="-107.70172630436718463897705078125">
        <ele>3914.199951171875</ele>
        <time>2023-07-29T17:04:03.000Z</time>
        <extensions>
          <ns3:TrackPointExtension>
            <ns3:hr>135</ns3:hr>
            <ns3:cad>0</ns3:cad>
          </ns3:TrackPointExtension>
        </extensions>
      </trkpt>
      <trkpt lat="37.774112485349178314208984375" lon="-107.7017347700893878936767578125">
        <ele>3914.39990234375</ele>
        <time>2023-07-29T17:04:04.000Z</time>
        <extensions>
          <ns3:TrackPointExtension>
            <ns3:hr>135</ns3:hr>
            <ns3:cad>0</ns3:cad>
          </ns3:TrackPointExtension>
        </extensions>
      </trkpt>
      <trkpt lat="37.77410544455051422119140625" lon="-107.70174306817352771759033203125">
        <ele>3914.60009765625</ele>
        <time>2023-07-29T17:04:05.000Z</time>
        <extensions>
          <ns3:TrackPointExtension>
            <ns3:hr>135</ns3:hr>
            <ns3:cad>0</ns3:cad>
          </ns3:TrackPointExtension>
        </extensions>
      </trkpt>
      <trkpt lat="37.774102427065372467041015625" lon="-107.701746337115764617919921875">
        <ele>3914.800048828125</ele>
        <time>2023-07-29T17:04:06.000Z</time>
        <extensions>
          <ns3:TrackPointExtension>
            <ns3:hr>135</ns3:hr>
            <ns3:cad>0</ns3:cad>
          </ns3:TrackPointExtension>
        </extensions>
      </trkpt>
      <trkpt lat="37.77409748174250125885009765625" lon="-107.7017520368099212646484375">
        <ele>3914.800048828125</ele>
        <time>2023-07-29T17:04:07.000Z</time>
        <extensions>
          <ns3:TrackPointExtension>
            <ns3:hr>135</ns3:hr>
            <ns3:cad>0</ns3:cad>
          </ns3:TrackPointExtension>
        </extensions>
      </trkpt>
      <trkpt lat="37.7740922011435031890869140625" lon="-107.70175446756184101104736328125">
        <ele>3915</ele>
        <time>2023-07-29T17:04:08.000Z</time>
        <extensions>
          <ns3:TrackPointExtension>
            <ns3:hr>135</ns3:hr>
            <ns3:cad>0</ns3:cad>
          </ns3:TrackPointExtension>
        </extensions>
      </trkpt>
      <trkpt lat="37.77408407069742679595947265625" lon="-107.70175941288471221923828125">
        <ele>3915.199951171875</ele>
        <time>2023-07-29T17:04:09.000Z</time>
        <extensions>
          <ns3:TrackPointExtension>
            <ns3:hr>135</ns3:hr>
            <ns3:cad>0</ns3:cad>
          </ns3:TrackPointExtension>
        </extensions>
      </trkpt>
      <trkpt lat="37.77407904155552387237548828125" lon="-107.70175865851342678070068359375">
        <ele>3915.39990234375</ele>
        <time>2023-07-29T17:04:10.000Z</time>
        <extensions>
          <ns3:TrackPointExtension>
            <ns3:hr>135</ns3:hr>
            <ns3:cad>0</ns3:cad>
          </ns3:TrackPointExtension>
        </extensions>
      </trkpt>
      <trkpt lat="37.77407267130911350250244140625" lon="-107.70175463519990444183349609375">
        <ele>3915.39990234375</ele>
        <time>2023-07-29T17:04:11.000Z</time>
        <extensions>
          <ns3:TrackPointExtension>
            <ns3:hr>135</ns3:hr>
            <ns3:cad>0</ns3:cad>
          </ns3:TrackPointExtension>
        </extensions>
      </trkpt>
      <trkpt lat="37.77406630106270313262939453125" lon="-107.7017572335898876190185546875">
        <ele>3915.60009765625</ele>
        <time>2023-07-29T17:04:12.000Z</time>
        <extensions>
          <ns3:TrackPointExtension>
            <ns3:hr>135</ns3:hr>
            <ns3:cad>0</ns3:cad>
          </ns3:TrackPointExtension>
        </extensions>
      </trkpt>
      <trkpt lat="37.7740593440830707550048828125" lon="-107.7017615921795368194580078125">
        <ele>3915.800048828125</ele>
        <time>2023-07-29T17:04:13.000Z</time>
        <extensions>
          <ns3:TrackPointExtension>
            <ns3:hr>135</ns3:hr>
            <ns3:cad>0</ns3:cad>
          </ns3:TrackPointExtension>
        </extensions>
      </trkpt>
      <trkpt lat="37.77405238710343837738037109375" lon="-107.70176854915916919708251953125">
        <ele>3916</ele>
        <time>2023-07-29T17:04:14.000Z</time>
        <extensions>
          <ns3:TrackPointExtension>
            <ns3:hr>135</ns3:hr>
            <ns3:cad>0</ns3:cad>
          </ns3:TrackPointExtension>
        </extensions>
      </trkpt>
      <trkpt lat="37.77404903434216976165771484375" lon="-107.7017753385007381439208984375">
        <ele>3916.199951171875</ele>
        <time>2023-07-29T17:04:15.000Z</time>
        <extensions>
          <ns3:TrackPointExtension>
            <ns3:hr>135</ns3:hr>
            <ns3:cad>54</ns3:cad>
          </ns3:TrackPointExtension>
        </extensions>
      </trkpt>
      <trkpt lat="37.7740385569632053375244140625" lon="-107.701785229146480560302734375">
        <ele>3916.199951171875</ele>
        <time>2023-07-29T17:04:16.000Z</time>
        <extensions>
          <ns3:TrackPointExtension>
            <ns3:hr>136</ns3:hr>
            <ns3:cad>54</ns3:cad>
          </ns3:TrackPointExtension>
        </extensions>
      </trkpt>
      <trkpt lat="37.77403227053582668304443359375" lon="-107.70178916864097118377685546875">
        <ele>3916.39990234375</ele>
        <time>2023-07-29T17:04:17.000Z</time>
        <extensions>
          <ns3:TrackPointExtension>
            <ns3:hr>136</ns3:hr>
            <ns3:cad>0</ns3:cad>
          </ns3:TrackPointExtension>
        </extensions>
      </trkpt>
      <trkpt lat="37.77402522973716259002685546875" lon="-107.70179721526801586151123046875">
        <ele>3916.39990234375</ele>
        <time>2023-07-29T17:04:18.000Z</time>
        <extensions>
          <ns3:TrackPointExtension>
            <ns3:hr>135</ns3:hr>
            <ns3:cad>0</ns3:cad>
          </ns3:TrackPointExtension>
        </extensions>
      </trkpt>
      <trkpt lat="37.77401936240494251251220703125" lon="-107.7018003165721893310546875">
        <ele>3916.60009765625</ele>
        <time>2023-07-29T17:04:19.000Z</time>
        <extensions>
          <ns3:TrackPointExtension>
            <ns3:hr>135</ns3:hr>
            <ns3:cad>0</ns3:cad>
          </ns3:TrackPointExtension>
        </extensions>
      </trkpt>
      <trkpt lat="37.7740095555782318115234375" lon="-107.7018048427999019622802734375">
        <ele>3916.800048828125</ele>
        <time>2023-07-29T17:04:20.000Z</time>
        <extensions>
          <ns3:TrackPointExtension>
            <ns3:hr>135</ns3:hr>
            <ns3:cad>0</ns3:cad>
          </ns3:TrackPointExtension>
        </extensions>
      </trkpt>
      <trkpt lat="37.7740070410072803497314453125" lon="-107.7018021605908870697021484375">
        <ele>3916.800048828125</ele>
        <time>2023-07-29T17:04:21.000Z</time>
        <extensions>
          <ns3:TrackPointExtension>
            <ns3:hr>135</ns3:hr>
            <ns3:cad>0</ns3:cad>
          </ns3:TrackPointExtension>
        </extensions>
      </trkpt>
      <trkpt lat="37.77400461025536060333251953125" lon="-107.701803334057331085205078125">
        <ele>3917</ele>
        <time>2023-07-29T17:04:22.000Z</time>
        <extensions>
          <ns3:TrackPointExtension>
            <ns3:hr>135</ns3:hr>
            <ns3:cad>0</ns3:cad>
          </ns3:TrackPointExtension>
        </extensions>
      </trkpt>
      <trkpt lat="37.7740016765892505645751953125" lon="-107.7018061839044094085693359375">
        <ele>3917.199951171875</ele>
        <time>2023-07-29T17:04:23.000Z</time>
        <extensions>
          <ns3:TrackPointExtension>
            <ns3:hr>135</ns3:hr>
            <ns3:cad>0</ns3:cad>
          </ns3:TrackPointExtension>
        </extensions>
      </trkpt>
      <trkpt lat="37.773994468152523040771484375" lon="-107.70181012339890003204345703125">
        <ele>3917.39990234375</ele>
        <time>2023-07-29T17:04:24.000Z</time>
        <extensions>
          <ns3:TrackPointExtension>
            <ns3:hr>136</ns3:hr>
            <ns3:cad>0</ns3:cad>
          </ns3:TrackPointExtension>
        </extensions>
      </trkpt>
      <trkpt lat="37.77399069629609584808349609375" lon="-107.70181163214147090911865234375">
        <ele>3917.39990234375</ele>
        <time>2023-07-29T17:04:25.000Z</time>
        <extensions>
          <ns3:TrackPointExtension>
            <ns3:hr>136</ns3:hr>
            <ns3:cad>0</ns3:cad>
          </ns3:TrackPointExtension>
        </extensions>
      </trkpt>
      <trkpt lat="37.77398340404033660888671875" lon="-107.7018179185688495635986328125">
        <ele>3917.60009765625</ele>
        <time>2023-07-29T17:04:26.000Z</time>
        <extensions>
          <ns3:TrackPointExtension>
            <ns3:hr>136</ns3:hr>
            <ns3:cad>0</ns3:cad>
          </ns3:TrackPointExtension>
        </extensions>
      </trkpt>
      <trkpt lat="37.7739827334880828857421875" lon="-107.70181967876851558685302734375">
        <ele>3917.60009765625</ele>
        <time>2023-07-29T17:04:27.000Z</time>
        <extensions>
          <ns3:TrackPointExtension>
            <ns3:hr>136</ns3:hr>
            <ns3:cad>0</ns3:cad>
          </ns3:TrackPointExtension>
        </extensions>
      </trkpt>
      <trkpt lat="37.773976027965545654296875" lon="-107.701822780072689056396484375">
        <ele>3917.60009765625</ele>
        <time>2023-07-29T17:04:28.000Z</time>
        <extensions>
          <ns3:TrackPointExtension>
            <ns3:hr>135</ns3:hr>
            <ns3:cad>0</ns3:cad>
          </ns3:TrackPointExtension>
        </extensions>
      </trkpt>
      <trkpt lat="37.773972339928150177001953125" lon="-107.701825797557830810546875">
        <ele>3917.800048828125</ele>
        <time>2023-07-29T17:04:29.000Z</time>
        <extensions>
          <ns3:TrackPointExtension>
            <ns3:hr>135</ns3:hr>
            <ns3:cad>0</ns3:cad>
          </ns3:TrackPointExtension>
        </extensions>
      </trkpt>
      <trkpt lat="37.773967646062374114990234375" lon="-107.7018289826810359954833984375">
        <ele>3918</ele>
        <time>2023-07-29T17:04:30.000Z</time>
        <extensions>
          <ns3:TrackPointExtension>
            <ns3:hr>136</ns3:hr>
            <ns3:cad>0</ns3:cad>
          </ns3:TrackPointExtension>
        </extensions>
      </trkpt>
      <trkpt lat="37.77396404184401035308837890625" lon="-107.7018376998603343963623046875">
        <ele>3918.199951171875</ele>
        <time>2023-07-29T17:04:31.000Z</time>
        <extensions>
          <ns3:TrackPointExtension>
            <ns3:hr>136</ns3:hr>
            <ns3:cad>0</ns3:cad>
          </ns3:TrackPointExtension>
        </extensions>
      </trkpt>
      <trkpt lat="37.77395792305469512939453125" lon="-107.7018485963344573974609375">
        <ele>3918.199951171875</ele>
        <time>2023-07-29T17:04:32.000Z</time>
        <extensions>
          <ns3:TrackPointExtension>
            <ns3:hr>136</ns3:hr>
            <ns3:cad>0</ns3:cad>
          </ns3:TrackPointExtension>
        </extensions>
      </trkpt>
      <trkpt lat="37.7739497087895870208740234375" lon="-107.7018544636666774749755859375">
        <ele>3918.60009765625</ele>
        <time>2023-07-29T17:04:33.000Z</time>
        <extensions>
          <ns3:TrackPointExtension>
            <ns3:hr>137</ns3:hr>
            <ns3:cad>0</ns3:cad>
          </ns3:TrackPointExtension>
        </extensions>
      </trkpt>
      <trkpt lat="37.77394208125770092010498046875" lon="-107.70186041481792926788330078125">
        <ele>3918.60009765625</ele>
        <time>2023-07-29T17:04:34.000Z</time>
        <extensions>
          <ns3:TrackPointExtension>
            <ns3:hr>137</ns3:hr>
            <ns3:cad>0</ns3:cad>
          </ns3:TrackPointExtension>
        </extensions>
      </trkpt>
      <trkpt lat="37.77393780648708343505859375" lon="-107.70186427049338817596435546875">
        <ele>3918.60009765625</ele>
        <time>2023-07-29T17:04:35.000Z</time>
        <extensions>
          <ns3:TrackPointExtension>
            <ns3:hr>137</ns3:hr>
            <ns3:cad>0</ns3:cad>
          </ns3:TrackPointExtension>
        </extensions>
      </trkpt>
      <trkpt lat="37.7739279158413410186767578125" lon="-107.70187047310173511505126953125">
        <ele>3918.800048828125</ele>
        <time>2023-07-29T17:04:36.000Z</time>
        <extensions>
          <ns3:TrackPointExtension>
            <ns3:hr>138</ns3:hr>
            <ns3:cad>0</ns3:cad>
          </ns3:TrackPointExtension>
        </extensions>
      </trkpt>
      <trkpt lat="37.7739242278039455413818359375" lon="-107.701875753700733184814453125">
        <ele>3919</ele>
        <time>2023-07-29T17:04:37.000Z</time>
        <extensions>
          <ns3:TrackPointExtension>
            <ns3:hr>138</ns3:hr>
            <ns3:cad>0</ns3:cad>
          </ns3:TrackPointExtension>
        </extensions>
      </trkpt>
      <trkpt lat="37.7739181928336620330810546875" lon="-107.7018829621374607086181640625">
        <ele>3919</ele>
        <time>2023-07-29T17:04:38.000Z</time>
        <extensions>
          <ns3:TrackPointExtension>
            <ns3:hr>138</ns3:hr>
            <ns3:cad>0</ns3:cad>
          </ns3:TrackPointExtension>
        </extensions>
      </trkpt>
      <trkpt lat="37.7739168517291545867919921875" lon="-107.70188639871776103973388671875">
        <ele>3919.199951171875</ele>
        <time>2023-07-29T17:04:39.000Z</time>
        <extensions>
          <ns3:TrackPointExtension>
            <ns3:hr>137</ns3:hr>
            <ns3:cad>0</ns3:cad>
          </ns3:TrackPointExtension>
        </extensions>
      </trkpt>
      <trkpt lat="37.77391157113015651702880859375" lon="-107.701890170574188232421875">
        <ele>3919.39990234375</ele>
        <time>2023-07-29T17:04:40.000Z</time>
        <extensions>
          <ns3:TrackPointExtension>
            <ns3:hr>137</ns3:hr>
            <ns3:cad>0</ns3:cad>
          </ns3:TrackPointExtension>
        </extensions>
      </trkpt>
      <trkpt lat="37.77390821836888790130615234375" lon="-107.7018936909735202789306640625">
        <ele>3919.60009765625</ele>
        <time>2023-07-29T17:04:41.000Z</time>
        <extensions>
          <ns3:TrackPointExtension>
            <ns3:hr>137</ns3:hr>
            <ns3:cad>0</ns3:cad>
          </ns3:TrackPointExtension>
        </extensions>
      </trkpt>
      <trkpt lat="37.77390335686504840850830078125" lon="-107.701897211372852325439453125">
        <ele>3919.60009765625</ele>
        <time>2023-07-29T17:04:42.000Z</time>
        <extensions>
          <ns3:TrackPointExtension>
            <ns3:hr>136</ns3:hr>
            <ns3:cad>0</ns3:cad>
          </ns3:TrackPointExtension>
        </extensions>
      </trkpt>
      <trkpt lat="37.77389547787606716156005859375" lon="-107.7019014023244380950927734375">
        <ele>3920</ele>
        <time>2023-07-29T17:04:43.000Z</time>
        <extensions>
          <ns3:TrackPointExtension>
            <ns3:hr>135</ns3:hr>
            <ns3:cad>0</ns3:cad>
          </ns3:TrackPointExtension>
        </extensions>
      </trkpt>
      <trkpt lat="37.77388684451580047607421875" lon="-107.70190634764730930328369140625">
        <ele>3920</ele>
        <time>2023-07-29T17:04:44.000Z</time>
        <extensions>
          <ns3:TrackPointExtension>
            <ns3:hr>136</ns3:hr>
            <ns3:cad>0</ns3:cad>
          </ns3:TrackPointExtension>
        </extensions>
      </trkpt>
      <trkpt lat="37.7738819830119609832763671875" lon="-107.701908610761165618896484375">
        <ele>3920.199951171875</ele>
        <time>2023-07-29T17:04:45.000Z</time>
        <extensions>
          <ns3:TrackPointExtension>
            <ns3:hr>136</ns3:hr>
            <ns3:cad>0</ns3:cad>
          </ns3:TrackPointExtension>
        </extensions>
      </trkpt>
      <trkpt lat="37.77387678623199462890625" lon="-107.701911628246307373046875">
        <ele>3920.199951171875</ele>
        <time>2023-07-29T17:04:46.000Z</time>
        <extensions>
          <ns3:TrackPointExtension>
            <ns3:hr>136</ns3:hr>
            <ns3:cad>0</ns3:cad>
          </ns3:TrackPointExtension>
        </extensions>
      </trkpt>
      <trkpt lat="37.77386848814785480499267578125" lon="-107.70191674120724201202392578125">
        <ele>3920.60009765625</ele>
        <time>2023-07-29T17:04:47.000Z</time>
        <extensions>
          <ns3:TrackPointExtension>
            <ns3:hr>137</ns3:hr>
            <ns3:cad>0</ns3:cad>
          </ns3:TrackPointExtension>
        </extensions>
      </trkpt>
      <trkpt lat="37.77386111207306385040283203125" lon="-107.7019211836159229278564453125">
        <ele>3920.800048828125</ele>
        <time>2023-07-29T17:04:48.000Z</time>
        <extensions>
          <ns3:TrackPointExtension>
            <ns3:hr>137</ns3:hr>
            <ns3:cad>0</ns3:cad>
          </ns3:TrackPointExtension>
        </extensions>
      </trkpt>
      <trkpt lat="37.77385323308408260345458984375" lon="-107.70192210562527179718017578125">
        <ele>3920.800048828125</ele>
        <time>2023-07-29T17:04:49.000Z</time>
        <extensions>
          <ns3:TrackPointExtension>
            <ns3:hr>137</ns3:hr>
            <ns3:cad>0</ns3:cad>
          </ns3:TrackPointExtension>
        </extensions>
      </trkpt>
      <trkpt lat="37.77384367771446704864501953125" lon="-107.701930068433284759521484375">
        <ele>3920.800048828125</ele>
        <time>2023-07-29T17:04:50.000Z</time>
        <extensions>
          <ns3:TrackPointExtension>
            <ns3:hr>137</ns3:hr>
            <ns3:cad>0</ns3:cad>
          </ns3:TrackPointExtension>
        </extensions>
      </trkpt>
      <trkpt lat="37.7738390676677227020263671875" lon="-107.7019332535564899444580078125">
        <ele>3921</ele>
        <time>2023-07-29T17:04:51.000Z</time>
        <extensions>
          <ns3:TrackPointExtension>
            <ns3:hr>137</ns3:hr>
            <ns3:cad>0</ns3:cad>
          </ns3:TrackPointExtension>
        </extensions>
      </trkpt>
      <trkpt lat="37.77383076958358287811279296875" lon="-107.7019399590790271759033203125">
        <ele>3921.199951171875</ele>
        <time>2023-07-29T17:04:52.000Z</time>
        <extensions>
          <ns3:TrackPointExtension>
            <ns3:hr>137</ns3:hr>
            <ns3:cad>0</ns3:cad>
          </ns3:TrackPointExtension>
        </extensions>
      </trkpt>
      <trkpt lat="37.7738271653652191162109375" lon="-107.70193777978420257568359375">
        <ele>3921.39990234375</ele>
        <time>2023-07-29T17:04:53.000Z</time>
        <extensions>
          <ns3:TrackPointExtension>
            <ns3:hr>136</ns3:hr>
            <ns3:cad>0</ns3:cad>
          </ns3:TrackPointExtension>
        </extensions>
      </trkpt>
      <trkpt lat="37.77382138185203075408935546875" lon="-107.70194155164062976837158203125">
        <ele>3921.60009765625</ele>
        <time>2023-07-29T17:04:54.000Z</time>
        <extensions>
          <ns3:TrackPointExtension>
            <ns3:hr>136</ns3:hr>
            <ns3:cad>0</ns3:cad>
          </ns3:TrackPointExtension>
        </extensions>
      </trkpt>
      <trkpt lat="37.7738142572343349456787109375" lon="-107.701946161687374114990234375">
        <ele>3921.800048828125</ele>
        <time>2023-07-29T17:04:55.000Z</time>
        <extensions>
          <ns3:TrackPointExtension>
            <ns3:hr>136</ns3:hr>
            <ns3:cad>0</ns3:cad>
          </ns3:TrackPointExtension>
        </extensions>
      </trkpt>
      <trkpt lat="37.773810736835002899169921875" lon="-107.7019486762583255767822265625">
        <ele>3922</ele>
        <time>2023-07-29T17:04:56.000Z</time>
        <extensions>
          <ns3:TrackPointExtension>
            <ns3:hr>136</ns3:hr>
            <ns3:cad>0</ns3:cad>
          </ns3:TrackPointExtension>
        </extensions>
      </trkpt>
      <trkpt lat="37.773804366588592529296875" lon="-107.70195186138153076171875">
        <ele>3922.199951171875</ele>
        <time>2023-07-29T17:04:57.000Z</time>
        <extensions>
          <ns3:TrackPointExtension>
            <ns3:hr>136</ns3:hr>
            <ns3:cad>0</ns3:cad>
          </ns3:TrackPointExtension>
        </extensions>
      </trkpt>
      <trkpt lat="37.77380445040762424468994140625" lon="-107.70194691605865955352783203125">
        <ele>3922.39990234375</ele>
        <time>2023-07-29T17:04:58.000Z</time>
        <extensions>
          <ns3:TrackPointExtension>
            <ns3:hr>135</ns3:hr>
            <ns3:cad>0</ns3:cad>
          </ns3:TrackPointExtension>
        </extensions>
      </trkpt>
      <trkpt lat="37.7738030254840850830078125" lon="-107.70194775424897670745849609375">
        <ele>3922.60009765625</ele>
        <time>2023-07-29T17:04:59.000Z</time>
        <extensions>
          <ns3:TrackPointExtension>
            <ns3:hr>135</ns3:hr>
            <ns3:cad>0</ns3:cad>
          </ns3:TrackPointExtension>
        </extensions>
      </trkpt>
      <trkpt lat="37.77380260638892650604248046875" lon="-107.70194607786834239959716796875">
        <ele>3922.800048828125</ele>
        <time>2023-07-29T17:05:00.000Z</time>
        <extensions>
          <ns3:TrackPointExtension>
            <ns3:hr>136</ns3:hr>
            <ns3:cad>0</ns3:cad>
          </ns3:TrackPointExtension>
        </extensions>
      </trkpt>
      <trkpt lat="37.77380109764635562896728515625" lon="-107.701947502791881561279296875">
        <ele>3923</ele>
        <time>2023-07-29T17:05:01.000Z</time>
        <extensions>
          <ns3:TrackPointExtension>
            <ns3:hr>136</ns3:hr>
            <ns3:cad>0</ns3:cad>
          </ns3:TrackPointExtension>
        </extensions>
      </trkpt>
      <trkpt lat="37.7737976610660552978515625" lon="-107.7019510231912136077880859375">
        <ele>3923.39990234375</ele>
        <time>2023-07-29T17:05:02.000Z</time>
        <extensions>
          <ns3:TrackPointExtension>
            <ns3:hr>136</ns3:hr>
            <ns3:cad>0</ns3:cad>
          </ns3:TrackPointExtension>
        </extensions>
      </trkpt>
      <trkpt lat="37.7737976610660552978515625" lon="-107.7019510231912136077880859375">
        <ele>3923.39990234375</ele>
        <time>2023-07-29T17:05:03.000Z</time>
        <extensions>
          <ns3:TrackPointExtension>
            <ns3:hr>136</ns3:hr>
            <ns3:cad>0</ns3:cad>
          </ns3:TrackPointExtension>
        </extensions>
      </trkpt>
      <trkpt lat="37.7737864293158054351806640625" lon="-107.701959908008575439453125">
        <ele>3923.60009765625</ele>
        <time>2023-07-29T17:05:04.000Z</time>
        <extensions>
          <ns3:TrackPointExtension>
            <ns3:hr>133</ns3:hr>
            <ns3:cad>0</ns3:cad>
          </ns3:TrackPointExtension>
        </extensions>
      </trkpt>
      <trkpt lat="37.77378031052649021148681640625" lon="-107.70196803845465183258056640625">
        <ele>3923.60009765625</ele>
        <time>2023-07-29T17:05:05.000Z</time>
        <extensions>
          <ns3:TrackPointExtension>
            <ns3:hr>131</ns3:hr>
            <ns3:cad>0</ns3:cad>
          </ns3:TrackPointExtension>
        </extensions>
      </trkpt>
      <trkpt lat="37.77377896942198276519775390625" lon="-107.70197256468236446380615234375">
        <ele>3923.800048828125</ele>
        <time>2023-07-29T17:05:06.000Z</time>
        <extensions>
          <ns3:TrackPointExtension>
            <ns3:hr>131</ns3:hr>
            <ns3:cad>0</ns3:cad>
          </ns3:TrackPointExtension>
        </extensions>
      </trkpt>
      <trkpt lat="37.773775868117809295654296875" lon="-107.70196728408336639404296875">
        <ele>3923.800048828125</ele>
        <time>2023-07-29T17:05:07.000Z</time>
        <extensions>
          <ns3:TrackPointExtension>
            <ns3:hr>131</ns3:hr>
            <ns3:cad>0</ns3:cad>
          </ns3:TrackPointExtension>
        </extensions>
      </trkpt>
      <trkpt lat="37.773778550326824188232421875" lon="-107.70196787081658840179443359375">
        <ele>3924</ele>
        <time>2023-07-29T17:05:08.000Z</time>
        <extensions>
          <ns3:TrackPointExtension>
            <ns3:hr>131</ns3:hr>
            <ns3:cad>0</ns3:cad>
          </ns3:TrackPointExtension>
        </extensions>
      </trkpt>
      <trkpt lat="37.77377326972782611846923828125" lon="-107.7019721455872058868408203125">
        <ele>3924.199951171875</ele>
        <time>2023-07-29T17:05:09.000Z</time>
        <extensions>
          <ns3:TrackPointExtension>
            <ns3:hr>132</ns3:hr>
            <ns3:cad>0</ns3:cad>
          </ns3:TrackPointExtension>
        </extensions>
      </trkpt>
      <trkpt lat="37.7737696655094623565673828125" lon="-107.70197340287268161773681640625">
        <ele>3924.39990234375</ele>
        <time>2023-07-29T17:05:10.000Z</time>
        <extensions>
          <ns3:TrackPointExtension>
            <ns3:hr>133</ns3:hr>
            <ns3:cad>0</ns3:cad>
          </ns3:TrackPointExtension>
        </extensions>
      </trkpt>
      <trkpt lat="37.77375952340662479400634765625" lon="-107.70197742618620395660400390625">
        <ele>3924.60009765625</ele>
        <time>2023-07-29T17:05:11.000Z</time>
        <extensions>
          <ns3:TrackPointExtension>
            <ns3:hr>134</ns3:hr>
            <ns3:cad>0</ns3:cad>
          </ns3:TrackPointExtension>
        </extensions>
      </trkpt>
      <trkpt lat="37.77375541627407073974609375" lon="-107.70197809673845767974853515625">
        <ele>3924.60009765625</ele>
        <time>2023-07-29T17:05:12.000Z</time>
        <extensions>
          <ns3:TrackPointExtension>
            <ns3:hr>135</ns3:hr>
            <ns3:cad>0</ns3:cad>
          </ns3:TrackPointExtension>
        </extensions>
      </trkpt>
      <trkpt lat="37.7737458609044551849365234375" lon="-107.7019788511097431182861328125">
        <ele>3924.60009765625</ele>
        <time>2023-07-29T17:05:13.000Z</time>
        <extensions>
          <ns3:TrackPointExtension>
            <ns3:hr>136</ns3:hr>
            <ns3:cad>0</ns3:cad>
          </ns3:TrackPointExtension>
        </extensions>
      </trkpt>
      <trkpt lat="37.7737401612102985382080078125" lon="-107.70198195241391658782958984375">
        <ele>3925</ele>
        <time>2023-07-29T17:05:14.000Z</time>
        <extensions>
          <ns3:TrackPointExtension>
            <ns3:hr>136</ns3:hr>
            <ns3:cad>0</ns3:cad>
          </ns3:TrackPointExtension>
        </extensions>
      </trkpt>
      <trkpt lat="37.77373186312615871429443359375" lon="-107.701986394822597503662109375">
        <ele>3925.199951171875</ele>
        <time>2023-07-29T17:05:15.000Z</time>
        <extensions>
          <ns3:TrackPointExtension>
            <ns3:hr>136</ns3:hr>
            <ns3:cad>0</ns3:cad>
          </ns3:TrackPointExtension>
        </extensions>
      </trkpt>
      <trkpt lat="37.77373555116355419158935546875" lon="-107.70198463462293148040771484375">
        <ele>3925.39990234375</ele>
        <time>2023-07-29T17:05:16.000Z</time>
        <extensions>
          <ns3:TrackPointExtension>
            <ns3:hr>136</ns3:hr>
            <ns3:cad>0</ns3:cad>
          </ns3:TrackPointExtension>
        </extensions>
      </trkpt>
      <trkpt lat="37.773734964430332183837890625" lon="-107.70198413170874118804931640625">
        <ele>3925.60009765625</ele>
        <time>2023-07-29T17:05:17.000Z</time>
        <extensions>
          <ns3:TrackPointExtension>
            <ns3:hr>136</ns3:hr>
            <ns3:cad>0</ns3:cad>
          </ns3:TrackPointExtension>
        </extensions>
      </trkpt>
      <trkpt lat="37.7737337909638881683349609375" lon="-107.70198740065097808837890625">
        <ele>3925.800048828125</ele>
        <time>2023-07-29T17:05:18.000Z</time>
        <extensions>
          <ns3:TrackPointExtension>
            <ns3:hr>136</ns3:hr>
            <ns3:cad>0</ns3:cad>
          </ns3:TrackPointExtension>
        </extensions>
      </trkpt>
      <trkpt lat="37.7737321145832538604736328125" lon="-107.7019838802516460418701171875">
        <ele>3926</ele>
        <time>2023-07-29T17:05:19.000Z</time>
        <extensions>
          <ns3:TrackPointExtension>
            <ns3:hr>137</ns3:hr>
            <ns3:cad>0</ns3:cad>
          </ns3:TrackPointExtension>
        </extensions>
      </trkpt>
      <trkpt lat="37.77373001910746097564697265625" lon="-107.70198564045131206512451171875">
        <ele>3926</ele>
        <time>2023-07-29T17:05:20.000Z</time>
        <extensions>
          <ns3:TrackPointExtension>
            <ns3:hr>137</ns3:hr>
            <ns3:cad>0</ns3:cad>
          </ns3:TrackPointExtension>
        </extensions>
      </trkpt>
      <trkpt lat="37.773722223937511444091796875" lon="-107.70199100486934185028076171875">
        <ele>3926</ele>
        <time>2023-07-29T17:05:21.000Z</time>
        <extensions>
          <ns3:TrackPointExtension>
            <ns3:hr>137</ns3:hr>
            <ns3:cad>0</ns3:cad>
          </ns3:TrackPointExtension>
        </extensions>
      </trkpt>
      <trkpt lat="37.77371074073016643524169921875" lon="-107.70199486054480075836181640625">
        <ele>3926.199951171875</ele>
        <time>2023-07-29T17:05:22.000Z</time>
        <extensions>
          <ns3:TrackPointExtension>
            <ns3:hr>137</ns3:hr>
            <ns3:cad>0</ns3:cad>
          </ns3:TrackPointExtension>
        </extensions>
      </trkpt>
      <trkpt lat="37.7737049572169780731201171875" lon="-107.70200441591441631317138671875">
        <ele>3926.199951171875</ele>
        <time>2023-07-29T17:05:23.000Z</time>
        <extensions>
          <ns3:TrackPointExtension>
            <ns3:hr>137</ns3:hr>
            <ns3:cad>0</ns3:cad>
          </ns3:TrackPointExtension>
        </extensions>
      </trkpt>
      <trkpt lat="37.773701436817646026611328125" lon="-107.70200751721858978271484375">
        <ele>3926.199951171875</ele>
        <time>2023-07-29T17:05:24.000Z</time>
        <extensions>
          <ns3:TrackPointExtension>
            <ns3:hr>137</ns3:hr>
            <ns3:cad>0</ns3:cad>
          </ns3:TrackPointExtension>
        </extensions>
      </trkpt>
      <trkpt lat="37.77369665913283824920654296875" lon="-107.7020103670656681060791015625">
        <ele>3926.39990234375</ele>
        <time>2023-07-29T17:05:25.000Z</time>
        <extensions>
          <ns3:TrackPointExtension>
            <ns3:hr>137</ns3:hr>
            <ns3:cad>0</ns3:cad>
          </ns3:TrackPointExtension>
        </extensions>
      </trkpt>
      <trkpt lat="37.7736912108957767486572265625" lon="-107.70201229490339756011962890625">
        <ele>3926.60009765625</ele>
        <time>2023-07-29T17:05:26.000Z</time>
        <extensions>
          <ns3:TrackPointExtension>
            <ns3:hr>137</ns3:hr>
            <ns3:cad>0</ns3:cad>
          </ns3:TrackPointExtension>
        </extensions>
      </trkpt>
      <trkpt lat="37.7736903727054595947265625" lon="-107.70201548002660274505615234375">
        <ele>3926.800048828125</ele>
        <time>2023-07-29T17:05:27.000Z</time>
        <extensions>
          <ns3:TrackPointExtension>
            <ns3:hr>137</ns3:hr>
            <ns3:cad>0</ns3:cad>
          </ns3:TrackPointExtension>
        </extensions>
      </trkpt>
      <trkpt lat="37.77368123643100261688232421875" lon="-107.70202000625431537628173828125">
        <ele>3926.800048828125</ele>
        <time>2023-07-29T17:05:28.000Z</time>
        <extensions>
          <ns3:TrackPointExtension>
            <ns3:hr>138</ns3:hr>
            <ns3:cad>0</ns3:cad>
          </ns3:TrackPointExtension>
        </extensions>
      </trkpt>
      <trkpt lat="37.7736742794513702392578125" lon="-107.70202604122459888458251953125">
        <ele>3927</ele>
        <time>2023-07-29T17:05:29.000Z</time>
        <extensions>
          <ns3:TrackPointExtension>
            <ns3:hr>137</ns3:hr>
            <ns3:cad>0</ns3:cad>
          </ns3:TrackPointExtension>
        </extensions>
      </trkpt>
      <trkpt lat="37.77366832830011844635009765625" lon="-107.70203392021358013153076171875">
        <ele>3927.199951171875</ele>
        <time>2023-07-29T17:05:30.000Z</time>
        <extensions>
          <ns3:TrackPointExtension>
            <ns3:hr>137</ns3:hr>
            <ns3:cad>0</ns3:cad>
          </ns3:TrackPointExtension>
        </extensions>
      </trkpt>
      <trkpt lat="37.773662544786930084228515625" lon="-107.70204314030706882476806640625">
        <ele>3927.39990234375</ele>
        <time>2023-07-29T17:05:31.000Z</time>
        <extensions>
          <ns3:TrackPointExtension>
            <ns3:hr>137</ns3:hr>
            <ns3:cad>0</ns3:cad>
          </ns3:TrackPointExtension>
        </extensions>
      </trkpt>
      <trkpt lat="37.773661874234676361083984375" lon="-107.7020472474396228790283203125">
        <ele>3927.60009765625</ele>
        <time>2023-07-29T17:05:32.000Z</time>
        <extensions>
          <ns3:TrackPointExtension>
            <ns3:hr>137</ns3:hr>
            <ns3:cad>0</ns3:cad>
          </ns3:TrackPointExtension>
        </extensions>
      </trkpt>
      <trkpt lat="37.7736539952456951141357421875" lon="-107.7020556293427944183349609375">
        <ele>3927.60009765625</ele>
        <time>2023-07-29T17:05:33.000Z</time>
        <extensions>
          <ns3:TrackPointExtension>
            <ns3:hr>137</ns3:hr>
            <ns3:cad>0</ns3:cad>
          </ns3:TrackPointExtension>
        </extensions>
      </trkpt>
      <trkpt lat="37.773649133741855621337890625" lon="-107.70205889828503131866455078125">
        <ele>3927.800048828125</ele>
        <time>2023-07-29T17:05:34.000Z</time>
        <extensions>
          <ns3:TrackPointExtension>
            <ns3:hr>138</ns3:hr>
            <ns3:cad>0</ns3:cad>
          </ns3:TrackPointExtension>
        </extensions>
      </trkpt>
      <trkpt lat="37.77364284731447696685791015625" lon="-107.70206208340823650360107421875">
        <ele>3927.800048828125</ele>
        <time>2023-07-29T17:05:35.000Z</time>
        <extensions>
          <ns3:TrackPointExtension>
            <ns3:hr>138</ns3:hr>
            <ns3:cad>0</ns3:cad>
          </ns3:TrackPointExtension>
        </extensions>
      </trkpt>
      <trkpt lat="37.77363379485905170440673828125" lon="-107.70206577144563198089599609375">
        <ele>3928</ele>
        <time>2023-07-29T17:05:36.000Z</time>
        <extensions>
          <ns3:TrackPointExtension>
            <ns3:hr>138</ns3:hr>
            <ns3:cad>0</ns3:cad>
          </ns3:TrackPointExtension>
        </extensions>
      </trkpt>
      <trkpt lat="37.77363027445971965789794921875" lon="-107.70206761546432971954345703125">
        <ele>3928.199951171875</ele>
        <time>2023-07-29T17:05:37.000Z</time>
        <extensions>
          <ns3:TrackPointExtension>
            <ns3:hr>138</ns3:hr>
            <ns3:cad>0</ns3:cad>
          </ns3:TrackPointExtension>
        </extensions>
      </trkpt>
      <trkpt lat="37.77362306602299213409423828125" lon="-107.7020673640072345733642578125">
        <ele>3928.199951171875</ele>
        <time>2023-07-29T17:05:38.000Z</time>
        <extensions>
          <ns3:TrackPointExtension>
            <ns3:hr>138</ns3:hr>
            <ns3:cad>0</ns3:cad>
          </ns3:TrackPointExtension>
        </extensions>
      </trkpt>
      <trkpt lat="37.7736125886440277099609375" lon="-107.7020713873207569122314453125">
        <ele>3928.60009765625</ele>
        <time>2023-07-29T17:05:39.000Z</time>
        <extensions>
          <ns3:TrackPointExtension>
            <ns3:hr>138</ns3:hr>
            <ns3:cad>0</ns3:cad>
          </ns3:TrackPointExtension>
        </extensions>
      </trkpt>
      <trkpt lat="37.7736070565879344940185546875" lon="-107.7020750753581523895263671875">
        <ele>3928.800048828125</ele>
        <time>2023-07-29T17:05:40.000Z</time>
        <extensions>
          <ns3:TrackPointExtension>
            <ns3:hr>137</ns3:hr>
            <ns3:cad>0</ns3:cad>
          </ns3:TrackPointExtension>
        </extensions>
      </trkpt>
      <trkpt lat="37.77359959669411182403564453125" lon="-107.7020801045000553131103515625">
        <ele>3929</ele>
        <time>2023-07-29T17:05:41.000Z</time>
        <extensions>
          <ns3:TrackPointExtension>
            <ns3:hr>137</ns3:hr>
            <ns3:cad>44</ns3:cad>
          </ns3:TrackPointExtension>
        </extensions>
      </trkpt>
      <trkpt lat="37.77360118925571441650390625" lon="-107.70208253525197505950927734375">
        <ele>3929.199951171875</ele>
        <time>2023-07-29T17:05:42.000Z</time>
        <extensions>
          <ns3:TrackPointExtension>
            <ns3:hr>137</ns3:hr>
            <ns3:cad>44</ns3:cad>
          </ns3:TrackPointExtension>
        </extensions>
      </trkpt>
      <trkpt lat="37.77359674684703350067138671875" lon="-107.70208823494613170623779296875">
        <ele>3929.199951171875</ele>
        <time>2023-07-29T17:05:43.000Z</time>
        <extensions>
          <ns3:TrackPointExtension>
            <ns3:hr>137</ns3:hr>
            <ns3:cad>44</ns3:cad>
          </ns3:TrackPointExtension>
        </extensions>
      </trkpt>
      <trkpt lat="37.77359490282833576202392578125" lon="-107.70209158770740032196044921875">
        <ele>3929.39990234375</ele>
        <time>2023-07-29T17:05:44.000Z</time>
        <extensions>
          <ns3:TrackPointExtension>
            <ns3:hr>137</ns3:hr>
            <ns3:cad>44</ns3:cad>
          </ns3:TrackPointExtension>
        </extensions>
      </trkpt>
      <trkpt lat="37.7735911309719085693359375" lon="-107.702097706496715545654296875">
        <ele>3929.39990234375</ele>
        <time>2023-07-29T17:05:45.000Z</time>
        <extensions>
          <ns3:TrackPointExtension>
            <ns3:hr>137</ns3:hr>
            <ns3:cad>44</ns3:cad>
          </ns3:TrackPointExtension>
        </extensions>
      </trkpt>
      <trkpt lat="37.77358375489711761474609375" lon="-107.7021034061908721923828125">
        <ele>3929.60009765625</ele>
        <time>2023-07-29T17:05:46.000Z</time>
        <extensions>
          <ns3:TrackPointExtension>
            <ns3:hr>137</ns3:hr>
            <ns3:cad>44</ns3:cad>
          </ns3:TrackPointExtension>
        </extensions>
      </trkpt>
      <trkpt lat="37.7735792286694049835205078125" lon="-107.7021049149334430694580078125">
        <ele>3929.60009765625</ele>
        <time>2023-07-29T17:05:47.000Z</time>
        <extensions>
          <ns3:TrackPointExtension>
            <ns3:hr>137</ns3:hr>
            <ns3:cad>44</ns3:cad>
          </ns3:TrackPointExtension>
        </extensions>
      </trkpt>
      <trkpt lat="37.77357478626072406768798828125" lon="-107.7021082676947116851806640625">
        <ele>3929.800048828125</ele>
        <time>2023-07-29T17:05:48.000Z</time>
        <extensions>
          <ns3:TrackPointExtension>
            <ns3:hr>137</ns3:hr>
            <ns3:cad>44</ns3:cad>
          </ns3:TrackPointExtension>
        </extensions>
      </trkpt>
      <trkpt lat="37.77356489561498165130615234375" lon="-107.7021143026649951934814453125">
        <ele>3930</ele>
        <time>2023-07-29T17:05:49.000Z</time>
        <extensions>
          <ns3:TrackPointExtension>
            <ns3:hr>137</ns3:hr>
            <ns3:cad>44</ns3:cad>
          </ns3:TrackPointExtension>
        </extensions>
      </trkpt>
      <trkpt lat="37.77355886064469814300537109375" lon="-107.70211740396916866302490234375">
        <ele>3930</ele>
        <time>2023-07-29T17:05:50.000Z</time>
        <extensions>
          <ns3:TrackPointExtension>
            <ns3:hr>137</ns3:hr>
            <ns3:cad>44</ns3:cad>
          </ns3:TrackPointExtension>
        </extensions>
      </trkpt>
      <trkpt lat="37.77355265803635120391845703125" lon="-107.702122516930103302001953125">
        <ele>3930.199951171875</ele>
        <time>2023-07-29T17:05:51.000Z</time>
        <extensions>
          <ns3:TrackPointExtension>
            <ns3:hr>137</ns3:hr>
            <ns3:cad>46</ns3:cad>
          </ns3:TrackPointExtension>
        </extensions>
      </trkpt>
      <trkpt lat="37.77355148456990718841552734375" lon="-107.70212410949170589447021484375">
        <ele>3930.60009765625</ele>
        <time>2023-07-29T17:05:52.000Z</time>
        <extensions>
          <ns3:TrackPointExtension>
            <ns3:hr>137</ns3:hr>
            <ns3:cad>46</ns3:cad>
          </ns3:TrackPointExtension>
        </extensions>
      </trkpt>
      <trkpt lat="37.7735483832657337188720703125" lon="-107.70212712697684764862060546875">
        <ele>3930.60009765625</ele>
        <time>2023-07-29T17:05:53.000Z</time>
        <extensions>
          <ns3:TrackPointExtension>
            <ns3:hr>137</ns3:hr>
            <ns3:cad>46</ns3:cad>
          </ns3:TrackPointExtension>
        </extensions>
      </trkpt>
      <trkpt lat="37.7735480479896068572998046875" lon="-107.702131234109401702880859375">
        <ele>3930.60009765625</ele>
        <time>2023-07-29T17:05:54.000Z</time>
        <extensions>
          <ns3:TrackPointExtension>
            <ns3:hr>137</ns3:hr>
            <ns3:cad>0</ns3:cad>
          </ns3:TrackPointExtension>
        </extensions>
      </trkpt>
      <trkpt lat="37.77354142628610134124755859375" lon="-107.7021347545087337493896484375">
        <ele>3930.800048828125</ele>
        <time>2023-07-29T17:05:55.000Z</time>
        <extensions>
          <ns3:TrackPointExtension>
            <ns3:hr>137</ns3:hr>
            <ns3:cad>0</ns3:cad>
          </ns3:TrackPointExtension>
        </extensions>
      </trkpt>
      <trkpt lat="37.77353237383067607879638671875" lon="-107.70213869400322437286376953125">
        <ele>3931</ele>
        <time>2023-07-29T17:05:56.000Z</time>
        <extensions>
          <ns3:TrackPointExtension>
            <ns3:hr>137</ns3:hr>
            <ns3:cad>0</ns3:cad>
          </ns3:TrackPointExtension>
        </extensions>
      </trkpt>
      <trkpt lat="37.7735302783548831939697265625" lon="-107.7021384425461292266845703125">
        <ele>3931.199951171875</ele>
        <time>2023-07-29T17:05:57.000Z</time>
        <extensions>
          <ns3:TrackPointExtension>
            <ns3:hr>137</ns3:hr>
            <ns3:cad>0</ns3:cad>
          </ns3:TrackPointExtension>
        </extensions>
      </trkpt>
      <trkpt lat="37.77352013625204563140869140625" lon="-107.7021401189267635345458984375">
        <ele>3931.39990234375</ele>
        <time>2023-07-29T17:05:58.000Z</time>
        <extensions>
          <ns3:TrackPointExtension>
            <ns3:hr>137</ns3:hr>
            <ns3:cad>0</ns3:cad>
          </ns3:TrackPointExtension>
        </extensions>
      </trkpt>
      <trkpt lat="37.77351669967174530029296875" lon="-107.702138610184192657470703125">
        <ele>3931.800048828125</ele>
        <time>2023-07-29T17:05:59.000Z</time>
        <extensions>
          <ns3:TrackPointExtension>
            <ns3:hr>137</ns3:hr>
            <ns3:cad>0</ns3:cad>
          </ns3:TrackPointExtension>
        </extensions>
      </trkpt>
      <trkpt lat="37.7735111676156520843505859375" lon="-107.7021391130983829498291015625">
        <ele>3931.800048828125</ele>
        <time>2023-07-29T17:06:00.000Z</time>
        <extensions>
          <ns3:TrackPointExtension>
            <ns3:hr>137</ns3:hr>
            <ns3:cad>0</ns3:cad>
          </ns3:TrackPointExtension>
        </extensions>
      </trkpt>
      <trkpt lat="37.7735091559588909149169921875" lon="-107.70214338786900043487548828125">
        <ele>3932</ele>
        <time>2023-07-29T17:06:01.000Z</time>
        <extensions>
          <ns3:TrackPointExtension>
            <ns3:hr>137</ns3:hr>
            <ns3:cad>0</ns3:cad>
          </ns3:TrackPointExtension>
        </extensions>
      </trkpt>
      <trkpt lat="37.77350219897925853729248046875" lon="-107.70214967429637908935546875">
        <ele>3932</ele>
        <time>2023-07-29T17:06:02.000Z</time>
        <extensions>
          <ns3:TrackPointExtension>
            <ns3:hr>137</ns3:hr>
            <ns3:cad>0</ns3:cad>
          </ns3:TrackPointExtension>
        </extensions>
      </trkpt>
      <trkpt lat="37.77349599637091159820556640625" lon="-107.70215445198118686676025390625">
        <ele>3932.199951171875</ele>
        <time>2023-07-29T17:06:03.000Z</time>
        <extensions>
          <ns3:TrackPointExtension>
            <ns3:hr>138</ns3:hr>
            <ns3:cad>0</ns3:cad>
          </ns3:TrackPointExtension>
        </extensions>
      </trkpt>
      <trkpt lat="37.7734910510480403900146484375" lon="-107.7021572180092334747314453125">
        <ele>3932.39990234375</ele>
        <time>2023-07-29T17:06:04.000Z</time>
        <extensions>
          <ns3:TrackPointExtension>
            <ns3:hr>138</ns3:hr>
            <ns3:cad>0</ns3:cad>
          </ns3:TrackPointExtension>
        </extensions>
      </trkpt>
      <trkpt lat="37.77348241768777370452880859375" lon="-107.70216233097016811370849609375">
        <ele>3932.60009765625</ele>
        <time>2023-07-29T17:06:05.000Z</time>
        <extensions>
          <ns3:TrackPointExtension>
            <ns3:hr>139</ns3:hr>
            <ns3:cad>0</ns3:cad>
          </ns3:TrackPointExtension>
        </extensions>
      </trkpt>
      <trkpt lat="37.77347453869879245758056640625" lon="-107.70216920413076877593994140625">
        <ele>3932.800048828125</ele>
        <time>2023-07-29T17:06:06.000Z</time>
        <extensions>
          <ns3:TrackPointExtension>
            <ns3:hr>139</ns3:hr>
            <ns3:cad>0</ns3:cad>
          </ns3:TrackPointExtension>
        </extensions>
      </trkpt>
      <trkpt lat="37.773466408252716064453125" lon="-107.7021723054349422454833984375">
        <ele>3933</ele>
        <time>2023-07-29T17:06:07.000Z</time>
        <extensions>
          <ns3:TrackPointExtension>
            <ns3:hr>139</ns3:hr>
            <ns3:cad>0</ns3:cad>
          </ns3:TrackPointExtension>
        </extensions>
      </trkpt>
      <trkpt lat="37.77345727197825908660888671875" lon="-107.7021783404052257537841796875">
        <ele>3933</ele>
        <time>2023-07-29T17:06:08.000Z</time>
        <extensions>
          <ns3:TrackPointExtension>
            <ns3:hr>139</ns3:hr>
            <ns3:cad>0</ns3:cad>
          </ns3:TrackPointExtension>
        </extensions>
      </trkpt>
      <trkpt lat="37.7734481357038021087646484375" lon="-107.70218144170939922332763671875">
        <ele>3933.199951171875</ele>
        <time>2023-07-29T17:06:09.000Z</time>
        <extensions>
          <ns3:TrackPointExtension>
            <ns3:hr>138</ns3:hr>
            <ns3:cad>0</ns3:cad>
          </ns3:TrackPointExtension>
        </extensions>
      </trkpt>
      <trkpt lat="37.7734427712857723236083984375" lon="-107.70218345336616039276123046875">
        <ele>3933.39990234375</ele>
        <time>2023-07-29T17:06:10.000Z</time>
        <extensions>
          <ns3:TrackPointExtension>
            <ns3:hr>138</ns3:hr>
            <ns3:cad>0</ns3:cad>
          </ns3:TrackPointExtension>
        </extensions>
      </trkpt>
      <trkpt lat="37.773434557020664215087890625" lon="-107.70218320190906524658203125">
        <ele>3933.39990234375</ele>
        <time>2023-07-29T17:06:11.000Z</time>
        <extensions>
          <ns3:TrackPointExtension>
            <ns3:hr>138</ns3:hr>
            <ns3:cad>0</ns3:cad>
          </ns3:TrackPointExtension>
        </extensions>
      </trkpt>
      <trkpt lat="37.77343028225004673004150390625" lon="-107.70218479447066783905029296875">
        <ele>3933.60009765625</ele>
        <time>2023-07-29T17:06:12.000Z</time>
        <extensions>
          <ns3:TrackPointExtension>
            <ns3:hr>137</ns3:hr>
            <ns3:cad>0</ns3:cad>
          </ns3:TrackPointExtension>
        </extensions>
      </trkpt>
      <trkpt lat="37.77342676185071468353271484375" lon="-107.70219300873577594757080078125">
        <ele>3933.800048828125</ele>
        <time>2023-07-29T17:06:13.000Z</time>
        <extensions>
          <ns3:TrackPointExtension>
            <ns3:hr>137</ns3:hr>
            <ns3:cad>66</ns3:cad>
          </ns3:TrackPointExtension>
        </extensions>
      </trkpt>
      <trkpt lat="37.7734167873859405517578125" lon="-107.70219686441123485565185546875">
        <ele>3934</ele>
        <time>2023-07-29T17:06:14.000Z</time>
        <extensions>
          <ns3:TrackPointExtension>
            <ns3:hr>137</ns3:hr>
            <ns3:cad>66</ns3:cad>
          </ns3:TrackPointExtension>
        </extensions>
      </trkpt>
      <trkpt lat="37.773411758244037628173828125" lon="-107.7022014744579792022705078125">
        <ele>3934.39990234375</ele>
        <time>2023-07-29T17:06:15.000Z</time>
        <extensions>
          <ns3:TrackPointExtension>
            <ns3:hr>137</ns3:hr>
            <ns3:cad>66</ns3:cad>
          </ns3:TrackPointExtension>
        </extensions>
      </trkpt>
      <trkpt lat="37.77340899221599102020263671875" lon="-107.7022080123424530029296875">
        <ele>3934.39990234375</ele>
        <time>2023-07-29T17:06:16.000Z</time>
        <extensions>
          <ns3:TrackPointExtension>
            <ns3:hr>137</ns3:hr>
            <ns3:cad>66</ns3:cad>
          </ns3:TrackPointExtension>
        </extensions>
      </trkpt>
      <trkpt lat="37.77340161614120006561279296875" lon="-107.70221413113176822662353515625">
        <ele>3934.60009765625</ele>
        <time>2023-07-29T17:06:17.000Z</time>
        <extensions>
          <ns3:TrackPointExtension>
            <ns3:hr>137</ns3:hr>
            <ns3:cad>66</ns3:cad>
          </ns3:TrackPointExtension>
        </extensions>
      </trkpt>
      <trkpt lat="37.77339197695255279541015625" lon="-107.702214717864990234375">
        <ele>3935</ele>
        <time>2023-07-29T17:06:18.000Z</time>
        <extensions>
          <ns3:TrackPointExtension>
            <ns3:hr>138</ns3:hr>
            <ns3:cad>66</ns3:cad>
          </ns3:TrackPointExtension>
        </extensions>
      </trkpt>
      <trkpt lat="37.77338887564837932586669921875" lon="-107.70221681334078311920166015625">
        <ele>3935.39990234375</ele>
        <time>2023-07-29T17:06:19.000Z</time>
        <extensions>
          <ns3:TrackPointExtension>
            <ns3:hr>138</ns3:hr>
            <ns3:cad>0</ns3:cad>
          </ns3:TrackPointExtension>
        </extensions>
      </trkpt>
      <trkpt lat="37.7733846008777618408203125" lon="-107.702214717864990234375">
        <ele>3935.800048828125</ele>
        <time>2023-07-29T17:06:20.000Z</time>
        <extensions>
          <ns3:TrackPointExtension>
            <ns3:hr>138</ns3:hr>
            <ns3:cad>0</ns3:cad>
          </ns3:TrackPointExtension>
        </extensions>
      </trkpt>
      <trkpt lat="37.7733794040977954864501953125" lon="-107.7022225968539714813232421875">
        <ele>3936</ele>
        <time>2023-07-29T17:06:21.000Z</time>
        <extensions>
          <ns3:TrackPointExtension>
            <ns3:hr>138</ns3:hr>
            <ns3:cad>0</ns3:cad>
          </ns3:TrackPointExtension>
        </extensions>
      </trkpt>
      <trkpt lat="37.773372195661067962646484375" lon="-107.702226452529430389404296875">
        <ele>3936</ele>
        <time>2023-07-29T17:06:22.000Z</time>
        <extensions>
          <ns3:TrackPointExtension>
            <ns3:hr>138</ns3:hr>
            <ns3:cad>0</ns3:cad>
          </ns3:TrackPointExtension>
        </extensions>
      </trkpt>
      <trkpt lat="37.77336574159562587738037109375" lon="-107.70223282277584075927734375">
        <ele>3936</ele>
        <time>2023-07-29T17:06:23.000Z</time>
        <extensions>
          <ns3:TrackPointExtension>
            <ns3:hr>138</ns3:hr>
            <ns3:cad>0</ns3:cad>
          </ns3:TrackPointExtension>
        </extensions>
      </trkpt>
      <trkpt lat="37.77336389757692813873291015625" lon="-107.70223592408001422882080078125">
        <ele>3936.199951171875</ele>
        <time>2023-07-29T17:06:24.000Z</time>
        <extensions>
          <ns3:TrackPointExtension>
            <ns3:hr>138</ns3:hr>
            <ns3:cad>78</ns3:cad>
          </ns3:TrackPointExtension>
        </extensions>
      </trkpt>
      <trkpt lat="37.7733559347689151763916015625" lon="-107.70224497653543949127197265625">
        <ele>3936.199951171875</ele>
        <time>2023-07-29T17:06:25.000Z</time>
        <extensions>
          <ns3:TrackPointExtension>
            <ns3:hr>137</ns3:hr>
            <ns3:cad>78</ns3:cad>
          </ns3:TrackPointExtension>
        </extensions>
      </trkpt>
      <trkpt lat="37.77335048653185367584228515625" lon="-107.7022517658770084381103515625">
        <ele>3936.199951171875</ele>
        <time>2023-07-29T17:06:26.000Z</time>
        <extensions>
          <ns3:TrackPointExtension>
            <ns3:hr>137</ns3:hr>
            <ns3:cad>0</ns3:cad>
          </ns3:TrackPointExtension>
        </extensions>
      </trkpt>
      <trkpt lat="37.77335383929312229156494140625" lon="-107.70226207561790943145751953125">
        <ele>3936.39990234375</ele>
        <time>2023-07-29T17:06:27.000Z</time>
        <extensions>
          <ns3:TrackPointExtension>
            <ns3:hr>137</ns3:hr>
            <ns3:cad>0</ns3:cad>
          </ns3:TrackPointExtension>
        </extensions>
      </trkpt>
      <trkpt lat="37.773356102406978607177734375" lon="-107.70226643420755863189697265625">
        <ele>3936.60009765625</ele>
        <time>2023-07-29T17:06:28.000Z</time>
        <extensions>
          <ns3:TrackPointExtension>
            <ns3:hr>137</ns3:hr>
            <ns3:cad>0</ns3:cad>
          </ns3:TrackPointExtension>
        </extensions>
      </trkpt>
      <trkpt lat="37.7733452059328556060791015625" lon="-107.70227330736815929412841796875">
        <ele>3936.800048828125</ele>
        <time>2023-07-29T17:06:29.000Z</time>
        <extensions>
          <ns3:TrackPointExtension>
            <ns3:hr>137</ns3:hr>
            <ns3:cad>0</ns3:cad>
          </ns3:TrackPointExtension>
        </extensions>
      </trkpt>
      <trkpt lat="37.773342020809650421142578125" lon="-107.70227816887199878692626953125">
        <ele>3937</ele>
        <time>2023-07-29T17:06:30.000Z</time>
        <extensions>
          <ns3:TrackPointExtension>
            <ns3:hr>137</ns3:hr>
            <ns3:cad>0</ns3:cad>
          </ns3:TrackPointExtension>
        </extensions>
      </trkpt>
      <trkpt lat="37.7733368240296840667724609375" lon="-107.70227883942425251007080078125">
        <ele>3937.39990234375</ele>
        <time>2023-07-29T17:06:31.000Z</time>
        <extensions>
          <ns3:TrackPointExtension>
            <ns3:hr>137</ns3:hr>
            <ns3:cad>0</ns3:cad>
          </ns3:TrackPointExtension>
        </extensions>
      </trkpt>
      <trkpt lat="37.773331962525844573974609375" lon="-107.70228738896548748016357421875">
        <ele>3937.800048828125</ele>
        <time>2023-07-29T17:06:32.000Z</time>
        <extensions>
          <ns3:TrackPointExtension>
            <ns3:hr>137</ns3:hr>
            <ns3:cad>0</ns3:cad>
          </ns3:TrackPointExtension>
        </extensions>
      </trkpt>
      <trkpt lat="37.7733255922794342041015625" lon="-107.7022946812212467193603515625">
        <ele>3938.39990234375</ele>
        <time>2023-07-29T17:06:33.000Z</time>
        <extensions>
          <ns3:TrackPointExtension>
            <ns3:hr>137</ns3:hr>
            <ns3:cad>0</ns3:cad>
          </ns3:TrackPointExtension>
        </extensions>
      </trkpt>
      <trkpt lat="37.773316204547882080078125" lon="-107.702308259904384613037109375">
        <ele>3938.39990234375</ele>
        <time>2023-07-29T17:06:34.000Z</time>
        <extensions>
          <ns3:TrackPointExtension>
            <ns3:hr>137</ns3:hr>
            <ns3:cad>0</ns3:cad>
          </ns3:TrackPointExtension>
        </extensions>
      </trkpt>
      <trkpt lat="37.77330891229212284088134765625" lon="-107.70231974311172962188720703125">
        <ele>3938.60009765625</ele>
        <time>2023-07-29T17:06:35.000Z</time>
        <extensions>
          <ns3:TrackPointExtension>
            <ns3:hr>137</ns3:hr>
            <ns3:cad>0</ns3:cad>
          </ns3:TrackPointExtension>
        </extensions>
      </trkpt>
      <trkpt lat="37.77330304495990276336669921875" lon="-107.70233047194778919219970703125">
        <ele>3938.60009765625</ele>
        <time>2023-07-29T17:06:36.000Z</time>
        <extensions>
          <ns3:TrackPointExtension>
            <ns3:hr>137</ns3:hr>
            <ns3:cad>0</ns3:cad>
          </ns3:TrackPointExtension>
        </extensions>
      </trkpt>
      <trkpt lat="37.77330614626407623291015625" lon="-107.70234019495546817779541015625">
        <ele>3938.800048828125</ele>
        <time>2023-07-29T17:06:37.000Z</time>
        <extensions>
          <ns3:TrackPointExtension>
            <ns3:hr>138</ns3:hr>
            <ns3:cad>0</ns3:cad>
          </ns3:TrackPointExtension>
        </extensions>
      </trkpt>
      <trkpt lat="37.773306481540203094482421875" lon="-107.7023473195731639862060546875">
        <ele>3938.800048828125</ele>
        <time>2023-07-29T17:06:38.000Z</time>
        <extensions>
          <ns3:TrackPointExtension>
            <ns3:hr>138</ns3:hr>
            <ns3:cad>0</ns3:cad>
          </ns3:TrackPointExtension>
        </extensions>
      </trkpt>
      <trkpt lat="37.773305140435695648193359375" lon="-107.702362239360809326171875">
        <ele>3938.800048828125</ele>
        <time>2023-07-29T17:06:39.000Z</time>
        <extensions>
          <ns3:TrackPointExtension>
            <ns3:hr>138</ns3:hr>
            <ns3:cad>0</ns3:cad>
          </ns3:TrackPointExtension>
        </extensions>
      </trkpt>
      <trkpt lat="37.77330555953085422515869140625" lon="-107.70236802287399768829345703125">
        <ele>3939</ele>
        <time>2023-07-29T17:06:40.000Z</time>
        <extensions>
          <ns3:TrackPointExtension>
            <ns3:hr>139</ns3:hr>
            <ns3:cad>0</ns3:cad>
          </ns3:TrackPointExtension>
        </extensions>
      </trkpt>
      <trkpt lat="37.7733056433498859405517578125" lon="-107.702375985682010650634765625">
        <ele>3939</ele>
        <time>2023-07-29T17:06:41.000Z</time>
        <extensions>
          <ns3:TrackPointExtension>
            <ns3:hr>139</ns3:hr>
            <ns3:cad>0</ns3:cad>
          </ns3:TrackPointExtension>
        </extensions>
      </trkpt>
      <trkpt lat="37.77330405078828334808349609375" lon="-107.7023875527083873748779296875">
        <ele>3939</ele>
        <time>2023-07-29T17:06:42.000Z</time>
        <extensions>
          <ns3:TrackPointExtension>
            <ns3:hr>139</ns3:hr>
            <ns3:cad>0</ns3:cad>
          </ns3:TrackPointExtension>
        </extensions>
      </trkpt>
      <trkpt lat="37.77330212295055389404296875" lon="-107.702394761145114898681640625">
        <ele>3939.199951171875</ele>
        <time>2023-07-29T17:06:43.000Z</time>
        <extensions>
          <ns3:TrackPointExtension>
            <ns3:hr>139</ns3:hr>
            <ns3:cad>0</ns3:cad>
          </ns3:TrackPointExtension>
        </extensions>
      </trkpt>
      <trkpt lat="37.77330103330314159393310546875" lon="-107.702407501637935638427734375">
        <ele>3939.199951171875</ele>
        <time>2023-07-29T17:06:44.000Z</time>
        <extensions>
          <ns3:TrackPointExtension>
            <ns3:hr>139</ns3:hr>
            <ns3:cad>0</ns3:cad>
          </ns3:TrackPointExtension>
        </extensions>
      </trkpt>
      <trkpt lat="37.77329885400831699371337890625" lon="-107.7024204097688198089599609375">
        <ele>3939.199951171875</ele>
        <time>2023-07-29T17:06:45.000Z</time>
        <extensions>
          <ns3:TrackPointExtension>
            <ns3:hr>140</ns3:hr>
            <ns3:cad>0</ns3:cad>
          </ns3:TrackPointExtension>
        </extensions>
      </trkpt>
      <trkpt lat="37.77329650707542896270751953125" lon="-107.70243675448000431060791015625">
        <ele>3939.199951171875</ele>
        <time>2023-07-29T17:06:46.000Z</time>
        <extensions>
          <ns3:TrackPointExtension>
            <ns3:hr>140</ns3:hr>
            <ns3:cad>0</ns3:cad>
          </ns3:TrackPointExtension>
        </extensions>
      </trkpt>
      <trkpt lat="37.773292064666748046875" lon="-107.702456451952457427978515625">
        <ele>3939.199951171875</ele>
        <time>2023-07-29T17:06:47.000Z</time>
        <extensions>
          <ns3:TrackPointExtension>
            <ns3:hr>141</ns3:hr>
            <ns3:cad>0</ns3:cad>
          </ns3:TrackPointExtension>
        </extensions>
      </trkpt>
      <trkpt lat="37.7732880413532257080078125" lon="-107.70246827043592929840087890625">
        <ele>3939.199951171875</ele>
        <time>2023-07-29T17:06:48.000Z</time>
        <extensions>
          <ns3:TrackPointExtension>
            <ns3:hr>141</ns3:hr>
            <ns3:cad>0</ns3:cad>
          </ns3:TrackPointExtension>
        </extensions>
      </trkpt>
      <trkpt lat="37.773283682763576507568359375" lon="-107.7024780772626399993896484375">
        <ele>3939.199951171875</ele>
        <time>2023-07-29T17:06:49.000Z</time>
        <extensions>
          <ns3:TrackPointExtension>
            <ns3:hr>142</ns3:hr>
            <ns3:cad>0</ns3:cad>
          </ns3:TrackPointExtension>
        </extensions>
      </trkpt>
      <trkpt lat="37.7732798270881175994873046875" lon="-107.70248386077582836151123046875">
        <ele>3939.199951171875</ele>
        <time>2023-07-29T17:06:50.000Z</time>
        <extensions>
          <ns3:TrackPointExtension>
            <ns3:hr>142</ns3:hr>
            <ns3:cad>0</ns3:cad>
          </ns3:TrackPointExtension>
        </extensions>
      </trkpt>
      <trkpt lat="37.77327521704137325286865234375" lon="-107.70249224267899990081787109375">
        <ele>3939.199951171875</ele>
        <time>2023-07-29T17:06:51.000Z</time>
        <extensions>
          <ns3:TrackPointExtension>
            <ns3:hr>142</ns3:hr>
            <ns3:cad>0</ns3:cad>
          </ns3:TrackPointExtension>
        </extensions>
      </trkpt>
      <trkpt lat="37.77326993644237518310546875" lon="-107.7025032229721546173095703125">
        <ele>3939.199951171875</ele>
        <time>2023-07-29T17:06:52.000Z</time>
        <extensions>
          <ns3:TrackPointExtension>
            <ns3:hr>142</ns3:hr>
            <ns3:cad>0</ns3:cad>
          </ns3:TrackPointExtension>
        </extensions>
      </trkpt>
      <trkpt lat="37.77326683513820171356201171875" lon="-107.7025116048753261566162109375">
        <ele>3939.199951171875</ele>
        <time>2023-07-29T17:06:53.000Z</time>
        <extensions>
          <ns3:TrackPointExtension>
            <ns3:hr>142</ns3:hr>
            <ns3:cad>0</ns3:cad>
          </ns3:TrackPointExtension>
        </extensions>
      </trkpt>
      <trkpt lat="37.77326365001499652862548828125" lon="-107.70252174697816371917724609375">
        <ele>3939.39990234375</ele>
        <time>2023-07-29T17:06:54.000Z</time>
        <extensions>
          <ns3:TrackPointExtension>
            <ns3:hr>142</ns3:hr>
            <ns3:cad>0</ns3:cad>
          </ns3:TrackPointExtension>
        </extensions>
      </trkpt>
      <trkpt lat="37.773262225091457366943359375" lon="-107.70253163762390613555908203125">
        <ele>3939.39990234375</ele>
        <time>2023-07-29T17:06:55.000Z</time>
        <extensions>
          <ns3:TrackPointExtension>
            <ns3:hr>142</ns3:hr>
            <ns3:cad>0</ns3:cad>
          </ns3:TrackPointExtension>
        </extensions>
      </trkpt>
      <trkpt lat="37.7732583694159984588623046875" lon="-107.70254370756447315216064453125">
        <ele>3939.39990234375</ele>
        <time>2023-07-29T17:06:56.000Z</time>
        <extensions>
          <ns3:TrackPointExtension>
            <ns3:hr>141</ns3:hr>
            <ns3:cad>0</ns3:cad>
          </ns3:TrackPointExtension>
        </extensions>
      </trkpt>
      <trkpt lat="37.77325392700731754302978515625" lon="-107.702557705342769622802734375">
        <ele>3939.60009765625</ele>
        <time>2023-07-29T17:06:57.000Z</time>
        <extensions>
          <ns3:TrackPointExtension>
            <ns3:hr>140</ns3:hr>
            <ns3:cad>0</ns3:cad>
          </ns3:TrackPointExtension>
        </extensions>
      </trkpt>
      <trkpt lat="37.7732483111321926116943359375" lon="-107.7025736309587955474853515625">
        <ele>3939.60009765625</ele>
        <time>2023-07-29T17:06:58.000Z</time>
        <extensions>
          <ns3:TrackPointExtension>
            <ns3:hr>140</ns3:hr>
            <ns3:cad>48</ns3:cad>
          </ns3:TrackPointExtension>
        </extensions>
      </trkpt>
      <trkpt lat="37.7732412703335285186767578125" lon="-107.7025883831083774566650390625">
        <ele>3939.800048828125</ele>
        <time>2023-07-29T17:06:59.000Z</time>
        <extensions>
          <ns3:TrackPointExtension>
            <ns3:hr>139</ns3:hr>
            <ns3:cad>48</ns3:cad>
          </ns3:TrackPointExtension>
        </extensions>
      </trkpt>
      <trkpt lat="37.77323615737259387969970703125" lon="-107.70259768702089786529541015625">
        <ele>3939.800048828125</ele>
        <time>2023-07-29T17:07:00.000Z</time>
        <extensions>
          <ns3:TrackPointExtension>
            <ns3:hr>139</ns3:hr>
            <ns3:cad>48</ns3:cad>
          </ns3:TrackPointExtension>
        </extensions>
      </trkpt>
      <trkpt lat="37.773230373859405517578125" lon="-107.70260590128600597381591796875">
        <ele>3939.800048828125</ele>
        <time>2023-07-29T17:07:01.000Z</time>
        <extensions>
          <ns3:TrackPointExtension>
            <ns3:hr>138</ns3:hr>
            <ns3:cad>48</ns3:cad>
          </ns3:TrackPointExtension>
        </extensions>
      </trkpt>
      <trkpt lat="37.77322626672685146331787109375" lon="-107.70261143334209918975830078125">
        <ele>3940</ele>
        <time>2023-07-29T17:07:02.000Z</time>
        <extensions>
          <ns3:TrackPointExtension>
            <ns3:hr>138</ns3:hr>
            <ns3:cad>48</ns3:cad>
          </ns3:TrackPointExtension>
        </extensions>
      </trkpt>
      <trkpt lat="37.773220650851726531982421875" lon="-107.70261562429368495941162109375">
        <ele>3940.199951171875</ele>
        <time>2023-07-29T17:07:03.000Z</time>
        <extensions>
          <ns3:TrackPointExtension>
            <ns3:hr>137</ns3:hr>
            <ns3:cad>0</ns3:cad>
          </ns3:TrackPointExtension>
        </extensions>
      </trkpt>
      <trkpt lat="37.773213945329189300537109375" lon="-107.7026205696165561676025390625">
        <ele>3940.199951171875</ele>
        <time>2023-07-29T17:07:04.000Z</time>
        <extensions>
          <ns3:TrackPointExtension>
            <ns3:hr>137</ns3:hr>
            <ns3:cad>0</ns3:cad>
          </ns3:TrackPointExtension>
        </extensions>
      </trkpt>
      <trkpt lat="37.77320900000631809234619140625" lon="-107.70262316800653934478759765625">
        <ele>3940.39990234375</ele>
        <time>2023-07-29T17:07:05.000Z</time>
        <extensions>
          <ns3:TrackPointExtension>
            <ns3:hr>136</ns3:hr>
            <ns3:cad>0</ns3:cad>
          </ns3:TrackPointExtension>
        </extensions>
      </trkpt>
      <trkpt lat="37.77320464141666889190673828125" lon="-107.702626772224903106689453125">
        <ele>3940.39990234375</ele>
        <time>2023-07-29T17:07:06.000Z</time>
        <extensions>
          <ns3:TrackPointExtension>
            <ns3:hr>136</ns3:hr>
            <ns3:cad>0</ns3:cad>
          </ns3:TrackPointExtension>
        </extensions>
      </trkpt>
      <trkpt lat="37.77319860644638538360595703125" lon="-107.7026336453855037689208984375">
        <ele>3940.60009765625</ele>
        <time>2023-07-29T17:07:07.000Z</time>
        <extensions>
          <ns3:TrackPointExtension>
            <ns3:hr>136</ns3:hr>
            <ns3:cad>0</ns3:cad>
          </ns3:TrackPointExtension>
        </extensions>
      </trkpt>
      <trkpt lat="37.7731929905712604522705078125" lon="-107.70263641141355037689208984375">
        <ele>3940.800048828125</ele>
        <time>2023-07-29T17:07:08.000Z</time>
        <extensions>
          <ns3:TrackPointExtension>
            <ns3:hr>136</ns3:hr>
            <ns3:cad>0</ns3:cad>
          </ns3:TrackPointExtension>
        </extensions>
      </trkpt>
      <trkpt lat="37.7731882967054843902587890625" lon="-107.70264211110770702362060546875">
        <ele>3940.800048828125</ele>
        <time>2023-07-29T17:07:09.000Z</time>
        <extensions>
          <ns3:TrackPointExtension>
            <ns3:hr>136</ns3:hr>
            <ns3:cad>0</ns3:cad>
          </ns3:TrackPointExtension>
        </extensions>
      </trkpt>
      <trkpt lat="37.77318100444972515106201171875" lon="-107.70264965482056140899658203125">
        <ele>3941</ele>
        <time>2023-07-29T17:07:10.000Z</time>
        <extensions>
          <ns3:TrackPointExtension>
            <ns3:hr>136</ns3:hr>
            <ns3:cad>0</ns3:cad>
          </ns3:TrackPointExtension>
        </extensions>
      </trkpt>
      <trkpt lat="37.77317681349813938140869140625" lon="-107.70265267230570316314697265625">
        <ele>3941.199951171875</ele>
        <time>2023-07-29T17:07:11.000Z</time>
        <extensions>
          <ns3:TrackPointExtension>
            <ns3:hr>135</ns3:hr>
            <ns3:cad>0</ns3:cad>
          </ns3:TrackPointExtension>
        </extensions>
      </trkpt>
      <trkpt lat="37.7731779031455516815185546875" lon="-107.7026586234569549560546875">
        <ele>3941.199951171875</ele>
        <time>2023-07-29T17:07:12.000Z</time>
        <extensions>
          <ns3:TrackPointExtension>
            <ns3:hr>135</ns3:hr>
            <ns3:cad>0</ns3:cad>
          </ns3:TrackPointExtension>
        </extensions>
      </trkpt>
      <trkpt lat="37.77317446656525135040283203125" lon="-107.70266138948500156402587890625">
        <ele>3941.39990234375</ele>
        <time>2023-07-29T17:07:13.000Z</time>
        <extensions>
          <ns3:TrackPointExtension>
            <ns3:hr>134</ns3:hr>
            <ns3:cad>0</ns3:cad>
          </ns3:TrackPointExtension>
        </extensions>
      </trkpt>
      <trkpt lat="37.77316809631884098052978515625" lon="-107.702664993703365325927734375">
        <ele>3941.800048828125</ele>
        <time>2023-07-29T17:07:14.000Z</time>
        <extensions>
          <ns3:TrackPointExtension>
            <ns3:hr>134</ns3:hr>
            <ns3:cad>0</ns3:cad>
          </ns3:TrackPointExtension>
        </extensions>
      </trkpt>
      <trkpt lat="37.77316239662468433380126953125" lon="-107.70267429761588573455810546875">
        <ele>3941.800048828125</ele>
        <time>2023-07-29T17:07:15.000Z</time>
        <extensions>
          <ns3:TrackPointExtension>
            <ns3:hr>134</ns3:hr>
            <ns3:cad>0</ns3:cad>
          </ns3:TrackPointExtension>
        </extensions>
      </trkpt>
      <trkpt lat="37.77315535582602024078369140625" lon="-107.7026825957000255584716796875">
        <ele>3942</ele>
        <time>2023-07-29T17:07:16.000Z</time>
        <extensions>
          <ns3:TrackPointExtension>
            <ns3:hr>134</ns3:hr>
            <ns3:cad>0</ns3:cad>
          </ns3:TrackPointExtension>
        </extensions>
      </trkpt>
      <trkpt lat="37.773149572312831878662109375" lon="-107.7026909776031970977783203125">
        <ele>3942</ele>
        <time>2023-07-29T17:07:17.000Z</time>
        <extensions>
          <ns3:TrackPointExtension>
            <ns3:hr>134</ns3:hr>
            <ns3:cad>0</ns3:cad>
          </ns3:TrackPointExtension>
        </extensions>
      </trkpt>
      <trkpt lat="37.77314814738929271697998046875" lon="-107.702697850763797760009765625">
        <ele>3942.39990234375</ele>
        <time>2023-07-29T17:07:18.000Z</time>
        <extensions>
          <ns3:TrackPointExtension>
            <ns3:hr>134</ns3:hr>
            <ns3:cad>0</ns3:cad>
          </ns3:TrackPointExtension>
        </extensions>
      </trkpt>
      <trkpt lat="37.773144207894802093505859375" lon="-107.7027087472379207611083984375">
        <ele>3942.60009765625</ele>
        <time>2023-07-29T17:07:19.000Z</time>
        <extensions>
          <ns3:TrackPointExtension>
            <ns3:hr>134</ns3:hr>
            <ns3:cad>0</ns3:cad>
          </ns3:TrackPointExtension>
        </extensions>
      </trkpt>
      <trkpt lat="37.77314010076224803924560546875" lon="-107.70272190682590007781982421875">
        <ele>3942.800048828125</ele>
        <time>2023-07-29T17:07:20.000Z</time>
        <extensions>
          <ns3:TrackPointExtension>
            <ns3:hr>134</ns3:hr>
            <ns3:cad>43</ns3:cad>
          </ns3:TrackPointExtension>
        </extensions>
      </trkpt>
      <trkpt lat="37.77313708327710628509521484375" lon="-107.7027315460145473480224609375">
        <ele>3942.800048828125</ele>
        <time>2023-07-29T17:07:21.000Z</time>
        <extensions>
          <ns3:TrackPointExtension>
            <ns3:hr>135</ns3:hr>
            <ns3:cad>43</ns3:cad>
          </ns3:TrackPointExtension>
        </extensions>
      </trkpt>
      <trkpt lat="37.77313088066875934600830078125" lon="-107.7027469687163829803466796875">
        <ele>3942.800048828125</ele>
        <time>2023-07-29T17:07:22.000Z</time>
        <extensions>
          <ns3:TrackPointExtension>
            <ns3:hr>135</ns3:hr>
            <ns3:cad>43</ns3:cad>
          </ns3:TrackPointExtension>
        </extensions>
      </trkpt>
      <trkpt lat="37.7731306292116641998291015625" lon="-107.70275493152439594268798828125">
        <ele>3943</ele>
        <time>2023-07-29T17:07:23.000Z</time>
        <extensions>
          <ns3:TrackPointExtension>
            <ns3:hr>135</ns3:hr>
            <ns3:cad>43</ns3:cad>
          </ns3:TrackPointExtension>
        </extensions>
      </trkpt>
      <trkpt lat="37.7731282822787761688232421875" lon="-107.70277152769267559051513671875">
        <ele>3943</ele>
        <time>2023-07-29T17:07:24.000Z</time>
        <extensions>
          <ns3:TrackPointExtension>
            <ns3:hr>135</ns3:hr>
            <ns3:cad>43</ns3:cad>
          </ns3:TrackPointExtension>
        </extensions>
      </trkpt>
      <trkpt lat="37.77312132529914379119873046875" lon="-107.70279063843190670013427734375">
        <ele>3943</ele>
        <time>2023-07-29T17:07:25.000Z</time>
        <extensions>
          <ns3:TrackPointExtension>
            <ns3:hr>135</ns3:hr>
            <ns3:cad>50</ns3:cad>
          </ns3:TrackPointExtension>
        </extensions>
      </trkpt>
      <trkpt lat="37.77311503887176513671875" lon="-107.7028056420385837554931640625">
        <ele>3943</ele>
        <time>2023-07-29T17:07:26.000Z</time>
        <extensions>
          <ns3:TrackPointExtension>
            <ns3:hr>134</ns3:hr>
            <ns3:cad>50</ns3:cad>
          </ns3:TrackPointExtension>
        </extensions>
      </trkpt>
      <trkpt lat="37.77310506440699100494384765625" lon="-107.70282265730202198028564453125">
        <ele>3943</ele>
        <time>2023-07-29T17:07:27.000Z</time>
        <extensions>
          <ns3:TrackPointExtension>
            <ns3:hr>134</ns3:hr>
            <ns3:cad>50</ns3:cad>
          </ns3:TrackPointExtension>
        </extensions>
      </trkpt>
      <trkpt lat="37.77309894561767578125" lon="-107.70283791236579418182373046875">
        <ele>3943.199951171875</ele>
        <time>2023-07-29T17:07:28.000Z</time>
        <extensions>
          <ns3:TrackPointExtension>
            <ns3:hr>134</ns3:hr>
            <ns3:cad>50</ns3:cad>
          </ns3:TrackPointExtension>
        </extensions>
      </trkpt>
      <trkpt lat="37.773093245923519134521484375" lon="-107.70284646190702915191650390625">
        <ele>3943.199951171875</ele>
        <time>2023-07-29T17:07:29.000Z</time>
        <extensions>
          <ns3:TrackPointExtension>
            <ns3:hr>134</ns3:hr>
            <ns3:cad>49</ns3:cad>
          </ns3:TrackPointExtension>
        </extensions>
      </trkpt>
      <trkpt lat="37.77309047989547252655029296875" lon="-107.70284981466829776763916015625">
        <ele>3943.199951171875</ele>
        <time>2023-07-29T17:07:30.000Z</time>
        <extensions>
          <ns3:TrackPointExtension>
            <ns3:hr>134</ns3:hr>
            <ns3:cad>49</ns3:cad>
          </ns3:TrackPointExtension>
        </extensions>
      </trkpt>
      <trkpt lat="37.7730843611061573028564453125" lon="-107.702857442200183868408203125">
        <ele>3943.199951171875</ele>
        <time>2023-07-29T17:07:31.000Z</time>
        <extensions>
          <ns3:TrackPointExtension>
            <ns3:hr>133</ns3:hr>
            <ns3:cad>49</ns3:cad>
          </ns3:TrackPointExtension>
        </extensions>
      </trkpt>
      <trkpt lat="37.7730796672403812408447265625" lon="-107.70286389626562595367431640625">
        <ele>3943.199951171875</ele>
        <time>2023-07-29T17:07:32.000Z</time>
        <extensions>
          <ns3:TrackPointExtension>
            <ns3:hr>133</ns3:hr>
            <ns3:cad>49</ns3:cad>
          </ns3:TrackPointExtension>
        </extensions>
      </trkpt>
      <trkpt lat="37.77307706885039806365966796875" lon="-107.70286859013140201568603515625">
        <ele>3943.39990234375</ele>
        <time>2023-07-29T17:07:33.000Z</time>
        <extensions>
          <ns3:TrackPointExtension>
            <ns3:hr>133</ns3:hr>
            <ns3:cad>47</ns3:cad>
          </ns3:TrackPointExtension>
        </extensions>
      </trkpt>
      <trkpt lat="37.7730692736804485321044921875" lon="-107.702880911529064178466796875">
        <ele>3943.60009765625</ele>
        <time>2023-07-29T17:07:34.000Z</time>
        <extensions>
          <ns3:TrackPointExtension>
            <ns3:hr>132</ns3:hr>
            <ns3:cad>47</ns3:cad>
          </ns3:TrackPointExtension>
        </extensions>
      </trkpt>
      <trkpt lat="37.77306432835757732391357421875" lon="-107.7028904668986797332763671875">
        <ele>3943.60009765625</ele>
        <time>2023-07-29T17:07:35.000Z</time>
        <extensions>
          <ns3:TrackPointExtension>
            <ns3:hr>131</ns3:hr>
            <ns3:cad>47</ns3:cad>
          </ns3:TrackPointExtension>
        </extensions>
      </trkpt>
      <trkpt lat="37.77305728755891323089599609375" lon="-107.70290429703891277313232421875">
        <ele>3944</ele>
        <time>2023-07-29T17:07:36.000Z</time>
        <extensions>
          <ns3:TrackPointExtension>
            <ns3:hr>131</ns3:hr>
            <ns3:cad>47</ns3:cad>
          </ns3:TrackPointExtension>
        </extensions>
      </trkpt>
      <trkpt lat="37.77304865419864654541015625" lon="-107.70291871391236782073974609375">
        <ele>3944</ele>
        <time>2023-07-29T17:07:37.000Z</time>
        <extensions>
          <ns3:TrackPointExtension>
            <ns3:hr>131</ns3:hr>
            <ns3:cad>47</ns3:cad>
          </ns3:TrackPointExtension>
        </extensions>
      </trkpt>
      <trkpt lat="37.77304463088512420654296875" lon="-107.7029273472726345062255859375">
        <ele>3944</ele>
        <time>2023-07-29T17:07:38.000Z</time>
        <extensions>
          <ns3:TrackPointExtension>
            <ns3:hr>131</ns3:hr>
            <ns3:cad>47</ns3:cad>
          </ns3:TrackPointExtension>
        </extensions>
      </trkpt>
      <trkpt lat="37.77303666807711124420166015625" lon="-107.7029410935938358306884765625">
        <ele>3944.199951171875</ele>
        <time>2023-07-29T17:07:39.000Z</time>
        <extensions>
          <ns3:TrackPointExtension>
            <ns3:hr>131</ns3:hr>
            <ns3:cad>47</ns3:cad>
          </ns3:TrackPointExtension>
        </extensions>
      </trkpt>
      <trkpt lat="37.77303365059196949005126953125" lon="-107.70294897258281707763671875">
        <ele>3944.199951171875</ele>
        <time>2023-07-29T17:07:40.000Z</time>
        <extensions>
          <ns3:TrackPointExtension>
            <ns3:hr>130</ns3:hr>
            <ns3:cad>50</ns3:cad>
          </ns3:TrackPointExtension>
        </extensions>
      </trkpt>
      <trkpt lat="37.77302694506943225860595703125" lon="-107.70296045579016208648681640625">
        <ele>3944.199951171875</ele>
        <time>2023-07-29T17:07:41.000Z</time>
        <extensions>
          <ns3:TrackPointExtension>
            <ns3:hr>130</ns3:hr>
            <ns3:cad>50</ns3:cad>
          </ns3:TrackPointExtension>
        </extensions>
      </trkpt>
      <trkpt lat="37.77301914989948272705078125" lon="-107.7029712684452533721923828125">
        <ele>3944.39990234375</ele>
        <time>2023-07-29T17:07:42.000Z</time>
        <extensions>
          <ns3:TrackPointExtension>
            <ns3:hr>130</ns3:hr>
            <ns3:cad>50</ns3:cad>
          </ns3:TrackPointExtension>
        </extensions>
      </trkpt>
      <trkpt lat="37.7730152942240238189697265625" lon="-107.70297705195844173431396484375">
        <ele>3944.39990234375</ele>
        <time>2023-07-29T17:07:43.000Z</time>
        <extensions>
          <ns3:TrackPointExtension>
            <ns3:hr>129</ns3:hr>
            <ns3:cad>50</ns3:cad>
          </ns3:TrackPointExtension>
        </extensions>
      </trkpt>
      <trkpt lat="37.7730089239776134490966796875" lon="-107.7029897086322307586669921875">
        <ele>3944.39990234375</ele>
        <time>2023-07-29T17:07:44.000Z</time>
        <extensions>
          <ns3:TrackPointExtension>
            <ns3:hr>129</ns3:hr>
            <ns3:cad>49</ns3:cad>
          </ns3:TrackPointExtension>
        </extensions>
      </trkpt>
      <trkpt lat="37.7730035595595836639404296875" lon="-107.7029960788786411285400390625">
        <ele>3944.800048828125</ele>
        <time>2023-07-29T17:07:45.000Z</time>
        <extensions>
          <ns3:TrackPointExtension>
            <ns3:hr>129</ns3:hr>
            <ns3:cad>49</ns3:cad>
          </ns3:TrackPointExtension>
        </extensions>
      </trkpt>
      <trkpt lat="37.7729961834847927093505859375" lon="-107.7030091546475887298583984375">
        <ele>3944.800048828125</ele>
        <time>2023-07-29T17:07:46.000Z</time>
        <extensions>
          <ns3:TrackPointExtension>
            <ns3:hr>130</ns3:hr>
            <ns3:cad>74</ns3:cad>
          </ns3:TrackPointExtension>
        </extensions>
      </trkpt>
      <trkpt lat="37.7729867957532405853271484375" lon="-107.70302315242588520050048828125">
        <ele>3945</ele>
        <time>2023-07-29T17:07:47.000Z</time>
        <extensions>
          <ns3:TrackPointExtension>
            <ns3:hr>130</ns3:hr>
            <ns3:cad>74</ns3:cad>
          </ns3:TrackPointExtension>
        </extensions>
      </trkpt>
      <trkpt lat="37.7729827724397182464599609375" lon="-107.70302801392972469329833984375">
        <ele>3945.199951171875</ele>
        <time>2023-07-29T17:07:48.000Z</time>
        <extensions>
          <ns3:TrackPointExtension>
            <ns3:hr>130</ns3:hr>
            <ns3:cad>74</ns3:cad>
          </ns3:TrackPointExtension>
        </extensions>
      </trkpt>
      <trkpt lat="37.7729790844023227691650390625" lon="-107.7030302770435810089111328125">
        <ele>3945.199951171875</ele>
        <time>2023-07-29T17:07:49.000Z</time>
        <extensions>
          <ns3:TrackPointExtension>
            <ns3:hr>131</ns3:hr>
            <ns3:cad>74</ns3:cad>
          </ns3:TrackPointExtension>
        </extensions>
      </trkpt>
      <trkpt lat="37.77296952903270721435546875" lon="-107.7030403353273868560791015625">
        <ele>3945.199951171875</ele>
        <time>2023-07-29T17:07:50.000Z</time>
        <extensions>
          <ns3:TrackPointExtension>
            <ns3:hr>131</ns3:hr>
            <ns3:cad>74</ns3:cad>
          </ns3:TrackPointExtension>
        </extensions>
      </trkpt>
      <trkpt lat="37.77296257205307483673095703125" lon="-107.70305030979216098785400390625">
        <ele>3945.60009765625</ele>
        <time>2023-07-29T17:07:51.000Z</time>
        <extensions>
          <ns3:TrackPointExtension>
            <ns3:hr>131</ns3:hr>
            <ns3:cad>74</ns3:cad>
          </ns3:TrackPointExtension>
        </extensions>
      </trkpt>
      <trkpt lat="37.77295469306409358978271484375" lon="-107.70306036807596683502197265625">
        <ele>3945.60009765625</ele>
        <time>2023-07-29T17:07:52.000Z</time>
        <extensions>
          <ns3:TrackPointExtension>
            <ns3:hr>131</ns3:hr>
            <ns3:cad>74</ns3:cad>
          </ns3:TrackPointExtension>
        </extensions>
      </trkpt>
      <trkpt lat="37.772947736084461212158203125" lon="-107.7030684985220432281494140625">
        <ele>3946</ele>
        <time>2023-07-29T17:07:53.000Z</time>
        <extensions>
          <ns3:TrackPointExtension>
            <ns3:hr>131</ns3:hr>
            <ns3:cad>74</ns3:cad>
          </ns3:TrackPointExtension>
        </extensions>
      </trkpt>
      <trkpt lat="37.77293742634356021881103515625" lon="-107.70308232866227626800537109375">
        <ele>3946</ele>
        <time>2023-07-29T17:07:54.000Z</time>
        <extensions>
          <ns3:TrackPointExtension>
            <ns3:hr>131</ns3:hr>
            <ns3:cad>74</ns3:cad>
          </ns3:TrackPointExtension>
        </extensions>
      </trkpt>
      <trkpt lat="37.77292820625007152557373046875" lon="-107.70309473387897014617919921875">
        <ele>3946.199951171875</ele>
        <time>2023-07-29T17:07:55.000Z</time>
        <extensions>
          <ns3:TrackPointExtension>
            <ns3:hr>131</ns3:hr>
            <ns3:cad>74</ns3:cad>
          </ns3:TrackPointExtension>
        </extensions>
      </trkpt>
      <trkpt lat="37.77292393147945404052734375" lon="-107.7031047083437442779541015625">
        <ele>3946.39990234375</ele>
        <time>2023-07-29T17:07:56.000Z</time>
        <extensions>
          <ns3:TrackPointExtension>
            <ns3:hr>131</ns3:hr>
            <ns3:cad>44</ns3:cad>
          </ns3:TrackPointExtension>
        </extensions>
      </trkpt>
      <trkpt lat="37.77291496284306049346923828125" lon="-107.7031184546649456024169921875">
        <ele>3946.39990234375</ele>
        <time>2023-07-29T17:07:57.000Z</time>
        <extensions>
          <ns3:TrackPointExtension>
            <ns3:hr>131</ns3:hr>
            <ns3:cad>44</ns3:cad>
          </ns3:TrackPointExtension>
        </extensions>
      </trkpt>
      <trkpt lat="37.772912196815013885498046875" lon="-107.7031244896352291107177734375">
        <ele>3946.39990234375</ele>
        <time>2023-07-29T17:07:58.000Z</time>
        <extensions>
          <ns3:TrackPointExtension>
            <ns3:hr>131</ns3:hr>
            <ns3:cad>44</ns3:cad>
          </ns3:TrackPointExtension>
        </extensions>
      </trkpt>
      <trkpt lat="37.77290917932987213134765625" lon="-107.70313362590968608856201171875">
        <ele>3946.60009765625</ele>
        <time>2023-07-29T17:07:59.000Z</time>
        <extensions>
          <ns3:TrackPointExtension>
            <ns3:hr>131</ns3:hr>
            <ns3:cad>44</ns3:cad>
          </ns3:TrackPointExtension>
        </extensions>
      </trkpt>
      <trkpt lat="37.7729039825499057769775390625" lon="-107.703143768012523651123046875">
        <ele>3946.60009765625</ele>
        <time>2023-07-29T17:08:00.000Z</time>
        <extensions>
          <ns3:TrackPointExtension>
            <ns3:hr>131</ns3:hr>
            <ns3:cad>48</ns3:cad>
          </ns3:TrackPointExtension>
        </extensions>
      </trkpt>
      <trkpt lat="37.7728976123034954071044921875" lon="-107.70315240137279033660888671875">
        <ele>3946.60009765625</ele>
        <time>2023-07-29T17:08:01.000Z</time>
        <extensions>
          <ns3:TrackPointExtension>
            <ns3:hr>131</ns3:hr>
            <ns3:cad>48</ns3:cad>
          </ns3:TrackPointExtension>
        </extensions>
      </trkpt>
      <trkpt lat="37.77289149351418018341064453125" lon="-107.703159190714359283447265625">
        <ele>3946.60009765625</ele>
        <time>2023-07-29T17:08:02.000Z</time>
        <extensions>
          <ns3:TrackPointExtension>
            <ns3:hr>131</ns3:hr>
            <ns3:cad>48</ns3:cad>
          </ns3:TrackPointExtension>
        </extensions>
      </trkpt>
      <trkpt lat="37.77288478799164295196533203125" lon="-107.70316497422754764556884765625">
        <ele>3946.60009765625</ele>
        <time>2023-07-29T17:08:03.000Z</time>
        <extensions>
          <ns3:TrackPointExtension>
            <ns3:hr>131</ns3:hr>
            <ns3:cad>0</ns3:cad>
          </ns3:TrackPointExtension>
        </extensions>
      </trkpt>
      <trkpt lat="37.772872634232044219970703125" lon="-107.70318089984357357025146484375">
        <ele>3946.60009765625</ele>
        <time>2023-07-29T17:08:04.000Z</time>
        <extensions>
          <ns3:TrackPointExtension>
            <ns3:hr>131</ns3:hr>
            <ns3:cad>0</ns3:cad>
          </ns3:TrackPointExtension>
        </extensions>
      </trkpt>
      <trkpt lat="37.77286383323371410369873046875" lon="-107.70318492315709590911865234375">
        <ele>3946.60009765625</ele>
        <time>2023-07-29T17:08:05.000Z</time>
        <extensions>
          <ns3:TrackPointExtension>
            <ns3:hr>131</ns3:hr>
            <ns3:cad>48</ns3:cad>
          </ns3:TrackPointExtension>
        </extensions>
      </trkpt>
      <trkpt lat="37.7728523500263690948486328125" lon="-107.703197412192821502685546875">
        <ele>3946.60009765625</ele>
        <time>2023-07-29T17:08:06.000Z</time>
        <extensions>
          <ns3:TrackPointExtension>
            <ns3:hr>131</ns3:hr>
            <ns3:cad>48</ns3:cad>
          </ns3:TrackPointExtension>
        </extensions>
      </trkpt>
      <trkpt lat="37.77284572832286357879638671875" lon="-107.7032031118869781494140625">
        <ele>3946.60009765625</ele>
        <time>2023-07-29T17:08:07.000Z</time>
        <extensions>
          <ns3:TrackPointExtension>
            <ns3:hr>131</ns3:hr>
            <ns3:cad>49</ns3:cad>
          </ns3:TrackPointExtension>
        </extensions>
      </trkpt>
      <trkpt lat="37.7728386037051677703857421875" lon="-107.7032123319804668426513671875">
        <ele>3946.39990234375</ele>
        <time>2023-07-29T17:08:08.000Z</time>
        <extensions>
          <ns3:TrackPointExtension>
            <ns3:hr>131</ns3:hr>
            <ns3:cad>49</ns3:cad>
          </ns3:TrackPointExtension>
        </extensions>
      </trkpt>
      <trkpt lat="37.77282762341201305389404296875" lon="-107.703223563730716705322265625">
        <ele>3946.39990234375</ele>
        <time>2023-07-29T17:08:09.000Z</time>
        <extensions>
          <ns3:TrackPointExtension>
            <ns3:hr>131</ns3:hr>
            <ns3:cad>49</ns3:cad>
          </ns3:TrackPointExtension>
        </extensions>
      </trkpt>
      <trkpt lat="37.77281530201435089111328125" lon="-107.703235633671283721923828125">
        <ele>3946.39990234375</ele>
        <time>2023-07-29T17:08:10.000Z</time>
        <extensions>
          <ns3:TrackPointExtension>
            <ns3:hr>131</ns3:hr>
            <ns3:cad>49</ns3:cad>
          </ns3:TrackPointExtension>
        </extensions>
      </trkpt>
      <trkpt lat="37.77280054986476898193359375" lon="-107.70324544049799442291259765625">
        <ele>3946.39990234375</ele>
        <time>2023-07-29T17:08:11.000Z</time>
        <extensions>
          <ns3:TrackPointExtension>
            <ns3:hr>131</ns3:hr>
            <ns3:cad>49</ns3:cad>
          </ns3:TrackPointExtension>
        </extensions>
      </trkpt>
      <trkpt lat="37.77279845438897609710693359375" lon="-107.70324761979281902313232421875">
        <ele>3946.39990234375</ele>
        <time>2023-07-29T17:08:12.000Z</time>
        <extensions>
          <ns3:TrackPointExtension>
            <ns3:hr>130</ns3:hr>
            <ns3:cad>49</ns3:cad>
          </ns3:TrackPointExtension>
        </extensions>
      </trkpt>
      <trkpt lat="37.7727893181145191192626953125" lon="-107.70325315184891223907470703125">
        <ele>3946.39990234375</ele>
        <time>2023-07-29T17:08:13.000Z</time>
        <extensions>
          <ns3:TrackPointExtension>
            <ns3:hr>130</ns3:hr>
            <ns3:cad>49</ns3:cad>
          </ns3:TrackPointExtension>
        </extensions>
      </trkpt>
      <trkpt lat="37.77278303168714046478271484375" lon="-107.703259773552417755126953125">
        <ele>3946.199951171875</ele>
        <time>2023-07-29T17:08:14.000Z</time>
        <extensions>
          <ns3:TrackPointExtension>
            <ns3:hr>130</ns3:hr>
            <ns3:cad>49</ns3:cad>
          </ns3:TrackPointExtension>
        </extensions>
      </trkpt>
      <trkpt lat="37.7727738954126834869384765625" lon="-107.703270502388477325439453125">
        <ele>3946.199951171875</ele>
        <time>2023-07-29T17:08:15.000Z</time>
        <extensions>
          <ns3:TrackPointExtension>
            <ns3:hr>130</ns3:hr>
            <ns3:cad>49</ns3:cad>
          </ns3:TrackPointExtension>
        </extensions>
      </trkpt>
      <trkpt lat="37.77276375330984592437744140625" lon="-107.70328165031969547271728515625">
        <ele>3946.199951171875</ele>
        <time>2023-07-29T17:08:16.000Z</time>
        <extensions>
          <ns3:TrackPointExtension>
            <ns3:hr>130</ns3:hr>
            <ns3:cad>49</ns3:cad>
          </ns3:TrackPointExtension>
        </extensions>
      </trkpt>
      <trkpt lat="37.77274883352220058441162109375" lon="-107.70329690538346767425537109375">
        <ele>3946.199951171875</ele>
        <time>2023-07-29T17:08:17.000Z</time>
        <extensions>
          <ns3:TrackPointExtension>
            <ns3:hr>129</ns3:hr>
            <ns3:cad>0</ns3:cad>
          </ns3:TrackPointExtension>
        </extensions>
      </trkpt>
      <trkpt lat="37.7727336622774600982666015625" lon="-107.7033092267811298370361328125">
        <ele>3946.199951171875</ele>
        <time>2023-07-29T17:08:18.000Z</time>
        <extensions>
          <ns3:TrackPointExtension>
            <ns3:hr>129</ns3:hr>
            <ns3:cad>0</ns3:cad>
          </ns3:TrackPointExtension>
        </extensions>
      </trkpt>
      <trkpt lat="37.77272251434624195098876953125" lon="-107.703320123255252838134765625">
        <ele>3946.199951171875</ele>
        <time>2023-07-29T17:08:19.000Z</time>
        <extensions>
          <ns3:TrackPointExtension>
            <ns3:hr>128</ns3:hr>
            <ns3:cad>0</ns3:cad>
          </ns3:TrackPointExtension>
        </extensions>
      </trkpt>
      <trkpt lat="37.7727098576724529266357421875" lon="-107.70332741551101207733154296875">
        <ele>3946.199951171875</ele>
        <time>2023-07-29T17:08:20.000Z</time>
        <extensions>
          <ns3:TrackPointExtension>
            <ns3:hr>128</ns3:hr>
            <ns3:cad>0</ns3:cad>
          </ns3:TrackPointExtension>
        </extensions>
      </trkpt>
      <trkpt lat="37.77270105667412281036376953125" lon="-107.70333143882453441619873046875">
        <ele>3946.199951171875</ele>
        <time>2023-07-29T17:08:21.000Z</time>
        <extensions>
          <ns3:TrackPointExtension>
            <ns3:hr>128</ns3:hr>
            <ns3:cad>0</ns3:cad>
          </ns3:TrackPointExtension>
        </extensions>
      </trkpt>
      <trkpt lat="37.77268881909549236297607421875" lon="-107.70333965308964252471923828125">
        <ele>3946.199951171875</ele>
        <time>2023-07-29T17:08:22.000Z</time>
        <extensions>
          <ns3:TrackPointExtension>
            <ns3:hr>127</ns3:hr>
            <ns3:cad>46</ns3:cad>
          </ns3:TrackPointExtension>
        </extensions>
      </trkpt>
      <trkpt lat="37.77267985045909881591796875" lon="-107.703343592584133148193359375">
        <ele>3946.199951171875</ele>
        <time>2023-07-29T17:08:23.000Z</time>
        <extensions>
          <ns3:TrackPointExtension>
            <ns3:hr>126</ns3:hr>
            <ns3:cad>46</ns3:cad>
          </ns3:TrackPointExtension>
        </extensions>
      </trkpt>
      <trkpt lat="37.77267138473689556121826171875" lon="-107.70334753207862377166748046875">
        <ele>3946.199951171875</ele>
        <time>2023-07-29T17:08:24.000Z</time>
        <extensions>
          <ns3:TrackPointExtension>
            <ns3:hr>126</ns3:hr>
            <ns3:cad>46</ns3:cad>
          </ns3:TrackPointExtension>
        </extensions>
      </trkpt>
      <trkpt lat="37.7726599015295505523681640625" lon="-107.70335138775408267974853515625">
        <ele>3946.39990234375</ele>
        <time>2023-07-29T17:08:25.000Z</time>
        <extensions>
          <ns3:TrackPointExtension>
            <ns3:hr>126</ns3:hr>
            <ns3:cad>51</ns3:cad>
          </ns3:TrackPointExtension>
        </extensions>
      </trkpt>
      <trkpt lat="37.77265311218798160552978515625" lon="-107.70335398614406585693359375">
        <ele>3946.39990234375</ele>
        <time>2023-07-29T17:08:26.000Z</time>
        <extensions>
          <ns3:TrackPointExtension>
            <ns3:hr>126</ns3:hr>
            <ns3:cad>51</ns3:cad>
          </ns3:TrackPointExtension>
        </extensions>
      </trkpt>
      <trkpt lat="37.772639282047748565673828125" lon="-107.703361697494983673095703125">
        <ele>3946.39990234375</ele>
        <time>2023-07-29T17:08:27.000Z</time>
        <extensions>
          <ns3:TrackPointExtension>
            <ns3:hr>125</ns3:hr>
            <ns3:cad>0</ns3:cad>
          </ns3:TrackPointExtension>
        </extensions>
      </trkpt>
      <trkpt lat="37.77262930758297443389892578125" lon="-107.70336597226560115814208984375">
        <ele>3946.60009765625</ele>
        <time>2023-07-29T17:08:28.000Z</time>
        <extensions>
          <ns3:TrackPointExtension>
            <ns3:hr>125</ns3:hr>
            <ns3:cad>0</ns3:cad>
          </ns3:TrackPointExtension>
        </extensions>
      </trkpt>
      <trkpt lat="37.7726200036704540252685546875" lon="-107.7033709175884723663330078125">
        <ele>3946.60009765625</ele>
        <time>2023-07-29T17:08:29.000Z</time>
        <extensions>
          <ns3:TrackPointExtension>
            <ns3:hr>125</ns3:hr>
            <ns3:cad>0</ns3:cad>
          </ns3:TrackPointExtension>
        </extensions>
      </trkpt>
      <trkpt lat="37.772609777748584747314453125" lon="-107.70337670110166072845458984375">
        <ele>3946.60009765625</ele>
        <time>2023-07-29T17:08:30.000Z</time>
        <extensions>
          <ns3:TrackPointExtension>
            <ns3:hr>125</ns3:hr>
            <ns3:cad>0</ns3:cad>
          </ns3:TrackPointExtension>
        </extensions>
      </trkpt>
      <trkpt lat="37.7725998871028423309326171875" lon="-107.703383825719356536865234375">
        <ele>3946.800048828125</ele>
        <time>2023-07-29T17:08:31.000Z</time>
        <extensions>
          <ns3:TrackPointExtension>
            <ns3:hr>124</ns3:hr>
            <ns3:cad>0</ns3:cad>
          </ns3:TrackPointExtension>
        </extensions>
      </trkpt>
      <trkpt lat="37.77258924208581447601318359375" lon="-107.7033917047083377838134765625">
        <ele>3946.800048828125</ele>
        <time>2023-07-29T17:08:32.000Z</time>
        <extensions>
          <ns3:TrackPointExtension>
            <ns3:hr>124</ns3:hr>
            <ns3:cad>0</ns3:cad>
          </ns3:TrackPointExtension>
        </extensions>
      </trkpt>
      <trkpt lat="37.77257817797362804412841796875" lon="-107.703399248421192169189453125">
        <ele>3947</ele>
        <time>2023-07-29T17:08:33.000Z</time>
        <extensions>
          <ns3:TrackPointExtension>
            <ns3:hr>124</ns3:hr>
            <ns3:cad>0</ns3:cad>
          </ns3:TrackPointExtension>
        </extensions>
      </trkpt>
      <trkpt lat="37.77256610803306102752685546875" lon="-107.7034098096191883087158203125">
        <ele>3947</ele>
        <time>2023-07-29T17:08:34.000Z</time>
        <extensions>
          <ns3:TrackPointExtension>
            <ns3:hr>123</ns3:hr>
            <ns3:cad>0</ns3:cad>
          </ns3:TrackPointExtension>
        </extensions>
      </trkpt>
      <trkpt lat="37.7725579775869846343994140625" lon="-107.703420035541057586669921875">
        <ele>3947</ele>
        <time>2023-07-29T17:08:35.000Z</time>
        <extensions>
          <ns3:TrackPointExtension>
            <ns3:hr>123</ns3:hr>
            <ns3:cad>0</ns3:cad>
          </ns3:TrackPointExtension>
        </extensions>
      </trkpt>
      <trkpt lat="37.77255152352154254913330078125" lon="-107.70342833362519741058349609375">
        <ele>3947</ele>
        <time>2023-07-29T17:08:36.000Z</time>
        <extensions>
          <ns3:TrackPointExtension>
            <ns3:hr>123</ns3:hr>
            <ns3:cad>0</ns3:cad>
          </ns3:TrackPointExtension>
        </extensions>
      </trkpt>
      <trkpt lat="37.7725442312657833099365234375" lon="-107.7034366317093372344970703125">
        <ele>3947</ele>
        <time>2023-07-29T17:08:37.000Z</time>
        <extensions>
          <ns3:TrackPointExtension>
            <ns3:hr>123</ns3:hr>
            <ns3:cad>51</ns3:cad>
          </ns3:TrackPointExtension>
        </extensions>
      </trkpt>
      <trkpt lat="37.77253442443907260894775390625" lon="-107.70344459451735019683837890625">
        <ele>3947</ele>
        <time>2023-07-29T17:08:38.000Z</time>
        <extensions>
          <ns3:TrackPointExtension>
            <ns3:hr>123</ns3:hr>
            <ns3:cad>51</ns3:cad>
          </ns3:TrackPointExtension>
        </extensions>
      </trkpt>
      <trkpt lat="37.7725244499742984771728515625" lon="-107.7034540660679340362548828125">
        <ele>3947</ele>
        <time>2023-07-29T17:08:39.000Z</time>
        <extensions>
          <ns3:TrackPointExtension>
            <ns3:hr>123</ns3:hr>
            <ns3:cad>51</ns3:cad>
          </ns3:TrackPointExtension>
        </extensions>
      </trkpt>
      <trkpt lat="37.77251346968114376068115234375" lon="-107.7034632861614227294921875">
        <ele>3947</ele>
        <time>2023-07-29T17:08:40.000Z</time>
        <extensions>
          <ns3:TrackPointExtension>
            <ns3:hr>123</ns3:hr>
            <ns3:cad>52</ns3:cad>
          </ns3:TrackPointExtension>
        </extensions>
      </trkpt>
      <trkpt lat="37.7725060097873210906982421875" lon="-107.70347007550299167633056640625">
        <ele>3947</ele>
        <time>2023-07-29T17:08:41.000Z</time>
        <extensions>
          <ns3:TrackPointExtension>
            <ns3:hr>125</ns3:hr>
            <ns3:cad>53</ns3:cad>
          </ns3:TrackPointExtension>
        </extensions>
      </trkpt>
      <trkpt lat="37.77250123210251331329345703125" lon="-107.70347527228295803070068359375">
        <ele>3947</ele>
        <time>2023-07-29T17:08:42.000Z</time>
        <extensions>
          <ns3:TrackPointExtension>
            <ns3:hr>125</ns3:hr>
            <ns3:cad>53</ns3:cad>
          </ns3:TrackPointExtension>
        </extensions>
      </trkpt>
      <trkpt lat="37.7724919281899929046630859375" lon="-107.70348281599581241607666015625">
        <ele>3947</ele>
        <time>2023-07-29T17:08:43.000Z</time>
        <extensions>
          <ns3:TrackPointExtension>
            <ns3:hr>125</ns3:hr>
            <ns3:cad>53</ns3:cad>
          </ns3:TrackPointExtension>
        </extensions>
      </trkpt>
      <trkpt lat="37.7724822051823139190673828125" lon="-107.70348943769931793212890625">
        <ele>3946.800048828125</ele>
        <time>2023-07-29T17:08:44.000Z</time>
        <extensions>
          <ns3:TrackPointExtension>
            <ns3:hr>125</ns3:hr>
            <ns3:cad>53</ns3:cad>
          </ns3:TrackPointExtension>
        </extensions>
      </trkpt>
      <trkpt lat="37.7724788524210453033447265625" lon="-107.70348943769931793212890625">
        <ele>3946.800048828125</ele>
        <time>2023-07-29T17:08:45.000Z</time>
        <extensions>
          <ns3:TrackPointExtension>
            <ns3:hr>124</ns3:hr>
            <ns3:cad>53</ns3:cad>
          </ns3:TrackPointExtension>
        </extensions>
      </trkpt>
      <trkpt lat="37.7724731527268886566162109375" lon="-107.703492455184459686279296875">
        <ele>3946.800048828125</ele>
        <time>2023-07-29T17:08:46.000Z</time>
        <extensions>
          <ns3:TrackPointExtension>
            <ns3:hr>123</ns3:hr>
            <ns3:cad>53</ns3:cad>
          </ns3:TrackPointExtension>
        </extensions>
      </trkpt>
      <trkpt lat="37.7724630944430828094482421875" lon="-107.703499160706996917724609375">
        <ele>3946.800048828125</ele>
        <time>2023-07-29T17:08:47.000Z</time>
        <extensions>
          <ns3:TrackPointExtension>
            <ns3:hr>123</ns3:hr>
            <ns3:cad>53</ns3:cad>
          </ns3:TrackPointExtension>
        </extensions>
      </trkpt>
      <trkpt lat="37.77245027013123035430908203125" lon="-107.7035073749721050262451171875">
        <ele>3947</ele>
        <time>2023-07-29T17:08:48.000Z</time>
        <extensions>
          <ns3:TrackPointExtension>
            <ns3:hr>122</ns3:hr>
            <ns3:cad>54</ns3:cad>
          </ns3:TrackPointExtension>
        </extensions>
      </trkpt>
      <trkpt lat="37.77244959957897663116455078125" lon="-107.703505866229534149169921875">
        <ele>3947</ele>
        <time>2023-07-29T17:08:49.000Z</time>
        <extensions>
          <ns3:TrackPointExtension>
            <ns3:hr>122</ns3:hr>
            <ns3:cad>54</ns3:cad>
          </ns3:TrackPointExtension>
        </extensions>
      </trkpt>
      <trkpt lat="37.77244993485510349273681640625" lon="-107.70350511185824871063232421875">
        <ele>3947</ele>
        <time>2023-07-29T17:08:50.000Z</time>
        <extensions>
          <ns3:TrackPointExtension>
            <ns3:hr>122</ns3:hr>
            <ns3:cad>0</ns3:cad>
          </ns3:TrackPointExtension>
        </extensions>
      </trkpt>
      <trkpt lat="37.77244725264608860015869140625" lon="-107.70350511185824871063232421875">
        <ele>3947</ele>
        <time>2023-07-29T17:08:51.000Z</time>
        <extensions>
          <ns3:TrackPointExtension>
            <ns3:hr>122</ns3:hr>
            <ns3:cad>0</ns3:cad>
          </ns3:TrackPointExtension>
        </extensions>
      </trkpt>
      <trkpt lat="37.77244440279901027679443359375" lon="-107.70350326783955097198486328125">
        <ele>3947</ele>
        <time>2023-07-29T17:08:52.000Z</time>
        <extensions>
          <ns3:TrackPointExtension>
            <ns3:hr>122</ns3:hr>
            <ns3:cad>57</ns3:cad>
          </ns3:TrackPointExtension>
        </extensions>
      </trkpt>
      <trkpt lat="37.77243308722972869873046875" lon="-107.70350863225758075714111328125">
        <ele>3947</ele>
        <time>2023-07-29T17:08:53.000Z</time>
        <extensions>
          <ns3:TrackPointExtension>
            <ns3:hr>123</ns3:hr>
            <ns3:cad>57</ns3:cad>
          </ns3:TrackPointExtension>
        </extensions>
      </trkpt>
      <trkpt lat="37.77242101728916168212890625" lon="-107.7035147510468959808349609375">
        <ele>3947</ele>
        <time>2023-07-29T17:08:54.000Z</time>
        <extensions>
          <ns3:TrackPointExtension>
            <ns3:hr>123</ns3:hr>
            <ns3:cad>57</ns3:cad>
          </ns3:TrackPointExtension>
        </extensions>
      </trkpt>
      <trkpt lat="37.77241355739533901214599609375" lon="-107.7035196125507354736328125">
        <ele>3947</ele>
        <time>2023-07-29T17:08:55.000Z</time>
        <extensions>
          <ns3:TrackPointExtension>
            <ns3:hr>123</ns3:hr>
            <ns3:cad>0</ns3:cad>
          </ns3:TrackPointExtension>
        </extensions>
      </trkpt>
      <trkpt lat="37.77240383438766002655029296875" lon="-107.70352573134005069732666015625">
        <ele>3947</ele>
        <time>2023-07-29T17:08:56.000Z</time>
        <extensions>
          <ns3:TrackPointExtension>
            <ns3:hr>122</ns3:hr>
            <ns3:cad>0</ns3:cad>
          </ns3:TrackPointExtension>
        </extensions>
      </trkpt>
      <trkpt lat="37.77239763177931308746337890625" lon="-107.7035305090248584747314453125">
        <ele>3947</ele>
        <time>2023-07-29T17:08:57.000Z</time>
        <extensions>
          <ns3:TrackPointExtension>
            <ns3:hr>121</ns3:hr>
            <ns3:cad>0</ns3:cad>
          </ns3:TrackPointExtension>
        </extensions>
      </trkpt>
      <trkpt lat="37.77239017188549041748046875" lon="-107.703533358871936798095703125">
        <ele>3947.199951171875</ele>
        <time>2023-07-29T17:08:58.000Z</time>
        <extensions>
          <ns3:TrackPointExtension>
            <ns3:hr>118</ns3:hr>
            <ns3:cad>0</ns3:cad>
          </ns3:TrackPointExtension>
        </extensions>
      </trkpt>
      <trkpt lat="37.7723836340010166168212890625" lon="-107.703538052737712860107421875">
        <ele>3947.199951171875</ele>
        <time>2023-07-29T17:08:59.000Z</time>
        <extensions>
          <ns3:TrackPointExtension>
            <ns3:hr>117</ns3:hr>
            <ns3:cad>0</ns3:cad>
          </ns3:TrackPointExtension>
        </extensions>
      </trkpt>
      <trkpt lat="37.77237265370786190032958984375" lon="-107.7035435847938060760498046875">
        <ele>3947.199951171875</ele>
        <time>2023-07-29T17:09:00.000Z</time>
        <extensions>
          <ns3:TrackPointExtension>
            <ns3:hr>116</ns3:hr>
            <ns3:cad>0</ns3:cad>
          </ns3:TrackPointExtension>
        </extensions>
      </trkpt>
      <trkpt lat="37.77236460708081722259521484375" lon="-107.70354936830699443817138671875">
        <ele>3947.39990234375</ele>
        <time>2023-07-29T17:09:01.000Z</time>
        <extensions>
          <ns3:TrackPointExtension>
            <ns3:hr>116</ns3:hr>
            <ns3:cad>0</ns3:cad>
          </ns3:TrackPointExtension>
        </extensions>
      </trkpt>
      <trkpt lat="37.77235371060669422149658203125" lon="-107.7035533078014850616455078125">
        <ele>3947.39990234375</ele>
        <time>2023-07-29T17:09:02.000Z</time>
        <extensions>
          <ns3:TrackPointExtension>
            <ns3:hr>116</ns3:hr>
            <ns3:cad>0</ns3:cad>
          </ns3:TrackPointExtension>
        </extensions>
      </trkpt>
      <trkpt lat="37.7723447419703006744384765625" lon="-107.70355473272502422332763671875">
        <ele>3947.39990234375</ele>
        <time>2023-07-29T17:09:03.000Z</time>
        <extensions>
          <ns3:TrackPointExtension>
            <ns3:hr>116</ns3:hr>
            <ns3:cad>0</ns3:cad>
          </ns3:TrackPointExtension>
        </extensions>
      </trkpt>
      <trkpt lat="37.7723370306193828582763671875" lon="-107.7035593427717685699462890625">
        <ele>3947.39990234375</ele>
        <time>2023-07-29T17:09:04.000Z</time>
        <extensions>
          <ns3:TrackPointExtension>
            <ns3:hr>116</ns3:hr>
            <ns3:cad>0</ns3:cad>
          </ns3:TrackPointExtension>
        </extensions>
      </trkpt>
      <trkpt lat="37.772325463593006134033203125" lon="-107.703569233417510986328125">
        <ele>3947.39990234375</ele>
        <time>2023-07-29T17:09:05.000Z</time>
        <extensions>
          <ns3:TrackPointExtension>
            <ns3:hr>116</ns3:hr>
            <ns3:cad>0</ns3:cad>
          </ns3:TrackPointExtension>
        </extensions>
      </trkpt>
      <trkpt lat="37.77232068590819835662841796875" lon="-107.70357535220682621002197265625">
        <ele>3947.199951171875</ele>
        <time>2023-07-29T17:09:06.000Z</time>
        <extensions>
          <ns3:TrackPointExtension>
            <ns3:hr>115</ns3:hr>
            <ns3:cad>0</ns3:cad>
          </ns3:TrackPointExtension>
        </extensions>
      </trkpt>
      <trkpt lat="37.77231113053858280181884765625" lon="-107.70358599722385406494140625">
        <ele>3947.199951171875</ele>
        <time>2023-07-29T17:09:07.000Z</time>
        <extensions>
          <ns3:TrackPointExtension>
            <ns3:hr>115</ns3:hr>
            <ns3:cad>0</ns3:cad>
          </ns3:TrackPointExtension>
        </extensions>
      </trkpt>
      <trkpt lat="37.7723038382828235626220703125" lon="-107.703593708574771881103515625">
        <ele>3947.199951171875</ele>
        <time>2023-07-29T17:09:08.000Z</time>
        <extensions>
          <ns3:TrackPointExtension>
            <ns3:hr>115</ns3:hr>
            <ns3:cad>0</ns3:cad>
          </ns3:TrackPointExtension>
        </extensions>
      </trkpt>
      <trkpt lat="37.7722921036183834075927734375" lon="-107.70360284484922885894775390625">
        <ele>3947</ele>
        <time>2023-07-29T17:09:09.000Z</time>
        <extensions>
          <ns3:TrackPointExtension>
            <ns3:hr>115</ns3:hr>
            <ns3:cad>0</ns3:cad>
          </ns3:TrackPointExtension>
        </extensions>
      </trkpt>
      <trkpt lat="37.7722843922674655914306640625" lon="-107.703610472381114959716796875">
        <ele>3947</ele>
        <time>2023-07-29T17:09:10.000Z</time>
        <extensions>
          <ns3:TrackPointExtension>
            <ns3:hr>115</ns3:hr>
            <ns3:cad>0</ns3:cad>
          </ns3:TrackPointExtension>
        </extensions>
      </trkpt>
      <trkpt lat="37.77227215468883514404296875" lon="-107.7036193571984767913818359375">
        <ele>3947</ele>
        <time>2023-07-29T17:09:11.000Z</time>
        <extensions>
          <ns3:TrackPointExtension>
            <ns3:hr>115</ns3:hr>
            <ns3:cad>0</ns3:cad>
          </ns3:TrackPointExtension>
        </extensions>
      </trkpt>
      <trkpt lat="37.77226435951888561248779296875" lon="-107.70362564362585544586181640625">
        <ele>3947</ele>
        <time>2023-07-29T17:09:12.000Z</time>
        <extensions>
          <ns3:TrackPointExtension>
            <ns3:hr>115</ns3:hr>
            <ns3:cad>0</ns3:cad>
          </ns3:TrackPointExtension>
        </extensions>
      </trkpt>
      <trkpt lat="37.772254049777984619140625" lon="-107.7036357857286930084228515625">
        <ele>3947</ele>
        <time>2023-07-29T17:09:13.000Z</time>
        <extensions>
          <ns3:TrackPointExtension>
            <ns3:hr>115</ns3:hr>
            <ns3:cad>0</ns3:cad>
          </ns3:TrackPointExtension>
        </extensions>
      </trkpt>
      <trkpt lat="37.77224491350352764129638671875" lon="-107.7036456763744354248046875">
        <ele>3946.800048828125</ele>
        <time>2023-07-29T17:09:14.000Z</time>
        <extensions>
          <ns3:TrackPointExtension>
            <ns3:hr>115</ns3:hr>
            <ns3:cad>0</ns3:cad>
          </ns3:TrackPointExtension>
        </extensions>
      </trkpt>
      <trkpt lat="37.7722367830574512481689453125" lon="-107.70365078933537006378173828125">
        <ele>3946.800048828125</ele>
        <time>2023-07-29T17:09:15.000Z</time>
        <extensions>
          <ns3:TrackPointExtension>
            <ns3:hr>116</ns3:hr>
            <ns3:cad>0</ns3:cad>
          </ns3:TrackPointExtension>
        </extensions>
      </trkpt>
      <trkpt lat="37.77223116718232631683349609375" lon="-107.70365363918244838714599609375">
        <ele>3946.800048828125</ele>
        <time>2023-07-29T17:09:16.000Z</time>
        <extensions>
          <ns3:TrackPointExtension>
            <ns3:hr>116</ns3:hr>
            <ns3:cad>0</ns3:cad>
          </ns3:TrackPointExtension>
        </extensions>
      </trkpt>
      <trkpt lat="37.7722206898033618927001953125" lon="-107.70365866832435131072998046875">
        <ele>3946.800048828125</ele>
        <time>2023-07-29T17:09:17.000Z</time>
        <extensions>
          <ns3:TrackPointExtension>
            <ns3:hr>116</ns3:hr>
            <ns3:cad>0</ns3:cad>
          </ns3:TrackPointExtension>
        </extensions>
      </trkpt>
      <trkpt lat="37.77221289463341236114501953125" lon="-107.7036616019904613494873046875">
        <ele>3946.60009765625</ele>
        <time>2023-07-29T17:09:18.000Z</time>
        <extensions>
          <ns3:TrackPointExtension>
            <ns3:hr>116</ns3:hr>
            <ns3:cad>0</ns3:cad>
          </ns3:TrackPointExtension>
        </extensions>
      </trkpt>
      <trkpt lat="37.7721992321312427520751953125" lon="-107.703670151531696319580078125">
        <ele>3946.39990234375</ele>
        <time>2023-07-29T17:09:19.000Z</time>
        <extensions>
          <ns3:TrackPointExtension>
            <ns3:hr>116</ns3:hr>
            <ns3:cad>0</ns3:cad>
          </ns3:TrackPointExtension>
        </extensions>
      </trkpt>
      <trkpt lat="37.77219076640903949737548828125" lon="-107.7036750130355358123779296875">
        <ele>3946.39990234375</ele>
        <time>2023-07-29T17:09:20.000Z</time>
        <extensions>
          <ns3:TrackPointExtension>
            <ns3:hr>116</ns3:hr>
            <ns3:cad>0</ns3:cad>
          </ns3:TrackPointExtension>
        </extensions>
      </trkpt>
      <trkpt lat="37.772179953753948211669921875" lon="-107.7036807127296924591064453125">
        <ele>3946.199951171875</ele>
        <time>2023-07-29T17:09:21.000Z</time>
        <extensions>
          <ns3:TrackPointExtension>
            <ns3:hr>116</ns3:hr>
            <ns3:cad>0</ns3:cad>
          </ns3:TrackPointExtension>
        </extensions>
      </trkpt>
      <trkpt lat="37.77217165566980838775634765625" lon="-107.703686915338039398193359375">
        <ele>3946</ele>
        <time>2023-07-29T17:09:22.000Z</time>
        <extensions>
          <ns3:TrackPointExtension>
            <ns3:hr>116</ns3:hr>
            <ns3:cad>0</ns3:cad>
          </ns3:TrackPointExtension>
        </extensions>
      </trkpt>
      <trkpt lat="37.7721615135669708251953125" lon="-107.70369420759379863739013671875">
        <ele>3946</ele>
        <time>2023-07-29T17:09:23.000Z</time>
        <extensions>
          <ns3:TrackPointExtension>
            <ns3:hr>116</ns3:hr>
            <ns3:cad>0</ns3:cad>
          </ns3:TrackPointExtension>
        </extensions>
      </trkpt>
      <trkpt lat="37.77215070091187953948974609375" lon="-107.703700996935367584228515625">
        <ele>3946</ele>
        <time>2023-07-29T17:09:24.000Z</time>
        <extensions>
          <ns3:TrackPointExtension>
            <ns3:hr>116</ns3:hr>
            <ns3:cad>0</ns3:cad>
          </ns3:TrackPointExtension>
        </extensions>
      </trkpt>
      <trkpt lat="37.77213963679969310760498046875" lon="-107.703708373010158538818359375">
        <ele>3945.800048828125</ele>
        <time>2023-07-29T17:09:25.000Z</time>
        <extensions>
          <ns3:TrackPointExtension>
            <ns3:hr>116</ns3:hr>
            <ns3:cad>0</ns3:cad>
          </ns3:TrackPointExtension>
        </extensions>
      </trkpt>
      <trkpt lat="37.77213410474359989166259765625" lon="-107.70371147431433200836181640625">
        <ele>3945.800048828125</ele>
        <time>2023-07-29T17:09:26.000Z</time>
        <extensions>
          <ns3:TrackPointExtension>
            <ns3:hr>115</ns3:hr>
            <ns3:cad>56</ns3:cad>
          </ns3:TrackPointExtension>
        </extensions>
      </trkpt>
      <trkpt lat="37.77213259600102901458740234375" lon="-107.703716754913330078125">
        <ele>3945.800048828125</ele>
        <time>2023-07-29T17:09:27.000Z</time>
        <extensions>
          <ns3:TrackPointExtension>
            <ns3:hr>115</ns3:hr>
            <ns3:cad>56</ns3:cad>
          </ns3:TrackPointExtension>
        </extensions>
      </trkpt>
      <trkpt lat="37.77212253771722316741943359375" lon="-107.7037273161113262176513671875">
        <ele>3945.39990234375</ele>
        <time>2023-07-29T17:09:28.000Z</time>
        <extensions>
          <ns3:TrackPointExtension>
            <ns3:hr>115</ns3:hr>
            <ns3:cad>56</ns3:cad>
          </ns3:TrackPointExtension>
        </extensions>
      </trkpt>
      <trkpt lat="37.77211398817598819732666015625" lon="-107.7037353627383708953857421875">
        <ele>3945.39990234375</ele>
        <time>2023-07-29T17:09:29.000Z</time>
        <extensions>
          <ns3:TrackPointExtension>
            <ns3:hr>115</ns3:hr>
            <ns3:cad>56</ns3:cad>
          </ns3:TrackPointExtension>
        </extensions>
      </trkpt>
      <trkpt lat="37.7721077017486095428466796875" lon="-107.7037395536899566650390625">
        <ele>3945.199951171875</ele>
        <time>2023-07-29T17:09:30.000Z</time>
        <extensions>
          <ns3:TrackPointExtension>
            <ns3:hr>115</ns3:hr>
            <ns3:cad>0</ns3:cad>
          </ns3:TrackPointExtension>
        </extensions>
      </trkpt>
      <trkpt lat="37.77210124768316745758056640625" lon="-107.70374416373670101165771484375">
        <ele>3945</ele>
        <time>2023-07-29T17:09:31.000Z</time>
        <extensions>
          <ns3:TrackPointExtension>
            <ns3:hr>115</ns3:hr>
            <ns3:cad>0</ns3:cad>
          </ns3:TrackPointExtension>
        </extensions>
      </trkpt>
      <trkpt lat="37.7720932848751544952392578125" lon="-107.70375036634504795074462890625">
        <ele>3945</ele>
        <time>2023-07-29T17:09:32.000Z</time>
        <extensions>
          <ns3:TrackPointExtension>
            <ns3:hr>114</ns3:hr>
            <ns3:cad>0</ns3:cad>
          </ns3:TrackPointExtension>
        </extensions>
      </trkpt>
      <trkpt lat="37.77208666317164897918701171875" lon="-107.70375858061015605926513671875">
        <ele>3944.800048828125</ele>
        <time>2023-07-29T17:09:33.000Z</time>
        <extensions>
          <ns3:TrackPointExtension>
            <ns3:hr>114</ns3:hr>
            <ns3:cad>59</ns3:cad>
          </ns3:TrackPointExtension>
        </extensions>
      </trkpt>
      <trkpt lat="37.772083394229412078857421875" lon="-107.7037631906569004058837890625">
        <ele>3944.60009765625</ele>
        <time>2023-07-29T17:09:34.000Z</time>
        <extensions>
          <ns3:TrackPointExtension>
            <ns3:hr>113</ns3:hr>
            <ns3:cad>60</ns3:cad>
          </ns3:TrackPointExtension>
        </extensions>
      </trkpt>
      <trkpt lat="37.772076018154621124267578125" lon="-107.7037729136645793914794921875">
        <ele>3944.60009765625</ele>
        <time>2023-07-29T17:09:35.000Z</time>
        <extensions>
          <ns3:TrackPointExtension>
            <ns3:hr>112</ns3:hr>
            <ns3:cad>59</ns3:cad>
          </ns3:TrackPointExtension>
        </extensions>
      </trkpt>
      <trkpt lat="37.7720724977552890777587890625" lon="-107.70378070883452892303466796875">
        <ele>3944.39990234375</ele>
        <time>2023-07-29T17:09:36.000Z</time>
        <extensions>
          <ns3:TrackPointExtension>
            <ns3:hr>110</ns3:hr>
            <ns3:cad>59</ns3:cad>
          </ns3:TrackPointExtension>
        </extensions>
      </trkpt>
      <trkpt lat="37.7720584161579608917236328125" lon="-107.7037896774709224700927734375">
        <ele>3944.199951171875</ele>
        <time>2023-07-29T17:09:37.000Z</time>
        <extensions>
          <ns3:TrackPointExtension>
            <ns3:hr>109</ns3:hr>
            <ns3:cad>59</ns3:cad>
          </ns3:TrackPointExtension>
        </extensions>
      </trkpt>
      <trkpt lat="37.7720488607883453369140625" lon="-107.70380032248795032501220703125">
        <ele>3944</ele>
        <time>2023-07-29T17:09:38.000Z</time>
        <extensions>
          <ns3:TrackPointExtension>
            <ns3:hr>109</ns3:hr>
            <ns3:cad>59</ns3:cad>
          </ns3:TrackPointExtension>
        </extensions>
      </trkpt>
      <trkpt lat="37.77203855104744434356689453125" lon="-107.7038040943443775177001953125">
        <ele>3944</ele>
        <time>2023-07-29T17:09:39.000Z</time>
        <extensions>
          <ns3:TrackPointExtension>
            <ns3:hr>108</ns3:hr>
            <ns3:cad>59</ns3:cad>
          </ns3:TrackPointExtension>
        </extensions>
      </trkpt>
      <trkpt lat="37.77202866040170192718505859375" lon="-107.7038124762475490570068359375">
        <ele>3943.800048828125</ele>
        <time>2023-07-29T17:09:40.000Z</time>
        <extensions>
          <ns3:TrackPointExtension>
            <ns3:hr>108</ns3:hr>
            <ns3:cad>59</ns3:cad>
          </ns3:TrackPointExtension>
        </extensions>
      </trkpt>
      <trkpt lat="37.77202178724110126495361328125" lon="-107.70381909795105457305908203125">
        <ele>3943.39990234375</ele>
        <time>2023-07-29T17:09:41.000Z</time>
        <extensions>
          <ns3:TrackPointExtension>
            <ns3:hr>108</ns3:hr>
            <ns3:cad>59</ns3:cad>
          </ns3:TrackPointExtension>
        </extensions>
      </trkpt>
      <trkpt lat="37.77201457880437374114990234375" lon="-107.7038289047777652740478515625">
        <ele>3943.39990234375</ele>
        <time>2023-07-29T17:09:42.000Z</time>
        <extensions>
          <ns3:TrackPointExtension>
            <ns3:hr>108</ns3:hr>
            <ns3:cad>59</ns3:cad>
          </ns3:TrackPointExtension>
        </extensions>
      </trkpt>
      <trkpt lat="37.7720067836344242095947265625" lon="-107.703837789595127105712890625">
        <ele>3943</ele>
        <time>2023-07-29T17:09:43.000Z</time>
        <extensions>
          <ns3:TrackPointExtension>
            <ns3:hr>108</ns3:hr>
            <ns3:cad>59</ns3:cad>
          </ns3:TrackPointExtension>
        </extensions>
      </trkpt>
      <trkpt lat="37.77200125157833099365234375" lon="-107.70384793169796466827392578125">
        <ele>3942.800048828125</ele>
        <time>2023-07-29T17:09:44.000Z</time>
        <extensions>
          <ns3:TrackPointExtension>
            <ns3:hr>108</ns3:hr>
            <ns3:cad>59</ns3:cad>
          </ns3:TrackPointExtension>
        </extensions>
      </trkpt>
      <trkpt lat="37.771992869675159454345703125" lon="-107.70385983400046825408935546875">
        <ele>3942.60009765625</ele>
        <time>2023-07-29T17:09:45.000Z</time>
        <extensions>
          <ns3:TrackPointExtension>
            <ns3:hr>108</ns3:hr>
            <ns3:cad>59</ns3:cad>
          </ns3:TrackPointExtension>
        </extensions>
      </trkpt>
      <trkpt lat="37.7719859965145587921142578125" lon="-107.70386938937008380889892578125">
        <ele>3942.60009765625</ele>
        <time>2023-07-29T17:09:46.000Z</time>
        <extensions>
          <ns3:TrackPointExtension>
            <ns3:hr>108</ns3:hr>
            <ns3:cad>18</ns3:cad>
          </ns3:TrackPointExtension>
        </extensions>
      </trkpt>
      <trkpt lat="37.7719818055629730224609375" lon="-107.703878022730350494384765625">
        <ele>3942.39990234375</ele>
        <time>2023-07-29T17:09:47.000Z</time>
        <extensions>
          <ns3:TrackPointExtension>
            <ns3:hr>108</ns3:hr>
            <ns3:cad>18</ns3:cad>
          </ns3:TrackPointExtension>
        </extensions>
      </trkpt>
      <trkpt lat="37.7719799615442752838134765625" lon="-107.703890763223171234130859375">
        <ele>3942.199951171875</ele>
        <time>2023-07-29T17:09:48.000Z</time>
        <extensions>
          <ns3:TrackPointExtension>
            <ns3:hr>108</ns3:hr>
            <ns3:cad>18</ns3:cad>
          </ns3:TrackPointExtension>
        </extensions>
      </trkpt>
      <trkpt lat="37.77197719551622867584228515625" lon="-107.7038989774882793426513671875">
        <ele>3942</ele>
        <time>2023-07-29T17:09:49.000Z</time>
        <extensions>
          <ns3:TrackPointExtension>
            <ns3:hr>108</ns3:hr>
            <ns3:cad>18</ns3:cad>
          </ns3:TrackPointExtension>
        </extensions>
      </trkpt>
      <trkpt lat="37.77196764014661312103271484375" lon="-107.70390794612467288970947265625">
        <ele>3941.60009765625</ele>
        <time>2023-07-29T17:09:50.000Z</time>
        <extensions>
          <ns3:TrackPointExtension>
            <ns3:hr>107</ns3:hr>
            <ns3:cad>18</ns3:cad>
          </ns3:TrackPointExtension>
        </extensions>
      </trkpt>
      <trkpt lat="37.7719655446708202362060546875" lon="-107.70390928722918033599853515625">
        <ele>3941.39990234375</ele>
        <time>2023-07-29T17:09:51.000Z</time>
        <extensions>
          <ns3:TrackPointExtension>
            <ns3:hr>108</ns3:hr>
            <ns3:cad>18</ns3:cad>
          </ns3:TrackPointExtension>
        </extensions>
      </trkpt>
      <trkpt lat="37.77196143753826618194580078125" lon="-107.7039147354662418365478515625">
        <ele>3941.199951171875</ele>
        <time>2023-07-29T17:09:52.000Z</time>
        <extensions>
          <ns3:TrackPointExtension>
            <ns3:hr>108</ns3:hr>
            <ns3:cad>18</ns3:cad>
          </ns3:TrackPointExtension>
        </extensions>
      </trkpt>
      <trkpt lat="37.77195892296731472015380859375" lon="-107.70392127335071563720703125">
        <ele>3940.800048828125</ele>
        <time>2023-07-29T17:09:53.000Z</time>
        <extensions>
          <ns3:TrackPointExtension>
            <ns3:hr>108</ns3:hr>
            <ns3:cad>0</ns3:cad>
          </ns3:TrackPointExtension>
        </extensions>
      </trkpt>
      <trkpt lat="37.77195540256798267364501953125" lon="-107.70392529666423797607421875">
        <ele>3940.60009765625</ele>
        <time>2023-07-29T17:09:54.000Z</time>
        <extensions>
          <ns3:TrackPointExtension>
            <ns3:hr>109</ns3:hr>
            <ns3:cad>0</ns3:cad>
          </ns3:TrackPointExtension>
        </extensions>
      </trkpt>
      <trkpt lat="37.77195632457733154296875" lon="-107.7039311639964580535888671875">
        <ele>3940.39990234375</ele>
        <time>2023-07-29T17:09:55.000Z</time>
        <extensions>
          <ns3:TrackPointExtension>
            <ns3:hr>109</ns3:hr>
            <ns3:cad>0</ns3:cad>
          </ns3:TrackPointExtension>
        </extensions>
      </trkpt>
      <trkpt lat="37.7719549834728240966796875" lon="-107.7039408870041370391845703125">
        <ele>3940.199951171875</ele>
        <time>2023-07-29T17:09:56.000Z</time>
        <extensions>
          <ns3:TrackPointExtension>
            <ns3:hr>109</ns3:hr>
            <ns3:cad>0</ns3:cad>
          </ns3:TrackPointExtension>
        </extensions>
      </trkpt>
      <trkpt lat="37.77195028960704803466796875" lon="-107.7039487659931182861328125">
        <ele>3940</ele>
        <time>2023-07-29T17:09:57.000Z</time>
        <extensions>
          <ns3:TrackPointExtension>
            <ns3:hr>109</ns3:hr>
            <ns3:cad>0</ns3:cad>
          </ns3:TrackPointExtension>
        </extensions>
      </trkpt>
      <trkpt lat="37.77194618247449398040771484375" lon="-107.70395790226757526397705078125">
        <ele>3939.800048828125</ele>
        <time>2023-07-29T17:09:58.000Z</time>
        <extensions>
          <ns3:TrackPointExtension>
            <ns3:hr>108</ns3:hr>
            <ns3:cad>0</ns3:cad>
          </ns3:TrackPointExtension>
        </extensions>
      </trkpt>
      <trkpt lat="37.7719400636851787567138671875" lon="-107.70396913401782512664794921875">
        <ele>3939.60009765625</ele>
        <time>2023-07-29T17:09:59.000Z</time>
        <extensions>
          <ns3:TrackPointExtension>
            <ns3:hr>108</ns3:hr>
            <ns3:cad>0</ns3:cad>
          </ns3:TrackPointExtension>
        </extensions>
      </trkpt>
      <trkpt lat="37.77193511836230754852294921875" lon="-107.70397416315972805023193359375">
        <ele>3939.60009765625</ele>
        <time>2023-07-29T17:10:00.000Z</time>
        <extensions>
          <ns3:TrackPointExtension>
            <ns3:hr>108</ns3:hr>
            <ns3:cad>0</ns3:cad>
          </ns3:TrackPointExtension>
        </extensions>
      </trkpt>
      <trkpt lat="37.77192858047783374786376953125" lon="-107.7039831317961215972900390625">
        <ele>3939.199951171875</ele>
        <time>2023-07-29T17:10:01.000Z</time>
        <extensions>
          <ns3:TrackPointExtension>
            <ns3:hr>108</ns3:hr>
            <ns3:cad>0</ns3:cad>
          </ns3:TrackPointExtension>
        </extensions>
      </trkpt>
      <trkpt lat="37.77192187495529651641845703125" lon="-107.70399101078510284423828125">
        <ele>3939</ele>
        <time>2023-07-29T17:10:02.000Z</time>
        <extensions>
          <ns3:TrackPointExtension>
            <ns3:hr>107</ns3:hr>
            <ns3:cad>0</ns3:cad>
          </ns3:TrackPointExtension>
        </extensions>
      </trkpt>
      <trkpt lat="37.77191382832825183868408203125" lon="-107.7039995603263378143310546875">
        <ele>3938.800048828125</ele>
        <time>2023-07-29T17:10:03.000Z</time>
        <extensions>
          <ns3:TrackPointExtension>
            <ns3:hr>108</ns3:hr>
            <ns3:cad>0</ns3:cad>
          </ns3:TrackPointExtension>
        </extensions>
      </trkpt>
      <trkpt lat="37.77191366069018840789794921875" lon="-107.7040092833340167999267578125">
        <ele>3938.60009765625</ele>
        <time>2023-07-29T17:10:04.000Z</time>
        <extensions>
          <ns3:TrackPointExtension>
            <ns3:hr>108</ns3:hr>
            <ns3:cad>0</ns3:cad>
          </ns3:TrackPointExtension>
        </extensions>
      </trkpt>
      <trkpt lat="37.771909050643444061279296875" lon="-107.70401657558977603912353515625">
        <ele>3938.39990234375</ele>
        <time>2023-07-29T17:10:05.000Z</time>
        <extensions>
          <ns3:TrackPointExtension>
            <ns3:hr>107</ns3:hr>
            <ns3:cad>0</ns3:cad>
          </ns3:TrackPointExtension>
        </extensions>
      </trkpt>
      <trkpt lat="37.771903015673160552978515625" lon="-107.70402495749294757843017578125">
        <ele>3938</ele>
        <time>2023-07-29T17:10:06.000Z</time>
        <extensions>
          <ns3:TrackPointExtension>
            <ns3:hr>107</ns3:hr>
            <ns3:cad>0</ns3:cad>
          </ns3:TrackPointExtension>
        </extensions>
      </trkpt>
      <trkpt lat="37.77189840562641620635986328125" lon="-107.70403266884386539459228515625">
        <ele>3937.800048828125</ele>
        <time>2023-07-29T17:10:07.000Z</time>
        <extensions>
          <ns3:TrackPointExtension>
            <ns3:hr>107</ns3:hr>
            <ns3:cad>0</ns3:cad>
          </ns3:TrackPointExtension>
        </extensions>
      </trkpt>
      <trkpt lat="37.77189807035028934478759765625" lon="-107.70404021255671977996826171875">
        <ele>3937.60009765625</ele>
        <time>2023-07-29T17:10:08.000Z</time>
        <extensions>
          <ns3:TrackPointExtension>
            <ns3:hr>107</ns3:hr>
            <ns3:cad>0</ns3:cad>
          </ns3:TrackPointExtension>
        </extensions>
      </trkpt>
      <trkpt lat="37.771887592971324920654296875" lon="-107.70405312068760395050048828125">
        <ele>3937.39990234375</ele>
        <time>2023-07-29T17:10:09.000Z</time>
        <extensions>
          <ns3:TrackPointExtension>
            <ns3:hr>106</ns3:hr>
            <ns3:cad>0</ns3:cad>
          </ns3:TrackPointExtension>
        </extensions>
      </trkpt>
      <trkpt lat="37.77187812142074108123779296875" lon="-107.70406736992299556732177734375">
        <ele>3937.199951171875</ele>
        <time>2023-07-29T17:10:10.000Z</time>
        <extensions>
          <ns3:TrackPointExtension>
            <ns3:hr>107</ns3:hr>
            <ns3:cad>0</ns3:cad>
          </ns3:TrackPointExtension>
        </extensions>
      </trkpt>
      <trkpt lat="37.77186973951756954193115234375" lon="-107.70407172851264476776123046875">
        <ele>3937</ele>
        <time>2023-07-29T17:10:11.000Z</time>
        <extensions>
          <ns3:TrackPointExtension>
            <ns3:hr>107</ns3:hr>
            <ns3:cad>0</ns3:cad>
          </ns3:TrackPointExtension>
        </extensions>
      </trkpt>
      <trkpt lat="37.7718642912805080413818359375" lon="-107.70407357253134250640869140625">
        <ele>3936.60009765625</ele>
        <time>2023-07-29T17:10:12.000Z</time>
        <extensions>
          <ns3:TrackPointExtension>
            <ns3:hr>107</ns3:hr>
            <ns3:cad>0</ns3:cad>
          </ns3:TrackPointExtension>
        </extensions>
      </trkpt>
      <trkpt lat="37.7718599326908588409423828125" lon="-107.70407206378877162933349609375">
        <ele>3936.39990234375</ele>
        <time>2023-07-29T17:10:13.000Z</time>
        <extensions>
          <ns3:TrackPointExtension>
            <ns3:hr>107</ns3:hr>
            <ns3:cad>0</ns3:cad>
          </ns3:TrackPointExtension>
        </extensions>
      </trkpt>
      <trkpt lat="37.77185373008251190185546875" lon="-107.70407407544553279876708984375">
        <ele>3936.199951171875</ele>
        <time>2023-07-29T17:10:14.000Z</time>
        <extensions>
          <ns3:TrackPointExtension>
            <ns3:hr>107</ns3:hr>
            <ns3:cad>0</ns3:cad>
          </ns3:TrackPointExtension>
        </extensions>
      </trkpt>
      <trkpt lat="37.77185884304344654083251953125" lon="-107.7040863968431949615478515625">
        <ele>3936</ele>
        <time>2023-07-29T17:10:15.000Z</time>
        <extensions>
          <ns3:TrackPointExtension>
            <ns3:hr>107</ns3:hr>
            <ns3:cad>0</ns3:cad>
          </ns3:TrackPointExtension>
        </extensions>
      </trkpt>
      <trkpt lat="37.77185716666281223297119140625" lon="-107.7040907554328441619873046875">
        <ele>3936</ele>
        <time>2023-07-29T17:10:16.000Z</time>
        <extensions>
          <ns3:TrackPointExtension>
            <ns3:hr>107</ns3:hr>
            <ns3:cad>18</ns3:cad>
          </ns3:TrackPointExtension>
        </extensions>
      </trkpt>
      <trkpt lat="37.77185414917767047882080078125" lon="-107.70409871824085712432861328125">
        <ele>3936</ele>
        <time>2023-07-29T17:10:17.000Z</time>
        <extensions>
          <ns3:TrackPointExtension>
            <ns3:hr>107</ns3:hr>
            <ns3:cad>18</ns3:cad>
          </ns3:TrackPointExtension>
        </extensions>
      </trkpt>
      <trkpt lat="37.771846018731594085693359375" lon="-107.7040977962315082550048828125">
        <ele>3935.800048828125</ele>
        <time>2023-07-29T17:10:18.000Z</time>
        <extensions>
          <ns3:TrackPointExtension>
            <ns3:hr>107</ns3:hr>
            <ns3:cad>18</ns3:cad>
          </ns3:TrackPointExtension>
        </extensions>
      </trkpt>
      <trkpt lat="37.77184434235095977783203125" lon="-107.70410542376339435577392578125">
        <ele>3935.60009765625</ele>
        <time>2023-07-29T17:10:19.000Z</time>
        <extensions>
          <ns3:TrackPointExtension>
            <ns3:hr>107</ns3:hr>
            <ns3:cad>0</ns3:cad>
          </ns3:TrackPointExtension>
        </extensions>
      </trkpt>
      <trkpt lat="37.7718448452651500701904296875" lon="-107.704116739332675933837890625">
        <ele>3935.199951171875</ele>
        <time>2023-07-29T17:10:20.000Z</time>
        <extensions>
          <ns3:TrackPointExtension>
            <ns3:hr>106</ns3:hr>
            <ns3:cad>0</ns3:cad>
          </ns3:TrackPointExtension>
        </extensions>
      </trkpt>
      <trkpt lat="37.771835289895534515380859375" lon="-107.70412855781614780426025390625">
        <ele>3935</ele>
        <time>2023-07-29T17:10:21.000Z</time>
        <extensions>
          <ns3:TrackPointExtension>
            <ns3:hr>106</ns3:hr>
            <ns3:cad>0</ns3:cad>
          </ns3:TrackPointExtension>
        </extensions>
      </trkpt>
      <trkpt lat="37.7718253992497920989990234375" lon="-107.70413928665220737457275390625">
        <ele>3934.800048828125</ele>
        <time>2023-07-29T17:10:22.000Z</time>
        <extensions>
          <ns3:TrackPointExtension>
            <ns3:hr>105</ns3:hr>
            <ns3:cad>0</ns3:cad>
          </ns3:TrackPointExtension>
        </extensions>
      </trkpt>
      <trkpt lat="37.7718166820704936981201171875" lon="-107.70415018312633037567138671875">
        <ele>3934.60009765625</ele>
        <time>2023-07-29T17:10:23.000Z</time>
        <extensions>
          <ns3:TrackPointExtension>
            <ns3:hr>105</ns3:hr>
            <ns3:cad>0</ns3:cad>
          </ns3:TrackPointExtension>
        </extensions>
      </trkpt>
      <trkpt lat="37.77180788107216358184814453125" lon="-107.70417029969394207000732421875">
        <ele>3934.199951171875</ele>
        <time>2023-07-29T17:10:24.000Z</time>
        <extensions>
          <ns3:TrackPointExtension>
            <ns3:hr>105</ns3:hr>
            <ns3:cad>0</ns3:cad>
          </ns3:TrackPointExtension>
        </extensions>
      </trkpt>
      <trkpt lat="37.77180486358702182769775390625" lon="-107.70417851395905017852783203125">
        <ele>3934</ele>
        <time>2023-07-29T17:10:25.000Z</time>
        <extensions>
          <ns3:TrackPointExtension>
            <ns3:hr>105</ns3:hr>
            <ns3:cad>0</ns3:cad>
          </ns3:TrackPointExtension>
        </extensions>
      </trkpt>
      <trkpt lat="37.771805785596370697021484375" lon="-107.7041910029947757720947265625">
        <ele>3933.800048828125</ele>
        <time>2023-07-29T17:10:26.000Z</time>
        <extensions>
          <ns3:TrackPointExtension>
            <ns3:hr>106</ns3:hr>
            <ns3:cad>0</ns3:cad>
          </ns3:TrackPointExtension>
        </extensions>
      </trkpt>
      <trkpt lat="37.771806456148624420166015625" lon="-107.704191841185092926025390625">
        <ele>3933.39990234375</ele>
        <time>2023-07-29T17:10:27.000Z</time>
        <extensions>
          <ns3:TrackPointExtension>
            <ns3:hr>106</ns3:hr>
            <ns3:cad>0</ns3:cad>
          </ns3:TrackPointExtension>
        </extensions>
      </trkpt>
      <trkpt lat="37.7718015946447849273681640625" lon="-107.70419343374669551849365234375">
        <ele>3933.199951171875</ele>
        <time>2023-07-29T17:10:28.000Z</time>
        <extensions>
          <ns3:TrackPointExtension>
            <ns3:hr>106</ns3:hr>
            <ns3:cad>0</ns3:cad>
          </ns3:TrackPointExtension>
        </extensions>
      </trkpt>
      <trkpt lat="37.7717979066073894500732421875" lon="-107.70420114509761333465576171875">
        <ele>3933.199951171875</ele>
        <time>2023-07-29T17:10:29.000Z</time>
        <extensions>
          <ns3:TrackPointExtension>
            <ns3:hr>106</ns3:hr>
            <ns3:cad>0</ns3:cad>
          </ns3:TrackPointExtension>
        </extensions>
      </trkpt>
      <trkpt lat="37.7717940509319305419921875" lon="-107.70420692861080169677734375">
        <ele>3932.800048828125</ele>
        <time>2023-07-29T17:10:30.000Z</time>
        <extensions>
          <ns3:TrackPointExtension>
            <ns3:hr>106</ns3:hr>
            <ns3:cad>0</ns3:cad>
          </ns3:TrackPointExtension>
        </extensions>
      </trkpt>
      <trkpt lat="37.7717878483235836029052734375" lon="-107.7042134664952754974365234375">
        <ele>3932.60009765625</ele>
        <time>2023-07-29T17:10:31.000Z</time>
        <extensions>
          <ns3:TrackPointExtension>
            <ns3:hr>105</ns3:hr>
            <ns3:cad>0</ns3:cad>
          </ns3:TrackPointExtension>
        </extensions>
      </trkpt>
      <trkpt lat="37.77178608812391757965087890625" lon="-107.70421899855136871337890625">
        <ele>3932.39990234375</ele>
        <time>2023-07-29T17:10:32.000Z</time>
        <extensions>
          <ns3:TrackPointExtension>
            <ns3:hr>105</ns3:hr>
            <ns3:cad>0</ns3:cad>
          </ns3:TrackPointExtension>
        </extensions>
      </trkpt>
      <trkpt lat="37.77178860269486904144287109375" lon="-107.704220674932003021240234375">
        <ele>3932.199951171875</ele>
        <time>2023-07-29T17:10:33.000Z</time>
        <extensions>
          <ns3:TrackPointExtension>
            <ns3:hr>104</ns3:hr>
            <ns3:cad>65</ns3:cad>
          </ns3:TrackPointExtension>
        </extensions>
      </trkpt>
      <trkpt lat="37.771784998476505279541015625" lon="-107.70422838628292083740234375">
        <ele>3932</ele>
        <time>2023-07-29T17:10:34.000Z</time>
        <extensions>
          <ns3:TrackPointExtension>
            <ns3:hr>103</ns3:hr>
            <ns3:cad>65</ns3:cad>
          </ns3:TrackPointExtension>
        </extensions>
      </trkpt>
      <trkpt lat="37.7717834897339344024658203125" lon="-107.70423148758709430694580078125">
        <ele>3931.800048828125</ele>
        <time>2023-07-29T17:10:35.000Z</time>
        <extensions>
          <ns3:TrackPointExtension>
            <ns3:hr>103</ns3:hr>
            <ns3:cad>65</ns3:cad>
          </ns3:TrackPointExtension>
        </extensions>
      </trkpt>
      <trkpt lat="37.77177938260138034820556640625" lon="-107.704236768186092376708984375">
        <ele>3931.60009765625</ele>
        <time>2023-07-29T17:10:36.000Z</time>
        <extensions>
          <ns3:TrackPointExtension>
            <ns3:hr>103</ns3:hr>
            <ns3:cad>65</ns3:cad>
          </ns3:TrackPointExtension>
        </extensions>
      </trkpt>
      <trkpt lat="37.77177460491657257080078125" lon="-107.70424305461347103118896484375">
        <ele>3931.199951171875</ele>
        <time>2023-07-29T17:10:37.000Z</time>
        <extensions>
          <ns3:TrackPointExtension>
            <ns3:hr>103</ns3:hr>
            <ns3:cad>0</ns3:cad>
          </ns3:TrackPointExtension>
        </extensions>
      </trkpt>
      <trkpt lat="37.7717724256217479705810546875" lon="-107.704247497022151947021484375">
        <ele>3931</ele>
        <time>2023-07-29T17:10:38.000Z</time>
        <extensions>
          <ns3:TrackPointExtension>
            <ns3:hr>102</ns3:hr>
            <ns3:cad>0</ns3:cad>
          </ns3:TrackPointExtension>
        </extensions>
      </trkpt>
      <trkpt lat="37.77177033014595508575439453125" lon="-107.70425059832632541656494140625">
        <ele>3930.800048828125</ele>
        <time>2023-07-29T17:10:39.000Z</time>
        <extensions>
          <ns3:TrackPointExtension>
            <ns3:hr>102</ns3:hr>
            <ns3:cad>0</ns3:cad>
          </ns3:TrackPointExtension>
        </extensions>
      </trkpt>
      <trkpt lat="37.7717637084424495697021484375" lon="-107.70426015369594097137451171875">
        <ele>3930.39990234375</ele>
        <time>2023-07-29T17:10:40.000Z</time>
        <extensions>
          <ns3:TrackPointExtension>
            <ns3:hr>102</ns3:hr>
            <ns3:cad>0</ns3:cad>
          </ns3:TrackPointExtension>
        </extensions>
      </trkpt>
      <trkpt lat="37.77175976894795894622802734375" lon="-107.70427306182682514190673828125">
        <ele>3930.199951171875</ele>
        <time>2023-07-29T17:10:41.000Z</time>
        <extensions>
          <ns3:TrackPointExtension>
            <ns3:hr>102</ns3:hr>
            <ns3:cad>0</ns3:cad>
          </ns3:TrackPointExtension>
        </extensions>
      </trkpt>
      <trkpt lat="37.7717556618154048919677734375" lon="-107.70427524112164974212646484375">
        <ele>3930</ele>
        <time>2023-07-29T17:10:42.000Z</time>
        <extensions>
          <ns3:TrackPointExtension>
            <ns3:hr>102</ns3:hr>
            <ns3:cad>44</ns3:cad>
          </ns3:TrackPointExtension>
        </extensions>
      </trkpt>
      <trkpt lat="37.7717511355876922607421875" lon="-107.7042788453400135040283203125">
        <ele>3929.800048828125</ele>
        <time>2023-07-29T17:10:43.000Z</time>
        <extensions>
          <ns3:TrackPointExtension>
            <ns3:hr>102</ns3:hr>
            <ns3:cad>44</ns3:cad>
          </ns3:TrackPointExtension>
        </extensions>
      </trkpt>
      <trkpt lat="37.77174912393093109130859375" lon="-107.7042707987129688262939453125">
        <ele>3929.60009765625</ele>
        <time>2023-07-29T17:10:44.000Z</time>
        <extensions>
          <ns3:TrackPointExtension>
            <ns3:hr>102</ns3:hr>
            <ns3:cad>44</ns3:cad>
          </ns3:TrackPointExtension>
        </extensions>
      </trkpt>
      <trkpt lat="37.77174417860805988311767578125" lon="-107.7042714692652225494384765625">
        <ele>3929.199951171875</ele>
        <time>2023-07-29T17:10:45.000Z</time>
        <extensions>
          <ns3:TrackPointExtension>
            <ns3:hr>102</ns3:hr>
            <ns3:cad>44</ns3:cad>
          </ns3:TrackPointExtension>
        </extensions>
      </trkpt>
      <trkpt lat="37.77174266986548900604248046875" lon="-107.70426987670361995697021484375">
        <ele>3929</ele>
        <time>2023-07-29T17:10:46.000Z</time>
        <extensions>
          <ns3:TrackPointExtension>
            <ns3:hr>102</ns3:hr>
            <ns3:cad>0</ns3:cad>
          </ns3:TrackPointExtension>
        </extensions>
      </trkpt>
      <trkpt lat="37.771738059818744659423828125" lon="-107.70427222363650798797607421875">
        <ele>3929</ele>
        <time>2023-07-29T17:10:47.000Z</time>
        <extensions>
          <ns3:TrackPointExtension>
            <ns3:hr>102</ns3:hr>
            <ns3:cad>0</ns3:cad>
          </ns3:TrackPointExtension>
        </extensions>
      </trkpt>
      <trkpt lat="37.77173629961907863616943359375" lon="-107.70427373237907886505126953125">
        <ele>3928.800048828125</ele>
        <time>2023-07-29T17:10:48.000Z</time>
        <extensions>
          <ns3:TrackPointExtension>
            <ns3:hr>102</ns3:hr>
            <ns3:cad>0</ns3:cad>
          </ns3:TrackPointExtension>
        </extensions>
      </trkpt>
      <trkpt lat="37.771734707057476043701171875" lon="-107.70427876152098178863525390625">
        <ele>3928.800048828125</ele>
        <time>2023-07-29T17:10:49.000Z</time>
        <extensions>
          <ns3:TrackPointExtension>
            <ns3:hr>102</ns3:hr>
            <ns3:cad>0</ns3:cad>
          </ns3:TrackPointExtension>
        </extensions>
      </trkpt>
      <trkpt lat="37.7717298455536365509033203125" lon="-107.704289741814136505126953125">
        <ele>3928.39990234375</ele>
        <time>2023-07-29T17:10:50.000Z</time>
        <extensions>
          <ns3:TrackPointExtension>
            <ns3:hr>102</ns3:hr>
            <ns3:cad>0</ns3:cad>
          </ns3:TrackPointExtension>
        </extensions>
      </trkpt>
      <trkpt lat="37.7717281691730022430419921875" lon="-107.704295776784420013427734375">
        <ele>3928.199951171875</ele>
        <time>2023-07-29T17:10:51.000Z</time>
        <extensions>
          <ns3:TrackPointExtension>
            <ns3:hr>102</ns3:hr>
            <ns3:cad>0</ns3:cad>
          </ns3:TrackPointExtension>
        </extensions>
      </trkpt>
      <trkpt lat="37.7717228047549724578857421875" lon="-107.7043080143630504608154296875">
        <ele>3928</ele>
        <time>2023-07-29T17:10:52.000Z</time>
        <extensions>
          <ns3:TrackPointExtension>
            <ns3:hr>102</ns3:hr>
            <ns3:cad>0</ns3:cad>
          </ns3:TrackPointExtension>
        </extensions>
      </trkpt>
      <trkpt lat="37.7717194519937038421630859375" lon="-107.7043135464191436767578125">
        <ele>3927.800048828125</ele>
        <time>2023-07-29T17:10:53.000Z</time>
        <extensions>
          <ns3:TrackPointExtension>
            <ns3:hr>102</ns3:hr>
            <ns3:cad>0</ns3:cad>
          </ns3:TrackPointExtension>
        </extensions>
      </trkpt>
      <trkpt lat="37.77171417139470577239990234375" lon="-107.70432000048458576202392578125">
        <ele>3927.60009765625</ele>
        <time>2023-07-29T17:10:54.000Z</time>
        <extensions>
          <ns3:TrackPointExtension>
            <ns3:hr>102</ns3:hr>
            <ns3:cad>0</ns3:cad>
          </ns3:TrackPointExtension>
        </extensions>
      </trkpt>
      <trkpt lat="37.77171417139470577239990234375" lon="-107.70432000048458576202392578125">
        <ele>3927.199951171875</ele>
        <time>2023-07-29T17:10:55.000Z</time>
        <extensions>
          <ns3:TrackPointExtension>
            <ns3:hr>102</ns3:hr>
            <ns3:cad>0</ns3:cad>
          </ns3:TrackPointExtension>
        </extensions>
      </trkpt>
      <trkpt lat="37.77171417139470577239990234375" lon="-107.70432000048458576202392578125">
        <ele>3927</ele>
        <time>2023-07-29T17:10:56.000Z</time>
        <extensions>
          <ns3:TrackPointExtension>
            <ns3:hr>102</ns3:hr>
            <ns3:cad>0</ns3:cad>
          </ns3:TrackPointExtension>
        </extensions>
      </trkpt>
      <trkpt lat="37.77169807814061641693115234375" lon="-107.70432435907423496246337890625">
        <ele>3926.800048828125</ele>
        <time>2023-07-29T17:10:57.000Z</time>
        <extensions>
          <ns3:TrackPointExtension>
            <ns3:hr>102</ns3:hr>
            <ns3:cad>0</ns3:cad>
          </ns3:TrackPointExtension>
        </extensions>
      </trkpt>
      <trkpt lat="37.77169237844645977020263671875" lon="-107.704324610531330108642578125">
        <ele>3926.60009765625</ele>
        <time>2023-07-29T17:10:58.000Z</time>
        <extensions>
          <ns3:TrackPointExtension>
            <ns3:hr>102</ns3:hr>
            <ns3:cad>0</ns3:cad>
          </ns3:TrackPointExtension>
        </extensions>
      </trkpt>
      <trkpt lat="37.7716869302093982696533203125" lon="-107.70432838238775730133056640625">
        <ele>3926.60009765625</ele>
        <time>2023-07-29T17:10:59.000Z</time>
        <extensions>
          <ns3:TrackPointExtension>
            <ns3:hr>103</ns3:hr>
            <ns3:cad>0</ns3:cad>
          </ns3:TrackPointExtension>
        </extensions>
      </trkpt>
      <trkpt lat="37.7716812305152416229248046875" lon="-107.70433508791029453277587890625">
        <ele>3926.39990234375</ele>
        <time>2023-07-29T17:11:00.000Z</time>
        <extensions>
          <ns3:TrackPointExtension>
            <ns3:hr>103</ns3:hr>
            <ns3:cad>0</ns3:cad>
          </ns3:TrackPointExtension>
        </extensions>
      </trkpt>
      <trkpt lat="37.77167662046849727630615234375" lon="-107.70433693192899227142333984375">
        <ele>3926.199951171875</ele>
        <time>2023-07-29T17:11:01.000Z</time>
        <extensions>
          <ns3:TrackPointExtension>
            <ns3:hr>103</ns3:hr>
            <ns3:cad>0</ns3:cad>
          </ns3:TrackPointExtension>
        </extensions>
      </trkpt>
      <trkpt lat="37.77166941203176975250244140625" lon="-107.70434011705219745635986328125">
        <ele>3926</ele>
        <time>2023-07-29T17:11:02.000Z</time>
        <extensions>
          <ns3:TrackPointExtension>
            <ns3:hr>103</ns3:hr>
            <ns3:cad>0</ns3:cad>
          </ns3:TrackPointExtension>
        </extensions>
      </trkpt>
      <trkpt lat="37.77166354469954967498779296875" lon="-107.70434380508959293365478515625">
        <ele>3925.60009765625</ele>
        <time>2023-07-29T17:11:03.000Z</time>
        <extensions>
          <ns3:TrackPointExtension>
            <ns3:hr>104</ns3:hr>
            <ns3:cad>0</ns3:cad>
          </ns3:TrackPointExtension>
        </extensions>
      </trkpt>
      <trkpt lat="37.77166731655597686767578125" lon="-107.70434640347957611083984375">
        <ele>3925.39990234375</ele>
        <time>2023-07-29T17:11:04.000Z</time>
        <extensions>
          <ns3:TrackPointExtension>
            <ns3:hr>104</ns3:hr>
            <ns3:cad>0</ns3:cad>
          </ns3:TrackPointExtension>
        </extensions>
      </trkpt>
      <trkpt lat="37.771664969623088836669921875" lon="-107.7043497562408447265625">
        <ele>3925.199951171875</ele>
        <time>2023-07-29T17:11:05.000Z</time>
        <extensions>
          <ns3:TrackPointExtension>
            <ns3:hr>104</ns3:hr>
            <ns3:cad>0</ns3:cad>
          </ns3:TrackPointExtension>
        </extensions>
      </trkpt>
      <trkpt lat="37.77166756801307201385498046875" lon="-107.704352103173732757568359375">
        <ele>3925</ele>
        <time>2023-07-29T17:11:06.000Z</time>
        <extensions>
          <ns3:TrackPointExtension>
            <ns3:hr>105</ns3:hr>
            <ns3:cad>0</ns3:cad>
          </ns3:TrackPointExtension>
        </extensions>
      </trkpt>
      <trkpt lat="37.77166807092726230621337890625" lon="-107.7043537795543670654296875">
        <ele>3924.800048828125</ele>
        <time>2023-07-29T17:11:07.000Z</time>
        <extensions>
          <ns3:TrackPointExtension>
            <ns3:hr>105</ns3:hr>
            <ns3:cad>0</ns3:cad>
          </ns3:TrackPointExtension>
        </extensions>
      </trkpt>
      <trkpt lat="37.77167108841240406036376953125" lon="-107.7043512649834156036376953125">
        <ele>3924.60009765625</ele>
        <time>2023-07-29T17:11:08.000Z</time>
        <extensions>
          <ns3:TrackPointExtension>
            <ns3:hr>106</ns3:hr>
            <ns3:cad>0</ns3:cad>
          </ns3:TrackPointExtension>
        </extensions>
      </trkpt>
      <trkpt lat="37.7716701664030551910400390625" lon="-107.7043510973453521728515625">
        <ele>3924.60009765625</ele>
        <time>2023-07-29T17:11:09.000Z</time>
        <extensions>
          <ns3:TrackPointExtension>
            <ns3:hr>106</ns3:hr>
            <ns3:cad>0</ns3:cad>
          </ns3:TrackPointExtension>
        </extensions>
      </trkpt>
      <trkpt lat="37.7716715075075626373291015625" lon="-107.70435168407857418060302734375">
        <ele>3924.39990234375</ele>
        <time>2023-07-29T17:11:10.000Z</time>
        <extensions>
          <ns3:TrackPointExtension>
            <ns3:hr>106</ns3:hr>
            <ns3:cad>0</ns3:cad>
          </ns3:TrackPointExtension>
        </extensions>
      </trkpt>
      <trkpt lat="37.77167125605046749114990234375" lon="-107.7043519355356693267822265625">
        <ele>3924.199951171875</ele>
        <time>2023-07-29T17:11:11.000Z</time>
        <extensions>
          <ns3:TrackPointExtension>
            <ns3:hr>107</ns3:hr>
            <ns3:cad>0</ns3:cad>
          </ns3:TrackPointExtension>
        </extensions>
      </trkpt>
      <trkpt lat="37.7716728486120700836181640625" lon="-107.7043529413640499114990234375">
        <ele>3924.199951171875</ele>
        <time>2023-07-29T17:11:12.000Z</time>
        <extensions>
          <ns3:TrackPointExtension>
            <ns3:hr>108</ns3:hr>
            <ns3:cad>0</ns3:cad>
          </ns3:TrackPointExtension>
        </extensions>
      </trkpt>
      <trkpt lat="37.771673016250133514404296875" lon="-107.70435386337339878082275390625">
        <ele>3924.199951171875</ele>
        <time>2023-07-29T17:11:13.000Z</time>
        <extensions>
          <ns3:TrackPointExtension>
            <ns3:hr>109</ns3:hr>
            <ns3:cad>0</ns3:cad>
          </ns3:TrackPointExtension>
        </extensions>
      </trkpt>
      <trkpt lat="37.771674357354640960693359375" lon="-107.70435268990695476531982421875">
        <ele>3924.199951171875</ele>
        <time>2023-07-29T17:11:14.000Z</time>
        <extensions>
          <ns3:TrackPointExtension>
            <ns3:hr>110</ns3:hr>
            <ns3:cad>0</ns3:cad>
          </ns3:TrackPointExtension>
        </extensions>
      </trkpt>
      <trkpt lat="37.7716765366494655609130859375" lon="-107.7043532766401767730712890625">
        <ele>3924.199951171875</ele>
        <time>2023-07-29T17:11:15.000Z</time>
        <extensions>
          <ns3:TrackPointExtension>
            <ns3:hr>110</ns3:hr>
            <ns3:cad>0</ns3:cad>
          </ns3:TrackPointExtension>
        </extensions>
      </trkpt>
      <trkpt lat="37.77167846448719501495361328125" lon="-107.70435822196304798126220703125">
        <ele>3924.199951171875</ele>
        <time>2023-07-29T17:11:16.000Z</time>
        <extensions>
          <ns3:TrackPointExtension>
            <ns3:hr>111</ns3:hr>
            <ns3:cad>0</ns3:cad>
          </ns3:TrackPointExtension>
        </extensions>
      </trkpt>
      <trkpt lat="37.77167578227818012237548828125" lon="-107.70436995662748813629150390625">
        <ele>3924</ele>
        <time>2023-07-29T17:11:17.000Z</time>
        <extensions>
          <ns3:TrackPointExtension>
            <ns3:hr>111</ns3:hr>
            <ns3:cad>0</ns3:cad>
          </ns3:TrackPointExtension>
        </extensions>
      </trkpt>
      <trkpt lat="37.7716705016791820526123046875" lon="-107.704375572502613067626953125">
        <ele>3924</ele>
        <time>2023-07-29T17:11:18.000Z</time>
        <extensions>
          <ns3:TrackPointExtension>
            <ns3:hr>111</ns3:hr>
            <ns3:cad>0</ns3:cad>
          </ns3:TrackPointExtension>
        </extensions>
      </trkpt>
      <trkpt lat="37.77166639454662799835205078125" lon="-107.7043832838535308837890625">
        <ele>3924</ele>
        <time>2023-07-29T17:11:19.000Z</time>
        <extensions>
          <ns3:TrackPointExtension>
            <ns3:hr>112</ns3:hr>
            <ns3:cad>0</ns3:cad>
          </ns3:TrackPointExtension>
        </extensions>
      </trkpt>
      <trkpt lat="37.7716599404811859130859375" lon="-107.70439275540411472320556640625">
        <ele>3923.800048828125</ele>
        <time>2023-07-29T17:11:20.000Z</time>
        <extensions>
          <ns3:TrackPointExtension>
            <ns3:hr>112</ns3:hr>
            <ns3:cad>0</ns3:cad>
          </ns3:TrackPointExtension>
        </extensions>
      </trkpt>
      <trkpt lat="37.77165566571056842803955078125" lon="-107.70440164022147655487060546875">
        <ele>3923.800048828125</ele>
        <time>2023-07-29T17:11:21.000Z</time>
        <extensions>
          <ns3:TrackPointExtension>
            <ns3:hr>112</ns3:hr>
            <ns3:cad>0</ns3:cad>
          </ns3:TrackPointExtension>
        </extensions>
      </trkpt>
      <trkpt lat="37.771654240787029266357421875" lon="-107.70440666936337947845458984375">
        <ele>3923.60009765625</ele>
        <time>2023-07-29T17:11:22.000Z</time>
        <extensions>
          <ns3:TrackPointExtension>
            <ns3:hr>112</ns3:hr>
            <ns3:cad>0</ns3:cad>
          </ns3:TrackPointExtension>
        </extensions>
      </trkpt>
      <trkpt lat="37.771653570234775543212890625" lon="-107.7044122852385044097900390625">
        <ele>3923.39990234375</ele>
        <time>2023-07-29T17:11:23.000Z</time>
        <extensions>
          <ns3:TrackPointExtension>
            <ns3:hr>112</ns3:hr>
            <ns3:cad>0</ns3:cad>
          </ns3:TrackPointExtension>
        </extensions>
      </trkpt>
      <trkpt lat="37.77165030129253864288330078125" lon="-107.70441739819943904876708984375">
        <ele>3923.39990234375</ele>
        <time>2023-07-29T17:11:24.000Z</time>
        <extensions>
          <ns3:TrackPointExtension>
            <ns3:hr>111</ns3:hr>
            <ns3:cad>0</ns3:cad>
          </ns3:TrackPointExtension>
        </extensions>
      </trkpt>
      <trkpt lat="37.77164719998836517333984375" lon="-107.70441756583750247955322265625">
        <ele>3923.39990234375</ele>
        <time>2023-07-29T17:11:25.000Z</time>
        <extensions>
          <ns3:TrackPointExtension>
            <ns3:hr>110</ns3:hr>
            <ns3:cad>0</ns3:cad>
          </ns3:TrackPointExtension>
        </extensions>
      </trkpt>
      <trkpt lat="37.7716423384845256805419921875" lon="-107.7044199965894222259521484375">
        <ele>3923.199951171875</ele>
        <time>2023-07-29T17:11:26.000Z</time>
        <extensions>
          <ns3:TrackPointExtension>
            <ns3:hr>110</ns3:hr>
            <ns3:cad>0</ns3:cad>
          </ns3:TrackPointExtension>
        </extensions>
      </trkpt>
      <trkpt lat="37.7716409973800182342529296875" lon="-107.70441949367523193359375">
        <ele>3923.199951171875</ele>
        <time>2023-07-29T17:11:27.000Z</time>
        <extensions>
          <ns3:TrackPointExtension>
            <ns3:hr>110</ns3:hr>
            <ns3:cad>61</ns3:cad>
          </ns3:TrackPointExtension>
        </extensions>
      </trkpt>
      <trkpt lat="37.77163605205714702606201171875" lon="-107.70442276261746883392333984375">
        <ele>3922.800048828125</ele>
        <time>2023-07-29T17:11:28.000Z</time>
        <extensions>
          <ns3:TrackPointExtension>
            <ns3:hr>109</ns3:hr>
            <ns3:cad>61</ns3:cad>
          </ns3:TrackPointExtension>
        </extensions>
      </trkpt>
      <trkpt lat="37.77163001708686351776123046875" lon="-107.70441991277039051055908203125">
        <ele>3922.800048828125</ele>
        <time>2023-07-29T17:11:29.000Z</time>
        <extensions>
          <ns3:TrackPointExtension>
            <ns3:hr>109</ns3:hr>
            <ns3:cad>61</ns3:cad>
          </ns3:TrackPointExtension>
        </extensions>
      </trkpt>
      <trkpt lat="37.771624736487865447998046875" lon="-107.70442058332264423370361328125">
        <ele>3922.39990234375</ele>
        <time>2023-07-29T17:11:30.000Z</time>
        <extensions>
          <ns3:TrackPointExtension>
            <ns3:hr>109</ns3:hr>
            <ns3:cad>61</ns3:cad>
          </ns3:TrackPointExtension>
        </extensions>
      </trkpt>
      <trkpt lat="37.771619372069835662841796875" lon="-107.70442745648324489593505859375">
        <ele>3922</ele>
        <time>2023-07-29T17:11:31.000Z</time>
        <extensions>
          <ns3:TrackPointExtension>
            <ns3:hr>109</ns3:hr>
            <ns3:cad>0</ns3:cad>
          </ns3:TrackPointExtension>
        </extensions>
      </trkpt>
      <trkpt lat="37.77161308564245700836181640625" lon="-107.7044324018061161041259765625">
        <ele>3921.800048828125</ele>
        <time>2023-07-29T17:11:32.000Z</time>
        <extensions>
          <ns3:TrackPointExtension>
            <ns3:hr>109</ns3:hr>
            <ns3:cad>0</ns3:cad>
          </ns3:TrackPointExtension>
        </extensions>
      </trkpt>
      <trkpt lat="37.771604619920253753662109375" lon="-107.70442980341613292694091796875">
        <ele>3921.60009765625</ele>
        <time>2023-07-29T17:11:33.000Z</time>
        <extensions>
          <ns3:TrackPointExtension>
            <ns3:hr>109</ns3:hr>
            <ns3:cad>0</ns3:cad>
          </ns3:TrackPointExtension>
        </extensions>
      </trkpt>
      <trkpt lat="37.77159749530255794525146484375" lon="-107.704432569444179534912109375">
        <ele>3921.39990234375</ele>
        <time>2023-07-29T17:11:34.000Z</time>
        <extensions>
          <ns3:TrackPointExtension>
            <ns3:hr>109</ns3:hr>
            <ns3:cad>0</ns3:cad>
          </ns3:TrackPointExtension>
        </extensions>
      </trkpt>
      <trkpt lat="37.77159078978002071380615234375" lon="-107.704433910548686981201171875">
        <ele>3921.39990234375</ele>
        <time>2023-07-29T17:11:35.000Z</time>
        <extensions>
          <ns3:TrackPointExtension>
            <ns3:hr>109</ns3:hr>
            <ns3:cad>0</ns3:cad>
          </ns3:TrackPointExtension>
        </extensions>
      </trkpt>
      <trkpt lat="37.77158877812325954437255859375" lon="-107.70443449728190898895263671875">
        <ele>3921.199951171875</ele>
        <time>2023-07-29T17:11:36.000Z</time>
        <extensions>
          <ns3:TrackPointExtension>
            <ns3:hr>109</ns3:hr>
            <ns3:cad>0</ns3:cad>
          </ns3:TrackPointExtension>
        </extensions>
      </trkpt>
      <trkpt lat="37.77158609591424465179443359375" lon="-107.7044401131570339202880859375">
        <ele>3921</ele>
        <time>2023-07-29T17:11:37.000Z</time>
        <extensions>
          <ns3:TrackPointExtension>
            <ns3:hr>109</ns3:hr>
            <ns3:cad>0</ns3:cad>
          </ns3:TrackPointExtension>
        </extensions>
      </trkpt>
      <trkpt lat="37.77158676646649837493896484375" lon="-107.70444639958441257476806640625">
        <ele>3920.60009765625</ele>
        <time>2023-07-29T17:11:38.000Z</time>
        <extensions>
          <ns3:TrackPointExtension>
            <ns3:hr>109</ns3:hr>
            <ns3:cad>0</ns3:cad>
          </ns3:TrackPointExtension>
        </extensions>
      </trkpt>
      <trkpt lat="37.77158676646649837493896484375" lon="-107.7044525183737277984619140625">
        <ele>3920.39990234375</ele>
        <time>2023-07-29T17:11:39.000Z</time>
        <extensions>
          <ns3:TrackPointExtension>
            <ns3:hr>109</ns3:hr>
            <ns3:cad>0</ns3:cad>
          </ns3:TrackPointExtension>
        </extensions>
      </trkpt>
      <trkpt lat="37.77158911339938640594482421875" lon="-107.70446668379008769989013671875">
        <ele>3920.199951171875</ele>
        <time>2023-07-29T17:11:40.000Z</time>
        <extensions>
          <ns3:TrackPointExtension>
            <ns3:hr>109</ns3:hr>
            <ns3:cad>0</ns3:cad>
          </ns3:TrackPointExtension>
        </extensions>
      </trkpt>
      <trkpt lat="37.77159146033227443695068359375" lon="-107.70448193885385990142822265625">
        <ele>3920</ele>
        <time>2023-07-29T17:11:41.000Z</time>
        <extensions>
          <ns3:TrackPointExtension>
            <ns3:hr>109</ns3:hr>
            <ns3:cad>0</ns3:cad>
          </ns3:TrackPointExtension>
        </extensions>
      </trkpt>
      <trkpt lat="37.77159531600773334503173828125" lon="-107.7044870518147945404052734375">
        <ele>3919.800048828125</ele>
        <time>2023-07-29T17:11:42.000Z</time>
        <extensions>
          <ns3:TrackPointExtension>
            <ns3:hr>109</ns3:hr>
            <ns3:cad>0</ns3:cad>
          </ns3:TrackPointExtension>
        </extensions>
      </trkpt>
      <trkpt lat="37.7716000936925411224365234375" lon="-107.70449233241379261016845703125">
        <ele>3919.60009765625</ele>
        <time>2023-07-29T17:11:43.000Z</time>
        <extensions>
          <ns3:TrackPointExtension>
            <ns3:hr>109</ns3:hr>
            <ns3:cad>0</ns3:cad>
          </ns3:TrackPointExtension>
        </extensions>
      </trkpt>
      <trkpt lat="37.77160252444446086883544921875" lon="-107.70449467934668064117431640625">
        <ele>3919.39990234375</ele>
        <time>2023-07-29T17:11:44.000Z</time>
        <extensions>
          <ns3:TrackPointExtension>
            <ns3:hr>108</ns3:hr>
            <ns3:cad>0</ns3:cad>
          </ns3:TrackPointExtension>
        </extensions>
      </trkpt>
      <trkpt lat="37.77160252444446086883544921875" lon="-107.70449467934668064117431640625">
        <ele>3919.39990234375</ele>
        <time>2023-07-29T17:11:45.000Z</time>
        <extensions>
          <ns3:TrackPointExtension>
            <ns3:hr>108</ns3:hr>
            <ns3:cad>0</ns3:cad>
          </ns3:TrackPointExtension>
        </extensions>
      </trkpt>
      <trkpt lat="37.77160252444446086883544921875" lon="-107.70449467934668064117431640625">
        <ele>3919</ele>
        <time>2023-07-29T17:11:46.000Z</time>
        <extensions>
          <ns3:TrackPointExtension>
            <ns3:hr>108</ns3:hr>
            <ns3:cad>0</ns3:cad>
          </ns3:TrackPointExtension>
        </extensions>
      </trkpt>
      <trkpt lat="37.7716094814240932464599609375" lon="-107.704502306878566741943359375">
        <ele>3918.800048828125</ele>
        <time>2023-07-29T17:11:47.000Z</time>
        <extensions>
          <ns3:TrackPointExtension>
            <ns3:hr>108</ns3:hr>
            <ns3:cad>0</ns3:cad>
          </ns3:TrackPointExtension>
        </extensions>
      </trkpt>
      <trkpt lat="37.77161090634763240814208984375" lon="-107.70450842566788196563720703125">
        <ele>3918.800048828125</ele>
        <time>2023-07-29T17:11:48.000Z</time>
        <extensions>
          <ns3:TrackPointExtension>
            <ns3:hr>107</ns3:hr>
            <ns3:cad>0</ns3:cad>
          </ns3:TrackPointExtension>
        </extensions>
      </trkpt>
      <trkpt lat="37.7716114930808544158935546875" lon="-107.70451462827622890472412109375">
        <ele>3918.60009765625</ele>
        <time>2023-07-29T17:11:49.000Z</time>
        <extensions>
          <ns3:TrackPointExtension>
            <ns3:hr>107</ns3:hr>
            <ns3:cad>0</ns3:cad>
          </ns3:TrackPointExtension>
        </extensions>
      </trkpt>
      <trkpt lat="37.77161627076566219329833984375" lon="-107.70452099852263927459716796875">
        <ele>3918.199951171875</ele>
        <time>2023-07-29T17:11:50.000Z</time>
        <extensions>
          <ns3:TrackPointExtension>
            <ns3:hr>107</ns3:hr>
            <ns3:cad>0</ns3:cad>
          </ns3:TrackPointExtension>
        </extensions>
      </trkpt>
      <trkpt lat="37.771618030965328216552734375" lon="-107.704521082341670989990234375">
        <ele>3918</ele>
        <time>2023-07-29T17:11:51.000Z</time>
        <extensions>
          <ns3:TrackPointExtension>
            <ns3:hr>107</ns3:hr>
            <ns3:cad>0</ns3:cad>
          </ns3:TrackPointExtension>
        </extensions>
      </trkpt>
      <trkpt lat="37.77161526493728160858154296875" lon="-107.70452720113098621368408203125">
        <ele>3918</ele>
        <time>2023-07-29T17:11:52.000Z</time>
        <extensions>
          <ns3:TrackPointExtension>
            <ns3:hr>107</ns3:hr>
            <ns3:cad>0</ns3:cad>
          </ns3:TrackPointExtension>
        </extensions>
      </trkpt>
      <trkpt lat="37.771614007651805877685546875" lon="-107.7045339904725551605224609375">
        <ele>3917.800048828125</ele>
        <time>2023-07-29T17:11:53.000Z</time>
        <extensions>
          <ns3:TrackPointExtension>
            <ns3:hr>107</ns3:hr>
            <ns3:cad>0</ns3:cad>
          </ns3:TrackPointExtension>
        </extensions>
      </trkpt>
      <trkpt lat="37.77161275036633014678955078125" lon="-107.70454597659409046173095703125">
        <ele>3917.60009765625</ele>
        <time>2023-07-29T17:11:54.000Z</time>
        <extensions>
          <ns3:TrackPointExtension>
            <ns3:hr>106</ns3:hr>
            <ns3:cad>0</ns3:cad>
          </ns3:TrackPointExtension>
        </extensions>
      </trkpt>
      <trkpt lat="37.7716121636331081390380859375" lon="-107.704555280506610870361328125">
        <ele>3917.39990234375</ele>
        <time>2023-07-29T17:11:55.000Z</time>
        <extensions>
          <ns3:TrackPointExtension>
            <ns3:hr>107</ns3:hr>
            <ns3:cad>0</ns3:cad>
          </ns3:TrackPointExtension>
        </extensions>
      </trkpt>
      <trkpt lat="37.77161660604178905487060546875" lon="-107.70456290803849697113037109375">
        <ele>3917.39990234375</ele>
        <time>2023-07-29T17:11:56.000Z</time>
        <extensions>
          <ns3:TrackPointExtension>
            <ns3:hr>106</ns3:hr>
            <ns3:cad>0</ns3:cad>
          </ns3:TrackPointExtension>
        </extensions>
      </trkpt>
      <trkpt lat="37.7716168574988842010498046875" lon="-107.7045643329620361328125">
        <ele>3917.199951171875</ele>
        <time>2023-07-29T17:11:57.000Z</time>
        <extensions>
          <ns3:TrackPointExtension>
            <ns3:hr>106</ns3:hr>
            <ns3:cad>0</ns3:cad>
          </ns3:TrackPointExtension>
        </extensions>
      </trkpt>
      <trkpt lat="37.77161635458469390869140625" lon="-107.70456424914300441741943359375">
        <ele>3917</ele>
        <time>2023-07-29T17:11:58.000Z</time>
        <extensions>
          <ns3:TrackPointExtension>
            <ns3:hr>106</ns3:hr>
            <ns3:cad>0</ns3:cad>
          </ns3:TrackPointExtension>
        </extensions>
      </trkpt>
      <trkpt lat="37.77161660604178905487060546875" lon="-107.7045643329620361328125">
        <ele>3916.800048828125</ele>
        <time>2023-07-29T17:11:59.000Z</time>
        <extensions>
          <ns3:TrackPointExtension>
            <ns3:hr>106</ns3:hr>
            <ns3:cad>0</ns3:cad>
          </ns3:TrackPointExtension>
        </extensions>
      </trkpt>
      <trkpt lat="37.77161769568920135498046875" lon="-107.704563997685909271240234375">
        <ele>3916.60009765625</ele>
        <time>2023-07-29T17:12:00.000Z</time>
        <extensions>
          <ns3:TrackPointExtension>
            <ns3:hr>105</ns3:hr>
            <ns3:cad>0</ns3:cad>
          </ns3:TrackPointExtension>
        </extensions>
      </trkpt>
      <trkpt lat="37.77161794714629650115966796875" lon="-107.7045655064284801483154296875">
        <ele>3916.60009765625</ele>
        <time>2023-07-29T17:12:01.000Z</time>
        <extensions>
          <ns3:TrackPointExtension>
            <ns3:hr>103</ns3:hr>
            <ns3:cad>0</ns3:cad>
          </ns3:TrackPointExtension>
        </extensions>
      </trkpt>
      <trkpt lat="37.77162037789821624755859375" lon="-107.70456944592297077178955078125">
        <ele>3916.60009765625</ele>
        <time>2023-07-29T17:12:02.000Z</time>
        <extensions>
          <ns3:TrackPointExtension>
            <ns3:hr>99</ns3:hr>
            <ns3:cad>0</ns3:cad>
          </ns3:TrackPointExtension>
        </extensions>
      </trkpt>
      <trkpt lat="37.771620713174343109130859375" lon="-107.7045698650181293487548828125">
        <ele>3916.60009765625</ele>
        <time>2023-07-29T17:12:03.000Z</time>
        <extensions>
          <ns3:TrackPointExtension>
            <ns3:hr>97</ns3:hr>
            <ns3:cad>0</ns3:cad>
          </ns3:TrackPointExtension>
        </extensions>
      </trkpt>
      <trkpt lat="37.77162381447851657867431640625" lon="-107.70457128994166851043701171875">
        <ele>3916.60009765625</ele>
        <time>2023-07-29T17:12:04.000Z</time>
        <extensions>
          <ns3:TrackPointExtension>
            <ns3:hr>95</ns3:hr>
            <ns3:cad>0</ns3:cad>
          </ns3:TrackPointExtension>
        </extensions>
      </trkpt>
      <trkpt lat="37.771626077592372894287109375" lon="-107.70457648672163486480712890625">
        <ele>3916.60009765625</ele>
        <time>2023-07-29T17:12:05.000Z</time>
        <extensions>
          <ns3:TrackPointExtension>
            <ns3:hr>93</ns3:hr>
            <ns3:cad>0</ns3:cad>
          </ns3:TrackPointExtension>
        </extensions>
      </trkpt>
      <trkpt lat="37.7716205455362796783447265625" lon="-107.7045748941600322723388671875">
        <ele>3916.39990234375</ele>
        <time>2023-07-29T17:12:06.000Z</time>
        <extensions>
          <ns3:TrackPointExtension>
            <ns3:hr>93</ns3:hr>
            <ns3:cad>0</ns3:cad>
          </ns3:TrackPointExtension>
        </extensions>
      </trkpt>
      <trkpt lat="37.771618701517581939697265625" lon="-107.704583108425140380859375">
        <ele>3916.199951171875</ele>
        <time>2023-07-29T17:12:07.000Z</time>
        <extensions>
          <ns3:TrackPointExtension>
            <ns3:hr>93</ns3:hr>
            <ns3:cad>0</ns3:cad>
          </ns3:TrackPointExtension>
        </extensions>
      </trkpt>
      <trkpt lat="37.77161660604178905487060546875" lon="-107.70458637736737728118896484375">
        <ele>3916</ele>
        <time>2023-07-29T17:12:08.000Z</time>
        <extensions>
          <ns3:TrackPointExtension>
            <ns3:hr>93</ns3:hr>
            <ns3:cad>0</ns3:cad>
          </ns3:TrackPointExtension>
        </extensions>
      </trkpt>
      <trkpt lat="37.77160964906215667724609375" lon="-107.704591490328311920166015625">
        <ele>3915.800048828125</ele>
        <time>2023-07-29T17:12:09.000Z</time>
        <extensions>
          <ns3:TrackPointExtension>
            <ns3:hr>93</ns3:hr>
            <ns3:cad>0</ns3:cad>
          </ns3:TrackPointExtension>
        </extensions>
      </trkpt>
      <trkpt lat="37.77161006815731525421142578125" lon="-107.70459719002246856689453125">
        <ele>3915.60009765625</ele>
        <time>2023-07-29T17:12:10.000Z</time>
        <extensions>
          <ns3:TrackPointExtension>
            <ns3:hr>92</ns3:hr>
            <ns3:cad>0</ns3:cad>
          </ns3:TrackPointExtension>
        </extensions>
      </trkpt>
      <trkpt lat="37.7716081403195858001708984375" lon="-107.70460389554500579833984375">
        <ele>3915.60009765625</ele>
        <time>2023-07-29T17:12:11.000Z</time>
        <extensions>
          <ns3:TrackPointExtension>
            <ns3:hr>92</ns3:hr>
            <ns3:cad>0</ns3:cad>
          </ns3:TrackPointExtension>
        </extensions>
      </trkpt>
      <trkpt lat="37.7716051228344440460205078125" lon="-107.704612277448177337646484375">
        <ele>3915.39990234375</ele>
        <time>2023-07-29T17:12:12.000Z</time>
        <extensions>
          <ns3:TrackPointExtension>
            <ns3:hr>92</ns3:hr>
            <ns3:cad>0</ns3:cad>
          </ns3:TrackPointExtension>
        </extensions>
      </trkpt>
      <trkpt lat="37.77160185389220714569091796875" lon="-107.70461688749492168426513671875">
        <ele>3915.199951171875</ele>
        <time>2023-07-29T17:12:13.000Z</time>
        <extensions>
          <ns3:TrackPointExtension>
            <ns3:hr>92</ns3:hr>
            <ns3:cad>0</ns3:cad>
          </ns3:TrackPointExtension>
        </extensions>
      </trkpt>
      <trkpt lat="37.7716021053493022918701171875" lon="-107.704614959657192230224609375">
        <ele>3915</ele>
        <time>2023-07-29T17:12:14.000Z</time>
        <extensions>
          <ns3:TrackPointExtension>
            <ns3:hr>92</ns3:hr>
            <ns3:cad>0</ns3:cad>
          </ns3:TrackPointExtension>
        </extensions>
      </trkpt>
      <trkpt lat="37.7716007642447948455810546875" lon="-107.70462535321712493896484375">
        <ele>3914.800048828125</ele>
        <time>2023-07-29T17:12:15.000Z</time>
        <extensions>
          <ns3:TrackPointExtension>
            <ns3:hr>92</ns3:hr>
            <ns3:cad>0</ns3:cad>
          </ns3:TrackPointExtension>
        </extensions>
      </trkpt>
      <trkpt lat="37.77160168625414371490478515625" lon="-107.70462744869291782379150390625">
        <ele>3914.60009765625</ele>
        <time>2023-07-29T17:12:16.000Z</time>
        <extensions>
          <ns3:TrackPointExtension>
            <ns3:hr>92</ns3:hr>
            <ns3:cad>0</ns3:cad>
          </ns3:TrackPointExtension>
        </extensions>
      </trkpt>
      <trkpt lat="37.77160487137734889984130859375" lon="-107.704633064568042755126953125">
        <ele>3914.39990234375</ele>
        <time>2023-07-29T17:12:17.000Z</time>
        <extensions>
          <ns3:TrackPointExtension>
            <ns3:hr>92</ns3:hr>
            <ns3:cad>0</ns3:cad>
          </ns3:TrackPointExtension>
        </extensions>
      </trkpt>
      <trkpt lat="37.771607972681522369384765625" lon="-107.7046396024525165557861328125">
        <ele>3914.199951171875</ele>
        <time>2023-07-29T17:12:18.000Z</time>
        <extensions>
          <ns3:TrackPointExtension>
            <ns3:hr>92</ns3:hr>
            <ns3:cad>0</ns3:cad>
          </ns3:TrackPointExtension>
        </extensions>
      </trkpt>
      <trkpt lat="37.77161023579537868499755859375" lon="-107.70464681088924407958984375">
        <ele>3914</ele>
        <time>2023-07-29T17:12:19.000Z</time>
        <extensions>
          <ns3:TrackPointExtension>
            <ns3:hr>93</ns3:hr>
            <ns3:cad>0</ns3:cad>
          </ns3:TrackPointExtension>
        </extensions>
      </trkpt>
      <trkpt lat="37.7716084755957126617431640625" lon="-107.7046526782214641571044921875">
        <ele>3913.800048828125</ele>
        <time>2023-07-29T17:12:20.000Z</time>
        <extensions>
          <ns3:TrackPointExtension>
            <ns3:hr>94</ns3:hr>
            <ns3:cad>0</ns3:cad>
          </ns3:TrackPointExtension>
        </extensions>
      </trkpt>
      <trkpt lat="37.7716047875583171844482421875" lon="-107.70465552806854248046875">
        <ele>3913.60009765625</ele>
        <time>2023-07-29T17:12:21.000Z</time>
        <extensions>
          <ns3:TrackPointExtension>
            <ns3:hr>95</ns3:hr>
            <ns3:cad>0</ns3:cad>
          </ns3:TrackPointExtension>
        </extensions>
      </trkpt>
      <trkpt lat="37.7716010995209217071533203125" lon="-107.70465896464884281158447265625">
        <ele>3913.39990234375</ele>
        <time>2023-07-29T17:12:22.000Z</time>
        <extensions>
          <ns3:TrackPointExtension>
            <ns3:hr>95</ns3:hr>
            <ns3:cad>0</ns3:cad>
          </ns3:TrackPointExtension>
        </extensions>
      </trkpt>
      <trkpt lat="37.77159699238836765289306640625" lon="-107.70466617308557033538818359375">
        <ele>3913.199951171875</ele>
        <time>2023-07-29T17:12:23.000Z</time>
        <extensions>
          <ns3:TrackPointExtension>
            <ns3:hr>95</ns3:hr>
            <ns3:cad>0</ns3:cad>
          </ns3:TrackPointExtension>
        </extensions>
      </trkpt>
      <trkpt lat="37.77159598655998706817626953125" lon="-107.7046670950949192047119140625">
        <ele>3913</ele>
        <time>2023-07-29T17:12:24.000Z</time>
        <extensions>
          <ns3:TrackPointExtension>
            <ns3:hr>95</ns3:hr>
            <ns3:cad>0</ns3:cad>
          </ns3:TrackPointExtension>
        </extensions>
      </trkpt>
      <trkpt lat="37.77159615419805049896240234375" lon="-107.704668603837490081787109375">
        <ele>3913</ele>
        <time>2023-07-29T17:12:25.000Z</time>
        <extensions>
          <ns3:TrackPointExtension>
            <ns3:hr>96</ns3:hr>
            <ns3:cad>0</ns3:cad>
          </ns3:TrackPointExtension>
        </extensions>
      </trkpt>
      <trkpt lat="37.77159531600773334503173828125" lon="-107.70467204041779041290283203125">
        <ele>3913</ele>
        <time>2023-07-29T17:12:26.000Z</time>
        <extensions>
          <ns3:TrackPointExtension>
            <ns3:hr>96</ns3:hr>
            <ns3:cad>0</ns3:cad>
          </ns3:TrackPointExtension>
        </extensions>
      </trkpt>
      <trkpt lat="37.77159531600773334503173828125" lon="-107.7046738006174564361572265625">
        <ele>3913</ele>
        <time>2023-07-29T17:12:27.000Z</time>
        <extensions>
          <ns3:TrackPointExtension>
            <ns3:hr>96</ns3:hr>
            <ns3:cad>0</ns3:cad>
          </ns3:TrackPointExtension>
        </extensions>
      </trkpt>
      <trkpt lat="37.77159489691257476806640625" lon="-107.70468343980610370635986328125">
        <ele>3912.800048828125</ele>
        <time>2023-07-29T17:12:28.000Z</time>
        <extensions>
          <ns3:TrackPointExtension>
            <ns3:hr>96</ns3:hr>
            <ns3:cad>0</ns3:cad>
          </ns3:TrackPointExtension>
        </extensions>
      </trkpt>
      <trkpt lat="37.77159414254128932952880859375" lon="-107.70469081588089466094970703125">
        <ele>3912.60009765625</ele>
        <time>2023-07-29T17:12:29.000Z</time>
        <extensions>
          <ns3:TrackPointExtension>
            <ns3:hr>96</ns3:hr>
            <ns3:cad>0</ns3:cad>
          </ns3:TrackPointExtension>
        </extensions>
      </trkpt>
      <trkpt lat="37.77159447781741619110107421875" lon="-107.704698108136653900146484375">
        <ele>3912.60009765625</ele>
        <time>2023-07-29T17:12:30.000Z</time>
        <extensions>
          <ns3:TrackPointExtension>
            <ns3:hr>96</ns3:hr>
            <ns3:cad>0</ns3:cad>
          </ns3:TrackPointExtension>
        </extensions>
      </trkpt>
      <trkpt lat="37.77159095741808414459228515625" lon="-107.70471076481044292449951171875">
        <ele>3912.39990234375</ele>
        <time>2023-07-29T17:12:31.000Z</time>
        <extensions>
          <ns3:TrackPointExtension>
            <ns3:hr>95</ns3:hr>
            <ns3:cad>0</ns3:cad>
          </ns3:TrackPointExtension>
        </extensions>
      </trkpt>
      <trkpt lat="37.7715893648564815521240234375" lon="-107.70471227355301380157470703125">
        <ele>3912.39990234375</ele>
        <time>2023-07-29T17:12:32.000Z</time>
        <extensions>
          <ns3:TrackPointExtension>
            <ns3:hr>95</ns3:hr>
            <ns3:cad>0</ns3:cad>
          </ns3:TrackPointExtension>
        </extensions>
      </trkpt>
      <trkpt lat="37.77158760465681552886962890625" lon="-107.704715542495250701904296875">
        <ele>3912.199951171875</ele>
        <time>2023-07-29T17:12:33.000Z</time>
        <extensions>
          <ns3:TrackPointExtension>
            <ns3:hr>95</ns3:hr>
            <ns3:cad>0</ns3:cad>
          </ns3:TrackPointExtension>
        </extensions>
      </trkpt>
      <trkpt lat="37.77158609591424465179443359375" lon="-107.70471990108489990234375">
        <ele>3911.800048828125</ele>
        <time>2023-07-29T17:12:34.000Z</time>
        <extensions>
          <ns3:TrackPointExtension>
            <ns3:hr>95</ns3:hr>
            <ns3:cad>0</ns3:cad>
          </ns3:TrackPointExtension>
        </extensions>
      </trkpt>
      <trkpt lat="37.77158844284713268280029296875" lon="-107.70472191274166107177734375">
        <ele>3911.39990234375</ele>
        <time>2023-07-29T17:12:35.000Z</time>
        <extensions>
          <ns3:TrackPointExtension>
            <ns3:hr>95</ns3:hr>
            <ns3:cad>0</ns3:cad>
          </ns3:TrackPointExtension>
        </extensions>
      </trkpt>
      <trkpt lat="37.77159263379871845245361328125" lon="-107.70472434349358081817626953125">
        <ele>3911.39990234375</ele>
        <time>2023-07-29T17:12:36.000Z</time>
        <extensions>
          <ns3:TrackPointExtension>
            <ns3:hr>94</ns3:hr>
            <ns3:cad>0</ns3:cad>
          </ns3:TrackPointExtension>
        </extensions>
      </trkpt>
      <trkpt lat="37.77159682475030422210693359375" lon="-107.70472132600843906402587890625">
        <ele>3911</ele>
        <time>2023-07-29T17:12:37.000Z</time>
        <extensions>
          <ns3:TrackPointExtension>
            <ns3:hr>95</ns3:hr>
            <ns3:cad>0</ns3:cad>
          </ns3:TrackPointExtension>
        </extensions>
      </trkpt>
      <trkpt lat="37.7716014347970485687255859375" lon="-107.7047131955623626708984375">
        <ele>3911</ele>
        <time>2023-07-29T17:12:38.000Z</time>
        <extensions>
          <ns3:TrackPointExtension>
            <ns3:hr>95</ns3:hr>
            <ns3:cad>0</ns3:cad>
          </ns3:TrackPointExtension>
        </extensions>
      </trkpt>
      <trkpt lat="37.77160336263477802276611328125" lon="-107.70471763797104358673095703125">
        <ele>3911</ele>
        <time>2023-07-29T17:12:39.000Z</time>
        <extensions>
          <ns3:TrackPointExtension>
            <ns3:hr>95</ns3:hr>
            <ns3:cad>0</ns3:cad>
          </ns3:TrackPointExtension>
        </extensions>
      </trkpt>
      <trkpt lat="37.7716024406254291534423828125" lon="-107.7047204039990901947021484375">
        <ele>3910.800048828125</ele>
        <time>2023-07-29T17:12:40.000Z</time>
        <extensions>
          <ns3:TrackPointExtension>
            <ns3:hr>94</ns3:hr>
            <ns3:cad>0</ns3:cad>
          </ns3:TrackPointExtension>
        </extensions>
      </trkpt>
      <trkpt lat="37.7716000936925411224365234375" lon="-107.704722918570041656494140625">
        <ele>3910.800048828125</ele>
        <time>2023-07-29T17:12:41.000Z</time>
        <extensions>
          <ns3:TrackPointExtension>
            <ns3:hr>94</ns3:hr>
            <ns3:cad>0</ns3:cad>
          </ns3:TrackPointExtension>
        </extensions>
      </trkpt>
      <trkpt lat="37.771597914397716522216796875" lon="-107.7047334797680377960205078125">
        <ele>3910.60009765625</ele>
        <time>2023-07-29T17:12:42.000Z</time>
        <extensions>
          <ns3:TrackPointExtension>
            <ns3:hr>94</ns3:hr>
            <ns3:cad>0</ns3:cad>
          </ns3:TrackPointExtension>
        </extensions>
      </trkpt>
      <trkpt lat="37.77159682475030422210693359375" lon="-107.70473959855735301971435546875">
        <ele>3910.39990234375</ele>
        <time>2023-07-29T17:12:43.000Z</time>
        <extensions>
          <ns3:TrackPointExtension>
            <ns3:hr>94</ns3:hr>
            <ns3:cad>0</ns3:cad>
          </ns3:TrackPointExtension>
        </extensions>
      </trkpt>
      <trkpt lat="37.771594226360321044921875" lon="-107.70475217141211032867431640625">
        <ele>3910.199951171875</ele>
        <time>2023-07-29T17:12:44.000Z</time>
        <extensions>
          <ns3:TrackPointExtension>
            <ns3:hr>94</ns3:hr>
            <ns3:cad>0</ns3:cad>
          </ns3:TrackPointExtension>
        </extensions>
      </trkpt>
      <trkpt lat="37.77159363962709903717041015625" lon="-107.70476558245718479156494140625">
        <ele>3910</ele>
        <time>2023-07-29T17:12:45.000Z</time>
        <extensions>
          <ns3:TrackPointExtension>
            <ns3:hr>94</ns3:hr>
            <ns3:cad>0</ns3:cad>
          </ns3:TrackPointExtension>
        </extensions>
      </trkpt>
      <trkpt lat="37.77159447781741619110107421875" lon="-107.70477932877838611602783203125">
        <ele>3909.60009765625</ele>
        <time>2023-07-29T17:12:46.000Z</time>
        <extensions>
          <ns3:TrackPointExtension>
            <ns3:hr>94</ns3:hr>
            <ns3:cad>0</ns3:cad>
          </ns3:TrackPointExtension>
        </extensions>
      </trkpt>
      <trkpt lat="37.7715984173119068145751953125" lon="-107.7047854475677013397216796875">
        <ele>3909.199951171875</ele>
        <time>2023-07-29T17:12:47.000Z</time>
        <extensions>
          <ns3:TrackPointExtension>
            <ns3:hr>94</ns3:hr>
            <ns3:cad>0</ns3:cad>
          </ns3:TrackPointExtension>
        </extensions>
      </trkpt>
      <trkpt lat="37.7716041170060634613037109375" lon="-107.70479575730860233306884765625">
        <ele>3909</ele>
        <time>2023-07-29T17:12:48.000Z</time>
        <extensions>
          <ns3:TrackPointExtension>
            <ns3:hr>94</ns3:hr>
            <ns3:cad>0</ns3:cad>
          </ns3:TrackPointExtension>
        </extensions>
      </trkpt>
      <trkpt lat="37.77161207981407642364501953125" lon="-107.7048070728778839111328125">
        <ele>3908.800048828125</ele>
        <time>2023-07-29T17:12:49.000Z</time>
        <extensions>
          <ns3:TrackPointExtension>
            <ns3:hr>94</ns3:hr>
            <ns3:cad>0</ns3:cad>
          </ns3:TrackPointExtension>
        </extensions>
      </trkpt>
      <trkpt lat="37.77161526493728160858154296875" lon="-107.7048136107623577117919921875">
        <ele>3908.39990234375</ele>
        <time>2023-07-29T17:12:50.000Z</time>
        <extensions>
          <ns3:TrackPointExtension>
            <ns3:hr>94</ns3:hr>
            <ns3:cad>0</ns3:cad>
          </ns3:TrackPointExtension>
        </extensions>
      </trkpt>
      <trkpt lat="37.77161845006048679351806640625" lon="-107.7048216573894023895263671875">
        <ele>3908.199951171875</ele>
        <time>2023-07-29T17:12:51.000Z</time>
        <extensions>
          <ns3:TrackPointExtension>
            <ns3:hr>94</ns3:hr>
            <ns3:cad>0</ns3:cad>
          </ns3:TrackPointExtension>
        </extensions>
      </trkpt>
      <trkpt lat="37.77162599377334117889404296875" lon="-107.70484127104282379150390625">
        <ele>3908</ele>
        <time>2023-07-29T17:12:52.000Z</time>
        <extensions>
          <ns3:TrackPointExtension>
            <ns3:hr>94</ns3:hr>
            <ns3:cad>0</ns3:cad>
          </ns3:TrackPointExtension>
        </extensions>
      </trkpt>
      <trkpt lat="37.7716292627155780792236328125" lon="-107.704854346811771392822265625">
        <ele>3907.800048828125</ele>
        <time>2023-07-29T17:12:53.000Z</time>
        <extensions>
          <ns3:TrackPointExtension>
            <ns3:hr>94</ns3:hr>
            <ns3:cad>0</ns3:cad>
          </ns3:TrackPointExtension>
        </extensions>
      </trkpt>
      <trkpt lat="37.77163219638168811798095703125" lon="-107.70487002097070217132568359375">
        <ele>3907.39990234375</ele>
        <time>2023-07-29T17:12:54.000Z</time>
        <extensions>
          <ns3:TrackPointExtension>
            <ns3:hr>94</ns3:hr>
            <ns3:cad>0</ns3:cad>
          </ns3:TrackPointExtension>
        </extensions>
      </trkpt>
      <trkpt lat="37.7716336213052272796630859375" lon="-107.704883851110935211181640625">
        <ele>3907.199951171875</ele>
        <time>2023-07-29T17:12:55.000Z</time>
        <extensions>
          <ns3:TrackPointExtension>
            <ns3:hr>95</ns3:hr>
            <ns3:cad>0</ns3:cad>
          </ns3:TrackPointExtension>
        </extensions>
      </trkpt>
      <trkpt lat="37.77163538150489330291748046875" lon="-107.70489734597504138946533203125">
        <ele>3906.800048828125</ele>
        <time>2023-07-29T17:12:56.000Z</time>
        <extensions>
          <ns3:TrackPointExtension>
            <ns3:hr>95</ns3:hr>
            <ns3:cad>0</ns3:cad>
          </ns3:TrackPointExtension>
        </extensions>
      </trkpt>
      <trkpt lat="37.77163621969521045684814453125" lon="-107.704909332096576690673828125">
        <ele>3906.60009765625</ele>
        <time>2023-07-29T17:12:57.000Z</time>
        <extensions>
          <ns3:TrackPointExtension>
            <ns3:hr>96</ns3:hr>
            <ns3:cad>0</ns3:cad>
          </ns3:TrackPointExtension>
        </extensions>
      </trkpt>
      <trkpt lat="37.771638147532939910888671875" lon="-107.70492332987487316131591796875">
        <ele>3906</ele>
        <time>2023-07-29T17:12:58.000Z</time>
        <extensions>
          <ns3:TrackPointExtension>
            <ns3:hr>96</ns3:hr>
            <ns3:cad>0</ns3:cad>
          </ns3:TrackPointExtension>
        </extensions>
      </trkpt>
      <trkpt lat="37.7716403268277645111083984375" lon="-107.70494185388088226318359375">
        <ele>3905.800048828125</ele>
        <time>2023-07-29T17:12:59.000Z</time>
        <extensions>
          <ns3:TrackPointExtension>
            <ns3:hr>97</ns3:hr>
            <ns3:cad>0</ns3:cad>
          </ns3:TrackPointExtension>
        </extensions>
      </trkpt>
      <trkpt lat="37.7716416679322719573974609375" lon="-107.70495794713497161865234375">
        <ele>3905.60009765625</ele>
        <time>2023-07-29T17:13:00.000Z</time>
        <extensions>
          <ns3:TrackPointExtension>
            <ns3:hr>97</ns3:hr>
            <ns3:cad>0</ns3:cad>
          </ns3:TrackPointExtension>
        </extensions>
      </trkpt>
      <trkpt lat="37.77164376340806484222412109375" lon="-107.70497328601777553558349609375">
        <ele>3905.199951171875</ele>
        <time>2023-07-29T17:13:01.000Z</time>
        <extensions>
          <ns3:TrackPointExtension>
            <ns3:hr>97</ns3:hr>
            <ns3:cad>43</ns3:cad>
          </ns3:TrackPointExtension>
        </extensions>
      </trkpt>
      <trkpt lat="37.7716446854174137115478515625" lon="-107.7049842663109302520751953125">
        <ele>3905.199951171875</ele>
        <time>2023-07-29T17:13:02.000Z</time>
        <extensions>
          <ns3:TrackPointExtension>
            <ns3:hr>97</ns3:hr>
            <ns3:cad>43</ns3:cad>
          </ns3:TrackPointExtension>
        </extensions>
      </trkpt>
      <trkpt lat="37.77164510451257228851318359375" lon="-107.7049949951469898223876953125">
        <ele>3904.800048828125</ele>
        <time>2023-07-29T17:13:03.000Z</time>
        <extensions>
          <ns3:TrackPointExtension>
            <ns3:hr>98</ns3:hr>
            <ns3:cad>43</ns3:cad>
          </ns3:TrackPointExtension>
        </extensions>
      </trkpt>
      <trkpt lat="37.77164644561707973480224609375" lon="-107.70500916056334972381591796875">
        <ele>3904.60009765625</ele>
        <time>2023-07-29T17:13:04.000Z</time>
        <extensions>
          <ns3:TrackPointExtension>
            <ns3:hr>98</ns3:hr>
            <ns3:cad>43</ns3:cad>
          </ns3:TrackPointExtension>
        </extensions>
      </trkpt>
      <trkpt lat="37.77164862491190433502197265625" lon="-107.70500899292528629302978515625">
        <ele>3904.199951171875</ele>
        <time>2023-07-29T17:13:05.000Z</time>
        <extensions>
          <ns3:TrackPointExtension>
            <ns3:hr>99</ns3:hr>
            <ns3:cad>43</ns3:cad>
          </ns3:TrackPointExtension>
        </extensions>
      </trkpt>
      <trkpt lat="37.77165080420672893524169921875" lon="-107.70502097904682159423828125">
        <ele>3904</ele>
        <time>2023-07-29T17:13:06.000Z</time>
        <extensions>
          <ns3:TrackPointExtension>
            <ns3:hr>99</ns3:hr>
            <ns3:cad>43</ns3:cad>
          </ns3:TrackPointExtension>
        </extensions>
      </trkpt>
      <trkpt lat="37.77165365405380725860595703125" lon="-107.7050348930060863494873046875">
        <ele>3903.60009765625</ele>
        <time>2023-07-29T17:13:07.000Z</time>
        <extensions>
          <ns3:TrackPointExtension>
            <ns3:hr>99</ns3:hr>
            <ns3:cad>43</ns3:cad>
          </ns3:TrackPointExtension>
        </extensions>
      </trkpt>
      <trkpt lat="37.77165566571056842803955078125" lon="-107.70504134707152843475341796875">
        <ele>3903.39990234375</ele>
        <time>2023-07-29T17:13:08.000Z</time>
        <extensions>
          <ns3:TrackPointExtension>
            <ns3:hr>99</ns3:hr>
            <ns3:cad>43</ns3:cad>
          </ns3:TrackPointExtension>
        </extensions>
      </trkpt>
      <trkpt lat="37.77165667153894901275634765625" lon="-107.70504704676568508148193359375">
        <ele>3903.199951171875</ele>
        <time>2023-07-29T17:13:09.000Z</time>
        <extensions>
          <ns3:TrackPointExtension>
            <ns3:hr>99</ns3:hr>
            <ns3:cad>43</ns3:cad>
          </ns3:TrackPointExtension>
        </extensions>
      </trkpt>
      <trkpt lat="37.77165784500539302825927734375" lon="-107.7050576917827129364013671875">
        <ele>3902.800048828125</ele>
        <time>2023-07-29T17:13:10.000Z</time>
        <extensions>
          <ns3:TrackPointExtension>
            <ns3:hr>99</ns3:hr>
            <ns3:cad>43</ns3:cad>
          </ns3:TrackPointExtension>
        </extensions>
      </trkpt>
      <trkpt lat="37.771658264100551605224609375" lon="-107.70506347529590129852294921875">
        <ele>3902.60009765625</ele>
        <time>2023-07-29T17:13:11.000Z</time>
        <extensions>
          <ns3:TrackPointExtension>
            <ns3:hr>99</ns3:hr>
            <ns3:cad>43</ns3:cad>
          </ns3:TrackPointExtension>
        </extensions>
      </trkpt>
      <trkpt lat="37.77165935374796390533447265625" lon="-107.705078311264514923095703125">
        <ele>3902.39990234375</ele>
        <time>2023-07-29T17:13:12.000Z</time>
        <extensions>
          <ns3:TrackPointExtension>
            <ns3:hr>99</ns3:hr>
            <ns3:cad>43</ns3:cad>
          </ns3:TrackPointExtension>
        </extensions>
      </trkpt>
      <trkpt lat="37.77166136540472507476806640625" lon="-107.7050902135670185089111328125">
        <ele>3902</ele>
        <time>2023-07-29T17:13:13.000Z</time>
        <extensions>
          <ns3:TrackPointExtension>
            <ns3:hr>99</ns3:hr>
            <ns3:cad>43</ns3:cad>
          </ns3:TrackPointExtension>
        </extensions>
      </trkpt>
      <trkpt lat="37.77166387997567653656005859375" lon="-107.7051056362688541412353515625">
        <ele>3901.800048828125</ele>
        <time>2023-07-29T17:13:14.000Z</time>
        <extensions>
          <ns3:TrackPointExtension>
            <ns3:hr>99</ns3:hr>
            <ns3:cad>43</ns3:cad>
          </ns3:TrackPointExtension>
        </extensions>
      </trkpt>
      <trkpt lat="37.77166605927050113677978515625" lon="-107.70511192269623279571533203125">
        <ele>3901.60009765625</ele>
        <time>2023-07-29T17:13:15.000Z</time>
        <extensions>
          <ns3:TrackPointExtension>
            <ns3:hr>99</ns3:hr>
            <ns3:cad>43</ns3:cad>
          </ns3:TrackPointExtension>
        </extensions>
      </trkpt>
      <trkpt lat="37.77166622690856456756591796875" lon="-107.705120556056499481201171875">
        <ele>3901.39990234375</ele>
        <time>2023-07-29T17:13:16.000Z</time>
        <extensions>
          <ns3:TrackPointExtension>
            <ns3:hr>99</ns3:hr>
            <ns3:cad>43</ns3:cad>
          </ns3:TrackPointExtension>
        </extensions>
      </trkpt>
      <trkpt lat="37.77166706509888172149658203125" lon="-107.70512583665549755096435546875">
        <ele>3901</ele>
        <time>2023-07-29T17:13:17.000Z</time>
        <extensions>
          <ns3:TrackPointExtension>
            <ns3:hr>99</ns3:hr>
            <ns3:cad>43</ns3:cad>
          </ns3:TrackPointExtension>
        </extensions>
      </trkpt>
      <trkpt lat="37.77166924439370632171630859375" lon="-107.705134637653827667236328125">
        <ele>3901</ele>
        <time>2023-07-29T17:13:18.000Z</time>
        <extensions>
          <ns3:TrackPointExtension>
            <ns3:hr>99</ns3:hr>
            <ns3:cad>43</ns3:cad>
          </ns3:TrackPointExtension>
        </extensions>
      </trkpt>
      <trkpt lat="37.77167259715497493743896484375" lon="-107.70514008589088916778564453125">
        <ele>3900.800048828125</ele>
        <time>2023-07-29T17:13:19.000Z</time>
        <extensions>
          <ns3:TrackPointExtension>
            <ns3:hr>99</ns3:hr>
            <ns3:cad>43</ns3:cad>
          </ns3:TrackPointExtension>
        </extensions>
      </trkpt>
      <trkpt lat="37.7716733515262603759765625" lon="-107.70514570176601409912109375">
        <ele>3900.60009765625</ele>
        <time>2023-07-29T17:13:20.000Z</time>
        <extensions>
          <ns3:TrackPointExtension>
            <ns3:hr>99</ns3:hr>
            <ns3:cad>43</ns3:cad>
          </ns3:TrackPointExtension>
        </extensions>
      </trkpt>
      <trkpt lat="37.77167326770722866058349609375" lon="-107.70514880307018756866455078125">
        <ele>3900.199951171875</ele>
        <time>2023-07-29T17:13:21.000Z</time>
        <extensions>
          <ns3:TrackPointExtension>
            <ns3:hr>99</ns3:hr>
            <ns3:cad>43</ns3:cad>
          </ns3:TrackPointExtension>
        </extensions>
      </trkpt>
      <trkpt lat="37.771672345697879791259765625" lon="-107.70515886135399341583251953125">
        <ele>3900</ele>
        <time>2023-07-29T17:13:22.000Z</time>
        <extensions>
          <ns3:TrackPointExtension>
            <ns3:hr>99</ns3:hr>
            <ns3:cad>43</ns3:cad>
          </ns3:TrackPointExtension>
        </extensions>
      </trkpt>
      <trkpt lat="37.7716725133359432220458984375" lon="-107.7051633037626743316650390625">
        <ele>3900</ele>
        <time>2023-07-29T17:13:23.000Z</time>
        <extensions>
          <ns3:TrackPointExtension>
            <ns3:hr>99</ns3:hr>
            <ns3:cad>43</ns3:cad>
          </ns3:TrackPointExtension>
        </extensions>
      </trkpt>
      <trkpt lat="37.77167008258402347564697265625" lon="-107.70517612807452678680419921875">
        <ele>3899.60009765625</ele>
        <time>2023-07-29T17:13:24.000Z</time>
        <extensions>
          <ns3:TrackPointExtension>
            <ns3:hr>99</ns3:hr>
            <ns3:cad>43</ns3:cad>
          </ns3:TrackPointExtension>
        </extensions>
      </trkpt>
      <trkpt lat="37.77166706509888172149658203125" lon="-107.7051906287670135498046875">
        <ele>3899.60009765625</ele>
        <time>2023-07-29T17:13:25.000Z</time>
        <extensions>
          <ns3:TrackPointExtension>
            <ns3:hr>99</ns3:hr>
            <ns3:cad>43</ns3:cad>
          </ns3:TrackPointExtension>
        </extensions>
      </trkpt>
      <trkpt lat="37.77166639454662799835205078125" lon="-107.70520932041108608245849609375">
        <ele>3899.39990234375</ele>
        <time>2023-07-29T17:13:26.000Z</time>
        <extensions>
          <ns3:TrackPointExtension>
            <ns3:hr>99</ns3:hr>
            <ns3:cad>43</ns3:cad>
          </ns3:TrackPointExtension>
        </extensions>
      </trkpt>
      <trkpt lat="37.77167444117367267608642578125" lon="-107.70522558130323886871337890625">
        <ele>3899</ele>
        <time>2023-07-29T17:13:27.000Z</time>
        <extensions>
          <ns3:TrackPointExtension>
            <ns3:hr>99</ns3:hr>
            <ns3:cad>43</ns3:cad>
          </ns3:TrackPointExtension>
        </extensions>
      </trkpt>
      <trkpt lat="37.7716827392578125" lon="-107.70524402149021625518798828125">
        <ele>3899</ele>
        <time>2023-07-29T17:13:28.000Z</time>
        <extensions>
          <ns3:TrackPointExtension>
            <ns3:hr>99</ns3:hr>
            <ns3:cad>77</ns3:cad>
          </ns3:TrackPointExtension>
        </extensions>
      </trkpt>
      <trkpt lat="37.7716855891048908233642578125" lon="-107.70525173284113407135009765625">
        <ele>3898.60009765625</ele>
        <time>2023-07-29T17:13:29.000Z</time>
        <extensions>
          <ns3:TrackPointExtension>
            <ns3:hr>99</ns3:hr>
            <ns3:cad>77</ns3:cad>
          </ns3:TrackPointExtension>
        </extensions>
      </trkpt>
      <trkpt lat="37.77168433181941509246826171875" lon="-107.70526480861008167266845703125">
        <ele>3898.199951171875</ele>
        <time>2023-07-29T17:13:30.000Z</time>
        <extensions>
          <ns3:TrackPointExtension>
            <ns3:hr>99</ns3:hr>
            <ns3:cad>77</ns3:cad>
          </ns3:TrackPointExtension>
        </extensions>
      </trkpt>
      <trkpt lat="37.7716832421720027923583984375" lon="-107.705278135836124420166015625">
        <ele>3898</ele>
        <time>2023-07-29T17:13:31.000Z</time>
        <extensions>
          <ns3:TrackPointExtension>
            <ns3:hr>99</ns3:hr>
            <ns3:cad>77</ns3:cad>
          </ns3:TrackPointExtension>
        </extensions>
      </trkpt>
      <trkpt lat="37.771680057048797607421875" lon="-107.70527780055999755859375">
        <ele>3897.800048828125</ele>
        <time>2023-07-29T17:13:32.000Z</time>
        <extensions>
          <ns3:TrackPointExtension>
            <ns3:hr>99</ns3:hr>
            <ns3:cad>77</ns3:cad>
          </ns3:TrackPointExtension>
        </extensions>
      </trkpt>
      <trkpt lat="37.7716741897165775299072265625" lon="-107.705274783074855804443359375">
        <ele>3897.39990234375</ele>
        <time>2023-07-29T17:13:33.000Z</time>
        <extensions>
          <ns3:TrackPointExtension>
            <ns3:hr>99</ns3:hr>
            <ns3:cad>77</ns3:cad>
          </ns3:TrackPointExtension>
        </extensions>
      </trkpt>
      <trkpt lat="37.7716691605746746063232421875" lon="-107.705278806388378143310546875">
        <ele>3897.199951171875</ele>
        <time>2023-07-29T17:13:34.000Z</time>
        <extensions>
          <ns3:TrackPointExtension>
            <ns3:hr>99</ns3:hr>
            <ns3:cad>77</ns3:cad>
          </ns3:TrackPointExtension>
        </extensions>
      </trkpt>
      <trkpt lat="37.77166002430021762847900390625" lon="-107.7052843384444713592529296875">
        <ele>3897</ele>
        <time>2023-07-29T17:13:35.000Z</time>
        <extensions>
          <ns3:TrackPointExtension>
            <ns3:hr>99</ns3:hr>
            <ns3:cad>77</ns3:cad>
          </ns3:TrackPointExtension>
        </extensions>
      </trkpt>
      <trkpt lat="37.77166572399437427520751953125" lon="-107.70529481582343578338623046875">
        <ele>3896.800048828125</ele>
        <time>2023-07-29T17:13:36.000Z</time>
        <extensions>
          <ns3:TrackPointExtension>
            <ns3:hr>98</ns3:hr>
            <ns3:cad>77</ns3:cad>
          </ns3:TrackPointExtension>
        </extensions>
      </trkpt>
      <trkpt lat="37.77167058549821376800537109375" lon="-107.70530202426016330718994140625">
        <ele>3896.800048828125</ele>
        <time>2023-07-29T17:13:37.000Z</time>
        <extensions>
          <ns3:TrackPointExtension>
            <ns3:hr>98</ns3:hr>
            <ns3:cad>0</ns3:cad>
          </ns3:TrackPointExtension>
        </extensions>
      </trkpt>
      <trkpt lat="37.7716733515262603759765625" lon="-107.70530738867819309234619140625">
        <ele>3896.60009765625</ele>
        <time>2023-07-29T17:13:38.000Z</time>
        <extensions>
          <ns3:TrackPointExtension>
            <ns3:hr>98</ns3:hr>
            <ns3:cad>0</ns3:cad>
          </ns3:TrackPointExtension>
        </extensions>
      </trkpt>
      <trkpt lat="37.77167611755430698394775390625" lon="-107.70531325601041316986083984375">
        <ele>3896.199951171875</ele>
        <time>2023-07-29T17:13:39.000Z</time>
        <extensions>
          <ns3:TrackPointExtension>
            <ns3:hr>98</ns3:hr>
            <ns3:cad>0</ns3:cad>
          </ns3:TrackPointExtension>
        </extensions>
      </trkpt>
      <trkpt lat="37.7716758660972118377685546875" lon="-107.70532331429421901702880859375">
        <ele>3896</ele>
        <time>2023-07-29T17:13:40.000Z</time>
        <extensions>
          <ns3:TrackPointExtension>
            <ns3:hr>98</ns3:hr>
            <ns3:cad>0</ns3:cad>
          </ns3:TrackPointExtension>
        </extensions>
      </trkpt>
      <trkpt lat="37.77167737483978271484375" lon="-107.7053306065499782562255859375">
        <ele>3895.800048828125</ele>
        <time>2023-07-29T17:13:41.000Z</time>
        <extensions>
          <ns3:TrackPointExtension>
            <ns3:hr>98</ns3:hr>
            <ns3:cad>60</ns3:cad>
          </ns3:TrackPointExtension>
        </extensions>
      </trkpt>
      <trkpt lat="37.77167611755430698394775390625" lon="-107.70533354021608829498291015625">
        <ele>3895.60009765625</ele>
        <time>2023-07-29T17:13:42.000Z</time>
        <extensions>
          <ns3:TrackPointExtension>
            <ns3:hr>99</ns3:hr>
            <ns3:cad>60</ns3:cad>
          </ns3:TrackPointExtension>
        </extensions>
      </trkpt>
      <trkpt lat="37.77167460881173610687255859375" lon="-107.70533119328320026397705078125">
        <ele>3895.39990234375</ele>
        <time>2023-07-29T17:13:43.000Z</time>
        <extensions>
          <ns3:TrackPointExtension>
            <ns3:hr>99</ns3:hr>
            <ns3:cad>0</ns3:cad>
          </ns3:TrackPointExtension>
        </extensions>
      </trkpt>
      <trkpt lat="37.77167444117367267608642578125" lon="-107.70532750524580478668212890625">
        <ele>3895.39990234375</ele>
        <time>2023-07-29T17:13:44.000Z</time>
        <extensions>
          <ns3:TrackPointExtension>
            <ns3:hr>99</ns3:hr>
            <ns3:cad>0</ns3:cad>
          </ns3:TrackPointExtension>
        </extensions>
      </trkpt>
      <trkpt lat="37.7716718427836894989013671875" lon="-107.70533354021608829498291015625">
        <ele>3895</ele>
        <time>2023-07-29T17:13:45.000Z</time>
        <extensions>
          <ns3:TrackPointExtension>
            <ns3:hr>98</ns3:hr>
            <ns3:cad>0</ns3:cad>
          </ns3:TrackPointExtension>
        </extensions>
      </trkpt>
      <trkpt lat="37.77166840620338916778564453125" lon="-107.70533940754830837249755859375">
        <ele>3894.800048828125</ele>
        <time>2023-07-29T17:13:46.000Z</time>
        <extensions>
          <ns3:TrackPointExtension>
            <ns3:hr>98</ns3:hr>
            <ns3:cad>0</ns3:cad>
          </ns3:TrackPointExtension>
        </extensions>
      </trkpt>
      <trkpt lat="37.77166605927050113677978515625" lon="-107.70534644834697246551513671875">
        <ele>3894.60009765625</ele>
        <time>2023-07-29T17:13:47.000Z</time>
        <extensions>
          <ns3:TrackPointExtension>
            <ns3:hr>98</ns3:hr>
            <ns3:cad>0</ns3:cad>
          </ns3:TrackPointExtension>
        </extensions>
      </trkpt>
      <trkpt lat="37.77166304178535938262939453125" lon="-107.70535550080239772796630859375">
        <ele>3894.39990234375</ele>
        <time>2023-07-29T17:13:48.000Z</time>
        <extensions>
          <ns3:TrackPointExtension>
            <ns3:hr>99</ns3:hr>
            <ns3:cad>0</ns3:cad>
          </ns3:TrackPointExtension>
        </extensions>
      </trkpt>
      <trkpt lat="37.77166320942342281341552734375" lon="-107.70536237396299839019775390625">
        <ele>3894.39990234375</ele>
        <time>2023-07-29T17:13:49.000Z</time>
        <extensions>
          <ns3:TrackPointExtension>
            <ns3:hr>100</ns3:hr>
            <ns3:cad>0</ns3:cad>
          </ns3:TrackPointExtension>
        </extensions>
      </trkpt>
      <trkpt lat="37.771663963794708251953125" lon="-107.70537042059004306793212890625">
        <ele>3894</ele>
        <time>2023-07-29T17:13:50.000Z</time>
        <extensions>
          <ns3:TrackPointExtension>
            <ns3:hr>102</ns3:hr>
            <ns3:cad>0</ns3:cad>
          </ns3:TrackPointExtension>
        </extensions>
      </trkpt>
      <trkpt lat="37.771666310727596282958984375" lon="-107.70538131706416606903076171875">
        <ele>3893.800048828125</ele>
        <time>2023-07-29T17:13:51.000Z</time>
        <extensions>
          <ns3:TrackPointExtension>
            <ns3:hr>103</ns3:hr>
            <ns3:cad>0</ns3:cad>
          </ns3:TrackPointExtension>
        </extensions>
      </trkpt>
      <trkpt lat="37.7716679871082305908203125" lon="-107.70539338700473308563232421875">
        <ele>3893.39990234375</ele>
        <time>2023-07-29T17:13:52.000Z</time>
        <extensions>
          <ns3:TrackPointExtension>
            <ns3:hr>104</ns3:hr>
            <ns3:cad>0</ns3:cad>
          </ns3:TrackPointExtension>
        </extensions>
      </trkpt>
      <trkpt lat="37.77166991494596004486083984375" lon="-107.70541098900139331817626953125">
        <ele>3893</ele>
        <time>2023-07-29T17:13:53.000Z</time>
        <extensions>
          <ns3:TrackPointExtension>
            <ns3:hr>104</ns3:hr>
            <ns3:cad>0</ns3:cad>
          </ns3:TrackPointExtension>
        </extensions>
      </trkpt>
      <trkpt lat="37.77167326770722866058349609375" lon="-107.70542641170322895050048828125">
        <ele>3892.800048828125</ele>
        <time>2023-07-29T17:13:54.000Z</time>
        <extensions>
          <ns3:TrackPointExtension>
            <ns3:hr>105</ns3:hr>
            <ns3:cad>0</ns3:cad>
          </ns3:TrackPointExtension>
        </extensions>
      </trkpt>
      <trkpt lat="37.77167678810656070709228515625" lon="-107.70544133149087429046630859375">
        <ele>3892.60009765625</ele>
        <time>2023-07-29T17:13:55.000Z</time>
        <extensions>
          <ns3:TrackPointExtension>
            <ns3:hr>105</ns3:hr>
            <ns3:cad>0</ns3:cad>
          </ns3:TrackPointExtension>
        </extensions>
      </trkpt>
      <trkpt lat="37.77167896740138530731201171875" lon="-107.70545641891658306121826171875">
        <ele>3892.39990234375</ele>
        <time>2023-07-29T17:13:56.000Z</time>
        <extensions>
          <ns3:TrackPointExtension>
            <ns3:hr>105</ns3:hr>
            <ns3:cad>0</ns3:cad>
          </ns3:TrackPointExtension>
        </extensions>
      </trkpt>
      <trkpt lat="37.771682403981685638427734375" lon="-107.70547368563711643218994140625">
        <ele>3892.199951171875</ele>
        <time>2023-07-29T17:13:57.000Z</time>
        <extensions>
          <ns3:TrackPointExtension>
            <ns3:hr>104</ns3:hr>
            <ns3:cad>0</ns3:cad>
          </ns3:TrackPointExtension>
        </extensions>
      </trkpt>
      <trkpt lat="37.77168433181941509246826171875" lon="-107.70548374392092227935791015625">
        <ele>3892</ele>
        <time>2023-07-29T17:13:58.000Z</time>
        <extensions>
          <ns3:TrackPointExtension>
            <ns3:hr>104</ns3:hr>
            <ns3:cad>0</ns3:cad>
          </ns3:TrackPointExtension>
        </extensions>
      </trkpt>
      <trkpt lat="37.77168768458068370819091796875" lon="-107.70549279637634754180908203125">
        <ele>3891.60009765625</ele>
        <time>2023-07-29T17:13:59.000Z</time>
        <extensions>
          <ns3:TrackPointExtension>
            <ns3:hr>103</ns3:hr>
            <ns3:cad>0</ns3:cad>
          </ns3:TrackPointExtension>
        </extensions>
      </trkpt>
      <trkpt lat="37.77169019915163516998291015625" lon="-107.7055009268224239349365234375">
        <ele>3891.39990234375</ele>
        <time>2023-07-29T17:14:00.000Z</time>
        <extensions>
          <ns3:TrackPointExtension>
            <ns3:hr>102</ns3:hr>
            <ns3:cad>0</ns3:cad>
          </ns3:TrackPointExtension>
        </extensions>
      </trkpt>
      <trkpt lat="37.77169187553226947784423828125" lon="-107.7055099792778491973876953125">
        <ele>3891.199951171875</ele>
        <time>2023-07-29T17:14:01.000Z</time>
        <extensions>
          <ns3:TrackPointExtension>
            <ns3:hr>101</ns3:hr>
            <ns3:cad>0</ns3:cad>
          </ns3:TrackPointExtension>
        </extensions>
      </trkpt>
      <trkpt lat="37.771693132817745208740234375" lon="-107.70552121102809906005859375">
        <ele>3891</ele>
        <time>2023-07-29T17:14:02.000Z</time>
        <extensions>
          <ns3:TrackPointExtension>
            <ns3:hr>101</ns3:hr>
            <ns3:cad>0</ns3:cad>
          </ns3:TrackPointExtension>
        </extensions>
      </trkpt>
      <trkpt lat="37.77169439010322093963623046875" lon="-107.70553319714963436126708984375">
        <ele>3890.800048828125</ele>
        <time>2023-07-29T17:14:03.000Z</time>
        <extensions>
          <ns3:TrackPointExtension>
            <ns3:hr>101</ns3:hr>
            <ns3:cad>0</ns3:cad>
          </ns3:TrackPointExtension>
        </extensions>
      </trkpt>
      <trkpt lat="37.771701514720916748046875" lon="-107.7055398188531398773193359375">
        <ele>3890.60009765625</ele>
        <time>2023-07-29T17:14:04.000Z</time>
        <extensions>
          <ns3:TrackPointExtension>
            <ns3:hr>101</ns3:hr>
            <ns3:cad>0</ns3:cad>
          </ns3:TrackPointExtension>
        </extensions>
      </trkpt>
      <trkpt lat="37.77170545421540737152099609375" lon="-107.70554493181407451629638671875">
        <ele>3890.39990234375</ele>
        <time>2023-07-29T17:14:05.000Z</time>
        <extensions>
          <ns3:TrackPointExtension>
            <ns3:hr>101</ns3:hr>
            <ns3:cad>55</ns3:cad>
          </ns3:TrackPointExtension>
        </extensions>
      </trkpt>
      <trkpt lat="37.77170696295797824859619140625" lon="-107.70555113442242145538330078125">
        <ele>3890.199951171875</ele>
        <time>2023-07-29T17:14:06.000Z</time>
        <extensions>
          <ns3:TrackPointExtension>
            <ns3:hr>101</ns3:hr>
            <ns3:cad>55</ns3:cad>
          </ns3:TrackPointExtension>
        </extensions>
      </trkpt>
      <trkpt lat="37.7717107348144054412841796875" lon="-107.7055632881820201873779296875">
        <ele>3890</ele>
        <time>2023-07-29T17:14:07.000Z</time>
        <extensions>
          <ns3:TrackPointExtension>
            <ns3:hr>100</ns3:hr>
            <ns3:cad>55</ns3:cad>
          </ns3:TrackPointExtension>
        </extensions>
      </trkpt>
      <trkpt lat="37.77171718887984752655029296875" lon="-107.7055770345032215118408203125">
        <ele>3890</ele>
        <time>2023-07-29T17:14:08.000Z</time>
        <extensions>
          <ns3:TrackPointExtension>
            <ns3:hr>100</ns3:hr>
            <ns3:cad>0</ns3:cad>
          </ns3:TrackPointExtension>
        </extensions>
      </trkpt>
      <trkpt lat="37.77172096073627471923828125" lon="-107.70558550022542476654052734375">
        <ele>3889.800048828125</ele>
        <time>2023-07-29T17:14:09.000Z</time>
        <extensions>
          <ns3:TrackPointExtension>
            <ns3:hr>101</ns3:hr>
            <ns3:cad>0</ns3:cad>
          </ns3:TrackPointExtension>
        </extensions>
      </trkpt>
      <trkpt lat="37.77172339148819446563720703125" lon="-107.70559287630021572113037109375">
        <ele>3889.60009765625</ele>
        <time>2023-07-29T17:14:10.000Z</time>
        <extensions>
          <ns3:TrackPointExtension>
            <ns3:hr>101</ns3:hr>
            <ns3:cad>0</ns3:cad>
          </ns3:TrackPointExtension>
        </extensions>
      </trkpt>
      <trkpt lat="37.7717224694788455963134765625" lon="-107.70559924654662609100341796875">
        <ele>3889.39990234375</ele>
        <time>2023-07-29T17:14:11.000Z</time>
        <extensions>
          <ns3:TrackPointExtension>
            <ns3:hr>101</ns3:hr>
            <ns3:cad>0</ns3:cad>
          </ns3:TrackPointExtension>
        </extensions>
      </trkpt>
      <trkpt lat="37.77172070927917957305908203125" lon="-107.70560628734529018402099609375">
        <ele>3889.199951171875</ele>
        <time>2023-07-29T17:14:12.000Z</time>
        <extensions>
          <ns3:TrackPointExtension>
            <ns3:hr>101</ns3:hr>
            <ns3:cad>0</ns3:cad>
          </ns3:TrackPointExtension>
        </extensions>
      </trkpt>
      <trkpt lat="37.77171785943210124969482421875" lon="-107.70561106503009796142578125">
        <ele>3889</ele>
        <time>2023-07-29T17:14:13.000Z</time>
        <extensions>
          <ns3:TrackPointExtension>
            <ns3:hr>101</ns3:hr>
            <ns3:cad>0</ns3:cad>
          </ns3:TrackPointExtension>
        </extensions>
      </trkpt>
      <trkpt lat="37.77172096073627471923828125" lon="-107.70561466924846172332763671875">
        <ele>3888.800048828125</ele>
        <time>2023-07-29T17:14:14.000Z</time>
        <extensions>
          <ns3:TrackPointExtension>
            <ns3:hr>101</ns3:hr>
            <ns3:cad>0</ns3:cad>
          </ns3:TrackPointExtension>
        </extensions>
      </trkpt>
      <trkpt lat="37.77172372676432132720947265625" lon="-107.70561768673360347747802734375">
        <ele>3888.60009765625</ele>
        <time>2023-07-29T17:14:15.000Z</time>
        <extensions>
          <ns3:TrackPointExtension>
            <ns3:hr>101</ns3:hr>
            <ns3:cad>0</ns3:cad>
          </ns3:TrackPointExtension>
        </extensions>
      </trkpt>
      <trkpt lat="37.7717269957065582275390625" lon="-107.7056197822093963623046875">
        <ele>3888.39990234375</ele>
        <time>2023-07-29T17:14:16.000Z</time>
        <extensions>
          <ns3:TrackPointExtension>
            <ns3:hr>101</ns3:hr>
            <ns3:cad>0</ns3:cad>
          </ns3:TrackPointExtension>
        </extensions>
      </trkpt>
      <trkpt lat="37.77172925882041454315185546875" lon="-107.70562715828418731689453125">
        <ele>3888.199951171875</ele>
        <time>2023-07-29T17:14:17.000Z</time>
        <extensions>
          <ns3:TrackPointExtension>
            <ns3:hr>101</ns3:hr>
            <ns3:cad>0</ns3:cad>
          </ns3:TrackPointExtension>
        </extensions>
      </trkpt>
      <trkpt lat="37.7717296779155731201171875" lon="-107.705632187426090240478515625">
        <ele>3888</ele>
        <time>2023-07-29T17:14:18.000Z</time>
        <extensions>
          <ns3:TrackPointExtension>
            <ns3:hr>101</ns3:hr>
            <ns3:cad>0</ns3:cad>
          </ns3:TrackPointExtension>
        </extensions>
      </trkpt>
      <trkpt lat="37.77173034846782684326171875" lon="-107.70564400590956211090087890625">
        <ele>3887.800048828125</ele>
        <time>2023-07-29T17:14:19.000Z</time>
        <extensions>
          <ns3:TrackPointExtension>
            <ns3:hr>101</ns3:hr>
            <ns3:cad>0</ns3:cad>
          </ns3:TrackPointExtension>
        </extensions>
      </trkpt>
      <trkpt lat="37.7717291750013828277587890625" lon="-107.70565154962241649627685546875">
        <ele>3887.60009765625</ele>
        <time>2023-07-29T17:14:20.000Z</time>
        <extensions>
          <ns3:TrackPointExtension>
            <ns3:hr>101</ns3:hr>
            <ns3:cad>0</ns3:cad>
          </ns3:TrackPointExtension>
        </extensions>
      </trkpt>
      <trkpt lat="37.77172498404979705810546875" lon="-107.70565691404044628143310546875">
        <ele>3887.39990234375</ele>
        <time>2023-07-29T17:14:21.000Z</time>
        <extensions>
          <ns3:TrackPointExtension>
            <ns3:hr>102</ns3:hr>
            <ns3:cad>0</ns3:cad>
          </ns3:TrackPointExtension>
        </extensions>
      </trkpt>
      <trkpt lat="37.77172205038368701934814453125" lon="-107.70565758459270000457763671875">
        <ele>3887.199951171875</ele>
        <time>2023-07-29T17:14:22.000Z</time>
        <extensions>
          <ns3:TrackPointExtension>
            <ns3:hr>101</ns3:hr>
            <ns3:cad>0</ns3:cad>
          </ns3:TrackPointExtension>
        </extensions>
      </trkpt>
      <trkpt lat="37.7717160992324352264404296875" lon="-107.7056591771543025970458984375">
        <ele>3887.199951171875</ele>
        <time>2023-07-29T17:14:23.000Z</time>
        <extensions>
          <ns3:TrackPointExtension>
            <ns3:hr>101</ns3:hr>
            <ns3:cad>0</ns3:cad>
          </ns3:TrackPointExtension>
        </extensions>
      </trkpt>
      <trkpt lat="37.7717127464711666107177734375" lon="-107.705654315650463104248046875">
        <ele>3887.199951171875</ele>
        <time>2023-07-29T17:14:24.000Z</time>
        <extensions>
          <ns3:TrackPointExtension>
            <ns3:hr>101</ns3:hr>
            <ns3:cad>0</ns3:cad>
          </ns3:TrackPointExtension>
        </extensions>
      </trkpt>
      <trkpt lat="37.77171450667083263397216796875" lon="-107.705649621784687042236328125">
        <ele>3887</ele>
        <time>2023-07-29T17:14:25.000Z</time>
        <extensions>
          <ns3:TrackPointExtension>
            <ns3:hr>101</ns3:hr>
            <ns3:cad>0</ns3:cad>
          </ns3:TrackPointExtension>
        </extensions>
      </trkpt>
      <trkpt lat="37.77171601541340351104736328125" lon="-107.7056564949452877044677734375">
        <ele>3887</ele>
        <time>2023-07-29T17:14:26.000Z</time>
        <extensions>
          <ns3:TrackPointExtension>
            <ns3:hr>101</ns3:hr>
            <ns3:cad>0</ns3:cad>
          </ns3:TrackPointExtension>
        </extensions>
      </trkpt>
      <trkpt lat="37.7717135846614837646484375" lon="-107.7056635357439517974853515625">
        <ele>3886.800048828125</ele>
        <time>2023-07-29T17:14:27.000Z</time>
        <extensions>
          <ns3:TrackPointExtension>
            <ns3:hr>101</ns3:hr>
            <ns3:cad>0</ns3:cad>
          </ns3:TrackPointExtension>
        </extensions>
      </trkpt>
      <trkpt lat="37.77171148918569087982177734375" lon="-107.705666720867156982421875">
        <ele>3886.60009765625</ele>
        <time>2023-07-29T17:14:28.000Z</time>
        <extensions>
          <ns3:TrackPointExtension>
            <ns3:hr>101</ns3:hr>
            <ns3:cad>0</ns3:cad>
          </ns3:TrackPointExtension>
        </extensions>
      </trkpt>
      <trkpt lat="37.77170998044312000274658203125" lon="-107.705669738352298736572265625">
        <ele>3886.39990234375</ele>
        <time>2023-07-29T17:14:29.000Z</time>
        <extensions>
          <ns3:TrackPointExtension>
            <ns3:hr>101</ns3:hr>
            <ns3:cad>0</ns3:cad>
          </ns3:TrackPointExtension>
        </extensions>
      </trkpt>
      <trkpt lat="37.77170746587216854095458984375" lon="-107.705674432218074798583984375">
        <ele>3886.199951171875</ele>
        <time>2023-07-29T17:14:30.000Z</time>
        <extensions>
          <ns3:TrackPointExtension>
            <ns3:hr>101</ns3:hr>
            <ns3:cad>0</ns3:cad>
          </ns3:TrackPointExtension>
        </extensions>
      </trkpt>
      <trkpt lat="37.77170495130121707916259765625" lon="-107.70567904226481914520263671875">
        <ele>3885.800048828125</ele>
        <time>2023-07-29T17:14:31.000Z</time>
        <extensions>
          <ns3:TrackPointExtension>
            <ns3:hr>101</ns3:hr>
            <ns3:cad>0</ns3:cad>
          </ns3:TrackPointExtension>
        </extensions>
      </trkpt>
      <trkpt lat="37.77170210145413875579833984375" lon="-107.7056843228638172149658203125">
        <ele>3885.800048828125</ele>
        <time>2023-07-29T17:14:32.000Z</time>
        <extensions>
          <ns3:TrackPointExtension>
            <ns3:hr>101</ns3:hr>
            <ns3:cad>0</ns3:cad>
          </ns3:TrackPointExtension>
        </extensions>
      </trkpt>
      <trkpt lat="37.77169539593160152435302734375" lon="-107.70568842999637126922607421875">
        <ele>3885.800048828125</ele>
        <time>2023-07-29T17:14:33.000Z</time>
        <extensions>
          <ns3:TrackPointExtension>
            <ns3:hr>100</ns3:hr>
            <ns3:cad>0</ns3:cad>
          </ns3:TrackPointExtension>
        </extensions>
      </trkpt>
      <trkpt lat="37.77169288136065006256103515625" lon="-107.7056833170354366302490234375">
        <ele>3885.60009765625</ele>
        <time>2023-07-29T17:14:34.000Z</time>
        <extensions>
          <ns3:TrackPointExtension>
            <ns3:hr>100</ns3:hr>
            <ns3:cad>0</ns3:cad>
          </ns3:TrackPointExtension>
        </extensions>
      </trkpt>
      <trkpt lat="37.771689780056476593017578125" lon="-107.7056786231696605682373046875">
        <ele>3885.60009765625</ele>
        <time>2023-07-29T17:14:35.000Z</time>
        <extensions>
          <ns3:TrackPointExtension>
            <ns3:hr>100</ns3:hr>
            <ns3:cad>0</ns3:cad>
          </ns3:TrackPointExtension>
        </extensions>
      </trkpt>
      <trkpt lat="37.7716882713139057159423828125" lon="-107.705677449703216552734375">
        <ele>3885.39990234375</ele>
        <time>2023-07-29T17:14:36.000Z</time>
        <extensions>
          <ns3:TrackPointExtension>
            <ns3:hr>100</ns3:hr>
            <ns3:cad>0</ns3:cad>
          </ns3:TrackPointExtension>
        </extensions>
      </trkpt>
      <trkpt lat="37.7716879360377788543701171875" lon="-107.705672420561313629150390625">
        <ele>3885.39990234375</ele>
        <time>2023-07-29T17:14:37.000Z</time>
        <extensions>
          <ns3:TrackPointExtension>
            <ns3:hr>99</ns3:hr>
            <ns3:cad>0</ns3:cad>
          </ns3:TrackPointExtension>
        </extensions>
      </trkpt>
      <trkpt lat="37.77168609201908111572265625" lon="-107.70566781051456928253173828125">
        <ele>3885.39990234375</ele>
        <time>2023-07-29T17:14:38.000Z</time>
        <extensions>
          <ns3:TrackPointExtension>
            <ns3:hr>99</ns3:hr>
            <ns3:cad>0</ns3:cad>
          </ns3:TrackPointExtension>
        </extensions>
      </trkpt>
      <trkpt lat="37.77168567292392253875732421875" lon="-107.70567485131323337554931640625">
        <ele>3885.199951171875</ele>
        <time>2023-07-29T17:14:39.000Z</time>
        <extensions>
          <ns3:TrackPointExtension>
            <ns3:hr>99</ns3:hr>
            <ns3:cad>0</ns3:cad>
          </ns3:TrackPointExtension>
        </extensions>
      </trkpt>
      <trkpt lat="37.771685421466827392578125" lon="-107.7056829817593097686767578125">
        <ele>3885</ele>
        <time>2023-07-29T17:14:40.000Z</time>
        <extensions>
          <ns3:TrackPointExtension>
            <ns3:hr>100</ns3:hr>
            <ns3:cad>0</ns3:cad>
          </ns3:TrackPointExtension>
        </extensions>
      </trkpt>
      <trkpt lat="37.77168500237166881561279296875" lon="-107.7056903578341007232666015625">
        <ele>3884.800048828125</ele>
        <time>2023-07-29T17:14:41.000Z</time>
        <extensions>
          <ns3:TrackPointExtension>
            <ns3:hr>100</ns3:hr>
            <ns3:cad>0</ns3:cad>
          </ns3:TrackPointExtension>
        </extensions>
      </trkpt>
      <trkpt lat="37.77167963795363903045654296875" lon="-107.70569555461406707763671875">
        <ele>3884.60009765625</ele>
        <time>2023-07-29T17:14:42.000Z</time>
        <extensions>
          <ns3:TrackPointExtension>
            <ns3:hr>99</ns3:hr>
            <ns3:cad>0</ns3:cad>
          </ns3:TrackPointExtension>
        </extensions>
      </trkpt>
      <trkpt lat="37.7716792188584804534912109375" lon="-107.70569262094795703887939453125">
        <ele>3884.39990234375</ele>
        <time>2023-07-29T17:14:43.000Z</time>
        <extensions>
          <ns3:TrackPointExtension>
            <ns3:hr>99</ns3:hr>
            <ns3:cad>0</ns3:cad>
          </ns3:TrackPointExtension>
        </extensions>
      </trkpt>
      <trkpt lat="37.77167527936398983001708984375" lon="-107.705709636211395263671875">
        <ele>3884.199951171875</ele>
        <time>2023-07-29T17:14:44.000Z</time>
        <extensions>
          <ns3:TrackPointExtension>
            <ns3:hr>99</ns3:hr>
            <ns3:cad>0</ns3:cad>
          </ns3:TrackPointExtension>
        </extensions>
      </trkpt>
      <trkpt lat="37.771675698459148406982421875" lon="-107.70572111941874027252197265625">
        <ele>3884</ele>
        <time>2023-07-29T17:14:45.000Z</time>
        <extensions>
          <ns3:TrackPointExtension>
            <ns3:hr>99</ns3:hr>
            <ns3:cad>0</ns3:cad>
          </ns3:TrackPointExtension>
        </extensions>
      </trkpt>
      <trkpt lat="37.7716745249927043914794921875" lon="-107.7057217061519622802734375">
        <ele>3884</ele>
        <time>2023-07-29T17:14:46.000Z</time>
        <extensions>
          <ns3:TrackPointExtension>
            <ns3:hr>99</ns3:hr>
            <ns3:cad>0</ns3:cad>
          </ns3:TrackPointExtension>
        </extensions>
      </trkpt>
      <trkpt lat="37.77167326770722866058349609375" lon="-107.70572564564645290374755859375">
        <ele>3884</ele>
        <time>2023-07-29T17:14:47.000Z</time>
        <extensions>
          <ns3:TrackPointExtension>
            <ns3:hr>99</ns3:hr>
            <ns3:cad>0</ns3:cad>
          </ns3:TrackPointExtension>
        </extensions>
      </trkpt>
      <trkpt lat="37.7716718427836894989013671875" lon="-107.70573042333126068115234375">
        <ele>3883.800048828125</ele>
        <time>2023-07-29T17:14:48.000Z</time>
        <extensions>
          <ns3:TrackPointExtension>
            <ns3:hr>98</ns3:hr>
            <ns3:cad>0</ns3:cad>
          </ns3:TrackPointExtension>
        </extensions>
      </trkpt>
      <trkpt lat="37.77167041786015033721923828125" lon="-107.70573017187416553497314453125">
        <ele>3883.60009765625</ele>
        <time>2023-07-29T17:14:49.000Z</time>
        <extensions>
          <ns3:TrackPointExtension>
            <ns3:hr>98</ns3:hr>
            <ns3:cad>0</ns3:cad>
          </ns3:TrackPointExtension>
        </extensions>
      </trkpt>
      <trkpt lat="37.77167343534529209136962890625" lon="-107.70574006251990795135498046875">
        <ele>3883.39990234375</ele>
        <time>2023-07-29T17:14:50.000Z</time>
        <extensions>
          <ns3:TrackPointExtension>
            <ns3:hr>98</ns3:hr>
            <ns3:cad>0</ns3:cad>
          </ns3:TrackPointExtension>
        </extensions>
      </trkpt>
      <trkpt lat="37.77167578227818012237548828125" lon="-107.7057456783950328826904296875">
        <ele>3883.39990234375</ele>
        <time>2023-07-29T17:14:51.000Z</time>
        <extensions>
          <ns3:TrackPointExtension>
            <ns3:hr>98</ns3:hr>
            <ns3:cad>0</ns3:cad>
          </ns3:TrackPointExtension>
        </extensions>
      </trkpt>
      <trkpt lat="37.7716782130300998687744140625" lon="-107.70575447939336299896240234375">
        <ele>3883.199951171875</ele>
        <time>2023-07-29T17:14:52.000Z</time>
        <extensions>
          <ns3:TrackPointExtension>
            <ns3:hr>97</ns3:hr>
            <ns3:cad>0</ns3:cad>
          </ns3:TrackPointExtension>
        </extensions>
      </trkpt>
      <trkpt lat="37.77168072760105133056640625" lon="-107.70576051436364650726318359375">
        <ele>3883.199951171875</ele>
        <time>2023-07-29T17:14:53.000Z</time>
        <extensions>
          <ns3:TrackPointExtension>
            <ns3:hr>97</ns3:hr>
            <ns3:cad>71</ns3:cad>
          </ns3:TrackPointExtension>
        </extensions>
      </trkpt>
      <trkpt lat="37.77167737483978271484375" lon="-107.70576219074428081512451171875">
        <ele>3883</ele>
        <time>2023-07-29T17:14:54.000Z</time>
        <extensions>
          <ns3:TrackPointExtension>
            <ns3:hr>97</ns3:hr>
            <ns3:cad>71</ns3:cad>
          </ns3:TrackPointExtension>
        </extensions>
      </trkpt>
      <trkpt lat="37.77167511172592639923095703125" lon="-107.7057646214962005615234375">
        <ele>3882.800048828125</ele>
        <time>2023-07-29T17:14:55.000Z</time>
        <extensions>
          <ns3:TrackPointExtension>
            <ns3:hr>96</ns3:hr>
            <ns3:cad>71</ns3:cad>
          </ns3:TrackPointExtension>
        </extensions>
      </trkpt>
      <trkpt lat="37.77167326770722866058349609375" lon="-107.70576638169586658477783203125">
        <ele>3882.39990234375</ele>
        <time>2023-07-29T17:14:56.000Z</time>
        <extensions>
          <ns3:TrackPointExtension>
            <ns3:hr>96</ns3:hr>
            <ns3:cad>0</ns3:cad>
          </ns3:TrackPointExtension>
        </extensions>
      </trkpt>
      <trkpt lat="37.77167242951691150665283203125" lon="-107.7057654596865177154541015625">
        <ele>3882.39990234375</ele>
        <time>2023-07-29T17:14:57.000Z</time>
        <extensions>
          <ns3:TrackPointExtension>
            <ns3:hr>96</ns3:hr>
            <ns3:cad>0</ns3:cad>
          </ns3:TrackPointExtension>
        </extensions>
      </trkpt>
      <trkpt lat="37.77167133986949920654296875" lon="-107.7057647891342639923095703125">
        <ele>3882.39990234375</ele>
        <time>2023-07-29T17:14:58.000Z</time>
        <extensions>
          <ns3:TrackPointExtension>
            <ns3:hr>96</ns3:hr>
            <ns3:cad>0</ns3:cad>
          </ns3:TrackPointExtension>
        </extensions>
      </trkpt>
      <trkpt lat="37.77166790328919887542724609375" lon="-107.705768644809722900390625">
        <ele>3882.199951171875</ele>
        <time>2023-07-29T17:14:59.000Z</time>
        <extensions>
          <ns3:TrackPointExtension>
            <ns3:hr>96</ns3:hr>
            <ns3:cad>0</ns3:cad>
          </ns3:TrackPointExtension>
        </extensions>
      </trkpt>
      <trkpt lat="37.77166991494596004486083984375" lon="-107.70577057264745235443115234375">
        <ele>3882.199951171875</ele>
        <time>2023-07-29T17:15:00.000Z</time>
        <extensions>
          <ns3:TrackPointExtension>
            <ns3:hr>96</ns3:hr>
            <ns3:cad>0</ns3:cad>
          </ns3:TrackPointExtension>
        </extensions>
      </trkpt>
      <trkpt lat="37.77168399654328823089599609375" lon="-107.70577962510287761688232421875">
        <ele>3882.199951171875</ele>
        <time>2023-07-29T17:15:01.000Z</time>
        <extensions>
          <ns3:TrackPointExtension>
            <ns3:hr>97</ns3:hr>
            <ns3:cad>0</ns3:cad>
          </ns3:TrackPointExtension>
        </extensions>
      </trkpt>
      <trkpt lat="37.7716862596571445465087890625" lon="-107.70578649826347827911376953125">
        <ele>3881.800048828125</ele>
        <time>2023-07-29T17:15:02.000Z</time>
        <extensions>
          <ns3:TrackPointExtension>
            <ns3:hr>97</ns3:hr>
            <ns3:cad>50</ns3:cad>
          </ns3:TrackPointExtension>
        </extensions>
      </trkpt>
      <trkpt lat="37.77168433181941509246826171875" lon="-107.70578767172992229461669921875">
        <ele>3881.60009765625</ele>
        <time>2023-07-29T17:15:03.000Z</time>
        <extensions>
          <ns3:TrackPointExtension>
            <ns3:hr>98</ns3:hr>
            <ns3:cad>50</ns3:cad>
          </ns3:TrackPointExtension>
        </extensions>
      </trkpt>
      <trkpt lat="37.7716839127242565155029296875" lon="-107.705789096653461456298828125">
        <ele>3881.60009765625</ele>
        <time>2023-07-29T17:15:04.000Z</time>
        <extensions>
          <ns3:TrackPointExtension>
            <ns3:hr>98</ns3:hr>
            <ns3:cad>50</ns3:cad>
          </ns3:TrackPointExtension>
        </extensions>
      </trkpt>
      <trkpt lat="37.7716792188584804534912109375" lon="-107.7057956345379352569580078125">
        <ele>3881.39990234375</ele>
        <time>2023-07-29T17:15:05.000Z</time>
        <extensions>
          <ns3:TrackPointExtension>
            <ns3:hr>99</ns3:hr>
            <ns3:cad>50</ns3:cad>
          </ns3:TrackPointExtension>
        </extensions>
      </trkpt>
      <trkpt lat="37.771678380668163299560546875" lon="-107.70579605363309383392333984375">
        <ele>3881.39990234375</ele>
        <time>2023-07-29T17:15:06.000Z</time>
        <extensions>
          <ns3:TrackPointExtension>
            <ns3:hr>99</ns3:hr>
            <ns3:cad>50</ns3:cad>
          </ns3:TrackPointExtension>
        </extensions>
      </trkpt>
      <trkpt lat="37.7716785483062267303466796875" lon="-107.7057959698140621185302734375">
        <ele>3881.199951171875</ele>
        <time>2023-07-29T17:15:07.000Z</time>
        <extensions>
          <ns3:TrackPointExtension>
            <ns3:hr>99</ns3:hr>
            <ns3:cad>50</ns3:cad>
          </ns3:TrackPointExtension>
        </extensions>
      </trkpt>
      <trkpt lat="37.77167863212525844573974609375" lon="-107.70579957403242588043212890625">
        <ele>3881.199951171875</ele>
        <time>2023-07-29T17:15:08.000Z</time>
        <extensions>
          <ns3:TrackPointExtension>
            <ns3:hr>99</ns3:hr>
            <ns3:cad>48</ns3:cad>
          </ns3:TrackPointExtension>
        </extensions>
      </trkpt>
      <trkpt lat="37.77168072760105133056640625" lon="-107.70580527372658252716064453125">
        <ele>3880.800048828125</ele>
        <time>2023-07-29T17:15:09.000Z</time>
        <extensions>
          <ns3:TrackPointExtension>
            <ns3:hr>99</ns3:hr>
            <ns3:cad>0</ns3:cad>
          </ns3:TrackPointExtension>
        </extensions>
      </trkpt>
      <trkpt lat="37.77168081142008304595947265625" lon="-107.70580728538334369659423828125">
        <ele>3880.800048828125</ele>
        <time>2023-07-29T17:15:10.000Z</time>
        <extensions>
          <ns3:TrackPointExtension>
            <ns3:hr>99</ns3:hr>
            <ns3:cad>0</ns3:cad>
          </ns3:TrackPointExtension>
        </extensions>
      </trkpt>
      <trkpt lat="37.771682403981685638427734375" lon="-107.70581080578267574310302734375">
        <ele>3880.60009765625</ele>
        <time>2023-07-29T17:15:11.000Z</time>
        <extensions>
          <ns3:TrackPointExtension>
            <ns3:hr>99</ns3:hr>
            <ns3:cad>0</ns3:cad>
          </ns3:TrackPointExtension>
        </extensions>
      </trkpt>
      <trkpt lat="37.77168097905814647674560546875" lon="-107.70581516437232494354248046875">
        <ele>3880.60009765625</ele>
        <time>2023-07-29T17:15:12.000Z</time>
        <extensions>
          <ns3:TrackPointExtension>
            <ns3:hr>99</ns3:hr>
            <ns3:cad>0</ns3:cad>
          </ns3:TrackPointExtension>
        </extensions>
      </trkpt>
      <trkpt lat="37.7716785483062267303466796875" lon="-107.7058214507997035980224609375">
        <ele>3880.199951171875</ele>
        <time>2023-07-29T17:15:13.000Z</time>
        <extensions>
          <ns3:TrackPointExtension>
            <ns3:hr>99</ns3:hr>
            <ns3:cad>0</ns3:cad>
          </ns3:TrackPointExtension>
        </extensions>
      </trkpt>
      <trkpt lat="37.77167427353560924530029296875" lon="-107.70582488738000392913818359375">
        <ele>3880.199951171875</ele>
        <time>2023-07-29T17:15:14.000Z</time>
        <extensions>
          <ns3:TrackPointExtension>
            <ns3:hr>99</ns3:hr>
            <ns3:cad>0</ns3:cad>
          </ns3:TrackPointExtension>
        </extensions>
      </trkpt>
      <trkpt lat="37.77167377062141895294189453125" lon="-107.70582505501806735992431640625">
        <ele>3879.60009765625</ele>
        <time>2023-07-29T17:15:15.000Z</time>
        <extensions>
          <ns3:TrackPointExtension>
            <ns3:hr>99</ns3:hr>
            <ns3:cad>0</ns3:cad>
          </ns3:TrackPointExtension>
        </extensions>
      </trkpt>
      <trkpt lat="37.7716715075075626373291015625" lon="-107.70582589320838451385498046875">
        <ele>3879.60009765625</ele>
        <time>2023-07-29T17:15:16.000Z</time>
        <extensions>
          <ns3:TrackPointExtension>
            <ns3:hr>99</ns3:hr>
            <ns3:cad>0</ns3:cad>
          </ns3:TrackPointExtension>
        </extensions>
      </trkpt>
      <trkpt lat="37.7716701664030551910400390625" lon="-107.7058278210461139678955078125">
        <ele>3879.39990234375</ele>
        <time>2023-07-29T17:15:17.000Z</time>
        <extensions>
          <ns3:TrackPointExtension>
            <ns3:hr>99</ns3:hr>
            <ns3:cad>0</ns3:cad>
          </ns3:TrackPointExtension>
        </extensions>
      </trkpt>
      <trkpt lat="37.771668322384357452392578125" lon="-107.705831341445446014404296875">
        <ele>3879.199951171875</ele>
        <time>2023-07-29T17:15:18.000Z</time>
        <extensions>
          <ns3:TrackPointExtension>
            <ns3:hr>99</ns3:hr>
            <ns3:cad>0</ns3:cad>
          </ns3:TrackPointExtension>
        </extensions>
      </trkpt>
      <trkpt lat="37.77166664600372314453125" lon="-107.70583293400704860687255859375">
        <ele>3879.199951171875</ele>
        <time>2023-07-29T17:15:19.000Z</time>
        <extensions>
          <ns3:TrackPointExtension>
            <ns3:hr>99</ns3:hr>
            <ns3:cad>63</ns3:cad>
          </ns3:TrackPointExtension>
        </extensions>
      </trkpt>
      <trkpt lat="37.77166203595697879791259765625" lon="-107.705834694206714630126953125">
        <ele>3879</ele>
        <time>2023-07-29T17:15:20.000Z</time>
        <extensions>
          <ns3:TrackPointExtension>
            <ns3:hr>99</ns3:hr>
            <ns3:cad>63</ns3:cad>
          </ns3:TrackPointExtension>
        </extensions>
      </trkpt>
      <trkpt lat="37.7716601081192493438720703125" lon="-107.70583511330187320709228515625">
        <ele>3879</ele>
        <time>2023-07-29T17:15:21.000Z</time>
        <extensions>
          <ns3:TrackPointExtension>
            <ns3:hr>99</ns3:hr>
            <ns3:cad>63</ns3:cad>
          </ns3:TrackPointExtension>
        </extensions>
      </trkpt>
      <trkpt lat="37.77165700681507587432861328125" lon="-107.7058358676731586456298828125">
        <ele>3879</ele>
        <time>2023-07-29T17:15:22.000Z</time>
        <extensions>
          <ns3:TrackPointExtension>
            <ns3:hr>98</ns3:hr>
            <ns3:cad>0</ns3:cad>
          </ns3:TrackPointExtension>
        </extensions>
      </trkpt>
      <trkpt lat="37.7716567553579807281494140625" lon="-107.70583637058734893798828125">
        <ele>3879</ele>
        <time>2023-07-29T17:15:23.000Z</time>
        <extensions>
          <ns3:TrackPointExtension>
            <ns3:hr>98</ns3:hr>
            <ns3:cad>0</ns3:cad>
          </ns3:TrackPointExtension>
        </extensions>
      </trkpt>
      <trkpt lat="37.7716560848057270050048828125" lon="-107.7058375440537929534912109375">
        <ele>3878.800048828125</ele>
        <time>2023-07-29T17:15:24.000Z</time>
        <extensions>
          <ns3:TrackPointExtension>
            <ns3:hr>98</ns3:hr>
            <ns3:cad>0</ns3:cad>
          </ns3:TrackPointExtension>
        </extensions>
      </trkpt>
      <trkpt lat="37.7716540731489658355712890625" lon="-107.705838717520236968994140625">
        <ele>3878.800048828125</ele>
        <time>2023-07-29T17:15:25.000Z</time>
        <extensions>
          <ns3:TrackPointExtension>
            <ns3:hr>98</ns3:hr>
            <ns3:cad>0</ns3:cad>
          </ns3:TrackPointExtension>
        </extensions>
      </trkpt>
      <trkpt lat="37.77165063656866550445556640625" lon="-107.70584148354828357696533203125">
        <ele>3878.39990234375</ele>
        <time>2023-07-29T17:15:26.000Z</time>
        <extensions>
          <ns3:TrackPointExtension>
            <ns3:hr>98</ns3:hr>
            <ns3:cad>0</ns3:cad>
          </ns3:TrackPointExtension>
        </extensions>
      </trkpt>
      <trkpt lat="37.77165113948285579681396484375" lon="-107.70583863370120525360107421875">
        <ele>3878</ele>
        <time>2023-07-29T17:15:27.000Z</time>
        <extensions>
          <ns3:TrackPointExtension>
            <ns3:hr>98</ns3:hr>
            <ns3:cad>0</ns3:cad>
          </ns3:TrackPointExtension>
        </extensions>
      </trkpt>
      <trkpt lat="37.77165030129253864288330078125" lon="-107.70583192817866802215576171875">
        <ele>3877.800048828125</ele>
        <time>2023-07-29T17:15:28.000Z</time>
        <extensions>
          <ns3:TrackPointExtension>
            <ns3:hr>98</ns3:hr>
            <ns3:cad>0</ns3:cad>
          </ns3:TrackPointExtension>
        </extensions>
      </trkpt>
      <trkpt lat="37.771644182503223419189453125" lon="-107.705830670893192291259765625">
        <ele>3877.800048828125</ele>
        <time>2023-07-29T17:15:29.000Z</time>
        <extensions>
          <ns3:TrackPointExtension>
            <ns3:hr>98</ns3:hr>
            <ns3:cad>0</ns3:cad>
          </ns3:TrackPointExtension>
        </extensions>
      </trkpt>
      <trkpt lat="37.77164426632225513458251953125" lon="-107.70582723431289196014404296875">
        <ele>3877.800048828125</ele>
        <time>2023-07-29T17:15:30.000Z</time>
        <extensions>
          <ns3:TrackPointExtension>
            <ns3:hr>98</ns3:hr>
            <ns3:cad>0</ns3:cad>
          </ns3:TrackPointExtension>
        </extensions>
      </trkpt>
      <trkpt lat="37.7716423384845256805419921875" lon="-107.70582337863743305206298828125">
        <ele>3877.800048828125</ele>
        <time>2023-07-29T17:15:31.000Z</time>
        <extensions>
          <ns3:TrackPointExtension>
            <ns3:hr>97</ns3:hr>
            <ns3:cad>0</ns3:cad>
          </ns3:TrackPointExtension>
        </extensions>
      </trkpt>
      <trkpt lat="37.7716470323503017425537109375" lon="-107.70582840777933597564697265625">
        <ele>3877.800048828125</ele>
        <time>2023-07-29T17:15:32.000Z</time>
        <extensions>
          <ns3:TrackPointExtension>
            <ns3:hr>96</ns3:hr>
            <ns3:cad>0</ns3:cad>
          </ns3:TrackPointExtension>
        </extensions>
      </trkpt>
      <trkpt lat="37.77164963074028491973876953125" lon="-107.70583234727382659912109375">
        <ele>3878</ele>
        <time>2023-07-29T17:15:33.000Z</time>
        <extensions>
          <ns3:TrackPointExtension>
            <ns3:hr>96</ns3:hr>
            <ns3:cad>0</ns3:cad>
          </ns3:TrackPointExtension>
        </extensions>
      </trkpt>
      <trkpt lat="37.7716560848057270050048828125" lon="-107.70584265701472759246826171875">
        <ele>3878.199951171875</ele>
        <time>2023-07-29T17:15:34.000Z</time>
        <extensions>
          <ns3:TrackPointExtension>
            <ns3:hr>96</ns3:hr>
            <ns3:cad>0</ns3:cad>
          </ns3:TrackPointExtension>
        </extensions>
      </trkpt>
      <trkpt lat="37.77165952138602733612060546875" lon="-107.7058489434421062469482421875">
        <ele>3878.199951171875</ele>
        <time>2023-07-29T17:15:35.000Z</time>
        <extensions>
          <ns3:TrackPointExtension>
            <ns3:hr>96</ns3:hr>
            <ns3:cad>0</ns3:cad>
          </ns3:TrackPointExtension>
        </extensions>
      </trkpt>
      <trkpt lat="37.7716664783656597137451171875" lon="-107.705852799117565155029296875">
        <ele>3878.199951171875</ele>
        <time>2023-07-29T17:15:36.000Z</time>
        <extensions>
          <ns3:TrackPointExtension>
            <ns3:hr>96</ns3:hr>
            <ns3:cad>0</ns3:cad>
          </ns3:TrackPointExtension>
        </extensions>
      </trkpt>
      <trkpt lat="37.77166840620338916778564453125" lon="-107.705854140222072601318359375">
        <ele>3878.199951171875</ele>
        <time>2023-07-29T17:15:37.000Z</time>
        <extensions>
          <ns3:TrackPointExtension>
            <ns3:hr>96</ns3:hr>
            <ns3:cad>0</ns3:cad>
          </ns3:TrackPointExtension>
        </extensions>
      </trkpt>
      <trkpt lat="37.7716694958508014678955078125" lon="-107.7058536373078823089599609375">
        <ele>3878.199951171875</ele>
        <time>2023-07-29T17:15:38.000Z</time>
        <extensions>
          <ns3:TrackPointExtension>
            <ns3:hr>96</ns3:hr>
            <ns3:cad>0</ns3:cad>
          </ns3:TrackPointExtension>
        </extensions>
      </trkpt>
      <trkpt lat="37.77167159132659435272216796875" lon="-107.70585858263075351715087890625">
        <ele>3878.199951171875</ele>
        <time>2023-07-29T17:15:39.000Z</time>
        <extensions>
          <ns3:TrackPointExtension>
            <ns3:hr>96</ns3:hr>
            <ns3:cad>0</ns3:cad>
          </ns3:TrackPointExtension>
        </extensions>
      </trkpt>
      <trkpt lat="37.77167670428752899169921875" lon="-107.7058673836290836334228515625">
        <ele>3878.199951171875</ele>
        <time>2023-07-29T17:15:40.000Z</time>
        <extensions>
          <ns3:TrackPointExtension>
            <ns3:hr>96</ns3:hr>
            <ns3:cad>0</ns3:cad>
          </ns3:TrackPointExtension>
        </extensions>
      </trkpt>
      <trkpt lat="37.7716768719255924224853515625" lon="-107.7058772742748260498046875">
        <ele>3878.199951171875</ele>
        <time>2023-07-29T17:15:41.000Z</time>
        <extensions>
          <ns3:TrackPointExtension>
            <ns3:hr>96</ns3:hr>
            <ns3:cad>0</ns3:cad>
          </ns3:TrackPointExtension>
        </extensions>
      </trkpt>
      <trkpt lat="37.77167402207851409912109375" lon="-107.70588976331055164337158203125">
        <ele>3878</ele>
        <time>2023-07-29T17:15:42.000Z</time>
        <extensions>
          <ns3:TrackPointExtension>
            <ns3:hr>95</ns3:hr>
            <ns3:cad>0</ns3:cad>
          </ns3:TrackPointExtension>
        </extensions>
      </trkpt>
      <trkpt lat="37.77167326770722866058349609375" lon="-107.7058962173759937286376953125">
        <ele>3877.800048828125</ele>
        <time>2023-07-29T17:15:43.000Z</time>
        <extensions>
          <ns3:TrackPointExtension>
            <ns3:hr>94</ns3:hr>
            <ns3:cad>0</ns3:cad>
          </ns3:TrackPointExtension>
        </extensions>
      </trkpt>
      <trkpt lat="37.77167058549821376800537109375" lon="-107.70590166561305522918701171875">
        <ele>3877.60009765625</ele>
        <time>2023-07-29T17:15:44.000Z</time>
        <extensions>
          <ns3:TrackPointExtension>
            <ns3:hr>94</ns3:hr>
            <ns3:cad>0</ns3:cad>
          </ns3:TrackPointExtension>
        </extensions>
      </trkpt>
      <trkpt lat="37.77167108841240406036376953125" lon="-107.705913148820400238037109375">
        <ele>3877.60009765625</ele>
        <time>2023-07-29T17:15:45.000Z</time>
        <extensions>
          <ns3:TrackPointExtension>
            <ns3:hr>94</ns3:hr>
            <ns3:cad>0</ns3:cad>
          </ns3:TrackPointExtension>
        </extensions>
      </trkpt>
      <trkpt lat="37.7716715075075626373291015625" lon="-107.70591440610587596893310546875">
        <ele>3877.60009765625</ele>
        <time>2023-07-29T17:15:46.000Z</time>
        <extensions>
          <ns3:TrackPointExtension>
            <ns3:hr>94</ns3:hr>
            <ns3:cad>0</ns3:cad>
          </ns3:TrackPointExtension>
        </extensions>
      </trkpt>
      <trkpt lat="37.77166999876499176025390625" lon="-107.7059196867048740386962890625">
        <ele>3877.60009765625</ele>
        <time>2023-07-29T17:15:47.000Z</time>
        <extensions>
          <ns3:TrackPointExtension>
            <ns3:hr>94</ns3:hr>
            <ns3:cad>0</ns3:cad>
          </ns3:TrackPointExtension>
        </extensions>
      </trkpt>
      <trkpt lat="37.77166974730789661407470703125" lon="-107.70591993816196918487548828125">
        <ele>3877.60009765625</ele>
        <time>2023-07-29T17:15:48.000Z</time>
        <extensions>
          <ns3:TrackPointExtension>
            <ns3:hr>94</ns3:hr>
            <ns3:cad>0</ns3:cad>
          </ns3:TrackPointExtension>
        </extensions>
      </trkpt>
      <trkpt lat="37.771670334041118621826171875" lon="-107.70591993816196918487548828125">
        <ele>3877.39990234375</ele>
        <time>2023-07-29T17:15:49.000Z</time>
        <extensions>
          <ns3:TrackPointExtension>
            <ns3:hr>95</ns3:hr>
            <ns3:cad>0</ns3:cad>
          </ns3:TrackPointExtension>
        </extensions>
      </trkpt>
      <trkpt lat="37.77167276479303836822509765625" lon="-107.70591549575328826904296875">
        <ele>3877.39990234375</ele>
        <time>2023-07-29T17:15:50.000Z</time>
        <extensions>
          <ns3:TrackPointExtension>
            <ns3:hr>95</ns3:hr>
            <ns3:cad>0</ns3:cad>
          </ns3:TrackPointExtension>
        </extensions>
      </trkpt>
      <trkpt lat="37.77167377062141895294189453125" lon="-107.70591373555362224578857421875">
        <ele>3877.39990234375</ele>
        <time>2023-07-29T17:15:51.000Z</time>
        <extensions>
          <ns3:TrackPointExtension>
            <ns3:hr>95</ns3:hr>
            <ns3:cad>0</ns3:cad>
          </ns3:TrackPointExtension>
        </extensions>
      </trkpt>
      <trkpt lat="37.77167058549821376800537109375" lon="-107.7059136517345905303955078125">
        <ele>3877.39990234375</ele>
        <time>2023-07-29T17:15:52.000Z</time>
        <extensions>
          <ns3:TrackPointExtension>
            <ns3:hr>95</ns3:hr>
            <ns3:cad>0</ns3:cad>
          </ns3:TrackPointExtension>
        </extensions>
      </trkpt>
      <trkpt lat="37.7716658078134059906005859375" lon="-107.70590937696397304534912109375">
        <ele>3877.39990234375</ele>
        <time>2023-07-29T17:15:53.000Z</time>
        <extensions>
          <ns3:TrackPointExtension>
            <ns3:hr>95</ns3:hr>
            <ns3:cad>0</ns3:cad>
          </ns3:TrackPointExtension>
        </extensions>
      </trkpt>
      <trkpt lat="37.771660946309566497802734375" lon="-107.70590719766914844512939453125">
        <ele>3877.39990234375</ele>
        <time>2023-07-29T17:15:54.000Z</time>
        <extensions>
          <ns3:TrackPointExtension>
            <ns3:hr>95</ns3:hr>
            <ns3:cad>0</ns3:cad>
          </ns3:TrackPointExtension>
        </extensions>
      </trkpt>
      <trkpt lat="37.7716554142534732818603515625" lon="-107.70590485073626041412353515625">
        <ele>3877.199951171875</ele>
        <time>2023-07-29T17:15:55.000Z</time>
        <extensions>
          <ns3:TrackPointExtension>
            <ns3:hr>94</ns3:hr>
            <ns3:cad>0</ns3:cad>
          </ns3:TrackPointExtension>
        </extensions>
      </trkpt>
      <trkpt lat="37.77164761908352375030517578125" lon="-107.705903090536594390869140625">
        <ele>3877</ele>
        <time>2023-07-29T17:15:56.000Z</time>
        <extensions>
          <ns3:TrackPointExtension>
            <ns3:hr>94</ns3:hr>
            <ns3:cad>0</ns3:cad>
          </ns3:TrackPointExtension>
        </extensions>
      </trkpt>
      <trkpt lat="37.7716433443129062652587890625" lon="-107.705905102193355560302734375">
        <ele>3876.800048828125</ele>
        <time>2023-07-29T17:15:57.000Z</time>
        <extensions>
          <ns3:TrackPointExtension>
            <ns3:hr>93</ns3:hr>
            <ns3:cad>0</ns3:cad>
          </ns3:TrackPointExtension>
        </extensions>
      </trkpt>
      <trkpt lat="37.77164225466549396514892578125" lon="-107.70590635947883129119873046875">
        <ele>3876.800048828125</ele>
        <time>2023-07-29T17:15:58.000Z</time>
        <extensions>
          <ns3:TrackPointExtension>
            <ns3:hr>93</ns3:hr>
            <ns3:cad>0</ns3:cad>
          </ns3:TrackPointExtension>
        </extensions>
      </trkpt>
      <trkpt lat="37.771642170846462249755859375" lon="-107.7059019170701503753662109375">
        <ele>3876.800048828125</ele>
        <time>2023-07-29T17:15:59.000Z</time>
        <extensions>
          <ns3:TrackPointExtension>
            <ns3:hr>95</ns3:hr>
            <ns3:cad>0</ns3:cad>
          </ns3:TrackPointExtension>
        </extensions>
      </trkpt>
      <trkpt lat="37.77164611034095287322998046875" lon="-107.70590208470821380615234375">
        <ele>3876.800048828125</ele>
        <time>2023-07-29T17:16:00.000Z</time>
        <extensions>
          <ns3:TrackPointExtension>
            <ns3:hr>97</ns3:hr>
            <ns3:cad>0</ns3:cad>
          </ns3:TrackPointExtension>
        </extensions>
      </trkpt>
      <trkpt lat="37.771655581891536712646484375" lon="-107.70590753294527530670166015625">
        <ele>3876.800048828125</ele>
        <time>2023-07-29T17:16:01.000Z</time>
        <extensions>
          <ns3:TrackPointExtension>
            <ns3:hr>98</ns3:hr>
            <ns3:cad>0</ns3:cad>
          </ns3:TrackPointExtension>
        </extensions>
      </trkpt>
      <trkpt lat="37.77166387997567653656005859375" lon="-107.7059116400778293609619140625">
        <ele>3876.800048828125</ele>
        <time>2023-07-29T17:16:02.000Z</time>
        <extensions>
          <ns3:TrackPointExtension>
            <ns3:hr>99</ns3:hr>
            <ns3:cad>0</ns3:cad>
          </ns3:TrackPointExtension>
        </extensions>
      </trkpt>
      <trkpt lat="37.771668322384357452392578125" lon="-107.705909796059131622314453125">
        <ele>3876.800048828125</ele>
        <time>2023-07-29T17:16:03.000Z</time>
        <extensions>
          <ns3:TrackPointExtension>
            <ns3:hr>99</ns3:hr>
            <ns3:cad>0</ns3:cad>
          </ns3:TrackPointExtension>
        </extensions>
      </trkpt>
      <trkpt lat="37.7716758660972118377685546875" lon="-107.705906443297863006591796875">
        <ele>3876.800048828125</ele>
        <time>2023-07-29T17:16:04.000Z</time>
        <extensions>
          <ns3:TrackPointExtension>
            <ns3:hr>99</ns3:hr>
            <ns3:cad>0</ns3:cad>
          </ns3:TrackPointExtension>
        </extensions>
      </trkpt>
      <trkpt lat="37.77168148197233676910400390625" lon="-107.705904431641101837158203125">
        <ele>3876.800048828125</ele>
        <time>2023-07-29T17:16:05.000Z</time>
        <extensions>
          <ns3:TrackPointExtension>
            <ns3:hr>98</ns3:hr>
            <ns3:cad>0</ns3:cad>
          </ns3:TrackPointExtension>
        </extensions>
      </trkpt>
      <trkpt lat="37.77168634347617626190185546875" lon="-107.7059032581746578216552734375">
        <ele>3876.60009765625</ele>
        <time>2023-07-29T17:16:06.000Z</time>
        <extensions>
          <ns3:TrackPointExtension>
            <ns3:hr>98</ns3:hr>
            <ns3:cad>0</ns3:cad>
          </ns3:TrackPointExtension>
        </extensions>
      </trkpt>
      <trkpt lat="37.77168919332325458526611328125" lon="-107.70590065978467464447021484375">
        <ele>3876.60009765625</ele>
        <time>2023-07-29T17:16:07.000Z</time>
        <extensions>
          <ns3:TrackPointExtension>
            <ns3:hr>98</ns3:hr>
            <ns3:cad>0</ns3:cad>
          </ns3:TrackPointExtension>
        </extensions>
      </trkpt>
      <trkpt lat="37.771693803369998931884765625" lon="-107.70589613355696201324462890625">
        <ele>3876.60009765625</ele>
        <time>2023-07-29T17:16:08.000Z</time>
        <extensions>
          <ns3:TrackPointExtension>
            <ns3:hr>98</ns3:hr>
            <ns3:cad>0</ns3:cad>
          </ns3:TrackPointExtension>
        </extensions>
      </trkpt>
      <trkpt lat="37.7717067115008831024169921875" lon="-107.70588691346347332000732421875">
        <ele>3876.60009765625</ele>
        <time>2023-07-29T17:16:09.000Z</time>
        <extensions>
          <ns3:TrackPointExtension>
            <ns3:hr>98</ns3:hr>
            <ns3:cad>0</ns3:cad>
          </ns3:TrackPointExtension>
        </extensions>
      </trkpt>
      <trkpt lat="37.7717067115008831024169921875" lon="-107.705886326730251312255859375">
        <ele>3876.60009765625</ele>
        <time>2023-07-29T17:16:10.000Z</time>
        <extensions>
          <ns3:TrackPointExtension>
            <ns3:hr>98</ns3:hr>
            <ns3:cad>0</ns3:cad>
          </ns3:TrackPointExtension>
        </extensions>
      </trkpt>
      <trkpt lat="37.77170176617801189422607421875" lon="-107.70589060150086879730224609375">
        <ele>3876.60009765625</ele>
        <time>2023-07-29T17:16:11.000Z</time>
        <extensions>
          <ns3:TrackPointExtension>
            <ns3:hr>98</ns3:hr>
            <ns3:cad>0</ns3:cad>
          </ns3:TrackPointExtension>
        </extensions>
      </trkpt>
      <trkpt lat="37.771701179444789886474609375" lon="-107.70589177496731281280517578125">
        <ele>3876.60009765625</ele>
        <time>2023-07-29T17:16:12.000Z</time>
        <extensions>
          <ns3:TrackPointExtension>
            <ns3:hr>98</ns3:hr>
            <ns3:cad>0</ns3:cad>
          </ns3:TrackPointExtension>
        </extensions>
      </trkpt>
      <trkpt lat="37.77170210145413875579833984375" lon="-107.7058931998908519744873046875">
        <ele>3876.60009765625</ele>
        <time>2023-07-29T17:16:13.000Z</time>
        <extensions>
          <ns3:TrackPointExtension>
            <ns3:hr>98</ns3:hr>
            <ns3:cad>0</ns3:cad>
          </ns3:TrackPointExtension>
        </extensions>
      </trkpt>
      <trkpt lat="37.77170377783477306365966796875" lon="-107.70589537918567657470703125">
        <ele>3876.60009765625</ele>
        <time>2023-07-29T17:16:14.000Z</time>
        <extensions>
          <ns3:TrackPointExtension>
            <ns3:hr>97</ns3:hr>
            <ns3:cad>0</ns3:cad>
          </ns3:TrackPointExtension>
        </extensions>
      </trkpt>
      <trkpt lat="37.77170444838702678680419921875" lon="-107.705897055566310882568359375">
        <ele>3876.60009765625</ele>
        <time>2023-07-29T17:16:15.000Z</time>
        <extensions>
          <ns3:TrackPointExtension>
            <ns3:hr>97</ns3:hr>
            <ns3:cad>0</ns3:cad>
          </ns3:TrackPointExtension>
        </extensions>
      </trkpt>
      <trkpt lat="37.77170545421540737152099609375" lon="-107.7058995701372623443603515625">
        <ele>3876.60009765625</ele>
        <time>2023-07-29T17:16:16.000Z</time>
        <extensions>
          <ns3:TrackPointExtension>
            <ns3:hr>97</ns3:hr>
            <ns3:cad>0</ns3:cad>
          </ns3:TrackPointExtension>
        </extensions>
      </trkpt>
      <trkpt lat="37.77170620858669281005859375" lon="-107.70590208470821380615234375">
        <ele>3876.39990234375</ele>
        <time>2023-07-29T17:16:17.000Z</time>
        <extensions>
          <ns3:TrackPointExtension>
            <ns3:hr>96</ns3:hr>
            <ns3:cad>0</ns3:cad>
          </ns3:TrackPointExtension>
        </extensions>
      </trkpt>
      <trkpt lat="37.77170679531991481781005859375" lon="-107.70590686239302158355712890625">
        <ele>3876.199951171875</ele>
        <time>2023-07-29T17:16:18.000Z</time>
        <extensions>
          <ns3:TrackPointExtension>
            <ns3:hr>96</ns3:hr>
            <ns3:cad>0</ns3:cad>
          </ns3:TrackPointExtension>
        </extensions>
      </trkpt>
      <trkpt lat="37.771707884967327117919921875" lon="-107.7059099636971950531005859375">
        <ele>3876</ele>
        <time>2023-07-29T17:16:19.000Z</time>
        <extensions>
          <ns3:TrackPointExtension>
            <ns3:hr>96</ns3:hr>
            <ns3:cad>0</ns3:cad>
          </ns3:TrackPointExtension>
        </extensions>
      </trkpt>
      <trkpt lat="37.77170956134796142578125" lon="-107.70591457374393939971923828125">
        <ele>3876</ele>
        <time>2023-07-29T17:16:20.000Z</time>
        <extensions>
          <ns3:TrackPointExtension>
            <ns3:hr>96</ns3:hr>
            <ns3:cad>0</ns3:cad>
          </ns3:TrackPointExtension>
        </extensions>
      </trkpt>
      <trkpt lat="37.77170562185347080230712890625" lon="-107.70591474138200283050537109375">
        <ele>3876</ele>
        <time>2023-07-29T17:16:21.000Z</time>
        <extensions>
          <ns3:TrackPointExtension>
            <ns3:hr>96</ns3:hr>
            <ns3:cad>0</ns3:cad>
          </ns3:TrackPointExtension>
        </extensions>
      </trkpt>
      <trkpt lat="37.77170059271156787872314453125" lon="-107.7059173397719860076904296875">
        <ele>3876</ele>
        <time>2023-07-29T17:16:22.000Z</time>
        <extensions>
          <ns3:TrackPointExtension>
            <ns3:hr>96</ns3:hr>
            <ns3:cad>0</ns3:cad>
          </ns3:TrackPointExtension>
        </extensions>
      </trkpt>
      <trkpt lat="37.77169740758836269378662109375" lon="-107.7059161663055419921875">
        <ele>3876</ele>
        <time>2023-07-29T17:16:23.000Z</time>
        <extensions>
          <ns3:TrackPointExtension>
            <ns3:hr>95</ns3:hr>
            <ns3:cad>0</ns3:cad>
          </ns3:TrackPointExtension>
        </extensions>
      </trkpt>
      <trkpt lat="37.77169489301741123199462890625" lon="-107.7059176750481128692626953125">
        <ele>3876</ele>
        <time>2023-07-29T17:16:24.000Z</time>
        <extensions>
          <ns3:TrackPointExtension>
            <ns3:hr>95</ns3:hr>
            <ns3:cad>0</ns3:cad>
          </ns3:TrackPointExtension>
        </extensions>
      </trkpt>
      <trkpt lat="37.7716929651796817779541015625" lon="-107.705918848514556884765625">
        <ele>3876</ele>
        <time>2023-07-29T17:16:25.000Z</time>
        <extensions>
          <ns3:TrackPointExtension>
            <ns3:hr>94</ns3:hr>
            <ns3:cad>0</ns3:cad>
          </ns3:TrackPointExtension>
        </extensions>
      </trkpt>
      <trkpt lat="37.7717001736164093017578125" lon="-107.70592094399034976959228515625">
        <ele>3875.800048828125</ele>
        <time>2023-07-29T17:16:26.000Z</time>
        <extensions>
          <ns3:TrackPointExtension>
            <ns3:hr>94</ns3:hr>
            <ns3:cad>0</ns3:cad>
          </ns3:TrackPointExtension>
        </extensions>
      </trkpt>
      <trkpt lat="37.771707214415073394775390625" lon="-107.70592194981873035430908203125">
        <ele>3875.800048828125</ele>
        <time>2023-07-29T17:16:27.000Z</time>
        <extensions>
          <ns3:TrackPointExtension>
            <ns3:hr>94</ns3:hr>
            <ns3:cad>0</ns3:cad>
          </ns3:TrackPointExtension>
        </extensions>
      </trkpt>
      <trkpt lat="37.7717110700905323028564453125" lon="-107.7059230394661426544189453125">
        <ele>3875.800048828125</ele>
        <time>2023-07-29T17:16:28.000Z</time>
        <extensions>
          <ns3:TrackPointExtension>
            <ns3:hr>94</ns3:hr>
            <ns3:cad>0</ns3:cad>
          </ns3:TrackPointExtension>
        </extensions>
      </trkpt>
      <trkpt lat="37.77171249501407146453857421875" lon="-107.70592681132256984710693359375">
        <ele>3875.60009765625</ele>
        <time>2023-07-29T17:16:29.000Z</time>
        <extensions>
          <ns3:TrackPointExtension>
            <ns3:hr>95</ns3:hr>
            <ns3:cad>0</ns3:cad>
          </ns3:TrackPointExtension>
        </extensions>
      </trkpt>
      <trkpt lat="37.77171383611857891082763671875" lon="-107.70592714659869670867919921875">
        <ele>3875.60009765625</ele>
        <time>2023-07-29T17:16:30.000Z</time>
        <extensions>
          <ns3:TrackPointExtension>
            <ns3:hr>95</ns3:hr>
            <ns3:cad>0</ns3:cad>
          </ns3:TrackPointExtension>
        </extensions>
      </trkpt>
      <trkpt lat="37.77171266265213489532470703125" lon="-107.7059294097125530242919921875">
        <ele>3875.60009765625</ele>
        <time>2023-07-29T17:16:31.000Z</time>
        <extensions>
          <ns3:TrackPointExtension>
            <ns3:hr>95</ns3:hr>
            <ns3:cad>0</ns3:cad>
          </ns3:TrackPointExtension>
        </extensions>
      </trkpt>
      <trkpt lat="37.77171551249921321868896484375" lon="-107.7059284038841724395751953125">
        <ele>3875.60009765625</ele>
        <time>2023-07-29T17:16:32.000Z</time>
        <extensions>
          <ns3:TrackPointExtension>
            <ns3:hr>96</ns3:hr>
            <ns3:cad>0</ns3:cad>
          </ns3:TrackPointExtension>
        </extensions>
      </trkpt>
      <trkpt lat="37.77171668596565723419189453125" lon="-107.70592798478901386260986328125">
        <ele>3875.60009765625</ele>
        <time>2023-07-29T17:16:33.000Z</time>
        <extensions>
          <ns3:TrackPointExtension>
            <ns3:hr>96</ns3:hr>
            <ns3:cad>0</ns3:cad>
          </ns3:TrackPointExtension>
        </extensions>
      </trkpt>
      <trkpt lat="37.7717181108891963958740234375" lon="-107.70592832006514072418212890625">
        <ele>3875.39990234375</ele>
        <time>2023-07-29T17:16:34.000Z</time>
        <extensions>
          <ns3:TrackPointExtension>
            <ns3:hr>96</ns3:hr>
            <ns3:cad>0</ns3:cad>
          </ns3:TrackPointExtension>
        </extensions>
      </trkpt>
      <trkpt lat="37.77171802707016468048095703125" lon="-107.70592664368450641632080078125">
        <ele>3875.39990234375</ele>
        <time>2023-07-29T17:16:35.000Z</time>
        <extensions>
          <ns3:TrackPointExtension>
            <ns3:hr>96</ns3:hr>
            <ns3:cad>0</ns3:cad>
          </ns3:TrackPointExtension>
        </extensions>
      </trkpt>
      <trkpt lat="37.77171961963176727294921875" lon="-107.70592463202774524688720703125">
        <ele>3875.39990234375</ele>
        <time>2023-07-29T17:16:36.000Z</time>
        <extensions>
          <ns3:TrackPointExtension>
            <ns3:hr>96</ns3:hr>
            <ns3:cad>0</ns3:cad>
          </ns3:TrackPointExtension>
        </extensions>
      </trkpt>
      <trkpt lat="37.77172255329787731170654296875" lon="-107.705919183790683746337890625">
        <ele>3875.39990234375</ele>
        <time>2023-07-29T17:16:37.000Z</time>
        <extensions>
          <ns3:TrackPointExtension>
            <ns3:hr>96</ns3:hr>
            <ns3:cad>0</ns3:cad>
          </ns3:TrackPointExtension>
        </extensions>
      </trkpt>
      <trkpt lat="37.77172288857400417327880859375" lon="-107.7059173397719860076904296875">
        <ele>3875.39990234375</ele>
        <time>2023-07-29T17:16:38.000Z</time>
        <extensions>
          <ns3:TrackPointExtension>
            <ns3:hr>96</ns3:hr>
            <ns3:cad>0</ns3:cad>
          </ns3:TrackPointExtension>
        </extensions>
      </trkpt>
      <trkpt lat="37.7717224694788455963134765625" lon="-107.70591658540070056915283203125">
        <ele>3875.39990234375</ele>
        <time>2023-07-29T17:16:39.000Z</time>
        <extensions>
          <ns3:TrackPointExtension>
            <ns3:hr>96</ns3:hr>
            <ns3:cad>0</ns3:cad>
          </ns3:TrackPointExtension>
        </extensions>
      </trkpt>
      <trkpt lat="37.77172490023076534271240234375" lon="-107.70591189153492450714111328125">
        <ele>3875.199951171875</ele>
        <time>2023-07-29T17:16:40.000Z</time>
        <extensions>
          <ns3:TrackPointExtension>
            <ns3:hr>96</ns3:hr>
            <ns3:cad>0</ns3:cad>
          </ns3:TrackPointExtension>
        </extensions>
      </trkpt>
      <trkpt lat="37.7717197872698307037353515625" lon="-107.70592278800904750823974609375">
        <ele>3875.199951171875</ele>
        <time>2023-07-29T17:16:41.000Z</time>
        <extensions>
          <ns3:TrackPointExtension>
            <ns3:hr>97</ns3:hr>
            <ns3:cad>0</ns3:cad>
          </ns3:TrackPointExtension>
        </extensions>
      </trkpt>
      <trkpt lat="37.7717204578220844268798828125" lon="-107.70592714659869670867919921875">
        <ele>3875.199951171875</ele>
        <time>2023-07-29T17:16:42.000Z</time>
        <extensions>
          <ns3:TrackPointExtension>
            <ns3:hr>98</ns3:hr>
            <ns3:cad>0</ns3:cad>
          </ns3:TrackPointExtension>
        </extensions>
      </trkpt>
      <trkpt lat="37.771718613803386688232421875" lon="-107.70593016408383846282958984375">
        <ele>3875.199951171875</ele>
        <time>2023-07-29T17:16:43.000Z</time>
        <extensions>
          <ns3:TrackPointExtension>
            <ns3:hr>99</ns3:hr>
            <ns3:cad>0</ns3:cad>
          </ns3:TrackPointExtension>
        </extensions>
      </trkpt>
      <trkpt lat="37.771715261042118072509765625" lon="-107.70593502558767795562744140625">
        <ele>3875.199951171875</ele>
        <time>2023-07-29T17:16:44.000Z</time>
        <extensions>
          <ns3:TrackPointExtension>
            <ns3:hr>100</ns3:hr>
            <ns3:cad>0</ns3:cad>
          </ns3:TrackPointExtension>
        </extensions>
      </trkpt>
      <trkpt lat="37.77171333320438861846923828125" lon="-107.705927900969982147216796875">
        <ele>3875.199951171875</ele>
        <time>2023-07-29T17:16:45.000Z</time>
        <extensions>
          <ns3:TrackPointExtension>
            <ns3:hr>100</ns3:hr>
            <ns3:cad>0</ns3:cad>
          </ns3:TrackPointExtension>
        </extensions>
      </trkpt>
      <trkpt lat="37.771711237728595733642578125" lon="-107.7059237100183963775634765625">
        <ele>3875.199951171875</ele>
        <time>2023-07-29T17:16:46.000Z</time>
        <extensions>
          <ns3:TrackPointExtension>
            <ns3:hr>100</ns3:hr>
            <ns3:cad>0</ns3:cad>
          </ns3:TrackPointExtension>
        </extensions>
      </trkpt>
      <trkpt lat="37.7717135846614837646484375" lon="-107.70592027343809604644775390625">
        <ele>3875.199951171875</ele>
        <time>2023-07-29T17:16:47.000Z</time>
        <extensions>
          <ns3:TrackPointExtension>
            <ns3:hr>100</ns3:hr>
            <ns3:cad>0</ns3:cad>
          </ns3:TrackPointExtension>
        </extensions>
      </trkpt>
      <trkpt lat="37.77171827852725982666015625" lon="-107.7059161663055419921875">
        <ele>3875.199951171875</ele>
        <time>2023-07-29T17:16:48.000Z</time>
        <extensions>
          <ns3:TrackPointExtension>
            <ns3:hr>100</ns3:hr>
            <ns3:cad>0</ns3:cad>
          </ns3:TrackPointExtension>
        </extensions>
      </trkpt>
      <trkpt lat="37.7717221342027187347412109375" lon="-107.70591675303876399993896484375">
        <ele>3875</ele>
        <time>2023-07-29T17:16:49.000Z</time>
        <extensions>
          <ns3:TrackPointExtension>
            <ns3:hr>100</ns3:hr>
            <ns3:cad>0</ns3:cad>
          </ns3:TrackPointExtension>
        </extensions>
      </trkpt>
      <trkpt lat="37.7717254869639873504638671875" lon="-107.70591683685779571533203125">
        <ele>3875</ele>
        <time>2023-07-29T17:16:50.000Z</time>
        <extensions>
          <ns3:TrackPointExtension>
            <ns3:hr>100</ns3:hr>
            <ns3:cad>0</ns3:cad>
          </ns3:TrackPointExtension>
        </extensions>
      </trkpt>
      <trkpt lat="37.77172775007784366607666015625" lon="-107.70591725595295429229736328125">
        <ele>3875</ele>
        <time>2023-07-29T17:16:51.000Z</time>
        <extensions>
          <ns3:TrackPointExtension>
            <ns3:hr>100</ns3:hr>
            <ns3:cad>0</ns3:cad>
          </ns3:TrackPointExtension>
        </extensions>
      </trkpt>
      <trkpt lat="37.77173009701073169708251953125" lon="-107.705917172133922576904296875">
        <ele>3875</ele>
        <time>2023-07-29T17:16:52.000Z</time>
        <extensions>
          <ns3:TrackPointExtension>
            <ns3:hr>100</ns3:hr>
            <ns3:cad>0</ns3:cad>
          </ns3:TrackPointExtension>
        </extensions>
      </trkpt>
      <trkpt lat="37.7717328630387783050537109375" lon="-107.70591893233358860015869140625">
        <ele>3874.800048828125</ele>
        <time>2023-07-29T17:16:53.000Z</time>
        <extensions>
          <ns3:TrackPointExtension>
            <ns3:hr>101</ns3:hr>
            <ns3:cad>0</ns3:cad>
          </ns3:TrackPointExtension>
        </extensions>
      </trkpt>
      <trkpt lat="37.7717348746955394744873046875" lon="-107.70592178218066692352294921875">
        <ele>3874.800048828125</ele>
        <time>2023-07-29T17:16:54.000Z</time>
        <extensions>
          <ns3:TrackPointExtension>
            <ns3:hr>101</ns3:hr>
            <ns3:cad>0</ns3:cad>
          </ns3:TrackPointExtension>
        </extensions>
      </trkpt>
      <trkpt lat="37.771734707057476043701171875" lon="-107.7059220336377620697021484375">
        <ele>3874.800048828125</ele>
        <time>2023-07-29T17:16:55.000Z</time>
        <extensions>
          <ns3:TrackPointExtension>
            <ns3:hr>101</ns3:hr>
            <ns3:cad>0</ns3:cad>
          </ns3:TrackPointExtension>
        </extensions>
      </trkpt>
      <trkpt lat="37.77173437178134918212890625" lon="-107.705924212932586669921875">
        <ele>3874.800048828125</ele>
        <time>2023-07-29T17:16:56.000Z</time>
        <extensions>
          <ns3:TrackPointExtension>
            <ns3:hr>102</ns3:hr>
            <ns3:cad>0</ns3:cad>
          </ns3:TrackPointExtension>
        </extensions>
      </trkpt>
      <trkpt lat="37.77173210866749286651611328125" lon="-107.7059216983616352081298828125">
        <ele>3874.60009765625</ele>
        <time>2023-07-29T17:16:57.000Z</time>
        <extensions>
          <ns3:TrackPointExtension>
            <ns3:hr>104</ns3:hr>
            <ns3:cad>0</ns3:cad>
          </ns3:TrackPointExtension>
        </extensions>
      </trkpt>
      <trkpt lat="37.7717308513820171356201171875" lon="-107.70592127926647663116455078125">
        <ele>3874.60009765625</ele>
        <time>2023-07-29T17:16:58.000Z</time>
        <extensions>
          <ns3:TrackPointExtension>
            <ns3:hr>104</ns3:hr>
            <ns3:cad>0</ns3:cad>
          </ns3:TrackPointExtension>
        </extensions>
      </trkpt>
      <trkpt lat="37.77172992937266826629638671875" lon="-107.70592220127582550048828125">
        <ele>3874.60009765625</ele>
        <time>2023-07-29T17:16:59.000Z</time>
        <extensions>
          <ns3:TrackPointExtension>
            <ns3:hr>105</ns3:hr>
            <ns3:cad>0</ns3:cad>
          </ns3:TrackPointExtension>
        </extensions>
      </trkpt>
      <trkpt lat="37.77172389440238475799560546875" lon="-107.70591013133525848388671875">
        <ele>3874.39990234375</ele>
        <time>2023-07-29T17:17:00.000Z</time>
        <extensions>
          <ns3:TrackPointExtension>
            <ns3:hr>105</ns3:hr>
            <ns3:cad>0</ns3:cad>
          </ns3:TrackPointExtension>
        </extensions>
      </trkpt>
      <trkpt lat="37.7717234753072261810302734375" lon="-107.7059143222868442535400390625">
        <ele>3874.199951171875</ele>
        <time>2023-07-29T17:17:01.000Z</time>
        <extensions>
          <ns3:TrackPointExtension>
            <ns3:hr>104</ns3:hr>
            <ns3:cad>0</ns3:cad>
          </ns3:TrackPointExtension>
        </extensions>
      </trkpt>
      <trkpt lat="37.77171987108886241912841796875" lon="-107.7059193514287471771240234375">
        <ele>3874</ele>
        <time>2023-07-29T17:17:02.000Z</time>
        <extensions>
          <ns3:TrackPointExtension>
            <ns3:hr>105</ns3:hr>
            <ns3:cad>0</ns3:cad>
          </ns3:TrackPointExtension>
        </extensions>
      </trkpt>
      <trkpt lat="37.771714590489864349365234375" lon="-107.705918513238430023193359375">
        <ele>3874</ele>
        <time>2023-07-29T17:17:03.000Z</time>
        <extensions>
          <ns3:TrackPointExtension>
            <ns3:hr>105</ns3:hr>
            <ns3:cad>0</ns3:cad>
          </ns3:TrackPointExtension>
        </extensions>
      </trkpt>
      <trkpt lat="37.77171081863343715667724609375" lon="-107.70592086017131805419921875">
        <ele>3874</ele>
        <time>2023-07-29T17:17:04.000Z</time>
        <extensions>
          <ns3:TrackPointExtension>
            <ns3:hr>105</ns3:hr>
            <ns3:cad>0</ns3:cad>
          </ns3:TrackPointExtension>
        </extensions>
      </trkpt>
      <trkpt lat="37.77170897461473941802978515625" lon="-107.70592446438968181610107421875">
        <ele>3873.800048828125</ele>
        <time>2023-07-29T17:17:05.000Z</time>
        <extensions>
          <ns3:TrackPointExtension>
            <ns3:hr>105</ns3:hr>
            <ns3:cad>0</ns3:cad>
          </ns3:TrackPointExtension>
        </extensions>
      </trkpt>
      <trkpt lat="37.77170344255864620208740234375" lon="-107.705931924283504486083984375">
        <ele>3873.800048828125</ele>
        <time>2023-07-29T17:17:06.000Z</time>
        <extensions>
          <ns3:TrackPointExtension>
            <ns3:hr>105</ns3:hr>
            <ns3:cad>0</ns3:cad>
          </ns3:TrackPointExtension>
        </extensions>
      </trkpt>
      <trkpt lat="37.77169992215931415557861328125" lon="-107.70593427121639251708984375">
        <ele>3873.800048828125</ele>
        <time>2023-07-29T17:17:07.000Z</time>
        <extensions>
          <ns3:TrackPointExtension>
            <ns3:hr>105</ns3:hr>
            <ns3:cad>0</ns3:cad>
          </ns3:TrackPointExtension>
        </extensions>
      </trkpt>
      <trkpt lat="37.771695815026760101318359375" lon="-107.70593695342540740966796875">
        <ele>3873.800048828125</ele>
        <time>2023-07-29T17:17:08.000Z</time>
        <extensions>
          <ns3:TrackPointExtension>
            <ns3:hr>105</ns3:hr>
            <ns3:cad>0</ns3:cad>
          </ns3:TrackPointExtension>
        </extensions>
      </trkpt>
      <trkpt lat="37.77169170789420604705810546875" lon="-107.70594122819602489471435546875">
        <ele>3873.800048828125</ele>
        <time>2023-07-29T17:17:09.000Z</time>
        <extensions>
          <ns3:TrackPointExtension>
            <ns3:hr>105</ns3:hr>
            <ns3:cad>0</ns3:cad>
          </ns3:TrackPointExtension>
        </extensions>
      </trkpt>
      <trkpt lat="37.77169137261807918548583984375" lon="-107.70594659261405467987060546875">
        <ele>3873.800048828125</ele>
        <time>2023-07-29T17:17:10.000Z</time>
        <extensions>
          <ns3:TrackPointExtension>
            <ns3:hr>104</ns3:hr>
            <ns3:cad>0</ns3:cad>
          </ns3:TrackPointExtension>
        </extensions>
      </trkpt>
      <trkpt lat="37.7716976590454578399658203125" lon="-107.70594977773725986480712890625">
        <ele>3873.800048828125</ele>
        <time>2023-07-29T17:17:11.000Z</time>
        <extensions>
          <ns3:TrackPointExtension>
            <ns3:hr>101</ns3:hr>
            <ns3:cad>0</ns3:cad>
          </ns3:TrackPointExtension>
        </extensions>
      </trkpt>
      <trkpt lat="37.7717016823589801788330078125" lon="-107.705950029194355010986328125">
        <ele>3873.800048828125</ele>
        <time>2023-07-29T17:17:12.000Z</time>
        <extensions>
          <ns3:TrackPointExtension>
            <ns3:hr>100</ns3:hr>
            <ns3:cad>0</ns3:cad>
          </ns3:TrackPointExtension>
        </extensions>
      </trkpt>
      <trkpt lat="37.77170964516699314117431640625" lon="-107.7059525437653064727783203125">
        <ele>3873.800048828125</ele>
        <time>2023-07-29T17:17:13.000Z</time>
        <extensions>
          <ns3:TrackPointExtension>
            <ns3:hr>100</ns3:hr>
            <ns3:cad>0</ns3:cad>
          </ns3:TrackPointExtension>
        </extensions>
      </trkpt>
      <trkpt lat="37.77171417139470577239990234375" lon="-107.70595916546881198883056640625">
        <ele>3873.800048828125</ele>
        <time>2023-07-29T17:17:14.000Z</time>
        <extensions>
          <ns3:TrackPointExtension>
            <ns3:hr>100</ns3:hr>
            <ns3:cad>0</ns3:cad>
          </ns3:TrackPointExtension>
        </extensions>
      </trkpt>
      <trkpt lat="37.77171132154762744903564453125" lon="-107.70597039721906185150146484375">
        <ele>3873.800048828125</ele>
        <time>2023-07-29T17:17:15.000Z</time>
        <extensions>
          <ns3:TrackPointExtension>
            <ns3:hr>100</ns3:hr>
            <ns3:cad>0</ns3:cad>
          </ns3:TrackPointExtension>
        </extensions>
      </trkpt>
      <trkpt lat="37.77170629240572452545166015625" lon="-107.70597517490386962890625">
        <ele>3873.800048828125</ele>
        <time>2023-07-29T17:17:16.000Z</time>
        <extensions>
          <ns3:TrackPointExtension>
            <ns3:hr>100</ns3:hr>
            <ns3:cad>0</ns3:cad>
          </ns3:TrackPointExtension>
        </extensions>
      </trkpt>
      <trkpt lat="37.7717050351202487945556640625" lon="-107.705974839627742767333984375">
        <ele>3873.800048828125</ele>
        <time>2023-07-29T17:17:17.000Z</time>
        <extensions>
          <ns3:TrackPointExtension>
            <ns3:hr>100</ns3:hr>
            <ns3:cad>0</ns3:cad>
          </ns3:TrackPointExtension>
        </extensions>
      </trkpt>
      <trkpt lat="37.7717030234634876251220703125" lon="-107.7059760130941867828369140625">
        <ele>3873.60009765625</ele>
        <time>2023-07-29T17:17:18.000Z</time>
        <extensions>
          <ns3:TrackPointExtension>
            <ns3:hr>100</ns3:hr>
            <ns3:cad>0</ns3:cad>
          </ns3:TrackPointExtension>
        </extensions>
      </trkpt>
      <trkpt lat="37.77169941924512386322021484375" lon="-107.70597760565578937530517578125">
        <ele>3873.39990234375</ele>
        <time>2023-07-29T17:17:19.000Z</time>
        <extensions>
          <ns3:TrackPointExtension>
            <ns3:hr>100</ns3:hr>
            <ns3:cad>0</ns3:cad>
          </ns3:TrackPointExtension>
        </extensions>
      </trkpt>
      <trkpt lat="37.771697826683521270751953125" lon="-107.70597743801772594451904296875">
        <ele>3873.39990234375</ele>
        <time>2023-07-29T17:17:20.000Z</time>
        <extensions>
          <ns3:TrackPointExtension>
            <ns3:hr>100</ns3:hr>
            <ns3:cad>0</ns3:cad>
          </ns3:TrackPointExtension>
        </extensions>
      </trkpt>
      <trkpt lat="37.77169254608452320098876953125" lon="-107.70598045550286769866943359375">
        <ele>3873.39990234375</ele>
        <time>2023-07-29T17:17:21.000Z</time>
        <extensions>
          <ns3:TrackPointExtension>
            <ns3:hr>100</ns3:hr>
            <ns3:cad>0</ns3:cad>
          </ns3:TrackPointExtension>
        </extensions>
      </trkpt>
      <trkpt lat="37.7716815657913684844970703125" lon="-107.70599135197699069976806640625">
        <ele>3873.39990234375</ele>
        <time>2023-07-29T17:17:22.000Z</time>
        <extensions>
          <ns3:TrackPointExtension>
            <ns3:hr>101</ns3:hr>
            <ns3:cad>0</ns3:cad>
          </ns3:TrackPointExtension>
        </extensions>
      </trkpt>
      <trkpt lat="37.77167804539203643798828125" lon="-107.70599403418600559234619140625">
        <ele>3873.60009765625</ele>
        <time>2023-07-29T17:17:23.000Z</time>
        <extensions>
          <ns3:TrackPointExtension>
            <ns3:hr>101</ns3:hr>
            <ns3:cad>67</ns3:cad>
          </ns3:TrackPointExtension>
        </extensions>
      </trkpt>
      <trkpt lat="37.771671675145626068115234375" lon="-107.70599939860403537750244140625">
        <ele>3873.60009765625</ele>
        <time>2023-07-29T17:17:24.000Z</time>
        <extensions>
          <ns3:TrackPointExtension>
            <ns3:hr>101</ns3:hr>
            <ns3:cad>67</ns3:cad>
          </ns3:TrackPointExtension>
        </extensions>
      </trkpt>
      <trkpt lat="37.77166957966983318328857421875" lon="-107.706006355583667755126953125">
        <ele>3873.800048828125</ele>
        <time>2023-07-29T17:17:25.000Z</time>
        <extensions>
          <ns3:TrackPointExtension>
            <ns3:hr>101</ns3:hr>
            <ns3:cad>67</ns3:cad>
          </ns3:TrackPointExtension>
        </extensions>
      </trkpt>
      <trkpt lat="37.77166790328919887542724609375" lon="-107.7060092054307460784912109375">
        <ele>3873.800048828125</ele>
        <time>2023-07-29T17:17:26.000Z</time>
        <extensions>
          <ns3:TrackPointExtension>
            <ns3:hr>102</ns3:hr>
            <ns3:cad>0</ns3:cad>
          </ns3:TrackPointExtension>
        </extensions>
      </trkpt>
      <trkpt lat="37.77166572399437427520751953125" lon="-107.706013731658458709716796875">
        <ele>3874</ele>
        <time>2023-07-29T17:17:27.000Z</time>
        <extensions>
          <ns3:TrackPointExtension>
            <ns3:hr>102</ns3:hr>
            <ns3:cad>0</ns3:cad>
          </ns3:TrackPointExtension>
        </extensions>
      </trkpt>
      <trkpt lat="37.771663628518581390380859375" lon="-107.70601599477231502532958984375">
        <ele>3874.39990234375</ele>
        <time>2023-07-29T17:17:28.000Z</time>
        <extensions>
          <ns3:TrackPointExtension>
            <ns3:hr>102</ns3:hr>
            <ns3:cad>0</ns3:cad>
          </ns3:TrackPointExtension>
        </extensions>
      </trkpt>
      <trkpt lat="37.7716644667088985443115234375" lon="-107.70602018572390079498291015625">
        <ele>3874.800048828125</ele>
        <time>2023-07-29T17:17:29.000Z</time>
        <extensions>
          <ns3:TrackPointExtension>
            <ns3:hr>102</ns3:hr>
            <ns3:cad>0</ns3:cad>
          </ns3:TrackPointExtension>
        </extensions>
      </trkpt>
      <trkpt lat="37.77166329324245452880859375" lon="-107.7060221135616302490234375">
        <ele>3875</ele>
        <time>2023-07-29T17:17:30.000Z</time>
        <extensions>
          <ns3:TrackPointExtension>
            <ns3:hr>102</ns3:hr>
            <ns3:cad>0</ns3:cad>
          </ns3:TrackPointExtension>
        </extensions>
      </trkpt>
      <trkpt lat="37.7716617844998836517333984375" lon="-107.70602420903742313385009765625">
        <ele>3875</ele>
        <time>2023-07-29T17:17:31.000Z</time>
        <extensions>
          <ns3:TrackPointExtension>
            <ns3:hr>103</ns3:hr>
            <ns3:cad>0</ns3:cad>
          </ns3:TrackPointExtension>
        </extensions>
      </trkpt>
      <trkpt lat="37.7716611139476299285888671875" lon="-107.70602638833224773406982421875">
        <ele>3875</ele>
        <time>2023-07-29T17:17:32.000Z</time>
        <extensions>
          <ns3:TrackPointExtension>
            <ns3:hr>103</ns3:hr>
            <ns3:cad>0</ns3:cad>
          </ns3:TrackPointExtension>
        </extensions>
      </trkpt>
      <trkpt lat="37.77166270650923252105712890625" lon="-107.706027142703533172607421875">
        <ele>3875.199951171875</ele>
        <time>2023-07-29T17:17:33.000Z</time>
        <extensions>
          <ns3:TrackPointExtension>
            <ns3:hr>104</ns3:hr>
            <ns3:cad>0</ns3:cad>
          </ns3:TrackPointExtension>
        </extensions>
      </trkpt>
      <trkpt lat="37.77166186831891536712646484375" lon="-107.70603057928383350372314453125">
        <ele>3875.60009765625</ele>
        <time>2023-07-29T17:17:34.000Z</time>
        <extensions>
          <ns3:TrackPointExtension>
            <ns3:hr>104</ns3:hr>
            <ns3:cad>0</ns3:cad>
          </ns3:TrackPointExtension>
        </extensions>
      </trkpt>
      <trkpt lat="37.7716648019850254058837890625" lon="-107.70603275857865810394287109375">
        <ele>3875.60009765625</ele>
        <time>2023-07-29T17:17:35.000Z</time>
        <extensions>
          <ns3:TrackPointExtension>
            <ns3:hr>105</ns3:hr>
            <ns3:cad>0</ns3:cad>
          </ns3:TrackPointExtension>
        </extensions>
      </trkpt>
      <trkpt lat="37.77166589163243770599365234375" lon="-107.706039212644100189208984375">
        <ele>3875.60009765625</ele>
        <time>2023-07-29T17:17:36.000Z</time>
        <extensions>
          <ns3:TrackPointExtension>
            <ns3:hr>105</ns3:hr>
            <ns3:cad>0</ns3:cad>
          </ns3:TrackPointExtension>
        </extensions>
      </trkpt>
      <trkpt lat="37.771668992936611175537109375" lon="-107.7060430683195590972900390625">
        <ele>3875.60009765625</ele>
        <time>2023-07-29T17:17:37.000Z</time>
        <extensions>
          <ns3:TrackPointExtension>
            <ns3:hr>105</ns3:hr>
            <ns3:cad>0</ns3:cad>
          </ns3:TrackPointExtension>
        </extensions>
      </trkpt>
      <trkpt lat="37.77167377062141895294189453125" lon="-107.70605170167982578277587890625">
        <ele>3875.60009765625</ele>
        <time>2023-07-29T17:17:38.000Z</time>
        <extensions>
          <ns3:TrackPointExtension>
            <ns3:hr>105</ns3:hr>
            <ns3:cad>0</ns3:cad>
          </ns3:TrackPointExtension>
        </extensions>
      </trkpt>
      <trkpt lat="37.77168148197233676910400390625" lon="-107.70606695674359798431396484375">
        <ele>3875.39990234375</ele>
        <time>2023-07-29T17:17:39.000Z</time>
        <extensions>
          <ns3:TrackPointExtension>
            <ns3:hr>105</ns3:hr>
            <ns3:cad>0</ns3:cad>
          </ns3:TrackPointExtension>
        </extensions>
      </trkpt>
      <trkpt lat="37.77168567292392253875732421875" lon="-107.70608087070286273956298828125">
        <ele>3875.39990234375</ele>
        <time>2023-07-29T17:17:40.000Z</time>
        <extensions>
          <ns3:TrackPointExtension>
            <ns3:hr>105</ns3:hr>
            <ns3:cad>0</ns3:cad>
          </ns3:TrackPointExtension>
        </extensions>
      </trkpt>
      <trkpt lat="37.7716892771422863006591796875" lon="-107.7060876600444316864013671875">
        <ele>3875.199951171875</ele>
        <time>2023-07-29T17:17:41.000Z</time>
        <extensions>
          <ns3:TrackPointExtension>
            <ns3:hr>105</ns3:hr>
            <ns3:cad>0</ns3:cad>
          </ns3:TrackPointExtension>
        </extensions>
      </trkpt>
      <trkpt lat="37.77169405482709407806396484375" lon="-107.7061027474701404571533203125">
        <ele>3875.199951171875</ele>
        <time>2023-07-29T17:17:42.000Z</time>
        <extensions>
          <ns3:TrackPointExtension>
            <ns3:hr>105</ns3:hr>
            <ns3:cad>0</ns3:cad>
          </ns3:TrackPointExtension>
        </extensions>
      </trkpt>
      <trkpt lat="37.77169547975063323974609375" lon="-107.7061027474701404571533203125">
        <ele>3875</ele>
        <time>2023-07-29T17:17:43.000Z</time>
        <extensions>
          <ns3:TrackPointExtension>
            <ns3:hr>105</ns3:hr>
            <ns3:cad>55</ns3:cad>
          </ns3:TrackPointExtension>
        </extensions>
      </trkpt>
      <trkpt lat="37.77169623412191867828369140625" lon="-107.70610392093658447265625">
        <ele>3875</ele>
        <time>2023-07-29T17:17:44.000Z</time>
        <extensions>
          <ns3:TrackPointExtension>
            <ns3:hr>105</ns3:hr>
            <ns3:cad>55</ns3:cad>
          </ns3:TrackPointExtension>
        </extensions>
      </trkpt>
      <trkpt lat="37.77169824577867984771728515625" lon="-107.70610325038433074951171875">
        <ele>3875</ele>
        <time>2023-07-29T17:17:45.000Z</time>
        <extensions>
          <ns3:TrackPointExtension>
            <ns3:hr>104</ns3:hr>
            <ns3:cad>55</ns3:cad>
          </ns3:TrackPointExtension>
        </extensions>
      </trkpt>
      <trkpt lat="37.771700508892536163330078125" lon="-107.70610484294593334197998046875">
        <ele>3875</ele>
        <time>2023-07-29T17:17:46.000Z</time>
        <extensions>
          <ns3:TrackPointExtension>
            <ns3:hr>104</ns3:hr>
            <ns3:cad>0</ns3:cad>
          </ns3:TrackPointExtension>
        </extensions>
      </trkpt>
      <trkpt lat="37.77170478366315364837646484375" lon="-107.70610920153558254241943359375">
        <ele>3875</ele>
        <time>2023-07-29T17:17:47.000Z</time>
        <extensions>
          <ns3:TrackPointExtension>
            <ns3:hr>103</ns3:hr>
            <ns3:cad>0</ns3:cad>
          </ns3:TrackPointExtension>
        </extensions>
      </trkpt>
      <trkpt lat="37.771708555519580841064453125" lon="-107.7061097882688045501708984375">
        <ele>3875</ele>
        <time>2023-07-29T17:17:48.000Z</time>
        <extensions>
          <ns3:TrackPointExtension>
            <ns3:hr>102</ns3:hr>
            <ns3:cad>0</ns3:cad>
          </ns3:TrackPointExtension>
        </extensions>
      </trkpt>
      <trkpt lat="37.77171023190021514892578125" lon="-107.70611054264008998870849609375">
        <ele>3875</ele>
        <time>2023-07-29T17:17:49.000Z</time>
        <extensions>
          <ns3:TrackPointExtension>
            <ns3:hr>102</ns3:hr>
            <ns3:cad>0</ns3:cad>
          </ns3:TrackPointExtension>
        </extensions>
      </trkpt>
      <trkpt lat="37.77171299792826175689697265625" lon="-107.70611356012523174285888671875">
        <ele>3875.199951171875</ele>
        <time>2023-07-29T17:17:50.000Z</time>
        <extensions>
          <ns3:TrackPointExtension>
            <ns3:hr>101</ns3:hr>
            <ns3:cad>0</ns3:cad>
          </ns3:TrackPointExtension>
        </extensions>
      </trkpt>
      <trkpt lat="37.77171115390956401824951171875" lon="-107.70611423067748546600341796875">
        <ele>3875.199951171875</ele>
        <time>2023-07-29T17:17:51.000Z</time>
        <extensions>
          <ns3:TrackPointExtension>
            <ns3:hr>101</ns3:hr>
            <ns3:cad>0</ns3:cad>
          </ns3:TrackPointExtension>
        </extensions>
      </trkpt>
      <trkpt lat="37.77170662768185138702392578125" lon="-107.706114314496517181396484375">
        <ele>3875.199951171875</ele>
        <time>2023-07-29T17:17:52.000Z</time>
        <extensions>
          <ns3:TrackPointExtension>
            <ns3:hr>101</ns3:hr>
            <ns3:cad>0</ns3:cad>
          </ns3:TrackPointExtension>
        </extensions>
      </trkpt>
      <trkpt lat="37.77170411311089992523193359375" lon="-107.70612093620002269744873046875">
        <ele>3875.199951171875</ele>
        <time>2023-07-29T17:17:53.000Z</time>
        <extensions>
          <ns3:TrackPointExtension>
            <ns3:hr>101</ns3:hr>
            <ns3:cad>0</ns3:cad>
          </ns3:TrackPointExtension>
        </extensions>
      </trkpt>
      <trkpt lat="37.771695144474506378173828125" lon="-107.7061231993138790130615234375">
        <ele>3875.199951171875</ele>
        <time>2023-07-29T17:17:54.000Z</time>
        <extensions>
          <ns3:TrackPointExtension>
            <ns3:hr>101</ns3:hr>
            <ns3:cad>0</ns3:cad>
          </ns3:TrackPointExtension>
        </extensions>
      </trkpt>
      <trkpt lat="37.77168877422809600830078125" lon="-107.7061389572918415069580078125">
        <ele>3874.800048828125</ele>
        <time>2023-07-29T17:17:55.000Z</time>
        <extensions>
          <ns3:TrackPointExtension>
            <ns3:hr>101</ns3:hr>
            <ns3:cad>0</ns3:cad>
          </ns3:TrackPointExtension>
        </extensions>
      </trkpt>
      <trkpt lat="37.7716839127242565155029296875" lon="-107.70614423789083957672119140625">
        <ele>3874.800048828125</ele>
        <time>2023-07-29T17:17:56.000Z</time>
        <extensions>
          <ns3:TrackPointExtension>
            <ns3:hr>102</ns3:hr>
            <ns3:cad>0</ns3:cad>
          </ns3:TrackPointExtension>
        </extensions>
      </trkpt>
      <trkpt lat="37.77168215252459049224853515625" lon="-107.70614909939467906951904296875">
        <ele>3874.60009765625</ele>
        <time>2023-07-29T17:17:57.000Z</time>
        <extensions>
          <ns3:TrackPointExtension>
            <ns3:hr>102</ns3:hr>
            <ns3:cad>0</ns3:cad>
          </ns3:TrackPointExtension>
        </extensions>
      </trkpt>
      <trkpt lat="37.7716772072017192840576171875" lon="-107.706160582602024078369140625">
        <ele>3874.39990234375</ele>
        <time>2023-07-29T17:17:58.000Z</time>
        <extensions>
          <ns3:TrackPointExtension>
            <ns3:hr>103</ns3:hr>
            <ns3:cad>0</ns3:cad>
          </ns3:TrackPointExtension>
        </extensions>
      </trkpt>
      <trkpt lat="37.771675027906894683837890625" lon="-107.7061681263148784637451171875">
        <ele>3874.199951171875</ele>
        <time>2023-07-29T17:17:59.000Z</time>
        <extensions>
          <ns3:TrackPointExtension>
            <ns3:hr>103</ns3:hr>
            <ns3:cad>0</ns3:cad>
          </ns3:TrackPointExtension>
        </extensions>
      </trkpt>
      <trkpt lat="37.77167326770722866058349609375" lon="-107.706170976161956787109375">
        <ele>3874.199951171875</ele>
        <time>2023-07-29T17:18:00.000Z</time>
        <extensions>
          <ns3:TrackPointExtension>
            <ns3:hr>103</ns3:hr>
            <ns3:cad>0</ns3:cad>
          </ns3:TrackPointExtension>
        </extensions>
      </trkpt>
      <trkpt lat="37.7716708369553089141845703125" lon="-107.70617122761905193328857421875">
        <ele>3873.800048828125</ele>
        <time>2023-07-29T17:18:01.000Z</time>
        <extensions>
          <ns3:TrackPointExtension>
            <ns3:hr>104</ns3:hr>
            <ns3:cad>0</ns3:cad>
          </ns3:TrackPointExtension>
        </extensions>
      </trkpt>
      <trkpt lat="37.77166823856532573699951171875" lon="-107.706173993647098541259765625">
        <ele>3873.60009765625</ele>
        <time>2023-07-29T17:18:02.000Z</time>
        <extensions>
          <ns3:TrackPointExtension>
            <ns3:hr>104</ns3:hr>
            <ns3:cad>0</ns3:cad>
          </ns3:TrackPointExtension>
        </extensions>
      </trkpt>
      <trkpt lat="37.771666981279850006103515625" lon="-107.7061751671135425567626953125">
        <ele>3873.39990234375</ele>
        <time>2023-07-29T17:18:03.000Z</time>
        <extensions>
          <ns3:TrackPointExtension>
            <ns3:hr>103</ns3:hr>
            <ns3:cad>0</ns3:cad>
          </ns3:TrackPointExtension>
        </extensions>
      </trkpt>
      <trkpt lat="37.77166136540472507476806640625" lon="-107.7061818726360797882080078125">
        <ele>3873.199951171875</ele>
        <time>2023-07-29T17:18:04.000Z</time>
        <extensions>
          <ns3:TrackPointExtension>
            <ns3:hr>103</ns3:hr>
            <ns3:cad>0</ns3:cad>
          </ns3:TrackPointExtension>
        </extensions>
      </trkpt>
      <trkpt lat="37.77165968902409076690673828125" lon="-107.7061828784644603729248046875">
        <ele>3873.199951171875</ele>
        <time>2023-07-29T17:18:05.000Z</time>
        <extensions>
          <ns3:TrackPointExtension>
            <ns3:hr>102</ns3:hr>
            <ns3:cad>0</ns3:cad>
          </ns3:TrackPointExtension>
        </extensions>
      </trkpt>
      <trkpt lat="37.77166035957634449005126953125" lon="-107.7061879076063632965087890625">
        <ele>3872.800048828125</ele>
        <time>2023-07-29T17:18:06.000Z</time>
        <extensions>
          <ns3:TrackPointExtension>
            <ns3:hr>102</ns3:hr>
            <ns3:cad>0</ns3:cad>
          </ns3:TrackPointExtension>
        </extensions>
      </trkpt>
      <trkpt lat="37.77165650390088558197021484375" lon="-107.70619067363440990447998046875">
        <ele>3872.800048828125</ele>
        <time>2023-07-29T17:18:07.000Z</time>
        <extensions>
          <ns3:TrackPointExtension>
            <ns3:hr>102</ns3:hr>
            <ns3:cad>0</ns3:cad>
          </ns3:TrackPointExtension>
        </extensions>
      </trkpt>
      <trkpt lat="37.77165499515831470489501953125" lon="-107.70619310438632965087890625">
        <ele>3872.60009765625</ele>
        <time>2023-07-29T17:18:08.000Z</time>
        <extensions>
          <ns3:TrackPointExtension>
            <ns3:hr>102</ns3:hr>
            <ns3:cad>0</ns3:cad>
          </ns3:TrackPointExtension>
        </extensions>
      </trkpt>
      <trkpt lat="37.7716505527496337890625" lon="-107.7062023244798183441162109375">
        <ele>3872.39990234375</ele>
        <time>2023-07-29T17:18:09.000Z</time>
        <extensions>
          <ns3:TrackPointExtension>
            <ns3:hr>102</ns3:hr>
            <ns3:cad>0</ns3:cad>
          </ns3:TrackPointExtension>
        </extensions>
      </trkpt>
      <trkpt lat="37.77164258994162082672119140625" lon="-107.70621095784008502960205078125">
        <ele>3872.199951171875</ele>
        <time>2023-07-29T17:18:10.000Z</time>
        <extensions>
          <ns3:TrackPointExtension>
            <ns3:hr>103</ns3:hr>
            <ns3:cad>0</ns3:cad>
          </ns3:TrackPointExtension>
        </extensions>
      </trkpt>
      <trkpt lat="37.771639488637447357177734375" lon="-107.70621498115360736846923828125">
        <ele>3872.199951171875</ele>
        <time>2023-07-29T17:18:11.000Z</time>
        <extensions>
          <ns3:TrackPointExtension>
            <ns3:hr>103</ns3:hr>
            <ns3:cad>0</ns3:cad>
          </ns3:TrackPointExtension>
        </extensions>
      </trkpt>
      <trkpt lat="37.77163336984813213348388671875" lon="-107.70622135140001773834228515625">
        <ele>3872</ele>
        <time>2023-07-29T17:18:12.000Z</time>
        <extensions>
          <ns3:TrackPointExtension>
            <ns3:hr>103</ns3:hr>
            <ns3:cad>0</ns3:cad>
          </ns3:TrackPointExtension>
        </extensions>
      </trkpt>
      <trkpt lat="37.77162901125848293304443359375" lon="-107.706225626170635223388671875">
        <ele>3871.800048828125</ele>
        <time>2023-07-29T17:18:13.000Z</time>
        <extensions>
          <ns3:TrackPointExtension>
            <ns3:hr>103</ns3:hr>
            <ns3:cad>0</ns3:cad>
          </ns3:TrackPointExtension>
        </extensions>
      </trkpt>
      <trkpt lat="37.77162347920238971710205078125" lon="-107.7062324993312358856201171875">
        <ele>3871.60009765625</ele>
        <time>2023-07-29T17:18:14.000Z</time>
        <extensions>
          <ns3:TrackPointExtension>
            <ns3:hr>103</ns3:hr>
            <ns3:cad>0</ns3:cad>
          </ns3:TrackPointExtension>
        </extensions>
      </trkpt>
      <trkpt lat="37.77161928825080394744873046875" lon="-107.70623610354959964752197265625">
        <ele>3871.39990234375</ele>
        <time>2023-07-29T17:18:15.000Z</time>
        <extensions>
          <ns3:TrackPointExtension>
            <ns3:hr>103</ns3:hr>
            <ns3:cad>0</ns3:cad>
          </ns3:TrackPointExtension>
        </extensions>
      </trkpt>
      <trkpt lat="37.771618701517581939697265625" lon="-107.706232331693172454833984375">
        <ele>3871.39990234375</ele>
        <time>2023-07-29T17:18:16.000Z</time>
        <extensions>
          <ns3:TrackPointExtension>
            <ns3:hr>103</ns3:hr>
            <ns3:cad>55</ns3:cad>
          </ns3:TrackPointExtension>
        </extensions>
      </trkpt>
      <trkpt lat="37.771619372069835662841796875" lon="-107.706219591200351715087890625">
        <ele>3871.199951171875</ele>
        <time>2023-07-29T17:18:17.000Z</time>
        <extensions>
          <ns3:TrackPointExtension>
            <ns3:hr>103</ns3:hr>
            <ns3:cad>55</ns3:cad>
          </ns3:TrackPointExtension>
        </extensions>
      </trkpt>
      <trkpt lat="37.77161442674696445465087890625" lon="-107.7062070183455944061279296875">
        <ele>3871</ele>
        <time>2023-07-29T17:18:18.000Z</time>
        <extensions>
          <ns3:TrackPointExtension>
            <ns3:hr>103</ns3:hr>
            <ns3:cad>55</ns3:cad>
          </ns3:TrackPointExtension>
        </extensions>
      </trkpt>
      <trkpt lat="37.77161300182342529296875" lon="-107.7061991393566131591796875">
        <ele>3871</ele>
        <time>2023-07-29T17:18:19.000Z</time>
        <extensions>
          <ns3:TrackPointExtension>
            <ns3:hr>103</ns3:hr>
            <ns3:cad>55</ns3:cad>
          </ns3:TrackPointExtension>
        </extensions>
      </trkpt>
      <trkpt lat="37.77160839177668094635009765625" lon="-107.70619268529117107391357421875">
        <ele>3871</ele>
        <time>2023-07-29T17:18:20.000Z</time>
        <extensions>
          <ns3:TrackPointExtension>
            <ns3:hr>102</ns3:hr>
            <ns3:cad>56</ns3:cad>
          </ns3:TrackPointExtension>
        </extensions>
      </trkpt>
      <trkpt lat="37.7716036140918731689453125" lon="-107.7061858959496021270751953125">
        <ele>3871</ele>
        <time>2023-07-29T17:18:21.000Z</time>
        <extensions>
          <ns3:TrackPointExtension>
            <ns3:hr>102</ns3:hr>
            <ns3:cad>56</ns3:cad>
          </ns3:TrackPointExtension>
        </extensions>
      </trkpt>
      <trkpt lat="37.771601267158985137939453125" lon="-107.70618648268282413482666015625">
        <ele>3870.800048828125</ele>
        <time>2023-07-29T17:18:22.000Z</time>
        <extensions>
          <ns3:TrackPointExtension>
            <ns3:hr>102</ns3:hr>
            <ns3:cad>56</ns3:cad>
          </ns3:TrackPointExtension>
        </extensions>
      </trkpt>
      <trkpt lat="37.77159749530255794525146484375" lon="-107.70618262700736522674560546875">
        <ele>3870.60009765625</ele>
        <time>2023-07-29T17:18:23.000Z</time>
        <extensions>
          <ns3:TrackPointExtension>
            <ns3:hr>102</ns3:hr>
            <ns3:cad>0</ns3:cad>
          </ns3:TrackPointExtension>
        </extensions>
      </trkpt>
      <trkpt lat="37.77159112505614757537841796875" lon="-107.706173323094844818115234375">
        <ele>3870.39990234375</ele>
        <time>2023-07-29T17:18:24.000Z</time>
        <extensions>
          <ns3:TrackPointExtension>
            <ns3:hr>101</ns3:hr>
            <ns3:cad>0</ns3:cad>
          </ns3:TrackPointExtension>
        </extensions>
      </trkpt>
      <trkpt lat="37.77158659882843494415283203125" lon="-107.7061708085238933563232421875">
        <ele>3870.199951171875</ele>
        <time>2023-07-29T17:18:25.000Z</time>
        <extensions>
          <ns3:TrackPointExtension>
            <ns3:hr>101</ns3:hr>
            <ns3:cad>0</ns3:cad>
          </ns3:TrackPointExtension>
        </extensions>
      </trkpt>
      <trkpt lat="37.7715836651623249053955078125" lon="-107.706165947020053863525390625">
        <ele>3870.199951171875</ele>
        <time>2023-07-29T17:18:26.000Z</time>
        <extensions>
          <ns3:TrackPointExtension>
            <ns3:hr>101</ns3:hr>
            <ns3:cad>0</ns3:cad>
          </ns3:TrackPointExtension>
        </extensions>
      </trkpt>
      <trkpt lat="37.771578468382358551025390625" lon="-107.70616100169718265533447265625">
        <ele>3870</ele>
        <time>2023-07-29T17:18:27.000Z</time>
        <extensions>
          <ns3:TrackPointExtension>
            <ns3:hr>101</ns3:hr>
            <ns3:cad>0</ns3:cad>
          </ns3:TrackPointExtension>
        </extensions>
      </trkpt>
      <trkpt lat="37.77157746255397796630859375" lon="-107.7061614207923412322998046875">
        <ele>3869.800048828125</ele>
        <time>2023-07-29T17:18:28.000Z</time>
        <extensions>
          <ns3:TrackPointExtension>
            <ns3:hr>100</ns3:hr>
            <ns3:cad>0</ns3:cad>
          </ns3:TrackPointExtension>
        </extensions>
      </trkpt>
      <trkpt lat="37.77157478034496307373046875" lon="-107.7061573974788188934326171875">
        <ele>3869.60009765625</ele>
        <time>2023-07-29T17:18:29.000Z</time>
        <extensions>
          <ns3:TrackPointExtension>
            <ns3:hr>100</ns3:hr>
            <ns3:cad>0</ns3:cad>
          </ns3:TrackPointExtension>
        </extensions>
      </trkpt>
      <trkpt lat="37.771572768688201904296875" lon="-107.70615798421204090118408203125">
        <ele>3869.39990234375</ele>
        <time>2023-07-29T17:18:30.000Z</time>
        <extensions>
          <ns3:TrackPointExtension>
            <ns3:hr>99</ns3:hr>
            <ns3:cad>0</ns3:cad>
          </ns3:TrackPointExtension>
        </extensions>
      </trkpt>
      <trkpt lat="37.77157100848853588104248046875" lon="-107.706153206527233123779296875">
        <ele>3869.199951171875</ele>
        <time>2023-07-29T17:18:31.000Z</time>
        <extensions>
          <ns3:TrackPointExtension>
            <ns3:hr>98</ns3:hr>
            <ns3:cad>0</ns3:cad>
          </ns3:TrackPointExtension>
        </extensions>
      </trkpt>
      <trkpt lat="37.77156916446983814239501953125" lon="-107.70614993758499622344970703125">
        <ele>3869.199951171875</ele>
        <time>2023-07-29T17:18:32.000Z</time>
        <extensions>
          <ns3:TrackPointExtension>
            <ns3:hr>98</ns3:hr>
            <ns3:cad>0</ns3:cad>
          </ns3:TrackPointExtension>
        </extensions>
      </trkpt>
      <trkpt lat="37.77156463824212551116943359375" lon="-107.7061470039188861846923828125">
        <ele>3869</ele>
        <time>2023-07-29T17:18:33.000Z</time>
        <extensions>
          <ns3:TrackPointExtension>
            <ns3:hr>97</ns3:hr>
            <ns3:cad>0</ns3:cad>
          </ns3:TrackPointExtension>
        </extensions>
      </trkpt>
      <trkpt lat="37.7715618722140789031982421875" lon="-107.706145159900188446044921875">
        <ele>3868.60009765625</ele>
        <time>2023-07-29T17:18:34.000Z</time>
        <extensions>
          <ns3:TrackPointExtension>
            <ns3:hr>97</ns3:hr>
            <ns3:cad>0</ns3:cad>
          </ns3:TrackPointExtension>
        </extensions>
      </trkpt>
      <trkpt lat="37.7715608663856983184814453125" lon="-107.7061454951763153076171875">
        <ele>3868.60009765625</ele>
        <time>2023-07-29T17:18:35.000Z</time>
        <extensions>
          <ns3:TrackPointExtension>
            <ns3:hr>97</ns3:hr>
            <ns3:cad>0</ns3:cad>
          </ns3:TrackPointExtension>
        </extensions>
      </trkpt>
      <trkpt lat="37.7715605311095714569091796875" lon="-107.70614624954760074615478515625">
        <ele>3868.39990234375</ele>
        <time>2023-07-29T17:18:36.000Z</time>
        <extensions>
          <ns3:TrackPointExtension>
            <ns3:hr>96</ns3:hr>
            <ns3:cad>0</ns3:cad>
          </ns3:TrackPointExtension>
        </extensions>
      </trkpt>
      <trkpt lat="37.771562375128269195556640625" lon="-107.706149518489837646484375">
        <ele>3868.39990234375</ele>
        <time>2023-07-29T17:18:37.000Z</time>
        <extensions>
          <ns3:TrackPointExtension>
            <ns3:hr>96</ns3:hr>
            <ns3:cad>0</ns3:cad>
          </ns3:TrackPointExtension>
        </extensions>
      </trkpt>
      <trkpt lat="37.77156111784279346466064453125" lon="-107.70615932531654834747314453125">
        <ele>3868.199951171875</ele>
        <time>2023-07-29T17:18:38.000Z</time>
        <extensions>
          <ns3:TrackPointExtension>
            <ns3:hr>96</ns3:hr>
            <ns3:cad>55</ns3:cad>
          </ns3:TrackPointExtension>
        </extensions>
      </trkpt>
      <trkpt lat="37.77156044729053974151611328125" lon="-107.70616988651454448699951171875">
        <ele>3868</ele>
        <time>2023-07-29T17:18:39.000Z</time>
        <extensions>
          <ns3:TrackPointExtension>
            <ns3:hr>96</ns3:hr>
            <ns3:cad>55</ns3:cad>
          </ns3:TrackPointExtension>
        </extensions>
      </trkpt>
      <trkpt lat="37.77155994437634944915771484375" lon="-107.7061808668076992034912109375">
        <ele>3867.60009765625</ele>
        <time>2023-07-29T17:18:40.000Z</time>
        <extensions>
          <ns3:TrackPointExtension>
            <ns3:hr>96</ns3:hr>
            <ns3:cad>55</ns3:cad>
          </ns3:TrackPointExtension>
        </extensions>
      </trkpt>
      <trkpt lat="37.77155759744346141815185546875" lon="-107.70618866197764873504638671875">
        <ele>3867.39990234375</ele>
        <time>2023-07-29T17:18:41.000Z</time>
        <extensions>
          <ns3:TrackPointExtension>
            <ns3:hr>96</ns3:hr>
            <ns3:cad>55</ns3:cad>
          </ns3:TrackPointExtension>
        </extensions>
      </trkpt>
      <trkpt lat="37.77155399322509765625" lon="-107.706197798252105712890625">
        <ele>3867.199951171875</ele>
        <time>2023-07-29T17:18:42.000Z</time>
        <extensions>
          <ns3:TrackPointExtension>
            <ns3:hr>96</ns3:hr>
            <ns3:cad>55</ns3:cad>
          </ns3:TrackPointExtension>
        </extensions>
      </trkpt>
      <trkpt lat="37.7715514786541461944580078125" lon="-107.7062046714127063751220703125">
        <ele>3867</ele>
        <time>2023-07-29T17:18:43.000Z</time>
        <extensions>
          <ns3:TrackPointExtension>
            <ns3:hr>96</ns3:hr>
            <ns3:cad>55</ns3:cad>
          </ns3:TrackPointExtension>
        </extensions>
      </trkpt>
      <trkpt lat="37.77154888026416301727294921875" lon="-107.70621648989617824554443359375">
        <ele>3867</ele>
        <time>2023-07-29T17:18:44.000Z</time>
        <extensions>
          <ns3:TrackPointExtension>
            <ns3:hr>96</ns3:hr>
            <ns3:cad>62</ns3:cad>
          </ns3:TrackPointExtension>
        </extensions>
      </trkpt>
      <trkpt lat="37.7715472877025604248046875" lon="-107.70622923038899898529052734375">
        <ele>3866.60009765625</ele>
        <time>2023-07-29T17:18:45.000Z</time>
        <extensions>
          <ns3:TrackPointExtension>
            <ns3:hr>96</ns3:hr>
            <ns3:cad>62</ns3:cad>
          </ns3:TrackPointExtension>
        </extensions>
      </trkpt>
      <trkpt lat="37.7715477906167507171630859375" lon="-107.7062361873686313629150390625">
        <ele>3866.39990234375</ele>
        <time>2023-07-29T17:18:46.000Z</time>
        <extensions>
          <ns3:TrackPointExtension>
            <ns3:hr>96</ns3:hr>
            <ns3:cad>62</ns3:cad>
          </ns3:TrackPointExtension>
        </extensions>
      </trkpt>
      <trkpt lat="37.77154116891324520111083984375" lon="-107.70624264143407344818115234375">
        <ele>3866</ele>
        <time>2023-07-29T17:18:47.000Z</time>
        <extensions>
          <ns3:TrackPointExtension>
            <ns3:hr>96</ns3:hr>
            <ns3:cad>59</ns3:cad>
          </ns3:TrackPointExtension>
        </extensions>
      </trkpt>
      <trkpt lat="37.77154066599905490875244140625" lon="-107.7062499336898326873779296875">
        <ele>3865.800048828125</ele>
        <time>2023-07-29T17:18:48.000Z</time>
        <extensions>
          <ns3:TrackPointExtension>
            <ns3:hr>96</ns3:hr>
            <ns3:cad>59</ns3:cad>
          </ns3:TrackPointExtension>
        </extensions>
      </trkpt>
      <trkpt lat="37.7715370617806911468505859375" lon="-107.70625890232622623443603515625">
        <ele>3865.800048828125</ele>
        <time>2023-07-29T17:18:49.000Z</time>
        <extensions>
          <ns3:TrackPointExtension>
            <ns3:hr>96</ns3:hr>
            <ns3:cad>59</ns3:cad>
          </ns3:TrackPointExtension>
        </extensions>
      </trkpt>
      <trkpt lat="37.77153312228620052337646484375" lon="-107.70626862533390522003173828125">
        <ele>3865.800048828125</ele>
        <time>2023-07-29T17:18:50.000Z</time>
        <extensions>
          <ns3:TrackPointExtension>
            <ns3:hr>96</ns3:hr>
            <ns3:cad>59</ns3:cad>
          </ns3:TrackPointExtension>
        </extensions>
      </trkpt>
      <trkpt lat="37.77152918279170989990234375" lon="-107.70627633668482303619384765625">
        <ele>3865.60009765625</ele>
        <time>2023-07-29T17:18:51.000Z</time>
        <extensions>
          <ns3:TrackPointExtension>
            <ns3:hr>95</ns3:hr>
            <ns3:cad>0</ns3:cad>
          </ns3:TrackPointExtension>
        </extensions>
      </trkpt>
      <trkpt lat="37.7715296857059001922607421875" lon="-107.7062831260263919830322265625">
        <ele>3865.39990234375</ele>
        <time>2023-07-29T17:18:52.000Z</time>
        <extensions>
          <ns3:TrackPointExtension>
            <ns3:hr>95</ns3:hr>
            <ns3:cad>0</ns3:cad>
          </ns3:TrackPointExtension>
        </extensions>
      </trkpt>
      <trkpt lat="37.77152574621140956878662109375" lon="-107.7062968723475933074951171875">
        <ele>3865.39990234375</ele>
        <time>2023-07-29T17:18:53.000Z</time>
        <extensions>
          <ns3:TrackPointExtension>
            <ns3:hr>95</ns3:hr>
            <ns3:cad>0</ns3:cad>
          </ns3:TrackPointExtension>
        </extensions>
      </trkpt>
      <trkpt lat="37.7715243212878704071044921875" lon="-107.7063042484223842620849609375">
        <ele>3865</ele>
        <time>2023-07-29T17:18:54.000Z</time>
        <extensions>
          <ns3:TrackPointExtension>
            <ns3:hr>95</ns3:hr>
            <ns3:cad>0</ns3:cad>
          </ns3:TrackPointExtension>
        </extensions>
      </trkpt>
      <trkpt lat="37.77151954360306262969970703125" lon="-107.706308104097843170166015625">
        <ele>3864.800048828125</ele>
        <time>2023-07-29T17:18:55.000Z</time>
        <extensions>
          <ns3:TrackPointExtension>
            <ns3:hr>95</ns3:hr>
            <ns3:cad>0</ns3:cad>
          </ns3:TrackPointExtension>
        </extensions>
      </trkpt>
      <trkpt lat="37.77151334099471569061279296875" lon="-107.70631472580134868621826171875">
        <ele>3864.39990234375</ele>
        <time>2023-07-29T17:18:56.000Z</time>
        <extensions>
          <ns3:TrackPointExtension>
            <ns3:hr>95</ns3:hr>
            <ns3:cad>0</ns3:cad>
          </ns3:TrackPointExtension>
        </extensions>
      </trkpt>
      <trkpt lat="37.7715105749666690826416015625" lon="-107.70632050931453704833984375">
        <ele>3864.199951171875</ele>
        <time>2023-07-29T17:18:57.000Z</time>
        <extensions>
          <ns3:TrackPointExtension>
            <ns3:hr>95</ns3:hr>
            <ns3:cad>0</ns3:cad>
          </ns3:TrackPointExtension>
        </extensions>
      </trkpt>
      <trkpt lat="37.77150277979671955108642578125" lon="-107.7063307352364063262939453125">
        <ele>3863.800048828125</ele>
        <time>2023-07-29T17:18:58.000Z</time>
        <extensions>
          <ns3:TrackPointExtension>
            <ns3:hr>95</ns3:hr>
            <ns3:cad>0</ns3:cad>
          </ns3:TrackPointExtension>
        </extensions>
      </trkpt>
      <trkpt lat="37.7714964933693408966064453125" lon="-107.7063439786434173583984375">
        <ele>3863.60009765625</ele>
        <time>2023-07-29T17:18:59.000Z</time>
        <extensions>
          <ns3:TrackPointExtension>
            <ns3:hr>95</ns3:hr>
            <ns3:cad>0</ns3:cad>
          </ns3:TrackPointExtension>
        </extensions>
      </trkpt>
      <trkpt lat="37.7714877761900424957275390625" lon="-107.7063491754233837127685546875">
        <ele>3863.39990234375</ele>
        <time>2023-07-29T17:19:00.000Z</time>
        <extensions>
          <ns3:TrackPointExtension>
            <ns3:hr>95</ns3:hr>
            <ns3:cad>0</ns3:cad>
          </ns3:TrackPointExtension>
        </extensions>
      </trkpt>
      <trkpt lat="37.7714810706675052642822265625" lon="-107.7063528634607791900634765625">
        <ele>3863.199951171875</ele>
        <time>2023-07-29T17:19:01.000Z</time>
        <extensions>
          <ns3:TrackPointExtension>
            <ns3:hr>95</ns3:hr>
            <ns3:cad>0</ns3:cad>
          </ns3:TrackPointExtension>
        </extensions>
      </trkpt>
      <trkpt lat="37.7714743651449680328369140625" lon="-107.70635864697396755218505859375">
        <ele>3863</ele>
        <time>2023-07-29T17:19:02.000Z</time>
        <extensions>
          <ns3:TrackPointExtension>
            <ns3:hr>96</ns3:hr>
            <ns3:cad>0</ns3:cad>
          </ns3:TrackPointExtension>
        </extensions>
      </trkpt>
      <trkpt lat="37.7714649774134159088134765625" lon="-107.706364430487155914306640625">
        <ele>3862.800048828125</ele>
        <time>2023-07-29T17:19:03.000Z</time>
        <extensions>
          <ns3:TrackPointExtension>
            <ns3:hr>96</ns3:hr>
            <ns3:cad>0</ns3:cad>
          </ns3:TrackPointExtension>
        </extensions>
      </trkpt>
      <trkpt lat="37.77145701460540294647216796875" lon="-107.706369794905185699462890625">
        <ele>3862.39990234375</ele>
        <time>2023-07-29T17:19:04.000Z</time>
        <extensions>
          <ns3:TrackPointExtension>
            <ns3:hr>96</ns3:hr>
            <ns3:cad>0</ns3:cad>
          </ns3:TrackPointExtension>
        </extensions>
      </trkpt>
      <trkpt lat="37.77145131491124629974365234375" lon="-107.70637272857129573822021484375">
        <ele>3862.199951171875</ele>
        <time>2023-07-29T17:19:05.000Z</time>
        <extensions>
          <ns3:TrackPointExtension>
            <ns3:hr>96</ns3:hr>
            <ns3:cad>70</ns3:cad>
          </ns3:TrackPointExtension>
        </extensions>
      </trkpt>
      <trkpt lat="37.77144863270223140716552734375" lon="-107.70637222565710544586181640625">
        <ele>3861.800048828125</ele>
        <time>2023-07-29T17:19:06.000Z</time>
        <extensions>
          <ns3:TrackPointExtension>
            <ns3:hr>96</ns3:hr>
            <ns3:cad>70</ns3:cad>
          </ns3:TrackPointExtension>
        </extensions>
      </trkpt>
      <trkpt lat="37.77144796214997768402099609375" lon="-107.70636954344809055328369140625">
        <ele>3861.800048828125</ele>
        <time>2023-07-29T17:19:07.000Z</time>
        <extensions>
          <ns3:TrackPointExtension>
            <ns3:hr>96</ns3:hr>
            <ns3:cad>0</ns3:cad>
          </ns3:TrackPointExtension>
        </extensions>
      </trkpt>
      <trkpt lat="37.77144812978804111480712890625" lon="-107.70637021400034427642822265625">
        <ele>3861.39990234375</ele>
        <time>2023-07-29T17:19:08.000Z</time>
        <extensions>
          <ns3:TrackPointExtension>
            <ns3:hr>96</ns3:hr>
            <ns3:cad>0</ns3:cad>
          </ns3:TrackPointExtension>
        </extensions>
      </trkpt>
      <trkpt lat="37.77144796214997768402099609375" lon="-107.70636971108615398406982421875">
        <ele>3861.39990234375</ele>
        <time>2023-07-29T17:19:09.000Z</time>
        <extensions>
          <ns3:TrackPointExtension>
            <ns3:hr>97</ns3:hr>
            <ns3:cad>0</ns3:cad>
          </ns3:TrackPointExtension>
        </extensions>
      </trkpt>
      <trkpt lat="37.7714468725025653839111328125" lon="-107.7063681185245513916015625">
        <ele>3861.199951171875</ele>
        <time>2023-07-29T17:19:10.000Z</time>
        <extensions>
          <ns3:TrackPointExtension>
            <ns3:hr>97</ns3:hr>
            <ns3:cad>0</ns3:cad>
          </ns3:TrackPointExtension>
        </extensions>
      </trkpt>
      <trkpt lat="37.7714515663683414459228515625" lon="-107.70636141300201416015625">
        <ele>3861</ele>
        <time>2023-07-29T17:19:11.000Z</time>
        <extensions>
          <ns3:TrackPointExtension>
            <ns3:hr>97</ns3:hr>
            <ns3:cad>0</ns3:cad>
          </ns3:TrackPointExtension>
        </extensions>
      </trkpt>
      <trkpt lat="37.77144377119839191436767578125" lon="-107.7063656039535999298095703125">
        <ele>3861</ele>
        <time>2023-07-29T17:19:12.000Z</time>
        <extensions>
          <ns3:TrackPointExtension>
            <ns3:hr>97</ns3:hr>
            <ns3:cad>0</ns3:cad>
          </ns3:TrackPointExtension>
        </extensions>
      </trkpt>
      <trkpt lat="37.77143337763845920562744140625" lon="-107.70637121982872486114501953125">
        <ele>3861</ele>
        <time>2023-07-29T17:19:13.000Z</time>
        <extensions>
          <ns3:TrackPointExtension>
            <ns3:hr>98</ns3:hr>
            <ns3:cad>0</ns3:cad>
          </ns3:TrackPointExtension>
        </extensions>
      </trkpt>
      <trkpt lat="37.77142432518303394317626953125" lon="-107.7063761651515960693359375">
        <ele>3861</ele>
        <time>2023-07-29T17:19:14.000Z</time>
        <extensions>
          <ns3:TrackPointExtension>
            <ns3:hr>99</ns3:hr>
            <ns3:cad>0</ns3:cad>
          </ns3:TrackPointExtension>
        </extensions>
      </trkpt>
      <trkpt lat="37.77142214588820934295654296875" lon="-107.706379182636737823486328125">
        <ele>3861</ele>
        <time>2023-07-29T17:19:15.000Z</time>
        <extensions>
          <ns3:TrackPointExtension>
            <ns3:hr>99</ns3:hr>
            <ns3:cad>0</ns3:cad>
          </ns3:TrackPointExtension>
        </extensions>
      </trkpt>
      <trkpt lat="37.77141611091792583465576171875" lon="-107.7063867263495922088623046875">
        <ele>3861</ele>
        <time>2023-07-29T17:19:16.000Z</time>
        <extensions>
          <ns3:TrackPointExtension>
            <ns3:hr>100</ns3:hr>
            <ns3:cad>0</ns3:cad>
          </ns3:TrackPointExtension>
        </extensions>
      </trkpt>
      <trkpt lat="37.771412841975688934326171875" lon="-107.70639334805309772491455078125">
        <ele>3860.800048828125</ele>
        <time>2023-07-29T17:19:17.000Z</time>
        <extensions>
          <ns3:TrackPointExtension>
            <ns3:hr>99</ns3:hr>
            <ns3:cad>0</ns3:cad>
          </ns3:TrackPointExtension>
        </extensions>
      </trkpt>
      <trkpt lat="37.7714076451957225799560546875" lon="-107.70640256814658641815185546875">
        <ele>3860.60009765625</ele>
        <time>2023-07-29T17:19:18.000Z</time>
        <extensions>
          <ns3:TrackPointExtension>
            <ns3:hr>99</ns3:hr>
            <ns3:cad>0</ns3:cad>
          </ns3:TrackPointExtension>
        </extensions>
      </trkpt>
      <trkpt lat="37.7714024484157562255859375" lon="-107.70641245879232883453369140625">
        <ele>3860.39990234375</ele>
        <time>2023-07-29T17:19:19.000Z</time>
        <extensions>
          <ns3:TrackPointExtension>
            <ns3:hr>99</ns3:hr>
            <ns3:cad>0</ns3:cad>
          </ns3:TrackPointExtension>
        </extensions>
      </trkpt>
      <trkpt lat="37.77139817364513874053955078125" lon="-107.70642469637095928192138671875">
        <ele>3860.199951171875</ele>
        <time>2023-07-29T17:19:20.000Z</time>
        <extensions>
          <ns3:TrackPointExtension>
            <ns3:hr>99</ns3:hr>
            <ns3:cad>0</ns3:cad>
          </ns3:TrackPointExtension>
        </extensions>
      </trkpt>
      <trkpt lat="37.771392054855823516845703125" lon="-107.7064346708357334136962890625">
        <ele>3860</ele>
        <time>2023-07-29T17:19:21.000Z</time>
        <extensions>
          <ns3:TrackPointExtension>
            <ns3:hr>99</ns3:hr>
            <ns3:cad>0</ns3:cad>
          </ns3:TrackPointExtension>
        </extensions>
      </trkpt>
      <trkpt lat="37.77138568460941314697265625" lon="-107.70644699223339557647705078125">
        <ele>3859.60009765625</ele>
        <time>2023-07-29T17:19:22.000Z</time>
        <extensions>
          <ns3:TrackPointExtension>
            <ns3:hr>99</ns3:hr>
            <ns3:cad>0</ns3:cad>
          </ns3:TrackPointExtension>
        </extensions>
      </trkpt>
      <trkpt lat="37.771376632153987884521484375" lon="-107.70646057091653347015380859375">
        <ele>3859.199951171875</ele>
        <time>2023-07-29T17:19:23.000Z</time>
        <extensions>
          <ns3:TrackPointExtension>
            <ns3:hr>99</ns3:hr>
            <ns3:cad>0</ns3:cad>
          </ns3:TrackPointExtension>
        </extensions>
      </trkpt>
      <trkpt lat="37.77136850170791149139404296875" lon="-107.706474401056766510009765625">
        <ele>3859</ele>
        <time>2023-07-29T17:19:24.000Z</time>
        <extensions>
          <ns3:TrackPointExtension>
            <ns3:hr>98</ns3:hr>
            <ns3:cad>0</ns3:cad>
          </ns3:TrackPointExtension>
        </extensions>
      </trkpt>
      <trkpt lat="37.77136313728988170623779296875" lon="-107.7064832858741283416748046875">
        <ele>3858.60009765625</ele>
        <time>2023-07-29T17:19:25.000Z</time>
        <extensions>
          <ns3:TrackPointExtension>
            <ns3:hr>98</ns3:hr>
            <ns3:cad>0</ns3:cad>
          </ns3:TrackPointExtension>
        </extensions>
      </trkpt>
      <trkpt lat="37.77135492302477359771728515625" lon="-107.7064946852624416351318359375">
        <ele>3858.39990234375</ele>
        <time>2023-07-29T17:19:26.000Z</time>
        <extensions>
          <ns3:TrackPointExtension>
            <ns3:hr>98</ns3:hr>
            <ns3:cad>0</ns3:cad>
          </ns3:TrackPointExtension>
        </extensions>
      </trkpt>
      <trkpt lat="37.7713516540825366973876953125" lon="-107.70650097168982028961181640625">
        <ele>3858.199951171875</ele>
        <time>2023-07-29T17:19:27.000Z</time>
        <extensions>
          <ns3:TrackPointExtension>
            <ns3:hr>98</ns3:hr>
            <ns3:cad>0</ns3:cad>
          </ns3:TrackPointExtension>
        </extensions>
      </trkpt>
      <trkpt lat="37.77134754694998264312744140625" lon="-107.70650549791753292083740234375">
        <ele>3858</ele>
        <time>2023-07-29T17:19:28.000Z</time>
        <extensions>
          <ns3:TrackPointExtension>
            <ns3:hr>98</ns3:hr>
            <ns3:cad>0</ns3:cad>
          </ns3:TrackPointExtension>
        </extensions>
      </trkpt>
      <trkpt lat="37.77134167961776256561279296875" lon="-107.7065107785165309906005859375">
        <ele>3857.800048828125</ele>
        <time>2023-07-29T17:19:29.000Z</time>
        <extensions>
          <ns3:TrackPointExtension>
            <ns3:hr>98</ns3:hr>
            <ns3:cad>0</ns3:cad>
          </ns3:TrackPointExtension>
        </extensions>
      </trkpt>
      <trkpt lat="37.7713362313807010650634765625" lon="-107.70651320926845073699951171875">
        <ele>3857.60009765625</ele>
        <time>2023-07-29T17:19:30.000Z</time>
        <extensions>
          <ns3:TrackPointExtension>
            <ns3:hr>98</ns3:hr>
            <ns3:cad>0</ns3:cad>
          </ns3:TrackPointExtension>
        </extensions>
      </trkpt>
      <trkpt lat="37.77132826857268810272216796875" lon="-107.706519998610019683837890625">
        <ele>3857.60009765625</ele>
        <time>2023-07-29T17:19:31.000Z</time>
        <extensions>
          <ns3:TrackPointExtension>
            <ns3:hr>98</ns3:hr>
            <ns3:cad>0</ns3:cad>
          </ns3:TrackPointExtension>
        </extensions>
      </trkpt>
      <trkpt lat="37.77131804265081882476806640625" lon="-107.70652444101870059967041015625">
        <ele>3857.39990234375</ele>
        <time>2023-07-29T17:19:32.000Z</time>
        <extensions>
          <ns3:TrackPointExtension>
            <ns3:hr>98</ns3:hr>
            <ns3:cad>0</ns3:cad>
          </ns3:TrackPointExtension>
        </extensions>
      </trkpt>
      <trkpt lat="37.771308906376361846923828125" lon="-107.70652896724641323089599609375">
        <ele>3857.39990234375</ele>
        <time>2023-07-29T17:19:33.000Z</time>
        <extensions>
          <ns3:TrackPointExtension>
            <ns3:hr>98</ns3:hr>
            <ns3:cad>0</ns3:cad>
          </ns3:TrackPointExtension>
        </extensions>
      </trkpt>
      <trkpt lat="37.77129775844514369964599609375" lon="-107.70653374493122100830078125">
        <ele>3857</ele>
        <time>2023-07-29T17:19:34.000Z</time>
        <extensions>
          <ns3:TrackPointExtension>
            <ns3:hr>98</ns3:hr>
            <ns3:cad>0</ns3:cad>
          </ns3:TrackPointExtension>
        </extensions>
      </trkpt>
      <trkpt lat="37.7712892927229404449462890625" lon="-107.706540785729885101318359375">
        <ele>3856.800048828125</ele>
        <time>2023-07-29T17:19:35.000Z</time>
        <extensions>
          <ns3:TrackPointExtension>
            <ns3:hr>98</ns3:hr>
            <ns3:cad>61</ns3:cad>
          </ns3:TrackPointExtension>
        </extensions>
      </trkpt>
      <trkpt lat="37.77127713896334171295166015625" lon="-107.7065483294427394866943359375">
        <ele>3856.60009765625</ele>
        <time>2023-07-29T17:19:36.000Z</time>
        <extensions>
          <ns3:TrackPointExtension>
            <ns3:hr>98</ns3:hr>
            <ns3:cad>61</ns3:cad>
          </ns3:TrackPointExtension>
        </extensions>
      </trkpt>
      <trkpt lat="37.7712656557559967041015625" lon="-107.706556878983974456787109375">
        <ele>3856.199951171875</ele>
        <time>2023-07-29T17:19:37.000Z</time>
        <extensions>
          <ns3:TrackPointExtension>
            <ns3:hr>98</ns3:hr>
            <ns3:cad>61</ns3:cad>
          </ns3:TrackPointExtension>
        </extensions>
      </trkpt>
      <trkpt lat="37.77125023305416107177734375" lon="-107.7065657638013362884521484375">
        <ele>3855.800048828125</ele>
        <time>2023-07-29T17:19:38.000Z</time>
        <extensions>
          <ns3:TrackPointExtension>
            <ns3:hr>98</ns3:hr>
            <ns3:cad>61</ns3:cad>
          </ns3:TrackPointExtension>
        </extensions>
      </trkpt>
      <trkpt lat="37.77123657055199146270751953125" lon="-107.70657339133322238922119140625">
        <ele>3855.39990234375</ele>
        <time>2023-07-29T17:19:39.000Z</time>
        <extensions>
          <ns3:TrackPointExtension>
            <ns3:hr>98</ns3:hr>
            <ns3:cad>61</ns3:cad>
          </ns3:TrackPointExtension>
        </extensions>
      </trkpt>
      <trkpt lat="37.77122617699205875396728515625" lon="-107.7065801806747913360595703125">
        <ele>3855.199951171875</ele>
        <time>2023-07-29T17:19:40.000Z</time>
        <extensions>
          <ns3:TrackPointExtension>
            <ns3:hr>98</ns3:hr>
            <ns3:cad>61</ns3:cad>
          </ns3:TrackPointExtension>
        </extensions>
      </trkpt>
      <trkpt lat="37.77121997438371181488037109375" lon="-107.7065852098166942596435546875">
        <ele>3855.199951171875</ele>
        <time>2023-07-29T17:19:41.000Z</time>
        <extensions>
          <ns3:TrackPointExtension>
            <ns3:hr>97</ns3:hr>
            <ns3:cad>61</ns3:cad>
          </ns3:TrackPointExtension>
        </extensions>
      </trkpt>
      <trkpt lat="37.77121025137603282928466796875" lon="-107.7065934240818023681640625">
        <ele>3855.199951171875</ele>
        <time>2023-07-29T17:19:42.000Z</time>
        <extensions>
          <ns3:TrackPointExtension>
            <ns3:hr>97</ns3:hr>
            <ns3:cad>61</ns3:cad>
          </ns3:TrackPointExtension>
        </extensions>
      </trkpt>
      <trkpt lat="37.7712017856538295745849609375" lon="-107.70660021342337131500244140625">
        <ele>3855.199951171875</ele>
        <time>2023-07-29T17:19:43.000Z</time>
        <extensions>
          <ns3:TrackPointExtension>
            <ns3:hr>98</ns3:hr>
            <ns3:cad>61</ns3:cad>
          </ns3:TrackPointExtension>
        </extensions>
      </trkpt>
      <trkpt lat="37.771194912493228912353515625" lon="-107.7066056616604328155517578125">
        <ele>3854.800048828125</ele>
        <time>2023-07-29T17:19:44.000Z</time>
        <extensions>
          <ns3:TrackPointExtension>
            <ns3:hr>98</ns3:hr>
            <ns3:cad>61</ns3:cad>
          </ns3:TrackPointExtension>
        </extensions>
      </trkpt>
      <trkpt lat="37.771189548075199127197265625" lon="-107.70661228336393833160400390625">
        <ele>3854.60009765625</ele>
        <time>2023-07-29T17:19:45.000Z</time>
        <extensions>
          <ns3:TrackPointExtension>
            <ns3:hr>98</ns3:hr>
            <ns3:cad>0</ns3:cad>
          </ns3:TrackPointExtension>
        </extensions>
      </trkpt>
      <trkpt lat="37.77117781341075897216796875" lon="-107.7066197432577610015869140625">
        <ele>3854.60009765625</ele>
        <time>2023-07-29T17:19:46.000Z</time>
        <extensions>
          <ns3:TrackPointExtension>
            <ns3:hr>98</ns3:hr>
            <ns3:cad>0</ns3:cad>
          </ns3:TrackPointExtension>
        </extensions>
      </trkpt>
      <trkpt lat="37.7711699344217777252197265625" lon="-107.70662359893321990966796875">
        <ele>3854.60009765625</ele>
        <time>2023-07-29T17:19:47.000Z</time>
        <extensions>
          <ns3:TrackPointExtension>
            <ns3:hr>98</ns3:hr>
            <ns3:cad>59</ns3:cad>
          </ns3:TrackPointExtension>
        </extensions>
      </trkpt>
      <trkpt lat="37.77116498909890651702880859375" lon="-107.70662602968513965606689453125">
        <ele>3854.60009765625</ele>
        <time>2023-07-29T17:19:48.000Z</time>
        <extensions>
          <ns3:TrackPointExtension>
            <ns3:hr>99</ns3:hr>
            <ns3:cad>59</ns3:cad>
          </ns3:TrackPointExtension>
        </extensions>
      </trkpt>
      <trkpt lat="37.7711530029773712158203125" lon="-107.706632651388645172119140625">
        <ele>3854.39990234375</ele>
        <time>2023-07-29T17:19:49.000Z</time>
        <extensions>
          <ns3:TrackPointExtension>
            <ns3:hr>99</ns3:hr>
            <ns3:cad>53</ns3:cad>
          </ns3:TrackPointExtension>
        </extensions>
      </trkpt>
      <trkpt lat="37.77114319615066051483154296875" lon="-107.70663642324507236480712890625">
        <ele>3854.39990234375</ele>
        <time>2023-07-29T17:19:50.000Z</time>
        <extensions>
          <ns3:TrackPointExtension>
            <ns3:hr>99</ns3:hr>
            <ns3:cad>53</ns3:cad>
          </ns3:TrackPointExtension>
        </extensions>
      </trkpt>
      <trkpt lat="37.7711350657045841217041015625" lon="-107.70664597861468791961669921875">
        <ele>3854.39990234375</ele>
        <time>2023-07-29T17:19:51.000Z</time>
        <extensions>
          <ns3:TrackPointExtension>
            <ns3:hr>99</ns3:hr>
            <ns3:cad>53</ns3:cad>
          </ns3:TrackPointExtension>
        </extensions>
      </trkpt>
      <trkpt lat="37.77112609706819057464599609375" lon="-107.70665310323238372802734375">
        <ele>3854.39990234375</ele>
        <time>2023-07-29T17:19:52.000Z</time>
        <extensions>
          <ns3:TrackPointExtension>
            <ns3:hr>99</ns3:hr>
            <ns3:cad>61</ns3:cad>
          </ns3:TrackPointExtension>
        </extensions>
      </trkpt>
      <trkpt lat="37.7711234986782073974609375" lon="-107.70666425116360187530517578125">
        <ele>3854.39990234375</ele>
        <time>2023-07-29T17:19:53.000Z</time>
        <extensions>
          <ns3:TrackPointExtension>
            <ns3:hr>99</ns3:hr>
            <ns3:cad>61</ns3:cad>
          </ns3:TrackPointExtension>
        </extensions>
      </trkpt>
      <trkpt lat="37.77112014591693878173828125" lon="-107.70666777156293392181396484375">
        <ele>3854.39990234375</ele>
        <time>2023-07-29T17:19:54.000Z</time>
        <extensions>
          <ns3:TrackPointExtension>
            <ns3:hr>99</ns3:hr>
            <ns3:cad>0</ns3:cad>
          </ns3:TrackPointExtension>
        </extensions>
      </trkpt>
      <trkpt lat="37.7711127698421478271484375" lon="-107.7066720463335514068603515625">
        <ele>3854.39990234375</ele>
        <time>2023-07-29T17:19:55.000Z</time>
        <extensions>
          <ns3:TrackPointExtension>
            <ns3:hr>99</ns3:hr>
            <ns3:cad>0</ns3:cad>
          </ns3:TrackPointExtension>
        </extensions>
      </trkpt>
      <trkpt lat="37.771109081804752349853515625" lon="-107.7066770754754543304443359375">
        <ele>3854.39990234375</ele>
        <time>2023-07-29T17:19:56.000Z</time>
        <extensions>
          <ns3:TrackPointExtension>
            <ns3:hr>99</ns3:hr>
            <ns3:cad>0</ns3:cad>
          </ns3:TrackPointExtension>
        </extensions>
      </trkpt>
      <trkpt lat="37.7711008675396442413330078125" lon="-107.70668621174991130828857421875">
        <ele>3854.39990234375</ele>
        <time>2023-07-29T17:19:57.000Z</time>
        <extensions>
          <ns3:TrackPointExtension>
            <ns3:hr>99</ns3:hr>
            <ns3:cad>0</ns3:cad>
          </ns3:TrackPointExtension>
        </extensions>
      </trkpt>
      <trkpt lat="37.77109676040709018707275390625" lon="-107.70669207908213138580322265625">
        <ele>3854.39990234375</ele>
        <time>2023-07-29T17:19:58.000Z</time>
        <extensions>
          <ns3:TrackPointExtension>
            <ns3:hr>99</ns3:hr>
            <ns3:cad>0</ns3:cad>
          </ns3:TrackPointExtension>
        </extensions>
      </trkpt>
      <trkpt lat="37.77108787558972835540771484375" lon="-107.70670347847044467926025390625">
        <ele>3854.39990234375</ele>
        <time>2023-07-29T17:19:59.000Z</time>
        <extensions>
          <ns3:TrackPointExtension>
            <ns3:hr>99</ns3:hr>
            <ns3:cad>0</ns3:cad>
          </ns3:TrackPointExtension>
        </extensions>
      </trkpt>
      <trkpt lat="37.77107454836368560791015625" lon="-107.7067156322300434112548828125">
        <ele>3854.199951171875</ele>
        <time>2023-07-29T17:20:00.000Z</time>
        <extensions>
          <ns3:TrackPointExtension>
            <ns3:hr>99</ns3:hr>
            <ns3:cad>0</ns3:cad>
          </ns3:TrackPointExtension>
        </extensions>
      </trkpt>
      <trkpt lat="37.77106524445116519927978515625" lon="-107.70672225393354892730712890625">
        <ele>3854.199951171875</ele>
        <time>2023-07-29T17:20:01.000Z</time>
        <extensions>
          <ns3:TrackPointExtension>
            <ns3:hr>98</ns3:hr>
            <ns3:cad>57</ns3:cad>
          </ns3:TrackPointExtension>
        </extensions>
      </trkpt>
      <trkpt lat="37.771054767072200775146484375" lon="-107.70672979764640331268310546875">
        <ele>3853.800048828125</ele>
        <time>2023-07-29T17:20:02.000Z</time>
        <extensions>
          <ns3:TrackPointExtension>
            <ns3:hr>98</ns3:hr>
            <ns3:cad>57</ns3:cad>
          </ns3:TrackPointExtension>
        </extensions>
      </trkpt>
      <trkpt lat="37.7710445411503314971923828125" lon="-107.70673700608313083648681640625">
        <ele>3853.60009765625</ele>
        <time>2023-07-29T17:20:03.000Z</time>
        <extensions>
          <ns3:TrackPointExtension>
            <ns3:hr>98</ns3:hr>
            <ns3:cad>57</ns3:cad>
          </ns3:TrackPointExtension>
        </extensions>
      </trkpt>
      <trkpt lat="37.77103356085717678070068359375" lon="-107.7067464776337146759033203125">
        <ele>3853.60009765625</ele>
        <time>2023-07-29T17:20:04.000Z</time>
        <extensions>
          <ns3:TrackPointExtension>
            <ns3:hr>97</ns3:hr>
            <ns3:cad>57</ns3:cad>
          </ns3:TrackPointExtension>
        </extensions>
      </trkpt>
      <trkpt lat="37.77102601714432239532470703125" lon="-107.70674974657595157623291015625">
        <ele>3853.39990234375</ele>
        <time>2023-07-29T17:20:05.000Z</time>
        <extensions>
          <ns3:TrackPointExtension>
            <ns3:hr>97</ns3:hr>
            <ns3:cad>57</ns3:cad>
          </ns3:TrackPointExtension>
        </extensions>
      </trkpt>
      <trkpt lat="37.77101780287921428680419921875" lon="-107.7067518420517444610595703125">
        <ele>3853.39990234375</ele>
        <time>2023-07-29T17:20:06.000Z</time>
        <extensions>
          <ns3:TrackPointExtension>
            <ns3:hr>96</ns3:hr>
            <ns3:cad>57</ns3:cad>
          </ns3:TrackPointExtension>
        </extensions>
      </trkpt>
      <trkpt lat="37.7710066549479961395263671875" lon="-107.70675242878496646881103515625">
        <ele>3853.199951171875</ele>
        <time>2023-07-29T17:20:07.000Z</time>
        <extensions>
          <ns3:TrackPointExtension>
            <ns3:hr>96</ns3:hr>
            <ns3:cad>57</ns3:cad>
          </ns3:TrackPointExtension>
        </extensions>
      </trkpt>
      <trkpt lat="37.770998440682888031005859375" lon="-107.706755697727203369140625">
        <ele>3853</ele>
        <time>2023-07-29T17:20:08.000Z</time>
        <extensions>
          <ns3:TrackPointExtension>
            <ns3:hr>95</ns3:hr>
            <ns3:cad>57</ns3:cad>
          </ns3:TrackPointExtension>
        </extensions>
      </trkpt>
      <trkpt lat="37.77098963968455791473388671875" lon="-107.706761062145233154296875">
        <ele>3852.800048828125</ele>
        <time>2023-07-29T17:20:09.000Z</time>
        <extensions>
          <ns3:TrackPointExtension>
            <ns3:hr>95</ns3:hr>
            <ns3:cad>57</ns3:cad>
          </ns3:TrackPointExtension>
        </extensions>
      </trkpt>
      <trkpt lat="37.7709821797907352447509765625" lon="-107.70676248706877231597900390625">
        <ele>3852.800048828125</ele>
        <time>2023-07-29T17:20:10.000Z</time>
        <extensions>
          <ns3:TrackPointExtension>
            <ns3:hr>94</ns3:hr>
            <ns3:cad>57</ns3:cad>
          </ns3:TrackPointExtension>
        </extensions>
      </trkpt>
      <trkpt lat="37.77097455225884914398193359375" lon="-107.70676449872553348541259765625">
        <ele>3852.60009765625</ele>
        <time>2023-07-29T17:20:11.000Z</time>
        <extensions>
          <ns3:TrackPointExtension>
            <ns3:hr>94</ns3:hr>
            <ns3:cad>57</ns3:cad>
          </ns3:TrackPointExtension>
        </extensions>
      </trkpt>
      <trkpt lat="37.77096633799374103546142578125" lon="-107.706764079630374908447265625">
        <ele>3852.60009765625</ele>
        <time>2023-07-29T17:20:12.000Z</time>
        <extensions>
          <ns3:TrackPointExtension>
            <ns3:hr>94</ns3:hr>
            <ns3:cad>57</ns3:cad>
          </ns3:TrackPointExtension>
        </extensions>
      </trkpt>
      <trkpt lat="37.77095695026218891143798828125" lon="-107.7067655883729457855224609375">
        <ele>3852.39990234375</ele>
        <time>2023-07-29T17:20:13.000Z</time>
        <extensions>
          <ns3:TrackPointExtension>
            <ns3:hr>94</ns3:hr>
            <ns3:cad>57</ns3:cad>
          </ns3:TrackPointExtension>
        </extensions>
      </trkpt>
      <trkpt lat="37.77094756253063678741455078125" lon="-107.70676843822002410888671875">
        <ele>3852.199951171875</ele>
        <time>2023-07-29T17:20:14.000Z</time>
        <extensions>
          <ns3:TrackPointExtension>
            <ns3:hr>94</ns3:hr>
            <ns3:cad>57</ns3:cad>
          </ns3:TrackPointExtension>
        </extensions>
      </trkpt>
      <trkpt lat="37.770936749875545501708984375" lon="-107.7067716233432292938232421875">
        <ele>3852.199951171875</ele>
        <time>2023-07-29T17:20:15.000Z</time>
        <extensions>
          <ns3:TrackPointExtension>
            <ns3:hr>95</ns3:hr>
            <ns3:cad>57</ns3:cad>
          </ns3:TrackPointExtension>
        </extensions>
      </trkpt>
      <trkpt lat="37.77092208154499530792236328125" lon="-107.70677556283771991729736328125">
        <ele>3852</ele>
        <time>2023-07-29T17:20:16.000Z</time>
        <extensions>
          <ns3:TrackPointExtension>
            <ns3:hr>95</ns3:hr>
            <ns3:cad>57</ns3:cad>
          </ns3:TrackPointExtension>
        </extensions>
      </trkpt>
      <trkpt lat="37.77091135270893573760986328125" lon="-107.706777490675449371337890625">
        <ele>3851.60009765625</ele>
        <time>2023-07-29T17:20:17.000Z</time>
        <extensions>
          <ns3:TrackPointExtension>
            <ns3:hr>95</ns3:hr>
            <ns3:cad>57</ns3:cad>
          </ns3:TrackPointExtension>
        </extensions>
      </trkpt>
      <trkpt lat="37.77089576236903667449951171875" lon="-107.706780172884464263916015625">
        <ele>3851.60009765625</ele>
        <time>2023-07-29T17:20:18.000Z</time>
        <extensions>
          <ns3:TrackPointExtension>
            <ns3:hr>95</ns3:hr>
            <ns3:cad>57</ns3:cad>
          </ns3:TrackPointExtension>
        </extensions>
      </trkpt>
      <trkpt lat="37.77088654227554798126220703125" lon="-107.70678143016993999481201171875">
        <ele>3851.39990234375</ele>
        <time>2023-07-29T17:20:19.000Z</time>
        <extensions>
          <ns3:TrackPointExtension>
            <ns3:hr>94</ns3:hr>
            <ns3:cad>59</ns3:cad>
          </ns3:TrackPointExtension>
        </extensions>
      </trkpt>
      <trkpt lat="37.77088151313364505767822265625" lon="-107.70678260363638401031494140625">
        <ele>3851.199951171875</ele>
        <time>2023-07-29T17:20:20.000Z</time>
        <extensions>
          <ns3:TrackPointExtension>
            <ns3:hr>94</ns3:hr>
            <ns3:cad>60</ns3:cad>
          </ns3:TrackPointExtension>
        </extensions>
      </trkpt>
      <trkpt lat="37.77087715454399585723876953125" lon="-107.70678511820733547210693359375">
        <ele>3850.800048828125</ele>
        <time>2023-07-29T17:20:21.000Z</time>
        <extensions>
          <ns3:TrackPointExtension>
            <ns3:hr>94</ns3:hr>
            <ns3:cad>60</ns3:cad>
          </ns3:TrackPointExtension>
        </extensions>
      </trkpt>
      <trkpt lat="37.7708780765533447265625" lon="-107.706786878407001495361328125">
        <ele>3850.800048828125</ele>
        <time>2023-07-29T17:20:22.000Z</time>
        <extensions>
          <ns3:TrackPointExtension>
            <ns3:hr>93</ns3:hr>
            <ns3:cad>60</ns3:cad>
          </ns3:TrackPointExtension>
        </extensions>
      </trkpt>
      <trkpt lat="37.770883105695247650146484375" lon="-107.70678989589214324951171875">
        <ele>3850.800048828125</ele>
        <time>2023-07-29T17:20:23.000Z</time>
        <extensions>
          <ns3:TrackPointExtension>
            <ns3:hr>93</ns3:hr>
            <ns3:cad>0</ns3:cad>
          </ns3:TrackPointExtension>
        </extensions>
      </trkpt>
      <trkpt lat="37.77088201604783535003662109375" lon="-107.7067920751869678497314453125">
        <ele>3850.800048828125</ele>
        <time>2023-07-29T17:20:24.000Z</time>
        <extensions>
          <ns3:TrackPointExtension>
            <ns3:hr>93</ns3:hr>
            <ns3:cad>0</ns3:cad>
          </ns3:TrackPointExtension>
        </extensions>
      </trkpt>
      <trkpt lat="37.77087899856269359588623046875" lon="-107.70679182372987270355224609375">
        <ele>3850.60009765625</ele>
        <time>2023-07-29T17:20:25.000Z</time>
        <extensions>
          <ns3:TrackPointExtension>
            <ns3:hr>93</ns3:hr>
            <ns3:cad>0</ns3:cad>
          </ns3:TrackPointExtension>
        </extensions>
      </trkpt>
      <trkpt lat="37.770871035754680633544921875" lon="-107.70679484121501445770263671875">
        <ele>3850.60009765625</ele>
        <time>2023-07-29T17:20:26.000Z</time>
        <extensions>
          <ns3:TrackPointExtension>
            <ns3:hr>93</ns3:hr>
            <ns3:cad>0</ns3:cad>
          </ns3:TrackPointExtension>
        </extensions>
      </trkpt>
      <trkpt lat="37.77086374349892139434814453125" lon="-107.70679836161434650421142578125">
        <ele>3850.39990234375</ele>
        <time>2023-07-29T17:20:27.000Z</time>
        <extensions>
          <ns3:TrackPointExtension>
            <ns3:hr>93</ns3:hr>
            <ns3:cad>0</ns3:cad>
          </ns3:TrackPointExtension>
        </extensions>
      </trkpt>
      <trkpt lat="37.7708658389747142791748046875" lon="-107.7068026363849639892578125">
        <ele>3850.39990234375</ele>
        <time>2023-07-29T17:20:28.000Z</time>
        <extensions>
          <ns3:TrackPointExtension>
            <ns3:hr>93</ns3:hr>
            <ns3:cad>0</ns3:cad>
          </ns3:TrackPointExtension>
        </extensions>
      </trkpt>
      <trkpt lat="37.77086726389825344085693359375" lon="-107.7068061567842960357666015625">
        <ele>3850.39990234375</ele>
        <time>2023-07-29T17:20:29.000Z</time>
        <extensions>
          <ns3:TrackPointExtension>
            <ns3:hr>94</ns3:hr>
            <ns3:cad>0</ns3:cad>
          </ns3:TrackPointExtension>
        </extensions>
      </trkpt>
      <trkpt lat="37.7708608098328113555908203125" lon="-107.70680858753621578216552734375">
        <ele>3850.39990234375</ele>
        <time>2023-07-29T17:20:30.000Z</time>
        <extensions>
          <ns3:TrackPointExtension>
            <ns3:hr>94</ns3:hr>
            <ns3:cad>0</ns3:cad>
          </ns3:TrackPointExtension>
        </extensions>
      </trkpt>
      <trkpt lat="37.77085167355835437774658203125" lon="-107.70681311376392841339111328125">
        <ele>3850.39990234375</ele>
        <time>2023-07-29T17:20:31.000Z</time>
        <extensions>
          <ns3:TrackPointExtension>
            <ns3:hr>94</ns3:hr>
            <ns3:cad>0</ns3:cad>
          </ns3:TrackPointExtension>
        </extensions>
      </trkpt>
      <trkpt lat="37.77084111236035823822021484375" lon="-107.706821747124195098876953125">
        <ele>3850.199951171875</ele>
        <time>2023-07-29T17:20:32.000Z</time>
        <extensions>
          <ns3:TrackPointExtension>
            <ns3:hr>94</ns3:hr>
            <ns3:cad>0</ns3:cad>
          </ns3:TrackPointExtension>
        </extensions>
      </trkpt>
      <trkpt lat="37.77083205990493297576904296875" lon="-107.70683021284639835357666015625">
        <ele>3850.199951171875</ele>
        <time>2023-07-29T17:20:33.000Z</time>
        <extensions>
          <ns3:TrackPointExtension>
            <ns3:hr>94</ns3:hr>
            <ns3:cad>0</ns3:cad>
          </ns3:TrackPointExtension>
        </extensions>
      </trkpt>
      <trkpt lat="37.7708229236304759979248046875" lon="-107.7068373374640941619873046875">
        <ele>3850.199951171875</ele>
        <time>2023-07-29T17:20:34.000Z</time>
        <extensions>
          <ns3:TrackPointExtension>
            <ns3:hr>94</ns3:hr>
            <ns3:cad>0</ns3:cad>
          </ns3:TrackPointExtension>
        </extensions>
      </trkpt>
      <trkpt lat="37.770811356604099273681640625" lon="-107.7068428695201873779296875">
        <ele>3850.199951171875</ele>
        <time>2023-07-29T17:20:35.000Z</time>
        <extensions>
          <ns3:TrackPointExtension>
            <ns3:hr>94</ns3:hr>
            <ns3:cad>0</ns3:cad>
          </ns3:TrackPointExtension>
        </extensions>
      </trkpt>
      <trkpt lat="37.770803309977054595947265625" lon="-107.70684647373855113983154296875">
        <ele>3850</ele>
        <time>2023-07-29T17:20:36.000Z</time>
        <extensions>
          <ns3:TrackPointExtension>
            <ns3:hr>94</ns3:hr>
            <ns3:cad>47</ns3:cad>
          </ns3:TrackPointExtension>
        </extensions>
      </trkpt>
      <trkpt lat="37.7707914076745510101318359375" lon="-107.7068517543375492095947265625">
        <ele>3849.800048828125</ele>
        <time>2023-07-29T17:20:37.000Z</time>
        <extensions>
          <ns3:TrackPointExtension>
            <ns3:hr>94</ns3:hr>
            <ns3:cad>47</ns3:cad>
          </ns3:TrackPointExtension>
        </extensions>
      </trkpt>
      <trkpt lat="37.77078227140009403228759765625" lon="-107.70685368217527866363525390625">
        <ele>3849.800048828125</ele>
        <time>2023-07-29T17:20:38.000Z</time>
        <extensions>
          <ns3:TrackPointExtension>
            <ns3:hr>94</ns3:hr>
            <ns3:cad>55</ns3:cad>
          </ns3:TrackPointExtension>
        </extensions>
      </trkpt>
      <trkpt lat="37.77076886035501956939697265625" lon="-107.7068564482033252716064453125">
        <ele>3849.60009765625</ele>
        <time>2023-07-29T17:20:39.000Z</time>
        <extensions>
          <ns3:TrackPointExtension>
            <ns3:hr>95</ns3:hr>
            <ns3:cad>56</ns3:cad>
          </ns3:TrackPointExtension>
        </extensions>
      </trkpt>
      <trkpt lat="37.77076114900410175323486328125" lon="-107.70685669966042041778564453125">
        <ele>3849.39990234375</ele>
        <time>2023-07-29T17:20:40.000Z</time>
        <extensions>
          <ns3:TrackPointExtension>
            <ns3:hr>95</ns3:hr>
            <ns3:cad>56</ns3:cad>
          </ns3:TrackPointExtension>
        </extensions>
      </trkpt>
      <trkpt lat="37.77075142599642276763916015625" lon="-107.7068574540317058563232421875">
        <ele>3849.199951171875</ele>
        <time>2023-07-29T17:20:41.000Z</time>
        <extensions>
          <ns3:TrackPointExtension>
            <ns3:hr>95</ns3:hr>
            <ns3:cad>56</ns3:cad>
          </ns3:TrackPointExtension>
        </extensions>
      </trkpt>
      <trkpt lat="37.77073952369391918182373046875" lon="-107.70685686729848384857177734375">
        <ele>3849</ele>
        <time>2023-07-29T17:20:42.000Z</time>
        <extensions>
          <ns3:TrackPointExtension>
            <ns3:hr>96</ns3:hr>
            <ns3:cad>56</ns3:cad>
          </ns3:TrackPointExtension>
        </extensions>
      </trkpt>
      <trkpt lat="37.7707300521433353424072265625" lon="-107.7068577893078327178955078125">
        <ele>3849</ele>
        <time>2023-07-29T17:20:43.000Z</time>
        <extensions>
          <ns3:TrackPointExtension>
            <ns3:hr>96</ns3:hr>
            <ns3:cad>0</ns3:cad>
          </ns3:TrackPointExtension>
        </extensions>
      </trkpt>
      <trkpt lat="37.77071856893599033355712890625" lon="-107.7068591304123401641845703125">
        <ele>3848.800048828125</ele>
        <time>2023-07-29T17:20:44.000Z</time>
        <extensions>
          <ns3:TrackPointExtension>
            <ns3:hr>97</ns3:hr>
            <ns3:cad>0</ns3:cad>
          </ns3:TrackPointExtension>
        </extensions>
      </trkpt>
      <trkpt lat="37.77071320451796054840087890625" lon="-107.7068564482033252716064453125">
        <ele>3848.60009765625</ele>
        <time>2023-07-29T17:20:45.000Z</time>
        <extensions>
          <ns3:TrackPointExtension>
            <ns3:hr>97</ns3:hr>
            <ns3:cad>0</ns3:cad>
          </ns3:TrackPointExtension>
        </extensions>
      </trkpt>
      <trkpt lat="37.77070398442447185516357421875" lon="-107.7068564482033252716064453125">
        <ele>3848.60009765625</ele>
        <time>2023-07-29T17:20:46.000Z</time>
        <extensions>
          <ns3:TrackPointExtension>
            <ns3:hr>97</ns3:hr>
            <ns3:cad>0</ns3:cad>
          </ns3:TrackPointExtension>
        </extensions>
      </trkpt>
      <trkpt lat="37.77069635689258575439453125" lon="-107.70685351453721523284912109375">
        <ele>3848.199951171875</ele>
        <time>2023-07-29T17:20:47.000Z</time>
        <extensions>
          <ns3:TrackPointExtension>
            <ns3:hr>98</ns3:hr>
            <ns3:cad>0</ns3:cad>
          </ns3:TrackPointExtension>
        </extensions>
      </trkpt>
      <trkpt lat="37.77068403549492359161376953125" lon="-107.70685351453721523284912109375">
        <ele>3848</ele>
        <time>2023-07-29T17:20:48.000Z</time>
        <extensions>
          <ns3:TrackPointExtension>
            <ns3:hr>98</ns3:hr>
            <ns3:cad>0</ns3:cad>
          </ns3:TrackPointExtension>
        </extensions>
      </trkpt>
      <trkpt lat="37.7706703729927539825439453125" lon="-107.706854604184627532958984375">
        <ele>3848</ele>
        <time>2023-07-29T17:20:49.000Z</time>
        <extensions>
          <ns3:TrackPointExtension>
            <ns3:hr>98</ns3:hr>
            <ns3:cad>0</ns3:cad>
          </ns3:TrackPointExtension>
        </extensions>
      </trkpt>
      <trkpt lat="37.7706619910895824432373046875" lon="-107.70685837604105472564697265625">
        <ele>3847.800048828125</ele>
        <time>2023-07-29T17:20:50.000Z</time>
        <extensions>
          <ns3:TrackPointExtension>
            <ns3:hr>98</ns3:hr>
            <ns3:cad>0</ns3:cad>
          </ns3:TrackPointExtension>
        </extensions>
      </trkpt>
      <trkpt lat="37.77065805159509181976318359375" lon="-107.7068638242781162261962890625">
        <ele>3847.60009765625</ele>
        <time>2023-07-29T17:20:51.000Z</time>
        <extensions>
          <ns3:TrackPointExtension>
            <ns3:hr>98</ns3:hr>
            <ns3:cad>0</ns3:cad>
          </ns3:TrackPointExtension>
        </extensions>
      </trkpt>
      <trkpt lat="37.77065838687121868133544921875" lon="-107.70686826668679714202880859375">
        <ele>3847.199951171875</ele>
        <time>2023-07-29T17:20:52.000Z</time>
        <extensions>
          <ns3:TrackPointExtension>
            <ns3:hr>98</ns3:hr>
            <ns3:cad>0</ns3:cad>
          </ns3:TrackPointExtension>
        </extensions>
      </trkpt>
      <trkpt lat="37.77064966969192028045654296875" lon="-107.7068725414574146270751953125">
        <ele>3847.199951171875</ele>
        <time>2023-07-29T17:20:53.000Z</time>
        <extensions>
          <ns3:TrackPointExtension>
            <ns3:hr>98</ns3:hr>
            <ns3:cad>0</ns3:cad>
          </ns3:TrackPointExtension>
        </extensions>
      </trkpt>
      <trkpt lat="37.77064246125519275665283203125" lon="-107.70687446929514408111572265625">
        <ele>3846.800048828125</ele>
        <time>2023-07-29T17:20:54.000Z</time>
        <extensions>
          <ns3:TrackPointExtension>
            <ns3:hr>98</ns3:hr>
            <ns3:cad>0</ns3:cad>
          </ns3:TrackPointExtension>
        </extensions>
      </trkpt>
      <trkpt lat="37.77063458226621150970458984375" lon="-107.70687430165708065032958984375">
        <ele>3846.800048828125</ele>
        <time>2023-07-29T17:20:55.000Z</time>
        <extensions>
          <ns3:TrackPointExtension>
            <ns3:hr>99</ns3:hr>
            <ns3:cad>0</ns3:cad>
          </ns3:TrackPointExtension>
        </extensions>
      </trkpt>
      <trkpt lat="37.7706291340291500091552734375" lon="-107.7068752236664295196533203125">
        <ele>3846.60009765625</ele>
        <time>2023-07-29T17:20:56.000Z</time>
        <extensions>
          <ns3:TrackPointExtension>
            <ns3:hr>99</ns3:hr>
            <ns3:cad>0</ns3:cad>
          </ns3:TrackPointExtension>
        </extensions>
      </trkpt>
      <trkpt lat="37.770620919764041900634765625" lon="-107.70687497220933437347412109375">
        <ele>3846.39990234375</ele>
        <time>2023-07-29T17:20:57.000Z</time>
        <extensions>
          <ns3:TrackPointExtension>
            <ns3:hr>100</ns3:hr>
            <ns3:cad>0</ns3:cad>
          </ns3:TrackPointExtension>
        </extensions>
      </trkpt>
      <trkpt lat="37.770617902278900146484375" lon="-107.7068742178380489349365234375">
        <ele>3846.39990234375</ele>
        <time>2023-07-29T17:20:58.000Z</time>
        <extensions>
          <ns3:TrackPointExtension>
            <ns3:hr>100</ns3:hr>
            <ns3:cad>0</ns3:cad>
          </ns3:TrackPointExtension>
        </extensions>
      </trkpt>
      <trkpt lat="37.770618908107280731201171875" lon="-107.70687363110482692718505859375">
        <ele>3846.199951171875</ele>
        <time>2023-07-29T17:20:59.000Z</time>
        <extensions>
          <ns3:TrackPointExtension>
            <ns3:hr>100</ns3:hr>
            <ns3:cad>0</ns3:cad>
          </ns3:TrackPointExtension>
        </extensions>
      </trkpt>
      <trkpt lat="37.770614214241504669189453125" lon="-107.7068725414574146270751953125">
        <ele>3846</ele>
        <time>2023-07-29T17:21:00.000Z</time>
        <extensions>
          <ns3:TrackPointExtension>
            <ns3:hr>101</ns3:hr>
            <ns3:cad>0</ns3:cad>
          </ns3:TrackPointExtension>
        </extensions>
      </trkpt>
      <trkpt lat="37.770610190927982330322265625" lon="-107.70687379874289035797119140625">
        <ele>3846</ele>
        <time>2023-07-29T17:21:01.000Z</time>
        <extensions>
          <ns3:TrackPointExtension>
            <ns3:hr>101</ns3:hr>
            <ns3:cad>0</ns3:cad>
          </ns3:TrackPointExtension>
        </extensions>
      </trkpt>
      <trkpt lat="37.77059979736804962158203125" lon="-107.70687438547611236572265625">
        <ele>3845.800048828125</ele>
        <time>2023-07-29T17:21:02.000Z</time>
        <extensions>
          <ns3:TrackPointExtension>
            <ns3:hr>101</ns3:hr>
            <ns3:cad>0</ns3:cad>
          </ns3:TrackPointExtension>
        </extensions>
      </trkpt>
      <trkpt lat="37.77058504521846771240234375" lon="-107.70687798969447612762451171875">
        <ele>3845.60009765625</ele>
        <time>2023-07-29T17:21:03.000Z</time>
        <extensions>
          <ns3:TrackPointExtension>
            <ns3:hr>101</ns3:hr>
            <ns3:cad>0</ns3:cad>
          </ns3:TrackPointExtension>
        </extensions>
      </trkpt>
      <trkpt lat="37.77056937105953693389892578125" lon="-107.7068832702934741973876953125">
        <ele>3845.60009765625</ele>
        <time>2023-07-29T17:21:04.000Z</time>
        <extensions>
          <ns3:TrackPointExtension>
            <ns3:hr>102</ns3:hr>
            <ns3:cad>0</ns3:cad>
          </ns3:TrackPointExtension>
        </extensions>
      </trkpt>
      <trkpt lat="37.7705587260425090789794921875" lon="-107.7068906463682651519775390625">
        <ele>3845.39990234375</ele>
        <time>2023-07-29T17:21:05.000Z</time>
        <extensions>
          <ns3:TrackPointExtension>
            <ns3:hr>102</ns3:hr>
            <ns3:cad>64</ns3:cad>
          </ns3:TrackPointExtension>
        </extensions>
      </trkpt>
      <trkpt lat="37.770545817911624908447265625" lon="-107.7068993635475635528564453125">
        <ele>3845.199951171875</ele>
        <time>2023-07-29T17:21:06.000Z</time>
        <extensions>
          <ns3:TrackPointExtension>
            <ns3:hr>101</ns3:hr>
            <ns3:cad>64</ns3:cad>
          </ns3:TrackPointExtension>
        </extensions>
      </trkpt>
      <trkpt lat="37.7705392800271511077880859375" lon="-107.70690858364105224609375">
        <ele>3845</ele>
        <time>2023-07-29T17:21:07.000Z</time>
        <extensions>
          <ns3:TrackPointExtension>
            <ns3:hr>100</ns3:hr>
            <ns3:cad>63</ns3:cad>
          </ns3:TrackPointExtension>
        </extensions>
      </trkpt>
      <trkpt lat="37.770532406866550445556640625" lon="-107.7069167979061603546142578125">
        <ele>3844.800048828125</ele>
        <time>2023-07-29T17:21:08.000Z</time>
        <extensions>
          <ns3:TrackPointExtension>
            <ns3:hr>100</ns3:hr>
            <ns3:cad>63</ns3:cad>
          </ns3:TrackPointExtension>
        </extensions>
      </trkpt>
      <trkpt lat="37.7705245278775691986083984375" lon="-107.7069251798093318939208984375">
        <ele>3844.39990234375</ele>
        <time>2023-07-29T17:21:09.000Z</time>
        <extensions>
          <ns3:TrackPointExtension>
            <ns3:hr>99</ns3:hr>
            <ns3:cad>63</ns3:cad>
          </ns3:TrackPointExtension>
        </extensions>
      </trkpt>
      <trkpt lat="37.770515978336334228515625" lon="-107.70693364553153514862060546875">
        <ele>3844.199951171875</ele>
        <time>2023-07-29T17:21:10.000Z</time>
        <extensions>
          <ns3:TrackPointExtension>
            <ns3:hr>99</ns3:hr>
            <ns3:cad>63</ns3:cad>
          </ns3:TrackPointExtension>
        </extensions>
      </trkpt>
      <trkpt lat="37.77050432749092578887939453125" lon="-107.70694588311016559600830078125">
        <ele>3844</ele>
        <time>2023-07-29T17:21:11.000Z</time>
        <extensions>
          <ns3:TrackPointExtension>
            <ns3:hr>99</ns3:hr>
            <ns3:cad>60</ns3:cad>
          </ns3:TrackPointExtension>
        </extensions>
      </trkpt>
      <trkpt lat="37.77049326337873935699462890625" lon="-107.70695644430816173553466796875">
        <ele>3844</ele>
        <time>2023-07-29T17:21:12.000Z</time>
        <extensions>
          <ns3:TrackPointExtension>
            <ns3:hr>99</ns3:hr>
            <ns3:cad>0</ns3:cad>
          </ns3:TrackPointExtension>
        </extensions>
      </trkpt>
      <trkpt lat="37.770487479865550994873046875" lon="-107.7069634012877941131591796875">
        <ele>3844</ele>
        <time>2023-07-29T17:21:13.000Z</time>
        <extensions>
          <ns3:TrackPointExtension>
            <ns3:hr>99</ns3:hr>
            <ns3:cad>0</ns3:cad>
          </ns3:TrackPointExtension>
        </extensions>
      </trkpt>
      <trkpt lat="37.77047985233366489410400390625" lon="-107.70697630941867828369140625">
        <ele>3843.800048828125</ele>
        <time>2023-07-29T17:21:14.000Z</time>
        <extensions>
          <ns3:TrackPointExtension>
            <ns3:hr>98</ns3:hr>
            <ns3:cad>0</ns3:cad>
          </ns3:TrackPointExtension>
        </extensions>
      </trkpt>
      <trkpt lat="37.7704742364585399627685546875" lon="-107.70698703825473785400390625">
        <ele>3843.60009765625</ele>
        <time>2023-07-29T17:21:15.000Z</time>
        <extensions>
          <ns3:TrackPointExtension>
            <ns3:hr>98</ns3:hr>
            <ns3:cad>0</ns3:cad>
          </ns3:TrackPointExtension>
        </extensions>
      </trkpt>
      <trkpt lat="37.7704702131450176239013671875" lon="-107.70699642598628997802734375">
        <ele>3843.60009765625</ele>
        <time>2023-07-29T17:21:16.000Z</time>
        <extensions>
          <ns3:TrackPointExtension>
            <ns3:hr>98</ns3:hr>
            <ns3:cad>0</ns3:cad>
          </ns3:TrackPointExtension>
        </extensions>
      </trkpt>
      <trkpt lat="37.77045805938541889190673828125" lon="-107.70700640045106410980224609375">
        <ele>3843.39990234375</ele>
        <time>2023-07-29T17:21:17.000Z</time>
        <extensions>
          <ns3:TrackPointExtension>
            <ns3:hr>98</ns3:hr>
            <ns3:cad>0</ns3:cad>
          </ns3:TrackPointExtension>
        </extensions>
      </trkpt>
      <trkpt lat="37.770449258387088775634765625" lon="-107.70701562054455280303955078125">
        <ele>3843.199951171875</ele>
        <time>2023-07-29T17:21:18.000Z</time>
        <extensions>
          <ns3:TrackPointExtension>
            <ns3:hr>98</ns3:hr>
            <ns3:cad>0</ns3:cad>
          </ns3:TrackPointExtension>
        </extensions>
      </trkpt>
      <trkpt lat="37.77044263668358325958251953125" lon="-107.70702593028545379638671875">
        <ele>3843.199951171875</ele>
        <time>2023-07-29T17:21:19.000Z</time>
        <extensions>
          <ns3:TrackPointExtension>
            <ns3:hr>98</ns3:hr>
            <ns3:cad>0</ns3:cad>
          </ns3:TrackPointExtension>
        </extensions>
      </trkpt>
      <trkpt lat="37.77043484151363372802734375" lon="-107.70703540183603763580322265625">
        <ele>3843.199951171875</ele>
        <time>2023-07-29T17:21:20.000Z</time>
        <extensions>
          <ns3:TrackPointExtension>
            <ns3:hr>98</ns3:hr>
            <ns3:cad>0</ns3:cad>
          </ns3:TrackPointExtension>
        </extensions>
      </trkpt>
      <trkpt lat="37.770427800714969635009765625" lon="-107.7070452086627483367919921875">
        <ele>3843</ele>
        <time>2023-07-29T17:21:21.000Z</time>
        <extensions>
          <ns3:TrackPointExtension>
            <ns3:hr>98</ns3:hr>
            <ns3:cad>0</ns3:cad>
          </ns3:TrackPointExtension>
        </extensions>
      </trkpt>
      <trkpt lat="37.77041916735470294952392578125" lon="-107.707052417099475860595703125">
        <ele>3842.800048828125</ele>
        <time>2023-07-29T17:21:22.000Z</time>
        <extensions>
          <ns3:TrackPointExtension>
            <ns3:hr>98</ns3:hr>
            <ns3:cad>0</ns3:cad>
          </ns3:TrackPointExtension>
        </extensions>
      </trkpt>
      <trkpt lat="37.770405001938343048095703125" lon="-107.707062475383281707763671875">
        <ele>3842.800048828125</ele>
        <time>2023-07-29T17:21:23.000Z</time>
        <extensions>
          <ns3:TrackPointExtension>
            <ns3:hr>98</ns3:hr>
            <ns3:cad>0</ns3:cad>
          </ns3:TrackPointExtension>
        </extensions>
      </trkpt>
      <trkpt lat="37.7703934349119663238525390625" lon="-107.7070735394954681396484375">
        <ele>3842.800048828125</ele>
        <time>2023-07-29T17:21:24.000Z</time>
        <extensions>
          <ns3:TrackPointExtension>
            <ns3:hr>97</ns3:hr>
            <ns3:cad>0</ns3:cad>
          </ns3:TrackPointExtension>
        </extensions>
      </trkpt>
      <trkpt lat="37.7703840471804141998291015625" lon="-107.7070867829024791717529296875">
        <ele>3842.800048828125</ele>
        <time>2023-07-29T17:21:25.000Z</time>
        <extensions>
          <ns3:TrackPointExtension>
            <ns3:hr>97</ns3:hr>
            <ns3:cad>0</ns3:cad>
          </ns3:TrackPointExtension>
        </extensions>
      </trkpt>
      <trkpt lat="37.77037809602916240692138671875" lon="-107.7071001939475536346435546875">
        <ele>3842.60009765625</ele>
        <time>2023-07-29T17:21:26.000Z</time>
        <extensions>
          <ns3:TrackPointExtension>
            <ns3:hr>97</ns3:hr>
            <ns3:cad>0</ns3:cad>
          </ns3:TrackPointExtension>
        </extensions>
      </trkpt>
      <trkpt lat="37.77037021704018115997314453125" lon="-107.7071139402687549591064453125">
        <ele>3842.39990234375</ele>
        <time>2023-07-29T17:21:27.000Z</time>
        <extensions>
          <ns3:TrackPointExtension>
            <ns3:hr>97</ns3:hr>
            <ns3:cad>0</ns3:cad>
          </ns3:TrackPointExtension>
        </extensions>
      </trkpt>
      <trkpt lat="37.77036267332732677459716796875" lon="-107.70712642930448055267333984375">
        <ele>3842.39990234375</ele>
        <time>2023-07-29T17:21:28.000Z</time>
        <extensions>
          <ns3:TrackPointExtension>
            <ns3:hr>97</ns3:hr>
            <ns3:cad>0</ns3:cad>
          </ns3:TrackPointExtension>
        </extensions>
      </trkpt>
      <trkpt lat="37.77035010047256946563720703125" lon="-107.70713631995022296905517578125">
        <ele>3842.199951171875</ele>
        <time>2023-07-29T17:21:29.000Z</time>
        <extensions>
          <ns3:TrackPointExtension>
            <ns3:hr>97</ns3:hr>
            <ns3:cad>0</ns3:cad>
          </ns3:TrackPointExtension>
        </extensions>
      </trkpt>
      <trkpt lat="37.770340628921985626220703125" lon="-107.70714931190013885498046875">
        <ele>3842.199951171875</ele>
        <time>2023-07-29T17:21:30.000Z</time>
        <extensions>
          <ns3:TrackPointExtension>
            <ns3:hr>97</ns3:hr>
            <ns3:cad>0</ns3:cad>
          </ns3:TrackPointExtension>
        </extensions>
      </trkpt>
      <trkpt lat="37.77032696641981601715087890625" lon="-107.70715911872684955596923828125">
        <ele>3842.199951171875</ele>
        <time>2023-07-29T17:21:31.000Z</time>
        <extensions>
          <ns3:TrackPointExtension>
            <ns3:hr>98</ns3:hr>
            <ns3:cad>0</ns3:cad>
          </ns3:TrackPointExtension>
        </extensions>
      </trkpt>
      <trkpt lat="37.77032176963984966278076171875" lon="-107.70716230385005474090576171875">
        <ele>3842</ele>
        <time>2023-07-29T17:21:32.000Z</time>
        <extensions>
          <ns3:TrackPointExtension>
            <ns3:hr>98</ns3:hr>
            <ns3:cad>0</ns3:cad>
          </ns3:TrackPointExtension>
        </extensions>
      </trkpt>
      <trkpt lat="37.770309112966060638427734375" lon="-107.70717144012451171875">
        <ele>3842</ele>
        <time>2023-07-29T17:21:33.000Z</time>
        <extensions>
          <ns3:TrackPointExtension>
            <ns3:hr>99</ns3:hr>
            <ns3:cad>0</ns3:cad>
          </ns3:TrackPointExtension>
        </extensions>
      </trkpt>
      <trkpt lat="37.77029930613934993743896484375" lon="-107.70717144012451171875">
        <ele>3841.800048828125</ele>
        <time>2023-07-29T17:21:34.000Z</time>
        <extensions>
          <ns3:TrackPointExtension>
            <ns3:hr>99</ns3:hr>
            <ns3:cad>0</ns3:cad>
          </ns3:TrackPointExtension>
        </extensions>
      </trkpt>
      <trkpt lat="37.770286984741687774658203125" lon="-107.707173787057399749755859375">
        <ele>3841.800048828125</ele>
        <time>2023-07-29T17:21:35.000Z</time>
        <extensions>
          <ns3:TrackPointExtension>
            <ns3:hr>99</ns3:hr>
            <ns3:cad>0</ns3:cad>
          </ns3:TrackPointExtension>
        </extensions>
      </trkpt>
      <trkpt lat="37.7702764235436916351318359375" lon="-107.70717789418995380401611328125">
        <ele>3841.800048828125</ele>
        <time>2023-07-29T17:21:36.000Z</time>
        <extensions>
          <ns3:TrackPointExtension>
            <ns3:hr>99</ns3:hr>
            <ns3:cad>0</ns3:cad>
          </ns3:TrackPointExtension>
        </extensions>
      </trkpt>
      <trkpt lat="37.7702670358121395111083984375" lon="-107.707184851169586181640625">
        <ele>3841.800048828125</ele>
        <time>2023-07-29T17:21:37.000Z</time>
        <extensions>
          <ns3:TrackPointExtension>
            <ns3:hr>99</ns3:hr>
            <ns3:cad>0</ns3:cad>
          </ns3:TrackPointExtension>
        </extensions>
      </trkpt>
      <trkpt lat="37.7702603302896022796630859375" lon="-107.70718996413052082061767578125">
        <ele>3841.800048828125</ele>
        <time>2023-07-29T17:21:38.000Z</time>
        <extensions>
          <ns3:TrackPointExtension>
            <ns3:hr>99</ns3:hr>
            <ns3:cad>57</ns3:cad>
          </ns3:TrackPointExtension>
        </extensions>
      </trkpt>
      <trkpt lat="37.7702499367296695709228515625" lon="-107.70719985477626323699951171875">
        <ele>3841.60009765625</ele>
        <time>2023-07-29T17:21:39.000Z</time>
        <extensions>
          <ns3:TrackPointExtension>
            <ns3:hr>99</ns3:hr>
            <ns3:cad>57</ns3:cad>
          </ns3:TrackPointExtension>
        </extensions>
      </trkpt>
      <trkpt lat="37.7702408842742443084716796875" lon="-107.70720790140330791473388671875">
        <ele>3841.39990234375</ele>
        <time>2023-07-29T17:21:40.000Z</time>
        <extensions>
          <ns3:TrackPointExtension>
            <ns3:hr>99</ns3:hr>
            <ns3:cad>57</ns3:cad>
          </ns3:TrackPointExtension>
        </extensions>
      </trkpt>
      <trkpt lat="37.77022772468626499176025390625" lon="-107.70721326582133769989013671875">
        <ele>3841.39990234375</ele>
        <time>2023-07-29T17:21:41.000Z</time>
        <extensions>
          <ns3:TrackPointExtension>
            <ns3:hr>99</ns3:hr>
            <ns3:cad>57</ns3:cad>
          </ns3:TrackPointExtension>
        </extensions>
      </trkpt>
      <trkpt lat="37.77021800167858600616455078125" lon="-107.707218714058399200439453125">
        <ele>3841.199951171875</ele>
        <time>2023-07-29T17:21:42.000Z</time>
        <extensions>
          <ns3:TrackPointExtension>
            <ns3:hr>98</ns3:hr>
            <ns3:cad>57</ns3:cad>
          </ns3:TrackPointExtension>
        </extensions>
      </trkpt>
      <trkpt lat="37.77020752429962158203125" lon="-107.70722483284771442413330078125">
        <ele>3841.199951171875</ele>
        <time>2023-07-29T17:21:43.000Z</time>
        <extensions>
          <ns3:TrackPointExtension>
            <ns3:hr>98</ns3:hr>
            <ns3:cad>57</ns3:cad>
          </ns3:TrackPointExtension>
        </extensions>
      </trkpt>
      <trkpt lat="37.7701986394822597503662109375" lon="-107.7072302810847759246826171875">
        <ele>3841</ele>
        <time>2023-07-29T17:21:44.000Z</time>
        <extensions>
          <ns3:TrackPointExtension>
            <ns3:hr>98</ns3:hr>
            <ns3:cad>57</ns3:cad>
          </ns3:TrackPointExtension>
        </extensions>
      </trkpt>
      <trkpt lat="37.77018782682716846466064453125" lon="-107.7072363160550594329833984375">
        <ele>3840.60009765625</ele>
        <time>2023-07-29T17:21:45.000Z</time>
        <extensions>
          <ns3:TrackPointExtension>
            <ns3:hr>98</ns3:hr>
            <ns3:cad>0</ns3:cad>
          </ns3:TrackPointExtension>
        </extensions>
      </trkpt>
      <trkpt lat="37.77018028311431407928466796875" lon="-107.7072393335402011871337890625">
        <ele>3840.60009765625</ele>
        <time>2023-07-29T17:21:46.000Z</time>
        <extensions>
          <ns3:TrackPointExtension>
            <ns3:hr>97</ns3:hr>
            <ns3:cad>0</ns3:cad>
          </ns3:TrackPointExtension>
        </extensions>
      </trkpt>
      <trkpt lat="37.77017198503017425537109375" lon="-107.70724461413919925689697265625">
        <ele>3840.60009765625</ele>
        <time>2023-07-29T17:21:47.000Z</time>
        <extensions>
          <ns3:TrackPointExtension>
            <ns3:hr>97</ns3:hr>
            <ns3:cad>0</ns3:cad>
          </ns3:TrackPointExtension>
        </extensions>
      </trkpt>
      <trkpt lat="37.77016259729862213134765625" lon="-107.707249559462070465087890625">
        <ele>3840.60009765625</ele>
        <time>2023-07-29T17:21:48.000Z</time>
        <extensions>
          <ns3:TrackPointExtension>
            <ns3:hr>97</ns3:hr>
            <ns3:cad>0</ns3:cad>
          </ns3:TrackPointExtension>
        </extensions>
      </trkpt>
      <trkpt lat="37.77015052735805511474609375" lon="-107.707258276641368865966796875">
        <ele>3840.60009765625</ele>
        <time>2023-07-29T17:21:49.000Z</time>
        <extensions>
          <ns3:TrackPointExtension>
            <ns3:hr>97</ns3:hr>
            <ns3:cad>0</ns3:cad>
          </ns3:TrackPointExtension>
        </extensions>
      </trkpt>
      <trkpt lat="37.77014038525521755218505859375" lon="-107.7072681672871112823486328125">
        <ele>3840.39990234375</ele>
        <time>2023-07-29T17:21:50.000Z</time>
        <extensions>
          <ns3:TrackPointExtension>
            <ns3:hr>98</ns3:hr>
            <ns3:cad>0</ns3:cad>
          </ns3:TrackPointExtension>
        </extensions>
      </trkpt>
      <trkpt lat="37.7701337635517120361328125" lon="-107.70727596245706081390380859375">
        <ele>3840.39990234375</ele>
        <time>2023-07-29T17:21:51.000Z</time>
        <extensions>
          <ns3:TrackPointExtension>
            <ns3:hr>98</ns3:hr>
            <ns3:cad>0</ns3:cad>
          </ns3:TrackPointExtension>
        </extensions>
      </trkpt>
      <trkpt lat="37.770130746066570281982421875" lon="-107.70728342235088348388671875">
        <ele>3840.39990234375</ele>
        <time>2023-07-29T17:21:52.000Z</time>
        <extensions>
          <ns3:TrackPointExtension>
            <ns3:hr>98</ns3:hr>
            <ns3:cad>54</ns3:cad>
          </ns3:TrackPointExtension>
        </extensions>
      </trkpt>
      <trkpt lat="37.77012965641915798187255859375" lon="-107.70728786475956439971923828125">
        <ele>3840.39990234375</ele>
        <time>2023-07-29T17:21:53.000Z</time>
        <extensions>
          <ns3:TrackPointExtension>
            <ns3:hr>98</ns3:hr>
            <ns3:cad>54</ns3:cad>
          </ns3:TrackPointExtension>
        </extensions>
      </trkpt>
      <trkpt lat="37.7701203525066375732421875" lon="-107.70730010233819484710693359375">
        <ele>3840.199951171875</ele>
        <time>2023-07-29T17:21:54.000Z</time>
        <extensions>
          <ns3:TrackPointExtension>
            <ns3:hr>97</ns3:hr>
            <ns3:cad>54</ns3:cad>
          </ns3:TrackPointExtension>
        </extensions>
      </trkpt>
      <trkpt lat="37.77011088095605373382568359375" lon="-107.70731627941131591796875">
        <ele>3840.199951171875</ele>
        <time>2023-07-29T17:21:55.000Z</time>
        <extensions>
          <ns3:TrackPointExtension>
            <ns3:hr>97</ns3:hr>
            <ns3:cad>54</ns3:cad>
          </ns3:TrackPointExtension>
        </extensions>
      </trkpt>
      <trkpt lat="37.77010635472834110260009765625" lon="-107.70732558332383632659912109375">
        <ele>3840</ele>
        <time>2023-07-29T17:21:56.000Z</time>
        <extensions>
          <ns3:TrackPointExtension>
            <ns3:hr>97</ns3:hr>
            <ns3:cad>54</ns3:cad>
          </ns3:TrackPointExtension>
        </extensions>
      </trkpt>
      <trkpt lat="37.77009822428226470947265625" lon="-107.7073392458260059356689453125">
        <ele>3840</ele>
        <time>2023-07-29T17:21:57.000Z</time>
        <extensions>
          <ns3:TrackPointExtension>
            <ns3:hr>97</ns3:hr>
            <ns3:cad>54</ns3:cad>
          </ns3:TrackPointExtension>
        </extensions>
      </trkpt>
      <trkpt lat="37.7700913511216640472412109375" lon="-107.70735525526106357574462890625">
        <ele>3839.800048828125</ele>
        <time>2023-07-29T17:21:58.000Z</time>
        <extensions>
          <ns3:TrackPointExtension>
            <ns3:hr>97</ns3:hr>
            <ns3:cad>54</ns3:cad>
          </ns3:TrackPointExtension>
        </extensions>
      </trkpt>
      <trkpt lat="37.770081795752048492431640625" lon="-107.70736615173518657684326171875">
        <ele>3839.800048828125</ele>
        <time>2023-07-29T17:21:59.000Z</time>
        <extensions>
          <ns3:TrackPointExtension>
            <ns3:hr>97</ns3:hr>
            <ns3:cad>54</ns3:cad>
          </ns3:TrackPointExtension>
        </extensions>
      </trkpt>
      <trkpt lat="37.770075090229511260986328125" lon="-107.7073727734386920928955078125">
        <ele>3839.60009765625</ele>
        <time>2023-07-29T17:22:00.000Z</time>
        <extensions>
          <ns3:TrackPointExtension>
            <ns3:hr>97</ns3:hr>
            <ns3:cad>54</ns3:cad>
          </ns3:TrackPointExtension>
        </extensions>
      </trkpt>
      <trkpt lat="37.77007500641047954559326171875" lon="-107.707372270524501800537109375">
        <ele>3839.60009765625</ele>
        <time>2023-07-29T17:22:01.000Z</time>
        <extensions>
          <ns3:TrackPointExtension>
            <ns3:hr>97</ns3:hr>
            <ns3:cad>54</ns3:cad>
          </ns3:TrackPointExtension>
        </extensions>
      </trkpt>
      <trkpt lat="37.770076096057891845703125" lon="-107.70737352780997753143310546875">
        <ele>3839.60009765625</ele>
        <time>2023-07-29T17:22:02.000Z</time>
        <extensions>
          <ns3:TrackPointExtension>
            <ns3:hr>97</ns3:hr>
            <ns3:cad>54</ns3:cad>
          </ns3:TrackPointExtension>
        </extensions>
      </trkpt>
      <trkpt lat="37.77007232420146465301513671875" lon="-107.7073798142373561859130859375">
        <ele>3839.60009765625</ele>
        <time>2023-07-29T17:22:03.000Z</time>
        <extensions>
          <ns3:TrackPointExtension>
            <ns3:hr>97</ns3:hr>
            <ns3:cad>0</ns3:cad>
          </ns3:TrackPointExtension>
        </extensions>
      </trkpt>
      <trkpt lat="37.770065031945705413818359375" lon="-107.70738936960697174072265625">
        <ele>3839.60009765625</ele>
        <time>2023-07-29T17:22:04.000Z</time>
        <extensions>
          <ns3:TrackPointExtension>
            <ns3:hr>97</ns3:hr>
            <ns3:cad>0</ns3:cad>
          </ns3:TrackPointExtension>
        </extensions>
      </trkpt>
      <trkpt lat="37.77006243355572223663330078125" lon="-107.7073985897004604339599609375">
        <ele>3839.60009765625</ele>
        <time>2023-07-29T17:22:05.000Z</time>
        <extensions>
          <ns3:TrackPointExtension>
            <ns3:hr>97</ns3:hr>
            <ns3:cad>0</ns3:cad>
          </ns3:TrackPointExtension>
        </extensions>
      </trkpt>
      <trkpt lat="37.770054973661899566650390625" lon="-107.70741091109812259674072265625">
        <ele>3839.60009765625</ele>
        <time>2023-07-29T17:22:06.000Z</time>
        <extensions>
          <ns3:TrackPointExtension>
            <ns3:hr>97</ns3:hr>
            <ns3:cad>0</ns3:cad>
          </ns3:TrackPointExtension>
        </extensions>
      </trkpt>
      <trkpt lat="37.770047597587108612060546875" lon="-107.70742784254252910614013671875">
        <ele>3839.60009765625</ele>
        <time>2023-07-29T17:22:07.000Z</time>
        <extensions>
          <ns3:TrackPointExtension>
            <ns3:hr>97</ns3:hr>
            <ns3:cad>0</ns3:cad>
          </ns3:TrackPointExtension>
        </extensions>
      </trkpt>
      <trkpt lat="37.77004013769328594207763671875" lon="-107.707436978816986083984375">
        <ele>3839.60009765625</ele>
        <time>2023-07-29T17:22:08.000Z</time>
        <extensions>
          <ns3:TrackPointExtension>
            <ns3:hr>97</ns3:hr>
            <ns3:cad>0</ns3:cad>
          </ns3:TrackPointExtension>
        </extensions>
      </trkpt>
      <trkpt lat="37.77003091759979724884033203125" lon="-107.70744561217725276947021484375">
        <ele>3839.39990234375</ele>
        <time>2023-07-29T17:22:09.000Z</time>
        <extensions>
          <ns3:TrackPointExtension>
            <ns3:hr>97</ns3:hr>
            <ns3:cad>0</ns3:cad>
          </ns3:TrackPointExtension>
        </extensions>
      </trkpt>
      <trkpt lat="37.77002169750630855560302734375" lon="-107.70745650865137577056884765625">
        <ele>3839.39990234375</ele>
        <time>2023-07-29T17:22:10.000Z</time>
        <extensions>
          <ns3:TrackPointExtension>
            <ns3:hr>97</ns3:hr>
            <ns3:cad>0</ns3:cad>
          </ns3:TrackPointExtension>
        </extensions>
      </trkpt>
      <trkpt lat="37.77000945992767810821533203125" lon="-107.7074689976871013641357421875">
        <ele>3839.199951171875</ele>
        <time>2023-07-29T17:22:11.000Z</time>
        <extensions>
          <ns3:TrackPointExtension>
            <ns3:hr>97</ns3:hr>
            <ns3:cad>0</ns3:cad>
          </ns3:TrackPointExtension>
        </extensions>
      </trkpt>
      <trkpt lat="37.77000141330063343048095703125" lon="-107.707474194467067718505859375">
        <ele>3839.199951171875</ele>
        <time>2023-07-29T17:22:12.000Z</time>
        <extensions>
          <ns3:TrackPointExtension>
            <ns3:hr>97</ns3:hr>
            <ns3:cad>0</ns3:cad>
          </ns3:TrackPointExtension>
        </extensions>
      </trkpt>
      <trkpt lat="37.7699911035597324371337890625" lon="-107.70747461356222629547119140625">
        <ele>3839.199951171875</ele>
        <time>2023-07-29T17:22:13.000Z</time>
        <extensions>
          <ns3:TrackPointExtension>
            <ns3:hr>97</ns3:hr>
            <ns3:cad>0</ns3:cad>
          </ns3:TrackPointExtension>
        </extensions>
      </trkpt>
      <trkpt lat="37.76998154819011688232421875" lon="-107.70748131908476352691650390625">
        <ele>3839.199951171875</ele>
        <time>2023-07-29T17:22:14.000Z</time>
        <extensions>
          <ns3:TrackPointExtension>
            <ns3:hr>97</ns3:hr>
            <ns3:cad>0</ns3:cad>
          </ns3:TrackPointExtension>
        </extensions>
      </trkpt>
      <trkpt lat="37.7699726633727550506591796875" lon="-107.7074904553592205047607421875">
        <ele>3839</ele>
        <time>2023-07-29T17:22:15.000Z</time>
        <extensions>
          <ns3:TrackPointExtension>
            <ns3:hr>97</ns3:hr>
            <ns3:cad>0</ns3:cad>
          </ns3:TrackPointExtension>
        </extensions>
      </trkpt>
      <trkpt lat="37.76996335946023464202880859375" lon="-107.70749531686305999755859375">
        <ele>3839</ele>
        <time>2023-07-29T17:22:16.000Z</time>
        <extensions>
          <ns3:TrackPointExtension>
            <ns3:hr>97</ns3:hr>
            <ns3:cad>0</ns3:cad>
          </ns3:TrackPointExtension>
        </extensions>
      </trkpt>
      <trkpt lat="37.76995179243385791778564453125" lon="-107.70750445313751697540283203125">
        <ele>3838.800048828125</ele>
        <time>2023-07-29T17:22:17.000Z</time>
        <extensions>
          <ns3:TrackPointExtension>
            <ns3:hr>97</ns3:hr>
            <ns3:cad>56</ns3:cad>
          </ns3:TrackPointExtension>
        </extensions>
      </trkpt>
      <trkpt lat="37.7699445001780986785888671875" lon="-107.70751266740262508392333984375">
        <ele>3838.60009765625</ele>
        <time>2023-07-29T17:22:18.000Z</time>
        <extensions>
          <ns3:TrackPointExtension>
            <ns3:hr>97</ns3:hr>
            <ns3:cad>56</ns3:cad>
          </ns3:TrackPointExtension>
        </extensions>
      </trkpt>
      <trkpt lat="37.7699354477226734161376953125" lon="-107.7075219713151454925537109375">
        <ele>3838.39990234375</ele>
        <time>2023-07-29T17:22:19.000Z</time>
        <extensions>
          <ns3:TrackPointExtension>
            <ns3:hr>97</ns3:hr>
            <ns3:cad>56</ns3:cad>
          </ns3:TrackPointExtension>
        </extensions>
      </trkpt>
      <trkpt lat="37.769928239285945892333984375" lon="-107.70753026939928531646728515625">
        <ele>3838.39990234375</ele>
        <time>2023-07-29T17:22:20.000Z</time>
        <extensions>
          <ns3:TrackPointExtension>
            <ns3:hr>97</ns3:hr>
            <ns3:cad>56</ns3:cad>
          </ns3:TrackPointExtension>
        </extensions>
      </trkpt>
      <trkpt lat="37.76991977356374263763427734375" lon="-107.70753764547407627105712890625">
        <ele>3838.39990234375</ele>
        <time>2023-07-29T17:22:21.000Z</time>
        <extensions>
          <ns3:TrackPointExtension>
            <ns3:hr>97</ns3:hr>
            <ns3:cad>56</ns3:cad>
          </ns3:TrackPointExtension>
        </extensions>
      </trkpt>
      <trkpt lat="37.76990787126123905181884765625" lon="-107.70754787139594554901123046875">
        <ele>3838</ele>
        <time>2023-07-29T17:22:22.000Z</time>
        <extensions>
          <ns3:TrackPointExtension>
            <ns3:hr>97</ns3:hr>
            <ns3:cad>58</ns3:cad>
          </ns3:TrackPointExtension>
        </extensions>
      </trkpt>
      <trkpt lat="37.76990083046257495880126953125" lon="-107.70755927078425884246826171875">
        <ele>3838</ele>
        <time>2023-07-29T17:22:23.000Z</time>
        <extensions>
          <ns3:TrackPointExtension>
            <ns3:hr>97</ns3:hr>
            <ns3:cad>58</ns3:cad>
          </ns3:TrackPointExtension>
        </extensions>
      </trkpt>
      <trkpt lat="37.7698915265500545501708984375" lon="-107.70756916143000125885009765625">
        <ele>3838</ele>
        <time>2023-07-29T17:22:24.000Z</time>
        <extensions>
          <ns3:TrackPointExtension>
            <ns3:hr>97</ns3:hr>
            <ns3:cad>58</ns3:cad>
          </ns3:TrackPointExtension>
        </extensions>
      </trkpt>
      <trkpt lat="37.76988440193235874176025390625" lon="-107.7075799740850925445556640625">
        <ele>3838</ele>
        <time>2023-07-29T17:22:25.000Z</time>
        <extensions>
          <ns3:TrackPointExtension>
            <ns3:hr>97</ns3:hr>
            <ns3:cad>58</ns3:cad>
          </ns3:TrackPointExtension>
        </extensions>
      </trkpt>
      <trkpt lat="37.76987694203853607177734375" lon="-107.70758517086505889892578125">
        <ele>3838</ele>
        <time>2023-07-29T17:22:26.000Z</time>
        <extensions>
          <ns3:TrackPointExtension>
            <ns3:hr>97</ns3:hr>
            <ns3:cad>58</ns3:cad>
          </ns3:TrackPointExtension>
        </extensions>
      </trkpt>
      <trkpt lat="37.7698697336018085479736328125" lon="-107.7075890265405178070068359375">
        <ele>3837.800048828125</ele>
        <time>2023-07-29T17:22:27.000Z</time>
        <extensions>
          <ns3:TrackPointExtension>
            <ns3:hr>97</ns3:hr>
            <ns3:cad>58</ns3:cad>
          </ns3:TrackPointExtension>
        </extensions>
      </trkpt>
      <trkpt lat="37.76986244134604930877685546875" lon="-107.707592211663722991943359375">
        <ele>3837.800048828125</ele>
        <time>2023-07-29T17:22:28.000Z</time>
        <extensions>
          <ns3:TrackPointExtension>
            <ns3:hr>97</ns3:hr>
            <ns3:cad>58</ns3:cad>
          </ns3:TrackPointExtension>
        </extensions>
      </trkpt>
      <trkpt lat="37.769858501851558685302734375" lon="-107.70758978091180324554443359375">
        <ele>3837.800048828125</ele>
        <time>2023-07-29T17:22:29.000Z</time>
        <extensions>
          <ns3:TrackPointExtension>
            <ns3:hr>97</ns3:hr>
            <ns3:cad>58</ns3:cad>
          </ns3:TrackPointExtension>
        </extensions>
      </trkpt>
      <trkpt lat="37.76984634809195995330810546875" lon="-107.70759061910212039947509765625">
        <ele>3837.800048828125</ele>
        <time>2023-07-29T17:22:30.000Z</time>
        <extensions>
          <ns3:TrackPointExtension>
            <ns3:hr>98</ns3:hr>
            <ns3:cad>58</ns3:cad>
          </ns3:TrackPointExtension>
        </extensions>
      </trkpt>
      <trkpt lat="37.76983846910297870635986328125" lon="-107.7075903676450252532958984375">
        <ele>3837.800048828125</ele>
        <time>2023-07-29T17:22:31.000Z</time>
        <extensions>
          <ns3:TrackPointExtension>
            <ns3:hr>98</ns3:hr>
            <ns3:cad>58</ns3:cad>
          </ns3:TrackPointExtension>
        </extensions>
      </trkpt>
      <trkpt lat="37.7698308415710926055908203125" lon="-107.70759799517691135406494140625">
        <ele>3837.800048828125</ele>
        <time>2023-07-29T17:22:32.000Z</time>
        <extensions>
          <ns3:TrackPointExtension>
            <ns3:hr>98</ns3:hr>
            <ns3:cad>58</ns3:cad>
          </ns3:TrackPointExtension>
        </extensions>
      </trkpt>
      <trkpt lat="37.76982153765857219696044921875" lon="-107.70760252140462398529052734375">
        <ele>3837.60009765625</ele>
        <time>2023-07-29T17:22:33.000Z</time>
        <extensions>
          <ns3:TrackPointExtension>
            <ns3:hr>98</ns3:hr>
            <ns3:cad>58</ns3:cad>
          </ns3:TrackPointExtension>
        </extensions>
      </trkpt>
      <trkpt lat="37.7698118984699249267578125" lon="-107.707609646022319793701171875">
        <ele>3837.60009765625</ele>
        <time>2023-07-29T17:22:34.000Z</time>
        <extensions>
          <ns3:TrackPointExtension>
            <ns3:hr>99</ns3:hr>
            <ns3:cad>58</ns3:cad>
          </ns3:TrackPointExtension>
        </extensions>
      </trkpt>
      <trkpt lat="37.7698036842048168182373046875" lon="-107.7076175250113010406494140625">
        <ele>3837.39990234375</ele>
        <time>2023-07-29T17:22:35.000Z</time>
        <extensions>
          <ns3:TrackPointExtension>
            <ns3:hr>99</ns3:hr>
            <ns3:cad>58</ns3:cad>
          </ns3:TrackPointExtension>
        </extensions>
      </trkpt>
      <trkpt lat="37.76979513466358184814453125" lon="-107.7076292596757411956787109375">
        <ele>3837.199951171875</ele>
        <time>2023-07-29T17:22:36.000Z</time>
        <extensions>
          <ns3:TrackPointExtension>
            <ns3:hr>99</ns3:hr>
            <ns3:cad>58</ns3:cad>
          </ns3:TrackPointExtension>
        </extensions>
      </trkpt>
      <trkpt lat="37.76978298090398311614990234375" lon="-107.70764191634953022003173828125">
        <ele>3837</ele>
        <time>2023-07-29T17:22:37.000Z</time>
        <extensions>
          <ns3:TrackPointExtension>
            <ns3:hr>99</ns3:hr>
            <ns3:cad>58</ns3:cad>
          </ns3:TrackPointExtension>
        </extensions>
      </trkpt>
      <trkpt lat="37.7697745151817798614501953125" lon="-107.7076530642807483673095703125">
        <ele>3837</ele>
        <time>2023-07-29T17:22:38.000Z</time>
        <extensions>
          <ns3:TrackPointExtension>
            <ns3:hr>99</ns3:hr>
            <ns3:cad>58</ns3:cad>
          </ns3:TrackPointExtension>
        </extensions>
      </trkpt>
      <trkpt lat="37.76976219378411769866943359375" lon="-107.70766454748809337615966796875">
        <ele>3837</ele>
        <time>2023-07-29T17:22:39.000Z</time>
        <extensions>
          <ns3:TrackPointExtension>
            <ns3:hr>99</ns3:hr>
            <ns3:cad>58</ns3:cad>
          </ns3:TrackPointExtension>
        </extensions>
      </trkpt>
      <trkpt lat="37.769752554595470428466796875" lon="-107.70767477340996265411376953125">
        <ele>3836.800048828125</ele>
        <time>2023-07-29T17:22:40.000Z</time>
        <extensions>
          <ns3:TrackPointExtension>
            <ns3:hr>99</ns3:hr>
            <ns3:cad>58</ns3:cad>
          </ns3:TrackPointExtension>
        </extensions>
      </trkpt>
      <trkpt lat="37.76974283158779144287109375" lon="-107.70768642425537109375">
        <ele>3836.800048828125</ele>
        <time>2023-07-29T17:22:41.000Z</time>
        <extensions>
          <ns3:TrackPointExtension>
            <ns3:hr>99</ns3:hr>
            <ns3:cad>0</ns3:cad>
          </ns3:TrackPointExtension>
        </extensions>
      </trkpt>
      <trkpt lat="37.76973553933203220367431640625" lon="-107.7076956443488597869873046875">
        <ele>3836.800048828125</ele>
        <time>2023-07-29T17:22:42.000Z</time>
        <extensions>
          <ns3:TrackPointExtension>
            <ns3:hr>100</ns3:hr>
            <ns3:cad>0</ns3:cad>
          </ns3:TrackPointExtension>
        </extensions>
      </trkpt>
      <trkpt lat="37.76972648687660694122314453125" lon="-107.70770897157490253448486328125">
        <ele>3836.800048828125</ele>
        <time>2023-07-29T17:22:43.000Z</time>
        <extensions>
          <ns3:TrackPointExtension>
            <ns3:hr>100</ns3:hr>
            <ns3:cad>0</ns3:cad>
          </ns3:TrackPointExtension>
        </extensions>
      </trkpt>
      <trkpt lat="37.76971927843987941741943359375" lon="-107.70771986804902553558349609375">
        <ele>3836.800048828125</ele>
        <time>2023-07-29T17:22:44.000Z</time>
        <extensions>
          <ns3:TrackPointExtension>
            <ns3:hr>100</ns3:hr>
            <ns3:cad>0</ns3:cad>
          </ns3:TrackPointExtension>
        </extensions>
      </trkpt>
      <trkpt lat="37.76970922015607357025146484375" lon="-107.70773311145603656768798828125">
        <ele>3836.800048828125</ele>
        <time>2023-07-29T17:22:45.000Z</time>
        <extensions>
          <ns3:TrackPointExtension>
            <ns3:hr>100</ns3:hr>
            <ns3:cad>0</ns3:cad>
          </ns3:TrackPointExtension>
        </extensions>
      </trkpt>
      <trkpt lat="37.76970125734806060791015625" lon="-107.70774115808308124542236328125">
        <ele>3836.800048828125</ele>
        <time>2023-07-29T17:22:46.000Z</time>
        <extensions>
          <ns3:TrackPointExtension>
            <ns3:hr>100</ns3:hr>
            <ns3:cad>0</ns3:cad>
          </ns3:TrackPointExtension>
        </extensions>
      </trkpt>
      <trkpt lat="37.76968675665557384490966796875" lon="-107.70775691606104373931884765625">
        <ele>3837</ele>
        <time>2023-07-29T17:22:47.000Z</time>
        <extensions>
          <ns3:TrackPointExtension>
            <ns3:hr>100</ns3:hr>
            <ns3:cad>0</ns3:cad>
          </ns3:TrackPointExtension>
        </extensions>
      </trkpt>
      <trkpt lat="37.76967284269630908966064453125" lon="-107.707770578563213348388671875">
        <ele>3837</ele>
        <time>2023-07-29T17:22:48.000Z</time>
        <extensions>
          <ns3:TrackPointExtension>
            <ns3:hr>101</ns3:hr>
            <ns3:cad>0</ns3:cad>
          </ns3:TrackPointExtension>
        </extensions>
      </trkpt>
      <trkpt lat="37.76966295205056667327880859375" lon="-107.70777787081897258758544921875">
        <ele>3837</ele>
        <time>2023-07-29T17:22:49.000Z</time>
        <extensions>
          <ns3:TrackPointExtension>
            <ns3:hr>101</ns3:hr>
            <ns3:cad>0</ns3:cad>
          </ns3:TrackPointExtension>
        </extensions>
      </trkpt>
      <trkpt lat="37.76964819990098476409912109375" lon="-107.707791030406951904296875">
        <ele>3837</ele>
        <time>2023-07-29T17:22:50.000Z</time>
        <extensions>
          <ns3:TrackPointExtension>
            <ns3:hr>102</ns3:hr>
            <ns3:cad>0</ns3:cad>
          </ns3:TrackPointExtension>
        </extensions>
      </trkpt>
      <trkpt lat="37.7696397341787815093994140625" lon="-107.70779530517756938934326171875">
        <ele>3837.199951171875</ele>
        <time>2023-07-29T17:22:51.000Z</time>
        <extensions>
          <ns3:TrackPointExtension>
            <ns3:hr>102</ns3:hr>
            <ns3:cad>0</ns3:cad>
          </ns3:TrackPointExtension>
        </extensions>
      </trkpt>
      <trkpt lat="37.76962758041918277740478515625" lon="-107.707801759243011474609375">
        <ele>3837.199951171875</ele>
        <time>2023-07-29T17:22:52.000Z</time>
        <extensions>
          <ns3:TrackPointExtension>
            <ns3:hr>102</ns3:hr>
            <ns3:cad>0</ns3:cad>
          </ns3:TrackPointExtension>
        </extensions>
      </trkpt>
      <trkpt lat="37.7696187794208526611328125" lon="-107.707804776728153228759765625">
        <ele>3837.199951171875</ele>
        <time>2023-07-29T17:22:53.000Z</time>
        <extensions>
          <ns3:TrackPointExtension>
            <ns3:hr>102</ns3:hr>
            <ns3:cad>53</ns3:cad>
          </ns3:TrackPointExtension>
        </extensions>
      </trkpt>
      <trkpt lat="37.7696107327938079833984375" lon="-107.70780586637556552886962890625">
        <ele>3837.199951171875</ele>
        <time>2023-07-29T17:22:54.000Z</time>
        <extensions>
          <ns3:TrackPointExtension>
            <ns3:hr>102</ns3:hr>
            <ns3:cad>55</ns3:cad>
          </ns3:TrackPointExtension>
        </extensions>
      </trkpt>
      <trkpt lat="37.76960561983287334442138671875" lon="-107.7078066207468509674072265625">
        <ele>3837.199951171875</ele>
        <time>2023-07-29T17:22:55.000Z</time>
        <extensions>
          <ns3:TrackPointExtension>
            <ns3:hr>102</ns3:hr>
            <ns3:cad>55</ns3:cad>
          </ns3:TrackPointExtension>
        </extensions>
      </trkpt>
      <trkpt lat="37.7695981599390506744384765625" lon="-107.70781257189810276031494140625">
        <ele>3837.199951171875</ele>
        <time>2023-07-29T17:22:56.000Z</time>
        <extensions>
          <ns3:TrackPointExtension>
            <ns3:hr>102</ns3:hr>
            <ns3:cad>55</ns3:cad>
          </ns3:TrackPointExtension>
        </extensions>
      </trkpt>
      <trkpt lat="37.76959396898746490478515625" lon="-107.70781927742063999176025390625">
        <ele>3837.199951171875</ele>
        <time>2023-07-29T17:22:57.000Z</time>
        <extensions>
          <ns3:TrackPointExtension>
            <ns3:hr>103</ns3:hr>
            <ns3:cad>55</ns3:cad>
          </ns3:TrackPointExtension>
        </extensions>
      </trkpt>
      <trkpt lat="37.769593633711338043212890625" lon="-107.70782145671546459197998046875">
        <ele>3837.199951171875</ele>
        <time>2023-07-29T17:22:58.000Z</time>
        <extensions>
          <ns3:TrackPointExtension>
            <ns3:hr>103</ns3:hr>
            <ns3:cad>0</ns3:cad>
          </ns3:TrackPointExtension>
        </extensions>
      </trkpt>
      <trkpt lat="37.76959388516843318939208984375" lon="-107.70782061852514743804931640625">
        <ele>3837.199951171875</ele>
        <time>2023-07-29T17:22:59.000Z</time>
        <extensions>
          <ns3:TrackPointExtension>
            <ns3:hr>103</ns3:hr>
            <ns3:cad>0</ns3:cad>
          </ns3:TrackPointExtension>
        </extensions>
      </trkpt>
      <trkpt lat="37.76959153823554515838623046875" lon="-107.70782263018190860748291015625">
        <ele>3837.199951171875</ele>
        <time>2023-07-29T17:23:00.000Z</time>
        <extensions>
          <ns3:TrackPointExtension>
            <ns3:hr>103</ns3:hr>
            <ns3:cad>0</ns3:cad>
          </ns3:TrackPointExtension>
        </extensions>
      </trkpt>
      <trkpt lat="37.76959070004522800445556640625" lon="-107.7078240551054477691650390625">
        <ele>3837.39990234375</ele>
        <time>2023-07-29T17:23:01.000Z</time>
        <extensions>
          <ns3:TrackPointExtension>
            <ns3:hr>103</ns3:hr>
            <ns3:cad>0</ns3:cad>
          </ns3:TrackPointExtension>
        </extensions>
      </trkpt>
      <trkpt lat="37.76958860456943511962890625" lon="-107.70782883279025554656982421875">
        <ele>3837.39990234375</ele>
        <time>2023-07-29T17:23:02.000Z</time>
        <extensions>
          <ns3:TrackPointExtension>
            <ns3:hr>103</ns3:hr>
            <ns3:cad>0</ns3:cad>
          </ns3:TrackPointExtension>
        </extensions>
      </trkpt>
      <trkpt lat="37.76958592236042022705078125" lon="-107.70783352665603160858154296875">
        <ele>3837.39990234375</ele>
        <time>2023-07-29T17:23:03.000Z</time>
        <extensions>
          <ns3:TrackPointExtension>
            <ns3:hr>103</ns3:hr>
            <ns3:cad>0</ns3:cad>
          </ns3:TrackPointExtension>
        </extensions>
      </trkpt>
      <trkpt lat="37.76958458125591278076171875" lon="-107.70784408785402774810791015625">
        <ele>3837.39990234375</ele>
        <time>2023-07-29T17:23:04.000Z</time>
        <extensions>
          <ns3:TrackPointExtension>
            <ns3:hr>103</ns3:hr>
            <ns3:cad>0</ns3:cad>
          </ns3:TrackPointExtension>
        </extensions>
      </trkpt>
      <trkpt lat="37.76958055794239044189453125" lon="-107.707853727042675018310546875">
        <ele>3837.60009765625</ele>
        <time>2023-07-29T17:23:05.000Z</time>
        <extensions>
          <ns3:TrackPointExtension>
            <ns3:hr>103</ns3:hr>
            <ns3:cad>0</ns3:cad>
          </ns3:TrackPointExtension>
        </extensions>
      </trkpt>
      <trkpt lat="37.76957494206726551055908203125" lon="-107.70786018110811710357666015625">
        <ele>3837.60009765625</ele>
        <time>2023-07-29T17:23:06.000Z</time>
        <extensions>
          <ns3:TrackPointExtension>
            <ns3:hr>104</ns3:hr>
            <ns3:cad>0</ns3:cad>
          </ns3:TrackPointExtension>
        </extensions>
      </trkpt>
      <trkpt lat="37.76956639252603054046630859375" lon="-107.70787074230611324310302734375">
        <ele>3837.800048828125</ele>
        <time>2023-07-29T17:23:07.000Z</time>
        <extensions>
          <ns3:TrackPointExtension>
            <ns3:hr>104</ns3:hr>
            <ns3:cad>0</ns3:cad>
          </ns3:TrackPointExtension>
        </extensions>
      </trkpt>
      <trkpt lat="37.76956018991768360137939453125" lon="-107.7078723348677158355712890625">
        <ele>3838</ele>
        <time>2023-07-29T17:23:08.000Z</time>
        <extensions>
          <ns3:TrackPointExtension>
            <ns3:hr>105</ns3:hr>
            <ns3:cad>0</ns3:cad>
          </ns3:TrackPointExtension>
        </extensions>
      </trkpt>
      <trkpt lat="37.76955231092870235443115234375" lon="-107.7078790403902530670166015625">
        <ele>3838</ele>
        <time>2023-07-29T17:23:09.000Z</time>
        <extensions>
          <ns3:TrackPointExtension>
            <ns3:hr>105</ns3:hr>
            <ns3:cad>0</ns3:cad>
          </ns3:TrackPointExtension>
        </extensions>
      </trkpt>
      <trkpt lat="37.769546024501323699951171875" lon="-107.70787753164768218994140625">
        <ele>3838</ele>
        <time>2023-07-29T17:23:10.000Z</time>
        <extensions>
          <ns3:TrackPointExtension>
            <ns3:hr>105</ns3:hr>
            <ns3:cad>0</ns3:cad>
          </ns3:TrackPointExtension>
        </extensions>
      </trkpt>
      <trkpt lat="37.76952733285725116729736328125" lon="-107.70788046531379222869873046875">
        <ele>3838</ele>
        <time>2023-07-29T17:23:11.000Z</time>
        <extensions>
          <ns3:TrackPointExtension>
            <ns3:hr>105</ns3:hr>
            <ns3:cad>0</ns3:cad>
          </ns3:TrackPointExtension>
        </extensions>
      </trkpt>
      <trkpt lat="37.76950947940349578857421875" lon="-107.7078840695321559906005859375">
        <ele>3837.800048828125</ele>
        <time>2023-07-29T17:23:12.000Z</time>
        <extensions>
          <ns3:TrackPointExtension>
            <ns3:hr>105</ns3:hr>
            <ns3:cad>0</ns3:cad>
          </ns3:TrackPointExtension>
        </extensions>
      </trkpt>
      <trkpt lat="37.76949548162519931793212890625" lon="-107.70789052359759807586669921875">
        <ele>3837.60009765625</ele>
        <time>2023-07-29T17:23:13.000Z</time>
        <extensions>
          <ns3:TrackPointExtension>
            <ns3:hr>105</ns3:hr>
            <ns3:cad>0</ns3:cad>
          </ns3:TrackPointExtension>
        </extensions>
      </trkpt>
      <trkpt lat="37.76948131620883941650390625" lon="-107.7078968100249767303466796875">
        <ele>3837.39990234375</ele>
        <time>2023-07-29T17:23:14.000Z</time>
        <extensions>
          <ns3:TrackPointExtension>
            <ns3:hr>105</ns3:hr>
            <ns3:cad>0</ns3:cad>
          </ns3:TrackPointExtension>
        </extensions>
      </trkpt>
      <trkpt lat="37.76946329511702060699462890625" lon="-107.7078917808830738067626953125">
        <ele>3837.199951171875</ele>
        <time>2023-07-29T17:23:15.000Z</time>
        <extensions>
          <ns3:TrackPointExtension>
            <ns3:hr>105</ns3:hr>
            <ns3:cad>0</ns3:cad>
          </ns3:TrackPointExtension>
        </extensions>
      </trkpt>
      <trkpt lat="37.76945189572870731353759765625" lon="-107.70789119414985179901123046875">
        <ele>3837</ele>
        <time>2023-07-29T17:23:16.000Z</time>
        <extensions>
          <ns3:TrackPointExtension>
            <ns3:hr>105</ns3:hr>
            <ns3:cad>0</ns3:cad>
          </ns3:TrackPointExtension>
        </extensions>
      </trkpt>
      <trkpt lat="37.76944166980683803558349609375" lon="-107.70789228379726409912109375">
        <ele>3836.800048828125</ele>
        <time>2023-07-29T17:23:17.000Z</time>
        <extensions>
          <ns3:TrackPointExtension>
            <ns3:hr>106</ns3:hr>
            <ns3:cad>0</ns3:cad>
          </ns3:TrackPointExtension>
        </extensions>
      </trkpt>
      <trkpt lat="37.76943094097077846527099609375" lon="-107.70789572037756443023681640625">
        <ele>3836.800048828125</ele>
        <time>2023-07-29T17:23:18.000Z</time>
        <extensions>
          <ns3:TrackPointExtension>
            <ns3:hr>106</ns3:hr>
            <ns3:cad>0</ns3:cad>
          </ns3:TrackPointExtension>
        </extensions>
      </trkpt>
      <trkpt lat="37.7694204635918140411376953125" lon="-107.70789957605302333831787109375">
        <ele>3836.60009765625</ele>
        <time>2023-07-29T17:23:19.000Z</time>
        <extensions>
          <ns3:TrackPointExtension>
            <ns3:hr>106</ns3:hr>
            <ns3:cad>0</ns3:cad>
          </ns3:TrackPointExtension>
        </extensions>
      </trkpt>
      <trkpt lat="37.76941032148897647857666015625" lon="-107.70790527574717998504638671875">
        <ele>3836.60009765625</ele>
        <time>2023-07-29T17:23:20.000Z</time>
        <extensions>
          <ns3:TrackPointExtension>
            <ns3:hr>106</ns3:hr>
            <ns3:cad>0</ns3:cad>
          </ns3:TrackPointExtension>
        </extensions>
      </trkpt>
      <trkpt lat="37.76940931566059589385986328125" lon="-107.70790594629943370819091796875">
        <ele>3836.60009765625</ele>
        <time>2023-07-29T17:23:21.000Z</time>
        <extensions>
          <ns3:TrackPointExtension>
            <ns3:hr>105</ns3:hr>
            <ns3:cad>0</ns3:cad>
          </ns3:TrackPointExtension>
        </extensions>
      </trkpt>
      <trkpt lat="37.769393809139728546142578125" lon="-107.70791105926036834716796875">
        <ele>3836.60009765625</ele>
        <time>2023-07-29T17:23:22.000Z</time>
        <extensions>
          <ns3:TrackPointExtension>
            <ns3:hr>105</ns3:hr>
            <ns3:cad>0</ns3:cad>
          </ns3:TrackPointExtension>
        </extensions>
      </trkpt>
      <trkpt lat="37.76938182301819324493408203125" lon="-107.707915417850017547607421875">
        <ele>3836.60009765625</ele>
        <time>2023-07-29T17:23:23.000Z</time>
        <extensions>
          <ns3:TrackPointExtension>
            <ns3:hr>105</ns3:hr>
            <ns3:cad>0</ns3:cad>
          </ns3:TrackPointExtension>
        </extensions>
      </trkpt>
      <trkpt lat="37.769371010363101959228515625" lon="-107.70792086608707904815673828125">
        <ele>3836.39990234375</ele>
        <time>2023-07-29T17:23:24.000Z</time>
        <extensions>
          <ns3:TrackPointExtension>
            <ns3:hr>105</ns3:hr>
            <ns3:cad>52</ns3:cad>
          </ns3:TrackPointExtension>
        </extensions>
      </trkpt>
      <trkpt lat="37.76935927569866180419921875" lon="-107.70792824216187000274658203125">
        <ele>3836.39990234375</ele>
        <time>2023-07-29T17:23:25.000Z</time>
        <extensions>
          <ns3:TrackPointExtension>
            <ns3:hr>105</ns3:hr>
            <ns3:cad>52</ns3:cad>
          </ns3:TrackPointExtension>
        </extensions>
      </trkpt>
      <trkpt lat="37.7693463675677776336669921875" lon="-107.7079357020556926727294921875">
        <ele>3836.39990234375</ele>
        <time>2023-07-29T17:23:26.000Z</time>
        <extensions>
          <ns3:TrackPointExtension>
            <ns3:hr>105</ns3:hr>
            <ns3:cad>53</ns3:cad>
          </ns3:TrackPointExtension>
        </extensions>
      </trkpt>
      <trkpt lat="37.76933111250400543212890625" lon="-107.70794458687305450439453125">
        <ele>3836.39990234375</ele>
        <time>2023-07-29T17:23:27.000Z</time>
        <extensions>
          <ns3:TrackPointExtension>
            <ns3:hr>105</ns3:hr>
            <ns3:cad>53</ns3:cad>
          </ns3:TrackPointExtension>
        </extensions>
      </trkpt>
      <trkpt lat="37.7693235687911510467529296875" lon="-107.7079517953097820281982421875">
        <ele>3836.199951171875</ele>
        <time>2023-07-29T17:23:28.000Z</time>
        <extensions>
          <ns3:TrackPointExtension>
            <ns3:hr>105</ns3:hr>
            <ns3:cad>53</ns3:cad>
          </ns3:TrackPointExtension>
        </extensions>
      </trkpt>
      <trkpt lat="37.769315354526042938232421875" lon="-107.70796076394617557525634765625">
        <ele>3836.199951171875</ele>
        <time>2023-07-29T17:23:29.000Z</time>
        <extensions>
          <ns3:TrackPointExtension>
            <ns3:hr>105</ns3:hr>
            <ns3:cad>53</ns3:cad>
          </ns3:TrackPointExtension>
        </extensions>
      </trkpt>
      <trkpt lat="37.76930831372737884521484375" lon="-107.7079658769071102142333984375">
        <ele>3836.199951171875</ele>
        <time>2023-07-29T17:23:30.000Z</time>
        <extensions>
          <ns3:TrackPointExtension>
            <ns3:hr>106</ns3:hr>
            <ns3:cad>53</ns3:cad>
          </ns3:TrackPointExtension>
        </extensions>
      </trkpt>
      <trkpt lat="37.769303955137729644775390625" lon="-107.70796981640160083770751953125">
        <ele>3836.199951171875</ele>
        <time>2023-07-29T17:23:31.000Z</time>
        <extensions>
          <ns3:TrackPointExtension>
            <ns3:hr>106</ns3:hr>
            <ns3:cad>53</ns3:cad>
          </ns3:TrackPointExtension>
        </extensions>
      </trkpt>
      <trkpt lat="37.769296579062938690185546875" lon="-107.70797736011445522308349609375">
        <ele>3836.199951171875</ele>
        <time>2023-07-29T17:23:32.000Z</time>
        <extensions>
          <ns3:TrackPointExtension>
            <ns3:hr>105</ns3:hr>
            <ns3:cad>53</ns3:cad>
          </ns3:TrackPointExtension>
        </extensions>
      </trkpt>
      <trkpt lat="37.76928844861686229705810546875" lon="-107.70798540674149990081787109375">
        <ele>3836.199951171875</ele>
        <time>2023-07-29T17:23:33.000Z</time>
        <extensions>
          <ns3:TrackPointExtension>
            <ns3:hr>106</ns3:hr>
            <ns3:cad>53</ns3:cad>
          </ns3:TrackPointExtension>
        </extensions>
      </trkpt>
      <trkpt lat="37.76927855797111988067626953125" lon="-107.70798708312213420867919921875">
        <ele>3836.199951171875</ele>
        <time>2023-07-29T17:23:34.000Z</time>
        <extensions>
          <ns3:TrackPointExtension>
            <ns3:hr>106</ns3:hr>
            <ns3:cad>53</ns3:cad>
          </ns3:TrackPointExtension>
        </extensions>
      </trkpt>
      <trkpt lat="37.769267745316028594970703125" lon="-107.70799680612981319427490234375">
        <ele>3836</ele>
        <time>2023-07-29T17:23:35.000Z</time>
        <extensions>
          <ns3:TrackPointExtension>
            <ns3:hr>106</ns3:hr>
            <ns3:cad>53</ns3:cad>
          </ns3:TrackPointExtension>
        </extensions>
      </trkpt>
      <trkpt lat="37.76925743557512760162353515625" lon="-107.70800334401428699493408203125">
        <ele>3836</ele>
        <time>2023-07-29T17:23:36.000Z</time>
        <extensions>
          <ns3:TrackPointExtension>
            <ns3:hr>106</ns3:hr>
            <ns3:cad>52</ns3:cad>
          </ns3:TrackPointExtension>
        </extensions>
      </trkpt>
      <trkpt lat="37.769248969852924346923828125" lon="-107.7080131508409976959228515625">
        <ele>3836</ele>
        <time>2023-07-29T17:23:37.000Z</time>
        <extensions>
          <ns3:TrackPointExtension>
            <ns3:hr>106</ns3:hr>
            <ns3:cad>52</ns3:cad>
          </ns3:TrackPointExtension>
        </extensions>
      </trkpt>
      <trkpt lat="37.76923933066427707672119140625" lon="-107.70802102982997894287109375">
        <ele>3836</ele>
        <time>2023-07-29T17:23:38.000Z</time>
        <extensions>
          <ns3:TrackPointExtension>
            <ns3:hr>107</ns3:hr>
            <ns3:cad>54</ns3:cad>
          </ns3:TrackPointExtension>
        </extensions>
      </trkpt>
      <trkpt lat="37.76923145167529582977294921875" lon="-107.7080285735428333282470703125">
        <ele>3836</ele>
        <time>2023-07-29T17:23:39.000Z</time>
        <extensions>
          <ns3:TrackPointExtension>
            <ns3:hr>107</ns3:hr>
            <ns3:cad>54</ns3:cad>
          </ns3:TrackPointExtension>
        </extensions>
      </trkpt>
      <trkpt lat="37.7692249976098537445068359375" lon="-107.70803737454116344451904296875">
        <ele>3836</ele>
        <time>2023-07-29T17:23:40.000Z</time>
        <extensions>
          <ns3:TrackPointExtension>
            <ns3:hr>107</ns3:hr>
            <ns3:cad>53</ns3:cad>
          </ns3:TrackPointExtension>
        </extensions>
      </trkpt>
      <trkpt lat="37.7692182920873165130615234375" lon="-107.7080493606626987457275390625">
        <ele>3836</ele>
        <time>2023-07-29T17:23:41.000Z</time>
        <extensions>
          <ns3:TrackPointExtension>
            <ns3:hr>107</ns3:hr>
            <ns3:cad>51</ns3:cad>
          </ns3:TrackPointExtension>
        </extensions>
      </trkpt>
      <trkpt lat="37.76921636424958705902099609375" lon="-107.70805782638490200042724609375">
        <ele>3836.199951171875</ele>
        <time>2023-07-29T17:23:42.000Z</time>
        <extensions>
          <ns3:TrackPointExtension>
            <ns3:hr>107</ns3:hr>
            <ns3:cad>49</ns3:cad>
          </ns3:TrackPointExtension>
        </extensions>
      </trkpt>
      <trkpt lat="37.7692048810422420501708984375" lon="-107.7080684714019298553466796875">
        <ele>3836.199951171875</ele>
        <time>2023-07-29T17:23:43.000Z</time>
        <extensions>
          <ns3:TrackPointExtension>
            <ns3:hr>107</ns3:hr>
            <ns3:cad>49</ns3:cad>
          </ns3:TrackPointExtension>
        </extensions>
      </trkpt>
      <trkpt lat="37.769195996224880218505859375" lon="-107.708074338734149932861328125">
        <ele>3836.199951171875</ele>
        <time>2023-07-29T17:23:44.000Z</time>
        <extensions>
          <ns3:TrackPointExtension>
            <ns3:hr>107</ns3:hr>
            <ns3:cad>49</ns3:cad>
          </ns3:TrackPointExtension>
        </extensions>
      </trkpt>
      <trkpt lat="37.76918493211269378662109375" lon="-107.70807123742997646331787109375">
        <ele>3836.199951171875</ele>
        <time>2023-07-29T17:23:45.000Z</time>
        <extensions>
          <ns3:TrackPointExtension>
            <ns3:hr>107</ns3:hr>
            <ns3:cad>49</ns3:cad>
          </ns3:TrackPointExtension>
        </extensions>
      </trkpt>
      <trkpt lat="37.76917059905827045440673828125" lon="-107.70807241089642047882080078125">
        <ele>3836.199951171875</ele>
        <time>2023-07-29T17:23:46.000Z</time>
        <extensions>
          <ns3:TrackPointExtension>
            <ns3:hr>107</ns3:hr>
            <ns3:cad>49</ns3:cad>
          </ns3:TrackPointExtension>
        </extensions>
      </trkpt>
      <trkpt lat="37.769161798059940338134765625" lon="-107.708070985972881317138671875">
        <ele>3836.39990234375</ele>
        <time>2023-07-29T17:23:47.000Z</time>
        <extensions>
          <ns3:TrackPointExtension>
            <ns3:hr>107</ns3:hr>
            <ns3:cad>49</ns3:cad>
          </ns3:TrackPointExtension>
        </extensions>
      </trkpt>
      <trkpt lat="37.769151739776134490966796875" lon="-107.70807157270610332489013671875">
        <ele>3836.199951171875</ele>
        <time>2023-07-29T17:23:48.000Z</time>
        <extensions>
          <ns3:TrackPointExtension>
            <ns3:hr>107</ns3:hr>
            <ns3:cad>49</ns3:cad>
          </ns3:TrackPointExtension>
        </extensions>
      </trkpt>
      <trkpt lat="37.76913874782621860504150390625" lon="-107.7080735005438327789306640625">
        <ele>3836.199951171875</ele>
        <time>2023-07-29T17:23:49.000Z</time>
        <extensions>
          <ns3:TrackPointExtension>
            <ns3:hr>107</ns3:hr>
            <ns3:cad>49</ns3:cad>
          </ns3:TrackPointExtension>
        </extensions>
      </trkpt>
      <trkpt lat="37.76913204230368137359619140625" lon="-107.708077020943164825439453125">
        <ele>3836.199951171875</ele>
        <time>2023-07-29T17:23:50.000Z</time>
        <extensions>
          <ns3:TrackPointExtension>
            <ns3:hr>107</ns3:hr>
            <ns3:cad>49</ns3:cad>
          </ns3:TrackPointExtension>
        </extensions>
      </trkpt>
      <trkpt lat="37.76911242865025997161865234375" lon="-107.70808272063732147216796875">
        <ele>3836.199951171875</ele>
        <time>2023-07-29T17:23:51.000Z</time>
        <extensions>
          <ns3:TrackPointExtension>
            <ns3:hr>107</ns3:hr>
            <ns3:cad>49</ns3:cad>
          </ns3:TrackPointExtension>
        </extensions>
      </trkpt>
      <trkpt lat="37.76910270564258098602294921875" lon="-107.7080875821411609649658203125">
        <ele>3835.800048828125</ele>
        <time>2023-07-29T17:23:52.000Z</time>
        <extensions>
          <ns3:TrackPointExtension>
            <ns3:hr>106</ns3:hr>
            <ns3:cad>49</ns3:cad>
          </ns3:TrackPointExtension>
        </extensions>
      </trkpt>
      <trkpt lat="37.76908971369266510009765625" lon="-107.708096466958522796630859375">
        <ele>3835.60009765625</ele>
        <time>2023-07-29T17:23:53.000Z</time>
        <extensions>
          <ns3:TrackPointExtension>
            <ns3:hr>106</ns3:hr>
            <ns3:cad>57</ns3:cad>
          </ns3:TrackPointExtension>
        </extensions>
      </trkpt>
      <trkpt lat="37.76907856576144695281982421875" lon="-107.70810409449040889739990234375">
        <ele>3835.60009765625</ele>
        <time>2023-07-29T17:23:54.000Z</time>
        <extensions>
          <ns3:TrackPointExtension>
            <ns3:hr>106</ns3:hr>
            <ns3:cad>58</ns3:cad>
          </ns3:TrackPointExtension>
        </extensions>
      </trkpt>
      <trkpt lat="37.76906917802989482879638671875" lon="-107.70810979418456554412841796875">
        <ele>3835.60009765625</ele>
        <time>2023-07-29T17:23:55.000Z</time>
        <extensions>
          <ns3:TrackPointExtension>
            <ns3:hr>106</ns3:hr>
            <ns3:cad>58</ns3:cad>
          </ns3:TrackPointExtension>
        </extensions>
      </trkpt>
      <trkpt lat="37.76905945502221584320068359375" lon="-107.7081144042313098907470703125">
        <ele>3835.60009765625</ele>
        <time>2023-07-29T17:23:56.000Z</time>
        <extensions>
          <ns3:TrackPointExtension>
            <ns3:hr>106</ns3:hr>
            <ns3:cad>58</ns3:cad>
          </ns3:TrackPointExtension>
        </extensions>
      </trkpt>
      <trkpt lat="37.7690530009567737579345703125" lon="-107.70811817608773708343505859375">
        <ele>3835.39990234375</ele>
        <time>2023-07-29T17:23:57.000Z</time>
        <extensions>
          <ns3:TrackPointExtension>
            <ns3:hr>106</ns3:hr>
            <ns3:cad>58</ns3:cad>
          </ns3:TrackPointExtension>
        </extensions>
      </trkpt>
      <trkpt lat="37.76905325241386890411376953125" lon="-107.70811851136386394500732421875">
        <ele>3835.39990234375</ele>
        <time>2023-07-29T17:23:58.000Z</time>
        <extensions>
          <ns3:TrackPointExtension>
            <ns3:hr>106</ns3:hr>
            <ns3:cad>58</ns3:cad>
          </ns3:TrackPointExtension>
        </extensions>
      </trkpt>
      <trkpt lat="37.76905484497547149658203125" lon="-107.708116583526134490966796875">
        <ele>3835.39990234375</ele>
        <time>2023-07-29T17:23:59.000Z</time>
        <extensions>
          <ns3:TrackPointExtension>
            <ns3:hr>105</ns3:hr>
            <ns3:cad>0</ns3:cad>
          </ns3:TrackPointExtension>
        </extensions>
      </trkpt>
      <trkpt lat="37.7690610475838184356689453125" lon="-107.70811063237488269805908203125">
        <ele>3835.39990234375</ele>
        <time>2023-07-29T17:24:00.000Z</time>
        <extensions>
          <ns3:TrackPointExtension>
            <ns3:hr>105</ns3:hr>
            <ns3:cad>0</ns3:cad>
          </ns3:TrackPointExtension>
        </extensions>
      </trkpt>
      <trkpt lat="37.76906548999249935150146484375" lon="-107.7081087045371532440185546875">
        <ele>3835.199951171875</ele>
        <time>2023-07-29T17:24:01.000Z</time>
        <extensions>
          <ns3:TrackPointExtension>
            <ns3:hr>105</ns3:hr>
            <ns3:cad>0</ns3:cad>
          </ns3:TrackPointExtension>
        </extensions>
      </trkpt>
      <trkpt lat="37.769069932401180267333984375" lon="-107.7081066928803920745849609375">
        <ele>3835</ele>
        <time>2023-07-29T17:24:02.000Z</time>
        <extensions>
          <ns3:TrackPointExtension>
            <ns3:hr>105</ns3:hr>
            <ns3:cad>0</ns3:cad>
          </ns3:TrackPointExtension>
        </extensions>
      </trkpt>
      <trkpt lat="37.7690724469721317291259765625" lon="-107.70810417830944061279296875">
        <ele>3835</ele>
        <time>2023-07-29T17:24:03.000Z</time>
        <extensions>
          <ns3:TrackPointExtension>
            <ns3:hr>105</ns3:hr>
            <ns3:cad>0</ns3:cad>
          </ns3:TrackPointExtension>
        </extensions>
      </trkpt>
      <trkpt lat="37.76906867511570453643798828125" lon="-107.708109207451343536376953125">
        <ele>3835</ele>
        <time>2023-07-29T17:24:04.000Z</time>
        <extensions>
          <ns3:TrackPointExtension>
            <ns3:hr>105</ns3:hr>
            <ns3:cad>0</ns3:cad>
          </ns3:TrackPointExtension>
        </extensions>
      </trkpt>
      <trkpt lat="37.7690623886883258819580078125" lon="-107.70811557769775390625">
        <ele>3835</ele>
        <time>2023-07-29T17:24:05.000Z</time>
        <extensions>
          <ns3:TrackPointExtension>
            <ns3:hr>106</ns3:hr>
            <ns3:cad>0</ns3:cad>
          </ns3:TrackPointExtension>
        </extensions>
      </trkpt>
      <trkpt lat="37.76905073784291744232177734375" lon="-107.7081247977912425994873046875">
        <ele>3835.199951171875</ele>
        <time>2023-07-29T17:24:06.000Z</time>
        <extensions>
          <ns3:TrackPointExtension>
            <ns3:hr>106</ns3:hr>
            <ns3:cad>0</ns3:cad>
          </ns3:TrackPointExtension>
        </extensions>
      </trkpt>
      <trkpt lat="37.7690345607697963714599609375" lon="-107.70813636481761932373046875">
        <ele>3835.199951171875</ele>
        <time>2023-07-29T17:24:07.000Z</time>
        <extensions>
          <ns3:TrackPointExtension>
            <ns3:hr>107</ns3:hr>
            <ns3:cad>0</ns3:cad>
          </ns3:TrackPointExtension>
        </extensions>
      </trkpt>
      <trkpt lat="37.769022323191165924072265625" lon="-107.708143405616283416748046875">
        <ele>3835.199951171875</ele>
        <time>2023-07-29T17:24:08.000Z</time>
        <extensions>
          <ns3:TrackPointExtension>
            <ns3:hr>107</ns3:hr>
            <ns3:cad>0</ns3:cad>
          </ns3:TrackPointExtension>
        </extensions>
      </trkpt>
      <trkpt lat="37.7690154500305652618408203125" lon="-107.70814399234950542449951171875">
        <ele>3835.39990234375</ele>
        <time>2023-07-29T17:24:09.000Z</time>
        <extensions>
          <ns3:TrackPointExtension>
            <ns3:hr>107</ns3:hr>
            <ns3:cad>0</ns3:cad>
          </ns3:TrackPointExtension>
        </extensions>
      </trkpt>
      <trkpt lat="37.76901134289801120758056640625" lon="-107.7081452496349811553955078125">
        <ele>3835.39990234375</ele>
        <time>2023-07-29T17:24:10.000Z</time>
        <extensions>
          <ns3:TrackPointExtension>
            <ns3:hr>107</ns3:hr>
            <ns3:cad>0</ns3:cad>
          </ns3:TrackPointExtension>
        </extensions>
      </trkpt>
      <trkpt lat="37.76900589466094970703125" lon="-107.70815019495785236358642578125">
        <ele>3835.199951171875</ele>
        <time>2023-07-29T17:24:11.000Z</time>
        <extensions>
          <ns3:TrackPointExtension>
            <ns3:hr>107</ns3:hr>
            <ns3:cad>0</ns3:cad>
          </ns3:TrackPointExtension>
        </extensions>
      </trkpt>
      <trkpt lat="37.76899675838649272918701171875" lon="-107.70815790630877017974853515625">
        <ele>3835</ele>
        <time>2023-07-29T17:24:12.000Z</time>
        <extensions>
          <ns3:TrackPointExtension>
            <ns3:hr>107</ns3:hr>
            <ns3:cad>0</ns3:cad>
          </ns3:TrackPointExtension>
        </extensions>
      </trkpt>
      <trkpt lat="37.76899206452071666717529296875" lon="-107.70816125907003879547119140625">
        <ele>3834.800048828125</ele>
        <time>2023-07-29T17:24:13.000Z</time>
        <extensions>
          <ns3:TrackPointExtension>
            <ns3:hr>107</ns3:hr>
            <ns3:cad>0</ns3:cad>
          </ns3:TrackPointExtension>
        </extensions>
      </trkpt>
      <trkpt lat="37.76899022050201892852783203125" lon="-107.70816444419324398040771484375">
        <ele>3834.800048828125</ele>
        <time>2023-07-29T17:24:14.000Z</time>
        <extensions>
          <ns3:TrackPointExtension>
            <ns3:hr>106</ns3:hr>
            <ns3:cad>0</ns3:cad>
          </ns3:TrackPointExtension>
        </extensions>
      </trkpt>
      <trkpt lat="37.76898971758782863616943359375" lon="-107.7081683836877346038818359375">
        <ele>3834.60009765625</ele>
        <time>2023-07-29T17:24:15.000Z</time>
        <extensions>
          <ns3:TrackPointExtension>
            <ns3:hr>106</ns3:hr>
            <ns3:cad>0</ns3:cad>
          </ns3:TrackPointExtension>
        </extensions>
      </trkpt>
      <trkpt lat="37.76899290271103382110595703125" lon="-107.70817232318222522735595703125">
        <ele>3834.60009765625</ele>
        <time>2023-07-29T17:24:16.000Z</time>
        <extensions>
          <ns3:TrackPointExtension>
            <ns3:hr>106</ns3:hr>
            <ns3:cad>0</ns3:cad>
          </ns3:TrackPointExtension>
        </extensions>
      </trkpt>
      <trkpt lat="37.76898435316979885101318359375" lon="-107.708178274333477020263671875">
        <ele>3834.60009765625</ele>
        <time>2023-07-29T17:24:17.000Z</time>
        <extensions>
          <ns3:TrackPointExtension>
            <ns3:hr>106</ns3:hr>
            <ns3:cad>0</ns3:cad>
          </ns3:TrackPointExtension>
        </extensions>
      </trkpt>
      <trkpt lat="37.7689745463430881500244140625" lon="-107.70818640477955341339111328125">
        <ele>3834.60009765625</ele>
        <time>2023-07-29T17:24:18.000Z</time>
        <extensions>
          <ns3:TrackPointExtension>
            <ns3:hr>106</ns3:hr>
            <ns3:cad>0</ns3:cad>
          </ns3:TrackPointExtension>
        </extensions>
      </trkpt>
      <trkpt lat="37.76896809227764606475830078125" lon="-107.7081906795501708984375">
        <ele>3834.60009765625</ele>
        <time>2023-07-29T17:24:19.000Z</time>
        <extensions>
          <ns3:TrackPointExtension>
            <ns3:hr>106</ns3:hr>
            <ns3:cad>0</ns3:cad>
          </ns3:TrackPointExtension>
        </extensions>
      </trkpt>
      <trkpt lat="37.768967337906360626220703125" lon="-107.7081906795501708984375">
        <ele>3834.60009765625</ele>
        <time>2023-07-29T17:24:20.000Z</time>
        <extensions>
          <ns3:TrackPointExtension>
            <ns3:hr>106</ns3:hr>
            <ns3:cad>0</ns3:cad>
          </ns3:TrackPointExtension>
        </extensions>
      </trkpt>
      <trkpt lat="37.76895702816545963287353515625" lon="-107.70818958990275859832763671875">
        <ele>3834.60009765625</ele>
        <time>2023-07-29T17:24:21.000Z</time>
        <extensions>
          <ns3:TrackPointExtension>
            <ns3:hr>106</ns3:hr>
            <ns3:cad>0</ns3:cad>
          </ns3:TrackPointExtension>
        </extensions>
      </trkpt>
      <trkpt lat="37.768949568271636962890625" lon="-107.708193026483058929443359375">
        <ele>3834.39990234375</ele>
        <time>2023-07-29T17:24:22.000Z</time>
        <extensions>
          <ns3:TrackPointExtension>
            <ns3:hr>106</ns3:hr>
            <ns3:cad>68</ns3:cad>
          </ns3:TrackPointExtension>
        </extensions>
      </trkpt>
      <trkpt lat="37.768938504159450531005859375" lon="-107.7081975527107715606689453125">
        <ele>3834</ele>
        <time>2023-07-29T17:24:23.000Z</time>
        <extensions>
          <ns3:TrackPointExtension>
            <ns3:hr>105</ns3:hr>
            <ns3:cad>68</ns3:cad>
          </ns3:TrackPointExtension>
        </extensions>
      </trkpt>
      <trkpt lat="37.7689292840659618377685546875" lon="-107.70820165984332561492919921875">
        <ele>3833.800048828125</ele>
        <time>2023-07-29T17:24:24.000Z</time>
        <extensions>
          <ns3:TrackPointExtension>
            <ns3:hr>105</ns3:hr>
            <ns3:cad>68</ns3:cad>
          </ns3:TrackPointExtension>
        </extensions>
      </trkpt>
      <trkpt lat="37.76891947723925113677978515625" lon="-107.708208449184894561767578125">
        <ele>3833.60009765625</ele>
        <time>2023-07-29T17:24:25.000Z</time>
        <extensions>
          <ns3:TrackPointExtension>
            <ns3:hr>105</ns3:hr>
            <ns3:cad>68</ns3:cad>
          </ns3:TrackPointExtension>
        </extensions>
      </trkpt>
      <trkpt lat="37.7689138613641262054443359375" lon="-107.70821926183998584747314453125">
        <ele>3833.39990234375</ele>
        <time>2023-07-29T17:24:26.000Z</time>
        <extensions>
          <ns3:TrackPointExtension>
            <ns3:hr>105</ns3:hr>
            <ns3:cad>68</ns3:cad>
          </ns3:TrackPointExtension>
        </extensions>
      </trkpt>
      <trkpt lat="37.768907658755779266357421875" lon="-107.7082330919802188873291015625">
        <ele>3833.199951171875</ele>
        <time>2023-07-29T17:24:27.000Z</time>
        <extensions>
          <ns3:TrackPointExtension>
            <ns3:hr>105</ns3:hr>
            <ns3:cad>68</ns3:cad>
          </ns3:TrackPointExtension>
        </extensions>
      </trkpt>
      <trkpt lat="37.7689007855951786041259765625" lon="-107.7082408033311367034912109375">
        <ele>3833</ele>
        <time>2023-07-29T17:24:28.000Z</time>
        <extensions>
          <ns3:TrackPointExtension>
            <ns3:hr>105</ns3:hr>
            <ns3:cad>68</ns3:cad>
          </ns3:TrackPointExtension>
        </extensions>
      </trkpt>
      <trkpt lat="37.768891565501689910888671875" lon="-107.70825563929975032806396484375">
        <ele>3832.800048828125</ele>
        <time>2023-07-29T17:24:29.000Z</time>
        <extensions>
          <ns3:TrackPointExtension>
            <ns3:hr>105</ns3:hr>
            <ns3:cad>68</ns3:cad>
          </ns3:TrackPointExtension>
        </extensions>
      </trkpt>
      <trkpt lat="37.76888192631304264068603515625" lon="-107.70826586522161960601806640625">
        <ele>3832.800048828125</ele>
        <time>2023-07-29T17:24:30.000Z</time>
        <extensions>
          <ns3:TrackPointExtension>
            <ns3:hr>105</ns3:hr>
            <ns3:cad>68</ns3:cad>
          </ns3:TrackPointExtension>
        </extensions>
      </trkpt>
      <trkpt lat="37.768872119486331939697265625" lon="-107.7082800306379795074462890625">
        <ele>3832.60009765625</ele>
        <time>2023-07-29T17:24:31.000Z</time>
        <extensions>
          <ns3:TrackPointExtension>
            <ns3:hr>105</ns3:hr>
            <ns3:cad>68</ns3:cad>
          </ns3:TrackPointExtension>
        </extensions>
      </trkpt>
      <trkpt lat="37.7688632346689701080322265625" lon="-107.7082931064069271087646484375">
        <ele>3832.39990234375</ele>
        <time>2023-07-29T17:24:32.000Z</time>
        <extensions>
          <ns3:TrackPointExtension>
            <ns3:hr>105</ns3:hr>
            <ns3:cad>68</ns3:cad>
          </ns3:TrackPointExtension>
        </extensions>
      </trkpt>
      <trkpt lat="37.76885242201387882232666015625" lon="-107.70830861292779445648193359375">
        <ele>3832.39990234375</ele>
        <time>2023-07-29T17:24:33.000Z</time>
        <extensions>
          <ns3:TrackPointExtension>
            <ns3:hr>104</ns3:hr>
            <ns3:cad>68</ns3:cad>
          </ns3:TrackPointExtension>
        </extensions>
      </trkpt>
      <trkpt lat="37.768844626843929290771484375" lon="-107.70831800065934658050537109375">
        <ele>3832.39990234375</ele>
        <time>2023-07-29T17:24:34.000Z</time>
        <extensions>
          <ns3:TrackPointExtension>
            <ns3:hr>104</ns3:hr>
            <ns3:cad>57</ns3:cad>
          </ns3:TrackPointExtension>
        </extensions>
      </trkpt>
      <trkpt lat="37.76883197017014026641845703125" lon="-107.7083189226686954498291015625">
        <ele>3832.199951171875</ele>
        <time>2023-07-29T17:24:35.000Z</time>
        <extensions>
          <ns3:TrackPointExtension>
            <ns3:hr>103</ns3:hr>
            <ns3:cad>57</ns3:cad>
          </ns3:TrackPointExtension>
        </extensions>
      </trkpt>
      <trkpt lat="37.76882459409534931182861328125" lon="-107.7083303220570087432861328125">
        <ele>3832.199951171875</ele>
        <time>2023-07-29T17:24:36.000Z</time>
        <extensions>
          <ns3:TrackPointExtension>
            <ns3:hr>103</ns3:hr>
            <ns3:cad>57</ns3:cad>
          </ns3:TrackPointExtension>
        </extensions>
      </trkpt>
      <trkpt lat="37.76881746947765350341796875" lon="-107.70833778195083141326904296875">
        <ele>3832.199951171875</ele>
        <time>2023-07-29T17:24:37.000Z</time>
        <extensions>
          <ns3:TrackPointExtension>
            <ns3:hr>103</ns3:hr>
            <ns3:cad>57</ns3:cad>
          </ns3:TrackPointExtension>
        </extensions>
      </trkpt>
      <trkpt lat="37.7688085846602916717529296875" lon="-107.70834314636886119842529296875">
        <ele>3832</ele>
        <time>2023-07-29T17:24:38.000Z</time>
        <extensions>
          <ns3:TrackPointExtension>
            <ns3:hr>103</ns3:hr>
            <ns3:cad>57</ns3:cad>
          </ns3:TrackPointExtension>
        </extensions>
      </trkpt>
      <trkpt lat="37.76880280114710330963134765625" lon="-107.708341889083385467529296875">
        <ele>3831.800048828125</ele>
        <time>2023-07-29T17:24:39.000Z</time>
        <extensions>
          <ns3:TrackPointExtension>
            <ns3:hr>103</ns3:hr>
            <ns3:cad>57</ns3:cad>
          </ns3:TrackPointExtension>
        </extensions>
      </trkpt>
      <trkpt lat="37.76879576034843921661376953125" lon="-107.7083423919975757598876953125">
        <ele>3831.60009765625</ele>
        <time>2023-07-29T17:24:40.000Z</time>
        <extensions>
          <ns3:TrackPointExtension>
            <ns3:hr>103</ns3:hr>
            <ns3:cad>57</ns3:cad>
          </ns3:TrackPointExtension>
        </extensions>
      </trkpt>
      <trkpt lat="37.768788635730743408203125" lon="-107.708345912396907806396484375">
        <ele>3831.60009765625</ele>
        <time>2023-07-29T17:24:41.000Z</time>
        <extensions>
          <ns3:TrackPointExtension>
            <ns3:hr>103</ns3:hr>
            <ns3:cad>57</ns3:cad>
          </ns3:TrackPointExtension>
        </extensions>
      </trkpt>
      <trkpt lat="37.7687790803611278533935546875" lon="-107.70835102535784244537353515625">
        <ele>3831.60009765625</ele>
        <time>2023-07-29T17:24:42.000Z</time>
        <extensions>
          <ns3:TrackPointExtension>
            <ns3:hr>104</ns3:hr>
            <ns3:cad>57</ns3:cad>
          </ns3:TrackPointExtension>
        </extensions>
      </trkpt>
      <trkpt lat="37.7687753923237323760986328125" lon="-107.7083524502813816070556640625">
        <ele>3831.199951171875</ele>
        <time>2023-07-29T17:24:43.000Z</time>
        <extensions>
          <ns3:TrackPointExtension>
            <ns3:hr>104</ns3:hr>
            <ns3:cad>57</ns3:cad>
          </ns3:TrackPointExtension>
        </extensions>
      </trkpt>
      <trkpt lat="37.7687717042863368988037109375" lon="-107.70835605449974536895751953125">
        <ele>3831</ele>
        <time>2023-07-29T17:24:44.000Z</time>
        <extensions>
          <ns3:TrackPointExtension>
            <ns3:hr>104</ns3:hr>
            <ns3:cad>40</ns3:cad>
          </ns3:TrackPointExtension>
        </extensions>
      </trkpt>
      <trkpt lat="37.76876248419284820556640625" lon="-107.7083631791174411773681640625">
        <ele>3830.800048828125</ele>
        <time>2023-07-29T17:24:45.000Z</time>
        <extensions>
          <ns3:TrackPointExtension>
            <ns3:hr>104</ns3:hr>
            <ns3:cad>40</ns3:cad>
          </ns3:TrackPointExtension>
        </extensions>
      </trkpt>
      <trkpt lat="37.76875033043324947357177734375" lon="-107.70837198011577129364013671875">
        <ele>3830.60009765625</ele>
        <time>2023-07-29T17:24:46.000Z</time>
        <extensions>
          <ns3:TrackPointExtension>
            <ns3:hr>104</ns3:hr>
            <ns3:cad>40</ns3:cad>
          </ns3:TrackPointExtension>
        </extensions>
      </trkpt>
      <trkpt lat="37.76874194853007793426513671875" lon="-107.70837902091443538665771484375">
        <ele>3830.39990234375</ele>
        <time>2023-07-29T17:24:47.000Z</time>
        <extensions>
          <ns3:TrackPointExtension>
            <ns3:hr>104</ns3:hr>
            <ns3:cad>40</ns3:cad>
          </ns3:TrackPointExtension>
        </extensions>
      </trkpt>
      <trkpt lat="37.7687321417033672332763671875" lon="-107.70838354714214801788330078125">
        <ele>3830</ele>
        <time>2023-07-29T17:24:48.000Z</time>
        <extensions>
          <ns3:TrackPointExtension>
            <ns3:hr>104</ns3:hr>
            <ns3:cad>58</ns3:cad>
          </ns3:TrackPointExtension>
        </extensions>
      </trkpt>
      <trkpt lat="37.7687180601060390472412109375" lon="-107.708392851054668426513671875">
        <ele>3829.800048828125</ele>
        <time>2023-07-29T17:24:49.000Z</time>
        <extensions>
          <ns3:TrackPointExtension>
            <ns3:hr>104</ns3:hr>
            <ns3:cad>58</ns3:cad>
          </ns3:TrackPointExtension>
        </extensions>
      </trkpt>
      <trkpt lat="37.76870406232774257659912109375" lon="-107.70840399898588657379150390625">
        <ele>3829.39990234375</ele>
        <time>2023-07-29T17:24:50.000Z</time>
        <extensions>
          <ns3:TrackPointExtension>
            <ns3:hr>104</ns3:hr>
            <ns3:cad>58</ns3:cad>
          </ns3:TrackPointExtension>
        </extensions>
      </trkpt>
      <trkpt lat="37.7687006257474422454833984375" lon="-107.70840869285166263580322265625">
        <ele>3829.39990234375</ele>
        <time>2023-07-29T17:24:51.000Z</time>
        <extensions>
          <ns3:TrackPointExtension>
            <ns3:hr>104</ns3:hr>
            <ns3:cad>57</ns3:cad>
          </ns3:TrackPointExtension>
        </extensions>
      </trkpt>
      <trkpt lat="37.76869283057749271392822265625" lon="-107.70841397345066070556640625">
        <ele>3829.39990234375</ele>
        <time>2023-07-29T17:24:52.000Z</time>
        <extensions>
          <ns3:TrackPointExtension>
            <ns3:hr>104</ns3:hr>
            <ns3:cad>57</ns3:cad>
          </ns3:TrackPointExtension>
        </extensions>
      </trkpt>
      <trkpt lat="37.768685705959796905517578125" lon="-107.708418332040309906005859375">
        <ele>3829.199951171875</ele>
        <time>2023-07-29T17:24:53.000Z</time>
        <extensions>
          <ns3:TrackPointExtension>
            <ns3:hr>103</ns3:hr>
            <ns3:cad>57</ns3:cad>
          </ns3:TrackPointExtension>
        </extensions>
      </trkpt>
      <trkpt lat="37.768681012094020843505859375" lon="-107.70841908641159534454345703125">
        <ele>3828.800048828125</ele>
        <time>2023-07-29T17:24:54.000Z</time>
        <extensions>
          <ns3:TrackPointExtension>
            <ns3:hr>103</ns3:hr>
            <ns3:cad>57</ns3:cad>
          </ns3:TrackPointExtension>
        </extensions>
      </trkpt>
      <trkpt lat="37.7686805091798305511474609375" lon="-107.7084141410887241363525390625">
        <ele>3828.60009765625</ele>
        <time>2023-07-29T17:24:55.000Z</time>
        <extensions>
          <ns3:TrackPointExtension>
            <ns3:hr>103</ns3:hr>
            <ns3:cad>57</ns3:cad>
          </ns3:TrackPointExtension>
        </extensions>
      </trkpt>
      <trkpt lat="37.76867799460887908935546875" lon="-107.7084131352603435516357421875">
        <ele>3828.60009765625</ele>
        <time>2023-07-29T17:24:56.000Z</time>
        <extensions>
          <ns3:TrackPointExtension>
            <ns3:hr>103</ns3:hr>
            <ns3:cad>0</ns3:cad>
          </ns3:TrackPointExtension>
        </extensions>
      </trkpt>
      <trkpt lat="37.768685705959796905517578125" lon="-107.70840969868004322052001953125">
        <ele>3828.39990234375</ele>
        <time>2023-07-29T17:24:57.000Z</time>
        <extensions>
          <ns3:TrackPointExtension>
            <ns3:hr>103</ns3:hr>
            <ns3:cad>0</ns3:cad>
          </ns3:TrackPointExtension>
        </extensions>
      </trkpt>
      <trkpt lat="37.76868880726397037506103515625" lon="-107.7084131352603435516357421875">
        <ele>3828.39990234375</ele>
        <time>2023-07-29T17:24:58.000Z</time>
        <extensions>
          <ns3:TrackPointExtension>
            <ns3:hr>102</ns3:hr>
            <ns3:cad>0</ns3:cad>
          </ns3:TrackPointExtension>
        </extensions>
      </trkpt>
      <trkpt lat="37.76868863962590694427490234375" lon="-107.7084208466112613677978515625">
        <ele>3828.39990234375</ele>
        <time>2023-07-29T17:24:59.000Z</time>
        <extensions>
          <ns3:TrackPointExtension>
            <ns3:hr>102</ns3:hr>
            <ns3:cad>0</ns3:cad>
          </ns3:TrackPointExtension>
        </extensions>
      </trkpt>
      <trkpt lat="37.76868545450270175933837890625" lon="-107.708424031734466552734375">
        <ele>3828.39990234375</ele>
        <time>2023-07-29T17:25:00.000Z</time>
        <extensions>
          <ns3:TrackPointExtension>
            <ns3:hr>101</ns3:hr>
            <ns3:cad>0</ns3:cad>
          </ns3:TrackPointExtension>
        </extensions>
      </trkpt>
      <trkpt lat="37.76868377812206745147705078125" lon="-107.7084245346486568450927734375">
        <ele>3828.39990234375</ele>
        <time>2023-07-29T17:25:01.000Z</time>
        <extensions>
          <ns3:TrackPointExtension>
            <ns3:hr>101</ns3:hr>
            <ns3:cad>0</ns3:cad>
          </ns3:TrackPointExtension>
        </extensions>
      </trkpt>
      <trkpt lat="37.7686805091798305511474609375" lon="-107.70842813886702060699462890625">
        <ele>3828.39990234375</ele>
        <time>2023-07-29T17:25:02.000Z</time>
        <extensions>
          <ns3:TrackPointExtension>
            <ns3:hr>101</ns3:hr>
            <ns3:cad>0</ns3:cad>
          </ns3:TrackPointExtension>
        </extensions>
      </trkpt>
      <trkpt lat="37.76867304928600788116455078125" lon="-107.70843668840825557708740234375">
        <ele>3828.39990234375</ele>
        <time>2023-07-29T17:25:03.000Z</time>
        <extensions>
          <ns3:TrackPointExtension>
            <ns3:hr>100</ns3:hr>
            <ns3:cad>0</ns3:cad>
          </ns3:TrackPointExtension>
        </extensions>
      </trkpt>
      <trkpt lat="37.76866600848734378814697265625" lon="-107.70844439975917339324951171875">
        <ele>3828.199951171875</ele>
        <time>2023-07-29T17:25:04.000Z</time>
        <extensions>
          <ns3:TrackPointExtension>
            <ns3:hr>101</ns3:hr>
            <ns3:cad>0</ns3:cad>
          </ns3:TrackPointExtension>
        </extensions>
      </trkpt>
      <trkpt lat="37.7686553634703159332275390625" lon="-107.70845311693847179412841796875">
        <ele>3828.199951171875</ele>
        <time>2023-07-29T17:25:05.000Z</time>
        <extensions>
          <ns3:TrackPointExtension>
            <ns3:hr>101</ns3:hr>
            <ns3:cad>58</ns3:cad>
          </ns3:TrackPointExtension>
        </extensions>
      </trkpt>
      <trkpt lat="37.7686479873955249786376953125" lon="-107.70845688879489898681640625">
        <ele>3828</ele>
        <time>2023-07-29T17:25:06.000Z</time>
        <extensions>
          <ns3:TrackPointExtension>
            <ns3:hr>102</ns3:hr>
            <ns3:cad>58</ns3:cad>
          </ns3:TrackPointExtension>
        </extensions>
      </trkpt>
      <trkpt lat="37.7686422877013683319091796875" lon="-107.70845680497586727142333984375">
        <ele>3827.800048828125</ele>
        <time>2023-07-29T17:25:07.000Z</time>
        <extensions>
          <ns3:TrackPointExtension>
            <ns3:hr>102</ns3:hr>
            <ns3:cad>58</ns3:cad>
          </ns3:TrackPointExtension>
        </extensions>
      </trkpt>
      <trkpt lat="37.76863507926464080810546875" lon="-107.70845831371843814849853515625">
        <ele>3827.60009765625</ele>
        <time>2023-07-29T17:25:08.000Z</time>
        <extensions>
          <ns3:TrackPointExtension>
            <ns3:hr>102</ns3:hr>
            <ns3:cad>58</ns3:cad>
          </ns3:TrackPointExtension>
        </extensions>
      </trkpt>
      <trkpt lat="37.76862560771405696868896484375" lon="-107.70846066065132617950439453125">
        <ele>3827.199951171875</ele>
        <time>2023-07-29T17:25:09.000Z</time>
        <extensions>
          <ns3:TrackPointExtension>
            <ns3:hr>102</ns3:hr>
            <ns3:cad>57</ns3:cad>
          </ns3:TrackPointExtension>
        </extensions>
      </trkpt>
      <trkpt lat="37.76861739344894886016845703125" lon="-107.7084614150226116180419921875">
        <ele>3827.199951171875</ele>
        <time>2023-07-29T17:25:10.000Z</time>
        <extensions>
          <ns3:TrackPointExtension>
            <ns3:hr>103</ns3:hr>
            <ns3:cad>57</ns3:cad>
          </ns3:TrackPointExtension>
        </extensions>
      </trkpt>
      <trkpt lat="37.76860557496547698974609375" lon="-107.7084654383361339569091796875">
        <ele>3827</ele>
        <time>2023-07-29T17:25:11.000Z</time>
        <extensions>
          <ns3:TrackPointExtension>
            <ns3:hr>103</ns3:hr>
            <ns3:cad>56</ns3:cad>
          </ns3:TrackPointExtension>
        </extensions>
      </trkpt>
      <trkpt lat="37.768591828644275665283203125" lon="-107.70847189240157604217529296875">
        <ele>3826.800048828125</ele>
        <time>2023-07-29T17:25:12.000Z</time>
        <extensions>
          <ns3:TrackPointExtension>
            <ns3:hr>103</ns3:hr>
            <ns3:cad>56</ns3:cad>
          </ns3:TrackPointExtension>
        </extensions>
      </trkpt>
      <trkpt lat="37.76857967488467693328857421875" lon="-107.708478011190891265869140625">
        <ele>3826.60009765625</ele>
        <time>2023-07-29T17:25:13.000Z</time>
        <extensions>
          <ns3:TrackPointExtension>
            <ns3:hr>103</ns3:hr>
            <ns3:cad>55</ns3:cad>
          </ns3:TrackPointExtension>
        </extensions>
      </trkpt>
      <trkpt lat="37.7685641683638095855712890625" lon="-107.70848547108471393585205078125">
        <ele>3826.60009765625</ele>
        <time>2023-07-29T17:25:14.000Z</time>
        <extensions>
          <ns3:TrackPointExtension>
            <ns3:hr>103</ns3:hr>
            <ns3:cad>55</ns3:cad>
          </ns3:TrackPointExtension>
        </extensions>
      </trkpt>
      <trkpt lat="37.76855436153709888458251953125" lon="-107.70848932676017284393310546875">
        <ele>3826.39990234375</ele>
        <time>2023-07-29T17:25:15.000Z</time>
        <extensions>
          <ns3:TrackPointExtension>
            <ns3:hr>103</ns3:hr>
            <ns3:cad>55</ns3:cad>
          </ns3:TrackPointExtension>
        </extensions>
      </trkpt>
      <trkpt lat="37.76854388415813446044921875" lon="-107.70849150605499744415283203125">
        <ele>3826.199951171875</ele>
        <time>2023-07-29T17:25:16.000Z</time>
        <extensions>
          <ns3:TrackPointExtension>
            <ns3:hr>102</ns3:hr>
            <ns3:cad>55</ns3:cad>
          </ns3:TrackPointExtension>
        </extensions>
      </trkpt>
      <trkpt lat="37.7685373462736606597900390625" lon="-107.70849418826401233673095703125">
        <ele>3826</ele>
        <time>2023-07-29T17:25:17.000Z</time>
        <extensions>
          <ns3:TrackPointExtension>
            <ns3:hr>102</ns3:hr>
            <ns3:cad>55</ns3:cad>
          </ns3:TrackPointExtension>
        </extensions>
      </trkpt>
      <trkpt lat="37.7685266174376010894775390625" lon="-107.70849854685366153717041015625">
        <ele>3826</ele>
        <time>2023-07-29T17:25:18.000Z</time>
        <extensions>
          <ns3:TrackPointExtension>
            <ns3:hr>102</ns3:hr>
            <ns3:cad>55</ns3:cad>
          </ns3:TrackPointExtension>
        </extensions>
      </trkpt>
      <trkpt lat="37.76852033101022243499755859375" lon="-107.70849921740591526031494140625">
        <ele>3826</ele>
        <time>2023-07-29T17:25:19.000Z</time>
        <extensions>
          <ns3:TrackPointExtension>
            <ns3:hr>101</ns3:hr>
            <ns3:cad>55</ns3:cad>
          </ns3:TrackPointExtension>
        </extensions>
      </trkpt>
      <trkpt lat="37.7685175649821758270263671875" lon="-107.7085026539862155914306640625">
        <ele>3826</ele>
        <time>2023-07-29T17:25:20.000Z</time>
        <extensions>
          <ns3:TrackPointExtension>
            <ns3:hr>101</ns3:hr>
            <ns3:cad>54</ns3:cad>
          </ns3:TrackPointExtension>
        </extensions>
      </trkpt>
      <trkpt lat="37.768514044582843780517578125" lon="-107.70850382745265960693359375">
        <ele>3825.800048828125</ele>
        <time>2023-07-29T17:25:21.000Z</time>
        <extensions>
          <ns3:TrackPointExtension>
            <ns3:hr>100</ns3:hr>
            <ns3:cad>52</ns3:cad>
          </ns3:TrackPointExtension>
        </extensions>
      </trkpt>
      <trkpt lat="37.76850457303225994110107421875" lon="-107.70851028151810169219970703125">
        <ele>3825.800048828125</ele>
        <time>2023-07-29T17:25:22.000Z</time>
        <extensions>
          <ns3:TrackPointExtension>
            <ns3:hr>100</ns3:hr>
            <ns3:cad>52</ns3:cad>
          </ns3:TrackPointExtension>
        </extensions>
      </trkpt>
      <trkpt lat="37.76849669404327869415283203125" lon="-107.70851464010775089263916015625">
        <ele>3825.60009765625</ele>
        <time>2023-07-29T17:25:23.000Z</time>
        <extensions>
          <ns3:TrackPointExtension>
            <ns3:hr>100</ns3:hr>
            <ns3:cad>52</ns3:cad>
          </ns3:TrackPointExtension>
        </extensions>
      </trkpt>
      <trkpt lat="37.76848797686398029327392578125" lon="-107.70851992070674896240234375">
        <ele>3825.60009765625</ele>
        <time>2023-07-29T17:25:24.000Z</time>
        <extensions>
          <ns3:TrackPointExtension>
            <ns3:hr>100</ns3:hr>
            <ns3:cad>52</ns3:cad>
          </ns3:TrackPointExtension>
        </extensions>
      </trkpt>
      <trkpt lat="37.76846970431506633758544921875" lon="-107.7085334993898868560791015625">
        <ele>3825.39990234375</ele>
        <time>2023-07-29T17:25:25.000Z</time>
        <extensions>
          <ns3:TrackPointExtension>
            <ns3:hr>101</ns3:hr>
            <ns3:cad>53</ns3:cad>
          </ns3:TrackPointExtension>
        </extensions>
      </trkpt>
      <trkpt lat="37.76845713146030902862548828125" lon="-107.70854146219789981842041015625">
        <ele>3825.199951171875</ele>
        <time>2023-07-29T17:25:26.000Z</time>
        <extensions>
          <ns3:TrackPointExtension>
            <ns3:hr>101</ns3:hr>
            <ns3:cad>57</ns3:cad>
          </ns3:TrackPointExtension>
        </extensions>
      </trkpt>
      <trkpt lat="37.76844774372875690460205078125" lon="-107.70855101756751537322998046875">
        <ele>3825</ele>
        <time>2023-07-29T17:25:27.000Z</time>
        <extensions>
          <ns3:TrackPointExtension>
            <ns3:hr>101</ns3:hr>
            <ns3:cad>57</ns3:cad>
          </ns3:TrackPointExtension>
        </extensions>
      </trkpt>
      <trkpt lat="37.76843466795980930328369140625" lon="-107.70856275223195552825927734375">
        <ele>3825</ele>
        <time>2023-07-29T17:25:28.000Z</time>
        <extensions>
          <ns3:TrackPointExtension>
            <ns3:hr>101</ns3:hr>
            <ns3:cad>57</ns3:cad>
          </ns3:TrackPointExtension>
        </extensions>
      </trkpt>
      <trkpt lat="37.7684260345995426177978515625" lon="-107.70856895484030246734619140625">
        <ele>3824.800048828125</ele>
        <time>2023-07-29T17:25:29.000Z</time>
        <extensions>
          <ns3:TrackPointExtension>
            <ns3:hr>101</ns3:hr>
            <ns3:cad>58</ns3:cad>
          </ns3:TrackPointExtension>
        </extensions>
      </trkpt>
      <trkpt lat="37.76841304264962673187255859375" lon="-107.7085801027715206146240234375">
        <ele>3824.800048828125</ele>
        <time>2023-07-29T17:25:30.000Z</time>
        <extensions>
          <ns3:TrackPointExtension>
            <ns3:hr>101</ns3:hr>
            <ns3:cad>58</ns3:cad>
          </ns3:TrackPointExtension>
        </extensions>
      </trkpt>
      <trkpt lat="37.76840507984161376953125" lon="-107.7085889875888824462890625">
        <ele>3824.60009765625</ele>
        <time>2023-07-29T17:25:31.000Z</time>
        <extensions>
          <ns3:TrackPointExtension>
            <ns3:hr>101</ns3:hr>
            <ns3:cad>58</ns3:cad>
          </ns3:TrackPointExtension>
        </extensions>
      </trkpt>
      <trkpt lat="37.768393345177173614501953125" lon="-107.7086025662720203399658203125">
        <ele>3824.60009765625</ele>
        <time>2023-07-29T17:25:32.000Z</time>
        <extensions>
          <ns3:TrackPointExtension>
            <ns3:hr>101</ns3:hr>
            <ns3:cad>58</ns3:cad>
          </ns3:TrackPointExtension>
        </extensions>
      </trkpt>
      <trkpt lat="37.76838253252208232879638671875" lon="-107.70861455239355564117431640625">
        <ele>3824.39990234375</ele>
        <time>2023-07-29T17:25:33.000Z</time>
        <extensions>
          <ns3:TrackPointExtension>
            <ns3:hr>100</ns3:hr>
            <ns3:cad>58</ns3:cad>
          </ns3:TrackPointExtension>
        </extensions>
      </trkpt>
      <trkpt lat="37.76837381534278392791748046875" lon="-107.70862326957285404205322265625">
        <ele>3824.39990234375</ele>
        <time>2023-07-29T17:25:34.000Z</time>
        <extensions>
          <ns3:TrackPointExtension>
            <ns3:hr>100</ns3:hr>
            <ns3:cad>58</ns3:cad>
          </ns3:TrackPointExtension>
        </extensions>
      </trkpt>
      <trkpt lat="37.768369205296039581298828125" lon="-107.7086290530860424041748046875">
        <ele>3824.199951171875</ele>
        <time>2023-07-29T17:25:35.000Z</time>
        <extensions>
          <ns3:TrackPointExtension>
            <ns3:hr>99</ns3:hr>
            <ns3:cad>58</ns3:cad>
          </ns3:TrackPointExtension>
        </extensions>
      </trkpt>
      <trkpt lat="37.76836157776415348052978515625" lon="-107.70863751880824565887451171875">
        <ele>3824.199951171875</ele>
        <time>2023-07-29T17:25:36.000Z</time>
        <extensions>
          <ns3:TrackPointExtension>
            <ns3:hr>98</ns3:hr>
            <ns3:cad>58</ns3:cad>
          </ns3:TrackPointExtension>
        </extensions>
      </trkpt>
      <trkpt lat="37.76834917254745960235595703125" lon="-107.70865260623395442962646484375">
        <ele>3824</ele>
        <time>2023-07-29T17:25:37.000Z</time>
        <extensions>
          <ns3:TrackPointExtension>
            <ns3:hr>97</ns3:hr>
            <ns3:cad>58</ns3:cad>
          </ns3:TrackPointExtension>
        </extensions>
      </trkpt>
      <trkpt lat="37.76834380812942981719970703125" lon="-107.708656378090381622314453125">
        <ele>3823.800048828125</ele>
        <time>2023-07-29T17:25:38.000Z</time>
        <extensions>
          <ns3:TrackPointExtension>
            <ns3:hr>97</ns3:hr>
            <ns3:cad>58</ns3:cad>
          </ns3:TrackPointExtension>
        </extensions>
      </trkpt>
      <trkpt lat="37.768336348235607147216796875" lon="-107.70866367034614086151123046875">
        <ele>3823.60009765625</ele>
        <time>2023-07-29T17:25:39.000Z</time>
        <extensions>
          <ns3:TrackPointExtension>
            <ns3:hr>96</ns3:hr>
            <ns3:cad>58</ns3:cad>
          </ns3:TrackPointExtension>
        </extensions>
      </trkpt>
      <trkpt lat="37.76833022944629192352294921875" lon="-107.70866618491709232330322265625">
        <ele>3823.60009765625</ele>
        <time>2023-07-29T17:25:40.000Z</time>
        <extensions>
          <ns3:TrackPointExtension>
            <ns3:hr>95</ns3:hr>
            <ns3:cad>58</ns3:cad>
          </ns3:TrackPointExtension>
        </extensions>
      </trkpt>
      <trkpt lat="37.76831832714378833770751953125" lon="-107.70867506973445415496826171875">
        <ele>3823.39990234375</ele>
        <time>2023-07-29T17:25:41.000Z</time>
        <extensions>
          <ns3:TrackPointExtension>
            <ns3:hr>94</ns3:hr>
            <ns3:cad>58</ns3:cad>
          </ns3:TrackPointExtension>
        </extensions>
      </trkpt>
      <trkpt lat="37.7683103643357753753662109375" lon="-107.70868060179054737091064453125">
        <ele>3823.39990234375</ele>
        <time>2023-07-29T17:25:42.000Z</time>
        <extensions>
          <ns3:TrackPointExtension>
            <ns3:hr>92</ns3:hr>
            <ns3:cad>58</ns3:cad>
          </ns3:TrackPointExtension>
        </extensions>
      </trkpt>
      <trkpt lat="37.76829754002392292022705078125" lon="-107.70868898369371891021728515625">
        <ele>3823.39990234375</ele>
        <time>2023-07-29T17:25:43.000Z</time>
        <extensions>
          <ns3:TrackPointExtension>
            <ns3:hr>90</ns3:hr>
            <ns3:cad>58</ns3:cad>
          </ns3:TrackPointExtension>
        </extensions>
      </trkpt>
      <trkpt lat="37.76828379370272159576416015625" lon="-107.70869535394012928009033203125">
        <ele>3823.199951171875</ele>
        <time>2023-07-29T17:25:44.000Z</time>
        <extensions>
          <ns3:TrackPointExtension>
            <ns3:hr>88</ns3:hr>
            <ns3:cad>58</ns3:cad>
          </ns3:TrackPointExtension>
        </extensions>
      </trkpt>
      <trkpt lat="37.76827306486666202545166015625" lon="-107.708703987300395965576171875">
        <ele>3823.199951171875</ele>
        <time>2023-07-29T17:25:45.000Z</time>
        <extensions>
          <ns3:TrackPointExtension>
            <ns3:hr>85</ns3:hr>
            <ns3:cad>58</ns3:cad>
          </ns3:TrackPointExtension>
        </extensions>
      </trkpt>
      <trkpt lat="37.768260575830936431884765625" lon="-107.7087138779461383819580078125">
        <ele>3822.800048828125</ele>
        <time>2023-07-29T17:25:46.000Z</time>
        <extensions>
          <ns3:TrackPointExtension>
            <ns3:hr>84</ns3:hr>
            <ns3:cad>58</ns3:cad>
          </ns3:TrackPointExtension>
        </extensions>
      </trkpt>
      <trkpt lat="37.76824775151908397674560546875" lon="-107.7087266184389591217041015625">
        <ele>3822.800048828125</ele>
        <time>2023-07-29T17:25:47.000Z</time>
        <extensions>
          <ns3:TrackPointExtension>
            <ns3:hr>84</ns3:hr>
            <ns3:cad>55</ns3:cad>
          </ns3:TrackPointExtension>
        </extensions>
      </trkpt>
      <trkpt lat="37.7682387828826904296875" lon="-107.70873391069471836090087890625">
        <ele>3822.60009765625</ele>
        <time>2023-07-29T17:25:48.000Z</time>
        <extensions>
          <ns3:TrackPointExtension>
            <ns3:hr>84</ns3:hr>
            <ns3:cad>55</ns3:cad>
          </ns3:TrackPointExtension>
        </extensions>
      </trkpt>
      <trkpt lat="37.7682292275130748748779296875" lon="-107.708742208778858184814453125">
        <ele>3822.60009765625</ele>
        <time>2023-07-29T17:25:49.000Z</time>
        <extensions>
          <ns3:TrackPointExtension>
            <ns3:hr>84</ns3:hr>
            <ns3:cad>55</ns3:cad>
          </ns3:TrackPointExtension>
        </extensions>
      </trkpt>
      <trkpt lat="37.7682191692292690277099609375" lon="-107.70875017158687114715576171875">
        <ele>3822.39990234375</ele>
        <time>2023-07-29T17:25:50.000Z</time>
        <extensions>
          <ns3:TrackPointExtension>
            <ns3:hr>84</ns3:hr>
            <ns3:cad>55</ns3:cad>
          </ns3:TrackPointExtension>
        </extensions>
      </trkpt>
      <trkpt lat="37.76820902712643146514892578125" lon="-107.70876123569905757904052734375">
        <ele>3822.39990234375</ele>
        <time>2023-07-29T17:25:51.000Z</time>
        <extensions>
          <ns3:TrackPointExtension>
            <ns3:hr>84</ns3:hr>
            <ns3:cad>55</ns3:cad>
          </ns3:TrackPointExtension>
        </extensions>
      </trkpt>
      <trkpt lat="37.7682010643184185028076171875" lon="-107.7087700366973876953125">
        <ele>3822</ele>
        <time>2023-07-29T17:25:52.000Z</time>
        <extensions>
          <ns3:TrackPointExtension>
            <ns3:hr>84</ns3:hr>
            <ns3:cad>57</ns3:cad>
          </ns3:TrackPointExtension>
        </extensions>
      </trkpt>
      <trkpt lat="37.7681956999003887176513671875" lon="-107.70877682603895664215087890625">
        <ele>3822</ele>
        <time>2023-07-29T17:25:53.000Z</time>
        <extensions>
          <ns3:TrackPointExtension>
            <ns3:hr>84</ns3:hr>
            <ns3:cad>57</ns3:cad>
          </ns3:TrackPointExtension>
        </extensions>
      </trkpt>
      <trkpt lat="37.76819050312042236328125" lon="-107.70878537558019161224365234375">
        <ele>3821.800048828125</ele>
        <time>2023-07-29T17:25:54.000Z</time>
        <extensions>
          <ns3:TrackPointExtension>
            <ns3:hr>84</ns3:hr>
            <ns3:cad>57</ns3:cad>
          </ns3:TrackPointExtension>
        </extensions>
      </trkpt>
      <trkpt lat="37.7681839652359485626220703125" lon="-107.70879627205431461334228515625">
        <ele>3821.800048828125</ele>
        <time>2023-07-29T17:25:55.000Z</time>
        <extensions>
          <ns3:TrackPointExtension>
            <ns3:hr>84</ns3:hr>
            <ns3:cad>57</ns3:cad>
          </ns3:TrackPointExtension>
        </extensions>
      </trkpt>
      <trkpt lat="37.76817566715180873870849609375" lon="-107.70880733616650104522705078125">
        <ele>3821.60009765625</ele>
        <time>2023-07-29T17:25:56.000Z</time>
        <extensions>
          <ns3:TrackPointExtension>
            <ns3:hr>84</ns3:hr>
            <ns3:cad>57</ns3:cad>
          </ns3:TrackPointExtension>
        </extensions>
      </trkpt>
      <trkpt lat="37.76816275902092456817626953125" lon="-107.70881856791675090789794921875">
        <ele>3821.60009765625</ele>
        <time>2023-07-29T17:25:57.000Z</time>
        <extensions>
          <ns3:TrackPointExtension>
            <ns3:hr>84</ns3:hr>
            <ns3:cad>57</ns3:cad>
          </ns3:TrackPointExtension>
        </extensions>
      </trkpt>
      <trkpt lat="37.768154628574848175048828125" lon="-107.70883097313344478607177734375">
        <ele>3821.39990234375</ele>
        <time>2023-07-29T17:25:58.000Z</time>
        <extensions>
          <ns3:TrackPointExtension>
            <ns3:hr>84</ns3:hr>
            <ns3:cad>0</ns3:cad>
          </ns3:TrackPointExtension>
        </extensions>
      </trkpt>
      <trkpt lat="37.768150269985198974609375" lon="-107.708838097751140594482421875">
        <ele>3821.39990234375</ele>
        <time>2023-07-29T17:25:59.000Z</time>
        <extensions>
          <ns3:TrackPointExtension>
            <ns3:hr>84</ns3:hr>
            <ns3:cad>0</ns3:cad>
          </ns3:TrackPointExtension>
        </extensions>
      </trkpt>
      <trkpt lat="37.76814012788236141204833984375" lon="-107.7088500000536441802978515625">
        <ele>3821.199951171875</ele>
        <time>2023-07-29T17:26:00.000Z</time>
        <extensions>
          <ns3:TrackPointExtension>
            <ns3:hr>83</ns3:hr>
            <ns3:cad>0</ns3:cad>
          </ns3:TrackPointExtension>
        </extensions>
      </trkpt>
      <trkpt lat="37.76813350617885589599609375" lon="-107.708858549594879150390625">
        <ele>3821.199951171875</ele>
        <time>2023-07-29T17:26:01.000Z</time>
        <extensions>
          <ns3:TrackPointExtension>
            <ns3:hr>83</ns3:hr>
            <ns3:cad>0</ns3:cad>
          </ns3:TrackPointExtension>
        </extensions>
      </trkpt>
      <trkpt lat="37.76812654919922351837158203125" lon="-107.70886818878352642059326171875">
        <ele>3821</ele>
        <time>2023-07-29T17:26:02.000Z</time>
        <extensions>
          <ns3:TrackPointExtension>
            <ns3:hr>82</ns3:hr>
            <ns3:cad>0</ns3:cad>
          </ns3:TrackPointExtension>
        </extensions>
      </trkpt>
      <trkpt lat="37.76811364106833934783935546875" lon="-107.70888310857117176055908203125">
        <ele>3820.800048828125</ele>
        <time>2023-07-29T17:26:03.000Z</time>
        <extensions>
          <ns3:TrackPointExtension>
            <ns3:hr>82</ns3:hr>
            <ns3:cad>0</ns3:cad>
          </ns3:TrackPointExtension>
        </extensions>
      </trkpt>
      <trkpt lat="37.7681065164506435394287109375" lon="-107.70889467559754848480224609375">
        <ele>3820.60009765625</ele>
        <time>2023-07-29T17:26:04.000Z</time>
        <extensions>
          <ns3:TrackPointExtension>
            <ns3:hr>81</ns3:hr>
            <ns3:cad>0</ns3:cad>
          </ns3:TrackPointExtension>
        </extensions>
      </trkpt>
      <trkpt lat="37.76809603907167911529541015625" lon="-107.70890473388135433197021484375">
        <ele>3820.60009765625</ele>
        <time>2023-07-29T17:26:05.000Z</time>
        <extensions>
          <ns3:TrackPointExtension>
            <ns3:hr>81</ns3:hr>
            <ns3:cad>0</ns3:cad>
          </ns3:TrackPointExtension>
        </extensions>
      </trkpt>
      <trkpt lat="37.76808899827301502227783203125" lon="-107.7089135348796844482421875">
        <ele>3820.60009765625</ele>
        <time>2023-07-29T17:26:06.000Z</time>
        <extensions>
          <ns3:TrackPointExtension>
            <ns3:hr>81</ns3:hr>
            <ns3:cad>55</ns3:cad>
          </ns3:TrackPointExtension>
        </extensions>
      </trkpt>
      <trkpt lat="37.76808254420757293701171875" lon="-107.70892350934445858001708984375">
        <ele>3820.60009765625</ele>
        <time>2023-07-29T17:26:07.000Z</time>
        <extensions>
          <ns3:TrackPointExtension>
            <ns3:hr>81</ns3:hr>
            <ns3:cad>55</ns3:cad>
          </ns3:TrackPointExtension>
        </extensions>
      </trkpt>
      <trkpt lat="37.76807089336216449737548828125" lon="-107.70893457345664501190185546875">
        <ele>3820.60009765625</ele>
        <time>2023-07-29T17:26:08.000Z</time>
        <extensions>
          <ns3:TrackPointExtension>
            <ns3:hr>81</ns3:hr>
            <ns3:cad>55</ns3:cad>
          </ns3:TrackPointExtension>
        </extensions>
      </trkpt>
      <trkpt lat="37.76806234382092952728271484375" lon="-107.70894362591207027435302734375">
        <ele>3820.39990234375</ele>
        <time>2023-07-29T17:26:09.000Z</time>
        <extensions>
          <ns3:TrackPointExtension>
            <ns3:hr>81</ns3:hr>
            <ns3:cad>56</ns3:cad>
          </ns3:TrackPointExtension>
        </extensions>
      </trkpt>
      <trkpt lat="37.7680532075464725494384765625" lon="-107.7089532651007175445556640625">
        <ele>3820.39990234375</ele>
        <time>2023-07-29T17:26:10.000Z</time>
        <extensions>
          <ns3:TrackPointExtension>
            <ns3:hr>81</ns3:hr>
            <ns3:cad>56</ns3:cad>
          </ns3:TrackPointExtension>
        </extensions>
      </trkpt>
      <trkpt lat="37.76804558001458644866943359375" lon="-107.70895888097584247589111328125">
        <ele>3820.199951171875</ele>
        <time>2023-07-29T17:26:11.000Z</time>
        <extensions>
          <ns3:TrackPointExtension>
            <ns3:hr>81</ns3:hr>
            <ns3:cad>56</ns3:cad>
          </ns3:TrackPointExtension>
        </extensions>
      </trkpt>
      <trkpt lat="37.76803887449204921722412109375" lon="-107.708960473537445068359375">
        <ele>3820.199951171875</ele>
        <time>2023-07-29T17:26:12.000Z</time>
        <extensions>
          <ns3:TrackPointExtension>
            <ns3:hr>81</ns3:hr>
            <ns3:cad>56</ns3:cad>
          </ns3:TrackPointExtension>
        </extensions>
      </trkpt>
      <trkpt lat="37.76803401298820972442626953125" lon="-107.70896642468869686126708984375">
        <ele>3820</ele>
        <time>2023-07-29T17:26:13.000Z</time>
        <extensions>
          <ns3:TrackPointExtension>
            <ns3:hr>82</ns3:hr>
            <ns3:cad>56</ns3:cad>
          </ns3:TrackPointExtension>
        </extensions>
      </trkpt>
      <trkpt lat="37.768025211989879608154296875" lon="-107.70896919071674346923828125">
        <ele>3820</ele>
        <time>2023-07-29T17:26:14.000Z</time>
        <extensions>
          <ns3:TrackPointExtension>
            <ns3:hr>84</ns3:hr>
            <ns3:cad>56</ns3:cad>
          </ns3:TrackPointExtension>
        </extensions>
      </trkpt>
      <trkpt lat="37.7680149860680103302001953125" lon="-107.7089774049818515777587890625">
        <ele>3819.800048828125</ele>
        <time>2023-07-29T17:26:15.000Z</time>
        <extensions>
          <ns3:TrackPointExtension>
            <ns3:hr>84</ns3:hr>
            <ns3:cad>57</ns3:cad>
          </ns3:TrackPointExtension>
        </extensions>
      </trkpt>
      <trkpt lat="37.76800584979355335235595703125" lon="-107.70898385904729366302490234375">
        <ele>3819.800048828125</ele>
        <time>2023-07-29T17:26:16.000Z</time>
        <extensions>
          <ns3:TrackPointExtension>
            <ns3:hr>85</ns3:hr>
            <ns3:cad>57</ns3:cad>
          </ns3:TrackPointExtension>
        </extensions>
      </trkpt>
      <trkpt lat="37.76799428276717662811279296875" lon="-107.7089924924075603485107421875">
        <ele>3819.60009765625</ele>
        <time>2023-07-29T17:26:17.000Z</time>
        <extensions>
          <ns3:TrackPointExtension>
            <ns3:hr>85</ns3:hr>
            <ns3:cad>57</ns3:cad>
          </ns3:TrackPointExtension>
        </extensions>
      </trkpt>
      <trkpt lat="37.76798740960657596588134765625" lon="-107.70899877883493900299072265625">
        <ele>3819.39990234375</ele>
        <time>2023-07-29T17:26:18.000Z</time>
        <extensions>
          <ns3:TrackPointExtension>
            <ns3:hr>86</ns3:hr>
            <ns3:cad>57</ns3:cad>
          </ns3:TrackPointExtension>
        </extensions>
      </trkpt>
      <trkpt lat="37.7679754234850406646728515625" lon="-107.70900942385196685791015625">
        <ele>3819.39990234375</ele>
        <time>2023-07-29T17:26:19.000Z</time>
        <extensions>
          <ns3:TrackPointExtension>
            <ns3:hr>87</ns3:hr>
            <ns3:cad>57</ns3:cad>
          </ns3:TrackPointExtension>
        </extensions>
      </trkpt>
      <trkpt lat="37.767965532839298248291015625" lon="-107.709019817411899566650390625">
        <ele>3819.199951171875</ele>
        <time>2023-07-29T17:26:20.000Z</time>
        <extensions>
          <ns3:TrackPointExtension>
            <ns3:hr>87</ns3:hr>
            <ns3:cad>57</ns3:cad>
          </ns3:TrackPointExtension>
        </extensions>
      </trkpt>
      <trkpt lat="37.76795404963195323944091796875" lon="-107.709030546247959136962890625">
        <ele>3819.199951171875</ele>
        <time>2023-07-29T17:26:21.000Z</time>
        <extensions>
          <ns3:TrackPointExtension>
            <ns3:hr>88</ns3:hr>
            <ns3:cad>57</ns3:cad>
          </ns3:TrackPointExtension>
        </extensions>
      </trkpt>
      <trkpt lat="37.76794147677719593048095703125" lon="-107.7090421132743358612060546875">
        <ele>3819</ele>
        <time>2023-07-29T17:26:22.000Z</time>
        <extensions>
          <ns3:TrackPointExtension>
            <ns3:hr>88</ns3:hr>
            <ns3:cad>59</ns3:cad>
          </ns3:TrackPointExtension>
        </extensions>
      </trkpt>
      <trkpt lat="37.767933346331119537353515625" lon="-107.70905208773910999298095703125">
        <ele>3818.800048828125</ele>
        <time>2023-07-29T17:26:23.000Z</time>
        <extensions>
          <ns3:TrackPointExtension>
            <ns3:hr>89</ns3:hr>
            <ns3:cad>59</ns3:cad>
          </ns3:TrackPointExtension>
        </extensions>
      </trkpt>
      <trkpt lat="37.76791783981025218963623046875" lon="-107.70906315185129642486572265625">
        <ele>3818.60009765625</ele>
        <time>2023-07-29T17:26:24.000Z</time>
        <extensions>
          <ns3:TrackPointExtension>
            <ns3:hr>90</ns3:hr>
            <ns3:cad>59</ns3:cad>
          </ns3:TrackPointExtension>
        </extensions>
      </trkpt>
      <trkpt lat="37.767907865345478057861328125" lon="-107.70907220430672168731689453125">
        <ele>3818.39990234375</ele>
        <time>2023-07-29T17:26:25.000Z</time>
        <extensions>
          <ns3:TrackPointExtension>
            <ns3:hr>91</ns3:hr>
            <ns3:cad>59</ns3:cad>
          </ns3:TrackPointExtension>
        </extensions>
      </trkpt>
      <trkpt lat="37.76789755560457706451416015625" lon="-107.70908192731440067291259765625">
        <ele>3818.39990234375</ele>
        <time>2023-07-29T17:26:26.000Z</time>
        <extensions>
          <ns3:TrackPointExtension>
            <ns3:hr>91</ns3:hr>
            <ns3:cad>59</ns3:cad>
          </ns3:TrackPointExtension>
        </extensions>
      </trkpt>
      <trkpt lat="37.76788942515850067138671875" lon="-107.7090887166559696197509765625">
        <ele>3818.199951171875</ele>
        <time>2023-07-29T17:26:27.000Z</time>
        <extensions>
          <ns3:TrackPointExtension>
            <ns3:hr>91</ns3:hr>
            <ns3:cad>0</ns3:cad>
          </ns3:TrackPointExtension>
        </extensions>
      </trkpt>
      <trkpt lat="37.7678778581321239471435546875" lon="-107.7090977691113948822021484375">
        <ele>3818</ele>
        <time>2023-07-29T17:26:28.000Z</time>
        <extensions>
          <ns3:TrackPointExtension>
            <ns3:hr>92</ns3:hr>
            <ns3:cad>0</ns3:cad>
          </ns3:TrackPointExtension>
        </extensions>
      </trkpt>
      <trkpt lat="37.7678704820573329925537109375" lon="-107.70910757593810558319091796875">
        <ele>3818</ele>
        <time>2023-07-29T17:26:29.000Z</time>
        <extensions>
          <ns3:TrackPointExtension>
            <ns3:hr>93</ns3:hr>
            <ns3:cad>0</ns3:cad>
          </ns3:TrackPointExtension>
        </extensions>
      </trkpt>
      <trkpt lat="37.76785514317452907562255859375" lon="-107.70911713130772113800048828125">
        <ele>3817.800048828125</ele>
        <time>2023-07-29T17:26:30.000Z</time>
        <extensions>
          <ns3:TrackPointExtension>
            <ns3:hr>94</ns3:hr>
            <ns3:cad>0</ns3:cad>
          </ns3:TrackPointExtension>
        </extensions>
      </trkpt>
      <trkpt lat="37.7678470127284526824951171875" lon="-107.709121406078338623046875">
        <ele>3817.800048828125</ele>
        <time>2023-07-29T17:26:31.000Z</time>
        <extensions>
          <ns3:TrackPointExtension>
            <ns3:hr>94</ns3:hr>
            <ns3:cad>0</ns3:cad>
          </ns3:TrackPointExtension>
        </extensions>
      </trkpt>
      <trkpt lat="37.76783787645399570465087890625" lon="-107.709130458533763885498046875">
        <ele>3817.60009765625</ele>
        <time>2023-07-29T17:26:32.000Z</time>
        <extensions>
          <ns3:TrackPointExtension>
            <ns3:hr>94</ns3:hr>
            <ns3:cad>0</ns3:cad>
          </ns3:TrackPointExtension>
        </extensions>
      </trkpt>
      <trkpt lat="37.76782765053212642669677734375" lon="-107.70913909189403057098388671875">
        <ele>3817.60009765625</ele>
        <time>2023-07-29T17:26:33.000Z</time>
        <extensions>
          <ns3:TrackPointExtension>
            <ns3:hr>94</ns3:hr>
            <ns3:cad>0</ns3:cad>
          </ns3:TrackPointExtension>
        </extensions>
      </trkpt>
      <trkpt lat="37.76781843043863773345947265625" lon="-107.709149233996868133544921875">
        <ele>3817.39990234375</ele>
        <time>2023-07-29T17:26:34.000Z</time>
        <extensions>
          <ns3:TrackPointExtension>
            <ns3:hr>94</ns3:hr>
            <ns3:cad>56</ns3:cad>
          </ns3:TrackPointExtension>
        </extensions>
      </trkpt>
      <trkpt lat="37.767813988029956817626953125" lon="-107.709155939519405364990234375">
        <ele>3817.39990234375</ele>
        <time>2023-07-29T17:26:35.000Z</time>
        <extensions>
          <ns3:TrackPointExtension>
            <ns3:hr>94</ns3:hr>
            <ns3:cad>56</ns3:cad>
          </ns3:TrackPointExtension>
        </extensions>
      </trkpt>
      <trkpt lat="37.76780216954648494720458984375" lon="-107.70916943438351154327392578125">
        <ele>3817.39990234375</ele>
        <time>2023-07-29T17:26:36.000Z</time>
        <extensions>
          <ns3:TrackPointExtension>
            <ns3:hr>94</ns3:hr>
            <ns3:cad>56</ns3:cad>
          </ns3:TrackPointExtension>
        </extensions>
      </trkpt>
      <trkpt lat="37.767790518701076507568359375" lon="-107.70918468944728374481201171875">
        <ele>3817.199951171875</ele>
        <time>2023-07-29T17:26:37.000Z</time>
        <extensions>
          <ns3:TrackPointExtension>
            <ns3:hr>93</ns3:hr>
            <ns3:cad>56</ns3:cad>
          </ns3:TrackPointExtension>
        </extensions>
      </trkpt>
      <trkpt lat="37.7677881717681884765625" lon="-107.7091906405985355377197265625">
        <ele>3817.199951171875</ele>
        <time>2023-07-29T17:26:38.000Z</time>
        <extensions>
          <ns3:TrackPointExtension>
            <ns3:hr>93</ns3:hr>
            <ns3:cad>0</ns3:cad>
          </ns3:TrackPointExtension>
        </extensions>
      </trkpt>
      <trkpt lat="37.76778121478855609893798828125" lon="-107.709200195968151092529296875">
        <ele>3817</ele>
        <time>2023-07-29T17:26:39.000Z</time>
        <extensions>
          <ns3:TrackPointExtension>
            <ns3:hr>92</ns3:hr>
            <ns3:cad>0</ns3:cad>
          </ns3:TrackPointExtension>
        </extensions>
      </trkpt>
      <trkpt lat="37.7677719108760356903076171875" lon="-107.70921419374644756317138671875">
        <ele>3817</ele>
        <time>2023-07-29T17:26:40.000Z</time>
        <extensions>
          <ns3:TrackPointExtension>
            <ns3:hr>92</ns3:hr>
            <ns3:cad>0</ns3:cad>
          </ns3:TrackPointExtension>
        </extensions>
      </trkpt>
      <trkpt lat="37.76776227168738842010498046875" lon="-107.70922525785863399505615234375">
        <ele>3816.800048828125</ele>
        <time>2023-07-29T17:26:41.000Z</time>
        <extensions>
          <ns3:TrackPointExtension>
            <ns3:hr>91</ns3:hr>
            <ns3:cad>55</ns3:cad>
          </ns3:TrackPointExtension>
        </extensions>
      </trkpt>
      <trkpt lat="37.76775321923196315765380859375" lon="-107.709237076342105865478515625">
        <ele>3816.800048828125</ele>
        <time>2023-07-29T17:26:42.000Z</time>
        <extensions>
          <ns3:TrackPointExtension>
            <ns3:hr>91</ns3:hr>
            <ns3:cad>55</ns3:cad>
          </ns3:TrackPointExtension>
        </extensions>
      </trkpt>
      <trkpt lat="37.76774852536618709564208984375" lon="-107.709244452416896820068359375">
        <ele>3816.800048828125</ele>
        <time>2023-07-29T17:26:43.000Z</time>
        <extensions>
          <ns3:TrackPointExtension>
            <ns3:hr>91</ns3:hr>
            <ns3:cad>55</ns3:cad>
          </ns3:TrackPointExtension>
        </extensions>
      </trkpt>
      <trkpt lat="37.76774064637720584869384765625" lon="-107.709255181252956390380859375">
        <ele>3816.60009765625</ele>
        <time>2023-07-29T17:26:44.000Z</time>
        <extensions>
          <ns3:TrackPointExtension>
            <ns3:hr>90</ns3:hr>
            <ns3:cad>0</ns3:cad>
          </ns3:TrackPointExtension>
        </extensions>
      </trkpt>
      <trkpt lat="37.76773377321660518646240234375" lon="-107.70926414988934993743896484375">
        <ele>3816.39990234375</ele>
        <time>2023-07-29T17:26:45.000Z</time>
        <extensions>
          <ns3:TrackPointExtension>
            <ns3:hr>90</ns3:hr>
            <ns3:cad>0</ns3:cad>
          </ns3:TrackPointExtension>
        </extensions>
      </trkpt>
      <trkpt lat="37.76773075573146343231201171875" lon="-107.70927018485963344573974609375">
        <ele>3816.39990234375</ele>
        <time>2023-07-29T17:26:46.000Z</time>
        <extensions>
          <ns3:TrackPointExtension>
            <ns3:hr>90</ns3:hr>
            <ns3:cad>0</ns3:cad>
          </ns3:TrackPointExtension>
        </extensions>
      </trkpt>
      <trkpt lat="37.76772656477987766265869140625" lon="-107.70927823148667812347412109375">
        <ele>3816.39990234375</ele>
        <time>2023-07-29T17:26:47.000Z</time>
        <extensions>
          <ns3:TrackPointExtension>
            <ns3:hr>90</ns3:hr>
            <ns3:cad>0</ns3:cad>
          </ns3:TrackPointExtension>
        </extensions>
      </trkpt>
      <trkpt lat="37.76772069744765758514404296875" lon="-107.709287703037261962890625">
        <ele>3816.39990234375</ele>
        <time>2023-07-29T17:26:48.000Z</time>
        <extensions>
          <ns3:TrackPointExtension>
            <ns3:hr>90</ns3:hr>
            <ns3:cad>0</ns3:cad>
          </ns3:TrackPointExtension>
        </extensions>
      </trkpt>
      <trkpt lat="37.76770770549774169921875" lon="-107.70930371247231960296630859375">
        <ele>3816.39990234375</ele>
        <time>2023-07-29T17:26:49.000Z</time>
        <extensions>
          <ns3:TrackPointExtension>
            <ns3:hr>90</ns3:hr>
            <ns3:cad>0</ns3:cad>
          </ns3:TrackPointExtension>
        </extensions>
      </trkpt>
      <trkpt lat="37.76769840158522129058837890625" lon="-107.70931829698383808135986328125">
        <ele>3816.39990234375</ele>
        <time>2023-07-29T17:26:50.000Z</time>
        <extensions>
          <ns3:TrackPointExtension>
            <ns3:hr>90</ns3:hr>
            <ns3:cad>0</ns3:cad>
          </ns3:TrackPointExtension>
        </extensions>
      </trkpt>
      <trkpt lat="37.767688594758510589599609375" lon="-107.7093321271240711212158203125">
        <ele>3816.39990234375</ele>
        <time>2023-07-29T17:26:51.000Z</time>
        <extensions>
          <ns3:TrackPointExtension>
            <ns3:hr>91</ns3:hr>
            <ns3:cad>0</ns3:cad>
          </ns3:TrackPointExtension>
        </extensions>
      </trkpt>
      <trkpt lat="37.76767778210341930389404296875" lon="-107.70934327505528926849365234375">
        <ele>3816.39990234375</ele>
        <time>2023-07-29T17:26:52.000Z</time>
        <extensions>
          <ns3:TrackPointExtension>
            <ns3:hr>91</ns3:hr>
            <ns3:cad>0</ns3:cad>
          </ns3:TrackPointExtension>
        </extensions>
      </trkpt>
      <trkpt lat="37.76767023839056491851806640625" lon="-107.70934796892106533050537109375">
        <ele>3816.199951171875</ele>
        <time>2023-07-29T17:26:53.000Z</time>
        <extensions>
          <ns3:TrackPointExtension>
            <ns3:hr>92</ns3:hr>
            <ns3:cad>0</ns3:cad>
          </ns3:TrackPointExtension>
        </extensions>
      </trkpt>
      <trkpt lat="37.767654396593570709228515625" lon="-107.70936213433742523193359375">
        <ele>3816.199951171875</ele>
        <time>2023-07-29T17:26:54.000Z</time>
        <extensions>
          <ns3:TrackPointExtension>
            <ns3:hr>95</ns3:hr>
            <ns3:cad>0</ns3:cad>
          </ns3:TrackPointExtension>
        </extensions>
      </trkpt>
      <trkpt lat="37.7676428295671939849853515625" lon="-107.70937009714543819427490234375">
        <ele>3816.199951171875</ele>
        <time>2023-07-29T17:26:55.000Z</time>
        <extensions>
          <ns3:TrackPointExtension>
            <ns3:hr>97</ns3:hr>
            <ns3:cad>0</ns3:cad>
          </ns3:TrackPointExtension>
        </extensions>
      </trkpt>
      <trkpt lat="37.7676304243505001068115234375" lon="-107.7093807421624660491943359375">
        <ele>3816</ele>
        <time>2023-07-29T17:26:56.000Z</time>
        <extensions>
          <ns3:TrackPointExtension>
            <ns3:hr>98</ns3:hr>
            <ns3:cad>0</ns3:cad>
          </ns3:TrackPointExtension>
        </extensions>
      </trkpt>
      <trkpt lat="37.76762078516185283660888671875" lon="-107.70938937552273273468017578125">
        <ele>3815.800048828125</ele>
        <time>2023-07-29T17:26:57.000Z</time>
        <extensions>
          <ns3:TrackPointExtension>
            <ns3:hr>98</ns3:hr>
            <ns3:cad>0</ns3:cad>
          </ns3:TrackPointExtension>
        </extensions>
      </trkpt>
      <trkpt lat="37.7676126547157764434814453125" lon="-107.7094001881778240203857421875">
        <ele>3815.800048828125</ele>
        <time>2023-07-29T17:26:58.000Z</time>
        <extensions>
          <ns3:TrackPointExtension>
            <ns3:hr>98</ns3:hr>
            <ns3:cad>0</ns3:cad>
          </ns3:TrackPointExtension>
        </extensions>
      </trkpt>
      <trkpt lat="37.767610140144824981689453125" lon="-107.709408067166805267333984375">
        <ele>3815.800048828125</ele>
        <time>2023-07-29T17:26:59.000Z</time>
        <extensions>
          <ns3:TrackPointExtension>
            <ns3:hr>98</ns3:hr>
            <ns3:cad>0</ns3:cad>
          </ns3:TrackPointExtension>
        </extensions>
      </trkpt>
      <trkpt lat="37.76760469190776348114013671875" lon="-107.7094192989170551300048828125">
        <ele>3815.60009765625</ele>
        <time>2023-07-29T17:27:00.000Z</time>
        <extensions>
          <ns3:TrackPointExtension>
            <ns3:hr>97</ns3:hr>
            <ns3:cad>0</ns3:cad>
          </ns3:TrackPointExtension>
        </extensions>
      </trkpt>
      <trkpt lat="37.76759966276586055755615234375" lon="-107.70943262614309787750244140625">
        <ele>3815.39990234375</ele>
        <time>2023-07-29T17:27:01.000Z</time>
        <extensions>
          <ns3:TrackPointExtension>
            <ns3:hr>97</ns3:hr>
            <ns3:cad>0</ns3:cad>
          </ns3:TrackPointExtension>
        </extensions>
      </trkpt>
      <trkpt lat="37.76759631000459194183349609375" lon="-107.70944503135979175567626953125">
        <ele>3815.199951171875</ele>
        <time>2023-07-29T17:27:02.000Z</time>
        <extensions>
          <ns3:TrackPointExtension>
            <ns3:hr>97</ns3:hr>
            <ns3:cad>0</ns3:cad>
          </ns3:TrackPointExtension>
        </extensions>
      </trkpt>
      <trkpt lat="37.7675901912152767181396484375" lon="-107.70946213044226169586181640625">
        <ele>3815</ele>
        <time>2023-07-29T17:27:03.000Z</time>
        <extensions>
          <ns3:TrackPointExtension>
            <ns3:hr>97</ns3:hr>
            <ns3:cad>0</ns3:cad>
          </ns3:TrackPointExtension>
        </extensions>
      </trkpt>
      <trkpt lat="37.7675865031778812408447265625" lon="-107.70947277545928955078125">
        <ele>3815</ele>
        <time>2023-07-29T17:27:04.000Z</time>
        <extensions>
          <ns3:TrackPointExtension>
            <ns3:hr>97</ns3:hr>
            <ns3:cad>0</ns3:cad>
          </ns3:TrackPointExtension>
        </extensions>
      </trkpt>
      <trkpt lat="37.76758239604532718658447265625" lon="-107.70948593504726886749267578125">
        <ele>3814.800048828125</ele>
        <time>2023-07-29T17:27:05.000Z</time>
        <extensions>
          <ns3:TrackPointExtension>
            <ns3:hr>96</ns3:hr>
            <ns3:cad>0</ns3:cad>
          </ns3:TrackPointExtension>
        </extensions>
      </trkpt>
      <trkpt lat="37.76757736690342426300048828125" lon="-107.7094950713217258453369140625">
        <ele>3814.60009765625</ele>
        <time>2023-07-29T17:27:06.000Z</time>
        <extensions>
          <ns3:TrackPointExtension>
            <ns3:hr>97</ns3:hr>
            <ns3:cad>0</ns3:cad>
          </ns3:TrackPointExtension>
        </extensions>
      </trkpt>
      <trkpt lat="37.76756948791444301605224609375" lon="-107.709512673318386077880859375">
        <ele>3814.60009765625</ele>
        <time>2023-07-29T17:27:07.000Z</time>
        <extensions>
          <ns3:TrackPointExtension>
            <ns3:hr>97</ns3:hr>
            <ns3:cad>0</ns3:cad>
          </ns3:TrackPointExtension>
        </extensions>
      </trkpt>
      <trkpt lat="37.76755859144032001495361328125" lon="-107.70951795391738414764404296875">
        <ele>3814</ele>
        <time>2023-07-29T17:27:08.000Z</time>
        <extensions>
          <ns3:TrackPointExtension>
            <ns3:hr>97</ns3:hr>
            <ns3:cad>0</ns3:cad>
          </ns3:TrackPointExtension>
        </extensions>
      </trkpt>
      <trkpt lat="37.7675469405949115753173828125" lon="-107.7095346339046955108642578125">
        <ele>3814</ele>
        <time>2023-07-29T17:27:09.000Z</time>
        <extensions>
          <ns3:TrackPointExtension>
            <ns3:hr>97</ns3:hr>
            <ns3:cad>0</ns3:cad>
          </ns3:TrackPointExtension>
        </extensions>
      </trkpt>
      <trkpt lat="37.76753981597721576690673828125" lon="-107.7095463685691356658935546875">
        <ele>3814</ele>
        <time>2023-07-29T17:27:10.000Z</time>
        <extensions>
          <ns3:TrackPointExtension>
            <ns3:hr>97</ns3:hr>
            <ns3:cad>0</ns3:cad>
          </ns3:TrackPointExtension>
        </extensions>
      </trkpt>
      <trkpt lat="37.7675306797027587890625" lon="-107.7095607854425907135009765625">
        <ele>3814</ele>
        <time>2023-07-29T17:27:11.000Z</time>
        <extensions>
          <ns3:TrackPointExtension>
            <ns3:hr>97</ns3:hr>
            <ns3:cad>0</ns3:cad>
          </ns3:TrackPointExtension>
        </extensions>
      </trkpt>
      <trkpt lat="37.7675251476466655731201171875" lon="-107.7095698378980159759521484375">
        <ele>3813.800048828125</ele>
        <time>2023-07-29T17:27:12.000Z</time>
        <extensions>
          <ns3:TrackPointExtension>
            <ns3:hr>96</ns3:hr>
            <ns3:cad>0</ns3:cad>
          </ns3:TrackPointExtension>
        </extensions>
      </trkpt>
      <trkpt lat="37.76751802302896976470947265625" lon="-107.70957947708666324615478515625">
        <ele>3813.800048828125</ele>
        <time>2023-07-29T17:27:13.000Z</time>
        <extensions>
          <ns3:TrackPointExtension>
            <ns3:hr>95</ns3:hr>
            <ns3:cad>0</ns3:cad>
          </ns3:TrackPointExtension>
        </extensions>
      </trkpt>
      <trkpt lat="37.76751232333481311798095703125" lon="-107.709589116275310516357421875">
        <ele>3813.800048828125</ele>
        <time>2023-07-29T17:27:14.000Z</time>
        <extensions>
          <ns3:TrackPointExtension>
            <ns3:hr>95</ns3:hr>
            <ns3:cad>0</ns3:cad>
          </ns3:TrackPointExtension>
        </extensions>
      </trkpt>
      <trkpt lat="37.76750377379357814788818359375" lon="-107.7096006833016872406005859375">
        <ele>3813.60009765625</ele>
        <time>2023-07-29T17:27:15.000Z</time>
        <extensions>
          <ns3:TrackPointExtension>
            <ns3:hr>94</ns3:hr>
            <ns3:cad>0</ns3:cad>
          </ns3:TrackPointExtension>
        </extensions>
      </trkpt>
      <trkpt lat="37.76749790646135807037353515625" lon="-107.7096090652048587799072265625">
        <ele>3813.39990234375</ele>
        <time>2023-07-29T17:27:16.000Z</time>
        <extensions>
          <ns3:TrackPointExtension>
            <ns3:hr>94</ns3:hr>
            <ns3:cad>0</ns3:cad>
          </ns3:TrackPointExtension>
        </extensions>
      </trkpt>
      <trkpt lat="37.76749187149107456207275390625" lon="-107.70961560308933258056640625">
        <ele>3813.39990234375</ele>
        <time>2023-07-29T17:27:17.000Z</time>
        <extensions>
          <ns3:TrackPointExtension>
            <ns3:hr>94</ns3:hr>
            <ns3:cad>0</ns3:cad>
          </ns3:TrackPointExtension>
        </extensions>
      </trkpt>
      <trkpt lat="37.76748315431177616119384765625" lon="-107.709628008306026458740234375">
        <ele>3813.199951171875</ele>
        <time>2023-07-29T17:27:18.000Z</time>
        <extensions>
          <ns3:TrackPointExtension>
            <ns3:hr>93</ns3:hr>
            <ns3:cad>0</ns3:cad>
          </ns3:TrackPointExtension>
        </extensions>
      </trkpt>
      <trkpt lat="37.7674751915037631988525390625" lon="-107.7096352167427539825439453125">
        <ele>3813</ele>
        <time>2023-07-29T17:27:19.000Z</time>
        <extensions>
          <ns3:TrackPointExtension>
            <ns3:hr>91</ns3:hr>
            <ns3:cad>0</ns3:cad>
          </ns3:TrackPointExtension>
        </extensions>
      </trkpt>
      <trkpt lat="37.76746521703898906707763671875" lon="-107.7096429280936717987060546875">
        <ele>3813</ele>
        <time>2023-07-29T17:27:20.000Z</time>
        <extensions>
          <ns3:TrackPointExtension>
            <ns3:hr>89</ns3:hr>
            <ns3:cad>0</ns3:cad>
          </ns3:TrackPointExtension>
        </extensions>
      </trkpt>
      <trkpt lat="37.76745666749775409698486328125" lon="-107.7096486277878284454345703125">
        <ele>3812.800048828125</ele>
        <time>2023-07-29T17:27:21.000Z</time>
        <extensions>
          <ns3:TrackPointExtension>
            <ns3:hr>87</ns3:hr>
            <ns3:cad>0</ns3:cad>
          </ns3:TrackPointExtension>
        </extensions>
      </trkpt>
      <trkpt lat="37.7674436755478382110595703125" lon="-107.7096580155193805694580078125">
        <ele>3812.800048828125</ele>
        <time>2023-07-29T17:27:22.000Z</time>
        <extensions>
          <ns3:TrackPointExtension>
            <ns3:hr>86</ns3:hr>
            <ns3:cad>0</ns3:cad>
          </ns3:TrackPointExtension>
        </extensions>
      </trkpt>
      <trkpt lat="37.76743370108306407928466796875" lon="-107.70966027863323688507080078125">
        <ele>3812.60009765625</ele>
        <time>2023-07-29T17:27:23.000Z</time>
        <extensions>
          <ns3:TrackPointExtension>
            <ns3:hr>85</ns3:hr>
            <ns3:cad>0</ns3:cad>
          </ns3:TrackPointExtension>
        </extensions>
      </trkpt>
      <trkpt lat="37.76742330752313137054443359375" lon="-107.709665559232234954833984375">
        <ele>3812.60009765625</ele>
        <time>2023-07-29T17:27:24.000Z</time>
        <extensions>
          <ns3:TrackPointExtension>
            <ns3:hr>85</ns3:hr>
            <ns3:cad>0</ns3:cad>
          </ns3:TrackPointExtension>
        </extensions>
      </trkpt>
      <trkpt lat="37.76741475798189640045166015625" lon="-107.70967016927897930145263671875">
        <ele>3812.39990234375</ele>
        <time>2023-07-29T17:27:25.000Z</time>
        <extensions>
          <ns3:TrackPointExtension>
            <ns3:hr>85</ns3:hr>
            <ns3:cad>0</ns3:cad>
          </ns3:TrackPointExtension>
        </extensions>
      </trkpt>
      <trkpt lat="37.7674094773828983306884765625" lon="-107.70967251621186733245849609375">
        <ele>3812.39990234375</ele>
        <time>2023-07-29T17:27:26.000Z</time>
        <extensions>
          <ns3:TrackPointExtension>
            <ns3:hr>86</ns3:hr>
            <ns3:cad>0</ns3:cad>
          </ns3:TrackPointExtension>
        </extensions>
      </trkpt>
      <trkpt lat="37.76740386150777339935302734375" lon="-107.70967821590602397918701171875">
        <ele>3812.199951171875</ele>
        <time>2023-07-29T17:27:27.000Z</time>
        <extensions>
          <ns3:TrackPointExtension>
            <ns3:hr>87</ns3:hr>
            <ns3:cad>0</ns3:cad>
          </ns3:TrackPointExtension>
        </extensions>
      </trkpt>
      <trkpt lat="37.7674032747745513916015625" lon="-107.70968005992472171783447265625">
        <ele>3812.199951171875</ele>
        <time>2023-07-29T17:27:28.000Z</time>
        <extensions>
          <ns3:TrackPointExtension>
            <ns3:hr>88</ns3:hr>
            <ns3:cad>0</ns3:cad>
          </ns3:TrackPointExtension>
        </extensions>
      </trkpt>
      <trkpt lat="37.7674005925655364990234375" lon="-107.70968802273273468017578125">
        <ele>3812</ele>
        <time>2023-07-29T17:27:29.000Z</time>
        <extensions>
          <ns3:TrackPointExtension>
            <ns3:hr>88</ns3:hr>
            <ns3:cad>0</ns3:cad>
          </ns3:TrackPointExtension>
        </extensions>
      </trkpt>
      <trkpt lat="37.76740017347037792205810546875" lon="-107.70969497971236705780029296875">
        <ele>3811.800048828125</ele>
        <time>2023-07-29T17:27:30.000Z</time>
        <extensions>
          <ns3:TrackPointExtension>
            <ns3:hr>88</ns3:hr>
            <ns3:cad>0</ns3:cad>
          </ns3:TrackPointExtension>
        </extensions>
      </trkpt>
      <trkpt lat="37.7673957310616970062255859375" lon="-107.70970545709133148193359375">
        <ele>3811.800048828125</ele>
        <time>2023-07-29T17:27:31.000Z</time>
        <extensions>
          <ns3:TrackPointExtension>
            <ns3:hr>89</ns3:hr>
            <ns3:cad>0</ns3:cad>
          </ns3:TrackPointExtension>
        </extensions>
      </trkpt>
      <trkpt lat="37.76739363558590412139892578125" lon="-107.70971291698515415191650390625">
        <ele>3811.800048828125</ele>
        <time>2023-07-29T17:27:32.000Z</time>
        <extensions>
          <ns3:TrackPointExtension>
            <ns3:hr>89</ns3:hr>
            <ns3:cad>0</ns3:cad>
          </ns3:TrackPointExtension>
        </extensions>
      </trkpt>
      <trkpt lat="37.7673907019197940826416015625" lon="-107.70972280763089656829833984375">
        <ele>3811.60009765625</ele>
        <time>2023-07-29T17:27:33.000Z</time>
        <extensions>
          <ns3:TrackPointExtension>
            <ns3:hr>89</ns3:hr>
            <ns3:cad>0</ns3:cad>
          </ns3:TrackPointExtension>
        </extensions>
      </trkpt>
      <trkpt lat="37.7673917077481746673583984375" lon="-107.7097290940582752227783203125">
        <ele>3811.39990234375</ele>
        <time>2023-07-29T17:27:34.000Z</time>
        <extensions>
          <ns3:TrackPointExtension>
            <ns3:hr>90</ns3:hr>
            <ns3:cad>0</ns3:cad>
          </ns3:TrackPointExtension>
        </extensions>
      </trkpt>
      <trkpt lat="37.76739564724266529083251953125" lon="-107.7097316086292266845703125">
        <ele>3811.39990234375</ele>
        <time>2023-07-29T17:27:35.000Z</time>
        <extensions>
          <ns3:TrackPointExtension>
            <ns3:hr>90</ns3:hr>
            <ns3:cad>61</ns3:cad>
          </ns3:TrackPointExtension>
        </extensions>
      </trkpt>
      <trkpt lat="37.7673970721662044525146484375" lon="-107.709731273353099822998046875">
        <ele>3811.199951171875</ele>
        <time>2023-07-29T17:27:36.000Z</time>
        <extensions>
          <ns3:TrackPointExtension>
            <ns3:hr>90</ns3:hr>
            <ns3:cad>62</ns3:cad>
          </ns3:TrackPointExtension>
        </extensions>
      </trkpt>
      <trkpt lat="37.76739321649074554443359375" lon="-107.7097316086292266845703125">
        <ele>3811</ele>
        <time>2023-07-29T17:27:37.000Z</time>
        <extensions>
          <ns3:TrackPointExtension>
            <ns3:hr>90</ns3:hr>
            <ns3:cad>62</ns3:cad>
          </ns3:TrackPointExtension>
        </extensions>
      </trkpt>
      <trkpt lat="37.7673853375017642974853515625" lon="-107.70973772741854190826416015625">
        <ele>3811</ele>
        <time>2023-07-29T17:27:38.000Z</time>
        <extensions>
          <ns3:TrackPointExtension>
            <ns3:hr>90</ns3:hr>
            <ns3:cad>0</ns3:cad>
          </ns3:TrackPointExtension>
        </extensions>
      </trkpt>
      <trkpt lat="37.76737603358924388885498046875" lon="-107.7097465284168720245361328125">
        <ele>3810.800048828125</ele>
        <time>2023-07-29T17:27:39.000Z</time>
        <extensions>
          <ns3:TrackPointExtension>
            <ns3:hr>90</ns3:hr>
            <ns3:cad>0</ns3:cad>
          </ns3:TrackPointExtension>
        </extensions>
      </trkpt>
      <trkpt lat="37.767368741333484649658203125" lon="-107.70974879153072834014892578125">
        <ele>3810.800048828125</ele>
        <time>2023-07-29T17:27:40.000Z</time>
        <extensions>
          <ns3:TrackPointExtension>
            <ns3:hr>90</ns3:hr>
            <ns3:cad>0</ns3:cad>
          </ns3:TrackPointExtension>
        </extensions>
      </trkpt>
      <trkpt lat="37.76736346073448657989501953125" lon="-107.70974929444491863250732421875">
        <ele>3810.800048828125</ele>
        <time>2023-07-29T17:27:41.000Z</time>
        <extensions>
          <ns3:TrackPointExtension>
            <ns3:hr>90</ns3:hr>
            <ns3:cad>0</ns3:cad>
          </ns3:TrackPointExtension>
        </extensions>
      </trkpt>
      <trkpt lat="37.76736228726804256439208984375" lon="-107.70975130610167980194091796875">
        <ele>3810.800048828125</ele>
        <time>2023-07-29T17:27:42.000Z</time>
        <extensions>
          <ns3:TrackPointExtension>
            <ns3:hr>90</ns3:hr>
            <ns3:cad>0</ns3:cad>
          </ns3:TrackPointExtension>
        </extensions>
      </trkpt>
      <trkpt lat="37.76735675521194934844970703125" lon="-107.7097575925290584564208984375">
        <ele>3810.800048828125</ele>
        <time>2023-07-29T17:27:43.000Z</time>
        <extensions>
          <ns3:TrackPointExtension>
            <ns3:hr>90</ns3:hr>
            <ns3:cad>0</ns3:cad>
          </ns3:TrackPointExtension>
        </extensions>
      </trkpt>
      <trkpt lat="37.76735298335552215576171875" lon="-107.709764800965785980224609375">
        <ele>3810.60009765625</ele>
        <time>2023-07-29T17:27:44.000Z</time>
        <extensions>
          <ns3:TrackPointExtension>
            <ns3:hr>90</ns3:hr>
            <ns3:cad>0</ns3:cad>
          </ns3:TrackPointExtension>
        </extensions>
      </trkpt>
      <trkpt lat="37.76735139079391956329345703125" lon="-107.709772847592830657958984375">
        <ele>3810.39990234375</ele>
        <time>2023-07-29T17:27:45.000Z</time>
        <extensions>
          <ns3:TrackPointExtension>
            <ns3:hr>90</ns3:hr>
            <ns3:cad>0</ns3:cad>
          </ns3:TrackPointExtension>
        </extensions>
      </trkpt>
      <trkpt lat="37.76734937913715839385986328125" lon="-107.709784246981143951416015625">
        <ele>3810</ele>
        <time>2023-07-29T17:27:46.000Z</time>
        <extensions>
          <ns3:TrackPointExtension>
            <ns3:hr>90</ns3:hr>
            <ns3:cad>0</ns3:cad>
          </ns3:TrackPointExtension>
        </extensions>
      </trkpt>
      <trkpt lat="37.76734954677522182464599609375" lon="-107.709798999130725860595703125">
        <ele>3809.800048828125</ele>
        <time>2023-07-29T17:27:47.000Z</time>
        <extensions>
          <ns3:TrackPointExtension>
            <ns3:hr>90</ns3:hr>
            <ns3:cad>0</ns3:cad>
          </ns3:TrackPointExtension>
        </extensions>
      </trkpt>
      <trkpt lat="37.76734870858490467071533203125" lon="-107.70981064997613430023193359375">
        <ele>3809.60009765625</ele>
        <time>2023-07-29T17:27:48.000Z</time>
        <extensions>
          <ns3:TrackPointExtension>
            <ns3:hr>90</ns3:hr>
            <ns3:cad>0</ns3:cad>
          </ns3:TrackPointExtension>
        </extensions>
      </trkpt>
      <trkpt lat="37.7673471160233020782470703125" lon="-107.7098219655454158782958984375">
        <ele>3809.199951171875</ele>
        <time>2023-07-29T17:27:49.000Z</time>
        <extensions>
          <ns3:TrackPointExtension>
            <ns3:hr>90</ns3:hr>
            <ns3:cad>0</ns3:cad>
          </ns3:TrackPointExtension>
        </extensions>
      </trkpt>
      <trkpt lat="37.76734359562397003173828125" lon="-107.7098333649337291717529296875">
        <ele>3809.199951171875</ele>
        <time>2023-07-29T17:27:50.000Z</time>
        <extensions>
          <ns3:TrackPointExtension>
            <ns3:hr>90</ns3:hr>
            <ns3:cad>19</ns3:cad>
          </ns3:TrackPointExtension>
        </extensions>
      </trkpt>
      <trkpt lat="37.7673400752246379852294921875" lon="-107.70984535105526447296142578125">
        <ele>3809.199951171875</ele>
        <time>2023-07-29T17:27:51.000Z</time>
        <extensions>
          <ns3:TrackPointExtension>
            <ns3:hr>90</ns3:hr>
            <ns3:cad>19</ns3:cad>
          </ns3:TrackPointExtension>
        </extensions>
      </trkpt>
      <trkpt lat="37.7673357166349887847900390625" lon="-107.709858678281307220458984375">
        <ele>3809</ele>
        <time>2023-07-29T17:27:52.000Z</time>
        <extensions>
          <ns3:TrackPointExtension>
            <ns3:hr>90</ns3:hr>
            <ns3:cad>19</ns3:cad>
          </ns3:TrackPointExtension>
        </extensions>
      </trkpt>
      <trkpt lat="37.7673316933214664459228515625" lon="-107.7098684012889862060546875">
        <ele>3808.60009765625</ele>
        <time>2023-07-29T17:27:53.000Z</time>
        <extensions>
          <ns3:TrackPointExtension>
            <ns3:hr>90</ns3:hr>
            <ns3:cad>19</ns3:cad>
          </ns3:TrackPointExtension>
        </extensions>
      </trkpt>
      <trkpt lat="37.76732674799859523773193359375" lon="-107.70987602882087230682373046875">
        <ele>3808.199951171875</ele>
        <time>2023-07-29T17:27:54.000Z</time>
        <extensions>
          <ns3:TrackPointExtension>
            <ns3:hr>89</ns3:hr>
            <ns3:cad>0</ns3:cad>
          </ns3:TrackPointExtension>
        </extensions>
      </trkpt>
      <trkpt lat="37.76732155121862888336181640625" lon="-107.709881477057933807373046875">
        <ele>3808.199951171875</ele>
        <time>2023-07-29T17:27:55.000Z</time>
        <extensions>
          <ns3:TrackPointExtension>
            <ns3:hr>89</ns3:hr>
            <ns3:cad>0</ns3:cad>
          </ns3:TrackPointExtension>
        </extensions>
      </trkpt>
      <trkpt lat="37.767318449914455413818359375" lon="-107.70988910458981990814208984375">
        <ele>3808</ele>
        <time>2023-07-29T17:27:56.000Z</time>
        <extensions>
          <ns3:TrackPointExtension>
            <ns3:hr>89</ns3:hr>
            <ns3:cad>0</ns3:cad>
          </ns3:TrackPointExtension>
        </extensions>
      </trkpt>
      <trkpt lat="37.767313420772552490234375" lon="-107.709900252521038055419921875">
        <ele>3807.60009765625</ele>
        <time>2023-07-29T17:27:57.000Z</time>
        <extensions>
          <ns3:TrackPointExtension>
            <ns3:hr>89</ns3:hr>
            <ns3:cad>0</ns3:cad>
          </ns3:TrackPointExtension>
        </extensions>
      </trkpt>
      <trkpt lat="37.7673088945448398590087890625" lon="-107.70990687422454357147216796875">
        <ele>3807.39990234375</ele>
        <time>2023-07-29T17:27:58.000Z</time>
        <extensions>
          <ns3:TrackPointExtension>
            <ns3:hr>89</ns3:hr>
            <ns3:cad>0</ns3:cad>
          </ns3:TrackPointExtension>
        </extensions>
      </trkpt>
      <trkpt lat="37.76730512268841266632080078125" lon="-107.70991609431803226470947265625">
        <ele>3807.199951171875</ele>
        <time>2023-07-29T17:27:59.000Z</time>
        <extensions>
          <ns3:TrackPointExtension>
            <ns3:hr>89</ns3:hr>
            <ns3:cad>0</ns3:cad>
          </ns3:TrackPointExtension>
        </extensions>
      </trkpt>
      <trkpt lat="37.7673018537461757659912109375" lon="-107.7099285833537578582763671875">
        <ele>3807</ele>
        <time>2023-07-29T17:28:00.000Z</time>
        <extensions>
          <ns3:TrackPointExtension>
            <ns3:hr>89</ns3:hr>
            <ns3:cad>0</ns3:cad>
          </ns3:TrackPointExtension>
        </extensions>
      </trkpt>
      <trkpt lat="37.7672998420894145965576171875" lon="-107.709934450685977935791015625">
        <ele>3806.60009765625</ele>
        <time>2023-07-29T17:28:01.000Z</time>
        <extensions>
          <ns3:TrackPointExtension>
            <ns3:hr>89</ns3:hr>
            <ns3:cad>0</ns3:cad>
          </ns3:TrackPointExtension>
        </extensions>
      </trkpt>
      <trkpt lat="37.767294310033321380615234375" lon="-107.7099547348916530609130859375">
        <ele>3806.39990234375</ele>
        <time>2023-07-29T17:28:02.000Z</time>
        <extensions>
          <ns3:TrackPointExtension>
            <ns3:hr>89</ns3:hr>
            <ns3:cad>0</ns3:cad>
          </ns3:TrackPointExtension>
        </extensions>
      </trkpt>
      <trkpt lat="37.7672934718430042266845703125" lon="-107.7099611051380634307861328125">
        <ele>3806</ele>
        <time>2023-07-29T17:28:03.000Z</time>
        <extensions>
          <ns3:TrackPointExtension>
            <ns3:hr>89</ns3:hr>
            <ns3:cad>0</ns3:cad>
          </ns3:TrackPointExtension>
        </extensions>
      </trkpt>
      <trkpt lat="37.76729120872914791107177734375" lon="-107.70996890030801296234130859375">
        <ele>3805.800048828125</ele>
        <time>2023-07-29T17:28:04.000Z</time>
        <extensions>
          <ns3:TrackPointExtension>
            <ns3:hr>89</ns3:hr>
            <ns3:cad>0</ns3:cad>
          </ns3:TrackPointExtension>
        </extensions>
      </trkpt>
      <trkpt lat="37.7672884427011013031005859375" lon="-107.7099859155714511871337890625">
        <ele>3805.60009765625</ele>
        <time>2023-07-29T17:28:05.000Z</time>
        <extensions>
          <ns3:TrackPointExtension>
            <ns3:hr>89</ns3:hr>
            <ns3:cad>0</ns3:cad>
          </ns3:TrackPointExtension>
        </extensions>
      </trkpt>
      <trkpt lat="37.767288945615291595458984375" lon="-107.7099919505417346954345703125">
        <ele>3805.39990234375</ele>
        <time>2023-07-29T17:28:06.000Z</time>
        <extensions>
          <ns3:TrackPointExtension>
            <ns3:hr>89</ns3:hr>
            <ns3:cad>0</ns3:cad>
          </ns3:TrackPointExtension>
        </extensions>
      </trkpt>
      <trkpt lat="37.76728886179625988006591796875" lon="-107.7099976502358913421630859375">
        <ele>3805.199951171875</ele>
        <time>2023-07-29T17:28:07.000Z</time>
        <extensions>
          <ns3:TrackPointExtension>
            <ns3:hr>89</ns3:hr>
            <ns3:cad>0</ns3:cad>
          </ns3:TrackPointExtension>
        </extensions>
      </trkpt>
      <trkpt lat="37.7672881074249744415283203125" lon="-107.71000410430133342742919921875">
        <ele>3804.800048828125</ele>
        <time>2023-07-29T17:28:08.000Z</time>
        <extensions>
          <ns3:TrackPointExtension>
            <ns3:hr>89</ns3:hr>
            <ns3:cad>0</ns3:cad>
          </ns3:TrackPointExtension>
        </extensions>
      </trkpt>
      <trkpt lat="37.7672864310443401336669921875" lon="-107.7100097201764583587646484375">
        <ele>3804.60009765625</ele>
        <time>2023-07-29T17:28:09.000Z</time>
        <extensions>
          <ns3:TrackPointExtension>
            <ns3:hr>89</ns3:hr>
            <ns3:cad>0</ns3:cad>
          </ns3:TrackPointExtension>
        </extensions>
      </trkpt>
      <trkpt lat="37.76728098280727863311767578125" lon="-107.7100194431841373443603515625">
        <ele>3804.39990234375</ele>
        <time>2023-07-29T17:28:10.000Z</time>
        <extensions>
          <ns3:TrackPointExtension>
            <ns3:hr>89</ns3:hr>
            <ns3:cad>0</ns3:cad>
          </ns3:TrackPointExtension>
        </extensions>
      </trkpt>
      <trkpt lat="37.76727461256086826324462890625" lon="-107.71002992056310176849365234375">
        <ele>3804</ele>
        <time>2023-07-29T17:28:11.000Z</time>
        <extensions>
          <ns3:TrackPointExtension>
            <ns3:hr>89</ns3:hr>
            <ns3:cad>0</ns3:cad>
          </ns3:TrackPointExtension>
        </extensions>
      </trkpt>
      <trkpt lat="37.76726757176220417022705078125" lon="-107.71003444679081439971923828125">
        <ele>3804</ele>
        <time>2023-07-29T17:28:12.000Z</time>
        <extensions>
          <ns3:TrackPointExtension>
            <ns3:hr>89</ns3:hr>
            <ns3:cad>0</ns3:cad>
          </ns3:TrackPointExtension>
        </extensions>
      </trkpt>
      <trkpt lat="37.76726136915385723114013671875" lon="-107.71004366688430309295654296875">
        <ele>3803.800048828125</ele>
        <time>2023-07-29T17:28:13.000Z</time>
        <extensions>
          <ns3:TrackPointExtension>
            <ns3:hr>89</ns3:hr>
            <ns3:cad>0</ns3:cad>
          </ns3:TrackPointExtension>
        </extensions>
      </trkpt>
      <trkpt lat="37.76725214906036853790283203125" lon="-107.71004785783588886260986328125">
        <ele>3803.60009765625</ele>
        <time>2023-07-29T17:28:14.000Z</time>
        <extensions>
          <ns3:TrackPointExtension>
            <ns3:hr>89</ns3:hr>
            <ns3:cad>0</ns3:cad>
          </ns3:TrackPointExtension>
        </extensions>
      </trkpt>
      <trkpt lat="37.7672435157001018524169921875" lon="-107.7100539766252040863037109375">
        <ele>3803.39990234375</ele>
        <time>2023-07-29T17:28:15.000Z</time>
        <extensions>
          <ns3:TrackPointExtension>
            <ns3:hr>89</ns3:hr>
            <ns3:cad>0</ns3:cad>
          </ns3:TrackPointExtension>
        </extensions>
      </trkpt>
      <trkpt lat="37.76723337359726428985595703125" lon="-107.710061855614185333251953125">
        <ele>3803.199951171875</ele>
        <time>2023-07-29T17:28:16.000Z</time>
        <extensions>
          <ns3:TrackPointExtension>
            <ns3:hr>90</ns3:hr>
            <ns3:cad>0</ns3:cad>
          </ns3:TrackPointExtension>
        </extensions>
      </trkpt>
      <trkpt lat="37.7672294341027736663818359375" lon="-107.7100642025470733642578125">
        <ele>3803</ele>
        <time>2023-07-29T17:28:17.000Z</time>
        <extensions>
          <ns3:TrackPointExtension>
            <ns3:hr>91</ns3:hr>
            <ns3:cad>0</ns3:cad>
          </ns3:TrackPointExtension>
        </extensions>
      </trkpt>
      <trkpt lat="37.7672240696847438812255859375" lon="-107.71007266826927661895751953125">
        <ele>3802.60009765625</ele>
        <time>2023-07-29T17:28:18.000Z</time>
        <extensions>
          <ns3:TrackPointExtension>
            <ns3:hr>92</ns3:hr>
            <ns3:cad>0</ns3:cad>
          </ns3:TrackPointExtension>
        </extensions>
      </trkpt>
      <trkpt lat="37.7672227285802364349365234375" lon="-107.71007702685892581939697265625">
        <ele>3802.39990234375</ele>
        <time>2023-07-29T17:28:19.000Z</time>
        <extensions>
          <ns3:TrackPointExtension>
            <ns3:hr>92</ns3:hr>
            <ns3:cad>0</ns3:cad>
          </ns3:TrackPointExtension>
        </extensions>
      </trkpt>
      <trkpt lat="37.76721878908574581146240234375" lon="-107.710081972181797027587890625">
        <ele>3802.199951171875</ele>
        <time>2023-07-29T17:28:20.000Z</time>
        <extensions>
          <ns3:TrackPointExtension>
            <ns3:hr>93</ns3:hr>
            <ns3:cad>0</ns3:cad>
          </ns3:TrackPointExtension>
        </extensions>
      </trkpt>
      <trkpt lat="37.767212502658367156982421875" lon="-107.71008767187595367431640625">
        <ele>3802.199951171875</ele>
        <time>2023-07-29T17:28:21.000Z</time>
        <extensions>
          <ns3:TrackPointExtension>
            <ns3:hr>93</ns3:hr>
            <ns3:cad>0</ns3:cad>
          </ns3:TrackPointExtension>
        </extensions>
      </trkpt>
      <trkpt lat="37.7672086469829082489013671875" lon="-107.710090689361095428466796875">
        <ele>3801.800048828125</ele>
        <time>2023-07-29T17:28:22.000Z</time>
        <extensions>
          <ns3:TrackPointExtension>
            <ns3:hr>93</ns3:hr>
            <ns3:cad>0</ns3:cad>
          </ns3:TrackPointExtension>
        </extensions>
      </trkpt>
      <trkpt lat="37.767207808792591094970703125" lon="-107.71009379066526889801025390625">
        <ele>3801.60009765625</ele>
        <time>2023-07-29T17:28:23.000Z</time>
        <extensions>
          <ns3:TrackPointExtension>
            <ns3:hr>93</ns3:hr>
            <ns3:cad>0</ns3:cad>
          </ns3:TrackPointExtension>
        </extensions>
      </trkpt>
      <trkpt lat="37.76720252819359302520751953125" lon="-107.7100992389023303985595703125">
        <ele>3801.60009765625</ele>
        <time>2023-07-29T17:28:24.000Z</time>
        <extensions>
          <ns3:TrackPointExtension>
            <ns3:hr>94</ns3:hr>
            <ns3:cad>0</ns3:cad>
          </ns3:TrackPointExtension>
        </extensions>
      </trkpt>
      <trkpt lat="37.76719850488007068634033203125" lon="-107.7101019211113452911376953125">
        <ele>3801.60009765625</ele>
        <time>2023-07-29T17:28:25.000Z</time>
        <extensions>
          <ns3:TrackPointExtension>
            <ns3:hr>94</ns3:hr>
            <ns3:cad>0</ns3:cad>
          </ns3:TrackPointExtension>
        </extensions>
      </trkpt>
      <trkpt lat="37.7671955712139606475830078125" lon="-107.71010778844356536865234375">
        <ele>3801.39990234375</ele>
        <time>2023-07-29T17:28:26.000Z</time>
        <extensions>
          <ns3:TrackPointExtension>
            <ns3:hr>94</ns3:hr>
            <ns3:cad>0</ns3:cad>
          </ns3:TrackPointExtension>
        </extensions>
      </trkpt>
      <trkpt lat="37.7671905420720577239990234375" lon="-107.7101106382906436920166015625">
        <ele>3801.39990234375</ele>
        <time>2023-07-29T17:28:27.000Z</time>
        <extensions>
          <ns3:TrackPointExtension>
            <ns3:hr>94</ns3:hr>
            <ns3:cad>0</ns3:cad>
          </ns3:TrackPointExtension>
        </extensions>
      </trkpt>
      <trkpt lat="37.7671848423779010772705078125" lon="-107.7101139910519123077392578125">
        <ele>3801.199951171875</ele>
        <time>2023-07-29T17:28:28.000Z</time>
        <extensions>
          <ns3:TrackPointExtension>
            <ns3:hr>94</ns3:hr>
            <ns3:cad>0</ns3:cad>
          </ns3:TrackPointExtension>
        </extensions>
      </trkpt>
      <trkpt lat="37.76718257926404476165771484375" lon="-107.710114829242229461669921875">
        <ele>3801</ele>
        <time>2023-07-29T17:28:29.000Z</time>
        <extensions>
          <ns3:TrackPointExtension>
            <ns3:hr>94</ns3:hr>
            <ns3:cad>0</ns3:cad>
          </ns3:TrackPointExtension>
        </extensions>
      </trkpt>
      <trkpt lat="37.767179310321807861328125" lon="-107.71011449396610260009765625">
        <ele>3801</ele>
        <time>2023-07-29T17:28:30.000Z</time>
        <extensions>
          <ns3:TrackPointExtension>
            <ns3:hr>93</ns3:hr>
            <ns3:cad>0</ns3:cad>
          </ns3:TrackPointExtension>
        </extensions>
      </trkpt>
      <trkpt lat="37.76717168278992176055908203125" lon="-107.71011508069932460784912109375">
        <ele>3800.800048828125</ele>
        <time>2023-07-29T17:28:31.000Z</time>
        <extensions>
          <ns3:TrackPointExtension>
            <ns3:hr>94</ns3:hr>
            <ns3:cad>69</ns3:cad>
          </ns3:TrackPointExtension>
        </extensions>
      </trkpt>
      <trkpt lat="37.767162881791591644287109375" lon="-107.7101183496415615081787109375">
        <ele>3800.800048828125</ele>
        <time>2023-07-29T17:28:32.000Z</time>
        <extensions>
          <ns3:TrackPointExtension>
            <ns3:hr>94</ns3:hr>
            <ns3:cad>69</ns3:cad>
          </ns3:TrackPointExtension>
        </extensions>
      </trkpt>
      <trkpt lat="37.76715324260294437408447265625" lon="-107.7101213671267032623291015625">
        <ele>3800.800048828125</ele>
        <time>2023-07-29T17:28:33.000Z</time>
        <extensions>
          <ns3:TrackPointExtension>
            <ns3:hr>94</ns3:hr>
            <ns3:cad>69</ns3:cad>
          </ns3:TrackPointExtension>
        </extensions>
      </trkpt>
      <trkpt lat="37.76714569889008998870849609375" lon="-107.71012262441217899322509765625">
        <ele>3800.60009765625</ele>
        <time>2023-07-29T17:28:34.000Z</time>
        <extensions>
          <ns3:TrackPointExtension>
            <ns3:hr>94</ns3:hr>
            <ns3:cad>79</ns3:cad>
          </ns3:TrackPointExtension>
        </extensions>
      </trkpt>
      <trkpt lat="37.7671368978917598724365234375" lon="-107.71012262441217899322509765625">
        <ele>3800.60009765625</ele>
        <time>2023-07-29T17:28:35.000Z</time>
        <extensions>
          <ns3:TrackPointExtension>
            <ns3:hr>94</ns3:hr>
            <ns3:cad>79</ns3:cad>
          </ns3:TrackPointExtension>
        </extensions>
      </trkpt>
      <trkpt lat="37.7671301923692226409912109375" lon="-107.7101223729550838470458984375">
        <ele>3800.60009765625</ele>
        <time>2023-07-29T17:28:36.000Z</time>
        <extensions>
          <ns3:TrackPointExtension>
            <ns3:hr>94</ns3:hr>
            <ns3:cad>0</ns3:cad>
          </ns3:TrackPointExtension>
        </extensions>
      </trkpt>
      <trkpt lat="37.767121978104114532470703125" lon="-107.71012044511735439300537109375">
        <ele>3800.199951171875</ele>
        <time>2023-07-29T17:28:37.000Z</time>
        <extensions>
          <ns3:TrackPointExtension>
            <ns3:hr>94</ns3:hr>
            <ns3:cad>0</ns3:cad>
          </ns3:TrackPointExtension>
        </extensions>
      </trkpt>
      <trkpt lat="37.7671144343912601470947265625" lon="-107.71012178622186183929443359375">
        <ele>3800.199951171875</ele>
        <time>2023-07-29T17:28:38.000Z</time>
        <extensions>
          <ns3:TrackPointExtension>
            <ns3:hr>94</ns3:hr>
            <ns3:cad>0</ns3:cad>
          </ns3:TrackPointExtension>
        </extensions>
      </trkpt>
      <trkpt lat="37.76710479520261287689208984375" lon="-107.71012262441217899322509765625">
        <ele>3800</ele>
        <time>2023-07-29T17:28:39.000Z</time>
        <extensions>
          <ns3:TrackPointExtension>
            <ns3:hr>94</ns3:hr>
            <ns3:cad>0</ns3:cad>
          </ns3:TrackPointExtension>
        </extensions>
      </trkpt>
      <trkpt lat="37.76709624566137790679931640625" lon="-107.7101217024028301239013671875">
        <ele>3800</ele>
        <time>2023-07-29T17:28:40.000Z</time>
        <extensions>
          <ns3:TrackPointExtension>
            <ns3:hr>94</ns3:hr>
            <ns3:cad>0</ns3:cad>
          </ns3:TrackPointExtension>
        </extensions>
      </trkpt>
      <trkpt lat="37.76708610355854034423828125" lon="-107.7101203612983226776123046875">
        <ele>3800</ele>
        <time>2023-07-29T17:28:41.000Z</time>
        <extensions>
          <ns3:TrackPointExtension>
            <ns3:hr>94</ns3:hr>
            <ns3:cad>0</ns3:cad>
          </ns3:TrackPointExtension>
        </extensions>
      </trkpt>
      <trkpt lat="37.7670752070844173431396484375" lon="-107.71012128330767154693603515625">
        <ele>3799.800048828125</ele>
        <time>2023-07-29T17:28:42.000Z</time>
        <extensions>
          <ns3:TrackPointExtension>
            <ns3:hr>94</ns3:hr>
            <ns3:cad>0</ns3:cad>
          </ns3:TrackPointExtension>
        </extensions>
      </trkpt>
      <trkpt lat="37.76706623844802379608154296875" lon="-107.71012119948863983154296875">
        <ele>3799.800048828125</ele>
        <time>2023-07-29T17:28:43.000Z</time>
        <extensions>
          <ns3:TrackPointExtension>
            <ns3:hr>93</ns3:hr>
            <ns3:cad>0</ns3:cad>
          </ns3:TrackPointExtension>
        </extensions>
      </trkpt>
      <trkpt lat="37.76705928146839141845703125" lon="-107.71012128330767154693603515625">
        <ele>3799.800048828125</ele>
        <time>2023-07-29T17:28:44.000Z</time>
        <extensions>
          <ns3:TrackPointExtension>
            <ns3:hr>93</ns3:hr>
            <ns3:cad>0</ns3:cad>
          </ns3:TrackPointExtension>
        </extensions>
      </trkpt>
      <trkpt lat="37.76705131866037845611572265625" lon="-107.710122205317020416259765625">
        <ele>3799.800048828125</ele>
        <time>2023-07-29T17:28:45.000Z</time>
        <extensions>
          <ns3:TrackPointExtension>
            <ns3:hr>93</ns3:hr>
            <ns3:cad>0</ns3:cad>
          </ns3:TrackPointExtension>
        </extensions>
      </trkpt>
      <trkpt lat="37.76704343967139720916748046875" lon="-107.7101227082312107086181640625">
        <ele>3799.39990234375</ele>
        <time>2023-07-29T17:28:46.000Z</time>
        <extensions>
          <ns3:TrackPointExtension>
            <ns3:hr>93</ns3:hr>
            <ns3:cad>0</ns3:cad>
          </ns3:TrackPointExtension>
        </extensions>
      </trkpt>
      <trkpt lat="37.7670369856059551239013671875" lon="-107.71012396551668643951416015625">
        <ele>3799.39990234375</ele>
        <time>2023-07-29T17:28:47.000Z</time>
        <extensions>
          <ns3:TrackPointExtension>
            <ns3:hr>93</ns3:hr>
            <ns3:cad>0</ns3:cad>
          </ns3:TrackPointExtension>
        </extensions>
      </trkpt>
      <trkpt lat="37.767026424407958984375" lon="-107.71012698300182819366455078125">
        <ele>3799.199951171875</ele>
        <time>2023-07-29T17:28:48.000Z</time>
        <extensions>
          <ns3:TrackPointExtension>
            <ns3:hr>93</ns3:hr>
            <ns3:cad>0</ns3:cad>
          </ns3:TrackPointExtension>
        </extensions>
      </trkpt>
      <trkpt lat="37.76702399365603923797607421875" lon="-107.710129581391811370849609375">
        <ele>3799.199951171875</ele>
        <time>2023-07-29T17:28:49.000Z</time>
        <extensions>
          <ns3:TrackPointExtension>
            <ns3:hr>92</ns3:hr>
            <ns3:cad>0</ns3:cad>
          </ns3:TrackPointExtension>
        </extensions>
      </trkpt>
      <trkpt lat="37.7670155279338359832763671875" lon="-107.71013117395341396331787109375">
        <ele>3799</ele>
        <time>2023-07-29T17:28:50.000Z</time>
        <extensions>
          <ns3:TrackPointExtension>
            <ns3:hr>92</ns3:hr>
            <ns3:cad>0</ns3:cad>
          </ns3:TrackPointExtension>
        </extensions>
      </trkpt>
      <trkpt lat="37.767003290355205535888671875" lon="-107.7101310901343822479248046875">
        <ele>3798.60009765625</ele>
        <time>2023-07-29T17:28:51.000Z</time>
        <extensions>
          <ns3:TrackPointExtension>
            <ns3:hr>92</ns3:hr>
            <ns3:cad>0</ns3:cad>
          </ns3:TrackPointExtension>
        </extensions>
      </trkpt>
      <trkpt lat="37.76699130423367023468017578125" lon="-107.7101285755634307861328125">
        <ele>3798.60009765625</ele>
        <time>2023-07-29T17:28:52.000Z</time>
        <extensions>
          <ns3:TrackPointExtension>
            <ns3:hr>92</ns3:hr>
            <ns3:cad>0</ns3:cad>
          </ns3:TrackPointExtension>
        </extensions>
      </trkpt>
      <trkpt lat="37.766985855996608734130859375" lon="-107.7101263962686061859130859375">
        <ele>3798.60009765625</ele>
        <time>2023-07-29T17:28:53.000Z</time>
        <extensions>
          <ns3:TrackPointExtension>
            <ns3:hr>92</ns3:hr>
            <ns3:cad>0</ns3:cad>
          </ns3:TrackPointExtension>
        </extensions>
      </trkpt>
      <trkpt lat="37.76698015630245208740234375" lon="-107.7101253904402256011962890625">
        <ele>3798.60009765625</ele>
        <time>2023-07-29T17:28:54.000Z</time>
        <extensions>
          <ns3:TrackPointExtension>
            <ns3:hr>93</ns3:hr>
            <ns3:cad>0</ns3:cad>
          </ns3:TrackPointExtension>
        </extensions>
      </trkpt>
      <trkpt lat="37.766975127160549163818359375" lon="-107.7101243846118450164794921875">
        <ele>3798.199951171875</ele>
        <time>2023-07-29T17:28:55.000Z</time>
        <extensions>
          <ns3:TrackPointExtension>
            <ns3:hr>92</ns3:hr>
            <ns3:cad>0</ns3:cad>
          </ns3:TrackPointExtension>
        </extensions>
      </trkpt>
      <trkpt lat="37.76697034947574138641357421875" lon="-107.7101223729550838470458984375">
        <ele>3798.199951171875</ele>
        <time>2023-07-29T17:28:56.000Z</time>
        <extensions>
          <ns3:TrackPointExtension>
            <ns3:hr>93</ns3:hr>
            <ns3:cad>0</ns3:cad>
          </ns3:TrackPointExtension>
        </extensions>
      </trkpt>
      <trkpt lat="37.76696347631514072418212890625" lon="-107.710118852555751800537109375">
        <ele>3798</ele>
        <time>2023-07-29T17:28:57.000Z</time>
        <extensions>
          <ns3:TrackPointExtension>
            <ns3:hr>93</ns3:hr>
            <ns3:cad>0</ns3:cad>
          </ns3:TrackPointExtension>
        </extensions>
      </trkpt>
      <trkpt lat="37.76695559732615947723388671875" lon="-107.7101160027086734771728515625">
        <ele>3797.800048828125</ele>
        <time>2023-07-29T17:28:58.000Z</time>
        <extensions>
          <ns3:TrackPointExtension>
            <ns3:hr>93</ns3:hr>
            <ns3:cad>0</ns3:cad>
          </ns3:TrackPointExtension>
        </extensions>
      </trkpt>
      <trkpt lat="37.76694889180362224578857421875" lon="-107.71011373959481716156005859375">
        <ele>3797.800048828125</ele>
        <time>2023-07-29T17:28:59.000Z</time>
        <extensions>
          <ns3:TrackPointExtension>
            <ns3:hr>93</ns3:hr>
            <ns3:cad>0</ns3:cad>
          </ns3:TrackPointExtension>
        </extensions>
      </trkpt>
      <trkpt lat="37.7669367380440235137939453125" lon="-107.7101129852235317230224609375">
        <ele>3797.60009765625</ele>
        <time>2023-07-29T17:29:00.000Z</time>
        <extensions>
          <ns3:TrackPointExtension>
            <ns3:hr>93</ns3:hr>
            <ns3:cad>0</ns3:cad>
          </ns3:TrackPointExtension>
        </extensions>
      </trkpt>
      <trkpt lat="37.76692458428442478179931640625" lon="-107.710112817585468292236328125">
        <ele>3797.60009765625</ele>
        <time>2023-07-29T17:29:01.000Z</time>
        <extensions>
          <ns3:TrackPointExtension>
            <ns3:hr>93</ns3:hr>
            <ns3:cad>0</ns3:cad>
          </ns3:TrackPointExtension>
        </extensions>
      </trkpt>
      <trkpt lat="37.76690698228776454925537109375" lon="-107.71010854281485080718994140625">
        <ele>3797.39990234375</ele>
        <time>2023-07-29T17:29:02.000Z</time>
        <extensions>
          <ns3:TrackPointExtension>
            <ns3:hr>93</ns3:hr>
            <ns3:cad>0</ns3:cad>
          </ns3:TrackPointExtension>
        </extensions>
      </trkpt>
      <trkpt lat="37.76688854210078716278076171875" lon="-107.7101062797009944915771484375">
        <ele>3797.199951171875</ele>
        <time>2023-07-29T17:29:03.000Z</time>
        <extensions>
          <ns3:TrackPointExtension>
            <ns3:hr>93</ns3:hr>
            <ns3:cad>0</ns3:cad>
          </ns3:TrackPointExtension>
        </extensions>
      </trkpt>
      <trkpt lat="37.76687295176088809967041015625" lon="-107.71010451950132846832275390625">
        <ele>3797</ele>
        <time>2023-07-29T17:29:04.000Z</time>
        <extensions>
          <ns3:TrackPointExtension>
            <ns3:hr>93</ns3:hr>
            <ns3:cad>0</ns3:cad>
          </ns3:TrackPointExtension>
        </extensions>
      </trkpt>
      <trkpt lat="37.76685903780162334442138671875" lon="-107.7101042680442333221435546875">
        <ele>3797</ele>
        <time>2023-07-29T17:29:05.000Z</time>
        <extensions>
          <ns3:TrackPointExtension>
            <ns3:hr>93</ns3:hr>
            <ns3:cad>0</ns3:cad>
          </ns3:TrackPointExtension>
        </extensions>
      </trkpt>
      <trkpt lat="37.76684897951781749725341796875" lon="-107.71010451950132846832275390625">
        <ele>3797</ele>
        <time>2023-07-29T17:29:06.000Z</time>
        <extensions>
          <ns3:TrackPointExtension>
            <ns3:hr>93</ns3:hr>
            <ns3:cad>0</ns3:cad>
          </ns3:TrackPointExtension>
        </extensions>
      </trkpt>
      <trkpt lat="37.766838334500789642333984375" lon="-107.71010317839682102203369140625">
        <ele>3796.800048828125</ele>
        <time>2023-07-29T17:29:07.000Z</time>
        <extensions>
          <ns3:TrackPointExtension>
            <ns3:hr>93</ns3:hr>
            <ns3:cad>0</ns3:cad>
          </ns3:TrackPointExtension>
        </extensions>
      </trkpt>
      <trkpt lat="37.76683037169277667999267578125" lon="-107.7101005800068378448486328125">
        <ele>3796.60009765625</ele>
        <time>2023-07-29T17:29:08.000Z</time>
        <extensions>
          <ns3:TrackPointExtension>
            <ns3:hr>92</ns3:hr>
            <ns3:cad>0</ns3:cad>
          </ns3:TrackPointExtension>
        </extensions>
      </trkpt>
      <trkpt lat="37.766822241246700286865234375" lon="-107.71010334603488445281982421875">
        <ele>3796.60009765625</ele>
        <time>2023-07-29T17:29:09.000Z</time>
        <extensions>
          <ns3:TrackPointExtension>
            <ns3:hr>93</ns3:hr>
            <ns3:cad>0</ns3:cad>
          </ns3:TrackPointExtension>
        </extensions>
      </trkpt>
      <trkpt lat="37.766814529895782470703125" lon="-107.71010384894907474517822265625">
        <ele>3796.60009765625</ele>
        <time>2023-07-29T17:29:10.000Z</time>
        <extensions>
          <ns3:TrackPointExtension>
            <ns3:hr>93</ns3:hr>
            <ns3:cad>0</ns3:cad>
          </ns3:TrackPointExtension>
        </extensions>
      </trkpt>
      <trkpt lat="37.76680002920329570770263671875" lon="-107.71010108292102813720703125">
        <ele>3796.199951171875</ele>
        <time>2023-07-29T17:29:11.000Z</time>
        <extensions>
          <ns3:TrackPointExtension>
            <ns3:hr>93</ns3:hr>
            <ns3:cad>0</ns3:cad>
          </ns3:TrackPointExtension>
        </extensions>
      </trkpt>
      <trkpt lat="37.76678980328142642974853515625" lon="-107.71009932272136211395263671875">
        <ele>3796.199951171875</ele>
        <time>2023-07-29T17:29:12.000Z</time>
        <extensions>
          <ns3:TrackPointExtension>
            <ns3:hr>94</ns3:hr>
            <ns3:cad>56</ns3:cad>
          </ns3:TrackPointExtension>
        </extensions>
      </trkpt>
      <trkpt lat="37.76677806861698627471923828125" lon="-107.7100963890552520751953125">
        <ele>3796.199951171875</ele>
        <time>2023-07-29T17:29:13.000Z</time>
        <extensions>
          <ns3:TrackPointExtension>
            <ns3:hr>94</ns3:hr>
            <ns3:cad>56</ns3:cad>
          </ns3:TrackPointExtension>
        </extensions>
      </trkpt>
      <trkpt lat="37.766769267618656158447265625" lon="-107.7100921981036663055419921875">
        <ele>3796</ele>
        <time>2023-07-29T17:29:14.000Z</time>
        <extensions>
          <ns3:TrackPointExtension>
            <ns3:hr>94</ns3:hr>
            <ns3:cad>0</ns3:cad>
          </ns3:TrackPointExtension>
        </extensions>
      </trkpt>
      <trkpt lat="37.76676356792449951171875" lon="-107.71008658222854137420654296875">
        <ele>3796</ele>
        <time>2023-07-29T17:29:15.000Z</time>
        <extensions>
          <ns3:TrackPointExtension>
            <ns3:hr>94</ns3:hr>
            <ns3:cad>0</ns3:cad>
          </ns3:TrackPointExtension>
        </extensions>
      </trkpt>
      <trkpt lat="37.76675359345972537994384765625" lon="-107.71007828414440155029296875">
        <ele>3795.800048828125</ele>
        <time>2023-07-29T17:29:16.000Z</time>
        <extensions>
          <ns3:TrackPointExtension>
            <ns3:hr>94</ns3:hr>
            <ns3:cad>0</ns3:cad>
          </ns3:TrackPointExtension>
        </extensions>
      </trkpt>
      <trkpt lat="37.76674839667975902557373046875" lon="-107.71007333882153034210205078125">
        <ele>3795.800048828125</ele>
        <time>2023-07-29T17:29:17.000Z</time>
        <extensions>
          <ns3:TrackPointExtension>
            <ns3:hr>94</ns3:hr>
            <ns3:cad>0</ns3:cad>
          </ns3:TrackPointExtension>
        </extensions>
      </trkpt>
      <trkpt lat="37.76674437336623668670654296875" lon="-107.71007023751735687255859375">
        <ele>3795.800048828125</ele>
        <time>2023-07-29T17:29:18.000Z</time>
        <extensions>
          <ns3:TrackPointExtension>
            <ns3:hr>94</ns3:hr>
            <ns3:cad>0</ns3:cad>
          </ns3:TrackPointExtension>
        </extensions>
      </trkpt>
      <trkpt lat="37.76673934422433376312255859375" lon="-107.71006411872804164886474609375">
        <ele>3795.800048828125</ele>
        <time>2023-07-29T17:29:19.000Z</time>
        <extensions>
          <ns3:TrackPointExtension>
            <ns3:hr>94</ns3:hr>
            <ns3:cad>0</ns3:cad>
          </ns3:TrackPointExtension>
        </extensions>
      </trkpt>
      <trkpt lat="37.76673733256757259368896484375" lon="-107.7100573293864727020263671875">
        <ele>3795.800048828125</ele>
        <time>2023-07-29T17:29:20.000Z</time>
        <extensions>
          <ns3:TrackPointExtension>
            <ns3:hr>94</ns3:hr>
            <ns3:cad>0</ns3:cad>
          </ns3:TrackPointExtension>
        </extensions>
      </trkpt>
      <trkpt lat="37.766732387244701385498046875" lon="-107.7100472711026668548583984375">
        <ele>3795.800048828125</ele>
        <time>2023-07-29T17:29:21.000Z</time>
        <extensions>
          <ns3:TrackPointExtension>
            <ns3:hr>94</ns3:hr>
            <ns3:cad>0</ns3:cad>
          </ns3:TrackPointExtension>
        </extensions>
      </trkpt>
      <trkpt lat="37.7667238377034664154052734375" lon="-107.71003629080951213836669921875">
        <ele>3796</ele>
        <time>2023-07-29T17:29:22.000Z</time>
        <extensions>
          <ns3:TrackPointExtension>
            <ns3:hr>94</ns3:hr>
            <ns3:cad>0</ns3:cad>
          </ns3:TrackPointExtension>
        </extensions>
      </trkpt>
      <trkpt lat="37.76671587489545345306396484375" lon="-107.71002572961151599884033203125">
        <ele>3796</ele>
        <time>2023-07-29T17:29:23.000Z</time>
        <extensions>
          <ns3:TrackPointExtension>
            <ns3:hr>94</ns3:hr>
            <ns3:cad>0</ns3:cad>
          </ns3:TrackPointExtension>
        </extensions>
      </trkpt>
      <trkpt lat="37.7667020447552204132080078125" lon="-107.71000879816710948944091796875">
        <ele>3796</ele>
        <time>2023-07-29T17:29:24.000Z</time>
        <extensions>
          <ns3:TrackPointExtension>
            <ns3:hr>94</ns3:hr>
            <ns3:cad>0</ns3:cad>
          </ns3:TrackPointExtension>
        </extensions>
      </trkpt>
      <trkpt lat="37.76669726707041263580322265625" lon="-107.710000835359096527099609375">
        <ele>3796</ele>
        <time>2023-07-29T17:29:25.000Z</time>
        <extensions>
          <ns3:TrackPointExtension>
            <ns3:hr>94</ns3:hr>
            <ns3:cad>0</ns3:cad>
          </ns3:TrackPointExtension>
        </extensions>
      </trkpt>
      <trkpt lat="37.7666938304901123046875" lon="-107.70999438129365444183349609375">
        <ele>3796</ele>
        <time>2023-07-29T17:29:26.000Z</time>
        <extensions>
          <ns3:TrackPointExtension>
            <ns3:hr>94</ns3:hr>
            <ns3:cad>0</ns3:cad>
          </ns3:TrackPointExtension>
        </extensions>
      </trkpt>
      <trkpt lat="37.76668586768209934234619140625" lon="-107.709985412657260894775390625">
        <ele>3796</ele>
        <time>2023-07-29T17:29:27.000Z</time>
        <extensions>
          <ns3:TrackPointExtension>
            <ns3:hr>94</ns3:hr>
            <ns3:cad>0</ns3:cad>
          </ns3:TrackPointExtension>
        </extensions>
      </trkpt>
      <trkpt lat="37.76668134145438671112060546875" lon="-107.709978036582469940185546875">
        <ele>3796</ele>
        <time>2023-07-29T17:29:28.000Z</time>
        <extensions>
          <ns3:TrackPointExtension>
            <ns3:hr>94</ns3:hr>
            <ns3:cad>0</ns3:cad>
          </ns3:TrackPointExtension>
        </extensions>
      </trkpt>
      <trkpt lat="37.766675055027008056640625" lon="-107.70997107960283756256103515625">
        <ele>3796</ele>
        <time>2023-07-29T17:29:29.000Z</time>
        <extensions>
          <ns3:TrackPointExtension>
            <ns3:hr>94</ns3:hr>
            <ns3:cad>0</ns3:cad>
          </ns3:TrackPointExtension>
        </extensions>
      </trkpt>
      <trkpt lat="37.76667044498026371002197265625" lon="-107.7099661342799663543701171875">
        <ele>3796.199951171875</ele>
        <time>2023-07-29T17:29:30.000Z</time>
        <extensions>
          <ns3:TrackPointExtension>
            <ns3:hr>94</ns3:hr>
            <ns3:cad>0</ns3:cad>
          </ns3:TrackPointExtension>
        </extensions>
      </trkpt>
      <trkpt lat="37.76666357181966304779052734375" lon="-107.70995984785258769989013671875">
        <ele>3796.199951171875</ele>
        <time>2023-07-29T17:29:31.000Z</time>
        <extensions>
          <ns3:TrackPointExtension>
            <ns3:hr>94</ns3:hr>
            <ns3:cad>0</ns3:cad>
          </ns3:TrackPointExtension>
        </extensions>
      </trkpt>
      <trkpt lat="37.76665686629712581634521484375" lon="-107.7099547348916530609130859375">
        <ele>3796</ele>
        <time>2023-07-29T17:29:32.000Z</time>
        <extensions>
          <ns3:TrackPointExtension>
            <ns3:hr>94</ns3:hr>
            <ns3:cad>17</ns3:cad>
          </ns3:TrackPointExtension>
        </extensions>
      </trkpt>
      <trkpt lat="37.766648568212985992431640625" lon="-107.7099486999213695526123046875">
        <ele>3796</ele>
        <time>2023-07-29T17:29:33.000Z</time>
        <extensions>
          <ns3:TrackPointExtension>
            <ns3:hr>94</ns3:hr>
            <ns3:cad>17</ns3:cad>
          </ns3:TrackPointExtension>
        </extensions>
      </trkpt>
      <trkpt lat="37.76663775555789470672607421875" lon="-107.70994015038013458251953125">
        <ele>3796</ele>
        <time>2023-07-29T17:29:34.000Z</time>
        <extensions>
          <ns3:TrackPointExtension>
            <ns3:hr>94</ns3:hr>
            <ns3:cad>0</ns3:cad>
          </ns3:TrackPointExtension>
        </extensions>
      </trkpt>
      <trkpt lat="37.7666294574737548828125" lon="-107.7099342830479145050048828125">
        <ele>3796</ele>
        <time>2023-07-29T17:29:35.000Z</time>
        <extensions>
          <ns3:TrackPointExtension>
            <ns3:hr>94</ns3:hr>
            <ns3:cad>0</ns3:cad>
          </ns3:TrackPointExtension>
        </extensions>
      </trkpt>
      <trkpt lat="37.76661411859095096588134765625" lon="-107.7099252305924892425537109375">
        <ele>3796</ele>
        <time>2023-07-29T17:29:36.000Z</time>
        <extensions>
          <ns3:TrackPointExtension>
            <ns3:hr>94</ns3:hr>
            <ns3:cad>0</ns3:cad>
          </ns3:TrackPointExtension>
        </extensions>
      </trkpt>
      <trkpt lat="37.7666017971932888031005859375" lon="-107.70991877652704715728759765625">
        <ele>3795.800048828125</ele>
        <time>2023-07-29T17:29:37.000Z</time>
        <extensions>
          <ns3:TrackPointExtension>
            <ns3:hr>94</ns3:hr>
            <ns3:cad>0</ns3:cad>
          </ns3:TrackPointExtension>
        </extensions>
      </trkpt>
      <trkpt lat="37.766590230166912078857421875" lon="-107.70991592667996883392333984375">
        <ele>3795.800048828125</ele>
        <time>2023-07-29T17:29:38.000Z</time>
        <extensions>
          <ns3:TrackPointExtension>
            <ns3:hr>94</ns3:hr>
            <ns3:cad>0</ns3:cad>
          </ns3:TrackPointExtension>
        </extensions>
      </trkpt>
      <trkpt lat="37.76657891459763050079345703125" lon="-107.70991056226193904876708984375">
        <ele>3795.60009765625</ele>
        <time>2023-07-29T17:29:39.000Z</time>
        <extensions>
          <ns3:TrackPointExtension>
            <ns3:hr>94</ns3:hr>
            <ns3:cad>0</ns3:cad>
          </ns3:TrackPointExtension>
        </extensions>
      </trkpt>
      <trkpt lat="37.7665669284760951995849609375" lon="-107.7099037729203701019287109375">
        <ele>3795.60009765625</ele>
        <time>2023-07-29T17:29:40.000Z</time>
        <extensions>
          <ns3:TrackPointExtension>
            <ns3:hr>94</ns3:hr>
            <ns3:cad>0</ns3:cad>
          </ns3:TrackPointExtension>
        </extensions>
      </trkpt>
      <trkpt lat="37.7665618993341922760009765625" lon="-107.7099007554352283477783203125">
        <ele>3795.60009765625</ele>
        <time>2023-07-29T17:29:41.000Z</time>
        <extensions>
          <ns3:TrackPointExtension>
            <ns3:hr>94</ns3:hr>
            <ns3:cad>0</ns3:cad>
          </ns3:TrackPointExtension>
        </extensions>
      </trkpt>
      <trkpt lat="37.766554020345211029052734375" lon="-107.70989815704524517059326171875">
        <ele>3795.60009765625</ele>
        <time>2023-07-29T17:29:42.000Z</time>
        <extensions>
          <ns3:TrackPointExtension>
            <ns3:hr>93</ns3:hr>
            <ns3:cad>0</ns3:cad>
          </ns3:TrackPointExtension>
        </extensions>
      </trkpt>
      <trkpt lat="37.7665484882891178131103515625" lon="-107.70989480428397655487060546875">
        <ele>3795.39990234375</ele>
        <time>2023-07-29T17:29:43.000Z</time>
        <extensions>
          <ns3:TrackPointExtension>
            <ns3:hr>92</ns3:hr>
            <ns3:cad>0</ns3:cad>
          </ns3:TrackPointExtension>
        </extensions>
      </trkpt>
      <trkpt lat="37.76654027402400970458984375" lon="-107.7098890207707881927490234375">
        <ele>3795.39990234375</ele>
        <time>2023-07-29T17:29:44.000Z</time>
        <extensions>
          <ns3:TrackPointExtension>
            <ns3:hr>92</ns3:hr>
            <ns3:cad>0</ns3:cad>
          </ns3:TrackPointExtension>
        </extensions>
      </trkpt>
      <trkpt lat="37.7665330655872821807861328125" lon="-107.7098858356475830078125">
        <ele>3795.39990234375</ele>
        <time>2023-07-29T17:29:45.000Z</time>
        <extensions>
          <ns3:TrackPointExtension>
            <ns3:hr>92</ns3:hr>
            <ns3:cad>0</ns3:cad>
          </ns3:TrackPointExtension>
        </extensions>
      </trkpt>
      <trkpt lat="37.7665233425796031951904296875" lon="-107.70988323725759983062744140625">
        <ele>3795.199951171875</ele>
        <time>2023-07-29T17:29:46.000Z</time>
        <extensions>
          <ns3:TrackPointExtension>
            <ns3:hr>92</ns3:hr>
            <ns3:cad>0</ns3:cad>
          </ns3:TrackPointExtension>
        </extensions>
      </trkpt>
      <trkpt lat="37.76651068590581417083740234375" lon="-107.70987904630601406097412109375">
        <ele>3795.199951171875</ele>
        <time>2023-07-29T17:29:47.000Z</time>
        <extensions>
          <ns3:TrackPointExtension>
            <ns3:hr>92</ns3:hr>
            <ns3:cad>0</ns3:cad>
          </ns3:TrackPointExtension>
        </extensions>
      </trkpt>
      <trkpt lat="37.7664978615939617156982421875" lon="-107.7098722569644451141357421875">
        <ele>3795</ele>
        <time>2023-07-29T17:29:48.000Z</time>
        <extensions>
          <ns3:TrackPointExtension>
            <ns3:hr>91</ns3:hr>
            <ns3:cad>0</ns3:cad>
          </ns3:TrackPointExtension>
        </extensions>
      </trkpt>
      <trkpt lat="37.7664908207952976226806640625" lon="-107.70986798219382762908935546875">
        <ele>3795</ele>
        <time>2023-07-29T17:29:49.000Z</time>
        <extensions>
          <ns3:TrackPointExtension>
            <ns3:hr>91</ns3:hr>
            <ns3:cad>0</ns3:cad>
          </ns3:TrackPointExtension>
        </extensions>
      </trkpt>
      <trkpt lat="37.76648352853953838348388671875" lon="-107.70986261777579784393310546875">
        <ele>3794.800048828125</ele>
        <time>2023-07-29T17:29:50.000Z</time>
        <extensions>
          <ns3:TrackPointExtension>
            <ns3:hr>91</ns3:hr>
            <ns3:cad>0</ns3:cad>
          </ns3:TrackPointExtension>
        </extensions>
      </trkpt>
      <trkpt lat="37.76647212915122509002685546875" lon="-107.70985356532037258148193359375">
        <ele>3794.800048828125</ele>
        <time>2023-07-29T17:29:51.000Z</time>
        <extensions>
          <ns3:TrackPointExtension>
            <ns3:hr>90</ns3:hr>
            <ns3:cad>0</ns3:cad>
          </ns3:TrackPointExtension>
        </extensions>
      </trkpt>
      <trkpt lat="37.7664603106677532196044921875" lon="-107.70984484814107418060302734375">
        <ele>3794.800048828125</ele>
        <time>2023-07-29T17:29:52.000Z</time>
        <extensions>
          <ns3:TrackPointExtension>
            <ns3:hr>88</ns3:hr>
            <ns3:cad>59</ns3:cad>
          </ns3:TrackPointExtension>
        </extensions>
      </trkpt>
      <trkpt lat="37.76645067147910594940185546875" lon="-107.70983629859983921051025390625">
        <ele>3794.800048828125</ele>
        <time>2023-07-29T17:29:53.000Z</time>
        <extensions>
          <ns3:TrackPointExtension>
            <ns3:hr>85</ns3:hr>
            <ns3:cad>59</ns3:cad>
          </ns3:TrackPointExtension>
        </extensions>
      </trkpt>
      <trkpt lat="37.7664428763091564178466796875" lon="-107.709829844534397125244140625">
        <ele>3794.60009765625</ele>
        <time>2023-07-29T17:29:54.000Z</time>
        <extensions>
          <ns3:TrackPointExtension>
            <ns3:hr>84</ns3:hr>
            <ns3:cad>59</ns3:cad>
          </ns3:TrackPointExtension>
        </extensions>
      </trkpt>
      <trkpt lat="37.7664324827492237091064453125" lon="-107.70982288755476474761962890625">
        <ele>3794.60009765625</ele>
        <time>2023-07-29T17:29:55.000Z</time>
        <extensions>
          <ns3:TrackPointExtension>
            <ns3:hr>84</ns3:hr>
            <ns3:cad>0</ns3:cad>
          </ns3:TrackPointExtension>
        </extensions>
      </trkpt>
      <trkpt lat="37.7664214186370372772216796875" lon="-107.70981886424124240875244140625">
        <ele>3794.60009765625</ele>
        <time>2023-07-29T17:29:56.000Z</time>
        <extensions>
          <ns3:TrackPointExtension>
            <ns3:hr>83</ns3:hr>
            <ns3:cad>0</ns3:cad>
          </ns3:TrackPointExtension>
        </extensions>
      </trkpt>
      <trkpt lat="37.7664147131145000457763671875" lon="-107.7098147571086883544921875">
        <ele>3794.39990234375</ele>
        <time>2023-07-29T17:29:57.000Z</time>
        <extensions>
          <ns3:TrackPointExtension>
            <ns3:hr>83</ns3:hr>
            <ns3:cad>0</ns3:cad>
          </ns3:TrackPointExtension>
        </extensions>
      </trkpt>
      <trkpt lat="37.76640859432518482208251953125" lon="-107.70981048233807086944580078125">
        <ele>3794.199951171875</ele>
        <time>2023-07-29T17:29:58.000Z</time>
        <extensions>
          <ns3:TrackPointExtension>
            <ns3:hr>83</ns3:hr>
            <ns3:cad>0</ns3:cad>
          </ns3:TrackPointExtension>
        </extensions>
      </trkpt>
      <trkpt lat="37.76640054769814014434814453125" lon="-107.709808051586151123046875">
        <ele>3794.199951171875</ele>
        <time>2023-07-29T17:29:59.000Z</time>
        <extensions>
          <ns3:TrackPointExtension>
            <ns3:hr>84</ns3:hr>
            <ns3:cad>0</ns3:cad>
          </ns3:TrackPointExtension>
        </extensions>
      </trkpt>
      <trkpt lat="37.76639166288077831268310546875" lon="-107.7098052017390727996826171875">
        <ele>3794</ele>
        <time>2023-07-29T17:30:00.000Z</time>
        <extensions>
          <ns3:TrackPointExtension>
            <ns3:hr>83</ns3:hr>
            <ns3:cad>0</ns3:cad>
          </ns3:TrackPointExtension>
        </extensions>
      </trkpt>
      <trkpt lat="37.76638428680598735809326171875" lon="-107.70980444736778736114501953125">
        <ele>3794</ele>
        <time>2023-07-29T17:30:01.000Z</time>
        <extensions>
          <ns3:TrackPointExtension>
            <ns3:hr>83</ns3:hr>
            <ns3:cad>0</ns3:cad>
          </ns3:TrackPointExtension>
        </extensions>
      </trkpt>
      <trkpt lat="37.7663805149495601654052734375" lon="-107.70980536937713623046875">
        <ele>3793.60009765625</ele>
        <time>2023-07-29T17:30:02.000Z</time>
        <extensions>
          <ns3:TrackPointExtension>
            <ns3:hr>83</ns3:hr>
            <ns3:cad>0</ns3:cad>
          </ns3:TrackPointExtension>
        </extensions>
      </trkpt>
      <trkpt lat="37.7663785032927989959716796875" lon="-107.70980629138648509979248046875">
        <ele>3793.60009765625</ele>
        <time>2023-07-29T17:30:03.000Z</time>
        <extensions>
          <ns3:TrackPointExtension>
            <ns3:hr>83</ns3:hr>
            <ns3:cad>0</ns3:cad>
          </ns3:TrackPointExtension>
        </extensions>
      </trkpt>
      <trkpt lat="37.766372300684452056884765625" lon="-107.70980469882488250732421875">
        <ele>3793.39990234375</ele>
        <time>2023-07-29T17:30:04.000Z</time>
        <extensions>
          <ns3:TrackPointExtension>
            <ns3:hr>83</ns3:hr>
            <ns3:cad>0</ns3:cad>
          </ns3:TrackPointExtension>
        </extensions>
      </trkpt>
      <trkpt lat="37.7663652598857879638671875" lon="-107.70980109460651874542236328125">
        <ele>3793.39990234375</ele>
        <time>2023-07-29T17:30:05.000Z</time>
        <extensions>
          <ns3:TrackPointExtension>
            <ns3:hr>83</ns3:hr>
            <ns3:cad>0</ns3:cad>
          </ns3:TrackPointExtension>
        </extensions>
      </trkpt>
      <trkpt lat="37.76635897345840930938720703125" lon="-107.70979933440685272216796875">
        <ele>3793.39990234375</ele>
        <time>2023-07-29T17:30:06.000Z</time>
        <extensions>
          <ns3:TrackPointExtension>
            <ns3:hr>83</ns3:hr>
            <ns3:cad>0</ns3:cad>
          </ns3:TrackPointExtension>
        </extensions>
      </trkpt>
      <trkpt lat="37.76635427959263324737548828125" lon="-107.70979958586394786834716796875">
        <ele>3793.39990234375</ele>
        <time>2023-07-29T17:30:07.000Z</time>
        <extensions>
          <ns3:TrackPointExtension>
            <ns3:hr>84</ns3:hr>
            <ns3:cad>0</ns3:cad>
          </ns3:TrackPointExtension>
        </extensions>
      </trkpt>
      <trkpt lat="37.766350172460079193115234375" lon="-107.7097988314926624298095703125">
        <ele>3793.199951171875</ele>
        <time>2023-07-29T17:30:08.000Z</time>
        <extensions>
          <ns3:TrackPointExtension>
            <ns3:hr>85</ns3:hr>
            <ns3:cad>0</ns3:cad>
          </ns3:TrackPointExtension>
        </extensions>
      </trkpt>
      <trkpt lat="37.76634304784238338470458984375" lon="-107.7097964845597743988037109375">
        <ele>3793.199951171875</ele>
        <time>2023-07-29T17:30:09.000Z</time>
        <extensions>
          <ns3:TrackPointExtension>
            <ns3:hr>86</ns3:hr>
            <ns3:cad>0</ns3:cad>
          </ns3:TrackPointExtension>
        </extensions>
      </trkpt>
      <trkpt lat="37.76633885689079761505126953125" lon="-107.7097948081791400909423828125">
        <ele>3793</ele>
        <time>2023-07-29T17:30:10.000Z</time>
        <extensions>
          <ns3:TrackPointExtension>
            <ns3:hr>87</ns3:hr>
            <ns3:cad>0</ns3:cad>
          </ns3:TrackPointExtension>
        </extensions>
      </trkpt>
      <trkpt lat="37.766338102519512176513671875" lon="-107.70979371853172779083251953125">
        <ele>3792.800048828125</ele>
        <time>2023-07-29T17:30:11.000Z</time>
        <extensions>
          <ns3:TrackPointExtension>
            <ns3:hr>88</ns3:hr>
            <ns3:cad>0</ns3:cad>
          </ns3:TrackPointExtension>
        </extensions>
      </trkpt>
      <trkpt lat="37.7663369290530681610107421875" lon="-107.70979220978915691375732421875">
        <ele>3792.800048828125</ele>
        <time>2023-07-29T17:30:12.000Z</time>
        <extensions>
          <ns3:TrackPointExtension>
            <ns3:hr>89</ns3:hr>
            <ns3:cad>0</ns3:cad>
          </ns3:TrackPointExtension>
        </extensions>
      </trkpt>
      <trkpt lat="37.76633785106241703033447265625" lon="-107.7097870968282222747802734375">
        <ele>3792.800048828125</ele>
        <time>2023-07-29T17:30:13.000Z</time>
        <extensions>
          <ns3:TrackPointExtension>
            <ns3:hr>90</ns3:hr>
            <ns3:cad>0</ns3:cad>
          </ns3:TrackPointExtension>
        </extensions>
      </trkpt>
      <trkpt lat="37.76633902452886104583740234375" lon="-107.70977921783924102783203125">
        <ele>3792.800048828125</ele>
        <time>2023-07-29T17:30:14.000Z</time>
        <extensions>
          <ns3:TrackPointExtension>
            <ns3:hr>92</ns3:hr>
            <ns3:cad>0</ns3:cad>
          </ns3:TrackPointExtension>
        </extensions>
      </trkpt>
      <trkpt lat="37.76633650995790958404541015625" lon="-107.70977108739316463470458984375">
        <ele>3792.800048828125</ele>
        <time>2023-07-29T17:30:15.000Z</time>
        <extensions>
          <ns3:TrackPointExtension>
            <ns3:hr>94</ns3:hr>
            <ns3:cad>45</ns3:cad>
          </ns3:TrackPointExtension>
        </extensions>
      </trkpt>
      <trkpt lat="37.76633248664438724517822265625" lon="-107.70976178348064422607421875">
        <ele>3793</ele>
        <time>2023-07-29T17:30:16.000Z</time>
        <extensions>
          <ns3:TrackPointExtension>
            <ns3:hr>98</ns3:hr>
            <ns3:cad>45</ns3:cad>
          </ns3:TrackPointExtension>
        </extensions>
      </trkpt>
      <trkpt lat="37.766332067549228668212890625" lon="-107.70975315012037754058837890625">
        <ele>3793.199951171875</ele>
        <time>2023-07-29T17:30:17.000Z</time>
        <extensions>
          <ns3:TrackPointExtension>
            <ns3:hr>100</ns3:hr>
            <ns3:cad>45</ns3:cad>
          </ns3:TrackPointExtension>
        </extensions>
      </trkpt>
      <trkpt lat="37.7663302235305309295654296875" lon="-107.70974569022655487060546875">
        <ele>3793.199951171875</ele>
        <time>2023-07-29T17:30:18.000Z</time>
        <extensions>
          <ns3:TrackPointExtension>
            <ns3:hr>100</ns3:hr>
            <ns3:cad>45</ns3:cad>
          </ns3:TrackPointExtension>
        </extensions>
      </trkpt>
      <trkpt lat="37.7663288824260234832763671875" lon="-107.70973630249500274658203125">
        <ele>3793.199951171875</ele>
        <time>2023-07-29T17:30:19.000Z</time>
        <extensions>
          <ns3:TrackPointExtension>
            <ns3:hr>101</ns3:hr>
            <ns3:cad>45</ns3:cad>
          </ns3:TrackPointExtension>
        </extensions>
      </trkpt>
      <trkpt lat="37.76632544584572315216064453125" lon="-107.7097324468195438385009765625">
        <ele>3793.199951171875</ele>
        <time>2023-07-29T17:30:20.000Z</time>
        <extensions>
          <ns3:TrackPointExtension>
            <ns3:hr>101</ns3:hr>
            <ns3:cad>40</ns3:cad>
          </ns3:TrackPointExtension>
        </extensions>
      </trkpt>
      <trkpt lat="37.76632108725607395172119140625" lon="-107.7097304351627826690673828125">
        <ele>3793.199951171875</ele>
        <time>2023-07-29T17:30:21.000Z</time>
        <extensions>
          <ns3:TrackPointExtension>
            <ns3:hr>101</ns3:hr>
            <ns3:cad>17</ns3:cad>
          </ns3:TrackPointExtension>
        </extensions>
      </trkpt>
      <trkpt lat="37.76631773449480533599853515625" lon="-107.70973051898181438446044921875">
        <ele>3793.199951171875</ele>
        <time>2023-07-29T17:30:22.000Z</time>
        <extensions>
          <ns3:TrackPointExtension>
            <ns3:hr>101</ns3:hr>
            <ns3:cad>17</ns3:cad>
          </ns3:TrackPointExtension>
        </extensions>
      </trkpt>
      <trkpt lat="37.7663142979145050048828125" lon="-107.7097321115434169769287109375">
        <ele>3793.199951171875</ele>
        <time>2023-07-29T17:30:23.000Z</time>
        <extensions>
          <ns3:TrackPointExtension>
            <ns3:hr>100</ns3:hr>
            <ns3:cad>17</ns3:cad>
          </ns3:TrackPointExtension>
        </extensions>
      </trkpt>
      <trkpt lat="37.76630884967744350433349609375" lon="-107.709731273353099822998046875">
        <ele>3793.199951171875</ele>
        <time>2023-07-29T17:30:24.000Z</time>
        <extensions>
          <ns3:TrackPointExtension>
            <ns3:hr>100</ns3:hr>
            <ns3:cad>17</ns3:cad>
          </ns3:TrackPointExtension>
        </extensions>
      </trkpt>
      <trkpt lat="37.7663044072687625885009765625" lon="-107.70972959697246551513671875">
        <ele>3792.800048828125</ele>
        <time>2023-07-29T17:30:25.000Z</time>
        <extensions>
          <ns3:TrackPointExtension>
            <ns3:hr>100</ns3:hr>
            <ns3:cad>60</ns3:cad>
          </ns3:TrackPointExtension>
        </extensions>
      </trkpt>
      <trkpt lat="37.76629895903170108795166015625" lon="-107.70972565747797489166259765625">
        <ele>3792.800048828125</ele>
        <time>2023-07-29T17:30:26.000Z</time>
        <extensions>
          <ns3:TrackPointExtension>
            <ns3:hr>99</ns3:hr>
            <ns3:cad>60</ns3:cad>
          </ns3:TrackPointExtension>
        </extensions>
      </trkpt>
      <trkpt lat="37.76628755964338779449462890625" lon="-107.70971962250769138336181640625">
        <ele>3792.60009765625</ele>
        <time>2023-07-29T17:30:27.000Z</time>
        <extensions>
          <ns3:TrackPointExtension>
            <ns3:hr>99</ns3:hr>
            <ns3:cad>60</ns3:cad>
          </ns3:TrackPointExtension>
        </extensions>
      </trkpt>
      <trkpt lat="37.76628068648278713226318359375" lon="-107.70971409045159816741943359375">
        <ele>3792.39990234375</ele>
        <time>2023-07-29T17:30:28.000Z</time>
        <extensions>
          <ns3:TrackPointExtension>
            <ns3:hr>98</ns3:hr>
            <ns3:cad>60</ns3:cad>
          </ns3:TrackPointExtension>
        </extensions>
      </trkpt>
      <trkpt lat="37.76626492850482463836669921875" lon="-107.7097074687480926513671875">
        <ele>3792.39990234375</ele>
        <time>2023-07-29T17:30:29.000Z</time>
        <extensions>
          <ns3:TrackPointExtension>
            <ns3:hr>98</ns3:hr>
            <ns3:cad>60</ns3:cad>
          </ns3:TrackPointExtension>
        </extensions>
      </trkpt>
      <trkpt lat="37.76625520549714565277099609375" lon="-107.70970403216779232025146484375">
        <ele>3792.39990234375</ele>
        <time>2023-07-29T17:30:30.000Z</time>
        <extensions>
          <ns3:TrackPointExtension>
            <ns3:hr>97</ns3:hr>
            <ns3:cad>0</ns3:cad>
          </ns3:TrackPointExtension>
        </extensions>
      </trkpt>
      <trkpt lat="37.7662464044988155364990234375" lon="-107.70970285870134830474853515625">
        <ele>3792.199951171875</ele>
        <time>2023-07-29T17:30:31.000Z</time>
        <extensions>
          <ns3:TrackPointExtension>
            <ns3:hr>97</ns3:hr>
            <ns3:cad>0</ns3:cad>
          </ns3:TrackPointExtension>
        </extensions>
      </trkpt>
      <trkpt lat="37.76623986661434173583984375" lon="-107.70970269106328487396240234375">
        <ele>3792</ele>
        <time>2023-07-29T17:30:32.000Z</time>
        <extensions>
          <ns3:TrackPointExtension>
            <ns3:hr>96</ns3:hr>
            <ns3:cad>0</ns3:cad>
          </ns3:TrackPointExtension>
        </extensions>
      </trkpt>
      <trkpt lat="37.76623575948178768157958984375" lon="-107.70970269106328487396240234375">
        <ele>3791.800048828125</ele>
        <time>2023-07-29T17:30:33.000Z</time>
        <extensions>
          <ns3:TrackPointExtension>
            <ns3:hr>96</ns3:hr>
            <ns3:cad>0</ns3:cad>
          </ns3:TrackPointExtension>
        </extensions>
      </trkpt>
      <trkpt lat="37.76623324491083621978759765625" lon="-107.709700427949428558349609375">
        <ele>3791.60009765625</ele>
        <time>2023-07-29T17:30:34.000Z</time>
        <extensions>
          <ns3:TrackPointExtension>
            <ns3:hr>96</ns3:hr>
            <ns3:cad>0</ns3:cad>
          </ns3:TrackPointExtension>
        </extensions>
      </trkpt>
      <trkpt lat="37.7662336640059947967529296875" lon="-107.7096999250352382659912109375">
        <ele>3791.39990234375</ele>
        <time>2023-07-29T17:30:35.000Z</time>
        <extensions>
          <ns3:TrackPointExtension>
            <ns3:hr>96</ns3:hr>
            <ns3:cad>55</ns3:cad>
          </ns3:TrackPointExtension>
        </extensions>
      </trkpt>
      <trkpt lat="37.7662323229014873504638671875" lon="-107.70970009267330169677734375">
        <ele>3791.39990234375</ele>
        <time>2023-07-29T17:30:36.000Z</time>
        <extensions>
          <ns3:TrackPointExtension>
            <ns3:hr>95</ns3:hr>
            <ns3:cad>55</ns3:cad>
          </ns3:TrackPointExtension>
        </extensions>
      </trkpt>
      <trkpt lat="37.7662353403866291046142578125" lon="-107.7097009308636188507080078125">
        <ele>3791.199951171875</ele>
        <time>2023-07-29T17:30:37.000Z</time>
        <extensions>
          <ns3:TrackPointExtension>
            <ns3:hr>95</ns3:hr>
            <ns3:cad>55</ns3:cad>
          </ns3:TrackPointExtension>
        </extensions>
      </trkpt>
      <trkpt lat="37.766230143606662750244140625" lon="-107.709701098501682281494140625">
        <ele>3791</ele>
        <time>2023-07-29T17:30:38.000Z</time>
        <extensions>
          <ns3:TrackPointExtension>
            <ns3:hr>94</ns3:hr>
            <ns3:cad>55</ns3:cad>
          </ns3:TrackPointExtension>
        </extensions>
      </trkpt>
      <trkpt lat="37.76622645556926727294921875" lon="-107.70970419980585575103759765625">
        <ele>3790.800048828125</ele>
        <time>2023-07-29T17:30:39.000Z</time>
        <extensions>
          <ns3:TrackPointExtension>
            <ns3:hr>93</ns3:hr>
            <ns3:cad>55</ns3:cad>
          </ns3:TrackPointExtension>
        </extensions>
      </trkpt>
      <trkpt lat="37.766217403113842010498046875" lon="-107.70970545709133148193359375">
        <ele>3790.60009765625</ele>
        <time>2023-07-29T17:30:40.000Z</time>
        <extensions>
          <ns3:TrackPointExtension>
            <ns3:hr>92</ns3:hr>
            <ns3:cad>55</ns3:cad>
          </ns3:TrackPointExtension>
        </extensions>
      </trkpt>
      <trkpt lat="37.7662112005054950714111328125" lon="-107.7097093127667903900146484375">
        <ele>3790.39990234375</ele>
        <time>2023-07-29T17:30:41.000Z</time>
        <extensions>
          <ns3:TrackPointExtension>
            <ns3:hr>92</ns3:hr>
            <ns3:cad>0</ns3:cad>
          </ns3:TrackPointExtension>
        </extensions>
      </trkpt>
      <trkpt lat="37.76620508171617984771728515625" lon="-107.709712497889995574951171875">
        <ele>3790.199951171875</ele>
        <time>2023-07-29T17:30:42.000Z</time>
        <extensions>
          <ns3:TrackPointExtension>
            <ns3:hr>91</ns3:hr>
            <ns3:cad>0</ns3:cad>
          </ns3:TrackPointExtension>
        </extensions>
      </trkpt>
      <trkpt lat="37.76619988493621349334716796875" lon="-107.7097156830132007598876953125">
        <ele>3790</ele>
        <time>2023-07-29T17:30:43.000Z</time>
        <extensions>
          <ns3:TrackPointExtension>
            <ns3:hr>91</ns3:hr>
            <ns3:cad>0</ns3:cad>
          </ns3:TrackPointExtension>
        </extensions>
      </trkpt>
      <trkpt lat="37.76619401760399341583251953125" lon="-107.70971811376512050628662109375">
        <ele>3789.60009765625</ele>
        <time>2023-07-29T17:30:44.000Z</time>
        <extensions>
          <ns3:TrackPointExtension>
            <ns3:hr>91</ns3:hr>
            <ns3:cad>0</ns3:cad>
          </ns3:TrackPointExtension>
        </extensions>
      </trkpt>
      <trkpt lat="37.76618328876793384552001953125" lon="-107.70972230471670627593994140625">
        <ele>3789.39990234375</ele>
        <time>2023-07-29T17:30:45.000Z</time>
        <extensions>
          <ns3:TrackPointExtension>
            <ns3:hr>90</ns3:hr>
            <ns3:cad>0</ns3:cad>
          </ns3:TrackPointExtension>
        </extensions>
      </trkpt>
      <trkpt lat="37.76617222465574741363525390625" lon="-107.70972331054508686065673828125">
        <ele>3789.39990234375</ele>
        <time>2023-07-29T17:30:46.000Z</time>
        <extensions>
          <ns3:TrackPointExtension>
            <ns3:hr>91</ns3:hr>
            <ns3:cad>0</ns3:cad>
          </ns3:TrackPointExtension>
        </extensions>
      </trkpt>
      <trkpt lat="37.766158394515514373779296875" lon="-107.70972046069800853729248046875">
        <ele>3789.199951171875</ele>
        <time>2023-07-29T17:30:47.000Z</time>
        <extensions>
          <ns3:TrackPointExtension>
            <ns3:hr>91</ns3:hr>
            <ns3:cad>0</ns3:cad>
          </ns3:TrackPointExtension>
        </extensions>
      </trkpt>
      <trkpt lat="37.7661474980413913726806640625" lon="-107.70971492864191532135009765625">
        <ele>3789</ele>
        <time>2023-07-29T17:30:48.000Z</time>
        <extensions>
          <ns3:TrackPointExtension>
            <ns3:hr>91</ns3:hr>
            <ns3:cad>0</ns3:cad>
          </ns3:TrackPointExtension>
        </extensions>
      </trkpt>
      <trkpt lat="37.76614087633788585662841796875" lon="-107.7097123302519321441650390625">
        <ele>3788.800048828125</ele>
        <time>2023-07-29T17:30:49.000Z</time>
        <extensions>
          <ns3:TrackPointExtension>
            <ns3:hr>91</ns3:hr>
            <ns3:cad>0</ns3:cad>
          </ns3:TrackPointExtension>
        </extensions>
      </trkpt>
      <trkpt lat="37.76613383553922176361083984375" lon="-107.70970772020518779754638671875">
        <ele>3788.60009765625</ele>
        <time>2023-07-29T17:30:50.000Z</time>
        <extensions>
          <ns3:TrackPointExtension>
            <ns3:hr>91</ns3:hr>
            <ns3:cad>0</ns3:cad>
          </ns3:TrackPointExtension>
        </extensions>
      </trkpt>
      <trkpt lat="37.766130901873111724853515625" lon="-107.70970277488231658935546875">
        <ele>3788.39990234375</ele>
        <time>2023-07-29T17:30:51.000Z</time>
        <extensions>
          <ns3:TrackPointExtension>
            <ns3:hr>91</ns3:hr>
            <ns3:cad>0</ns3:cad>
          </ns3:TrackPointExtension>
        </extensions>
      </trkpt>
      <trkpt lat="37.7661280520260334014892578125" lon="-107.709697745740413665771484375">
        <ele>3788.39990234375</ele>
        <time>2023-07-29T17:30:52.000Z</time>
        <extensions>
          <ns3:TrackPointExtension>
            <ns3:hr>92</ns3:hr>
            <ns3:cad>0</ns3:cad>
          </ns3:TrackPointExtension>
        </extensions>
      </trkpt>
      <trkpt lat="37.76612562127411365509033203125" lon="-107.70969246514141559600830078125">
        <ele>3788.199951171875</ele>
        <time>2023-07-29T17:30:53.000Z</time>
        <extensions>
          <ns3:TrackPointExtension>
            <ns3:hr>92</ns3:hr>
            <ns3:cad>0</ns3:cad>
          </ns3:TrackPointExtension>
        </extensions>
      </trkpt>
      <trkpt lat="37.7661238610744476318359375" lon="-107.7096891961991786956787109375">
        <ele>3788</ele>
        <time>2023-07-29T17:30:54.000Z</time>
        <extensions>
          <ns3:TrackPointExtension>
            <ns3:hr>92</ns3:hr>
            <ns3:cad>0</ns3:cad>
          </ns3:TrackPointExtension>
        </extensions>
      </trkpt>
      <trkpt lat="37.76611648499965667724609375" lon="-107.70967989228665828704833984375">
        <ele>3787.800048828125</ele>
        <time>2023-07-29T17:30:55.000Z</time>
        <extensions>
          <ns3:TrackPointExtension>
            <ns3:hr>92</ns3:hr>
            <ns3:cad>0</ns3:cad>
          </ns3:TrackPointExtension>
        </extensions>
      </trkpt>
      <trkpt lat="37.7661132998764514923095703125" lon="-107.70967285148799419403076171875">
        <ele>3787.60009765625</ele>
        <time>2023-07-29T17:30:56.000Z</time>
        <extensions>
          <ns3:TrackPointExtension>
            <ns3:hr>93</ns3:hr>
            <ns3:cad>0</ns3:cad>
          </ns3:TrackPointExtension>
        </extensions>
      </trkpt>
      <trkpt lat="37.76610952802002429962158203125" lon="-107.70966933108866214752197265625">
        <ele>3787.39990234375</ele>
        <time>2023-07-29T17:30:57.000Z</time>
        <extensions>
          <ns3:TrackPointExtension>
            <ns3:hr>93</ns3:hr>
            <ns3:cad>61</ns3:cad>
          </ns3:TrackPointExtension>
        </extensions>
      </trkpt>
      <trkpt lat="37.76610382832586765289306640625" lon="-107.70966547541320323944091796875">
        <ele>3787.199951171875</ele>
        <time>2023-07-29T17:30:58.000Z</time>
        <extensions>
          <ns3:TrackPointExtension>
            <ns3:hr>93</ns3:hr>
            <ns3:cad>61</ns3:cad>
          </ns3:TrackPointExtension>
        </extensions>
      </trkpt>
      <trkpt lat="37.7660988830029964447021484375" lon="-107.7096637152135372161865234375">
        <ele>3787</ele>
        <time>2023-07-29T17:30:59.000Z</time>
        <extensions>
          <ns3:TrackPointExtension>
            <ns3:hr>93</ns3:hr>
            <ns3:cad>61</ns3:cad>
          </ns3:TrackPointExtension>
        </extensions>
      </trkpt>
      <trkpt lat="37.7660894952714443206787109375" lon="-107.7096590213477611541748046875">
        <ele>3786.800048828125</ele>
        <time>2023-07-29T17:31:00.000Z</time>
        <extensions>
          <ns3:TrackPointExtension>
            <ns3:hr>93</ns3:hr>
            <ns3:cad>61</ns3:cad>
          </ns3:TrackPointExtension>
        </extensions>
      </trkpt>
      <trkpt lat="37.766087315976619720458984375" lon="-107.70966061390936374664306640625">
        <ele>3786.60009765625</ele>
        <time>2023-07-29T17:31:01.000Z</time>
        <extensions>
          <ns3:TrackPointExtension>
            <ns3:hr>93</ns3:hr>
            <ns3:cad>0</ns3:cad>
          </ns3:TrackPointExtension>
        </extensions>
      </trkpt>
      <trkpt lat="37.7660848014056682586669921875" lon="-107.709660194814205169677734375">
        <ele>3786.39990234375</ele>
        <time>2023-07-29T17:31:02.000Z</time>
        <extensions>
          <ns3:TrackPointExtension>
            <ns3:hr>93</ns3:hr>
            <ns3:cad>0</ns3:cad>
          </ns3:TrackPointExtension>
        </extensions>
      </trkpt>
      <trkpt lat="37.76608203537762165069580078125" lon="-107.70965910516679286956787109375">
        <ele>3786.199951171875</ele>
        <time>2023-07-29T17:31:03.000Z</time>
        <extensions>
          <ns3:TrackPointExtension>
            <ns3:hr>93</ns3:hr>
            <ns3:cad>0</ns3:cad>
          </ns3:TrackPointExtension>
        </extensions>
      </trkpt>
      <trkpt lat="37.76607398875057697296142578125" lon="-107.70965441130101680755615234375">
        <ele>3786.199951171875</ele>
        <time>2023-07-29T17:31:04.000Z</time>
        <extensions>
          <ns3:TrackPointExtension>
            <ns3:hr>93</ns3:hr>
            <ns3:cad>0</ns3:cad>
          </ns3:TrackPointExtension>
        </extensions>
      </trkpt>
      <trkpt lat="37.766070552170276641845703125" lon="-107.709649465978145599365234375">
        <ele>3786</ele>
        <time>2023-07-29T17:31:05.000Z</time>
        <extensions>
          <ns3:TrackPointExtension>
            <ns3:hr>93</ns3:hr>
            <ns3:cad>0</ns3:cad>
          </ns3:TrackPointExtension>
        </extensions>
      </trkpt>
      <trkpt lat="37.7660646848380565643310546875" lon="-107.70964636467397212982177734375">
        <ele>3785.800048828125</ele>
        <time>2023-07-29T17:31:06.000Z</time>
        <extensions>
          <ns3:TrackPointExtension>
            <ns3:hr>93</ns3:hr>
            <ns3:cad>0</ns3:cad>
          </ns3:TrackPointExtension>
        </extensions>
      </trkpt>
      <trkpt lat="37.76606359519064426422119140625" lon="-107.70964385010302066802978515625">
        <ele>3785.60009765625</ele>
        <time>2023-07-29T17:31:07.000Z</time>
        <extensions>
          <ns3:TrackPointExtension>
            <ns3:hr>93</ns3:hr>
            <ns3:cad>0</ns3:cad>
          </ns3:TrackPointExtension>
        </extensions>
      </trkpt>
      <trkpt lat="37.76605739258229732513427734375" lon="-107.70963965915143489837646484375">
        <ele>3785.60009765625</ele>
        <time>2023-07-29T17:31:08.000Z</time>
        <extensions>
          <ns3:TrackPointExtension>
            <ns3:hr>93</ns3:hr>
            <ns3:cad>0</ns3:cad>
          </ns3:TrackPointExtension>
        </extensions>
      </trkpt>
      <trkpt lat="37.7660495974123477935791015625" lon="-107.70963395945727825164794921875">
        <ele>3785.60009765625</ele>
        <time>2023-07-29T17:31:09.000Z</time>
        <extensions>
          <ns3:TrackPointExtension>
            <ns3:hr>93</ns3:hr>
            <ns3:cad>0</ns3:cad>
          </ns3:TrackPointExtension>
        </extensions>
      </trkpt>
      <trkpt lat="37.76604364626109600067138671875" lon="-107.709630690515041351318359375">
        <ele>3785.39990234375</ele>
        <time>2023-07-29T17:31:10.000Z</time>
        <extensions>
          <ns3:TrackPointExtension>
            <ns3:hr>93</ns3:hr>
            <ns3:cad>0</ns3:cad>
          </ns3:TrackPointExtension>
        </extensions>
      </trkpt>
      <trkpt lat="37.76603828184306621551513671875" lon="-107.70963370800018310546875">
        <ele>3785.199951171875</ele>
        <time>2023-07-29T17:31:11.000Z</time>
        <extensions>
          <ns3:TrackPointExtension>
            <ns3:hr>93</ns3:hr>
            <ns3:cad>0</ns3:cad>
          </ns3:TrackPointExtension>
        </extensions>
      </trkpt>
      <trkpt lat="37.7660288102924823760986328125" lon="-107.70963563583791255950927734375">
        <ele>3785.199951171875</ele>
        <time>2023-07-29T17:31:12.000Z</time>
        <extensions>
          <ns3:TrackPointExtension>
            <ns3:hr>93</ns3:hr>
            <ns3:cad>0</ns3:cad>
          </ns3:TrackPointExtension>
        </extensions>
      </trkpt>
      <trkpt lat="37.766017578542232513427734375" lon="-107.70963278599083423614501953125">
        <ele>3785</ele>
        <time>2023-07-29T17:31:13.000Z</time>
        <extensions>
          <ns3:TrackPointExtension>
            <ns3:hr>93</ns3:hr>
            <ns3:cad>0</ns3:cad>
          </ns3:TrackPointExtension>
        </extensions>
      </trkpt>
      <trkpt lat="37.7660073526203632354736328125" lon="-107.7096281759440898895263671875">
        <ele>3785</ele>
        <time>2023-07-29T17:31:14.000Z</time>
        <extensions>
          <ns3:TrackPointExtension>
            <ns3:hr>93</ns3:hr>
            <ns3:cad>0</ns3:cad>
          </ns3:TrackPointExtension>
        </extensions>
      </trkpt>
      <trkpt lat="37.76599553413689136505126953125" lon="-107.709619291126728057861328125">
        <ele>3784.60009765625</ele>
        <time>2023-07-29T17:31:15.000Z</time>
        <extensions>
          <ns3:TrackPointExtension>
            <ns3:hr>93</ns3:hr>
            <ns3:cad>0</ns3:cad>
          </ns3:TrackPointExtension>
        </extensions>
      </trkpt>
      <trkpt lat="37.76598296128213405609130859375" lon="-107.70961023867130279541015625">
        <ele>3784.60009765625</ele>
        <time>2023-07-29T17:31:16.000Z</time>
        <extensions>
          <ns3:TrackPointExtension>
            <ns3:hr>93</ns3:hr>
            <ns3:cad>0</ns3:cad>
          </ns3:TrackPointExtension>
        </extensions>
      </trkpt>
      <trkpt lat="37.7659748308360576629638671875" lon="-107.70960244350135326385498046875">
        <ele>3784.39990234375</ele>
        <time>2023-07-29T17:31:17.000Z</time>
        <extensions>
          <ns3:TrackPointExtension>
            <ns3:hr>93</ns3:hr>
            <ns3:cad>53</ns3:cad>
          </ns3:TrackPointExtension>
        </extensions>
      </trkpt>
      <trkpt lat="37.7659661136567592620849609375" lon="-107.709596492350101470947265625">
        <ele>3784.199951171875</ele>
        <time>2023-07-29T17:31:18.000Z</time>
        <extensions>
          <ns3:TrackPointExtension>
            <ns3:hr>93</ns3:hr>
            <ns3:cad>53</ns3:cad>
          </ns3:TrackPointExtension>
        </extensions>
      </trkpt>
      <trkpt lat="37.7659627608954906463623046875" lon="-107.7095974981784820556640625">
        <ele>3784.199951171875</ele>
        <time>2023-07-29T17:31:19.000Z</time>
        <extensions>
          <ns3:TrackPointExtension>
            <ns3:hr>93</ns3:hr>
            <ns3:cad>0</ns3:cad>
          </ns3:TrackPointExtension>
        </extensions>
      </trkpt>
      <trkpt lat="37.76596091687679290771484375" lon="-107.70959842018783092498779296875">
        <ele>3784</ele>
        <time>2023-07-29T17:31:20.000Z</time>
        <extensions>
          <ns3:TrackPointExtension>
            <ns3:hr>93</ns3:hr>
            <ns3:cad>0</ns3:cad>
          </ns3:TrackPointExtension>
        </extensions>
      </trkpt>
      <trkpt lat="37.76595731265842914581298828125" lon="-107.70960026420652866363525390625">
        <ele>3783.800048828125</ele>
        <time>2023-07-29T17:31:21.000Z</time>
        <extensions>
          <ns3:TrackPointExtension>
            <ns3:hr>93</ns3:hr>
            <ns3:cad>0</ns3:cad>
          </ns3:TrackPointExtension>
        </extensions>
      </trkpt>
      <trkpt lat="37.7659523673355579376220703125" lon="-107.7096006833016872406005859375">
        <ele>3783.60009765625</ele>
        <time>2023-07-29T17:31:22.000Z</time>
        <extensions>
          <ns3:TrackPointExtension>
            <ns3:hr>93</ns3:hr>
            <ns3:cad>0</ns3:cad>
          </ns3:TrackPointExtension>
        </extensions>
      </trkpt>
      <trkpt lat="37.76595027185976505279541015625" lon="-107.709598504006862640380859375">
        <ele>3783.39990234375</ele>
        <time>2023-07-29T17:31:23.000Z</time>
        <extensions>
          <ns3:TrackPointExtension>
            <ns3:hr>94</ns3:hr>
            <ns3:cad>0</ns3:cad>
          </ns3:TrackPointExtension>
        </extensions>
      </trkpt>
      <trkpt lat="37.76594004593789577484130859375" lon="-107.70959540270268917083740234375">
        <ele>3783.199951171875</ele>
        <time>2023-07-29T17:31:24.000Z</time>
        <extensions>
          <ns3:TrackPointExtension>
            <ns3:hr>94</ns3:hr>
            <ns3:cad>0</ns3:cad>
          </ns3:TrackPointExtension>
        </extensions>
      </trkpt>
      <trkpt lat="37.76593401096761226654052734375" lon="-107.70959070883691310882568359375">
        <ele>3783</ele>
        <time>2023-07-29T17:31:25.000Z</time>
        <extensions>
          <ns3:TrackPointExtension>
            <ns3:hr>94</ns3:hr>
            <ns3:cad>0</ns3:cad>
          </ns3:TrackPointExtension>
        </extensions>
      </trkpt>
      <trkpt lat="37.76592604815959930419921875" lon="-107.70958433859050273895263671875">
        <ele>3783</ele>
        <time>2023-07-29T17:31:26.000Z</time>
        <extensions>
          <ns3:TrackPointExtension>
            <ns3:hr>94</ns3:hr>
            <ns3:cad>0</ns3:cad>
          </ns3:TrackPointExtension>
        </extensions>
      </trkpt>
      <trkpt lat="37.765916995704174041748046875" lon="-107.709577716886997222900390625">
        <ele>3782.800048828125</ele>
        <time>2023-07-29T17:31:27.000Z</time>
        <extensions>
          <ns3:TrackPointExtension>
            <ns3:hr>94</ns3:hr>
            <ns3:cad>0</ns3:cad>
          </ns3:TrackPointExtension>
        </extensions>
      </trkpt>
      <trkpt lat="37.76591305620968341827392578125" lon="-107.70957293920218944549560546875">
        <ele>3782.60009765625</ele>
        <time>2023-07-29T17:31:28.000Z</time>
        <extensions>
          <ns3:TrackPointExtension>
            <ns3:hr>94</ns3:hr>
            <ns3:cad>0</ns3:cad>
          </ns3:TrackPointExtension>
        </extensions>
      </trkpt>
      <trkpt lat="37.765900902450084686279296875" lon="-107.70956438966095447540283203125">
        <ele>3782.60009765625</ele>
        <time>2023-07-29T17:31:29.000Z</time>
        <extensions>
          <ns3:TrackPointExtension>
            <ns3:hr>94</ns3:hr>
            <ns3:cad>71</ns3:cad>
          </ns3:TrackPointExtension>
        </extensions>
      </trkpt>
      <trkpt lat="37.7658953703939914703369140625" lon="-107.7095626294612884521484375">
        <ele>3782.39990234375</ele>
        <time>2023-07-29T17:31:30.000Z</time>
        <extensions>
          <ns3:TrackPointExtension>
            <ns3:hr>94</ns3:hr>
            <ns3:cad>71</ns3:cad>
          </ns3:TrackPointExtension>
        </extensions>
      </trkpt>
      <trkpt lat="37.7658896706998348236083984375" lon="-107.70956371910870075225830078125">
        <ele>3782.199951171875</ele>
        <time>2023-07-29T17:31:31.000Z</time>
        <extensions>
          <ns3:TrackPointExtension>
            <ns3:hr>94</ns3:hr>
            <ns3:cad>0</ns3:cad>
          </ns3:TrackPointExtension>
        </extensions>
      </trkpt>
      <trkpt lat="37.76588371954858303070068359375" lon="-107.70956288091838359832763671875">
        <ele>3782</ele>
        <time>2023-07-29T17:31:32.000Z</time>
        <extensions>
          <ns3:TrackPointExtension>
            <ns3:hr>94</ns3:hr>
            <ns3:cad>0</ns3:cad>
          </ns3:TrackPointExtension>
        </extensions>
      </trkpt>
      <trkpt lat="37.76588371954858303070068359375" lon="-107.70956288091838359832763671875">
        <ele>3781.800048828125</ele>
        <time>2023-07-29T17:31:33.000Z</time>
        <extensions>
          <ns3:TrackPointExtension>
            <ns3:hr>95</ns3:hr>
            <ns3:cad>0</ns3:cad>
          </ns3:TrackPointExtension>
        </extensions>
      </trkpt>
      <trkpt lat="37.765882797539234161376953125" lon="-107.7095644734799861907958984375">
        <ele>3781.800048828125</ele>
        <time>2023-07-29T17:31:34.000Z</time>
        <extensions>
          <ns3:TrackPointExtension>
            <ns3:hr>95</ns3:hr>
            <ns3:cad>0</ns3:cad>
          </ns3:TrackPointExtension>
        </extensions>
      </trkpt>
      <trkpt lat="37.7658749185502529144287109375" lon="-107.709563635289669036865234375">
        <ele>3781.60009765625</ele>
        <time>2023-07-29T17:31:35.000Z</time>
        <extensions>
          <ns3:TrackPointExtension>
            <ns3:hr>95</ns3:hr>
            <ns3:cad>0</ns3:cad>
          </ns3:TrackPointExtension>
        </extensions>
      </trkpt>
      <trkpt lat="37.7658698894083499908447265625" lon="-107.70956204272806644439697265625">
        <ele>3781.60009765625</ele>
        <time>2023-07-29T17:31:36.000Z</time>
        <extensions>
          <ns3:TrackPointExtension>
            <ns3:hr>95</ns3:hr>
            <ns3:cad>0</ns3:cad>
          </ns3:TrackPointExtension>
        </extensions>
      </trkpt>
      <trkpt lat="37.76585957966744899749755859375" lon="-107.70955852232873439788818359375">
        <ele>3781.39990234375</ele>
        <time>2023-07-29T17:31:37.000Z</time>
        <extensions>
          <ns3:TrackPointExtension>
            <ns3:hr>95</ns3:hr>
            <ns3:cad>0</ns3:cad>
          </ns3:TrackPointExtension>
        </extensions>
      </trkpt>
      <trkpt lat="37.76585404761135578155517578125" lon="-107.70955433137714862823486328125">
        <ele>3781</ele>
        <time>2023-07-29T17:31:38.000Z</time>
        <extensions>
          <ns3:TrackPointExtension>
            <ns3:hr>95</ns3:hr>
            <ns3:cad>0</ns3:cad>
          </ns3:TrackPointExtension>
        </extensions>
      </trkpt>
      <trkpt lat="37.76584692299365997314453125" lon="-107.70955064333975315093994140625">
        <ele>3781</ele>
        <time>2023-07-29T17:31:39.000Z</time>
        <extensions>
          <ns3:TrackPointExtension>
            <ns3:hr>96</ns3:hr>
            <ns3:cad>0</ns3:cad>
          </ns3:TrackPointExtension>
        </extensions>
      </trkpt>
      <trkpt lat="37.76584214530885219573974609375" lon="-107.70954729057848453521728515625">
        <ele>3780.800048828125</ele>
        <time>2023-07-29T17:31:40.000Z</time>
        <extensions>
          <ns3:TrackPointExtension>
            <ns3:hr>96</ns3:hr>
            <ns3:cad>0</ns3:cad>
          </ns3:TrackPointExtension>
        </extensions>
      </trkpt>
      <trkpt lat="37.76583896018564701080322265625" lon="-107.70954427309334278106689453125">
        <ele>3780.39990234375</ele>
        <time>2023-07-29T17:31:41.000Z</time>
        <extensions>
          <ns3:TrackPointExtension>
            <ns3:hr>97</ns3:hr>
            <ns3:cad>0</ns3:cad>
          </ns3:TrackPointExtension>
        </extensions>
      </trkpt>
      <trkpt lat="37.765832506120204925537109375" lon="-107.70954041741788387298583984375">
        <ele>3780.39990234375</ele>
        <time>2023-07-29T17:31:42.000Z</time>
        <extensions>
          <ns3:TrackPointExtension>
            <ns3:hr>97</ns3:hr>
            <ns3:cad>0</ns3:cad>
          </ns3:TrackPointExtension>
        </extensions>
      </trkpt>
      <trkpt lat="37.7658259682357311248779296875" lon="-107.70953371189534664154052734375">
        <ele>3780.199951171875</ele>
        <time>2023-07-29T17:31:43.000Z</time>
        <extensions>
          <ns3:TrackPointExtension>
            <ns3:hr>97</ns3:hr>
            <ns3:cad>0</ns3:cad>
          </ns3:TrackPointExtension>
        </extensions>
      </trkpt>
      <trkpt lat="37.7658154070377349853515625" lon="-107.70952113904058933258056640625">
        <ele>3780</ele>
        <time>2023-07-29T17:31:44.000Z</time>
        <extensions>
          <ns3:TrackPointExtension>
            <ns3:hr>98</ns3:hr>
            <ns3:cad>0</ns3:cad>
          </ns3:TrackPointExtension>
        </extensions>
      </trkpt>
      <trkpt lat="37.76580937206745147705078125" lon="-107.7095131762325763702392578125">
        <ele>3779.800048828125</ele>
        <time>2023-07-29T17:31:45.000Z</time>
        <extensions>
          <ns3:TrackPointExtension>
            <ns3:hr>98</ns3:hr>
            <ns3:cad>0</ns3:cad>
          </ns3:TrackPointExtension>
        </extensions>
      </trkpt>
      <trkpt lat="37.76579855941236019134521484375" lon="-107.709499262273311614990234375">
        <ele>3779.60009765625</ele>
        <time>2023-07-29T17:31:46.000Z</time>
        <extensions>
          <ns3:TrackPointExtension>
            <ns3:hr>98</ns3:hr>
            <ns3:cad>0</ns3:cad>
          </ns3:TrackPointExtension>
        </extensions>
      </trkpt>
      <trkpt lat="37.7657907642424106597900390625" lon="-107.7094890363514423370361328125">
        <ele>3779.60009765625</ele>
        <time>2023-07-29T17:31:47.000Z</time>
        <extensions>
          <ns3:TrackPointExtension>
            <ns3:hr>99</ns3:hr>
            <ns3:cad>0</ns3:cad>
          </ns3:TrackPointExtension>
        </extensions>
      </trkpt>
      <trkpt lat="37.7657830528914928436279296875" lon="-107.70948140881955623626708984375">
        <ele>3779.199951171875</ele>
        <time>2023-07-29T17:31:48.000Z</time>
        <extensions>
          <ns3:TrackPointExtension>
            <ns3:hr>99</ns3:hr>
            <ns3:cad>0</ns3:cad>
          </ns3:TrackPointExtension>
        </extensions>
      </trkpt>
      <trkpt lat="37.76577341370284557342529296875" lon="-107.70947436802089214324951171875">
        <ele>3779</ele>
        <time>2023-07-29T17:31:49.000Z</time>
        <extensions>
          <ns3:TrackPointExtension>
            <ns3:hr>99</ns3:hr>
            <ns3:cad>0</ns3:cad>
          </ns3:TrackPointExtension>
        </extensions>
      </trkpt>
      <trkpt lat="37.76576486416161060333251953125" lon="-107.709472440183162689208984375">
        <ele>3778.60009765625</ele>
        <time>2023-07-29T17:31:50.000Z</time>
        <extensions>
          <ns3:TrackPointExtension>
            <ns3:hr>99</ns3:hr>
            <ns3:cad>0</ns3:cad>
          </ns3:TrackPointExtension>
        </extensions>
      </trkpt>
      <trkpt lat="37.76575581170618534088134765625" lon="-107.7094672434031963348388671875">
        <ele>3778.60009765625</ele>
        <time>2023-07-29T17:31:51.000Z</time>
        <extensions>
          <ns3:TrackPointExtension>
            <ns3:hr>99</ns3:hr>
            <ns3:cad>0</ns3:cad>
          </ns3:TrackPointExtension>
        </extensions>
      </trkpt>
      <trkpt lat="37.76575044728815555572509765625" lon="-107.70946665666997432708740234375">
        <ele>3778.39990234375</ele>
        <time>2023-07-29T17:31:52.000Z</time>
        <extensions>
          <ns3:TrackPointExtension>
            <ns3:hr>99</ns3:hr>
            <ns3:cad>0</ns3:cad>
          </ns3:TrackPointExtension>
        </extensions>
      </trkpt>
      <trkpt lat="37.7657434903085231781005859375" lon="-107.70946598611772060394287109375">
        <ele>3778.199951171875</ele>
        <time>2023-07-29T17:31:53.000Z</time>
        <extensions>
          <ns3:TrackPointExtension>
            <ns3:hr>99</ns3:hr>
            <ns3:cad>0</ns3:cad>
          </ns3:TrackPointExtension>
        </extensions>
      </trkpt>
      <trkpt lat="37.765739299356937408447265625" lon="-107.70946783013641834259033203125">
        <ele>3778</ele>
        <time>2023-07-29T17:31:54.000Z</time>
        <extensions>
          <ns3:TrackPointExtension>
            <ns3:hr>99</ns3:hr>
            <ns3:cad>0</ns3:cad>
          </ns3:TrackPointExtension>
        </extensions>
      </trkpt>
      <trkpt lat="37.7657330967485904693603515625" lon="-107.70946833305060863494873046875">
        <ele>3778</ele>
        <time>2023-07-29T17:31:55.000Z</time>
        <extensions>
          <ns3:TrackPointExtension>
            <ns3:hr>99</ns3:hr>
            <ns3:cad>0</ns3:cad>
          </ns3:TrackPointExtension>
        </extensions>
      </trkpt>
      <trkpt lat="37.7657287381589412689208984375" lon="-107.709466405212879180908203125">
        <ele>3777.60009765625</ele>
        <time>2023-07-29T17:31:56.000Z</time>
        <extensions>
          <ns3:TrackPointExtension>
            <ns3:hr>98</ns3:hr>
            <ns3:cad>0</ns3:cad>
          </ns3:TrackPointExtension>
        </extensions>
      </trkpt>
      <trkpt lat="37.76572513394057750701904296875" lon="-107.7094655670225620269775390625">
        <ele>3777.39990234375</ele>
        <time>2023-07-29T17:31:57.000Z</time>
        <extensions>
          <ns3:TrackPointExtension>
            <ns3:hr>98</ns3:hr>
            <ns3:cad>0</ns3:cad>
          </ns3:TrackPointExtension>
        </extensions>
      </trkpt>
      <trkpt lat="37.7657186798751354217529296875" lon="-107.70946531556546688079833984375">
        <ele>3777.199951171875</ele>
        <time>2023-07-29T17:31:58.000Z</time>
        <extensions>
          <ns3:TrackPointExtension>
            <ns3:hr>98</ns3:hr>
            <ns3:cad>0</ns3:cad>
          </ns3:TrackPointExtension>
        </extensions>
      </trkpt>
      <trkpt lat="37.7657076157629489898681640625" lon="-107.70946280099451541900634765625">
        <ele>3777</ele>
        <time>2023-07-29T17:31:59.000Z</time>
        <extensions>
          <ns3:TrackPointExtension>
            <ns3:hr>98</ns3:hr>
            <ns3:cad>0</ns3:cad>
          </ns3:TrackPointExtension>
        </extensions>
      </trkpt>
      <trkpt lat="37.76569713838398456573486328125" lon="-107.7094595320522785186767578125">
        <ele>3776.800048828125</ele>
        <time>2023-07-29T17:32:00.000Z</time>
        <extensions>
          <ns3:TrackPointExtension>
            <ns3:hr>98</ns3:hr>
            <ns3:cad>0</ns3:cad>
          </ns3:TrackPointExtension>
        </extensions>
      </trkpt>
      <trkpt lat="37.76568758301436901092529296875" lon="-107.70945508964359760284423828125">
        <ele>3776.60009765625</ele>
        <time>2023-07-29T17:32:01.000Z</time>
        <extensions>
          <ns3:TrackPointExtension>
            <ns3:hr>98</ns3:hr>
            <ns3:cad>0</ns3:cad>
          </ns3:TrackPointExtension>
        </extensions>
      </trkpt>
      <trkpt lat="37.76568171568214893341064453125" lon="-107.70944670774042606353759765625">
        <ele>3776.39990234375</ele>
        <time>2023-07-29T17:32:02.000Z</time>
        <extensions>
          <ns3:TrackPointExtension>
            <ns3:hr>99</ns3:hr>
            <ns3:cad>0</ns3:cad>
          </ns3:TrackPointExtension>
        </extensions>
      </trkpt>
      <trkpt lat="37.765677608549594879150390625" lon="-107.709440924227237701416015625">
        <ele>3776</ele>
        <time>2023-07-29T17:32:03.000Z</time>
        <extensions>
          <ns3:TrackPointExtension>
            <ns3:hr>98</ns3:hr>
            <ns3:cad>0</ns3:cad>
          </ns3:TrackPointExtension>
        </extensions>
      </trkpt>
      <trkpt lat="37.76566763408482074737548828125" lon="-107.709435559809207916259765625">
        <ele>3775.800048828125</ele>
        <time>2023-07-29T17:32:04.000Z</time>
        <extensions>
          <ns3:TrackPointExtension>
            <ns3:hr>98</ns3:hr>
            <ns3:cad>0</ns3:cad>
          </ns3:TrackPointExtension>
        </extensions>
      </trkpt>
      <trkpt lat="37.7656533010303974151611328125" lon="-107.70942692644894123077392578125">
        <ele>3775.60009765625</ele>
        <time>2023-07-29T17:32:05.000Z</time>
        <extensions>
          <ns3:TrackPointExtension>
            <ns3:hr>98</ns3:hr>
            <ns3:cad>0</ns3:cad>
          </ns3:TrackPointExtension>
        </extensions>
      </trkpt>
      <trkpt lat="37.765638045966625213623046875" lon="-107.70941938273608684539794921875">
        <ele>3775.60009765625</ele>
        <time>2023-07-29T17:32:06.000Z</time>
        <extensions>
          <ns3:TrackPointExtension>
            <ns3:hr>97</ns3:hr>
            <ns3:cad>0</ns3:cad>
          </ns3:TrackPointExtension>
        </extensions>
      </trkpt>
      <trkpt lat="37.76562270708382129669189453125" lon="-107.70941250957548618316650390625">
        <ele>3775.39990234375</ele>
        <time>2023-07-29T17:32:07.000Z</time>
        <extensions>
          <ns3:TrackPointExtension>
            <ns3:hr>97</ns3:hr>
            <ns3:cad>0</ns3:cad>
          </ns3:TrackPointExtension>
        </extensions>
      </trkpt>
      <trkpt lat="37.7656134031713008880615234375" lon="-107.7094092406332492828369140625">
        <ele>3775.199951171875</ele>
        <time>2023-07-29T17:32:08.000Z</time>
        <extensions>
          <ns3:TrackPointExtension>
            <ns3:hr>97</ns3:hr>
            <ns3:cad>0</ns3:cad>
          </ns3:TrackPointExtension>
        </extensions>
      </trkpt>
      <trkpt lat="37.7656026743352413177490234375" lon="-107.70940362475812435150146484375">
        <ele>3775</ele>
        <time>2023-07-29T17:32:09.000Z</time>
        <extensions>
          <ns3:TrackPointExtension>
            <ns3:hr>97</ns3:hr>
            <ns3:cad>0</ns3:cad>
          </ns3:TrackPointExtension>
        </extensions>
      </trkpt>
      <trkpt lat="37.76559437625110149383544921875" lon="-107.70939909853041172027587890625">
        <ele>3775</ele>
        <time>2023-07-29T17:32:10.000Z</time>
        <extensions>
          <ns3:TrackPointExtension>
            <ns3:hr>97</ns3:hr>
            <ns3:cad>0</ns3:cad>
          </ns3:TrackPointExtension>
        </extensions>
      </trkpt>
      <trkpt lat="37.765596471726894378662109375" lon="-107.70940043963491916656494140625">
        <ele>3774.60009765625</ele>
        <time>2023-07-29T17:32:11.000Z</time>
        <extensions>
          <ns3:TrackPointExtension>
            <ns3:hr>96</ns3:hr>
            <ns3:cad>0</ns3:cad>
          </ns3:TrackPointExtension>
        </extensions>
      </trkpt>
      <trkpt lat="37.76559085585176944732666015625" lon="-107.70939834415912628173828125">
        <ele>3774.60009765625</ele>
        <time>2023-07-29T17:32:12.000Z</time>
        <extensions>
          <ns3:TrackPointExtension>
            <ns3:hr>96</ns3:hr>
            <ns3:cad>0</ns3:cad>
          </ns3:TrackPointExtension>
        </extensions>
      </trkpt>
      <trkpt lat="37.7655825577676296234130859375" lon="-107.70939457230269908905029296875">
        <ele>3774.60009765625</ele>
        <time>2023-07-29T17:32:13.000Z</time>
        <extensions>
          <ns3:TrackPointExtension>
            <ns3:hr>95</ns3:hr>
            <ns3:cad>0</ns3:cad>
          </ns3:TrackPointExtension>
        </extensions>
      </trkpt>
      <trkpt lat="37.76557627134025096893310546875" lon="-107.70939004607498645782470703125">
        <ele>3774.39990234375</ele>
        <time>2023-07-29T17:32:14.000Z</time>
        <extensions>
          <ns3:TrackPointExtension>
            <ns3:hr>95</ns3:hr>
            <ns3:cad>0</ns3:cad>
          </ns3:TrackPointExtension>
        </extensions>
      </trkpt>
      <trkpt lat="37.7655741758644580841064453125" lon="-107.7093881182372570037841796875">
        <ele>3774.199951171875</ele>
        <time>2023-07-29T17:32:15.000Z</time>
        <extensions>
          <ns3:TrackPointExtension>
            <ns3:hr>95</ns3:hr>
            <ns3:cad>0</ns3:cad>
          </ns3:TrackPointExtension>
        </extensions>
      </trkpt>
      <trkpt lat="37.76556839235126972198486328125" lon="-107.70938694477081298828125">
        <ele>3774</ele>
        <time>2023-07-29T17:32:16.000Z</time>
        <extensions>
          <ns3:TrackPointExtension>
            <ns3:hr>94</ns3:hr>
            <ns3:cad>0</ns3:cad>
          </ns3:TrackPointExtension>
        </extensions>
      </trkpt>
      <trkpt lat="37.76556202210485935211181640625" lon="-107.70938635803759098052978515625">
        <ele>3773.800048828125</ele>
        <time>2023-07-29T17:32:17.000Z</time>
        <extensions>
          <ns3:TrackPointExtension>
            <ns3:hr>94</ns3:hr>
            <ns3:cad>0</ns3:cad>
          </ns3:TrackPointExtension>
        </extensions>
      </trkpt>
      <trkpt lat="37.76555531658232212066650390625" lon="-107.709385938942432403564453125">
        <ele>3773.800048828125</ele>
        <time>2023-07-29T17:32:18.000Z</time>
        <extensions>
          <ns3:TrackPointExtension>
            <ns3:hr>94</ns3:hr>
            <ns3:cad>0</ns3:cad>
          </ns3:TrackPointExtension>
        </extensions>
      </trkpt>
      <trkpt lat="37.76555028744041919708251953125" lon="-107.7093851007521152496337890625">
        <ele>3773.39990234375</ele>
        <time>2023-07-29T17:32:19.000Z</time>
        <extensions>
          <ns3:TrackPointExtension>
            <ns3:hr>93</ns3:hr>
            <ns3:cad>0</ns3:cad>
          </ns3:TrackPointExtension>
        </extensions>
      </trkpt>
      <trkpt lat="37.7655445039272308349609375" lon="-107.70938493311405181884765625">
        <ele>3773.199951171875</ele>
        <time>2023-07-29T17:32:20.000Z</time>
        <extensions>
          <ns3:TrackPointExtension>
            <ns3:hr>93</ns3:hr>
            <ns3:cad>0</ns3:cad>
          </ns3:TrackPointExtension>
        </extensions>
      </trkpt>
      <trkpt lat="37.7655339427292346954345703125" lon="-107.7093847654759883880615234375">
        <ele>3772.800048828125</ele>
        <time>2023-07-29T17:32:21.000Z</time>
        <extensions>
          <ns3:TrackPointExtension>
            <ns3:hr>93</ns3:hr>
            <ns3:cad>0</ns3:cad>
          </ns3:TrackPointExtension>
        </extensions>
      </trkpt>
      <trkpt lat="37.76552799157798290252685546875" lon="-107.70938401110470294952392578125">
        <ele>3772.800048828125</ele>
        <time>2023-07-29T17:32:22.000Z</time>
        <extensions>
          <ns3:TrackPointExtension>
            <ns3:hr>93</ns3:hr>
            <ns3:cad>0</ns3:cad>
          </ns3:TrackPointExtension>
        </extensions>
      </trkpt>
      <trkpt lat="37.76552103459835052490234375" lon="-107.7093847654759883880615234375">
        <ele>3772.60009765625</ele>
        <time>2023-07-29T17:32:23.000Z</time>
        <extensions>
          <ns3:TrackPointExtension>
            <ns3:hr>93</ns3:hr>
            <ns3:cad>0</ns3:cad>
          </ns3:TrackPointExtension>
        </extensions>
      </trkpt>
      <trkpt lat="37.76551273651421070098876953125" lon="-107.70938551984727382659912109375">
        <ele>3772.39990234375</ele>
        <time>2023-07-29T17:32:24.000Z</time>
        <extensions>
          <ns3:TrackPointExtension>
            <ns3:hr>94</ns3:hr>
            <ns3:cad>0</ns3:cad>
          </ns3:TrackPointExtension>
        </extensions>
      </trkpt>
      <trkpt lat="37.76550401933491230010986328125" lon="-107.70938694477081298828125">
        <ele>3772.199951171875</ele>
        <time>2023-07-29T17:32:25.000Z</time>
        <extensions>
          <ns3:TrackPointExtension>
            <ns3:hr>94</ns3:hr>
            <ns3:cad>0</ns3:cad>
          </ns3:TrackPointExtension>
        </extensions>
      </trkpt>
      <trkpt lat="37.76549421250820159912109375" lon="-107.7093856036663055419921875">
        <ele>3772</ele>
        <time>2023-07-29T17:32:26.000Z</time>
        <extensions>
          <ns3:TrackPointExtension>
            <ns3:hr>95</ns3:hr>
            <ns3:cad>0</ns3:cad>
          </ns3:TrackPointExtension>
        </extensions>
      </trkpt>
      <trkpt lat="37.76548926718533039093017578125" lon="-107.70938451401889324188232421875">
        <ele>3771.800048828125</ele>
        <time>2023-07-29T17:32:27.000Z</time>
        <extensions>
          <ns3:TrackPointExtension>
            <ns3:hr>95</ns3:hr>
            <ns3:cad>0</ns3:cad>
          </ns3:TrackPointExtension>
        </extensions>
      </trkpt>
      <trkpt lat="37.76548189111053943634033203125" lon="-107.709381915628910064697265625">
        <ele>3771.60009765625</ele>
        <time>2023-07-29T17:32:28.000Z</time>
        <extensions>
          <ns3:TrackPointExtension>
            <ns3:hr>95</ns3:hr>
            <ns3:cad>65</ns3:cad>
          </ns3:TrackPointExtension>
        </extensions>
      </trkpt>
      <trkpt lat="37.76546864770352840423583984375" lon="-107.7093775570392608642578125">
        <ele>3771.39990234375</ele>
        <time>2023-07-29T17:32:29.000Z</time>
        <extensions>
          <ns3:TrackPointExtension>
            <ns3:hr>96</ns3:hr>
            <ns3:cad>65</ns3:cad>
          </ns3:TrackPointExtension>
        </extensions>
      </trkpt>
      <trkpt lat="37.76546110399067401885986328125" lon="-107.7093721926212310791015625">
        <ele>3771.199951171875</ele>
        <time>2023-07-29T17:32:30.000Z</time>
        <extensions>
          <ns3:TrackPointExtension>
            <ns3:hr>97</ns3:hr>
            <ns3:cad>0</ns3:cad>
          </ns3:TrackPointExtension>
        </extensions>
      </trkpt>
      <trkpt lat="37.76545875705778598785400390625" lon="-107.7093706838786602020263671875">
        <ele>3771</ele>
        <time>2023-07-29T17:32:31.000Z</time>
        <extensions>
          <ns3:TrackPointExtension>
            <ns3:hr>97</ns3:hr>
            <ns3:cad>0</ns3:cad>
          </ns3:TrackPointExtension>
        </extensions>
      </trkpt>
      <trkpt lat="37.7654568292200565338134765625" lon="-107.7093716897070407867431640625">
        <ele>3770.800048828125</ele>
        <time>2023-07-29T17:32:32.000Z</time>
        <extensions>
          <ns3:TrackPointExtension>
            <ns3:hr>98</ns3:hr>
            <ns3:cad>0</ns3:cad>
          </ns3:TrackPointExtension>
        </extensions>
      </trkpt>
      <trkpt lat="37.76544953696429729461669921875" lon="-107.7093720249831676483154296875">
        <ele>3770.60009765625</ele>
        <time>2023-07-29T17:32:33.000Z</time>
        <extensions>
          <ns3:TrackPointExtension>
            <ns3:hr>98</ns3:hr>
            <ns3:cad>0</ns3:cad>
          </ns3:TrackPointExtension>
        </extensions>
      </trkpt>
      <trkpt lat="37.765446603298187255859375" lon="-107.70937311463057994842529296875">
        <ele>3770.199951171875</ele>
        <time>2023-07-29T17:32:34.000Z</time>
        <extensions>
          <ns3:TrackPointExtension>
            <ns3:hr>99</ns3:hr>
            <ns3:cad>0</ns3:cad>
          </ns3:TrackPointExtension>
        </extensions>
      </trkpt>
      <trkpt lat="37.76544786058366298675537109375" lon="-107.7093747071921825408935546875">
        <ele>3770</ele>
        <time>2023-07-29T17:32:35.000Z</time>
        <extensions>
          <ns3:TrackPointExtension>
            <ns3:hr>100</ns3:hr>
            <ns3:cad>0</ns3:cad>
          </ns3:TrackPointExtension>
        </extensions>
      </trkpt>
      <trkpt lat="37.76544249616563320159912109375" lon="-107.70937311463057994842529296875">
        <ele>3769.800048828125</ele>
        <time>2023-07-29T17:32:36.000Z</time>
        <extensions>
          <ns3:TrackPointExtension>
            <ns3:hr>100</ns3:hr>
            <ns3:cad>0</ns3:cad>
          </ns3:TrackPointExtension>
        </extensions>
      </trkpt>
      <trkpt lat="37.76543520390987396240234375" lon="-107.70936842076480388641357421875">
        <ele>3769.60009765625</ele>
        <time>2023-07-29T17:32:37.000Z</time>
        <extensions>
          <ns3:TrackPointExtension>
            <ns3:hr>99</ns3:hr>
            <ns3:cad>0</ns3:cad>
          </ns3:TrackPointExtension>
        </extensions>
      </trkpt>
      <trkpt lat="37.76543227024376392364501953125" lon="-107.70936825312674045562744140625">
        <ele>3769.39990234375</ele>
        <time>2023-07-29T17:32:38.000Z</time>
        <extensions>
          <ns3:TrackPointExtension>
            <ns3:hr>99</ns3:hr>
            <ns3:cad>0</ns3:cad>
          </ns3:TrackPointExtension>
        </extensions>
      </trkpt>
      <trkpt lat="37.76541936211287975311279296875" lon="-107.70936624146997928619384765625">
        <ele>3769.199951171875</ele>
        <time>2023-07-29T17:32:39.000Z</time>
        <extensions>
          <ns3:TrackPointExtension>
            <ns3:hr>100</ns3:hr>
            <ns3:cad>0</ns3:cad>
          </ns3:TrackPointExtension>
        </extensions>
      </trkpt>
      <trkpt lat="37.76540645398199558258056640625" lon="-107.70936406217515468597412109375">
        <ele>3768.800048828125</ele>
        <time>2023-07-29T17:32:40.000Z</time>
        <extensions>
          <ns3:TrackPointExtension>
            <ns3:hr>100</ns3:hr>
            <ns3:cad>0</ns3:cad>
          </ns3:TrackPointExtension>
        </extensions>
      </trkpt>
      <trkpt lat="37.76539941318333148956298828125" lon="-107.70936154760420322418212890625">
        <ele>3768.800048828125</ele>
        <time>2023-07-29T17:32:41.000Z</time>
        <extensions>
          <ns3:TrackPointExtension>
            <ns3:hr>100</ns3:hr>
            <ns3:cad>0</ns3:cad>
          </ns3:TrackPointExtension>
        </extensions>
      </trkpt>
      <trkpt lat="37.7653964795172214508056640625" lon="-107.70935584791004657745361328125">
        <ele>3768.39990234375</ele>
        <time>2023-07-29T17:32:42.000Z</time>
        <extensions>
          <ns3:TrackPointExtension>
            <ns3:hr>100</ns3:hr>
            <ns3:cad>0</ns3:cad>
          </ns3:TrackPointExtension>
        </extensions>
      </trkpt>
      <trkpt lat="37.76539254002273082733154296875" lon="-107.70935014821588993072509765625">
        <ele>3768.199951171875</ele>
        <time>2023-07-29T17:32:43.000Z</time>
        <extensions>
          <ns3:TrackPointExtension>
            <ns3:hr>100</ns3:hr>
            <ns3:cad>0</ns3:cad>
          </ns3:TrackPointExtension>
        </extensions>
      </trkpt>
      <trkpt lat="37.76539220474660396575927734375" lon="-107.70934763364493846893310546875">
        <ele>3768</ele>
        <time>2023-07-29T17:32:44.000Z</time>
        <extensions>
          <ns3:TrackPointExtension>
            <ns3:hr>100</ns3:hr>
            <ns3:cad>0</ns3:cad>
          </ns3:TrackPointExtension>
        </extensions>
      </trkpt>
      <trkpt lat="37.76539136655628681182861328125" lon="-107.709348388016223907470703125">
        <ele>3767.800048828125</ele>
        <time>2023-07-29T17:32:45.000Z</time>
        <extensions>
          <ns3:TrackPointExtension>
            <ns3:hr>100</ns3:hr>
            <ns3:cad>0</ns3:cad>
          </ns3:TrackPointExtension>
        </extensions>
      </trkpt>
      <trkpt lat="37.76539304293692111968994140625" lon="-107.709349729120731353759765625">
        <ele>3767.800048828125</ele>
        <time>2023-07-29T17:32:46.000Z</time>
        <extensions>
          <ns3:TrackPointExtension>
            <ns3:hr>100</ns3:hr>
            <ns3:cad>44</ns3:cad>
          </ns3:TrackPointExtension>
        </extensions>
      </trkpt>
      <trkpt lat="37.76539086364209651947021484375" lon="-107.70934847183525562286376953125">
        <ele>3767.39990234375</ele>
        <time>2023-07-29T17:32:47.000Z</time>
        <extensions>
          <ns3:TrackPointExtension>
            <ns3:hr>99</ns3:hr>
            <ns3:cad>45</ns3:cad>
          </ns3:TrackPointExtension>
        </extensions>
      </trkpt>
      <trkpt lat="37.76538960635662078857421875" lon="-107.70934612490236759185791015625">
        <ele>3767.39990234375</ele>
        <time>2023-07-29T17:32:48.000Z</time>
        <extensions>
          <ns3:TrackPointExtension>
            <ns3:hr>99</ns3:hr>
            <ns3:cad>45</ns3:cad>
          </ns3:TrackPointExtension>
        </extensions>
      </trkpt>
      <trkpt lat="37.7653889358043670654296875" lon="-107.7093462087213993072509765625">
        <ele>3767.39990234375</ele>
        <time>2023-07-29T17:32:49.000Z</time>
        <extensions>
          <ns3:TrackPointExtension>
            <ns3:hr>99</ns3:hr>
            <ns3:cad>44</ns3:cad>
          </ns3:TrackPointExtension>
        </extensions>
      </trkpt>
      <trkpt lat="37.765386588871479034423828125" lon="-107.70934444852173328399658203125">
        <ele>3767.199951171875</ele>
        <time>2023-07-29T17:32:50.000Z</time>
        <extensions>
          <ns3:TrackPointExtension>
            <ns3:hr>99</ns3:hr>
            <ns3:cad>44</ns3:cad>
          </ns3:TrackPointExtension>
        </extensions>
      </trkpt>
      <trkpt lat="37.76538533158600330352783203125" lon="-107.7093453705310821533203125">
        <ele>3767.199951171875</ele>
        <time>2023-07-29T17:32:51.000Z</time>
        <extensions>
          <ns3:TrackPointExtension>
            <ns3:hr>98</ns3:hr>
            <ns3:cad>44</ns3:cad>
          </ns3:TrackPointExtension>
        </extensions>
      </trkpt>
      <trkpt lat="37.76538097299635410308837890625" lon="-107.70934578962624073028564453125">
        <ele>3767</ele>
        <time>2023-07-29T17:32:52.000Z</time>
        <extensions>
          <ns3:TrackPointExtension>
            <ns3:hr>98</ns3:hr>
            <ns3:cad>0</ns3:cad>
          </ns3:TrackPointExtension>
        </extensions>
      </trkpt>
      <trkpt lat="37.765377871692180633544921875" lon="-107.70934578962624073028564453125">
        <ele>3766.60009765625</ele>
        <time>2023-07-29T17:32:53.000Z</time>
        <extensions>
          <ns3:TrackPointExtension>
            <ns3:hr>98</ns3:hr>
            <ns3:cad>0</ns3:cad>
          </ns3:TrackPointExtension>
        </extensions>
      </trkpt>
      <trkpt lat="37.76537544094026088714599609375" lon="-107.70934595726430416107177734375">
        <ele>3766.39990234375</ele>
        <time>2023-07-29T17:32:54.000Z</time>
        <extensions>
          <ns3:TrackPointExtension>
            <ns3:hr>98</ns3:hr>
            <ns3:cad>0</ns3:cad>
          </ns3:TrackPointExtension>
        </extensions>
      </trkpt>
      <trkpt lat="37.765373848378658294677734375" lon="-107.7093472145497798919677734375">
        <ele>3766.39990234375</ele>
        <time>2023-07-29T17:32:55.000Z</time>
        <extensions>
          <ns3:TrackPointExtension>
            <ns3:hr>98</ns3:hr>
            <ns3:cad>0</ns3:cad>
          </ns3:TrackPointExtension>
        </extensions>
      </trkpt>
      <trkpt lat="37.76537326164543628692626953125" lon="-107.7093492262065410614013671875">
        <ele>3766.199951171875</ele>
        <time>2023-07-29T17:32:56.000Z</time>
        <extensions>
          <ns3:TrackPointExtension>
            <ns3:hr>98</ns3:hr>
            <ns3:cad>0</ns3:cad>
          </ns3:TrackPointExtension>
        </extensions>
      </trkpt>
      <trkpt lat="37.7653703279793262481689453125" lon="-107.70934738218784332275390625">
        <ele>3766.199951171875</ele>
        <time>2023-07-29T17:32:57.000Z</time>
        <extensions>
          <ns3:TrackPointExtension>
            <ns3:hr>98</ns3:hr>
            <ns3:cad>0</ns3:cad>
          </ns3:TrackPointExtension>
        </extensions>
      </trkpt>
      <trkpt lat="37.76537083089351654052734375" lon="-107.709343023598194122314453125">
        <ele>3766.199951171875</ele>
        <time>2023-07-29T17:32:58.000Z</time>
        <extensions>
          <ns3:TrackPointExtension>
            <ns3:hr>98</ns3:hr>
            <ns3:cad>0</ns3:cad>
          </ns3:TrackPointExtension>
        </extensions>
      </trkpt>
      <trkpt lat="37.76536856777966022491455078125" lon="-107.70934143103659152984619140625">
        <ele>3766.199951171875</ele>
        <time>2023-07-29T17:32:59.000Z</time>
        <extensions>
          <ns3:TrackPointExtension>
            <ns3:hr>98</ns3:hr>
            <ns3:cad>0</ns3:cad>
          </ns3:TrackPointExtension>
        </extensions>
      </trkpt>
      <trkpt lat="37.7653679810464382171630859375" lon="-107.70933371968567371368408203125">
        <ele>3766.199951171875</ele>
        <time>2023-07-29T17:33:00.000Z</time>
        <extensions>
          <ns3:TrackPointExtension>
            <ns3:hr>98</ns3:hr>
            <ns3:cad>0</ns3:cad>
          </ns3:TrackPointExtension>
        </extensions>
      </trkpt>
      <trkpt lat="37.76536856777966022491455078125" lon="-107.70932869054377079010009765625">
        <ele>3766.199951171875</ele>
        <time>2023-07-29T17:33:01.000Z</time>
        <extensions>
          <ns3:TrackPointExtension>
            <ns3:hr>98</ns3:hr>
            <ns3:cad>0</ns3:cad>
          </ns3:TrackPointExtension>
        </extensions>
      </trkpt>
      <trkpt lat="37.7653656341135501861572265625" lon="-107.709325589239597320556640625">
        <ele>3766.199951171875</ele>
        <time>2023-07-29T17:33:02.000Z</time>
        <extensions>
          <ns3:TrackPointExtension>
            <ns3:hr>98</ns3:hr>
            <ns3:cad>0</ns3:cad>
          </ns3:TrackPointExtension>
        </extensions>
      </trkpt>
      <trkpt lat="37.76537124998867511749267578125" lon="-107.70932449959218502044677734375">
        <ele>3765.800048828125</ele>
        <time>2023-07-29T17:33:03.000Z</time>
        <extensions>
          <ns3:TrackPointExtension>
            <ns3:hr>98</ns3:hr>
            <ns3:cad>0</ns3:cad>
          </ns3:TrackPointExtension>
        </extensions>
      </trkpt>
      <trkpt lat="37.7653713338077068328857421875" lon="-107.70932014100253582000732421875">
        <ele>3765.800048828125</ele>
        <time>2023-07-29T17:33:04.000Z</time>
        <extensions>
          <ns3:TrackPointExtension>
            <ns3:hr>98</ns3:hr>
            <ns3:cad>0</ns3:cad>
          </ns3:TrackPointExtension>
        </extensions>
      </trkpt>
      <trkpt lat="37.7653723396360874176025390625" lon="-107.7093106694519519805908203125">
        <ele>3765.800048828125</ele>
        <time>2023-07-29T17:33:05.000Z</time>
        <extensions>
          <ns3:TrackPointExtension>
            <ns3:hr>98</ns3:hr>
            <ns3:cad>0</ns3:cad>
          </ns3:TrackPointExtension>
        </extensions>
      </trkpt>
      <trkpt lat="37.76537393219769001007080078125" lon="-107.70930605940520763397216796875">
        <ele>3765.60009765625</ele>
        <time>2023-07-29T17:33:06.000Z</time>
        <extensions>
          <ns3:TrackPointExtension>
            <ns3:hr>98</ns3:hr>
            <ns3:cad>0</ns3:cad>
          </ns3:TrackPointExtension>
        </extensions>
      </trkpt>
      <trkpt lat="37.76537594385445117950439453125" lon="-107.709306143224239349365234375">
        <ele>3765.39990234375</ele>
        <time>2023-07-29T17:33:07.000Z</time>
        <extensions>
          <ns3:TrackPointExtension>
            <ns3:hr>98</ns3:hr>
            <ns3:cad>0</ns3:cad>
          </ns3:TrackPointExtension>
        </extensions>
      </trkpt>
      <trkpt lat="37.76538130827248096466064453125" lon="-107.70930706523358821868896484375">
        <ele>3765.39990234375</ele>
        <time>2023-07-29T17:33:08.000Z</time>
        <extensions>
          <ns3:TrackPointExtension>
            <ns3:hr>98</ns3:hr>
            <ns3:cad>0</ns3:cad>
          </ns3:TrackPointExtension>
        </extensions>
      </trkpt>
      <trkpt lat="37.7653840743005275726318359375" lon="-107.70930924452841281890869140625">
        <ele>3765.39990234375</ele>
        <time>2023-07-29T17:33:09.000Z</time>
        <extensions>
          <ns3:TrackPointExtension>
            <ns3:hr>98</ns3:hr>
            <ns3:cad>0</ns3:cad>
          </ns3:TrackPointExtension>
        </extensions>
      </trkpt>
      <trkpt lat="37.7653770335018634796142578125" lon="-107.70930421538650989532470703125">
        <ele>3765.39990234375</ele>
        <time>2023-07-29T17:33:10.000Z</time>
        <extensions>
          <ns3:TrackPointExtension>
            <ns3:hr>98</ns3:hr>
            <ns3:cad>0</ns3:cad>
          </ns3:TrackPointExtension>
        </extensions>
      </trkpt>
      <trkpt lat="37.76537527330219745635986328125" lon="-107.70930371247231960296630859375">
        <ele>3765.199951171875</ele>
        <time>2023-07-29T17:33:11.000Z</time>
        <extensions>
          <ns3:TrackPointExtension>
            <ns3:hr>98</ns3:hr>
            <ns3:cad>0</ns3:cad>
          </ns3:TrackPointExtension>
        </extensions>
      </trkpt>
      <trkpt lat="37.76537443511188030242919921875" lon="-107.7093116752803325653076171875">
        <ele>3765</ele>
        <time>2023-07-29T17:33:12.000Z</time>
        <extensions>
          <ns3:TrackPointExtension>
            <ns3:hr>98</ns3:hr>
            <ns3:cad>0</ns3:cad>
          </ns3:TrackPointExtension>
        </extensions>
      </trkpt>
      <trkpt lat="37.7653696574270725250244140625" lon="-107.70931779406964778900146484375">
        <ele>3765</ele>
        <time>2023-07-29T17:33:13.000Z</time>
        <extensions>
          <ns3:TrackPointExtension>
            <ns3:hr>98</ns3:hr>
            <ns3:cad>0</ns3:cad>
          </ns3:TrackPointExtension>
        </extensions>
      </trkpt>
      <trkpt lat="37.76536278426647186279296875" lon="-107.70931595005095005035400390625">
        <ele>3764.800048828125</ele>
        <time>2023-07-29T17:33:14.000Z</time>
        <extensions>
          <ns3:TrackPointExtension>
            <ns3:hr>98</ns3:hr>
            <ns3:cad>0</ns3:cad>
          </ns3:TrackPointExtension>
        </extensions>
      </trkpt>
      <trkpt lat="37.7653562463819980621337890625" lon="-107.709313519299030303955078125">
        <ele>3764.60009765625</ele>
        <time>2023-07-29T17:33:15.000Z</time>
        <extensions>
          <ns3:TrackPointExtension>
            <ns3:hr>98</ns3:hr>
            <ns3:cad>0</ns3:cad>
          </ns3:TrackPointExtension>
        </extensions>
      </trkpt>
      <trkpt lat="37.76534643955528736114501953125" lon="-107.70931125618517398834228515625">
        <ele>3764.39990234375</ele>
        <time>2023-07-29T17:33:16.000Z</time>
        <extensions>
          <ns3:TrackPointExtension>
            <ns3:hr>99</ns3:hr>
            <ns3:cad>0</ns3:cad>
          </ns3:TrackPointExtension>
        </extensions>
      </trkpt>
      <trkpt lat="37.7653374709188938140869140625" lon="-107.7093123458325862884521484375">
        <ele>3764</ele>
        <time>2023-07-29T17:33:17.000Z</time>
        <extensions>
          <ns3:TrackPointExtension>
            <ns3:hr>99</ns3:hr>
            <ns3:cad>0</ns3:cad>
          </ns3:TrackPointExtension>
        </extensions>
      </trkpt>
      <trkpt lat="37.76533193886280059814453125" lon="-107.70931142382323741912841796875">
        <ele>3763.800048828125</ele>
        <time>2023-07-29T17:33:18.000Z</time>
        <extensions>
          <ns3:TrackPointExtension>
            <ns3:hr>98</ns3:hr>
            <ns3:cad>0</ns3:cad>
          </ns3:TrackPointExtension>
        </extensions>
      </trkpt>
      <trkpt lat="37.7653227187693119049072265625" lon="-107.709306813776493072509765625">
        <ele>3763.60009765625</ele>
        <time>2023-07-29T17:33:19.000Z</time>
        <extensions>
          <ns3:TrackPointExtension>
            <ns3:hr>98</ns3:hr>
            <ns3:cad>0</ns3:cad>
          </ns3:TrackPointExtension>
        </extensions>
      </trkpt>
      <trkpt lat="37.76531827636063098907470703125" lon="-107.70930337719619274139404296875">
        <ele>3763.39990234375</ele>
        <time>2023-07-29T17:33:20.000Z</time>
        <extensions>
          <ns3:TrackPointExtension>
            <ns3:hr>98</ns3:hr>
            <ns3:cad>0</ns3:cad>
          </ns3:TrackPointExtension>
        </extensions>
      </trkpt>
      <trkpt lat="37.76531576178967952728271484375" lon="-107.70929985679686069488525390625">
        <ele>3763</ele>
        <time>2023-07-29T17:33:21.000Z</time>
        <extensions>
          <ns3:TrackPointExtension>
            <ns3:hr>99</ns3:hr>
            <ns3:cad>0</ns3:cad>
          </ns3:TrackPointExtension>
        </extensions>
      </trkpt>
      <trkpt lat="37.76530888862907886505126953125" lon="-107.70929600112140178680419921875">
        <ele>3762.800048828125</ele>
        <time>2023-07-29T17:33:22.000Z</time>
        <extensions>
          <ns3:TrackPointExtension>
            <ns3:hr>99</ns3:hr>
            <ns3:cad>0</ns3:cad>
          </ns3:TrackPointExtension>
        </extensions>
      </trkpt>
      <trkpt lat="37.76530469767749309539794921875" lon="-107.70929164253175258636474609375">
        <ele>3762.60009765625</ele>
        <time>2023-07-29T17:33:23.000Z</time>
        <extensions>
          <ns3:TrackPointExtension>
            <ns3:hr>99</ns3:hr>
            <ns3:cad>0</ns3:cad>
          </ns3:TrackPointExtension>
        </extensions>
      </trkpt>
      <trkpt lat="37.76529262773692607879638671875" lon="-107.709278650581836700439453125">
        <ele>3762.39990234375</ele>
        <time>2023-07-29T17:33:24.000Z</time>
        <extensions>
          <ns3:TrackPointExtension>
            <ns3:hr>97</ns3:hr>
            <ns3:cad>0</ns3:cad>
          </ns3:TrackPointExtension>
        </extensions>
      </trkpt>
      <trkpt lat="37.7652905322611331939697265625" lon="-107.709270603954792022705078125">
        <ele>3762.199951171875</ele>
        <time>2023-07-29T17:33:25.000Z</time>
        <extensions>
          <ns3:TrackPointExtension>
            <ns3:hr>96</ns3:hr>
            <ns3:cad>0</ns3:cad>
          </ns3:TrackPointExtension>
        </extensions>
      </trkpt>
      <trkpt lat="37.76528977788984775543212890625" lon="-107.709263898432254791259765625">
        <ele>3762.199951171875</ele>
        <time>2023-07-29T17:33:26.000Z</time>
        <extensions>
          <ns3:TrackPointExtension>
            <ns3:hr>94</ns3:hr>
            <ns3:cad>0</ns3:cad>
          </ns3:TrackPointExtension>
        </extensions>
      </trkpt>
      <trkpt lat="37.76529170572757720947265625" lon="-107.709257192909717559814453125">
        <ele>3761.800048828125</ele>
        <time>2023-07-29T17:33:27.000Z</time>
        <extensions>
          <ns3:TrackPointExtension>
            <ns3:hr>93</ns3:hr>
            <ns3:cad>0</ns3:cad>
          </ns3:TrackPointExtension>
        </extensions>
      </trkpt>
      <trkpt lat="37.7652915380895137786865234375" lon="-107.7092442847788333892822265625">
        <ele>3761.800048828125</ele>
        <time>2023-07-29T17:33:28.000Z</time>
        <extensions>
          <ns3:TrackPointExtension>
            <ns3:hr>92</ns3:hr>
            <ns3:cad>0</ns3:cad>
          </ns3:TrackPointExtension>
        </extensions>
      </trkpt>
      <trkpt lat="37.76529598049819469451904296875" lon="-107.70924319513142108917236328125">
        <ele>3761.60009765625</ele>
        <time>2023-07-29T17:33:29.000Z</time>
        <extensions>
          <ns3:TrackPointExtension>
            <ns3:hr>92</ns3:hr>
            <ns3:cad>0</ns3:cad>
          </ns3:TrackPointExtension>
        </extensions>
      </trkpt>
      <trkpt lat="37.76529438793659210205078125" lon="-107.7092405967414379119873046875">
        <ele>3761.39990234375</ele>
        <time>2023-07-29T17:33:30.000Z</time>
        <extensions>
          <ns3:TrackPointExtension>
            <ns3:hr>92</ns3:hr>
            <ns3:cad>0</ns3:cad>
          </ns3:TrackPointExtension>
        </extensions>
      </trkpt>
      <trkpt lat="37.76529396884143352508544921875" lon="-107.70923933945596218109130859375">
        <ele>3761.39990234375</ele>
        <time>2023-07-29T17:33:31.000Z</time>
        <extensions>
          <ns3:TrackPointExtension>
            <ns3:hr>92</ns3:hr>
            <ns3:cad>0</ns3:cad>
          </ns3:TrackPointExtension>
        </extensions>
      </trkpt>
      <trkpt lat="37.765293382108211517333984375" lon="-107.70923816598951816558837890625">
        <ele>3761.39990234375</ele>
        <time>2023-07-29T17:33:32.000Z</time>
        <extensions>
          <ns3:TrackPointExtension>
            <ns3:hr>92</ns3:hr>
            <ns3:cad>0</ns3:cad>
          </ns3:TrackPointExtension>
        </extensions>
      </trkpt>
      <trkpt lat="37.76529296301305294036865234375" lon="-107.709239087998867034912109375">
        <ele>3761</ele>
        <time>2023-07-29T17:33:33.000Z</time>
        <extensions>
          <ns3:TrackPointExtension>
            <ns3:hr>92</ns3:hr>
            <ns3:cad>0</ns3:cad>
          </ns3:TrackPointExtension>
        </extensions>
      </trkpt>
      <trkpt lat="37.7652923762798309326171875" lon="-107.70923674106597900390625">
        <ele>3761</ele>
        <time>2023-07-29T17:33:34.000Z</time>
        <extensions>
          <ns3:TrackPointExtension>
            <ns3:hr>92</ns3:hr>
            <ns3:cad>0</ns3:cad>
          </ns3:TrackPointExtension>
        </extensions>
      </trkpt>
      <trkpt lat="37.76529195718467235565185546875" lon="-107.7092302031815052032470703125">
        <ele>3760.800048828125</ele>
        <time>2023-07-29T17:33:35.000Z</time>
        <extensions>
          <ns3:TrackPointExtension>
            <ns3:hr>92</ns3:hr>
            <ns3:cad>0</ns3:cad>
          </ns3:TrackPointExtension>
        </extensions>
      </trkpt>
      <trkpt lat="37.7652901969850063323974609375" lon="-107.7092271856963634490966796875">
        <ele>3760.60009765625</ele>
        <time>2023-07-29T17:33:36.000Z</time>
        <extensions>
          <ns3:TrackPointExtension>
            <ns3:hr>92</ns3:hr>
            <ns3:cad>0</ns3:cad>
          </ns3:TrackPointExtension>
        </extensions>
      </trkpt>
      <trkpt lat="37.76528910733759403228759765625" lon="-107.70922173745930194854736328125">
        <ele>3760.39990234375</ele>
        <time>2023-07-29T17:33:37.000Z</time>
        <extensions>
          <ns3:TrackPointExtension>
            <ns3:hr>92</ns3:hr>
            <ns3:cad>0</ns3:cad>
          </ns3:TrackPointExtension>
        </extensions>
      </trkpt>
      <trkpt lat="37.7652868442237377166748046875" lon="-107.70921821705996990203857421875">
        <ele>3760.199951171875</ele>
        <time>2023-07-29T17:33:38.000Z</time>
        <extensions>
          <ns3:TrackPointExtension>
            <ns3:hr>92</ns3:hr>
            <ns3:cad>44</ns3:cad>
          </ns3:TrackPointExtension>
        </extensions>
      </trkpt>
      <trkpt lat="37.7652841620147228240966796875" lon="-107.7092191390693187713623046875">
        <ele>3760.199951171875</ele>
        <time>2023-07-29T17:33:39.000Z</time>
        <extensions>
          <ns3:TrackPointExtension>
            <ns3:hr>92</ns3:hr>
            <ns3:cad>52</ns3:cad>
          </ns3:TrackPointExtension>
        </extensions>
      </trkpt>
      <trkpt lat="37.7652789652347564697265625" lon="-107.709217965602874755859375">
        <ele>3760</ele>
        <time>2023-07-29T17:33:40.000Z</time>
        <extensions>
          <ns3:TrackPointExtension>
            <ns3:hr>92</ns3:hr>
            <ns3:cad>52</ns3:cad>
          </ns3:TrackPointExtension>
        </extensions>
      </trkpt>
      <trkpt lat="37.765274606645107269287109375" lon="-107.7092171274125576019287109375">
        <ele>3759.800048828125</ele>
        <time>2023-07-29T17:33:41.000Z</time>
        <extensions>
          <ns3:TrackPointExtension>
            <ns3:hr>92</ns3:hr>
            <ns3:cad>52</ns3:cad>
          </ns3:TrackPointExtension>
        </extensions>
      </trkpt>
      <trkpt lat="37.76526999659836292266845703125" lon="-107.70921000279486179351806640625">
        <ele>3759.60009765625</ele>
        <time>2023-07-29T17:33:42.000Z</time>
        <extensions>
          <ns3:TrackPointExtension>
            <ns3:hr>92</ns3:hr>
            <ns3:cad>52</ns3:cad>
          </ns3:TrackPointExtension>
        </extensions>
      </trkpt>
      <trkpt lat="37.76526446454226970672607421875" lon="-107.7092053927481174468994140625">
        <ele>3759.39990234375</ele>
        <time>2023-07-29T17:33:43.000Z</time>
        <extensions>
          <ns3:TrackPointExtension>
            <ns3:hr>92</ns3:hr>
            <ns3:cad>52</ns3:cad>
          </ns3:TrackPointExtension>
        </extensions>
      </trkpt>
      <trkpt lat="37.76526446454226970672607421875" lon="-107.70921352319419384002685546875">
        <ele>3759.199951171875</ele>
        <time>2023-07-29T17:33:44.000Z</time>
        <extensions>
          <ns3:TrackPointExtension>
            <ns3:hr>91</ns3:hr>
            <ns3:cad>52</ns3:cad>
          </ns3:TrackPointExtension>
        </extensions>
      </trkpt>
      <trkpt lat="37.76526077650487422943115234375" lon="-107.70920899696648120880126953125">
        <ele>3759</ele>
        <time>2023-07-29T17:33:45.000Z</time>
        <extensions>
          <ns3:TrackPointExtension>
            <ns3:hr>91</ns3:hr>
            <ns3:cad>0</ns3:cad>
          </ns3:TrackPointExtension>
        </extensions>
      </trkpt>
      <trkpt lat="37.7652600221335887908935546875" lon="-107.709210254251956939697265625">
        <ele>3759</ele>
        <time>2023-07-29T17:33:46.000Z</time>
        <extensions>
          <ns3:TrackPointExtension>
            <ns3:hr>91</ns3:hr>
            <ns3:cad>0</ns3:cad>
          </ns3:TrackPointExtension>
        </extensions>
      </trkpt>
      <trkpt lat="37.76526220142841339111328125" lon="-107.7092157863080501556396484375">
        <ele>3758.800048828125</ele>
        <time>2023-07-29T17:33:47.000Z</time>
        <extensions>
          <ns3:TrackPointExtension>
            <ns3:hr>91</ns3:hr>
            <ns3:cad>0</ns3:cad>
          </ns3:TrackPointExtension>
        </extensions>
      </trkpt>
      <trkpt lat="37.765258848667144775390625" lon="-107.7092167921364307403564453125">
        <ele>3758.800048828125</ele>
        <time>2023-07-29T17:33:48.000Z</time>
        <extensions>
          <ns3:TrackPointExtension>
            <ns3:hr>91</ns3:hr>
            <ns3:cad>0</ns3:cad>
          </ns3:TrackPointExtension>
        </extensions>
      </trkpt>
      <trkpt lat="37.7652573399245738983154296875" lon="-107.7092167921364307403564453125">
        <ele>3758.60009765625</ele>
        <time>2023-07-29T17:33:49.000Z</time>
        <extensions>
          <ns3:TrackPointExtension>
            <ns3:hr>90</ns3:hr>
            <ns3:cad>0</ns3:cad>
          </ns3:TrackPointExtension>
        </extensions>
      </trkpt>
      <trkpt lat="37.765255831182003021240234375" lon="-107.70921469666063785552978515625">
        <ele>3758.39990234375</ele>
        <time>2023-07-29T17:33:50.000Z</time>
        <extensions>
          <ns3:TrackPointExtension>
            <ns3:hr>90</ns3:hr>
            <ns3:cad>53</ns3:cad>
          </ns3:TrackPointExtension>
        </extensions>
      </trkpt>
      <trkpt lat="37.765249796211719512939453125" lon="-107.70920924842357635498046875">
        <ele>3758.39990234375</ele>
        <time>2023-07-29T17:33:51.000Z</time>
        <extensions>
          <ns3:TrackPointExtension>
            <ns3:hr>90</ns3:hr>
            <ns3:cad>53</ns3:cad>
          </ns3:TrackPointExtension>
        </extensions>
      </trkpt>
      <trkpt lat="37.7652516402304172515869140625" lon="-107.70920656621456146240234375">
        <ele>3758.39990234375</ele>
        <time>2023-07-29T17:33:52.000Z</time>
        <extensions>
          <ns3:TrackPointExtension>
            <ns3:hr>90</ns3:hr>
            <ns3:cad>0</ns3:cad>
          </ns3:TrackPointExtension>
        </extensions>
      </trkpt>
      <trkpt lat="37.76524736545979976654052734375" lon="-107.70920011214911937713623046875">
        <ele>3758</ele>
        <time>2023-07-29T17:33:53.000Z</time>
        <extensions>
          <ns3:TrackPointExtension>
            <ns3:hr>90</ns3:hr>
            <ns3:cad>0</ns3:cad>
          </ns3:TrackPointExtension>
        </extensions>
      </trkpt>
      <trkpt lat="37.7652439288794994354248046875" lon="-107.70919776521623134613037109375">
        <ele>3757.800048828125</ele>
        <time>2023-07-29T17:33:54.000Z</time>
        <extensions>
          <ns3:TrackPointExtension>
            <ns3:hr>90</ns3:hr>
            <ns3:cad>0</ns3:cad>
          </ns3:TrackPointExtension>
        </extensions>
      </trkpt>
      <trkpt lat="37.76524401269853115081787109375" lon="-107.7091946639120578765869140625">
        <ele>3757.800048828125</ele>
        <time>2023-07-29T17:33:55.000Z</time>
        <extensions>
          <ns3:TrackPointExtension>
            <ns3:hr>90</ns3:hr>
            <ns3:cad>0</ns3:cad>
          </ns3:TrackPointExtension>
        </extensions>
      </trkpt>
      <trkpt lat="37.76525147259235382080078125" lon="-107.70919474773108959197998046875">
        <ele>3757.60009765625</ele>
        <time>2023-07-29T17:33:56.000Z</time>
        <extensions>
          <ns3:TrackPointExtension>
            <ns3:hr>91</ns3:hr>
            <ns3:cad>0</ns3:cad>
          </ns3:TrackPointExtension>
        </extensions>
      </trkpt>
      <trkpt lat="37.765255831182003021240234375" lon="-107.70919927395880222320556640625">
        <ele>3757.39990234375</ele>
        <time>2023-07-29T17:33:57.000Z</time>
        <extensions>
          <ns3:TrackPointExtension>
            <ns3:hr>91</ns3:hr>
            <ns3:cad>0</ns3:cad>
          </ns3:TrackPointExtension>
        </extensions>
      </trkpt>
      <trkpt lat="37.76526044122874736785888671875" lon="-107.7092030458152294158935546875">
        <ele>3757.39990234375</ele>
        <time>2023-07-29T17:33:58.000Z</time>
        <extensions>
          <ns3:TrackPointExtension>
            <ns3:hr>91</ns3:hr>
            <ns3:cad>0</ns3:cad>
          </ns3:TrackPointExtension>
        </extensions>
      </trkpt>
      <trkpt lat="37.76526144705712795257568359375" lon="-107.70920128561556339263916015625">
        <ele>3757.39990234375</ele>
        <time>2023-07-29T17:33:59.000Z</time>
        <extensions>
          <ns3:TrackPointExtension>
            <ns3:hr>92</ns3:hr>
            <ns3:cad>0</ns3:cad>
          </ns3:TrackPointExtension>
        </extensions>
      </trkpt>
      <trkpt lat="37.76526010595262050628662109375" lon="-107.70919709466397762298583984375">
        <ele>3757.39990234375</ele>
        <time>2023-07-29T17:34:00.000Z</time>
        <extensions>
          <ns3:TrackPointExtension>
            <ns3:hr>92</ns3:hr>
            <ns3:cad>0</ns3:cad>
          </ns3:TrackPointExtension>
        </extensions>
      </trkpt>
      <trkpt lat="37.765259183943271636962890625" lon="-107.70919055677950382232666015625">
        <ele>3757.39990234375</ele>
        <time>2023-07-29T17:34:01.000Z</time>
        <extensions>
          <ns3:TrackPointExtension>
            <ns3:hr>92</ns3:hr>
            <ns3:cad>0</ns3:cad>
          </ns3:TrackPointExtension>
        </extensions>
      </trkpt>
      <trkpt lat="37.76526127941906452178955078125" lon="-107.70918267779052257537841796875">
        <ele>3757</ele>
        <time>2023-07-29T17:34:02.000Z</time>
        <extensions>
          <ns3:TrackPointExtension>
            <ns3:hr>91</ns3:hr>
            <ns3:cad>0</ns3:cad>
          </ns3:TrackPointExtension>
        </extensions>
      </trkpt>
      <trkpt lat="37.76526513509452342987060546875" lon="-107.70916809327900409698486328125">
        <ele>3757</ele>
        <time>2023-07-29T17:34:03.000Z</time>
        <extensions>
          <ns3:TrackPointExtension>
            <ns3:hr>92</ns3:hr>
            <ns3:cad>0</ns3:cad>
          </ns3:TrackPointExtension>
        </extensions>
      </trkpt>
      <trkpt lat="37.76526798494160175323486328125" lon="-107.709155939519405364990234375">
        <ele>3757</ele>
        <time>2023-07-29T17:34:04.000Z</time>
        <extensions>
          <ns3:TrackPointExtension>
            <ns3:hr>92</ns3:hr>
            <ns3:cad>0</ns3:cad>
          </ns3:TrackPointExtension>
        </extensions>
      </trkpt>
      <trkpt lat="37.7652680687606334686279296875" lon="-107.70914847962558269500732421875">
        <ele>3756.800048828125</ele>
        <time>2023-07-29T17:34:05.000Z</time>
        <extensions>
          <ns3:TrackPointExtension>
            <ns3:hr>93</ns3:hr>
            <ns3:cad>0</ns3:cad>
          </ns3:TrackPointExtension>
        </extensions>
      </trkpt>
      <trkpt lat="37.76526697911322116851806640625" lon="-107.70914428867399692535400390625">
        <ele>3756.60009765625</ele>
        <time>2023-07-29T17:34:06.000Z</time>
        <extensions>
          <ns3:TrackPointExtension>
            <ns3:hr>93</ns3:hr>
            <ns3:cad>0</ns3:cad>
          </ns3:TrackPointExtension>
        </extensions>
      </trkpt>
      <trkpt lat="37.76526530273258686065673828125" lon="-107.70913741551339626312255859375">
        <ele>3756.39990234375</ele>
        <time>2023-07-29T17:34:07.000Z</time>
        <extensions>
          <ns3:TrackPointExtension>
            <ns3:hr>94</ns3:hr>
            <ns3:cad>0</ns3:cad>
          </ns3:TrackPointExtension>
        </extensions>
      </trkpt>
      <trkpt lat="37.76526530273258686065673828125" lon="-107.70913121290504932403564453125">
        <ele>3756.199951171875</ele>
        <time>2023-07-29T17:34:08.000Z</time>
        <extensions>
          <ns3:TrackPointExtension>
            <ns3:hr>94</ns3:hr>
            <ns3:cad>0</ns3:cad>
          </ns3:TrackPointExtension>
        </extensions>
      </trkpt>
      <trkpt lat="37.76526295579969882965087890625" lon="-107.70912232808768749237060546875">
        <ele>3756.199951171875</ele>
        <time>2023-07-29T17:34:09.000Z</time>
        <extensions>
          <ns3:TrackPointExtension>
            <ns3:hr>94</ns3:hr>
            <ns3:cad>0</ns3:cad>
          </ns3:TrackPointExtension>
        </extensions>
      </trkpt>
      <trkpt lat="37.765261195600032806396484375" lon="-107.70911562256515026092529296875">
        <ele>3756.199951171875</ele>
        <time>2023-07-29T17:34:10.000Z</time>
        <extensions>
          <ns3:TrackPointExtension>
            <ns3:hr>94</ns3:hr>
            <ns3:cad>0</ns3:cad>
          </ns3:TrackPointExtension>
        </extensions>
      </trkpt>
      <trkpt lat="37.76526111178100109100341796875" lon="-107.70911243744194507598876953125">
        <ele>3756</ele>
        <time>2023-07-29T17:34:11.000Z</time>
        <extensions>
          <ns3:TrackPointExtension>
            <ns3:hr>94</ns3:hr>
            <ns3:cad>0</ns3:cad>
          </ns3:TrackPointExtension>
        </extensions>
      </trkpt>
      <trkpt lat="37.765261866152286529541015625" lon="-107.70910908468067646026611328125">
        <ele>3756</ele>
        <time>2023-07-29T17:34:12.000Z</time>
        <extensions>
          <ns3:TrackPointExtension>
            <ns3:hr>94</ns3:hr>
            <ns3:cad>0</ns3:cad>
          </ns3:TrackPointExtension>
        </extensions>
      </trkpt>
      <trkpt lat="37.765262536704540252685546875" lon="-107.70910774357616901397705078125">
        <ele>3756</ele>
        <time>2023-07-29T17:34:13.000Z</time>
        <extensions>
          <ns3:TrackPointExtension>
            <ns3:hr>94</ns3:hr>
            <ns3:cad>0</ns3:cad>
          </ns3:TrackPointExtension>
        </extensions>
      </trkpt>
      <trkpt lat="37.76526111178100109100341796875" lon="-107.7091093361377716064453125">
        <ele>3756.199951171875</ele>
        <time>2023-07-29T17:34:14.000Z</time>
        <extensions>
          <ns3:TrackPointExtension>
            <ns3:hr>94</ns3:hr>
            <ns3:cad>0</ns3:cad>
          </ns3:TrackPointExtension>
        </extensions>
      </trkpt>
      <trkpt lat="37.76526086032390594482421875" lon="-107.7091168798506259918212890625">
        <ele>3756</ele>
        <time>2023-07-29T17:34:15.000Z</time>
        <extensions>
          <ns3:TrackPointExtension>
            <ns3:hr>93</ns3:hr>
            <ns3:cad>0</ns3:cad>
          </ns3:TrackPointExtension>
        </extensions>
      </trkpt>
      <trkpt lat="37.765261195600032806396484375" lon="-107.709117718040943145751953125">
        <ele>3756</ele>
        <time>2023-07-29T17:34:16.000Z</time>
        <extensions>
          <ns3:TrackPointExtension>
            <ns3:hr>93</ns3:hr>
            <ns3:cad>0</ns3:cad>
          </ns3:TrackPointExtension>
        </extensions>
      </trkpt>
      <trkpt lat="37.7652593515813350677490234375" lon="-107.7091215737164020538330078125">
        <ele>3756</ele>
        <time>2023-07-29T17:34:17.000Z</time>
        <extensions>
          <ns3:TrackPointExtension>
            <ns3:hr>93</ns3:hr>
            <ns3:cad>0</ns3:cad>
          </ns3:TrackPointExtension>
        </extensions>
      </trkpt>
      <trkpt lat="37.76525323279201984405517578125" lon="-107.709130458533763885498046875">
        <ele>3755.800048828125</ele>
        <time>2023-07-29T17:34:18.000Z</time>
        <extensions>
          <ns3:TrackPointExtension>
            <ns3:hr>93</ns3:hr>
            <ns3:cad>0</ns3:cad>
          </ns3:TrackPointExtension>
        </extensions>
      </trkpt>
      <trkpt lat="37.76525256223976612091064453125" lon="-107.7091326378285884857177734375">
        <ele>3755.60009765625</ele>
        <time>2023-07-29T17:34:19.000Z</time>
        <extensions>
          <ns3:TrackPointExtension>
            <ns3:hr>93</ns3:hr>
            <ns3:cad>0</ns3:cad>
          </ns3:TrackPointExtension>
        </extensions>
      </trkpt>
      <trkpt lat="37.76525055058300495147705078125" lon="-107.70913624204695224761962890625">
        <ele>3755.60009765625</ele>
        <time>2023-07-29T17:34:20.000Z</time>
        <extensions>
          <ns3:TrackPointExtension>
            <ns3:hr>93</ns3:hr>
            <ns3:cad>0</ns3:cad>
          </ns3:TrackPointExtension>
        </extensions>
      </trkpt>
      <trkpt lat="37.7652526460587978363037109375" lon="-107.7091343142092227935791015625">
        <ele>3755.60009765625</ele>
        <time>2023-07-29T17:34:21.000Z</time>
        <extensions>
          <ns3:TrackPointExtension>
            <ns3:hr>93</ns3:hr>
            <ns3:cad>0</ns3:cad>
          </ns3:TrackPointExtension>
        </extensions>
      </trkpt>
      <trkpt lat="37.7652494609355926513671875" lon="-107.7091359905898571014404296875">
        <ele>3755.60009765625</ele>
        <time>2023-07-29T17:34:22.000Z</time>
        <extensions>
          <ns3:TrackPointExtension>
            <ns3:hr>93</ns3:hr>
            <ns3:cad>0</ns3:cad>
          </ns3:TrackPointExtension>
        </extensions>
      </trkpt>
      <trkpt lat="37.76524719782173633575439453125" lon="-107.70913423039019107818603515625">
        <ele>3755.199951171875</ele>
        <time>2023-07-29T17:34:23.000Z</time>
        <extensions>
          <ns3:TrackPointExtension>
            <ns3:hr>93</ns3:hr>
            <ns3:cad>0</ns3:cad>
          </ns3:TrackPointExtension>
        </extensions>
      </trkpt>
      <trkpt lat="37.7652358822524547576904296875" lon="-107.7091307938098907470703125">
        <ele>3755</ele>
        <time>2023-07-29T17:34:24.000Z</time>
        <extensions>
          <ns3:TrackPointExtension>
            <ns3:hr>93</ns3:hr>
            <ns3:cad>0</ns3:cad>
          </ns3:TrackPointExtension>
        </extensions>
      </trkpt>
      <trkpt lat="37.7652295120060443878173828125" lon="-107.7091282792389392852783203125">
        <ele>3755</ele>
        <time>2023-07-29T17:34:25.000Z</time>
        <extensions>
          <ns3:TrackPointExtension>
            <ns3:hr>93</ns3:hr>
            <ns3:cad>0</ns3:cad>
          </ns3:TrackPointExtension>
        </extensions>
      </trkpt>
      <trkpt lat="37.76522574014961719512939453125" lon="-107.7091242559254169464111328125">
        <ele>3755</ele>
        <time>2023-07-29T17:34:26.000Z</time>
        <extensions>
          <ns3:TrackPointExtension>
            <ns3:hr>93</ns3:hr>
            <ns3:cad>0</ns3:cad>
          </ns3:TrackPointExtension>
        </extensions>
      </trkpt>
      <trkpt lat="37.76521769352257251739501953125" lon="-107.70910958759486675262451171875">
        <ele>3754.800048828125</ele>
        <time>2023-07-29T17:34:27.000Z</time>
        <extensions>
          <ns3:TrackPointExtension>
            <ns3:hr>93</ns3:hr>
            <ns3:cad>0</ns3:cad>
          </ns3:TrackPointExtension>
        </extensions>
      </trkpt>
      <trkpt lat="37.7652117423713207244873046875" lon="-107.709100283682346343994140625">
        <ele>3754.800048828125</ele>
        <time>2023-07-29T17:34:28.000Z</time>
        <extensions>
          <ns3:TrackPointExtension>
            <ns3:hr>93</ns3:hr>
            <ns3:cad>0</ns3:cad>
          </ns3:TrackPointExtension>
        </extensions>
      </trkpt>
      <trkpt lat="37.765211574733257293701171875" lon="-107.70909718237817287445068359375">
        <ele>3754.60009765625</ele>
        <time>2023-07-29T17:34:29.000Z</time>
        <extensions>
          <ns3:TrackPointExtension>
            <ns3:hr>93</ns3:hr>
            <ns3:cad>0</ns3:cad>
          </ns3:TrackPointExtension>
        </extensions>
      </trkpt>
      <trkpt lat="37.76521316729485988616943359375" lon="-107.70909869112074375152587890625">
        <ele>3754.39990234375</ele>
        <time>2023-07-29T17:34:30.000Z</time>
        <extensions>
          <ns3:TrackPointExtension>
            <ns3:hr>93</ns3:hr>
            <ns3:cad>0</ns3:cad>
          </ns3:TrackPointExtension>
        </extensions>
      </trkpt>
      <trkpt lat="37.76521568186581134796142578125" lon="-107.7091021277010440826416015625">
        <ele>3754.39990234375</ele>
        <time>2023-07-29T17:34:31.000Z</time>
        <extensions>
          <ns3:TrackPointExtension>
            <ns3:hr>93</ns3:hr>
            <ns3:cad>0</ns3:cad>
          </ns3:TrackPointExtension>
        </extensions>
      </trkpt>
      <trkpt lat="37.765222974121570587158203125" lon="-107.70911729894578456878662109375">
        <ele>3754.39990234375</ele>
        <time>2023-07-29T17:34:32.000Z</time>
        <extensions>
          <ns3:TrackPointExtension>
            <ns3:hr>93</ns3:hr>
            <ns3:cad>0</ns3:cad>
          </ns3:TrackPointExtension>
        </extensions>
      </trkpt>
      <trkpt lat="37.7652268297970294952392578125" lon="-107.709127105772495269775390625">
        <ele>3754.199951171875</ele>
        <time>2023-07-29T17:34:33.000Z</time>
        <extensions>
          <ns3:TrackPointExtension>
            <ns3:hr>93</ns3:hr>
            <ns3:cad>0</ns3:cad>
          </ns3:TrackPointExtension>
        </extensions>
      </trkpt>
      <trkpt lat="37.765231691300868988037109375" lon="-107.7091353200376033782958984375">
        <ele>3754</ele>
        <time>2023-07-29T17:34:34.000Z</time>
        <extensions>
          <ns3:TrackPointExtension>
            <ns3:hr>93</ns3:hr>
            <ns3:cad>0</ns3:cad>
          </ns3:TrackPointExtension>
        </extensions>
      </trkpt>
      <trkpt lat="37.76523043401539325714111328125" lon="-107.7091426961123943328857421875">
        <ele>3754</ele>
        <time>2023-07-29T17:34:35.000Z</time>
        <extensions>
          <ns3:TrackPointExtension>
            <ns3:hr>93</ns3:hr>
            <ns3:cad>0</ns3:cad>
          </ns3:TrackPointExtension>
        </extensions>
      </trkpt>
      <trkpt lat="37.76522540487349033355712890625" lon="-107.70914085209369659423828125">
        <ele>3753.800048828125</ele>
        <time>2023-07-29T17:34:36.000Z</time>
        <extensions>
          <ns3:TrackPointExtension>
            <ns3:hr>92</ns3:hr>
            <ns3:cad>0</ns3:cad>
          </ns3:TrackPointExtension>
        </extensions>
      </trkpt>
      <trkpt lat="37.76521719060838222503662109375" lon="-107.7091386727988719940185546875">
        <ele>3753.60009765625</ele>
        <time>2023-07-29T17:34:37.000Z</time>
        <extensions>
          <ns3:TrackPointExtension>
            <ns3:hr>92</ns3:hr>
            <ns3:cad>0</ns3:cad>
          </ns3:TrackPointExtension>
        </extensions>
      </trkpt>
      <trkpt lat="37.7652110718190670013427734375" lon="-107.70914043299853801727294921875">
        <ele>3753.60009765625</ele>
        <time>2023-07-29T17:34:38.000Z</time>
        <extensions>
          <ns3:TrackPointExtension>
            <ns3:hr>92</ns3:hr>
            <ns3:cad>0</ns3:cad>
          </ns3:TrackPointExtension>
        </extensions>
      </trkpt>
      <trkpt lat="37.7652065455913543701171875" lon="-107.70914487540721893310546875">
        <ele>3753.60009765625</ele>
        <time>2023-07-29T17:34:39.000Z</time>
        <extensions>
          <ns3:TrackPointExtension>
            <ns3:hr>92</ns3:hr>
            <ns3:cad>0</ns3:cad>
          </ns3:TrackPointExtension>
        </extensions>
      </trkpt>
      <trkpt lat="37.76519372127950191497802734375" lon="-107.70914755761623382568359375">
        <ele>3753.39990234375</ele>
        <time>2023-07-29T17:34:40.000Z</time>
        <extensions>
          <ns3:TrackPointExtension>
            <ns3:hr>92</ns3:hr>
            <ns3:cad>0</ns3:cad>
          </ns3:TrackPointExtension>
        </extensions>
      </trkpt>
      <trkpt lat="37.7651832439005374908447265625" lon="-107.70915334112942218780517578125">
        <ele>3753.39990234375</ele>
        <time>2023-07-29T17:34:41.000Z</time>
        <extensions>
          <ns3:TrackPointExtension>
            <ns3:hr>92</ns3:hr>
            <ns3:cad>0</ns3:cad>
          </ns3:TrackPointExtension>
        </extensions>
      </trkpt>
      <trkpt lat="37.7651782147586345672607421875" lon="-107.7091554366052150726318359375">
        <ele>3753.199951171875</ele>
        <time>2023-07-29T17:34:42.000Z</time>
        <extensions>
          <ns3:TrackPointExtension>
            <ns3:hr>93</ns3:hr>
            <ns3:cad>0</ns3:cad>
          </ns3:TrackPointExtension>
        </extensions>
      </trkpt>
      <trkpt lat="37.765175364911556243896484375" lon="-107.7091540955007076263427734375">
        <ele>3753</ele>
        <time>2023-07-29T17:34:43.000Z</time>
        <extensions>
          <ns3:TrackPointExtension>
            <ns3:hr>93</ns3:hr>
            <ns3:cad>0</ns3:cad>
          </ns3:TrackPointExtension>
        </extensions>
      </trkpt>
      <trkpt lat="37.7651671506464481353759765625" lon="-107.70914294756948947906494140625">
        <ele>3752.800048828125</ele>
        <time>2023-07-29T17:34:44.000Z</time>
        <extensions>
          <ns3:TrackPointExtension>
            <ns3:hr>93</ns3:hr>
            <ns3:cad>0</ns3:cad>
          </ns3:TrackPointExtension>
        </extensions>
      </trkpt>
      <trkpt lat="37.7651609480381011962890625" lon="-107.70913925953209400177001953125">
        <ele>3752.800048828125</ele>
        <time>2023-07-29T17:34:45.000Z</time>
        <extensions>
          <ns3:TrackPointExtension>
            <ns3:hr>93</ns3:hr>
            <ns3:cad>0</ns3:cad>
          </ns3:TrackPointExtension>
        </extensions>
      </trkpt>
      <trkpt lat="37.76515667326748371124267578125" lon="-107.70914244465529918670654296875">
        <ele>3752.39990234375</ele>
        <time>2023-07-29T17:34:46.000Z</time>
        <extensions>
          <ns3:TrackPointExtension>
            <ns3:hr>93</ns3:hr>
            <ns3:cad>0</ns3:cad>
          </ns3:TrackPointExtension>
        </extensions>
      </trkpt>
      <trkpt lat="37.7651537396013736724853515625" lon="-107.70914361812174320220947265625">
        <ele>3752.39990234375</ele>
        <time>2023-07-29T17:34:47.000Z</time>
        <extensions>
          <ns3:TrackPointExtension>
            <ns3:hr>94</ns3:hr>
            <ns3:cad>0</ns3:cad>
          </ns3:TrackPointExtension>
        </extensions>
      </trkpt>
      <trkpt lat="37.7651510573923587799072265625" lon="-107.7091447077691555023193359375">
        <ele>3752.39990234375</ele>
        <time>2023-07-29T17:34:48.000Z</time>
        <extensions>
          <ns3:TrackPointExtension>
            <ns3:hr>94</ns3:hr>
            <ns3:cad>0</ns3:cad>
          </ns3:TrackPointExtension>
        </extensions>
      </trkpt>
      <trkpt lat="37.765145860612392425537109375" lon="-107.70914428867399692535400390625">
        <ele>3752.39990234375</ele>
        <time>2023-07-29T17:34:49.000Z</time>
        <extensions>
          <ns3:TrackPointExtension>
            <ns3:hr>94</ns3:hr>
            <ns3:cad>0</ns3:cad>
          </ns3:TrackPointExtension>
        </extensions>
      </trkpt>
      <trkpt lat="37.7651430107653141021728515625" lon="-107.7091403491795063018798828125">
        <ele>3752.199951171875</ele>
        <time>2023-07-29T17:34:50.000Z</time>
        <extensions>
          <ns3:TrackPointExtension>
            <ns3:hr>94</ns3:hr>
            <ns3:cad>0</ns3:cad>
          </ns3:TrackPointExtension>
        </extensions>
      </trkpt>
      <trkpt lat="37.7651421725749969482421875" lon="-107.70913414657115936279296875">
        <ele>3752.199951171875</ele>
        <time>2023-07-29T17:34:51.000Z</time>
        <extensions>
          <ns3:TrackPointExtension>
            <ns3:hr>94</ns3:hr>
            <ns3:cad>0</ns3:cad>
          </ns3:TrackPointExtension>
        </extensions>
      </trkpt>
      <trkpt lat="37.76513756252825260162353515625" lon="-107.7091262675821781158447265625">
        <ele>3751.800048828125</ele>
        <time>2023-07-29T17:34:52.000Z</time>
        <extensions>
          <ns3:TrackPointExtension>
            <ns3:hr>95</ns3:hr>
            <ns3:cad>0</ns3:cad>
          </ns3:TrackPointExtension>
        </extensions>
      </trkpt>
      <trkpt lat="37.76513479650020599365234375" lon="-107.709123082458972930908203125">
        <ele>3751.800048828125</ele>
        <time>2023-07-29T17:34:53.000Z</time>
        <extensions>
          <ns3:TrackPointExtension>
            <ns3:hr>95</ns3:hr>
            <ns3:cad>63</ns3:cad>
          </ns3:TrackPointExtension>
        </extensions>
      </trkpt>
      <trkpt lat="37.7651322819292545318603515625" lon="-107.70911897532641887664794921875">
        <ele>3751.60009765625</ele>
        <time>2023-07-29T17:34:54.000Z</time>
        <extensions>
          <ns3:TrackPointExtension>
            <ns3:hr>94</ns3:hr>
            <ns3:cad>63</ns3:cad>
          </ns3:TrackPointExtension>
        </extensions>
      </trkpt>
      <trkpt lat="37.76512951590120792388916015625" lon="-107.70911729894578456878662109375">
        <ele>3751.39990234375</ele>
        <time>2023-07-29T17:34:55.000Z</time>
        <extensions>
          <ns3:TrackPointExtension>
            <ns3:hr>93</ns3:hr>
            <ns3:cad>63</ns3:cad>
          </ns3:TrackPointExtension>
        </extensions>
      </trkpt>
      <trkpt lat="37.7651252411305904388427734375" lon="-107.70911294035613536834716796875">
        <ele>3751.39990234375</ele>
        <time>2023-07-29T17:34:56.000Z</time>
        <extensions>
          <ns3:TrackPointExtension>
            <ns3:hr>93</ns3:hr>
            <ns3:cad>0</ns3:cad>
          </ns3:TrackPointExtension>
        </extensions>
      </trkpt>
      <trkpt lat="37.76512683369219303131103515625" lon="-107.70911511965095996856689453125">
        <ele>3751.199951171875</ele>
        <time>2023-07-29T17:34:57.000Z</time>
        <extensions>
          <ns3:TrackPointExtension>
            <ns3:hr>94</ns3:hr>
            <ns3:cad>0</ns3:cad>
          </ns3:TrackPointExtension>
        </extensions>
      </trkpt>
      <trkpt lat="37.76512415148317813873291015625" lon="-107.7091131918132305145263671875">
        <ele>3751</ele>
        <time>2023-07-29T17:34:58.000Z</time>
        <extensions>
          <ns3:TrackPointExtension>
            <ns3:hr>98</ns3:hr>
            <ns3:cad>0</ns3:cad>
          </ns3:TrackPointExtension>
        </extensions>
      </trkpt>
      <trkpt lat="37.76511895470321178436279296875" lon="-107.7091105096042156219482421875">
        <ele>3750.800048828125</ele>
        <time>2023-07-29T17:34:59.000Z</time>
        <extensions>
          <ns3:TrackPointExtension>
            <ns3:hr>98</ns3:hr>
            <ns3:cad>0</ns3:cad>
          </ns3:TrackPointExtension>
        </extensions>
      </trkpt>
      <trkpt lat="37.76511560194194316864013671875" lon="-107.70910874940454959869384765625">
        <ele>3750.60009765625</ele>
        <time>2023-07-29T17:35:00.000Z</time>
        <extensions>
          <ns3:TrackPointExtension>
            <ns3:hr>98</ns3:hr>
            <ns3:cad>0</ns3:cad>
          </ns3:TrackPointExtension>
        </extensions>
      </trkpt>
      <trkpt lat="37.76511057280004024505615234375" lon="-107.70910598337650299072265625">
        <ele>3750.39990234375</ele>
        <time>2023-07-29T17:35:01.000Z</time>
        <extensions>
          <ns3:TrackPointExtension>
            <ns3:hr>99</ns3:hr>
            <ns3:cad>0</ns3:cad>
          </ns3:TrackPointExtension>
        </extensions>
      </trkpt>
      <trkpt lat="37.76510939933359622955322265625" lon="-107.70910757593810558319091796875">
        <ele>3750.199951171875</ele>
        <time>2023-07-29T17:35:02.000Z</time>
        <extensions>
          <ns3:TrackPointExtension>
            <ns3:hr>99</ns3:hr>
            <ns3:cad>0</ns3:cad>
          </ns3:TrackPointExtension>
        </extensions>
      </trkpt>
      <trkpt lat="37.76510529220104217529296875" lon="-107.70910707302391529083251953125">
        <ele>3750</ele>
        <time>2023-07-29T17:35:03.000Z</time>
        <extensions>
          <ns3:TrackPointExtension>
            <ns3:hr>100</ns3:hr>
            <ns3:cad>0</ns3:cad>
          </ns3:TrackPointExtension>
        </extensions>
      </trkpt>
      <trkpt lat="37.76510872878134250640869140625" lon="-107.70910598337650299072265625">
        <ele>3749.800048828125</ele>
        <time>2023-07-29T17:35:04.000Z</time>
        <extensions>
          <ns3:TrackPointExtension>
            <ns3:hr>101</ns3:hr>
            <ns3:cad>0</ns3:cad>
          </ns3:TrackPointExtension>
        </extensions>
      </trkpt>
      <trkpt lat="37.7651073038578033447265625" lon="-107.70910338498651981353759765625">
        <ele>3749.60009765625</ele>
        <time>2023-07-29T17:35:05.000Z</time>
        <extensions>
          <ns3:TrackPointExtension>
            <ns3:hr>101</ns3:hr>
            <ns3:cad>0</ns3:cad>
          </ns3:TrackPointExtension>
        </extensions>
      </trkpt>
      <trkpt lat="37.765104286372661590576171875" lon="-107.70910372026264667510986328125">
        <ele>3749.39990234375</ele>
        <time>2023-07-29T17:35:06.000Z</time>
        <extensions>
          <ns3:TrackPointExtension>
            <ns3:hr>101</ns3:hr>
            <ns3:cad>0</ns3:cad>
          </ns3:TrackPointExtension>
        </extensions>
      </trkpt>
      <trkpt lat="37.76510235853493213653564453125" lon="-107.70910187624394893646240234375">
        <ele>3749.39990234375</ele>
        <time>2023-07-29T17:35:07.000Z</time>
        <extensions>
          <ns3:TrackPointExtension>
            <ns3:hr>101</ns3:hr>
            <ns3:cad>0</ns3:cad>
          </ns3:TrackPointExtension>
        </extensions>
      </trkpt>
      <trkpt lat="37.76509682647883892059326171875" lon="-107.7091048099100589752197265625">
        <ele>3749.199951171875</ele>
        <time>2023-07-29T17:35:08.000Z</time>
        <extensions>
          <ns3:TrackPointExtension>
            <ns3:hr>101</ns3:hr>
            <ns3:cad>0</ns3:cad>
          </ns3:TrackPointExtension>
        </extensions>
      </trkpt>
      <trkpt lat="37.7650912106037139892578125" lon="-107.70910330116748809814453125">
        <ele>3749</ele>
        <time>2023-07-29T17:35:09.000Z</time>
        <extensions>
          <ns3:TrackPointExtension>
            <ns3:hr>101</ns3:hr>
            <ns3:cad>0</ns3:cad>
          </ns3:TrackPointExtension>
        </extensions>
      </trkpt>
      <trkpt lat="37.765087187290191650390625" lon="-107.709102630615234375">
        <ele>3748.800048828125</ele>
        <time>2023-07-29T17:35:10.000Z</time>
        <extensions>
          <ns3:TrackPointExtension>
            <ns3:hr>100</ns3:hr>
            <ns3:cad>0</ns3:cad>
          </ns3:TrackPointExtension>
        </extensions>
      </trkpt>
      <trkpt lat="37.76507704518735408782958984375" lon="-107.70909634418785572052001953125">
        <ele>3748.800048828125</ele>
        <time>2023-07-29T17:35:11.000Z</time>
        <extensions>
          <ns3:TrackPointExtension>
            <ns3:hr>100</ns3:hr>
            <ns3:cad>0</ns3:cad>
          </ns3:TrackPointExtension>
        </extensions>
      </trkpt>
      <trkpt lat="37.76506950147449970245361328125" lon="-107.70909617654979228973388671875">
        <ele>3748.60009765625</ele>
        <time>2023-07-29T17:35:12.000Z</time>
        <extensions>
          <ns3:TrackPointExtension>
            <ns3:hr>101</ns3:hr>
            <ns3:cad>0</ns3:cad>
          </ns3:TrackPointExtension>
        </extensions>
      </trkpt>
      <trkpt lat="37.765059359371662139892578125" lon="-107.70909433253109455108642578125">
        <ele>3748.39990234375</ele>
        <time>2023-07-29T17:35:13.000Z</time>
        <extensions>
          <ns3:TrackPointExtension>
            <ns3:hr>101</ns3:hr>
            <ns3:cad>0</ns3:cad>
          </ns3:TrackPointExtension>
        </extensions>
      </trkpt>
      <trkpt lat="37.76505474932491779327392578125" lon="-107.70909257233142852783203125">
        <ele>3748.39990234375</ele>
        <time>2023-07-29T17:35:14.000Z</time>
        <extensions>
          <ns3:TrackPointExtension>
            <ns3:hr>100</ns3:hr>
            <ns3:cad>0</ns3:cad>
          </ns3:TrackPointExtension>
        </extensions>
      </trkpt>
      <trkpt lat="37.7650484628975391387939453125" lon="-107.70908980630338191986083984375">
        <ele>3748.199951171875</ele>
        <time>2023-07-29T17:35:15.000Z</time>
        <extensions>
          <ns3:TrackPointExtension>
            <ns3:hr>100</ns3:hr>
            <ns3:cad>0</ns3:cad>
          </ns3:TrackPointExtension>
        </extensions>
      </trkpt>
      <trkpt lat="37.765047959983348846435546875" lon="-107.70908586680889129638671875">
        <ele>3748</ele>
        <time>2023-07-29T17:35:16.000Z</time>
        <extensions>
          <ns3:TrackPointExtension>
            <ns3:hr>100</ns3:hr>
            <ns3:cad>0</ns3:cad>
          </ns3:TrackPointExtension>
        </extensions>
      </trkpt>
      <trkpt lat="37.7650394104421138763427734375" lon="-107.709078826010227203369140625">
        <ele>3747.800048828125</ele>
        <time>2023-07-29T17:35:17.000Z</time>
        <extensions>
          <ns3:TrackPointExtension>
            <ns3:hr>100</ns3:hr>
            <ns3:cad>0</ns3:cad>
          </ns3:TrackPointExtension>
        </extensions>
      </trkpt>
      <trkpt lat="37.765035890042781829833984375" lon="-107.70907455123960971832275390625">
        <ele>3747.39990234375</ele>
        <time>2023-07-29T17:35:18.000Z</time>
        <extensions>
          <ns3:TrackPointExtension>
            <ns3:hr>99</ns3:hr>
            <ns3:cad>0</ns3:cad>
          </ns3:TrackPointExtension>
        </extensions>
      </trkpt>
      <trkpt lat="37.765031866729259490966796875" lon="-107.70906952209770679473876953125">
        <ele>3747.199951171875</ele>
        <time>2023-07-29T17:35:19.000Z</time>
        <extensions>
          <ns3:TrackPointExtension>
            <ns3:hr>99</ns3:hr>
            <ns3:cad>0</ns3:cad>
          </ns3:TrackPointExtension>
        </extensions>
      </trkpt>
      <trkpt lat="37.76502558030188083648681640625" lon="-107.70906281657516956329345703125">
        <ele>3747.199951171875</ele>
        <time>2023-07-29T17:35:20.000Z</time>
        <extensions>
          <ns3:TrackPointExtension>
            <ns3:hr>99</ns3:hr>
            <ns3:cad>0</ns3:cad>
          </ns3:TrackPointExtension>
        </extensions>
      </trkpt>
      <trkpt lat="37.76502348482608795166015625" lon="-107.709058709442615509033203125">
        <ele>3747</ele>
        <time>2023-07-29T17:35:21.000Z</time>
        <extensions>
          <ns3:TrackPointExtension>
            <ns3:hr>99</ns3:hr>
            <ns3:cad>0</ns3:cad>
          </ns3:TrackPointExtension>
        </extensions>
      </trkpt>
      <trkpt lat="37.76501786895096302032470703125" lon="-107.70905091427266597747802734375">
        <ele>3746.800048828125</ele>
        <time>2023-07-29T17:35:22.000Z</time>
        <extensions>
          <ns3:TrackPointExtension>
            <ns3:hr>99</ns3:hr>
            <ns3:cad>0</ns3:cad>
          </ns3:TrackPointExtension>
        </extensions>
      </trkpt>
      <trkpt lat="37.76502155698835849761962890625" lon="-107.70904940553009510040283203125">
        <ele>3746.60009765625</ele>
        <time>2023-07-29T17:35:23.000Z</time>
        <extensions>
          <ns3:TrackPointExtension>
            <ns3:hr>99</ns3:hr>
            <ns3:cad>0</ns3:cad>
          </ns3:TrackPointExtension>
        </extensions>
      </trkpt>
      <trkpt lat="37.76502189226448535919189453125" lon="-107.7090484835207462310791015625">
        <ele>3746.39990234375</ele>
        <time>2023-07-29T17:35:24.000Z</time>
        <extensions>
          <ns3:TrackPointExtension>
            <ns3:hr>99</ns3:hr>
            <ns3:cad>0</ns3:cad>
          </ns3:TrackPointExtension>
        </extensions>
      </trkpt>
      <trkpt lat="37.765027843415737152099609375" lon="-107.70905057899653911590576171875">
        <ele>3746.199951171875</ele>
        <time>2023-07-29T17:35:25.000Z</time>
        <extensions>
          <ns3:TrackPointExtension>
            <ns3:hr>99</ns3:hr>
            <ns3:cad>0</ns3:cad>
          </ns3:TrackPointExtension>
        </extensions>
      </trkpt>
      <trkpt lat="37.765033543109893798828125" lon="-107.70905292592942714691162109375">
        <ele>3745.800048828125</ele>
        <time>2023-07-29T17:35:26.000Z</time>
        <extensions>
          <ns3:TrackPointExtension>
            <ns3:hr>100</ns3:hr>
            <ns3:cad>0</ns3:cad>
          </ns3:TrackPointExtension>
        </extensions>
      </trkpt>
      <trkpt lat="37.76502876542508602142333984375" lon="-107.7090491540729999542236328125">
        <ele>3745.39990234375</ele>
        <time>2023-07-29T17:35:27.000Z</time>
        <extensions>
          <ns3:TrackPointExtension>
            <ns3:hr>100</ns3:hr>
            <ns3:cad>0</ns3:cad>
          </ns3:TrackPointExtension>
        </extensions>
      </trkpt>
      <trkpt lat="37.765021808445453643798828125" lon="-107.70904697477817535400390625">
        <ele>3745.39990234375</ele>
        <time>2023-07-29T17:35:28.000Z</time>
        <extensions>
          <ns3:TrackPointExtension>
            <ns3:hr>100</ns3:hr>
            <ns3:cad>0</ns3:cad>
          </ns3:TrackPointExtension>
        </extensions>
      </trkpt>
      <trkpt lat="37.765012085437774658203125" lon="-107.70904202945530414581298828125">
        <ele>3745.199951171875</ele>
        <time>2023-07-29T17:35:29.000Z</time>
        <extensions>
          <ns3:TrackPointExtension>
            <ns3:hr>100</ns3:hr>
            <ns3:cad>0</ns3:cad>
          </ns3:TrackPointExtension>
        </extensions>
      </trkpt>
      <trkpt lat="37.765009738504886627197265625" lon="-107.70903892815113067626953125">
        <ele>3745.199951171875</ele>
        <time>2023-07-29T17:35:30.000Z</time>
        <extensions>
          <ns3:TrackPointExtension>
            <ns3:hr>100</ns3:hr>
            <ns3:cad>0</ns3:cad>
          </ns3:TrackPointExtension>
        </extensions>
      </trkpt>
      <trkpt lat="37.76500814594328403472900390625" lon="-107.70903767086565494537353515625">
        <ele>3745.199951171875</ele>
        <time>2023-07-29T17:35:31.000Z</time>
        <extensions>
          <ns3:TrackPointExtension>
            <ns3:hr>100</ns3:hr>
            <ns3:cad>0</ns3:cad>
          </ns3:TrackPointExtension>
        </extensions>
      </trkpt>
      <trkpt lat="37.76499892584979534149169921875" lon="-107.70903381519019603729248046875">
        <ele>3745.199951171875</ele>
        <time>2023-07-29T17:35:32.000Z</time>
        <extensions>
          <ns3:TrackPointExtension>
            <ns3:hr>100</ns3:hr>
            <ns3:cad>0</ns3:cad>
          </ns3:TrackPointExtension>
        </extensions>
      </trkpt>
      <trkpt lat="37.76500227861106395721435546875" lon="-107.70903029479086399078369140625">
        <ele>3745.199951171875</ele>
        <time>2023-07-29T17:35:33.000Z</time>
        <extensions>
          <ns3:TrackPointExtension>
            <ns3:hr>100</ns3:hr>
            <ns3:cad>0</ns3:cad>
          </ns3:TrackPointExtension>
        </extensions>
      </trkpt>
      <trkpt lat="37.76500127278268337249755859375" lon="-107.70902710966765880584716796875">
        <ele>3745</ele>
        <time>2023-07-29T17:35:34.000Z</time>
        <extensions>
          <ns3:TrackPointExtension>
            <ns3:hr>101</ns3:hr>
            <ns3:cad>0</ns3:cad>
          </ns3:TrackPointExtension>
        </extensions>
      </trkpt>
      <trkpt lat="37.7649981714785099029541015625" lon="-107.7090256847441196441650390625">
        <ele>3744.800048828125</ele>
        <time>2023-07-29T17:35:35.000Z</time>
        <extensions>
          <ns3:TrackPointExtension>
            <ns3:hr>101</ns3:hr>
            <ns3:cad>0</ns3:cad>
          </ns3:TrackPointExtension>
        </extensions>
      </trkpt>
      <trkpt lat="37.7649948187172412872314453125" lon="-107.709021158516407012939453125">
        <ele>3744.60009765625</ele>
        <time>2023-07-29T17:35:36.000Z</time>
        <extensions>
          <ns3:TrackPointExtension>
            <ns3:hr>101</ns3:hr>
            <ns3:cad>0</ns3:cad>
          </ns3:TrackPointExtension>
        </extensions>
      </trkpt>
      <trkpt lat="37.76498937048017978668212890625" lon="-107.7090162970125675201416015625">
        <ele>3744.39990234375</ele>
        <time>2023-07-29T17:35:37.000Z</time>
        <extensions>
          <ns3:TrackPointExtension>
            <ns3:hr>101</ns3:hr>
            <ns3:cad>0</ns3:cad>
          </ns3:TrackPointExtension>
        </extensions>
      </trkpt>
      <trkpt lat="37.7649807371199131011962890625" lon="-107.709009088575839996337890625">
        <ele>3744.39990234375</ele>
        <time>2023-07-29T17:35:38.000Z</time>
        <extensions>
          <ns3:TrackPointExtension>
            <ns3:hr>101</ns3:hr>
            <ns3:cad>0</ns3:cad>
          </ns3:TrackPointExtension>
        </extensions>
      </trkpt>
      <trkpt lat="37.7649758756160736083984375" lon="-107.70901051349937915802001953125">
        <ele>3744</ele>
        <time>2023-07-29T17:35:39.000Z</time>
        <extensions>
          <ns3:TrackPointExtension>
            <ns3:hr>101</ns3:hr>
            <ns3:cad>0</ns3:cad>
          </ns3:TrackPointExtension>
        </extensions>
      </trkpt>
      <trkpt lat="37.76497243903577327728271484375" lon="-107.70901353098452091217041015625">
        <ele>3743.800048828125</ele>
        <time>2023-07-29T17:35:40.000Z</time>
        <extensions>
          <ns3:TrackPointExtension>
            <ns3:hr>100</ns3:hr>
            <ns3:cad>0</ns3:cad>
          </ns3:TrackPointExtension>
        </extensions>
      </trkpt>
      <trkpt lat="37.76496891863644123077392578125" lon="-107.70901478826999664306640625">
        <ele>3743.60009765625</ele>
        <time>2023-07-29T17:35:41.000Z</time>
        <extensions>
          <ns3:TrackPointExtension>
            <ns3:hr>100</ns3:hr>
            <ns3:cad>0</ns3:cad>
          </ns3:TrackPointExtension>
        </extensions>
      </trkpt>
      <trkpt lat="37.7649636380374431610107421875" lon="-107.709014452993869781494140625">
        <ele>3743.39990234375</ele>
        <time>2023-07-29T17:35:42.000Z</time>
        <extensions>
          <ns3:TrackPointExtension>
            <ns3:hr>99</ns3:hr>
            <ns3:cad>0</ns3:cad>
          </ns3:TrackPointExtension>
        </extensions>
      </trkpt>
      <trkpt lat="37.76495986618101596832275390625" lon="-107.70901252515614032745361328125">
        <ele>3743.199951171875</ele>
        <time>2023-07-29T17:35:43.000Z</time>
        <extensions>
          <ns3:TrackPointExtension>
            <ns3:hr>99</ns3:hr>
            <ns3:cad>18</ns3:cad>
          </ns3:TrackPointExtension>
        </extensions>
      </trkpt>
      <trkpt lat="37.76495567522943019866943359375" lon="-107.709013782441616058349609375">
        <ele>3743</ele>
        <time>2023-07-29T17:35:44.000Z</time>
        <extensions>
          <ns3:TrackPointExtension>
            <ns3:hr>98</ns3:hr>
            <ns3:cad>18</ns3:cad>
          </ns3:TrackPointExtension>
        </extensions>
      </trkpt>
      <trkpt lat="37.76494930498301982879638671875" lon="-107.70900749601423740386962890625">
        <ele>3742.800048828125</ele>
        <time>2023-07-29T17:35:45.000Z</time>
        <extensions>
          <ns3:TrackPointExtension>
            <ns3:hr>99</ns3:hr>
            <ns3:cad>18</ns3:cad>
          </ns3:TrackPointExtension>
        </extensions>
      </trkpt>
      <trkpt lat="37.764943353831768035888671875" lon="-107.709003388881683349609375">
        <ele>3742.60009765625</ele>
        <time>2023-07-29T17:35:46.000Z</time>
        <extensions>
          <ns3:TrackPointExtension>
            <ns3:hr>101</ns3:hr>
            <ns3:cad>18</ns3:cad>
          </ns3:TrackPointExtension>
        </extensions>
      </trkpt>
      <trkpt lat="37.7649344690144062042236328125" lon="-107.7089961804449558258056640625">
        <ele>3742.39990234375</ele>
        <time>2023-07-29T17:35:47.000Z</time>
        <extensions>
          <ns3:TrackPointExtension>
            <ns3:hr>102</ns3:hr>
            <ns3:cad>0</ns3:cad>
          </ns3:TrackPointExtension>
        </extensions>
      </trkpt>
      <trkpt lat="37.76492692530155181884765625" lon="-107.7089841105043888092041015625">
        <ele>3742.199951171875</ele>
        <time>2023-07-29T17:35:48.000Z</time>
        <extensions>
          <ns3:TrackPointExtension>
            <ns3:hr>101</ns3:hr>
            <ns3:cad>0</ns3:cad>
          </ns3:TrackPointExtension>
        </extensions>
      </trkpt>
      <trkpt lat="37.764919884502887725830078125" lon="-107.7089743874967098236083984375">
        <ele>3742</ele>
        <time>2023-07-29T17:35:49.000Z</time>
        <extensions>
          <ns3:TrackPointExtension>
            <ns3:hr>101</ns3:hr>
            <ns3:cad>0</ns3:cad>
          </ns3:TrackPointExtension>
        </extensions>
      </trkpt>
      <trkpt lat="37.76491527445614337921142578125" lon="-107.7089636586606502532958984375">
        <ele>3741.800048828125</ele>
        <time>2023-07-29T17:35:50.000Z</time>
        <extensions>
          <ns3:TrackPointExtension>
            <ns3:hr>100</ns3:hr>
            <ns3:cad>0</ns3:cad>
          </ns3:TrackPointExtension>
        </extensions>
      </trkpt>
      <trkpt lat="37.7649086527526378631591796875" lon="-107.70895385183393955230712890625">
        <ele>3741.60009765625</ele>
        <time>2023-07-29T17:35:51.000Z</time>
        <extensions>
          <ns3:TrackPointExtension>
            <ns3:hr>100</ns3:hr>
            <ns3:cad>0</ns3:cad>
          </ns3:TrackPointExtension>
        </extensions>
      </trkpt>
      <trkpt lat="37.76490337215363979339599609375" lon="-107.7089457213878631591796875">
        <ele>3741.39990234375</ele>
        <time>2023-07-29T17:35:52.000Z</time>
        <extensions>
          <ns3:TrackPointExtension>
            <ns3:hr>101</ns3:hr>
            <ns3:cad>0</ns3:cad>
          </ns3:TrackPointExtension>
        </extensions>
      </trkpt>
      <trkpt lat="37.76489448733627796173095703125" lon="-107.7089358307421207427978515625">
        <ele>3741.199951171875</ele>
        <time>2023-07-29T17:35:53.000Z</time>
        <extensions>
          <ns3:TrackPointExtension>
            <ns3:hr>101</ns3:hr>
            <ns3:cad>0</ns3:cad>
          </ns3:TrackPointExtension>
        </extensions>
      </trkpt>
      <trkpt lat="37.7648875303566455841064453125" lon="-107.7089318074285984039306640625">
        <ele>3741</ele>
        <time>2023-07-29T17:35:54.000Z</time>
        <extensions>
          <ns3:TrackPointExtension>
            <ns3:hr>100</ns3:hr>
            <ns3:cad>0</ns3:cad>
          </ns3:TrackPointExtension>
        </extensions>
      </trkpt>
      <trkpt lat="37.7648846805095672607421875" lon="-107.70892761647701263427734375">
        <ele>3740.800048828125</ele>
        <time>2023-07-29T17:35:55.000Z</time>
        <extensions>
          <ns3:TrackPointExtension>
            <ns3:hr>99</ns3:hr>
            <ns3:cad>0</ns3:cad>
          </ns3:TrackPointExtension>
        </extensions>
      </trkpt>
      <trkpt lat="37.7648801542818546295166015625" lon="-107.70891998894512653350830078125">
        <ele>3740.60009765625</ele>
        <time>2023-07-29T17:35:56.000Z</time>
        <extensions>
          <ns3:TrackPointExtension>
            <ns3:hr>99</ns3:hr>
            <ns3:cad>0</ns3:cad>
          </ns3:TrackPointExtension>
        </extensions>
      </trkpt>
      <trkpt lat="37.76488224975764751434326171875" lon="-107.70891797728836536407470703125">
        <ele>3740.60009765625</ele>
        <time>2023-07-29T17:35:57.000Z</time>
        <extensions>
          <ns3:TrackPointExtension>
            <ns3:hr>99</ns3:hr>
            <ns3:cad>0</ns3:cad>
          </ns3:TrackPointExtension>
        </extensions>
      </trkpt>
      <trkpt lat="37.76487872935831546783447265625" lon="-107.70891462452709674835205078125">
        <ele>3740.60009765625</ele>
        <time>2023-07-29T17:35:58.000Z</time>
        <extensions>
          <ns3:TrackPointExtension>
            <ns3:hr>99</ns3:hr>
            <ns3:cad>0</ns3:cad>
          </ns3:TrackPointExtension>
        </extensions>
      </trkpt>
      <trkpt lat="37.76487822644412517547607421875" lon="-107.70891412161290645599365234375">
        <ele>3740.199951171875</ele>
        <time>2023-07-29T17:35:59.000Z</time>
        <extensions>
          <ns3:TrackPointExtension>
            <ns3:hr>99</ns3:hr>
            <ns3:cad>0</ns3:cad>
          </ns3:TrackPointExtension>
        </extensions>
      </trkpt>
      <trkpt lat="37.76487554423511028289794921875" lon="-107.70891227759420871734619140625">
        <ele>3739.800048828125</ele>
        <time>2023-07-29T17:36:00.000Z</time>
        <extensions>
          <ns3:TrackPointExtension>
            <ns3:hr>99</ns3:hr>
            <ns3:cad>0</ns3:cad>
          </ns3:TrackPointExtension>
        </extensions>
      </trkpt>
      <trkpt lat="37.7648757956922054290771484375" lon="-107.70890993066132068634033203125">
        <ele>3739.39990234375</ele>
        <time>2023-07-29T17:36:01.000Z</time>
        <extensions>
          <ns3:TrackPointExtension>
            <ns3:hr>99</ns3:hr>
            <ns3:cad>0</ns3:cad>
          </ns3:TrackPointExtension>
        </extensions>
      </trkpt>
      <trkpt lat="37.7648699283599853515625" lon="-107.70890079438686370849609375">
        <ele>3739.199951171875</ele>
        <time>2023-07-29T17:36:02.000Z</time>
        <extensions>
          <ns3:TrackPointExtension>
            <ns3:hr>98</ns3:hr>
            <ns3:cad>0</ns3:cad>
          </ns3:TrackPointExtension>
        </extensions>
      </trkpt>
      <trkpt lat="37.7648712694644927978515625" lon="-107.70890104584395885467529296875">
        <ele>3739</ele>
        <time>2023-07-29T17:36:03.000Z</time>
        <extensions>
          <ns3:TrackPointExtension>
            <ns3:hr>98</ns3:hr>
            <ns3:cad>0</ns3:cad>
          </ns3:TrackPointExtension>
        </extensions>
      </trkpt>
      <trkpt lat="37.7648650668561458587646484375" lon="-107.70889853127300739288330078125">
        <ele>3738.800048828125</ele>
        <time>2023-07-29T17:36:04.000Z</time>
        <extensions>
          <ns3:TrackPointExtension>
            <ns3:hr>98</ns3:hr>
            <ns3:cad>0</ns3:cad>
          </ns3:TrackPointExtension>
        </extensions>
      </trkpt>
      <trkpt lat="37.7648580260574817657470703125" lon="-107.708895094692707061767578125">
        <ele>3738.39990234375</ele>
        <time>2023-07-29T17:36:05.000Z</time>
        <extensions>
          <ns3:TrackPointExtension>
            <ns3:hr>98</ns3:hr>
            <ns3:cad>0</ns3:cad>
          </ns3:TrackPointExtension>
        </extensions>
      </trkpt>
      <trkpt lat="37.7648526616394519805908203125" lon="-107.7088982798159122467041015625">
        <ele>3738.199951171875</ele>
        <time>2023-07-29T17:36:06.000Z</time>
        <extensions>
          <ns3:TrackPointExtension>
            <ns3:hr>98</ns3:hr>
            <ns3:cad>0</ns3:cad>
          </ns3:TrackPointExtension>
        </extensions>
      </trkpt>
      <trkpt lat="37.764842770993709564208984375" lon="-107.7088888920843601226806640625">
        <ele>3738</ele>
        <time>2023-07-29T17:36:07.000Z</time>
        <extensions>
          <ns3:TrackPointExtension>
            <ns3:hr>98</ns3:hr>
            <ns3:cad>0</ns3:cad>
          </ns3:TrackPointExtension>
        </extensions>
      </trkpt>
      <trkpt lat="37.7648348920047283172607421875" lon="-107.70888268947601318359375">
        <ele>3737.800048828125</ele>
        <time>2023-07-29T17:36:08.000Z</time>
        <extensions>
          <ns3:TrackPointExtension>
            <ns3:hr>98</ns3:hr>
            <ns3:cad>0</ns3:cad>
          </ns3:TrackPointExtension>
        </extensions>
      </trkpt>
      <trkpt lat="37.76482827030122280120849609375" lon="-107.70887707360088825225830078125">
        <ele>3737.39990234375</ele>
        <time>2023-07-29T17:36:09.000Z</time>
        <extensions>
          <ns3:TrackPointExtension>
            <ns3:hr>99</ns3:hr>
            <ns3:cad>0</ns3:cad>
          </ns3:TrackPointExtension>
        </extensions>
      </trkpt>
      <trkpt lat="37.76482072658836841583251953125" lon="-107.70886860787868499755859375">
        <ele>3737.199951171875</ele>
        <time>2023-07-29T17:36:10.000Z</time>
        <extensions>
          <ns3:TrackPointExtension>
            <ns3:hr>99</ns3:hr>
            <ns3:cad>0</ns3:cad>
          </ns3:TrackPointExtension>
        </extensions>
      </trkpt>
      <trkpt lat="37.7648164518177509307861328125" lon="-107.708862908184528350830078125">
        <ele>3737</ele>
        <time>2023-07-29T17:36:11.000Z</time>
        <extensions>
          <ns3:TrackPointExtension>
            <ns3:hr>99</ns3:hr>
            <ns3:cad>0</ns3:cad>
          </ns3:TrackPointExtension>
        </extensions>
      </trkpt>
      <trkpt lat="37.7648144401609897613525390625" lon="-107.7088625729084014892578125">
        <ele>3736.60009765625</ele>
        <time>2023-07-29T17:36:12.000Z</time>
        <extensions>
          <ns3:TrackPointExtension>
            <ns3:hr>99</ns3:hr>
            <ns3:cad>0</ns3:cad>
          </ns3:TrackPointExtension>
        </extensions>
      </trkpt>
      <trkpt lat="37.764813601970672607421875" lon="-107.70886324346065521240234375">
        <ele>3736.39990234375</ele>
        <time>2023-07-29T17:36:13.000Z</time>
        <extensions>
          <ns3:TrackPointExtension>
            <ns3:hr>98</ns3:hr>
            <ns3:cad>0</ns3:cad>
          </ns3:TrackPointExtension>
        </extensions>
      </trkpt>
      <trkpt lat="37.76481150649487972259521484375" lon="-107.70886265672743320465087890625">
        <ele>3736.199951171875</ele>
        <time>2023-07-29T17:36:14.000Z</time>
        <extensions>
          <ns3:TrackPointExtension>
            <ns3:hr>97</ns3:hr>
            <ns3:cad>0</ns3:cad>
          </ns3:TrackPointExtension>
        </extensions>
      </trkpt>
      <trkpt lat="37.764804549515247344970703125" lon="-107.70885729230940341949462890625">
        <ele>3735.800048828125</ele>
        <time>2023-07-29T17:36:15.000Z</time>
        <extensions>
          <ns3:TrackPointExtension>
            <ns3:hr>95</ns3:hr>
            <ns3:cad>0</ns3:cad>
          </ns3:TrackPointExtension>
        </extensions>
      </trkpt>
      <trkpt lat="37.764802873134613037109375" lon="-107.70885611884295940399169921875">
        <ele>3735.60009765625</ele>
        <time>2023-07-29T17:36:16.000Z</time>
        <extensions>
          <ns3:TrackPointExtension>
            <ns3:hr>94</ns3:hr>
            <ns3:cad>0</ns3:cad>
          </ns3:TrackPointExtension>
        </extensions>
      </trkpt>
      <trkpt lat="37.7647976763546466827392578125" lon="-107.70885528065264225006103515625">
        <ele>3735.39990234375</ele>
        <time>2023-07-29T17:36:17.000Z</time>
        <extensions>
          <ns3:TrackPointExtension>
            <ns3:hr>93</ns3:hr>
            <ns3:cad>0</ns3:cad>
          </ns3:TrackPointExtension>
        </extensions>
      </trkpt>
      <trkpt lat="37.76479776017367839813232421875" lon="-107.7088558673858642578125">
        <ele>3735.39990234375</ele>
        <time>2023-07-29T17:36:18.000Z</time>
        <extensions>
          <ns3:TrackPointExtension>
            <ns3:hr>92</ns3:hr>
            <ns3:cad>0</ns3:cad>
          </ns3:TrackPointExtension>
        </extensions>
      </trkpt>
      <trkpt lat="37.76479558087885379791259765625" lon="-107.70885410718619823455810546875">
        <ele>3735.199951171875</ele>
        <time>2023-07-29T17:36:19.000Z</time>
        <extensions>
          <ns3:TrackPointExtension>
            <ns3:hr>92</ns3:hr>
            <ns3:cad>0</ns3:cad>
          </ns3:TrackPointExtension>
        </extensions>
      </trkpt>
      <trkpt lat="37.7647961676120758056640625" lon="-107.70885461010038852691650390625">
        <ele>3734.800048828125</ele>
        <time>2023-07-29T17:36:20.000Z</time>
        <extensions>
          <ns3:TrackPointExtension>
            <ns3:hr>92</ns3:hr>
            <ns3:cad>0</ns3:cad>
          </ns3:TrackPointExtension>
        </extensions>
      </trkpt>
      <trkpt lat="37.76479457505047321319580078125" lon="-107.708853520452976226806640625">
        <ele>3734.800048828125</ele>
        <time>2023-07-29T17:36:21.000Z</time>
        <extensions>
          <ns3:TrackPointExtension>
            <ns3:hr>92</ns3:hr>
            <ns3:cad>0</ns3:cad>
          </ns3:TrackPointExtension>
        </extensions>
      </trkpt>
      <trkpt lat="37.76478703133761882781982421875" lon="-107.7088563703000545501708984375">
        <ele>3734.39990234375</ele>
        <time>2023-07-29T17:36:22.000Z</time>
        <extensions>
          <ns3:TrackPointExtension>
            <ns3:hr>92</ns3:hr>
            <ns3:cad>0</ns3:cad>
          </ns3:TrackPointExtension>
        </extensions>
      </trkpt>
      <trkpt lat="37.76478317566215991973876953125" lon="-107.708853185176849365234375">
        <ele>3734.39990234375</ele>
        <time>2023-07-29T17:36:23.000Z</time>
        <extensions>
          <ns3:TrackPointExtension>
            <ns3:hr>92</ns3:hr>
            <ns3:cad>0</ns3:cad>
          </ns3:TrackPointExtension>
        </extensions>
      </trkpt>
      <trkpt lat="37.764779739081859588623046875" lon="-107.70885041914880275726318359375">
        <ele>3734.199951171875</ele>
        <time>2023-07-29T17:36:24.000Z</time>
        <extensions>
          <ns3:TrackPointExtension>
            <ns3:hr>92</ns3:hr>
            <ns3:cad>0</ns3:cad>
          </ns3:TrackPointExtension>
        </extensions>
      </trkpt>
      <trkpt lat="37.76477395556867122650146484375" lon="-107.7088486589491367340087890625">
        <ele>3734</ele>
        <time>2023-07-29T17:36:25.000Z</time>
        <extensions>
          <ns3:TrackPointExtension>
            <ns3:hr>92</ns3:hr>
            <ns3:cad>0</ns3:cad>
          </ns3:TrackPointExtension>
        </extensions>
      </trkpt>
      <trkpt lat="37.76477294974029064178466796875" lon="-107.708846144378185272216796875">
        <ele>3733.800048828125</ele>
        <time>2023-07-29T17:36:26.000Z</time>
        <extensions>
          <ns3:TrackPointExtension>
            <ns3:hr>92</ns3:hr>
            <ns3:cad>0</ns3:cad>
          </ns3:TrackPointExtension>
        </extensions>
      </trkpt>
      <trkpt lat="37.7647639811038970947265625" lon="-107.7088419534265995025634765625">
        <ele>3733.800048828125</ele>
        <time>2023-07-29T17:36:27.000Z</time>
        <extensions>
          <ns3:TrackPointExtension>
            <ns3:hr>92</ns3:hr>
            <ns3:cad>0</ns3:cad>
          </ns3:TrackPointExtension>
        </extensions>
      </trkpt>
      <trkpt lat="37.76475668884813785552978515625" lon="-107.70883281715214252471923828125">
        <ele>3733.60009765625</ele>
        <time>2023-07-29T17:36:28.000Z</time>
        <extensions>
          <ns3:TrackPointExtension>
            <ns3:hr>92</ns3:hr>
            <ns3:cad>0</ns3:cad>
          </ns3:TrackPointExtension>
        </extensions>
      </trkpt>
      <trkpt lat="37.76475618593394756317138671875" lon="-107.70882904529571533203125">
        <ele>3733.60009765625</ele>
        <time>2023-07-29T17:36:29.000Z</time>
        <extensions>
          <ns3:TrackPointExtension>
            <ns3:hr>92</ns3:hr>
            <ns3:cad>0</ns3:cad>
          </ns3:TrackPointExtension>
        </extensions>
      </trkpt>
      <trkpt lat="37.7647547610104084014892578125" lon="-107.708823345601558685302734375">
        <ele>3733.39990234375</ele>
        <time>2023-07-29T17:36:30.000Z</time>
        <extensions>
          <ns3:TrackPointExtension>
            <ns3:hr>92</ns3:hr>
            <ns3:cad>0</ns3:cad>
          </ns3:TrackPointExtension>
        </extensions>
      </trkpt>
      <trkpt lat="37.76475333608686923980712890625" lon="-107.7088161371648311614990234375">
        <ele>3733.199951171875</ele>
        <time>2023-07-29T17:36:31.000Z</time>
        <extensions>
          <ns3:TrackPointExtension>
            <ns3:hr>92</ns3:hr>
            <ns3:cad>0</ns3:cad>
          </ns3:TrackPointExtension>
        </extensions>
      </trkpt>
      <trkpt lat="37.76475031860172748565673828125" lon="-107.708807922899723052978515625">
        <ele>3733.199951171875</ele>
        <time>2023-07-29T17:36:32.000Z</time>
        <extensions>
          <ns3:TrackPointExtension>
            <ns3:hr>93</ns3:hr>
            <ns3:cad>0</ns3:cad>
          </ns3:TrackPointExtension>
        </extensions>
      </trkpt>
      <trkpt lat="37.76474528945982456207275390625" lon="-107.70879660733044147491455078125">
        <ele>3733</ele>
        <time>2023-07-29T17:36:33.000Z</time>
        <extensions>
          <ns3:TrackPointExtension>
            <ns3:hr>93</ns3:hr>
            <ns3:cad>0</ns3:cad>
          </ns3:TrackPointExtension>
        </extensions>
      </trkpt>
      <trkpt lat="37.76474361307919025421142578125" lon="-107.708787135779857635498046875">
        <ele>3732.800048828125</ele>
        <time>2023-07-29T17:36:34.000Z</time>
        <extensions>
          <ns3:TrackPointExtension>
            <ns3:hr>93</ns3:hr>
            <ns3:cad>0</ns3:cad>
          </ns3:TrackPointExtension>
        </extensions>
      </trkpt>
      <trkpt lat="37.76474051177501678466796875" lon="-107.708777748048305511474609375">
        <ele>3732.800048828125</ele>
        <time>2023-07-29T17:36:35.000Z</time>
        <extensions>
          <ns3:TrackPointExtension>
            <ns3:hr>93</ns3:hr>
            <ns3:cad>0</ns3:cad>
          </ns3:TrackPointExtension>
        </extensions>
      </trkpt>
      <trkpt lat="37.76473372243344783782958984375" lon="-107.7087661810219287872314453125">
        <ele>3732.60009765625</ele>
        <time>2023-07-29T17:36:36.000Z</time>
        <extensions>
          <ns3:TrackPointExtension>
            <ns3:hr>93</ns3:hr>
            <ns3:cad>0</ns3:cad>
          </ns3:TrackPointExtension>
        </extensions>
      </trkpt>
      <trkpt lat="37.764723412692546844482421875" lon="-107.7087531052529811859130859375">
        <ele>3732.60009765625</ele>
        <time>2023-07-29T17:36:37.000Z</time>
        <extensions>
          <ns3:TrackPointExtension>
            <ns3:hr>93</ns3:hr>
            <ns3:cad>0</ns3:cad>
          </ns3:TrackPointExtension>
        </extensions>
      </trkpt>
      <trkpt lat="37.764714695513248443603515625" lon="-107.70874966867268085479736328125">
        <ele>3732.39990234375</ele>
        <time>2023-07-29T17:36:38.000Z</time>
        <extensions>
          <ns3:TrackPointExtension>
            <ns3:hr>93</ns3:hr>
            <ns3:cad>0</ns3:cad>
          </ns3:TrackPointExtension>
        </extensions>
      </trkpt>
      <trkpt lat="37.76470472104847431182861328125" lon="-107.70874279551208019256591796875">
        <ele>3732.199951171875</ele>
        <time>2023-07-29T17:36:39.000Z</time>
        <extensions>
          <ns3:TrackPointExtension>
            <ns3:hr>93</ns3:hr>
            <ns3:cad>0</ns3:cad>
          </ns3:TrackPointExtension>
        </extensions>
      </trkpt>
      <trkpt lat="37.76469483040273189544677734375" lon="-107.70874346606433391571044921875">
        <ele>3731.800048828125</ele>
        <time>2023-07-29T17:36:40.000Z</time>
        <extensions>
          <ns3:TrackPointExtension>
            <ns3:hr>93</ns3:hr>
            <ns3:cad>0</ns3:cad>
          </ns3:TrackPointExtension>
        </extensions>
      </trkpt>
      <trkpt lat="37.764682509005069732666015625" lon="-107.70874313078820705413818359375">
        <ele>3731.800048828125</ele>
        <time>2023-07-29T17:36:41.000Z</time>
        <extensions>
          <ns3:TrackPointExtension>
            <ns3:hr>93</ns3:hr>
            <ns3:cad>0</ns3:cad>
          </ns3:TrackPointExtension>
        </extensions>
      </trkpt>
      <trkpt lat="37.76466809213161468505859375" lon="-107.7087423764169216156005859375">
        <ele>3731.800048828125</ele>
        <time>2023-07-29T17:36:42.000Z</time>
        <extensions>
          <ns3:TrackPointExtension>
            <ns3:hr>93</ns3:hr>
            <ns3:cad>0</ns3:cad>
          </ns3:TrackPointExtension>
        </extensions>
      </trkpt>
      <trkpt lat="37.7646494843065738677978515625" lon="-107.708742208778858184814453125">
        <ele>3731.800048828125</ele>
        <time>2023-07-29T17:36:43.000Z</time>
        <extensions>
          <ns3:TrackPointExtension>
            <ns3:hr>93</ns3:hr>
            <ns3:cad>0</ns3:cad>
          </ns3:TrackPointExtension>
        </extensions>
      </trkpt>
      <trkpt lat="37.76463565416634082794189453125" lon="-107.7087391912937164306640625">
        <ele>3731.800048828125</ele>
        <time>2023-07-29T17:36:44.000Z</time>
        <extensions>
          <ns3:TrackPointExtension>
            <ns3:hr>93</ns3:hr>
            <ns3:cad>0</ns3:cad>
          </ns3:TrackPointExtension>
        </extensions>
      </trkpt>
      <trkpt lat="37.76461872272193431854248046875" lon="-107.70873743109405040740966796875">
        <ele>3731.60009765625</ele>
        <time>2023-07-29T17:36:45.000Z</time>
        <extensions>
          <ns3:TrackPointExtension>
            <ns3:hr>94</ns3:hr>
            <ns3:cad>0</ns3:cad>
          </ns3:TrackPointExtension>
        </extensions>
      </trkpt>
      <trkpt lat="37.76460866443812847137451171875" lon="-107.7087350003421306610107421875">
        <ele>3731.60009765625</ele>
        <time>2023-07-29T17:36:46.000Z</time>
        <extensions>
          <ns3:TrackPointExtension>
            <ns3:hr>94</ns3:hr>
            <ns3:cad>0</ns3:cad>
          </ns3:TrackPointExtension>
        </extensions>
      </trkpt>
      <trkpt lat="37.76459475047886371612548828125" lon="-107.70872871391475200653076171875">
        <ele>3731.39990234375</ele>
        <time>2023-07-29T17:36:47.000Z</time>
        <extensions>
          <ns3:TrackPointExtension>
            <ns3:hr>94</ns3:hr>
            <ns3:cad>0</ns3:cad>
          </ns3:TrackPointExtension>
        </extensions>
      </trkpt>
      <trkpt lat="37.7645871229469776153564453125" lon="-107.7087219245731830596923828125">
        <ele>3731.199951171875</ele>
        <time>2023-07-29T17:36:48.000Z</time>
        <extensions>
          <ns3:TrackPointExtension>
            <ns3:hr>94</ns3:hr>
            <ns3:cad>62</ns3:cad>
          </ns3:TrackPointExtension>
        </extensions>
      </trkpt>
      <trkpt lat="37.76457949541509151458740234375" lon="-107.708712704479694366455078125">
        <ele>3731</ele>
        <time>2023-07-29T17:36:49.000Z</time>
        <extensions>
          <ns3:TrackPointExtension>
            <ns3:hr>94</ns3:hr>
            <ns3:cad>62</ns3:cad>
          </ns3:TrackPointExtension>
        </extensions>
      </trkpt>
      <trkpt lat="37.764574550092220306396484375" lon="-107.7087011374533176422119140625">
        <ele>3730.800048828125</ele>
        <time>2023-07-29T17:36:50.000Z</time>
        <extensions>
          <ns3:TrackPointExtension>
            <ns3:hr>94</ns3:hr>
            <ns3:cad>62</ns3:cad>
          </ns3:TrackPointExtension>
        </extensions>
      </trkpt>
      <trkpt lat="37.764570526778697967529296875" lon="-107.708689235150814056396484375">
        <ele>3730.800048828125</ele>
        <time>2023-07-29T17:36:51.000Z</time>
        <extensions>
          <ns3:TrackPointExtension>
            <ns3:hr>94</ns3:hr>
            <ns3:cad>62</ns3:cad>
          </ns3:TrackPointExtension>
        </extensions>
      </trkpt>
      <trkpt lat="37.76456256397068500518798828125" lon="-107.7086783386766910552978515625">
        <ele>3730.60009765625</ele>
        <time>2023-07-29T17:36:52.000Z</time>
        <extensions>
          <ns3:TrackPointExtension>
            <ns3:hr>94</ns3:hr>
            <ns3:cad>62</ns3:cad>
          </ns3:TrackPointExtension>
        </extensions>
      </trkpt>
      <trkpt lat="37.76456071995198726654052734375" lon="-107.708669789135456085205078125">
        <ele>3730.39990234375</ele>
        <time>2023-07-29T17:36:53.000Z</time>
        <extensions>
          <ns3:TrackPointExtension>
            <ns3:hr>93</ns3:hr>
            <ns3:cad>62</ns3:cad>
          </ns3:TrackPointExtension>
        </extensions>
      </trkpt>
      <trkpt lat="37.7645546011626720428466796875" lon="-107.70866266451776027679443359375">
        <ele>3730.199951171875</ele>
        <time>2023-07-29T17:36:54.000Z</time>
        <extensions>
          <ns3:TrackPointExtension>
            <ns3:hr>93</ns3:hr>
            <ns3:cad>62</ns3:cad>
          </ns3:TrackPointExtension>
        </extensions>
      </trkpt>
      <trkpt lat="37.76454848237335681915283203125" lon="-107.70865193568170070648193359375">
        <ele>3730.199951171875</ele>
        <time>2023-07-29T17:36:55.000Z</time>
        <extensions>
          <ns3:TrackPointExtension>
            <ns3:hr>92</ns3:hr>
            <ns3:cad>62</ns3:cad>
          </ns3:TrackPointExtension>
        </extensions>
      </trkpt>
      <trkpt lat="37.76454227976500988006591796875" lon="-107.70864422433078289031982421875">
        <ele>3729.800048828125</ele>
        <time>2023-07-29T17:36:56.000Z</time>
        <extensions>
          <ns3:TrackPointExtension>
            <ns3:hr>92</ns3:hr>
            <ns3:cad>62</ns3:cad>
          </ns3:TrackPointExtension>
        </extensions>
      </trkpt>
      <trkpt lat="37.76453666388988494873046875" lon="-107.70863735117018222808837890625">
        <ele>3729.60009765625</ele>
        <time>2023-07-29T17:36:57.000Z</time>
        <extensions>
          <ns3:TrackPointExtension>
            <ns3:hr>93</ns3:hr>
            <ns3:cad>62</ns3:cad>
          </ns3:TrackPointExtension>
        </extensions>
      </trkpt>
      <trkpt lat="37.76452786289155483245849609375" lon="-107.7086293883621692657470703125">
        <ele>3729.39990234375</ele>
        <time>2023-07-29T17:36:58.000Z</time>
        <extensions>
          <ns3:TrackPointExtension>
            <ns3:hr>93</ns3:hr>
            <ns3:cad>62</ns3:cad>
          </ns3:TrackPointExtension>
        </extensions>
      </trkpt>
      <trkpt lat="37.76451562531292438507080078125" lon="-107.7086216770112514495849609375">
        <ele>3729</ele>
        <time>2023-07-29T17:36:59.000Z</time>
        <extensions>
          <ns3:TrackPointExtension>
            <ns3:hr>92</ns3:hr>
            <ns3:cad>62</ns3:cad>
          </ns3:TrackPointExtension>
        </extensions>
      </trkpt>
      <trkpt lat="37.76450690813362598419189453125" lon="-107.70862360484898090362548828125">
        <ele>3728.800048828125</ele>
        <time>2023-07-29T17:37:00.000Z</time>
        <extensions>
          <ns3:TrackPointExtension>
            <ns3:hr>92</ns3:hr>
            <ns3:cad>62</ns3:cad>
          </ns3:TrackPointExtension>
        </extensions>
      </trkpt>
      <trkpt lat="37.76449249126017093658447265625" lon="-107.70861991681158542633056640625">
        <ele>3728.39990234375</ele>
        <time>2023-07-29T17:37:01.000Z</time>
        <extensions>
          <ns3:TrackPointExtension>
            <ns3:hr>92</ns3:hr>
            <ns3:cad>62</ns3:cad>
          </ns3:TrackPointExtension>
        </extensions>
      </trkpt>
      <trkpt lat="37.7644805051386356353759765625" lon="-107.7086183242499828338623046875">
        <ele>3728.39990234375</ele>
        <time>2023-07-29T17:37:02.000Z</time>
        <extensions>
          <ns3:TrackPointExtension>
            <ns3:hr>93</ns3:hr>
            <ns3:cad>0</ns3:cad>
          </ns3:TrackPointExtension>
        </extensions>
      </trkpt>
      <trkpt lat="37.76447203941643238067626953125" lon="-107.7086159773170948028564453125">
        <ele>3728.199951171875</ele>
        <time>2023-07-29T17:37:03.000Z</time>
        <extensions>
          <ns3:TrackPointExtension>
            <ns3:hr>93</ns3:hr>
            <ns3:cad>0</ns3:cad>
          </ns3:TrackPointExtension>
        </extensions>
      </trkpt>
      <trkpt lat="37.7644660882651805877685546875" lon="-107.70861572585999965667724609375">
        <ele>3728</ele>
        <time>2023-07-29T17:37:04.000Z</time>
        <extensions>
          <ns3:TrackPointExtension>
            <ns3:hr>93</ns3:hr>
            <ns3:cad>0</ns3:cad>
          </ns3:TrackPointExtension>
        </extensions>
      </trkpt>
      <trkpt lat="37.7644634060561656951904296875" lon="-107.7086158096790313720703125">
        <ele>3727.800048828125</ele>
        <time>2023-07-29T17:37:05.000Z</time>
        <extensions>
          <ns3:TrackPointExtension>
            <ns3:hr>92</ns3:hr>
            <ns3:cad>0</ns3:cad>
          </ns3:TrackPointExtension>
        </extensions>
      </trkpt>
      <trkpt lat="37.76445544324815273284912109375" lon="-107.70861488766968250274658203125">
        <ele>3727.39990234375</ele>
        <time>2023-07-29T17:37:06.000Z</time>
        <extensions>
          <ns3:TrackPointExtension>
            <ns3:hr>92</ns3:hr>
            <ns3:cad>0</ns3:cad>
          </ns3:TrackPointExtension>
        </extensions>
      </trkpt>
      <trkpt lat="37.7644466422498226165771484375" lon="-107.70861421711742877960205078125">
        <ele>3727</ele>
        <time>2023-07-29T17:37:07.000Z</time>
        <extensions>
          <ns3:TrackPointExtension>
            <ns3:hr>92</ns3:hr>
            <ns3:cad>0</ns3:cad>
          </ns3:TrackPointExtension>
        </extensions>
      </trkpt>
      <trkpt lat="37.76443934999406337738037109375" lon="-107.7086136303842067718505859375">
        <ele>3727</ele>
        <time>2023-07-29T17:37:08.000Z</time>
        <extensions>
          <ns3:TrackPointExtension>
            <ns3:hr>92</ns3:hr>
            <ns3:cad>0</ns3:cad>
          </ns3:TrackPointExtension>
        </extensions>
      </trkpt>
      <trkpt lat="37.76443163864314556121826171875" lon="-107.7086143009364604949951171875">
        <ele>3726.60009765625</ele>
        <time>2023-07-29T17:37:09.000Z</time>
        <extensions>
          <ns3:TrackPointExtension>
            <ns3:hr>93</ns3:hr>
            <ns3:cad>0</ns3:cad>
          </ns3:TrackPointExtension>
        </extensions>
      </trkpt>
      <trkpt lat="37.7644248493015766143798828125" lon="-107.7086139656603336334228515625">
        <ele>3726.39990234375</ele>
        <time>2023-07-29T17:37:10.000Z</time>
        <extensions>
          <ns3:TrackPointExtension>
            <ns3:hr>92</ns3:hr>
            <ns3:cad>0</ns3:cad>
          </ns3:TrackPointExtension>
        </extensions>
      </trkpt>
      <trkpt lat="37.76441755704581737518310546875" lon="-107.708613462746143341064453125">
        <ele>3726.199951171875</ele>
        <time>2023-07-29T17:37:11.000Z</time>
        <extensions>
          <ns3:TrackPointExtension>
            <ns3:hr>92</ns3:hr>
            <ns3:cad>0</ns3:cad>
          </ns3:TrackPointExtension>
        </extensions>
      </trkpt>
      <trkpt lat="37.7644067443907260894775390625" lon="-107.70861136727035045623779296875">
        <ele>3725.800048828125</ele>
        <time>2023-07-29T17:37:12.000Z</time>
        <extensions>
          <ns3:TrackPointExtension>
            <ns3:hr>92</ns3:hr>
            <ns3:cad>0</ns3:cad>
          </ns3:TrackPointExtension>
        </extensions>
      </trkpt>
      <trkpt lat="37.76439878158271312713623046875" lon="-107.7086052484810352325439453125">
        <ele>3725.39990234375</ele>
        <time>2023-07-29T17:37:13.000Z</time>
        <extensions>
          <ns3:TrackPointExtension>
            <ns3:hr>93</ns3:hr>
            <ns3:cad>0</ns3:cad>
          </ns3:TrackPointExtension>
        </extensions>
      </trkpt>
      <trkpt lat="37.76439341716468334197998046875" lon="-107.70859795622527599334716796875">
        <ele>3725.39990234375</ele>
        <time>2023-07-29T17:37:14.000Z</time>
        <extensions>
          <ns3:TrackPointExtension>
            <ns3:hr>93</ns3:hr>
            <ns3:cad>0</ns3:cad>
          </ns3:TrackPointExtension>
        </extensions>
      </trkpt>
      <trkpt lat="37.76438637636601924896240234375" lon="-107.7085931785404682159423828125">
        <ele>3725</ele>
        <time>2023-07-29T17:37:15.000Z</time>
        <extensions>
          <ns3:TrackPointExtension>
            <ns3:hr>94</ns3:hr>
            <ns3:cad>0</ns3:cad>
          </ns3:TrackPointExtension>
        </extensions>
      </trkpt>
      <trkpt lat="37.76437983848154544830322265625" lon="-107.708590663969516754150390625">
        <ele>3724.800048828125</ele>
        <time>2023-07-29T17:37:16.000Z</time>
        <extensions>
          <ns3:TrackPointExtension>
            <ns3:hr>94</ns3:hr>
            <ns3:cad>0</ns3:cad>
          </ns3:TrackPointExtension>
        </extensions>
      </trkpt>
      <trkpt lat="37.76437263004481792449951171875" lon="-107.708584628999233245849609375">
        <ele>3724.39990234375</ele>
        <time>2023-07-29T17:37:17.000Z</time>
        <extensions>
          <ns3:TrackPointExtension>
            <ns3:hr>94</ns3:hr>
            <ns3:cad>0</ns3:cad>
          </ns3:TrackPointExtension>
        </extensions>
      </trkpt>
      <trkpt lat="37.76436793617904186248779296875" lon="-107.7085794322192668914794921875">
        <ele>3724.199951171875</ele>
        <time>2023-07-29T17:37:18.000Z</time>
        <extensions>
          <ns3:TrackPointExtension>
            <ns3:hr>94</ns3:hr>
            <ns3:cad>0</ns3:cad>
          </ns3:TrackPointExtension>
        </extensions>
      </trkpt>
      <trkpt lat="37.764363326132297515869140625" lon="-107.7085747383534908294677734375">
        <ele>3724</ele>
        <time>2023-07-29T17:37:19.000Z</time>
        <extensions>
          <ns3:TrackPointExtension>
            <ns3:hr>95</ns3:hr>
            <ns3:cad>0</ns3:cad>
          </ns3:TrackPointExtension>
        </extensions>
      </trkpt>
      <trkpt lat="37.76436206884682178497314453125" lon="-107.70857088267803192138671875">
        <ele>3723.800048828125</ele>
        <time>2023-07-29T17:37:20.000Z</time>
        <extensions>
          <ns3:TrackPointExtension>
            <ns3:hr>94</ns3:hr>
            <ns3:cad>0</ns3:cad>
          </ns3:TrackPointExtension>
        </extensions>
      </trkpt>
      <trkpt lat="37.764357961714267730712890625" lon="-107.7085675299167633056640625">
        <ele>3723.60009765625</ele>
        <time>2023-07-29T17:37:21.000Z</time>
        <extensions>
          <ns3:TrackPointExtension>
            <ns3:hr>95</ns3:hr>
            <ns3:cad>0</ns3:cad>
          </ns3:TrackPointExtension>
        </extensions>
      </trkpt>
      <trkpt lat="37.76435335166752338409423828125" lon="-107.7085623331367969512939453125">
        <ele>3723.39990234375</ele>
        <time>2023-07-29T17:37:22.000Z</time>
        <extensions>
          <ns3:TrackPointExtension>
            <ns3:hr>95</ns3:hr>
            <ns3:cad>0</ns3:cad>
          </ns3:TrackPointExtension>
        </extensions>
      </trkpt>
      <trkpt lat="37.7643443830311298370361328125" lon="-107.70855168811976909637451171875">
        <ele>3723.199951171875</ele>
        <time>2023-07-29T17:37:23.000Z</time>
        <extensions>
          <ns3:TrackPointExtension>
            <ns3:hr>95</ns3:hr>
            <ns3:cad>0</ns3:cad>
          </ns3:TrackPointExtension>
        </extensions>
      </trkpt>
      <trkpt lat="37.76433809660375118255615234375" lon="-107.7085462398827075958251953125">
        <ele>3723</ele>
        <time>2023-07-29T17:37:24.000Z</time>
        <extensions>
          <ns3:TrackPointExtension>
            <ns3:hr>95</ns3:hr>
            <ns3:cad>0</ns3:cad>
          </ns3:TrackPointExtension>
        </extensions>
      </trkpt>
      <trkpt lat="37.7643343247473239898681640625" lon="-107.7085455693304538726806640625">
        <ele>3722.800048828125</ele>
        <time>2023-07-29T17:37:25.000Z</time>
        <extensions>
          <ns3:TrackPointExtension>
            <ns3:hr>95</ns3:hr>
            <ns3:cad>0</ns3:cad>
          </ns3:TrackPointExtension>
        </extensions>
      </trkpt>
      <trkpt lat="37.7643316425383090972900390625" lon="-107.70854766480624675750732421875">
        <ele>3722.60009765625</ele>
        <time>2023-07-29T17:37:26.000Z</time>
        <extensions>
          <ns3:TrackPointExtension>
            <ns3:hr>95</ns3:hr>
            <ns3:cad>0</ns3:cad>
          </ns3:TrackPointExtension>
        </extensions>
      </trkpt>
      <trkpt lat="37.76432745158672332763671875" lon="-107.70854883827269077301025390625">
        <ele>3722.60009765625</ele>
        <time>2023-07-29T17:37:27.000Z</time>
        <extensions>
          <ns3:TrackPointExtension>
            <ns3:hr>95</ns3:hr>
            <ns3:cad>0</ns3:cad>
          </ns3:TrackPointExtension>
        </extensions>
      </trkpt>
      <trkpt lat="37.76432602666318416595458984375" lon="-107.70855403505265712738037109375">
        <ele>3722.39990234375</ele>
        <time>2023-07-29T17:37:28.000Z</time>
        <extensions>
          <ns3:TrackPointExtension>
            <ns3:hr>95</ns3:hr>
            <ns3:cad>0</ns3:cad>
          </ns3:TrackPointExtension>
        </extensions>
      </trkpt>
      <trkpt lat="37.76432334445416927337646484375" lon="-107.7085599862039089202880859375">
        <ele>3722</ele>
        <time>2023-07-29T17:37:29.000Z</time>
        <extensions>
          <ns3:TrackPointExtension>
            <ns3:hr>95</ns3:hr>
            <ns3:cad>66</ns3:cad>
          </ns3:TrackPointExtension>
        </extensions>
      </trkpt>
      <trkpt lat="37.76432418264448642730712890625" lon="-107.7085621654987335205078125">
        <ele>3721.800048828125</ele>
        <time>2023-07-29T17:37:30.000Z</time>
        <extensions>
          <ns3:TrackPointExtension>
            <ns3:hr>95</ns3:hr>
            <ns3:cad>66</ns3:cad>
          </ns3:TrackPointExtension>
        </extensions>
      </trkpt>
      <trkpt lat="37.76432367973029613494873046875" lon="-107.70856258459389209747314453125">
        <ele>3721.39990234375</ele>
        <time>2023-07-29T17:37:31.000Z</time>
        <extensions>
          <ns3:TrackPointExtension>
            <ns3:hr>95</ns3:hr>
            <ns3:cad>66</ns3:cad>
          </ns3:TrackPointExtension>
        </extensions>
      </trkpt>
      <trkpt lat="37.76432552374899387359619140625" lon="-107.7085594832897186279296875">
        <ele>3721</ele>
        <time>2023-07-29T17:37:32.000Z</time>
        <extensions>
          <ns3:TrackPointExtension>
            <ns3:hr>95</ns3:hr>
            <ns3:cad>66</ns3:cad>
          </ns3:TrackPointExtension>
        </extensions>
      </trkpt>
      <trkpt lat="37.76432351209223270416259765625" lon="-107.70855772309005260467529296875">
        <ele>3720.800048828125</ele>
        <time>2023-07-29T17:37:33.000Z</time>
        <extensions>
          <ns3:TrackPointExtension>
            <ns3:hr>95</ns3:hr>
            <ns3:cad>0</ns3:cad>
          </ns3:TrackPointExtension>
        </extensions>
      </trkpt>
      <trkpt lat="37.76431714184582233428955078125" lon="-107.7085573039948940277099609375">
        <ele>3720.60009765625</ele>
        <time>2023-07-29T17:37:34.000Z</time>
        <extensions>
          <ns3:TrackPointExtension>
            <ns3:hr>95</ns3:hr>
            <ns3:cad>0</ns3:cad>
          </ns3:TrackPointExtension>
        </extensions>
      </trkpt>
      <trkpt lat="37.7643111906945705413818359375" lon="-107.70855654962360858917236328125">
        <ele>3720.39990234375</ele>
        <time>2023-07-29T17:37:35.000Z</time>
        <extensions>
          <ns3:TrackPointExtension>
            <ns3:hr>95</ns3:hr>
            <ns3:cad>0</ns3:cad>
          </ns3:TrackPointExtension>
        </extensions>
      </trkpt>
      <trkpt lat="37.7643044851720333099365234375" lon="-107.70855210721492767333984375">
        <ele>3720</ele>
        <time>2023-07-29T17:37:36.000Z</time>
        <extensions>
          <ns3:TrackPointExtension>
            <ns3:hr>95</ns3:hr>
            <ns3:cad>0</ns3:cad>
          </ns3:TrackPointExtension>
        </extensions>
      </trkpt>
      <trkpt lat="37.76429266668856143951416015625" lon="-107.70854615606367588043212890625">
        <ele>3719.60009765625</ele>
        <time>2023-07-29T17:37:37.000Z</time>
        <extensions>
          <ns3:TrackPointExtension>
            <ns3:hr>95</ns3:hr>
            <ns3:cad>0</ns3:cad>
          </ns3:TrackPointExtension>
        </extensions>
      </trkpt>
      <trkpt lat="37.7642810158431529998779296875" lon="-107.7085395343601703643798828125">
        <ele>3719.39990234375</ele>
        <time>2023-07-29T17:37:38.000Z</time>
        <extensions>
          <ns3:TrackPointExtension>
            <ns3:hr>95</ns3:hr>
            <ns3:cad>0</ns3:cad>
          </ns3:TrackPointExtension>
        </extensions>
      </trkpt>
      <trkpt lat="37.76426978409290313720703125" lon="-107.70852796733379364013671875">
        <ele>3719.39990234375</ele>
        <time>2023-07-29T17:37:39.000Z</time>
        <extensions>
          <ns3:TrackPointExtension>
            <ns3:hr>95</ns3:hr>
            <ns3:cad>0</ns3:cad>
          </ns3:TrackPointExtension>
        </extensions>
      </trkpt>
      <trkpt lat="37.76426617987453937530517578125" lon="-107.70851899869740009307861328125">
        <ele>3719.199951171875</ele>
        <time>2023-07-29T17:37:40.000Z</time>
        <extensions>
          <ns3:TrackPointExtension>
            <ns3:hr>95</ns3:hr>
            <ns3:cad>0</ns3:cad>
          </ns3:TrackPointExtension>
        </extensions>
      </trkpt>
      <trkpt lat="37.7642578817903995513916015625" lon="-107.70851011388003826141357421875">
        <ele>3719</ele>
        <time>2023-07-29T17:37:41.000Z</time>
        <extensions>
          <ns3:TrackPointExtension>
            <ns3:hr>95</ns3:hr>
            <ns3:cad>0</ns3:cad>
          </ns3:TrackPointExtension>
        </extensions>
      </trkpt>
      <trkpt lat="37.76424656622111797332763671875" lon="-107.7084949426352977752685546875">
        <ele>3718.39990234375</ele>
        <time>2023-07-29T17:37:42.000Z</time>
        <extensions>
          <ns3:TrackPointExtension>
            <ns3:hr>95</ns3:hr>
            <ns3:cad>0</ns3:cad>
          </ns3:TrackPointExtension>
        </extensions>
      </trkpt>
      <trkpt lat="37.76423491537570953369140625" lon="-107.70848195068538188934326171875">
        <ele>3718.39990234375</ele>
        <time>2023-07-29T17:37:43.000Z</time>
        <extensions>
          <ns3:TrackPointExtension>
            <ns3:hr>95</ns3:hr>
            <ns3:cad>0</ns3:cad>
          </ns3:TrackPointExtension>
        </extensions>
      </trkpt>
      <trkpt lat="37.764228545129299163818359375" lon="-107.7084748260676860809326171875">
        <ele>3718.199951171875</ele>
        <time>2023-07-29T17:37:44.000Z</time>
        <extensions>
          <ns3:TrackPointExtension>
            <ns3:hr>95</ns3:hr>
            <ns3:cad>0</ns3:cad>
          </ns3:TrackPointExtension>
        </extensions>
      </trkpt>
      <trkpt lat="37.76422494091093540191650390625" lon="-107.70847088657319545745849609375">
        <ele>3718</ele>
        <time>2023-07-29T17:37:45.000Z</time>
        <extensions>
          <ns3:TrackPointExtension>
            <ns3:hr>95</ns3:hr>
            <ns3:cad>0</ns3:cad>
          </ns3:TrackPointExtension>
        </extensions>
      </trkpt>
      <trkpt lat="37.7642176486551761627197265625" lon="-107.708464600145816802978515625">
        <ele>3717.60009765625</ele>
        <time>2023-07-29T17:37:46.000Z</time>
        <extensions>
          <ns3:TrackPointExtension>
            <ns3:hr>95</ns3:hr>
            <ns3:cad>0</ns3:cad>
          </ns3:TrackPointExtension>
        </extensions>
      </trkpt>
      <trkpt lat="37.764211110770702362060546875" lon="-107.70845496095716953277587890625">
        <ele>3717.60009765625</ele>
        <time>2023-07-29T17:37:47.000Z</time>
        <extensions>
          <ns3:TrackPointExtension>
            <ns3:hr>95</ns3:hr>
            <ns3:cad>0</ns3:cad>
          </ns3:TrackPointExtension>
        </extensions>
      </trkpt>
      <trkpt lat="37.76420197449624538421630859375" lon="-107.7084436453878879547119140625">
        <ele>3717.39990234375</ele>
        <time>2023-07-29T17:37:48.000Z</time>
        <extensions>
          <ns3:TrackPointExtension>
            <ns3:hr>95</ns3:hr>
            <ns3:cad>60</ns3:cad>
          </ns3:TrackPointExtension>
        </extensions>
      </trkpt>
      <trkpt lat="37.76419174857437610626220703125" lon="-107.70843367092311382293701171875">
        <ele>3717.199951171875</ele>
        <time>2023-07-29T17:37:49.000Z</time>
        <extensions>
          <ns3:TrackPointExtension>
            <ns3:hr>95</ns3:hr>
            <ns3:cad>60</ns3:cad>
          </ns3:TrackPointExtension>
        </extensions>
      </trkpt>
      <trkpt lat="37.7641837857663631439208984375" lon="-107.70842545665800571441650390625">
        <ele>3717</ele>
        <time>2023-07-29T17:37:50.000Z</time>
        <extensions>
          <ns3:TrackPointExtension>
            <ns3:hr>95</ns3:hr>
            <ns3:cad>56</ns3:cad>
          </ns3:TrackPointExtension>
        </extensions>
      </trkpt>
      <trkpt lat="37.76418101973831653594970703125" lon="-107.70842243917286396026611328125">
        <ele>3716.800048828125</ele>
        <time>2023-07-29T17:37:51.000Z</time>
        <extensions>
          <ns3:TrackPointExtension>
            <ns3:hr>96</ns3:hr>
            <ns3:cad>56</ns3:cad>
          </ns3:TrackPointExtension>
        </extensions>
      </trkpt>
      <trkpt lat="37.76416894979774951934814453125" lon="-107.70841103978455066680908203125">
        <ele>3716.60009765625</ele>
        <time>2023-07-29T17:37:52.000Z</time>
        <extensions>
          <ns3:TrackPointExtension>
            <ns3:hr>95</ns3:hr>
            <ns3:cad>56</ns3:cad>
          </ns3:TrackPointExtension>
        </extensions>
      </trkpt>
      <trkpt lat="37.76415989734232425689697265625" lon="-107.70840324461460113525390625">
        <ele>3716.60009765625</ele>
        <time>2023-07-29T17:37:53.000Z</time>
        <extensions>
          <ns3:TrackPointExtension>
            <ns3:hr>95</ns3:hr>
            <ns3:cad>56</ns3:cad>
          </ns3:TrackPointExtension>
        </extensions>
      </trkpt>
      <trkpt lat="37.76414883323013782501220703125" lon="-107.70839410834014415740966796875">
        <ele>3716.39990234375</ele>
        <time>2023-07-29T17:37:54.000Z</time>
        <extensions>
          <ns3:TrackPointExtension>
            <ns3:hr>95</ns3:hr>
            <ns3:cad>64</ns3:cad>
          </ns3:TrackPointExtension>
        </extensions>
      </trkpt>
      <trkpt lat="37.76414179243147373199462890625" lon="-107.70838723517954349517822265625">
        <ele>3716</ele>
        <time>2023-07-29T17:37:55.000Z</time>
        <extensions>
          <ns3:TrackPointExtension>
            <ns3:hr>95</ns3:hr>
            <ns3:cad>64</ns3:cad>
          </ns3:TrackPointExtension>
        </extensions>
      </trkpt>
      <trkpt lat="37.7641388587653636932373046875" lon="-107.708384804427623748779296875">
        <ele>3715.800048828125</ele>
        <time>2023-07-29T17:37:56.000Z</time>
        <extensions>
          <ns3:TrackPointExtension>
            <ns3:hr>95</ns3:hr>
            <ns3:cad>64</ns3:cad>
          </ns3:TrackPointExtension>
        </extensions>
      </trkpt>
      <trkpt lat="37.7641336619853973388671875" lon="-107.70838254131376743316650390625">
        <ele>3715.39990234375</ele>
        <time>2023-07-29T17:37:57.000Z</time>
        <extensions>
          <ns3:TrackPointExtension>
            <ns3:hr>95</ns3:hr>
            <ns3:cad>64</ns3:cad>
          </ns3:TrackPointExtension>
        </extensions>
      </trkpt>
      <trkpt lat="37.7641281299293041229248046875" lon="-107.70837935619056224822998046875">
        <ele>3715.199951171875</ele>
        <time>2023-07-29T17:37:58.000Z</time>
        <extensions>
          <ns3:TrackPointExtension>
            <ns3:hr>95</ns3:hr>
            <ns3:cad>64</ns3:cad>
          </ns3:TrackPointExtension>
        </extensions>
      </trkpt>
      <trkpt lat="37.764126621186733245849609375" lon="-107.7083799429237842559814453125">
        <ele>3715</ele>
        <time>2023-07-29T17:37:59.000Z</time>
        <extensions>
          <ns3:TrackPointExtension>
            <ns3:hr>95</ns3:hr>
            <ns3:cad>64</ns3:cad>
          </ns3:TrackPointExtension>
        </extensions>
      </trkpt>
      <trkpt lat="37.76412318460643291473388671875" lon="-107.70837533287703990936279296875">
        <ele>3714.60009765625</ele>
        <time>2023-07-29T17:38:00.000Z</time>
        <extensions>
          <ns3:TrackPointExtension>
            <ns3:hr>94</ns3:hr>
            <ns3:cad>0</ns3:cad>
          </ns3:TrackPointExtension>
        </extensions>
      </trkpt>
      <trkpt lat="37.76411446742713451385498046875" lon="-107.70836845971643924713134765625">
        <ele>3714.39990234375</ele>
        <time>2023-07-29T17:38:01.000Z</time>
        <extensions>
          <ns3:TrackPointExtension>
            <ns3:hr>94</ns3:hr>
            <ns3:cad>0</ns3:cad>
          </ns3:TrackPointExtension>
        </extensions>
      </trkpt>
      <trkpt lat="37.764107845723628997802734375" lon="-107.70836091600358486175537109375">
        <ele>3714.199951171875</ele>
        <time>2023-07-29T17:38:02.000Z</time>
        <extensions>
          <ns3:TrackPointExtension>
            <ns3:hr>94</ns3:hr>
            <ns3:cad>59</ns3:cad>
          </ns3:TrackPointExtension>
        </extensions>
      </trkpt>
      <trkpt lat="37.764100134372711181640625" lon="-107.70835504867136478424072265625">
        <ele>3713.60009765625</ele>
        <time>2023-07-29T17:38:03.000Z</time>
        <extensions>
          <ns3:TrackPointExtension>
            <ns3:hr>93</ns3:hr>
            <ns3:cad>59</ns3:cad>
          </ns3:TrackPointExtension>
        </extensions>
      </trkpt>
      <trkpt lat="37.76409334503114223480224609375" lon="-107.70835018716752529144287109375">
        <ele>3713.39990234375</ele>
        <time>2023-07-29T17:38:04.000Z</time>
        <extensions>
          <ns3:TrackPointExtension>
            <ns3:hr>93</ns3:hr>
            <ns3:cad>59</ns3:cad>
          </ns3:TrackPointExtension>
        </extensions>
      </trkpt>
      <trkpt lat="37.76409007608890533447265625" lon="-107.70835094153881072998046875">
        <ele>3713.199951171875</ele>
        <time>2023-07-29T17:38:05.000Z</time>
        <extensions>
          <ns3:TrackPointExtension>
            <ns3:hr>92</ns3:hr>
            <ns3:cad>59</ns3:cad>
          </ns3:TrackPointExtension>
        </extensions>
      </trkpt>
      <trkpt lat="37.7640848793089389801025390625" lon="-107.708347924053668975830078125">
        <ele>3713</ele>
        <time>2023-07-29T17:38:06.000Z</time>
        <extensions>
          <ns3:TrackPointExtension>
            <ns3:hr>92</ns3:hr>
            <ns3:cad>0</ns3:cad>
          </ns3:TrackPointExtension>
        </extensions>
      </trkpt>
      <trkpt lat="37.76407658122479915618896484375" lon="-107.70834155380725860595703125">
        <ele>3712.800048828125</ele>
        <time>2023-07-29T17:38:07.000Z</time>
        <extensions>
          <ns3:TrackPointExtension>
            <ns3:hr>92</ns3:hr>
            <ns3:cad>0</ns3:cad>
          </ns3:TrackPointExtension>
        </extensions>
      </trkpt>
      <trkpt lat="37.764066942036151885986328125" lon="-107.70833325572311878204345703125">
        <ele>3712.60009765625</ele>
        <time>2023-07-29T17:38:08.000Z</time>
        <extensions>
          <ns3:TrackPointExtension>
            <ns3:hr>92</ns3:hr>
            <ns3:cad>0</ns3:cad>
          </ns3:TrackPointExtension>
        </extensions>
      </trkpt>
      <trkpt lat="37.76406048797070980072021484375" lon="-107.70832814276218414306640625">
        <ele>3712.39990234375</ele>
        <time>2023-07-29T17:38:09.000Z</time>
        <extensions>
          <ns3:TrackPointExtension>
            <ns3:hr>92</ns3:hr>
            <ns3:cad>62</ns3:cad>
          </ns3:TrackPointExtension>
        </extensions>
      </trkpt>
      <trkpt lat="37.764054201543331146240234375" lon="-107.7083226107060909271240234375">
        <ele>3712.199951171875</ele>
        <time>2023-07-29T17:38:10.000Z</time>
        <extensions>
          <ns3:TrackPointExtension>
            <ns3:hr>91</ns3:hr>
            <ns3:cad>62</ns3:cad>
          </ns3:TrackPointExtension>
        </extensions>
      </trkpt>
      <trkpt lat="37.76405093260109424591064453125" lon="-107.70831984467804431915283203125">
        <ele>3712</ele>
        <time>2023-07-29T17:38:11.000Z</time>
        <extensions>
          <ns3:TrackPointExtension>
            <ns3:hr>91</ns3:hr>
            <ns3:cad>61</ns3:cad>
          </ns3:TrackPointExtension>
        </extensions>
      </trkpt>
      <trkpt lat="37.76404221542179584503173828125" lon="-107.7083155699074268341064453125">
        <ele>3711.800048828125</ele>
        <time>2023-07-29T17:38:12.000Z</time>
        <extensions>
          <ns3:TrackPointExtension>
            <ns3:hr>90</ns3:hr>
            <ns3:cad>61</ns3:cad>
          </ns3:TrackPointExtension>
        </extensions>
      </trkpt>
      <trkpt lat="37.76402997784316539764404296875" lon="-107.7083061821758747100830078125">
        <ele>3711.39990234375</ele>
        <time>2023-07-29T17:38:13.000Z</time>
        <extensions>
          <ns3:TrackPointExtension>
            <ns3:hr>90</ns3:hr>
            <ns3:cad>61</ns3:cad>
          </ns3:TrackPointExtension>
        </extensions>
      </trkpt>
      <trkpt lat="37.76401606388390064239501953125" lon="-107.7082931064069271087646484375">
        <ele>3711.39990234375</ele>
        <time>2023-07-29T17:38:14.000Z</time>
        <extensions>
          <ns3:TrackPointExtension>
            <ns3:hr>90</ns3:hr>
            <ns3:cad>61</ns3:cad>
          </ns3:TrackPointExtension>
        </extensions>
      </trkpt>
      <trkpt lat="37.764002569019794464111328125" lon="-107.70828061737120151519775390625">
        <ele>3711.199951171875</ele>
        <time>2023-07-29T17:38:15.000Z</time>
        <extensions>
          <ns3:TrackPointExtension>
            <ns3:hr>89</ns3:hr>
            <ns3:cad>61</ns3:cad>
          </ns3:TrackPointExtension>
        </extensions>
      </trkpt>
      <trkpt lat="37.76399259455502033233642578125" lon="-107.70826821215450763702392578125">
        <ele>3710.800048828125</ele>
        <time>2023-07-29T17:38:16.000Z</time>
        <extensions>
          <ns3:TrackPointExtension>
            <ns3:hr>89</ns3:hr>
            <ns3:cad>61</ns3:cad>
          </ns3:TrackPointExtension>
        </extensions>
      </trkpt>
      <trkpt lat="37.76398538611829280853271484375" lon="-107.7082563936710357666015625">
        <ele>3710.39990234375</ele>
        <time>2023-07-29T17:38:17.000Z</time>
        <extensions>
          <ns3:TrackPointExtension>
            <ns3:hr>89</ns3:hr>
            <ns3:cad>61</ns3:cad>
          </ns3:TrackPointExtension>
        </extensions>
      </trkpt>
      <trkpt lat="37.76397398672997951507568359375" lon="-107.7082408033311367034912109375">
        <ele>3710</ele>
        <time>2023-07-29T17:38:18.000Z</time>
        <extensions>
          <ns3:TrackPointExtension>
            <ns3:hr>89</ns3:hr>
            <ns3:cad>61</ns3:cad>
          </ns3:TrackPointExtension>
        </extensions>
      </trkpt>
      <trkpt lat="37.76396728120744228363037109375" lon="-107.70823149941861629486083984375">
        <ele>3709.800048828125</ele>
        <time>2023-07-29T17:38:19.000Z</time>
        <extensions>
          <ns3:TrackPointExtension>
            <ns3:hr>89</ns3:hr>
            <ns3:cad>61</ns3:cad>
          </ns3:TrackPointExtension>
        </extensions>
      </trkpt>
      <trkpt lat="37.763961665332317352294921875" lon="-107.7082220278680324554443359375">
        <ele>3709.39990234375</ele>
        <time>2023-07-29T17:38:20.000Z</time>
        <extensions>
          <ns3:TrackPointExtension>
            <ns3:hr>90</ns3:hr>
            <ns3:cad>15</ns3:cad>
          </ns3:TrackPointExtension>
        </extensions>
      </trkpt>
      <trkpt lat="37.76395470835268497467041015625" lon="-107.70821657963097095489501953125">
        <ele>3709.39990234375</ele>
        <time>2023-07-29T17:38:21.000Z</time>
        <extensions>
          <ns3:TrackPointExtension>
            <ns3:hr>90</ns3:hr>
            <ns3:cad>15</ns3:cad>
          </ns3:TrackPointExtension>
        </extensions>
      </trkpt>
      <trkpt lat="37.76395336724817752838134765625" lon="-107.70821523852646350860595703125">
        <ele>3709.199951171875</ele>
        <time>2023-07-29T17:38:22.000Z</time>
        <extensions>
          <ns3:TrackPointExtension>
            <ns3:hr>90</ns3:hr>
            <ns3:cad>15</ns3:cad>
          </ns3:TrackPointExtension>
        </extensions>
      </trkpt>
      <trkpt lat="37.76394817046821117401123046875" lon="-107.70821389742195606231689453125">
        <ele>3709</ele>
        <time>2023-07-29T17:38:23.000Z</time>
        <extensions>
          <ns3:TrackPointExtension>
            <ns3:hr>90</ns3:hr>
            <ns3:cad>15</ns3:cad>
          </ns3:TrackPointExtension>
        </extensions>
      </trkpt>
      <trkpt lat="37.7639413811266422271728515625" lon="-107.70821138285100460052490234375">
        <ele>3708.800048828125</ele>
        <time>2023-07-29T17:38:24.000Z</time>
        <extensions>
          <ns3:TrackPointExtension>
            <ns3:hr>90</ns3:hr>
            <ns3:cad>15</ns3:cad>
          </ns3:TrackPointExtension>
        </extensions>
      </trkpt>
      <trkpt lat="37.76393073610961437225341796875" lon="-107.7082079462707042694091796875">
        <ele>3708.800048828125</ele>
        <time>2023-07-29T17:38:25.000Z</time>
        <extensions>
          <ns3:TrackPointExtension>
            <ns3:hr>90</ns3:hr>
            <ns3:cad>15</ns3:cad>
          </ns3:TrackPointExtension>
        </extensions>
      </trkpt>
      <trkpt lat="37.76392386294901371002197265625" lon="-107.7082082815468311309814453125">
        <ele>3708.60009765625</ele>
        <time>2023-07-29T17:38:26.000Z</time>
        <extensions>
          <ns3:TrackPointExtension>
            <ns3:hr>90</ns3:hr>
            <ns3:cad>15</ns3:cad>
          </ns3:TrackPointExtension>
        </extensions>
      </trkpt>
      <trkpt lat="37.76392000727355480194091796875" lon="-107.70820803008973598480224609375">
        <ele>3708.60009765625</ele>
        <time>2023-07-29T17:38:27.000Z</time>
        <extensions>
          <ns3:TrackPointExtension>
            <ns3:hr>90</ns3:hr>
            <ns3:cad>15</ns3:cad>
          </ns3:TrackPointExtension>
        </extensions>
      </trkpt>
      <trkpt lat="37.76392185129225254058837890625" lon="-107.7082112990319728851318359375">
        <ele>3708.39990234375</ele>
        <time>2023-07-29T17:38:28.000Z</time>
        <extensions>
          <ns3:TrackPointExtension>
            <ns3:hr>90</ns3:hr>
            <ns3:cad>15</ns3:cad>
          </ns3:TrackPointExtension>
        </extensions>
      </trkpt>
      <trkpt lat="37.76391665451228618621826171875" lon="-107.70821280777454376220703125">
        <ele>3708.199951171875</ele>
        <time>2023-07-29T17:38:29.000Z</time>
        <extensions>
          <ns3:TrackPointExtension>
            <ns3:hr>90</ns3:hr>
            <ns3:cad>15</ns3:cad>
          </ns3:TrackPointExtension>
        </extensions>
      </trkpt>
      <trkpt lat="37.76391732506453990936279296875" lon="-107.70821305923163890838623046875">
        <ele>3708.199951171875</ele>
        <time>2023-07-29T17:38:30.000Z</time>
        <extensions>
          <ns3:TrackPointExtension>
            <ns3:hr>90</ns3:hr>
            <ns3:cad>0</ns3:cad>
          </ns3:TrackPointExtension>
        </extensions>
      </trkpt>
      <trkpt lat="37.763915397226810455322265625" lon="-107.7082139812409877777099609375">
        <ele>3708</ele>
        <time>2023-07-29T17:38:31.000Z</time>
        <extensions>
          <ns3:TrackPointExtension>
            <ns3:hr>90</ns3:hr>
            <ns3:cad>0</ns3:cad>
          </ns3:TrackPointExtension>
        </extensions>
      </trkpt>
      <trkpt lat="37.76390709914267063140869140625" lon="-107.70821004174649715423583984375">
        <ele>3708</ele>
        <time>2023-07-29T17:38:32.000Z</time>
        <extensions>
          <ns3:TrackPointExtension>
            <ns3:hr>90</ns3:hr>
            <ns3:cad>0</ns3:cad>
          </ns3:TrackPointExtension>
        </extensions>
      </trkpt>
      <trkpt lat="37.7638937719166278839111328125" lon="-107.7082012407481670379638671875">
        <ele>3707.60009765625</ele>
        <time>2023-07-29T17:38:33.000Z</time>
        <extensions>
          <ns3:TrackPointExtension>
            <ns3:hr>90</ns3:hr>
            <ns3:cad>0</ns3:cad>
          </ns3:TrackPointExtension>
        </extensions>
      </trkpt>
      <trkpt lat="37.76388329453766345977783203125" lon="-107.70819428376853466033935546875">
        <ele>3707.39990234375</ele>
        <time>2023-07-29T17:38:34.000Z</time>
        <extensions>
          <ns3:TrackPointExtension>
            <ns3:hr>90</ns3:hr>
            <ns3:cad>0</ns3:cad>
          </ns3:TrackPointExtension>
        </extensions>
      </trkpt>
      <trkpt lat="37.7638803608715534210205078125" lon="-107.70818866789340972900390625">
        <ele>3707</ele>
        <time>2023-07-29T17:38:35.000Z</time>
        <extensions>
          <ns3:TrackPointExtension>
            <ns3:hr>90</ns3:hr>
            <ns3:cad>0</ns3:cad>
          </ns3:TrackPointExtension>
        </extensions>
      </trkpt>
      <trkpt lat="37.76388086378574371337890625" lon="-107.70818606950342655181884765625">
        <ele>3706.60009765625</ele>
        <time>2023-07-29T17:38:36.000Z</time>
        <extensions>
          <ns3:TrackPointExtension>
            <ns3:hr>91</ns3:hr>
            <ns3:cad>0</ns3:cad>
          </ns3:TrackPointExtension>
        </extensions>
      </trkpt>
      <trkpt lat="37.7638788521289825439453125" lon="-107.70817953161895275115966796875">
        <ele>3706.39990234375</ele>
        <time>2023-07-29T17:38:37.000Z</time>
        <extensions>
          <ns3:TrackPointExtension>
            <ns3:hr>92</ns3:hr>
            <ns3:cad>0</ns3:cad>
          </ns3:TrackPointExtension>
        </extensions>
      </trkpt>
      <trkpt lat="37.76387357152998447418212890625" lon="-107.70817215554416179656982421875">
        <ele>3706.39990234375</ele>
        <time>2023-07-29T17:38:38.000Z</time>
        <extensions>
          <ns3:TrackPointExtension>
            <ns3:hr>94</ns3:hr>
            <ns3:cad>61</ns3:cad>
          </ns3:TrackPointExtension>
        </extensions>
      </trkpt>
      <trkpt lat="37.7638686262071132659912109375" lon="-107.70816578529775142669677734375">
        <ele>3706.199951171875</ele>
        <time>2023-07-29T17:38:39.000Z</time>
        <extensions>
          <ns3:TrackPointExtension>
            <ns3:hr>97</ns3:hr>
            <ns3:cad>61</ns3:cad>
          </ns3:TrackPointExtension>
        </extensions>
      </trkpt>
      <trkpt lat="37.763863094151020050048828125" lon="-107.7081579901278018951416015625">
        <ele>3706</ele>
        <time>2023-07-29T17:38:40.000Z</time>
        <extensions>
          <ns3:TrackPointExtension>
            <ns3:hr>97</ns3:hr>
            <ns3:cad>0</ns3:cad>
          </ns3:TrackPointExtension>
        </extensions>
      </trkpt>
      <trkpt lat="37.7638552151620388031005859375" lon="-107.7081479318439960479736328125">
        <ele>3706</ele>
        <time>2023-07-29T17:38:41.000Z</time>
        <extensions>
          <ns3:TrackPointExtension>
            <ns3:hr>97</ns3:hr>
            <ns3:cad>0</ns3:cad>
          </ns3:TrackPointExtension>
        </extensions>
      </trkpt>
      <trkpt lat="37.76385404169559478759765625" lon="-107.70814734511077404022216796875">
        <ele>3705.800048828125</ele>
        <time>2023-07-29T17:38:42.000Z</time>
        <extensions>
          <ns3:TrackPointExtension>
            <ns3:hr>97</ns3:hr>
            <ns3:cad>0</ns3:cad>
          </ns3:TrackPointExtension>
        </extensions>
      </trkpt>
      <trkpt lat="37.7638568915426731109619140625" lon="-107.708145081996917724609375">
        <ele>3705.800048828125</ele>
        <time>2023-07-29T17:38:43.000Z</time>
        <extensions>
          <ns3:TrackPointExtension>
            <ns3:hr>97</ns3:hr>
            <ns3:cad>0</ns3:cad>
          </ns3:TrackPointExtension>
        </extensions>
      </trkpt>
      <trkpt lat="37.7638585679233074188232421875" lon="-107.70814650692045688629150390625">
        <ele>3705.60009765625</ele>
        <time>2023-07-29T17:38:44.000Z</time>
        <extensions>
          <ns3:TrackPointExtension>
            <ns3:hr>97</ns3:hr>
            <ns3:cad>0</ns3:cad>
          </ns3:TrackPointExtension>
        </extensions>
      </trkpt>
      <trkpt lat="37.7638592384755611419677734375" lon="-107.7081544697284698486328125">
        <ele>3705.60009765625</ele>
        <time>2023-07-29T17:38:45.000Z</time>
        <extensions>
          <ns3:TrackPointExtension>
            <ns3:hr>97</ns3:hr>
            <ns3:cad>0</ns3:cad>
          </ns3:TrackPointExtension>
        </extensions>
      </trkpt>
      <trkpt lat="37.7638578973710536956787109375" lon="-107.7081606723368167877197265625">
        <ele>3705.60009765625</ele>
        <time>2023-07-29T17:38:46.000Z</time>
        <extensions>
          <ns3:TrackPointExtension>
            <ns3:hr>97</ns3:hr>
            <ns3:cad>0</ns3:cad>
          </ns3:TrackPointExtension>
        </extensions>
      </trkpt>
      <trkpt lat="37.76385664008557796478271484375" lon="-107.70815991796553134918212890625">
        <ele>3705.39990234375</ele>
        <time>2023-07-29T17:38:47.000Z</time>
        <extensions>
          <ns3:TrackPointExtension>
            <ns3:hr>96</ns3:hr>
            <ns3:cad>0</ns3:cad>
          </ns3:TrackPointExtension>
        </extensions>
      </trkpt>
      <trkpt lat="37.76385462842881679534912109375" lon="-107.70815312862396240234375">
        <ele>3705.39990234375</ele>
        <time>2023-07-29T17:38:48.000Z</time>
        <extensions>
          <ns3:TrackPointExtension>
            <ns3:hr>95</ns3:hr>
            <ns3:cad>0</ns3:cad>
          </ns3:TrackPointExtension>
        </extensions>
      </trkpt>
      <trkpt lat="37.763852365314960479736328125" lon="-107.7081472612917423248291015625">
        <ele>3705.39990234375</ele>
        <time>2023-07-29T17:38:49.000Z</time>
        <extensions>
          <ns3:TrackPointExtension>
            <ns3:hr>95</ns3:hr>
            <ns3:cad>0</ns3:cad>
          </ns3:TrackPointExtension>
        </extensions>
      </trkpt>
      <trkpt lat="37.7638528682291507720947265625" lon="-107.708141393959522247314453125">
        <ele>3705.39990234375</ele>
        <time>2023-07-29T17:38:50.000Z</time>
        <extensions>
          <ns3:TrackPointExtension>
            <ns3:hr>94</ns3:hr>
            <ns3:cad>0</ns3:cad>
          </ns3:TrackPointExtension>
        </extensions>
      </trkpt>
      <trkpt lat="37.76385244913399219512939453125" lon="-107.70813577808439731597900390625">
        <ele>3705.39990234375</ele>
        <time>2023-07-29T17:38:51.000Z</time>
        <extensions>
          <ns3:TrackPointExtension>
            <ns3:hr>94</ns3:hr>
            <ns3:cad>0</ns3:cad>
          </ns3:TrackPointExtension>
        </extensions>
      </trkpt>
      <trkpt lat="37.7638568915426731109619140625" lon="-107.70813410170376300811767578125">
        <ele>3705.39990234375</ele>
        <time>2023-07-29T17:38:52.000Z</time>
        <extensions>
          <ns3:TrackPointExtension>
            <ns3:hr>94</ns3:hr>
            <ns3:cad>0</ns3:cad>
          </ns3:TrackPointExtension>
        </extensions>
      </trkpt>
      <trkpt lat="37.7638609148561954498291015625" lon="-107.70813234150409698486328125">
        <ele>3705.39990234375</ele>
        <time>2023-07-29T17:38:53.000Z</time>
        <extensions>
          <ns3:TrackPointExtension>
            <ns3:hr>93</ns3:hr>
            <ns3:cad>0</ns3:cad>
          </ns3:TrackPointExtension>
        </extensions>
      </trkpt>
      <trkpt lat="37.76386451907455921173095703125" lon="-107.7081303298473358154296875">
        <ele>3705.39990234375</ele>
        <time>2023-07-29T17:38:54.000Z</time>
        <extensions>
          <ns3:TrackPointExtension>
            <ns3:hr>93</ns3:hr>
            <ns3:cad>0</ns3:cad>
          </ns3:TrackPointExtension>
        </extensions>
      </trkpt>
      <trkpt lat="37.76386535726487636566162109375" lon="-107.70812571980059146881103515625">
        <ele>3705.60009765625</ele>
        <time>2023-07-29T17:38:55.000Z</time>
        <extensions>
          <ns3:TrackPointExtension>
            <ns3:hr>92</ns3:hr>
            <ns3:cad>0</ns3:cad>
          </ns3:TrackPointExtension>
        </extensions>
      </trkpt>
      <trkpt lat="37.763864099979400634765625" lon="-107.7081214450299739837646484375">
        <ele>3705.800048828125</ele>
        <time>2023-07-29T17:38:56.000Z</time>
        <extensions>
          <ns3:TrackPointExtension>
            <ns3:hr>90</ns3:hr>
            <ns3:cad>0</ns3:cad>
          </ns3:TrackPointExtension>
        </extensions>
      </trkpt>
      <trkpt lat="37.763861082494258880615234375" lon="-107.7081241272389888763427734375">
        <ele>3705.60009765625</ele>
        <time>2023-07-29T17:38:57.000Z</time>
        <extensions>
          <ns3:TrackPointExtension>
            <ns3:hr>89</ns3:hr>
            <ns3:cad>0</ns3:cad>
          </ns3:TrackPointExtension>
        </extensions>
      </trkpt>
      <trkpt lat="37.76385680772364139556884765625" lon="-107.7081254683434963226318359375">
        <ele>3705.60009765625</ele>
        <time>2023-07-29T17:38:58.000Z</time>
        <extensions>
          <ns3:TrackPointExtension>
            <ns3:hr>88</ns3:hr>
            <ns3:cad>0</ns3:cad>
          </ns3:TrackPointExtension>
        </extensions>
      </trkpt>
      <trkpt lat="37.7638498507440090179443359375" lon="-107.708125971257686614990234375">
        <ele>3705.60009765625</ele>
        <time>2023-07-29T17:38:59.000Z</time>
        <extensions>
          <ns3:TrackPointExtension>
            <ns3:hr>88</ns3:hr>
            <ns3:cad>0</ns3:cad>
          </ns3:TrackPointExtension>
        </extensions>
      </trkpt>
      <trkpt lat="37.76384155265986919403076171875" lon="-107.7081201039254665374755859375">
        <ele>3705.60009765625</ele>
        <time>2023-07-29T17:39:00.000Z</time>
        <extensions>
          <ns3:TrackPointExtension>
            <ns3:hr>88</ns3:hr>
            <ns3:cad>0</ns3:cad>
          </ns3:TrackPointExtension>
        </extensions>
      </trkpt>
      <trkpt lat="37.76383786462247371673583984375" lon="-107.7081231214106082916259765625">
        <ele>3705.60009765625</ele>
        <time>2023-07-29T17:39:01.000Z</time>
        <extensions>
          <ns3:TrackPointExtension>
            <ns3:hr>88</ns3:hr>
            <ns3:cad>0</ns3:cad>
          </ns3:TrackPointExtension>
        </extensions>
      </trkpt>
      <trkpt lat="37.76383434422314167022705078125" lon="-107.70812739618122577667236328125">
        <ele>3705.60009765625</ele>
        <time>2023-07-29T17:39:02.000Z</time>
        <extensions>
          <ns3:TrackPointExtension>
            <ns3:hr>88</ns3:hr>
            <ns3:cad>0</ns3:cad>
          </ns3:TrackPointExtension>
        </extensions>
      </trkpt>
      <trkpt lat="37.76383032090961933135986328125" lon="-107.70813359878957271575927734375">
        <ele>3705.60009765625</ele>
        <time>2023-07-29T17:39:03.000Z</time>
        <extensions>
          <ns3:TrackPointExtension>
            <ns3:hr>88</ns3:hr>
            <ns3:cad>0</ns3:cad>
          </ns3:TrackPointExtension>
        </extensions>
      </trkpt>
      <trkpt lat="37.76382990181446075439453125" lon="-107.7081442438066005706787109375">
        <ele>3705.60009765625</ele>
        <time>2023-07-29T17:39:04.000Z</time>
        <extensions>
          <ns3:TrackPointExtension>
            <ns3:hr>89</ns3:hr>
            <ns3:cad>0</ns3:cad>
          </ns3:TrackPointExtension>
        </extensions>
      </trkpt>
      <trkpt lat="37.76383350603282451629638671875" lon="-107.70815287716686725616455078125">
        <ele>3705.60009765625</ele>
        <time>2023-07-29T17:39:05.000Z</time>
        <extensions>
          <ns3:TrackPointExtension>
            <ns3:hr>89</ns3:hr>
            <ns3:cad>0</ns3:cad>
          </ns3:TrackPointExtension>
        </extensions>
      </trkpt>
      <trkpt lat="37.763836272060871124267578125" lon="-107.70815522409975528717041015625">
        <ele>3705.39990234375</ele>
        <time>2023-07-29T17:39:06.000Z</time>
        <extensions>
          <ns3:TrackPointExtension>
            <ns3:hr>89</ns3:hr>
            <ns3:cad>0</ns3:cad>
          </ns3:TrackPointExtension>
        </extensions>
      </trkpt>
      <trkpt lat="37.7638364396989345550537109375" lon="-107.7081544697284698486328125">
        <ele>3705.39990234375</ele>
        <time>2023-07-29T17:39:07.000Z</time>
        <extensions>
          <ns3:TrackPointExtension>
            <ns3:hr>89</ns3:hr>
            <ns3:cad>0</ns3:cad>
          </ns3:TrackPointExtension>
        </extensions>
      </trkpt>
      <trkpt lat="37.76383920572698116302490234375" lon="-107.7081539668142795562744140625">
        <ele>3705.39990234375</ele>
        <time>2023-07-29T17:39:08.000Z</time>
        <extensions>
          <ns3:TrackPointExtension>
            <ns3:hr>89</ns3:hr>
            <ns3:cad>0</ns3:cad>
          </ns3:TrackPointExtension>
        </extensions>
      </trkpt>
      <trkpt lat="37.76384197175502777099609375" lon="-107.7081583254039287567138671875">
        <ele>3705.39990234375</ele>
        <time>2023-07-29T17:39:09.000Z</time>
        <extensions>
          <ns3:TrackPointExtension>
            <ns3:hr>89</ns3:hr>
            <ns3:cad>0</ns3:cad>
          </ns3:TrackPointExtension>
        </extensions>
      </trkpt>
      <trkpt lat="37.76384440250694751739501953125" lon="-107.70816477946937084197998046875">
        <ele>3705.39990234375</ele>
        <time>2023-07-29T17:39:10.000Z</time>
        <extensions>
          <ns3:TrackPointExtension>
            <ns3:hr>89</ns3:hr>
            <ns3:cad>0</ns3:cad>
          </ns3:TrackPointExtension>
        </extensions>
      </trkpt>
      <trkpt lat="37.76384389959275722503662109375" lon="-107.7081677131354808807373046875">
        <ele>3705.199951171875</ele>
        <time>2023-07-29T17:39:11.000Z</time>
        <extensions>
          <ns3:TrackPointExtension>
            <ns3:hr>89</ns3:hr>
            <ns3:cad>0</ns3:cad>
          </ns3:TrackPointExtension>
        </extensions>
      </trkpt>
      <trkpt lat="37.763841636478900909423828125" lon="-107.70816712640225887298583984375">
        <ele>3705.199951171875</ele>
        <time>2023-07-29T17:39:12.000Z</time>
        <extensions>
          <ns3:TrackPointExtension>
            <ns3:hr>89</ns3:hr>
            <ns3:cad>0</ns3:cad>
          </ns3:TrackPointExtension>
        </extensions>
      </trkpt>
      <trkpt lat="37.76384021155536174774169921875" lon="-107.7081651985645294189453125">
        <ele>3705.199951171875</ele>
        <time>2023-07-29T17:39:13.000Z</time>
        <extensions>
          <ns3:TrackPointExtension>
            <ns3:hr>89</ns3:hr>
            <ns3:cad>0</ns3:cad>
          </ns3:TrackPointExtension>
        </extensions>
      </trkpt>
      <trkpt lat="37.7638354338705539703369140625" lon="-107.70816184580326080322265625">
        <ele>3705.199951171875</ele>
        <time>2023-07-29T17:39:14.000Z</time>
        <extensions>
          <ns3:TrackPointExtension>
            <ns3:hr>89</ns3:hr>
            <ns3:cad>0</ns3:cad>
          </ns3:TrackPointExtension>
        </extensions>
      </trkpt>
      <trkpt lat="37.76382076554000377655029296875" lon="-107.70815120078623294830322265625">
        <ele>3705</ele>
        <time>2023-07-29T17:39:15.000Z</time>
        <extensions>
          <ns3:TrackPointExtension>
            <ns3:hr>89</ns3:hr>
            <ns3:cad>0</ns3:cad>
          </ns3:TrackPointExtension>
        </extensions>
      </trkpt>
      <trkpt lat="37.76380710303783416748046875" lon="-107.70814365707337856292724609375">
        <ele>3705</ele>
        <time>2023-07-29T17:39:16.000Z</time>
        <extensions>
          <ns3:TrackPointExtension>
            <ns3:hr>89</ns3:hr>
            <ns3:cad>0</ns3:cad>
          </ns3:TrackPointExtension>
        </extensions>
      </trkpt>
      <trkpt lat="37.76380383409559726715087890625" lon="-107.70814063958823680877685546875">
        <ele>3705</ele>
        <time>2023-07-29T17:39:17.000Z</time>
        <extensions>
          <ns3:TrackPointExtension>
            <ns3:hr>89</ns3:hr>
            <ns3:cad>0</ns3:cad>
          </ns3:TrackPointExtension>
        </extensions>
      </trkpt>
      <trkpt lat="37.76380534283816814422607421875" lon="-107.7081402204930782318115234375">
        <ele>3704.60009765625</ele>
        <time>2023-07-29T17:39:18.000Z</time>
        <extensions>
          <ns3:TrackPointExtension>
            <ns3:hr>89</ns3:hr>
            <ns3:cad>0</ns3:cad>
          </ns3:TrackPointExtension>
        </extensions>
      </trkpt>
      <trkpt lat="37.7637995593249797821044921875" lon="-107.7081382088363170623779296875">
        <ele>3704.60009765625</ele>
        <time>2023-07-29T17:39:19.000Z</time>
        <extensions>
          <ns3:TrackPointExtension>
            <ns3:hr>89</ns3:hr>
            <ns3:cad>0</ns3:cad>
          </ns3:TrackPointExtension>
        </extensions>
      </trkpt>
      <trkpt lat="37.76380316354334354400634765625" lon="-107.70814147777855396270751953125">
        <ele>3704.39990234375</ele>
        <time>2023-07-29T17:39:20.000Z</time>
        <extensions>
          <ns3:TrackPointExtension>
            <ns3:hr>89</ns3:hr>
            <ns3:cad>62</ns3:cad>
          </ns3:TrackPointExtension>
        </extensions>
      </trkpt>
      <trkpt lat="37.7638069353997707366943359375" lon="-107.70813846029341220855712890625">
        <ele>3704.199951171875</ele>
        <time>2023-07-29T17:39:21.000Z</time>
        <extensions>
          <ns3:TrackPointExtension>
            <ns3:hr>89</ns3:hr>
            <ns3:cad>62</ns3:cad>
          </ns3:TrackPointExtension>
        </extensions>
      </trkpt>
      <trkpt lat="37.76379947550594806671142578125" lon="-107.70813158713281154632568359375">
        <ele>3704.199951171875</ele>
        <time>2023-07-29T17:39:22.000Z</time>
        <extensions>
          <ns3:TrackPointExtension>
            <ns3:hr>89</ns3:hr>
            <ns3:cad>62</ns3:cad>
          </ns3:TrackPointExtension>
        </extensions>
      </trkpt>
      <trkpt lat="37.76378924958407878875732421875" lon="-107.70812437869608402252197265625">
        <ele>3704</ele>
        <time>2023-07-29T17:39:23.000Z</time>
        <extensions>
          <ns3:TrackPointExtension>
            <ns3:hr>89</ns3:hr>
            <ns3:cad>62</ns3:cad>
          </ns3:TrackPointExtension>
        </extensions>
      </trkpt>
      <trkpt lat="37.7637838013470172882080078125" lon="-107.708115242421627044677734375">
        <ele>3704</ele>
        <time>2023-07-29T17:39:24.000Z</time>
        <extensions>
          <ns3:TrackPointExtension>
            <ns3:hr>90</ns3:hr>
            <ns3:cad>62</ns3:cad>
          </ns3:TrackPointExtension>
        </extensions>
      </trkpt>
      <trkpt lat="37.7637755870819091796875" lon="-107.70810761488974094390869140625">
        <ele>3703.800048828125</ele>
        <time>2023-07-29T17:39:25.000Z</time>
        <extensions>
          <ns3:TrackPointExtension>
            <ns3:hr>91</ns3:hr>
            <ns3:cad>0</ns3:cad>
          </ns3:TrackPointExtension>
        </extensions>
      </trkpt>
      <trkpt lat="37.763767205178737640380859375" lon="-107.70810090936720371246337890625">
        <ele>3703.60009765625</ele>
        <time>2023-07-29T17:39:26.000Z</time>
        <extensions>
          <ns3:TrackPointExtension>
            <ns3:hr>91</ns3:hr>
            <ns3:cad>0</ns3:cad>
          </ns3:TrackPointExtension>
        </extensions>
      </trkpt>
      <trkpt lat="37.76376075111329555511474609375" lon="-107.70809889771044254302978515625">
        <ele>3703.199951171875</ele>
        <time>2023-07-29T17:39:27.000Z</time>
        <extensions>
          <ns3:TrackPointExtension>
            <ns3:hr>91</ns3:hr>
            <ns3:cad>0</ns3:cad>
          </ns3:TrackPointExtension>
        </extensions>
      </trkpt>
      <trkpt lat="37.76375471614301204681396484375" lon="-107.708097137510776519775390625">
        <ele>3703.199951171875</ele>
        <time>2023-07-29T17:39:28.000Z</time>
        <extensions>
          <ns3:TrackPointExtension>
            <ns3:hr>91</ns3:hr>
            <ns3:cad>0</ns3:cad>
          </ns3:TrackPointExtension>
        </extensions>
      </trkpt>
      <trkpt lat="37.76374541223049163818359375" lon="-107.70809487439692020416259765625">
        <ele>3703</ele>
        <time>2023-07-29T17:39:29.000Z</time>
        <extensions>
          <ns3:TrackPointExtension>
            <ns3:hr>91</ns3:hr>
            <ns3:cad>0</ns3:cad>
          </ns3:TrackPointExtension>
        </extensions>
      </trkpt>
      <trkpt lat="37.7637358568608760833740234375" lon="-107.7080922760069370269775390625">
        <ele>3703</ele>
        <time>2023-07-29T17:39:30.000Z</time>
        <extensions>
          <ns3:TrackPointExtension>
            <ns3:hr>91</ns3:hr>
            <ns3:cad>0</ns3:cad>
          </ns3:TrackPointExtension>
        </extensions>
      </trkpt>
      <trkpt lat="37.7637298218905925750732421875" lon="-107.708091102540493011474609375">
        <ele>3702.800048828125</ele>
        <time>2023-07-29T17:39:31.000Z</time>
        <extensions>
          <ns3:TrackPointExtension>
            <ns3:hr>92</ns3:hr>
            <ns3:cad>0</ns3:cad>
          </ns3:TrackPointExtension>
        </extensions>
      </trkpt>
      <trkpt lat="37.76372320018708705902099609375" lon="-107.70809085108339786529541015625">
        <ele>3702.60009765625</ele>
        <time>2023-07-29T17:39:32.000Z</time>
        <extensions>
          <ns3:TrackPointExtension>
            <ns3:hr>92</ns3:hr>
            <ns3:cad>0</ns3:cad>
          </ns3:TrackPointExtension>
        </extensions>
      </trkpt>
      <trkpt lat="37.76371657848358154296875" lon="-107.70808883942663669586181640625">
        <ele>3702.39990234375</ele>
        <time>2023-07-29T17:39:33.000Z</time>
        <extensions>
          <ns3:TrackPointExtension>
            <ns3:hr>92</ns3:hr>
            <ns3:cad>0</ns3:cad>
          </ns3:TrackPointExtension>
        </extensions>
      </trkpt>
      <trkpt lat="37.7637147344648838043212890625" lon="-107.70808850415050983428955078125">
        <ele>3702.199951171875</ele>
        <time>2023-07-29T17:39:34.000Z</time>
        <extensions>
          <ns3:TrackPointExtension>
            <ns3:hr>92</ns3:hr>
            <ns3:cad>0</ns3:cad>
          </ns3:TrackPointExtension>
        </extensions>
      </trkpt>
      <trkpt lat="37.76370920240879058837890625" lon="-107.7080865763127803802490234375">
        <ele>3702</ele>
        <time>2023-07-29T17:39:35.000Z</time>
        <extensions>
          <ns3:TrackPointExtension>
            <ns3:hr>92</ns3:hr>
            <ns3:cad>0</ns3:cad>
          </ns3:TrackPointExtension>
        </extensions>
      </trkpt>
      <trkpt lat="37.76369906030595302581787109375" lon="-107.7080833911895751953125">
        <ele>3701.800048828125</ele>
        <time>2023-07-29T17:39:36.000Z</time>
        <extensions>
          <ns3:TrackPointExtension>
            <ns3:hr>92</ns3:hr>
            <ns3:cad>0</ns3:cad>
          </ns3:TrackPointExtension>
        </extensions>
      </trkpt>
      <trkpt lat="37.763681374490261077880859375" lon="-107.7080751769244670867919921875">
        <ele>3701.39990234375</ele>
        <time>2023-07-29T17:39:37.000Z</time>
        <extensions>
          <ns3:TrackPointExtension>
            <ns3:hr>92</ns3:hr>
            <ns3:cad>0</ns3:cad>
          </ns3:TrackPointExtension>
        </extensions>
      </trkpt>
      <trkpt lat="37.76367072947323322296142578125" lon="-107.708065621554851531982421875">
        <ele>3701</ele>
        <time>2023-07-29T17:39:38.000Z</time>
        <extensions>
          <ns3:TrackPointExtension>
            <ns3:hr>92</ns3:hr>
            <ns3:cad>0</ns3:cad>
          </ns3:TrackPointExtension>
        </extensions>
      </trkpt>
      <trkpt lat="37.7636684663593769073486328125" lon="-107.70806168206036090850830078125">
        <ele>3700.800048828125</ele>
        <time>2023-07-29T17:39:39.000Z</time>
        <extensions>
          <ns3:TrackPointExtension>
            <ns3:hr>92</ns3:hr>
            <ns3:cad>0</ns3:cad>
          </ns3:TrackPointExtension>
        </extensions>
      </trkpt>
      <trkpt lat="37.76366268284618854522705078125" lon="-107.70805564709007740020751953125">
        <ele>3700.39990234375</ele>
        <time>2023-07-29T17:39:40.000Z</time>
        <extensions>
          <ns3:TrackPointExtension>
            <ns3:hr>92</ns3:hr>
            <ns3:cad>0</ns3:cad>
          </ns3:TrackPointExtension>
        </extensions>
      </trkpt>
      <trkpt lat="37.7636508643627166748046875" lon="-107.70804651081562042236328125">
        <ele>3700.199951171875</ele>
        <time>2023-07-29T17:39:41.000Z</time>
        <extensions>
          <ns3:TrackPointExtension>
            <ns3:hr>92</ns3:hr>
            <ns3:cad>61</ns3:cad>
          </ns3:TrackPointExtension>
        </extensions>
      </trkpt>
      <trkpt lat="37.763649523258209228515625" lon="-107.70803972147405147552490234375">
        <ele>3700.199951171875</ele>
        <time>2023-07-29T17:39:42.000Z</time>
        <extensions>
          <ns3:TrackPointExtension>
            <ns3:hr>91</ns3:hr>
            <ns3:cad>62</ns3:cad>
          </ns3:TrackPointExtension>
        </extensions>
      </trkpt>
      <trkpt lat="37.7636436559259891510009765625" lon="-107.70802530460059642791748046875">
        <ele>3699.60009765625</ele>
        <time>2023-07-29T17:39:43.000Z</time>
        <extensions>
          <ns3:TrackPointExtension>
            <ns3:hr>91</ns3:hr>
            <ns3:cad>62</ns3:cad>
          </ns3:TrackPointExtension>
        </extensions>
      </trkpt>
      <trkpt lat="37.76363703422248363494873046875" lon="-107.7080128155648708343505859375">
        <ele>3699.39990234375</ele>
        <time>2023-07-29T17:39:44.000Z</time>
        <extensions>
          <ns3:TrackPointExtension>
            <ns3:hr>91</ns3:hr>
            <ns3:cad>62</ns3:cad>
          </ns3:TrackPointExtension>
        </extensions>
      </trkpt>
      <trkpt lat="37.7636299096047878265380859375" lon="-107.7080010809004306793212890625">
        <ele>3699.39990234375</ele>
        <time>2023-07-29T17:39:45.000Z</time>
        <extensions>
          <ns3:TrackPointExtension>
            <ns3:hr>90</ns3:hr>
            <ns3:cad>62</ns3:cad>
          </ns3:TrackPointExtension>
        </extensions>
      </trkpt>
      <trkpt lat="37.76362362317740917205810546875" lon="-107.70799160934984683990478515625">
        <ele>3699.199951171875</ele>
        <time>2023-07-29T17:39:46.000Z</time>
        <extensions>
          <ns3:TrackPointExtension>
            <ns3:hr>90</ns3:hr>
            <ns3:cad>62</ns3:cad>
          </ns3:TrackPointExtension>
        </extensions>
      </trkpt>
      <trkpt lat="37.76361959986388683319091796875" lon="-107.7079853229224681854248046875">
        <ele>3699</ele>
        <time>2023-07-29T17:39:47.000Z</time>
        <extensions>
          <ns3:TrackPointExtension>
            <ns3:hr>91</ns3:hr>
            <ns3:cad>62</ns3:cad>
          </ns3:TrackPointExtension>
        </extensions>
      </trkpt>
      <trkpt lat="37.763614319264888763427734375" lon="-107.707976438105106353759765625">
        <ele>3698.800048828125</ele>
        <time>2023-07-29T17:39:48.000Z</time>
        <extensions>
          <ns3:TrackPointExtension>
            <ns3:hr>91</ns3:hr>
            <ns3:cad>0</ns3:cad>
          </ns3:TrackPointExtension>
        </extensions>
      </trkpt>
      <trkpt lat="37.76360417716205120086669921875" lon="-107.707967050373554229736328125">
        <ele>3698.60009765625</ele>
        <time>2023-07-29T17:39:49.000Z</time>
        <extensions>
          <ns3:TrackPointExtension>
            <ns3:hr>91</ns3:hr>
            <ns3:cad>0</ns3:cad>
          </ns3:TrackPointExtension>
        </extensions>
      </trkpt>
      <trkpt lat="37.763595879077911376953125" lon="-107.7079578302800655364990234375">
        <ele>3698.199951171875</ele>
        <time>2023-07-29T17:39:50.000Z</time>
        <extensions>
          <ns3:TrackPointExtension>
            <ns3:hr>91</ns3:hr>
            <ns3:cad>0</ns3:cad>
          </ns3:TrackPointExtension>
        </extensions>
      </trkpt>
      <trkpt lat="37.763590514659881591796875" lon="-107.707952968776226043701171875">
        <ele>3697.800048828125</ele>
        <time>2023-07-29T17:39:51.000Z</time>
        <extensions>
          <ns3:TrackPointExtension>
            <ns3:hr>91</ns3:hr>
            <ns3:cad>0</ns3:cad>
          </ns3:TrackPointExtension>
        </extensions>
      </trkpt>
      <trkpt lat="37.7635823003947734832763671875" lon="-107.707950286567211151123046875">
        <ele>3697.60009765625</ele>
        <time>2023-07-29T17:39:52.000Z</time>
        <extensions>
          <ns3:TrackPointExtension>
            <ns3:hr>91</ns3:hr>
            <ns3:cad>0</ns3:cad>
          </ns3:TrackPointExtension>
        </extensions>
      </trkpt>
      <trkpt lat="37.7635715715587139129638671875" lon="-107.70794391632080078125">
        <ele>3697.60009765625</ele>
        <time>2023-07-29T17:39:53.000Z</time>
        <extensions>
          <ns3:TrackPointExtension>
            <ns3:hr>91</ns3:hr>
            <ns3:cad>60</ns3:cad>
          </ns3:TrackPointExtension>
        </extensions>
      </trkpt>
      <trkpt lat="37.76355925016105175018310546875" lon="-107.70793997682631015777587890625">
        <ele>3697.39990234375</ele>
        <time>2023-07-29T17:39:54.000Z</time>
        <extensions>
          <ns3:TrackPointExtension>
            <ns3:hr>91</ns3:hr>
            <ns3:cad>60</ns3:cad>
          </ns3:TrackPointExtension>
        </extensions>
      </trkpt>
      <trkpt lat="37.76355153881013393402099609375" lon="-107.7079397253692150115966796875">
        <ele>3697</ele>
        <time>2023-07-29T17:39:55.000Z</time>
        <extensions>
          <ns3:TrackPointExtension>
            <ns3:hr>91</ns3:hr>
            <ns3:cad>59</ns3:cad>
          </ns3:TrackPointExtension>
        </extensions>
      </trkpt>
      <trkpt lat="37.76354785077273845672607421875" lon="-107.707940228283405303955078125">
        <ele>3696.60009765625</ele>
        <time>2023-07-29T17:39:56.000Z</time>
        <extensions>
          <ns3:TrackPointExtension>
            <ns3:hr>91</ns3:hr>
            <ns3:cad>59</ns3:cad>
          </ns3:TrackPointExtension>
        </extensions>
      </trkpt>
      <trkpt lat="37.763545252382755279541015625" lon="-107.70793980918824672698974609375">
        <ele>3696.39990234375</ele>
        <time>2023-07-29T17:39:57.000Z</time>
        <extensions>
          <ns3:TrackPointExtension>
            <ns3:hr>91</ns3:hr>
            <ns3:cad>0</ns3:cad>
          </ns3:TrackPointExtension>
        </extensions>
      </trkpt>
      <trkpt lat="37.76354282163083553314208984375" lon="-107.70793880335986614227294921875">
        <ele>3696.199951171875</ele>
        <time>2023-07-29T17:39:58.000Z</time>
        <extensions>
          <ns3:TrackPointExtension>
            <ns3:hr>91</ns3:hr>
            <ns3:cad>0</ns3:cad>
          </ns3:TrackPointExtension>
        </extensions>
      </trkpt>
      <trkpt lat="37.7635395526885986328125" lon="-107.707942910492420196533203125">
        <ele>3696.199951171875</ele>
        <time>2023-07-29T17:39:59.000Z</time>
        <extensions>
          <ns3:TrackPointExtension>
            <ns3:hr>91</ns3:hr>
            <ns3:cad>52</ns3:cad>
          </ns3:TrackPointExtension>
        </extensions>
      </trkpt>
      <trkpt lat="37.76353485882282257080078125" lon="-107.70794198848307132720947265625">
        <ele>3696</ele>
        <time>2023-07-29T17:40:00.000Z</time>
        <extensions>
          <ns3:TrackPointExtension>
            <ns3:hr>89</ns3:hr>
            <ns3:cad>52</ns3:cad>
          </ns3:TrackPointExtension>
        </extensions>
      </trkpt>
      <trkpt lat="37.763531170785427093505859375" lon="-107.7079398930072784423828125">
        <ele>3696</ele>
        <time>2023-07-29T17:40:01.000Z</time>
        <extensions>
          <ns3:TrackPointExtension>
            <ns3:hr>89</ns3:hr>
            <ns3:cad>51</ns3:cad>
          </ns3:TrackPointExtension>
        </extensions>
      </trkpt>
      <trkpt lat="37.763524465262889862060546875" lon="-107.7079350315034389495849609375">
        <ele>3695.800048828125</ele>
        <time>2023-07-29T17:40:02.000Z</time>
        <extensions>
          <ns3:TrackPointExtension>
            <ns3:hr>88</ns3:hr>
            <ns3:cad>51</ns3:cad>
          </ns3:TrackPointExtension>
        </extensions>
      </trkpt>
      <trkpt lat="37.76351365260779857635498046875" lon="-107.70793008618056774139404296875">
        <ele>3695.800048828125</ele>
        <time>2023-07-29T17:40:03.000Z</time>
        <extensions>
          <ns3:TrackPointExtension>
            <ns3:hr>87</ns3:hr>
            <ns3:cad>51</ns3:cad>
          </ns3:TrackPointExtension>
        </extensions>
      </trkpt>
      <trkpt lat="37.76349940337240695953369140625" lon="-107.70792388357222080230712890625">
        <ele>3695.800048828125</ele>
        <time>2023-07-29T17:40:04.000Z</time>
        <extensions>
          <ns3:TrackPointExtension>
            <ns3:hr>87</ns3:hr>
            <ns3:cad>50</ns3:cad>
          </ns3:TrackPointExtension>
        </extensions>
      </trkpt>
      <trkpt lat="37.76348716579377651214599609375" lon="-107.70791650749742984771728515625">
        <ele>3695.800048828125</ele>
        <time>2023-07-29T17:40:05.000Z</time>
        <extensions>
          <ns3:TrackPointExtension>
            <ns3:hr>86</ns3:hr>
            <ns3:cad>50</ns3:cad>
          </ns3:TrackPointExtension>
        </extensions>
      </trkpt>
      <trkpt lat="37.76348280720412731170654296875" lon="-107.70791047252714633941650390625">
        <ele>3695.800048828125</ele>
        <time>2023-07-29T17:40:06.000Z</time>
        <extensions>
          <ns3:TrackPointExtension>
            <ns3:hr>86</ns3:hr>
            <ns3:cad>50</ns3:cad>
          </ns3:TrackPointExtension>
        </extensions>
      </trkpt>
      <trkpt lat="37.7634793706238269805908203125" lon="-107.70790376700460910797119140625">
        <ele>3695.60009765625</ele>
        <time>2023-07-29T17:40:07.000Z</time>
        <extensions>
          <ns3:TrackPointExtension>
            <ns3:hr>86</ns3:hr>
            <ns3:cad>0</ns3:cad>
          </ns3:TrackPointExtension>
        </extensions>
      </trkpt>
      <trkpt lat="37.76347559876739978790283203125" lon="-107.707897983491420745849609375">
        <ele>3695.60009765625</ele>
        <time>2023-07-29T17:40:08.000Z</time>
        <extensions>
          <ns3:TrackPointExtension>
            <ns3:hr>86</ns3:hr>
            <ns3:cad>0</ns3:cad>
          </ns3:TrackPointExtension>
        </extensions>
      </trkpt>
      <trkpt lat="37.7634699828922748565673828125" lon="-107.7078958041965961456298828125">
        <ele>3695.60009765625</ele>
        <time>2023-07-29T17:40:09.000Z</time>
        <extensions>
          <ns3:TrackPointExtension>
            <ns3:hr>85</ns3:hr>
            <ns3:cad>0</ns3:cad>
          </ns3:TrackPointExtension>
        </extensions>
      </trkpt>
      <trkpt lat="37.763462774455547332763671875" lon="-107.70789354108273983001708984375">
        <ele>3695.39990234375</ele>
        <time>2023-07-29T17:40:10.000Z</time>
        <extensions>
          <ns3:TrackPointExtension>
            <ns3:hr>86</ns3:hr>
            <ns3:cad>0</ns3:cad>
          </ns3:TrackPointExtension>
        </extensions>
      </trkpt>
      <trkpt lat="37.76345380581915378570556640625" lon="-107.707892954349517822265625">
        <ele>3695.199951171875</ele>
        <time>2023-07-29T17:40:11.000Z</time>
        <extensions>
          <ns3:TrackPointExtension>
            <ns3:hr>86</ns3:hr>
            <ns3:cad>0</ns3:cad>
          </ns3:TrackPointExtension>
        </extensions>
      </trkpt>
      <trkpt lat="37.76344223879277706146240234375" lon="-107.70788557827472686767578125">
        <ele>3695.199951171875</ele>
        <time>2023-07-29T17:40:12.000Z</time>
        <extensions>
          <ns3:TrackPointExtension>
            <ns3:hr>87</ns3:hr>
            <ns3:cad>0</ns3:cad>
          </ns3:TrackPointExtension>
        </extensions>
      </trkpt>
      <trkpt lat="37.7634327672421932220458984375" lon="-107.70788046531379222869873046875">
        <ele>3695</ele>
        <time>2023-07-29T17:40:13.000Z</time>
        <extensions>
          <ns3:TrackPointExtension>
            <ns3:hr>87</ns3:hr>
            <ns3:cad>0</ns3:cad>
          </ns3:TrackPointExtension>
        </extensions>
      </trkpt>
      <trkpt lat="37.7634255588054656982421875" lon="-107.70787912420928478240966796875">
        <ele>3695</ele>
        <time>2023-07-29T17:40:14.000Z</time>
        <extensions>
          <ns3:TrackPointExtension>
            <ns3:hr>87</ns3:hr>
            <ns3:cad>0</ns3:cad>
          </ns3:TrackPointExtension>
        </extensions>
      </trkpt>
      <trkpt lat="37.76341960765421390533447265625" lon="-107.70787292160093784332275390625">
        <ele>3694.800048828125</ele>
        <time>2023-07-29T17:40:15.000Z</time>
        <extensions>
          <ns3:TrackPointExtension>
            <ns3:hr>86</ns3:hr>
            <ns3:cad>0</ns3:cad>
          </ns3:TrackPointExtension>
        </extensions>
      </trkpt>
      <trkpt lat="37.76341776363551616668701171875" lon="-107.7078683115541934967041015625">
        <ele>3694.60009765625</ele>
        <time>2023-07-29T17:40:16.000Z</time>
        <extensions>
          <ns3:TrackPointExtension>
            <ns3:hr>87</ns3:hr>
            <ns3:cad>0</ns3:cad>
          </ns3:TrackPointExtension>
        </extensions>
      </trkpt>
      <trkpt lat="37.76341508142650127410888671875" lon="-107.70786688663065433502197265625">
        <ele>3694.39990234375</ele>
        <time>2023-07-29T17:40:17.000Z</time>
        <extensions>
          <ns3:TrackPointExtension>
            <ns3:hr>87</ns3:hr>
            <ns3:cad>0</ns3:cad>
          </ns3:TrackPointExtension>
        </extensions>
      </trkpt>
      <trkpt lat="37.76341256685554981231689453125" lon="-107.70786680281162261962890625">
        <ele>3694.39990234375</ele>
        <time>2023-07-29T17:40:18.000Z</time>
        <extensions>
          <ns3:TrackPointExtension>
            <ns3:hr>87</ns3:hr>
            <ns3:cad>0</ns3:cad>
          </ns3:TrackPointExtension>
        </extensions>
      </trkpt>
      <trkpt lat="37.76340753771364688873291015625" lon="-107.707865796983242034912109375">
        <ele>3694.199951171875</ele>
        <time>2023-07-29T17:40:19.000Z</time>
        <extensions>
          <ns3:TrackPointExtension>
            <ns3:hr>87</ns3:hr>
            <ns3:cad>0</ns3:cad>
          </ns3:TrackPointExtension>
        </extensions>
      </trkpt>
      <trkpt lat="37.763396389782428741455078125" lon="-107.70786269567906856536865234375">
        <ele>3694</ele>
        <time>2023-07-29T17:40:20.000Z</time>
        <extensions>
          <ns3:TrackPointExtension>
            <ns3:hr>87</ns3:hr>
            <ns3:cad>0</ns3:cad>
          </ns3:TrackPointExtension>
        </extensions>
      </trkpt>
      <trkpt lat="37.7633841522037982940673828125" lon="-107.7078595943748950958251953125">
        <ele>3693.800048828125</ele>
        <time>2023-07-29T17:40:21.000Z</time>
        <extensions>
          <ns3:TrackPointExtension>
            <ns3:hr>87</ns3:hr>
            <ns3:cad>0</ns3:cad>
          </ns3:TrackPointExtension>
        </extensions>
      </trkpt>
      <trkpt lat="37.76337149553000926971435546875" lon="-107.70785531960427761077880859375">
        <ele>3693.60009765625</ele>
        <time>2023-07-29T17:40:22.000Z</time>
        <extensions>
          <ns3:TrackPointExtension>
            <ns3:hr>87</ns3:hr>
            <ns3:cad>63</ns3:cad>
          </ns3:TrackPointExtension>
        </extensions>
      </trkpt>
      <trkpt lat="37.7633571624755859375" lon="-107.7078495360910892486572265625">
        <ele>3693.39990234375</ele>
        <time>2023-07-29T17:40:23.000Z</time>
        <extensions>
          <ns3:TrackPointExtension>
            <ns3:hr>88</ns3:hr>
            <ns3:cad>63</ns3:cad>
          </ns3:TrackPointExtension>
        </extensions>
      </trkpt>
      <trkpt lat="37.7633398957550525665283203125" lon="-107.70784207619726657867431640625">
        <ele>3693.199951171875</ele>
        <time>2023-07-29T17:40:24.000Z</time>
        <extensions>
          <ns3:TrackPointExtension>
            <ns3:hr>87</ns3:hr>
            <ns3:cad>0</ns3:cad>
          </ns3:TrackPointExtension>
        </extensions>
      </trkpt>
      <trkpt lat="37.7633274905383586883544921875" lon="-107.70783855579793453216552734375">
        <ele>3693</ele>
        <time>2023-07-29T17:40:25.000Z</time>
        <extensions>
          <ns3:TrackPointExtension>
            <ns3:hr>87</ns3:hr>
            <ns3:cad>0</ns3:cad>
          </ns3:TrackPointExtension>
        </extensions>
      </trkpt>
      <trkpt lat="37.76332019828259944915771484375" lon="-107.7078352868556976318359375">
        <ele>3692.60009765625</ele>
        <time>2023-07-29T17:40:26.000Z</time>
        <extensions>
          <ns3:TrackPointExtension>
            <ns3:hr>87</ns3:hr>
            <ns3:cad>0</ns3:cad>
          </ns3:TrackPointExtension>
        </extensions>
      </trkpt>
      <trkpt lat="37.76331734843552112579345703125" lon="-107.70783327519893646240234375">
        <ele>3692.60009765625</ele>
        <time>2023-07-29T17:40:27.000Z</time>
        <extensions>
          <ns3:TrackPointExtension>
            <ns3:hr>87</ns3:hr>
            <ns3:cad>65</ns3:cad>
          </ns3:TrackPointExtension>
        </extensions>
      </trkpt>
      <trkpt lat="37.76331349276006221771240234375" lon="-107.7078314311802387237548828125">
        <ele>3692.39990234375</ele>
        <time>2023-07-29T17:40:28.000Z</time>
        <extensions>
          <ns3:TrackPointExtension>
            <ns3:hr>87</ns3:hr>
            <ns3:cad>65</ns3:cad>
          </ns3:TrackPointExtension>
        </extensions>
      </trkpt>
      <trkpt lat="37.76330393739044666290283203125" lon="-107.70782447420060634613037109375">
        <ele>3692.39990234375</ele>
        <time>2023-07-29T17:40:29.000Z</time>
        <extensions>
          <ns3:TrackPointExtension>
            <ns3:hr>87</ns3:hr>
            <ns3:cad>65</ns3:cad>
          </ns3:TrackPointExtension>
        </extensions>
      </trkpt>
      <trkpt lat="37.76329639367759227752685546875" lon="-107.70781852304935455322265625">
        <ele>3692.199951171875</ele>
        <time>2023-07-29T17:40:30.000Z</time>
        <extensions>
          <ns3:TrackPointExtension>
            <ns3:hr>87</ns3:hr>
            <ns3:cad>65</ns3:cad>
          </ns3:TrackPointExtension>
        </extensions>
      </trkpt>
      <trkpt lat="37.76329438202083110809326171875" lon="-107.70781491883099079132080078125">
        <ele>3692</ele>
        <time>2023-07-29T17:40:31.000Z</time>
        <extensions>
          <ns3:TrackPointExtension>
            <ns3:hr>87</ns3:hr>
            <ns3:cad>0</ns3:cad>
          </ns3:TrackPointExtension>
        </extensions>
      </trkpt>
      <trkpt lat="37.7632914483547210693359375" lon="-107.70781106315553188323974609375">
        <ele>3691.800048828125</ele>
        <time>2023-07-29T17:40:32.000Z</time>
        <extensions>
          <ns3:TrackPointExtension>
            <ns3:hr>87</ns3:hr>
            <ns3:cad>0</ns3:cad>
          </ns3:TrackPointExtension>
        </extensions>
      </trkpt>
      <trkpt lat="37.7632869221270084381103515625" lon="-107.70780687220394611358642578125">
        <ele>3691.60009765625</ele>
        <time>2023-07-29T17:40:33.000Z</time>
        <extensions>
          <ns3:TrackPointExtension>
            <ns3:hr>87</ns3:hr>
            <ns3:cad>0</ns3:cad>
          </ns3:TrackPointExtension>
        </extensions>
      </trkpt>
      <trkpt lat="37.76328013278543949127197265625" lon="-107.707804106175899505615234375">
        <ele>3691.60009765625</ele>
        <time>2023-07-29T17:40:34.000Z</time>
        <extensions>
          <ns3:TrackPointExtension>
            <ns3:hr>87</ns3:hr>
            <ns3:cad>0</ns3:cad>
          </ns3:TrackPointExtension>
        </extensions>
      </trkpt>
      <trkpt lat="37.7632718347012996673583984375" lon="-107.70779882557690143585205078125">
        <ele>3691.39990234375</ele>
        <time>2023-07-29T17:40:35.000Z</time>
        <extensions>
          <ns3:TrackPointExtension>
            <ns3:hr>87</ns3:hr>
            <ns3:cad>0</ns3:cad>
          </ns3:TrackPointExtension>
        </extensions>
      </trkpt>
      <trkpt lat="37.76326202787458896636962890625" lon="-107.70779170095920562744140625">
        <ele>3691.39990234375</ele>
        <time>2023-07-29T17:40:36.000Z</time>
        <extensions>
          <ns3:TrackPointExtension>
            <ns3:hr>87</ns3:hr>
            <ns3:cad>62</ns3:cad>
          </ns3:TrackPointExtension>
        </extensions>
      </trkpt>
      <trkpt lat="37.7632513828575611114501953125" lon="-107.70778139121830463409423828125">
        <ele>3691.199951171875</ele>
        <time>2023-07-29T17:40:37.000Z</time>
        <extensions>
          <ns3:TrackPointExtension>
            <ns3:hr>87</ns3:hr>
            <ns3:cad>62</ns3:cad>
          </ns3:TrackPointExtension>
        </extensions>
      </trkpt>
      <trkpt lat="37.76324023492634296417236328125" lon="-107.707771919667720794677734375">
        <ele>3691</ele>
        <time>2023-07-29T17:40:38.000Z</time>
        <extensions>
          <ns3:TrackPointExtension>
            <ns3:hr>87</ns3:hr>
            <ns3:cad>62</ns3:cad>
          </ns3:TrackPointExtension>
        </extensions>
      </trkpt>
      <trkpt lat="37.76322782970964908599853515625" lon="-107.70776353776454925537109375">
        <ele>3690.800048828125</ele>
        <time>2023-07-29T17:40:39.000Z</time>
        <extensions>
          <ns3:TrackPointExtension>
            <ns3:hr>87</ns3:hr>
            <ns3:cad>0</ns3:cad>
          </ns3:TrackPointExtension>
        </extensions>
      </trkpt>
      <trkpt lat="37.7632151730358600616455078125" lon="-107.70775306038558483123779296875">
        <ele>3690.60009765625</ele>
        <time>2023-07-29T17:40:40.000Z</time>
        <extensions>
          <ns3:TrackPointExtension>
            <ns3:hr>87</ns3:hr>
            <ns3:cad>0</ns3:cad>
          </ns3:TrackPointExtension>
        </extensions>
      </trkpt>
      <trkpt lat="37.76321056298911571502685546875" lon="-107.70774803124368190765380859375">
        <ele>3690.39990234375</ele>
        <time>2023-07-29T17:40:41.000Z</time>
        <extensions>
          <ns3:TrackPointExtension>
            <ns3:hr>87</ns3:hr>
            <ns3:cad>0</ns3:cad>
          </ns3:TrackPointExtension>
        </extensions>
      </trkpt>
      <trkpt lat="37.76320905424654483795166015625" lon="-107.7077449299395084381103515625">
        <ele>3690.199951171875</ele>
        <time>2023-07-29T17:40:42.000Z</time>
        <extensions>
          <ns3:TrackPointExtension>
            <ns3:hr>87</ns3:hr>
            <ns3:cad>0</ns3:cad>
          </ns3:TrackPointExtension>
        </extensions>
      </trkpt>
      <trkpt lat="37.763211317360401153564453125" lon="-107.70774417556822299957275390625">
        <ele>3689.800048828125</ele>
        <time>2023-07-29T17:40:43.000Z</time>
        <extensions>
          <ns3:TrackPointExtension>
            <ns3:hr>87</ns3:hr>
            <ns3:cad>0</ns3:cad>
          </ns3:TrackPointExtension>
        </extensions>
      </trkpt>
      <trkpt lat="37.7632141672074794769287109375" lon="-107.7077378891408443450927734375">
        <ele>3689.60009765625</ele>
        <time>2023-07-29T17:40:44.000Z</time>
        <extensions>
          <ns3:TrackPointExtension>
            <ns3:hr>87</ns3:hr>
            <ns3:cad>0</ns3:cad>
          </ns3:TrackPointExtension>
        </extensions>
      </trkpt>
      <trkpt lat="37.76322145946323871612548828125" lon="-107.70773009397089481353759765625">
        <ele>3689.39990234375</ele>
        <time>2023-07-29T17:40:45.000Z</time>
        <extensions>
          <ns3:TrackPointExtension>
            <ns3:hr>87</ns3:hr>
            <ns3:cad>0</ns3:cad>
          </ns3:TrackPointExtension>
        </extensions>
      </trkpt>
      <trkpt lat="37.76322246529161930084228515625" lon="-107.70772397518157958984375">
        <ele>3689</ele>
        <time>2023-07-29T17:40:46.000Z</time>
        <extensions>
          <ns3:TrackPointExtension>
            <ns3:hr>87</ns3:hr>
            <ns3:cad>0</ns3:cad>
          </ns3:TrackPointExtension>
        </extensions>
      </trkpt>
      <trkpt lat="37.7632242254912853240966796875" lon="-107.7077194489538669586181640625">
        <ele>3688.800048828125</ele>
        <time>2023-07-29T17:40:47.000Z</time>
        <extensions>
          <ns3:TrackPointExtension>
            <ns3:hr>87</ns3:hr>
            <ns3:cad>0</ns3:cad>
          </ns3:TrackPointExtension>
        </extensions>
      </trkpt>
      <trkpt lat="37.76322715915739536285400390625" lon="-107.7077226340770721435546875">
        <ele>3688.60009765625</ele>
        <time>2023-07-29T17:40:48.000Z</time>
        <extensions>
          <ns3:TrackPointExtension>
            <ns3:hr>87</ns3:hr>
            <ns3:cad>0</ns3:cad>
          </ns3:TrackPointExtension>
        </extensions>
      </trkpt>
      <trkpt lat="37.7632208727300167083740234375" lon="-107.7077271603047847747802734375">
        <ele>3688.39990234375</ele>
        <time>2023-07-29T17:40:49.000Z</time>
        <extensions>
          <ns3:TrackPointExtension>
            <ns3:hr>87</ns3:hr>
            <ns3:cad>0</ns3:cad>
          </ns3:TrackPointExtension>
        </extensions>
      </trkpt>
      <trkpt lat="37.7632185257971286773681640625" lon="-107.70773411728441715240478515625">
        <ele>3688.199951171875</ele>
        <time>2023-07-29T17:40:50.000Z</time>
        <extensions>
          <ns3:TrackPointExtension>
            <ns3:hr>87</ns3:hr>
            <ns3:cad>0</ns3:cad>
          </ns3:TrackPointExtension>
        </extensions>
      </trkpt>
      <trkpt lat="37.76321299374103546142578125" lon="-107.70773747004568576812744140625">
        <ele>3688</ele>
        <time>2023-07-29T17:40:51.000Z</time>
        <extensions>
          <ns3:TrackPointExtension>
            <ns3:hr>88</ns3:hr>
            <ns3:cad>0</ns3:cad>
          </ns3:TrackPointExtension>
        </extensions>
      </trkpt>
      <trkpt lat="37.76320704258978366851806640625" lon="-107.70774384029209613800048828125">
        <ele>3687.800048828125</ele>
        <time>2023-07-29T17:40:52.000Z</time>
        <extensions>
          <ns3:TrackPointExtension>
            <ns3:hr>88</ns3:hr>
            <ns3:cad>0</ns3:cad>
          </ns3:TrackPointExtension>
        </extensions>
      </trkpt>
      <trkpt lat="37.76320016942918300628662109375" lon="-107.70774752832949161529541015625">
        <ele>3687.60009765625</ele>
        <time>2023-07-29T17:40:53.000Z</time>
        <extensions>
          <ns3:TrackPointExtension>
            <ns3:hr>87</ns3:hr>
            <ns3:cad>0</ns3:cad>
          </ns3:TrackPointExtension>
        </extensions>
      </trkpt>
      <trkpt lat="37.76319698430597782135009765625" lon="-107.70775306038558483123779296875">
        <ele>3687.39990234375</ele>
        <time>2023-07-29T17:40:54.000Z</time>
        <extensions>
          <ns3:TrackPointExtension>
            <ns3:hr>87</ns3:hr>
            <ns3:cad>0</ns3:cad>
          </ns3:TrackPointExtension>
        </extensions>
      </trkpt>
      <trkpt lat="37.76319614611566066741943359375" lon="-107.70775758661329746246337890625">
        <ele>3687.39990234375</ele>
        <time>2023-07-29T17:40:55.000Z</time>
        <extensions>
          <ns3:TrackPointExtension>
            <ns3:hr>86</ns3:hr>
            <ns3:cad>0</ns3:cad>
          </ns3:TrackPointExtension>
        </extensions>
      </trkpt>
      <trkpt lat="37.76319296099245548248291015625" lon="-107.70776244811713695526123046875">
        <ele>3687</ele>
        <time>2023-07-29T17:40:56.000Z</time>
        <extensions>
          <ns3:TrackPointExtension>
            <ns3:hr>86</ns3:hr>
            <ns3:cad>0</ns3:cad>
          </ns3:TrackPointExtension>
        </extensions>
      </trkpt>
      <trkpt lat="37.76319027878344058990478515625" lon="-107.7077707462012767791748046875">
        <ele>3686.800048828125</ele>
        <time>2023-07-29T17:40:57.000Z</time>
        <extensions>
          <ns3:TrackPointExtension>
            <ns3:hr>85</ns3:hr>
            <ns3:cad>0</ns3:cad>
          </ns3:TrackPointExtension>
        </extensions>
      </trkpt>
      <trkpt lat="37.76318617165088653564453125" lon="-107.7077757753431797027587890625">
        <ele>3686.60009765625</ele>
        <time>2023-07-29T17:40:58.000Z</time>
        <extensions>
          <ns3:TrackPointExtension>
            <ns3:hr>85</ns3:hr>
            <ns3:cad>0</ns3:cad>
          </ns3:TrackPointExtension>
        </extensions>
      </trkpt>
      <trkpt lat="37.76318675838410854339599609375" lon="-107.7077771164476871490478515625">
        <ele>3686.60009765625</ele>
        <time>2023-07-29T17:40:59.000Z</time>
        <extensions>
          <ns3:TrackPointExtension>
            <ns3:hr>84</ns3:hr>
            <ns3:cad>0</ns3:cad>
          </ns3:TrackPointExtension>
        </extensions>
      </trkpt>
      <trkpt lat="37.7631863392889499664306640625" lon="-107.70777937956154346466064453125">
        <ele>3686.39990234375</ele>
        <time>2023-07-29T17:41:00.000Z</time>
        <extensions>
          <ns3:TrackPointExtension>
            <ns3:hr>84</ns3:hr>
            <ns3:cad>0</ns3:cad>
          </ns3:TrackPointExtension>
        </extensions>
      </trkpt>
      <trkpt lat="37.7631839923560619354248046875" lon="-107.7077818103134632110595703125">
        <ele>3686.39990234375</ele>
        <time>2023-07-29T17:41:01.000Z</time>
        <extensions>
          <ns3:TrackPointExtension>
            <ns3:hr>84</ns3:hr>
            <ns3:cad>0</ns3:cad>
          </ns3:TrackPointExtension>
        </extensions>
      </trkpt>
      <trkpt lat="37.76317854411900043487548828125" lon="-107.7077870070934295654296875">
        <ele>3686.199951171875</ele>
        <time>2023-07-29T17:41:02.000Z</time>
        <extensions>
          <ns3:TrackPointExtension>
            <ns3:hr>83</ns3:hr>
            <ns3:cad>0</ns3:cad>
          </ns3:TrackPointExtension>
        </extensions>
      </trkpt>
      <trkpt lat="37.76317385025322437286376953125" lon="-107.7077865041792392730712890625">
        <ele>3685.800048828125</ele>
        <time>2023-07-29T17:41:03.000Z</time>
        <extensions>
          <ns3:TrackPointExtension>
            <ns3:hr>83</ns3:hr>
            <ns3:cad>0</ns3:cad>
          </ns3:TrackPointExtension>
        </extensions>
      </trkpt>
      <trkpt lat="37.76317301206290721893310546875" lon="-107.70778725855052471160888671875">
        <ele>3685.800048828125</ele>
        <time>2023-07-29T17:41:04.000Z</time>
        <extensions>
          <ns3:TrackPointExtension>
            <ns3:hr>83</ns3:hr>
            <ns3:cad>0</ns3:cad>
          </ns3:TrackPointExtension>
        </extensions>
      </trkpt>
      <trkpt lat="37.76317276060581207275390625" lon="-107.70778759382665157318115234375">
        <ele>3685.39990234375</ele>
        <time>2023-07-29T17:41:05.000Z</time>
        <extensions>
          <ns3:TrackPointExtension>
            <ns3:hr>83</ns3:hr>
            <ns3:cad>0</ns3:cad>
          </ns3:TrackPointExtension>
        </extensions>
      </trkpt>
      <trkpt lat="37.7631782926619052886962890625" lon="-107.70778633654117584228515625">
        <ele>3685.199951171875</ele>
        <time>2023-07-29T17:41:06.000Z</time>
        <extensions>
          <ns3:TrackPointExtension>
            <ns3:hr>83</ns3:hr>
            <ns3:cad>0</ns3:cad>
          </ns3:TrackPointExtension>
        </extensions>
      </trkpt>
      <trkpt lat="37.763175778090953826904296875" lon="-107.7077858336269855499267578125">
        <ele>3685</ele>
        <time>2023-07-29T17:41:07.000Z</time>
        <extensions>
          <ns3:TrackPointExtension>
            <ns3:hr>83</ns3:hr>
            <ns3:cad>0</ns3:cad>
          </ns3:TrackPointExtension>
        </extensions>
      </trkpt>
      <trkpt lat="37.763172090053558349609375" lon="-107.7077878452837467193603515625">
        <ele>3684.800048828125</ele>
        <time>2023-07-29T17:41:08.000Z</time>
        <extensions>
          <ns3:TrackPointExtension>
            <ns3:hr>82</ns3:hr>
            <ns3:cad>0</ns3:cad>
          </ns3:TrackPointExtension>
        </extensions>
      </trkpt>
      <trkpt lat="37.7631665579974651336669921875" lon="-107.7077885158360004425048828125">
        <ele>3684.60009765625</ele>
        <time>2023-07-29T17:41:09.000Z</time>
        <extensions>
          <ns3:TrackPointExtension>
            <ns3:hr>82</ns3:hr>
            <ns3:cad>0</ns3:cad>
          </ns3:TrackPointExtension>
        </extensions>
      </trkpt>
      <trkpt lat="37.76315398514270782470703125" lon="-107.70779614336788654327392578125">
        <ele>3684.39990234375</ele>
        <time>2023-07-29T17:41:10.000Z</time>
        <extensions>
          <ns3:TrackPointExtension>
            <ns3:hr>82</ns3:hr>
            <ns3:cad>0</ns3:cad>
          </ns3:TrackPointExtension>
        </extensions>
      </trkpt>
      <trkpt lat="37.7631481178104877471923828125" lon="-107.707798741757869720458984375">
        <ele>3684.39990234375</ele>
        <time>2023-07-29T17:41:11.000Z</time>
        <extensions>
          <ns3:TrackPointExtension>
            <ns3:hr>82</ns3:hr>
            <ns3:cad>0</ns3:cad>
          </ns3:TrackPointExtension>
        </extensions>
      </trkpt>
      <trkpt lat="37.76313520967960357666015625" lon="-107.70780335180461406707763671875">
        <ele>3684.199951171875</ele>
        <time>2023-07-29T17:41:12.000Z</time>
        <extensions>
          <ns3:TrackPointExtension>
            <ns3:hr>82</ns3:hr>
            <ns3:cad>0</ns3:cad>
          </ns3:TrackPointExtension>
        </extensions>
      </trkpt>
      <trkpt lat="37.76312976144254207611083984375" lon="-107.7078029327094554901123046875">
        <ele>3684</ele>
        <time>2023-07-29T17:41:13.000Z</time>
        <extensions>
          <ns3:TrackPointExtension>
            <ns3:hr>82</ns3:hr>
            <ns3:cad>0</ns3:cad>
          </ns3:TrackPointExtension>
        </extensions>
      </trkpt>
      <trkpt lat="37.76312716305255889892578125" lon="-107.7078039385378360748291015625">
        <ele>3684</ele>
        <time>2023-07-29T17:41:14.000Z</time>
        <extensions>
          <ns3:TrackPointExtension>
            <ns3:hr>82</ns3:hr>
            <ns3:cad>0</ns3:cad>
          </ns3:TrackPointExtension>
        </extensions>
      </trkpt>
      <trkpt lat="37.76312590576708316802978515625" lon="-107.70780511200428009033203125">
        <ele>3683.800048828125</ele>
        <time>2023-07-29T17:41:15.000Z</time>
        <extensions>
          <ns3:TrackPointExtension>
            <ns3:hr>82</ns3:hr>
            <ns3:cad>0</ns3:cad>
          </ns3:TrackPointExtension>
        </extensions>
      </trkpt>
      <trkpt lat="37.7631331980228424072265625" lon="-107.70780150778591632843017578125">
        <ele>3683.60009765625</ele>
        <time>2023-07-29T17:41:16.000Z</time>
        <extensions>
          <ns3:TrackPointExtension>
            <ns3:hr>82</ns3:hr>
            <ns3:cad>0</ns3:cad>
          </ns3:TrackPointExtension>
        </extensions>
      </trkpt>
      <trkpt lat="37.76313722133636474609375" lon="-107.7078012563288211822509765625">
        <ele>3683.39990234375</ele>
        <time>2023-07-29T17:41:17.000Z</time>
        <extensions>
          <ns3:TrackPointExtension>
            <ns3:hr>82</ns3:hr>
            <ns3:cad>0</ns3:cad>
          </ns3:TrackPointExtension>
        </extensions>
      </trkpt>
      <trkpt lat="37.76314459741115570068359375" lon="-107.707797400653362274169921875">
        <ele>3683.199951171875</ele>
        <time>2023-07-29T17:41:18.000Z</time>
        <extensions>
          <ns3:TrackPointExtension>
            <ns3:hr>82</ns3:hr>
            <ns3:cad>0</ns3:cad>
          </ns3:TrackPointExtension>
        </extensions>
      </trkpt>
      <trkpt lat="37.76314417831599712371826171875" lon="-107.707798741757869720458984375">
        <ele>3683.199951171875</ele>
        <time>2023-07-29T17:41:19.000Z</time>
        <extensions>
          <ns3:TrackPointExtension>
            <ns3:hr>82</ns3:hr>
            <ns3:cad>0</ns3:cad>
          </ns3:TrackPointExtension>
        </extensions>
      </trkpt>
      <trkpt lat="37.763142250478267669677734375" lon="-107.70779949612915515899658203125">
        <ele>3683</ele>
        <time>2023-07-29T17:41:20.000Z</time>
        <extensions>
          <ns3:TrackPointExtension>
            <ns3:hr>82</ns3:hr>
            <ns3:cad>0</ns3:cad>
          </ns3:TrackPointExtension>
        </extensions>
      </trkpt>
      <trkpt lat="37.76313143782317638397216796875" lon="-107.70780569873750209808349609375">
        <ele>3682.800048828125</ele>
        <time>2023-07-29T17:41:21.000Z</time>
        <extensions>
          <ns3:TrackPointExtension>
            <ns3:hr>82</ns3:hr>
            <ns3:cad>0</ns3:cad>
          </ns3:TrackPointExtension>
        </extensions>
      </trkpt>
      <trkpt lat="37.7631189487874507904052734375" lon="-107.70781056024134159088134765625">
        <ele>3682.60009765625</ele>
        <time>2023-07-29T17:41:22.000Z</time>
        <extensions>
          <ns3:TrackPointExtension>
            <ns3:hr>83</ns3:hr>
            <ns3:cad>0</ns3:cad>
          </ns3:TrackPointExtension>
        </extensions>
      </trkpt>
      <trkpt lat="37.76311333291232585906982421875" lon="-107.7078099735081195831298828125">
        <ele>3682.60009765625</ele>
        <time>2023-07-29T17:41:23.000Z</time>
        <extensions>
          <ns3:TrackPointExtension>
            <ns3:hr>82</ns3:hr>
            <ns3:cad>0</ns3:cad>
          </ns3:TrackPointExtension>
        </extensions>
      </trkpt>
      <trkpt lat="37.763102687895298004150390625" lon="-107.7078166790306568145751953125">
        <ele>3682.39990234375</ele>
        <time>2023-07-29T17:41:24.000Z</time>
        <extensions>
          <ns3:TrackPointExtension>
            <ns3:hr>82</ns3:hr>
            <ns3:cad>0</ns3:cad>
          </ns3:TrackPointExtension>
        </extensions>
      </trkpt>
      <trkpt lat="37.76309673674404621124267578125" lon="-107.7078191936016082763671875">
        <ele>3682.199951171875</ele>
        <time>2023-07-29T17:41:25.000Z</time>
        <extensions>
          <ns3:TrackPointExtension>
            <ns3:hr>82</ns3:hr>
            <ns3:cad>0</ns3:cad>
          </ns3:TrackPointExtension>
        </extensions>
      </trkpt>
      <trkpt lat="37.7630884386599063873291015625" lon="-107.707823552191257476806640625">
        <ele>3682.199951171875</ele>
        <time>2023-07-29T17:41:26.000Z</time>
        <extensions>
          <ns3:TrackPointExtension>
            <ns3:hr>82</ns3:hr>
            <ns3:cad>0</ns3:cad>
          </ns3:TrackPointExtension>
        </extensions>
      </trkpt>
      <trkpt lat="37.76308332569897174835205078125" lon="-107.7078257314860820770263671875">
        <ele>3682.199951171875</ele>
        <time>2023-07-29T17:41:27.000Z</time>
        <extensions>
          <ns3:TrackPointExtension>
            <ns3:hr>82</ns3:hr>
            <ns3:cad>0</ns3:cad>
          </ns3:TrackPointExtension>
        </extensions>
      </trkpt>
      <trkpt lat="37.763083241879940032958984375" lon="-107.70782522857189178466796875">
        <ele>3682</ele>
        <time>2023-07-29T17:41:28.000Z</time>
        <extensions>
          <ns3:TrackPointExtension>
            <ns3:hr>82</ns3:hr>
            <ns3:cad>0</ns3:cad>
          </ns3:TrackPointExtension>
        </extensions>
      </trkpt>
      <trkpt lat="37.763080894947052001953125" lon="-107.70782698877155780792236328125">
        <ele>3681.800048828125</ele>
        <time>2023-07-29T17:41:29.000Z</time>
        <extensions>
          <ns3:TrackPointExtension>
            <ns3:hr>82</ns3:hr>
            <ns3:cad>0</ns3:cad>
          </ns3:TrackPointExtension>
        </extensions>
      </trkpt>
      <trkpt lat="37.76307762600481510162353515625" lon="-107.70783235318958759307861328125">
        <ele>3681.60009765625</ele>
        <time>2023-07-29T17:41:30.000Z</time>
        <extensions>
          <ns3:TrackPointExtension>
            <ns3:hr>83</ns3:hr>
            <ns3:cad>0</ns3:cad>
          </ns3:TrackPointExtension>
        </extensions>
      </trkpt>
      <trkpt lat="37.76307863183319568634033203125" lon="-107.7078388072550296783447265625">
        <ele>3681.199951171875</ele>
        <time>2023-07-29T17:41:31.000Z</time>
        <extensions>
          <ns3:TrackPointExtension>
            <ns3:hr>83</ns3:hr>
            <ns3:cad>0</ns3:cad>
          </ns3:TrackPointExtension>
        </extensions>
      </trkpt>
      <trkpt lat="37.763078212738037109375" lon="-107.70785800181329250335693359375">
        <ele>3681.199951171875</ele>
        <time>2023-07-29T17:41:32.000Z</time>
        <extensions>
          <ns3:TrackPointExtension>
            <ns3:hr>84</ns3:hr>
            <ns3:cad>0</ns3:cad>
          </ns3:TrackPointExtension>
        </extensions>
      </trkpt>
      <trkpt lat="37.76306857354938983917236328125" lon="-107.70786738954484462738037109375">
        <ele>3681</ele>
        <time>2023-07-29T17:41:33.000Z</time>
        <extensions>
          <ns3:TrackPointExtension>
            <ns3:hr>86</ns3:hr>
            <ns3:cad>0</ns3:cad>
          </ns3:TrackPointExtension>
        </extensions>
      </trkpt>
      <trkpt lat="37.76306320913136005401611328125" lon="-107.7078701555728912353515625">
        <ele>3680.60009765625</ele>
        <time>2023-07-29T17:41:34.000Z</time>
        <extensions>
          <ns3:TrackPointExtension>
            <ns3:hr>87</ns3:hr>
            <ns3:cad>0</ns3:cad>
          </ns3:TrackPointExtension>
        </extensions>
      </trkpt>
      <trkpt lat="37.76305700652301311492919921875" lon="-107.70787241868674755096435546875">
        <ele>3680.39990234375</ele>
        <time>2023-07-29T17:41:35.000Z</time>
        <extensions>
          <ns3:TrackPointExtension>
            <ns3:hr>87</ns3:hr>
            <ns3:cad>0</ns3:cad>
          </ns3:TrackPointExtension>
        </extensions>
      </trkpt>
      <trkpt lat="37.7630539052188396453857421875" lon="-107.7078688144683837890625">
        <ele>3680.199951171875</ele>
        <time>2023-07-29T17:41:36.000Z</time>
        <extensions>
          <ns3:TrackPointExtension>
            <ns3:hr>88</ns3:hr>
            <ns3:cad>0</ns3:cad>
          </ns3:TrackPointExtension>
        </extensions>
      </trkpt>
      <trkpt lat="37.76304912753403186798095703125" lon="-107.70786504261195659637451171875">
        <ele>3680</ele>
        <time>2023-07-29T17:41:37.000Z</time>
        <extensions>
          <ns3:TrackPointExtension>
            <ns3:hr>89</ns3:hr>
            <ns3:cad>0</ns3:cad>
          </ns3:TrackPointExtension>
        </extensions>
      </trkpt>
      <trkpt lat="37.7630455233156681060791015625" lon="-107.707865126430988311767578125">
        <ele>3679.800048828125</ele>
        <time>2023-07-29T17:41:38.000Z</time>
        <extensions>
          <ns3:TrackPointExtension>
            <ns3:hr>90</ns3:hr>
            <ns3:cad>0</ns3:cad>
          </ns3:TrackPointExtension>
        </extensions>
      </trkpt>
      <trkpt lat="37.763043679296970367431640625" lon="-107.70786319859325885772705078125">
        <ele>3679.60009765625</ele>
        <time>2023-07-29T17:41:39.000Z</time>
        <extensions>
          <ns3:TrackPointExtension>
            <ns3:hr>90</ns3:hr>
            <ns3:cad>0</ns3:cad>
          </ns3:TrackPointExtension>
        </extensions>
      </trkpt>
      <trkpt lat="37.76304225437343120574951171875" lon="-107.7078622765839099884033203125">
        <ele>3679.60009765625</ele>
        <time>2023-07-29T17:41:40.000Z</time>
        <extensions>
          <ns3:TrackPointExtension>
            <ns3:hr>91</ns3:hr>
            <ns3:cad>0</ns3:cad>
          </ns3:TrackPointExtension>
        </extensions>
      </trkpt>
      <trkpt lat="37.76304074563086032867431640625" lon="-107.707864455878734588623046875">
        <ele>3679.199951171875</ele>
        <time>2023-07-29T17:41:41.000Z</time>
        <extensions>
          <ns3:TrackPointExtension>
            <ns3:hr>92</ns3:hr>
            <ns3:cad>0</ns3:cad>
          </ns3:TrackPointExtension>
        </extensions>
      </trkpt>
      <trkpt lat="37.7630347944796085357666015625" lon="-107.70786688663065433502197265625">
        <ele>3679.199951171875</ele>
        <time>2023-07-29T17:41:42.000Z</time>
        <extensions>
          <ns3:TrackPointExtension>
            <ns3:hr>92</ns3:hr>
            <ns3:cad>0</ns3:cad>
          </ns3:TrackPointExtension>
        </extensions>
      </trkpt>
      <trkpt lat="37.76303471066057682037353515625" lon="-107.70787359215319156646728515625">
        <ele>3679.199951171875</ele>
        <time>2023-07-29T17:41:43.000Z</time>
        <extensions>
          <ns3:TrackPointExtension>
            <ns3:hr>93</ns3:hr>
            <ns3:cad>0</ns3:cad>
          </ns3:TrackPointExtension>
        </extensions>
      </trkpt>
      <trkpt lat="37.7630307711660861968994140625" lon="-107.70787895657122135162353515625">
        <ele>3679</ele>
        <time>2023-07-29T17:41:44.000Z</time>
        <extensions>
          <ns3:TrackPointExtension>
            <ns3:hr>93</ns3:hr>
            <ns3:cad>0</ns3:cad>
          </ns3:TrackPointExtension>
        </extensions>
      </trkpt>
      <trkpt lat="37.7630280889570713043212890625" lon="-107.70788155496120452880859375">
        <ele>3678.60009765625</ele>
        <time>2023-07-29T17:41:45.000Z</time>
        <extensions>
          <ns3:TrackPointExtension>
            <ns3:hr>94</ns3:hr>
            <ns3:cad>0</ns3:cad>
          </ns3:TrackPointExtension>
        </extensions>
      </trkpt>
      <trkpt lat="37.763019539415836334228515625" lon="-107.70788650028407573699951171875">
        <ele>3678.39990234375</ele>
        <time>2023-07-29T17:41:46.000Z</time>
        <extensions>
          <ns3:TrackPointExtension>
            <ns3:hr>94</ns3:hr>
            <ns3:cad>0</ns3:cad>
          </ns3:TrackPointExtension>
        </extensions>
      </trkpt>
      <trkpt lat="37.76301325298845767974853515625" lon="-107.707891948521137237548828125">
        <ele>3678.199951171875</ele>
        <time>2023-07-29T17:41:47.000Z</time>
        <extensions>
          <ns3:TrackPointExtension>
            <ns3:hr>95</ns3:hr>
            <ns3:cad>0</ns3:cad>
          </ns3:TrackPointExtension>
        </extensions>
      </trkpt>
      <trkpt lat="37.76300755329430103302001953125" lon="-107.70789119414985179901123046875">
        <ele>3678</ele>
        <time>2023-07-29T17:41:48.000Z</time>
        <extensions>
          <ns3:TrackPointExtension>
            <ns3:hr>97</ns3:hr>
            <ns3:cad>0</ns3:cad>
          </ns3:TrackPointExtension>
        </extensions>
      </trkpt>
      <trkpt lat="37.763001434504985809326171875" lon="-107.7078947983682155609130859375">
        <ele>3677.60009765625</ele>
        <time>2023-07-29T17:41:49.000Z</time>
        <extensions>
          <ns3:TrackPointExtension>
            <ns3:hr>100</ns3:hr>
            <ns3:cad>0</ns3:cad>
          </ns3:TrackPointExtension>
        </extensions>
      </trkpt>
      <trkpt lat="37.7630016021430492401123046875" lon="-107.70789253525435924530029296875">
        <ele>3677.199951171875</ele>
        <time>2023-07-29T17:41:50.000Z</time>
        <extensions>
          <ns3:TrackPointExtension>
            <ns3:hr>101</ns3:hr>
            <ns3:cad>0</ns3:cad>
          </ns3:TrackPointExtension>
        </extensions>
      </trkpt>
      <trkpt lat="37.76299732737243175506591796875" lon="-107.7078902721405029296875">
        <ele>3677</ele>
        <time>2023-07-29T17:41:51.000Z</time>
        <extensions>
          <ns3:TrackPointExtension>
            <ns3:hr>101</ns3:hr>
            <ns3:cad>0</ns3:cad>
          </ns3:TrackPointExtension>
        </extensions>
      </trkpt>
      <trkpt lat="37.7629868499934673309326171875" lon="-107.70789085887372493743896484375">
        <ele>3676.800048828125</ele>
        <time>2023-07-29T17:41:52.000Z</time>
        <extensions>
          <ns3:TrackPointExtension>
            <ns3:hr>101</ns3:hr>
            <ns3:cad>0</ns3:cad>
          </ns3:TrackPointExtension>
        </extensions>
      </trkpt>
      <trkpt lat="37.7629757858812808990478515625" lon="-107.70789437927305698394775390625">
        <ele>3676.39990234375</ele>
        <time>2023-07-29T17:41:53.000Z</time>
        <extensions>
          <ns3:TrackPointExtension>
            <ns3:hr>100</ns3:hr>
            <ns3:cad>0</ns3:cad>
          </ns3:TrackPointExtension>
        </extensions>
      </trkpt>
      <trkpt lat="37.76297025382518768310546875" lon="-107.70789387635886669158935546875">
        <ele>3676.199951171875</ele>
        <time>2023-07-29T17:41:54.000Z</time>
        <extensions>
          <ns3:TrackPointExtension>
            <ns3:hr>100</ns3:hr>
            <ns3:cad>0</ns3:cad>
          </ns3:TrackPointExtension>
        </extensions>
      </trkpt>
      <trkpt lat="37.7629633806645870208740234375" lon="-107.70789454691112041473388671875">
        <ele>3676.199951171875</ele>
        <time>2023-07-29T17:41:55.000Z</time>
        <extensions>
          <ns3:TrackPointExtension>
            <ns3:hr>99</ns3:hr>
            <ns3:cad>0</ns3:cad>
          </ns3:TrackPointExtension>
        </extensions>
      </trkpt>
      <trkpt lat="37.76295684278011322021484375" lon="-107.707897312939167022705078125">
        <ele>3676</ele>
        <time>2023-07-29T17:41:56.000Z</time>
        <extensions>
          <ns3:TrackPointExtension>
            <ns3:hr>98</ns3:hr>
            <ns3:cad>0</ns3:cad>
          </ns3:TrackPointExtension>
        </extensions>
      </trkpt>
      <trkpt lat="37.76295256800949573516845703125" lon="-107.7079015038907527923583984375">
        <ele>3675.60009765625</ele>
        <time>2023-07-29T17:41:57.000Z</time>
        <extensions>
          <ns3:TrackPointExtension>
            <ns3:hr>98</ns3:hr>
            <ns3:cad>0</ns3:cad>
          </ns3:TrackPointExtension>
        </extensions>
      </trkpt>
      <trkpt lat="37.76294670067727565765380859375" lon="-107.7079061977565288543701171875">
        <ele>3675.60009765625</ele>
        <time>2023-07-29T17:41:58.000Z</time>
        <extensions>
          <ns3:TrackPointExtension>
            <ns3:hr>97</ns3:hr>
            <ns3:cad>0</ns3:cad>
          </ns3:TrackPointExtension>
        </extensions>
      </trkpt>
      <trkpt lat="37.76293362490832805633544921875" lon="-107.7079112268984317779541015625">
        <ele>3675.199951171875</ele>
        <time>2023-07-29T17:41:59.000Z</time>
        <extensions>
          <ns3:TrackPointExtension>
            <ns3:hr>97</ns3:hr>
            <ns3:cad>0</ns3:cad>
          </ns3:TrackPointExtension>
        </extensions>
      </trkpt>
      <trkpt lat="37.7629261650145053863525390625" lon="-107.70791508257389068603515625">
        <ele>3675</ele>
        <time>2023-07-29T17:42:00.000Z</time>
        <extensions>
          <ns3:TrackPointExtension>
            <ns3:hr>97</ns3:hr>
            <ns3:cad>0</ns3:cad>
          </ns3:TrackPointExtension>
        </extensions>
      </trkpt>
      <trkpt lat="37.7629177831113338470458984375" lon="-107.70791717804968357086181640625">
        <ele>3674.60009765625</ele>
        <time>2023-07-29T17:42:01.000Z</time>
        <extensions>
          <ns3:TrackPointExtension>
            <ns3:hr>97</ns3:hr>
            <ns3:cad>0</ns3:cad>
          </ns3:TrackPointExtension>
        </extensions>
      </trkpt>
      <trkpt lat="37.762917615473270416259765625" lon="-107.70791382528841495513916015625">
        <ele>3674.199951171875</ele>
        <time>2023-07-29T17:42:02.000Z</time>
        <extensions>
          <ns3:TrackPointExtension>
            <ns3:hr>97</ns3:hr>
            <ns3:cad>0</ns3:cad>
          </ns3:TrackPointExtension>
        </extensions>
      </trkpt>
      <trkpt lat="37.76291334070265293121337890625" lon="-107.70790561102330684661865234375">
        <ele>3674</ele>
        <time>2023-07-29T17:42:03.000Z</time>
        <extensions>
          <ns3:TrackPointExtension>
            <ns3:hr>96</ns3:hr>
            <ns3:cad>0</ns3:cad>
          </ns3:TrackPointExtension>
        </extensions>
      </trkpt>
      <trkpt lat="37.76290663518011569976806640625" lon="-107.70790175534784793853759765625">
        <ele>3673.800048828125</ele>
        <time>2023-07-29T17:42:04.000Z</time>
        <extensions>
          <ns3:TrackPointExtension>
            <ns3:hr>96</ns3:hr>
            <ns3:cad>0</ns3:cad>
          </ns3:TrackPointExtension>
        </extensions>
      </trkpt>
      <trkpt lat="37.7628973312675952911376953125" lon="-107.70789404399693012237548828125">
        <ele>3673.60009765625</ele>
        <time>2023-07-29T17:42:05.000Z</time>
        <extensions>
          <ns3:TrackPointExtension>
            <ns3:hr>95</ns3:hr>
            <ns3:cad>0</ns3:cad>
          </ns3:TrackPointExtension>
        </extensions>
      </trkpt>
      <trkpt lat="37.76290110312402248382568359375" lon="-107.7078867517411708831787109375">
        <ele>3673.39990234375</ele>
        <time>2023-07-29T17:42:06.000Z</time>
        <extensions>
          <ns3:TrackPointExtension>
            <ns3:hr>95</ns3:hr>
            <ns3:cad>0</ns3:cad>
          </ns3:TrackPointExtension>
        </extensions>
      </trkpt>
      <trkpt lat="37.76289272122085094451904296875" lon="-107.70788515917956829071044921875">
        <ele>3673</ele>
        <time>2023-07-29T17:42:07.000Z</time>
        <extensions>
          <ns3:TrackPointExtension>
            <ns3:hr>95</ns3:hr>
            <ns3:cad>0</ns3:cad>
          </ns3:TrackPointExtension>
        </extensions>
      </trkpt>
      <trkpt lat="37.7628835849463939666748046875" lon="-107.70788423717021942138671875">
        <ele>3672.800048828125</ele>
        <time>2023-07-29T17:42:08.000Z</time>
        <extensions>
          <ns3:TrackPointExtension>
            <ns3:hr>95</ns3:hr>
            <ns3:cad>0</ns3:cad>
          </ns3:TrackPointExtension>
        </extensions>
      </trkpt>
      <trkpt lat="37.7628783881664276123046875" lon="-107.70789136178791522979736328125">
        <ele>3672.60009765625</ele>
        <time>2023-07-29T17:42:09.000Z</time>
        <extensions>
          <ns3:TrackPointExtension>
            <ns3:hr>95</ns3:hr>
            <ns3:cad>0</ns3:cad>
          </ns3:TrackPointExtension>
        </extensions>
      </trkpt>
      <trkpt lat="37.762867994606494903564453125" lon="-107.7078981511294841766357421875">
        <ele>3672.39990234375</ele>
        <time>2023-07-29T17:42:10.000Z</time>
        <extensions>
          <ns3:TrackPointExtension>
            <ns3:hr>94</ns3:hr>
            <ns3:cad>0</ns3:cad>
          </ns3:TrackPointExtension>
        </extensions>
      </trkpt>
      <trkpt lat="37.76286271400749683380126953125" lon="-107.70790209062397480010986328125">
        <ele>3672.199951171875</ele>
        <time>2023-07-29T17:42:11.000Z</time>
        <extensions>
          <ns3:TrackPointExtension>
            <ns3:hr>94</ns3:hr>
            <ns3:cad>0</ns3:cad>
          </ns3:TrackPointExtension>
        </extensions>
      </trkpt>
      <trkpt lat="37.76285483501851558685302734375" lon="-107.70791097544133663177490234375">
        <ele>3672</ele>
        <time>2023-07-29T17:42:12.000Z</time>
        <extensions>
          <ns3:TrackPointExtension>
            <ns3:hr>94</ns3:hr>
            <ns3:cad>0</ns3:cad>
          </ns3:TrackPointExtension>
        </extensions>
      </trkpt>
      <trkpt lat="37.7628520689904689788818359375" lon="-107.707918100059032440185546875">
        <ele>3671.60009765625</ele>
        <time>2023-07-29T17:42:13.000Z</time>
        <extensions>
          <ns3:TrackPointExtension>
            <ns3:hr>94</ns3:hr>
            <ns3:cad>0</ns3:cad>
          </ns3:TrackPointExtension>
        </extensions>
      </trkpt>
      <trkpt lat="37.7628430165350437164306640625" lon="-107.70792555995285511016845703125">
        <ele>3671.39990234375</ele>
        <time>2023-07-29T17:42:14.000Z</time>
        <extensions>
          <ns3:TrackPointExtension>
            <ns3:hr>93</ns3:hr>
            <ns3:cad>0</ns3:cad>
          </ns3:TrackPointExtension>
        </extensions>
      </trkpt>
      <trkpt lat="37.76283748447895050048828125" lon="-107.7079279907047748565673828125">
        <ele>3671.199951171875</ele>
        <time>2023-07-29T17:42:15.000Z</time>
        <extensions>
          <ns3:TrackPointExtension>
            <ns3:hr>93</ns3:hr>
            <ns3:cad>0</ns3:cad>
          </ns3:TrackPointExtension>
        </extensions>
      </trkpt>
      <trkpt lat="37.762834131717681884765625" lon="-107.7079289965331554412841796875">
        <ele>3670.800048828125</ele>
        <time>2023-07-29T17:42:16.000Z</time>
        <extensions>
          <ns3:TrackPointExtension>
            <ns3:hr>92</ns3:hr>
            <ns3:cad>0</ns3:cad>
          </ns3:TrackPointExtension>
        </extensions>
      </trkpt>
      <trkpt lat="37.76283119805157184600830078125" lon="-107.7079243026673793792724609375">
        <ele>3670.800048828125</ele>
        <time>2023-07-29T17:42:17.000Z</time>
        <extensions>
          <ns3:TrackPointExtension>
            <ns3:hr>92</ns3:hr>
            <ns3:cad>0</ns3:cad>
          </ns3:TrackPointExtension>
        </extensions>
      </trkpt>
      <trkpt lat="37.7628373168408870697021484375" lon="-107.70791399292647838592529296875">
        <ele>3670.39990234375</ele>
        <time>2023-07-29T17:42:18.000Z</time>
        <extensions>
          <ns3:TrackPointExtension>
            <ns3:hr>92</ns3:hr>
            <ns3:cad>0</ns3:cad>
          </ns3:TrackPointExtension>
        </extensions>
      </trkpt>
      <trkpt lat="37.76283756829798221588134765625" lon="-107.70790728740394115447998046875">
        <ele>3670.199951171875</ele>
        <time>2023-07-29T17:42:19.000Z</time>
        <extensions>
          <ns3:TrackPointExtension>
            <ns3:hr>92</ns3:hr>
            <ns3:cad>69</ns3:cad>
          </ns3:TrackPointExtension>
        </extensions>
      </trkpt>
      <trkpt lat="37.7628381550312042236328125" lon="-107.7079004980623722076416015625">
        <ele>3670</ele>
        <time>2023-07-29T17:42:20.000Z</time>
        <extensions>
          <ns3:TrackPointExtension>
            <ns3:hr>92</ns3:hr>
            <ns3:cad>69</ns3:cad>
          </ns3:TrackPointExtension>
        </extensions>
      </trkpt>
      <trkpt lat="37.7628312818706035614013671875" lon="-107.7078981511294841766357421875">
        <ele>3669.60009765625</ele>
        <time>2023-07-29T17:42:21.000Z</time>
        <extensions>
          <ns3:TrackPointExtension>
            <ns3:hr>91</ns3:hr>
            <ns3:cad>69</ns3:cad>
          </ns3:TrackPointExtension>
        </extensions>
      </trkpt>
      <trkpt lat="37.7628302760422229766845703125" lon="-107.70789957605302333831787109375">
        <ele>3669.39990234375</ele>
        <time>2023-07-29T17:42:22.000Z</time>
        <extensions>
          <ns3:TrackPointExtension>
            <ns3:hr>90</ns3:hr>
            <ns3:cad>0</ns3:cad>
          </ns3:TrackPointExtension>
        </extensions>
      </trkpt>
      <trkpt lat="37.76282818056643009185791015625" lon="-107.70790167152881622314453125">
        <ele>3669.39990234375</ele>
        <time>2023-07-29T17:42:23.000Z</time>
        <extensions>
          <ns3:TrackPointExtension>
            <ns3:hr>90</ns3:hr>
            <ns3:cad>0</ns3:cad>
          </ns3:TrackPointExtension>
        </extensions>
      </trkpt>
      <trkpt lat="37.762828767299652099609375" lon="-107.7079095505177974700927734375">
        <ele>3669.39990234375</ele>
        <time>2023-07-29T17:42:24.000Z</time>
        <extensions>
          <ns3:TrackPointExtension>
            <ns3:hr>89</ns3:hr>
            <ns3:cad>0</ns3:cad>
          </ns3:TrackPointExtension>
        </extensions>
      </trkpt>
      <trkpt lat="37.7628225646913051605224609375" lon="-107.7079132385551929473876953125">
        <ele>3669.199951171875</ele>
        <time>2023-07-29T17:42:25.000Z</time>
        <extensions>
          <ns3:TrackPointExtension>
            <ns3:hr>90</ns3:hr>
            <ns3:cad>0</ns3:cad>
          </ns3:TrackPointExtension>
        </extensions>
      </trkpt>
      <trkpt lat="37.7628148533403873443603515625" lon="-107.707912065088748931884765625">
        <ele>3669</ele>
        <time>2023-07-29T17:42:26.000Z</time>
        <extensions>
          <ns3:TrackPointExtension>
            <ns3:hr>90</ns3:hr>
            <ns3:cad>0</ns3:cad>
          </ns3:TrackPointExtension>
        </extensions>
      </trkpt>
      <trkpt lat="37.7628058008849620819091796875" lon="-107.7079038508236408233642578125">
        <ele>3669</ele>
        <time>2023-07-29T17:42:27.000Z</time>
        <extensions>
          <ns3:TrackPointExtension>
            <ns3:hr>90</ns3:hr>
            <ns3:cad>0</ns3:cad>
          </ns3:TrackPointExtension>
        </extensions>
      </trkpt>
      <trkpt lat="37.76278492994606494903564453125" lon="-107.70789186470210552215576171875">
        <ele>3668.800048828125</ele>
        <time>2023-07-29T17:42:28.000Z</time>
        <extensions>
          <ns3:TrackPointExtension>
            <ns3:hr>90</ns3:hr>
            <ns3:cad>0</ns3:cad>
          </ns3:TrackPointExtension>
        </extensions>
      </trkpt>
      <trkpt lat="37.76277311146259307861328125" lon="-107.7078907750546932220458984375">
        <ele>3668.800048828125</ele>
        <time>2023-07-29T17:42:29.000Z</time>
        <extensions>
          <ns3:TrackPointExtension>
            <ns3:hr>90</ns3:hr>
            <ns3:cad>0</ns3:cad>
          </ns3:TrackPointExtension>
        </extensions>
      </trkpt>
      <trkpt lat="37.76276665739715099334716796875" lon="-107.70789488218724727630615234375">
        <ele>3668.800048828125</ele>
        <time>2023-07-29T17:42:30.000Z</time>
        <extensions>
          <ns3:TrackPointExtension>
            <ns3:hr>91</ns3:hr>
            <ns3:cad>0</ns3:cad>
          </ns3:TrackPointExtension>
        </extensions>
      </trkpt>
      <trkpt lat="37.7627555094659328460693359375" lon="-107.70788800902664661407470703125">
        <ele>3668.60009765625</ele>
        <time>2023-07-29T17:42:31.000Z</time>
        <extensions>
          <ns3:TrackPointExtension>
            <ns3:hr>91</ns3:hr>
            <ns3:cad>0</ns3:cad>
          </ns3:TrackPointExtension>
        </extensions>
      </trkpt>
      <trkpt lat="37.7627441100776195526123046875" lon="-107.70787795074284076690673828125">
        <ele>3668.60009765625</ele>
        <time>2023-07-29T17:42:32.000Z</time>
        <extensions>
          <ns3:TrackPointExtension>
            <ns3:hr>92</ns3:hr>
            <ns3:cad>57</ns3:cad>
          </ns3:TrackPointExtension>
        </extensions>
      </trkpt>
      <trkpt lat="37.762737236917018890380859375" lon="-107.70787241868674755096435546875">
        <ele>3668.39990234375</ele>
        <time>2023-07-29T17:42:33.000Z</time>
        <extensions>
          <ns3:TrackPointExtension>
            <ns3:hr>92</ns3:hr>
            <ns3:cad>61</ns3:cad>
          </ns3:TrackPointExtension>
        </extensions>
      </trkpt>
      <trkpt lat="37.76272977702319622039794921875" lon="-107.70786403678357601165771484375">
        <ele>3668.39990234375</ele>
        <time>2023-07-29T17:42:34.000Z</time>
        <extensions>
          <ns3:TrackPointExtension>
            <ns3:hr>92</ns3:hr>
            <ns3:cad>61</ns3:cad>
          </ns3:TrackPointExtension>
        </extensions>
      </trkpt>
      <trkpt lat="37.7627182938158512115478515625" lon="-107.70785473287105560302734375">
        <ele>3668.39990234375</ele>
        <time>2023-07-29T17:42:35.000Z</time>
        <extensions>
          <ns3:TrackPointExtension>
            <ns3:hr>93</ns3:hr>
            <ns3:cad>61</ns3:cad>
          </ns3:TrackPointExtension>
        </extensions>
      </trkpt>
      <trkpt lat="37.762707062065601348876953125" lon="-107.7078471891582012176513671875">
        <ele>3668.39990234375</ele>
        <time>2023-07-29T17:42:36.000Z</time>
        <extensions>
          <ns3:TrackPointExtension>
            <ns3:hr>93</ns3:hr>
            <ns3:cad>56</ns3:cad>
          </ns3:TrackPointExtension>
        </extensions>
      </trkpt>
      <trkpt lat="37.762696333229541778564453125" lon="-107.70783604122698307037353515625">
        <ele>3668.39990234375</ele>
        <time>2023-07-29T17:42:37.000Z</time>
        <extensions>
          <ns3:TrackPointExtension>
            <ns3:hr>93</ns3:hr>
            <ns3:cad>55</ns3:cad>
          </ns3:TrackPointExtension>
        </extensions>
      </trkpt>
      <trkpt lat="37.7626934833824634552001953125" lon="-107.70783327519893646240234375">
        <ele>3668.39990234375</ele>
        <time>2023-07-29T17:42:38.000Z</time>
        <extensions>
          <ns3:TrackPointExtension>
            <ns3:hr>94</ns3:hr>
            <ns3:cad>54</ns3:cad>
          </ns3:TrackPointExtension>
        </extensions>
      </trkpt>
      <trkpt lat="37.76268887333571910858154296875" lon="-107.7078233845531940460205078125">
        <ele>3668.39990234375</ele>
        <time>2023-07-29T17:42:39.000Z</time>
        <extensions>
          <ns3:TrackPointExtension>
            <ns3:hr>95</ns3:hr>
            <ns3:cad>54</ns3:cad>
          </ns3:TrackPointExtension>
        </extensions>
      </trkpt>
      <trkpt lat="37.7626797370612621307373046875" lon="-107.707818858325481414794921875">
        <ele>3668.199951171875</ele>
        <time>2023-07-29T17:42:40.000Z</time>
        <extensions>
          <ns3:TrackPointExtension>
            <ns3:hr>96</ns3:hr>
            <ns3:cad>54</ns3:cad>
          </ns3:TrackPointExtension>
        </extensions>
      </trkpt>
      <trkpt lat="37.7626649849116802215576171875" lon="-107.70780720748007297515869140625">
        <ele>3668.199951171875</ele>
        <time>2023-07-29T17:42:41.000Z</time>
        <extensions>
          <ns3:TrackPointExtension>
            <ns3:hr>96</ns3:hr>
            <ns3:cad>54</ns3:cad>
          </ns3:TrackPointExtension>
        </extensions>
      </trkpt>
      <trkpt lat="37.76265182532370090484619140625" lon="-107.70779706537723541259765625">
        <ele>3668.199951171875</ele>
        <time>2023-07-29T17:42:42.000Z</time>
        <extensions>
          <ns3:TrackPointExtension>
            <ns3:hr>97</ns3:hr>
            <ns3:cad>54</ns3:cad>
          </ns3:TrackPointExtension>
        </extensions>
      </trkpt>
      <trkpt lat="37.7626408450305461883544921875" lon="-107.707788012921810150146484375">
        <ele>3668.199951171875</ele>
        <time>2023-07-29T17:42:43.000Z</time>
        <extensions>
          <ns3:TrackPointExtension>
            <ns3:hr>98</ns3:hr>
            <ns3:cad>0</ns3:cad>
          </ns3:TrackPointExtension>
        </extensions>
      </trkpt>
      <trkpt lat="37.76262768544256687164306640625" lon="-107.70777828991413116455078125">
        <ele>3668.199951171875</ele>
        <time>2023-07-29T17:42:44.000Z</time>
        <extensions>
          <ns3:TrackPointExtension>
            <ns3:hr>98</ns3:hr>
            <ns3:cad>0</ns3:cad>
          </ns3:TrackPointExtension>
        </extensions>
      </trkpt>
      <trkpt lat="37.76261628605425357818603515625" lon="-107.707773931324481964111328125">
        <ele>3668</ele>
        <time>2023-07-29T17:42:45.000Z</time>
        <extensions>
          <ns3:TrackPointExtension>
            <ns3:hr>98</ns3:hr>
            <ns3:cad>0</ns3:cad>
          </ns3:TrackPointExtension>
        </extensions>
      </trkpt>
      <trkpt lat="37.7626074850559234619140625" lon="-107.70777150057256221771240234375">
        <ele>3668</ele>
        <time>2023-07-29T17:42:46.000Z</time>
        <extensions>
          <ns3:TrackPointExtension>
            <ns3:hr>98</ns3:hr>
            <ns3:cad>0</ns3:cad>
          </ns3:TrackPointExtension>
        </extensions>
      </trkpt>
      <trkpt lat="37.76259985752403736114501953125" lon="-107.7077680639922618865966796875">
        <ele>3667.39990234375</ele>
        <time>2023-07-29T17:42:47.000Z</time>
        <extensions>
          <ns3:TrackPointExtension>
            <ns3:hr>98</ns3:hr>
            <ns3:cad>0</ns3:cad>
          </ns3:TrackPointExtension>
        </extensions>
      </trkpt>
      <trkpt lat="37.76259030215442180633544921875" lon="-107.707759179174900054931640625">
        <ele>3667.39990234375</ele>
        <time>2023-07-29T17:42:48.000Z</time>
        <extensions>
          <ns3:TrackPointExtension>
            <ns3:hr>98</ns3:hr>
            <ns3:cad>0</ns3:cad>
          </ns3:TrackPointExtension>
        </extensions>
      </trkpt>
      <trkpt lat="37.76258124969899654388427734375" lon="-107.70774987526237964630126953125">
        <ele>3667.39990234375</ele>
        <time>2023-07-29T17:42:49.000Z</time>
        <extensions>
          <ns3:TrackPointExtension>
            <ns3:hr>98</ns3:hr>
            <ns3:cad>57</ns3:cad>
          </ns3:TrackPointExtension>
        </extensions>
      </trkpt>
      <trkpt lat="37.76256884448230266571044921875" lon="-107.707738392055034637451171875">
        <ele>3667.199951171875</ele>
        <time>2023-07-29T17:42:50.000Z</time>
        <extensions>
          <ns3:TrackPointExtension>
            <ns3:hr>98</ns3:hr>
            <ns3:cad>57</ns3:cad>
          </ns3:TrackPointExtension>
        </extensions>
      </trkpt>
      <trkpt lat="37.76256197132170200347900390625" lon="-107.7077328599989414215087890625">
        <ele>3667.199951171875</ele>
        <time>2023-07-29T17:42:51.000Z</time>
        <extensions>
          <ns3:TrackPointExtension>
            <ns3:hr>98</ns3:hr>
            <ns3:cad>57</ns3:cad>
          </ns3:TrackPointExtension>
        </extensions>
      </trkpt>
      <trkpt lat="37.7625484764575958251953125" lon="-107.707721292972564697265625">
        <ele>3667.199951171875</ele>
        <time>2023-07-29T17:42:52.000Z</time>
        <extensions>
          <ns3:TrackPointExtension>
            <ns3:hr>98</ns3:hr>
            <ns3:cad>57</ns3:cad>
          </ns3:TrackPointExtension>
        </extensions>
      </trkpt>
      <trkpt lat="37.76253699325025081634521484375" lon="-107.70771232433617115020751953125">
        <ele>3667.199951171875</ele>
        <time>2023-07-29T17:42:53.000Z</time>
        <extensions>
          <ns3:TrackPointExtension>
            <ns3:hr>98</ns3:hr>
            <ns3:cad>57</ns3:cad>
          </ns3:TrackPointExtension>
        </extensions>
      </trkpt>
      <trkpt lat="37.762528024613857269287109375" lon="-107.7077043615281581878662109375">
        <ele>3667.199951171875</ele>
        <time>2023-07-29T17:42:54.000Z</time>
        <extensions>
          <ns3:TrackPointExtension>
            <ns3:hr>98</ns3:hr>
            <ns3:cad>57</ns3:cad>
          </ns3:TrackPointExtension>
        </extensions>
      </trkpt>
      <trkpt lat="37.76251536794006824493408203125" lon="-107.707694135606288909912109375">
        <ele>3667</ele>
        <time>2023-07-29T17:42:55.000Z</time>
        <extensions>
          <ns3:TrackPointExtension>
            <ns3:hr>98</ns3:hr>
            <ns3:cad>57</ns3:cad>
          </ns3:TrackPointExtension>
        </extensions>
      </trkpt>
      <trkpt lat="37.76250447146594524383544921875" lon="-107.70768533460795879364013671875">
        <ele>3666.800048828125</ele>
        <time>2023-07-29T17:42:56.000Z</time>
        <extensions>
          <ns3:TrackPointExtension>
            <ns3:hr>98</ns3:hr>
            <ns3:cad>56</ns3:cad>
          </ns3:TrackPointExtension>
        </extensions>
      </trkpt>
      <trkpt lat="37.76249692775309085845947265625" lon="-107.70768064074218273162841796875">
        <ele>3666.800048828125</ele>
        <time>2023-07-29T17:42:57.000Z</time>
        <extensions>
          <ns3:TrackPointExtension>
            <ns3:hr>98</ns3:hr>
            <ns3:cad>56</ns3:cad>
          </ns3:TrackPointExtension>
        </extensions>
      </trkpt>
      <trkpt lat="37.7624933235347270965576171875" lon="-107.70767762325704097747802734375">
        <ele>3666.800048828125</ele>
        <time>2023-07-29T17:42:58.000Z</time>
        <extensions>
          <ns3:TrackPointExtension>
            <ns3:hr>98</ns3:hr>
            <ns3:cad>0</ns3:cad>
          </ns3:TrackPointExtension>
        </extensions>
      </trkpt>
      <trkpt lat="37.762487791478633880615234375" lon="-107.70766907371580600738525390625">
        <ele>3666.800048828125</ele>
        <time>2023-07-29T17:42:59.000Z</time>
        <extensions>
          <ns3:TrackPointExtension>
            <ns3:hr>98</ns3:hr>
            <ns3:cad>0</ns3:cad>
          </ns3:TrackPointExtension>
        </extensions>
      </trkpt>
      <trkpt lat="37.7624792419373989105224609375" lon="-107.70766655914485454559326171875">
        <ele>3666.800048828125</ele>
        <time>2023-07-29T17:43:00.000Z</time>
        <extensions>
          <ns3:TrackPointExtension>
            <ns3:hr>98</ns3:hr>
            <ns3:cad>0</ns3:cad>
          </ns3:TrackPointExtension>
        </extensions>
      </trkpt>
      <trkpt lat="37.7624638192355632781982421875" lon="-107.707652561366558074951171875">
        <ele>3666.60009765625</ele>
        <time>2023-07-29T17:43:01.000Z</time>
        <extensions>
          <ns3:TrackPointExtension>
            <ns3:hr>98</ns3:hr>
            <ns3:cad>0</ns3:cad>
          </ns3:TrackPointExtension>
        </extensions>
      </trkpt>
      <trkpt lat="37.76245233602821826934814453125" lon="-107.707645855844020843505859375">
        <ele>3666.60009765625</ele>
        <time>2023-07-29T17:43:02.000Z</time>
        <extensions>
          <ns3:TrackPointExtension>
            <ns3:hr>98</ns3:hr>
            <ns3:cad>53</ns3:cad>
          </ns3:TrackPointExtension>
        </extensions>
      </trkpt>
      <trkpt lat="37.76244546286761760711669921875" lon="-107.7076420001685619354248046875">
        <ele>3666.60009765625</ele>
        <time>2023-07-29T17:43:03.000Z</time>
        <extensions>
          <ns3:TrackPointExtension>
            <ns3:hr>97</ns3:hr>
            <ns3:cad>53</ns3:cad>
          </ns3:TrackPointExtension>
        </extensions>
      </trkpt>
      <trkpt lat="37.762432135641574859619140625" lon="-107.70763219334185123443603515625">
        <ele>3666.39990234375</ele>
        <time>2023-07-29T17:43:04.000Z</time>
        <extensions>
          <ns3:TrackPointExtension>
            <ns3:hr>95</ns3:hr>
            <ns3:cad>53</ns3:cad>
          </ns3:TrackPointExtension>
        </extensions>
      </trkpt>
      <trkpt lat="37.7624197304248809814453125" lon="-107.70761945284903049468994140625">
        <ele>3666.39990234375</ele>
        <time>2023-07-29T17:43:05.000Z</time>
        <extensions>
          <ns3:TrackPointExtension>
            <ns3:hr>93</ns3:hr>
            <ns3:cad>53</ns3:cad>
          </ns3:TrackPointExtension>
        </extensions>
      </trkpt>
      <trkpt lat="37.76240757666528224945068359375" lon="-107.70761199295520782470703125">
        <ele>3666</ele>
        <time>2023-07-29T17:43:06.000Z</time>
        <extensions>
          <ns3:TrackPointExtension>
            <ns3:hr>92</ns3:hr>
            <ns3:cad>0</ns3:cad>
          </ns3:TrackPointExtension>
        </extensions>
      </trkpt>
      <trkpt lat="37.76239986531436443328857421875" lon="-107.7075987495481967926025390625">
        <ele>3665.60009765625</ele>
        <time>2023-07-29T17:43:07.000Z</time>
        <extensions>
          <ns3:TrackPointExtension>
            <ns3:hr>92</ns3:hr>
            <ns3:cad>0</ns3:cad>
          </ns3:TrackPointExtension>
        </extensions>
      </trkpt>
      <trkpt lat="37.762394584715366363525390625" lon="-107.7075886912643909454345703125">
        <ele>3665.60009765625</ele>
        <time>2023-07-29T17:43:08.000Z</time>
        <extensions>
          <ns3:TrackPointExtension>
            <ns3:hr>91</ns3:hr>
            <ns3:cad>0</ns3:cad>
          </ns3:TrackPointExtension>
        </extensions>
      </trkpt>
      <trkpt lat="37.76239315979182720184326171875" lon="-107.70758341066539287567138671875">
        <ele>3665.60009765625</ele>
        <time>2023-07-29T17:43:09.000Z</time>
        <extensions>
          <ns3:TrackPointExtension>
            <ns3:hr>91</ns3:hr>
            <ns3:cad>0</ns3:cad>
          </ns3:TrackPointExtension>
        </extensions>
      </trkpt>
      <trkpt lat="37.76239181868731975555419921875" lon="-107.7075831592082977294921875">
        <ele>3665.39990234375</ele>
        <time>2023-07-29T17:43:10.000Z</time>
        <extensions>
          <ns3:TrackPointExtension>
            <ns3:hr>91</ns3:hr>
            <ns3:cad>0</ns3:cad>
          </ns3:TrackPointExtension>
        </extensions>
      </trkpt>
      <trkpt lat="37.762387208640575408935546875" lon="-107.70758240483701229095458984375">
        <ele>3665.39990234375</ele>
        <time>2023-07-29T17:43:11.000Z</time>
        <extensions>
          <ns3:TrackPointExtension>
            <ns3:hr>91</ns3:hr>
            <ns3:cad>0</ns3:cad>
          </ns3:TrackPointExtension>
        </extensions>
      </trkpt>
      <trkpt lat="37.762378156185150146484375" lon="-107.70757737569510936737060546875">
        <ele>3665.39990234375</ele>
        <time>2023-07-29T17:43:12.000Z</time>
        <extensions>
          <ns3:TrackPointExtension>
            <ns3:hr>91</ns3:hr>
            <ns3:cad>0</ns3:cad>
          </ns3:TrackPointExtension>
        </extensions>
      </trkpt>
      <trkpt lat="37.76236407458782196044921875" lon="-107.70756497047841548919677734375">
        <ele>3665.39990234375</ele>
        <time>2023-07-29T17:43:13.000Z</time>
        <extensions>
          <ns3:TrackPointExtension>
            <ns3:hr>91</ns3:hr>
            <ns3:cad>0</ns3:cad>
          </ns3:TrackPointExtension>
        </extensions>
      </trkpt>
      <trkpt lat="37.7623526751995086669921875" lon="-107.70755038596689701080322265625">
        <ele>3665.39990234375</ele>
        <time>2023-07-29T17:43:14.000Z</time>
        <extensions>
          <ns3:TrackPointExtension>
            <ns3:hr>91</ns3:hr>
            <ns3:cad>0</ns3:cad>
          </ns3:TrackPointExtension>
        </extensions>
      </trkpt>
      <trkpt lat="37.7623447962105274200439453125" lon="-107.70754225552082061767578125">
        <ele>3665.60009765625</ele>
        <time>2023-07-29T17:43:15.000Z</time>
        <extensions>
          <ns3:TrackPointExtension>
            <ns3:hr>91</ns3:hr>
            <ns3:cad>0</ns3:cad>
          </ns3:TrackPointExtension>
        </extensions>
      </trkpt>
      <trkpt lat="37.76233599521219730377197265625" lon="-107.70753613673150539398193359375">
        <ele>3665.60009765625</ele>
        <time>2023-07-29T17:43:16.000Z</time>
        <extensions>
          <ns3:TrackPointExtension>
            <ns3:hr>92</ns3:hr>
            <ns3:cad>52</ns3:cad>
          </ns3:TrackPointExtension>
        </extensions>
      </trkpt>
      <trkpt lat="37.7623256854712963104248046875" lon="-107.707524485886096954345703125">
        <ele>3665.60009765625</ele>
        <time>2023-07-29T17:43:17.000Z</time>
        <extensions>
          <ns3:TrackPointExtension>
            <ns3:hr>92</ns3:hr>
            <ns3:cad>52</ns3:cad>
          </ns3:TrackPointExtension>
        </extensions>
      </trkpt>
      <trkpt lat="37.76231721974909305572509765625" lon="-107.7075142599642276763916015625">
        <ele>3665.60009765625</ele>
        <time>2023-07-29T17:43:18.000Z</time>
        <extensions>
          <ns3:TrackPointExtension>
            <ns3:hr>92</ns3:hr>
            <ns3:cad>52</ns3:cad>
          </ns3:TrackPointExtension>
        </extensions>
      </trkpt>
      <trkpt lat="37.7623119391500949859619140625" lon="-107.7075099013745784759521484375">
        <ele>3665.39990234375</ele>
        <time>2023-07-29T17:43:19.000Z</time>
        <extensions>
          <ns3:TrackPointExtension>
            <ns3:hr>92</ns3:hr>
            <ns3:cad>55</ns3:cad>
          </ns3:TrackPointExtension>
        </extensions>
      </trkpt>
      <trkpt lat="37.762304060161113739013671875" lon="-107.70750260911881923675537109375">
        <ele>3665.39990234375</ele>
        <time>2023-07-29T17:43:20.000Z</time>
        <extensions>
          <ns3:TrackPointExtension>
            <ns3:hr>93</ns3:hr>
            <ns3:cad>55</ns3:cad>
          </ns3:TrackPointExtension>
        </extensions>
      </trkpt>
      <trkpt lat="37.762287966907024383544921875" lon="-107.7074881084263324737548828125">
        <ele>3665.39990234375</ele>
        <time>2023-07-29T17:43:21.000Z</time>
        <extensions>
          <ns3:TrackPointExtension>
            <ns3:hr>93</ns3:hr>
            <ns3:cad>55</ns3:cad>
          </ns3:TrackPointExtension>
        </extensions>
      </trkpt>
      <trkpt lat="37.7622802555561065673828125" lon="-107.70748349837958812713623046875">
        <ele>3665.199951171875</ele>
        <time>2023-07-29T17:43:22.000Z</time>
        <extensions>
          <ns3:TrackPointExtension>
            <ns3:hr>93</ns3:hr>
            <ns3:cad>55</ns3:cad>
          </ns3:TrackPointExtension>
        </extensions>
      </trkpt>
      <trkpt lat="37.76227028109133243560791015625" lon="-107.70747545175254344940185546875">
        <ele>3665.199951171875</ele>
        <time>2023-07-29T17:43:23.000Z</time>
        <extensions>
          <ns3:TrackPointExtension>
            <ns3:hr>93</ns3:hr>
            <ns3:cad>55</ns3:cad>
          </ns3:TrackPointExtension>
        </extensions>
      </trkpt>
      <trkpt lat="37.762258462607860565185546875" lon="-107.70746807567775249481201171875">
        <ele>3665.199951171875</ele>
        <time>2023-07-29T17:43:24.000Z</time>
        <extensions>
          <ns3:TrackPointExtension>
            <ns3:hr>93</ns3:hr>
            <ns3:cad>55</ns3:cad>
          </ns3:TrackPointExtension>
        </extensions>
      </trkpt>
      <trkpt lat="37.76224982924759387969970703125" lon="-107.7074597775936126708984375">
        <ele>3665</ele>
        <time>2023-07-29T17:43:25.000Z</time>
        <extensions>
          <ns3:TrackPointExtension>
            <ns3:hr>93</ns3:hr>
            <ns3:cad>55</ns3:cad>
          </ns3:TrackPointExtension>
        </extensions>
      </trkpt>
      <trkpt lat="37.76223943568766117095947265625" lon="-107.70745215006172657012939453125">
        <ele>3665.199951171875</ele>
        <time>2023-07-29T17:43:26.000Z</time>
        <extensions>
          <ns3:TrackPointExtension>
            <ns3:hr>93</ns3:hr>
            <ns3:cad>55</ns3:cad>
          </ns3:TrackPointExtension>
        </extensions>
      </trkpt>
      <trkpt lat="37.762228958308696746826171875" lon="-107.7074410021305084228515625">
        <ele>3665.199951171875</ele>
        <time>2023-07-29T17:43:27.000Z</time>
        <extensions>
          <ns3:TrackPointExtension>
            <ns3:hr>93</ns3:hr>
            <ns3:cad>55</ns3:cad>
          </ns3:TrackPointExtension>
        </extensions>
      </trkpt>
      <trkpt lat="37.762221582233905792236328125" lon="-107.70743387751281261444091796875">
        <ele>3665.199951171875</ele>
        <time>2023-07-29T17:43:28.000Z</time>
        <extensions>
          <ns3:TrackPointExtension>
            <ns3:hr>93</ns3:hr>
            <ns3:cad>55</ns3:cad>
          </ns3:TrackPointExtension>
        </extensions>
      </trkpt>
      <trkpt lat="37.762212865054607391357421875" lon="-107.70742289721965789794921875">
        <ele>3665.199951171875</ele>
        <time>2023-07-29T17:43:29.000Z</time>
        <extensions>
          <ns3:TrackPointExtension>
            <ns3:hr>93</ns3:hr>
            <ns3:cad>0</ns3:cad>
          </ns3:TrackPointExtension>
        </extensions>
      </trkpt>
      <trkpt lat="37.76220850646495819091796875" lon="-107.7074168622493743896484375">
        <ele>3665.199951171875</ele>
        <time>2023-07-29T17:43:30.000Z</time>
        <extensions>
          <ns3:TrackPointExtension>
            <ns3:hr>93</ns3:hr>
            <ns3:cad>0</ns3:cad>
          </ns3:TrackPointExtension>
        </extensions>
      </trkpt>
      <trkpt lat="37.762205488979816436767578125" lon="-107.70741074346005916595458984375">
        <ele>3665.199951171875</ele>
        <time>2023-07-29T17:43:31.000Z</time>
        <extensions>
          <ns3:TrackPointExtension>
            <ns3:hr>93</ns3:hr>
            <ns3:cad>0</ns3:cad>
          </ns3:TrackPointExtension>
        </extensions>
      </trkpt>
      <trkpt lat="37.76219769380986690521240234375" lon="-107.70740152336657047271728515625">
        <ele>3665.199951171875</ele>
        <time>2023-07-29T17:43:32.000Z</time>
        <extensions>
          <ns3:TrackPointExtension>
            <ns3:hr>92</ns3:hr>
            <ns3:cad>0</ns3:cad>
          </ns3:TrackPointExtension>
        </extensions>
      </trkpt>
      <trkpt lat="37.762188725173473358154296875" lon="-107.70739347673952579498291015625">
        <ele>3665.199951171875</ele>
        <time>2023-07-29T17:43:33.000Z</time>
        <extensions>
          <ns3:TrackPointExtension>
            <ns3:hr>92</ns3:hr>
            <ns3:cad>0</ns3:cad>
          </ns3:TrackPointExtension>
        </extensions>
      </trkpt>
      <trkpt lat="37.76217774488031864166259765625" lon="-107.7073851786553859710693359375">
        <ele>3665</ele>
        <time>2023-07-29T17:43:34.000Z</time>
        <extensions>
          <ns3:TrackPointExtension>
            <ns3:hr>92</ns3:hr>
            <ns3:cad>0</ns3:cad>
          </ns3:TrackPointExtension>
        </extensions>
      </trkpt>
      <trkpt lat="37.7621660940349102020263671875" lon="-107.70737319253385066986083984375">
        <ele>3664.800048828125</ele>
        <time>2023-07-29T17:43:35.000Z</time>
        <extensions>
          <ns3:TrackPointExtension>
            <ns3:hr>92</ns3:hr>
            <ns3:cad>0</ns3:cad>
          </ns3:TrackPointExtension>
        </extensions>
      </trkpt>
      <trkpt lat="37.76215561665594577789306640625" lon="-107.7073632180690765380859375">
        <ele>3664.800048828125</ele>
        <time>2023-07-29T17:43:36.000Z</time>
        <extensions>
          <ns3:TrackPointExtension>
            <ns3:hr>92</ns3:hr>
            <ns3:cad>0</ns3:cad>
          </ns3:TrackPointExtension>
        </extensions>
      </trkpt>
      <trkpt lat="37.7621422894299030303955078125" lon="-107.70735408179461956024169921875">
        <ele>3664.60009765625</ele>
        <time>2023-07-29T17:43:37.000Z</time>
        <extensions>
          <ns3:TrackPointExtension>
            <ns3:hr>92</ns3:hr>
            <ns3:cad>53</ns3:cad>
          </ns3:TrackPointExtension>
        </extensions>
      </trkpt>
      <trkpt lat="37.76212862692773342132568359375" lon="-107.70734352059662342071533203125">
        <ele>3664.39990234375</ele>
        <time>2023-07-29T17:43:38.000Z</time>
        <extensions>
          <ns3:TrackPointExtension>
            <ns3:hr>92</ns3:hr>
            <ns3:cad>56</ns3:cad>
          </ns3:TrackPointExtension>
        </extensions>
      </trkpt>
      <trkpt lat="37.7621211670339107513427734375" lon="-107.7073368988931179046630859375">
        <ele>3664</ele>
        <time>2023-07-29T17:43:39.000Z</time>
        <extensions>
          <ns3:TrackPointExtension>
            <ns3:hr>92</ns3:hr>
            <ns3:cad>56</ns3:cad>
          </ns3:TrackPointExtension>
        </extensions>
      </trkpt>
      <trkpt lat="37.76211488060653209686279296875" lon="-107.7073352225124835968017578125">
        <ele>3663.800048828125</ele>
        <time>2023-07-29T17:43:40.000Z</time>
        <extensions>
          <ns3:TrackPointExtension>
            <ns3:hr>92</ns3:hr>
            <ns3:cad>56</ns3:cad>
          </ns3:TrackPointExtension>
        </extensions>
      </trkpt>
      <trkpt lat="37.76210616342723369598388671875" lon="-107.70732843317091464996337890625">
        <ele>3663.60009765625</ele>
        <time>2023-07-29T17:43:41.000Z</time>
        <extensions>
          <ns3:TrackPointExtension>
            <ns3:hr>93</ns3:hr>
            <ns3:cad>56</ns3:cad>
          </ns3:TrackPointExtension>
        </extensions>
      </trkpt>
      <trkpt lat="37.7621047385036945343017578125" lon="-107.7073268406093120574951171875">
        <ele>3663.60009765625</ele>
        <time>2023-07-29T17:43:42.000Z</time>
        <extensions>
          <ns3:TrackPointExtension>
            <ns3:hr>94</ns3:hr>
            <ns3:cad>56</ns3:cad>
          </ns3:TrackPointExtension>
        </extensions>
      </trkpt>
      <trkpt lat="37.76210046373307704925537109375" lon="-107.7073244936764240264892578125">
        <ele>3663.60009765625</ele>
        <time>2023-07-29T17:43:43.000Z</time>
        <extensions>
          <ns3:TrackPointExtension>
            <ns3:hr>95</ns3:hr>
            <ns3:cad>56</ns3:cad>
          </ns3:TrackPointExtension>
        </extensions>
      </trkpt>
      <trkpt lat="37.76209208182990550994873046875" lon="-107.70732290111482143402099609375">
        <ele>3663.60009765625</ele>
        <time>2023-07-29T17:43:44.000Z</time>
        <extensions>
          <ns3:TrackPointExtension>
            <ns3:hr>95</ns3:hr>
            <ns3:cad>56</ns3:cad>
          </ns3:TrackPointExtension>
        </extensions>
      </trkpt>
      <trkpt lat="37.762083113193511962890625" lon="-107.70732156001031398773193359375">
        <ele>3663.60009765625</ele>
        <time>2023-07-29T17:43:45.000Z</time>
        <extensions>
          <ns3:TrackPointExtension>
            <ns3:hr>95</ns3:hr>
            <ns3:cad>56</ns3:cad>
          </ns3:TrackPointExtension>
        </extensions>
      </trkpt>
      <trkpt lat="37.762068025767803192138671875" lon="-107.70731753669679164886474609375">
        <ele>3663.39990234375</ele>
        <time>2023-07-29T17:43:46.000Z</time>
        <extensions>
          <ns3:TrackPointExtension>
            <ns3:hr>95</ns3:hr>
            <ns3:cad>55</ns3:cad>
          </ns3:TrackPointExtension>
        </extensions>
      </trkpt>
      <trkpt lat="37.76205654256045818328857421875" lon="-107.7073137648403644561767578125">
        <ele>3663.199951171875</ele>
        <time>2023-07-29T17:43:47.000Z</time>
        <extensions>
          <ns3:TrackPointExtension>
            <ns3:hr>94</ns3:hr>
            <ns3:cad>55</ns3:cad>
          </ns3:TrackPointExtension>
        </extensions>
      </trkpt>
      <trkpt lat="37.76204380206763744354248046875" lon="-107.707306556403636932373046875">
        <ele>3663</ele>
        <time>2023-07-29T17:43:48.000Z</time>
        <extensions>
          <ns3:TrackPointExtension>
            <ns3:hr>94</ns3:hr>
            <ns3:cad>55</ns3:cad>
          </ns3:TrackPointExtension>
        </extensions>
      </trkpt>
      <trkpt lat="37.7620353363454341888427734375" lon="-107.70730261690914630889892578125">
        <ele>3662.800048828125</ele>
        <time>2023-07-29T17:43:49.000Z</time>
        <extensions>
          <ns3:TrackPointExtension>
            <ns3:hr>94</ns3:hr>
            <ns3:cad>55</ns3:cad>
          </ns3:TrackPointExtension>
        </extensions>
      </trkpt>
      <trkpt lat="37.762028463184833526611328125" lon="-107.70729691721498966217041015625">
        <ele>3662.800048828125</ele>
        <time>2023-07-29T17:43:50.000Z</time>
        <extensions>
          <ns3:TrackPointExtension>
            <ns3:hr>94</ns3:hr>
            <ns3:cad>55</ns3:cad>
          </ns3:TrackPointExtension>
        </extensions>
      </trkpt>
      <trkpt lat="37.7620172314345836639404296875" lon="-107.70729071460664272308349609375">
        <ele>3662.60009765625</ele>
        <time>2023-07-29T17:43:51.000Z</time>
        <extensions>
          <ns3:TrackPointExtension>
            <ns3:hr>94</ns3:hr>
            <ns3:cad>55</ns3:cad>
          </ns3:TrackPointExtension>
        </extensions>
      </trkpt>
      <trkpt lat="37.76200423948466777801513671875" lon="-107.7072832547128200531005859375">
        <ele>3662.60009765625</ele>
        <time>2023-07-29T17:43:52.000Z</time>
        <extensions>
          <ns3:TrackPointExtension>
            <ns3:hr>94</ns3:hr>
            <ns3:cad>55</ns3:cad>
          </ns3:TrackPointExtension>
        </extensions>
      </trkpt>
      <trkpt lat="37.76199183426797389984130859375" lon="-107.707277052104473114013671875">
        <ele>3662.39990234375</ele>
        <time>2023-07-29T17:43:53.000Z</time>
        <extensions>
          <ns3:TrackPointExtension>
            <ns3:hr>94</ns3:hr>
            <ns3:cad>53</ns3:cad>
          </ns3:TrackPointExtension>
        </extensions>
      </trkpt>
      <trkpt lat="37.76197976432740688323974609375" lon="-107.7072715200483798980712890625">
        <ele>3662.39990234375</ele>
        <time>2023-07-29T17:43:54.000Z</time>
        <extensions>
          <ns3:TrackPointExtension>
            <ns3:hr>94</ns3:hr>
            <ns3:cad>0</ns3:cad>
          </ns3:TrackPointExtension>
        </extensions>
      </trkpt>
      <trkpt lat="37.76196870021522045135498046875" lon="-107.707264982163906097412109375">
        <ele>3662.39990234375</ele>
        <time>2023-07-29T17:43:55.000Z</time>
        <extensions>
          <ns3:TrackPointExtension>
            <ns3:hr>94</ns3:hr>
            <ns3:cad>0</ns3:cad>
          </ns3:TrackPointExtension>
        </extensions>
      </trkpt>
      <trkpt lat="37.76195646263659000396728515625" lon="-107.70726121030747890472412109375">
        <ele>3662.39990234375</ele>
        <time>2023-07-29T17:43:56.000Z</time>
        <extensions>
          <ns3:TrackPointExtension>
            <ns3:hr>94</ns3:hr>
            <ns3:cad>0</ns3:cad>
          </ns3:TrackPointExtension>
        </extensions>
      </trkpt>
      <trkpt lat="37.76194405741989612579345703125" lon="-107.7072559297084808349609375">
        <ele>3662.39990234375</ele>
        <time>2023-07-29T17:43:57.000Z</time>
        <extensions>
          <ns3:TrackPointExtension>
            <ns3:hr>94</ns3:hr>
            <ns3:cad>0</ns3:cad>
          </ns3:TrackPointExtension>
        </extensions>
      </trkpt>
      <trkpt lat="37.76193852536380290985107421875" lon="-107.70725333131849765777587890625">
        <ele>3662.199951171875</ele>
        <time>2023-07-29T17:43:58.000Z</time>
        <extensions>
          <ns3:TrackPointExtension>
            <ns3:hr>94</ns3:hr>
            <ns3:cad>0</ns3:cad>
          </ns3:TrackPointExtension>
        </extensions>
      </trkpt>
      <trkpt lat="37.76192477904260158538818359375" lon="-107.70724587142467498779296875">
        <ele>3662.199951171875</ele>
        <time>2023-07-29T17:43:59.000Z</time>
        <extensions>
          <ns3:TrackPointExtension>
            <ns3:hr>94</ns3:hr>
            <ns3:cad>0</ns3:cad>
          </ns3:TrackPointExtension>
        </extensions>
      </trkpt>
      <trkpt lat="37.76191321201622486114501953125" lon="-107.70724226720631122589111328125">
        <ele>3662</ele>
        <time>2023-07-29T17:44:00.000Z</time>
        <extensions>
          <ns3:TrackPointExtension>
            <ns3:hr>94</ns3:hr>
            <ns3:cad>0</ns3:cad>
          </ns3:TrackPointExtension>
        </extensions>
      </trkpt>
      <trkpt lat="37.76189871132373809814453125" lon="-107.70723505876958370208740234375">
        <ele>3662</ele>
        <time>2023-07-29T17:44:01.000Z</time>
        <extensions>
          <ns3:TrackPointExtension>
            <ns3:hr>94</ns3:hr>
            <ns3:cad>0</ns3:cad>
          </ns3:TrackPointExtension>
        </extensions>
      </trkpt>
      <trkpt lat="37.7618831209838390350341796875" lon="-107.70722533576190471649169921875">
        <ele>3661.60009765625</ele>
        <time>2023-07-29T17:44:02.000Z</time>
        <extensions>
          <ns3:TrackPointExtension>
            <ns3:hr>93</ns3:hr>
            <ns3:cad>0</ns3:cad>
          </ns3:TrackPointExtension>
        </extensions>
      </trkpt>
      <trkpt lat="37.7618687041103839874267578125" lon="-107.70722198300063610076904296875">
        <ele>3661.60009765625</ele>
        <time>2023-07-29T17:44:03.000Z</time>
        <extensions>
          <ns3:TrackPointExtension>
            <ns3:hr>93</ns3:hr>
            <ns3:cad>0</ns3:cad>
          </ns3:TrackPointExtension>
        </extensions>
      </trkpt>
      <trkpt lat="37.76185420341789722442626953125" lon="-107.7072128467261791229248046875">
        <ele>3661.39990234375</ele>
        <time>2023-07-29T17:44:04.000Z</time>
        <extensions>
          <ns3:TrackPointExtension>
            <ns3:hr>93</ns3:hr>
            <ns3:cad>0</ns3:cad>
          </ns3:TrackPointExtension>
        </extensions>
      </trkpt>
      <trkpt lat="37.76184498332440853118896484375" lon="-107.70720622502267360687255859375">
        <ele>3661.199951171875</ele>
        <time>2023-07-29T17:44:05.000Z</time>
        <extensions>
          <ns3:TrackPointExtension>
            <ns3:hr>94</ns3:hr>
            <ns3:cad>0</ns3:cad>
          </ns3:TrackPointExtension>
        </extensions>
      </trkpt>
      <trkpt lat="37.761832661926746368408203125" lon="-107.70719650201499462127685546875">
        <ele>3661</ele>
        <time>2023-07-29T17:44:06.000Z</time>
        <extensions>
          <ns3:TrackPointExtension>
            <ns3:hr>94</ns3:hr>
            <ns3:cad>0</ns3:cad>
          </ns3:TrackPointExtension>
        </extensions>
      </trkpt>
      <trkpt lat="37.761821262538433074951171875" lon="-107.70718820393085479736328125">
        <ele>3661</ele>
        <time>2023-07-29T17:44:07.000Z</time>
        <extensions>
          <ns3:TrackPointExtension>
            <ns3:hr>94</ns3:hr>
            <ns3:cad>0</ns3:cad>
          </ns3:TrackPointExtension>
        </extensions>
      </trkpt>
      <trkpt lat="37.76181682012975215911865234375" lon="-107.70717973820865154266357421875">
        <ele>3660.60009765625</ele>
        <time>2023-07-29T17:44:08.000Z</time>
        <extensions>
          <ns3:TrackPointExtension>
            <ns3:hr>93</ns3:hr>
            <ns3:cad>0</ns3:cad>
          </ns3:TrackPointExtension>
        </extensions>
      </trkpt>
      <trkpt lat="37.76181246154010295867919921875" lon="-107.70717001520097255706787109375">
        <ele>3660.39990234375</ele>
        <time>2023-07-29T17:44:09.000Z</time>
        <extensions>
          <ns3:TrackPointExtension>
            <ns3:hr>93</ns3:hr>
            <ns3:cad>0</ns3:cad>
          </ns3:TrackPointExtension>
        </extensions>
      </trkpt>
      <trkpt lat="37.76181958615779876708984375" lon="-107.70716967992484569549560546875">
        <ele>3660.39990234375</ele>
        <time>2023-07-29T17:44:10.000Z</time>
        <extensions>
          <ns3:TrackPointExtension>
            <ns3:hr>92</ns3:hr>
            <ns3:cad>0</ns3:cad>
          </ns3:TrackPointExtension>
        </extensions>
      </trkpt>
      <trkpt lat="37.76181497611105442047119140625" lon="-107.70716414786875247955322265625">
        <ele>3660.199951171875</ele>
        <time>2023-07-29T17:44:11.000Z</time>
        <extensions>
          <ns3:TrackPointExtension>
            <ns3:hr>91</ns3:hr>
            <ns3:cad>0</ns3:cad>
          </ns3:TrackPointExtension>
        </extensions>
      </trkpt>
      <trkpt lat="37.76181363500654697418212890625" lon="-107.70716012455523014068603515625">
        <ele>3660.199951171875</ele>
        <time>2023-07-29T17:44:12.000Z</time>
        <extensions>
          <ns3:TrackPointExtension>
            <ns3:hr>91</ns3:hr>
            <ns3:cad>0</ns3:cad>
          </ns3:TrackPointExtension>
        </extensions>
      </trkpt>
      <trkpt lat="37.7618117071688175201416015625" lon="-107.70715811289846897125244140625">
        <ele>3660</ele>
        <time>2023-07-29T17:44:13.000Z</time>
        <extensions>
          <ns3:TrackPointExtension>
            <ns3:hr>91</ns3:hr>
            <ns3:cad>0</ns3:cad>
          </ns3:TrackPointExtension>
        </extensions>
      </trkpt>
      <trkpt lat="37.76180994696915149688720703125" lon="-107.7071588672697544097900390625">
        <ele>3660</ele>
        <time>2023-07-29T17:44:14.000Z</time>
        <extensions>
          <ns3:TrackPointExtension>
            <ns3:hr>91</ns3:hr>
            <ns3:cad>0</ns3:cad>
          </ns3:TrackPointExtension>
        </extensions>
      </trkpt>
      <trkpt lat="37.76180961169302463531494140625" lon="-107.70716540515422821044921875">
        <ele>3660</ele>
        <time>2023-07-29T17:44:15.000Z</time>
        <extensions>
          <ns3:TrackPointExtension>
            <ns3:hr>90</ns3:hr>
            <ns3:cad>0</ns3:cad>
          </ns3:TrackPointExtension>
        </extensions>
      </trkpt>
      <trkpt lat="37.761799804866313934326171875" lon="-107.70716163329780101776123046875">
        <ele>3660</ele>
        <time>2023-07-29T17:44:16.000Z</time>
        <extensions>
          <ns3:TrackPointExtension>
            <ns3:hr>89</ns3:hr>
            <ns3:cad>0</ns3:cad>
          </ns3:TrackPointExtension>
        </extensions>
      </trkpt>
      <trkpt lat="37.761793769896030426025390625" lon="-107.70715727470815181732177734375">
        <ele>3660</ele>
        <time>2023-07-29T17:44:17.000Z</time>
        <extensions>
          <ns3:TrackPointExtension>
            <ns3:hr>90</ns3:hr>
            <ns3:cad>0</ns3:cad>
          </ns3:TrackPointExtension>
        </extensions>
      </trkpt>
      <trkpt lat="37.76178698055446147918701171875" lon="-107.70715576596558094024658203125">
        <ele>3660</ele>
        <time>2023-07-29T17:44:18.000Z</time>
        <extensions>
          <ns3:TrackPointExtension>
            <ns3:hr>92</ns3:hr>
            <ns3:cad>0</ns3:cad>
          </ns3:TrackPointExtension>
        </extensions>
      </trkpt>
      <trkpt lat="37.7617825381457805633544921875" lon="-107.70715911872684955596923828125">
        <ele>3660</ele>
        <time>2023-07-29T17:44:19.000Z</time>
        <extensions>
          <ns3:TrackPointExtension>
            <ns3:hr>92</ns3:hr>
            <ns3:cad>0</ns3:cad>
          </ns3:TrackPointExtension>
        </extensions>
      </trkpt>
      <trkpt lat="37.7617741562426090240478515625" lon="-107.707155011594295501708984375">
        <ele>3660</ele>
        <time>2023-07-29T17:44:20.000Z</time>
        <extensions>
          <ns3:TrackPointExtension>
            <ns3:hr>91</ns3:hr>
            <ns3:cad>0</ns3:cad>
          </ns3:TrackPointExtension>
        </extensions>
      </trkpt>
      <trkpt lat="37.7617681212723255157470703125" lon="-107.7071531675755977630615234375">
        <ele>3660</ele>
        <time>2023-07-29T17:44:21.000Z</time>
        <extensions>
          <ns3:TrackPointExtension>
            <ns3:hr>90</ns3:hr>
            <ns3:cad>0</ns3:cad>
          </ns3:TrackPointExtension>
        </extensions>
      </trkpt>
      <trkpt lat="37.7617585659027099609375" lon="-107.70715174265205860137939453125">
        <ele>3660</ele>
        <time>2023-07-29T17:44:22.000Z</time>
        <extensions>
          <ns3:TrackPointExtension>
            <ns3:hr>90</ns3:hr>
            <ns3:cad>0</ns3:cad>
          </ns3:TrackPointExtension>
        </extensions>
      </trkpt>
      <trkpt lat="37.7617436461150646209716796875" lon="-107.7071464620530605316162109375">
        <ele>3659.800048828125</ele>
        <time>2023-07-29T17:44:23.000Z</time>
        <extensions>
          <ns3:TrackPointExtension>
            <ns3:hr>90</ns3:hr>
            <ns3:cad>0</ns3:cad>
          </ns3:TrackPointExtension>
        </extensions>
      </trkpt>
      <trkpt lat="37.7617277204990386962890625" lon="-107.70713564939796924591064453125">
        <ele>3659.800048828125</ele>
        <time>2023-07-29T17:44:24.000Z</time>
        <extensions>
          <ns3:TrackPointExtension>
            <ns3:hr>90</ns3:hr>
            <ns3:cad>0</ns3:cad>
          </ns3:TrackPointExtension>
        </extensions>
      </trkpt>
      <trkpt lat="37.7617156505584716796875" lon="-107.70712760277092456817626953125">
        <ele>3659.60009765625</ele>
        <time>2023-07-29T17:44:25.000Z</time>
        <extensions>
          <ns3:TrackPointExtension>
            <ns3:hr>90</ns3:hr>
            <ns3:cad>56</ns3:cad>
          </ns3:TrackPointExtension>
        </extensions>
      </trkpt>
      <trkpt lat="37.76170316152274608612060546875" lon="-107.707120142877101898193359375">
        <ele>3659.199951171875</ele>
        <time>2023-07-29T17:44:26.000Z</time>
        <extensions>
          <ns3:TrackPointExtension>
            <ns3:hr>90</ns3:hr>
            <ns3:cad>56</ns3:cad>
          </ns3:TrackPointExtension>
        </extensions>
      </trkpt>
      <trkpt lat="37.761701904237270355224609375" lon="-107.70711972378194332122802734375">
        <ele>3659</ele>
        <time>2023-07-29T17:44:27.000Z</time>
        <extensions>
          <ns3:TrackPointExtension>
            <ns3:hr>90</ns3:hr>
            <ns3:cad>56</ns3:cad>
          </ns3:TrackPointExtension>
        </extensions>
      </trkpt>
      <trkpt lat="37.7617008984088897705078125" lon="-107.707112096250057220458984375">
        <ele>3658.60009765625</ele>
        <time>2023-07-29T17:44:28.000Z</time>
        <extensions>
          <ns3:TrackPointExtension>
            <ns3:hr>89</ns3:hr>
            <ns3:cad>0</ns3:cad>
          </ns3:TrackPointExtension>
        </extensions>
      </trkpt>
      <trkpt lat="37.7617027424275875091552734375" lon="-107.707114107906818389892578125">
        <ele>3658.60009765625</ele>
        <time>2023-07-29T17:44:29.000Z</time>
        <extensions>
          <ns3:TrackPointExtension>
            <ns3:hr>89</ns3:hr>
            <ns3:cad>0</ns3:cad>
          </ns3:TrackPointExtension>
        </extensions>
      </trkpt>
      <trkpt lat="37.7617087773978710174560546875" lon="-107.70711444318294525146484375">
        <ele>3658.39990234375</ele>
        <time>2023-07-29T17:44:30.000Z</time>
        <extensions>
          <ns3:TrackPointExtension>
            <ns3:hr>89</ns3:hr>
            <ns3:cad>0</ns3:cad>
          </ns3:TrackPointExtension>
        </extensions>
      </trkpt>
      <trkpt lat="37.7617084421217441558837890625" lon="-107.70711033605039119720458984375">
        <ele>3658.39990234375</ele>
        <time>2023-07-29T17:44:31.000Z</time>
        <extensions>
          <ns3:TrackPointExtension>
            <ns3:hr>89</ns3:hr>
            <ns3:cad>0</ns3:cad>
          </ns3:TrackPointExtension>
        </extensions>
      </trkpt>
      <trkpt lat="37.76170902885496616363525390625" lon="-107.7071085758507251739501953125">
        <ele>3658.199951171875</ele>
        <time>2023-07-29T17:44:32.000Z</time>
        <extensions>
          <ns3:TrackPointExtension>
            <ns3:hr>89</ns3:hr>
            <ns3:cad>0</ns3:cad>
          </ns3:TrackPointExtension>
        </extensions>
      </trkpt>
      <trkpt lat="37.761712968349456787109375" lon="-107.7071110904216766357421875">
        <ele>3658</ele>
        <time>2023-07-29T17:44:33.000Z</time>
        <extensions>
          <ns3:TrackPointExtension>
            <ns3:hr>89</ns3:hr>
            <ns3:cad>0</ns3:cad>
          </ns3:TrackPointExtension>
        </extensions>
      </trkpt>
      <trkpt lat="37.76170802302658557891845703125" lon="-107.7071003615856170654296875">
        <ele>3658</ele>
        <time>2023-07-29T17:44:34.000Z</time>
        <extensions>
          <ns3:TrackPointExtension>
            <ns3:hr>89</ns3:hr>
            <ns3:cad>0</ns3:cad>
          </ns3:TrackPointExtension>
        </extensions>
      </trkpt>
      <trkpt lat="37.76170383207499980926513671875" lon="-107.70709164440631866455078125">
        <ele>3657.800048828125</ele>
        <time>2023-07-29T17:44:35.000Z</time>
        <extensions>
          <ns3:TrackPointExtension>
            <ns3:hr>89</ns3:hr>
            <ns3:cad>0</ns3:cad>
          </ns3:TrackPointExtension>
        </extensions>
      </trkpt>
      <trkpt lat="37.761705927550792694091796875" lon="-107.707091979682445526123046875">
        <ele>3657.800048828125</ele>
        <time>2023-07-29T17:44:36.000Z</time>
        <extensions>
          <ns3:TrackPointExtension>
            <ns3:hr>88</ns3:hr>
            <ns3:cad>0</ns3:cad>
          </ns3:TrackPointExtension>
        </extensions>
      </trkpt>
      <trkpt lat="37.7617094479501247406005859375" lon="-107.7070938237011432647705078125">
        <ele>3657.60009765625</ele>
        <time>2023-07-29T17:44:37.000Z</time>
        <extensions>
          <ns3:TrackPointExtension>
            <ns3:hr>88</ns3:hr>
            <ns3:cad>0</ns3:cad>
          </ns3:TrackPointExtension>
        </extensions>
      </trkpt>
      <trkpt lat="37.76170684956014156341552734375" lon="-107.70708368159830570220947265625">
        <ele>3657.60009765625</ele>
        <time>2023-07-29T17:44:38.000Z</time>
        <extensions>
          <ns3:TrackPointExtension>
            <ns3:hr>88</ns3:hr>
            <ns3:cad>0</ns3:cad>
          </ns3:TrackPointExtension>
        </extensions>
      </trkpt>
      <trkpt lat="37.7617057599127292633056640625" lon="-107.7070757187902927398681640625">
        <ele>3657.60009765625</ele>
        <time>2023-07-29T17:44:39.000Z</time>
        <extensions>
          <ns3:TrackPointExtension>
            <ns3:hr>87</ns3:hr>
            <ns3:cad>0</ns3:cad>
          </ns3:TrackPointExtension>
        </extensions>
      </trkpt>
      <trkpt lat="37.7617062628269195556640625" lon="-107.70707328803837299346923828125">
        <ele>3657.60009765625</ele>
        <time>2023-07-29T17:44:40.000Z</time>
        <extensions>
          <ns3:TrackPointExtension>
            <ns3:hr>87</ns3:hr>
            <ns3:cad>0</ns3:cad>
          </ns3:TrackPointExtension>
        </extensions>
      </trkpt>
      <trkpt lat="37.76170165278017520904541015625" lon="-107.70707152783870697021484375">
        <ele>3657.60009765625</ele>
        <time>2023-07-29T17:44:41.000Z</time>
        <extensions>
          <ns3:TrackPointExtension>
            <ns3:hr>87</ns3:hr>
            <ns3:cad>0</ns3:cad>
          </ns3:TrackPointExtension>
        </extensions>
      </trkpt>
      <trkpt lat="37.7617040835320949554443359375" lon="-107.70708133466541767120361328125">
        <ele>3657.60009765625</ele>
        <time>2023-07-29T17:44:42.000Z</time>
        <extensions>
          <ns3:TrackPointExtension>
            <ns3:hr>86</ns3:hr>
            <ns3:cad>0</ns3:cad>
          </ns3:TrackPointExtension>
        </extensions>
      </trkpt>
      <trkpt lat="37.76169578544795513153076171875" lon="-107.70707077346742153167724609375">
        <ele>3657.60009765625</ele>
        <time>2023-07-29T17:44:43.000Z</time>
        <extensions>
          <ns3:TrackPointExtension>
            <ns3:hr>86</ns3:hr>
            <ns3:cad>0</ns3:cad>
          </ns3:TrackPointExtension>
        </extensions>
      </trkpt>
      <trkpt lat="37.76169125922024250030517578125" lon="-107.70707144401967525482177734375">
        <ele>3657.60009765625</ele>
        <time>2023-07-29T17:44:44.000Z</time>
        <extensions>
          <ns3:TrackPointExtension>
            <ns3:hr>86</ns3:hr>
            <ns3:cad>0</ns3:cad>
          </ns3:TrackPointExtension>
        </extensions>
      </trkpt>
      <trkpt lat="37.761680781841278076171875" lon="-107.70705870352685451507568359375">
        <ele>3657.60009765625</ele>
        <time>2023-07-29T17:44:45.000Z</time>
        <extensions>
          <ns3:TrackPointExtension>
            <ns3:hr>86</ns3:hr>
            <ns3:cad>0</ns3:cad>
          </ns3:TrackPointExtension>
        </extensions>
      </trkpt>
      <trkpt lat="37.7616715617477893829345703125" lon="-107.70705015398561954498291015625">
        <ele>3657.60009765625</ele>
        <time>2023-07-29T17:44:46.000Z</time>
        <extensions>
          <ns3:TrackPointExtension>
            <ns3:hr>86</ns3:hr>
            <ns3:cad>0</ns3:cad>
          </ns3:TrackPointExtension>
        </extensions>
      </trkpt>
      <trkpt lat="37.76165739633142948150634765625" lon="-107.707042358815670013427734375">
        <ele>3657.60009765625</ele>
        <time>2023-07-29T17:44:47.000Z</time>
        <extensions>
          <ns3:TrackPointExtension>
            <ns3:hr>86</ns3:hr>
            <ns3:cad>0</ns3:cad>
          </ns3:TrackPointExtension>
        </extensions>
      </trkpt>
      <trkpt lat="37.7616467513144016265869140625" lon="-107.70703607238829135894775390625">
        <ele>3657.60009765625</ele>
        <time>2023-07-29T17:44:48.000Z</time>
        <extensions>
          <ns3:TrackPointExtension>
            <ns3:hr>86</ns3:hr>
            <ns3:cad>0</ns3:cad>
          </ns3:TrackPointExtension>
        </extensions>
      </trkpt>
      <trkpt lat="37.76163510046899318695068359375" lon="-107.707026936113834381103515625">
        <ele>3657.60009765625</ele>
        <time>2023-07-29T17:44:49.000Z</time>
        <extensions>
          <ns3:TrackPointExtension>
            <ns3:hr>86</ns3:hr>
            <ns3:cad>0</ns3:cad>
          </ns3:TrackPointExtension>
        </extensions>
      </trkpt>
      <trkpt lat="37.76162705384194850921630859375" lon="-107.70702584646642208099365234375">
        <ele>3657.39990234375</ele>
        <time>2023-07-29T17:44:50.000Z</time>
        <extensions>
          <ns3:TrackPointExtension>
            <ns3:hr>86</ns3:hr>
            <ns3:cad>0</ns3:cad>
          </ns3:TrackPointExtension>
        </extensions>
      </trkpt>
      <trkpt lat="37.7616125531494617462158203125" lon="-107.7070140279829502105712890625">
        <ele>3657.60009765625</ele>
        <time>2023-07-29T17:44:51.000Z</time>
        <extensions>
          <ns3:TrackPointExtension>
            <ns3:hr>86</ns3:hr>
            <ns3:cad>55</ns3:cad>
          </ns3:TrackPointExtension>
        </extensions>
      </trkpt>
      <trkpt lat="37.76160073466598987579345703125" lon="-107.70700438879430294036865234375">
        <ele>3657.60009765625</ele>
        <time>2023-07-29T17:44:52.000Z</time>
        <extensions>
          <ns3:TrackPointExtension>
            <ns3:hr>86</ns3:hr>
            <ns3:cad>55</ns3:cad>
          </ns3:TrackPointExtension>
        </extensions>
      </trkpt>
      <trkpt lat="37.76159503497183322906494140625" lon="-107.7070046402513980865478515625">
        <ele>3657.60009765625</ele>
        <time>2023-07-29T17:44:53.000Z</time>
        <extensions>
          <ns3:TrackPointExtension>
            <ns3:hr>88</ns3:hr>
            <ns3:cad>0</ns3:cad>
          </ns3:TrackPointExtension>
        </extensions>
      </trkpt>
      <trkpt lat="37.7615907602012157440185546875" lon="-107.7069986052811145782470703125">
        <ele>3657.39990234375</ele>
        <time>2023-07-29T17:44:54.000Z</time>
        <extensions>
          <ns3:TrackPointExtension>
            <ns3:hr>90</ns3:hr>
            <ns3:cad>0</ns3:cad>
          </ns3:TrackPointExtension>
        </extensions>
      </trkpt>
      <trkpt lat="37.76158480904996395111083984375" lon="-107.7069929055869579315185546875">
        <ele>3657.39990234375</ele>
        <time>2023-07-29T17:44:55.000Z</time>
        <extensions>
          <ns3:TrackPointExtension>
            <ns3:hr>91</ns3:hr>
            <ns3:cad>0</ns3:cad>
          </ns3:TrackPointExtension>
        </extensions>
      </trkpt>
      <trkpt lat="37.76157625950872898101806640625" lon="-107.70698762498795986175537109375">
        <ele>3657.39990234375</ele>
        <time>2023-07-29T17:44:56.000Z</time>
        <extensions>
          <ns3:TrackPointExtension>
            <ns3:hr>91</ns3:hr>
            <ns3:cad>0</ns3:cad>
          </ns3:TrackPointExtension>
        </extensions>
      </trkpt>
      <trkpt lat="37.76157089509069919586181640625" lon="-107.70698167383670806884765625">
        <ele>3657.39990234375</ele>
        <time>2023-07-29T17:44:57.000Z</time>
        <extensions>
          <ns3:TrackPointExtension>
            <ns3:hr>91</ns3:hr>
            <ns3:cad>0</ns3:cad>
          </ns3:TrackPointExtension>
        </extensions>
      </trkpt>
      <trkpt lat="37.7615713141858577728271484375" lon="-107.70698142237961292266845703125">
        <ele>3657.199951171875</ele>
        <time>2023-07-29T17:44:58.000Z</time>
        <extensions>
          <ns3:TrackPointExtension>
            <ns3:hr>91</ns3:hr>
            <ns3:cad>0</ns3:cad>
          </ns3:TrackPointExtension>
        </extensions>
      </trkpt>
      <trkpt lat="37.76157173328101634979248046875" lon="-107.70697773434221744537353515625">
        <ele>3657.199951171875</ele>
        <time>2023-07-29T17:44:59.000Z</time>
        <extensions>
          <ns3:TrackPointExtension>
            <ns3:hr>91</ns3:hr>
            <ns3:cad>0</ns3:cad>
          </ns3:TrackPointExtension>
        </extensions>
      </trkpt>
      <trkpt lat="37.76157005690038204193115234375" lon="-107.7069716155529022216796875">
        <ele>3657.199951171875</ele>
        <time>2023-07-29T17:45:00.000Z</time>
        <extensions>
          <ns3:TrackPointExtension>
            <ns3:hr>91</ns3:hr>
            <ns3:cad>0</ns3:cad>
          </ns3:TrackPointExtension>
        </extensions>
      </trkpt>
      <trkpt lat="37.76156687177717685699462890625" lon="-107.70696616731584072113037109375">
        <ele>3657.199951171875</ele>
        <time>2023-07-29T17:45:01.000Z</time>
        <extensions>
          <ns3:TrackPointExtension>
            <ns3:hr>91</ns3:hr>
            <ns3:cad>0</ns3:cad>
          </ns3:TrackPointExtension>
        </extensions>
      </trkpt>
      <trkpt lat="37.761573493480682373046875" lon="-107.7069640718400478363037109375">
        <ele>3657.199951171875</ele>
        <time>2023-07-29T17:45:02.000Z</time>
        <extensions>
          <ns3:TrackPointExtension>
            <ns3:hr>91</ns3:hr>
            <ns3:cad>0</ns3:cad>
          </ns3:TrackPointExtension>
        </extensions>
      </trkpt>
      <trkpt lat="37.761573158204555511474609375" lon="-107.70696113817393779754638671875">
        <ele>3657.199951171875</ele>
        <time>2023-07-29T17:45:03.000Z</time>
        <extensions>
          <ns3:TrackPointExtension>
            <ns3:hr>91</ns3:hr>
            <ns3:cad>0</ns3:cad>
          </ns3:TrackPointExtension>
        </extensions>
      </trkpt>
      <trkpt lat="37.76158145628869533538818359375" lon="-107.7069573663175106048583984375">
        <ele>3657.199951171875</ele>
        <time>2023-07-29T17:45:04.000Z</time>
        <extensions>
          <ns3:TrackPointExtension>
            <ns3:hr>91</ns3:hr>
            <ns3:cad>0</ns3:cad>
          </ns3:TrackPointExtension>
        </extensions>
      </trkpt>
      <trkpt lat="37.76158346794545650482177734375" lon="-107.7069573663175106048583984375">
        <ele>3657.199951171875</ele>
        <time>2023-07-29T17:45:05.000Z</time>
        <extensions>
          <ns3:TrackPointExtension>
            <ns3:hr>90</ns3:hr>
            <ns3:cad>0</ns3:cad>
          </ns3:TrackPointExtension>
        </extensions>
      </trkpt>
      <trkpt lat="37.76159402914345264434814453125" lon="-107.7069701068103313446044921875">
        <ele>3657.199951171875</ele>
        <time>2023-07-29T17:45:06.000Z</time>
        <extensions>
          <ns3:TrackPointExtension>
            <ns3:hr>91</ns3:hr>
            <ns3:cad>0</ns3:cad>
          </ns3:TrackPointExtension>
        </extensions>
      </trkpt>
      <trkpt lat="37.7615998126566410064697265625" lon="-107.7069805003702640533447265625">
        <ele>3657</ele>
        <time>2023-07-29T17:45:07.000Z</time>
        <extensions>
          <ns3:TrackPointExtension>
            <ns3:hr>91</ns3:hr>
            <ns3:cad>0</ns3:cad>
          </ns3:TrackPointExtension>
        </extensions>
      </trkpt>
      <trkpt lat="37.76159687899053096771240234375" lon="-107.706984691321849822998046875">
        <ele>3657</ele>
        <time>2023-07-29T17:45:08.000Z</time>
        <extensions>
          <ns3:TrackPointExtension>
            <ns3:hr>93</ns3:hr>
            <ns3:cad>0</ns3:cad>
          </ns3:TrackPointExtension>
        </extensions>
      </trkpt>
      <trkpt lat="37.76159905828535556793212890625" lon="-107.706997096538543701171875">
        <ele>3657</ele>
        <time>2023-07-29T17:45:09.000Z</time>
        <extensions>
          <ns3:TrackPointExtension>
            <ns3:hr>93</ns3:hr>
            <ns3:cad>0</ns3:cad>
          </ns3:TrackPointExtension>
        </extensions>
      </trkpt>
      <trkpt lat="37.7615989744663238525390625" lon="-107.70700187422335147857666015625">
        <ele>3656.800048828125</ele>
        <time>2023-07-29T17:45:10.000Z</time>
        <extensions>
          <ns3:TrackPointExtension>
            <ns3:hr>93</ns3:hr>
            <ns3:cad>0</ns3:cad>
          </ns3:TrackPointExtension>
        </extensions>
      </trkpt>
      <trkpt lat="37.76159486733376979827880859375" lon="-107.70700405351817607879638671875">
        <ele>3656.39990234375</ele>
        <time>2023-07-29T17:45:11.000Z</time>
        <extensions>
          <ns3:TrackPointExtension>
            <ns3:hr>93</ns3:hr>
            <ns3:cad>0</ns3:cad>
          </ns3:TrackPointExtension>
        </extensions>
      </trkpt>
      <trkpt lat="37.76159637607634067535400390625" lon="-107.70701427944004535675048828125">
        <ele>3656.199951171875</ele>
        <time>2023-07-29T17:45:12.000Z</time>
        <extensions>
          <ns3:TrackPointExtension>
            <ns3:hr>93</ns3:hr>
            <ns3:cad>0</ns3:cad>
          </ns3:TrackPointExtension>
        </extensions>
      </trkpt>
      <trkpt lat="37.7615971304476261138916015625" lon="-107.7070183865725994110107421875">
        <ele>3656</ele>
        <time>2023-07-29T17:45:13.000Z</time>
        <extensions>
          <ns3:TrackPointExtension>
            <ns3:hr>93</ns3:hr>
            <ns3:cad>0</ns3:cad>
          </ns3:TrackPointExtension>
        </extensions>
      </trkpt>
      <trkpt lat="37.761606685817241668701171875" lon="-107.70702324807643890380859375">
        <ele>3656</ele>
        <time>2023-07-29T17:45:14.000Z</time>
        <extensions>
          <ns3:TrackPointExtension>
            <ns3:hr>93</ns3:hr>
            <ns3:cad>0</ns3:cad>
          </ns3:TrackPointExtension>
        </extensions>
      </trkpt>
      <trkpt lat="37.76161364279687404632568359375" lon="-107.70701562054455280303955078125">
        <ele>3656</ele>
        <time>2023-07-29T17:45:15.000Z</time>
        <extensions>
          <ns3:TrackPointExtension>
            <ns3:hr>93</ns3:hr>
            <ns3:cad>0</ns3:cad>
          </ns3:TrackPointExtension>
        </extensions>
      </trkpt>
      <trkpt lat="37.7616182528436183929443359375" lon="-107.7070167101919651031494140625">
        <ele>3656</ele>
        <time>2023-07-29T17:45:16.000Z</time>
        <extensions>
          <ns3:TrackPointExtension>
            <ns3:hr>93</ns3:hr>
            <ns3:cad>0</ns3:cad>
          </ns3:TrackPointExtension>
        </extensions>
      </trkpt>
      <trkpt lat="37.761621437966823577880859375" lon="-107.70701578818261623382568359375">
        <ele>3656</ele>
        <time>2023-07-29T17:45:17.000Z</time>
        <extensions>
          <ns3:TrackPointExtension>
            <ns3:hr>94</ns3:hr>
            <ns3:cad>0</ns3:cad>
          </ns3:TrackPointExtension>
        </extensions>
      </trkpt>
      <trkpt lat="37.7616122178733348846435546875" lon="-107.7070180512964725494384765625">
        <ele>3656</ele>
        <time>2023-07-29T17:45:18.000Z</time>
        <extensions>
          <ns3:TrackPointExtension>
            <ns3:hr>94</ns3:hr>
            <ns3:cad>0</ns3:cad>
          </ns3:TrackPointExtension>
        </extensions>
      </trkpt>
      <trkpt lat="37.76160500943660736083984375" lon="-107.70702048204839229583740234375">
        <ele>3656.199951171875</ele>
        <time>2023-07-29T17:45:19.000Z</time>
        <extensions>
          <ns3:TrackPointExtension>
            <ns3:hr>94</ns3:hr>
            <ns3:cad>0</ns3:cad>
          </ns3:TrackPointExtension>
        </extensions>
      </trkpt>
      <trkpt lat="37.76159562170505523681640625" lon="-107.70701964385807514190673828125">
        <ele>3656.39990234375</ele>
        <time>2023-07-29T17:45:20.000Z</time>
        <extensions>
          <ns3:TrackPointExtension>
            <ns3:hr>94</ns3:hr>
            <ns3:cad>0</ns3:cad>
          </ns3:TrackPointExtension>
        </extensions>
      </trkpt>
      <trkpt lat="37.7615900896489620208740234375" lon="-107.70702148787677288055419921875">
        <ele>3656.800048828125</ele>
        <time>2023-07-29T17:45:21.000Z</time>
        <extensions>
          <ns3:TrackPointExtension>
            <ns3:hr>94</ns3:hr>
            <ns3:cad>0</ns3:cad>
          </ns3:TrackPointExtension>
        </extensions>
      </trkpt>
      <trkpt lat="37.76158514432609081268310546875" lon="-107.70702148787677288055419921875">
        <ele>3656.800048828125</ele>
        <time>2023-07-29T17:45:22.000Z</time>
        <extensions>
          <ns3:TrackPointExtension>
            <ns3:hr>94</ns3:hr>
            <ns3:cad>0</ns3:cad>
          </ns3:TrackPointExtension>
        </extensions>
      </trkpt>
      <trkpt lat="37.7615766786038875579833984375" lon="-107.70701847039163112640380859375">
        <ele>3656.800048828125</ele>
        <time>2023-07-29T17:45:23.000Z</time>
        <extensions>
          <ns3:TrackPointExtension>
            <ns3:hr>94</ns3:hr>
            <ns3:cad>0</ns3:cad>
          </ns3:TrackPointExtension>
        </extensions>
      </trkpt>
      <trkpt lat="37.7615679614245891571044921875" lon="-107.70701478235423564910888671875">
        <ele>3656.800048828125</ele>
        <time>2023-07-29T17:45:24.000Z</time>
        <extensions>
          <ns3:TrackPointExtension>
            <ns3:hr>94</ns3:hr>
            <ns3:cad>0</ns3:cad>
          </ns3:TrackPointExtension>
        </extensions>
      </trkpt>
      <trkpt lat="37.76155815459787845611572265625" lon="-107.7070105075836181640625">
        <ele>3656.800048828125</ele>
        <time>2023-07-29T17:45:25.000Z</time>
        <extensions>
          <ns3:TrackPointExtension>
            <ns3:hr>95</ns3:hr>
            <ns3:cad>56</ns3:cad>
          </ns3:TrackPointExtension>
        </extensions>
      </trkpt>
      <trkpt lat="37.76154088787734508514404296875" lon="-107.70700355060398578643798828125">
        <ele>3656.60009765625</ele>
        <time>2023-07-29T17:45:26.000Z</time>
        <extensions>
          <ns3:TrackPointExtension>
            <ns3:hr>94</ns3:hr>
            <ns3:cad>56</ns3:cad>
          </ns3:TrackPointExtension>
        </extensions>
      </trkpt>
      <trkpt lat="37.76152160950005054473876953125" lon="-107.706994749605655670166015625">
        <ele>3656.199951171875</ele>
        <time>2023-07-29T17:45:27.000Z</time>
        <extensions>
          <ns3:TrackPointExtension>
            <ns3:hr>94</ns3:hr>
            <ns3:cad>56</ns3:cad>
          </ns3:TrackPointExtension>
        </extensions>
      </trkpt>
      <trkpt lat="37.7615106292068958282470703125" lon="-107.706985361874103546142578125">
        <ele>3656</ele>
        <time>2023-07-29T17:45:28.000Z</time>
        <extensions>
          <ns3:TrackPointExtension>
            <ns3:hr>95</ns3:hr>
            <ns3:cad>56</ns3:cad>
          </ns3:TrackPointExtension>
        </extensions>
      </trkpt>
      <trkpt lat="37.761492691934108734130859375" lon="-107.70697354339063167572021484375">
        <ele>3655.800048828125</ele>
        <time>2023-07-29T17:45:29.000Z</time>
        <extensions>
          <ns3:TrackPointExtension>
            <ns3:hr>95</ns3:hr>
            <ns3:cad>55</ns3:cad>
          </ns3:TrackPointExtension>
        </extensions>
      </trkpt>
      <trkpt lat="37.761476933956146240234375" lon="-107.70696348510682582855224609375">
        <ele>3655.60009765625</ele>
        <time>2023-07-29T17:45:30.000Z</time>
        <extensions>
          <ns3:TrackPointExtension>
            <ns3:hr>95</ns3:hr>
            <ns3:cad>55</ns3:cad>
          </ns3:TrackPointExtension>
        </extensions>
      </trkpt>
      <trkpt lat="37.761466540396213531494140625" lon="-107.70695677958428859710693359375">
        <ele>3655.60009765625</ele>
        <time>2023-07-29T17:45:31.000Z</time>
        <extensions>
          <ns3:TrackPointExtension>
            <ns3:hr>95</ns3:hr>
            <ns3:cad>55</ns3:cad>
          </ns3:TrackPointExtension>
        </extensions>
      </trkpt>
      <trkpt lat="37.76146142743527889251708984375" lon="-107.70695124752819538116455078125">
        <ele>3655.199951171875</ele>
        <time>2023-07-29T17:45:32.000Z</time>
        <extensions>
          <ns3:TrackPointExtension>
            <ns3:hr>95</ns3:hr>
            <ns3:cad>55</ns3:cad>
          </ns3:TrackPointExtension>
        </extensions>
      </trkpt>
      <trkpt lat="37.761455811560153961181640625" lon="-107.70694412291049957275390625">
        <ele>3655</ele>
        <time>2023-07-29T17:45:33.000Z</time>
        <extensions>
          <ns3:TrackPointExtension>
            <ns3:hr>95</ns3:hr>
            <ns3:cad>55</ns3:cad>
          </ns3:TrackPointExtension>
        </extensions>
      </trkpt>
      <trkpt lat="37.76144600473344326019287109375" lon="-107.70693473517894744873046875">
        <ele>3655</ele>
        <time>2023-07-29T17:45:34.000Z</time>
        <extensions>
          <ns3:TrackPointExtension>
            <ns3:hr>95</ns3:hr>
            <ns3:cad>55</ns3:cad>
          </ns3:TrackPointExtension>
        </extensions>
      </trkpt>
      <trkpt lat="37.7614345215260982513427734375" lon="-107.7069238387048244476318359375">
        <ele>3655</ele>
        <time>2023-07-29T17:45:35.000Z</time>
        <extensions>
          <ns3:TrackPointExtension>
            <ns3:hr>95</ns3:hr>
            <ns3:cad>53</ns3:cad>
          </ns3:TrackPointExtension>
        </extensions>
      </trkpt>
      <trkpt lat="37.7614247985184192657470703125" lon="-107.7069080807268619537353515625">
        <ele>3654.800048828125</ele>
        <time>2023-07-29T17:45:36.000Z</time>
        <extensions>
          <ns3:TrackPointExtension>
            <ns3:hr>95</ns3:hr>
            <ns3:cad>53</ns3:cad>
          </ns3:TrackPointExtension>
        </extensions>
      </trkpt>
      <trkpt lat="37.7614123933017253875732421875" lon="-107.7068933285772800445556640625">
        <ele>3654.800048828125</ele>
        <time>2023-07-29T17:45:37.000Z</time>
        <extensions>
          <ns3:TrackPointExtension>
            <ns3:hr>95</ns3:hr>
            <ns3:cad>53</ns3:cad>
          </ns3:TrackPointExtension>
        </extensions>
      </trkpt>
      <trkpt lat="37.76139713823795318603515625" lon="-107.706878744065761566162109375">
        <ele>3654.800048828125</ele>
        <time>2023-07-29T17:45:38.000Z</time>
        <extensions>
          <ns3:TrackPointExtension>
            <ns3:hr>95</ns3:hr>
            <ns3:cad>53</ns3:cad>
          </ns3:TrackPointExtension>
        </extensions>
      </trkpt>
      <trkpt lat="37.761384733021259307861328125" lon="-107.70686692558228969573974609375">
        <ele>3654.800048828125</ele>
        <time>2023-07-29T17:45:39.000Z</time>
        <extensions>
          <ns3:TrackPointExtension>
            <ns3:hr>94</ns3:hr>
            <ns3:cad>53</ns3:cad>
          </ns3:TrackPointExtension>
        </extensions>
      </trkpt>
      <trkpt lat="37.7613765187561511993408203125" lon="-107.706861309707164764404296875">
        <ele>3654.800048828125</ele>
        <time>2023-07-29T17:45:40.000Z</time>
        <extensions>
          <ns3:TrackPointExtension>
            <ns3:hr>94</ns3:hr>
            <ns3:cad>53</ns3:cad>
          </ns3:TrackPointExtension>
        </extensions>
      </trkpt>
      <trkpt lat="37.76136939413845539093017578125" lon="-107.7068547718226909637451171875">
        <ele>3654.800048828125</ele>
        <time>2023-07-29T17:45:41.000Z</time>
        <extensions>
          <ns3:TrackPointExtension>
            <ns3:hr>92</ns3:hr>
            <ns3:cad>53</ns3:cad>
          </ns3:TrackPointExtension>
        </extensions>
      </trkpt>
      <trkpt lat="37.76135983876883983612060546875" lon="-107.70684228278696537017822265625">
        <ele>3654.800048828125</ele>
        <time>2023-07-29T17:45:42.000Z</time>
        <extensions>
          <ns3:TrackPointExtension>
            <ns3:hr>90</ns3:hr>
            <ns3:cad>53</ns3:cad>
          </ns3:TrackPointExtension>
        </extensions>
      </trkpt>
      <trkpt lat="37.76134760119020938873291015625" lon="-107.7068309672176837921142578125">
        <ele>3654.800048828125</ele>
        <time>2023-07-29T17:45:43.000Z</time>
        <extensions>
          <ns3:TrackPointExtension>
            <ns3:hr>88</ns3:hr>
            <ns3:cad>53</ns3:cad>
          </ns3:TrackPointExtension>
        </extensions>
      </trkpt>
      <trkpt lat="37.76133419014513492584228515625" lon="-107.70681546069681644439697265625">
        <ele>3654.800048828125</ele>
        <time>2023-07-29T17:45:44.000Z</time>
        <extensions>
          <ns3:TrackPointExtension>
            <ns3:hr>88</ns3:hr>
            <ns3:cad>50</ns3:cad>
          </ns3:TrackPointExtension>
        </extensions>
      </trkpt>
      <trkpt lat="37.76132530532777309417724609375" lon="-107.7068034745752811431884765625">
        <ele>3654.39990234375</ele>
        <time>2023-07-29T17:45:45.000Z</time>
        <extensions>
          <ns3:TrackPointExtension>
            <ns3:hr>88</ns3:hr>
            <ns3:cad>50</ns3:cad>
          </ns3:TrackPointExtension>
        </extensions>
      </trkpt>
      <trkpt lat="37.76132010854780673980712890625" lon="-107.70679869689047336578369140625">
        <ele>3654.199951171875</ele>
        <time>2023-07-29T17:45:46.000Z</time>
        <extensions>
          <ns3:TrackPointExtension>
            <ns3:hr>87</ns3:hr>
            <ns3:cad>0</ns3:cad>
          </ns3:TrackPointExtension>
        </extensions>
      </trkpt>
      <trkpt lat="37.76131625287234783172607421875" lon="-107.70679526031017303466796875">
        <ele>3654.199951171875</ele>
        <time>2023-07-29T17:45:47.000Z</time>
        <extensions>
          <ns3:TrackPointExtension>
            <ns3:hr>87</ns3:hr>
            <ns3:cad>0</ns3:cad>
          </ns3:TrackPointExtension>
        </extensions>
      </trkpt>
      <trkpt lat="37.7613111399114131927490234375" lon="-107.7067920751869678497314453125">
        <ele>3654.199951171875</ele>
        <time>2023-07-29T17:45:48.000Z</time>
        <extensions>
          <ns3:TrackPointExtension>
            <ns3:hr>87</ns3:hr>
            <ns3:cad>0</ns3:cad>
          </ns3:TrackPointExtension>
        </extensions>
      </trkpt>
      <trkpt lat="37.7613004110753536224365234375" lon="-107.70678327418863773345947265625">
        <ele>3654</ele>
        <time>2023-07-29T17:45:49.000Z</time>
        <extensions>
          <ns3:TrackPointExtension>
            <ns3:hr>87</ns3:hr>
            <ns3:cad>0</ns3:cad>
          </ns3:TrackPointExtension>
        </extensions>
      </trkpt>
      <trkpt lat="37.76129194535315036773681640625" lon="-107.70677648484706878662109375">
        <ele>3654</ele>
        <time>2023-07-29T17:45:50.000Z</time>
        <extensions>
          <ns3:TrackPointExtension>
            <ns3:hr>87</ns3:hr>
            <ns3:cad>0</ns3:cad>
          </ns3:TrackPointExtension>
        </extensions>
      </trkpt>
      <trkpt lat="37.76128113269805908203125" lon="-107.70676936022937297821044921875">
        <ele>3654</ele>
        <time>2023-07-29T17:45:51.000Z</time>
        <extensions>
          <ns3:TrackPointExtension>
            <ns3:hr>86</ns3:hr>
            <ns3:cad>0</ns3:cad>
          </ns3:TrackPointExtension>
        </extensions>
      </trkpt>
      <trkpt lat="37.76126948185265064239501953125" lon="-107.70676265470683574676513671875">
        <ele>3654</ele>
        <time>2023-07-29T17:45:52.000Z</time>
        <extensions>
          <ns3:TrackPointExtension>
            <ns3:hr>86</ns3:hr>
            <ns3:cad>0</ns3:cad>
          </ns3:TrackPointExtension>
        </extensions>
      </trkpt>
      <trkpt lat="37.76125355623662471771240234375" lon="-107.7067538537085056304931640625">
        <ele>3654</ele>
        <time>2023-07-29T17:45:53.000Z</time>
        <extensions>
          <ns3:TrackPointExtension>
            <ns3:hr>86</ns3:hr>
            <ns3:cad>0</ns3:cad>
          </ns3:TrackPointExtension>
        </extensions>
      </trkpt>
      <trkpt lat="37.7612387202680110931396484375" lon="-107.7067436277866363525390625">
        <ele>3653.800048828125</ele>
        <time>2023-07-29T17:45:54.000Z</time>
        <extensions>
          <ns3:TrackPointExtension>
            <ns3:hr>85</ns3:hr>
            <ns3:cad>0</ns3:cad>
          </ns3:TrackPointExtension>
        </extensions>
      </trkpt>
      <trkpt lat="37.76122455485165119171142578125" lon="-107.706733234226703643798828125">
        <ele>3653.800048828125</ele>
        <time>2023-07-29T17:45:55.000Z</time>
        <extensions>
          <ns3:TrackPointExtension>
            <ns3:hr>85</ns3:hr>
            <ns3:cad>0</ns3:cad>
          </ns3:TrackPointExtension>
        </extensions>
      </trkpt>
      <trkpt lat="37.7612102217972278594970703125" lon="-107.706725187599658966064453125">
        <ele>3653.800048828125</ele>
        <time>2023-07-29T17:45:56.000Z</time>
        <extensions>
          <ns3:TrackPointExtension>
            <ns3:hr>85</ns3:hr>
            <ns3:cad>52</ns3:cad>
          </ns3:TrackPointExtension>
        </extensions>
      </trkpt>
      <trkpt lat="37.76120075024664402008056640625" lon="-107.7067189849913120269775390625">
        <ele>3653.800048828125</ele>
        <time>2023-07-29T17:45:57.000Z</time>
        <extensions>
          <ns3:TrackPointExtension>
            <ns3:hr>85</ns3:hr>
            <ns3:cad>52</ns3:cad>
          </ns3:TrackPointExtension>
        </extensions>
      </trkpt>
      <trkpt lat="37.7611907757818698883056640625" lon="-107.70671437494456768035888671875">
        <ele>3653.800048828125</ele>
        <time>2023-07-29T17:45:58.000Z</time>
        <extensions>
          <ns3:TrackPointExtension>
            <ns3:hr>85</ns3:hr>
            <ns3:cad>52</ns3:cad>
          </ns3:TrackPointExtension>
        </extensions>
      </trkpt>
      <trkpt lat="37.7611857466399669647216796875" lon="-107.7067122794687747955322265625">
        <ele>3653.800048828125</ele>
        <time>2023-07-29T17:45:59.000Z</time>
        <extensions>
          <ns3:TrackPointExtension>
            <ns3:hr>85</ns3:hr>
            <ns3:cad>52</ns3:cad>
          </ns3:TrackPointExtension>
        </extensions>
      </trkpt>
      <trkpt lat="37.76118784211575984954833984375" lon="-107.7067149616777896881103515625">
        <ele>3653.60009765625</ele>
        <time>2023-07-29T17:46:00.000Z</time>
        <extensions>
          <ns3:TrackPointExtension>
            <ns3:hr>85</ns3:hr>
            <ns3:cad>53</ns3:cad>
          </ns3:TrackPointExtension>
        </extensions>
      </trkpt>
      <trkpt lat="37.761188261210918426513671875" lon="-107.7067199908196926116943359375">
        <ele>3653.60009765625</ele>
        <time>2023-07-29T17:46:01.000Z</time>
        <extensions>
          <ns3:TrackPointExtension>
            <ns3:hr>85</ns3:hr>
            <ns3:cad>53</ns3:cad>
          </ns3:TrackPointExtension>
        </extensions>
      </trkpt>
      <trkpt lat="37.7611756883561611175537109375" lon="-107.70672091282904148101806640625">
        <ele>3653.39990234375</ele>
        <time>2023-07-29T17:46:02.000Z</time>
        <extensions>
          <ns3:TrackPointExtension>
            <ns3:hr>84</ns3:hr>
            <ns3:cad>0</ns3:cad>
          </ns3:TrackPointExtension>
        </extensions>
      </trkpt>
      <trkpt lat="37.7611686475574970245361328125" lon="-107.70672527141869068145751953125">
        <ele>3653</ele>
        <time>2023-07-29T17:46:03.000Z</time>
        <extensions>
          <ns3:TrackPointExtension>
            <ns3:hr>84</ns3:hr>
            <ns3:cad>0</ns3:cad>
          </ns3:TrackPointExtension>
        </extensions>
      </trkpt>
      <trkpt lat="37.76115615852177143096923828125" lon="-107.70672644488513469696044921875">
        <ele>3653</ele>
        <time>2023-07-29T17:46:04.000Z</time>
        <extensions>
          <ns3:TrackPointExtension>
            <ns3:hr>84</ns3:hr>
            <ns3:cad>55</ns3:cad>
          </ns3:TrackPointExtension>
        </extensions>
      </trkpt>
      <trkpt lat="37.76114459149539470672607421875" lon="-107.70672694779932498931884765625">
        <ele>3652.800048828125</ele>
        <time>2023-07-29T17:46:05.000Z</time>
        <extensions>
          <ns3:TrackPointExtension>
            <ns3:hr>84</ns3:hr>
            <ns3:cad>55</ns3:cad>
          </ns3:TrackPointExtension>
        </extensions>
      </trkpt>
      <trkpt lat="37.76113218627870082855224609375" lon="-107.70672828890383243560791015625">
        <ele>3652.800048828125</ele>
        <time>2023-07-29T17:46:06.000Z</time>
        <extensions>
          <ns3:TrackPointExtension>
            <ns3:hr>83</ns3:hr>
            <ns3:cad>55</ns3:cad>
          </ns3:TrackPointExtension>
        </extensions>
      </trkpt>
      <trkpt lat="37.76112229563295841217041015625" lon="-107.7067302167415618896484375">
        <ele>3652.60009765625</ele>
        <time>2023-07-29T17:46:07.000Z</time>
        <extensions>
          <ns3:TrackPointExtension>
            <ns3:hr>84</ns3:hr>
            <ns3:cad>55</ns3:cad>
          </ns3:TrackPointExtension>
        </extensions>
      </trkpt>
      <trkpt lat="37.7611126564443111419677734375" lon="-107.70672845654189586639404296875">
        <ele>3652.39990234375</ele>
        <time>2023-07-29T17:46:08.000Z</time>
        <extensions>
          <ns3:TrackPointExtension>
            <ns3:hr>85</ns3:hr>
            <ns3:cad>54</ns3:cad>
          </ns3:TrackPointExtension>
        </extensions>
      </trkpt>
      <trkpt lat="37.76110469363629817962646484375" lon="-107.70672426559031009674072265625">
        <ele>3652.199951171875</ele>
        <time>2023-07-29T17:46:09.000Z</time>
        <extensions>
          <ns3:TrackPointExtension>
            <ns3:hr>86</ns3:hr>
            <ns3:cad>54</ns3:cad>
          </ns3:TrackPointExtension>
        </extensions>
      </trkpt>
      <trkpt lat="37.76110167615115642547607421875" lon="-107.7067186497151851654052734375">
        <ele>3652</ele>
        <time>2023-07-29T17:46:10.000Z</time>
        <extensions>
          <ns3:TrackPointExtension>
            <ns3:hr>86</ns3:hr>
            <ns3:cad>54</ns3:cad>
          </ns3:TrackPointExtension>
        </extensions>
      </trkpt>
      <trkpt lat="37.7610942162573337554931640625" lon="-107.7067139558494091033935546875">
        <ele>3652</ele>
        <time>2023-07-29T17:46:11.000Z</time>
        <extensions>
          <ns3:TrackPointExtension>
            <ns3:hr>86</ns3:hr>
            <ns3:cad>54</ns3:cad>
          </ns3:TrackPointExtension>
        </extensions>
      </trkpt>
      <trkpt lat="37.76108860038220882415771484375" lon="-107.70670884288847446441650390625">
        <ele>3651.800048828125</ele>
        <time>2023-07-29T17:46:12.000Z</time>
        <extensions>
          <ns3:TrackPointExtension>
            <ns3:hr>87</ns3:hr>
            <ns3:cad>0</ns3:cad>
          </ns3:TrackPointExtension>
        </extensions>
      </trkpt>
      <trkpt lat="37.76108457706868648529052734375" lon="-107.70670381374657154083251953125">
        <ele>3651.800048828125</ele>
        <time>2023-07-29T17:46:13.000Z</time>
        <extensions>
          <ns3:TrackPointExtension>
            <ns3:hr>87</ns3:hr>
            <ns3:cad>0</ns3:cad>
          </ns3:TrackPointExtension>
        </extensions>
      </trkpt>
      <trkpt lat="37.76108139194548130035400390625" lon="-107.70670213736593723297119140625">
        <ele>3651.60009765625</ele>
        <time>2023-07-29T17:46:14.000Z</time>
        <extensions>
          <ns3:TrackPointExtension>
            <ns3:hr>87</ns3:hr>
            <ns3:cad>0</ns3:cad>
          </ns3:TrackPointExtension>
        </extensions>
      </trkpt>
      <trkpt lat="37.76107803918421268463134765625" lon="-107.70670096389949321746826171875">
        <ele>3651.60009765625</ele>
        <time>2023-07-29T17:46:15.000Z</time>
        <extensions>
          <ns3:TrackPointExtension>
            <ns3:hr>87</ns3:hr>
            <ns3:cad>0</ns3:cad>
          </ns3:TrackPointExtension>
        </extensions>
      </trkpt>
      <trkpt lat="37.761080972850322723388671875" lon="-107.70670414902269840240478515625">
        <ele>3651.39990234375</ele>
        <time>2023-07-29T17:46:16.000Z</time>
        <extensions>
          <ns3:TrackPointExtension>
            <ns3:hr>87</ns3:hr>
            <ns3:cad>0</ns3:cad>
          </ns3:TrackPointExtension>
        </extensions>
      </trkpt>
      <trkpt lat="37.76108005084097385406494140625" lon="-107.706705071032047271728515625">
        <ele>3651.39990234375</ele>
        <time>2023-07-29T17:46:17.000Z</time>
        <extensions>
          <ns3:TrackPointExtension>
            <ns3:hr>87</ns3:hr>
            <ns3:cad>0</ns3:cad>
          </ns3:TrackPointExtension>
        </extensions>
      </trkpt>
      <trkpt lat="37.76108063757419586181640625" lon="-107.70670540630817413330078125">
        <ele>3651.39990234375</ele>
        <time>2023-07-29T17:46:18.000Z</time>
        <extensions>
          <ns3:TrackPointExtension>
            <ns3:hr>87</ns3:hr>
            <ns3:cad>0</ns3:cad>
          </ns3:TrackPointExtension>
        </extensions>
      </trkpt>
      <trkpt lat="37.7610808052122592926025390625" lon="-107.70670532248914241790771484375">
        <ele>3651.199951171875</ele>
        <time>2023-07-29T17:46:19.000Z</time>
        <extensions>
          <ns3:TrackPointExtension>
            <ns3:hr>88</ns3:hr>
            <ns3:cad>0</ns3:cad>
          </ns3:TrackPointExtension>
        </extensions>
      </trkpt>
      <trkpt lat="37.761080972850322723388671875" lon="-107.70670565776526927947998046875">
        <ele>3651.199951171875</ele>
        <time>2023-07-29T17:46:20.000Z</time>
        <extensions>
          <ns3:TrackPointExtension>
            <ns3:hr>88</ns3:hr>
            <ns3:cad>0</ns3:cad>
          </ns3:TrackPointExtension>
        </extensions>
      </trkpt>
      <trkpt lat="37.76108172722160816192626953125" lon="-107.7067065797746181488037109375">
        <ele>3651.199951171875</ele>
        <time>2023-07-29T17:46:21.000Z</time>
        <extensions>
          <ns3:TrackPointExtension>
            <ns3:hr>89</ns3:hr>
            <ns3:cad>0</ns3:cad>
          </ns3:TrackPointExtension>
        </extensions>
      </trkpt>
      <trkpt lat="37.76108373887836933135986328125" lon="-107.7067055739462375640869140625">
        <ele>3651.199951171875</ele>
        <time>2023-07-29T17:46:22.000Z</time>
        <extensions>
          <ns3:TrackPointExtension>
            <ns3:hr>90</ns3:hr>
            <ns3:cad>0</ns3:cad>
          </ns3:TrackPointExtension>
        </extensions>
      </trkpt>
      <trkpt lat="37.76108541525900363922119140625" lon="-107.70670347847044467926025390625">
        <ele>3651.199951171875</ele>
        <time>2023-07-29T17:46:23.000Z</time>
        <extensions>
          <ns3:TrackPointExtension>
            <ns3:hr>92</ns3:hr>
            <ns3:cad>0</ns3:cad>
          </ns3:TrackPointExtension>
        </extensions>
      </trkpt>
      <trkpt lat="37.76108440943062305450439453125" lon="-107.70670146681368350982666015625">
        <ele>3651.199951171875</ele>
        <time>2023-07-29T17:46:24.000Z</time>
        <extensions>
          <ns3:TrackPointExtension>
            <ns3:hr>93</ns3:hr>
            <ns3:cad>0</ns3:cad>
          </ns3:TrackPointExtension>
        </extensions>
      </trkpt>
      <trkpt lat="37.76108357124030590057373046875" lon="-107.7067015506327152252197265625">
        <ele>3651.199951171875</ele>
        <time>2023-07-29T17:46:25.000Z</time>
        <extensions>
          <ns3:TrackPointExtension>
            <ns3:hr>95</ns3:hr>
            <ns3:cad>0</ns3:cad>
          </ns3:TrackPointExtension>
        </extensions>
      </trkpt>
      <trkpt lat="37.76108063757419586181640625" lon="-107.7066988684237003326416015625">
        <ele>3651.199951171875</ele>
        <time>2023-07-29T17:46:26.000Z</time>
        <extensions>
          <ns3:TrackPointExtension>
            <ns3:hr>96</ns3:hr>
            <ns3:cad>0</ns3:cad>
          </ns3:TrackPointExtension>
        </extensions>
      </trkpt>
      <trkpt lat="37.7610767818987369537353515625" lon="-107.70669400691986083984375">
        <ele>3651.199951171875</ele>
        <time>2023-07-29T17:46:27.000Z</time>
        <extensions>
          <ns3:TrackPointExtension>
            <ns3:hr>97</ns3:hr>
            <ns3:cad>0</ns3:cad>
          </ns3:TrackPointExtension>
        </extensions>
      </trkpt>
      <trkpt lat="37.7610737644135951995849609375" lon="-107.70668839104473590850830078125">
        <ele>3651.199951171875</ele>
        <time>2023-07-29T17:46:28.000Z</time>
        <extensions>
          <ns3:TrackPointExtension>
            <ns3:hr>98</ns3:hr>
            <ns3:cad>0</ns3:cad>
          </ns3:TrackPointExtension>
        </extensions>
      </trkpt>
      <trkpt lat="37.76107636280357837677001953125" lon="-107.70668654702603816986083984375">
        <ele>3651.199951171875</ele>
        <time>2023-07-29T17:46:29.000Z</time>
        <extensions>
          <ns3:TrackPointExtension>
            <ns3:hr>98</ns3:hr>
            <ns3:cad>0</ns3:cad>
          </ns3:TrackPointExtension>
        </extensions>
      </trkpt>
      <trkpt lat="37.76108122430741786956787109375" lon="-107.70668570883572101593017578125">
        <ele>3651.199951171875</ele>
        <time>2023-07-29T17:46:30.000Z</time>
        <extensions>
          <ns3:TrackPointExtension>
            <ns3:hr>99</ns3:hr>
            <ns3:cad>0</ns3:cad>
          </ns3:TrackPointExtension>
        </extensions>
      </trkpt>
      <trkpt lat="37.7610838226974010467529296875" lon="-107.70668688230216503143310546875">
        <ele>3651.199951171875</ele>
        <time>2023-07-29T17:46:31.000Z</time>
        <extensions>
          <ns3:TrackPointExtension>
            <ns3:hr>99</ns3:hr>
            <ns3:cad>0</ns3:cad>
          </ns3:TrackPointExtension>
        </extensions>
      </trkpt>
      <trkpt lat="37.761082984507083892822265625" lon="-107.70668470300734043121337890625">
        <ele>3651.199951171875</ele>
        <time>2023-07-29T17:46:32.000Z</time>
        <extensions>
          <ns3:TrackPointExtension>
            <ns3:hr>99</ns3:hr>
            <ns3:cad>0</ns3:cad>
          </ns3:TrackPointExtension>
        </extensions>
      </trkpt>
      <trkpt lat="37.7610844932496547698974609375" lon="-107.7066864632070064544677734375">
        <ele>3651</ele>
        <time>2023-07-29T17:46:33.000Z</time>
        <extensions>
          <ns3:TrackPointExtension>
            <ns3:hr>100</ns3:hr>
            <ns3:cad>0</ns3:cad>
          </ns3:TrackPointExtension>
        </extensions>
      </trkpt>
      <trkpt lat="37.7610858343541622161865234375" lon="-107.7066904865205287933349609375">
        <ele>3651</ele>
        <time>2023-07-29T17:46:34.000Z</time>
        <extensions>
          <ns3:TrackPointExtension>
            <ns3:hr>99</ns3:hr>
            <ns3:cad>0</ns3:cad>
          </ns3:TrackPointExtension>
        </extensions>
      </trkpt>
      <trkpt lat="37.76108692400157451629638671875" lon="-107.70669610239565372467041015625">
        <ele>3651</ele>
        <time>2023-07-29T17:46:35.000Z</time>
        <extensions>
          <ns3:TrackPointExtension>
            <ns3:hr>99</ns3:hr>
            <ns3:cad>0</ns3:cad>
          </ns3:TrackPointExtension>
        </extensions>
      </trkpt>
      <trkpt lat="37.76108759455382823944091796875" lon="-107.706702053546905517578125">
        <ele>3651</ele>
        <time>2023-07-29T17:46:36.000Z</time>
        <extensions>
          <ns3:TrackPointExtension>
            <ns3:hr>99</ns3:hr>
            <ns3:cad>0</ns3:cad>
          </ns3:TrackPointExtension>
        </extensions>
      </trkpt>
      <trkpt lat="37.76108843274414539337158203125" lon="-107.70670331083238124847412109375">
        <ele>3651</ele>
        <time>2023-07-29T17:46:37.000Z</time>
        <extensions>
          <ns3:TrackPointExtension>
            <ns3:hr>99</ns3:hr>
            <ns3:cad>0</ns3:cad>
          </ns3:TrackPointExtension>
        </extensions>
      </trkpt>
      <trkpt lat="37.7610893547534942626953125" lon="-107.70670800469815731048583984375">
        <ele>3651</ele>
        <time>2023-07-29T17:46:38.000Z</time>
        <extensions>
          <ns3:TrackPointExtension>
            <ns3:hr>99</ns3:hr>
            <ns3:cad>0</ns3:cad>
          </ns3:TrackPointExtension>
        </extensions>
      </trkpt>
      <trkpt lat="37.76108960621058940887451171875" lon="-107.70671211183071136474609375">
        <ele>3651</ele>
        <time>2023-07-29T17:46:39.000Z</time>
        <extensions>
          <ns3:TrackPointExtension>
            <ns3:hr>99</ns3:hr>
            <ns3:cad>0</ns3:cad>
          </ns3:TrackPointExtension>
        </extensions>
      </trkpt>
      <trkpt lat="37.76108524762094020843505859375" lon="-107.70671253092586994171142578125">
        <ele>3651</ele>
        <time>2023-07-29T17:46:40.000Z</time>
        <extensions>
          <ns3:TrackPointExtension>
            <ns3:hr>99</ns3:hr>
            <ns3:cad>0</ns3:cad>
          </ns3:TrackPointExtension>
        </extensions>
      </trkpt>
      <trkpt lat="37.7610824815928936004638671875" lon="-107.706713117659091949462890625">
        <ele>3651</ele>
        <time>2023-07-29T17:46:41.000Z</time>
        <extensions>
          <ns3:TrackPointExtension>
            <ns3:hr>99</ns3:hr>
            <ns3:cad>0</ns3:cad>
          </ns3:TrackPointExtension>
        </extensions>
      </trkpt>
      <trkpt lat="37.76107485406100749969482421875" lon="-107.70671336911618709564208984375">
        <ele>3651.199951171875</ele>
        <time>2023-07-29T17:46:42.000Z</time>
        <extensions>
          <ns3:TrackPointExtension>
            <ns3:hr>99</ns3:hr>
            <ns3:cad>0</ns3:cad>
          </ns3:TrackPointExtension>
        </extensions>
      </trkpt>
      <trkpt lat="37.76106990873813629150390625" lon="-107.7067106030881404876708984375">
        <ele>3651.199951171875</ele>
        <time>2023-07-29T17:46:43.000Z</time>
        <extensions>
          <ns3:TrackPointExtension>
            <ns3:hr>99</ns3:hr>
            <ns3:cad>0</ns3:cad>
          </ns3:TrackPointExtension>
        </extensions>
      </trkpt>
      <trkpt lat="37.76106295175850391387939453125" lon="-107.706705071032047271728515625">
        <ele>3651.199951171875</ele>
        <time>2023-07-29T17:46:44.000Z</time>
        <extensions>
          <ns3:TrackPointExtension>
            <ns3:hr>99</ns3:hr>
            <ns3:cad>0</ns3:cad>
          </ns3:TrackPointExtension>
        </extensions>
      </trkpt>
      <trkpt lat="37.76105658151209354400634765625" lon="-107.70669735968112945556640625">
        <ele>3651.199951171875</ele>
        <time>2023-07-29T17:46:45.000Z</time>
        <extensions>
          <ns3:TrackPointExtension>
            <ns3:hr>99</ns3:hr>
            <ns3:cad>0</ns3:cad>
          </ns3:TrackPointExtension>
        </extensions>
      </trkpt>
      <trkpt lat="37.761056832969188690185546875" lon="-107.70669023506343364715576171875">
        <ele>3651</ele>
        <time>2023-07-29T17:46:46.000Z</time>
        <extensions>
          <ns3:TrackPointExtension>
            <ns3:hr>99</ns3:hr>
            <ns3:cad>0</ns3:cad>
          </ns3:TrackPointExtension>
        </extensions>
      </trkpt>
      <trkpt lat="37.76105507276952266693115234375" lon="-107.70668453536927700042724609375">
        <ele>3650.800048828125</ele>
        <time>2023-07-29T17:46:47.000Z</time>
        <extensions>
          <ns3:TrackPointExtension>
            <ns3:hr>99</ns3:hr>
            <ns3:cad>0</ns3:cad>
          </ns3:TrackPointExtension>
        </extensions>
      </trkpt>
      <trkpt lat="37.76104652322828769683837890625" lon="-107.706682272255420684814453125">
        <ele>3650.60009765625</ele>
        <time>2023-07-29T17:46:48.000Z</time>
        <extensions>
          <ns3:TrackPointExtension>
            <ns3:hr>99</ns3:hr>
            <ns3:cad>0</ns3:cad>
          </ns3:TrackPointExtension>
        </extensions>
      </trkpt>
      <trkpt lat="37.7610509656369686126708984375" lon="-107.70669107325375080108642578125">
        <ele>3650.39990234375</ele>
        <time>2023-07-29T17:46:49.000Z</time>
        <extensions>
          <ns3:TrackPointExtension>
            <ns3:hr>99</ns3:hr>
            <ns3:cad>0</ns3:cad>
          </ns3:TrackPointExtension>
        </extensions>
      </trkpt>
      <trkpt lat="37.76105440221726894378662109375" lon="-107.706695012748241424560546875">
        <ele>3650.199951171875</ele>
        <time>2023-07-29T17:46:50.000Z</time>
        <extensions>
          <ns3:TrackPointExtension>
            <ns3:hr>99</ns3:hr>
            <ns3:cad>0</ns3:cad>
          </ns3:TrackPointExtension>
        </extensions>
      </trkpt>
      <trkpt lat="37.76105649769306182861328125" lon="-107.70669694058597087860107421875">
        <ele>3650.199951171875</ele>
        <time>2023-07-29T17:46:51.000Z</time>
        <extensions>
          <ns3:TrackPointExtension>
            <ns3:hr>99</ns3:hr>
            <ns3:cad>0</ns3:cad>
          </ns3:TrackPointExtension>
        </extensions>
      </trkpt>
      <trkpt lat="37.7610623650252819061279296875" lon="-107.7067033946514129638671875">
        <ele>3649.800048828125</ele>
        <time>2023-07-29T17:46:52.000Z</time>
        <extensions>
          <ns3:TrackPointExtension>
            <ns3:hr>99</ns3:hr>
            <ns3:cad>0</ns3:cad>
          </ns3:TrackPointExtension>
        </extensions>
      </trkpt>
      <trkpt lat="37.76106320321559906005859375" lon="-107.70670398138463497161865234375">
        <ele>3649.60009765625</ele>
        <time>2023-07-29T17:46:53.000Z</time>
        <extensions>
          <ns3:TrackPointExtension>
            <ns3:hr>99</ns3:hr>
            <ns3:cad>0</ns3:cad>
          </ns3:TrackPointExtension>
        </extensions>
      </trkpt>
      <trkpt lat="37.7610620297491550445556640625" lon="-107.7067087590694427490234375">
        <ele>3649.39990234375</ele>
        <time>2023-07-29T17:46:54.000Z</time>
        <extensions>
          <ns3:TrackPointExtension>
            <ns3:hr>99</ns3:hr>
            <ns3:cad>0</ns3:cad>
          </ns3:TrackPointExtension>
        </extensions>
      </trkpt>
      <trkpt lat="37.76106161065399646759033203125" lon="-107.70671471022069454193115234375">
        <ele>3649</ele>
        <time>2023-07-29T17:46:55.000Z</time>
        <extensions>
          <ns3:TrackPointExtension>
            <ns3:hr>99</ns3:hr>
            <ns3:cad>0</ns3:cad>
          </ns3:TrackPointExtension>
        </extensions>
      </trkpt>
      <trkpt lat="37.76105515658855438232421875" lon="-107.70672895945608615875244140625">
        <ele>3649</ele>
        <time>2023-07-29T17:46:56.000Z</time>
        <extensions>
          <ns3:TrackPointExtension>
            <ns3:hr>99</ns3:hr>
            <ns3:cad>0</ns3:cad>
          </ns3:TrackPointExtension>
        </extensions>
      </trkpt>
      <trkpt lat="37.7610543183982372283935546875" lon="-107.70673834718763828277587890625">
        <ele>3648.60009765625</ele>
        <time>2023-07-29T17:46:57.000Z</time>
        <extensions>
          <ns3:TrackPointExtension>
            <ns3:hr>98</ns3:hr>
            <ns3:cad>0</ns3:cad>
          </ns3:TrackPointExtension>
        </extensions>
      </trkpt>
      <trkpt lat="37.761055491864681243896484375" lon="-107.70673952065408229827880859375">
        <ele>3648.39990234375</ele>
        <time>2023-07-29T17:46:58.000Z</time>
        <extensions>
          <ns3:TrackPointExtension>
            <ns3:hr>98</ns3:hr>
            <ns3:cad>0</ns3:cad>
          </ns3:TrackPointExtension>
        </extensions>
      </trkpt>
      <trkpt lat="37.76105691678822040557861328125" lon="-107.7067404426634311676025390625">
        <ele>3648.199951171875</ele>
        <time>2023-07-29T17:46:59.000Z</time>
        <extensions>
          <ns3:TrackPointExtension>
            <ns3:hr>97</ns3:hr>
            <ns3:cad>0</ns3:cad>
          </ns3:TrackPointExtension>
        </extensions>
      </trkpt>
      <trkpt lat="37.76105591095983982086181640625" lon="-107.70674186758697032928466796875">
        <ele>3648.199951171875</ele>
        <time>2023-07-29T17:47:00.000Z</time>
        <extensions>
          <ns3:TrackPointExtension>
            <ns3:hr>97</ns3:hr>
            <ns3:cad>0</ns3:cad>
          </ns3:TrackPointExtension>
        </extensions>
      </trkpt>
      <trkpt lat="37.76105473749339580535888671875" lon="-107.70674019120633602142333984375">
        <ele>3648.199951171875</ele>
        <time>2023-07-29T17:47:01.000Z</time>
        <extensions>
          <ns3:TrackPointExtension>
            <ns3:hr>96</ns3:hr>
            <ns3:cad>0</ns3:cad>
          </ns3:TrackPointExtension>
        </extensions>
      </trkpt>
      <trkpt lat="37.7610523067414760589599609375" lon="-107.70673717372119426727294921875">
        <ele>3648</ele>
        <time>2023-07-29T17:47:02.000Z</time>
        <extensions>
          <ns3:TrackPointExtension>
            <ns3:hr>96</ns3:hr>
            <ns3:cad>0</ns3:cad>
          </ns3:TrackPointExtension>
        </extensions>
      </trkpt>
      <trkpt lat="37.7610519714653491973876953125" lon="-107.70673147402703762054443359375">
        <ele>3648</ele>
        <time>2023-07-29T17:47:03.000Z</time>
        <extensions>
          <ns3:TrackPointExtension>
            <ns3:hr>95</ns3:hr>
            <ns3:cad>0</ns3:cad>
          </ns3:TrackPointExtension>
        </extensions>
      </trkpt>
      <trkpt lat="37.7610479481518268585205078125" lon="-107.70672610960900783538818359375">
        <ele>3647.800048828125</ele>
        <time>2023-07-29T17:47:04.000Z</time>
        <extensions>
          <ns3:TrackPointExtension>
            <ns3:hr>95</ns3:hr>
            <ns3:cad>0</ns3:cad>
          </ns3:TrackPointExtension>
        </extensions>
      </trkpt>
      <trkpt lat="37.76104568503797054290771484375" lon="-107.70671990700066089630126953125">
        <ele>3647.800048828125</ele>
        <time>2023-07-29T17:47:05.000Z</time>
        <extensions>
          <ns3:TrackPointExtension>
            <ns3:hr>95</ns3:hr>
            <ns3:cad>0</ns3:cad>
          </ns3:TrackPointExtension>
        </extensions>
      </trkpt>
      <trkpt lat="37.7610466070473194122314453125" lon="-107.70671923644840717315673828125">
        <ele>3647.800048828125</ele>
        <time>2023-07-29T17:47:06.000Z</time>
        <extensions>
          <ns3:TrackPointExtension>
            <ns3:hr>95</ns3:hr>
            <ns3:cad>0</ns3:cad>
          </ns3:TrackPointExtension>
        </extensions>
      </trkpt>
      <trkpt lat="37.7610445953905582427978515625" lon="-107.70672057755291461944580078125">
        <ele>3647.800048828125</ele>
        <time>2023-07-29T17:47:07.000Z</time>
        <extensions>
          <ns3:TrackPointExtension>
            <ns3:hr>95</ns3:hr>
            <ns3:cad>0</ns3:cad>
          </ns3:TrackPointExtension>
        </extensions>
      </trkpt>
      <trkpt lat="37.76103780604898929595947265625" lon="-107.70672443322837352752685546875">
        <ele>3647.800048828125</ele>
        <time>2023-07-29T17:47:08.000Z</time>
        <extensions>
          <ns3:TrackPointExtension>
            <ns3:hr>95</ns3:hr>
            <ns3:cad>0</ns3:cad>
          </ns3:TrackPointExtension>
        </extensions>
      </trkpt>
      <trkpt lat="37.761030681431293487548828125" lon="-107.70672979764640331268310546875">
        <ele>3647.800048828125</ele>
        <time>2023-07-29T17:47:09.000Z</time>
        <extensions>
          <ns3:TrackPointExtension>
            <ns3:hr>94</ns3:hr>
            <ns3:cad>0</ns3:cad>
          </ns3:TrackPointExtension>
        </extensions>
      </trkpt>
      <trkpt lat="37.7610201202332973480224609375" lon="-107.7067354135215282440185546875">
        <ele>3647.60009765625</ele>
        <time>2023-07-29T17:47:10.000Z</time>
        <extensions>
          <ns3:TrackPointExtension>
            <ns3:hr>94</ns3:hr>
            <ns3:cad>0</ns3:cad>
          </ns3:TrackPointExtension>
        </extensions>
      </trkpt>
      <trkpt lat="37.76100293733179569244384765625" lon="-107.70673432387411594390869140625">
        <ele>3647.60009765625</ele>
        <time>2023-07-29T17:47:11.000Z</time>
        <extensions>
          <ns3:TrackPointExtension>
            <ns3:hr>93</ns3:hr>
            <ns3:cad>0</ns3:cad>
          </ns3:TrackPointExtension>
        </extensions>
      </trkpt>
      <trkpt lat="37.760997153818607330322265625" lon="-107.70673214457929134368896484375">
        <ele>3647.60009765625</ele>
        <time>2023-07-29T17:47:12.000Z</time>
        <extensions>
          <ns3:TrackPointExtension>
            <ns3:hr>90</ns3:hr>
            <ns3:cad>0</ns3:cad>
          </ns3:TrackPointExtension>
        </extensions>
      </trkpt>
      <trkpt lat="37.76099539361894130706787109375" lon="-107.70673491060733795166015625">
        <ele>3647.60009765625</ele>
        <time>2023-07-29T17:47:13.000Z</time>
        <extensions>
          <ns3:TrackPointExtension>
            <ns3:hr>87</ns3:hr>
            <ns3:cad>0</ns3:cad>
          </ns3:TrackPointExtension>
        </extensions>
      </trkpt>
      <trkpt lat="37.76098852045834064483642578125" lon="-107.70674186758697032928466796875">
        <ele>3647.39990234375</ele>
        <time>2023-07-29T17:47:14.000Z</time>
        <extensions>
          <ns3:TrackPointExtension>
            <ns3:hr>84</ns3:hr>
            <ns3:cad>0</ns3:cad>
          </ns3:TrackPointExtension>
        </extensions>
      </trkpt>
      <trkpt lat="37.76098030619323253631591796875" lon="-107.70674857310950756072998046875">
        <ele>3647.39990234375</ele>
        <time>2023-07-29T17:47:15.000Z</time>
        <extensions>
          <ns3:TrackPointExtension>
            <ns3:hr>84</ns3:hr>
            <ns3:cad>0</ns3:cad>
          </ns3:TrackPointExtension>
        </extensions>
      </trkpt>
      <trkpt lat="37.76098349131643772125244140625" lon="-107.70675343461334705352783203125">
        <ele>3647.39990234375</ele>
        <time>2023-07-29T17:47:16.000Z</time>
        <extensions>
          <ns3:TrackPointExtension>
            <ns3:hr>83</ns3:hr>
            <ns3:cad>0</ns3:cad>
          </ns3:TrackPointExtension>
        </extensions>
      </trkpt>
      <trkpt lat="37.7609835751354694366455078125" lon="-107.70675729028880596160888671875">
        <ele>3647.39990234375</ele>
        <time>2023-07-29T17:47:17.000Z</time>
        <extensions>
          <ns3:TrackPointExtension>
            <ns3:hr>83</ns3:hr>
            <ns3:cad>0</ns3:cad>
          </ns3:TrackPointExtension>
        </extensions>
      </trkpt>
      <trkpt lat="37.76098634116351604461669921875" lon="-107.70676014013588428497314453125">
        <ele>3647.60009765625</ele>
        <time>2023-07-29T17:47:18.000Z</time>
        <extensions>
          <ns3:TrackPointExtension>
            <ns3:hr>84</ns3:hr>
            <ns3:cad>0</ns3:cad>
          </ns3:TrackPointExtension>
        </extensions>
      </trkpt>
      <trkpt lat="37.76099019683897495269775390625" lon="-107.70675905048847198486328125">
        <ele>3647.60009765625</ele>
        <time>2023-07-29T17:47:19.000Z</time>
        <extensions>
          <ns3:TrackPointExtension>
            <ns3:hr>83</ns3:hr>
            <ns3:cad>0</ns3:cad>
          </ns3:TrackPointExtension>
        </extensions>
      </trkpt>
      <trkpt lat="37.76099623180925846099853515625" lon="-107.706757374107837677001953125">
        <ele>3647.60009765625</ele>
        <time>2023-07-29T17:47:20.000Z</time>
        <extensions>
          <ns3:TrackPointExtension>
            <ns3:hr>83</ns3:hr>
            <ns3:cad>0</ns3:cad>
          </ns3:TrackPointExtension>
        </extensions>
      </trkpt>
      <trkpt lat="37.76100176386535167694091796875" lon="-107.706749998033046722412109375">
        <ele>3647.60009765625</ele>
        <time>2023-07-29T17:47:21.000Z</time>
        <extensions>
          <ns3:TrackPointExtension>
            <ns3:hr>83</ns3:hr>
            <ns3:cad>0</ns3:cad>
          </ns3:TrackPointExtension>
        </extensions>
      </trkpt>
      <trkpt lat="37.76100796647369861602783203125" lon="-107.7067515067756175994873046875">
        <ele>3647.60009765625</ele>
        <time>2023-07-29T17:47:22.000Z</time>
        <extensions>
          <ns3:TrackPointExtension>
            <ns3:hr>84</ns3:hr>
            <ns3:cad>0</ns3:cad>
          </ns3:TrackPointExtension>
        </extensions>
      </trkpt>
      <trkpt lat="37.76101266033947467803955078125" lon="-107.7067515067756175994873046875">
        <ele>3647.39990234375</ele>
        <time>2023-07-29T17:47:23.000Z</time>
        <extensions>
          <ns3:TrackPointExtension>
            <ns3:hr>84</ns3:hr>
            <ns3:cad>0</ns3:cad>
          </ns3:TrackPointExtension>
        </extensions>
      </trkpt>
      <trkpt lat="37.76101534254848957061767578125" lon="-107.70675477571785449981689453125">
        <ele>3647.39990234375</ele>
        <time>2023-07-29T17:47:24.000Z</time>
        <extensions>
          <ns3:TrackPointExtension>
            <ns3:hr>84</ns3:hr>
            <ns3:cad>0</ns3:cad>
          </ns3:TrackPointExtension>
        </extensions>
      </trkpt>
      <trkpt lat="37.76101903058588504791259765625" lon="-107.7067565359175205230712890625">
        <ele>3647.199951171875</ele>
        <time>2023-07-29T17:47:25.000Z</time>
        <extensions>
          <ns3:TrackPointExtension>
            <ns3:hr>85</ns3:hr>
            <ns3:cad>0</ns3:cad>
          </ns3:TrackPointExtension>
        </extensions>
      </trkpt>
      <trkpt lat="37.76102070696651935577392578125" lon="-107.7067565359175205230712890625">
        <ele>3647.199951171875</ele>
        <time>2023-07-29T17:47:26.000Z</time>
        <extensions>
          <ns3:TrackPointExtension>
            <ns3:hr>86</ns3:hr>
            <ns3:cad>0</ns3:cad>
          </ns3:TrackPointExtension>
        </extensions>
      </trkpt>
      <trkpt lat="37.76101768948137760162353515625" lon="-107.70675376988947391510009765625">
        <ele>3647.199951171875</ele>
        <time>2023-07-29T17:47:27.000Z</time>
        <extensions>
          <ns3:TrackPointExtension>
            <ns3:hr>88</ns3:hr>
            <ns3:cad>0</ns3:cad>
          </ns3:TrackPointExtension>
        </extensions>
      </trkpt>
      <trkpt lat="37.761021293699741363525390625" lon="-107.7067521773278713226318359375">
        <ele>3647.199951171875</ele>
        <time>2023-07-29T17:47:28.000Z</time>
        <extensions>
          <ns3:TrackPointExtension>
            <ns3:hr>93</ns3:hr>
            <ns3:cad>0</ns3:cad>
          </ns3:TrackPointExtension>
        </extensions>
      </trkpt>
      <trkpt lat="37.76103026233613491058349609375" lon="-107.70675259642302989959716796875">
        <ele>3647.199951171875</ele>
        <time>2023-07-29T17:47:29.000Z</time>
        <extensions>
          <ns3:TrackPointExtension>
            <ns3:hr>94</ns3:hr>
            <ns3:cad>0</ns3:cad>
          </ns3:TrackPointExtension>
        </extensions>
      </trkpt>
      <trkpt lat="37.761036045849323272705078125" lon="-107.7067535184323787689208984375">
        <ele>3647.199951171875</ele>
        <time>2023-07-29T17:47:30.000Z</time>
        <extensions>
          <ns3:TrackPointExtension>
            <ns3:hr>94</ns3:hr>
            <ns3:cad>0</ns3:cad>
          </ns3:TrackPointExtension>
        </extensions>
      </trkpt>
      <trkpt lat="37.76103830896317958831787109375" lon="-107.70675745792686939239501953125">
        <ele>3647</ele>
        <time>2023-07-29T17:47:31.000Z</time>
        <extensions>
          <ns3:TrackPointExtension>
            <ns3:hr>93</ns3:hr>
            <ns3:cad>0</ns3:cad>
          </ns3:TrackPointExtension>
        </extensions>
      </trkpt>
      <trkpt lat="37.7610392309725284576416015625" lon="-107.70676097832620143890380859375">
        <ele>3647</ele>
        <time>2023-07-29T17:47:32.000Z</time>
        <extensions>
          <ns3:TrackPointExtension>
            <ns3:hr>93</ns3:hr>
            <ns3:cad>0</ns3:cad>
          </ns3:TrackPointExtension>
        </extensions>
      </trkpt>
      <trkpt lat="37.76104040443897247314453125" lon="-107.70676466636359691619873046875">
        <ele>3647</ele>
        <time>2023-07-29T17:47:33.000Z</time>
        <extensions>
          <ns3:TrackPointExtension>
            <ns3:hr>93</ns3:hr>
            <ns3:cad>0</ns3:cad>
          </ns3:TrackPointExtension>
        </extensions>
      </trkpt>
      <trkpt lat="37.76104308664798736572265625" lon="-107.7067662589251995086669921875">
        <ele>3647</ele>
        <time>2023-07-29T17:47:34.000Z</time>
        <extensions>
          <ns3:TrackPointExtension>
            <ns3:hr>93</ns3:hr>
            <ns3:cad>0</ns3:cad>
          </ns3:TrackPointExtension>
        </extensions>
      </trkpt>
      <trkpt lat="37.7610452659428119659423828125" lon="-107.70676298998296260833740234375">
        <ele>3647</ele>
        <time>2023-07-29T17:47:35.000Z</time>
        <extensions>
          <ns3:TrackPointExtension>
            <ns3:hr>93</ns3:hr>
            <ns3:cad>0</ns3:cad>
          </ns3:TrackPointExtension>
        </extensions>
      </trkpt>
      <trkpt lat="37.76104752905666828155517578125" lon="-107.70676097832620143890380859375">
        <ele>3647</ele>
        <time>2023-07-29T17:47:36.000Z</time>
        <extensions>
          <ns3:TrackPointExtension>
            <ns3:hr>93</ns3:hr>
            <ns3:cad>0</ns3:cad>
          </ns3:TrackPointExtension>
        </extensions>
      </trkpt>
      <trkpt lat="37.7610419131815433502197265625" lon="-107.7067562006413936614990234375">
        <ele>3647</ele>
        <time>2023-07-29T17:47:37.000Z</time>
        <extensions>
          <ns3:TrackPointExtension>
            <ns3:hr>93</ns3:hr>
            <ns3:cad>0</ns3:cad>
          </ns3:TrackPointExtension>
        </extensions>
      </trkpt>
      <trkpt lat="37.7610372193157672882080078125" lon="-107.70675008185207843780517578125">
        <ele>3647</ele>
        <time>2023-07-29T17:47:38.000Z</time>
        <extensions>
          <ns3:TrackPointExtension>
            <ns3:hr>93</ns3:hr>
            <ns3:cad>0</ns3:cad>
          </ns3:TrackPointExtension>
        </extensions>
      </trkpt>
      <trkpt lat="37.76103260926902294158935546875" lon="-107.7067454718053340911865234375">
        <ele>3647</ele>
        <time>2023-07-29T17:47:39.000Z</time>
        <extensions>
          <ns3:TrackPointExtension>
            <ns3:hr>93</ns3:hr>
            <ns3:cad>0</ns3:cad>
          </ns3:TrackPointExtension>
        </extensions>
      </trkpt>
      <trkpt lat="37.76102456264197826385498046875" lon="-107.70673625171184539794921875">
        <ele>3647</ele>
        <time>2023-07-29T17:47:40.000Z</time>
        <extensions>
          <ns3:TrackPointExtension>
            <ns3:hr>93</ns3:hr>
            <ns3:cad>0</ns3:cad>
          </ns3:TrackPointExtension>
        </extensions>
      </trkpt>
      <trkpt lat="37.76102053932845592498779296875" lon="-107.70672946237027645111083984375">
        <ele>3647</ele>
        <time>2023-07-29T17:47:41.000Z</time>
        <extensions>
          <ns3:TrackPointExtension>
            <ns3:hr>93</ns3:hr>
            <ns3:cad>0</ns3:cad>
          </ns3:TrackPointExtension>
        </extensions>
      </trkpt>
      <trkpt lat="37.76101953350007534027099609375" lon="-107.70672510378062725067138671875">
        <ele>3647</ele>
        <time>2023-07-29T17:47:42.000Z</time>
        <extensions>
          <ns3:TrackPointExtension>
            <ns3:hr>93</ns3:hr>
            <ns3:cad>0</ns3:cad>
          </ns3:TrackPointExtension>
        </extensions>
      </trkpt>
      <trkpt lat="37.76101869530975818634033203125" lon="-107.7067223377525806427001953125">
        <ele>3647</ele>
        <time>2023-07-29T17:47:43.000Z</time>
        <extensions>
          <ns3:TrackPointExtension>
            <ns3:hr>93</ns3:hr>
            <ns3:cad>0</ns3:cad>
          </ns3:TrackPointExtension>
        </extensions>
      </trkpt>
      <trkpt lat="37.7610181085765361785888671875" lon="-107.70671990700066089630126953125">
        <ele>3647</ele>
        <time>2023-07-29T17:47:44.000Z</time>
        <extensions>
          <ns3:TrackPointExtension>
            <ns3:hr>93</ns3:hr>
            <ns3:cad>0</ns3:cad>
          </ns3:TrackPointExtension>
        </extensions>
      </trkpt>
      <trkpt lat="37.76101802475750446319580078125" lon="-107.70671739242970943450927734375">
        <ele>3647</ele>
        <time>2023-07-29T17:47:45.000Z</time>
        <extensions>
          <ns3:TrackPointExtension>
            <ns3:hr>92</ns3:hr>
            <ns3:cad>0</ns3:cad>
          </ns3:TrackPointExtension>
        </extensions>
      </trkpt>
      <trkpt lat="37.76102020405232906341552734375" lon="-107.70671655423939228057861328125">
        <ele>3647</ele>
        <time>2023-07-29T17:47:46.000Z</time>
        <extensions>
          <ns3:TrackPointExtension>
            <ns3:hr>93</ns3:hr>
            <ns3:cad>0</ns3:cad>
          </ns3:TrackPointExtension>
        </extensions>
      </trkpt>
      <trkpt lat="37.76102171279489994049072265625" lon="-107.7067152969539165496826171875">
        <ele>3647</ele>
        <time>2023-07-29T17:47:47.000Z</time>
        <extensions>
          <ns3:TrackPointExtension>
            <ns3:hr>93</ns3:hr>
            <ns3:cad>0</ns3:cad>
          </ns3:TrackPointExtension>
        </extensions>
      </trkpt>
      <trkpt lat="37.76102120988070964813232421875" lon="-107.70671219564974308013916015625">
        <ele>3647</ele>
        <time>2023-07-29T17:47:48.000Z</time>
        <extensions>
          <ns3:TrackPointExtension>
            <ns3:hr>94</ns3:hr>
            <ns3:cad>0</ns3:cad>
          </ns3:TrackPointExtension>
        </extensions>
      </trkpt>
      <trkpt lat="37.76102590374648571014404296875" lon="-107.7067092619836330413818359375">
        <ele>3647</ele>
        <time>2023-07-29T17:47:49.000Z</time>
        <extensions>
          <ns3:TrackPointExtension>
            <ns3:hr>96</ns3:hr>
            <ns3:cad>0</ns3:cad>
          </ns3:TrackPointExtension>
        </extensions>
      </trkpt>
      <trkpt lat="37.76103344745934009552001953125" lon="-107.70671219564974308013916015625">
        <ele>3647.199951171875</ele>
        <time>2023-07-29T17:47:50.000Z</time>
        <extensions>
          <ns3:TrackPointExtension>
            <ns3:hr>97</ns3:hr>
            <ns3:cad>0</ns3:cad>
          </ns3:TrackPointExtension>
        </extensions>
      </trkpt>
      <trkpt lat="37.7610410749912261962890625" lon="-107.7067116089165210723876953125">
        <ele>3647.199951171875</ele>
        <time>2023-07-29T17:47:51.000Z</time>
        <extensions>
          <ns3:TrackPointExtension>
            <ns3:hr>97</ns3:hr>
            <ns3:cad>0</ns3:cad>
          </ns3:TrackPointExtension>
        </extensions>
      </trkpt>
      <trkpt lat="37.76104568503797054290771484375" lon="-107.706707082688808441162109375">
        <ele>3647.199951171875</ele>
        <time>2023-07-29T17:47:52.000Z</time>
        <extensions>
          <ns3:TrackPointExtension>
            <ns3:hr>97</ns3:hr>
            <ns3:cad>0</ns3:cad>
          </ns3:TrackPointExtension>
        </extensions>
      </trkpt>
      <trkpt lat="37.76105021126568317413330078125" lon="-107.70670632831752300262451171875">
        <ele>3647.199951171875</ele>
        <time>2023-07-29T17:47:53.000Z</time>
        <extensions>
          <ns3:TrackPointExtension>
            <ns3:hr>98</ns3:hr>
            <ns3:cad>0</ns3:cad>
          </ns3:TrackPointExtension>
        </extensions>
      </trkpt>
      <trkpt lat="37.7610529772937297821044921875" lon="-107.70670230500400066375732421875">
        <ele>3647.199951171875</ele>
        <time>2023-07-29T17:47:54.000Z</time>
        <extensions>
          <ns3:TrackPointExtension>
            <ns3:hr>98</ns3:hr>
            <ns3:cad>0</ns3:cad>
          </ns3:TrackPointExtension>
        </extensions>
      </trkpt>
      <trkpt lat="37.7610571682453155517578125" lon="-107.706699036061763763427734375">
        <ele>3647.199951171875</ele>
        <time>2023-07-29T17:47:55.000Z</time>
        <extensions>
          <ns3:TrackPointExtension>
            <ns3:hr>98</ns3:hr>
            <ns3:cad>0</ns3:cad>
          </ns3:TrackPointExtension>
        </extensions>
      </trkpt>
      <trkpt lat="37.76105356402695178985595703125" lon="-107.70669526420533657073974609375">
        <ele>3647.199951171875</ele>
        <time>2023-07-29T17:47:56.000Z</time>
        <extensions>
          <ns3:TrackPointExtension>
            <ns3:hr>98</ns3:hr>
            <ns3:cad>0</ns3:cad>
          </ns3:TrackPointExtension>
        </extensions>
      </trkpt>
      <trkpt lat="37.761050127446651458740234375" lon="-107.70669492892920970916748046875">
        <ele>3647.199951171875</ele>
        <time>2023-07-29T17:47:57.000Z</time>
        <extensions>
          <ns3:TrackPointExtension>
            <ns3:hr>98</ns3:hr>
            <ns3:cad>0</ns3:cad>
          </ns3:TrackPointExtension>
        </extensions>
      </trkpt>
      <trkpt lat="37.7610492892563343048095703125" lon="-107.70669526420533657073974609375">
        <ele>3647.199951171875</ele>
        <time>2023-07-29T17:47:58.000Z</time>
        <extensions>
          <ns3:TrackPointExtension>
            <ns3:hr>98</ns3:hr>
            <ns3:cad>0</ns3:cad>
          </ns3:TrackPointExtension>
        </extensions>
      </trkpt>
      <trkpt lat="37.76104551739990711212158203125" lon="-107.706696353852748870849609375">
        <ele>3647.199951171875</ele>
        <time>2023-07-29T17:47:59.000Z</time>
        <extensions>
          <ns3:TrackPointExtension>
            <ns3:hr>98</ns3:hr>
            <ns3:cad>0</ns3:cad>
          </ns3:TrackPointExtension>
        </extensions>
      </trkpt>
      <trkpt lat="37.76104308664798736572265625" lon="-107.7066978625953197479248046875">
        <ele>3647.199951171875</ele>
        <time>2023-07-29T17:48:00.000Z</time>
        <extensions>
          <ns3:TrackPointExtension>
            <ns3:hr>99</ns3:hr>
            <ns3:cad>0</ns3:cad>
          </ns3:TrackPointExtension>
        </extensions>
      </trkpt>
      <trkpt lat="37.76104166172444820404052734375" lon="-107.7067065797746181488037109375">
        <ele>3647.199951171875</ele>
        <time>2023-07-29T17:48:01.000Z</time>
        <extensions>
          <ns3:TrackPointExtension>
            <ns3:hr>98</ns3:hr>
            <ns3:cad>0</ns3:cad>
          </ns3:TrackPointExtension>
        </extensions>
      </trkpt>
      <trkpt lat="37.761040739715099334716796875" lon="-107.70670699886977672576904296875">
        <ele>3647.199951171875</ele>
        <time>2023-07-29T17:48:02.000Z</time>
        <extensions>
          <ns3:TrackPointExtension>
            <ns3:hr>98</ns3:hr>
            <ns3:cad>0</ns3:cad>
          </ns3:TrackPointExtension>
        </extensions>
      </trkpt>
      <trkpt lat="37.76104442775249481201171875" lon="-107.7067141234874725341796875">
        <ele>3647.199951171875</ele>
        <time>2023-07-29T17:48:03.000Z</time>
        <extensions>
          <ns3:TrackPointExtension>
            <ns3:hr>97</ns3:hr>
            <ns3:cad>0</ns3:cad>
          </ns3:TrackPointExtension>
        </extensions>
      </trkpt>
      <trkpt lat="37.76104602031409740447998046875" lon="-107.7067186497151851654052734375">
        <ele>3647.199951171875</ele>
        <time>2023-07-29T17:48:04.000Z</time>
        <extensions>
          <ns3:TrackPointExtension>
            <ns3:hr>100</ns3:hr>
            <ns3:cad>0</ns3:cad>
          </ns3:TrackPointExtension>
        </extensions>
      </trkpt>
      <trkpt lat="37.7610469423234462738037109375" lon="-107.70672476850450038909912109375">
        <ele>3647.199951171875</ele>
        <time>2023-07-29T17:48:05.000Z</time>
        <extensions>
          <ns3:TrackPointExtension>
            <ns3:hr>103</ns3:hr>
            <ns3:cad>0</ns3:cad>
          </ns3:TrackPointExtension>
        </extensions>
      </trkpt>
      <trkpt lat="37.7610466070473194122314453125" lon="-107.70672820508480072021484375">
        <ele>3647.39990234375</ele>
        <time>2023-07-29T17:48:06.000Z</time>
        <extensions>
          <ns3:TrackPointExtension>
            <ns3:hr>102</ns3:hr>
            <ns3:cad>0</ns3:cad>
          </ns3:TrackPointExtension>
        </extensions>
      </trkpt>
      <trkpt lat="37.761046104133129119873046875" lon="-107.7067323960363864898681640625">
        <ele>3647.39990234375</ele>
        <time>2023-07-29T17:48:07.000Z</time>
        <extensions>
          <ns3:TrackPointExtension>
            <ns3:hr>102</ns3:hr>
            <ns3:cad>0</ns3:cad>
          </ns3:TrackPointExtension>
        </extensions>
      </trkpt>
      <trkpt lat="37.76104979217052459716796875" lon="-107.706735916435718536376953125">
        <ele>3647.60009765625</ele>
        <time>2023-07-29T17:48:08.000Z</time>
        <extensions>
          <ns3:TrackPointExtension>
            <ns3:hr>102</ns3:hr>
            <ns3:cad>0</ns3:cad>
          </ns3:TrackPointExtension>
        </extensions>
      </trkpt>
      <trkpt lat="37.76104149408638477325439453125" lon="-107.70674086175858974456787109375">
        <ele>3647.60009765625</ele>
        <time>2023-07-29T17:48:09.000Z</time>
        <extensions>
          <ns3:TrackPointExtension>
            <ns3:hr>102</ns3:hr>
            <ns3:cad>0</ns3:cad>
          </ns3:TrackPointExtension>
        </extensions>
      </trkpt>
      <trkpt lat="37.76103579439222812652587890625" lon="-107.7067441307008266448974609375">
        <ele>3647.60009765625</ele>
        <time>2023-07-29T17:48:10.000Z</time>
        <extensions>
          <ns3:TrackPointExtension>
            <ns3:hr>102</ns3:hr>
            <ns3:cad>0</ns3:cad>
          </ns3:TrackPointExtension>
        </extensions>
      </trkpt>
      <trkpt lat="37.7610311843454837799072265625" lon="-107.7067444659769535064697265625">
        <ele>3647.60009765625</ele>
        <time>2023-07-29T17:48:11.000Z</time>
        <extensions>
          <ns3:TrackPointExtension>
            <ns3:hr>102</ns3:hr>
            <ns3:cad>0</ns3:cad>
          </ns3:TrackPointExtension>
        </extensions>
      </trkpt>
      <trkpt lat="37.76103009469807147979736328125" lon="-107.70674102939665317535400390625">
        <ele>3647.800048828125</ele>
        <time>2023-07-29T17:48:12.000Z</time>
        <extensions>
          <ns3:TrackPointExtension>
            <ns3:hr>101</ns3:hr>
            <ns3:cad>0</ns3:cad>
          </ns3:TrackPointExtension>
        </extensions>
      </trkpt>
      <trkpt lat="37.7610271610319614410400390625" lon="-107.70673717372119426727294921875">
        <ele>3648.199951171875</ele>
        <time>2023-07-29T17:48:13.000Z</time>
        <extensions>
          <ns3:TrackPointExtension>
            <ns3:hr>101</ns3:hr>
            <ns3:cad>0</ns3:cad>
          </ns3:TrackPointExtension>
        </extensions>
      </trkpt>
      <trkpt lat="37.76102422736585140228271484375" lon="-107.70673549734055995941162109375">
        <ele>3648.199951171875</ele>
        <time>2023-07-29T17:48:14.000Z</time>
        <extensions>
          <ns3:TrackPointExtension>
            <ns3:hr>101</ns3:hr>
            <ns3:cad>0</ns3:cad>
          </ns3:TrackPointExtension>
        </extensions>
      </trkpt>
      <trkpt lat="37.7610214613378047943115234375" lon="-107.70673222839832305908203125">
        <ele>3648.199951171875</ele>
        <time>2023-07-29T17:48:15.000Z</time>
        <extensions>
          <ns3:TrackPointExtension>
            <ns3:hr>101</ns3:hr>
            <ns3:cad>0</ns3:cad>
          </ns3:TrackPointExtension>
        </extensions>
      </trkpt>
      <trkpt lat="37.76101836003363132476806640625" lon="-107.70672946237027645111083984375">
        <ele>3648.199951171875</ele>
        <time>2023-07-29T17:48:16.000Z</time>
        <extensions>
          <ns3:TrackPointExtension>
            <ns3:hr>100</ns3:hr>
            <ns3:cad>0</ns3:cad>
          </ns3:TrackPointExtension>
        </extensions>
      </trkpt>
      <trkpt lat="37.7610174380242824554443359375" lon="-107.706729881465435028076171875">
        <ele>3648.199951171875</ele>
        <time>2023-07-29T17:48:17.000Z</time>
        <extensions>
          <ns3:TrackPointExtension>
            <ns3:hr>100</ns3:hr>
            <ns3:cad>0</ns3:cad>
          </ns3:TrackPointExtension>
        </extensions>
      </trkpt>
      <trkpt lat="37.76101852767169475555419921875" lon="-107.7067290432751178741455078125">
        <ele>3648.199951171875</ele>
        <time>2023-07-29T17:48:18.000Z</time>
        <extensions>
          <ns3:TrackPointExtension>
            <ns3:hr>99</ns3:hr>
            <ns3:cad>0</ns3:cad>
          </ns3:TrackPointExtension>
        </extensions>
      </trkpt>
      <trkpt lat="37.76102070696651935577392578125" lon="-107.70672359503805637359619140625">
        <ele>3648</ele>
        <time>2023-07-29T17:48:19.000Z</time>
        <extensions>
          <ns3:TrackPointExtension>
            <ns3:hr>99</ns3:hr>
            <ns3:cad>0</ns3:cad>
          </ns3:TrackPointExtension>
        </extensions>
      </trkpt>
      <trkpt lat="37.7610184438526630401611328125" lon="-107.7067270316183567047119140625">
        <ele>3648</ele>
        <time>2023-07-29T17:48:20.000Z</time>
        <extensions>
          <ns3:TrackPointExtension>
            <ns3:hr>99</ns3:hr>
            <ns3:cad>0</ns3:cad>
          </ns3:TrackPointExtension>
        </extensions>
      </trkpt>
      <trkpt lat="37.76101852767169475555419921875" lon="-107.7067236788570880889892578125">
        <ele>3648</ele>
        <time>2023-07-29T17:48:21.000Z</time>
        <extensions>
          <ns3:TrackPointExtension>
            <ns3:hr>98</ns3:hr>
            <ns3:cad>0</ns3:cad>
          </ns3:TrackPointExtension>
        </extensions>
      </trkpt>
      <trkpt lat="37.76101416908204555511474609375" lon="-107.7067189849913120269775390625">
        <ele>3648</ele>
        <time>2023-07-29T17:48:22.000Z</time>
        <extensions>
          <ns3:TrackPointExtension>
            <ns3:hr>98</ns3:hr>
            <ns3:cad>0</ns3:cad>
          </ns3:TrackPointExtension>
        </extensions>
      </trkpt>
      <trkpt lat="37.7610110677778720855712890625" lon="-107.70671102218329906463623046875">
        <ele>3648</ele>
        <time>2023-07-29T17:48:23.000Z</time>
        <extensions>
          <ns3:TrackPointExtension>
            <ns3:hr>98</ns3:hr>
            <ns3:cad>0</ns3:cad>
          </ns3:TrackPointExtension>
        </extensions>
      </trkpt>
      <trkpt lat="37.76100930757820606231689453125" lon="-107.706700377166271209716796875">
        <ele>3648</ele>
        <time>2023-07-29T17:48:24.000Z</time>
        <extensions>
          <ns3:TrackPointExtension>
            <ns3:hr>99</ns3:hr>
            <ns3:cad>0</ns3:cad>
          </ns3:TrackPointExtension>
        </extensions>
      </trkpt>
      <trkpt lat="37.7610088884830474853515625" lon="-107.70668755285441875457763671875">
        <ele>3648</ele>
        <time>2023-07-29T17:48:25.000Z</time>
        <extensions>
          <ns3:TrackPointExtension>
            <ns3:hr>98</ns3:hr>
            <ns3:cad>0</ns3:cad>
          </ns3:TrackPointExtension>
        </extensions>
      </trkpt>
      <trkpt lat="37.76101098395884037017822265625" lon="-107.7066794224083423614501953125">
        <ele>3647.800048828125</ele>
        <time>2023-07-29T17:48:26.000Z</time>
        <extensions>
          <ns3:TrackPointExtension>
            <ns3:hr>98</ns3:hr>
            <ns3:cad>0</ns3:cad>
          </ns3:TrackPointExtension>
        </extensions>
      </trkpt>
      <trkpt lat="37.76101400144398212432861328125" lon="-107.70667296834290027618408203125">
        <ele>3647.800048828125</ele>
        <time>2023-07-29T17:48:27.000Z</time>
        <extensions>
          <ns3:TrackPointExtension>
            <ns3:hr>98</ns3:hr>
            <ns3:cad>0</ns3:cad>
          </ns3:TrackPointExtension>
        </extensions>
      </trkpt>
      <trkpt lat="37.76101802475750446319580078125" lon="-107.7066470682621002197265625">
        <ele>3647.60009765625</ele>
        <time>2023-07-29T17:48:28.000Z</time>
        <extensions>
          <ns3:TrackPointExtension>
            <ns3:hr>98</ns3:hr>
            <ns3:cad>0</ns3:cad>
          </ns3:TrackPointExtension>
        </extensions>
      </trkpt>
      <trkpt lat="37.76102028787136077880859375" lon="-107.70663759671151638031005859375">
        <ele>3647.39990234375</ele>
        <time>2023-07-29T17:48:29.000Z</time>
        <extensions>
          <ns3:TrackPointExtension>
            <ns3:hr>98</ns3:hr>
            <ns3:cad>0</ns3:cad>
          </ns3:TrackPointExtension>
        </extensions>
      </trkpt>
      <trkpt lat="37.76101651601493358612060546875" lon="-107.70661848597228527069091796875">
        <ele>3647.39990234375</ele>
        <time>2023-07-29T17:48:30.000Z</time>
        <extensions>
          <ns3:TrackPointExtension>
            <ns3:hr>98</ns3:hr>
            <ns3:cad>0</ns3:cad>
          </ns3:TrackPointExtension>
        </extensions>
      </trkpt>
      <trkpt lat="37.76101282797753810882568359375" lon="-107.70660390146076679229736328125">
        <ele>3647.39990234375</ele>
        <time>2023-07-29T17:48:31.000Z</time>
        <extensions>
          <ns3:TrackPointExtension>
            <ns3:hr>98</ns3:hr>
            <ns3:cad>0</ns3:cad>
          </ns3:TrackPointExtension>
        </extensions>
      </trkpt>
      <trkpt lat="37.7610043622553348541259765625" lon="-107.7065909095108509063720703125">
        <ele>3647.39990234375</ele>
        <time>2023-07-29T17:48:32.000Z</time>
        <extensions>
          <ns3:TrackPointExtension>
            <ns3:hr>98</ns3:hr>
            <ns3:cad>0</ns3:cad>
          </ns3:TrackPointExtension>
        </extensions>
      </trkpt>
      <trkpt lat="37.76099438779056072235107421875" lon="-107.706587724387645721435546875">
        <ele>3647.39990234375</ele>
        <time>2023-07-29T17:48:33.000Z</time>
        <extensions>
          <ns3:TrackPointExtension>
            <ns3:hr>98</ns3:hr>
            <ns3:cad>0</ns3:cad>
          </ns3:TrackPointExtension>
        </extensions>
      </trkpt>
      <trkpt lat="37.760983742773532867431640625" lon="-107.70658127032220363616943359375">
        <ele>3647.39990234375</ele>
        <time>2023-07-29T17:48:34.000Z</time>
        <extensions>
          <ns3:TrackPointExtension>
            <ns3:hr>98</ns3:hr>
            <ns3:cad>0</ns3:cad>
          </ns3:TrackPointExtension>
        </extensions>
      </trkpt>
      <trkpt lat="37.7609735168516635894775390625" lon="-107.7065744809806346893310546875">
        <ele>3647.39990234375</ele>
        <time>2023-07-29T17:48:35.000Z</time>
        <extensions>
          <ns3:TrackPointExtension>
            <ns3:hr>98</ns3:hr>
            <ns3:cad>0</ns3:cad>
          </ns3:TrackPointExtension>
        </extensions>
      </trkpt>
      <trkpt lat="37.76096505112946033477783203125" lon="-107.7065728046000003814697265625">
        <ele>3647.39990234375</ele>
        <time>2023-07-29T17:48:36.000Z</time>
        <extensions>
          <ns3:TrackPointExtension>
            <ns3:hr>97</ns3:hr>
            <ns3:cad>0</ns3:cad>
          </ns3:TrackPointExtension>
        </extensions>
      </trkpt>
      <trkpt lat="37.7609497122466564178466796875" lon="-107.706570960581302642822265625">
        <ele>3647.199951171875</ele>
        <time>2023-07-29T17:48:37.000Z</time>
        <extensions>
          <ns3:TrackPointExtension>
            <ns3:hr>97</ns3:hr>
            <ns3:cad>0</ns3:cad>
          </ns3:TrackPointExtension>
        </extensions>
      </trkpt>
      <trkpt lat="37.760935463011264801025390625" lon="-107.7065748162567615509033203125">
        <ele>3647.199951171875</ele>
        <time>2023-07-29T17:48:38.000Z</time>
        <extensions>
          <ns3:TrackPointExtension>
            <ns3:hr>97</ns3:hr>
            <ns3:cad>0</ns3:cad>
          </ns3:TrackPointExtension>
        </extensions>
      </trkpt>
      <trkpt lat="37.7609284222126007080078125" lon="-107.70657858811318874359130859375">
        <ele>3647.199951171875</ele>
        <time>2023-07-29T17:48:39.000Z</time>
        <extensions>
          <ns3:TrackPointExtension>
            <ns3:hr>97</ns3:hr>
            <ns3:cad>0</ns3:cad>
          </ns3:TrackPointExtension>
        </extensions>
      </trkpt>
      <trkpt lat="37.76092196814715862274169921875" lon="-107.70658730529248714447021484375">
        <ele>3647.39990234375</ele>
        <time>2023-07-29T17:48:40.000Z</time>
        <extensions>
          <ns3:TrackPointExtension>
            <ns3:hr>99</ns3:hr>
            <ns3:cad>0</ns3:cad>
          </ns3:TrackPointExtension>
        </extensions>
      </trkpt>
      <trkpt lat="37.76091358624398708343505859375" lon="-107.70659216679632663726806640625">
        <ele>3647.60009765625</ele>
        <time>2023-07-29T17:48:41.000Z</time>
        <extensions>
          <ns3:TrackPointExtension>
            <ns3:hr>99</ns3:hr>
            <ns3:cad>0</ns3:cad>
          </ns3:TrackPointExtension>
        </extensions>
      </trkpt>
      <trkpt lat="37.7609118260443210601806640625" lon="-107.70659803412854671478271484375">
        <ele>3647.60009765625</ele>
        <time>2023-07-29T17:48:42.000Z</time>
        <extensions>
          <ns3:TrackPointExtension>
            <ns3:hr>99</ns3:hr>
            <ns3:cad>0</ns3:cad>
          </ns3:TrackPointExtension>
        </extensions>
      </trkpt>
      <trkpt lat="37.76090285740792751312255859375" lon="-107.70660214126110076904296875">
        <ele>3647.60009765625</ele>
        <time>2023-07-29T17:48:43.000Z</time>
        <extensions>
          <ns3:TrackPointExtension>
            <ns3:hr>99</ns3:hr>
            <ns3:cad>0</ns3:cad>
          </ns3:TrackPointExtension>
        </extensions>
      </trkpt>
      <trkpt lat="37.76089548133313655853271484375" lon="-107.70660239271819591522216796875">
        <ele>3647.800048828125</ele>
        <time>2023-07-29T17:48:44.000Z</time>
        <extensions>
          <ns3:TrackPointExtension>
            <ns3:hr>99</ns3:hr>
            <ns3:cad>0</ns3:cad>
          </ns3:TrackPointExtension>
        </extensions>
      </trkpt>
      <trkpt lat="37.760884501039981842041015625" lon="-107.70660356618463993072509765625">
        <ele>3647.800048828125</ele>
        <time>2023-07-29T17:48:45.000Z</time>
        <extensions>
          <ns3:TrackPointExtension>
            <ns3:hr>99</ns3:hr>
            <ns3:cad>0</ns3:cad>
          </ns3:TrackPointExtension>
        </extensions>
      </trkpt>
      <trkpt lat="37.76087704114615917205810546875" lon="-107.70660339854657649993896484375">
        <ele>3647.800048828125</ele>
        <time>2023-07-29T17:48:46.000Z</time>
        <extensions>
          <ns3:TrackPointExtension>
            <ns3:hr>100</ns3:hr>
            <ns3:cad>0</ns3:cad>
          </ns3:TrackPointExtension>
        </extensions>
      </trkpt>
      <trkpt lat="37.7608665637671947479248046875" lon="-107.70660121925175189971923828125">
        <ele>3648</ele>
        <time>2023-07-29T17:48:47.000Z</time>
        <extensions>
          <ns3:TrackPointExtension>
            <ns3:hr>100</ns3:hr>
            <ns3:cad>0</ns3:cad>
          </ns3:TrackPointExtension>
        </extensions>
      </trkpt>
      <trkpt lat="37.7608554996550083160400390625" lon="-107.7066014707088470458984375">
        <ele>3648</ele>
        <time>2023-07-29T17:48:48.000Z</time>
        <extensions>
          <ns3:TrackPointExtension>
            <ns3:hr>100</ns3:hr>
            <ns3:cad>0</ns3:cad>
          </ns3:TrackPointExtension>
        </extensions>
      </trkpt>
      <trkpt lat="37.7608441002666950225830078125" lon="-107.70660289563238620758056640625">
        <ele>3648</ele>
        <time>2023-07-29T17:48:49.000Z</time>
        <extensions>
          <ns3:TrackPointExtension>
            <ns3:hr>101</ns3:hr>
            <ns3:cad>0</ns3:cad>
          </ns3:TrackPointExtension>
        </extensions>
      </trkpt>
      <trkpt lat="37.7608320303261280059814453125" lon="-107.706603147089481353759765625">
        <ele>3648</ele>
        <time>2023-07-29T17:48:50.000Z</time>
        <extensions>
          <ns3:TrackPointExtension>
            <ns3:hr>101</ns3:hr>
            <ns3:cad>0</ns3:cad>
          </ns3:TrackPointExtension>
        </extensions>
      </trkpt>
      <trkpt lat="37.7608184516429901123046875" lon="-107.70660423673689365386962890625">
        <ele>3648</ele>
        <time>2023-07-29T17:48:51.000Z</time>
        <extensions>
          <ns3:TrackPointExtension>
            <ns3:hr>101</ns3:hr>
            <ns3:cad>47</ns3:cad>
          </ns3:TrackPointExtension>
        </extensions>
      </trkpt>
      <trkpt lat="37.76080043055117130279541015625" lon="-107.7065996266901493072509765625">
        <ele>3648</ele>
        <time>2023-07-29T17:48:52.000Z</time>
        <extensions>
          <ns3:TrackPointExtension>
            <ns3:hr>101</ns3:hr>
            <ns3:cad>47</ns3:cad>
          </ns3:TrackPointExtension>
        </extensions>
      </trkpt>
      <trkpt lat="37.7607871033251285552978515625" lon="-107.7065905742347240447998046875">
        <ele>3648</ele>
        <time>2023-07-29T17:48:53.000Z</time>
        <extensions>
          <ns3:TrackPointExtension>
            <ns3:hr>102</ns3:hr>
            <ns3:cad>47</ns3:cad>
          </ns3:TrackPointExtension>
        </extensions>
      </trkpt>
      <trkpt lat="37.76078014634549617767333984375" lon="-107.70657959394156932830810546875">
        <ele>3648</ele>
        <time>2023-07-29T17:48:54.000Z</time>
        <extensions>
          <ns3:TrackPointExtension>
            <ns3:hr>103</ns3:hr>
            <ns3:cad>50</ns3:cad>
          </ns3:TrackPointExtension>
        </extensions>
      </trkpt>
      <trkpt lat="37.76077687740325927734375" lon="-107.7065717987716197967529296875">
        <ele>3647.800048828125</ele>
        <time>2023-07-29T17:48:55.000Z</time>
        <extensions>
          <ns3:TrackPointExtension>
            <ns3:hr>103</ns3:hr>
            <ns3:cad>50</ns3:cad>
          </ns3:TrackPointExtension>
        </extensions>
      </trkpt>
      <trkpt lat="37.76077243499457836151123046875" lon="-107.70656467415392398834228515625">
        <ele>3648</ele>
        <time>2023-07-29T17:48:56.000Z</time>
        <extensions>
          <ns3:TrackPointExtension>
            <ns3:hr>103</ns3:hr>
            <ns3:cad>50</ns3:cad>
          </ns3:TrackPointExtension>
        </extensions>
      </trkpt>
      <trkpt lat="37.760765813291072845458984375" lon="-107.7065577171742916107177734375">
        <ele>3648</ele>
        <time>2023-07-29T17:48:57.000Z</time>
        <extensions>
          <ns3:TrackPointExtension>
            <ns3:hr>103</ns3:hr>
            <ns3:cad>52</ns3:cad>
          </ns3:TrackPointExtension>
        </extensions>
      </trkpt>
      <trkpt lat="37.7607596106827259063720703125" lon="-107.70655377767980098724365234375">
        <ele>3648</ele>
        <time>2023-07-29T17:48:58.000Z</time>
        <extensions>
          <ns3:TrackPointExtension>
            <ns3:hr>103</ns3:hr>
            <ns3:cad>52</ns3:cad>
          </ns3:TrackPointExtension>
        </extensions>
      </trkpt>
      <trkpt lat="37.76075114496052265167236328125" lon="-107.70655109547078609466552734375">
        <ele>3648</ele>
        <time>2023-07-29T17:48:59.000Z</time>
        <extensions>
          <ns3:TrackPointExtension>
            <ns3:hr>103</ns3:hr>
            <ns3:cad>52</ns3:cad>
          </ns3:TrackPointExtension>
        </extensions>
      </trkpt>
      <trkpt lat="37.7607408352196216583251953125" lon="-107.70654640160501003265380859375">
        <ele>3648</ele>
        <time>2023-07-29T17:49:00.000Z</time>
        <extensions>
          <ns3:TrackPointExtension>
            <ns3:hr>103</ns3:hr>
            <ns3:cad>52</ns3:cad>
          </ns3:TrackPointExtension>
        </extensions>
      </trkpt>
      <trkpt lat="37.7607297711074352264404296875" lon="-107.70654221065342426300048828125">
        <ele>3648</ele>
        <time>2023-07-29T17:49:01.000Z</time>
        <extensions>
          <ns3:TrackPointExtension>
            <ns3:hr>103</ns3:hr>
            <ns3:cad>56</ns3:cad>
          </ns3:TrackPointExtension>
        </extensions>
      </trkpt>
      <trkpt lat="37.76072029955685138702392578125" lon="-107.70654237829148769378662109375">
        <ele>3648</ele>
        <time>2023-07-29T17:49:02.000Z</time>
        <extensions>
          <ns3:TrackPointExtension>
            <ns3:hr>103</ns3:hr>
            <ns3:cad>56</ns3:cad>
          </ns3:TrackPointExtension>
        </extensions>
      </trkpt>
      <trkpt lat="37.76070890016853809356689453125" lon="-107.70654154010117053985595703125">
        <ele>3648</ele>
        <time>2023-07-29T17:49:03.000Z</time>
        <extensions>
          <ns3:TrackPointExtension>
            <ns3:hr>103</ns3:hr>
            <ns3:cad>56</ns3:cad>
          </ns3:TrackPointExtension>
        </extensions>
      </trkpt>
      <trkpt lat="37.76069297455251216888427734375" lon="-107.70653768442571163177490234375">
        <ele>3648</ele>
        <time>2023-07-29T17:49:04.000Z</time>
        <extensions>
          <ns3:TrackPointExtension>
            <ns3:hr>103</ns3:hr>
            <ns3:cad>56</ns3:cad>
          </ns3:TrackPointExtension>
        </extensions>
      </trkpt>
      <trkpt lat="37.76068174280226230621337890625" lon="-107.70653449930250644683837890625">
        <ele>3648</ele>
        <time>2023-07-29T17:49:05.000Z</time>
        <extensions>
          <ns3:TrackPointExtension>
            <ns3:hr>103</ns3:hr>
            <ns3:cad>56</ns3:cad>
          </ns3:TrackPointExtension>
        </extensions>
      </trkpt>
      <trkpt lat="37.76067185215651988983154296875" lon="-107.7065319009125232696533203125">
        <ele>3647.800048828125</ele>
        <time>2023-07-29T17:49:06.000Z</time>
        <extensions>
          <ns3:TrackPointExtension>
            <ns3:hr>104</ns3:hr>
            <ns3:cad>55</ns3:cad>
          </ns3:TrackPointExtension>
        </extensions>
      </trkpt>
      <trkpt lat="37.76066548191010951995849609375" lon="-107.706530727446079254150390625">
        <ele>3647.800048828125</ele>
        <time>2023-07-29T17:49:07.000Z</time>
        <extensions>
          <ns3:TrackPointExtension>
            <ns3:hr>104</ns3:hr>
            <ns3:cad>50</ns3:cad>
          </ns3:TrackPointExtension>
        </extensions>
      </trkpt>
      <trkpt lat="37.76065693236887454986572265625" lon="-107.7065275423228740692138671875">
        <ele>3647.800048828125</ele>
        <time>2023-07-29T17:49:08.000Z</time>
        <extensions>
          <ns3:TrackPointExtension>
            <ns3:hr>104</ns3:hr>
            <ns3:cad>50</ns3:cad>
          </ns3:TrackPointExtension>
        </extensions>
      </trkpt>
      <trkpt lat="37.760650813579559326171875" lon="-107.70652435719966888427734375">
        <ele>3647.60009765625</ele>
        <time>2023-07-29T17:49:09.000Z</time>
        <extensions>
          <ns3:TrackPointExtension>
            <ns3:hr>104</ns3:hr>
            <ns3:cad>50</ns3:cad>
          </ns3:TrackPointExtension>
        </extensions>
      </trkpt>
      <trkpt lat="37.76064075529575347900390625" lon="-107.706519663333892822265625">
        <ele>3647.60009765625</ele>
        <time>2023-07-29T17:49:10.000Z</time>
        <extensions>
          <ns3:TrackPointExtension>
            <ns3:hr>104</ns3:hr>
            <ns3:cad>50</ns3:cad>
          </ns3:TrackPointExtension>
        </extensions>
      </trkpt>
      <trkpt lat="37.76063078083097934722900390625" lon="-107.70651354454457759857177734375">
        <ele>3647.39990234375</ele>
        <time>2023-07-29T17:49:11.000Z</time>
        <extensions>
          <ns3:TrackPointExtension>
            <ns3:hr>104</ns3:hr>
            <ns3:cad>50</ns3:cad>
          </ns3:TrackPointExtension>
        </extensions>
      </trkpt>
      <trkpt lat="37.7606234885752201080322265625" lon="-107.7065060846507549285888671875">
        <ele>3647.199951171875</ele>
        <time>2023-07-29T17:49:12.000Z</time>
        <extensions>
          <ns3:TrackPointExtension>
            <ns3:hr>104</ns3:hr>
            <ns3:cad>50</ns3:cad>
          </ns3:TrackPointExtension>
        </extensions>
      </trkpt>
      <trkpt lat="37.76060965843498706817626953125" lon="-107.70649661310017108917236328125">
        <ele>3647</ele>
        <time>2023-07-29T17:49:13.000Z</time>
        <extensions>
          <ns3:TrackPointExtension>
            <ns3:hr>104</ns3:hr>
            <ns3:cad>53</ns3:cad>
          </ns3:TrackPointExtension>
        </extensions>
      </trkpt>
      <trkpt lat="37.76059918105602264404296875" lon="-107.70648890174925327301025390625">
        <ele>3646.800048828125</ele>
        <time>2023-07-29T17:49:14.000Z</time>
        <extensions>
          <ns3:TrackPointExtension>
            <ns3:hr>104</ns3:hr>
            <ns3:cad>53</ns3:cad>
          </ns3:TrackPointExtension>
        </extensions>
      </trkpt>
      <trkpt lat="37.76058652438223361968994140625" lon="-107.70647448487579822540283203125">
        <ele>3646.800048828125</ele>
        <time>2023-07-29T17:49:15.000Z</time>
        <extensions>
          <ns3:TrackPointExtension>
            <ns3:hr>104</ns3:hr>
            <ns3:cad>0</ns3:cad>
          </ns3:TrackPointExtension>
        </extensions>
      </trkpt>
      <trkpt lat="37.760582752525806427001953125" lon="-107.70646509714424610137939453125">
        <ele>3646.60009765625</ele>
        <time>2023-07-29T17:49:16.000Z</time>
        <extensions>
          <ns3:TrackPointExtension>
            <ns3:hr>104</ns3:hr>
            <ns3:cad>0</ns3:cad>
          </ns3:TrackPointExtension>
        </extensions>
      </trkpt>
      <trkpt lat="37.76057797484099864959716796875" lon="-107.70645319484174251556396484375">
        <ele>3646.39990234375</ele>
        <time>2023-07-29T17:49:17.000Z</time>
        <extensions>
          <ns3:TrackPointExtension>
            <ns3:hr>104</ns3:hr>
            <ns3:cad>0</ns3:cad>
          </ns3:TrackPointExtension>
        </extensions>
      </trkpt>
      <trkpt lat="37.76057277806103229522705078125" lon="-107.70644280128180980682373046875">
        <ele>3646</ele>
        <time>2023-07-29T17:49:18.000Z</time>
        <extensions>
          <ns3:TrackPointExtension>
            <ns3:hr>104</ns3:hr>
            <ns3:cad>0</ns3:cad>
          </ns3:TrackPointExtension>
        </extensions>
      </trkpt>
      <trkpt lat="37.76056741364300251007080078125" lon="-107.7064370177686214447021484375">
        <ele>3646</ele>
        <time>2023-07-29T17:49:19.000Z</time>
        <extensions>
          <ns3:TrackPointExtension>
            <ns3:hr>104</ns3:hr>
            <ns3:cad>0</ns3:cad>
          </ns3:TrackPointExtension>
        </extensions>
      </trkpt>
      <trkpt lat="37.76056171394884586334228515625" lon="-107.70642721094191074371337890625">
        <ele>3646</ele>
        <time>2023-07-29T17:49:20.000Z</time>
        <extensions>
          <ns3:TrackPointExtension>
            <ns3:hr>104</ns3:hr>
            <ns3:cad>0</ns3:cad>
          </ns3:TrackPointExtension>
        </extensions>
      </trkpt>
      <trkpt lat="37.76055869646370410919189453125" lon="-107.70642167888581752777099609375">
        <ele>3646</ele>
        <time>2023-07-29T17:49:21.000Z</time>
        <extensions>
          <ns3:TrackPointExtension>
            <ns3:hr>104</ns3:hr>
            <ns3:cad>0</ns3:cad>
          </ns3:TrackPointExtension>
        </extensions>
      </trkpt>
      <trkpt lat="37.76055165566504001617431640625" lon="-107.7064078487455844879150390625">
        <ele>3646</ele>
        <time>2023-07-29T17:49:22.000Z</time>
        <extensions>
          <ns3:TrackPointExtension>
            <ns3:hr>104</ns3:hr>
            <ns3:cad>0</ns3:cad>
          </ns3:TrackPointExtension>
        </extensions>
      </trkpt>
      <trkpt lat="37.76054511778056621551513671875" lon="-107.70639787428081035614013671875">
        <ele>3646.199951171875</ele>
        <time>2023-07-29T17:49:23.000Z</time>
        <extensions>
          <ns3:TrackPointExtension>
            <ns3:hr>103</ns3:hr>
            <ns3:cad>0</ns3:cad>
          </ns3:TrackPointExtension>
        </extensions>
      </trkpt>
      <trkpt lat="37.7605376578867435455322265625" lon="-107.7063867263495922088623046875">
        <ele>3646.199951171875</ele>
        <time>2023-07-29T17:49:24.000Z</time>
        <extensions>
          <ns3:TrackPointExtension>
            <ns3:hr>103</ns3:hr>
            <ns3:cad>0</ns3:cad>
          </ns3:TrackPointExtension>
        </extensions>
      </trkpt>
      <trkpt lat="37.7605289407074451446533203125" lon="-107.706373147666454315185546875">
        <ele>3646.199951171875</ele>
        <time>2023-07-29T17:49:25.000Z</time>
        <extensions>
          <ns3:TrackPointExtension>
            <ns3:hr>103</ns3:hr>
            <ns3:cad>0</ns3:cad>
          </ns3:TrackPointExtension>
        </extensions>
      </trkpt>
      <trkpt lat="37.7605229057371616363525390625" lon="-107.7063612453639507293701171875">
        <ele>3646.199951171875</ele>
        <time>2023-07-29T17:49:26.000Z</time>
        <extensions>
          <ns3:TrackPointExtension>
            <ns3:hr>103</ns3:hr>
            <ns3:cad>0</ns3:cad>
          </ns3:TrackPointExtension>
        </extensions>
      </trkpt>
      <trkpt lat="37.76051444001495838165283203125" lon="-107.7063439786434173583984375">
        <ele>3646.199951171875</ele>
        <time>2023-07-29T17:49:27.000Z</time>
        <extensions>
          <ns3:TrackPointExtension>
            <ns3:hr>103</ns3:hr>
            <ns3:cad>0</ns3:cad>
          </ns3:TrackPointExtension>
        </extensions>
      </trkpt>
      <trkpt lat="37.76050806976854801177978515625" lon="-107.7063324116170406341552734375">
        <ele>3646.199951171875</ele>
        <time>2023-07-29T17:49:28.000Z</time>
        <extensions>
          <ns3:TrackPointExtension>
            <ns3:hr>103</ns3:hr>
            <ns3:cad>0</ns3:cad>
          </ns3:TrackPointExtension>
        </extensions>
      </trkpt>
      <trkpt lat="37.76050304062664508819580078125" lon="-107.706321515142917633056640625">
        <ele>3646</ele>
        <time>2023-07-29T17:49:29.000Z</time>
        <extensions>
          <ns3:TrackPointExtension>
            <ns3:hr>102</ns3:hr>
            <ns3:cad>0</ns3:cad>
          </ns3:TrackPointExtension>
        </extensions>
      </trkpt>
      <trkpt lat="37.76049633510410785675048828125" lon="-107.706308774650096893310546875">
        <ele>3646</ele>
        <time>2023-07-29T17:49:30.000Z</time>
        <extensions>
          <ns3:TrackPointExtension>
            <ns3:hr>102</ns3:hr>
            <ns3:cad>0</ns3:cad>
          </ns3:TrackPointExtension>
        </extensions>
      </trkpt>
      <trkpt lat="37.7604925632476806640625" lon="-107.70629896782338619232177734375">
        <ele>3646</ele>
        <time>2023-07-29T17:49:31.000Z</time>
        <extensions>
          <ns3:TrackPointExtension>
            <ns3:hr>102</ns3:hr>
            <ns3:cad>0</ns3:cad>
          </ns3:TrackPointExtension>
        </extensions>
      </trkpt>
      <trkpt lat="37.76048879139125347137451171875" lon="-107.7062868140637874603271484375">
        <ele>3646</ele>
        <time>2023-07-29T17:49:32.000Z</time>
        <extensions>
          <ns3:TrackPointExtension>
            <ns3:hr>103</ns3:hr>
            <ns3:cad>0</ns3:cad>
          </ns3:TrackPointExtension>
        </extensions>
      </trkpt>
      <trkpt lat="37.7604816667735576629638671875" lon="-107.7062760852277278900146484375">
        <ele>3646</ele>
        <time>2023-07-29T17:49:33.000Z</time>
        <extensions>
          <ns3:TrackPointExtension>
            <ns3:hr>103</ns3:hr>
            <ns3:cad>0</ns3:cad>
          </ns3:TrackPointExtension>
        </extensions>
      </trkpt>
      <trkpt lat="37.760479487478733062744140625" lon="-107.70626963116228580474853515625">
        <ele>3646</ele>
        <time>2023-07-29T17:49:34.000Z</time>
        <extensions>
          <ns3:TrackPointExtension>
            <ns3:hr>103</ns3:hr>
            <ns3:cad>0</ns3:cad>
          </ns3:TrackPointExtension>
        </extensions>
      </trkpt>
      <trkpt lat="37.7604709379374980926513671875" lon="-107.706265188753604888916015625">
        <ele>3646</ele>
        <time>2023-07-29T17:49:35.000Z</time>
        <extensions>
          <ns3:TrackPointExtension>
            <ns3:hr>103</ns3:hr>
            <ns3:cad>48</ns3:cad>
          </ns3:TrackPointExtension>
        </extensions>
      </trkpt>
      <trkpt lat="37.76046532206237316131591796875" lon="-107.70626057870686054229736328125">
        <ele>3646</ele>
        <time>2023-07-29T17:49:36.000Z</time>
        <extensions>
          <ns3:TrackPointExtension>
            <ns3:hr>103</ns3:hr>
            <ns3:cad>48</ns3:cad>
          </ns3:TrackPointExtension>
        </extensions>
      </trkpt>
      <trkpt lat="37.76046079583466053009033203125" lon="-107.706259153783321380615234375">
        <ele>3645.800048828125</ele>
        <time>2023-07-29T17:49:37.000Z</time>
        <extensions>
          <ns3:TrackPointExtension>
            <ns3:hr>103</ns3:hr>
            <ns3:cad>48</ns3:cad>
          </ns3:TrackPointExtension>
        </extensions>
      </trkpt>
      <trkpt lat="37.760450653731822967529296875" lon="-107.7062579803168773651123046875">
        <ele>3645.800048828125</ele>
        <time>2023-07-29T17:49:38.000Z</time>
        <extensions>
          <ns3:TrackPointExtension>
            <ns3:hr>103</ns3:hr>
            <ns3:cad>0</ns3:cad>
          </ns3:TrackPointExtension>
        </extensions>
      </trkpt>
      <trkpt lat="37.7604447863996028900146484375" lon="-107.70625747740268707275390625">
        <ele>3645.60009765625</ele>
        <time>2023-07-29T17:49:39.000Z</time>
        <extensions>
          <ns3:TrackPointExtension>
            <ns3:hr>103</ns3:hr>
            <ns3:cad>0</ns3:cad>
          </ns3:TrackPointExtension>
        </extensions>
      </trkpt>
      <trkpt lat="37.76043824851512908935546875" lon="-107.70625739358365535736083984375">
        <ele>3645.39990234375</ele>
        <time>2023-07-29T17:49:40.000Z</time>
        <extensions>
          <ns3:TrackPointExtension>
            <ns3:hr>103</ns3:hr>
            <ns3:cad>0</ns3:cad>
          </ns3:TrackPointExtension>
        </extensions>
      </trkpt>
      <trkpt lat="37.760430872440338134765625" lon="-107.7062594890594482421875">
        <ele>3645.39990234375</ele>
        <time>2023-07-29T17:49:41.000Z</time>
        <extensions>
          <ns3:TrackPointExtension>
            <ns3:hr>103</ns3:hr>
            <ns3:cad>0</ns3:cad>
          </ns3:TrackPointExtension>
        </extensions>
      </trkpt>
      <trkpt lat="37.7604193054139614105224609375" lon="-107.7062609978020191192626953125">
        <ele>3645.199951171875</ele>
        <time>2023-07-29T17:49:42.000Z</time>
        <extensions>
          <ns3:TrackPointExtension>
            <ns3:hr>104</ns3:hr>
            <ns3:cad>0</ns3:cad>
          </ns3:TrackPointExtension>
        </extensions>
      </trkpt>
      <trkpt lat="37.76041134260594844818115234375" lon="-107.70626611076295375823974609375">
        <ele>3645.199951171875</ele>
        <time>2023-07-29T17:49:43.000Z</time>
        <extensions>
          <ns3:TrackPointExtension>
            <ns3:hr>104</ns3:hr>
            <ns3:cad>0</ns3:cad>
          </ns3:TrackPointExtension>
        </extensions>
      </trkpt>
      <trkpt lat="37.76040396653115749359130859375" lon="-107.7062677033245563507080078125">
        <ele>3645.199951171875</ele>
        <time>2023-07-29T17:49:44.000Z</time>
        <extensions>
          <ns3:TrackPointExtension>
            <ns3:hr>104</ns3:hr>
            <ns3:cad>0</ns3:cad>
          </ns3:TrackPointExtension>
        </extensions>
      </trkpt>
      <trkpt lat="37.76040346361696720123291015625" lon="-107.70626929588615894317626953125">
        <ele>3645.199951171875</ele>
        <time>2023-07-29T17:49:45.000Z</time>
        <extensions>
          <ns3:TrackPointExtension>
            <ns3:hr>103</ns3:hr>
            <ns3:cad>0</ns3:cad>
          </ns3:TrackPointExtension>
        </extensions>
      </trkpt>
      <trkpt lat="37.76039625518023967742919921875" lon="-107.70626711659133434295654296875">
        <ele>3645.39990234375</ele>
        <time>2023-07-29T17:49:46.000Z</time>
        <extensions>
          <ns3:TrackPointExtension>
            <ns3:hr>103</ns3:hr>
            <ns3:cad>0</ns3:cad>
          </ns3:TrackPointExtension>
        </extensions>
      </trkpt>
      <trkpt lat="37.76039390824735164642333984375" lon="-107.70626015961170196533203125">
        <ele>3645.39990234375</ele>
        <time>2023-07-29T17:49:47.000Z</time>
        <extensions>
          <ns3:TrackPointExtension>
            <ns3:hr>103</ns3:hr>
            <ns3:cad>0</ns3:cad>
          </ns3:TrackPointExtension>
        </extensions>
      </trkpt>
      <trkpt lat="37.76038854382932186126708984375" lon="-107.7062529511749744415283203125">
        <ele>3645.39990234375</ele>
        <time>2023-07-29T17:49:48.000Z</time>
        <extensions>
          <ns3:TrackPointExtension>
            <ns3:hr>103</ns3:hr>
            <ns3:cad>0</ns3:cad>
          </ns3:TrackPointExtension>
        </extensions>
      </trkpt>
      <trkpt lat="37.76038594543933868408203125" lon="-107.7062469162046909332275390625">
        <ele>3645.39990234375</ele>
        <time>2023-07-29T17:49:49.000Z</time>
        <extensions>
          <ns3:TrackPointExtension>
            <ns3:hr>103</ns3:hr>
            <ns3:cad>0</ns3:cad>
          </ns3:TrackPointExtension>
        </extensions>
      </trkpt>
      <trkpt lat="37.76037798263132572174072265625" lon="-107.706239037215709686279296875">
        <ele>3645.39990234375</ele>
        <time>2023-07-29T17:49:50.000Z</time>
        <extensions>
          <ns3:TrackPointExtension>
            <ns3:hr>102</ns3:hr>
            <ns3:cad>0</ns3:cad>
          </ns3:TrackPointExtension>
        </extensions>
      </trkpt>
      <trkpt lat="37.76037060655653476715087890625" lon="-107.70623275078833103179931640625">
        <ele>3645.39990234375</ele>
        <time>2023-07-29T17:49:51.000Z</time>
        <extensions>
          <ns3:TrackPointExtension>
            <ns3:hr>102</ns3:hr>
            <ns3:cad>0</ns3:cad>
          </ns3:TrackPointExtension>
        </extensions>
      </trkpt>
      <trkpt lat="37.7603638172149658203125" lon="-107.7062286436557769775390625">
        <ele>3645.39990234375</ele>
        <time>2023-07-29T17:49:52.000Z</time>
        <extensions>
          <ns3:TrackPointExtension>
            <ns3:hr>102</ns3:hr>
            <ns3:cad>49</ns3:cad>
          </ns3:TrackPointExtension>
        </extensions>
      </trkpt>
      <trkpt lat="37.7603485621511936187744140625" lon="-107.70621766336262226104736328125">
        <ele>3645.39990234375</ele>
        <time>2023-07-29T17:49:53.000Z</time>
        <extensions>
          <ns3:TrackPointExtension>
            <ns3:hr>102</ns3:hr>
            <ns3:cad>50</ns3:cad>
          </ns3:TrackPointExtension>
        </extensions>
      </trkpt>
      <trkpt lat="37.760339342057704925537109375" lon="-107.70621120929718017578125">
        <ele>3645.39990234375</ele>
        <time>2023-07-29T17:49:54.000Z</time>
        <extensions>
          <ns3:TrackPointExtension>
            <ns3:hr>102</ns3:hr>
            <ns3:cad>50</ns3:cad>
          </ns3:TrackPointExtension>
        </extensions>
      </trkpt>
      <trkpt lat="37.76032886467874050140380859375" lon="-107.706205844879150390625">
        <ele>3645.39990234375</ele>
        <time>2023-07-29T17:49:55.000Z</time>
        <extensions>
          <ns3:TrackPointExtension>
            <ns3:hr>102</ns3:hr>
            <ns3:cad>0</ns3:cad>
          </ns3:TrackPointExtension>
        </extensions>
      </trkpt>
      <trkpt lat="37.76031645946204662322998046875" lon="-107.706196792423725128173828125">
        <ele>3645.39990234375</ele>
        <time>2023-07-29T17:49:56.000Z</time>
        <extensions>
          <ns3:TrackPointExtension>
            <ns3:hr>102</ns3:hr>
            <ns3:cad>0</ns3:cad>
          </ns3:TrackPointExtension>
        </extensions>
      </trkpt>
      <trkpt lat="37.76030690409243106842041015625" lon="-107.7061902545392513275146484375">
        <ele>3645.39990234375</ele>
        <time>2023-07-29T17:49:57.000Z</time>
        <extensions>
          <ns3:TrackPointExtension>
            <ns3:hr>102</ns3:hr>
            <ns3:cad>50</ns3:cad>
          </ns3:TrackPointExtension>
        </extensions>
      </trkpt>
      <trkpt lat="37.76030120439827442169189453125" lon="-107.7061959542334079742431640625">
        <ele>3645.39990234375</ele>
        <time>2023-07-29T17:49:58.000Z</time>
        <extensions>
          <ns3:TrackPointExtension>
            <ns3:hr>102</ns3:hr>
            <ns3:cad>52</ns3:cad>
          </ns3:TrackPointExtension>
        </extensions>
      </trkpt>
      <trkpt lat="37.7602912299335002899169921875" lon="-107.70619352348148822784423828125">
        <ele>3645.39990234375</ele>
        <time>2023-07-29T17:49:59.000Z</time>
        <extensions>
          <ns3:TrackPointExtension>
            <ns3:hr>102</ns3:hr>
            <ns3:cad>52</ns3:cad>
          </ns3:TrackPointExtension>
        </extensions>
      </trkpt>
      <trkpt lat="37.76028133928775787353515625" lon="-107.706187404692173004150390625">
        <ele>3645.60009765625</ele>
        <time>2023-07-29T17:50:00.000Z</time>
        <extensions>
          <ns3:TrackPointExtension>
            <ns3:hr>102</ns3:hr>
            <ns3:cad>49</ns3:cad>
          </ns3:TrackPointExtension>
        </extensions>
      </trkpt>
      <trkpt lat="37.76027052663266658782958984375" lon="-107.7061805315315723419189453125">
        <ele>3645.800048828125</ele>
        <time>2023-07-29T17:50:01.000Z</time>
        <extensions>
          <ns3:TrackPointExtension>
            <ns3:hr>102</ns3:hr>
            <ns3:cad>49</ns3:cad>
          </ns3:TrackPointExtension>
        </extensions>
      </trkpt>
      <trkpt lat="37.76026113890111446380615234375" lon="-107.70617860369384288787841796875">
        <ele>3646.199951171875</ele>
        <time>2023-07-29T17:50:02.000Z</time>
        <extensions>
          <ns3:TrackPointExtension>
            <ns3:hr>102</ns3:hr>
            <ns3:cad>0</ns3:cad>
          </ns3:TrackPointExtension>
        </extensions>
      </trkpt>
      <trkpt lat="37.76025091297924518585205078125" lon="-107.70617701113224029541015625">
        <ele>3646.39990234375</ele>
        <time>2023-07-29T17:50:03.000Z</time>
        <extensions>
          <ns3:TrackPointExtension>
            <ns3:hr>102</ns3:hr>
            <ns3:cad>0</ns3:cad>
          </ns3:TrackPointExtension>
        </extensions>
      </trkpt>
      <trkpt lat="37.76024286635220050811767578125" lon="-107.70617642439901828765869140625">
        <ele>3646.39990234375</ele>
        <time>2023-07-29T17:50:04.000Z</time>
        <extensions>
          <ns3:TrackPointExtension>
            <ns3:hr>102</ns3:hr>
            <ns3:cad>45</ns3:cad>
          </ns3:TrackPointExtension>
        </extensions>
      </trkpt>
      <trkpt lat="37.76023699901998043060302734375" lon="-107.7061758376657962799072265625">
        <ele>3646.39990234375</ele>
        <time>2023-07-29T17:50:05.000Z</time>
        <extensions>
          <ns3:TrackPointExtension>
            <ns3:hr>102</ns3:hr>
            <ns3:cad>45</ns3:cad>
          </ns3:TrackPointExtension>
        </extensions>
      </trkpt>
      <trkpt lat="37.76022761128842830657958984375" lon="-107.706174664199352264404296875">
        <ele>3646.60009765625</ele>
        <time>2023-07-29T17:50:06.000Z</time>
        <extensions>
          <ns3:TrackPointExtension>
            <ns3:hr>102</ns3:hr>
            <ns3:cad>45</ns3:cad>
          </ns3:TrackPointExtension>
        </extensions>
      </trkpt>
      <trkpt lat="37.76021897792816162109375" lon="-107.70617441274225711822509765625">
        <ele>3646.60009765625</ele>
        <time>2023-07-29T17:50:07.000Z</time>
        <extensions>
          <ns3:TrackPointExtension>
            <ns3:hr>103</ns3:hr>
            <ns3:cad>45</ns3:cad>
          </ns3:TrackPointExtension>
        </extensions>
      </trkpt>
      <trkpt lat="37.7602124400436878204345703125" lon="-107.7061748318374156951904296875">
        <ele>3646.800048828125</ele>
        <time>2023-07-29T17:50:08.000Z</time>
        <extensions>
          <ns3:TrackPointExtension>
            <ns3:hr>104</ns3:hr>
            <ns3:cad>0</ns3:cad>
          </ns3:TrackPointExtension>
        </extensions>
      </trkpt>
      <trkpt lat="37.76020933873951435089111328125" lon="-107.7061761729419231414794921875">
        <ele>3646.800048828125</ele>
        <time>2023-07-29T17:50:09.000Z</time>
        <extensions>
          <ns3:TrackPointExtension>
            <ns3:hr>105</ns3:hr>
            <ns3:cad>0</ns3:cad>
          </ns3:TrackPointExtension>
        </extensions>
      </trkpt>
      <trkpt lat="37.76020179502665996551513671875" lon="-107.70617525093257427215576171875">
        <ele>3646.800048828125</ele>
        <time>2023-07-29T17:50:10.000Z</time>
        <extensions>
          <ns3:TrackPointExtension>
            <ns3:hr>109</ns3:hr>
            <ns3:cad>0</ns3:cad>
          </ns3:TrackPointExtension>
        </extensions>
      </trkpt>
      <trkpt lat="37.76019240729510784149169921875" lon="-107.7061744965612888336181640625">
        <ele>3646.800048828125</ele>
        <time>2023-07-29T17:50:11.000Z</time>
        <extensions>
          <ns3:TrackPointExtension>
            <ns3:hr>110</ns3:hr>
            <ns3:cad>0</ns3:cad>
          </ns3:TrackPointExtension>
        </extensions>
      </trkpt>
      <trkpt lat="37.76018922217190265655517578125" lon="-107.70617407746613025665283203125">
        <ele>3646.60009765625</ele>
        <time>2023-07-29T17:50:12.000Z</time>
        <extensions>
          <ns3:TrackPointExtension>
            <ns3:hr>111</ns3:hr>
            <ns3:cad>0</ns3:cad>
          </ns3:TrackPointExtension>
        </extensions>
      </trkpt>
      <trkpt lat="37.7601879648864269256591796875" lon="-107.70617240108549594879150390625">
        <ele>3646.60009765625</ele>
        <time>2023-07-29T17:50:13.000Z</time>
        <extensions>
          <ns3:TrackPointExtension>
            <ns3:hr>111</ns3:hr>
            <ns3:cad>0</ns3:cad>
          </ns3:TrackPointExtension>
        </extensions>
      </trkpt>
      <trkpt lat="37.7601758949458599090576171875" lon="-107.70616804249584674835205078125">
        <ele>3646.60009765625</ele>
        <time>2023-07-29T17:50:14.000Z</time>
        <extensions>
          <ns3:TrackPointExtension>
            <ns3:hr>111</ns3:hr>
            <ns3:cad>0</ns3:cad>
          </ns3:TrackPointExtension>
        </extensions>
      </trkpt>
      <trkpt lat="37.76016273535788059234619140625" lon="-107.70616301335394382476806640625">
        <ele>3646.39990234375</ele>
        <time>2023-07-29T17:50:15.000Z</time>
        <extensions>
          <ns3:TrackPointExtension>
            <ns3:hr>111</ns3:hr>
            <ns3:cad>53</ns3:cad>
          </ns3:TrackPointExtension>
        </extensions>
      </trkpt>
      <trkpt lat="37.7601480670273303985595703125" lon="-107.706153206527233123779296875">
        <ele>3646.39990234375</ele>
        <time>2023-07-29T17:50:16.000Z</time>
        <extensions>
          <ns3:TrackPointExtension>
            <ns3:hr>111</ns3:hr>
            <ns3:cad>53</ns3:cad>
          </ns3:TrackPointExtension>
        </extensions>
      </trkpt>
      <trkpt lat="37.760133482515811920166015625" lon="-107.70614474080502986907958984375">
        <ele>3646.39990234375</ele>
        <time>2023-07-29T17:50:17.000Z</time>
        <extensions>
          <ns3:TrackPointExtension>
            <ns3:hr>111</ns3:hr>
            <ns3:cad>53</ns3:cad>
          </ns3:TrackPointExtension>
        </extensions>
      </trkpt>
      <trkpt lat="37.76013121940195560455322265625" lon="-107.7061376161873340606689453125">
        <ele>3646.39990234375</ele>
        <time>2023-07-29T17:50:18.000Z</time>
        <extensions>
          <ns3:TrackPointExtension>
            <ns3:hr>111</ns3:hr>
            <ns3:cad>53</ns3:cad>
          </ns3:TrackPointExtension>
        </extensions>
      </trkpt>
      <trkpt lat="37.76012308895587921142578125" lon="-107.7061320841312408447265625">
        <ele>3646.39990234375</ele>
        <time>2023-07-29T17:50:19.000Z</time>
        <extensions>
          <ns3:TrackPointExtension>
            <ns3:hr>111</ns3:hr>
            <ns3:cad>55</ns3:cad>
          </ns3:TrackPointExtension>
        </extensions>
      </trkpt>
      <trkpt lat="37.76011613197624683380126953125" lon="-107.7061272226274013519287109375">
        <ele>3646.39990234375</ele>
        <time>2023-07-29T17:50:20.000Z</time>
        <extensions>
          <ns3:TrackPointExtension>
            <ns3:hr>111</ns3:hr>
            <ns3:cad>55</ns3:cad>
          </ns3:TrackPointExtension>
        </extensions>
      </trkpt>
      <trkpt lat="37.76011093519628047943115234375" lon="-107.70612479187548160552978515625">
        <ele>3646.199951171875</ele>
        <time>2023-07-29T17:50:21.000Z</time>
        <extensions>
          <ns3:TrackPointExtension>
            <ns3:hr>111</ns3:hr>
            <ns3:cad>55</ns3:cad>
          </ns3:TrackPointExtension>
        </extensions>
      </trkpt>
      <trkpt lat="37.7600969374179840087890625" lon="-107.7061191760003566741943359375">
        <ele>3646.199951171875</ele>
        <time>2023-07-29T17:50:22.000Z</time>
        <extensions>
          <ns3:TrackPointExtension>
            <ns3:hr>111</ns3:hr>
            <ns3:cad>0</ns3:cad>
          </ns3:TrackPointExtension>
        </extensions>
      </trkpt>
      <trkpt lat="37.76008092798292636871337890625" lon="-107.70610861480236053466796875">
        <ele>3646.199951171875</ele>
        <time>2023-07-29T17:50:23.000Z</time>
        <extensions>
          <ns3:TrackPointExtension>
            <ns3:hr>111</ns3:hr>
            <ns3:cad>0</ns3:cad>
          </ns3:TrackPointExtension>
        </extensions>
      </trkpt>
      <trkpt lat="37.7600702829658985137939453125" lon="-107.706102244555950164794921875">
        <ele>3646.199951171875</ele>
        <time>2023-07-29T17:50:24.000Z</time>
        <extensions>
          <ns3:TrackPointExtension>
            <ns3:hr>111</ns3:hr>
            <ns3:cad>0</ns3:cad>
          </ns3:TrackPointExtension>
        </extensions>
      </trkpt>
      <trkpt lat="37.7600602246820926666259765625" lon="-107.706096209585666656494140625">
        <ele>3646</ele>
        <time>2023-07-29T17:50:25.000Z</time>
        <extensions>
          <ns3:TrackPointExtension>
            <ns3:hr>111</ns3:hr>
            <ns3:cad>0</ns3:cad>
          </ns3:TrackPointExtension>
        </extensions>
      </trkpt>
      <trkpt lat="37.7600538544356822967529296875" lon="-107.70609696395695209503173828125">
        <ele>3646</ele>
        <time>2023-07-29T17:50:26.000Z</time>
        <extensions>
          <ns3:TrackPointExtension>
            <ns3:hr>111</ns3:hr>
            <ns3:cad>0</ns3:cad>
          </ns3:TrackPointExtension>
        </extensions>
      </trkpt>
      <trkpt lat="37.7600478194653987884521484375" lon="-107.70609545521438121795654296875">
        <ele>3646</ele>
        <time>2023-07-29T17:50:27.000Z</time>
        <extensions>
          <ns3:TrackPointExtension>
            <ns3:hr>111</ns3:hr>
            <ns3:cad>0</ns3:cad>
          </ns3:TrackPointExtension>
        </extensions>
      </trkpt>
      <trkpt lat="37.760044299066066741943359375" lon="-107.70609252154827117919921875">
        <ele>3646</ele>
        <time>2023-07-29T17:50:28.000Z</time>
        <extensions>
          <ns3:TrackPointExtension>
            <ns3:hr>111</ns3:hr>
            <ns3:cad>0</ns3:cad>
          </ns3:TrackPointExtension>
        </extensions>
      </trkpt>
      <trkpt lat="37.76003583334386348724365234375" lon="-107.70608858205378055572509765625">
        <ele>3646.199951171875</ele>
        <time>2023-07-29T17:50:29.000Z</time>
        <extensions>
          <ns3:TrackPointExtension>
            <ns3:hr>111</ns3:hr>
            <ns3:cad>0</ns3:cad>
          </ns3:TrackPointExtension>
        </extensions>
      </trkpt>
      <trkpt lat="37.7600320614874362945556640625" lon="-107.70608447492122650146484375">
        <ele>3646.199951171875</ele>
        <time>2023-07-29T17:50:30.000Z</time>
        <extensions>
          <ns3:TrackPointExtension>
            <ns3:hr>111</ns3:hr>
            <ns3:cad>0</ns3:cad>
          </ns3:TrackPointExtension>
        </extensions>
      </trkpt>
      <trkpt lat="37.76002921164035797119140625" lon="-107.7060838043689727783203125">
        <ele>3646.199951171875</ele>
        <time>2023-07-29T17:50:31.000Z</time>
        <extensions>
          <ns3:TrackPointExtension>
            <ns3:hr>111</ns3:hr>
            <ns3:cad>0</ns3:cad>
          </ns3:TrackPointExtension>
        </extensions>
      </trkpt>
      <trkpt lat="37.760023176670074462890625" lon="-107.70608187653124332427978515625">
        <ele>3646.199951171875</ele>
        <time>2023-07-29T17:50:32.000Z</time>
        <extensions>
          <ns3:TrackPointExtension>
            <ns3:hr>110</ns3:hr>
            <ns3:cad>0</ns3:cad>
          </ns3:TrackPointExtension>
        </extensions>
      </trkpt>
      <trkpt lat="37.760023176670074462890625" lon="-107.7060811221599578857421875">
        <ele>3646.199951171875</ele>
        <time>2023-07-29T17:50:33.000Z</time>
        <extensions>
          <ns3:TrackPointExtension>
            <ns3:hr>109</ns3:hr>
            <ns3:cad>0</ns3:cad>
          </ns3:TrackPointExtension>
        </extensions>
      </trkpt>
      <trkpt lat="37.76002326048910617828369140625" lon="-107.706081457436084747314453125">
        <ele>3646.199951171875</ele>
        <time>2023-07-29T17:50:34.000Z</time>
        <extensions>
          <ns3:TrackPointExtension>
            <ns3:hr>109</ns3:hr>
            <ns3:cad>0</ns3:cad>
          </ns3:TrackPointExtension>
        </extensions>
      </trkpt>
      <trkpt lat="37.76002242229878902435302734375" lon="-107.7060833014547824859619140625">
        <ele>3645.800048828125</ele>
        <time>2023-07-29T17:50:35.000Z</time>
        <extensions>
          <ns3:TrackPointExtension>
            <ns3:hr>108</ns3:hr>
            <ns3:cad>0</ns3:cad>
          </ns3:TrackPointExtension>
        </extensions>
      </trkpt>
      <trkpt lat="37.76001705788075923919677734375" lon="-107.7060866542160511016845703125">
        <ele>3645.800048828125</ele>
        <time>2023-07-29T17:50:36.000Z</time>
        <extensions>
          <ns3:TrackPointExtension>
            <ns3:hr>108</ns3:hr>
            <ns3:cad>0</ns3:cad>
          </ns3:TrackPointExtension>
        </extensions>
      </trkpt>
      <trkpt lat="37.76001689024269580841064453125" lon="-107.70608908496797084808349609375">
        <ele>3645.60009765625</ele>
        <time>2023-07-29T17:50:37.000Z</time>
        <extensions>
          <ns3:TrackPointExtension>
            <ns3:hr>108</ns3:hr>
            <ns3:cad>0</ns3:cad>
          </ns3:TrackPointExtension>
        </extensions>
      </trkpt>
      <trkpt lat="37.76001420803368091583251953125" lon="-107.70609076134860515594482421875">
        <ele>3645.39990234375</ele>
        <time>2023-07-29T17:50:38.000Z</time>
        <extensions>
          <ns3:TrackPointExtension>
            <ns3:hr>108</ns3:hr>
            <ns3:cad>0</ns3:cad>
          </ns3:TrackPointExtension>
        </extensions>
      </trkpt>
      <trkpt lat="37.76001420803368091583251953125" lon="-107.70609394647181034088134765625">
        <ele>3645</ele>
        <time>2023-07-29T17:50:39.000Z</time>
        <extensions>
          <ns3:TrackPointExtension>
            <ns3:hr>108</ns3:hr>
            <ns3:cad>0</ns3:cad>
          </ns3:TrackPointExtension>
        </extensions>
      </trkpt>
      <trkpt lat="37.76001454330980777740478515625" lon="-107.7060977183282375335693359375">
        <ele>3644.800048828125</ele>
        <time>2023-07-29T17:50:40.000Z</time>
        <extensions>
          <ns3:TrackPointExtension>
            <ns3:hr>108</ns3:hr>
            <ns3:cad>0</ns3:cad>
          </ns3:TrackPointExtension>
        </extensions>
      </trkpt>
      <trkpt lat="37.7600136213004589080810546875" lon="-107.7061000652611255645751953125">
        <ele>3644.60009765625</ele>
        <time>2023-07-29T17:50:41.000Z</time>
        <extensions>
          <ns3:TrackPointExtension>
            <ns3:hr>108</ns3:hr>
            <ns3:cad>0</ns3:cad>
          </ns3:TrackPointExtension>
        </extensions>
      </trkpt>
      <trkpt lat="37.7600116096436977386474609375" lon="-107.70610685460269451141357421875">
        <ele>3644.39990234375</ele>
        <time>2023-07-29T17:50:42.000Z</time>
        <extensions>
          <ns3:TrackPointExtension>
            <ns3:hr>108</ns3:hr>
            <ns3:cad>0</ns3:cad>
          </ns3:TrackPointExtension>
        </extensions>
      </trkpt>
      <trkpt lat="37.7600149624049663543701171875" lon="-107.7061081118881702423095703125">
        <ele>3644.39990234375</ele>
        <time>2023-07-29T17:50:43.000Z</time>
        <extensions>
          <ns3:TrackPointExtension>
            <ns3:hr>108</ns3:hr>
            <ns3:cad>0</ns3:cad>
          </ns3:TrackPointExtension>
        </extensions>
      </trkpt>
      <trkpt lat="37.76001286692917346954345703125" lon="-107.70611129701137542724609375">
        <ele>3644</ele>
        <time>2023-07-29T17:50:44.000Z</time>
        <extensions>
          <ns3:TrackPointExtension>
            <ns3:hr>108</ns3:hr>
            <ns3:cad>68</ns3:cad>
          </ns3:TrackPointExtension>
        </extensions>
      </trkpt>
      <trkpt lat="37.7600084245204925537109375" lon="-107.70611263811588287353515625">
        <ele>3643.800048828125</ele>
        <time>2023-07-29T17:50:45.000Z</time>
        <extensions>
          <ns3:TrackPointExtension>
            <ns3:hr>107</ns3:hr>
            <ns3:cad>68</ns3:cad>
          </ns3:TrackPointExtension>
        </extensions>
      </trkpt>
      <trkpt lat="37.7600022219121456146240234375" lon="-107.7061081118881702423095703125">
        <ele>3643.800048828125</ele>
        <time>2023-07-29T17:50:46.000Z</time>
        <extensions>
          <ns3:TrackPointExtension>
            <ns3:hr>107</ns3:hr>
            <ns3:cad>0</ns3:cad>
          </ns3:TrackPointExtension>
        </extensions>
      </trkpt>
      <trkpt lat="37.75999191217124462127685546875" lon="-107.7061025798320770263671875">
        <ele>3643.60009765625</ele>
        <time>2023-07-29T17:50:47.000Z</time>
        <extensions>
          <ns3:TrackPointExtension>
            <ns3:hr>106</ns3:hr>
            <ns3:cad>0</ns3:cad>
          </ns3:TrackPointExtension>
        </extensions>
      </trkpt>
      <trkpt lat="37.7599777467548847198486328125" lon="-107.70609654486179351806640625">
        <ele>3643.60009765625</ele>
        <time>2023-07-29T17:50:48.000Z</time>
        <extensions>
          <ns3:TrackPointExtension>
            <ns3:hr>106</ns3:hr>
            <ns3:cad>55</ns3:cad>
          </ns3:TrackPointExtension>
        </extensions>
      </trkpt>
      <trkpt lat="37.7599616535007953643798828125" lon="-107.70609059371054172515869140625">
        <ele>3643.60009765625</ele>
        <time>2023-07-29T17:50:49.000Z</time>
        <extensions>
          <ns3:TrackPointExtension>
            <ns3:hr>106</ns3:hr>
            <ns3:cad>55</ns3:cad>
          </ns3:TrackPointExtension>
        </extensions>
      </trkpt>
      <trkpt lat="37.75994698517024517059326171875" lon="-107.70607885904610157012939453125">
        <ele>3643.39990234375</ele>
        <time>2023-07-29T17:50:50.000Z</time>
        <extensions>
          <ns3:TrackPointExtension>
            <ns3:hr>105</ns3:hr>
            <ns3:cad>55</ns3:cad>
          </ns3:TrackPointExtension>
        </extensions>
      </trkpt>
      <trkpt lat="37.7599371783435344696044921875" lon="-107.70607500337064266204833984375">
        <ele>3643.199951171875</ele>
        <time>2023-07-29T17:50:51.000Z</time>
        <extensions>
          <ns3:TrackPointExtension>
            <ns3:hr>105</ns3:hr>
            <ns3:cad>55</ns3:cad>
          </ns3:TrackPointExtension>
        </extensions>
      </trkpt>
      <trkpt lat="37.7599274553358554840087890625" lon="-107.70607030950486660003662109375">
        <ele>3643</ele>
        <time>2023-07-29T17:50:52.000Z</time>
        <extensions>
          <ns3:TrackPointExtension>
            <ns3:hr>105</ns3:hr>
            <ns3:cad>55</ns3:cad>
          </ns3:TrackPointExtension>
        </extensions>
      </trkpt>
      <trkpt lat="37.7599224261939525604248046875" lon="-107.7060715667903423309326171875">
        <ele>3642.800048828125</ele>
        <time>2023-07-29T17:50:53.000Z</time>
        <extensions>
          <ns3:TrackPointExtension>
            <ns3:hr>105</ns3:hr>
            <ns3:cad>55</ns3:cad>
          </ns3:TrackPointExtension>
        </extensions>
      </trkpt>
      <trkpt lat="37.75991848669946193695068359375" lon="-107.706072740256786346435546875">
        <ele>3642.800048828125</ele>
        <time>2023-07-29T17:50:54.000Z</time>
        <extensions>
          <ns3:TrackPointExtension>
            <ns3:hr>105</ns3:hr>
            <ns3:cad>55</ns3:cad>
          </ns3:TrackPointExtension>
        </extensions>
      </trkpt>
      <trkpt lat="37.75991228409111499786376953125" lon="-107.7060776017606258392333984375">
        <ele>3642.60009765625</ele>
        <time>2023-07-29T17:50:55.000Z</time>
        <extensions>
          <ns3:TrackPointExtension>
            <ns3:hr>105</ns3:hr>
            <ns3:cad>55</ns3:cad>
          </ns3:TrackPointExtension>
        </extensions>
      </trkpt>
      <trkpt lat="37.7598976157605648040771484375" lon="-107.70608187653124332427978515625">
        <ele>3642.60009765625</ele>
        <time>2023-07-29T17:50:56.000Z</time>
        <extensions>
          <ns3:TrackPointExtension>
            <ns3:hr>105</ns3:hr>
            <ns3:cad>0</ns3:cad>
          </ns3:TrackPointExtension>
        </extensions>
      </trkpt>
      <trkpt lat="37.75988378562033176422119140625" lon="-107.7060819603502750396728515625">
        <ele>3642.60009765625</ele>
        <time>2023-07-29T17:50:57.000Z</time>
        <extensions>
          <ns3:TrackPointExtension>
            <ns3:hr>105</ns3:hr>
            <ns3:cad>0</ns3:cad>
          </ns3:TrackPointExtension>
        </extensions>
      </trkpt>
      <trkpt lat="37.7598734758794307708740234375" lon="-107.70608304999768733978271484375">
        <ele>3642.39990234375</ele>
        <time>2023-07-29T17:50:58.000Z</time>
        <extensions>
          <ns3:TrackPointExtension>
            <ns3:hr>105</ns3:hr>
            <ns3:cad>0</ns3:cad>
          </ns3:TrackPointExtension>
        </extensions>
      </trkpt>
      <trkpt lat="37.75986693799495697021484375" lon="-107.70607776939868927001953125">
        <ele>3642.39990234375</ele>
        <time>2023-07-29T17:50:59.000Z</time>
        <extensions>
          <ns3:TrackPointExtension>
            <ns3:hr>105</ns3:hr>
            <ns3:cad>0</ns3:cad>
          </ns3:TrackPointExtension>
        </extensions>
      </trkpt>
      <trkpt lat="37.7598609030246734619140625" lon="-107.70607776939868927001953125">
        <ele>3642.39990234375</ele>
        <time>2023-07-29T17:51:00.000Z</time>
        <extensions>
          <ns3:TrackPointExtension>
            <ns3:hr>105</ns3:hr>
            <ns3:cad>0</ns3:cad>
          </ns3:TrackPointExtension>
        </extensions>
      </trkpt>
      <trkpt lat="37.75985755026340484619140625" lon="-107.70607776939868927001953125">
        <ele>3642.39990234375</ele>
        <time>2023-07-29T17:51:01.000Z</time>
        <extensions>
          <ns3:TrackPointExtension>
            <ns3:hr>105</ns3:hr>
            <ns3:cad>0</ns3:cad>
          </ns3:TrackPointExtension>
        </extensions>
      </trkpt>
      <trkpt lat="37.75985495187342166900634765625" lon="-107.706078775227069854736328125">
        <ele>3642.199951171875</ele>
        <time>2023-07-29T17:51:02.000Z</time>
        <extensions>
          <ns3:TrackPointExtension>
            <ns3:hr>105</ns3:hr>
            <ns3:cad>0</ns3:cad>
          </ns3:TrackPointExtension>
        </extensions>
      </trkpt>
      <trkpt lat="37.75984891690313816070556640625" lon="-107.7060806192457675933837890625">
        <ele>3642.199951171875</ele>
        <time>2023-07-29T17:51:03.000Z</time>
        <extensions>
          <ns3:TrackPointExtension>
            <ns3:hr>105</ns3:hr>
            <ns3:cad>0</ns3:cad>
          </ns3:TrackPointExtension>
        </extensions>
      </trkpt>
      <trkpt lat="37.7598433010280132293701171875" lon="-107.7060819603502750396728515625">
        <ele>3642</ele>
        <time>2023-07-29T17:51:04.000Z</time>
        <extensions>
          <ns3:TrackPointExtension>
            <ns3:hr>105</ns3:hr>
            <ns3:cad>0</ns3:cad>
          </ns3:TrackPointExtension>
        </extensions>
      </trkpt>
      <trkpt lat="37.759839780628681182861328125" lon="-107.70608288235962390899658203125">
        <ele>3642</ele>
        <time>2023-07-29T17:51:05.000Z</time>
        <extensions>
          <ns3:TrackPointExtension>
            <ns3:hr>105</ns3:hr>
            <ns3:cad>0</ns3:cad>
          </ns3:TrackPointExtension>
        </extensions>
      </trkpt>
      <trkpt lat="37.75984237901866436004638671875" lon="-107.7060796134173870086669921875">
        <ele>3642</ele>
        <time>2023-07-29T17:51:06.000Z</time>
        <extensions>
          <ns3:TrackPointExtension>
            <ns3:hr>105</ns3:hr>
            <ns3:cad>0</ns3:cad>
          </ns3:TrackPointExtension>
        </extensions>
      </trkpt>
      <trkpt lat="37.759833745658397674560546875" lon="-107.70607835613191127777099609375">
        <ele>3642</ele>
        <time>2023-07-29T17:51:07.000Z</time>
        <extensions>
          <ns3:TrackPointExtension>
            <ns3:hr>104</ns3:hr>
            <ns3:cad>0</ns3:cad>
          </ns3:TrackPointExtension>
        </extensions>
      </trkpt>
      <trkpt lat="37.75982326827943325042724609375" lon="-107.706076763570308685302734375">
        <ele>3641.60009765625</ele>
        <time>2023-07-29T17:51:08.000Z</time>
        <extensions>
          <ns3:TrackPointExtension>
            <ns3:hr>104</ns3:hr>
            <ns3:cad>0</ns3:cad>
          </ns3:TrackPointExtension>
        </extensions>
      </trkpt>
      <trkpt lat="37.75980524718761444091796875" lon="-107.7060749195516109466552734375">
        <ele>3641.39990234375</ele>
        <time>2023-07-29T17:51:09.000Z</time>
        <extensions>
          <ns3:TrackPointExtension>
            <ns3:hr>104</ns3:hr>
            <ns3:cad>0</ns3:cad>
          </ns3:TrackPointExtension>
        </extensions>
      </trkpt>
      <trkpt lat="37.75979108177125453948974609375" lon="-107.7060725726187229156494140625">
        <ele>3641.39990234375</ele>
        <time>2023-07-29T17:51:10.000Z</time>
        <extensions>
          <ns3:TrackPointExtension>
            <ns3:hr>104</ns3:hr>
            <ns3:cad>0</ns3:cad>
          </ns3:TrackPointExtension>
        </extensions>
      </trkpt>
      <trkpt lat="37.759776078164577484130859375" lon="-107.70606779493391513824462890625">
        <ele>3641</ele>
        <time>2023-07-29T17:51:11.000Z</time>
        <extensions>
          <ns3:TrackPointExtension>
            <ns3:hr>103</ns3:hr>
            <ns3:cad>0</ns3:cad>
          </ns3:TrackPointExtension>
        </extensions>
      </trkpt>
      <trkpt lat="37.75976945646107196807861328125" lon="-107.70606460981070995330810546875">
        <ele>3641</ele>
        <time>2023-07-29T17:51:12.000Z</time>
        <extensions>
          <ns3:TrackPointExtension>
            <ns3:hr>102</ns3:hr>
            <ns3:cad>0</ns3:cad>
          </ns3:TrackPointExtension>
        </extensions>
      </trkpt>
      <trkpt lat="37.7597591467201709747314453125" lon="-107.706061340868473052978515625">
        <ele>3640.800048828125</ele>
        <time>2023-07-29T17:51:13.000Z</time>
        <extensions>
          <ns3:TrackPointExtension>
            <ns3:hr>97</ns3:hr>
            <ns3:cad>0</ns3:cad>
          </ns3:TrackPointExtension>
        </extensions>
      </trkpt>
      <trkpt lat="37.7597574703395366668701171875" lon="-107.70606033504009246826171875">
        <ele>3640.800048828125</ele>
        <time>2023-07-29T17:51:14.000Z</time>
        <extensions>
          <ns3:TrackPointExtension>
            <ns3:hr>95</ns3:hr>
            <ns3:cad>0</ns3:cad>
          </ns3:TrackPointExtension>
        </extensions>
      </trkpt>
      <trkpt lat="37.75976040400564670562744140625" lon="-107.70605874247848987579345703125">
        <ele>3640.800048828125</ele>
        <time>2023-07-29T17:51:15.000Z</time>
        <extensions>
          <ns3:TrackPointExtension>
            <ns3:hr>94</ns3:hr>
            <ns3:cad>0</ns3:cad>
          </ns3:TrackPointExtension>
        </extensions>
      </trkpt>
      <trkpt lat="37.7597628347575664520263671875" lon="-107.706059329211711883544921875">
        <ele>3640.800048828125</ele>
        <time>2023-07-29T17:51:16.000Z</time>
        <extensions>
          <ns3:TrackPointExtension>
            <ns3:hr>94</ns3:hr>
            <ns3:cad>0</ns3:cad>
          </ns3:TrackPointExtension>
        </extensions>
      </trkpt>
      <trkpt lat="37.75975990109145641326904296875" lon="-107.70605891011655330657958984375">
        <ele>3640.60009765625</ele>
        <time>2023-07-29T17:51:17.000Z</time>
        <extensions>
          <ns3:TrackPointExtension>
            <ns3:hr>94</ns3:hr>
            <ns3:cad>0</ns3:cad>
          </ns3:TrackPointExtension>
        </extensions>
      </trkpt>
      <trkpt lat="37.7597536146640777587890625" lon="-107.70605941303074359893798828125">
        <ele>3640.39990234375</ele>
        <time>2023-07-29T17:51:18.000Z</time>
        <extensions>
          <ns3:TrackPointExtension>
            <ns3:hr>94</ns3:hr>
            <ns3:cad>0</ns3:cad>
          </ns3:TrackPointExtension>
        </extensions>
      </trkpt>
      <trkpt lat="37.7597467415034770965576171875" lon="-107.70605639554560184478759765625">
        <ele>3640.39990234375</ele>
        <time>2023-07-29T17:51:19.000Z</time>
        <extensions>
          <ns3:TrackPointExtension>
            <ns3:hr>94</ns3:hr>
            <ns3:cad>0</ns3:cad>
          </ns3:TrackPointExtension>
        </extensions>
      </trkpt>
      <trkpt lat="37.75973978452384471893310546875" lon="-107.70605471916496753692626953125">
        <ele>3640.199951171875</ele>
        <time>2023-07-29T17:51:20.000Z</time>
        <extensions>
          <ns3:TrackPointExtension>
            <ns3:hr>94</ns3:hr>
            <ns3:cad>0</ns3:cad>
          </ns3:TrackPointExtension>
        </extensions>
      </trkpt>
      <trkpt lat="37.75973643176257610321044921875" lon="-107.70605203695595264434814453125">
        <ele>3640.199951171875</ele>
        <time>2023-07-29T17:51:21.000Z</time>
        <extensions>
          <ns3:TrackPointExtension>
            <ns3:hr>94</ns3:hr>
            <ns3:cad>0</ns3:cad>
          </ns3:TrackPointExtension>
        </extensions>
      </trkpt>
      <trkpt lat="37.7597286365926265716552734375" lon="-107.7060487680137157440185546875">
        <ele>3640</ele>
        <time>2023-07-29T17:51:22.000Z</time>
        <extensions>
          <ns3:TrackPointExtension>
            <ns3:hr>94</ns3:hr>
            <ns3:cad>0</ns3:cad>
          </ns3:TrackPointExtension>
        </extensions>
      </trkpt>
      <trkpt lat="37.7597252838313579559326171875" lon="-107.706046588718891143798828125">
        <ele>3639.800048828125</ele>
        <time>2023-07-29T17:51:23.000Z</time>
        <extensions>
          <ns3:TrackPointExtension>
            <ns3:hr>94</ns3:hr>
            <ns3:cad>0</ns3:cad>
          </ns3:TrackPointExtension>
        </extensions>
      </trkpt>
      <trkpt lat="37.7597202546894550323486328125" lon="-107.70604533143341541290283203125">
        <ele>3639.60009765625</ele>
        <time>2023-07-29T17:51:24.000Z</time>
        <extensions>
          <ns3:TrackPointExtension>
            <ns3:hr>94</ns3:hr>
            <ns3:cad>0</ns3:cad>
          </ns3:TrackPointExtension>
        </extensions>
      </trkpt>
      <trkpt lat="37.7597222663462162017822265625" lon="-107.70604424178600311279296875">
        <ele>3639.39990234375</ele>
        <time>2023-07-29T17:51:25.000Z</time>
        <extensions>
          <ns3:TrackPointExtension>
            <ns3:hr>94</ns3:hr>
            <ns3:cad>0</ns3:cad>
          </ns3:TrackPointExtension>
        </extensions>
      </trkpt>
      <trkpt lat="37.75971681810915470123291015625" lon="-107.70604264922440052032470703125">
        <ele>3639.199951171875</ele>
        <time>2023-07-29T17:51:26.000Z</time>
        <extensions>
          <ns3:TrackPointExtension>
            <ns3:hr>94</ns3:hr>
            <ns3:cad>0</ns3:cad>
          </ns3:TrackPointExtension>
        </extensions>
      </trkpt>
      <trkpt lat="37.75971061550080776214599609375" lon="-107.7060400508344173431396484375">
        <ele>3639.199951171875</ele>
        <time>2023-07-29T17:51:27.000Z</time>
        <extensions>
          <ns3:TrackPointExtension>
            <ns3:hr>94</ns3:hr>
            <ns3:cad>0</ns3:cad>
          </ns3:TrackPointExtension>
        </extensions>
      </trkpt>
      <trkpt lat="37.7597031556069850921630859375" lon="-107.70604021847248077392578125">
        <ele>3639.199951171875</ele>
        <time>2023-07-29T17:51:28.000Z</time>
        <extensions>
          <ns3:TrackPointExtension>
            <ns3:hr>94</ns3:hr>
            <ns3:cad>0</ns3:cad>
          </ns3:TrackPointExtension>
        </extensions>
      </trkpt>
      <trkpt lat="37.75969904847443103790283203125" lon="-107.7060420624911785125732421875">
        <ele>3639.199951171875</ele>
        <time>2023-07-29T17:51:29.000Z</time>
        <extensions>
          <ns3:TrackPointExtension>
            <ns3:hr>94</ns3:hr>
            <ns3:cad>0</ns3:cad>
          </ns3:TrackPointExtension>
        </extensions>
      </trkpt>
      <trkpt lat="37.75969066657125949859619140625" lon="-107.70604432560503482818603515625">
        <ele>3639</ele>
        <time>2023-07-29T17:51:30.000Z</time>
        <extensions>
          <ns3:TrackPointExtension>
            <ns3:hr>94</ns3:hr>
            <ns3:cad>0</ns3:cad>
          </ns3:TrackPointExtension>
        </extensions>
      </trkpt>
      <trkpt lat="37.75967775844037532806396484375" lon="-107.7060449123382568359375">
        <ele>3638.800048828125</ele>
        <time>2023-07-29T17:51:31.000Z</time>
        <extensions>
          <ns3:TrackPointExtension>
            <ns3:hr>94</ns3:hr>
            <ns3:cad>0</ns3:cad>
          </ns3:TrackPointExtension>
        </extensions>
      </trkpt>
      <trkpt lat="37.75967591442167758941650390625" lon="-107.70604692399501800537109375">
        <ele>3638.800048828125</ele>
        <time>2023-07-29T17:51:32.000Z</time>
        <extensions>
          <ns3:TrackPointExtension>
            <ns3:hr>95</ns3:hr>
            <ns3:cad>0</ns3:cad>
          </ns3:TrackPointExtension>
        </extensions>
      </trkpt>
      <trkpt lat="37.75967205874621868133544921875" lon="-107.70604734309017658233642578125">
        <ele>3638.60009765625</ele>
        <time>2023-07-29T17:51:33.000Z</time>
        <extensions>
          <ns3:TrackPointExtension>
            <ns3:hr>95</ns3:hr>
            <ns3:cad>0</ns3:cad>
          </ns3:TrackPointExtension>
        </extensions>
      </trkpt>
      <trkpt lat="37.7596652694046497344970703125" lon="-107.70605170167982578277587890625">
        <ele>3638.39990234375</ele>
        <time>2023-07-29T17:51:34.000Z</time>
        <extensions>
          <ns3:TrackPointExtension>
            <ns3:hr>95</ns3:hr>
            <ns3:cad>0</ns3:cad>
          </ns3:TrackPointExtension>
        </extensions>
      </trkpt>
      <trkpt lat="37.7596528641879558563232421875" lon="-107.706054635345935821533203125">
        <ele>3638.199951171875</ele>
        <time>2023-07-29T17:51:35.000Z</time>
        <extensions>
          <ns3:TrackPointExtension>
            <ns3:hr>95</ns3:hr>
            <ns3:cad>17</ns3:cad>
          </ns3:TrackPointExtension>
        </extensions>
      </trkpt>
      <trkpt lat="37.7596421353518962860107421875" lon="-107.70605765283107757568359375">
        <ele>3638</ele>
        <time>2023-07-29T17:51:36.000Z</time>
        <extensions>
          <ns3:TrackPointExtension>
            <ns3:hr>95</ns3:hr>
            <ns3:cad>17</ns3:cad>
          </ns3:TrackPointExtension>
        </extensions>
      </trkpt>
      <trkpt lat="37.75963048450648784637451171875" lon="-107.706058323383331298828125">
        <ele>3637.60009765625</ele>
        <time>2023-07-29T17:51:37.000Z</time>
        <extensions>
          <ns3:TrackPointExtension>
            <ns3:hr>95</ns3:hr>
            <ns3:cad>17</ns3:cad>
          </ns3:TrackPointExtension>
        </extensions>
      </trkpt>
      <trkpt lat="37.75961774401366710662841796875" lon="-107.70605790428817272186279296875">
        <ele>3637.39990234375</ele>
        <time>2023-07-29T17:51:38.000Z</time>
        <extensions>
          <ns3:TrackPointExtension>
            <ns3:hr>95</ns3:hr>
            <ns3:cad>17</ns3:cad>
          </ns3:TrackPointExtension>
        </extensions>
      </trkpt>
      <trkpt lat="37.7596109546720981597900390625" lon="-107.7060608379542827606201171875">
        <ele>3637.39990234375</ele>
        <time>2023-07-29T17:51:39.000Z</time>
        <extensions>
          <ns3:TrackPointExtension>
            <ns3:hr>95</ns3:hr>
            <ns3:cad>17</ns3:cad>
          </ns3:TrackPointExtension>
        </extensions>
      </trkpt>
      <trkpt lat="37.75960265658795833587646484375" lon="-107.70605974830687046051025390625">
        <ele>3637.39990234375</ele>
        <time>2023-07-29T17:51:40.000Z</time>
        <extensions>
          <ns3:TrackPointExtension>
            <ns3:hr>95</ns3:hr>
            <ns3:cad>17</ns3:cad>
          </ns3:TrackPointExtension>
        </extensions>
      </trkpt>
      <trkpt lat="37.7595978789031505584716796875" lon="-107.70606209523975849151611328125">
        <ele>3637.199951171875</ele>
        <time>2023-07-29T17:51:41.000Z</time>
        <extensions>
          <ns3:TrackPointExtension>
            <ns3:hr>95</ns3:hr>
            <ns3:cad>17</ns3:cad>
          </ns3:TrackPointExtension>
        </extensions>
      </trkpt>
      <trkpt lat="37.75959595106542110443115234375" lon="-107.70606393925845623016357421875">
        <ele>3637</ele>
        <time>2023-07-29T17:51:42.000Z</time>
        <extensions>
          <ns3:TrackPointExtension>
            <ns3:hr>95</ns3:hr>
            <ns3:cad>0</ns3:cad>
          </ns3:TrackPointExtension>
        </extensions>
      </trkpt>
      <trkpt lat="37.7595955319702625274658203125" lon="-107.7060655318200588226318359375">
        <ele>3636.800048828125</ele>
        <time>2023-07-29T17:51:43.000Z</time>
        <extensions>
          <ns3:TrackPointExtension>
            <ns3:hr>95</ns3:hr>
            <ns3:cad>0</ns3:cad>
          </ns3:TrackPointExtension>
        </extensions>
      </trkpt>
      <trkpt lat="37.7595911733806133270263671875" lon="-107.70606930367648601531982421875">
        <ele>3636.199951171875</ele>
        <time>2023-07-29T17:51:44.000Z</time>
        <extensions>
          <ns3:TrackPointExtension>
            <ns3:hr>95</ns3:hr>
            <ns3:cad>0</ns3:cad>
          </ns3:TrackPointExtension>
        </extensions>
      </trkpt>
      <trkpt lat="37.75958622805774211883544921875" lon="-107.7060735784471035003662109375">
        <ele>3636.199951171875</ele>
        <time>2023-07-29T17:51:45.000Z</time>
        <extensions>
          <ns3:TrackPointExtension>
            <ns3:hr>95</ns3:hr>
            <ns3:cad>0</ns3:cad>
          </ns3:TrackPointExtension>
        </extensions>
      </trkpt>
      <trkpt lat="37.75958069600164890289306640625" lon="-107.70607701502740383148193359375">
        <ele>3635.800048828125</ele>
        <time>2023-07-29T17:51:46.000Z</time>
        <extensions>
          <ns3:TrackPointExtension>
            <ns3:hr>96</ns3:hr>
            <ns3:cad>0</ns3:cad>
          </ns3:TrackPointExtension>
        </extensions>
      </trkpt>
      <trkpt lat="37.759579606354236602783203125" lon="-107.70608070306479930877685546875">
        <ele>3635.800048828125</ele>
        <time>2023-07-29T17:51:47.000Z</time>
        <extensions>
          <ns3:TrackPointExtension>
            <ns3:hr>96</ns3:hr>
            <ns3:cad>61</ns3:cad>
          </ns3:TrackPointExtension>
        </extensions>
      </trkpt>
      <trkpt lat="37.7595819532871246337890625" lon="-107.70608154125511646270751953125">
        <ele>3635.60009765625</ele>
        <time>2023-07-29T17:51:48.000Z</time>
        <extensions>
          <ns3:TrackPointExtension>
            <ns3:hr>96</ns3:hr>
            <ns3:cad>61</ns3:cad>
          </ns3:TrackPointExtension>
        </extensions>
      </trkpt>
      <trkpt lat="37.7595792710781097412109375" lon="-107.70608137361705303192138671875">
        <ele>3635.39990234375</ele>
        <time>2023-07-29T17:51:49.000Z</time>
        <extensions>
          <ns3:TrackPointExtension>
            <ns3:hr>96</ns3:hr>
            <ns3:cad>61</ns3:cad>
          </ns3:TrackPointExtension>
        </extensions>
      </trkpt>
      <trkpt lat="37.7595784328877925872802734375" lon="-107.70608388818800449371337890625">
        <ele>3635.199951171875</ele>
        <time>2023-07-29T17:51:50.000Z</time>
        <extensions>
          <ns3:TrackPointExtension>
            <ns3:hr>96</ns3:hr>
            <ns3:cad>61</ns3:cad>
          </ns3:TrackPointExtension>
        </extensions>
      </trkpt>
      <trkpt lat="37.759572565555572509765625" lon="-107.70608472637832164764404296875">
        <ele>3635.199951171875</ele>
        <time>2023-07-29T17:51:51.000Z</time>
        <extensions>
          <ns3:TrackPointExtension>
            <ns3:hr>97</ns3:hr>
            <ns3:cad>61</ns3:cad>
          </ns3:TrackPointExtension>
        </extensions>
      </trkpt>
      <trkpt lat="37.75957231409847736358642578125" lon="-107.7060822956264019012451171875">
        <ele>3634.800048828125</ele>
        <time>2023-07-29T17:51:52.000Z</time>
        <extensions>
          <ns3:TrackPointExtension>
            <ns3:hr>97</ns3:hr>
            <ns3:cad>61</ns3:cad>
          </ns3:TrackPointExtension>
        </extensions>
      </trkpt>
      <trkpt lat="37.75956996716558933258056640625" lon="-107.70607902668416500091552734375">
        <ele>3634.60009765625</ele>
        <time>2023-07-29T17:51:53.000Z</time>
        <extensions>
          <ns3:TrackPointExtension>
            <ns3:hr>97</ns3:hr>
            <ns3:cad>61</ns3:cad>
          </ns3:TrackPointExtension>
        </extensions>
      </trkpt>
      <trkpt lat="37.7595660276710987091064453125" lon="-107.70607106387615203857421875">
        <ele>3634.199951171875</ele>
        <time>2023-07-29T17:51:54.000Z</time>
        <extensions>
          <ns3:TrackPointExtension>
            <ns3:hr>97</ns3:hr>
            <ns3:cad>61</ns3:cad>
          </ns3:TrackPointExtension>
        </extensions>
      </trkpt>
      <trkpt lat="37.75955940596759319305419921875" lon="-107.7060648612678050994873046875">
        <ele>3634.199951171875</ele>
        <time>2023-07-29T17:51:55.000Z</time>
        <extensions>
          <ns3:TrackPointExtension>
            <ns3:hr>97</ns3:hr>
            <ns3:cad>0</ns3:cad>
          </ns3:TrackPointExtension>
        </extensions>
      </trkpt>
      <trkpt lat="37.75955085642635822296142578125" lon="-107.7060631848871707916259765625">
        <ele>3634</ele>
        <time>2023-07-29T17:51:56.000Z</time>
        <extensions>
          <ns3:TrackPointExtension>
            <ns3:hr>97</ns3:hr>
            <ns3:cad>0</ns3:cad>
          </ns3:TrackPointExtension>
        </extensions>
      </trkpt>
      <trkpt lat="37.75954918004572391510009765625" lon="-107.70605773665010929107666015625">
        <ele>3633.800048828125</ele>
        <time>2023-07-29T17:51:57.000Z</time>
        <extensions>
          <ns3:TrackPointExtension>
            <ns3:hr>97</ns3:hr>
            <ns3:cad>0</ns3:cad>
          </ns3:TrackPointExtension>
        </extensions>
      </trkpt>
      <trkpt lat="37.75954532437026500701904296875" lon="-107.70605027675628662109375">
        <ele>3633.60009765625</ele>
        <time>2023-07-29T17:51:58.000Z</time>
        <extensions>
          <ns3:TrackPointExtension>
            <ns3:hr>97</ns3:hr>
            <ns3:cad>0</ns3:cad>
          </ns3:TrackPointExtension>
        </extensions>
      </trkpt>
      <trkpt lat="37.7595371939241886138916015625" lon="-107.70604214631021022796630859375">
        <ele>3633.39990234375</ele>
        <time>2023-07-29T17:51:59.000Z</time>
        <extensions>
          <ns3:TrackPointExtension>
            <ns3:hr>97</ns3:hr>
            <ns3:cad>0</ns3:cad>
          </ns3:TrackPointExtension>
        </extensions>
      </trkpt>
      <trkpt lat="37.759535014629364013671875" lon="-107.706037871539592742919921875">
        <ele>3633.199951171875</ele>
        <time>2023-07-29T17:52:00.000Z</time>
        <extensions>
          <ns3:TrackPointExtension>
            <ns3:hr>97</ns3:hr>
            <ns3:cad>0</ns3:cad>
          </ns3:TrackPointExtension>
        </extensions>
      </trkpt>
      <trkpt lat="37.7595365233719348907470703125" lon="-107.70603887736797332763671875">
        <ele>3633</ele>
        <time>2023-07-29T17:52:01.000Z</time>
        <extensions>
          <ns3:TrackPointExtension>
            <ns3:hr>97</ns3:hr>
            <ns3:cad>0</ns3:cad>
          </ns3:TrackPointExtension>
        </extensions>
      </trkpt>
      <trkpt lat="37.759536691009998321533203125" lon="-107.70604021847248077392578125">
        <ele>3632.800048828125</ele>
        <time>2023-07-29T17:52:02.000Z</time>
        <extensions>
          <ns3:TrackPointExtension>
            <ns3:hr>96</ns3:hr>
            <ns3:cad>0</ns3:cad>
          </ns3:TrackPointExtension>
        </extensions>
      </trkpt>
      <trkpt lat="37.75953845120966434478759765625" lon="-107.70604415796697139739990234375">
        <ele>3632.800048828125</ele>
        <time>2023-07-29T17:52:03.000Z</time>
        <extensions>
          <ns3:TrackPointExtension>
            <ns3:hr>96</ns3:hr>
            <ns3:cad>0</ns3:cad>
          </ns3:TrackPointExtension>
        </extensions>
      </trkpt>
      <trkpt lat="37.759541384875774383544921875" lon="-107.7060514502227306365966796875">
        <ele>3632.800048828125</ele>
        <time>2023-07-29T17:52:04.000Z</time>
        <extensions>
          <ns3:TrackPointExtension>
            <ns3:hr>95</ns3:hr>
            <ns3:cad>0</ns3:cad>
          </ns3:TrackPointExtension>
        </extensions>
      </trkpt>
      <trkpt lat="37.759545408189296722412109375" lon="-107.70606100559234619140625">
        <ele>3632.800048828125</ele>
        <time>2023-07-29T17:52:05.000Z</time>
        <extensions>
          <ns3:TrackPointExtension>
            <ns3:hr>95</ns3:hr>
            <ns3:cad>0</ns3:cad>
          </ns3:TrackPointExtension>
        </extensions>
      </trkpt>
      <trkpt lat="37.759546749293804168701171875" lon="-107.7060625143349170684814453125">
        <ele>3632.60009765625</ele>
        <time>2023-07-29T17:52:06.000Z</time>
        <extensions>
          <ns3:TrackPointExtension>
            <ns3:hr>95</ns3:hr>
            <ns3:cad>0</ns3:cad>
          </ns3:TrackPointExtension>
        </extensions>
      </trkpt>
      <trkpt lat="37.75954750366508960723876953125" lon="-107.7060675434768199920654296875">
        <ele>3632.60009765625</ele>
        <time>2023-07-29T17:52:07.000Z</time>
        <extensions>
          <ns3:TrackPointExtension>
            <ns3:hr>95</ns3:hr>
            <ns3:cad>0</ns3:cad>
          </ns3:TrackPointExtension>
        </extensions>
      </trkpt>
      <trkpt lat="37.7595449052751064300537109375" lon="-107.7060702256858348846435546875">
        <ele>3632.60009765625</ele>
        <time>2023-07-29T17:52:08.000Z</time>
        <extensions>
          <ns3:TrackPointExtension>
            <ns3:hr>96</ns3:hr>
            <ns3:cad>59</ns3:cad>
          </ns3:TrackPointExtension>
        </extensions>
      </trkpt>
      <trkpt lat="37.7595418877899646759033203125" lon="-107.70607332699000835418701171875">
        <ele>3632.60009765625</ele>
        <time>2023-07-29T17:52:09.000Z</time>
        <extensions>
          <ns3:TrackPointExtension>
            <ns3:hr>97</ns3:hr>
            <ns3:cad>59</ns3:cad>
          </ns3:TrackPointExtension>
        </extensions>
      </trkpt>
      <trkpt lat="37.7595378644764423370361328125" lon="-107.7060789428651332855224609375">
        <ele>3632.60009765625</ele>
        <time>2023-07-29T17:52:10.000Z</time>
        <extensions>
          <ns3:TrackPointExtension>
            <ns3:hr>97</ns3:hr>
            <ns3:cad>0</ns3:cad>
          </ns3:TrackPointExtension>
        </extensions>
      </trkpt>
      <trkpt lat="37.7595348469913005828857421875" lon="-107.70608355291187763214111328125">
        <ele>3632.60009765625</ele>
        <time>2023-07-29T17:52:11.000Z</time>
        <extensions>
          <ns3:TrackPointExtension>
            <ns3:hr>97</ns3:hr>
            <ns3:cad>0</ns3:cad>
          </ns3:TrackPointExtension>
        </extensions>
      </trkpt>
      <trkpt lat="37.7595298178493976593017578125" lon="-107.7060822956264019012451171875">
        <ele>3632.60009765625</ele>
        <time>2023-07-29T17:52:12.000Z</time>
        <extensions>
          <ns3:TrackPointExtension>
            <ns3:hr>98</ns3:hr>
            <ns3:cad>0</ns3:cad>
          </ns3:TrackPointExtension>
        </extensions>
      </trkpt>
      <trkpt lat="37.759524285793304443359375" lon="-107.7060849778354167938232421875">
        <ele>3632.39990234375</ele>
        <time>2023-07-29T17:52:13.000Z</time>
        <extensions>
          <ns3:TrackPointExtension>
            <ns3:hr>99</ns3:hr>
            <ns3:cad>0</ns3:cad>
          </ns3:TrackPointExtension>
        </extensions>
      </trkpt>
      <trkpt lat="37.75951883755624294281005859375" lon="-107.70609076134860515594482421875">
        <ele>3632.39990234375</ele>
        <time>2023-07-29T17:52:14.000Z</time>
        <extensions>
          <ns3:TrackPointExtension>
            <ns3:hr>99</ns3:hr>
            <ns3:cad>0</ns3:cad>
          </ns3:TrackPointExtension>
        </extensions>
      </trkpt>
      <trkpt lat="37.75951682589948177337646484375" lon="-107.7060883305966854095458984375">
        <ele>3632.199951171875</ele>
        <time>2023-07-29T17:52:15.000Z</time>
        <extensions>
          <ns3:TrackPointExtension>
            <ns3:hr>99</ns3:hr>
            <ns3:cad>0</ns3:cad>
          </ns3:TrackPointExtension>
        </extensions>
      </trkpt>
      <trkpt lat="37.75951288640499114990234375" lon="-107.70608657039701938629150390625">
        <ele>3631.800048828125</ele>
        <time>2023-07-29T17:52:16.000Z</time>
        <extensions>
          <ns3:TrackPointExtension>
            <ns3:hr>100</ns3:hr>
            <ns3:cad>0</ns3:cad>
          </ns3:TrackPointExtension>
        </extensions>
      </trkpt>
      <trkpt lat="37.7595120482146739959716796875" lon="-107.706084810197353363037109375">
        <ele>3631.60009765625</ele>
        <time>2023-07-29T17:52:17.000Z</time>
        <extensions>
          <ns3:TrackPointExtension>
            <ns3:hr>101</ns3:hr>
            <ns3:cad>0</ns3:cad>
          </ns3:TrackPointExtension>
        </extensions>
      </trkpt>
      <trkpt lat="37.7595068514347076416015625" lon="-107.70608489401638507843017578125">
        <ele>3631.60009765625</ele>
        <time>2023-07-29T17:52:18.000Z</time>
        <extensions>
          <ns3:TrackPointExtension>
            <ns3:hr>101</ns3:hr>
            <ns3:cad>0</ns3:cad>
          </ns3:TrackPointExtension>
        </extensions>
      </trkpt>
      <trkpt lat="37.7594983018934726715087890625" lon="-107.70608304999768733978271484375">
        <ele>3631.60009765625</ele>
        <time>2023-07-29T17:52:19.000Z</time>
        <extensions>
          <ns3:TrackPointExtension>
            <ns3:hr>102</ns3:hr>
            <ns3:cad>0</ns3:cad>
          </ns3:TrackPointExtension>
        </extensions>
      </trkpt>
      <trkpt lat="37.759491764008998870849609375" lon="-107.70607986487448215484619140625">
        <ele>3631.39990234375</ele>
        <time>2023-07-29T17:52:20.000Z</time>
        <extensions>
          <ns3:TrackPointExtension>
            <ns3:hr>102</ns3:hr>
            <ns3:cad>0</ns3:cad>
          </ns3:TrackPointExtension>
        </extensions>
      </trkpt>
      <trkpt lat="37.7594912610948085784912109375" lon="-107.70607483573257923126220703125">
        <ele>3631.39990234375</ele>
        <time>2023-07-29T17:52:21.000Z</time>
        <extensions>
          <ns3:TrackPointExtension>
            <ns3:hr>102</ns3:hr>
            <ns3:cad>0</ns3:cad>
          </ns3:TrackPointExtension>
        </extensions>
      </trkpt>
      <trkpt lat="37.7594853937625885009765625" lon="-107.70607584156095981597900390625">
        <ele>3631.199951171875</ele>
        <time>2023-07-29T17:52:22.000Z</time>
        <extensions>
          <ns3:TrackPointExtension>
            <ns3:hr>102</ns3:hr>
            <ns3:cad>0</ns3:cad>
          </ns3:TrackPointExtension>
        </extensions>
      </trkpt>
      <trkpt lat="37.7594815380871295928955078125" lon="-107.706078104674816131591796875">
        <ele>3631.199951171875</ele>
        <time>2023-07-29T17:52:23.000Z</time>
        <extensions>
          <ns3:TrackPointExtension>
            <ns3:hr>102</ns3:hr>
            <ns3:cad>0</ns3:cad>
          </ns3:TrackPointExtension>
        </extensions>
      </trkpt>
      <trkpt lat="37.7594734914600849151611328125" lon="-107.7060782723128795623779296875">
        <ele>3631</ele>
        <time>2023-07-29T17:52:24.000Z</time>
        <extensions>
          <ns3:TrackPointExtension>
            <ns3:hr>102</ns3:hr>
            <ns3:cad>0</ns3:cad>
          </ns3:TrackPointExtension>
        </extensions>
      </trkpt>
      <trkpt lat="37.759469635784626007080078125" lon="-107.7060811221599578857421875">
        <ele>3630.800048828125</ele>
        <time>2023-07-29T17:52:25.000Z</time>
        <extensions>
          <ns3:TrackPointExtension>
            <ns3:hr>102</ns3:hr>
            <ns3:cad>0</ns3:cad>
          </ns3:TrackPointExtension>
        </extensions>
      </trkpt>
      <trkpt lat="37.759471647441387176513671875" lon="-107.7060806192457675933837890625">
        <ele>3630.60009765625</ele>
        <time>2023-07-29T17:52:26.000Z</time>
        <extensions>
          <ns3:TrackPointExtension>
            <ns3:hr>103</ns3:hr>
            <ns3:cad>0</ns3:cad>
          </ns3:TrackPointExtension>
        </extensions>
      </trkpt>
      <trkpt lat="37.75947206653654575347900390625" lon="-107.706080786883831024169921875">
        <ele>3630.39990234375</ele>
        <time>2023-07-29T17:52:27.000Z</time>
        <extensions>
          <ns3:TrackPointExtension>
            <ns3:hr>103</ns3:hr>
            <ns3:cad>0</ns3:cad>
          </ns3:TrackPointExtension>
        </extensions>
      </trkpt>
      <trkpt lat="37.759475670754909515380859375" lon="-107.70608045160770416259765625">
        <ele>3630.39990234375</ele>
        <time>2023-07-29T17:52:28.000Z</time>
        <extensions>
          <ns3:TrackPointExtension>
            <ns3:hr>103</ns3:hr>
            <ns3:cad>70</ns3:cad>
          </ns3:TrackPointExtension>
        </extensions>
      </trkpt>
      <trkpt lat="37.759473659098148345947265625" lon="-107.70608204416930675506591796875">
        <ele>3630.199951171875</ele>
        <time>2023-07-29T17:52:29.000Z</time>
        <extensions>
          <ns3:TrackPointExtension>
            <ns3:hr>102</ns3:hr>
            <ns3:cad>70</ns3:cad>
          </ns3:TrackPointExtension>
        </extensions>
      </trkpt>
      <trkpt lat="37.7594661153852939605712890625" lon="-107.7060866542160511016845703125">
        <ele>3630</ele>
        <time>2023-07-29T17:52:30.000Z</time>
        <extensions>
          <ns3:TrackPointExtension>
            <ns3:hr>102</ns3:hr>
            <ns3:cad>0</ns3:cad>
          </ns3:TrackPointExtension>
        </extensions>
      </trkpt>
      <trkpt lat="37.7594573982059955596923828125" lon="-107.706092186272144317626953125">
        <ele>3629.800048828125</ele>
        <time>2023-07-29T17:52:31.000Z</time>
        <extensions>
          <ns3:TrackPointExtension>
            <ns3:hr>102</ns3:hr>
            <ns3:cad>0</ns3:cad>
          </ns3:TrackPointExtension>
        </extensions>
      </trkpt>
      <trkpt lat="37.759446837007999420166015625" lon="-107.70609629340469837188720703125">
        <ele>3629.60009765625</ele>
        <time>2023-07-29T17:52:32.000Z</time>
        <extensions>
          <ns3:TrackPointExtension>
            <ns3:hr>102</ns3:hr>
            <ns3:cad>0</ns3:cad>
          </ns3:TrackPointExtension>
        </extensions>
      </trkpt>
      <trkpt lat="37.7594446577131748199462890625" lon="-107.7060985565185546875">
        <ele>3629.39990234375</ele>
        <time>2023-07-29T17:52:33.000Z</time>
        <extensions>
          <ns3:TrackPointExtension>
            <ns3:hr>102</ns3:hr>
            <ns3:cad>0</ns3:cad>
          </ns3:TrackPointExtension>
        </extensions>
      </trkpt>
      <trkpt lat="37.7594366110861301422119140625" lon="-107.706099562346935272216796875">
        <ele>3629.199951171875</ele>
        <time>2023-07-29T17:52:34.000Z</time>
        <extensions>
          <ns3:TrackPointExtension>
            <ns3:hr>101</ns3:hr>
            <ns3:cad>0</ns3:cad>
          </ns3:TrackPointExtension>
        </extensions>
      </trkpt>
      <trkpt lat="37.759430743753910064697265625" lon="-107.70609964616596698760986328125">
        <ele>3629</ele>
        <time>2023-07-29T17:52:35.000Z</time>
        <extensions>
          <ns3:TrackPointExtension>
            <ns3:hr>101</ns3:hr>
            <ns3:cad>0</ns3:cad>
          </ns3:TrackPointExtension>
        </extensions>
      </trkpt>
      <trkpt lat="37.75942839682102203369140625" lon="-107.70610098727047443389892578125">
        <ele>3628.800048828125</ele>
        <time>2023-07-29T17:52:36.000Z</time>
        <extensions>
          <ns3:TrackPointExtension>
            <ns3:hr>101</ns3:hr>
            <ns3:cad>0</ns3:cad>
          </ns3:TrackPointExtension>
        </extensions>
      </trkpt>
      <trkpt lat="37.7594268880784511566162109375" lon="-107.7061000652611255645751953125">
        <ele>3628.800048828125</ele>
        <time>2023-07-29T17:52:37.000Z</time>
        <extensions>
          <ns3:TrackPointExtension>
            <ns3:hr>100</ns3:hr>
            <ns3:cad>0</ns3:cad>
          </ns3:TrackPointExtension>
        </extensions>
      </trkpt>
      <trkpt lat="37.75942831300199031829833984375" lon="-107.7061010710895061492919921875">
        <ele>3628.60009765625</ele>
        <time>2023-07-29T17:52:38.000Z</time>
        <extensions>
          <ns3:TrackPointExtension>
            <ns3:hr>99</ns3:hr>
            <ns3:cad>0</ns3:cad>
          </ns3:TrackPointExtension>
        </extensions>
      </trkpt>
      <trkpt lat="37.7594305761158466339111328125" lon="-107.7061030827462673187255859375">
        <ele>3628.60009765625</ele>
        <time>2023-07-29T17:52:39.000Z</time>
        <extensions>
          <ns3:TrackPointExtension>
            <ns3:hr>99</ns3:hr>
            <ns3:cad>0</ns3:cad>
          </ns3:TrackPointExtension>
        </extensions>
      </trkpt>
      <trkpt lat="37.75942713953554630279541015625" lon="-107.7061034180223941802978515625">
        <ele>3628.39990234375</ele>
        <time>2023-07-29T17:52:40.000Z</time>
        <extensions>
          <ns3:TrackPointExtension>
            <ns3:hr>99</ns3:hr>
            <ns3:cad>0</ns3:cad>
          </ns3:TrackPointExtension>
        </extensions>
      </trkpt>
      <trkpt lat="37.75942035019397735595703125" lon="-107.70610098727047443389892578125">
        <ele>3628.39990234375</ele>
        <time>2023-07-29T17:52:41.000Z</time>
        <extensions>
          <ns3:TrackPointExtension>
            <ns3:hr>99</ns3:hr>
            <ns3:cad>0</ns3:cad>
          </ns3:TrackPointExtension>
        </extensions>
      </trkpt>
      <trkpt lat="37.75941498577594757080078125" lon="-107.70609880797564983367919921875">
        <ele>3628.39990234375</ele>
        <time>2023-07-29T17:52:42.000Z</time>
        <extensions>
          <ns3:TrackPointExtension>
            <ns3:hr>99</ns3:hr>
            <ns3:cad>0</ns3:cad>
          </ns3:TrackPointExtension>
        </extensions>
      </trkpt>
      <trkpt lat="37.7594168297946453094482421875" lon="-107.70609310828149318695068359375">
        <ele>3628.199951171875</ele>
        <time>2023-07-29T17:52:43.000Z</time>
        <extensions>
          <ns3:TrackPointExtension>
            <ns3:hr>99</ns3:hr>
            <ns3:cad>0</ns3:cad>
          </ns3:TrackPointExtension>
        </extensions>
      </trkpt>
      <trkpt lat="37.759405262768268585205078125" lon="-107.7060869894921779632568359375">
        <ele>3628.199951171875</ele>
        <time>2023-07-29T17:52:44.000Z</time>
        <extensions>
          <ns3:TrackPointExtension>
            <ns3:hr>99</ns3:hr>
            <ns3:cad>0</ns3:cad>
          </ns3:TrackPointExtension>
        </extensions>
      </trkpt>
      <trkpt lat="37.75939595885574817657470703125" lon="-107.7060809545218944549560546875">
        <ele>3627.800048828125</ele>
        <time>2023-07-29T17:52:45.000Z</time>
        <extensions>
          <ns3:TrackPointExtension>
            <ns3:hr>99</ns3:hr>
            <ns3:cad>0</ns3:cad>
          </ns3:TrackPointExtension>
        </extensions>
      </trkpt>
      <trkpt lat="37.75938372127711772918701171875" lon="-107.70607642829418182373046875">
        <ele>3627.60009765625</ele>
        <time>2023-07-29T17:52:46.000Z</time>
        <extensions>
          <ns3:TrackPointExtension>
            <ns3:hr>99</ns3:hr>
            <ns3:cad>0</ns3:cad>
          </ns3:TrackPointExtension>
        </extensions>
      </trkpt>
      <trkpt lat="37.75937399826943874359130859375" lon="-107.70607148297131061553955078125">
        <ele>3627.60009765625</ele>
        <time>2023-07-29T17:52:47.000Z</time>
        <extensions>
          <ns3:TrackPointExtension>
            <ns3:hr>99</ns3:hr>
            <ns3:cad>0</ns3:cad>
          </ns3:TrackPointExtension>
        </extensions>
      </trkpt>
      <trkpt lat="37.75936511345207691192626953125" lon="-107.70606662146747112274169921875">
        <ele>3627.39990234375</ele>
        <time>2023-07-29T17:52:48.000Z</time>
        <extensions>
          <ns3:TrackPointExtension>
            <ns3:hr>99</ns3:hr>
            <ns3:cad>0</ns3:cad>
          </ns3:TrackPointExtension>
        </extensions>
      </trkpt>
      <trkpt lat="37.7593588270246982574462890625" lon="-107.70606561563909053802490234375">
        <ele>3627.199951171875</ele>
        <time>2023-07-29T17:52:49.000Z</time>
        <extensions>
          <ns3:TrackPointExtension>
            <ns3:hr>99</ns3:hr>
            <ns3:cad>0</ns3:cad>
          </ns3:TrackPointExtension>
        </extensions>
      </trkpt>
      <trkpt lat="37.7593566477298736572265625" lon="-107.70606427453458309173583984375">
        <ele>3627.199951171875</ele>
        <time>2023-07-29T17:52:50.000Z</time>
        <extensions>
          <ns3:TrackPointExtension>
            <ns3:hr>98</ns3:hr>
            <ns3:cad>0</ns3:cad>
          </ns3:TrackPointExtension>
        </extensions>
      </trkpt>
      <trkpt lat="37.75935203768312931060791015625" lon="-107.70605991594493389129638671875">
        <ele>3627</ele>
        <time>2023-07-29T17:52:51.000Z</time>
        <extensions>
          <ns3:TrackPointExtension>
            <ns3:hr>99</ns3:hr>
            <ns3:cad>0</ns3:cad>
          </ns3:TrackPointExtension>
        </extensions>
      </trkpt>
      <trkpt lat="37.75934533216059207916259765625" lon="-107.70605891011655330657958984375">
        <ele>3627</ele>
        <time>2023-07-29T17:52:52.000Z</time>
        <extensions>
          <ns3:TrackPointExtension>
            <ns3:hr>98</ns3:hr>
            <ns3:cad>0</ns3:cad>
          </ns3:TrackPointExtension>
        </extensions>
      </trkpt>
      <trkpt lat="37.7593387104570865631103515625" lon="-107.70605689845979213714599609375">
        <ele>3627</ele>
        <time>2023-07-29T17:52:53.000Z</time>
        <extensions>
          <ns3:TrackPointExtension>
            <ns3:hr>98</ns3:hr>
            <ns3:cad>0</ns3:cad>
          </ns3:TrackPointExtension>
        </extensions>
      </trkpt>
      <trkpt lat="37.759333513677120208740234375" lon="-107.7060537971556186676025390625">
        <ele>3627</ele>
        <time>2023-07-29T17:52:54.000Z</time>
        <extensions>
          <ns3:TrackPointExtension>
            <ns3:hr>98</ns3:hr>
            <ns3:cad>0</ns3:cad>
          </ns3:TrackPointExtension>
        </extensions>
      </trkpt>
      <trkpt lat="37.75932722724974155426025390625" lon="-107.706054635345935821533203125">
        <ele>3627</ele>
        <time>2023-07-29T17:52:55.000Z</time>
        <extensions>
          <ns3:TrackPointExtension>
            <ns3:hr>97</ns3:hr>
            <ns3:cad>0</ns3:cad>
          </ns3:TrackPointExtension>
        </extensions>
      </trkpt>
      <trkpt lat="37.7593185938894748687744140625" lon="-107.70605321042239665985107421875">
        <ele>3627</ele>
        <time>2023-07-29T17:52:56.000Z</time>
        <extensions>
          <ns3:TrackPointExtension>
            <ns3:hr>97</ns3:hr>
            <ns3:cad>0</ns3:cad>
          </ns3:TrackPointExtension>
        </extensions>
      </trkpt>
      <trkpt lat="37.7593122236430644989013671875" lon="-107.70605471916496753692626953125">
        <ele>3627</ele>
        <time>2023-07-29T17:52:57.000Z</time>
        <extensions>
          <ns3:TrackPointExtension>
            <ns3:hr>96</ns3:hr>
            <ns3:cad>0</ns3:cad>
          </ns3:TrackPointExtension>
        </extensions>
      </trkpt>
      <trkpt lat="37.75931146927177906036376953125" lon="-107.70605522207915782928466796875">
        <ele>3626.800048828125</ele>
        <time>2023-07-29T17:52:58.000Z</time>
        <extensions>
          <ns3:TrackPointExtension>
            <ns3:hr>96</ns3:hr>
            <ns3:cad>0</ns3:cad>
          </ns3:TrackPointExtension>
        </extensions>
      </trkpt>
      <trkpt lat="37.75930979289114475250244140625" lon="-107.70605471916496753692626953125">
        <ele>3626.60009765625</ele>
        <time>2023-07-29T17:52:59.000Z</time>
        <extensions>
          <ns3:TrackPointExtension>
            <ns3:hr>96</ns3:hr>
            <ns3:cad>0</ns3:cad>
          </ns3:TrackPointExtension>
        </extensions>
      </trkpt>
      <trkpt lat="37.759298644959926605224609375" lon="-107.70605388097465038299560546875">
        <ele>3626.60009765625</ele>
        <time>2023-07-29T17:53:00.000Z</time>
        <extensions>
          <ns3:TrackPointExtension>
            <ns3:hr>96</ns3:hr>
            <ns3:cad>0</ns3:cad>
          </ns3:TrackPointExtension>
        </extensions>
      </trkpt>
      <trkpt lat="37.7592907659709453582763671875" lon="-107.7060548029839992523193359375">
        <ele>3626.39990234375</ele>
        <time>2023-07-29T17:53:01.000Z</time>
        <extensions>
          <ns3:TrackPointExtension>
            <ns3:hr>95</ns3:hr>
            <ns3:cad>0</ns3:cad>
          </ns3:TrackPointExtension>
        </extensions>
      </trkpt>
      <trkpt lat="37.7592800371348857879638671875" lon="-107.7060537971556186676025390625">
        <ele>3626.39990234375</ele>
        <time>2023-07-29T17:53:02.000Z</time>
        <extensions>
          <ns3:TrackPointExtension>
            <ns3:hr>95</ns3:hr>
            <ns3:cad>0</ns3:cad>
          </ns3:TrackPointExtension>
        </extensions>
      </trkpt>
      <trkpt lat="37.75927609764039516448974609375" lon="-107.70605471916496753692626953125">
        <ele>3626.199951171875</ele>
        <time>2023-07-29T17:53:03.000Z</time>
        <extensions>
          <ns3:TrackPointExtension>
            <ns3:hr>95</ns3:hr>
            <ns3:cad>0</ns3:cad>
          </ns3:TrackPointExtension>
        </extensions>
      </trkpt>
      <trkpt lat="37.75927257724106311798095703125" lon="-107.706052623689174652099609375">
        <ele>3626.199951171875</ele>
        <time>2023-07-29T17:53:04.000Z</time>
        <extensions>
          <ns3:TrackPointExtension>
            <ns3:hr>96</ns3:hr>
            <ns3:cad>0</ns3:cad>
          </ns3:TrackPointExtension>
        </extensions>
      </trkpt>
      <trkpt lat="37.7592649497091770172119140625" lon="-107.70604533143341541290283203125">
        <ele>3626</ele>
        <time>2023-07-29T17:53:05.000Z</time>
        <extensions>
          <ns3:TrackPointExtension>
            <ns3:hr>97</ns3:hr>
            <ns3:cad>0</ns3:cad>
          </ns3:TrackPointExtension>
        </extensions>
      </trkpt>
      <trkpt lat="37.75926235131919384002685546875" lon="-107.7060382068157196044921875">
        <ele>3625.800048828125</ele>
        <time>2023-07-29T17:53:06.000Z</time>
        <extensions>
          <ns3:TrackPointExtension>
            <ns3:hr>97</ns3:hr>
            <ns3:cad>0</ns3:cad>
          </ns3:TrackPointExtension>
        </extensions>
      </trkpt>
      <trkpt lat="37.75925950147211551666259765625" lon="-107.706035859882831573486328125">
        <ele>3625.60009765625</ele>
        <time>2023-07-29T17:53:07.000Z</time>
        <extensions>
          <ns3:TrackPointExtension>
            <ns3:hr>97</ns3:hr>
            <ns3:cad>0</ns3:cad>
          </ns3:TrackPointExtension>
        </extensions>
      </trkpt>
      <trkpt lat="37.7592562325298786163330078125" lon="-107.70603309385478496551513671875">
        <ele>3625.60009765625</ele>
        <time>2023-07-29T17:53:08.000Z</time>
        <extensions>
          <ns3:TrackPointExtension>
            <ns3:hr>98</ns3:hr>
            <ns3:cad>0</ns3:cad>
          </ns3:TrackPointExtension>
        </extensions>
      </trkpt>
      <trkpt lat="37.7592461742460727691650390625" lon="-107.70602571777999401092529296875">
        <ele>3625.60009765625</ele>
        <time>2023-07-29T17:53:09.000Z</time>
        <extensions>
          <ns3:TrackPointExtension>
            <ns3:hr>98</ns3:hr>
            <ns3:cad>0</ns3:cad>
          </ns3:TrackPointExtension>
        </extensions>
      </trkpt>
      <trkpt lat="37.759240977466106414794921875" lon="-107.7060266397893428802490234375">
        <ele>3625.39990234375</ele>
        <time>2023-07-29T17:53:10.000Z</time>
        <extensions>
          <ns3:TrackPointExtension>
            <ns3:hr>98</ns3:hr>
            <ns3:cad>0</ns3:cad>
          </ns3:TrackPointExtension>
        </extensions>
      </trkpt>
      <trkpt lat="37.75924189947545528411865234375" lon="-107.70602873526513576507568359375">
        <ele>3625.39990234375</ele>
        <time>2023-07-29T17:53:11.000Z</time>
        <extensions>
          <ns3:TrackPointExtension>
            <ns3:hr>98</ns3:hr>
            <ns3:cad>0</ns3:cad>
          </ns3:TrackPointExtension>
        </extensions>
      </trkpt>
      <trkpt lat="37.75923871435225009918212890625" lon="-107.7060293219983577728271484375">
        <ele>3625.199951171875</ele>
        <time>2023-07-29T17:53:12.000Z</time>
        <extensions>
          <ns3:TrackPointExtension>
            <ns3:hr>97</ns3:hr>
            <ns3:cad>0</ns3:cad>
          </ns3:TrackPointExtension>
        </extensions>
      </trkpt>
      <trkpt lat="37.7592414803802967071533203125" lon="-107.70603359676897525787353515625">
        <ele>3625</ele>
        <time>2023-07-29T17:53:13.000Z</time>
        <extensions>
          <ns3:TrackPointExtension>
            <ns3:hr>98</ns3:hr>
            <ns3:cad>0</ns3:cad>
          </ns3:TrackPointExtension>
        </extensions>
      </trkpt>
      <trkpt lat="37.7592391334474086761474609375" lon="-107.70603795535862445831298828125">
        <ele>3625</ele>
        <time>2023-07-29T17:53:14.000Z</time>
        <extensions>
          <ns3:TrackPointExtension>
            <ns3:hr>98</ns3:hr>
            <ns3:cad>0</ns3:cad>
          </ns3:TrackPointExtension>
        </extensions>
      </trkpt>
      <trkpt lat="37.7592310868203639984130859375" lon="-107.70604499615728855133056640625">
        <ele>3625</ele>
        <time>2023-07-29T17:53:15.000Z</time>
        <extensions>
          <ns3:TrackPointExtension>
            <ns3:hr>98</ns3:hr>
            <ns3:cad>0</ns3:cad>
          </ns3:TrackPointExtension>
        </extensions>
      </trkpt>
      <trkpt lat="37.75921809487044811248779296875" lon="-107.706046588718891143798828125">
        <ele>3625</ele>
        <time>2023-07-29T17:53:16.000Z</time>
        <extensions>
          <ns3:TrackPointExtension>
            <ns3:hr>98</ns3:hr>
            <ns3:cad>0</ns3:cad>
          </ns3:TrackPointExtension>
        </extensions>
      </trkpt>
      <trkpt lat="37.75920535437762737274169921875" lon="-107.7060467563569545745849609375">
        <ele>3624.60009765625</ele>
        <time>2023-07-29T17:53:17.000Z</time>
        <extensions>
          <ns3:TrackPointExtension>
            <ns3:hr>98</ns3:hr>
            <ns3:cad>0</ns3:cad>
          </ns3:TrackPointExtension>
        </extensions>
      </trkpt>
      <trkpt lat="37.75919915176928043365478515625" lon="-107.70604700781404972076416015625">
        <ele>3624.39990234375</ele>
        <time>2023-07-29T17:53:18.000Z</time>
        <extensions>
          <ns3:TrackPointExtension>
            <ns3:hr>98</ns3:hr>
            <ns3:cad>0</ns3:cad>
          </ns3:TrackPointExtension>
        </extensions>
      </trkpt>
      <trkpt lat="37.75919395498931407928466796875" lon="-107.7060454152524471282958984375">
        <ele>3624.39990234375</ele>
        <time>2023-07-29T17:53:19.000Z</time>
        <extensions>
          <ns3:TrackPointExtension>
            <ns3:hr>98</ns3:hr>
            <ns3:cad>0</ns3:cad>
          </ns3:TrackPointExtension>
        </extensions>
      </trkpt>
      <trkpt lat="37.75918641127645969390869140625" lon="-107.70603963173925876617431640625">
        <ele>3624.199951171875</ele>
        <time>2023-07-29T17:53:20.000Z</time>
        <extensions>
          <ns3:TrackPointExtension>
            <ns3:hr>98</ns3:hr>
            <ns3:cad>0</ns3:cad>
          </ns3:TrackPointExtension>
        </extensions>
      </trkpt>
      <trkpt lat="37.759175263345241546630859375" lon="-107.70603644661605358123779296875">
        <ele>3624.199951171875</ele>
        <time>2023-07-29T17:53:21.000Z</time>
        <extensions>
          <ns3:TrackPointExtension>
            <ns3:hr>98</ns3:hr>
            <ns3:cad>0</ns3:cad>
          </ns3:TrackPointExtension>
        </extensions>
      </trkpt>
      <trkpt lat="37.7591623552143573760986328125" lon="-107.70602873526513576507568359375">
        <ele>3624</ele>
        <time>2023-07-29T17:53:22.000Z</time>
        <extensions>
          <ns3:TrackPointExtension>
            <ns3:hr>98</ns3:hr>
            <ns3:cad>0</ns3:cad>
          </ns3:TrackPointExtension>
        </extensions>
      </trkpt>
      <trkpt lat="37.75915020145475864410400390625" lon="-107.7060192637145519256591796875">
        <ele>3624</ele>
        <time>2023-07-29T17:53:23.000Z</time>
        <extensions>
          <ns3:TrackPointExtension>
            <ns3:hr>98</ns3:hr>
            <ns3:cad>0</ns3:cad>
          </ns3:TrackPointExtension>
        </extensions>
      </trkpt>
      <trkpt lat="37.75914634577929973602294921875" lon="-107.70601448602974414825439453125">
        <ele>3623.800048828125</ele>
        <time>2023-07-29T17:53:24.000Z</time>
        <extensions>
          <ns3:TrackPointExtension>
            <ns3:hr>98</ns3:hr>
            <ns3:cad>0</ns3:cad>
          </ns3:TrackPointExtension>
        </extensions>
      </trkpt>
      <trkpt lat="37.75913737714290618896484375" lon="-107.70600736141204833984375">
        <ele>3623.60009765625</ele>
        <time>2023-07-29T17:53:25.000Z</time>
        <extensions>
          <ns3:TrackPointExtension>
            <ns3:hr>98</ns3:hr>
            <ns3:cad>0</ns3:cad>
          </ns3:TrackPointExtension>
        </extensions>
      </trkpt>
      <trkpt lat="37.75912857614457607269287109375" lon="-107.70600107498466968536376953125">
        <ele>3623.39990234375</ele>
        <time>2023-07-29T17:53:26.000Z</time>
        <extensions>
          <ns3:TrackPointExtension>
            <ns3:hr>98</ns3:hr>
            <ns3:cad>0</ns3:cad>
          </ns3:TrackPointExtension>
        </extensions>
      </trkpt>
      <trkpt lat="37.75911801494657993316650390625" lon="-107.70599269308149814605712890625">
        <ele>3623.39990234375</ele>
        <time>2023-07-29T17:53:27.000Z</time>
        <extensions>
          <ns3:TrackPointExtension>
            <ns3:hr>98</ns3:hr>
            <ns3:cad>0</ns3:cad>
          </ns3:TrackPointExtension>
        </extensions>
      </trkpt>
      <trkpt lat="37.75911348871886730194091796875" lon="-107.70598783157765865325927734375">
        <ele>3623.39990234375</ele>
        <time>2023-07-29T17:53:28.000Z</time>
        <extensions>
          <ns3:TrackPointExtension>
            <ns3:hr>98</ns3:hr>
            <ns3:cad>52</ns3:cad>
          </ns3:TrackPointExtension>
        </extensions>
      </trkpt>
      <trkpt lat="37.75910812430083751678466796875" lon="-107.70598414354026317596435546875">
        <ele>3623.39990234375</ele>
        <time>2023-07-29T17:53:29.000Z</time>
        <extensions>
          <ns3:TrackPointExtension>
            <ns3:hr>98</ns3:hr>
            <ns3:cad>52</ns3:cad>
          </ns3:TrackPointExtension>
        </extensions>
      </trkpt>
      <trkpt lat="37.75910913012921810150146484375" lon="-107.70598028786480426788330078125">
        <ele>3623.60009765625</ele>
        <time>2023-07-29T17:53:30.000Z</time>
        <extensions>
          <ns3:TrackPointExtension>
            <ns3:hr>98</ns3:hr>
            <ns3:cad>52</ns3:cad>
          </ns3:TrackPointExtension>
        </extensions>
      </trkpt>
      <trkpt lat="37.7591093815863132476806640625" lon="-107.705977521836757659912109375">
        <ele>3624</ele>
        <time>2023-07-29T17:53:31.000Z</time>
        <extensions>
          <ns3:TrackPointExtension>
            <ns3:hr>98</ns3:hr>
            <ns3:cad>52</ns3:cad>
          </ns3:TrackPointExtension>
        </extensions>
      </trkpt>
      <trkpt lat="37.75911466218531131744384765625" lon="-107.705980874598026275634765625">
        <ele>3624</ele>
        <time>2023-07-29T17:53:32.000Z</time>
        <extensions>
          <ns3:TrackPointExtension>
            <ns3:hr>98</ns3:hr>
            <ns3:cad>18</ns3:cad>
          </ns3:TrackPointExtension>
        </extensions>
      </trkpt>
      <trkpt lat="37.759116925299167633056640625" lon="-107.7059818804264068603515625">
        <ele>3624.199951171875</ele>
        <time>2023-07-29T17:53:33.000Z</time>
        <extensions>
          <ns3:TrackPointExtension>
            <ns3:hr>98</ns3:hr>
            <ns3:cad>18</ns3:cad>
          </ns3:TrackPointExtension>
        </extensions>
      </trkpt>
      <trkpt lat="37.75912086479365825653076171875" lon="-107.7059830538928508758544921875">
        <ele>3624.199951171875</ele>
        <time>2023-07-29T17:53:34.000Z</time>
        <extensions>
          <ns3:TrackPointExtension>
            <ns3:hr>98</ns3:hr>
            <ns3:cad>18</ns3:cad>
          </ns3:TrackPointExtension>
        </extensions>
      </trkpt>
      <trkpt lat="37.759124301373958587646484375" lon="-107.70598464645445346832275390625">
        <ele>3624.39990234375</ele>
        <time>2023-07-29T17:53:35.000Z</time>
        <extensions>
          <ns3:TrackPointExtension>
            <ns3:hr>98</ns3:hr>
            <ns3:cad>0</ns3:cad>
          </ns3:TrackPointExtension>
        </extensions>
      </trkpt>
      <trkpt lat="37.75912472046911716461181640625" lon="-107.70598313771188259124755859375">
        <ele>3624.39990234375</ele>
        <time>2023-07-29T17:53:36.000Z</time>
        <extensions>
          <ns3:TrackPointExtension>
            <ns3:hr>98</ns3:hr>
            <ns3:cad>0</ns3:cad>
          </ns3:TrackPointExtension>
        </extensions>
      </trkpt>
      <trkpt lat="37.75912304408848285675048828125" lon="-107.7059805393218994140625">
        <ele>3624.39990234375</ele>
        <time>2023-07-29T17:53:37.000Z</time>
        <extensions>
          <ns3:TrackPointExtension>
            <ns3:hr>97</ns3:hr>
            <ns3:cad>0</ns3:cad>
          </ns3:TrackPointExtension>
        </extensions>
      </trkpt>
      <trkpt lat="37.75912404991686344146728515625" lon="-107.70597827620804309844970703125">
        <ele>3624.39990234375</ele>
        <time>2023-07-29T17:53:38.000Z</time>
        <extensions>
          <ns3:TrackPointExtension>
            <ns3:hr>97</ns3:hr>
            <ns3:cad>0</ns3:cad>
          </ns3:TrackPointExtension>
        </extensions>
      </trkpt>
      <trkpt lat="37.75912555865943431854248046875" lon="-107.70597718656063079833984375">
        <ele>3624.39990234375</ele>
        <time>2023-07-29T17:53:39.000Z</time>
        <extensions>
          <ns3:TrackPointExtension>
            <ns3:hr>96</ns3:hr>
            <ns3:cad>0</ns3:cad>
          </ns3:TrackPointExtension>
        </extensions>
      </trkpt>
      <trkpt lat="37.7591298334300518035888671875" lon="-107.70597659982740879058837890625">
        <ele>3624.39990234375</ele>
        <time>2023-07-29T17:53:40.000Z</time>
        <extensions>
          <ns3:TrackPointExtension>
            <ns3:hr>96</ns3:hr>
            <ns3:cad>0</ns3:cad>
          </ns3:TrackPointExtension>
        </extensions>
      </trkpt>
      <trkpt lat="37.7591325156390666961669921875" lon="-107.70597450435161590576171875">
        <ele>3624.39990234375</ele>
        <time>2023-07-29T17:53:41.000Z</time>
        <extensions>
          <ns3:TrackPointExtension>
            <ns3:hr>96</ns3:hr>
            <ns3:cad>0</ns3:cad>
          </ns3:TrackPointExtension>
        </extensions>
      </trkpt>
      <trkpt lat="37.75913276709616184234619140625" lon="-107.7059719897806644439697265625">
        <ele>3624.39990234375</ele>
        <time>2023-07-29T17:53:42.000Z</time>
        <extensions>
          <ns3:TrackPointExtension>
            <ns3:hr>96</ns3:hr>
            <ns3:cad>0</ns3:cad>
          </ns3:TrackPointExtension>
        </extensions>
      </trkpt>
      <trkpt lat="37.75913293473422527313232421875" lon="-107.70596888847649097442626953125">
        <ele>3624.39990234375</ele>
        <time>2023-07-29T17:53:43.000Z</time>
        <extensions>
          <ns3:TrackPointExtension>
            <ns3:hr>97</ns3:hr>
            <ns3:cad>0</ns3:cad>
          </ns3:TrackPointExtension>
        </extensions>
      </trkpt>
      <trkpt lat="37.75913377292454242706298828125" lon="-107.70596838556230068206787109375">
        <ele>3624.60009765625</ele>
        <time>2023-07-29T17:53:44.000Z</time>
        <extensions>
          <ns3:TrackPointExtension>
            <ns3:hr>97</ns3:hr>
            <ns3:cad>0</ns3:cad>
          </ns3:TrackPointExtension>
        </extensions>
      </trkpt>
      <trkpt lat="37.75913871824741363525390625" lon="-107.7059659548103809356689453125">
        <ele>3624.60009765625</ele>
        <time>2023-07-29T17:53:45.000Z</time>
        <extensions>
          <ns3:TrackPointExtension>
            <ns3:hr>98</ns3:hr>
            <ns3:cad>0</ns3:cad>
          </ns3:TrackPointExtension>
        </extensions>
      </trkpt>
      <trkpt lat="37.75914005935192108154296875" lon="-107.7059646137058734893798828125">
        <ele>3624.60009765625</ele>
        <time>2023-07-29T17:53:46.000Z</time>
        <extensions>
          <ns3:TrackPointExtension>
            <ns3:hr>98</ns3:hr>
            <ns3:cad>0</ns3:cad>
          </ns3:TrackPointExtension>
        </extensions>
      </trkpt>
      <trkpt lat="37.759135700762271881103515625" lon="-107.70596377551555633544921875">
        <ele>3624.60009765625</ele>
        <time>2023-07-29T17:53:47.000Z</time>
        <extensions>
          <ns3:TrackPointExtension>
            <ns3:hr>98</ns3:hr>
            <ns3:cad>0</ns3:cad>
          </ns3:TrackPointExtension>
        </extensions>
      </trkpt>
      <trkpt lat="37.75912874378263950347900390625" lon="-107.7059666253626346588134765625">
        <ele>3624.60009765625</ele>
        <time>2023-07-29T17:53:48.000Z</time>
        <extensions>
          <ns3:TrackPointExtension>
            <ns3:hr>98</ns3:hr>
            <ns3:cad>0</ns3:cad>
          </ns3:TrackPointExtension>
        </extensions>
      </trkpt>
      <trkpt lat="37.7591251395642757415771484375" lon="-107.7059676311910152435302734375">
        <ele>3624.60009765625</ele>
        <time>2023-07-29T17:53:49.000Z</time>
        <extensions>
          <ns3:TrackPointExtension>
            <ns3:hr>99</ns3:hr>
            <ns3:cad>0</ns3:cad>
          </ns3:TrackPointExtension>
        </extensions>
      </trkpt>
      <trkpt lat="37.75912421755492687225341796875" lon="-107.70596444606781005859375">
        <ele>3624.60009765625</ele>
        <time>2023-07-29T17:53:50.000Z</time>
        <extensions>
          <ns3:TrackPointExtension>
            <ns3:hr>100</ns3:hr>
            <ns3:cad>0</ns3:cad>
          </ns3:TrackPointExtension>
        </extensions>
      </trkpt>
      <trkpt lat="37.759116254746913909912109375" lon="-107.7059672959148883819580078125">
        <ele>3624.60009765625</ele>
        <time>2023-07-29T17:53:51.000Z</time>
        <extensions>
          <ns3:TrackPointExtension>
            <ns3:hr>100</ns3:hr>
            <ns3:cad>0</ns3:cad>
          </ns3:TrackPointExtension>
        </extensions>
      </trkpt>
      <trkpt lat="37.7591152489185333251953125" lon="-107.7059693075716495513916015625">
        <ele>3624.60009765625</ele>
        <time>2023-07-29T17:53:52.000Z</time>
        <extensions>
          <ns3:TrackPointExtension>
            <ns3:hr>101</ns3:hr>
            <ns3:cad>0</ns3:cad>
          </ns3:TrackPointExtension>
        </extensions>
      </trkpt>
      <trkpt lat="37.75911390781402587890625" lon="-107.70597450435161590576171875">
        <ele>3624.60009765625</ele>
        <time>2023-07-29T17:53:53.000Z</time>
        <extensions>
          <ns3:TrackPointExtension>
            <ns3:hr>101</ns3:hr>
            <ns3:cad>0</ns3:cad>
          </ns3:TrackPointExtension>
        </extensions>
      </trkpt>
      <trkpt lat="37.75911080650985240936279296875" lon="-107.70597693510353565216064453125">
        <ele>3624.39990234375</ele>
        <time>2023-07-29T17:53:54.000Z</time>
        <extensions>
          <ns3:TrackPointExtension>
            <ns3:hr>102</ns3:hr>
            <ns3:cad>0</ns3:cad>
          </ns3:TrackPointExtension>
        </extensions>
      </trkpt>
      <trkpt lat="37.75910058058798313140869140625" lon="-107.7059807069599628448486328125">
        <ele>3624.39990234375</ele>
        <time>2023-07-29T17:53:55.000Z</time>
        <extensions>
          <ns3:TrackPointExtension>
            <ns3:hr>102</ns3:hr>
            <ns3:cad>0</ns3:cad>
          </ns3:TrackPointExtension>
        </extensions>
      </trkpt>
      <trkpt lat="37.75909043848514556884765625" lon="-107.70598498173058032989501953125">
        <ele>3624</ele>
        <time>2023-07-29T17:53:56.000Z</time>
        <extensions>
          <ns3:TrackPointExtension>
            <ns3:hr>103</ns3:hr>
            <ns3:cad>0</ns3:cad>
          </ns3:TrackPointExtension>
        </extensions>
      </trkpt>
      <trkpt lat="37.759085409343242645263671875" lon="-107.70598581992089748382568359375">
        <ele>3623.60009765625</ele>
        <time>2023-07-29T17:53:57.000Z</time>
        <extensions>
          <ns3:TrackPointExtension>
            <ns3:hr>103</ns3:hr>
            <ns3:cad>0</ns3:cad>
          </ns3:TrackPointExtension>
        </extensions>
      </trkpt>
      <trkpt lat="37.75908281095325946807861328125" lon="-107.70598297007381916046142578125">
        <ele>3623.39990234375</ele>
        <time>2023-07-29T17:53:58.000Z</time>
        <extensions>
          <ns3:TrackPointExtension>
            <ns3:hr>103</ns3:hr>
            <ns3:cad>0</ns3:cad>
          </ns3:TrackPointExtension>
        </extensions>
      </trkpt>
      <trkpt lat="37.75907970964908599853515625" lon="-107.70597810856997966766357421875">
        <ele>3623.199951171875</ele>
        <time>2023-07-29T17:53:59.000Z</time>
        <extensions>
          <ns3:TrackPointExtension>
            <ns3:hr>103</ns3:hr>
            <ns3:cad>0</ns3:cad>
          </ns3:TrackPointExtension>
        </extensions>
      </trkpt>
      <trkpt lat="37.75907409377396106719970703125" lon="-107.7059719897806644439697265625">
        <ele>3622.39990234375</ele>
        <time>2023-07-29T17:54:00.000Z</time>
        <extensions>
          <ns3:TrackPointExtension>
            <ns3:hr>103</ns3:hr>
            <ns3:cad>0</ns3:cad>
          </ns3:TrackPointExtension>
        </extensions>
      </trkpt>
      <trkpt lat="37.759063951671123504638671875" lon="-107.70597291179001331329345703125">
        <ele>3622.199951171875</ele>
        <time>2023-07-29T17:54:01.000Z</time>
        <extensions>
          <ns3:TrackPointExtension>
            <ns3:hr>103</ns3:hr>
            <ns3:cad>0</ns3:cad>
          </ns3:TrackPointExtension>
        </extensions>
      </trkpt>
      <trkpt lat="37.75905900634825229644775390625" lon="-107.70597022958099842071533203125">
        <ele>3622</ele>
        <time>2023-07-29T17:54:02.000Z</time>
        <extensions>
          <ns3:TrackPointExtension>
            <ns3:hr>103</ns3:hr>
            <ns3:cad>0</ns3:cad>
          </ns3:TrackPointExtension>
        </extensions>
      </trkpt>
      <trkpt lat="37.75905867107212543487548828125" lon="-107.70596905611455440521240234375">
        <ele>3621.800048828125</ele>
        <time>2023-07-29T17:54:03.000Z</time>
        <extensions>
          <ns3:TrackPointExtension>
            <ns3:hr>103</ns3:hr>
            <ns3:cad>0</ns3:cad>
          </ns3:TrackPointExtension>
        </extensions>
      </trkpt>
      <trkpt lat="37.759052217006683349609375" lon="-107.705973498523235321044921875">
        <ele>3621.800048828125</ele>
        <time>2023-07-29T17:54:04.000Z</time>
        <extensions>
          <ns3:TrackPointExtension>
            <ns3:hr>103</ns3:hr>
            <ns3:cad>0</ns3:cad>
          </ns3:TrackPointExtension>
        </extensions>
      </trkpt>
      <trkpt lat="37.7590513788163661956787109375" lon="-107.70597928203642368316650390625">
        <ele>3621.39990234375</ele>
        <time>2023-07-29T17:54:05.000Z</time>
        <extensions>
          <ns3:TrackPointExtension>
            <ns3:hr>103</ns3:hr>
            <ns3:cad>0</ns3:cad>
          </ns3:TrackPointExtension>
        </extensions>
      </trkpt>
      <trkpt lat="37.75904886424541473388671875" lon="-107.7059870772063732147216796875">
        <ele>3621.199951171875</ele>
        <time>2023-07-29T17:54:06.000Z</time>
        <extensions>
          <ns3:TrackPointExtension>
            <ns3:hr>103</ns3:hr>
            <ns3:cad>0</ns3:cad>
          </ns3:TrackPointExtension>
        </extensions>
      </trkpt>
      <trkpt lat="37.75904727168381214141845703125" lon="-107.70599302835762500762939453125">
        <ele>3621.199951171875</ele>
        <time>2023-07-29T17:54:07.000Z</time>
        <extensions>
          <ns3:TrackPointExtension>
            <ns3:hr>103</ns3:hr>
            <ns3:cad>0</ns3:cad>
          </ns3:TrackPointExtension>
        </extensions>
      </trkpt>
      <trkpt lat="37.7590406499803066253662109375" lon="-107.706007696688175201416015625">
        <ele>3620.800048828125</ele>
        <time>2023-07-29T17:54:08.000Z</time>
        <extensions>
          <ns3:TrackPointExtension>
            <ns3:hr>103</ns3:hr>
            <ns3:cad>0</ns3:cad>
          </ns3:TrackPointExtension>
        </extensions>
      </trkpt>
      <trkpt lat="37.7590401470661163330078125" lon="-107.70601850934326648712158203125">
        <ele>3620.60009765625</ele>
        <time>2023-07-29T17:54:09.000Z</time>
        <extensions>
          <ns3:TrackPointExtension>
            <ns3:hr>103</ns3:hr>
            <ns3:cad>0</ns3:cad>
          </ns3:TrackPointExtension>
        </extensions>
      </trkpt>
      <trkpt lat="37.75903947651386260986328125" lon="-107.70602135919034481048583984375">
        <ele>3620.39990234375</ele>
        <time>2023-07-29T17:54:10.000Z</time>
        <extensions>
          <ns3:TrackPointExtension>
            <ns3:hr>102</ns3:hr>
            <ns3:cad>0</ns3:cad>
          </ns3:TrackPointExtension>
        </extensions>
      </trkpt>
      <trkpt lat="37.75903704576194286346435546875" lon="-107.70602839998900890350341796875">
        <ele>3620</ele>
        <time>2023-07-29T17:54:11.000Z</time>
        <extensions>
          <ns3:TrackPointExtension>
            <ns3:hr>103</ns3:hr>
            <ns3:cad>0</ns3:cad>
          </ns3:TrackPointExtension>
        </extensions>
      </trkpt>
      <trkpt lat="37.75903184898197650909423828125" lon="-107.7060330100357532501220703125">
        <ele>3619.800048828125</ele>
        <time>2023-07-29T17:54:12.000Z</time>
        <extensions>
          <ns3:TrackPointExtension>
            <ns3:hr>103</ns3:hr>
            <ns3:cad>0</ns3:cad>
          </ns3:TrackPointExtension>
        </extensions>
      </trkpt>
      <trkpt lat="37.75902313180267810821533203125" lon="-107.70604021847248077392578125">
        <ele>3619.800048828125</ele>
        <time>2023-07-29T17:54:13.000Z</time>
        <extensions>
          <ns3:TrackPointExtension>
            <ns3:hr>103</ns3:hr>
            <ns3:cad>0</ns3:cad>
          </ns3:TrackPointExtension>
        </extensions>
      </trkpt>
      <trkpt lat="37.75901458226144313812255859375" lon="-107.70604399032890796661376953125">
        <ele>3619.60009765625</ele>
        <time>2023-07-29T17:54:14.000Z</time>
        <extensions>
          <ns3:TrackPointExtension>
            <ns3:hr>103</ns3:hr>
            <ns3:cad>0</ns3:cad>
          </ns3:TrackPointExtension>
        </extensions>
      </trkpt>
      <trkpt lat="37.759009301662445068359375" lon="-107.7060435712337493896484375">
        <ele>3619.39990234375</ele>
        <time>2023-07-29T17:54:15.000Z</time>
        <extensions>
          <ns3:TrackPointExtension>
            <ns3:hr>103</ns3:hr>
            <ns3:cad>0</ns3:cad>
          </ns3:TrackPointExtension>
        </extensions>
      </trkpt>
      <trkpt lat="37.759002260863780975341796875" lon="-107.70603762008249759674072265625">
        <ele>3619.39990234375</ele>
        <time>2023-07-29T17:54:16.000Z</time>
        <extensions>
          <ns3:TrackPointExtension>
            <ns3:hr>103</ns3:hr>
            <ns3:cad>0</ns3:cad>
          </ns3:TrackPointExtension>
        </extensions>
      </trkpt>
      <trkpt lat="37.7589999139308929443359375" lon="-107.7060326747596263885498046875">
        <ele>3619.199951171875</ele>
        <time>2023-07-29T17:54:17.000Z</time>
        <extensions>
          <ns3:TrackPointExtension>
            <ns3:hr>102</ns3:hr>
            <ns3:cad>0</ns3:cad>
          </ns3:TrackPointExtension>
        </extensions>
      </trkpt>
      <trkpt lat="37.7589994110167026519775390625" lon="-107.7060316689312458038330078125">
        <ele>3619</ele>
        <time>2023-07-29T17:54:18.000Z</time>
        <extensions>
          <ns3:TrackPointExtension>
            <ns3:hr>102</ns3:hr>
            <ns3:cad>0</ns3:cad>
          </ns3:TrackPointExtension>
        </extensions>
      </trkpt>
      <trkpt lat="37.758996225893497467041015625" lon="-107.70603208802640438079833984375">
        <ele>3618.60009765625</ele>
        <time>2023-07-29T17:54:19.000Z</time>
        <extensions>
          <ns3:TrackPointExtension>
            <ns3:hr>102</ns3:hr>
            <ns3:cad>0</ns3:cad>
          </ns3:TrackPointExtension>
        </extensions>
      </trkpt>
      <trkpt lat="37.75899664498865604400634765625" lon="-107.70603778772056102752685546875">
        <ele>3618.60009765625</ele>
        <time>2023-07-29T17:54:20.000Z</time>
        <extensions>
          <ns3:TrackPointExtension>
            <ns3:hr>102</ns3:hr>
            <ns3:cad>0</ns3:cad>
          </ns3:TrackPointExtension>
        </extensions>
      </trkpt>
      <trkpt lat="37.75899429805576801300048828125" lon="-107.70603560842573642730712890625">
        <ele>3618.39990234375</ele>
        <time>2023-07-29T17:54:21.000Z</time>
        <extensions>
          <ns3:TrackPointExtension>
            <ns3:hr>101</ns3:hr>
            <ns3:cad>0</ns3:cad>
          </ns3:TrackPointExtension>
        </extensions>
      </trkpt>
      <trkpt lat="37.75899387896060943603515625" lon="-107.70603577606379985809326171875">
        <ele>3618.199951171875</ele>
        <time>2023-07-29T17:54:22.000Z</time>
        <extensions>
          <ns3:TrackPointExtension>
            <ns3:hr>101</ns3:hr>
            <ns3:cad>0</ns3:cad>
          </ns3:TrackPointExtension>
        </extensions>
      </trkpt>
      <trkpt lat="37.758992873132228851318359375" lon="-107.706033848226070404052734375">
        <ele>3618.199951171875</ele>
        <time>2023-07-29T17:54:23.000Z</time>
        <extensions>
          <ns3:TrackPointExtension>
            <ns3:hr>101</ns3:hr>
            <ns3:cad>0</ns3:cad>
          </ns3:TrackPointExtension>
        </extensions>
      </trkpt>
      <trkpt lat="37.7589893527328968048095703125" lon="-107.70603124983608722686767578125">
        <ele>3618</ele>
        <time>2023-07-29T17:54:24.000Z</time>
        <extensions>
          <ns3:TrackPointExtension>
            <ns3:hr>101</ns3:hr>
            <ns3:cad>0</ns3:cad>
          </ns3:TrackPointExtension>
        </extensions>
      </trkpt>
      <trkpt lat="37.75898122228682041168212890625" lon="-107.70602186210453510284423828125">
        <ele>3617.800048828125</ele>
        <time>2023-07-29T17:54:25.000Z</time>
        <extensions>
          <ns3:TrackPointExtension>
            <ns3:hr>102</ns3:hr>
            <ns3:cad>0</ns3:cad>
          </ns3:TrackPointExtension>
        </extensions>
      </trkpt>
      <trkpt lat="37.7589756064116954803466796875" lon="-107.706016413867473602294921875">
        <ele>3617.60009765625</ele>
        <time>2023-07-29T17:54:26.000Z</time>
        <extensions>
          <ns3:TrackPointExtension>
            <ns3:hr>102</ns3:hr>
            <ns3:cad>0</ns3:cad>
          </ns3:TrackPointExtension>
        </extensions>
      </trkpt>
      <trkpt lat="37.758968062698841094970703125" lon="-107.70601071417331695556640625">
        <ele>3617.199951171875</ele>
        <time>2023-07-29T17:54:27.000Z</time>
        <extensions>
          <ns3:TrackPointExtension>
            <ns3:hr>102</ns3:hr>
            <ns3:cad>0</ns3:cad>
          </ns3:TrackPointExtension>
        </extensions>
      </trkpt>
      <trkpt lat="37.7589645422995090484619140625" lon="-107.70601146854460239410400390625">
        <ele>3617</ele>
        <time>2023-07-29T17:54:28.000Z</time>
        <extensions>
          <ns3:TrackPointExtension>
            <ns3:hr>102</ns3:hr>
            <ns3:cad>0</ns3:cad>
          </ns3:TrackPointExtension>
        </extensions>
      </trkpt>
      <trkpt lat="37.75895607657730579376220703125" lon="-107.70601498894393444061279296875">
        <ele>3617</ele>
        <time>2023-07-29T17:54:29.000Z</time>
        <extensions>
          <ns3:TrackPointExtension>
            <ns3:hr>102</ns3:hr>
            <ns3:cad>0</ns3:cad>
          </ns3:TrackPointExtension>
        </extensions>
      </trkpt>
      <trkpt lat="37.7589494548738002777099609375" lon="-107.706019096076488494873046875">
        <ele>3617</ele>
        <time>2023-07-29T17:54:30.000Z</time>
        <extensions>
          <ns3:TrackPointExtension>
            <ns3:hr>103</ns3:hr>
            <ns3:cad>0</ns3:cad>
          </ns3:TrackPointExtension>
        </extensions>
      </trkpt>
      <trkpt lat="37.758945263922214508056640625" lon="-107.7060219459235668182373046875">
        <ele>3616.800048828125</ele>
        <time>2023-07-29T17:54:31.000Z</time>
        <extensions>
          <ns3:TrackPointExtension>
            <ns3:hr>103</ns3:hr>
            <ns3:cad>0</ns3:cad>
          </ns3:TrackPointExtension>
        </extensions>
      </trkpt>
      <trkpt lat="37.7589409053325653076171875" lon="-107.7060236223042011260986328125">
        <ele>3616.800048828125</ele>
        <time>2023-07-29T17:54:32.000Z</time>
        <extensions>
          <ns3:TrackPointExtension>
            <ns3:hr>103</ns3:hr>
            <ns3:cad>0</ns3:cad>
          </ns3:TrackPointExtension>
        </extensions>
      </trkpt>
      <trkpt lat="37.75893528945744037628173828125" lon="-107.70602546632289886474609375">
        <ele>3616.60009765625</ele>
        <time>2023-07-29T17:54:33.000Z</time>
        <extensions>
          <ns3:TrackPointExtension>
            <ns3:hr>103</ns3:hr>
            <ns3:cad>0</ns3:cad>
          </ns3:TrackPointExtension>
        </extensions>
      </trkpt>
      <trkpt lat="37.7589340321719646453857421875" lon="-107.70602504722774028778076171875">
        <ele>3616</ele>
        <time>2023-07-29T17:54:34.000Z</time>
        <extensions>
          <ns3:TrackPointExtension>
            <ns3:hr>103</ns3:hr>
            <ns3:cad>0</ns3:cad>
          </ns3:TrackPointExtension>
        </extensions>
      </trkpt>
      <trkpt lat="37.75892573408782482147216796875" lon="-107.7060289867222309112548828125">
        <ele>3615.800048828125</ele>
        <time>2023-07-29T17:54:35.000Z</time>
        <extensions>
          <ns3:TrackPointExtension>
            <ns3:hr>102</ns3:hr>
            <ns3:cad>0</ns3:cad>
          </ns3:TrackPointExtension>
        </extensions>
      </trkpt>
      <trkpt lat="37.75892305187880992889404296875" lon="-107.7060293219983577728271484375">
        <ele>3615.39990234375</ele>
        <time>2023-07-29T17:54:36.000Z</time>
        <extensions>
          <ns3:TrackPointExtension>
            <ns3:hr>102</ns3:hr>
            <ns3:cad>0</ns3:cad>
          </ns3:TrackPointExtension>
        </extensions>
      </trkpt>
      <trkpt lat="37.758920453488826751708984375" lon="-107.7060289867222309112548828125">
        <ele>3615.199951171875</ele>
        <time>2023-07-29T17:54:37.000Z</time>
        <extensions>
          <ns3:TrackPointExtension>
            <ns3:hr>101</ns3:hr>
            <ns3:cad>0</ns3:cad>
          </ns3:TrackPointExtension>
        </extensions>
      </trkpt>
      <trkpt lat="37.75892104022204875946044921875" lon="-107.706028483808040618896484375">
        <ele>3615</ele>
        <time>2023-07-29T17:54:38.000Z</time>
        <extensions>
          <ns3:TrackPointExtension>
            <ns3:hr>99</ns3:hr>
            <ns3:cad>0</ns3:cad>
          </ns3:TrackPointExtension>
        </extensions>
      </trkpt>
      <trkpt lat="37.7589167654514312744140625" lon="-107.7060313336551189422607421875">
        <ele>3614.60009765625</ele>
        <time>2023-07-29T17:54:39.000Z</time>
        <extensions>
          <ns3:TrackPointExtension>
            <ns3:hr>98</ns3:hr>
            <ns3:cad>0</ns3:cad>
          </ns3:TrackPointExtension>
        </extensions>
      </trkpt>
      <trkpt lat="37.75891383178532123565673828125" lon="-107.70603074692189693450927734375">
        <ele>3614.199951171875</ele>
        <time>2023-07-29T17:54:40.000Z</time>
        <extensions>
          <ns3:TrackPointExtension>
            <ns3:hr>97</ns3:hr>
            <ns3:cad>0</ns3:cad>
          </ns3:TrackPointExtension>
        </extensions>
      </trkpt>
      <trkpt lat="37.75891399942338466644287109375" lon="-107.706029154360294342041015625">
        <ele>3614.199951171875</ele>
        <time>2023-07-29T17:54:41.000Z</time>
        <extensions>
          <ns3:TrackPointExtension>
            <ns3:hr>96</ns3:hr>
            <ns3:cad>0</ns3:cad>
          </ns3:TrackPointExtension>
        </extensions>
      </trkpt>
      <trkpt lat="37.75890746153891086578369140625" lon="-107.70603619515895843505859375">
        <ele>3614</ele>
        <time>2023-07-29T17:54:42.000Z</time>
        <extensions>
          <ns3:TrackPointExtension>
            <ns3:hr>96</ns3:hr>
            <ns3:cad>0</ns3:cad>
          </ns3:TrackPointExtension>
        </extensions>
      </trkpt>
      <trkpt lat="37.75890260003507137298583984375" lon="-107.7060353569686412811279296875">
        <ele>3613.800048828125</ele>
        <time>2023-07-29T17:54:43.000Z</time>
        <extensions>
          <ns3:TrackPointExtension>
            <ns3:hr>96</ns3:hr>
            <ns3:cad>0</ns3:cad>
          </ns3:TrackPointExtension>
        </extensions>
      </trkpt>
      <trkpt lat="37.75889170356094837188720703125" lon="-107.70603711716830730438232421875">
        <ele>3613.60009765625</ele>
        <time>2023-07-29T17:54:44.000Z</time>
        <extensions>
          <ns3:TrackPointExtension>
            <ns3:hr>95</ns3:hr>
            <ns3:cad>0</ns3:cad>
          </ns3:TrackPointExtension>
        </extensions>
      </trkpt>
      <trkpt lat="37.7588834054768085479736328125" lon="-107.70603912882506847381591796875">
        <ele>3613.199951171875</ele>
        <time>2023-07-29T17:54:45.000Z</time>
        <extensions>
          <ns3:TrackPointExtension>
            <ns3:hr>95</ns3:hr>
            <ns3:cad>0</ns3:cad>
          </ns3:TrackPointExtension>
        </extensions>
      </trkpt>
      <trkpt lat="37.75887611322104930877685546875" lon="-107.70604214631021022796630859375">
        <ele>3612.800048828125</ele>
        <time>2023-07-29T17:54:46.000Z</time>
        <extensions>
          <ns3:TrackPointExtension>
            <ns3:hr>95</ns3:hr>
            <ns3:cad>0</ns3:cad>
          </ns3:TrackPointExtension>
        </extensions>
      </trkpt>
      <trkpt lat="37.758877538144588470458984375" lon="-107.70603619515895843505859375">
        <ele>3612.60009765625</ele>
        <time>2023-07-29T17:54:47.000Z</time>
        <extensions>
          <ns3:TrackPointExtension>
            <ns3:hr>95</ns3:hr>
            <ns3:cad>0</ns3:cad>
          </ns3:TrackPointExtension>
        </extensions>
      </trkpt>
      <trkpt lat="37.75887711904942989349365234375" lon="-107.7060333453118801116943359375">
        <ele>3612.39990234375</ele>
        <time>2023-07-29T17:54:48.000Z</time>
        <extensions>
          <ns3:TrackPointExtension>
            <ns3:hr>94</ns3:hr>
            <ns3:cad>0</ns3:cad>
          </ns3:TrackPointExtension>
        </extensions>
      </trkpt>
      <trkpt lat="37.75887292809784412384033203125" lon="-107.70603376440703868865966796875">
        <ele>3612.199951171875</ele>
        <time>2023-07-29T17:54:49.000Z</time>
        <extensions>
          <ns3:TrackPointExtension>
            <ns3:hr>94</ns3:hr>
            <ns3:cad>0</ns3:cad>
          </ns3:TrackPointExtension>
        </extensions>
      </trkpt>
      <trkpt lat="37.758868820965290069580078125" lon="-107.706031166017055511474609375">
        <ele>3612</ele>
        <time>2023-07-29T17:54:50.000Z</time>
        <extensions>
          <ns3:TrackPointExtension>
            <ns3:hr>93</ns3:hr>
            <ns3:cad>0</ns3:cad>
          </ns3:TrackPointExtension>
        </extensions>
      </trkpt>
      <trkpt lat="37.7588612772524356842041015625" lon="-107.70602739416062831878662109375">
        <ele>3611.800048828125</ele>
        <time>2023-07-29T17:54:51.000Z</time>
        <extensions>
          <ns3:TrackPointExtension>
            <ns3:hr>93</ns3:hr>
            <ns3:cad>0</ns3:cad>
          </ns3:TrackPointExtension>
        </extensions>
      </trkpt>
      <trkpt lat="37.75884577073156833648681640625" lon="-107.70601985044777393341064453125">
        <ele>3611.60009765625</ele>
        <time>2023-07-29T17:54:52.000Z</time>
        <extensions>
          <ns3:TrackPointExtension>
            <ns3:hr>92</ns3:hr>
            <ns3:cad>0</ns3:cad>
          </ns3:TrackPointExtension>
        </extensions>
      </trkpt>
      <trkpt lat="37.75882950983941555023193359375" lon="-107.706019766628742218017578125">
        <ele>3611.39990234375</ele>
        <time>2023-07-29T17:54:53.000Z</time>
        <extensions>
          <ns3:TrackPointExtension>
            <ns3:hr>92</ns3:hr>
            <ns3:cad>0</ns3:cad>
          </ns3:TrackPointExtension>
        </extensions>
      </trkpt>
      <trkpt lat="37.758815176784992218017578125" lon="-107.70601415075361728668212890625">
        <ele>3611</ele>
        <time>2023-07-29T17:54:54.000Z</time>
        <extensions>
          <ns3:TrackPointExtension>
            <ns3:hr>91</ns3:hr>
            <ns3:cad>0</ns3:cad>
          </ns3:TrackPointExtension>
        </extensions>
      </trkpt>
      <trkpt lat="37.75880838744342327117919921875" lon="-107.70601297728717327117919921875">
        <ele>3611</ele>
        <time>2023-07-29T17:54:55.000Z</time>
        <extensions>
          <ns3:TrackPointExtension>
            <ns3:hr>91</ns3:hr>
            <ns3:cad>0</ns3:cad>
          </ns3:TrackPointExtension>
        </extensions>
      </trkpt>
      <trkpt lat="37.75880369357764720916748046875" lon="-107.70601549185812473297119140625">
        <ele>3610.800048828125</ele>
        <time>2023-07-29T17:54:56.000Z</time>
        <extensions>
          <ns3:TrackPointExtension>
            <ns3:hr>91</ns3:hr>
            <ns3:cad>0</ns3:cad>
          </ns3:TrackPointExtension>
        </extensions>
      </trkpt>
      <trkpt lat="37.75879447348415851593017578125" lon="-107.70601876080036163330078125">
        <ele>3610.60009765625</ele>
        <time>2023-07-29T17:54:57.000Z</time>
        <extensions>
          <ns3:TrackPointExtension>
            <ns3:hr>91</ns3:hr>
            <ns3:cad>0</ns3:cad>
          </ns3:TrackPointExtension>
        </extensions>
      </trkpt>
      <trkpt lat="37.7587878517806529998779296875" lon="-107.7060221135616302490234375">
        <ele>3610.199951171875</ele>
        <time>2023-07-29T17:54:58.000Z</time>
        <extensions>
          <ns3:TrackPointExtension>
            <ns3:hr>90</ns3:hr>
            <ns3:cad>0</ns3:cad>
          </ns3:TrackPointExtension>
        </extensions>
      </trkpt>
      <trkpt lat="37.7587826550006866455078125" lon="-107.70602236501872539520263671875">
        <ele>3609.60009765625</ele>
        <time>2023-07-29T17:54:59.000Z</time>
        <extensions>
          <ns3:TrackPointExtension>
            <ns3:hr>90</ns3:hr>
            <ns3:cad>0</ns3:cad>
          </ns3:TrackPointExtension>
        </extensions>
      </trkpt>
      <trkpt lat="37.75876932777464389801025390625" lon="-107.70603024400770664215087890625">
        <ele>3609.199951171875</ele>
        <time>2023-07-29T17:55:00.000Z</time>
        <extensions>
          <ns3:TrackPointExtension>
            <ns3:hr>91</ns3:hr>
            <ns3:cad>0</ns3:cad>
          </ns3:TrackPointExtension>
        </extensions>
      </trkpt>
      <trkpt lat="37.758762538433074951171875" lon="-107.70603544078767299652099609375">
        <ele>3609</ele>
        <time>2023-07-29T17:55:01.000Z</time>
        <extensions>
          <ns3:TrackPointExtension>
            <ns3:hr>91</ns3:hr>
            <ns3:cad>0</ns3:cad>
          </ns3:TrackPointExtension>
        </extensions>
      </trkpt>
      <trkpt lat="37.75875608436763286590576171875" lon="-107.70604164339601993560791015625">
        <ele>3608.60009765625</ele>
        <time>2023-07-29T17:55:02.000Z</time>
        <extensions>
          <ns3:TrackPointExtension>
            <ns3:hr>91</ns3:hr>
            <ns3:cad>0</ns3:cad>
          </ns3:TrackPointExtension>
        </extensions>
      </trkpt>
      <trkpt lat="37.7587529830634593963623046875" lon="-107.70604583434760570526123046875">
        <ele>3608.39990234375</ele>
        <time>2023-07-29T17:55:03.000Z</time>
        <extensions>
          <ns3:TrackPointExtension>
            <ns3:hr>91</ns3:hr>
            <ns3:cad>0</ns3:cad>
          </ns3:TrackPointExtension>
        </extensions>
      </trkpt>
      <trkpt lat="37.75874803774058818817138671875" lon="-107.706057317554950714111328125">
        <ele>3608.199951171875</ele>
        <time>2023-07-29T17:55:04.000Z</time>
        <extensions>
          <ns3:TrackPointExtension>
            <ns3:hr>91</ns3:hr>
            <ns3:cad>0</ns3:cad>
          </ns3:TrackPointExtension>
        </extensions>
      </trkpt>
      <trkpt lat="37.75874468497931957244873046875" lon="-107.706068046391010284423828125">
        <ele>3608</ele>
        <time>2023-07-29T17:55:05.000Z</time>
        <extensions>
          <ns3:TrackPointExtension>
            <ns3:hr>92</ns3:hr>
            <ns3:cad>0</ns3:cad>
          </ns3:TrackPointExtension>
        </extensions>
      </trkpt>
      <trkpt lat="37.7587402425706386566162109375" lon="-107.70607986487448215484619140625">
        <ele>3607.800048828125</ele>
        <time>2023-07-29T17:55:06.000Z</time>
        <extensions>
          <ns3:TrackPointExtension>
            <ns3:hr>92</ns3:hr>
            <ns3:cad>0</ns3:cad>
          </ns3:TrackPointExtension>
        </extensions>
      </trkpt>
      <trkpt lat="37.75873948819935321807861328125" lon="-107.7060890011489391326904296875">
        <ele>3607.60009765625</ele>
        <time>2023-07-29T17:55:07.000Z</time>
        <extensions>
          <ns3:TrackPointExtension>
            <ns3:hr>92</ns3:hr>
            <ns3:cad>0</ns3:cad>
          </ns3:TrackPointExtension>
        </extensions>
      </trkpt>
      <trkpt lat="37.75873906910419464111328125" lon="-107.706094197928905487060546875">
        <ele>3607.199951171875</ele>
        <time>2023-07-29T17:55:08.000Z</time>
        <extensions>
          <ns3:TrackPointExtension>
            <ns3:hr>92</ns3:hr>
            <ns3:cad>52</ns3:cad>
          </ns3:TrackPointExtension>
        </extensions>
      </trkpt>
      <trkpt lat="37.758741080760955810546875" lon="-107.70610014908015727996826171875">
        <ele>3607</ele>
        <time>2023-07-29T17:55:09.000Z</time>
        <extensions>
          <ns3:TrackPointExtension>
            <ns3:hr>93</ns3:hr>
            <ns3:cad>53</ns3:cad>
          </ns3:TrackPointExtension>
        </extensions>
      </trkpt>
      <trkpt lat="37.75874082930386066436767578125" lon="-107.70610769279301166534423828125">
        <ele>3606.800048828125</ele>
        <time>2023-07-29T17:55:10.000Z</time>
        <extensions>
          <ns3:TrackPointExtension>
            <ns3:hr>93</ns3:hr>
            <ns3:cad>53</ns3:cad>
          </ns3:TrackPointExtension>
        </extensions>
      </trkpt>
      <trkpt lat="37.758741080760955810546875" lon="-107.7061124704778194427490234375">
        <ele>3606.60009765625</ele>
        <time>2023-07-29T17:55:11.000Z</time>
        <extensions>
          <ns3:TrackPointExtension>
            <ns3:hr>93</ns3:hr>
            <ns3:cad>53</ns3:cad>
          </ns3:TrackPointExtension>
        </extensions>
      </trkpt>
      <trkpt lat="37.7587405778467655181884765625" lon="-107.7061211876571178436279296875">
        <ele>3606.60009765625</ele>
        <time>2023-07-29T17:55:12.000Z</time>
        <extensions>
          <ns3:TrackPointExtension>
            <ns3:hr>94</ns3:hr>
            <ns3:cad>44</ns3:cad>
          </ns3:TrackPointExtension>
        </extensions>
      </trkpt>
      <trkpt lat="37.75874082930386066436767578125" lon="-107.7061329223215579986572265625">
        <ele>3606.39990234375</ele>
        <time>2023-07-29T17:55:13.000Z</time>
        <extensions>
          <ns3:TrackPointExtension>
            <ns3:hr>94</ns3:hr>
            <ns3:cad>44</ns3:cad>
          </ns3:TrackPointExtension>
        </extensions>
      </trkpt>
      <trkpt lat="37.7587397396564483642578125" lon="-107.70614457316696643829345703125">
        <ele>3605.800048828125</ele>
        <time>2023-07-29T17:55:14.000Z</time>
        <extensions>
          <ns3:TrackPointExtension>
            <ns3:hr>94</ns3:hr>
            <ns3:cad>44</ns3:cad>
          </ns3:TrackPointExtension>
        </extensions>
      </trkpt>
      <trkpt lat="37.75873529724776744842529296875" lon="-107.7061573974788188934326171875">
        <ele>3605.60009765625</ele>
        <time>2023-07-29T17:55:15.000Z</time>
        <extensions>
          <ns3:TrackPointExtension>
            <ns3:hr>94</ns3:hr>
            <ns3:cad>44</ns3:cad>
          </ns3:TrackPointExtension>
        </extensions>
      </trkpt>
      <trkpt lat="37.758732698857784271240234375" lon="-107.7061694674193859100341796875">
        <ele>3605.39990234375</ele>
        <time>2023-07-29T17:55:16.000Z</time>
        <extensions>
          <ns3:TrackPointExtension>
            <ns3:hr>94</ns3:hr>
            <ns3:cad>44</ns3:cad>
          </ns3:TrackPointExtension>
        </extensions>
      </trkpt>
      <trkpt lat="37.75872859172523021697998046875" lon="-107.7061788551509380340576171875">
        <ele>3605</ele>
        <time>2023-07-29T17:55:17.000Z</time>
        <extensions>
          <ns3:TrackPointExtension>
            <ns3:hr>94</ns3:hr>
            <ns3:cad>44</ns3:cad>
          </ns3:TrackPointExtension>
        </extensions>
      </trkpt>
      <trkpt lat="37.758726663887500762939453125" lon="-107.7061922661960124969482421875">
        <ele>3604.800048828125</ele>
        <time>2023-07-29T17:55:18.000Z</time>
        <extensions>
          <ns3:TrackPointExtension>
            <ns3:hr>94</ns3:hr>
            <ns3:cad>44</ns3:cad>
          </ns3:TrackPointExtension>
        </extensions>
      </trkpt>
      <trkpt lat="37.75872389785945415496826171875" lon="-107.706206180155277252197265625">
        <ele>3604.60009765625</ele>
        <time>2023-07-29T17:55:19.000Z</time>
        <extensions>
          <ns3:TrackPointExtension>
            <ns3:hr>94</ns3:hr>
            <ns3:cad>44</ns3:cad>
          </ns3:TrackPointExtension>
        </extensions>
      </trkpt>
      <trkpt lat="37.7587236464023590087890625" lon="-107.7062098681926727294921875">
        <ele>3604.39990234375</ele>
        <time>2023-07-29T17:55:20.000Z</time>
        <extensions>
          <ns3:TrackPointExtension>
            <ns3:hr>94</ns3:hr>
            <ns3:cad>44</ns3:cad>
          </ns3:TrackPointExtension>
        </extensions>
      </trkpt>
      <trkpt lat="37.7587204612791538238525390625" lon="-107.70622051320970058441162109375">
        <ele>3604.199951171875</ele>
        <time>2023-07-29T17:55:21.000Z</time>
        <extensions>
          <ns3:TrackPointExtension>
            <ns3:hr>95</ns3:hr>
            <ns3:cad>65</ns3:cad>
          </ns3:TrackPointExtension>
        </extensions>
      </trkpt>
      <trkpt lat="37.75871895253658294677734375" lon="-107.7062244527041912078857421875">
        <ele>3604.199951171875</ele>
        <time>2023-07-29T17:55:22.000Z</time>
        <extensions>
          <ns3:TrackPointExtension>
            <ns3:hr>95</ns3:hr>
            <ns3:cad>65</ns3:cad>
          </ns3:TrackPointExtension>
        </extensions>
      </trkpt>
      <trkpt lat="37.75871886871755123138427734375" lon="-107.70623057149350643157958984375">
        <ele>3603.800048828125</ele>
        <time>2023-07-29T17:55:23.000Z</time>
        <extensions>
          <ns3:TrackPointExtension>
            <ns3:hr>95</ns3:hr>
            <ns3:cad>65</ns3:cad>
          </ns3:TrackPointExtension>
        </extensions>
      </trkpt>
      <trkpt lat="37.75871627032756805419921875" lon="-107.70624482072889804840087890625">
        <ele>3603.39990234375</ele>
        <time>2023-07-29T17:55:24.000Z</time>
        <extensions>
          <ns3:TrackPointExtension>
            <ns3:hr>95</ns3:hr>
            <ns3:cad>63</ns3:cad>
          </ns3:TrackPointExtension>
        </extensions>
      </trkpt>
      <trkpt lat="37.75871224701404571533203125" lon="-107.70625689066946506500244140625">
        <ele>3603.199951171875</ele>
        <time>2023-07-29T17:55:25.000Z</time>
        <extensions>
          <ns3:TrackPointExtension>
            <ns3:hr>95</ns3:hr>
            <ns3:cad>62</ns3:cad>
          </ns3:TrackPointExtension>
        </extensions>
      </trkpt>
      <trkpt lat="37.7587070502340793609619140625" lon="-107.706267200410366058349609375">
        <ele>3603</ele>
        <time>2023-07-29T17:55:26.000Z</time>
        <extensions>
          <ns3:TrackPointExtension>
            <ns3:hr>95</ns3:hr>
            <ns3:cad>62</ns3:cad>
          </ns3:TrackPointExtension>
        </extensions>
      </trkpt>
      <trkpt lat="37.75870596058666706085205078125" lon="-107.70627264864742755889892578125">
        <ele>3603</ele>
        <time>2023-07-29T17:55:27.000Z</time>
        <extensions>
          <ns3:TrackPointExtension>
            <ns3:hr>95</ns3:hr>
            <ns3:cad>15</ns3:cad>
          </ns3:TrackPointExtension>
        </extensions>
      </trkpt>
      <trkpt lat="37.75870420038700103759765625" lon="-107.70627633668482303619384765625">
        <ele>3602.60009765625</ele>
        <time>2023-07-29T17:55:28.000Z</time>
        <extensions>
          <ns3:TrackPointExtension>
            <ns3:hr>95</ns3:hr>
            <ns3:cad>15</ns3:cad>
          </ns3:TrackPointExtension>
        </extensions>
      </trkpt>
      <trkpt lat="37.75869841687381267547607421875" lon="-107.70628505386412143707275390625">
        <ele>3602.60009765625</ele>
        <time>2023-07-29T17:55:29.000Z</time>
        <extensions>
          <ns3:TrackPointExtension>
            <ns3:hr>95</ns3:hr>
            <ns3:cad>15</ns3:cad>
          </ns3:TrackPointExtension>
        </extensions>
      </trkpt>
      <trkpt lat="37.75869338773190975189208984375" lon="-107.70629226230084896087646484375">
        <ele>3602.199951171875</ele>
        <time>2023-07-29T17:55:30.000Z</time>
        <extensions>
          <ns3:TrackPointExtension>
            <ns3:hr>95</ns3:hr>
            <ns3:cad>15</ns3:cad>
          </ns3:TrackPointExtension>
        </extensions>
      </trkpt>
      <trkpt lat="37.758688442409038543701171875" lon="-107.7062978781759738922119140625">
        <ele>3601.800048828125</ele>
        <time>2023-07-29T17:55:31.000Z</time>
        <extensions>
          <ns3:TrackPointExtension>
            <ns3:hr>95</ns3:hr>
            <ns3:cad>15</ns3:cad>
          </ns3:TrackPointExtension>
        </extensions>
      </trkpt>
      <trkpt lat="37.758681066334247589111328125" lon="-107.70630466751754283905029296875">
        <ele>3601.39990234375</ele>
        <time>2023-07-29T17:55:32.000Z</time>
        <extensions>
          <ns3:TrackPointExtension>
            <ns3:hr>95</ns3:hr>
            <ns3:cad>15</ns3:cad>
          </ns3:TrackPointExtension>
        </extensions>
      </trkpt>
      <trkpt lat="37.7586778812110424041748046875" lon="-107.706312797963619232177734375">
        <ele>3601.199951171875</ele>
        <time>2023-07-29T17:55:33.000Z</time>
        <extensions>
          <ns3:TrackPointExtension>
            <ns3:hr>95</ns3:hr>
            <ns3:cad>0</ns3:cad>
          </ns3:TrackPointExtension>
        </extensions>
      </trkpt>
      <trkpt lat="37.7586735226213932037353515625" lon="-107.7063193358480930328369140625">
        <ele>3601</ele>
        <time>2023-07-29T17:55:34.000Z</time>
        <extensions>
          <ns3:TrackPointExtension>
            <ns3:hr>95</ns3:hr>
            <ns3:cad>0</ns3:cad>
          </ns3:TrackPointExtension>
        </extensions>
      </trkpt>
      <trkpt lat="37.758666314184665679931640625" lon="-107.70633249543607234954833984375">
        <ele>3600.800048828125</ele>
        <time>2023-07-29T17:55:35.000Z</time>
        <extensions>
          <ns3:TrackPointExtension>
            <ns3:hr>95</ns3:hr>
            <ns3:cad>0</ns3:cad>
          </ns3:TrackPointExtension>
        </extensions>
      </trkpt>
      <trkpt lat="37.7586631290614604949951171875" lon="-107.70633836276829242706298828125">
        <ele>3600.60009765625</ele>
        <time>2023-07-29T17:55:36.000Z</time>
        <extensions>
          <ns3:TrackPointExtension>
            <ns3:hr>95</ns3:hr>
            <ns3:cad>0</ns3:cad>
          </ns3:TrackPointExtension>
        </extensions>
      </trkpt>
      <trkpt lat="37.7586592733860015869140625" lon="-107.706347666680812835693359375">
        <ele>3600.39990234375</ele>
        <time>2023-07-29T17:55:37.000Z</time>
        <extensions>
          <ns3:TrackPointExtension>
            <ns3:hr>95</ns3:hr>
            <ns3:cad>0</ns3:cad>
          </ns3:TrackPointExtension>
        </extensions>
      </trkpt>
      <trkpt lat="37.7586594410240650177001953125" lon="-107.7063558809459209442138671875">
        <ele>3600</ele>
        <time>2023-07-29T17:55:38.000Z</time>
        <extensions>
          <ns3:TrackPointExtension>
            <ns3:hr>95</ns3:hr>
            <ns3:cad>0</ns3:cad>
          </ns3:TrackPointExtension>
        </extensions>
      </trkpt>
      <trkpt lat="37.75865902192890644073486328125" lon="-107.706369459629058837890625">
        <ele>3599.60009765625</ele>
        <time>2023-07-29T17:55:39.000Z</time>
        <extensions>
          <ns3:TrackPointExtension>
            <ns3:hr>95</ns3:hr>
            <ns3:cad>0</ns3:cad>
          </ns3:TrackPointExtension>
        </extensions>
      </trkpt>
      <trkpt lat="37.75865885429084300994873046875" lon="-107.70638278685510158538818359375">
        <ele>3599.39990234375</ele>
        <time>2023-07-29T17:55:40.000Z</time>
        <extensions>
          <ns3:TrackPointExtension>
            <ns3:hr>95</ns3:hr>
            <ns3:cad>0</ns3:cad>
          </ns3:TrackPointExtension>
        </extensions>
      </trkpt>
      <trkpt lat="37.75865885429084300994873046875" lon="-107.7063957788050174713134765625">
        <ele>3599</ele>
        <time>2023-07-29T17:55:41.000Z</time>
        <extensions>
          <ns3:TrackPointExtension>
            <ns3:hr>95</ns3:hr>
            <ns3:cad>0</ns3:cad>
          </ns3:TrackPointExtension>
        </extensions>
      </trkpt>
      <trkpt lat="37.75865860283374786376953125" lon="-107.70640944130718708038330078125">
        <ele>3599</ele>
        <time>2023-07-29T17:55:42.000Z</time>
        <extensions>
          <ns3:TrackPointExtension>
            <ns3:hr>95</ns3:hr>
            <ns3:cad>0</ns3:cad>
          </ns3:TrackPointExtension>
        </extensions>
      </trkpt>
      <trkpt lat="37.75865818373858928680419921875" lon="-107.706427462399005889892578125">
        <ele>3598.800048828125</ele>
        <time>2023-07-29T17:55:43.000Z</time>
        <extensions>
          <ns3:TrackPointExtension>
            <ns3:hr>95</ns3:hr>
            <ns3:cad>0</ns3:cad>
          </ns3:TrackPointExtension>
        </extensions>
      </trkpt>
      <trkpt lat="37.7586565911769866943359375" lon="-107.7064467407763004302978515625">
        <ele>3598.60009765625</ele>
        <time>2023-07-29T17:55:44.000Z</time>
        <extensions>
          <ns3:TrackPointExtension>
            <ns3:hr>95</ns3:hr>
            <ns3:cad>0</ns3:cad>
          </ns3:TrackPointExtension>
        </extensions>
      </trkpt>
      <trkpt lat="37.75865457952022552490234375" lon="-107.7064534462988376617431640625">
        <ele>3598.39990234375</ele>
        <time>2023-07-29T17:55:45.000Z</time>
        <extensions>
          <ns3:TrackPointExtension>
            <ns3:hr>96</ns3:hr>
            <ns3:cad>0</ns3:cad>
          </ns3:TrackPointExtension>
        </extensions>
      </trkpt>
      <trkpt lat="37.75865214876830577850341796875" lon="-107.706465683877468109130859375">
        <ele>3598.39990234375</ele>
        <time>2023-07-29T17:55:46.000Z</time>
        <extensions>
          <ns3:TrackPointExtension>
            <ns3:hr>98</ns3:hr>
            <ns3:cad>57</ns3:cad>
          </ns3:TrackPointExtension>
        </extensions>
      </trkpt>
      <trkpt lat="37.75864829309284687042236328125" lon="-107.7064745686948299407958984375">
        <ele>3598</ele>
        <time>2023-07-29T17:55:47.000Z</time>
        <extensions>
          <ns3:TrackPointExtension>
            <ns3:hr>99</ns3:hr>
            <ns3:cad>57</ns3:cad>
          </ns3:TrackPointExtension>
        </extensions>
      </trkpt>
      <trkpt lat="37.7586431801319122314453125" lon="-107.706492841243743896484375">
        <ele>3597.800048828125</ele>
        <time>2023-07-29T17:55:48.000Z</time>
        <extensions>
          <ns3:TrackPointExtension>
            <ns3:hr>99</ns3:hr>
            <ns3:cad>57</ns3:cad>
          </ns3:TrackPointExtension>
        </extensions>
      </trkpt>
      <trkpt lat="37.758637480437755584716796875" lon="-107.7064960263669490814208984375">
        <ele>3597.39990234375</ele>
        <time>2023-07-29T17:55:49.000Z</time>
        <extensions>
          <ns3:TrackPointExtension>
            <ns3:hr>98</ns3:hr>
            <ns3:cad>57</ns3:cad>
          </ns3:TrackPointExtension>
        </extensions>
      </trkpt>
      <trkpt lat="37.75863186456263065338134765625" lon="-107.70650289952754974365234375">
        <ele>3597</ele>
        <time>2023-07-29T17:55:50.000Z</time>
        <extensions>
          <ns3:TrackPointExtension>
            <ns3:hr>98</ns3:hr>
            <ns3:cad>57</ns3:cad>
          </ns3:TrackPointExtension>
        </extensions>
      </trkpt>
      <trkpt lat="37.7586275897920131683349609375" lon="-107.7065091021358966827392578125">
        <ele>3596.800048828125</ele>
        <time>2023-07-29T17:55:51.000Z</time>
        <extensions>
          <ns3:TrackPointExtension>
            <ns3:hr>98</ns3:hr>
            <ns3:cad>57</ns3:cad>
          </ns3:TrackPointExtension>
        </extensions>
      </trkpt>
      <trkpt lat="37.75861811824142932891845703125" lon="-107.7065148018300533294677734375">
        <ele>3596.60009765625</ele>
        <time>2023-07-29T17:55:52.000Z</time>
        <extensions>
          <ns3:TrackPointExtension>
            <ns3:hr>98</ns3:hr>
            <ns3:cad>57</ns3:cad>
          </ns3:TrackPointExtension>
        </extensions>
      </trkpt>
      <trkpt lat="37.75861375965178012847900390625" lon="-107.70652427338063716888427734375">
        <ele>3596.199951171875</ele>
        <time>2023-07-29T17:55:53.000Z</time>
        <extensions>
          <ns3:TrackPointExtension>
            <ns3:hr>98</ns3:hr>
            <ns3:cad>57</ns3:cad>
          </ns3:TrackPointExtension>
        </extensions>
      </trkpt>
      <trkpt lat="37.75860973633825778961181640625" lon="-107.7065298892557621002197265625">
        <ele>3596</ele>
        <time>2023-07-29T17:55:54.000Z</time>
        <extensions>
          <ns3:TrackPointExtension>
            <ns3:hr>98</ns3:hr>
            <ns3:cad>57</ns3:cad>
          </ns3:TrackPointExtension>
        </extensions>
      </trkpt>
      <trkpt lat="37.75860420428216457366943359375" lon="-107.70654321648180484771728515625">
        <ele>3595.60009765625</ele>
        <time>2023-07-29T17:55:55.000Z</time>
        <extensions>
          <ns3:TrackPointExtension>
            <ns3:hr>98</ns3:hr>
            <ns3:cad>57</ns3:cad>
          </ns3:TrackPointExtension>
        </extensions>
      </trkpt>
      <trkpt lat="37.75859733112156391143798828125" lon="-107.706560231745243072509765625">
        <ele>3595.60009765625</ele>
        <time>2023-07-29T17:55:56.000Z</time>
        <extensions>
          <ns3:TrackPointExtension>
            <ns3:hr>98</ns3:hr>
            <ns3:cad>57</ns3:cad>
          </ns3:TrackPointExtension>
        </extensions>
      </trkpt>
      <trkpt lat="37.75858911685645580291748046875" lon="-107.706570960581302642822265625">
        <ele>3595.39990234375</ele>
        <time>2023-07-29T17:55:57.000Z</time>
        <extensions>
          <ns3:TrackPointExtension>
            <ns3:hr>98</ns3:hr>
            <ns3:cad>57</ns3:cad>
          </ns3:TrackPointExtension>
        </extensions>
      </trkpt>
      <trkpt lat="37.75858123786747455596923828125" lon="-107.70658395253121852874755859375">
        <ele>3595.199951171875</ele>
        <time>2023-07-29T17:55:58.000Z</time>
        <extensions>
          <ns3:TrackPointExtension>
            <ns3:hr>98</ns3:hr>
            <ns3:cad>57</ns3:cad>
          </ns3:TrackPointExtension>
        </extensions>
      </trkpt>
      <trkpt lat="37.75857721455395221710205078125" lon="-107.70659484900534152984619140625">
        <ele>3594.800048828125</ele>
        <time>2023-07-29T17:55:59.000Z</time>
        <extensions>
          <ns3:TrackPointExtension>
            <ns3:hr>98</ns3:hr>
            <ns3:cad>57</ns3:cad>
          </ns3:TrackPointExtension>
        </extensions>
      </trkpt>
      <trkpt lat="37.758571766316890716552734375" lon="-107.70660323090851306915283203125">
        <ele>3594.60009765625</ele>
        <time>2023-07-29T17:56:00.000Z</time>
        <extensions>
          <ns3:TrackPointExtension>
            <ns3:hr>98</ns3:hr>
            <ns3:cad>57</ns3:cad>
          </ns3:TrackPointExtension>
        </extensions>
      </trkpt>
      <trkpt lat="37.75856698863208293914794921875" lon="-107.7066133730113506317138671875">
        <ele>3594.60009765625</ele>
        <time>2023-07-29T17:56:01.000Z</time>
        <extensions>
          <ns3:TrackPointExtension>
            <ns3:hr>98</ns3:hr>
            <ns3:cad>57</ns3:cad>
          </ns3:TrackPointExtension>
        </extensions>
      </trkpt>
      <trkpt lat="37.75856296531856060028076171875" lon="-107.706623934209346771240234375">
        <ele>3594.39990234375</ele>
        <time>2023-07-29T17:56:02.000Z</time>
        <extensions>
          <ns3:TrackPointExtension>
            <ns3:hr>98</ns3:hr>
            <ns3:cad>57</ns3:cad>
          </ns3:TrackPointExtension>
        </extensions>
      </trkpt>
      <trkpt lat="37.75855760090053081512451171875" lon="-107.7066309750080108642578125">
        <ele>3594</ele>
        <time>2023-07-29T17:56:03.000Z</time>
        <extensions>
          <ns3:TrackPointExtension>
            <ns3:hr>98</ns3:hr>
            <ns3:cad>57</ns3:cad>
          </ns3:TrackPointExtension>
        </extensions>
      </trkpt>
      <trkpt lat="37.75855056010186672210693359375" lon="-107.70664011128246784210205078125">
        <ele>3593.60009765625</ele>
        <time>2023-07-29T17:56:04.000Z</time>
        <extensions>
          <ns3:TrackPointExtension>
            <ns3:hr>97</ns3:hr>
            <ns3:cad>57</ns3:cad>
          </ns3:TrackPointExtension>
        </extensions>
      </trkpt>
      <trkpt lat="37.7585437707602977752685546875" lon="-107.7066495828330516815185546875">
        <ele>3593.39990234375</ele>
        <time>2023-07-29T17:56:05.000Z</time>
        <extensions>
          <ns3:TrackPointExtension>
            <ns3:hr>97</ns3:hr>
            <ns3:cad>57</ns3:cad>
          </ns3:TrackPointExtension>
        </extensions>
      </trkpt>
      <trkpt lat="37.75853597559034824371337890625" lon="-107.7066604793071746826171875">
        <ele>3593.199951171875</ele>
        <time>2023-07-29T17:56:06.000Z</time>
        <extensions>
          <ns3:TrackPointExtension>
            <ns3:hr>98</ns3:hr>
            <ns3:cad>19</ns3:cad>
          </ns3:TrackPointExtension>
        </extensions>
      </trkpt>
      <trkpt lat="37.7585296891629695892333984375" lon="-107.70666358061134815216064453125">
        <ele>3593</ele>
        <time>2023-07-29T17:56:07.000Z</time>
        <extensions>
          <ns3:TrackPointExtension>
            <ns3:hr>98</ns3:hr>
            <ns3:cad>19</ns3:cad>
          </ns3:TrackPointExtension>
        </extensions>
      </trkpt>
      <trkpt lat="37.7585226483643054962158203125" lon="-107.7066720463335514068603515625">
        <ele>3592.800048828125</ele>
        <time>2023-07-29T17:56:08.000Z</time>
        <extensions>
          <ns3:TrackPointExtension>
            <ns3:hr>98</ns3:hr>
            <ns3:cad>19</ns3:cad>
          </ns3:TrackPointExtension>
        </extensions>
      </trkpt>
      <trkpt lat="37.75851937942206859588623046875" lon="-107.70667514763772487640380859375">
        <ele>3592.800048828125</ele>
        <time>2023-07-29T17:56:09.000Z</time>
        <extensions>
          <ns3:TrackPointExtension>
            <ns3:hr>98</ns3:hr>
            <ns3:cad>0</ns3:cad>
          </ns3:TrackPointExtension>
        </extensions>
      </trkpt>
      <trkpt lat="37.7585125900804996490478515625" lon="-107.70668302662670612335205078125">
        <ele>3592.60009765625</ele>
        <time>2023-07-29T17:56:10.000Z</time>
        <extensions>
          <ns3:TrackPointExtension>
            <ns3:hr>98</ns3:hr>
            <ns3:cad>0</ns3:cad>
          </ns3:TrackPointExtension>
        </extensions>
      </trkpt>
      <trkpt lat="37.75850772857666015625" lon="-107.70669207908213138580322265625">
        <ele>3592.39990234375</ele>
        <time>2023-07-29T17:56:11.000Z</time>
        <extensions>
          <ns3:TrackPointExtension>
            <ns3:hr>98</ns3:hr>
            <ns3:cad>0</ns3:cad>
          </ns3:TrackPointExtension>
        </extensions>
      </trkpt>
      <trkpt lat="37.75850127451121807098388671875" lon="-107.70670096389949321746826171875">
        <ele>3592.199951171875</ele>
        <time>2023-07-29T17:56:12.000Z</time>
        <extensions>
          <ns3:TrackPointExtension>
            <ns3:hr>97</ns3:hr>
            <ns3:cad>0</ns3:cad>
          </ns3:TrackPointExtension>
        </extensions>
      </trkpt>
      <trkpt lat="37.75849792174994945526123046875" lon="-107.70670984871685504913330078125">
        <ele>3591.800048828125</ele>
        <time>2023-07-29T17:56:13.000Z</time>
        <extensions>
          <ns3:TrackPointExtension>
            <ns3:hr>97</ns3:hr>
            <ns3:cad>0</ns3:cad>
          </ns3:TrackPointExtension>
        </extensions>
      </trkpt>
      <trkpt lat="37.7584931440651416778564453125" lon="-107.70672191865742206573486328125">
        <ele>3591.39990234375</ele>
        <time>2023-07-29T17:56:14.000Z</time>
        <extensions>
          <ns3:TrackPointExtension>
            <ns3:hr>97</ns3:hr>
            <ns3:cad>0</ns3:cad>
          </ns3:TrackPointExtension>
        </extensions>
      </trkpt>
      <trkpt lat="37.75849155150353908538818359375" lon="-107.70672812126576900482177734375">
        <ele>3591.199951171875</ele>
        <time>2023-07-29T17:56:15.000Z</time>
        <extensions>
          <ns3:TrackPointExtension>
            <ns3:hr>97</ns3:hr>
            <ns3:cad>0</ns3:cad>
          </ns3:TrackPointExtension>
        </extensions>
      </trkpt>
      <trkpt lat="37.7584864385426044464111328125" lon="-107.70673817954957485198974609375">
        <ele>3591</ele>
        <time>2023-07-29T17:56:16.000Z</time>
        <extensions>
          <ns3:TrackPointExtension>
            <ns3:hr>97</ns3:hr>
            <ns3:cad>0</ns3:cad>
          </ns3:TrackPointExtension>
        </extensions>
      </trkpt>
      <trkpt lat="37.75847696699202060699462890625" lon="-107.706752680242061614990234375">
        <ele>3590.800048828125</ele>
        <time>2023-07-29T17:56:17.000Z</time>
        <extensions>
          <ns3:TrackPointExtension>
            <ns3:hr>97</ns3:hr>
            <ns3:cad>0</ns3:cad>
          </ns3:TrackPointExtension>
        </extensions>
      </trkpt>
      <trkpt lat="37.7584690041840076446533203125" lon="-107.70676349289715290069580078125">
        <ele>3590.199951171875</ele>
        <time>2023-07-29T17:56:18.000Z</time>
        <extensions>
          <ns3:TrackPointExtension>
            <ns3:hr>97</ns3:hr>
            <ns3:cad>0</ns3:cad>
          </ns3:TrackPointExtension>
        </extensions>
      </trkpt>
      <trkpt lat="37.7584619633853435516357421875" lon="-107.70677221007645130157470703125">
        <ele>3590</ele>
        <time>2023-07-29T17:56:19.000Z</time>
        <extensions>
          <ns3:TrackPointExtension>
            <ns3:hr>97</ns3:hr>
            <ns3:cad>0</ns3:cad>
          </ns3:TrackPointExtension>
        </extensions>
      </trkpt>
      <trkpt lat="37.75845634751021862030029296875" lon="-107.7067806757986545562744140625">
        <ele>3590</ele>
        <time>2023-07-29T17:56:20.000Z</time>
        <extensions>
          <ns3:TrackPointExtension>
            <ns3:hr>97</ns3:hr>
            <ns3:cad>0</ns3:cad>
          </ns3:TrackPointExtension>
        </extensions>
      </trkpt>
      <trkpt lat="37.7584475465118885040283203125" lon="-107.70679651759564876556396484375">
        <ele>3589.60009765625</ele>
        <time>2023-07-29T17:56:21.000Z</time>
        <extensions>
          <ns3:TrackPointExtension>
            <ns3:hr>97</ns3:hr>
            <ns3:cad>60</ns3:cad>
          </ns3:TrackPointExtension>
        </extensions>
      </trkpt>
      <trkpt lat="37.75844268500804901123046875" lon="-107.70680406130850315093994140625">
        <ele>3589.60009765625</ele>
        <time>2023-07-29T17:56:22.000Z</time>
        <extensions>
          <ns3:TrackPointExtension>
            <ns3:hr>97</ns3:hr>
            <ns3:cad>60</ns3:cad>
          </ns3:TrackPointExtension>
        </extensions>
      </trkpt>
      <trkpt lat="37.7584378235042095184326171875" lon="-107.706811018288135528564453125">
        <ele>3589.199951171875</ele>
        <time>2023-07-29T17:56:23.000Z</time>
        <extensions>
          <ns3:TrackPointExtension>
            <ns3:hr>98</ns3:hr>
            <ns3:cad>60</ns3:cad>
          </ns3:TrackPointExtension>
        </extensions>
      </trkpt>
      <trkpt lat="37.7584301121532917022705078125" lon="-107.706819735467433929443359375">
        <ele>3589</ele>
        <time>2023-07-29T17:56:24.000Z</time>
        <extensions>
          <ns3:TrackPointExtension>
            <ns3:hr>97</ns3:hr>
            <ns3:cad>60</ns3:cad>
          </ns3:TrackPointExtension>
        </extensions>
      </trkpt>
      <trkpt lat="37.75841846130788326263427734375" lon="-107.70683507435023784637451171875">
        <ele>3588.39990234375</ele>
        <time>2023-07-29T17:56:25.000Z</time>
        <extensions>
          <ns3:TrackPointExtension>
            <ns3:hr>97</ns3:hr>
            <ns3:cad>60</ns3:cad>
          </ns3:TrackPointExtension>
        </extensions>
      </trkpt>
      <trkpt lat="37.7584099955856800079345703125" lon="-107.70684513263404369354248046875">
        <ele>3587.800048828125</ele>
        <time>2023-07-29T17:56:26.000Z</time>
        <extensions>
          <ns3:TrackPointExtension>
            <ns3:hr>97</ns3:hr>
            <ns3:cad>60</ns3:cad>
          </ns3:TrackPointExtension>
        </extensions>
      </trkpt>
      <trkpt lat="37.75840069167315959930419921875" lon="-107.7068577893078327178955078125">
        <ele>3587.39990234375</ele>
        <time>2023-07-29T17:56:27.000Z</time>
        <extensions>
          <ns3:TrackPointExtension>
            <ns3:hr>97</ns3:hr>
            <ns3:cad>60</ns3:cad>
          </ns3:TrackPointExtension>
        </extensions>
      </trkpt>
      <trkpt lat="37.75839096866548061370849609375" lon="-107.70687513984739780426025390625">
        <ele>3587.199951171875</ele>
        <time>2023-07-29T17:56:28.000Z</time>
        <extensions>
          <ns3:TrackPointExtension>
            <ns3:hr>97</ns3:hr>
            <ns3:cad>60</ns3:cad>
          </ns3:TrackPointExtension>
        </extensions>
      </trkpt>
      <trkpt lat="37.75838493369519710540771484375" lon="-107.706894166767597198486328125">
        <ele>3587.199951171875</ele>
        <time>2023-07-29T17:56:29.000Z</time>
        <extensions>
          <ns3:TrackPointExtension>
            <ns3:hr>97</ns3:hr>
            <ns3:cad>60</ns3:cad>
          </ns3:TrackPointExtension>
        </extensions>
      </trkpt>
      <trkpt lat="37.75838107801973819732666015625" lon="-107.70690699107944965362548828125">
        <ele>3587</ele>
        <time>2023-07-29T17:56:30.000Z</time>
        <extensions>
          <ns3:TrackPointExtension>
            <ns3:hr>96</ns3:hr>
            <ns3:cad>60</ns3:cad>
          </ns3:TrackPointExtension>
        </extensions>
      </trkpt>
      <trkpt lat="37.75837789289653301239013671875" lon="-107.70691805519163608551025390625">
        <ele>3586.800048828125</ele>
        <time>2023-07-29T17:56:31.000Z</time>
        <extensions>
          <ns3:TrackPointExtension>
            <ns3:hr>96</ns3:hr>
            <ns3:cad>60</ns3:cad>
          </ns3:TrackPointExtension>
        </extensions>
      </trkpt>
      <trkpt lat="37.7583731152117252349853515625" lon="-107.7069271914660930633544921875">
        <ele>3586.60009765625</ele>
        <time>2023-07-29T17:56:32.000Z</time>
        <extensions>
          <ns3:TrackPointExtension>
            <ns3:hr>96</ns3:hr>
            <ns3:cad>60</ns3:cad>
          </ns3:TrackPointExtension>
        </extensions>
      </trkpt>
      <trkpt lat="37.758367918431758880615234375" lon="-107.70693666301667690277099609375">
        <ele>3586.60009765625</ele>
        <time>2023-07-29T17:56:33.000Z</time>
        <extensions>
          <ns3:TrackPointExtension>
            <ns3:hr>96</ns3:hr>
            <ns3:cad>60</ns3:cad>
          </ns3:TrackPointExtension>
        </extensions>
      </trkpt>
      <trkpt lat="37.758366577327251434326171875" lon="-107.70694102160632610321044921875">
        <ele>3586.39990234375</ele>
        <time>2023-07-29T17:56:34.000Z</time>
        <extensions>
          <ns3:TrackPointExtension>
            <ns3:hr>96</ns3:hr>
            <ns3:cad>60</ns3:cad>
          </ns3:TrackPointExtension>
        </extensions>
      </trkpt>
      <trkpt lat="37.75836079381406307220458984375" lon="-107.70694839768111705780029296875">
        <ele>3586</ele>
        <time>2023-07-29T17:56:35.000Z</time>
        <extensions>
          <ns3:TrackPointExtension>
            <ns3:hr>96</ns3:hr>
            <ns3:cad>60</ns3:cad>
          </ns3:TrackPointExtension>
        </extensions>
      </trkpt>
      <trkpt lat="37.7583553455770015716552734375" lon="-107.7069593779742717742919921875">
        <ele>3585.800048828125</ele>
        <time>2023-07-29T17:56:36.000Z</time>
        <extensions>
          <ns3:TrackPointExtension>
            <ns3:hr>96</ns3:hr>
            <ns3:cad>60</ns3:cad>
          </ns3:TrackPointExtension>
        </extensions>
      </trkpt>
      <trkpt lat="37.7583486400544643402099609375" lon="-107.70697220228612422943115234375">
        <ele>3585.60009765625</ele>
        <time>2023-07-29T17:56:37.000Z</time>
        <extensions>
          <ns3:TrackPointExtension>
            <ns3:hr>96</ns3:hr>
            <ns3:cad>0</ns3:cad>
          </ns3:TrackPointExtension>
        </extensions>
      </trkpt>
      <trkpt lat="37.758342437446117401123046875" lon="-107.70697823725640773773193359375">
        <ele>3585.199951171875</ele>
        <time>2023-07-29T17:56:38.000Z</time>
        <extensions>
          <ns3:TrackPointExtension>
            <ns3:hr>97</ns3:hr>
            <ns3:cad>0</ns3:cad>
          </ns3:TrackPointExtension>
        </extensions>
      </trkpt>
      <trkpt lat="37.75833682157099246978759765625" lon="-107.70698360167443752288818359375">
        <ele>3585</ele>
        <time>2023-07-29T17:56:39.000Z</time>
        <extensions>
          <ns3:TrackPointExtension>
            <ns3:hr>97</ns3:hr>
            <ns3:cad>0</ns3:cad>
          </ns3:TrackPointExtension>
        </extensions>
      </trkpt>
      <trkpt lat="37.75832978077232837677001953125" lon="-107.70698946900665760040283203125">
        <ele>3585</ele>
        <time>2023-07-29T17:56:40.000Z</time>
        <extensions>
          <ns3:TrackPointExtension>
            <ns3:hr>97</ns3:hr>
            <ns3:cad>0</ns3:cad>
          </ns3:TrackPointExtension>
        </extensions>
      </trkpt>
      <trkpt lat="37.75831972248852252960205078125" lon="-107.7069986052811145782470703125">
        <ele>3585</ele>
        <time>2023-07-29T17:56:41.000Z</time>
        <extensions>
          <ns3:TrackPointExtension>
            <ns3:hr>97</ns3:hr>
            <ns3:cad>0</ns3:cad>
          </ns3:TrackPointExtension>
        </extensions>
      </trkpt>
      <trkpt lat="37.7583063952624797821044921875" lon="-107.7070083282887935638427734375">
        <ele>3584.800048828125</ele>
        <time>2023-07-29T17:56:42.000Z</time>
        <extensions>
          <ns3:TrackPointExtension>
            <ns3:hr>97</ns3:hr>
            <ns3:cad>0</ns3:cad>
          </ns3:TrackPointExtension>
        </extensions>
      </trkpt>
      <trkpt lat="37.75829088874161243438720703125" lon="-107.7070230804383754730224609375">
        <ele>3584.60009765625</ele>
        <time>2023-07-29T17:56:43.000Z</time>
        <extensions>
          <ns3:TrackPointExtension>
            <ns3:hr>97</ns3:hr>
            <ns3:cad>0</ns3:cad>
          </ns3:TrackPointExtension>
        </extensions>
      </trkpt>
      <trkpt lat="37.7582819201052188873291015625" lon="-107.70702986977994441986083984375">
        <ele>3584.39990234375</ele>
        <time>2023-07-29T17:56:44.000Z</time>
        <extensions>
          <ns3:TrackPointExtension>
            <ns3:hr>97</ns3:hr>
            <ns3:cad>0</ns3:cad>
          </ns3:TrackPointExtension>
        </extensions>
      </trkpt>
      <trkpt lat="37.75827161036431789398193359375" lon="-107.70703800022602081298828125">
        <ele>3584.199951171875</ele>
        <time>2023-07-29T17:56:45.000Z</time>
        <extensions>
          <ns3:TrackPointExtension>
            <ns3:hr>97</ns3:hr>
            <ns3:cad>0</ns3:cad>
          </ns3:TrackPointExtension>
        </extensions>
      </trkpt>
      <trkpt lat="37.7582641504704952239990234375" lon="-107.70704093389213085174560546875">
        <ele>3583.800048828125</ele>
        <time>2023-07-29T17:56:46.000Z</time>
        <extensions>
          <ns3:TrackPointExtension>
            <ns3:hr>97</ns3:hr>
            <ns3:cad>0</ns3:cad>
          </ns3:TrackPointExtension>
        </extensions>
      </trkpt>
      <trkpt lat="37.7582517452538013458251953125" lon="-107.70704814232885837554931640625">
        <ele>3583.60009765625</ele>
        <time>2023-07-29T17:56:47.000Z</time>
        <extensions>
          <ns3:TrackPointExtension>
            <ns3:hr>96</ns3:hr>
            <ns3:cad>0</ns3:cad>
          </ns3:TrackPointExtension>
        </extensions>
      </trkpt>
      <trkpt lat="37.75824244134128093719482421875" lon="-107.70705417729914188385009765625">
        <ele>3583.39990234375</ele>
        <time>2023-07-29T17:56:48.000Z</time>
        <extensions>
          <ns3:TrackPointExtension>
            <ns3:hr>96</ns3:hr>
            <ns3:cad>63</ns3:cad>
          </ns3:TrackPointExtension>
        </extensions>
      </trkpt>
      <trkpt lat="37.758234478533267974853515625" lon="-107.70706071518361568450927734375">
        <ele>3583.199951171875</ele>
        <time>2023-07-29T17:56:49.000Z</time>
        <extensions>
          <ns3:TrackPointExtension>
            <ns3:hr>96</ns3:hr>
            <ns3:cad>63</ns3:cad>
          </ns3:TrackPointExtension>
        </extensions>
      </trkpt>
      <trkpt lat="37.75822986848652362823486328125" lon="-107.707065828144550323486328125">
        <ele>3583</ele>
        <time>2023-07-29T17:56:50.000Z</time>
        <extensions>
          <ns3:TrackPointExtension>
            <ns3:hr>96</ns3:hr>
            <ns3:cad>63</ns3:cad>
          </ns3:TrackPointExtension>
        </extensions>
      </trkpt>
      <trkpt lat="37.7582229115068912506103515625" lon="-107.7070753835141658782958984375">
        <ele>3582.800048828125</ele>
        <time>2023-07-29T17:56:51.000Z</time>
        <extensions>
          <ns3:TrackPointExtension>
            <ns3:hr>95</ns3:hr>
            <ns3:cad>0</ns3:cad>
          </ns3:TrackPointExtension>
        </extensions>
      </trkpt>
      <trkpt lat="37.7582162059843540191650390625" lon="-107.7070851065218448638916015625">
        <ele>3582.39990234375</ele>
        <time>2023-07-29T17:56:52.000Z</time>
        <extensions>
          <ns3:TrackPointExtension>
            <ns3:hr>94</ns3:hr>
            <ns3:cad>0</ns3:cad>
          </ns3:TrackPointExtension>
        </extensions>
      </trkpt>
      <trkpt lat="37.7582135237753391265869140625" lon="-107.7070938237011432647705078125">
        <ele>3582.199951171875</ele>
        <time>2023-07-29T17:56:53.000Z</time>
        <extensions>
          <ns3:TrackPointExtension>
            <ns3:hr>94</ns3:hr>
            <ns3:cad>0</ns3:cad>
          </ns3:TrackPointExtension>
        </extensions>
      </trkpt>
      <trkpt lat="37.758203633129596710205078125" lon="-107.70710765384137630462646484375">
        <ele>3581.800048828125</ele>
        <time>2023-07-29T17:56:54.000Z</time>
        <extensions>
          <ns3:TrackPointExtension>
            <ns3:hr>93</ns3:hr>
            <ns3:cad>0</ns3:cad>
          </ns3:TrackPointExtension>
        </extensions>
      </trkpt>
      <trkpt lat="37.75819994509220123291015625" lon="-107.707114778459072113037109375">
        <ele>3581.60009765625</ele>
        <time>2023-07-29T17:56:55.000Z</time>
        <extensions>
          <ns3:TrackPointExtension>
            <ns3:hr>93</ns3:hr>
            <ns3:cad>0</ns3:cad>
          </ns3:TrackPointExtension>
        </extensions>
      </trkpt>
      <trkpt lat="37.75819365866482257843017578125" lon="-107.70712609402835369110107421875">
        <ele>3581.60009765625</ele>
        <time>2023-07-29T17:56:56.000Z</time>
        <extensions>
          <ns3:TrackPointExtension>
            <ns3:hr>93</ns3:hr>
            <ns3:cad>0</ns3:cad>
          </ns3:TrackPointExtension>
        </extensions>
      </trkpt>
      <trkpt lat="37.75819248519837856292724609375" lon="-107.707128860056400299072265625">
        <ele>3581.60009765625</ele>
        <time>2023-07-29T17:56:57.000Z</time>
        <extensions>
          <ns3:TrackPointExtension>
            <ns3:hr>92</ns3:hr>
            <ns3:cad>0</ns3:cad>
          </ns3:TrackPointExtension>
        </extensions>
      </trkpt>
      <trkpt lat="37.75818577967584133148193359375" lon="-107.7071400918066501617431640625">
        <ele>3581.39990234375</ele>
        <time>2023-07-29T17:56:58.000Z</time>
        <extensions>
          <ns3:TrackPointExtension>
            <ns3:hr>92</ns3:hr>
            <ns3:cad>0</ns3:cad>
          </ns3:TrackPointExtension>
        </extensions>
      </trkpt>
      <trkpt lat="37.75818158872425556182861328125" lon="-107.7071481384336948394775390625">
        <ele>3581.39990234375</ele>
        <time>2023-07-29T17:56:59.000Z</time>
        <extensions>
          <ns3:TrackPointExtension>
            <ns3:hr>92</ns3:hr>
            <ns3:cad>0</ns3:cad>
          </ns3:TrackPointExtension>
        </extensions>
      </trkpt>
      <trkpt lat="37.75818116962909698486328125" lon="-107.70715174265205860137939453125">
        <ele>3581</ele>
        <time>2023-07-29T17:57:00.000Z</time>
        <extensions>
          <ns3:TrackPointExtension>
            <ns3:hr>92</ns3:hr>
            <ns3:cad>0</ns3:cad>
          </ns3:TrackPointExtension>
        </extensions>
      </trkpt>
      <trkpt lat="37.75818108581006526947021484375" lon="-107.70715677179396152496337890625">
        <ele>3580.800048828125</ele>
        <time>2023-07-29T17:57:01.000Z</time>
        <extensions>
          <ns3:TrackPointExtension>
            <ns3:hr>92</ns3:hr>
            <ns3:cad>0</ns3:cad>
          </ns3:TrackPointExtension>
        </extensions>
      </trkpt>
      <trkpt lat="37.75818058289587497711181640625" lon="-107.70715861581265926361083984375">
        <ele>3580.800048828125</ele>
        <time>2023-07-29T17:57:02.000Z</time>
        <extensions>
          <ns3:TrackPointExtension>
            <ns3:hr>92</ns3:hr>
            <ns3:cad>0</ns3:cad>
          </ns3:TrackPointExtension>
        </extensions>
      </trkpt>
      <trkpt lat="37.75818158872425556182861328125" lon="-107.7071635611355304718017578125">
        <ele>3580.60009765625</ele>
        <time>2023-07-29T17:57:03.000Z</time>
        <extensions>
          <ns3:TrackPointExtension>
            <ns3:hr>92</ns3:hr>
            <ns3:cad>0</ns3:cad>
          </ns3:TrackPointExtension>
        </extensions>
      </trkpt>
      <trkpt lat="37.75818108581006526947021484375" lon="-107.7071821689605712890625">
        <ele>3580.39990234375</ele>
        <time>2023-07-29T17:57:04.000Z</time>
        <extensions>
          <ns3:TrackPointExtension>
            <ns3:hr>92</ns3:hr>
            <ns3:cad>0</ns3:cad>
          </ns3:TrackPointExtension>
        </extensions>
      </trkpt>
      <trkpt lat="37.75818527676165103912353515625" lon="-107.70718552172183990478515625">
        <ele>3580.39990234375</ele>
        <time>2023-07-29T17:57:05.000Z</time>
        <extensions>
          <ns3:TrackPointExtension>
            <ns3:hr>92</ns3:hr>
            <ns3:cad>0</ns3:cad>
          </ns3:TrackPointExtension>
        </extensions>
      </trkpt>
      <trkpt lat="37.75819055736064910888671875" lon="-107.7071942389011383056640625">
        <ele>3580.39990234375</ele>
        <time>2023-07-29T17:57:06.000Z</time>
        <extensions>
          <ns3:TrackPointExtension>
            <ns3:hr>92</ns3:hr>
            <ns3:cad>0</ns3:cad>
          </ns3:TrackPointExtension>
        </extensions>
      </trkpt>
      <trkpt lat="37.7581957541406154632568359375" lon="-107.70720697939395904541015625">
        <ele>3580.39990234375</ele>
        <time>2023-07-29T17:57:07.000Z</time>
        <extensions>
          <ns3:TrackPointExtension>
            <ns3:hr>92</ns3:hr>
            <ns3:cad>0</ns3:cad>
          </ns3:TrackPointExtension>
        </extensions>
      </trkpt>
      <trkpt lat="37.75820002891123294830322265625" lon="-107.70721904933452606201171875">
        <ele>3580.39990234375</ele>
        <time>2023-07-29T17:57:08.000Z</time>
        <extensions>
          <ns3:TrackPointExtension>
            <ns3:hr>92</ns3:hr>
            <ns3:cad>0</ns3:cad>
          </ns3:TrackPointExtension>
        </extensions>
      </trkpt>
      <trkpt lat="37.75820321403443813323974609375" lon="-107.7072275988757610321044921875">
        <ele>3580.199951171875</ele>
        <time>2023-07-29T17:57:09.000Z</time>
        <extensions>
          <ns3:TrackPointExtension>
            <ns3:hr>92</ns3:hr>
            <ns3:cad>0</ns3:cad>
          </ns3:TrackPointExtension>
        </extensions>
      </trkpt>
      <trkpt lat="37.7582061477005481719970703125" lon="-107.70723271183669567108154296875">
        <ele>3580.199951171875</ele>
        <time>2023-07-29T17:57:10.000Z</time>
        <extensions>
          <ns3:TrackPointExtension>
            <ns3:hr>92</ns3:hr>
            <ns3:cad>0</ns3:cad>
          </ns3:TrackPointExtension>
        </extensions>
      </trkpt>
      <trkpt lat="37.7582081593573093414306640625" lon="-107.70723958499729633331298828125">
        <ele>3580.199951171875</ele>
        <time>2023-07-29T17:57:11.000Z</time>
        <extensions>
          <ns3:TrackPointExtension>
            <ns3:hr>92</ns3:hr>
            <ns3:cad>0</ns3:cad>
          </ns3:TrackPointExtension>
        </extensions>
      </trkpt>
      <trkpt lat="37.75821126066148281097412109375" lon="-107.70724461413919925689697265625">
        <ele>3580.199951171875</ele>
        <time>2023-07-29T17:57:12.000Z</time>
        <extensions>
          <ns3:TrackPointExtension>
            <ns3:hr>93</ns3:hr>
            <ns3:cad>0</ns3:cad>
          </ns3:TrackPointExtension>
        </extensions>
      </trkpt>
      <trkpt lat="37.75821310468018054962158203125" lon="-107.7072478830814361572265625">
        <ele>3580</ele>
        <time>2023-07-29T17:57:13.000Z</time>
        <extensions>
          <ns3:TrackPointExtension>
            <ns3:hr>93</ns3:hr>
            <ns3:cad>0</ns3:cad>
          </ns3:TrackPointExtension>
        </extensions>
      </trkpt>
      <trkpt lat="37.75821176357567310333251953125" lon="-107.70724662579596042633056640625">
        <ele>3580</ele>
        <time>2023-07-29T17:57:14.000Z</time>
        <extensions>
          <ns3:TrackPointExtension>
            <ns3:hr>93</ns3:hr>
            <ns3:cad>0</ns3:cad>
          </ns3:TrackPointExtension>
        </extensions>
      </trkpt>
      <trkpt lat="37.7582172118127346038818359375" lon="-107.7072503976523876190185546875">
        <ele>3580</ele>
        <time>2023-07-29T17:57:15.000Z</time>
        <extensions>
          <ns3:TrackPointExtension>
            <ns3:hr>94</ns3:hr>
            <ns3:cad>0</ns3:cad>
          </ns3:TrackPointExtension>
        </extensions>
      </trkpt>
      <trkpt lat="37.7582222409546375274658203125" lon="-107.70725215785205364227294921875">
        <ele>3579.800048828125</ele>
        <time>2023-07-29T17:57:16.000Z</time>
        <extensions>
          <ns3:TrackPointExtension>
            <ns3:hr>94</ns3:hr>
            <ns3:cad>0</ns3:cad>
          </ns3:TrackPointExtension>
        </extensions>
      </trkpt>
      <trkpt lat="37.7582296170294284820556640625" lon="-107.70725500769913196563720703125">
        <ele>3579.60009765625</ele>
        <time>2023-07-29T17:57:17.000Z</time>
        <extensions>
          <ns3:TrackPointExtension>
            <ns3:hr>94</ns3:hr>
            <ns3:cad>0</ns3:cad>
          </ns3:TrackPointExtension>
        </extensions>
      </trkpt>
      <trkpt lat="37.7582457102835178375244140625" lon="-107.707260288298130035400390625">
        <ele>3579.39990234375</ele>
        <time>2023-07-29T17:57:18.000Z</time>
        <extensions>
          <ns3:TrackPointExtension>
            <ns3:hr>94</ns3:hr>
            <ns3:cad>0</ns3:cad>
          </ns3:TrackPointExtension>
        </extensions>
      </trkpt>
      <trkpt lat="37.75825534947216510772705078125" lon="-107.70726674236357212066650390625">
        <ele>3579.199951171875</ele>
        <time>2023-07-29T17:57:19.000Z</time>
        <extensions>
          <ns3:TrackPointExtension>
            <ns3:hr>94</ns3:hr>
            <ns3:cad>0</ns3:cad>
          </ns3:TrackPointExtension>
        </extensions>
      </trkpt>
      <trkpt lat="37.75826943106949329376220703125" lon="-107.7072755433619022369384765625">
        <ele>3579</ele>
        <time>2023-07-29T17:57:20.000Z</time>
        <extensions>
          <ns3:TrackPointExtension>
            <ns3:hr>94</ns3:hr>
            <ns3:cad>0</ns3:cad>
          </ns3:TrackPointExtension>
        </extensions>
      </trkpt>
      <trkpt lat="37.7582837641239166259765625" lon="-107.70728400908410549163818359375">
        <ele>3578.800048828125</ele>
        <time>2023-07-29T17:57:21.000Z</time>
        <extensions>
          <ns3:TrackPointExtension>
            <ns3:hr>94</ns3:hr>
            <ns3:cad>0</ns3:cad>
          </ns3:TrackPointExtension>
        </extensions>
      </trkpt>
      <trkpt lat="37.7582943253219127655029296875" lon="-107.7072879485785961151123046875">
        <ele>3578.60009765625</ele>
        <time>2023-07-29T17:57:22.000Z</time>
        <extensions>
          <ns3:TrackPointExtension>
            <ns3:hr>94</ns3:hr>
            <ns3:cad>0</ns3:cad>
          </ns3:TrackPointExtension>
        </extensions>
      </trkpt>
      <trkpt lat="37.75830094702541828155517578125" lon="-107.70728853531181812286376953125">
        <ele>3578.39990234375</ele>
        <time>2023-07-29T17:57:23.000Z</time>
        <extensions>
          <ns3:TrackPointExtension>
            <ns3:hr>94</ns3:hr>
            <ns3:cad>0</ns3:cad>
          </ns3:TrackPointExtension>
        </extensions>
      </trkpt>
      <trkpt lat="37.758303545415401458740234375" lon="-107.7072876133024692535400390625">
        <ele>3578.39990234375</ele>
        <time>2023-07-29T17:57:24.000Z</time>
        <extensions>
          <ns3:TrackPointExtension>
            <ns3:hr>94</ns3:hr>
            <ns3:cad>0</ns3:cad>
          </ns3:TrackPointExtension>
        </extensions>
      </trkpt>
      <trkpt lat="37.7583053894340991973876953125" lon="-107.70729071460664272308349609375">
        <ele>3578.199951171875</ele>
        <time>2023-07-29T17:57:25.000Z</time>
        <extensions>
          <ns3:TrackPointExtension>
            <ns3:hr>94</ns3:hr>
            <ns3:cad>0</ns3:cad>
          </ns3:TrackPointExtension>
        </extensions>
      </trkpt>
      <trkpt lat="37.75830027647316455841064453125" lon="-107.70729104988276958465576171875">
        <ele>3578</ele>
        <time>2023-07-29T17:57:26.000Z</time>
        <extensions>
          <ns3:TrackPointExtension>
            <ns3:hr>94</ns3:hr>
            <ns3:cad>0</ns3:cad>
          </ns3:TrackPointExtension>
        </extensions>
      </trkpt>
      <trkpt lat="37.75829851627349853515625" lon="-107.707291133701801300048828125">
        <ele>3578</ele>
        <time>2023-07-29T17:57:27.000Z</time>
        <extensions>
          <ns3:TrackPointExtension>
            <ns3:hr>94</ns3:hr>
            <ns3:cad>0</ns3:cad>
          </ns3:TrackPointExtension>
        </extensions>
      </trkpt>
      <trkpt lat="37.7582963369786739349365234375" lon="-107.70729239098727703094482421875">
        <ele>3578</ele>
        <time>2023-07-29T17:57:28.000Z</time>
        <extensions>
          <ns3:TrackPointExtension>
            <ns3:hr>94</ns3:hr>
            <ns3:cad>0</ns3:cad>
          </ns3:TrackPointExtension>
        </extensions>
      </trkpt>
      <trkpt lat="37.75830010883510112762451171875" lon="-107.70729742012917995452880859375">
        <ele>3577.800048828125</ele>
        <time>2023-07-29T17:57:29.000Z</time>
        <extensions>
          <ns3:TrackPointExtension>
            <ns3:hr>94</ns3:hr>
            <ns3:cad>0</ns3:cad>
          </ns3:TrackPointExtension>
        </extensions>
      </trkpt>
      <trkpt lat="37.758311592042446136474609375" lon="-107.70730831660330295562744140625">
        <ele>3577.800048828125</ele>
        <time>2023-07-29T17:57:30.000Z</time>
        <extensions>
          <ns3:TrackPointExtension>
            <ns3:hr>94</ns3:hr>
            <ns3:cad>0</ns3:cad>
          </ns3:TrackPointExtension>
        </extensions>
      </trkpt>
      <trkpt lat="37.75831569917500019073486328125" lon="-107.7073181234300136566162109375">
        <ele>3577.39990234375</ele>
        <time>2023-07-29T17:57:31.000Z</time>
        <extensions>
          <ns3:TrackPointExtension>
            <ns3:hr>94</ns3:hr>
            <ns3:cad>0</ns3:cad>
          </ns3:TrackPointExtension>
        </extensions>
      </trkpt>
      <trkpt lat="37.75831536389887332916259765625" lon="-107.70732365548610687255859375">
        <ele>3577.39990234375</ele>
        <time>2023-07-29T17:57:32.000Z</time>
        <extensions>
          <ns3:TrackPointExtension>
            <ns3:hr>93</ns3:hr>
            <ns3:cad>0</ns3:cad>
          </ns3:TrackPointExtension>
        </extensions>
      </trkpt>
      <trkpt lat="37.7583134360611438751220703125" lon="-107.70732709206640720367431640625">
        <ele>3577.199951171875</ele>
        <time>2023-07-29T17:57:33.000Z</time>
        <extensions>
          <ns3:TrackPointExtension>
            <ns3:hr>93</ns3:hr>
            <ns3:cad>0</ns3:cad>
          </ns3:TrackPointExtension>
        </extensions>
      </trkpt>
      <trkpt lat="37.75831368751823902130126953125" lon="-107.7073337137699127197265625">
        <ele>3577.199951171875</ele>
        <time>2023-07-29T17:57:34.000Z</time>
        <extensions>
          <ns3:TrackPointExtension>
            <ns3:hr>93</ns3:hr>
            <ns3:cad>0</ns3:cad>
          </ns3:TrackPointExtension>
        </extensions>
      </trkpt>
      <trkpt lat="37.7583120949566364288330078125" lon="-107.707339413464069366455078125">
        <ele>3577</ele>
        <time>2023-07-29T17:57:35.000Z</time>
        <extensions>
          <ns3:TrackPointExtension>
            <ns3:hr>93</ns3:hr>
            <ns3:cad>59</ns3:cad>
          </ns3:TrackPointExtension>
        </extensions>
      </trkpt>
      <trkpt lat="37.75830228812992572784423828125" lon="-107.70734645426273345947265625">
        <ele>3576.800048828125</ele>
        <time>2023-07-29T17:57:36.000Z</time>
        <extensions>
          <ns3:TrackPointExtension>
            <ns3:hr>92</ns3:hr>
            <ns3:cad>59</ns3:cad>
          </ns3:TrackPointExtension>
        </extensions>
      </trkpt>
      <trkpt lat="37.7582996897399425506591796875" lon="-107.70734838210046291351318359375">
        <ele>3576.60009765625</ele>
        <time>2023-07-29T17:57:37.000Z</time>
        <extensions>
          <ns3:TrackPointExtension>
            <ns3:hr>92</ns3:hr>
            <ns3:cad>59</ns3:cad>
          </ns3:TrackPointExtension>
        </extensions>
      </trkpt>
      <trkpt lat="37.75829172693192958831787109375" lon="-107.7073533274233341217041015625">
        <ele>3576.39990234375</ele>
        <time>2023-07-29T17:57:38.000Z</time>
        <extensions>
          <ns3:TrackPointExtension>
            <ns3:hr>92</ns3:hr>
            <ns3:cad>0</ns3:cad>
          </ns3:TrackPointExtension>
        </extensions>
      </trkpt>
      <trkpt lat="37.7582913078367710113525390625" lon="-107.707358859479427337646484375">
        <ele>3576.39990234375</ele>
        <time>2023-07-29T17:57:39.000Z</time>
        <extensions>
          <ns3:TrackPointExtension>
            <ns3:hr>91</ns3:hr>
            <ns3:cad>0</ns3:cad>
          </ns3:TrackPointExtension>
        </extensions>
      </trkpt>
      <trkpt lat="37.75830245576798915863037109375" lon="-107.70737838931381702423095703125">
        <ele>3576.199951171875</ele>
        <time>2023-07-29T17:57:40.000Z</time>
        <extensions>
          <ns3:TrackPointExtension>
            <ns3:hr>91</ns3:hr>
            <ns3:cad>0</ns3:cad>
          </ns3:TrackPointExtension>
        </extensions>
      </trkpt>
      <trkpt lat="37.7583120949566364288330078125" lon="-107.70739146508276462554931640625">
        <ele>3576</ele>
        <time>2023-07-29T17:57:41.000Z</time>
        <extensions>
          <ns3:TrackPointExtension>
            <ns3:hr>91</ns3:hr>
            <ns3:cad>0</ns3:cad>
          </ns3:TrackPointExtension>
        </extensions>
      </trkpt>
      <trkpt lat="37.7583117596805095672607421875" lon="-107.70739733241498470306396484375">
        <ele>3575.800048828125</ele>
        <time>2023-07-29T17:57:42.000Z</time>
        <extensions>
          <ns3:TrackPointExtension>
            <ns3:hr>91</ns3:hr>
            <ns3:cad>0</ns3:cad>
          </ns3:TrackPointExtension>
        </extensions>
      </trkpt>
      <trkpt lat="37.7583117596805095672607421875" lon="-107.70739741623401641845703125">
        <ele>3575.800048828125</ele>
        <time>2023-07-29T17:57:43.000Z</time>
        <extensions>
          <ns3:TrackPointExtension>
            <ns3:hr>91</ns3:hr>
            <ns3:cad>0</ns3:cad>
          </ns3:TrackPointExtension>
        </extensions>
      </trkpt>
      <trkpt lat="37.75830681435763835906982421875" lon="-107.7073918841779232025146484375">
        <ele>3575.800048828125</ele>
        <time>2023-07-29T17:57:44.000Z</time>
        <extensions>
          <ns3:TrackPointExtension>
            <ns3:hr>91</ns3:hr>
            <ns3:cad>0</ns3:cad>
          </ns3:TrackPointExtension>
        </extensions>
      </trkpt>
      <trkpt lat="37.7583038806915283203125" lon="-107.7073932252824306488037109375">
        <ele>3575.60009765625</ele>
        <time>2023-07-29T17:57:45.000Z</time>
        <extensions>
          <ns3:TrackPointExtension>
            <ns3:hr>91</ns3:hr>
            <ns3:cad>57</ns3:cad>
          </ns3:TrackPointExtension>
        </extensions>
      </trkpt>
      <trkpt lat="37.7583038806915283203125" lon="-107.70740085281431674957275390625">
        <ele>3575.39990234375</ele>
        <time>2023-07-29T17:57:46.000Z</time>
        <extensions>
          <ns3:TrackPointExtension>
            <ns3:hr>91</ns3:hr>
            <ns3:cad>57</ns3:cad>
          </ns3:TrackPointExtension>
        </extensions>
      </trkpt>
      <trkpt lat="37.75830128230154514312744140625" lon="-107.7074220590293407440185546875">
        <ele>3575.39990234375</ele>
        <time>2023-07-29T17:57:47.000Z</time>
        <extensions>
          <ns3:TrackPointExtension>
            <ns3:hr>91</ns3:hr>
            <ns3:cad>57</ns3:cad>
          </ns3:TrackPointExtension>
        </extensions>
      </trkpt>
      <trkpt lat="37.75830094702541828155517578125" lon="-107.70743203349411487579345703125">
        <ele>3575.199951171875</ele>
        <time>2023-07-29T17:57:48.000Z</time>
        <extensions>
          <ns3:TrackPointExtension>
            <ns3:hr>91</ns3:hr>
            <ns3:cad>57</ns3:cad>
          </ns3:TrackPointExtension>
        </extensions>
      </trkpt>
      <trkpt lat="37.75830094702541828155517578125" lon="-107.7074381522834300994873046875">
        <ele>3575.199951171875</ele>
        <time>2023-07-29T17:57:49.000Z</time>
        <extensions>
          <ns3:TrackPointExtension>
            <ns3:hr>91</ns3:hr>
            <ns3:cad>54</ns3:cad>
          </ns3:TrackPointExtension>
        </extensions>
      </trkpt>
      <trkpt lat="37.7583017013967037200927734375" lon="-107.7074492163956165313720703125">
        <ele>3575</ele>
        <time>2023-07-29T17:57:50.000Z</time>
        <extensions>
          <ns3:TrackPointExtension>
            <ns3:hr>92</ns3:hr>
            <ns3:cad>54</ns3:cad>
          </ns3:TrackPointExtension>
        </extensions>
      </trkpt>
      <trkpt lat="37.75830061174929141998291015625" lon="-107.707458771765232086181640625">
        <ele>3575</ele>
        <time>2023-07-29T17:57:51.000Z</time>
        <extensions>
          <ns3:TrackPointExtension>
            <ns3:hr>91</ns3:hr>
            <ns3:cad>54</ns3:cad>
          </ns3:TrackPointExtension>
        </extensions>
      </trkpt>
      <trkpt lat="37.758295834064483642578125" lon="-107.7074562571942806243896484375">
        <ele>3575</ele>
        <time>2023-07-29T17:57:52.000Z</time>
        <extensions>
          <ns3:TrackPointExtension>
            <ns3:hr>91</ns3:hr>
            <ns3:cad>54</ns3:cad>
          </ns3:TrackPointExtension>
        </extensions>
      </trkpt>
      <trkpt lat="37.75829424150288105010986328125" lon="-107.7074763737618923187255859375">
        <ele>3574.800048828125</ele>
        <time>2023-07-29T17:57:53.000Z</time>
        <extensions>
          <ns3:TrackPointExtension>
            <ns3:hr>91</ns3:hr>
            <ns3:cad>51</ns3:cad>
          </ns3:TrackPointExtension>
        </extensions>
      </trkpt>
      <trkpt lat="37.7582929842174053192138671875" lon="-107.707486934959888458251953125">
        <ele>3574.60009765625</ele>
        <time>2023-07-29T17:57:54.000Z</time>
        <extensions>
          <ns3:TrackPointExtension>
            <ns3:hr>91</ns3:hr>
            <ns3:cad>48</ns3:cad>
          </ns3:TrackPointExtension>
        </extensions>
      </trkpt>
      <trkpt lat="37.7582876197993755340576171875" lon="-107.70749188028275966644287109375">
        <ele>3574.199951171875</ele>
        <time>2023-07-29T17:57:55.000Z</time>
        <extensions>
          <ns3:TrackPointExtension>
            <ns3:hr>91</ns3:hr>
            <ns3:cad>17</ns3:cad>
          </ns3:TrackPointExtension>
        </extensions>
      </trkpt>
      <trkpt lat="37.75828720070421695709228515625" lon="-107.70749531686305999755859375">
        <ele>3574</ele>
        <time>2023-07-29T17:57:56.000Z</time>
        <extensions>
          <ns3:TrackPointExtension>
            <ns3:hr>91</ns3:hr>
            <ns3:cad>17</ns3:cad>
          </ns3:TrackPointExtension>
        </extensions>
      </trkpt>
      <trkpt lat="37.75828418321907520294189453125" lon="-107.70749757997691631317138671875">
        <ele>3573.800048828125</ele>
        <time>2023-07-29T17:57:57.000Z</time>
        <extensions>
          <ns3:TrackPointExtension>
            <ns3:hr>92</ns3:hr>
            <ns3:cad>17</ns3:cad>
          </ns3:TrackPointExtension>
        </extensions>
      </trkpt>
      <trkpt lat="37.7582839317619800567626953125" lon="-107.70749657414853572845458984375">
        <ele>3573.60009765625</ele>
        <time>2023-07-29T17:57:58.000Z</time>
        <extensions>
          <ns3:TrackPointExtension>
            <ns3:hr>92</ns3:hr>
            <ns3:cad>0</ns3:cad>
          </ns3:TrackPointExtension>
        </extensions>
      </trkpt>
      <trkpt lat="37.75828351266682147979736328125" lon="-107.70749372430145740509033203125">
        <ele>3573.199951171875</ele>
        <time>2023-07-29T17:57:59.000Z</time>
        <extensions>
          <ns3:TrackPointExtension>
            <ns3:hr>92</ns3:hr>
            <ns3:cad>0</ns3:cad>
          </ns3:TrackPointExtension>
        </extensions>
      </trkpt>
      <trkpt lat="37.75827965699136257171630859375" lon="-107.7074820734560489654541015625">
        <ele>3573</ele>
        <time>2023-07-29T17:58:00.000Z</time>
        <extensions>
          <ns3:TrackPointExtension>
            <ns3:hr>92</ns3:hr>
            <ns3:cad>0</ns3:cad>
          </ns3:TrackPointExtension>
        </extensions>
      </trkpt>
      <trkpt lat="37.75827932171523571014404296875" lon="-107.70748048089444637298583984375">
        <ele>3573</ele>
        <time>2023-07-29T17:58:01.000Z</time>
        <extensions>
          <ns3:TrackPointExtension>
            <ns3:hr>92</ns3:hr>
            <ns3:cad>0</ns3:cad>
          </ns3:TrackPointExtension>
        </extensions>
      </trkpt>
      <trkpt lat="37.758279405534267425537109375" lon="-107.70748064853250980377197265625">
        <ele>3572.800048828125</ele>
        <time>2023-07-29T17:58:02.000Z</time>
        <extensions>
          <ns3:TrackPointExtension>
            <ns3:hr>93</ns3:hr>
            <ns3:cad>0</ns3:cad>
          </ns3:TrackPointExtension>
        </extensions>
      </trkpt>
      <trkpt lat="37.75827898643910884857177734375" lon="-107.7074810676276683807373046875">
        <ele>3572.800048828125</ele>
        <time>2023-07-29T17:58:03.000Z</time>
        <extensions>
          <ns3:TrackPointExtension>
            <ns3:hr>93</ns3:hr>
            <ns3:cad>0</ns3:cad>
          </ns3:TrackPointExtension>
        </extensions>
      </trkpt>
      <trkpt lat="37.758276052772998809814453125" lon="-107.7074760384857654571533203125">
        <ele>3572.800048828125</ele>
        <time>2023-07-29T17:58:04.000Z</time>
        <extensions>
          <ns3:TrackPointExtension>
            <ns3:hr>94</ns3:hr>
            <ns3:cad>0</ns3:cad>
          </ns3:TrackPointExtension>
        </extensions>
      </trkpt>
      <trkpt lat="37.7582711912691593170166015625" lon="-107.7074686624109745025634765625">
        <ele>3572.60009765625</ele>
        <time>2023-07-29T17:58:05.000Z</time>
        <extensions>
          <ns3:TrackPointExtension>
            <ns3:hr>95</ns3:hr>
            <ns3:cad>0</ns3:cad>
          </ns3:TrackPointExtension>
        </extensions>
      </trkpt>
      <trkpt lat="37.7582671679556369781494140625" lon="-107.70746313035488128662109375">
        <ele>3572.60009765625</ele>
        <time>2023-07-29T17:58:06.000Z</time>
        <extensions>
          <ns3:TrackPointExtension>
            <ns3:hr>95</ns3:hr>
            <ns3:cad>0</ns3:cad>
          </ns3:TrackPointExtension>
        </extensions>
      </trkpt>
      <trkpt lat="37.75826758705079555511474609375" lon="-107.70745910704135894775390625">
        <ele>3572.39990234375</ele>
        <time>2023-07-29T17:58:07.000Z</time>
        <extensions>
          <ns3:TrackPointExtension>
            <ns3:hr>95</ns3:hr>
            <ns3:cad>71</ns3:cad>
          </ns3:TrackPointExtension>
        </extensions>
      </trkpt>
      <trkpt lat="37.7582644857466220855712890625" lon="-107.70745215006172657012939453125">
        <ele>3572.199951171875</ele>
        <time>2023-07-29T17:58:08.000Z</time>
        <extensions>
          <ns3:TrackPointExtension>
            <ns3:hr>95</ns3:hr>
            <ns3:cad>71</ns3:cad>
          </ns3:TrackPointExtension>
        </extensions>
      </trkpt>
      <trkpt lat="37.7582601271569728851318359375" lon="-107.70745013840496540069580078125">
        <ele>3572</ele>
        <time>2023-07-29T17:58:09.000Z</time>
        <extensions>
          <ns3:TrackPointExtension>
            <ns3:hr>95</ns3:hr>
            <ns3:cad>71</ns3:cad>
          </ns3:TrackPointExtension>
        </extensions>
      </trkpt>
      <trkpt lat="37.75825300253927707672119140625" lon="-107.70744125358760356903076171875">
        <ele>3571.60009765625</ele>
        <time>2023-07-29T17:58:10.000Z</time>
        <extensions>
          <ns3:TrackPointExtension>
            <ns3:hr>95</ns3:hr>
            <ns3:cad>71</ns3:cad>
          </ns3:TrackPointExtension>
        </extensions>
      </trkpt>
      <trkpt lat="37.758250571787357330322265625" lon="-107.70744024775922298431396484375">
        <ele>3571.60009765625</ele>
        <time>2023-07-29T17:58:11.000Z</time>
        <extensions>
          <ns3:TrackPointExtension>
            <ns3:hr>96</ns3:hr>
            <ns3:cad>71</ns3:cad>
          </ns3:TrackPointExtension>
        </extensions>
      </trkpt>
      <trkpt lat="37.75824696756899356842041015625" lon="-107.70743639208376407623291015625">
        <ele>3571.39990234375</ele>
        <time>2023-07-29T17:58:12.000Z</time>
        <extensions>
          <ns3:TrackPointExtension>
            <ns3:hr>96</ns3:hr>
            <ns3:cad>0</ns3:cad>
          </ns3:TrackPointExtension>
        </extensions>
      </trkpt>
      <trkpt lat="37.75824679993093013763427734375" lon="-107.70743588916957378387451171875">
        <ele>3571.199951171875</ele>
        <time>2023-07-29T17:58:13.000Z</time>
        <extensions>
          <ns3:TrackPointExtension>
            <ns3:hr>95</ns3:hr>
            <ns3:cad>0</ns3:cad>
          </ns3:TrackPointExtension>
        </extensions>
      </trkpt>
      <trkpt lat="37.75824646465480327606201171875" lon="-107.70743429660797119140625">
        <ele>3570.800048828125</ele>
        <time>2023-07-29T17:58:14.000Z</time>
        <extensions>
          <ns3:TrackPointExtension>
            <ns3:hr>95</ns3:hr>
            <ns3:cad>0</ns3:cad>
          </ns3:TrackPointExtension>
        </extensions>
      </trkpt>
      <trkpt lat="37.75824747048318386077880859375" lon="-107.7074356377124786376953125">
        <ele>3570.60009765625</ele>
        <time>2023-07-29T17:58:15.000Z</time>
        <extensions>
          <ns3:TrackPointExtension>
            <ns3:hr>94</ns3:hr>
            <ns3:cad>0</ns3:cad>
          </ns3:TrackPointExtension>
        </extensions>
      </trkpt>
      <trkpt lat="37.7582477219402790069580078125" lon="-107.70743421278893947601318359375">
        <ele>3570.39990234375</ele>
        <time>2023-07-29T17:58:16.000Z</time>
        <extensions>
          <ns3:TrackPointExtension>
            <ns3:hr>94</ns3:hr>
            <ns3:cad>0</ns3:cad>
          </ns3:TrackPointExtension>
        </extensions>
      </trkpt>
      <trkpt lat="37.7582507394254207611083984375" lon="-107.707435302436351776123046875">
        <ele>3570.199951171875</ele>
        <time>2023-07-29T17:58:17.000Z</time>
        <extensions>
          <ns3:TrackPointExtension>
            <ns3:hr>94</ns3:hr>
            <ns3:cad>0</ns3:cad>
          </ns3:TrackPointExtension>
        </extensions>
      </trkpt>
      <trkpt lat="37.7582540921866893768310546875" lon="-107.7074356377124786376953125">
        <ele>3570.199951171875</ele>
        <time>2023-07-29T17:58:18.000Z</time>
        <extensions>
          <ns3:TrackPointExtension>
            <ns3:hr>94</ns3:hr>
            <ns3:cad>0</ns3:cad>
          </ns3:TrackPointExtension>
        </extensions>
      </trkpt>
      <trkpt lat="37.75825568474829196929931640625" lon="-107.70743496716022491455078125">
        <ele>3570.199951171875</ele>
        <time>2023-07-29T17:58:19.000Z</time>
        <extensions>
          <ns3:TrackPointExtension>
            <ns3:hr>94</ns3:hr>
            <ns3:cad>0</ns3:cad>
          </ns3:TrackPointExtension>
        </extensions>
      </trkpt>
      <trkpt lat="37.75825819931924343109130859375" lon="-107.7074374817311763763427734375">
        <ele>3570.199951171875</ele>
        <time>2023-07-29T17:58:20.000Z</time>
        <extensions>
          <ns3:TrackPointExtension>
            <ns3:hr>93</ns3:hr>
            <ns3:cad>0</ns3:cad>
          </ns3:TrackPointExtension>
        </extensions>
      </trkpt>
      <trkpt lat="37.75825836695730686187744140625" lon="-107.70743756555020809173583984375">
        <ele>3570</ele>
        <time>2023-07-29T17:58:21.000Z</time>
        <extensions>
          <ns3:TrackPointExtension>
            <ns3:hr>92</ns3:hr>
            <ns3:cad>0</ns3:cad>
          </ns3:TrackPointExtension>
        </extensions>
      </trkpt>
      <trkpt lat="37.75825736112892627716064453125" lon="-107.7074374817311763763427734375">
        <ele>3570</ele>
        <time>2023-07-29T17:58:22.000Z</time>
        <extensions>
          <ns3:TrackPointExtension>
            <ns3:hr>91</ns3:hr>
            <ns3:cad>0</ns3:cad>
          </ns3:TrackPointExtension>
        </extensions>
      </trkpt>
      <trkpt lat="37.75825400836765766143798828125" lon="-107.70743739791214466094970703125">
        <ele>3570</ele>
        <time>2023-07-29T17:58:23.000Z</time>
        <extensions>
          <ns3:TrackPointExtension>
            <ns3:hr>91</ns3:hr>
            <ns3:cad>0</ns3:cad>
          </ns3:TrackPointExtension>
        </extensions>
      </trkpt>
      <trkpt lat="37.75824981741607189178466796875" lon="-107.70744225941598415374755859375">
        <ele>3570</ele>
        <time>2023-07-29T17:58:24.000Z</time>
        <extensions>
          <ns3:TrackPointExtension>
            <ns3:hr>91</ns3:hr>
            <ns3:cad>0</ns3:cad>
          </ns3:TrackPointExtension>
        </extensions>
      </trkpt>
      <trkpt lat="37.75824679993093013763427734375" lon="-107.70744678564369678497314453125">
        <ele>3570</ele>
        <time>2023-07-29T17:58:25.000Z</time>
        <extensions>
          <ns3:TrackPointExtension>
            <ns3:hr>90</ns3:hr>
            <ns3:cad>0</ns3:cad>
          </ns3:TrackPointExtension>
        </extensions>
      </trkpt>
      <trkpt lat="37.7582423575222492218017578125" lon="-107.7074570953845977783203125">
        <ele>3570</ele>
        <time>2023-07-29T17:58:26.000Z</time>
        <extensions>
          <ns3:TrackPointExtension>
            <ns3:hr>89</ns3:hr>
            <ns3:cad>0</ns3:cad>
          </ns3:TrackPointExtension>
        </extensions>
      </trkpt>
      <trkpt lat="37.7582369931042194366455078125" lon="-107.70745634101331233978271484375">
        <ele>3570</ele>
        <time>2023-07-29T17:58:27.000Z</time>
        <extensions>
          <ns3:TrackPointExtension>
            <ns3:hr>89</ns3:hr>
            <ns3:cad>0</ns3:cad>
          </ns3:TrackPointExtension>
        </extensions>
      </trkpt>
      <trkpt lat="37.75823079049587249755859375" lon="-107.707458101212978363037109375">
        <ele>3570</ele>
        <time>2023-07-29T17:58:28.000Z</time>
        <extensions>
          <ns3:TrackPointExtension>
            <ns3:hr>90</ns3:hr>
            <ns3:cad>0</ns3:cad>
          </ns3:TrackPointExtension>
        </extensions>
      </trkpt>
      <trkpt lat="37.75822601281106472015380859375" lon="-107.70744980312883853912353515625">
        <ele>3570</ele>
        <time>2023-07-29T17:58:29.000Z</time>
        <extensions>
          <ns3:TrackPointExtension>
            <ns3:hr>90</ns3:hr>
            <ns3:cad>0</ns3:cad>
          </ns3:TrackPointExtension>
        </extensions>
      </trkpt>
      <trkpt lat="37.75821880437433719635009765625" lon="-107.70744728855788707733154296875">
        <ele>3569.800048828125</ele>
        <time>2023-07-29T17:58:30.000Z</time>
        <extensions>
          <ns3:TrackPointExtension>
            <ns3:hr>90</ns3:hr>
            <ns3:cad>0</ns3:cad>
          </ns3:TrackPointExtension>
        </extensions>
      </trkpt>
      <trkpt lat="37.7582098357379436492919921875" lon="-107.70744360052049160003662109375">
        <ele>3569.800048828125</ele>
        <time>2023-07-29T17:58:31.000Z</time>
        <extensions>
          <ns3:TrackPointExtension>
            <ns3:hr>90</ns3:hr>
            <ns3:cad>0</ns3:cad>
          </ns3:TrackPointExtension>
        </extensions>
      </trkpt>
      <trkpt lat="37.75820388458669185638427734375" lon="-107.7074435167014598846435546875">
        <ele>3569.60009765625</ele>
        <time>2023-07-29T17:58:32.000Z</time>
        <extensions>
          <ns3:TrackPointExtension>
            <ns3:hr>90</ns3:hr>
            <ns3:cad>0</ns3:cad>
          </ns3:TrackPointExtension>
        </extensions>
      </trkpt>
      <trkpt lat="37.75820396840572357177734375" lon="-107.70744292996823787689208984375">
        <ele>3569.39990234375</ele>
        <time>2023-07-29T17:58:33.000Z</time>
        <extensions>
          <ns3:TrackPointExtension>
            <ns3:hr>90</ns3:hr>
            <ns3:cad>0</ns3:cad>
          </ns3:TrackPointExtension>
        </extensions>
      </trkpt>
      <trkpt lat="37.75820120237767696380615234375" lon="-107.70744276233017444610595703125">
        <ele>3569.39990234375</ele>
        <time>2023-07-29T17:58:34.000Z</time>
        <extensions>
          <ns3:TrackPointExtension>
            <ns3:hr>90</ns3:hr>
            <ns3:cad>0</ns3:cad>
          </ns3:TrackPointExtension>
        </extensions>
      </trkpt>
      <trkpt lat="37.7581965923309326171875" lon="-107.70744259469211101531982421875">
        <ele>3569.199951171875</ele>
        <time>2023-07-29T17:58:35.000Z</time>
        <extensions>
          <ns3:TrackPointExtension>
            <ns3:hr>90</ns3:hr>
            <ns3:cad>0</ns3:cad>
          </ns3:TrackPointExtension>
        </extensions>
      </trkpt>
      <trkpt lat="37.7581937424838542938232421875" lon="-107.7074428461492061614990234375">
        <ele>3569</ele>
        <time>2023-07-29T17:58:36.000Z</time>
        <extensions>
          <ns3:TrackPointExtension>
            <ns3:hr>90</ns3:hr>
            <ns3:cad>0</ns3:cad>
          </ns3:TrackPointExtension>
        </extensions>
      </trkpt>
      <trkpt lat="37.75818846188485622406005859375" lon="-107.70744276233017444610595703125">
        <ele>3568.800048828125</ele>
        <time>2023-07-29T17:58:37.000Z</time>
        <extensions>
          <ns3:TrackPointExtension>
            <ns3:hr>89</ns3:hr>
            <ns3:cad>0</ns3:cad>
          </ns3:TrackPointExtension>
        </extensions>
      </trkpt>
      <trkpt lat="37.7581779845058917999267578125" lon="-107.7074394933879375457763671875">
        <ele>3568.800048828125</ele>
        <time>2023-07-29T17:58:38.000Z</time>
        <extensions>
          <ns3:TrackPointExtension>
            <ns3:hr>88</ns3:hr>
            <ns3:cad>0</ns3:cad>
          </ns3:TrackPointExtension>
        </extensions>
      </trkpt>
      <trkpt lat="37.7581662498414516448974609375" lon="-107.70743790082633495330810546875">
        <ele>3568.60009765625</ele>
        <time>2023-07-29T17:58:39.000Z</time>
        <extensions>
          <ns3:TrackPointExtension>
            <ns3:hr>87</ns3:hr>
            <ns3:cad>0</ns3:cad>
          </ns3:TrackPointExtension>
        </extensions>
      </trkpt>
      <trkpt lat="37.758143953979015350341796875" lon="-107.7074425108730792999267578125">
        <ele>3568.60009765625</ele>
        <time>2023-07-29T17:58:40.000Z</time>
        <extensions>
          <ns3:TrackPointExtension>
            <ns3:hr>86</ns3:hr>
            <ns3:cad>0</ns3:cad>
          </ns3:TrackPointExtension>
        </extensions>
      </trkpt>
      <trkpt lat="37.75813515298068523406982421875" lon="-107.70744829438626766204833984375">
        <ele>3568.39990234375</ele>
        <time>2023-07-29T17:58:41.000Z</time>
        <extensions>
          <ns3:TrackPointExtension>
            <ns3:hr>86</ns3:hr>
            <ns3:cad>0</ns3:cad>
          </ns3:TrackPointExtension>
        </extensions>
      </trkpt>
      <trkpt lat="37.7581223286688327789306640625" lon="-107.70744997076690196990966796875">
        <ele>3568.199951171875</ele>
        <time>2023-07-29T17:58:42.000Z</time>
        <extensions>
          <ns3:TrackPointExtension>
            <ns3:hr>86</ns3:hr>
            <ns3:cad>0</ns3:cad>
          </ns3:TrackPointExtension>
        </extensions>
      </trkpt>
      <trkpt lat="37.75811218656599521636962890625" lon="-107.707453072071075439453125">
        <ele>3568.199951171875</ele>
        <time>2023-07-29T17:58:43.000Z</time>
        <extensions>
          <ns3:TrackPointExtension>
            <ns3:hr>86</ns3:hr>
            <ns3:cad>0</ns3:cad>
          </ns3:TrackPointExtension>
        </extensions>
      </trkpt>
      <trkpt lat="37.758101709187030792236328125" lon="-107.70745533518493175506591796875">
        <ele>3568.199951171875</ele>
        <time>2023-07-29T17:58:44.000Z</time>
        <extensions>
          <ns3:TrackPointExtension>
            <ns3:hr>87</ns3:hr>
            <ns3:cad>0</ns3:cad>
          </ns3:TrackPointExtension>
        </extensions>
      </trkpt>
      <trkpt lat="37.75810011662542819976806640625" lon="-107.70745282061398029327392578125">
        <ele>3568.199951171875</ele>
        <time>2023-07-29T17:58:45.000Z</time>
        <extensions>
          <ns3:TrackPointExtension>
            <ns3:hr>87</ns3:hr>
            <ns3:cad>0</ns3:cad>
          </ns3:TrackPointExtension>
        </extensions>
      </trkpt>
      <trkpt lat="37.758096344769001007080078125" lon="-107.70745282061398029327392578125">
        <ele>3568</ele>
        <time>2023-07-29T17:58:46.000Z</time>
        <extensions>
          <ns3:TrackPointExtension>
            <ns3:hr>88</ns3:hr>
            <ns3:cad>0</ns3:cad>
          </ns3:TrackPointExtension>
        </extensions>
      </trkpt>
      <trkpt lat="37.75808771140873432159423828125" lon="-107.70745684392750263214111328125">
        <ele>3568</ele>
        <time>2023-07-29T17:58:47.000Z</time>
        <extensions>
          <ns3:TrackPointExtension>
            <ns3:hr>88</ns3:hr>
            <ns3:cad>0</ns3:cad>
          </ns3:TrackPointExtension>
        </extensions>
      </trkpt>
      <trkpt lat="37.7580772340297698974609375" lon="-107.70746304653584957122802734375">
        <ele>3567.60009765625</ele>
        <time>2023-07-29T17:58:48.000Z</time>
        <extensions>
          <ns3:TrackPointExtension>
            <ns3:hr>88</ns3:hr>
            <ns3:cad>0</ns3:cad>
          </ns3:TrackPointExtension>
        </extensions>
      </trkpt>
      <trkpt lat="37.7580678462982177734375" lon="-107.707468830049037933349609375">
        <ele>3567.39990234375</ele>
        <time>2023-07-29T17:58:49.000Z</time>
        <extensions>
          <ns3:TrackPointExtension>
            <ns3:hr>88</ns3:hr>
            <ns3:cad>0</ns3:cad>
          </ns3:TrackPointExtension>
        </extensions>
      </trkpt>
      <trkpt lat="37.7580611407756805419921875" lon="-107.7074753679335117340087890625">
        <ele>3567.199951171875</ele>
        <time>2023-07-29T17:58:50.000Z</time>
        <extensions>
          <ns3:TrackPointExtension>
            <ns3:hr>88</ns3:hr>
            <ns3:cad>0</ns3:cad>
          </ns3:TrackPointExtension>
        </extensions>
      </trkpt>
      <trkpt lat="37.7580557763576507568359375" lon="-107.7074767090380191802978515625">
        <ele>3567</ele>
        <time>2023-07-29T17:58:51.000Z</time>
        <extensions>
          <ns3:TrackPointExtension>
            <ns3:hr>88</ns3:hr>
            <ns3:cad>0</ns3:cad>
          </ns3:TrackPointExtension>
        </extensions>
      </trkpt>
      <trkpt lat="37.75804705917835235595703125" lon="-107.70747796632349491119384765625">
        <ele>3567</ele>
        <time>2023-07-29T17:58:52.000Z</time>
        <extensions>
          <ns3:TrackPointExtension>
            <ns3:hr>88</ns3:hr>
            <ns3:cad>0</ns3:cad>
          </ns3:TrackPointExtension>
        </extensions>
      </trkpt>
      <trkpt lat="37.758039347827434539794921875" lon="-107.70747494883835315704345703125">
        <ele>3567</ele>
        <time>2023-07-29T17:58:53.000Z</time>
        <extensions>
          <ns3:TrackPointExtension>
            <ns3:hr>88</ns3:hr>
            <ns3:cad>0</ns3:cad>
          </ns3:TrackPointExtension>
        </extensions>
      </trkpt>
      <trkpt lat="37.7580378390848636627197265625" lon="-107.7074689976871013641357421875">
        <ele>3566.800048828125</ele>
        <time>2023-07-29T17:58:54.000Z</time>
        <extensions>
          <ns3:TrackPointExtension>
            <ns3:hr>88</ns3:hr>
            <ns3:cad>0</ns3:cad>
          </ns3:TrackPointExtension>
        </extensions>
      </trkpt>
      <trkpt lat="37.75803809054195880889892578125" lon="-107.70746891386806964874267578125">
        <ele>3566.800048828125</ele>
        <time>2023-07-29T17:58:55.000Z</time>
        <extensions>
          <ns3:TrackPointExtension>
            <ns3:hr>88</ns3:hr>
            <ns3:cad>0</ns3:cad>
          </ns3:TrackPointExtension>
        </extensions>
      </trkpt>
      <trkpt lat="37.75802182964980602264404296875" lon="-107.70746187306940555572509765625">
        <ele>3566.60009765625</ele>
        <time>2023-07-29T17:58:56.000Z</time>
        <extensions>
          <ns3:TrackPointExtension>
            <ns3:hr>88</ns3:hr>
            <ns3:cad>0</ns3:cad>
          </ns3:TrackPointExtension>
        </extensions>
      </trkpt>
      <trkpt lat="37.7580090053379535675048828125" lon="-107.707458436489105224609375">
        <ele>3566.60009765625</ele>
        <time>2023-07-29T17:58:57.000Z</time>
        <extensions>
          <ns3:TrackPointExtension>
            <ns3:hr>89</ns3:hr>
            <ns3:cad>0</ns3:cad>
          </ns3:TrackPointExtension>
        </extensions>
      </trkpt>
      <trkpt lat="37.7580012939870357513427734375" lon="-107.7074569277465343475341796875">
        <ele>3566.60009765625</ele>
        <time>2023-07-29T17:58:58.000Z</time>
        <extensions>
          <ns3:TrackPointExtension>
            <ns3:hr>89</ns3:hr>
            <ns3:cad>0</ns3:cad>
          </ns3:TrackPointExtension>
        </extensions>
      </trkpt>
      <trkpt lat="37.7579949237406253814697265625" lon="-107.70745508372783660888671875">
        <ele>3566.199951171875</ele>
        <time>2023-07-29T17:58:59.000Z</time>
        <extensions>
          <ns3:TrackPointExtension>
            <ns3:hr>89</ns3:hr>
            <ns3:cad>0</ns3:cad>
          </ns3:TrackPointExtension>
        </extensions>
      </trkpt>
      <trkpt lat="37.75798738002777099609375" lon="-107.7074518986046314239501953125">
        <ele>3566.199951171875</ele>
        <time>2023-07-29T17:59:00.000Z</time>
        <extensions>
          <ns3:TrackPointExtension>
            <ns3:hr>90</ns3:hr>
            <ns3:cad>0</ns3:cad>
          </ns3:TrackPointExtension>
        </extensions>
      </trkpt>
      <trkpt lat="37.75797807611525058746337890625" lon="-107.70744946785271167755126953125">
        <ele>3566.199951171875</ele>
        <time>2023-07-29T17:59:01.000Z</time>
        <extensions>
          <ns3:TrackPointExtension>
            <ns3:hr>90</ns3:hr>
            <ns3:cad>0</ns3:cad>
          </ns3:TrackPointExtension>
        </extensions>
      </trkpt>
      <trkpt lat="37.7579687722027301788330078125" lon="-107.7074465341866016387939453125">
        <ele>3566.199951171875</ele>
        <time>2023-07-29T17:59:02.000Z</time>
        <extensions>
          <ns3:TrackPointExtension>
            <ns3:hr>90</ns3:hr>
            <ns3:cad>0</ns3:cad>
          </ns3:TrackPointExtension>
        </extensions>
      </trkpt>
      <trkpt lat="37.7579583786427974700927734375" lon="-107.70744326524436473846435546875">
        <ele>3566.199951171875</ele>
        <time>2023-07-29T17:59:03.000Z</time>
        <extensions>
          <ns3:TrackPointExtension>
            <ns3:hr>91</ns3:hr>
            <ns3:cad>0</ns3:cad>
          </ns3:TrackPointExtension>
        </extensions>
      </trkpt>
      <trkpt lat="37.7579530142247676849365234375" lon="-107.70744301378726959228515625">
        <ele>3566.39990234375</ele>
        <time>2023-07-29T17:59:04.000Z</time>
        <extensions>
          <ns3:TrackPointExtension>
            <ns3:hr>91</ns3:hr>
            <ns3:cad>0</ns3:cad>
          </ns3:TrackPointExtension>
        </extensions>
      </trkpt>
      <trkpt lat="37.7579577080905437469482421875" lon="-107.70745181478559970855712890625">
        <ele>3566.60009765625</ele>
        <time>2023-07-29T17:59:05.000Z</time>
        <extensions>
          <ns3:TrackPointExtension>
            <ns3:hr>91</ns3:hr>
            <ns3:cad>0</ns3:cad>
          </ns3:TrackPointExtension>
        </extensions>
      </trkpt>
      <trkpt lat="37.75792158208787441253662109375" lon="-107.70746505819261074066162109375">
        <ele>3566.800048828125</ele>
        <time>2023-07-29T17:59:08.000Z</time>
        <extensions>
          <ns3:TrackPointExtension>
            <ns3:hr>91</ns3:hr>
            <ns3:cad>0</ns3:cad>
          </ns3:TrackPointExtension>
        </extensions>
      </trkpt>
      <trkpt lat="37.75791387073695659637451171875" lon="-107.7074632979929447174072265625">
        <ele>3566.800048828125</ele>
        <time>2023-07-29T17:59:09.000Z</time>
        <extensions>
          <ns3:TrackPointExtension>
            <ns3:hr>92</ns3:hr>
            <ns3:cad>0</ns3:cad>
          </ns3:TrackPointExtension>
        </extensions>
      </trkpt>
      <trkpt lat="37.75790951214730739593505859375" lon="-107.70745852030813694000244140625">
        <ele>3566.800048828125</ele>
        <time>2023-07-29T17:59:10.000Z</time>
        <extensions>
          <ns3:TrackPointExtension>
            <ns3:hr>92</ns3:hr>
            <ns3:cad>0</ns3:cad>
          </ns3:TrackPointExtension>
        </extensions>
      </trkpt>
      <trkpt lat="37.7579064108431339263916015625" lon="-107.70745499990880489349365234375">
        <ele>3566.800048828125</ele>
        <time>2023-07-29T17:59:11.000Z</time>
        <extensions>
          <ns3:TrackPointExtension>
            <ns3:hr>93</ns3:hr>
            <ns3:cad>0</ns3:cad>
          </ns3:TrackPointExtension>
        </extensions>
      </trkpt>
      <trkpt lat="37.75790096260607242584228515625" lon="-107.70745298825204372406005859375">
        <ele>3566.60009765625</ele>
        <time>2023-07-29T17:59:12.000Z</time>
        <extensions>
          <ns3:TrackPointExtension>
            <ns3:hr>93</ns3:hr>
            <ns3:cad>0</ns3:cad>
          </ns3:TrackPointExtension>
        </extensions>
      </trkpt>
      <trkpt lat="37.75788654573261737823486328125" lon="-107.7074401639401912689208984375">
        <ele>3566.60009765625</ele>
        <time>2023-07-29T17:59:13.000Z</time>
        <extensions>
          <ns3:TrackPointExtension>
            <ns3:hr>93</ns3:hr>
            <ns3:cad>0</ns3:cad>
          </ns3:TrackPointExtension>
        </extensions>
      </trkpt>
      <trkpt lat="37.757867686450481414794921875" lon="-107.70743119530379772186279296875">
        <ele>3566.60009765625</ele>
        <time>2023-07-29T17:59:14.000Z</time>
        <extensions>
          <ns3:TrackPointExtension>
            <ns3:hr>93</ns3:hr>
            <ns3:cad>0</ns3:cad>
          </ns3:TrackPointExtension>
        </extensions>
      </trkpt>
      <trkpt lat="37.75786466896533966064453125" lon="-107.70742750726640224456787109375">
        <ele>3566.60009765625</ele>
        <time>2023-07-29T17:59:15.000Z</time>
        <extensions>
          <ns3:TrackPointExtension>
            <ns3:hr>93</ns3:hr>
            <ns3:cad>0</ns3:cad>
          </ns3:TrackPointExtension>
        </extensions>
      </trkpt>
      <trkpt lat="37.75785855017602443695068359375" lon="-107.70741895772516727447509765625">
        <ele>3566.60009765625</ele>
        <time>2023-07-29T17:59:16.000Z</time>
        <extensions>
          <ns3:TrackPointExtension>
            <ns3:hr>93</ns3:hr>
            <ns3:cad>0</ns3:cad>
          </ns3:TrackPointExtension>
        </extensions>
      </trkpt>
      <trkpt lat="37.75785536505281925201416015625" lon="-107.70741225220263004302978515625">
        <ele>3566.60009765625</ele>
        <time>2023-07-29T17:59:17.000Z</time>
        <extensions>
          <ns3:TrackPointExtension>
            <ns3:hr>93</ns3:hr>
            <ns3:cad>0</ns3:cad>
          </ns3:TrackPointExtension>
        </extensions>
      </trkpt>
      <trkpt lat="37.75784681551158428192138671875" lon="-107.7074083127081394195556640625">
        <ele>3566.60009765625</ele>
        <time>2023-07-29T17:59:18.000Z</time>
        <extensions>
          <ns3:TrackPointExtension>
            <ns3:hr>93</ns3:hr>
            <ns3:cad>0</ns3:cad>
          </ns3:TrackPointExtension>
        </extensions>
      </trkpt>
      <trkpt lat="37.75784111581742763519287109375" lon="-107.70740588195621967315673828125">
        <ele>3566.39990234375</ele>
        <time>2023-07-29T17:59:19.000Z</time>
        <extensions>
          <ns3:TrackPointExtension>
            <ns3:hr>94</ns3:hr>
            <ns3:cad>0</ns3:cad>
          </ns3:TrackPointExtension>
        </extensions>
      </trkpt>
      <trkpt lat="37.757838182151317596435546875" lon="-107.7074039541184902191162109375">
        <ele>3566.39990234375</ele>
        <time>2023-07-29T17:59:20.000Z</time>
        <extensions>
          <ns3:TrackPointExtension>
            <ns3:hr>94</ns3:hr>
            <ns3:cad>49</ns3:cad>
          </ns3:TrackPointExtension>
        </extensions>
      </trkpt>
      <trkpt lat="37.757834158837795257568359375" lon="-107.7073985897004604339599609375">
        <ele>3566.39990234375</ele>
        <time>2023-07-29T17:59:21.000Z</time>
        <extensions>
          <ns3:TrackPointExtension>
            <ns3:hr>94</ns3:hr>
            <ns3:cad>49</ns3:cad>
          </ns3:TrackPointExtension>
        </extensions>
      </trkpt>
      <trkpt lat="37.757827453315258026123046875" lon="-107.70739045925438404083251953125">
        <ele>3566.39990234375</ele>
        <time>2023-07-29T17:59:22.000Z</time>
        <extensions>
          <ns3:TrackPointExtension>
            <ns3:hr>94</ns3:hr>
            <ns3:cad>49</ns3:cad>
          </ns3:TrackPointExtension>
        </extensions>
      </trkpt>
      <trkpt lat="37.75781638920307159423828125" lon="-107.707388699054718017578125">
        <ele>3566.39990234375</ele>
        <time>2023-07-29T17:59:23.000Z</time>
        <extensions>
          <ns3:TrackPointExtension>
            <ns3:hr>94</ns3:hr>
            <ns3:cad>49</ns3:cad>
          </ns3:TrackPointExtension>
        </extensions>
      </trkpt>
      <trkpt lat="37.7578063309192657470703125" lon="-107.70738400518894195556640625">
        <ele>3566.39990234375</ele>
        <time>2023-07-29T17:59:24.000Z</time>
        <extensions>
          <ns3:TrackPointExtension>
            <ns3:hr>94</ns3:hr>
            <ns3:cad>44</ns3:cad>
          </ns3:TrackPointExtension>
        </extensions>
      </trkpt>
      <trkpt lat="37.7577944286167621612548828125" lon="-107.70738190971314907073974609375">
        <ele>3566.60009765625</ele>
        <time>2023-07-29T17:59:25.000Z</time>
        <extensions>
          <ns3:TrackPointExtension>
            <ns3:hr>94</ns3:hr>
            <ns3:cad>44</ns3:cad>
          </ns3:TrackPointExtension>
        </extensions>
      </trkpt>
      <trkpt lat="37.7577873878180980682373046875" lon="-107.70737855695188045501708984375">
        <ele>3566.60009765625</ele>
        <time>2023-07-29T17:59:26.000Z</time>
        <extensions>
          <ns3:TrackPointExtension>
            <ns3:hr>94</ns3:hr>
            <ns3:cad>0</ns3:cad>
          </ns3:TrackPointExtension>
        </extensions>
      </trkpt>
      <trkpt lat="37.75778126902878284454345703125" lon="-107.7073766291141510009765625">
        <ele>3566.60009765625</ele>
        <time>2023-07-29T17:59:27.000Z</time>
        <extensions>
          <ns3:TrackPointExtension>
            <ns3:hr>94</ns3:hr>
            <ns3:cad>0</ns3:cad>
          </ns3:TrackPointExtension>
        </extensions>
      </trkpt>
      <trkpt lat="37.757765762507915496826171875" lon="-107.7073694206774234771728515625">
        <ele>3566.60009765625</ele>
        <time>2023-07-29T17:59:28.000Z</time>
        <extensions>
          <ns3:TrackPointExtension>
            <ns3:hr>94</ns3:hr>
            <ns3:cad>0</ns3:cad>
          </ns3:TrackPointExtension>
        </extensions>
      </trkpt>
      <trkpt lat="37.75776249356567859649658203125" lon="-107.70736045204102993011474609375">
        <ele>3566.60009765625</ele>
        <time>2023-07-29T17:59:29.000Z</time>
        <extensions>
          <ns3:TrackPointExtension>
            <ns3:hr>94</ns3:hr>
            <ns3:cad>0</ns3:cad>
          </ns3:TrackPointExtension>
        </extensions>
      </trkpt>
      <trkpt lat="37.7577521838247776031494140625" lon="-107.70735860802233219146728515625">
        <ele>3566.60009765625</ele>
        <time>2023-07-29T17:59:30.000Z</time>
        <extensions>
          <ns3:TrackPointExtension>
            <ns3:hr>94</ns3:hr>
            <ns3:cad>0</ns3:cad>
          </ns3:TrackPointExtension>
        </extensions>
      </trkpt>
      <trkpt lat="37.75774455629289150238037109375" lon="-107.70735827274620532989501953125">
        <ele>3566.800048828125</ele>
        <time>2023-07-29T17:59:31.000Z</time>
        <extensions>
          <ns3:TrackPointExtension>
            <ns3:hr>93</ns3:hr>
            <ns3:cad>0</ns3:cad>
          </ns3:TrackPointExtension>
        </extensions>
      </trkpt>
      <trkpt lat="37.75773650966584682464599609375" lon="-107.70735525526106357574462890625">
        <ele>3567.199951171875</ele>
        <time>2023-07-29T17:59:32.000Z</time>
        <extensions>
          <ns3:TrackPointExtension>
            <ns3:hr>93</ns3:hr>
            <ns3:cad>0</ns3:cad>
          </ns3:TrackPointExtension>
        </extensions>
      </trkpt>
      <trkpt lat="37.75773148052394390106201171875" lon="-107.7073570154607295989990234375">
        <ele>3567.199951171875</ele>
        <time>2023-07-29T17:59:33.000Z</time>
        <extensions>
          <ns3:TrackPointExtension>
            <ns3:hr>93</ns3:hr>
            <ns3:cad>0</ns3:cad>
          </ns3:TrackPointExtension>
        </extensions>
      </trkpt>
      <trkpt lat="37.7577210031449794769287109375" lon="-107.70736162550747394561767578125">
        <ele>3567.39990234375</ele>
        <time>2023-07-29T17:59:34.000Z</time>
        <extensions>
          <ns3:TrackPointExtension>
            <ns3:hr>93</ns3:hr>
            <ns3:cad>0</ns3:cad>
          </ns3:TrackPointExtension>
        </extensions>
      </trkpt>
      <trkpt lat="37.75770348496735095977783203125" lon="-107.70736791193485260009765625">
        <ele>3567.60009765625</ele>
        <time>2023-07-29T17:59:35.000Z</time>
        <extensions>
          <ns3:TrackPointExtension>
            <ns3:hr>93</ns3:hr>
            <ns3:cad>0</ns3:cad>
          </ns3:TrackPointExtension>
        </extensions>
      </trkpt>
      <trkpt lat="37.7576891519129276275634765625" lon="-107.7073717676103115081787109375">
        <ele>3567.800048828125</ele>
        <time>2023-07-29T17:59:36.000Z</time>
        <extensions>
          <ns3:TrackPointExtension>
            <ns3:hr>93</ns3:hr>
            <ns3:cad>0</ns3:cad>
          </ns3:TrackPointExtension>
        </extensions>
      </trkpt>
      <trkpt lat="37.757676579058170318603515625" lon="-107.70737855695188045501708984375">
        <ele>3567.800048828125</ele>
        <time>2023-07-29T17:59:37.000Z</time>
        <extensions>
          <ns3:TrackPointExtension>
            <ns3:hr>93</ns3:hr>
            <ns3:cad>49</ns3:cad>
          </ns3:TrackPointExtension>
        </extensions>
      </trkpt>
      <trkpt lat="37.7576676942408084869384765625" lon="-107.70738744176924228668212890625">
        <ele>3567.800048828125</ele>
        <time>2023-07-29T17:59:38.000Z</time>
        <extensions>
          <ns3:TrackPointExtension>
            <ns3:hr>93</ns3:hr>
            <ns3:cad>49</ns3:cad>
          </ns3:TrackPointExtension>
        </extensions>
      </trkpt>
      <trkpt lat="37.7576626650989055633544921875" lon="-107.70739599131047725677490234375">
        <ele>3567.800048828125</ele>
        <time>2023-07-29T17:59:39.000Z</time>
        <extensions>
          <ns3:TrackPointExtension>
            <ns3:hr>93</ns3:hr>
            <ns3:cad>47</ns3:cad>
          </ns3:TrackPointExtension>
        </extensions>
      </trkpt>
      <trkpt lat="37.7576512657105922698974609375" lon="-107.70740604959428310394287109375">
        <ele>3567.800048828125</ele>
        <time>2023-07-29T17:59:40.000Z</time>
        <extensions>
          <ns3:TrackPointExtension>
            <ns3:hr>93</ns3:hr>
            <ns3:cad>47</ns3:cad>
          </ns3:TrackPointExtension>
        </extensions>
      </trkpt>
      <trkpt lat="37.75764405727386474609375" lon="-107.707413844764232635498046875">
        <ele>3567.800048828125</ele>
        <time>2023-07-29T17:59:41.000Z</time>
        <extensions>
          <ns3:TrackPointExtension>
            <ns3:hr>93</ns3:hr>
            <ns3:cad>49</ns3:cad>
          </ns3:TrackPointExtension>
        </extensions>
      </trkpt>
      <trkpt lat="37.75763534009456634521484375" lon="-107.7074195444583892822265625">
        <ele>3567.800048828125</ele>
        <time>2023-07-29T17:59:42.000Z</time>
        <extensions>
          <ns3:TrackPointExtension>
            <ns3:hr>93</ns3:hr>
            <ns3:cad>49</ns3:cad>
          </ns3:TrackPointExtension>
        </extensions>
      </trkpt>
      <trkpt lat="37.757624275982379913330078125" lon="-107.7074275910854339599609375">
        <ele>3567.800048828125</ele>
        <time>2023-07-29T17:59:43.000Z</time>
        <extensions>
          <ns3:TrackPointExtension>
            <ns3:hr>93</ns3:hr>
            <ns3:cad>52</ns3:cad>
          </ns3:TrackPointExtension>
        </extensions>
      </trkpt>
      <trkpt lat="37.757614888250827789306640625" lon="-107.70743823610246181488037109375">
        <ele>3567.60009765625</ele>
        <time>2023-07-29T17:59:44.000Z</time>
        <extensions>
          <ns3:TrackPointExtension>
            <ns3:hr>92</ns3:hr>
            <ns3:cad>52</ns3:cad>
          </ns3:TrackPointExtension>
        </extensions>
      </trkpt>
      <trkpt lat="37.757599465548992156982421875" lon="-107.70745131187140941619873046875">
        <ele>3567.60009765625</ele>
        <time>2023-07-29T17:59:45.000Z</time>
        <extensions>
          <ns3:TrackPointExtension>
            <ns3:hr>92</ns3:hr>
            <ns3:cad>52</ns3:cad>
          </ns3:TrackPointExtension>
        </extensions>
      </trkpt>
      <trkpt lat="37.75758982636034488677978515625" lon="-107.70745986141264438629150390625">
        <ele>3567.39990234375</ele>
        <time>2023-07-29T17:59:46.000Z</time>
        <extensions>
          <ns3:TrackPointExtension>
            <ns3:hr>92</ns3:hr>
            <ns3:cad>52</ns3:cad>
          </ns3:TrackPointExtension>
        </extensions>
      </trkpt>
      <trkpt lat="37.75757859461009502410888671875" lon="-107.707468159496784210205078125">
        <ele>3567.39990234375</ele>
        <time>2023-07-29T17:59:47.000Z</time>
        <extensions>
          <ns3:TrackPointExtension>
            <ns3:hr>92</ns3:hr>
            <ns3:cad>52</ns3:cad>
          </ns3:TrackPointExtension>
        </extensions>
      </trkpt>
      <trkpt lat="37.7575604058802127838134765625" lon="-107.7074773795902729034423828125">
        <ele>3567.199951171875</ele>
        <time>2023-07-29T17:59:48.000Z</time>
        <extensions>
          <ns3:TrackPointExtension>
            <ns3:hr>92</ns3:hr>
            <ns3:cad>54</ns3:cad>
          </ns3:TrackPointExtension>
        </extensions>
      </trkpt>
      <trkpt lat="37.75754959322512149810791015625" lon="-107.7074824087321758270263671875">
        <ele>3567</ele>
        <time>2023-07-29T17:59:49.000Z</time>
        <extensions>
          <ns3:TrackPointExtension>
            <ns3:hr>92</ns3:hr>
            <ns3:cad>56</ns3:cad>
          </ns3:TrackPointExtension>
        </extensions>
      </trkpt>
      <trkpt lat="37.75753735564649105072021484375" lon="-107.70748592913150787353515625">
        <ele>3567</ele>
        <time>2023-07-29T17:59:50.000Z</time>
        <extensions>
          <ns3:TrackPointExtension>
            <ns3:hr>92</ns3:hr>
            <ns3:cad>56</ns3:cad>
          </ns3:TrackPointExtension>
        </extensions>
      </trkpt>
      <trkpt lat="37.75752612389624118804931640625" lon="-107.70749087445437908172607421875">
        <ele>3567</ele>
        <time>2023-07-29T17:59:51.000Z</time>
        <extensions>
          <ns3:TrackPointExtension>
            <ns3:hr>91</ns3:hr>
            <ns3:cad>56</ns3:cad>
          </ns3:TrackPointExtension>
        </extensions>
      </trkpt>
      <trkpt lat="37.75751908309757709503173828125" lon="-107.7074911259114742279052734375">
        <ele>3567</ele>
        <time>2023-07-29T17:59:52.000Z</time>
        <extensions>
          <ns3:TrackPointExtension>
            <ns3:hr>90</ns3:hr>
            <ns3:cad>52</ns3:cad>
          </ns3:TrackPointExtension>
        </extensions>
      </trkpt>
      <trkpt lat="37.75751539506018161773681640625" lon="-107.7074901200830936431884765625">
        <ele>3566.800048828125</ele>
        <time>2023-07-29T17:59:53.000Z</time>
        <extensions>
          <ns3:TrackPointExtension>
            <ns3:hr>90</ns3:hr>
            <ns3:cad>52</ns3:cad>
          </ns3:TrackPointExtension>
        </extensions>
      </trkpt>
      <trkpt lat="37.7575161494314670562744140625" lon="-107.707485258579254150390625">
        <ele>3566.800048828125</ele>
        <time>2023-07-29T17:59:54.000Z</time>
        <extensions>
          <ns3:TrackPointExtension>
            <ns3:hr>89</ns3:hr>
            <ns3:cad>52</ns3:cad>
          </ns3:TrackPointExtension>
        </extensions>
      </trkpt>
      <trkpt lat="37.75751371867954730987548828125" lon="-107.70748517476022243499755859375">
        <ele>3566.800048828125</ele>
        <time>2023-07-29T17:59:55.000Z</time>
        <extensions>
          <ns3:TrackPointExtension>
            <ns3:hr>89</ns3:hr>
            <ns3:cad>52</ns3:cad>
          </ns3:TrackPointExtension>
        </extensions>
      </trkpt>
      <trkpt lat="37.75750382803380489349365234375" lon="-107.7074884437024593353271484375">
        <ele>3566.60009765625</ele>
        <time>2023-07-29T17:59:56.000Z</time>
        <extensions>
          <ns3:TrackPointExtension>
            <ns3:hr>89</ns3:hr>
            <ns3:cad>52</ns3:cad>
          </ns3:TrackPointExtension>
        </extensions>
      </trkpt>
      <trkpt lat="37.75749091990292072296142578125" lon="-107.707490622997283935546875">
        <ele>3566.39990234375</ele>
        <time>2023-07-29T17:59:57.000Z</time>
        <extensions>
          <ns3:TrackPointExtension>
            <ns3:hr>89</ns3:hr>
            <ns3:cad>52</ns3:cad>
          </ns3:TrackPointExtension>
        </extensions>
      </trkpt>
      <trkpt lat="37.75747038424015045166015625" lon="-107.70749690942466259002685546875">
        <ele>3566.199951171875</ele>
        <time>2023-07-29T17:59:58.000Z</time>
        <extensions>
          <ns3:TrackPointExtension>
            <ns3:hr>89</ns3:hr>
            <ns3:cad>52</ns3:cad>
          </ns3:TrackPointExtension>
        </extensions>
      </trkpt>
      <trkpt lat="37.75745370425283908843994140625" lon="-107.7075045369565486907958984375">
        <ele>3566</ele>
        <time>2023-07-29T17:59:59.000Z</time>
        <extensions>
          <ns3:TrackPointExtension>
            <ns3:hr>88</ns3:hr>
            <ns3:cad>52</ns3:cad>
          </ns3:TrackPointExtension>
        </extensions>
      </trkpt>
      <trkpt lat="37.7574423886835575103759765625" lon="-107.7075085602700710296630859375">
        <ele>3565.800048828125</ele>
        <time>2023-07-29T18:00:00.000Z</time>
        <extensions>
          <ns3:TrackPointExtension>
            <ns3:hr>88</ns3:hr>
            <ns3:cad>52</ns3:cad>
          </ns3:TrackPointExtension>
        </extensions>
      </trkpt>
      <trkpt lat="37.75743258185684680938720703125" lon="-107.70751249976456165313720703125">
        <ele>3565.800048828125</ele>
        <time>2023-07-29T18:00:01.000Z</time>
        <extensions>
          <ns3:TrackPointExtension>
            <ns3:hr>88</ns3:hr>
            <ns3:cad>51</ns3:cad>
          </ns3:TrackPointExtension>
        </extensions>
      </trkpt>
      <trkpt lat="37.7574226073920726776123046875" lon="-107.70751384086906909942626953125">
        <ele>3565.60009765625</ele>
        <time>2023-07-29T18:00:02.000Z</time>
        <extensions>
          <ns3:TrackPointExtension>
            <ns3:hr>88</ns3:hr>
            <ns3:cad>51</ns3:cad>
          </ns3:TrackPointExtension>
        </extensions>
      </trkpt>
      <trkpt lat="37.7574169076979160308837890625" lon="-107.7075132541358470916748046875">
        <ele>3565.60009765625</ele>
        <time>2023-07-29T18:00:03.000Z</time>
        <extensions>
          <ns3:TrackPointExtension>
            <ns3:hr>88</ns3:hr>
            <ns3:cad>51</ns3:cad>
          </ns3:TrackPointExtension>
        </extensions>
      </trkpt>
      <trkpt lat="37.75741011835634708404541015625" lon="-107.7075135894119739532470703125">
        <ele>3565.199951171875</ele>
        <time>2023-07-29T18:00:04.000Z</time>
        <extensions>
          <ns3:TrackPointExtension>
            <ns3:hr>89</ns3:hr>
            <ns3:cad>0</ns3:cad>
          </ns3:TrackPointExtension>
        </extensions>
      </trkpt>
      <trkpt lat="37.757400982081890106201171875" lon="-107.7075135894119739532470703125">
        <ele>3565</ele>
        <time>2023-07-29T18:00:05.000Z</time>
        <extensions>
          <ns3:TrackPointExtension>
            <ns3:hr>89</ns3:hr>
            <ns3:cad>0</ns3:cad>
          </ns3:TrackPointExtension>
        </extensions>
      </trkpt>
      <trkpt lat="37.75739201344549655914306640625" lon="-107.7075115777552127838134765625">
        <ele>3564.800048828125</ele>
        <time>2023-07-29T18:00:06.000Z</time>
        <extensions>
          <ns3:TrackPointExtension>
            <ns3:hr>89</ns3:hr>
            <ns3:cad>0</ns3:cad>
          </ns3:TrackPointExtension>
        </extensions>
      </trkpt>
      <trkpt lat="37.757389247417449951171875" lon="-107.70750872790813446044921875">
        <ele>3564.60009765625</ele>
        <time>2023-07-29T18:00:07.000Z</time>
        <extensions>
          <ns3:TrackPointExtension>
            <ns3:hr>89</ns3:hr>
            <ns3:cad>0</ns3:cad>
          </ns3:TrackPointExtension>
        </extensions>
      </trkpt>
      <trkpt lat="37.75738296099007129669189453125" lon="-107.70750604569911956787109375">
        <ele>3564.60009765625</ele>
        <time>2023-07-29T18:00:08.000Z</time>
        <extensions>
          <ns3:TrackPointExtension>
            <ns3:hr>89</ns3:hr>
            <ns3:cad>0</ns3:cad>
          </ns3:TrackPointExtension>
        </extensions>
      </trkpt>
      <trkpt lat="37.7573823742568492889404296875" lon="-107.70750160329043865203857421875">
        <ele>3564.199951171875</ele>
        <time>2023-07-29T18:00:09.000Z</time>
        <extensions>
          <ns3:TrackPointExtension>
            <ns3:hr>90</ns3:hr>
            <ns3:cad>0</ns3:cad>
          </ns3:TrackPointExtension>
        </extensions>
      </trkpt>
      <trkpt lat="37.7573743276298046112060546875" lon="-107.70749791525304317474365234375">
        <ele>3564</ele>
        <time>2023-07-29T18:00:10.000Z</time>
        <extensions>
          <ns3:TrackPointExtension>
            <ns3:hr>90</ns3:hr>
            <ns3:cad>0</ns3:cad>
          </ns3:TrackPointExtension>
        </extensions>
      </trkpt>
      <trkpt lat="37.75736670009791851043701171875" lon="-107.70749774761497974395751953125">
        <ele>3563.60009765625</ele>
        <time>2023-07-29T18:00:11.000Z</time>
        <extensions>
          <ns3:TrackPointExtension>
            <ns3:hr>90</ns3:hr>
            <ns3:cad>0</ns3:cad>
          </ns3:TrackPointExtension>
        </extensions>
      </trkpt>
      <trkpt lat="37.75736183859407901763916015625" lon="-107.70749942399561405181884765625">
        <ele>3563.39990234375</ele>
        <time>2023-07-29T18:00:12.000Z</time>
        <extensions>
          <ns3:TrackPointExtension>
            <ns3:hr>89</ns3:hr>
            <ns3:cad>0</ns3:cad>
          </ns3:TrackPointExtension>
        </extensions>
      </trkpt>
      <trkpt lat="37.7573538757860660552978515625" lon="-107.707497663795948028564453125">
        <ele>3563.199951171875</ele>
        <time>2023-07-29T18:00:13.000Z</time>
        <extensions>
          <ns3:TrackPointExtension>
            <ns3:hr>90</ns3:hr>
            <ns3:cad>0</ns3:cad>
          </ns3:TrackPointExtension>
        </extensions>
      </trkpt>
      <trkpt lat="37.757345326244831085205078125" lon="-107.7074998430907726287841796875">
        <ele>3563.199951171875</ele>
        <time>2023-07-29T18:00:14.000Z</time>
        <extensions>
          <ns3:TrackPointExtension>
            <ns3:hr>90</ns3:hr>
            <ns3:cad>0</ns3:cad>
          </ns3:TrackPointExtension>
        </extensions>
      </trkpt>
      <trkpt lat="37.757331915199756622314453125" lon="-107.7075045369565486907958984375">
        <ele>3563</ele>
        <time>2023-07-29T18:00:15.000Z</time>
        <extensions>
          <ns3:TrackPointExtension>
            <ns3:hr>89</ns3:hr>
            <ns3:cad>0</ns3:cad>
          </ns3:TrackPointExtension>
        </extensions>
      </trkpt>
      <trkpt lat="37.75732143782079219818115234375" lon="-107.707507722079753875732421875">
        <ele>3562.800048828125</ele>
        <time>2023-07-29T18:00:16.000Z</time>
        <extensions>
          <ns3:TrackPointExtension>
            <ns3:hr>90</ns3:hr>
            <ns3:cad>0</ns3:cad>
          </ns3:TrackPointExtension>
        </extensions>
      </trkpt>
      <trkpt lat="37.7573096193373203277587890625" lon="-107.70751216448843479156494140625">
        <ele>3562.60009765625</ele>
        <time>2023-07-29T18:00:17.000Z</time>
        <extensions>
          <ns3:TrackPointExtension>
            <ns3:hr>90</ns3:hr>
            <ns3:cad>0</ns3:cad>
          </ns3:TrackPointExtension>
        </extensions>
      </trkpt>
      <trkpt lat="37.7573032490909099578857421875" lon="-107.70751417614519596099853515625">
        <ele>3562.199951171875</ele>
        <time>2023-07-29T18:00:18.000Z</time>
        <extensions>
          <ns3:TrackPointExtension>
            <ns3:hr>91</ns3:hr>
            <ns3:cad>0</ns3:cad>
          </ns3:TrackPointExtension>
        </extensions>
      </trkpt>
      <trkpt lat="37.75729511864483356475830078125" lon="-107.7075172774493694305419921875">
        <ele>3562</ele>
        <time>2023-07-29T18:00:19.000Z</time>
        <extensions>
          <ns3:TrackPointExtension>
            <ns3:hr>91</ns3:hr>
            <ns3:cad>0</ns3:cad>
          </ns3:TrackPointExtension>
        </extensions>
      </trkpt>
      <trkpt lat="37.7572747506201267242431640625" lon="-107.7075259946286678314208984375">
        <ele>3561.800048828125</ele>
        <time>2023-07-29T18:00:20.000Z</time>
        <extensions>
          <ns3:TrackPointExtension>
            <ns3:hr>92</ns3:hr>
            <ns3:cad>0</ns3:cad>
          </ns3:TrackPointExtension>
        </extensions>
      </trkpt>
      <trkpt lat="37.757255136966705322265625" lon="-107.7075337059795856475830078125">
        <ele>3561.39990234375</ele>
        <time>2023-07-29T18:00:21.000Z</time>
        <extensions>
          <ns3:TrackPointExtension>
            <ns3:hr>92</ns3:hr>
            <ns3:cad>0</ns3:cad>
          </ns3:TrackPointExtension>
        </extensions>
      </trkpt>
      <trkpt lat="37.7572351880371570587158203125" lon="-107.70754225552082061767578125">
        <ele>3561.39990234375</ele>
        <time>2023-07-29T18:00:22.000Z</time>
        <extensions>
          <ns3:TrackPointExtension>
            <ns3:hr>92</ns3:hr>
            <ns3:cad>0</ns3:cad>
          </ns3:TrackPointExtension>
        </extensions>
      </trkpt>
      <trkpt lat="37.7572258003056049346923828125" lon="-107.707547284662723541259765625">
        <ele>3561.199951171875</ele>
        <time>2023-07-29T18:00:23.000Z</time>
        <extensions>
          <ns3:TrackPointExtension>
            <ns3:hr>90</ns3:hr>
            <ns3:cad>0</ns3:cad>
          </ns3:TrackPointExtension>
        </extensions>
      </trkpt>
      <trkpt lat="37.7572242915630340576171875" lon="-107.70755155943334102630615234375">
        <ele>3561</ele>
        <time>2023-07-29T18:00:24.000Z</time>
        <extensions>
          <ns3:TrackPointExtension>
            <ns3:hr>88</ns3:hr>
            <ns3:cad>0</ns3:cad>
          </ns3:TrackPointExtension>
        </extensions>
      </trkpt>
      <trkpt lat="37.75722521357238292694091796875" lon="-107.7075565047562122344970703125">
        <ele>3560.800048828125</ele>
        <time>2023-07-29T18:00:25.000Z</time>
        <extensions>
          <ns3:TrackPointExtension>
            <ns3:hr>87</ns3:hr>
            <ns3:cad>0</ns3:cad>
          </ns3:TrackPointExtension>
        </extensions>
      </trkpt>
      <trkpt lat="37.75722269900143146514892578125" lon="-107.70755826495587825775146484375">
        <ele>3560.800048828125</ele>
        <time>2023-07-29T18:00:26.000Z</time>
        <extensions>
          <ns3:TrackPointExtension>
            <ns3:hr>87</ns3:hr>
            <ns3:cad>0</ns3:cad>
          </ns3:TrackPointExtension>
        </extensions>
      </trkpt>
      <trkpt lat="37.7572130598127841949462890625" lon="-107.7075645513832569122314453125">
        <ele>3560.800048828125</ele>
        <time>2023-07-29T18:00:27.000Z</time>
        <extensions>
          <ns3:TrackPointExtension>
            <ns3:hr>88</ns3:hr>
            <ns3:cad>59</ns3:cad>
          </ns3:TrackPointExtension>
        </extensions>
      </trkpt>
      <trkpt lat="37.75720090605318546295166015625" lon="-107.70757134072482585906982421875">
        <ele>3560.60009765625</ele>
        <time>2023-07-29T18:00:28.000Z</time>
        <extensions>
          <ns3:TrackPointExtension>
            <ns3:hr>88</ns3:hr>
            <ns3:cad>59</ns3:cad>
          </ns3:TrackPointExtension>
        </extensions>
      </trkpt>
      <trkpt lat="37.75719068013131618499755859375" lon="-107.70757444202899932861328125">
        <ele>3560.60009765625</ele>
        <time>2023-07-29T18:00:29.000Z</time>
        <extensions>
          <ns3:TrackPointExtension>
            <ns3:hr>89</ns3:hr>
            <ns3:cad>59</ns3:cad>
          </ns3:TrackPointExtension>
        </extensions>
      </trkpt>
      <trkpt lat="37.7571812085807323455810546875" lon="-107.7075796388089656829833984375">
        <ele>3560.60009765625</ele>
        <time>2023-07-29T18:00:30.000Z</time>
        <extensions>
          <ns3:TrackPointExtension>
            <ns3:hr>89</ns3:hr>
            <ns3:cad>59</ns3:cad>
          </ns3:TrackPointExtension>
        </extensions>
      </trkpt>
      <trkpt lat="37.7571694739162921905517578125" lon="-107.7075850032269954681396484375">
        <ele>3560.39990234375</ele>
        <time>2023-07-29T18:00:31.000Z</time>
        <extensions>
          <ns3:TrackPointExtension>
            <ns3:hr>90</ns3:hr>
            <ns3:cad>59</ns3:cad>
          </ns3:TrackPointExtension>
        </extensions>
      </trkpt>
      <trkpt lat="37.757158912718296051025390625" lon="-107.7075890265405178070068359375">
        <ele>3560.199951171875</ele>
        <time>2023-07-29T18:00:32.000Z</time>
        <extensions>
          <ns3:TrackPointExtension>
            <ns3:hr>91</ns3:hr>
            <ns3:cad>58</ns3:cad>
          </ns3:TrackPointExtension>
        </extensions>
      </trkpt>
      <trkpt lat="37.7571510337293148040771484375" lon="-107.707591541111469268798828125">
        <ele>3560</ele>
        <time>2023-07-29T18:00:33.000Z</time>
        <extensions>
          <ns3:TrackPointExtension>
            <ns3:hr>91</ns3:hr>
            <ns3:cad>57</ns3:cad>
          </ns3:TrackPointExtension>
        </extensions>
      </trkpt>
      <trkpt lat="37.757142484188079833984375" lon="-107.7075940556824207305908203125">
        <ele>3559.800048828125</ele>
        <time>2023-07-29T18:00:34.000Z</time>
        <extensions>
          <ns3:TrackPointExtension>
            <ns3:hr>91</ns3:hr>
            <ns3:cad>57</ns3:cad>
          </ns3:TrackPointExtension>
        </extensions>
      </trkpt>
      <trkpt lat="37.75713988579809665679931640625" lon="-107.70759330131113529205322265625">
        <ele>3559.800048828125</ele>
        <time>2023-07-29T18:00:35.000Z</time>
        <extensions>
          <ns3:TrackPointExtension>
            <ns3:hr>91</ns3:hr>
            <ns3:cad>57</ns3:cad>
          </ns3:TrackPointExtension>
        </extensions>
      </trkpt>
      <trkpt lat="37.7571332640945911407470703125" lon="-107.7075943909585475921630859375">
        <ele>3559.60009765625</ele>
        <time>2023-07-29T18:00:36.000Z</time>
        <extensions>
          <ns3:TrackPointExtension>
            <ns3:hr>91</ns3:hr>
            <ns3:cad>57</ns3:cad>
          </ns3:TrackPointExtension>
        </extensions>
      </trkpt>
      <trkpt lat="37.757128067314624786376953125" lon="-107.70759380422532558441162109375">
        <ele>3559.39990234375</ele>
        <time>2023-07-29T18:00:37.000Z</time>
        <extensions>
          <ns3:TrackPointExtension>
            <ns3:hr>91</ns3:hr>
            <ns3:cad>57</ns3:cad>
          </ns3:TrackPointExtension>
        </extensions>
      </trkpt>
      <trkpt lat="37.75711633265018463134765625" lon="-107.7075967378914356231689453125">
        <ele>3559.199951171875</ele>
        <time>2023-07-29T18:00:38.000Z</time>
        <extensions>
          <ns3:TrackPointExtension>
            <ns3:hr>91</ns3:hr>
            <ns3:cad>56</ns3:cad>
          </ns3:TrackPointExtension>
        </extensions>
      </trkpt>
      <trkpt lat="37.7571024186909198760986328125" lon="-107.7076021023094654083251953125">
        <ele>3559</ele>
        <time>2023-07-29T18:00:39.000Z</time>
        <extensions>
          <ns3:TrackPointExtension>
            <ns3:hr>91</ns3:hr>
            <ns3:cad>56</ns3:cad>
          </ns3:TrackPointExtension>
        </extensions>
      </trkpt>
      <trkpt lat="37.757088504731655120849609375" lon="-107.70760595798492431640625">
        <ele>3559</ele>
        <time>2023-07-29T18:00:40.000Z</time>
        <extensions>
          <ns3:TrackPointExtension>
            <ns3:hr>92</ns3:hr>
            <ns3:cad>56</ns3:cad>
          </ns3:TrackPointExtension>
        </extensions>
      </trkpt>
      <trkpt lat="37.75708087719976902008056640625" lon="-107.70760822109878063201904296875">
        <ele>3558.800048828125</ele>
        <time>2023-07-29T18:00:41.000Z</time>
        <extensions>
          <ns3:TrackPointExtension>
            <ns3:hr>92</ns3:hr>
            <ns3:cad>56</ns3:cad>
          </ns3:TrackPointExtension>
        </extensions>
      </trkpt>
      <trkpt lat="37.75707618333399295806884765625" lon="-107.7076111547648906707763671875">
        <ele>3558.800048828125</ele>
        <time>2023-07-29T18:00:42.000Z</time>
        <extensions>
          <ns3:TrackPointExtension>
            <ns3:hr>92</ns3:hr>
            <ns3:cad>56</ns3:cad>
          </ns3:TrackPointExtension>
        </extensions>
      </trkpt>
      <trkpt lat="37.757073752582073211669921875" lon="-107.707614339888095855712890625">
        <ele>3558.800048828125</ele>
        <time>2023-07-29T18:00:43.000Z</time>
        <extensions>
          <ns3:TrackPointExtension>
            <ns3:hr>92</ns3:hr>
            <ns3:cad>56</ns3:cad>
          </ns3:TrackPointExtension>
        </extensions>
      </trkpt>
      <trkpt lat="37.75706939399242401123046875" lon="-107.70761811174452304840087890625">
        <ele>3558.60009765625</ele>
        <time>2023-07-29T18:00:44.000Z</time>
        <extensions>
          <ns3:TrackPointExtension>
            <ns3:hr>92</ns3:hr>
            <ns3:cad>56</ns3:cad>
          </ns3:TrackPointExtension>
        </extensions>
      </trkpt>
      <trkpt lat="37.7570608444511890411376953125" lon="-107.7076208777725696563720703125">
        <ele>3558.199951171875</ele>
        <time>2023-07-29T18:00:45.000Z</time>
        <extensions>
          <ns3:TrackPointExtension>
            <ns3:hr>92</ns3:hr>
            <ns3:cad>56</ns3:cad>
          </ns3:TrackPointExtension>
        </extensions>
      </trkpt>
      <trkpt lat="37.75705254636704921722412109375" lon="-107.7076215483248233795166015625">
        <ele>3557.800048828125</ele>
        <time>2023-07-29T18:00:46.000Z</time>
        <extensions>
          <ns3:TrackPointExtension>
            <ns3:hr>92</ns3:hr>
            <ns3:cad>56</ns3:cad>
          </ns3:TrackPointExtension>
        </extensions>
      </trkpt>
      <trkpt lat="37.75704332627356052398681640625" lon="-107.70762364380061626434326171875">
        <ele>3557.800048828125</ele>
        <time>2023-07-29T18:00:47.000Z</time>
        <extensions>
          <ns3:TrackPointExtension>
            <ns3:hr>91</ns3:hr>
            <ns3:cad>56</ns3:cad>
          </ns3:TrackPointExtension>
        </extensions>
      </trkpt>
      <trkpt lat="37.7570333518087863922119140625" lon="-107.70762213505804538726806640625">
        <ele>3557.800048828125</ele>
        <time>2023-07-29T18:00:48.000Z</time>
        <extensions>
          <ns3:TrackPointExtension>
            <ns3:hr>91</ns3:hr>
            <ns3:cad>56</ns3:cad>
          </ns3:TrackPointExtension>
        </extensions>
      </trkpt>
      <trkpt lat="37.7570258080959320068359375" lon="-107.707621045410633087158203125">
        <ele>3557.60009765625</ele>
        <time>2023-07-29T18:00:49.000Z</time>
        <extensions>
          <ns3:TrackPointExtension>
            <ns3:hr>91</ns3:hr>
            <ns3:cad>56</ns3:cad>
          </ns3:TrackPointExtension>
        </extensions>
      </trkpt>
      <trkpt lat="37.7570177614688873291015625" lon="-107.70761467516422271728515625">
        <ele>3557.60009765625</ele>
        <time>2023-07-29T18:00:50.000Z</time>
        <extensions>
          <ns3:TrackPointExtension>
            <ns3:hr>91</ns3:hr>
            <ns3:cad>56</ns3:cad>
          </ns3:TrackPointExtension>
        </extensions>
      </trkpt>
      <trkpt lat="37.75700611062347888946533203125" lon="-107.7076041139662265777587890625">
        <ele>3557.39990234375</ele>
        <time>2023-07-29T18:00:51.000Z</time>
        <extensions>
          <ns3:TrackPointExtension>
            <ns3:hr>91</ns3:hr>
            <ns3:cad>56</ns3:cad>
          </ns3:TrackPointExtension>
        </extensions>
      </trkpt>
      <trkpt lat="37.75699404068291187286376953125" lon="-107.70759447477757930755615234375">
        <ele>3557.199951171875</ele>
        <time>2023-07-29T18:00:52.000Z</time>
        <extensions>
          <ns3:TrackPointExtension>
            <ns3:hr>91</ns3:hr>
            <ns3:cad>56</ns3:cad>
          </ns3:TrackPointExtension>
        </extensions>
      </trkpt>
      <trkpt lat="37.7569760195910930633544921875" lon="-107.7075803093612194061279296875">
        <ele>3557</ele>
        <time>2023-07-29T18:00:53.000Z</time>
        <extensions>
          <ns3:TrackPointExtension>
            <ns3:hr>91</ns3:hr>
            <ns3:cad>56</ns3:cad>
          </ns3:TrackPointExtension>
        </extensions>
      </trkpt>
      <trkpt lat="37.75696076452732086181640625" lon="-107.707571424543857574462890625">
        <ele>3556.60009765625</ele>
        <time>2023-07-29T18:00:54.000Z</time>
        <extensions>
          <ns3:TrackPointExtension>
            <ns3:hr>90</ns3:hr>
            <ns3:cad>56</ns3:cad>
          </ns3:TrackPointExtension>
        </extensions>
      </trkpt>
      <trkpt lat="37.75694492273032665252685546875" lon="-107.7075628750026226043701171875">
        <ele>3556.60009765625</ele>
        <time>2023-07-29T18:00:55.000Z</time>
        <extensions>
          <ns3:TrackPointExtension>
            <ns3:hr>90</ns3:hr>
            <ns3:cad>60</ns3:cad>
          </ns3:TrackPointExtension>
        </extensions>
      </trkpt>
      <trkpt lat="37.75693788193166255950927734375" lon="-107.70755960606038570404052734375">
        <ele>3556.199951171875</ele>
        <time>2023-07-29T18:00:56.000Z</time>
        <extensions>
          <ns3:TrackPointExtension>
            <ns3:hr>90</ns3:hr>
            <ns3:cad>60</ns3:cad>
          </ns3:TrackPointExtension>
        </extensions>
      </trkpt>
      <trkpt lat="37.75693117640912532806396484375" lon="-107.70755424164235591888427734375">
        <ele>3556.199951171875</ele>
        <time>2023-07-29T18:00:57.000Z</time>
        <extensions>
          <ns3:TrackPointExtension>
            <ns3:hr>90</ns3:hr>
            <ns3:cad>60</ns3:cad>
          </ns3:TrackPointExtension>
        </extensions>
      </trkpt>
      <trkpt lat="37.75692044757306575775146484375" lon="-107.70754761993885040283203125">
        <ele>3556</ele>
        <time>2023-07-29T18:00:58.000Z</time>
        <extensions>
          <ns3:TrackPointExtension>
            <ns3:hr>90</ns3:hr>
            <ns3:cad>60</ns3:cad>
          </ns3:TrackPointExtension>
        </extensions>
      </trkpt>
      <trkpt lat="37.756917178630828857421875" lon="-107.70754267461597919464111328125">
        <ele>3555.39990234375</ele>
        <time>2023-07-29T18:00:59.000Z</time>
        <extensions>
          <ns3:TrackPointExtension>
            <ns3:hr>90</ns3:hr>
            <ns3:cad>60</ns3:cad>
          </ns3:TrackPointExtension>
        </extensions>
      </trkpt>
      <trkpt lat="37.75691449642181396484375" lon="-107.7075375616550445556640625">
        <ele>3555.39990234375</ele>
        <time>2023-07-29T18:01:00.000Z</time>
        <extensions>
          <ns3:TrackPointExtension>
            <ns3:hr>90</ns3:hr>
            <ns3:cad>60</ns3:cad>
          </ns3:TrackPointExtension>
        </extensions>
      </trkpt>
      <trkpt lat="37.756904102861881256103515625" lon="-107.7075286768376827239990234375">
        <ele>3555.39990234375</ele>
        <time>2023-07-29T18:01:01.000Z</time>
        <extensions>
          <ns3:TrackPointExtension>
            <ns3:hr>90</ns3:hr>
            <ns3:cad>60</ns3:cad>
          </ns3:TrackPointExtension>
        </extensions>
      </trkpt>
      <trkpt lat="37.75690033100545406341552734375" lon="-107.70752482116222381591796875">
        <ele>3555.199951171875</ele>
        <time>2023-07-29T18:01:02.000Z</time>
        <extensions>
          <ns3:TrackPointExtension>
            <ns3:hr>90</ns3:hr>
            <ns3:cad>60</ns3:cad>
          </ns3:TrackPointExtension>
        </extensions>
      </trkpt>
      <trkpt lat="37.75689303874969482421875" lon="-107.70751568488776683807373046875">
        <ele>3555.199951171875</ele>
        <time>2023-07-29T18:01:03.000Z</time>
        <extensions>
          <ns3:TrackPointExtension>
            <ns3:hr>90</ns3:hr>
            <ns3:cad>60</ns3:cad>
          </ns3:TrackPointExtension>
        </extensions>
      </trkpt>
      <trkpt lat="37.7568922005593776702880859375" lon="-107.707513086497783660888671875">
        <ele>3555</ele>
        <time>2023-07-29T18:01:04.000Z</time>
        <extensions>
          <ns3:TrackPointExtension>
            <ns3:hr>90</ns3:hr>
            <ns3:cad>60</ns3:cad>
          </ns3:TrackPointExtension>
        </extensions>
      </trkpt>
      <trkpt lat="37.75688968598842620849609375" lon="-107.7075088955461978912353515625">
        <ele>3554.60009765625</ele>
        <time>2023-07-29T18:01:05.000Z</time>
        <extensions>
          <ns3:TrackPointExtension>
            <ns3:hr>90</ns3:hr>
            <ns3:cad>60</ns3:cad>
          </ns3:TrackPointExtension>
        </extensions>
      </trkpt>
      <trkpt lat="37.7568844892084598541259765625" lon="-107.7075053751468658447265625">
        <ele>3554.60009765625</ele>
        <time>2023-07-29T18:01:06.000Z</time>
        <extensions>
          <ns3:TrackPointExtension>
            <ns3:hr>91</ns3:hr>
            <ns3:cad>60</ns3:cad>
          </ns3:TrackPointExtension>
        </extensions>
      </trkpt>
      <trkpt lat="37.75688054971396923065185546875" lon="-107.7075015194714069366455078125">
        <ele>3554.199951171875</ele>
        <time>2023-07-29T18:01:07.000Z</time>
        <extensions>
          <ns3:TrackPointExtension>
            <ns3:hr>91</ns3:hr>
            <ns3:cad>60</ns3:cad>
          </ns3:TrackPointExtension>
        </extensions>
      </trkpt>
      <trkpt lat="37.75687786750495433807373046875" lon="-107.70750042982399463653564453125">
        <ele>3554</ele>
        <time>2023-07-29T18:01:08.000Z</time>
        <extensions>
          <ns3:TrackPointExtension>
            <ns3:hr>91</ns3:hr>
            <ns3:cad>60</ns3:cad>
          </ns3:TrackPointExtension>
        </extensions>
      </trkpt>
      <trkpt lat="37.7568767778575420379638671875" lon="-107.70749757997691631317138671875">
        <ele>3553.800048828125</ele>
        <time>2023-07-29T18:01:09.000Z</time>
        <extensions>
          <ns3:TrackPointExtension>
            <ns3:hr>91</ns3:hr>
            <ns3:cad>60</ns3:cad>
          </ns3:TrackPointExtension>
        </extensions>
      </trkpt>
      <trkpt lat="37.75687493383884429931640625" lon="-107.70749255083501338958740234375">
        <ele>3553.39990234375</ele>
        <time>2023-07-29T18:01:10.000Z</time>
        <extensions>
          <ns3:TrackPointExtension>
            <ns3:hr>91</ns3:hr>
            <ns3:cad>0</ns3:cad>
          </ns3:TrackPointExtension>
        </extensions>
      </trkpt>
      <trkpt lat="37.7568702399730682373046875" lon="-107.70748651586472988128662109375">
        <ele>3553.199951171875</ele>
        <time>2023-07-29T18:01:11.000Z</time>
        <extensions>
          <ns3:TrackPointExtension>
            <ns3:hr>91</ns3:hr>
            <ns3:cad>0</ns3:cad>
          </ns3:TrackPointExtension>
        </extensions>
      </trkpt>
      <trkpt lat="37.756856493651866912841796875" lon="-107.70747913978993892669677734375">
        <ele>3553</ele>
        <time>2023-07-29T18:01:12.000Z</time>
        <extensions>
          <ns3:TrackPointExtension>
            <ns3:hr>91</ns3:hr>
            <ns3:cad>0</ns3:cad>
          </ns3:TrackPointExtension>
        </extensions>
      </trkpt>
      <trkpt lat="37.75684534572064876556396484375" lon="-107.70747142843902111053466796875">
        <ele>3553</ele>
        <time>2023-07-29T18:01:13.000Z</time>
        <extensions>
          <ns3:TrackPointExtension>
            <ns3:hr>92</ns3:hr>
            <ns3:cad>0</ns3:cad>
          </ns3:TrackPointExtension>
        </extensions>
      </trkpt>
      <trkpt lat="37.75683679617941379547119140625" lon="-107.7074649743735790252685546875">
        <ele>3553</ele>
        <time>2023-07-29T18:01:14.000Z</time>
        <extensions>
          <ns3:TrackPointExtension>
            <ns3:hr>92</ns3:hr>
            <ns3:cad>0</ns3:cad>
          </ns3:TrackPointExtension>
        </extensions>
      </trkpt>
      <trkpt lat="37.75682539679110050201416015625" lon="-107.70745885558426380157470703125">
        <ele>3552.800048828125</ele>
        <time>2023-07-29T18:01:15.000Z</time>
        <extensions>
          <ns3:TrackPointExtension>
            <ns3:hr>92</ns3:hr>
            <ns3:cad>0</ns3:cad>
          </ns3:TrackPointExtension>
        </extensions>
      </trkpt>
      <trkpt lat="37.7568113990128040313720703125" lon="-107.70745181478559970855712890625">
        <ele>3552.60009765625</ele>
        <time>2023-07-29T18:01:16.000Z</time>
        <extensions>
          <ns3:TrackPointExtension>
            <ns3:hr>93</ns3:hr>
            <ns3:cad>0</ns3:cad>
          </ns3:TrackPointExtension>
        </extensions>
      </trkpt>
      <trkpt lat="37.75679907761514186859130859375" lon="-107.70744360052049160003662109375">
        <ele>3552.39990234375</ele>
        <time>2023-07-29T18:01:17.000Z</time>
        <extensions>
          <ns3:TrackPointExtension>
            <ns3:hr>93</ns3:hr>
            <ns3:cad>0</ns3:cad>
          </ns3:TrackPointExtension>
        </extensions>
      </trkpt>
      <trkpt lat="37.75679186917841434478759765625" lon="-107.70743974484503269195556640625">
        <ele>3552.199951171875</ele>
        <time>2023-07-29T18:01:18.000Z</time>
        <extensions>
          <ns3:TrackPointExtension>
            <ns3:hr>93</ns3:hr>
            <ns3:cad>0</ns3:cad>
          </ns3:TrackPointExtension>
        </extensions>
      </trkpt>
      <trkpt lat="37.75678499601781368255615234375" lon="-107.7074368111789226531982421875">
        <ele>3551.800048828125</ele>
        <time>2023-07-29T18:01:19.000Z</time>
        <extensions>
          <ns3:TrackPointExtension>
            <ns3:hr>93</ns3:hr>
            <ns3:cad>0</ns3:cad>
          </ns3:TrackPointExtension>
        </extensions>
      </trkpt>
      <trkpt lat="37.75678239762783050537109375" lon="-107.7074368111789226531982421875">
        <ele>3551.39990234375</ele>
        <time>2023-07-29T18:01:20.000Z</time>
        <extensions>
          <ns3:TrackPointExtension>
            <ns3:hr>93</ns3:hr>
            <ns3:cad>0</ns3:cad>
          </ns3:TrackPointExtension>
        </extensions>
      </trkpt>
      <trkpt lat="37.7567815594375133514404296875" lon="-107.707435972988605499267578125">
        <ele>3551.199951171875</ele>
        <time>2023-07-29T18:01:21.000Z</time>
        <extensions>
          <ns3:TrackPointExtension>
            <ns3:hr>93</ns3:hr>
            <ns3:cad>0</ns3:cad>
          </ns3:TrackPointExtension>
        </extensions>
      </trkpt>
      <trkpt lat="37.7567731775343418121337890625" lon="-107.70743438042700290679931640625">
        <ele>3551.199951171875</ele>
        <time>2023-07-29T18:01:22.000Z</time>
        <extensions>
          <ns3:TrackPointExtension>
            <ns3:hr>93</ns3:hr>
            <ns3:cad>0</ns3:cad>
          </ns3:TrackPointExtension>
        </extensions>
      </trkpt>
      <trkpt lat="37.756767980754375457763671875" lon="-107.707432620227336883544921875">
        <ele>3551</ele>
        <time>2023-07-29T18:01:23.000Z</time>
        <extensions>
          <ns3:TrackPointExtension>
            <ns3:hr>93</ns3:hr>
            <ns3:cad>61</ns3:cad>
          </ns3:TrackPointExtension>
        </extensions>
      </trkpt>
      <trkpt lat="37.7567594312131404876708984375" lon="-107.70743421278893947601318359375">
        <ele>3550.60009765625</ele>
        <time>2023-07-29T18:01:24.000Z</time>
        <extensions>
          <ns3:TrackPointExtension>
            <ns3:hr>93</ns3:hr>
            <ns3:cad>61</ns3:cad>
          </ns3:TrackPointExtension>
        </extensions>
      </trkpt>
      <trkpt lat="37.7567564137279987335205078125" lon="-107.7074324525892734527587890625">
        <ele>3550.39990234375</ele>
        <time>2023-07-29T18:01:25.000Z</time>
        <extensions>
          <ns3:TrackPointExtension>
            <ns3:hr>93</ns3:hr>
            <ns3:cad>61</ns3:cad>
          </ns3:TrackPointExtension>
        </extensions>
      </trkpt>
      <trkpt lat="37.75674752891063690185546875" lon="-107.70743035711348056793212890625">
        <ele>3550.199951171875</ele>
        <time>2023-07-29T18:01:26.000Z</time>
        <extensions>
          <ns3:TrackPointExtension>
            <ns3:hr>93</ns3:hr>
            <ns3:cad>61</ns3:cad>
          </ns3:TrackPointExtension>
        </extensions>
      </trkpt>
      <trkpt lat="37.75674350559711456298828125" lon="-107.7074274234473705291748046875">
        <ele>3550.199951171875</ele>
        <time>2023-07-29T18:01:27.000Z</time>
        <extensions>
          <ns3:TrackPointExtension>
            <ns3:hr>93</ns3:hr>
            <ns3:cad>61</ns3:cad>
          </ns3:TrackPointExtension>
        </extensions>
      </trkpt>
      <trkpt lat="37.75674057193100452423095703125" lon="-107.70742130465805530548095703125">
        <ele>3549.800048828125</ele>
        <time>2023-07-29T18:01:28.000Z</time>
        <extensions>
          <ns3:TrackPointExtension>
            <ns3:hr>93</ns3:hr>
            <ns3:cad>61</ns3:cad>
          </ns3:TrackPointExtension>
        </extensions>
      </trkpt>
      <trkpt lat="37.75673411786556243896484375" lon="-107.70741619169712066650390625">
        <ele>3549.800048828125</ele>
        <time>2023-07-29T18:01:29.000Z</time>
        <extensions>
          <ns3:TrackPointExtension>
            <ns3:hr>93</ns3:hr>
            <ns3:cad>64</ns3:cad>
          </ns3:TrackPointExtension>
        </extensions>
      </trkpt>
      <trkpt lat="37.75672850199043750762939453125" lon="-107.7074099890887737274169921875">
        <ele>3549.60009765625</ele>
        <time>2023-07-29T18:01:30.000Z</time>
        <extensions>
          <ns3:TrackPointExtension>
            <ns3:hr>92</ns3:hr>
            <ns3:cad>64</ns3:cad>
          </ns3:TrackPointExtension>
        </extensions>
      </trkpt>
      <trkpt lat="37.75672615505754947662353515625" lon="-107.7074022777378559112548828125">
        <ele>3549.39990234375</ele>
        <time>2023-07-29T18:01:31.000Z</time>
        <extensions>
          <ns3:TrackPointExtension>
            <ns3:hr>92</ns3:hr>
            <ns3:cad>64</ns3:cad>
          </ns3:TrackPointExtension>
        </extensions>
      </trkpt>
      <trkpt lat="37.75671894662082195281982421875" lon="-107.70739364437758922576904296875">
        <ele>3549.199951171875</ele>
        <time>2023-07-29T18:01:32.000Z</time>
        <extensions>
          <ns3:TrackPointExtension>
            <ns3:hr>92</ns3:hr>
            <ns3:cad>64</ns3:cad>
          </ns3:TrackPointExtension>
        </extensions>
      </trkpt>
      <trkpt lat="37.75671073235571384429931640625" lon="-107.70738777704536914825439453125">
        <ele>3549</ele>
        <time>2023-07-29T18:01:33.000Z</time>
        <extensions>
          <ns3:TrackPointExtension>
            <ns3:hr>92</ns3:hr>
            <ns3:cad>64</ns3:cad>
          </ns3:TrackPointExtension>
        </extensions>
      </trkpt>
      <trkpt lat="37.75670235045254230499267578125" lon="-107.70738073624670505523681640625">
        <ele>3548.800048828125</ele>
        <time>2023-07-29T18:01:34.000Z</time>
        <extensions>
          <ns3:TrackPointExtension>
            <ns3:hr>92</ns3:hr>
            <ns3:cad>57</ns3:cad>
          </ns3:TrackPointExtension>
        </extensions>
      </trkpt>
      <trkpt lat="37.75669346563518047332763671875" lon="-107.70737537182867527008056640625">
        <ele>3548.60009765625</ele>
        <time>2023-07-29T18:01:35.000Z</time>
        <extensions>
          <ns3:TrackPointExtension>
            <ns3:hr>92</ns3:hr>
            <ns3:cad>57</ns3:cad>
          </ns3:TrackPointExtension>
        </extensions>
      </trkpt>
      <trkpt lat="37.7566896937787532806396484375" lon="-107.70737235434353351593017578125">
        <ele>3548.39990234375</ele>
        <time>2023-07-29T18:01:36.000Z</time>
        <extensions>
          <ns3:TrackPointExtension>
            <ns3:hr>91</ns3:hr>
            <ns3:cad>57</ns3:cad>
          </ns3:TrackPointExtension>
        </extensions>
      </trkpt>
      <trkpt lat="37.756681144237518310546875" lon="-107.70736648701131343841552734375">
        <ele>3548.199951171875</ele>
        <time>2023-07-29T18:01:37.000Z</time>
        <extensions>
          <ns3:TrackPointExtension>
            <ns3:hr>91</ns3:hr>
            <ns3:cad>0</ns3:cad>
          </ns3:TrackPointExtension>
        </extensions>
      </trkpt>
      <trkpt lat="37.7566799707710742950439453125" lon="-107.70736078731715679168701171875">
        <ele>3548</ele>
        <time>2023-07-29T18:01:38.000Z</time>
        <extensions>
          <ns3:TrackPointExtension>
            <ns3:hr>91</ns3:hr>
            <ns3:cad>0</ns3:cad>
          </ns3:TrackPointExtension>
        </extensions>
      </trkpt>
      <trkpt lat="37.75667519308626651763916015625" lon="-107.70735877566039562225341796875">
        <ele>3547.800048828125</ele>
        <time>2023-07-29T18:01:39.000Z</time>
        <extensions>
          <ns3:TrackPointExtension>
            <ns3:hr>91</ns3:hr>
            <ns3:cad>0</ns3:cad>
          </ns3:TrackPointExtension>
        </extensions>
      </trkpt>
      <trkpt lat="37.75666764937341213226318359375" lon="-107.70735726691782474517822265625">
        <ele>3547.39990234375</ele>
        <time>2023-07-29T18:01:40.000Z</time>
        <extensions>
          <ns3:TrackPointExtension>
            <ns3:hr>91</ns3:hr>
            <ns3:cad>0</ns3:cad>
          </ns3:TrackPointExtension>
        </extensions>
      </trkpt>
      <trkpt lat="37.75665809400379657745361328125" lon="-107.70735424943268299102783203125">
        <ele>3547</ele>
        <time>2023-07-29T18:01:41.000Z</time>
        <extensions>
          <ns3:TrackPointExtension>
            <ns3:hr>91</ns3:hr>
            <ns3:cad>0</ns3:cad>
          </ns3:TrackPointExtension>
        </extensions>
      </trkpt>
      <trkpt lat="37.7566474489867687225341796875" lon="-107.70735584199428558349609375">
        <ele>3546.800048828125</ele>
        <time>2023-07-29T18:01:42.000Z</time>
        <extensions>
          <ns3:TrackPointExtension>
            <ns3:hr>91</ns3:hr>
            <ns3:cad>0</ns3:cad>
          </ns3:TrackPointExtension>
        </extensions>
      </trkpt>
      <trkpt lat="37.75663512758910655975341796875" lon="-107.70735810510814189910888671875">
        <ele>3546.60009765625</ele>
        <time>2023-07-29T18:01:43.000Z</time>
        <extensions>
          <ns3:TrackPointExtension>
            <ns3:hr>91</ns3:hr>
            <ns3:cad>0</ns3:cad>
          </ns3:TrackPointExtension>
        </extensions>
      </trkpt>
      <trkpt lat="37.75662372820079326629638671875" lon="-107.70735852420330047607421875">
        <ele>3546.199951171875</ele>
        <time>2023-07-29T18:01:44.000Z</time>
        <extensions>
          <ns3:TrackPointExtension>
            <ns3:hr>91</ns3:hr>
            <ns3:cad>0</ns3:cad>
          </ns3:TrackPointExtension>
        </extensions>
      </trkpt>
      <trkpt lat="37.7566139213740825653076171875" lon="-107.7073590271174907684326171875">
        <ele>3546.199951171875</ele>
        <time>2023-07-29T18:01:45.000Z</time>
        <extensions>
          <ns3:TrackPointExtension>
            <ns3:hr>91</ns3:hr>
            <ns3:cad>0</ns3:cad>
          </ns3:TrackPointExtension>
        </extensions>
      </trkpt>
      <trkpt lat="37.75660000741481781005859375" lon="-107.70735743455588817596435546875">
        <ele>3546</ele>
        <time>2023-07-29T18:01:46.000Z</time>
        <extensions>
          <ns3:TrackPointExtension>
            <ns3:hr>91</ns3:hr>
            <ns3:cad>0</ns3:cad>
          </ns3:TrackPointExtension>
        </extensions>
      </trkpt>
      <trkpt lat="37.75658768601715564727783203125" lon="-107.7073524892330169677734375">
        <ele>3545.800048828125</ele>
        <time>2023-07-29T18:01:47.000Z</time>
        <extensions>
          <ns3:TrackPointExtension>
            <ns3:hr>91</ns3:hr>
            <ns3:cad>0</ns3:cad>
          </ns3:TrackPointExtension>
        </extensions>
      </trkpt>
      <trkpt lat="37.7565850876271724700927734375" lon="-107.70735139958560466766357421875">
        <ele>3545.39990234375</ele>
        <time>2023-07-29T18:01:48.000Z</time>
        <extensions>
          <ns3:TrackPointExtension>
            <ns3:hr>91</ns3:hr>
            <ns3:cad>0</ns3:cad>
          </ns3:TrackPointExtension>
        </extensions>
      </trkpt>
      <trkpt lat="37.756584919989109039306640625" lon="-107.70734637044370174407958984375">
        <ele>3545.199951171875</ele>
        <time>2023-07-29T18:01:49.000Z</time>
        <extensions>
          <ns3:TrackPointExtension>
            <ns3:hr>91</ns3:hr>
            <ns3:cad>0</ns3:cad>
          </ns3:TrackPointExtension>
        </extensions>
      </trkpt>
      <trkpt lat="37.7565859258174896240234375" lon="-107.7073402516543865203857421875">
        <ele>3545</ele>
        <time>2023-07-29T18:01:50.000Z</time>
        <extensions>
          <ns3:TrackPointExtension>
            <ns3:hr>91</ns3:hr>
            <ns3:cad>0</ns3:cad>
          </ns3:TrackPointExtension>
        </extensions>
      </trkpt>
      <trkpt lat="37.7565850876271724700927734375" lon="-107.70733446814119815826416015625">
        <ele>3544.800048828125</ele>
        <time>2023-07-29T18:01:51.000Z</time>
        <extensions>
          <ns3:TrackPointExtension>
            <ns3:hr>91</ns3:hr>
            <ns3:cad>0</ns3:cad>
          </ns3:TrackPointExtension>
        </extensions>
      </trkpt>
      <trkpt lat="37.75658383034169673919677734375" lon="-107.7073265053331851959228515625">
        <ele>3544.60009765625</ele>
        <time>2023-07-29T18:01:52.000Z</time>
        <extensions>
          <ns3:TrackPointExtension>
            <ns3:hr>91</ns3:hr>
            <ns3:cad>0</ns3:cad>
          </ns3:TrackPointExtension>
        </extensions>
      </trkpt>
      <trkpt lat="37.75658450089395046234130859375" lon="-107.7073234878480434417724609375">
        <ele>3544.39990234375</ele>
        <time>2023-07-29T18:01:53.000Z</time>
        <extensions>
          <ns3:TrackPointExtension>
            <ns3:hr>91</ns3:hr>
            <ns3:cad>0</ns3:cad>
          </ns3:TrackPointExtension>
        </extensions>
      </trkpt>
      <trkpt lat="37.756580896675586700439453125" lon="-107.7073201350867748260498046875">
        <ele>3544.199951171875</ele>
        <time>2023-07-29T18:01:54.000Z</time>
        <extensions>
          <ns3:TrackPointExtension>
            <ns3:hr>90</ns3:hr>
            <ns3:cad>0</ns3:cad>
          </ns3:TrackPointExtension>
        </extensions>
      </trkpt>
      <trkpt lat="37.7565780468285083770751953125" lon="-107.70732021890580654144287109375">
        <ele>3543.800048828125</ele>
        <time>2023-07-29T18:01:55.000Z</time>
        <extensions>
          <ns3:TrackPointExtension>
            <ns3:hr>90</ns3:hr>
            <ns3:cad>0</ns3:cad>
          </ns3:TrackPointExtension>
        </extensions>
      </trkpt>
      <trkpt lat="37.7565778791904449462890625" lon="-107.7073191292583942413330078125">
        <ele>3543.60009765625</ele>
        <time>2023-07-29T18:01:56.000Z</time>
        <extensions>
          <ns3:TrackPointExtension>
            <ns3:hr>90</ns3:hr>
            <ns3:cad>0</ns3:cad>
          </ns3:TrackPointExtension>
        </extensions>
      </trkpt>
      <trkpt lat="37.756570838391780853271484375" lon="-107.70731569267809391021728515625">
        <ele>3543.39990234375</ele>
        <time>2023-07-29T18:01:57.000Z</time>
        <extensions>
          <ns3:TrackPointExtension>
            <ns3:hr>90</ns3:hr>
            <ns3:cad>0</ns3:cad>
          </ns3:TrackPointExtension>
        </extensions>
      </trkpt>
      <trkpt lat="37.756564803421497344970703125" lon="-107.70731066353619098663330078125">
        <ele>3543.199951171875</ele>
        <time>2023-07-29T18:01:58.000Z</time>
        <extensions>
          <ns3:TrackPointExtension>
            <ns3:hr>90</ns3:hr>
            <ns3:cad>0</ns3:cad>
          </ns3:TrackPointExtension>
        </extensions>
      </trkpt>
      <trkpt lat="37.75655734352767467498779296875" lon="-107.707304544746875762939453125">
        <ele>3543</ele>
        <time>2023-07-29T18:01:59.000Z</time>
        <extensions>
          <ns3:TrackPointExtension>
            <ns3:hr>91</ns3:hr>
            <ns3:cad>0</ns3:cad>
          </ns3:TrackPointExtension>
        </extensions>
      </trkpt>
      <trkpt lat="37.75655399076640605926513671875" lon="-107.7073020301759243011474609375">
        <ele>3543</ele>
        <time>2023-07-29T18:02:00.000Z</time>
        <extensions>
          <ns3:TrackPointExtension>
            <ns3:hr>91</ns3:hr>
            <ns3:cad>0</ns3:cad>
          </ns3:TrackPointExtension>
        </extensions>
      </trkpt>
      <trkpt lat="37.7565425075590610504150390625" lon="-107.7072986774146556854248046875">
        <ele>3542.800048828125</ele>
        <time>2023-07-29T18:02:01.000Z</time>
        <extensions>
          <ns3:TrackPointExtension>
            <ns3:hr>92</ns3:hr>
            <ns3:cad>0</ns3:cad>
          </ns3:TrackPointExtension>
        </extensions>
      </trkpt>
      <trkpt lat="37.75654099881649017333984375" lon="-107.7072993479669094085693359375">
        <ele>3542.60009765625</ele>
        <time>2023-07-29T18:02:02.000Z</time>
        <extensions>
          <ns3:TrackPointExtension>
            <ns3:hr>92</ns3:hr>
            <ns3:cad>64</ns3:cad>
          </ns3:TrackPointExtension>
        </extensions>
      </trkpt>
      <trkpt lat="37.756535299122333526611328125" lon="-107.7072986774146556854248046875">
        <ele>3542.39990234375</ele>
        <time>2023-07-29T18:02:03.000Z</time>
        <extensions>
          <ns3:TrackPointExtension>
            <ns3:hr>92</ns3:hr>
            <ns3:cad>64</ns3:cad>
          </ns3:TrackPointExtension>
        </extensions>
      </trkpt>
      <trkpt lat="37.756534628570079803466796875" lon="-107.7073010243475437164306640625">
        <ele>3542.199951171875</ele>
        <time>2023-07-29T18:02:04.000Z</time>
        <extensions>
          <ns3:TrackPointExtension>
            <ns3:hr>91</ns3:hr>
            <ns3:cad>61</ns3:cad>
          </ns3:TrackPointExtension>
        </extensions>
      </trkpt>
      <trkpt lat="37.7565269172191619873046875" lon="-107.70729876123368740081787109375">
        <ele>3542</ele>
        <time>2023-07-29T18:02:05.000Z</time>
        <extensions>
          <ns3:TrackPointExtension>
            <ns3:hr>90</ns3:hr>
            <ns3:cad>61</ns3:cad>
          </ns3:TrackPointExtension>
        </extensions>
      </trkpt>
      <trkpt lat="37.7565103210508823394775390625" lon="-107.70729373209178447723388671875">
        <ele>3541.800048828125</ele>
        <time>2023-07-29T18:02:06.000Z</time>
        <extensions>
          <ns3:TrackPointExtension>
            <ns3:hr>90</ns3:hr>
            <ns3:cad>61</ns3:cad>
          </ns3:TrackPointExtension>
        </extensions>
      </trkpt>
      <trkpt lat="37.756495736539363861083984375" lon="-107.70729004405438899993896484375">
        <ele>3541.39990234375</ele>
        <time>2023-07-29T18:02:07.000Z</time>
        <extensions>
          <ns3:TrackPointExtension>
            <ns3:hr>89</ns3:hr>
            <ns3:cad>60</ns3:cad>
          </ns3:TrackPointExtension>
        </extensions>
      </trkpt>
      <trkpt lat="37.75648676790297031402587890625" lon="-107.7072862721979618072509765625">
        <ele>3541.199951171875</ele>
        <time>2023-07-29T18:02:08.000Z</time>
        <extensions>
          <ns3:TrackPointExtension>
            <ns3:hr>87</ns3:hr>
            <ns3:cad>60</ns3:cad>
          </ns3:TrackPointExtension>
        </extensions>
      </trkpt>
      <trkpt lat="37.75647394359111785888671875" lon="-107.70728099159896373748779296875">
        <ele>3541.199951171875</ele>
        <time>2023-07-29T18:02:09.000Z</time>
        <extensions>
          <ns3:TrackPointExtension>
            <ns3:hr>86</ns3:hr>
            <ns3:cad>61</ns3:cad>
          </ns3:TrackPointExtension>
        </extensions>
      </trkpt>
      <trkpt lat="37.75646053254604339599609375" lon="-107.707275040447711944580078125">
        <ele>3541</ele>
        <time>2023-07-29T18:02:10.000Z</time>
        <extensions>
          <ns3:TrackPointExtension>
            <ns3:hr>86</ns3:hr>
            <ns3:cad>62</ns3:cad>
          </ns3:TrackPointExtension>
        </extensions>
      </trkpt>
      <trkpt lat="37.75643580593168735504150390625" lon="-107.70726875402033329010009765625">
        <ele>3540.800048828125</ele>
        <time>2023-07-29T18:02:11.000Z</time>
        <extensions>
          <ns3:TrackPointExtension>
            <ns3:hr>86</ns3:hr>
            <ns3:cad>62</ns3:cad>
          </ns3:TrackPointExtension>
        </extensions>
      </trkpt>
      <trkpt lat="37.7564244903624057769775390625" lon="-107.7072621323168277740478515625">
        <ele>3540.39990234375</ele>
        <time>2023-07-29T18:02:12.000Z</time>
        <extensions>
          <ns3:TrackPointExtension>
            <ns3:hr>87</ns3:hr>
            <ns3:cad>62</ns3:cad>
          </ns3:TrackPointExtension>
        </extensions>
      </trkpt>
      <trkpt lat="37.75640680454671382904052734375" lon="-107.70725131966173648834228515625">
        <ele>3540.39990234375</ele>
        <time>2023-07-29T18:02:13.000Z</time>
        <extensions>
          <ns3:TrackPointExtension>
            <ns3:hr>87</ns3:hr>
            <ns3:cad>62</ns3:cad>
          </ns3:TrackPointExtension>
        </extensions>
      </trkpt>
      <trkpt lat="37.75639708153903484344482421875" lon="-107.7072483859956264495849609375">
        <ele>3540.199951171875</ele>
        <time>2023-07-29T18:02:14.000Z</time>
        <extensions>
          <ns3:TrackPointExtension>
            <ns3:hr>88</ns3:hr>
            <ns3:cad>0</ns3:cad>
          </ns3:TrackPointExtension>
        </extensions>
      </trkpt>
      <trkpt lat="37.75638367049396038055419921875" lon="-107.70724721252918243408203125">
        <ele>3540</ele>
        <time>2023-07-29T18:02:15.000Z</time>
        <extensions>
          <ns3:TrackPointExtension>
            <ns3:hr>88</ns3:hr>
            <ns3:cad>0</ns3:cad>
          </ns3:TrackPointExtension>
        </extensions>
      </trkpt>
      <trkpt lat="37.75637461803853511810302734375" lon="-107.70724595524370670318603515625">
        <ele>3539.60009765625</ele>
        <time>2023-07-29T18:02:16.000Z</time>
        <extensions>
          <ns3:TrackPointExtension>
            <ns3:hr>87</ns3:hr>
            <ns3:cad>58</ns3:cad>
          </ns3:TrackPointExtension>
        </extensions>
      </trkpt>
      <trkpt lat="37.756366319954395294189453125" lon="-107.70724277012050151824951171875">
        <ele>3539.39990234375</ele>
        <time>2023-07-29T18:02:17.000Z</time>
        <extensions>
          <ns3:TrackPointExtension>
            <ns3:hr>88</ns3:hr>
            <ns3:cad>58</ns3:cad>
          </ns3:TrackPointExtension>
        </extensions>
      </trkpt>
      <trkpt lat="37.75635165162384510040283203125" lon="-107.70724587142467498779296875">
        <ele>3539.199951171875</ele>
        <time>2023-07-29T18:02:18.000Z</time>
        <extensions>
          <ns3:TrackPointExtension>
            <ns3:hr>88</ns3:hr>
            <ns3:cad>58</ns3:cad>
          </ns3:TrackPointExtension>
        </extensions>
      </trkpt>
      <trkpt lat="37.75633723475039005279541015625" lon="-107.7072423510253429412841796875">
        <ele>3539</ele>
        <time>2023-07-29T18:02:19.000Z</time>
        <extensions>
          <ns3:TrackPointExtension>
            <ns3:hr>88</ns3:hr>
            <ns3:cad>58</ns3:cad>
          </ns3:TrackPointExtension>
        </extensions>
      </trkpt>
      <trkpt lat="37.75632776319980621337890625" lon="-107.707243859767913818359375">
        <ele>3538.800048828125</ele>
        <time>2023-07-29T18:02:20.000Z</time>
        <extensions>
          <ns3:TrackPointExtension>
            <ns3:hr>88</ns3:hr>
            <ns3:cad>58</ns3:cad>
          </ns3:TrackPointExtension>
        </extensions>
      </trkpt>
      <trkpt lat="37.7563225664198398590087890625" lon="-107.7072443626821041107177734375">
        <ele>3538.60009765625</ele>
        <time>2023-07-29T18:02:21.000Z</time>
        <extensions>
          <ns3:TrackPointExtension>
            <ns3:hr>88</ns3:hr>
            <ns3:cad>58</ns3:cad>
          </ns3:TrackPointExtension>
        </extensions>
      </trkpt>
      <trkpt lat="37.75631879456341266632080078125" lon="-107.7072436921298503875732421875">
        <ele>3538.60009765625</ele>
        <time>2023-07-29T18:02:22.000Z</time>
        <extensions>
          <ns3:TrackPointExtension>
            <ns3:hr>88</ns3:hr>
            <ns3:cad>58</ns3:cad>
          </ns3:TrackPointExtension>
        </extensions>
      </trkpt>
      <trkpt lat="37.7563165314495563507080078125" lon="-107.70724008791148662567138671875">
        <ele>3538.39990234375</ele>
        <time>2023-07-29T18:02:23.000Z</time>
        <extensions>
          <ns3:TrackPointExtension>
            <ns3:hr>88</ns3:hr>
            <ns3:cad>58</ns3:cad>
          </ns3:TrackPointExtension>
        </extensions>
      </trkpt>
      <trkpt lat="37.756305970251560211181640625" lon="-107.707240842282772064208984375">
        <ele>3538.39990234375</ele>
        <time>2023-07-29T18:02:24.000Z</time>
        <extensions>
          <ns3:TrackPointExtension>
            <ns3:hr>89</ns3:hr>
            <ns3:cad>58</ns3:cad>
          </ns3:TrackPointExtension>
        </extensions>
      </trkpt>
      <trkpt lat="37.75630152784287929534912109375" lon="-107.70724050700664520263671875">
        <ele>3538.39990234375</ele>
        <time>2023-07-29T18:02:25.000Z</time>
        <extensions>
          <ns3:TrackPointExtension>
            <ns3:hr>89</ns3:hr>
            <ns3:cad>56</ns3:cad>
          </ns3:TrackPointExtension>
        </extensions>
      </trkpt>
      <trkpt lat="37.75629230774939060211181640625" lon="-107.70724092610180377960205078125">
        <ele>3538.199951171875</ele>
        <time>2023-07-29T18:02:26.000Z</time>
        <extensions>
          <ns3:TrackPointExtension>
            <ns3:hr>89</ns3:hr>
            <ns3:cad>56</ns3:cad>
          </ns3:TrackPointExtension>
        </extensions>
      </trkpt>
      <trkpt lat="37.75628107599914073944091796875" lon="-107.7072453685104846954345703125">
        <ele>3538.199951171875</ele>
        <time>2023-07-29T18:02:27.000Z</time>
        <extensions>
          <ns3:TrackPointExtension>
            <ns3:hr>89</ns3:hr>
            <ns3:cad>56</ns3:cad>
          </ns3:TrackPointExtension>
        </extensions>
      </trkpt>
      <trkpt lat="37.75626380927860736846923828125" lon="-107.7072540856897830963134765625">
        <ele>3538</ele>
        <time>2023-07-29T18:02:28.000Z</time>
        <extensions>
          <ns3:TrackPointExtension>
            <ns3:hr>89</ns3:hr>
            <ns3:cad>55</ns3:cad>
          </ns3:TrackPointExtension>
        </extensions>
      </trkpt>
      <trkpt lat="37.75624201633036136627197265625" lon="-107.70725970156490802764892578125">
        <ele>3537.800048828125</ele>
        <time>2023-07-29T18:02:29.000Z</time>
        <extensions>
          <ns3:TrackPointExtension>
            <ns3:hr>89</ns3:hr>
            <ns3:cad>55</ns3:cad>
          </ns3:TrackPointExtension>
        </extensions>
      </trkpt>
      <trkpt lat="37.756224833428859710693359375" lon="-107.7072591148316860198974609375">
        <ele>3537.800048828125</ele>
        <time>2023-07-29T18:02:30.000Z</time>
        <extensions>
          <ns3:TrackPointExtension>
            <ns3:hr>89</ns3:hr>
            <ns3:cad>55</ns3:cad>
          </ns3:TrackPointExtension>
        </extensions>
      </trkpt>
      <trkpt lat="37.75621133856475353240966796875" lon="-107.707258947193622589111328125">
        <ele>3537.800048828125</ele>
        <time>2023-07-29T18:02:31.000Z</time>
        <extensions>
          <ns3:TrackPointExtension>
            <ns3:hr>89</ns3:hr>
            <ns3:cad>55</ns3:cad>
          </ns3:TrackPointExtension>
        </extensions>
      </trkpt>
      <trkpt lat="37.75619004853069782257080078125" lon="-107.70725660026073455810546875">
        <ele>3537.60009765625</ele>
        <time>2023-07-29T18:02:32.000Z</time>
        <extensions>
          <ns3:TrackPointExtension>
            <ns3:hr>89</ns3:hr>
            <ns3:cad>55</ns3:cad>
          </ns3:TrackPointExtension>
        </extensions>
      </trkpt>
      <trkpt lat="37.756175212562084197998046875" lon="-107.70725282840430736541748046875">
        <ele>3537.60009765625</ele>
        <time>2023-07-29T18:02:33.000Z</time>
        <extensions>
          <ns3:TrackPointExtension>
            <ns3:hr>90</ns3:hr>
            <ns3:cad>55</ns3:cad>
          </ns3:TrackPointExtension>
        </extensions>
      </trkpt>
      <trkpt lat="37.7561592869460582733154296875" lon="-107.70724662579596042633056640625">
        <ele>3537.60009765625</ele>
        <time>2023-07-29T18:02:34.000Z</time>
        <extensions>
          <ns3:TrackPointExtension>
            <ns3:hr>90</ns3:hr>
            <ns3:cad>55</ns3:cad>
          </ns3:TrackPointExtension>
        </extensions>
      </trkpt>
      <trkpt lat="37.75614646263420581817626953125" lon="-107.70724059082567691802978515625">
        <ele>3537.39990234375</ele>
        <time>2023-07-29T18:02:35.000Z</time>
        <extensions>
          <ns3:TrackPointExtension>
            <ns3:hr>91</ns3:hr>
            <ns3:cad>55</ns3:cad>
          </ns3:TrackPointExtension>
        </extensions>
      </trkpt>
      <trkpt lat="37.75613355450332164764404296875" lon="-107.70723522640764713287353515625">
        <ele>3537.199951171875</ele>
        <time>2023-07-29T18:02:36.000Z</time>
        <extensions>
          <ns3:TrackPointExtension>
            <ns3:hr>91</ns3:hr>
            <ns3:cad>61</ns3:cad>
          </ns3:TrackPointExtension>
        </extensions>
      </trkpt>
      <trkpt lat="37.756129615008831024169921875" lon="-107.707230783998966217041015625">
        <ele>3537</ele>
        <time>2023-07-29T18:02:37.000Z</time>
        <extensions>
          <ns3:TrackPointExtension>
            <ns3:hr>91</ns3:hr>
            <ns3:cad>61</ns3:cad>
          </ns3:TrackPointExtension>
        </extensions>
      </trkpt>
      <trkpt lat="37.756130956113338470458984375" lon="-107.7072275988757610321044921875">
        <ele>3536.800048828125</ele>
        <time>2023-07-29T18:02:38.000Z</time>
        <extensions>
          <ns3:TrackPointExtension>
            <ns3:hr>91</ns3:hr>
            <ns3:cad>61</ns3:cad>
          </ns3:TrackPointExtension>
        </extensions>
      </trkpt>
      <trkpt lat="37.7561260946094989776611328125" lon="-107.70721712149679660797119140625">
        <ele>3536.39990234375</ele>
        <time>2023-07-29T18:02:39.000Z</time>
        <extensions>
          <ns3:TrackPointExtension>
            <ns3:hr>91</ns3:hr>
            <ns3:cad>61</ns3:cad>
          </ns3:TrackPointExtension>
        </extensions>
      </trkpt>
      <trkpt lat="37.75611964054405689239501953125" lon="-107.70720941014587879180908203125">
        <ele>3536.199951171875</ele>
        <time>2023-07-29T18:02:40.000Z</time>
        <extensions>
          <ns3:TrackPointExtension>
            <ns3:hr>91</ns3:hr>
            <ns3:cad>61</ns3:cad>
          </ns3:TrackPointExtension>
        </extensions>
      </trkpt>
      <trkpt lat="37.756110168993473052978515625" lon="-107.70719968713819980621337890625">
        <ele>3536.199951171875</ele>
        <time>2023-07-29T18:02:41.000Z</time>
        <extensions>
          <ns3:TrackPointExtension>
            <ns3:hr>91</ns3:hr>
            <ns3:cad>59</ns3:cad>
          </ns3:TrackPointExtension>
        </extensions>
      </trkpt>
      <trkpt lat="37.756095416843891143798828125" lon="-107.70718828774988651275634765625">
        <ele>3536</ele>
        <time>2023-07-29T18:02:42.000Z</time>
        <extensions>
          <ns3:TrackPointExtension>
            <ns3:hr>91</ns3:hr>
            <ns3:cad>59</ns3:cad>
          </ns3:TrackPointExtension>
        </extensions>
      </trkpt>
      <trkpt lat="37.7560912258923053741455078125" lon="-107.70718996413052082061767578125">
        <ele>3535.60009765625</ele>
        <time>2023-07-29T18:02:43.000Z</time>
        <extensions>
          <ns3:TrackPointExtension>
            <ns3:hr>91</ns3:hr>
            <ns3:cad>59</ns3:cad>
          </ns3:TrackPointExtension>
        </extensions>
      </trkpt>
      <trkpt lat="37.75608946569263935089111328125" lon="-107.7071910537779331207275390625">
        <ele>3535.60009765625</ele>
        <time>2023-07-29T18:02:44.000Z</time>
        <extensions>
          <ns3:TrackPointExtension>
            <ns3:hr>90</ns3:hr>
            <ns3:cad>56</ns3:cad>
          </ns3:TrackPointExtension>
        </extensions>
      </trkpt>
      <trkpt lat="37.7560875378549098968505859375" lon="-107.7071907185018062591552734375">
        <ele>3535.60009765625</ele>
        <time>2023-07-29T18:02:45.000Z</time>
        <extensions>
          <ns3:TrackPointExtension>
            <ns3:hr>90</ns3:hr>
            <ns3:cad>0</ns3:cad>
          </ns3:TrackPointExtension>
        </extensions>
      </trkpt>
      <trkpt lat="37.756075300276279449462890625" lon="-107.70717940293252468109130859375">
        <ele>3535.60009765625</ele>
        <time>2023-07-29T18:02:46.000Z</time>
        <extensions>
          <ns3:TrackPointExtension>
            <ns3:hr>89</ns3:hr>
            <ns3:cad>0</ns3:cad>
          </ns3:TrackPointExtension>
        </extensions>
      </trkpt>
      <trkpt lat="37.7560655772686004638671875" lon="-107.7071628905832767486572265625">
        <ele>3535.60009765625</ele>
        <time>2023-07-29T18:02:47.000Z</time>
        <extensions>
          <ns3:TrackPointExtension>
            <ns3:hr>88</ns3:hr>
            <ns3:cad>0</ns3:cad>
          </ns3:TrackPointExtension>
        </extensions>
      </trkpt>
      <trkpt lat="37.7560486458241939544677734375" lon="-107.70715040154755115509033203125">
        <ele>3535.60009765625</ele>
        <time>2023-07-29T18:02:48.000Z</time>
        <extensions>
          <ns3:TrackPointExtension>
            <ns3:hr>88</ns3:hr>
            <ns3:cad>0</ns3:cad>
          </ns3:TrackPointExtension>
        </extensions>
      </trkpt>
      <trkpt lat="37.7560365758836269378662109375" lon="-107.70714352838695049285888671875">
        <ele>3535.60009765625</ele>
        <time>2023-07-29T18:02:49.000Z</time>
        <extensions>
          <ns3:TrackPointExtension>
            <ns3:hr>87</ns3:hr>
            <ns3:cad>0</ns3:cad>
          </ns3:TrackPointExtension>
        </extensions>
      </trkpt>
      <trkpt lat="37.75602760724723339080810546875" lon="-107.70714486949145793914794921875">
        <ele>3535.60009765625</ele>
        <time>2023-07-29T18:02:50.000Z</time>
        <extensions>
          <ns3:TrackPointExtension>
            <ns3:hr>87</ns3:hr>
            <ns3:cad>0</ns3:cad>
          </ns3:TrackPointExtension>
        </extensions>
      </trkpt>
      <trkpt lat="37.7560141123831272125244140625" lon="-107.70714604295790195465087890625">
        <ele>3535.60009765625</ele>
        <time>2023-07-29T18:02:51.000Z</time>
        <extensions>
          <ns3:TrackPointExtension>
            <ns3:hr>87</ns3:hr>
            <ns3:cad>55</ns3:cad>
          </ns3:TrackPointExtension>
        </extensions>
      </trkpt>
      <trkpt lat="37.756002210080623626708984375" lon="-107.70714755170047283172607421875">
        <ele>3535.60009765625</ele>
        <time>2023-07-29T18:02:52.000Z</time>
        <extensions>
          <ns3:TrackPointExtension>
            <ns3:hr>87</ns3:hr>
            <ns3:cad>55</ns3:cad>
          </ns3:TrackPointExtension>
        </extensions>
      </trkpt>
      <trkpt lat="37.75598234497010707855224609375" lon="-107.70715123973786830902099609375">
        <ele>3535.800048828125</ele>
        <time>2023-07-29T18:02:53.000Z</time>
        <extensions>
          <ns3:TrackPointExtension>
            <ns3:hr>86</ns3:hr>
            <ns3:cad>47</ns3:cad>
          </ns3:TrackPointExtension>
        </extensions>
      </trkpt>
      <trkpt lat="37.75597496889531612396240234375" lon="-107.70715358667075634002685546875">
        <ele>3535.800048828125</ele>
        <time>2023-07-29T18:02:54.000Z</time>
        <extensions>
          <ns3:TrackPointExtension>
            <ns3:hr>87</ns3:hr>
            <ns3:cad>47</ns3:cad>
          </ns3:TrackPointExtension>
        </extensions>
      </trkpt>
      <trkpt lat="37.7559500746428966522216796875" lon="-107.7071504853665828704833984375">
        <ele>3535.800048828125</ele>
        <time>2023-07-29T18:02:55.000Z</time>
        <extensions>
          <ns3:TrackPointExtension>
            <ns3:hr>87</ns3:hr>
            <ns3:cad>47</ns3:cad>
          </ns3:TrackPointExtension>
        </extensions>
      </trkpt>
      <trkpt lat="37.7559343166649341583251953125" lon="-107.70715375430881977081298828125">
        <ele>3535.60009765625</ele>
        <time>2023-07-29T18:02:56.000Z</time>
        <extensions>
          <ns3:TrackPointExtension>
            <ns3:hr>87</ns3:hr>
            <ns3:cad>47</ns3:cad>
          </ns3:TrackPointExtension>
        </extensions>
      </trkpt>
      <trkpt lat="37.755921073257923126220703125" lon="-107.70715425722301006317138671875">
        <ele>3535.60009765625</ele>
        <time>2023-07-29T18:02:57.000Z</time>
        <extensions>
          <ns3:TrackPointExtension>
            <ns3:hr>87</ns3:hr>
            <ns3:cad>47</ns3:cad>
          </ns3:TrackPointExtension>
        </extensions>
      </trkpt>
      <trkpt lat="37.755911350250244140625" lon="-107.70715660415589809417724609375">
        <ele>3535.60009765625</ele>
        <time>2023-07-29T18:02:58.000Z</time>
        <extensions>
          <ns3:TrackPointExtension>
            <ns3:hr>87</ns3:hr>
            <ns3:cad>0</ns3:cad>
          </ns3:TrackPointExtension>
        </extensions>
      </trkpt>
      <trkpt lat="37.7558917365968227386474609375" lon="-107.7071585319936275482177734375">
        <ele>3535.60009765625</ele>
        <time>2023-07-29T18:02:59.000Z</time>
        <extensions>
          <ns3:TrackPointExtension>
            <ns3:hr>86</ns3:hr>
            <ns3:cad>0</ns3:cad>
          </ns3:TrackPointExtension>
        </extensions>
      </trkpt>
      <trkpt lat="37.75587849318981170654296875" lon="-107.7071593701839447021484375">
        <ele>3535.60009765625</ele>
        <time>2023-07-29T18:03:00.000Z</time>
        <extensions>
          <ns3:TrackPointExtension>
            <ns3:hr>86</ns3:hr>
            <ns3:cad>0</ns3:cad>
          </ns3:TrackPointExtension>
        </extensions>
      </trkpt>
      <trkpt lat="37.75586784817278385162353515625" lon="-107.70716180093586444854736328125">
        <ele>3535.60009765625</ele>
        <time>2023-07-29T18:03:01.000Z</time>
        <extensions>
          <ns3:TrackPointExtension>
            <ns3:hr>86</ns3:hr>
            <ns3:cad>0</ns3:cad>
          </ns3:TrackPointExtension>
        </extensions>
      </trkpt>
      <trkpt lat="37.75585359893739223480224609375" lon="-107.7071628905832767486572265625">
        <ele>3535.60009765625</ele>
        <time>2023-07-29T18:03:02.000Z</time>
        <extensions>
          <ns3:TrackPointExtension>
            <ns3:hr>86</ns3:hr>
            <ns3:cad>0</ns3:cad>
          </ns3:TrackPointExtension>
        </extensions>
      </trkpt>
      <trkpt lat="37.75583817623555660247802734375" lon="-107.7071635611355304718017578125">
        <ele>3535.800048828125</ele>
        <time>2023-07-29T18:03:03.000Z</time>
        <extensions>
          <ns3:TrackPointExtension>
            <ns3:hr>86</ns3:hr>
            <ns3:cad>0</ns3:cad>
          </ns3:TrackPointExtension>
        </extensions>
      </trkpt>
      <trkpt lat="37.7558122761547565460205078125" lon="-107.70716783590614795684814453125">
        <ele>3535.800048828125</ele>
        <time>2023-07-29T18:03:04.000Z</time>
        <extensions>
          <ns3:TrackPointExtension>
            <ns3:hr>86</ns3:hr>
            <ns3:cad>0</ns3:cad>
          </ns3:TrackPointExtension>
        </extensions>
      </trkpt>
      <trkpt lat="37.75580749846994876861572265625" lon="-107.70716750063002109527587890625">
        <ele>3535.800048828125</ele>
        <time>2023-07-29T18:03:05.000Z</time>
        <extensions>
          <ns3:TrackPointExtension>
            <ns3:hr>86</ns3:hr>
            <ns3:cad>0</ns3:cad>
          </ns3:TrackPointExtension>
        </extensions>
      </trkpt>
      <trkpt lat="37.75578863918781280517578125" lon="-107.70716766826808452606201171875">
        <ele>3536</ele>
        <time>2023-07-29T18:03:06.000Z</time>
        <extensions>
          <ns3:TrackPointExtension>
            <ns3:hr>85</ns3:hr>
            <ns3:cad>0</ns3:cad>
          </ns3:TrackPointExtension>
        </extensions>
      </trkpt>
      <trkpt lat="37.75578419677913188934326171875" lon="-107.70716314204037189483642578125">
        <ele>3536</ele>
        <time>2023-07-29T18:03:07.000Z</time>
        <extensions>
          <ns3:TrackPointExtension>
            <ns3:hr>86</ns3:hr>
            <ns3:cad>0</ns3:cad>
          </ns3:TrackPointExtension>
        </extensions>
      </trkpt>
      <trkpt lat="37.7557666786015033721923828125" lon="-107.70716272294521331787109375">
        <ele>3536</ele>
        <time>2023-07-29T18:03:08.000Z</time>
        <extensions>
          <ns3:TrackPointExtension>
            <ns3:hr>86</ns3:hr>
            <ns3:cad>0</ns3:cad>
          </ns3:TrackPointExtension>
        </extensions>
      </trkpt>
      <trkpt lat="37.75575821287930011749267578125" lon="-107.70716045983135700225830078125">
        <ele>3536</ele>
        <time>2023-07-29T18:03:09.000Z</time>
        <extensions>
          <ns3:TrackPointExtension>
            <ns3:hr>86</ns3:hr>
            <ns3:cad>0</ns3:cad>
          </ns3:TrackPointExtension>
        </extensions>
      </trkpt>
      <trkpt lat="37.75575133971869945526123046875" lon="-107.7071620523929595947265625">
        <ele>3536</ele>
        <time>2023-07-29T18:03:10.000Z</time>
        <extensions>
          <ns3:TrackPointExtension>
            <ns3:hr>86</ns3:hr>
            <ns3:cad>0</ns3:cad>
          </ns3:TrackPointExtension>
        </extensions>
      </trkpt>
      <trkpt lat="37.75574413128197193145751953125" lon="-107.707160376012325286865234375">
        <ele>3536</ele>
        <time>2023-07-29T18:03:11.000Z</time>
        <extensions>
          <ns3:TrackPointExtension>
            <ns3:hr>86</ns3:hr>
            <ns3:cad>0</ns3:cad>
          </ns3:TrackPointExtension>
        </extensions>
      </trkpt>
      <trkpt lat="37.75572854094207286834716796875" lon="-107.7071548439562320709228515625">
        <ele>3536</ele>
        <time>2023-07-29T18:03:12.000Z</time>
        <extensions>
          <ns3:TrackPointExtension>
            <ns3:hr>86</ns3:hr>
            <ns3:cad>0</ns3:cad>
          </ns3:TrackPointExtension>
        </extensions>
      </trkpt>
      <trkpt lat="37.75571831502020359039306640625" lon="-107.70715559832751750946044921875">
        <ele>3536</ele>
        <time>2023-07-29T18:03:13.000Z</time>
        <extensions>
          <ns3:TrackPointExtension>
            <ns3:hr>86</ns3:hr>
            <ns3:cad>0</ns3:cad>
          </ns3:TrackPointExtension>
        </extensions>
      </trkpt>
      <trkpt lat="37.755709849298000335693359375" lon="-107.70716004073619842529296875">
        <ele>3536</ele>
        <time>2023-07-29T18:03:14.000Z</time>
        <extensions>
          <ns3:TrackPointExtension>
            <ns3:hr>86</ns3:hr>
            <ns3:cad>0</ns3:cad>
          </ns3:TrackPointExtension>
        </extensions>
      </trkpt>
      <trkpt lat="37.755699455738067626953125" lon="-107.70716548897325992584228515625">
        <ele>3536</ele>
        <time>2023-07-29T18:03:15.000Z</time>
        <extensions>
          <ns3:TrackPointExtension>
            <ns3:hr>86</ns3:hr>
            <ns3:cad>0</ns3:cad>
          </ns3:TrackPointExtension>
        </extensions>
      </trkpt>
      <trkpt lat="37.755694091320037841796875" lon="-107.70717336796224117279052734375">
        <ele>3535.800048828125</ele>
        <time>2023-07-29T18:03:16.000Z</time>
        <extensions>
          <ns3:TrackPointExtension>
            <ns3:hr>87</ns3:hr>
            <ns3:cad>0</ns3:cad>
          </ns3:TrackPointExtension>
        </extensions>
      </trkpt>
      <trkpt lat="37.7556838653981685638427734375" lon="-107.7071813307702541351318359375">
        <ele>3535.800048828125</ele>
        <time>2023-07-29T18:03:17.000Z</time>
        <extensions>
          <ns3:TrackPointExtension>
            <ns3:hr>87</ns3:hr>
            <ns3:cad>0</ns3:cad>
          </ns3:TrackPointExtension>
        </extensions>
      </trkpt>
      <trkpt lat="37.75566902942955493927001953125" lon="-107.7071917243301868438720703125">
        <ele>3535.60009765625</ele>
        <time>2023-07-29T18:03:18.000Z</time>
        <extensions>
          <ns3:TrackPointExtension>
            <ns3:hr>89</ns3:hr>
            <ns3:cad>0</ns3:cad>
          </ns3:TrackPointExtension>
        </extensions>
      </trkpt>
      <trkpt lat="37.755660228431224822998046875" lon="-107.7071950770914554595947265625">
        <ele>3535.199951171875</ele>
        <time>2023-07-29T18:03:19.000Z</time>
        <extensions>
          <ns3:TrackPointExtension>
            <ns3:hr>89</ns3:hr>
            <ns3:cad>0</ns3:cad>
          </ns3:TrackPointExtension>
        </extensions>
      </trkpt>
      <trkpt lat="37.7556453086435794830322265625" lon="-107.70719935186207294464111328125">
        <ele>3534.800048828125</ele>
        <time>2023-07-29T18:03:20.000Z</time>
        <extensions>
          <ns3:TrackPointExtension>
            <ns3:hr>90</ns3:hr>
            <ns3:cad>0</ns3:cad>
          </ns3:TrackPointExtension>
        </extensions>
      </trkpt>
      <trkpt lat="37.75563734583556652069091796875" lon="-107.70719759166240692138671875">
        <ele>3534.39990234375</ele>
        <time>2023-07-29T18:03:21.000Z</time>
        <extensions>
          <ns3:TrackPointExtension>
            <ns3:hr>90</ns3:hr>
            <ns3:cad>0</ns3:cad>
          </ns3:TrackPointExtension>
        </extensions>
      </trkpt>
      <trkpt lat="37.755623348057270050048828125" lon="-107.70719599910080432891845703125">
        <ele>3534.199951171875</ele>
        <time>2023-07-29T18:03:22.000Z</time>
        <extensions>
          <ns3:TrackPointExtension>
            <ns3:hr>91</ns3:hr>
            <ns3:cad>0</ns3:cad>
          </ns3:TrackPointExtension>
        </extensions>
      </trkpt>
      <trkpt lat="37.7556122839450836181640625" lon="-107.707193903625011444091796875">
        <ele>3534</ele>
        <time>2023-07-29T18:03:23.000Z</time>
        <extensions>
          <ns3:TrackPointExtension>
            <ns3:hr>91</ns3:hr>
            <ns3:cad>0</ns3:cad>
          </ns3:TrackPointExtension>
        </extensions>
      </trkpt>
      <trkpt lat="37.75559711270034313201904296875" lon="-107.70719130523502826690673828125">
        <ele>3533.800048828125</ele>
        <time>2023-07-29T18:03:24.000Z</time>
        <extensions>
          <ns3:TrackPointExtension>
            <ns3:hr>91</ns3:hr>
            <ns3:cad>0</ns3:cad>
          </ns3:TrackPointExtension>
        </extensions>
      </trkpt>
      <trkpt lat="37.75558252818882465362548828125" lon="-107.7071866951882839202880859375">
        <ele>3533.39990234375</ele>
        <time>2023-07-29T18:03:25.000Z</time>
        <extensions>
          <ns3:TrackPointExtension>
            <ns3:hr>91</ns3:hr>
            <ns3:cad>0</ns3:cad>
          </ns3:TrackPointExtension>
        </extensions>
      </trkpt>
      <trkpt lat="37.75556375272572040557861328125" lon="-107.7071830071508884429931640625">
        <ele>3533.199951171875</ele>
        <time>2023-07-29T18:03:26.000Z</time>
        <extensions>
          <ns3:TrackPointExtension>
            <ns3:hr>91</ns3:hr>
            <ns3:cad>0</ns3:cad>
          </ns3:TrackPointExtension>
        </extensions>
      </trkpt>
      <trkpt lat="37.75555671192705631256103515625" lon="-107.70718015730381011962890625">
        <ele>3533</ele>
        <time>2023-07-29T18:03:27.000Z</time>
        <extensions>
          <ns3:TrackPointExtension>
            <ns3:hr>91</ns3:hr>
            <ns3:cad>0</ns3:cad>
          </ns3:TrackPointExtension>
        </extensions>
      </trkpt>
      <trkpt lat="37.75553743354976177215576171875" lon="-107.7071729488670825958251953125">
        <ele>3533</ele>
        <time>2023-07-29T18:03:28.000Z</time>
        <extensions>
          <ns3:TrackPointExtension>
            <ns3:hr>92</ns3:hr>
            <ns3:cad>0</ns3:cad>
          </ns3:TrackPointExtension>
        </extensions>
      </trkpt>
      <trkpt lat="37.755524106323719024658203125" lon="-107.70716540515422821044921875">
        <ele>3532.800048828125</ele>
        <time>2023-07-29T18:03:29.000Z</time>
        <extensions>
          <ns3:TrackPointExtension>
            <ns3:hr>92</ns3:hr>
            <ns3:cad>0</ns3:cad>
          </ns3:TrackPointExtension>
        </extensions>
      </trkpt>
      <trkpt lat="37.755506671965122222900390625" lon="-107.70715543068945407867431640625">
        <ele>3532.60009765625</ele>
        <time>2023-07-29T18:03:30.000Z</time>
        <extensions>
          <ns3:TrackPointExtension>
            <ns3:hr>94</ns3:hr>
            <ns3:cad>0</ns3:cad>
          </ns3:TrackPointExtension>
        </extensions>
      </trkpt>
      <trkpt lat="37.7554987929761409759521484375" lon="-107.707147300243377685546875">
        <ele>3532.199951171875</ele>
        <time>2023-07-29T18:03:31.000Z</time>
        <extensions>
          <ns3:TrackPointExtension>
            <ns3:hr>95</ns3:hr>
            <ns3:cad>60</ns3:cad>
          </ns3:TrackPointExtension>
        </extensions>
      </trkpt>
      <trkpt lat="37.755482532083988189697265625" lon="-107.70713749341666698455810546875">
        <ele>3532.199951171875</ele>
        <time>2023-07-29T18:03:32.000Z</time>
        <extensions>
          <ns3:TrackPointExtension>
            <ns3:hr>95</ns3:hr>
            <ns3:cad>60</ns3:cad>
          </ns3:TrackPointExtension>
        </extensions>
      </trkpt>
      <trkpt lat="37.75548194535076618194580078125" lon="-107.70712944678962230682373046875">
        <ele>3532</ele>
        <time>2023-07-29T18:03:33.000Z</time>
        <extensions>
          <ns3:TrackPointExtension>
            <ns3:hr>94</ns3:hr>
            <ns3:cad>54</ns3:cad>
          </ns3:TrackPointExtension>
        </extensions>
      </trkpt>
      <trkpt lat="37.755470462143421173095703125" lon="-107.7071239985525608062744140625">
        <ele>3532</ele>
        <time>2023-07-29T18:03:34.000Z</time>
        <extensions>
          <ns3:TrackPointExtension>
            <ns3:hr>94</ns3:hr>
            <ns3:cad>0</ns3:cad>
          </ns3:TrackPointExtension>
        </extensions>
      </trkpt>
      <trkpt lat="37.7554619126021862030029296875" lon="-107.70712307654321193695068359375">
        <ele>3532</ele>
        <time>2023-07-29T18:03:35.000Z</time>
        <extensions>
          <ns3:TrackPointExtension>
            <ns3:hr>94</ns3:hr>
            <ns3:cad>0</ns3:cad>
          </ns3:TrackPointExtension>
        </extensions>
      </trkpt>
      <trkpt lat="37.75544070638716220855712890625" lon="-107.707120478153228759765625">
        <ele>3532</ele>
        <time>2023-07-29T18:03:36.000Z</time>
        <extensions>
          <ns3:TrackPointExtension>
            <ns3:hr>93</ns3:hr>
            <ns3:cad>0</ns3:cad>
          </ns3:TrackPointExtension>
        </extensions>
      </trkpt>
      <trkpt lat="37.75543014518916606903076171875" lon="-107.7071256749331951141357421875">
        <ele>3532</ele>
        <time>2023-07-29T18:03:37.000Z</time>
        <extensions>
          <ns3:TrackPointExtension>
            <ns3:hr>93</ns3:hr>
            <ns3:cad>0</ns3:cad>
          </ns3:TrackPointExtension>
        </extensions>
      </trkpt>
      <trkpt lat="37.75540935806930065155029296875" lon="-107.70713028497993946075439453125">
        <ele>3532</ele>
        <time>2023-07-29T18:03:38.000Z</time>
        <extensions>
          <ns3:TrackPointExtension>
            <ns3:hr>93</ns3:hr>
            <ns3:cad>0</ns3:cad>
          </ns3:TrackPointExtension>
        </extensions>
      </trkpt>
      <trkpt lat="37.75539946742355823516845703125" lon="-107.7071441151201725006103515625">
        <ele>3532</ele>
        <time>2023-07-29T18:03:39.000Z</time>
        <extensions>
          <ns3:TrackPointExtension>
            <ns3:hr>92</ns3:hr>
            <ns3:cad>0</ns3:cad>
          </ns3:TrackPointExtension>
        </extensions>
      </trkpt>
      <trkpt lat="37.75537650100886821746826171875" lon="-107.70714721642434597015380859375">
        <ele>3532</ele>
        <time>2023-07-29T18:03:40.000Z</time>
        <extensions>
          <ns3:TrackPointExtension>
            <ns3:hr>92</ns3:hr>
            <ns3:cad>0</ns3:cad>
          </ns3:TrackPointExtension>
        </extensions>
      </trkpt>
      <trkpt lat="37.7553643472492694854736328125" lon="-107.70715123973786830902099609375">
        <ele>3532</ele>
        <time>2023-07-29T18:03:41.000Z</time>
        <extensions>
          <ns3:TrackPointExtension>
            <ns3:hr>90</ns3:hr>
            <ns3:cad>0</ns3:cad>
          </ns3:TrackPointExtension>
        </extensions>
      </trkpt>
      <trkpt lat="37.75534967891871929168701171875" lon="-107.7071545086801052093505859375">
        <ele>3532</ele>
        <time>2023-07-29T18:03:42.000Z</time>
        <extensions>
          <ns3:TrackPointExtension>
            <ns3:hr>87</ns3:hr>
            <ns3:cad>0</ns3:cad>
          </ns3:TrackPointExtension>
        </extensions>
      </trkpt>
      <trkpt lat="37.755328305065631866455078125" lon="-107.7071585319936275482177734375">
        <ele>3532.199951171875</ele>
        <time>2023-07-29T18:03:43.000Z</time>
        <extensions>
          <ns3:TrackPointExtension>
            <ns3:hr>83</ns3:hr>
            <ns3:cad>0</ns3:cad>
          </ns3:TrackPointExtension>
        </extensions>
      </trkpt>
      <trkpt lat="37.7553180791437625885009765625" lon="-107.70716230385005474090576171875">
        <ele>3532.39990234375</ele>
        <time>2023-07-29T18:03:44.000Z</time>
        <extensions>
          <ns3:TrackPointExtension>
            <ns3:hr>81</ns3:hr>
            <ns3:cad>0</ns3:cad>
          </ns3:TrackPointExtension>
        </extensions>
      </trkpt>
      <trkpt lat="37.75530860759317874908447265625" lon="-107.70716406404972076416015625">
        <ele>3532.39990234375</ele>
        <time>2023-07-29T18:03:45.000Z</time>
        <extensions>
          <ns3:TrackPointExtension>
            <ns3:hr>80</ns3:hr>
            <ns3:cad>0</ns3:cad>
          </ns3:TrackPointExtension>
        </extensions>
      </trkpt>
      <trkpt lat="37.7552972920238971710205078125" lon="-107.70716431550681591033935546875">
        <ele>3532.39990234375</ele>
        <time>2023-07-29T18:03:46.000Z</time>
        <extensions>
          <ns3:TrackPointExtension>
            <ns3:hr>78</ns3:hr>
            <ns3:cad>0</ns3:cad>
          </ns3:TrackPointExtension>
        </extensions>
      </trkpt>
      <trkpt lat="37.75528161786496639251708984375" lon="-107.7071665786206722259521484375">
        <ele>3532.39990234375</ele>
        <time>2023-07-29T18:03:47.000Z</time>
        <extensions>
          <ns3:TrackPointExtension>
            <ns3:hr>77</ns3:hr>
            <ns3:cad>0</ns3:cad>
          </ns3:TrackPointExtension>
        </extensions>
      </trkpt>
      <trkpt lat="37.75527290068566799163818359375" lon="-107.7071649022400379180908203125">
        <ele>3532.39990234375</ele>
        <time>2023-07-29T18:03:48.000Z</time>
        <extensions>
          <ns3:TrackPointExtension>
            <ns3:hr>78</ns3:hr>
            <ns3:cad>0</ns3:cad>
          </ns3:TrackPointExtension>
        </extensions>
      </trkpt>
      <trkpt lat="37.75525756180286407470703125" lon="-107.707161717116832733154296875">
        <ele>3532.39990234375</ele>
        <time>2023-07-29T18:03:49.000Z</time>
        <extensions>
          <ns3:TrackPointExtension>
            <ns3:hr>77</ns3:hr>
            <ns3:cad>0</ns3:cad>
          </ns3:TrackPointExtension>
        </extensions>
      </trkpt>
      <trkpt lat="37.75524138472974300384521484375" lon="-107.7071602083742618560791015625">
        <ele>3532.39990234375</ele>
        <time>2023-07-29T18:03:50.000Z</time>
        <extensions>
          <ns3:TrackPointExtension>
            <ns3:hr>78</ns3:hr>
            <ns3:cad>0</ns3:cad>
          </ns3:TrackPointExtension>
        </extensions>
      </trkpt>
      <trkpt lat="37.7552252076566219329833984375" lon="-107.70715895108878612518310546875">
        <ele>3532.39990234375</ele>
        <time>2023-07-29T18:03:51.000Z</time>
        <extensions>
          <ns3:TrackPointExtension>
            <ns3:hr>78</ns3:hr>
            <ns3:cad>0</ns3:cad>
          </ns3:TrackPointExtension>
        </extensions>
      </trkpt>
      <trkpt lat="37.75521573610603809356689453125" lon="-107.707159034907817840576171875">
        <ele>3532.39990234375</ele>
        <time>2023-07-29T18:03:52.000Z</time>
        <extensions>
          <ns3:TrackPointExtension>
            <ns3:hr>78</ns3:hr>
            <ns3:cad>0</ns3:cad>
          </ns3:TrackPointExtension>
        </extensions>
      </trkpt>
      <trkpt lat="37.7552037499845027923583984375" lon="-107.707159034907817840576171875">
        <ele>3532.39990234375</ele>
        <time>2023-07-29T18:03:53.000Z</time>
        <extensions>
          <ns3:TrackPointExtension>
            <ns3:hr>78</ns3:hr>
            <ns3:cad>0</ns3:cad>
          </ns3:TrackPointExtension>
        </extensions>
      </trkpt>
      <trkpt lat="37.75518539361655712127685546875" lon="-107.7071608789265155792236328125">
        <ele>3532.39990234375</ele>
        <time>2023-07-29T18:03:54.000Z</time>
        <extensions>
          <ns3:TrackPointExtension>
            <ns3:hr>79</ns3:hr>
            <ns3:cad>0</ns3:cad>
          </ns3:TrackPointExtension>
        </extensions>
      </trkpt>
      <trkpt lat="37.75517332367599010467529296875" lon="-107.70716113038361072540283203125">
        <ele>3532.39990234375</ele>
        <time>2023-07-29T18:03:55.000Z</time>
        <extensions>
          <ns3:TrackPointExtension>
            <ns3:hr>79</ns3:hr>
            <ns3:cad>0</ns3:cad>
          </ns3:TrackPointExtension>
        </extensions>
      </trkpt>
      <trkpt lat="37.7551604993641376495361328125" lon="-107.70715995691716670989990234375">
        <ele>3532.39990234375</ele>
        <time>2023-07-29T18:03:56.000Z</time>
        <extensions>
          <ns3:TrackPointExtension>
            <ns3:hr>80</ns3:hr>
            <ns3:cad>0</ns3:cad>
          </ns3:TrackPointExtension>
        </extensions>
      </trkpt>
      <trkpt lat="37.7551514469087123870849609375" lon="-107.70715710707008838653564453125">
        <ele>3532.39990234375</ele>
        <time>2023-07-29T18:03:57.000Z</time>
        <extensions>
          <ns3:TrackPointExtension>
            <ns3:hr>80</ns3:hr>
            <ns3:cad>0</ns3:cad>
          </ns3:TrackPointExtension>
        </extensions>
      </trkpt>
      <trkpt lat="37.75514046661555767059326171875" lon="-107.70715123973786830902099609375">
        <ele>3532.39990234375</ele>
        <time>2023-07-29T18:03:58.000Z</time>
        <extensions>
          <ns3:TrackPointExtension>
            <ns3:hr>80</ns3:hr>
            <ns3:cad>0</ns3:cad>
          </ns3:TrackPointExtension>
        </extensions>
      </trkpt>
      <trkpt lat="37.755130492150783538818359375" lon="-107.70714235492050647735595703125">
        <ele>3532.199951171875</ele>
        <time>2023-07-29T18:03:59.000Z</time>
        <extensions>
          <ns3:TrackPointExtension>
            <ns3:hr>80</ns3:hr>
            <ns3:cad>0</ns3:cad>
          </ns3:TrackPointExtension>
        </extensions>
      </trkpt>
      <trkpt lat="37.75511649437248706817626953125" lon="-107.70713849924504756927490234375">
        <ele>3532.199951171875</ele>
        <time>2023-07-29T18:04:00.000Z</time>
        <extensions>
          <ns3:TrackPointExtension>
            <ns3:hr>80</ns3:hr>
            <ns3:cad>0</ns3:cad>
          </ns3:TrackPointExtension>
        </extensions>
      </trkpt>
      <trkpt lat="37.75510174222290515899658203125" lon="-107.7071380801498889923095703125">
        <ele>3532</ele>
        <time>2023-07-29T18:04:01.000Z</time>
        <extensions>
          <ns3:TrackPointExtension>
            <ns3:hr>81</ns3:hr>
            <ns3:cad>0</ns3:cad>
          </ns3:TrackPointExtension>
        </extensions>
      </trkpt>
      <trkpt lat="37.75508514605462551116943359375" lon="-107.707139588892459869384765625">
        <ele>3532</ele>
        <time>2023-07-29T18:04:02.000Z</time>
        <extensions>
          <ns3:TrackPointExtension>
            <ns3:hr>81</ns3:hr>
            <ns3:cad>0</ns3:cad>
          </ns3:TrackPointExtension>
        </extensions>
      </trkpt>
      <trkpt lat="37.7550739981234073638916015625" lon="-107.70714403130114078521728515625">
        <ele>3531.800048828125</ele>
        <time>2023-07-29T18:04:03.000Z</time>
        <extensions>
          <ns3:TrackPointExtension>
            <ns3:hr>81</ns3:hr>
            <ns3:cad>0</ns3:cad>
          </ns3:TrackPointExtension>
        </extensions>
      </trkpt>
      <trkpt lat="37.75506251491606235504150390625" lon="-107.70714721642434597015380859375">
        <ele>3531.800048828125</ele>
        <time>2023-07-29T18:04:04.000Z</time>
        <extensions>
          <ns3:TrackPointExtension>
            <ns3:hr>81</ns3:hr>
            <ns3:cad>0</ns3:cad>
          </ns3:TrackPointExtension>
        </extensions>
      </trkpt>
      <trkpt lat="37.75505505502223968505859375" lon="-107.70715476013720035552978515625">
        <ele>3531.800048828125</ele>
        <time>2023-07-29T18:04:05.000Z</time>
        <extensions>
          <ns3:TrackPointExtension>
            <ns3:hr>82</ns3:hr>
            <ns3:cad>0</ns3:cad>
          </ns3:TrackPointExtension>
        </extensions>
      </trkpt>
      <trkpt lat="37.75504457764327526092529296875" lon="-107.7071593701839447021484375">
        <ele>3531.60009765625</ele>
        <time>2023-07-29T18:04:06.000Z</time>
        <extensions>
          <ns3:TrackPointExtension>
            <ns3:hr>82</ns3:hr>
            <ns3:cad>0</ns3:cad>
          </ns3:TrackPointExtension>
        </extensions>
      </trkpt>
      <trkpt lat="37.75503418408334255218505859375" lon="-107.70716582424938678741455078125">
        <ele>3531.60009765625</ele>
        <time>2023-07-29T18:04:07.000Z</time>
        <extensions>
          <ns3:TrackPointExtension>
            <ns3:hr>82</ns3:hr>
            <ns3:cad>57</ns3:cad>
          </ns3:TrackPointExtension>
        </extensions>
      </trkpt>
      <trkpt lat="37.7550216950476169586181640625" lon="-107.7071732841432094573974609375">
        <ele>3531.39990234375</ele>
        <time>2023-07-29T18:04:08.000Z</time>
        <extensions>
          <ns3:TrackPointExtension>
            <ns3:hr>83</ns3:hr>
            <ns3:cad>57</ns3:cad>
          </ns3:TrackPointExtension>
        </extensions>
      </trkpt>
      <trkpt lat="37.75501482188701629638671875" lon="-107.70717680454254150390625">
        <ele>3531.39990234375</ele>
        <time>2023-07-29T18:04:09.000Z</time>
        <extensions>
          <ns3:TrackPointExtension>
            <ns3:hr>83</ns3:hr>
            <ns3:cad>57</ns3:cad>
          </ns3:TrackPointExtension>
        </extensions>
      </trkpt>
      <trkpt lat="37.75499931536614894866943359375" lon="-107.70718342624604701995849609375">
        <ele>3531</ele>
        <time>2023-07-29T18:04:10.000Z</time>
        <extensions>
          <ns3:TrackPointExtension>
            <ns3:hr>83</ns3:hr>
            <ns3:cad>0</ns3:cad>
          </ns3:TrackPointExtension>
        </extensions>
      </trkpt>
      <trkpt lat="37.75498422794044017791748046875" lon="-107.707193233072757720947265625">
        <ele>3531</ele>
        <time>2023-07-29T18:04:11.000Z</time>
        <extensions>
          <ns3:TrackPointExtension>
            <ns3:hr>85</ns3:hr>
            <ns3:cad>0</ns3:cad>
          </ns3:TrackPointExtension>
        </extensions>
      </trkpt>
      <trkpt lat="37.7549714036285877227783203125" lon="-107.70720354281365871429443359375">
        <ele>3530.800048828125</ele>
        <time>2023-07-29T18:04:12.000Z</time>
        <extensions>
          <ns3:TrackPointExtension>
            <ns3:hr>86</ns3:hr>
            <ns3:cad>0</ns3:cad>
          </ns3:TrackPointExtension>
        </extensions>
      </trkpt>
      <trkpt lat="37.754964865744113922119140625" lon="-107.7072101645171642303466796875">
        <ele>3530.60009765625</ele>
        <time>2023-07-29T18:04:13.000Z</time>
        <extensions>
          <ns3:TrackPointExtension>
            <ns3:hr>88</ns3:hr>
            <ns3:cad>0</ns3:cad>
          </ns3:TrackPointExtension>
        </extensions>
      </trkpt>
      <trkpt lat="37.75495857931673526763916015625" lon="-107.70721628330647945404052734375">
        <ele>3530.60009765625</ele>
        <time>2023-07-29T18:04:14.000Z</time>
        <extensions>
          <ns3:TrackPointExtension>
            <ns3:hr>90</ns3:hr>
            <ns3:cad>0</ns3:cad>
          </ns3:TrackPointExtension>
        </extensions>
      </trkpt>
      <trkpt lat="37.75494986213743686676025390625" lon="-107.7072229050099849700927734375">
        <ele>3530.60009765625</ele>
        <time>2023-07-29T18:04:15.000Z</time>
        <extensions>
          <ns3:TrackPointExtension>
            <ns3:hr>92</ns3:hr>
            <ns3:cad>0</ns3:cad>
          </ns3:TrackPointExtension>
        </extensions>
      </trkpt>
      <trkpt lat="37.75493863038718700408935546875" lon="-107.70723220892250537872314453125">
        <ele>3530.39990234375</ele>
        <time>2023-07-29T18:04:16.000Z</time>
        <extensions>
          <ns3:TrackPointExtension>
            <ns3:hr>94</ns3:hr>
            <ns3:cad>0</ns3:cad>
          </ns3:TrackPointExtension>
        </extensions>
      </trkpt>
      <trkpt lat="37.75492957793176174163818359375" lon="-107.7072400040924549102783203125">
        <ele>3530.199951171875</ele>
        <time>2023-07-29T18:04:17.000Z</time>
        <extensions>
          <ns3:TrackPointExtension>
            <ns3:hr>95</ns3:hr>
            <ns3:cad>0</ns3:cad>
          </ns3:TrackPointExtension>
        </extensions>
      </trkpt>
      <trkpt lat="37.75491935200989246368408203125" lon="-107.70724981091916561126708984375">
        <ele>3530</ele>
        <time>2023-07-29T18:04:18.000Z</time>
        <extensions>
          <ns3:TrackPointExtension>
            <ns3:hr>95</ns3:hr>
            <ns3:cad>0</ns3:cad>
          </ns3:TrackPointExtension>
        </extensions>
      </trkpt>
      <trkpt lat="37.7549083717167377471923828125" lon="-107.70726196467876434326171875">
        <ele>3529.800048828125</ele>
        <time>2023-07-29T18:04:19.000Z</time>
        <extensions>
          <ns3:TrackPointExtension>
            <ns3:hr>96</ns3:hr>
            <ns3:cad>0</ns3:cad>
          </ns3:TrackPointExtension>
        </extensions>
      </trkpt>
      <trkpt lat="37.7548996545374393463134765625" lon="-107.7072708494961261749267578125">
        <ele>3529.800048828125</ele>
        <time>2023-07-29T18:04:20.000Z</time>
        <extensions>
          <ns3:TrackPointExtension>
            <ns3:hr>97</ns3:hr>
            <ns3:cad>0</ns3:cad>
          </ns3:TrackPointExtension>
        </extensions>
      </trkpt>
      <trkpt lat="37.754886411130428314208984375" lon="-107.707283087074756622314453125">
        <ele>3529.60009765625</ele>
        <time>2023-07-29T18:04:21.000Z</time>
        <extensions>
          <ns3:TrackPointExtension>
            <ns3:hr>98</ns3:hr>
            <ns3:cad>0</ns3:cad>
          </ns3:TrackPointExtension>
        </extensions>
      </trkpt>
      <trkpt lat="37.7548781968653202056884765625" lon="-107.7072943188250064849853515625">
        <ele>3529.39990234375</ele>
        <time>2023-07-29T18:04:22.000Z</time>
        <extensions>
          <ns3:TrackPointExtension>
            <ns3:hr>98</ns3:hr>
            <ns3:cad>0</ns3:cad>
          </ns3:TrackPointExtension>
        </extensions>
      </trkpt>
      <trkpt lat="37.7548701502382755279541015625" lon="-107.70730513148009777069091796875">
        <ele>3529.199951171875</ele>
        <time>2023-07-29T18:04:23.000Z</time>
        <extensions>
          <ns3:TrackPointExtension>
            <ns3:hr>97</ns3:hr>
            <ns3:cad>0</ns3:cad>
          </ns3:TrackPointExtension>
        </extensions>
      </trkpt>
      <trkpt lat="37.754864282906055450439453125" lon="-107.70731736905872821807861328125">
        <ele>3529</ele>
        <time>2023-07-29T18:04:24.000Z</time>
        <extensions>
          <ns3:TrackPointExtension>
            <ns3:hr>97</ns3:hr>
            <ns3:cad>0</ns3:cad>
          </ns3:TrackPointExtension>
        </extensions>
      </trkpt>
      <trkpt lat="37.75485380552709102630615234375" lon="-107.70731720142066478729248046875">
        <ele>3528.800048828125</ele>
        <time>2023-07-29T18:04:25.000Z</time>
        <extensions>
          <ns3:TrackPointExtension>
            <ns3:hr>96</ns3:hr>
            <ns3:cad>0</ns3:cad>
          </ns3:TrackPointExtension>
        </extensions>
      </trkpt>
      <trkpt lat="37.75484827347099781036376953125" lon="-107.7073231525719165802001953125">
        <ele>3528.60009765625</ele>
        <time>2023-07-29T18:04:26.000Z</time>
        <extensions>
          <ns3:TrackPointExtension>
            <ns3:hr>95</ns3:hr>
            <ns3:cad>0</ns3:cad>
          </ns3:TrackPointExtension>
        </extensions>
      </trkpt>
      <trkpt lat="37.75484039448201656341552734375" lon="-107.70733245648443698883056640625">
        <ele>3528.60009765625</ele>
        <time>2023-07-29T18:04:27.000Z</time>
        <extensions>
          <ns3:TrackPointExtension>
            <ns3:hr>95</ns3:hr>
            <ns3:cad>0</ns3:cad>
          </ns3:TrackPointExtension>
        </extensions>
      </trkpt>
      <trkpt lat="37.75483100675046443939208984375" lon="-107.70734285004436969757080078125">
        <ele>3528.39990234375</ele>
        <time>2023-07-29T18:04:28.000Z</time>
        <extensions>
          <ns3:TrackPointExtension>
            <ns3:hr>94</ns3:hr>
            <ns3:cad>57</ns3:cad>
          </ns3:TrackPointExtension>
        </extensions>
      </trkpt>
      <trkpt lat="37.75482237339019775390625" lon="-107.7073526568710803985595703125">
        <ele>3528.39990234375</ele>
        <time>2023-07-29T18:04:29.000Z</time>
        <extensions>
          <ns3:TrackPointExtension>
            <ns3:hr>94</ns3:hr>
            <ns3:cad>57</ns3:cad>
          </ns3:TrackPointExtension>
        </extensions>
      </trkpt>
      <trkpt lat="37.754811309278011322021484375" lon="-107.70736522972583770751953125">
        <ele>3528.39990234375</ele>
        <time>2023-07-29T18:04:30.000Z</time>
        <extensions>
          <ns3:TrackPointExtension>
            <ns3:hr>93</ns3:hr>
            <ns3:cad>0</ns3:cad>
          </ns3:TrackPointExtension>
        </extensions>
      </trkpt>
      <trkpt lat="37.75480016134679317474365234375" lon="-107.70737595856189727783203125">
        <ele>3528.199951171875</ele>
        <time>2023-07-29T18:04:31.000Z</time>
        <extensions>
          <ns3:TrackPointExtension>
            <ns3:hr>93</ns3:hr>
            <ns3:cad>0</ns3:cad>
          </ns3:TrackPointExtension>
        </extensions>
      </trkpt>
      <trkpt lat="37.7547870017588138580322265625" lon="-107.7073918841779232025146484375">
        <ele>3528</ele>
        <time>2023-07-29T18:04:32.000Z</time>
        <extensions>
          <ns3:TrackPointExtension>
            <ns3:hr>93</ns3:hr>
            <ns3:cad>0</ns3:cad>
          </ns3:TrackPointExtension>
        </extensions>
      </trkpt>
      <trkpt lat="37.75477501563727855682373046875" lon="-107.7074066363275051116943359375">
        <ele>3527.800048828125</ele>
        <time>2023-07-29T18:04:33.000Z</time>
        <extensions>
          <ns3:TrackPointExtension>
            <ns3:hr>93</ns3:hr>
            <ns3:cad>0</ns3:cad>
          </ns3:TrackPointExtension>
        </extensions>
      </trkpt>
      <trkpt lat="37.754760682582855224609375" lon="-107.7074210532009601593017578125">
        <ele>3527.60009765625</ele>
        <time>2023-07-29T18:04:34.000Z</time>
        <extensions>
          <ns3:TrackPointExtension>
            <ns3:hr>93</ns3:hr>
            <ns3:cad>0</ns3:cad>
          </ns3:TrackPointExtension>
        </extensions>
      </trkpt>
      <trkpt lat="37.7547514624893665313720703125" lon="-107.70743169821798801422119140625">
        <ele>3527.39990234375</ele>
        <time>2023-07-29T18:04:35.000Z</time>
        <extensions>
          <ns3:TrackPointExtension>
            <ns3:hr>93</ns3:hr>
            <ns3:cad>0</ns3:cad>
          </ns3:TrackPointExtension>
        </extensions>
      </trkpt>
      <trkpt lat="37.75474132038652896881103515625" lon="-107.7074421755969524383544921875">
        <ele>3527.39990234375</ele>
        <time>2023-07-29T18:04:36.000Z</time>
        <extensions>
          <ns3:TrackPointExtension>
            <ns3:hr>94</ns3:hr>
            <ns3:cad>0</ns3:cad>
          </ns3:TrackPointExtension>
        </extensions>
      </trkpt>
      <trkpt lat="37.75473260320723056793212890625" lon="-107.70745248533785343170166015625">
        <ele>3527.199951171875</ele>
        <time>2023-07-29T18:04:37.000Z</time>
        <extensions>
          <ns3:TrackPointExtension>
            <ns3:hr>94</ns3:hr>
            <ns3:cad>0</ns3:cad>
          </ns3:TrackPointExtension>
        </extensions>
      </trkpt>
      <trkpt lat="37.75472807697951793670654296875" lon="-107.70745910704135894775390625">
        <ele>3527.199951171875</ele>
        <time>2023-07-29T18:04:38.000Z</time>
        <extensions>
          <ns3:TrackPointExtension>
            <ns3:hr>94</ns3:hr>
            <ns3:cad>0</ns3:cad>
          </ns3:TrackPointExtension>
        </extensions>
      </trkpt>
      <trkpt lat="37.75472539477050304412841796875" lon="-107.7074659802019596099853515625">
        <ele>3527.199951171875</ele>
        <time>2023-07-29T18:04:39.000Z</time>
        <extensions>
          <ns3:TrackPointExtension>
            <ns3:hr>95</ns3:hr>
            <ns3:cad>0</ns3:cad>
          </ns3:TrackPointExtension>
        </extensions>
      </trkpt>
      <trkpt lat="37.7547191083431243896484375" lon="-107.70747779868543148040771484375">
        <ele>3526.800048828125</ele>
        <time>2023-07-29T18:04:40.000Z</time>
        <extensions>
          <ns3:TrackPointExtension>
            <ns3:hr>95</ns3:hr>
            <ns3:cad>0</ns3:cad>
          </ns3:TrackPointExtension>
        </extensions>
      </trkpt>
      <trkpt lat="37.75471349246799945831298828125" lon="-107.70748819224536418914794921875">
        <ele>3526.800048828125</ele>
        <time>2023-07-29T18:04:41.000Z</time>
        <extensions>
          <ns3:TrackPointExtension>
            <ns3:hr>95</ns3:hr>
            <ns3:cad>55</ns3:cad>
          </ns3:TrackPointExtension>
        </extensions>
      </trkpt>
      <trkpt lat="37.754706703126430511474609375" lon="-107.7075008489191532135009765625">
        <ele>3526.800048828125</ele>
        <time>2023-07-29T18:04:42.000Z</time>
        <extensions>
          <ns3:TrackPointExtension>
            <ns3:hr>96</ns3:hr>
            <ns3:cad>55</ns3:cad>
          </ns3:TrackPointExtension>
        </extensions>
      </trkpt>
      <trkpt lat="37.75470242835581302642822265625" lon="-107.7075099013745784759521484375">
        <ele>3526.800048828125</ele>
        <time>2023-07-29T18:04:43.000Z</time>
        <extensions>
          <ns3:TrackPointExtension>
            <ns3:hr>96</ns3:hr>
            <ns3:cad>55</ns3:cad>
          </ns3:TrackPointExtension>
        </extensions>
      </trkpt>
      <trkpt lat="37.75469429790973663330078125" lon="-107.7075216360390186309814453125">
        <ele>3526.60009765625</ele>
        <time>2023-07-29T18:04:44.000Z</time>
        <extensions>
          <ns3:TrackPointExtension>
            <ns3:hr>95</ns3:hr>
            <ns3:cad>55</ns3:cad>
          </ns3:TrackPointExtension>
        </extensions>
      </trkpt>
      <trkpt lat="37.7546904422342777252197265625" lon="-107.70752641372382640838623046875">
        <ele>3526.60009765625</ele>
        <time>2023-07-29T18:04:45.000Z</time>
        <extensions>
          <ns3:TrackPointExtension>
            <ns3:hr>96</ns3:hr>
            <ns3:cad>55</ns3:cad>
          </ns3:TrackPointExtension>
        </extensions>
      </trkpt>
      <trkpt lat="37.75467149913311004638671875" lon="-107.70752884447574615478515625">
        <ele>3526.39990234375</ele>
        <time>2023-07-29T18:04:46.000Z</time>
        <extensions>
          <ns3:TrackPointExtension>
            <ns3:hr>96</ns3:hr>
            <ns3:cad>56</ns3:cad>
          </ns3:TrackPointExtension>
        </extensions>
      </trkpt>
      <trkpt lat="37.7546585910022258758544921875" lon="-107.70753689110279083251953125">
        <ele>3526.199951171875</ele>
        <time>2023-07-29T18:04:47.000Z</time>
        <extensions>
          <ns3:TrackPointExtension>
            <ns3:hr>96</ns3:hr>
            <ns3:cad>56</ns3:cad>
          </ns3:TrackPointExtension>
        </extensions>
      </trkpt>
      <trkpt lat="37.754648365080356597900390625" lon="-107.7075430937111377716064453125">
        <ele>3526.199951171875</ele>
        <time>2023-07-29T18:04:48.000Z</time>
        <extensions>
          <ns3:TrackPointExtension>
            <ns3:hr>96</ns3:hr>
            <ns3:cad>0</ns3:cad>
          </ns3:TrackPointExtension>
        </extensions>
      </trkpt>
      <trkpt lat="37.7546364627778530120849609375" lon="-107.70755323581397533416748046875">
        <ele>3526</ele>
        <time>2023-07-29T18:04:49.000Z</time>
        <extensions>
          <ns3:TrackPointExtension>
            <ns3:hr>96</ns3:hr>
            <ns3:cad>0</ns3:cad>
          </ns3:TrackPointExtension>
        </extensions>
      </trkpt>
      <trkpt lat="37.7546260692179203033447265625" lon="-107.70756362937390804290771484375">
        <ele>3525.800048828125</ele>
        <time>2023-07-29T18:04:50.000Z</time>
        <extensions>
          <ns3:TrackPointExtension>
            <ns3:hr>96</ns3:hr>
            <ns3:cad>56</ns3:cad>
          </ns3:TrackPointExtension>
        </extensions>
      </trkpt>
      <trkpt lat="37.754620872437953948974609375" lon="-107.70757284946739673614501953125">
        <ele>3525.800048828125</ele>
        <time>2023-07-29T18:04:51.000Z</time>
        <extensions>
          <ns3:TrackPointExtension>
            <ns3:hr>95</ns3:hr>
            <ns3:cad>56</ns3:cad>
          </ns3:TrackPointExtension>
        </extensions>
      </trkpt>
      <trkpt lat="37.75461257435381412506103515625" lon="-107.70758475176990032196044921875">
        <ele>3525.60009765625</ele>
        <time>2023-07-29T18:04:52.000Z</time>
        <extensions>
          <ns3:TrackPointExtension>
            <ns3:hr>95</ns3:hr>
            <ns3:cad>56</ns3:cad>
          </ns3:TrackPointExtension>
        </extensions>
      </trkpt>
      <trkpt lat="37.754605114459991455078125" lon="-107.70759816281497478485107421875">
        <ele>3525.39990234375</ele>
        <time>2023-07-29T18:04:53.000Z</time>
        <extensions>
          <ns3:TrackPointExtension>
            <ns3:hr>95</ns3:hr>
            <ns3:cad>56</ns3:cad>
          </ns3:TrackPointExtension>
        </extensions>
      </trkpt>
      <trkpt lat="37.7545995824038982391357421875" lon="-107.7076101489365100860595703125">
        <ele>3525.199951171875</ele>
        <time>2023-07-29T18:04:54.000Z</time>
        <extensions>
          <ns3:TrackPointExtension>
            <ns3:hr>94</ns3:hr>
            <ns3:cad>56</ns3:cad>
          </ns3:TrackPointExtension>
        </extensions>
      </trkpt>
      <trkpt lat="37.75459949858486652374267578125" lon="-107.70761677064001560211181640625">
        <ele>3525.199951171875</ele>
        <time>2023-07-29T18:04:55.000Z</time>
        <extensions>
          <ns3:TrackPointExtension>
            <ns3:hr>93</ns3:hr>
            <ns3:cad>0</ns3:cad>
          </ns3:TrackPointExtension>
        </extensions>
      </trkpt>
      <trkpt lat="37.754593379795551300048828125" lon="-107.70762884058058261871337890625">
        <ele>3525</ele>
        <time>2023-07-29T18:04:56.000Z</time>
        <extensions>
          <ns3:TrackPointExtension>
            <ns3:hr>92</ns3:hr>
            <ns3:cad>0</ns3:cad>
          </ns3:TrackPointExtension>
        </extensions>
      </trkpt>
      <trkpt lat="37.75458625517785549163818359375" lon="-107.707641161978244781494140625">
        <ele>3524.800048828125</ele>
        <time>2023-07-29T18:04:57.000Z</time>
        <extensions>
          <ns3:TrackPointExtension>
            <ns3:hr>92</ns3:hr>
            <ns3:cad>57</ns3:cad>
          </ns3:TrackPointExtension>
        </extensions>
      </trkpt>
      <trkpt lat="37.7545771189033985137939453125" lon="-107.7076597698032855987548828125">
        <ele>3524.60009765625</ele>
        <time>2023-07-29T18:04:58.000Z</time>
        <extensions>
          <ns3:TrackPointExtension>
            <ns3:hr>91</ns3:hr>
            <ns3:cad>57</ns3:cad>
          </ns3:TrackPointExtension>
        </extensions>
      </trkpt>
      <trkpt lat="37.7545704133808612823486328125" lon="-107.707667648792266845703125">
        <ele>3524.39990234375</ele>
        <time>2023-07-29T18:04:59.000Z</time>
        <extensions>
          <ns3:TrackPointExtension>
            <ns3:hr>91</ns3:hr>
            <ns3:cad>57</ns3:cad>
          </ns3:TrackPointExtension>
        </extensions>
      </trkpt>
      <trkpt lat="37.75456018745899200439453125" lon="-107.70767879672348499298095703125">
        <ele>3524.39990234375</ele>
        <time>2023-07-29T18:05:00.000Z</time>
        <extensions>
          <ns3:TrackPointExtension>
            <ns3:hr>90</ns3:hr>
            <ns3:cad>57</ns3:cad>
          </ns3:TrackPointExtension>
        </extensions>
      </trkpt>
      <trkpt lat="37.7545546554028987884521484375" lon="-107.70768466405570507049560546875">
        <ele>3524</ele>
        <time>2023-07-29T18:05:01.000Z</time>
        <extensions>
          <ns3:TrackPointExtension>
            <ns3:hr>89</ns3:hr>
            <ns3:cad>57</ns3:cad>
          </ns3:TrackPointExtension>
        </extensions>
      </trkpt>
      <trkpt lat="37.75453998707234859466552734375" lon="-107.70770075730979442596435546875">
        <ele>3524</ele>
        <time>2023-07-29T18:05:02.000Z</time>
        <extensions>
          <ns3:TrackPointExtension>
            <ns3:hr>88</ns3:hr>
            <ns3:cad>57</ns3:cad>
          </ns3:TrackPointExtension>
        </extensions>
      </trkpt>
      <trkpt lat="37.754528336226940155029296875" lon="-107.7077065408229827880859375">
        <ele>3523.60009765625</ele>
        <time>2023-07-29T18:05:03.000Z</time>
        <extensions>
          <ns3:TrackPointExtension>
            <ns3:hr>87</ns3:hr>
            <ns3:cad>57</ns3:cad>
          </ns3:TrackPointExtension>
        </extensions>
      </trkpt>
      <trkpt lat="37.75451458990573883056640625" lon="-107.70771601237356662750244140625">
        <ele>3523.199951171875</ele>
        <time>2023-07-29T18:05:04.000Z</time>
        <extensions>
          <ns3:TrackPointExtension>
            <ns3:hr>87</ns3:hr>
            <ns3:cad>57</ns3:cad>
          </ns3:TrackPointExtension>
        </extensions>
      </trkpt>
      <trkpt lat="37.7545016817748546600341796875" lon="-107.70772590301930904388427734375">
        <ele>3523.199951171875</ele>
        <time>2023-07-29T18:05:05.000Z</time>
        <extensions>
          <ns3:TrackPointExtension>
            <ns3:hr>86</ns3:hr>
            <ns3:cad>57</ns3:cad>
          </ns3:TrackPointExtension>
        </extensions>
      </trkpt>
      <trkpt lat="37.75448550470173358917236328125" lon="-107.70774669013917446136474609375">
        <ele>3523</ele>
        <time>2023-07-29T18:05:06.000Z</time>
        <extensions>
          <ns3:TrackPointExtension>
            <ns3:hr>85</ns3:hr>
            <ns3:cad>57</ns3:cad>
          </ns3:TrackPointExtension>
        </extensions>
      </trkpt>
      <trkpt lat="37.75447846390306949615478515625" lon="-107.707753814756870269775390625">
        <ele>3522.800048828125</ele>
        <time>2023-07-29T18:05:07.000Z</time>
        <extensions>
          <ns3:TrackPointExtension>
            <ns3:hr>85</ns3:hr>
            <ns3:cad>0</ns3:cad>
          </ns3:TrackPointExtension>
        </extensions>
      </trkpt>
      <trkpt lat="37.75446438230574131011962890625" lon="-107.70776345394551753997802734375">
        <ele>3522.60009765625</ele>
        <time>2023-07-29T18:05:08.000Z</time>
        <extensions>
          <ns3:TrackPointExtension>
            <ns3:hr>85</ns3:hr>
            <ns3:cad>0</ns3:cad>
          </ns3:TrackPointExtension>
        </extensions>
      </trkpt>
      <trkpt lat="37.7544544078409671783447265625" lon="-107.7077717520296573638916015625">
        <ele>3522.199951171875</ele>
        <time>2023-07-29T18:05:09.000Z</time>
        <extensions>
          <ns3:TrackPointExtension>
            <ns3:hr>84</ns3:hr>
            <ns3:cad>0</ns3:cad>
          </ns3:TrackPointExtension>
        </extensions>
      </trkpt>
      <trkpt lat="37.754444517195224761962890625" lon="-107.7077816426753997802734375">
        <ele>3522</ele>
        <time>2023-07-29T18:05:10.000Z</time>
        <extensions>
          <ns3:TrackPointExtension>
            <ns3:hr>84</ns3:hr>
            <ns3:cad>0</ns3:cad>
          </ns3:TrackPointExtension>
        </extensions>
      </trkpt>
      <trkpt lat="37.75443538092076778411865234375" lon="-107.70779530517756938934326171875">
        <ele>3521.800048828125</ele>
        <time>2023-07-29T18:05:11.000Z</time>
        <extensions>
          <ns3:TrackPointExtension>
            <ns3:hr>84</ns3:hr>
            <ns3:cad>0</ns3:cad>
          </ns3:TrackPointExtension>
        </extensions>
      </trkpt>
      <trkpt lat="37.754429094493389129638671875" lon="-107.70780385471880435943603515625">
        <ele>3521.60009765625</ele>
        <time>2023-07-29T18:05:12.000Z</time>
        <extensions>
          <ns3:TrackPointExtension>
            <ns3:hr>84</ns3:hr>
            <ns3:cad>0</ns3:cad>
          </ns3:TrackPointExtension>
        </extensions>
      </trkpt>
      <trkpt lat="37.7544265799224376678466796875" lon="-107.707808129489421844482421875">
        <ele>3521.60009765625</ele>
        <time>2023-07-29T18:05:13.000Z</time>
        <extensions>
          <ns3:TrackPointExtension>
            <ns3:hr>84</ns3:hr>
            <ns3:cad>0</ns3:cad>
          </ns3:TrackPointExtension>
        </extensions>
      </trkpt>
      <trkpt lat="37.7544187009334564208984375" lon="-107.7078183554112911224365234375">
        <ele>3521.60009765625</ele>
        <time>2023-07-29T18:05:14.000Z</time>
        <extensions>
          <ns3:TrackPointExtension>
            <ns3:hr>84</ns3:hr>
            <ns3:cad>0</ns3:cad>
          </ns3:TrackPointExtension>
        </extensions>
      </trkpt>
      <trkpt lat="37.754411995410919189453125" lon="-107.70782732404768466949462890625">
        <ele>3521.39990234375</ele>
        <time>2023-07-29T18:05:15.000Z</time>
        <extensions>
          <ns3:TrackPointExtension>
            <ns3:hr>85</ns3:hr>
            <ns3:cad>0</ns3:cad>
          </ns3:TrackPointExtension>
        </extensions>
      </trkpt>
      <trkpt lat="37.75440017692744731903076171875" lon="-107.7078424952924251556396484375">
        <ele>3521.39990234375</ele>
        <time>2023-07-29T18:05:16.000Z</time>
        <extensions>
          <ns3:TrackPointExtension>
            <ns3:hr>86</ns3:hr>
            <ns3:cad>0</ns3:cad>
          </ns3:TrackPointExtension>
        </extensions>
      </trkpt>
      <trkpt lat="37.7543865144252777099609375" lon="-107.7078612707555294036865234375">
        <ele>3521.199951171875</ele>
        <time>2023-07-29T18:05:17.000Z</time>
        <extensions>
          <ns3:TrackPointExtension>
            <ns3:hr>86</ns3:hr>
            <ns3:cad>0</ns3:cad>
          </ns3:TrackPointExtension>
        </extensions>
      </trkpt>
      <trkpt lat="37.75437721051275730133056640625" lon="-107.7078750170767307281494140625">
        <ele>3521</ele>
        <time>2023-07-29T18:05:18.000Z</time>
        <extensions>
          <ns3:TrackPointExtension>
            <ns3:hr>86</ns3:hr>
            <ns3:cad>0</ns3:cad>
          </ns3:TrackPointExtension>
        </extensions>
      </trkpt>
      <trkpt lat="37.75437117554247379302978515625" lon="-107.70788683556020259857177734375">
        <ele>3521</ele>
        <time>2023-07-29T18:05:19.000Z</time>
        <extensions>
          <ns3:TrackPointExtension>
            <ns3:hr>86</ns3:hr>
            <ns3:cad>0</ns3:cad>
          </ns3:TrackPointExtension>
        </extensions>
      </trkpt>
      <trkpt lat="37.75436346419155597686767578125" lon="-107.70790292881429195404052734375">
        <ele>3520.800048828125</ele>
        <time>2023-07-29T18:05:20.000Z</time>
        <extensions>
          <ns3:TrackPointExtension>
            <ns3:hr>86</ns3:hr>
            <ns3:cad>0</ns3:cad>
          </ns3:TrackPointExtension>
        </extensions>
      </trkpt>
      <trkpt lat="37.75436111725866794586181640625" lon="-107.7079061977565288543701171875">
        <ele>3520.800048828125</ele>
        <time>2023-07-29T18:05:21.000Z</time>
        <extensions>
          <ns3:TrackPointExtension>
            <ns3:hr>86</ns3:hr>
            <ns3:cad>0</ns3:cad>
          </ns3:TrackPointExtension>
        </extensions>
      </trkpt>
      <trkpt lat="37.754357345402240753173828125" lon="-107.70791240036487579345703125">
        <ele>3520.39990234375</ele>
        <time>2023-07-29T18:05:22.000Z</time>
        <extensions>
          <ns3:TrackPointExtension>
            <ns3:hr>85</ns3:hr>
            <ns3:cad>0</ns3:cad>
          </ns3:TrackPointExtension>
        </extensions>
      </trkpt>
      <trkpt lat="37.75435172952711582183837890625" lon="-107.70791701041162014007568359375">
        <ele>3520.39990234375</ele>
        <time>2023-07-29T18:05:23.000Z</time>
        <extensions>
          <ns3:TrackPointExtension>
            <ns3:hr>85</ns3:hr>
            <ns3:cad>0</ns3:cad>
          </ns3:TrackPointExtension>
        </extensions>
      </trkpt>
      <trkpt lat="37.75434385053813457489013671875" lon="-107.7079273201525211334228515625">
        <ele>3520.199951171875</ele>
        <time>2023-07-29T18:05:24.000Z</time>
        <extensions>
          <ns3:TrackPointExtension>
            <ns3:hr>85</ns3:hr>
            <ns3:cad>0</ns3:cad>
          </ns3:TrackPointExtension>
        </extensions>
      </trkpt>
      <trkpt lat="37.7543360553681850433349609375" lon="-107.7079357020556926727294921875">
        <ele>3519.800048828125</ele>
        <time>2023-07-29T18:05:25.000Z</time>
        <extensions>
          <ns3:TrackPointExtension>
            <ns3:hr>84</ns3:hr>
            <ns3:cad>0</ns3:cad>
          </ns3:TrackPointExtension>
        </extensions>
      </trkpt>
      <trkpt lat="37.75432541035115718841552734375" lon="-107.70794634707272052764892578125">
        <ele>3519.60009765625</ele>
        <time>2023-07-29T18:05:26.000Z</time>
        <extensions>
          <ns3:TrackPointExtension>
            <ns3:hr>84</ns3:hr>
            <ns3:cad>0</ns3:cad>
          </ns3:TrackPointExtension>
        </extensions>
      </trkpt>
      <trkpt lat="37.75431744754314422607421875" lon="-107.7079538069665431976318359375">
        <ele>3519.60009765625</ele>
        <time>2023-07-29T18:05:27.000Z</time>
        <extensions>
          <ns3:TrackPointExtension>
            <ns3:hr>85</ns3:hr>
            <ns3:cad>0</ns3:cad>
          </ns3:TrackPointExtension>
        </extensions>
      </trkpt>
      <trkpt lat="37.75430914945900440216064453125" lon="-107.70796428434550762176513671875">
        <ele>3519.39990234375</ele>
        <time>2023-07-29T18:05:28.000Z</time>
        <extensions>
          <ns3:TrackPointExtension>
            <ns3:hr>85</ns3:hr>
            <ns3:cad>0</ns3:cad>
          </ns3:TrackPointExtension>
        </extensions>
      </trkpt>
      <trkpt lat="37.754303030669689178466796875" lon="-107.70797409117221832275390625">
        <ele>3519</ele>
        <time>2023-07-29T18:05:29.000Z</time>
        <extensions>
          <ns3:TrackPointExtension>
            <ns3:hr>85</ns3:hr>
            <ns3:cad>0</ns3:cad>
          </ns3:TrackPointExtension>
        </extensions>
      </trkpt>
      <trkpt lat="37.75429221801459789276123046875" lon="-107.70798305980861186981201171875">
        <ele>3518.60009765625</ele>
        <time>2023-07-29T18:05:30.000Z</time>
        <extensions>
          <ns3:TrackPointExtension>
            <ns3:hr>86</ns3:hr>
            <ns3:cad>0</ns3:cad>
          </ns3:TrackPointExtension>
        </extensions>
      </trkpt>
      <trkpt lat="37.75428215973079204559326171875" lon="-107.70799546502530574798583984375">
        <ele>3518.39990234375</ele>
        <time>2023-07-29T18:05:31.000Z</time>
        <extensions>
          <ns3:TrackPointExtension>
            <ns3:hr>86</ns3:hr>
            <ns3:cad>0</ns3:cad>
          </ns3:TrackPointExtension>
        </extensions>
      </trkpt>
      <trkpt lat="37.75427050888538360595703125" lon="-107.7080104686319828033447265625">
        <ele>3518</ele>
        <time>2023-07-29T18:05:32.000Z</time>
        <extensions>
          <ns3:TrackPointExtension>
            <ns3:hr>86</ns3:hr>
            <ns3:cad>60</ns3:cad>
          </ns3:TrackPointExtension>
        </extensions>
      </trkpt>
      <trkpt lat="37.754261791706085205078125" lon="-107.70802211947739124298095703125">
        <ele>3517.800048828125</ele>
        <time>2023-07-29T18:05:33.000Z</time>
        <extensions>
          <ns3:TrackPointExtension>
            <ns3:hr>85</ns3:hr>
            <ns3:cad>60</ns3:cad>
          </ns3:TrackPointExtension>
        </extensions>
      </trkpt>
      <trkpt lat="37.7542535774409770965576171875" lon="-107.70803712308406829833984375">
        <ele>3517.60009765625</ele>
        <time>2023-07-29T18:05:34.000Z</time>
        <extensions>
          <ns3:TrackPointExtension>
            <ns3:hr>85</ns3:hr>
            <ns3:cad>59</ns3:cad>
          </ns3:TrackPointExtension>
        </extensions>
      </trkpt>
      <trkpt lat="37.7542478777468204498291015625" lon="-107.70805045031011104583740234375">
        <ele>3517.39990234375</ele>
        <time>2023-07-29T18:05:35.000Z</time>
        <extensions>
          <ns3:TrackPointExtension>
            <ns3:hr>84</ns3:hr>
            <ns3:cad>58</ns3:cad>
          </ns3:TrackPointExtension>
        </extensions>
      </trkpt>
      <trkpt lat="37.75424377061426639556884765625" lon="-107.70806268788874149322509765625">
        <ele>3517.199951171875</ele>
        <time>2023-07-29T18:05:36.000Z</time>
        <extensions>
          <ns3:TrackPointExtension>
            <ns3:hr>83</ns3:hr>
            <ns3:cad>58</ns3:cad>
          </ns3:TrackPointExtension>
        </extensions>
      </trkpt>
      <trkpt lat="37.75424192659556865692138671875" lon="-107.70806972868740558624267578125">
        <ele>3517</ele>
        <time>2023-07-29T18:05:37.000Z</time>
        <extensions>
          <ns3:TrackPointExtension>
            <ns3:hr>82</ns3:hr>
            <ns3:cad>58</ns3:cad>
          </ns3:TrackPointExtension>
        </extensions>
      </trkpt>
      <trkpt lat="37.75424192659556865692138671875" lon="-107.708072327077388763427734375">
        <ele>3517</ele>
        <time>2023-07-29T18:05:38.000Z</time>
        <extensions>
          <ns3:TrackPointExtension>
            <ns3:hr>82</ns3:hr>
            <ns3:cad>58</ns3:cad>
          </ns3:TrackPointExtension>
        </extensions>
      </trkpt>
      <trkpt lat="37.75424008257687091827392578125" lon="-107.70808129571378231048583984375">
        <ele>3516.800048828125</ele>
        <time>2023-07-29T18:05:39.000Z</time>
        <extensions>
          <ns3:TrackPointExtension>
            <ns3:hr>82</ns3:hr>
            <ns3:cad>58</ns3:cad>
          </ns3:TrackPointExtension>
        </extensions>
      </trkpt>
      <trkpt lat="37.7542358078062534332275390625" lon="-107.70809353329241275787353515625">
        <ele>3516.800048828125</ele>
        <time>2023-07-29T18:05:40.000Z</time>
        <extensions>
          <ns3:TrackPointExtension>
            <ns3:hr>82</ns3:hr>
            <ns3:cad>58</ns3:cad>
          </ns3:TrackPointExtension>
        </extensions>
      </trkpt>
      <trkpt lat="37.75422918610274791717529296875" lon="-107.70810644142329692840576171875">
        <ele>3516.60009765625</ele>
        <time>2023-07-29T18:05:41.000Z</time>
        <extensions>
          <ns3:TrackPointExtension>
            <ns3:hr>82</ns3:hr>
            <ns3:cad>58</ns3:cad>
          </ns3:TrackPointExtension>
        </extensions>
      </trkpt>
      <trkpt lat="37.75422734208405017852783203125" lon="-107.7081164158880710601806640625">
        <ele>3516.39990234375</ele>
        <time>2023-07-29T18:05:42.000Z</time>
        <extensions>
          <ns3:TrackPointExtension>
            <ns3:hr>82</ns3:hr>
            <ns3:cad>58</ns3:cad>
          </ns3:TrackPointExtension>
        </extensions>
      </trkpt>
      <trkpt lat="37.75421963073313236236572265625" lon="-107.70812965929508209228515625">
        <ele>3516.39990234375</ele>
        <time>2023-07-29T18:05:43.000Z</time>
        <extensions>
          <ns3:TrackPointExtension>
            <ns3:hr>82</ns3:hr>
            <ns3:cad>58</ns3:cad>
          </ns3:TrackPointExtension>
        </extensions>
      </trkpt>
      <trkpt lat="37.7542116679251194000244140625" lon="-107.708145417273044586181640625">
        <ele>3516.199951171875</ele>
        <time>2023-07-29T18:05:44.000Z</time>
        <extensions>
          <ns3:TrackPointExtension>
            <ns3:hr>82</ns3:hr>
            <ns3:cad>61</ns3:cad>
          </ns3:TrackPointExtension>
        </extensions>
      </trkpt>
      <trkpt lat="37.75419934652745723724365234375" lon="-107.70816260017454624176025390625">
        <ele>3516.199951171875</ele>
        <time>2023-07-29T18:05:45.000Z</time>
        <extensions>
          <ns3:TrackPointExtension>
            <ns3:hr>82</ns3:hr>
            <ns3:cad>61</ns3:cad>
          </ns3:TrackPointExtension>
        </extensions>
      </trkpt>
      <trkpt lat="37.7541892044246196746826171875" lon="-107.7081700600683689117431640625">
        <ele>3515.800048828125</ele>
        <time>2023-07-29T18:05:46.000Z</time>
        <extensions>
          <ns3:TrackPointExtension>
            <ns3:hr>82</ns3:hr>
            <ns3:cad>61</ns3:cad>
          </ns3:TrackPointExtension>
        </extensions>
      </trkpt>
      <trkpt lat="37.75418627075850963592529296875" lon="-107.70816729404032230377197265625">
        <ele>3515.60009765625</ele>
        <time>2023-07-29T18:05:47.000Z</time>
        <extensions>
          <ns3:TrackPointExtension>
            <ns3:hr>82</ns3:hr>
            <ns3:cad>59</ns3:cad>
          </ns3:TrackPointExtension>
        </extensions>
      </trkpt>
      <trkpt lat="37.75418040342628955841064453125" lon="-107.7081767655909061431884765625">
        <ele>3515.39990234375</ele>
        <time>2023-07-29T18:05:48.000Z</time>
        <extensions>
          <ns3:TrackPointExtension>
            <ns3:hr>83</ns3:hr>
            <ns3:cad>58</ns3:cad>
          </ns3:TrackPointExtension>
        </extensions>
      </trkpt>
      <trkpt lat="37.75417570956051349639892578125" lon="-107.7081817947328090667724609375">
        <ele>3515.39990234375</ele>
        <time>2023-07-29T18:05:49.000Z</time>
        <extensions>
          <ns3:TrackPointExtension>
            <ns3:hr>83</ns3:hr>
            <ns3:cad>58</ns3:cad>
          </ns3:TrackPointExtension>
        </extensions>
      </trkpt>
      <trkpt lat="37.75417570956051349639892578125" lon="-107.70817215554416179656982421875">
        <ele>3515.199951171875</ele>
        <time>2023-07-29T18:05:50.000Z</time>
        <extensions>
          <ns3:TrackPointExtension>
            <ns3:hr>84</ns3:hr>
            <ns3:cad>58</ns3:cad>
          </ns3:TrackPointExtension>
        </extensions>
      </trkpt>
      <trkpt lat="37.75416783057153224945068359375" lon="-107.70818254910409450531005859375">
        <ele>3514.800048828125</ele>
        <time>2023-07-29T18:05:51.000Z</time>
        <extensions>
          <ns3:TrackPointExtension>
            <ns3:hr>84</ns3:hr>
            <ns3:cad>56</ns3:cad>
          </ns3:TrackPointExtension>
        </extensions>
      </trkpt>
      <trkpt lat="37.75415760464966297149658203125" lon="-107.70818674005568027496337890625">
        <ele>3514.60009765625</ele>
        <time>2023-07-29T18:05:52.000Z</time>
        <extensions>
          <ns3:TrackPointExtension>
            <ns3:hr>85</ns3:hr>
            <ns3:cad>56</ns3:cad>
          </ns3:TrackPointExtension>
        </extensions>
      </trkpt>
      <trkpt lat="37.75414955802261829376220703125" lon="-107.708199061453342437744140625">
        <ele>3514.39990234375</ele>
        <time>2023-07-29T18:05:53.000Z</time>
        <extensions>
          <ns3:TrackPointExtension>
            <ns3:hr>85</ns3:hr>
            <ns3:cad>56</ns3:cad>
          </ns3:TrackPointExtension>
        </extensions>
      </trkpt>
      <trkpt lat="37.7541385777294635772705078125" lon="-107.70821146667003631591796875">
        <ele>3514.199951171875</ele>
        <time>2023-07-29T18:05:54.000Z</time>
        <extensions>
          <ns3:TrackPointExtension>
            <ns3:hr>85</ns3:hr>
            <ns3:cad>56</ns3:cad>
          </ns3:TrackPointExtension>
        </extensions>
      </trkpt>
      <trkpt lat="37.75412592105567455291748046875" lon="-107.70822814665734767913818359375">
        <ele>3514</ele>
        <time>2023-07-29T18:05:55.000Z</time>
        <extensions>
          <ns3:TrackPointExtension>
            <ns3:hr>86</ns3:hr>
            <ns3:cad>56</ns3:cad>
          </ns3:TrackPointExtension>
        </extensions>
      </trkpt>
      <trkpt lat="37.754115946590900421142578125" lon="-107.708239294588565826416015625">
        <ele>3514</ele>
        <time>2023-07-29T18:05:56.000Z</time>
        <extensions>
          <ns3:TrackPointExtension>
            <ns3:hr>86</ns3:hr>
            <ns3:cad>56</ns3:cad>
          </ns3:TrackPointExtension>
        </extensions>
      </trkpt>
      <trkpt lat="37.75410127826035022735595703125" lon="-107.7082518674433231353759765625">
        <ele>3513.800048828125</ele>
        <time>2023-07-29T18:05:57.000Z</time>
        <extensions>
          <ns3:TrackPointExtension>
            <ns3:hr>86</ns3:hr>
            <ns3:cad>55</ns3:cad>
          </ns3:TrackPointExtension>
        </extensions>
      </trkpt>
      <trkpt lat="37.75409080088138580322265625" lon="-107.70826452411711215972900390625">
        <ele>3513.60009765625</ele>
        <time>2023-07-29T18:05:58.000Z</time>
        <extensions>
          <ns3:TrackPointExtension>
            <ns3:hr>86</ns3:hr>
            <ns3:cad>55</ns3:cad>
          </ns3:TrackPointExtension>
        </extensions>
      </trkpt>
      <trkpt lat="37.754082418978214263916015625" lon="-107.7082756720483303070068359375">
        <ele>3513.199951171875</ele>
        <time>2023-07-29T18:05:59.000Z</time>
        <extensions>
          <ns3:TrackPointExtension>
            <ns3:hr>86</ns3:hr>
            <ns3:cad>55</ns3:cad>
          </ns3:TrackPointExtension>
        </extensions>
      </trkpt>
      <trkpt lat="37.75407395325601100921630859375" lon="-107.70828749053180217742919921875">
        <ele>3512.800048828125</ele>
        <time>2023-07-29T18:06:00.000Z</time>
        <extensions>
          <ns3:TrackPointExtension>
            <ns3:hr>87</ns3:hr>
            <ns3:cad>55</ns3:cad>
          </ns3:TrackPointExtension>
        </extensions>
      </trkpt>
      <trkpt lat="37.75406255386769771575927734375" lon="-107.70829956047236919403076171875">
        <ele>3512.60009765625</ele>
        <time>2023-07-29T18:06:01.000Z</time>
        <extensions>
          <ns3:TrackPointExtension>
            <ns3:hr>88</ns3:hr>
            <ns3:cad>55</ns3:cad>
          </ns3:TrackPointExtension>
        </extensions>
      </trkpt>
      <trkpt lat="37.75405534543097019195556640625" lon="-107.70831179805099964141845703125">
        <ele>3512</ele>
        <time>2023-07-29T18:06:02.000Z</time>
        <extensions>
          <ns3:TrackPointExtension>
            <ns3:hr>88</ns3:hr>
            <ns3:cad>55</ns3:cad>
          </ns3:TrackPointExtension>
        </extensions>
      </trkpt>
      <trkpt lat="37.75404025800526142120361328125" lon="-107.708333171904087066650390625">
        <ele>3511.800048828125</ele>
        <time>2023-07-29T18:06:03.000Z</time>
        <extensions>
          <ns3:TrackPointExtension>
            <ns3:hr>88</ns3:hr>
            <ns3:cad>55</ns3:cad>
          </ns3:TrackPointExtension>
        </extensions>
      </trkpt>
      <trkpt lat="37.7540292777121067047119140625" lon="-107.70835337229073047637939453125">
        <ele>3511.60009765625</ele>
        <time>2023-07-29T18:06:04.000Z</time>
        <extensions>
          <ns3:TrackPointExtension>
            <ns3:hr>89</ns3:hr>
            <ns3:cad>55</ns3:cad>
          </ns3:TrackPointExtension>
        </extensions>
      </trkpt>
      <trkpt lat="37.754022069275379180908203125" lon="-107.70836527459323406219482421875">
        <ele>3511.39990234375</ele>
        <time>2023-07-29T18:06:05.000Z</time>
        <extensions>
          <ns3:TrackPointExtension>
            <ns3:hr>89</ns3:hr>
            <ns3:cad>0</ns3:cad>
          </ns3:TrackPointExtension>
        </extensions>
      </trkpt>
      <trkpt lat="37.7540151961147785186767578125" lon="-107.70838044583797454833984375">
        <ele>3511.39990234375</ele>
        <time>2023-07-29T18:06:06.000Z</time>
        <extensions>
          <ns3:TrackPointExtension>
            <ns3:hr>89</ns3:hr>
            <ns3:cad>0</ns3:cad>
          </ns3:TrackPointExtension>
        </extensions>
      </trkpt>
      <trkpt lat="37.75401611812412738800048828125" lon="-107.7083829604089260101318359375">
        <ele>3511.199951171875</ele>
        <time>2023-07-29T18:06:07.000Z</time>
        <extensions>
          <ns3:TrackPointExtension>
            <ns3:hr>89</ns3:hr>
            <ns3:cad>0</ns3:cad>
          </ns3:TrackPointExtension>
        </extensions>
      </trkpt>
      <trkpt lat="37.75401226244866847991943359375" lon="-107.70838874392211437225341796875">
        <ele>3511.199951171875</ele>
        <time>2023-07-29T18:06:08.000Z</time>
        <extensions>
          <ns3:TrackPointExtension>
            <ns3:hr>89</ns3:hr>
            <ns3:cad>0</ns3:cad>
          </ns3:TrackPointExtension>
        </extensions>
      </trkpt>
      <trkpt lat="37.754011340439319610595703125" lon="-107.70839276723563671112060546875">
        <ele>3511.199951171875</ele>
        <time>2023-07-29T18:06:09.000Z</time>
        <extensions>
          <ns3:TrackPointExtension>
            <ns3:hr>89</ns3:hr>
            <ns3:cad>0</ns3:cad>
          </ns3:TrackPointExtension>
        </extensions>
      </trkpt>
      <trkpt lat="37.75400320999324321746826171875" lon="-107.708402909338474273681640625">
        <ele>3511</ele>
        <time>2023-07-29T18:06:10.000Z</time>
        <extensions>
          <ns3:TrackPointExtension>
            <ns3:hr>90</ns3:hr>
            <ns3:cad>0</ns3:cad>
          </ns3:TrackPointExtension>
        </extensions>
      </trkpt>
      <trkpt lat="37.7539960853755474090576171875" lon="-107.7084154821932315826416015625">
        <ele>3511</ele>
        <time>2023-07-29T18:06:11.000Z</time>
        <extensions>
          <ns3:TrackPointExtension>
            <ns3:hr>90</ns3:hr>
            <ns3:cad>0</ns3:cad>
          </ns3:TrackPointExtension>
        </extensions>
      </trkpt>
      <trkpt lat="37.753989212214946746826171875" lon="-107.70842847414314746856689453125">
        <ele>3510.800048828125</ele>
        <time>2023-07-29T18:06:12.000Z</time>
        <extensions>
          <ns3:TrackPointExtension>
            <ns3:hr>90</ns3:hr>
            <ns3:cad>0</ns3:cad>
          </ns3:TrackPointExtension>
        </extensions>
      </trkpt>
      <trkpt lat="37.75398083031177520751953125" lon="-107.708440124988555908203125">
        <ele>3510.800048828125</ele>
        <time>2023-07-29T18:06:13.000Z</time>
        <extensions>
          <ns3:TrackPointExtension>
            <ns3:hr>90</ns3:hr>
            <ns3:cad>0</ns3:cad>
          </ns3:TrackPointExtension>
        </extensions>
      </trkpt>
      <trkpt lat="37.7539722807705402374267578125" lon="-107.70845278166234493255615234375">
        <ele>3510.800048828125</ele>
        <time>2023-07-29T18:06:14.000Z</time>
        <extensions>
          <ns3:TrackPointExtension>
            <ns3:hr>90</ns3:hr>
            <ns3:cad>0</ns3:cad>
          </ns3:TrackPointExtension>
        </extensions>
      </trkpt>
      <trkpt lat="37.75396347977221012115478515625" lon="-107.7084607444703578948974609375">
        <ele>3510.800048828125</ele>
        <time>2023-07-29T18:06:15.000Z</time>
        <extensions>
          <ns3:TrackPointExtension>
            <ns3:hr>91</ns3:hr>
            <ns3:cad>0</ns3:cad>
          </ns3:TrackPointExtension>
        </extensions>
      </trkpt>
      <trkpt lat="37.75395073927938938140869140625" lon="-107.708473987877368927001953125">
        <ele>3510.60009765625</ele>
        <time>2023-07-29T18:06:16.000Z</time>
        <extensions>
          <ns3:TrackPointExtension>
            <ns3:hr>91</ns3:hr>
            <ns3:cad>0</ns3:cad>
          </ns3:TrackPointExtension>
        </extensions>
      </trkpt>
      <trkpt lat="37.753938250243663787841796875" lon="-107.70848295651376247406005859375">
        <ele>3510.199951171875</ele>
        <time>2023-07-29T18:06:17.000Z</time>
        <extensions>
          <ns3:TrackPointExtension>
            <ns3:hr>90</ns3:hr>
            <ns3:cad>0</ns3:cad>
          </ns3:TrackPointExtension>
        </extensions>
      </trkpt>
      <trkpt lat="37.753924839198589324951171875" lon="-107.70849435590207576751708984375">
        <ele>3510</ele>
        <time>2023-07-29T18:06:18.000Z</time>
        <extensions>
          <ns3:TrackPointExtension>
            <ns3:hr>90</ns3:hr>
            <ns3:cad>0</ns3:cad>
          </ns3:TrackPointExtension>
        </extensions>
      </trkpt>
      <trkpt lat="37.75391201488673686981201171875" lon="-107.70850139670073986053466796875">
        <ele>3509.800048828125</ele>
        <time>2023-07-29T18:06:19.000Z</time>
        <extensions>
          <ns3:TrackPointExtension>
            <ns3:hr>90</ns3:hr>
            <ns3:cad>0</ns3:cad>
          </ns3:TrackPointExtension>
        </extensions>
      </trkpt>
      <trkpt lat="37.75389759801328182220458984375" lon="-107.70851212553679943084716796875">
        <ele>3509.60009765625</ele>
        <time>2023-07-29T18:06:20.000Z</time>
        <extensions>
          <ns3:TrackPointExtension>
            <ns3:hr>90</ns3:hr>
            <ns3:cad>0</ns3:cad>
          </ns3:TrackPointExtension>
        </extensions>
      </trkpt>
      <trkpt lat="37.75387848727405071258544921875" lon="-107.708524949848651885986328125">
        <ele>3509.39990234375</ele>
        <time>2023-07-29T18:06:21.000Z</time>
        <extensions>
          <ns3:TrackPointExtension>
            <ns3:hr>89</ns3:hr>
            <ns3:cad>0</ns3:cad>
          </ns3:TrackPointExtension>
        </extensions>
      </trkpt>
      <trkpt lat="37.75386817753314971923828125" lon="-107.7085371874272823333740234375">
        <ele>3509.199951171875</ele>
        <time>2023-07-29T18:06:22.000Z</time>
        <extensions>
          <ns3:TrackPointExtension>
            <ns3:hr>89</ns3:hr>
            <ns3:cad>0</ns3:cad>
          </ns3:TrackPointExtension>
        </extensions>
      </trkpt>
      <trkpt lat="37.7538634836673736572265625" lon="-107.7085499279201030731201171875">
        <ele>3509</ele>
        <time>2023-07-29T18:06:23.000Z</time>
        <extensions>
          <ns3:TrackPointExtension>
            <ns3:hr>89</ns3:hr>
            <ns3:cad>0</ns3:cad>
          </ns3:TrackPointExtension>
        </extensions>
      </trkpt>
      <trkpt lat="37.75386624969542026519775390625" lon="-107.708564512431621551513671875">
        <ele>3509</ele>
        <time>2023-07-29T18:06:24.000Z</time>
        <extensions>
          <ns3:TrackPointExtension>
            <ns3:hr>89</ns3:hr>
            <ns3:cad>0</ns3:cad>
          </ns3:TrackPointExtension>
        </extensions>
      </trkpt>
      <trkpt lat="37.75386004708707332611083984375" lon="-107.7085737325251102447509765625">
        <ele>3508.800048828125</ele>
        <time>2023-07-29T18:06:25.000Z</time>
        <extensions>
          <ns3:TrackPointExtension>
            <ns3:hr>88</ns3:hr>
            <ns3:cad>0</ns3:cad>
          </ns3:TrackPointExtension>
        </extensions>
      </trkpt>
      <trkpt lat="37.75385200046002864837646484375" lon="-107.70858404226601123809814453125">
        <ele>3508.39990234375</ele>
        <time>2023-07-29T18:06:26.000Z</time>
        <extensions>
          <ns3:TrackPointExtension>
            <ns3:hr>88</ns3:hr>
            <ns3:cad>0</ns3:cad>
          </ns3:TrackPointExtension>
        </extensions>
      </trkpt>
      <trkpt lat="37.75384395383298397064208984375" lon="-107.70859544165432453155517578125">
        <ele>3508.199951171875</ele>
        <time>2023-07-29T18:06:27.000Z</time>
        <extensions>
          <ns3:TrackPointExtension>
            <ns3:hr>88</ns3:hr>
            <ns3:cad>0</ns3:cad>
          </ns3:TrackPointExtension>
        </extensions>
      </trkpt>
      <trkpt lat="37.75383590720593929290771484375" lon="-107.70860633812844753265380859375">
        <ele>3508</ele>
        <time>2023-07-29T18:06:28.000Z</time>
        <extensions>
          <ns3:TrackPointExtension>
            <ns3:hr>88</ns3:hr>
            <ns3:cad>0</ns3:cad>
          </ns3:TrackPointExtension>
        </extensions>
      </trkpt>
      <trkpt lat="37.753830291330814361572265625" lon="-107.708616144955158233642578125">
        <ele>3508</ele>
        <time>2023-07-29T18:06:29.000Z</time>
        <extensions>
          <ns3:TrackPointExtension>
            <ns3:hr>88</ns3:hr>
            <ns3:cad>0</ns3:cad>
          </ns3:TrackPointExtension>
        </extensions>
      </trkpt>
      <trkpt lat="37.75382392108440399169921875" lon="-107.7086236886680126190185546875">
        <ele>3508</ele>
        <time>2023-07-29T18:06:30.000Z</time>
        <extensions>
          <ns3:TrackPointExtension>
            <ns3:hr>88</ns3:hr>
            <ns3:cad>0</ns3:cad>
          </ns3:TrackPointExtension>
        </extensions>
      </trkpt>
      <trkpt lat="37.7538133598864078521728515625" lon="-107.70863592624664306640625">
        <ele>3507.60009765625</ele>
        <time>2023-07-29T18:06:31.000Z</time>
        <extensions>
          <ns3:TrackPointExtension>
            <ns3:hr>88</ns3:hr>
            <ns3:cad>0</ns3:cad>
          </ns3:TrackPointExtension>
        </extensions>
      </trkpt>
      <trkpt lat="37.75380657054483890533447265625" lon="-107.70864740945398807525634765625">
        <ele>3507.199951171875</ele>
        <time>2023-07-29T18:06:32.000Z</time>
        <extensions>
          <ns3:TrackPointExtension>
            <ns3:hr>88</ns3:hr>
            <ns3:cad>0</ns3:cad>
          </ns3:TrackPointExtension>
        </extensions>
      </trkpt>
      <trkpt lat="37.7538033016026020050048828125" lon="-107.7086525224149227142333984375">
        <ele>3507.199951171875</ele>
        <time>2023-07-29T18:06:33.000Z</time>
        <extensions>
          <ns3:TrackPointExtension>
            <ns3:hr>88</ns3:hr>
            <ns3:cad>0</ns3:cad>
          </ns3:TrackPointExtension>
        </extensions>
      </trkpt>
      <trkpt lat="37.753797434270381927490234375" lon="-107.7086609043180942535400390625">
        <ele>3507</ele>
        <time>2023-07-29T18:06:34.000Z</time>
        <extensions>
          <ns3:TrackPointExtension>
            <ns3:hr>88</ns3:hr>
            <ns3:cad>0</ns3:cad>
          </ns3:TrackPointExtension>
        </extensions>
      </trkpt>
      <trkpt lat="37.75378796271979808807373046875" lon="-107.7086699567735195159912109375">
        <ele>3507</ele>
        <time>2023-07-29T18:06:35.000Z</time>
        <extensions>
          <ns3:TrackPointExtension>
            <ns3:hr>88</ns3:hr>
            <ns3:cad>0</ns3:cad>
          </ns3:TrackPointExtension>
        </extensions>
      </trkpt>
      <trkpt lat="37.7537808381021022796630859375" lon="-107.70867691375315189361572265625">
        <ele>3506.60009765625</ele>
        <time>2023-07-29T18:06:36.000Z</time>
        <extensions>
          <ns3:TrackPointExtension>
            <ns3:hr>87</ns3:hr>
            <ns3:cad>0</ns3:cad>
          </ns3:TrackPointExtension>
        </extensions>
      </trkpt>
      <trkpt lat="37.7537744678556919097900390625" lon="-107.7086837030947208404541015625">
        <ele>3506.39990234375</ele>
        <time>2023-07-29T18:06:37.000Z</time>
        <extensions>
          <ns3:TrackPointExtension>
            <ns3:hr>87</ns3:hr>
            <ns3:cad>0</ns3:cad>
          </ns3:TrackPointExtension>
        </extensions>
      </trkpt>
      <trkpt lat="37.75377052836120128631591796875" lon="-107.70868630148470401763916015625">
        <ele>3506.199951171875</ele>
        <time>2023-07-29T18:06:38.000Z</time>
        <extensions>
          <ns3:TrackPointExtension>
            <ns3:hr>87</ns3:hr>
            <ns3:cad>0</ns3:cad>
          </ns3:TrackPointExtension>
        </extensions>
      </trkpt>
      <trkpt lat="37.75376415811479091644287109375" lon="-107.70869250409305095672607421875">
        <ele>3506</ele>
        <time>2023-07-29T18:06:39.000Z</time>
        <extensions>
          <ns3:TrackPointExtension>
            <ns3:hr>87</ns3:hr>
            <ns3:cad>0</ns3:cad>
          </ns3:TrackPointExtension>
        </extensions>
      </trkpt>
      <trkpt lat="37.7537548542022705078125" lon="-107.7087016403675079345703125">
        <ele>3505.800048828125</ele>
        <time>2023-07-29T18:06:40.000Z</time>
        <extensions>
          <ns3:TrackPointExtension>
            <ns3:hr>87</ns3:hr>
            <ns3:cad>0</ns3:cad>
          </ns3:TrackPointExtension>
        </extensions>
      </trkpt>
      <trkpt lat="37.753746807575225830078125" lon="-107.70870926789939403533935546875">
        <ele>3505.60009765625</ele>
        <time>2023-07-29T18:06:41.000Z</time>
        <extensions>
          <ns3:TrackPointExtension>
            <ns3:hr>86</ns3:hr>
            <ns3:cad>0</ns3:cad>
          </ns3:TrackPointExtension>
        </extensions>
      </trkpt>
      <trkpt lat="37.7537409402430057525634765625" lon="-107.7087179012596607208251953125">
        <ele>3505.39990234375</ele>
        <time>2023-07-29T18:06:42.000Z</time>
        <extensions>
          <ns3:TrackPointExtension>
            <ns3:hr>86</ns3:hr>
            <ns3:cad>19</ns3:cad>
          </ns3:TrackPointExtension>
        </extensions>
      </trkpt>
      <trkpt lat="37.75373130105435848236083984375" lon="-107.70872913300991058349609375">
        <ele>3505.199951171875</ele>
        <time>2023-07-29T18:06:43.000Z</time>
        <extensions>
          <ns3:TrackPointExtension>
            <ns3:hr>86</ns3:hr>
            <ns3:cad>19</ns3:cad>
          </ns3:TrackPointExtension>
        </extensions>
      </trkpt>
      <trkpt lat="37.753724344074726104736328125" lon="-107.70873642526566982269287109375">
        <ele>3505</ele>
        <time>2023-07-29T18:06:44.000Z</time>
        <extensions>
          <ns3:TrackPointExtension>
            <ns3:hr>86</ns3:hr>
            <ns3:cad>19</ns3:cad>
          </ns3:TrackPointExtension>
        </extensions>
      </trkpt>
      <trkpt lat="37.75372073985636234283447265625" lon="-107.70874128676950931549072265625">
        <ele>3504.800048828125</ele>
        <time>2023-07-29T18:06:45.000Z</time>
        <extensions>
          <ns3:TrackPointExtension>
            <ns3:hr>86</ns3:hr>
            <ns3:cad>0</ns3:cad>
          </ns3:TrackPointExtension>
        </extensions>
      </trkpt>
      <trkpt lat="37.75371395051479339599609375" lon="-107.70875453017652034759521484375">
        <ele>3504.39990234375</ele>
        <time>2023-07-29T18:06:46.000Z</time>
        <extensions>
          <ns3:TrackPointExtension>
            <ns3:hr>86</ns3:hr>
            <ns3:cad>0</ns3:cad>
          </ns3:TrackPointExtension>
        </extensions>
      </trkpt>
      <trkpt lat="37.75370900519192218780517578125" lon="-107.70876291207969188690185546875">
        <ele>3504.199951171875</ele>
        <time>2023-07-29T18:06:47.000Z</time>
        <extensions>
          <ns3:TrackPointExtension>
            <ns3:hr>86</ns3:hr>
            <ns3:cad>44</ns3:cad>
          </ns3:TrackPointExtension>
        </extensions>
      </trkpt>
      <trkpt lat="37.75370431132614612579345703125" lon="-107.70877012051641941070556640625">
        <ele>3504</ele>
        <time>2023-07-29T18:06:48.000Z</time>
        <extensions>
          <ns3:TrackPointExtension>
            <ns3:hr>86</ns3:hr>
            <ns3:cad>44</ns3:cad>
          </ns3:TrackPointExtension>
        </extensions>
      </trkpt>
      <trkpt lat="37.75369777344167232513427734375" lon="-107.70877833478152751922607421875">
        <ele>3503.60009765625</ele>
        <time>2023-07-29T18:06:49.000Z</time>
        <extensions>
          <ns3:TrackPointExtension>
            <ns3:hr>86</ns3:hr>
            <ns3:cad>47</ns3:cad>
          </ns3:TrackPointExtension>
        </extensions>
      </trkpt>
      <trkpt lat="37.753689475357532501220703125" lon="-107.7087832801043987274169921875">
        <ele>3503.60009765625</ele>
        <time>2023-07-29T18:06:50.000Z</time>
        <extensions>
          <ns3:TrackPointExtension>
            <ns3:hr>86</ns3:hr>
            <ns3:cad>47</ns3:cad>
          </ns3:TrackPointExtension>
        </extensions>
      </trkpt>
      <trkpt lat="37.753684781491756439208984375" lon="-107.7087794244289398193359375">
        <ele>3503.39990234375</ele>
        <time>2023-07-29T18:06:51.000Z</time>
        <extensions>
          <ns3:TrackPointExtension>
            <ns3:hr>86</ns3:hr>
            <ns3:cad>47</ns3:cad>
          </ns3:TrackPointExtension>
        </extensions>
      </trkpt>
      <trkpt lat="37.7536815963685512542724609375" lon="-107.7087745629251003265380859375">
        <ele>3503.199951171875</ele>
        <time>2023-07-29T18:06:52.000Z</time>
        <extensions>
          <ns3:TrackPointExtension>
            <ns3:hr>86</ns3:hr>
            <ns3:cad>47</ns3:cad>
          </ns3:TrackPointExtension>
        </extensions>
      </trkpt>
      <trkpt lat="37.75367061607539653778076171875" lon="-107.708773054182529449462890625">
        <ele>3503</ele>
        <time>2023-07-29T18:06:53.000Z</time>
        <extensions>
          <ns3:TrackPointExtension>
            <ns3:hr>86</ns3:hr>
            <ns3:cad>0</ns3:cad>
          </ns3:TrackPointExtension>
        </extensions>
      </trkpt>
      <trkpt lat="37.7536641620099544525146484375" lon="-107.70877196453511714935302734375">
        <ele>3502.800048828125</ele>
        <time>2023-07-29T18:06:54.000Z</time>
        <extensions>
          <ns3:TrackPointExtension>
            <ns3:hr>86</ns3:hr>
            <ns3:cad>0</ns3:cad>
          </ns3:TrackPointExtension>
        </extensions>
      </trkpt>
      <trkpt lat="37.7536618150770664215087890625" lon="-107.70876760594546794891357421875">
        <ele>3502.60009765625</ele>
        <time>2023-07-29T18:06:55.000Z</time>
        <extensions>
          <ns3:TrackPointExtension>
            <ns3:hr>86</ns3:hr>
            <ns3:cad>0</ns3:cad>
          </ns3:TrackPointExtension>
        </extensions>
      </trkpt>
      <trkpt lat="37.7536577917635440826416015625" lon="-107.70876760594546794891357421875">
        <ele>3502.199951171875</ele>
        <time>2023-07-29T18:06:56.000Z</time>
        <extensions>
          <ns3:TrackPointExtension>
            <ns3:hr>86</ns3:hr>
            <ns3:cad>0</ns3:cad>
          </ns3:TrackPointExtension>
        </extensions>
      </trkpt>
      <trkpt lat="37.7536530978977680206298828125" lon="-107.708767689764499664306640625">
        <ele>3502</ele>
        <time>2023-07-29T18:06:57.000Z</time>
        <extensions>
          <ns3:TrackPointExtension>
            <ns3:hr>86</ns3:hr>
            <ns3:cad>0</ns3:cad>
          </ns3:TrackPointExtension>
        </extensions>
      </trkpt>
      <trkpt lat="37.753655612468719482421875" lon="-107.7087695337831974029541015625">
        <ele>3501.60009765625</ele>
        <time>2023-07-29T18:06:58.000Z</time>
        <extensions>
          <ns3:TrackPointExtension>
            <ns3:hr>87</ns3:hr>
            <ns3:cad>0</ns3:cad>
          </ns3:TrackPointExtension>
        </extensions>
      </trkpt>
      <trkpt lat="37.75365334935486316680908203125" lon="-107.708771042525768280029296875">
        <ele>3501.199951171875</ele>
        <time>2023-07-29T18:06:59.000Z</time>
        <extensions>
          <ns3:TrackPointExtension>
            <ns3:hr>87</ns3:hr>
            <ns3:cad>0</ns3:cad>
          </ns3:TrackPointExtension>
        </extensions>
      </trkpt>
      <trkpt lat="37.75364647619426250457763671875" lon="-107.70877481438219547271728515625">
        <ele>3501</ele>
        <time>2023-07-29T18:07:00.000Z</time>
        <extensions>
          <ns3:TrackPointExtension>
            <ns3:hr>87</ns3:hr>
            <ns3:cad>0</ns3:cad>
          </ns3:TrackPointExtension>
        </extensions>
      </trkpt>
      <trkpt lat="37.75363616645336151123046875" lon="-107.7087795920670032501220703125">
        <ele>3500.60009765625</ele>
        <time>2023-07-29T18:07:01.000Z</time>
        <extensions>
          <ns3:TrackPointExtension>
            <ns3:hr>87</ns3:hr>
            <ns3:cad>43</ns3:cad>
          </ns3:TrackPointExtension>
        </extensions>
      </trkpt>
      <trkpt lat="37.75362552143633365631103515625" lon="-107.7087862975895404815673828125">
        <ele>3500.39990234375</ele>
        <time>2023-07-29T18:07:02.000Z</time>
        <extensions>
          <ns3:TrackPointExtension>
            <ns3:hr>87</ns3:hr>
            <ns3:cad>43</ns3:cad>
          </ns3:TrackPointExtension>
        </extensions>
      </trkpt>
      <trkpt lat="37.753618061542510986328125" lon="-107.708791159093379974365234375">
        <ele>3500.199951171875</ele>
        <time>2023-07-29T18:07:03.000Z</time>
        <extensions>
          <ns3:TrackPointExtension>
            <ns3:hr>87</ns3:hr>
            <ns3:cad>43</ns3:cad>
          </ns3:TrackPointExtension>
        </extensions>
      </trkpt>
      <trkpt lat="37.75361462496221065521240234375" lon="-107.7087980322539806365966796875">
        <ele>3500</ele>
        <time>2023-07-29T18:07:04.000Z</time>
        <extensions>
          <ns3:TrackPointExtension>
            <ns3:hr>88</ns3:hr>
            <ns3:cad>43</ns3:cad>
          </ns3:TrackPointExtension>
        </extensions>
      </trkpt>
      <trkpt lat="37.7536105178296566009521484375" lon="-107.70880146883428096771240234375">
        <ele>3499.60009765625</ele>
        <time>2023-07-29T18:07:05.000Z</time>
        <extensions>
          <ns3:TrackPointExtension>
            <ns3:hr>88</ns3:hr>
            <ns3:cad>43</ns3:cad>
          </ns3:TrackPointExtension>
        </extensions>
      </trkpt>
      <trkpt lat="37.75361093692481517791748046875" lon="-107.70880423486232757568359375">
        <ele>3499.199951171875</ele>
        <time>2023-07-29T18:07:06.000Z</time>
        <extensions>
          <ns3:TrackPointExtension>
            <ns3:hr>88</ns3:hr>
            <ns3:cad>43</ns3:cad>
          </ns3:TrackPointExtension>
        </extensions>
      </trkpt>
      <trkpt lat="37.75361194275319576263427734375" lon="-107.70880289375782012939453125">
        <ele>3498.800048828125</ele>
        <time>2023-07-29T18:07:07.000Z</time>
        <extensions>
          <ns3:TrackPointExtension>
            <ns3:hr>88</ns3:hr>
            <ns3:cad>43</ns3:cad>
          </ns3:TrackPointExtension>
        </extensions>
      </trkpt>
      <trkpt lat="37.7536140382289886474609375" lon="-107.7088054083287715911865234375">
        <ele>3498.60009765625</ele>
        <time>2023-07-29T18:07:08.000Z</time>
        <extensions>
          <ns3:TrackPointExtension>
            <ns3:hr>88</ns3:hr>
            <ns3:cad>47</ns3:cad>
          </ns3:TrackPointExtension>
        </extensions>
      </trkpt>
      <trkpt lat="37.75360942818224430084228515625" lon="-107.70881404168903827667236328125">
        <ele>3498.39990234375</ele>
        <time>2023-07-29T18:07:09.000Z</time>
        <extensions>
          <ns3:TrackPointExtension>
            <ns3:hr>88</ns3:hr>
            <ns3:cad>47</ns3:cad>
          </ns3:TrackPointExtension>
        </extensions>
      </trkpt>
      <trkpt lat="37.75360657833516597747802734375" lon="-107.70882460288703441619873046875">
        <ele>3498.199951171875</ele>
        <time>2023-07-29T18:07:10.000Z</time>
        <extensions>
          <ns3:TrackPointExtension>
            <ns3:hr>88</ns3:hr>
            <ns3:cad>47</ns3:cad>
          </ns3:TrackPointExtension>
        </extensions>
      </trkpt>
      <trkpt lat="37.75360205210745334625244140625" lon="-107.70883373916149139404296875">
        <ele>3498</ele>
        <time>2023-07-29T18:07:11.000Z</time>
        <extensions>
          <ns3:TrackPointExtension>
            <ns3:hr>88</ns3:hr>
            <ns3:cad>47</ns3:cad>
          </ns3:TrackPointExtension>
        </extensions>
      </trkpt>
      <trkpt lat="37.753595598042011260986328125" lon="-107.70884354598820209503173828125">
        <ele>3497.60009765625</ele>
        <time>2023-07-29T18:07:12.000Z</time>
        <extensions>
          <ns3:TrackPointExtension>
            <ns3:hr>87</ns3:hr>
            <ns3:cad>0</ns3:cad>
          </ns3:TrackPointExtension>
        </extensions>
      </trkpt>
      <trkpt lat="37.75358780287206172943115234375" lon="-107.7088590525090694427490234375">
        <ele>3497.199951171875</ele>
        <time>2023-07-29T18:07:13.000Z</time>
        <extensions>
          <ns3:TrackPointExtension>
            <ns3:hr>87</ns3:hr>
            <ns3:cad>0</ns3:cad>
          </ns3:TrackPointExtension>
        </extensions>
      </trkpt>
      <trkpt lat="37.75357992388308048248291015625" lon="-107.7088701166212558746337890625">
        <ele>3496.800048828125</ele>
        <time>2023-07-29T18:07:14.000Z</time>
        <extensions>
          <ns3:TrackPointExtension>
            <ns3:hr>87</ns3:hr>
            <ns3:cad>0</ns3:cad>
          </ns3:TrackPointExtension>
        </extensions>
      </trkpt>
      <trkpt lat="37.75357455946505069732666015625" lon="-107.70887740887701511383056640625">
        <ele>3496.60009765625</ele>
        <time>2023-07-29T18:07:15.000Z</time>
        <extensions>
          <ns3:TrackPointExtension>
            <ns3:hr>87</ns3:hr>
            <ns3:cad>0</ns3:cad>
          </ns3:TrackPointExtension>
        </extensions>
      </trkpt>
      <trkpt lat="37.75356835685670375823974609375" lon="-107.70888176746666431427001953125">
        <ele>3496.199951171875</ele>
        <time>2023-07-29T18:07:16.000Z</time>
        <extensions>
          <ns3:TrackPointExtension>
            <ns3:hr>87</ns3:hr>
            <ns3:cad>0</ns3:cad>
          </ns3:TrackPointExtension>
        </extensions>
      </trkpt>
      <trkpt lat="37.75356651283800601959228515625" lon="-107.7088811807334423065185546875">
        <ele>3496</ele>
        <time>2023-07-29T18:07:17.000Z</time>
        <extensions>
          <ns3:TrackPointExtension>
            <ns3:hr>87</ns3:hr>
            <ns3:cad>0</ns3:cad>
          </ns3:TrackPointExtension>
        </extensions>
      </trkpt>
      <trkpt lat="37.75356374680995941162109375" lon="-107.70887154154479503631591796875">
        <ele>3495.800048828125</ele>
        <time>2023-07-29T18:07:18.000Z</time>
        <extensions>
          <ns3:TrackPointExtension>
            <ns3:hr>87</ns3:hr>
            <ns3:cad>0</ns3:cad>
          </ns3:TrackPointExtension>
        </extensions>
      </trkpt>
      <trkpt lat="37.753559052944183349609375" lon="-107.70886592566967010498046875">
        <ele>3495.39990234375</ele>
        <time>2023-07-29T18:07:19.000Z</time>
        <extensions>
          <ns3:TrackPointExtension>
            <ns3:hr>88</ns3:hr>
            <ns3:cad>0</ns3:cad>
          </ns3:TrackPointExtension>
        </extensions>
      </trkpt>
      <trkpt lat="37.7535448037087917327880859375" lon="-107.70886986516416072845458984375">
        <ele>3495.199951171875</ele>
        <time>2023-07-29T18:07:20.000Z</time>
        <extensions>
          <ns3:TrackPointExtension>
            <ns3:hr>88</ns3:hr>
            <ns3:cad>0</ns3:cad>
          </ns3:TrackPointExtension>
        </extensions>
      </trkpt>
      <trkpt lat="37.75353885255753993988037109375" lon="-107.70887036807835102081298828125">
        <ele>3495</ele>
        <time>2023-07-29T18:07:21.000Z</time>
        <extensions>
          <ns3:TrackPointExtension>
            <ns3:hr>88</ns3:hr>
            <ns3:cad>0</ns3:cad>
          </ns3:TrackPointExtension>
        </extensions>
      </trkpt>
      <trkpt lat="37.7535313926637172698974609375" lon="-107.708873637020587921142578125">
        <ele>3495</ele>
        <time>2023-07-29T18:07:22.000Z</time>
        <extensions>
          <ns3:TrackPointExtension>
            <ns3:hr>87</ns3:hr>
            <ns3:cad>0</ns3:cad>
          </ns3:TrackPointExtension>
        </extensions>
      </trkpt>
      <trkpt lat="37.75352208875119686126708984375" lon="-107.70887455902993679046630859375">
        <ele>3494.60009765625</ele>
        <time>2023-07-29T18:07:23.000Z</time>
        <extensions>
          <ns3:TrackPointExtension>
            <ns3:hr>87</ns3:hr>
            <ns3:cad>0</ns3:cad>
          </ns3:TrackPointExtension>
        </extensions>
      </trkpt>
      <trkpt lat="37.7535142935812473297119140625" lon="-107.70887640304863452911376953125">
        <ele>3494.39990234375</ele>
        <time>2023-07-29T18:07:24.000Z</time>
        <extensions>
          <ns3:TrackPointExtension>
            <ns3:hr>86</ns3:hr>
            <ns3:cad>0</ns3:cad>
          </ns3:TrackPointExtension>
        </extensions>
      </trkpt>
      <trkpt lat="37.75351353920996189117431640625" lon="-107.7088768221437931060791015625">
        <ele>3494.199951171875</ele>
        <time>2023-07-29T18:07:25.000Z</time>
        <extensions>
          <ns3:TrackPointExtension>
            <ns3:hr>86</ns3:hr>
            <ns3:cad>0</ns3:cad>
          </ns3:TrackPointExtension>
        </extensions>
      </trkpt>
      <trkpt lat="37.75351236574351787567138671875" lon="-107.70887858234345912933349609375">
        <ele>3493.800048828125</ele>
        <time>2023-07-29T18:07:26.000Z</time>
        <extensions>
          <ns3:TrackPointExtension>
            <ns3:hr>86</ns3:hr>
            <ns3:cad>0</ns3:cad>
          </ns3:TrackPointExtension>
        </extensions>
      </trkpt>
      <trkpt lat="37.75350901298224925994873046875" lon="-107.70887975580990314483642578125">
        <ele>3493.60009765625</ele>
        <time>2023-07-29T18:07:27.000Z</time>
        <extensions>
          <ns3:TrackPointExtension>
            <ns3:hr>85</ns3:hr>
            <ns3:cad>0</ns3:cad>
          </ns3:TrackPointExtension>
        </extensions>
      </trkpt>
      <trkpt lat="37.75350817479193210601806640625" lon="-107.7088808454573154449462890625">
        <ele>3493.39990234375</ele>
        <time>2023-07-29T18:07:28.000Z</time>
        <extensions>
          <ns3:TrackPointExtension>
            <ns3:hr>85</ns3:hr>
            <ns3:cad>0</ns3:cad>
          </ns3:TrackPointExtension>
        </extensions>
      </trkpt>
      <trkpt lat="37.75350515730679035186767578125" lon="-107.70888268947601318359375">
        <ele>3493.199951171875</ele>
        <time>2023-07-29T18:07:29.000Z</time>
        <extensions>
          <ns3:TrackPointExtension>
            <ns3:hr>85</ns3:hr>
            <ns3:cad>0</ns3:cad>
          </ns3:TrackPointExtension>
        </extensions>
      </trkpt>
      <trkpt lat="37.75349644012749195098876953125" lon="-107.70888914354145526885986328125">
        <ele>3492.800048828125</ele>
        <time>2023-07-29T18:07:30.000Z</time>
        <extensions>
          <ns3:TrackPointExtension>
            <ns3:hr>84</ns3:hr>
            <ns3:cad>0</ns3:cad>
          </ns3:TrackPointExtension>
        </extensions>
      </trkpt>
      <trkpt lat="37.75349400937557220458984375" lon="-107.7088915742933750152587890625">
        <ele>3492.60009765625</ele>
        <time>2023-07-29T18:07:31.000Z</time>
        <extensions>
          <ns3:TrackPointExtension>
            <ns3:hr>84</ns3:hr>
            <ns3:cad>0</ns3:cad>
          </ns3:TrackPointExtension>
        </extensions>
      </trkpt>
      <trkpt lat="37.75348990224301815032958984375" lon="-107.7088979445397853851318359375">
        <ele>3492.39990234375</ele>
        <time>2023-07-29T18:07:32.000Z</time>
        <extensions>
          <ns3:TrackPointExtension>
            <ns3:hr>84</ns3:hr>
            <ns3:cad>68</ns3:cad>
          </ns3:TrackPointExtension>
        </extensions>
      </trkpt>
      <trkpt lat="37.75348437018692493438720703125" lon="-107.708908505737781524658203125">
        <ele>3492.199951171875</ele>
        <time>2023-07-29T18:07:33.000Z</time>
        <extensions>
          <ns3:TrackPointExtension>
            <ns3:hr>84</ns3:hr>
            <ns3:cad>68</ns3:cad>
          </ns3:TrackPointExtension>
        </extensions>
      </trkpt>
      <trkpt lat="37.75348252616822719573974609375" lon="-107.70891495980322360992431640625">
        <ele>3492</ele>
        <time>2023-07-29T18:07:34.000Z</time>
        <extensions>
          <ns3:TrackPointExtension>
            <ns3:hr>84</ns3:hr>
            <ns3:cad>68</ns3:cad>
          </ns3:TrackPointExtension>
        </extensions>
      </trkpt>
      <trkpt lat="37.7534800954163074493408203125" lon="-107.7089188992977142333984375">
        <ele>3492</ele>
        <time>2023-07-29T18:07:35.000Z</time>
        <extensions>
          <ns3:TrackPointExtension>
            <ns3:hr>85</ns3:hr>
            <ns3:cad>0</ns3:cad>
          </ns3:TrackPointExtension>
        </extensions>
      </trkpt>
      <trkpt lat="37.7534774132072925567626953125" lon="-107.70892602391541004180908203125">
        <ele>3492</ele>
        <time>2023-07-29T18:07:36.000Z</time>
        <extensions>
          <ns3:TrackPointExtension>
            <ns3:hr>85</ns3:hr>
            <ns3:cad>0</ns3:cad>
          </ns3:TrackPointExtension>
        </extensions>
      </trkpt>
      <trkpt lat="37.75347121059894561767578125" lon="-107.7089368365705013275146484375">
        <ele>3491.800048828125</ele>
        <time>2023-07-29T18:07:37.000Z</time>
        <extensions>
          <ns3:TrackPointExtension>
            <ns3:hr>85</ns3:hr>
            <ns3:cad>0</ns3:cad>
          </ns3:TrackPointExtension>
        </extensions>
      </trkpt>
      <trkpt lat="37.75346727110445499420166015625" lon="-107.7089472301304340362548828125">
        <ele>3491.800048828125</ele>
        <time>2023-07-29T18:07:38.000Z</time>
        <extensions>
          <ns3:TrackPointExtension>
            <ns3:hr>86</ns3:hr>
            <ns3:cad>0</ns3:cad>
          </ns3:TrackPointExtension>
        </extensions>
      </trkpt>
      <trkpt lat="37.753455452620983123779296875" lon="-107.7089649997651576995849609375">
        <ele>3491.800048828125</ele>
        <time>2023-07-29T18:07:39.000Z</time>
        <extensions>
          <ns3:TrackPointExtension>
            <ns3:hr>87</ns3:hr>
            <ns3:cad>0</ns3:cad>
          </ns3:TrackPointExtension>
        </extensions>
      </trkpt>
      <trkpt lat="37.75344648398458957672119140625" lon="-107.7089787460863590240478515625">
        <ele>3491.800048828125</ele>
        <time>2023-07-29T18:07:40.000Z</time>
        <extensions>
          <ns3:TrackPointExtension>
            <ns3:hr>88</ns3:hr>
            <ns3:cad>0</ns3:cad>
          </ns3:TrackPointExtension>
        </extensions>
      </trkpt>
      <trkpt lat="37.75343843735754489898681640625" lon="-107.708987295627593994140625">
        <ele>3491.800048828125</ele>
        <time>2023-07-29T18:07:41.000Z</time>
        <extensions>
          <ns3:TrackPointExtension>
            <ns3:hr>88</ns3:hr>
            <ns3:cad>0</ns3:cad>
          </ns3:TrackPointExtension>
        </extensions>
      </trkpt>
      <trkpt lat="37.753431983292102813720703125" lon="-107.70899324677884578704833984375">
        <ele>3491.800048828125</ele>
        <time>2023-07-29T18:07:42.000Z</time>
        <extensions>
          <ns3:TrackPointExtension>
            <ns3:hr>89</ns3:hr>
            <ns3:cad>0</ns3:cad>
          </ns3:TrackPointExtension>
        </extensions>
      </trkpt>
      <trkpt lat="37.75342402048408985137939453125" lon="-107.709000371396541595458984375">
        <ele>3491.800048828125</ele>
        <time>2023-07-29T18:07:43.000Z</time>
        <extensions>
          <ns3:TrackPointExtension>
            <ns3:hr>90</ns3:hr>
            <ns3:cad>0</ns3:cad>
          </ns3:TrackPointExtension>
        </extensions>
      </trkpt>
      <trkpt lat="37.75341086089611053466796875" lon="-107.70901269279420375823974609375">
        <ele>3491.800048828125</ele>
        <time>2023-07-29T18:07:44.000Z</time>
        <extensions>
          <ns3:TrackPointExtension>
            <ns3:hr>91</ns3:hr>
            <ns3:cad>0</ns3:cad>
          </ns3:TrackPointExtension>
        </extensions>
      </trkpt>
      <trkpt lat="37.75340340100228786468505859375" lon="-107.709017805755138397216796875">
        <ele>3491.800048828125</ele>
        <time>2023-07-29T18:07:45.000Z</time>
        <extensions>
          <ns3:TrackPointExtension>
            <ns3:hr>91</ns3:hr>
            <ns3:cad>0</ns3:cad>
          </ns3:TrackPointExtension>
        </extensions>
      </trkpt>
      <trkpt lat="37.75339250452816486358642578125" lon="-107.70902149379253387451171875">
        <ele>3491.60009765625</ele>
        <time>2023-07-29T18:07:46.000Z</time>
        <extensions>
          <ns3:TrackPointExtension>
            <ns3:hr>92</ns3:hr>
            <ns3:cad>0</ns3:cad>
          </ns3:TrackPointExtension>
        </extensions>
      </trkpt>
      <trkpt lat="37.7533818595111370086669921875" lon="-107.7090216614305973052978515625">
        <ele>3491.60009765625</ele>
        <time>2023-07-29T18:07:47.000Z</time>
        <extensions>
          <ns3:TrackPointExtension>
            <ns3:hr>92</ns3:hr>
            <ns3:cad>0</ns3:cad>
          </ns3:TrackPointExtension>
        </extensions>
      </trkpt>
      <trkpt lat="37.7533707953989505767822265625" lon="-107.7090266905725002288818359375">
        <ele>3491.60009765625</ele>
        <time>2023-07-29T18:07:48.000Z</time>
        <extensions>
          <ns3:TrackPointExtension>
            <ns3:hr>92</ns3:hr>
            <ns3:cad>0</ns3:cad>
          </ns3:TrackPointExtension>
        </extensions>
      </trkpt>
      <trkpt lat="37.75335646234452724456787109375" lon="-107.70903431810438632965087890625">
        <ele>3491.39990234375</ele>
        <time>2023-07-29T18:07:49.000Z</time>
        <extensions>
          <ns3:TrackPointExtension>
            <ns3:hr>92</ns3:hr>
            <ns3:cad>0</ns3:cad>
          </ns3:TrackPointExtension>
        </extensions>
      </trkpt>
      <trkpt lat="37.7533436380326747894287109375" lon="-107.70904270000755786895751953125">
        <ele>3491.39990234375</ele>
        <time>2023-07-29T18:07:50.000Z</time>
        <extensions>
          <ns3:TrackPointExtension>
            <ns3:hr>92</ns3:hr>
            <ns3:cad>0</ns3:cad>
          </ns3:TrackPointExtension>
        </extensions>
      </trkpt>
      <trkpt lat="37.7533379383385181427001953125" lon="-107.7090494893491268157958984375">
        <ele>3491.39990234375</ele>
        <time>2023-07-29T18:07:51.000Z</time>
        <extensions>
          <ns3:TrackPointExtension>
            <ns3:hr>92</ns3:hr>
            <ns3:cad>0</ns3:cad>
          </ns3:TrackPointExtension>
        </extensions>
      </trkpt>
      <trkpt lat="37.753333412110805511474609375" lon="-107.70905745215713977813720703125">
        <ele>3491.199951171875</ele>
        <time>2023-07-29T18:07:52.000Z</time>
        <extensions>
          <ns3:TrackPointExtension>
            <ns3:hr>92</ns3:hr>
            <ns3:cad>0</ns3:cad>
          </ns3:TrackPointExtension>
        </extensions>
      </trkpt>
      <trkpt lat="37.7533257007598876953125" lon="-107.709068767726421356201171875">
        <ele>3491.199951171875</ele>
        <time>2023-07-29T18:07:53.000Z</time>
        <extensions>
          <ns3:TrackPointExtension>
            <ns3:hr>92</ns3:hr>
            <ns3:cad>0</ns3:cad>
          </ns3:TrackPointExtension>
        </extensions>
      </trkpt>
      <trkpt lat="37.75331455282866954803466796875" lon="-107.7090796642005443572998046875">
        <ele>3491</ele>
        <time>2023-07-29T18:07:54.000Z</time>
        <extensions>
          <ns3:TrackPointExtension>
            <ns3:hr>92</ns3:hr>
            <ns3:cad>0</ns3:cad>
          </ns3:TrackPointExtension>
        </extensions>
      </trkpt>
      <trkpt lat="37.7533074282109737396240234375" lon="-107.709089219570159912109375">
        <ele>3491</ele>
        <time>2023-07-29T18:07:55.000Z</time>
        <extensions>
          <ns3:TrackPointExtension>
            <ns3:hr>92</ns3:hr>
            <ns3:cad>0</ns3:cad>
          </ns3:TrackPointExtension>
        </extensions>
      </trkpt>
      <trkpt lat="37.75330097414553165435791015625" lon="-107.7090919017791748046875">
        <ele>3490.800048828125</ele>
        <time>2023-07-29T18:07:56.000Z</time>
        <extensions>
          <ns3:TrackPointExtension>
            <ns3:hr>91</ns3:hr>
            <ns3:cad>0</ns3:cad>
          </ns3:TrackPointExtension>
        </extensions>
      </trkpt>
      <trkpt lat="37.75329695083200931549072265625" lon="-107.70909332670271396636962890625">
        <ele>3490.800048828125</ele>
        <time>2023-07-29T18:07:57.000Z</time>
        <extensions>
          <ns3:TrackPointExtension>
            <ns3:hr>91</ns3:hr>
            <ns3:cad>0</ns3:cad>
          </ns3:TrackPointExtension>
        </extensions>
      </trkpt>
      <trkpt lat="37.75328840129077434539794921875" lon="-107.7091001160442829132080078125">
        <ele>3490.60009765625</ele>
        <time>2023-07-29T18:07:58.000Z</time>
        <extensions>
          <ns3:TrackPointExtension>
            <ns3:hr>91</ns3:hr>
            <ns3:cad>0</ns3:cad>
          </ns3:TrackPointExtension>
        </extensions>
      </trkpt>
      <trkpt lat="37.75327884592115879058837890625" lon="-107.70910841412842273712158203125">
        <ele>3490.39990234375</ele>
        <time>2023-07-29T18:07:59.000Z</time>
        <extensions>
          <ns3:TrackPointExtension>
            <ns3:hr>91</ns3:hr>
            <ns3:cad>0</ns3:cad>
          </ns3:TrackPointExtension>
        </extensions>
      </trkpt>
      <trkpt lat="37.753266356885433197021484375" lon="-107.70911830477416515350341796875">
        <ele>3490.39990234375</ele>
        <time>2023-07-29T18:08:00.000Z</time>
        <extensions>
          <ns3:TrackPointExtension>
            <ns3:hr>89</ns3:hr>
            <ns3:cad>0</ns3:cad>
          </ns3:TrackPointExtension>
        </extensions>
      </trkpt>
      <trkpt lat="37.75325990281999111175537109375" lon="-107.7091309614479541778564453125">
        <ele>3490.199951171875</ele>
        <time>2023-07-29T18:08:01.000Z</time>
        <extensions>
          <ns3:TrackPointExtension>
            <ns3:hr>87</ns3:hr>
            <ns3:cad>19</ns3:cad>
          </ns3:TrackPointExtension>
        </extensions>
      </trkpt>
      <trkpt lat="37.75324246846139430999755859375" lon="-107.709142528474330902099609375">
        <ele>3490</ele>
        <time>2023-07-29T18:08:02.000Z</time>
        <extensions>
          <ns3:TrackPointExtension>
            <ns3:hr>83</ns3:hr>
            <ns3:cad>19</ns3:cad>
          </ns3:TrackPointExtension>
        </extensions>
      </trkpt>
      <trkpt lat="37.75322578847408294677734375" lon="-107.70915300585329532623291015625">
        <ele>3490</ele>
        <time>2023-07-29T18:08:03.000Z</time>
        <extensions>
          <ns3:TrackPointExtension>
            <ns3:hr>82</ns3:hr>
            <ns3:cad>19</ns3:cad>
          </ns3:TrackPointExtension>
        </extensions>
      </trkpt>
      <trkpt lat="37.7532138861715793609619140625" lon="-107.70915971137583255767822265625">
        <ele>3489.800048828125</ele>
        <time>2023-07-29T18:08:04.000Z</time>
        <extensions>
          <ns3:TrackPointExtension>
            <ns3:hr>81</ns3:hr>
            <ns3:cad>19</ns3:cad>
          </ns3:TrackPointExtension>
        </extensions>
      </trkpt>
      <trkpt lat="37.75319955311715602874755859375" lon="-107.70916691981256008148193359375">
        <ele>3489.60009765625</ele>
        <time>2023-07-29T18:08:05.000Z</time>
        <extensions>
          <ns3:TrackPointExtension>
            <ns3:hr>81</ns3:hr>
            <ns3:cad>19</ns3:cad>
          </ns3:TrackPointExtension>
        </extensions>
      </trkpt>
      <trkpt lat="37.753193266689777374267578125" lon="-107.70916767418384552001953125">
        <ele>3489.39990234375</ele>
        <time>2023-07-29T18:08:06.000Z</time>
        <extensions>
          <ns3:TrackPointExtension>
            <ns3:hr>80</ns3:hr>
            <ns3:cad>0</ns3:cad>
          </ns3:TrackPointExtension>
        </extensions>
      </trkpt>
      <trkpt lat="37.753189243376255035400390625" lon="-107.70916390232741832733154296875">
        <ele>3489.39990234375</ele>
        <time>2023-07-29T18:08:07.000Z</time>
        <extensions>
          <ns3:TrackPointExtension>
            <ns3:hr>81</ns3:hr>
            <ns3:cad>0</ns3:cad>
          </ns3:TrackPointExtension>
        </extensions>
      </trkpt>
      <trkpt lat="37.753178179264068603515625" lon="-107.7091675065457820892333984375">
        <ele>3489.39990234375</ele>
        <time>2023-07-29T18:08:08.000Z</time>
        <extensions>
          <ns3:TrackPointExtension>
            <ns3:hr>81</ns3:hr>
            <ns3:cad>0</ns3:cad>
          </ns3:TrackPointExtension>
        </extensions>
      </trkpt>
      <trkpt lat="37.75316636078059673309326171875" lon="-107.7091678418219089508056640625">
        <ele>3489.199951171875</ele>
        <time>2023-07-29T18:08:09.000Z</time>
        <extensions>
          <ns3:TrackPointExtension>
            <ns3:hr>82</ns3:hr>
            <ns3:cad>0</ns3:cad>
          </ns3:TrackPointExtension>
        </extensions>
      </trkpt>
      <trkpt lat="37.7531495131552219390869140625" lon="-107.709166668355464935302734375">
        <ele>3489.199951171875</ele>
        <time>2023-07-29T18:08:10.000Z</time>
        <extensions>
          <ns3:TrackPointExtension>
            <ns3:hr>85</ns3:hr>
            <ns3:cad>50</ns3:cad>
          </ns3:TrackPointExtension>
        </extensions>
      </trkpt>
      <trkpt lat="37.75313794612884521484375" lon="-107.70916591398417949676513671875">
        <ele>3489.199951171875</ele>
        <time>2023-07-29T18:08:11.000Z</time>
        <extensions>
          <ns3:TrackPointExtension>
            <ns3:hr>88</ns3:hr>
            <ns3:cad>50</ns3:cad>
          </ns3:TrackPointExtension>
        </extensions>
      </trkpt>
      <trkpt lat="37.75313048623502254486083984375" lon="-107.70916356705129146575927734375">
        <ele>3489.199951171875</ele>
        <time>2023-07-29T18:08:12.000Z</time>
        <extensions>
          <ns3:TrackPointExtension>
            <ns3:hr>91</ns3:hr>
            <ns3:cad>50</ns3:cad>
          </ns3:TrackPointExtension>
        </extensions>
      </trkpt>
      <trkpt lat="37.75312109850347042083740234375" lon="-107.70916071720421314239501953125">
        <ele>3489.199951171875</ele>
        <time>2023-07-29T18:08:13.000Z</time>
        <extensions>
          <ns3:TrackPointExtension>
            <ns3:hr>92</ns3:hr>
            <ns3:cad>50</ns3:cad>
          </ns3:TrackPointExtension>
        </extensions>
      </trkpt>
      <trkpt lat="37.75310936383903026580810546875" lon="-107.7091562747955322265625">
        <ele>3489.199951171875</ele>
        <time>2023-07-29T18:08:14.000Z</time>
        <extensions>
          <ns3:TrackPointExtension>
            <ns3:hr>92</ns3:hr>
            <ns3:cad>50</ns3:cad>
          </ns3:TrackPointExtension>
        </extensions>
      </trkpt>
      <trkpt lat="37.75309813208878040313720703125" lon="-107.70915451459586620330810546875">
        <ele>3489.199951171875</ele>
        <time>2023-07-29T18:08:15.000Z</time>
        <extensions>
          <ns3:TrackPointExtension>
            <ns3:hr>92</ns3:hr>
            <ns3:cad>50</ns3:cad>
          </ns3:TrackPointExtension>
        </extensions>
      </trkpt>
      <trkpt lat="37.75308304466307163238525390625" lon="-107.70915300585329532623291015625">
        <ele>3489.199951171875</ele>
        <time>2023-07-29T18:08:16.000Z</time>
        <extensions>
          <ns3:TrackPointExtension>
            <ns3:hr>92</ns3:hr>
            <ns3:cad>50</ns3:cad>
          </ns3:TrackPointExtension>
        </extensions>
      </trkpt>
      <trkpt lat="37.75307382456958293914794921875" lon="-107.70915267057716846466064453125">
        <ele>3489.199951171875</ele>
        <time>2023-07-29T18:08:17.000Z</time>
        <extensions>
          <ns3:TrackPointExtension>
            <ns3:hr>90</ns3:hr>
            <ns3:cad>50</ns3:cad>
          </ns3:TrackPointExtension>
        </extensions>
      </trkpt>
      <trkpt lat="37.75305488146841526031494140625" lon="-107.70915015600621700286865234375">
        <ele>3489.199951171875</ele>
        <time>2023-07-29T18:08:18.000Z</time>
        <extensions>
          <ns3:TrackPointExtension>
            <ns3:hr>89</ns3:hr>
            <ns3:cad>0</ns3:cad>
          </ns3:TrackPointExtension>
        </extensions>
      </trkpt>
      <trkpt lat="37.75305069051682949066162109375" lon="-107.70914579741656780242919921875">
        <ele>3489.199951171875</ele>
        <time>2023-07-29T18:08:19.000Z</time>
        <extensions>
          <ns3:TrackPointExtension>
            <ns3:hr>89</ns3:hr>
            <ns3:cad>0</ns3:cad>
          </ns3:TrackPointExtension>
        </extensions>
      </trkpt>
      <trkpt lat="37.75303493253886699676513671875" lon="-107.709147222340106964111328125">
        <ele>3489.199951171875</ele>
        <time>2023-07-29T18:08:20.000Z</time>
        <extensions>
          <ns3:TrackPointExtension>
            <ns3:hr>89</ns3:hr>
            <ns3:cad>0</ns3:cad>
          </ns3:TrackPointExtension>
        </extensions>
      </trkpt>
      <trkpt lat="37.7530217729508876800537109375" lon="-107.709147222340106964111328125">
        <ele>3489.199951171875</ele>
        <time>2023-07-29T18:08:21.000Z</time>
        <extensions>
          <ns3:TrackPointExtension>
            <ns3:hr>89</ns3:hr>
            <ns3:cad>0</ns3:cad>
          </ns3:TrackPointExtension>
        </extensions>
      </trkpt>
      <trkpt lat="37.75300911627709865570068359375" lon="-107.7091470547020435333251953125">
        <ele>3489.199951171875</ele>
        <time>2023-07-29T18:08:22.000Z</time>
        <extensions>
          <ns3:TrackPointExtension>
            <ns3:hr>89</ns3:hr>
            <ns3:cad>0</ns3:cad>
          </ns3:TrackPointExtension>
        </extensions>
      </trkpt>
      <trkpt lat="37.7529993094503879547119140625" lon="-107.70914579741656780242919921875">
        <ele>3489.199951171875</ele>
        <time>2023-07-29T18:08:23.000Z</time>
        <extensions>
          <ns3:TrackPointExtension>
            <ns3:hr>90</ns3:hr>
            <ns3:cad>0</ns3:cad>
          </ns3:TrackPointExtension>
        </extensions>
      </trkpt>
      <trkpt lat="37.752984054386615753173828125" lon="-107.709147222340106964111328125">
        <ele>3489.199951171875</ele>
        <time>2023-07-29T18:08:24.000Z</time>
        <extensions>
          <ns3:TrackPointExtension>
            <ns3:hr>90</ns3:hr>
            <ns3:cad>0</ns3:cad>
          </ns3:TrackPointExtension>
        </extensions>
      </trkpt>
      <trkpt lat="37.75297223590314388275146484375" lon="-107.7091480605304241180419921875">
        <ele>3489.39990234375</ele>
        <time>2023-07-29T18:08:25.000Z</time>
        <extensions>
          <ns3:TrackPointExtension>
            <ns3:hr>90</ns3:hr>
            <ns3:cad>0</ns3:cad>
          </ns3:TrackPointExtension>
        </extensions>
      </trkpt>
      <trkpt lat="37.75296687148511409759521484375" lon="-107.70915082655847072601318359375">
        <ele>3489.39990234375</ele>
        <time>2023-07-29T18:08:26.000Z</time>
        <extensions>
          <ns3:TrackPointExtension>
            <ns3:hr>91</ns3:hr>
            <ns3:cad>0</ns3:cad>
          </ns3:TrackPointExtension>
        </extensions>
      </trkpt>
      <trkpt lat="37.7529671229422092437744140625" lon="-107.70914898253977298736572265625">
        <ele>3489.39990234375</ele>
        <time>2023-07-29T18:08:27.000Z</time>
        <extensions>
          <ns3:TrackPointExtension>
            <ns3:hr>91</ns3:hr>
            <ns3:cad>0</ns3:cad>
          </ns3:TrackPointExtension>
        </extensions>
      </trkpt>
      <trkpt lat="37.75295329280197620391845703125" lon="-107.709153257310390472412109375">
        <ele>3489.39990234375</ele>
        <time>2023-07-29T18:08:28.000Z</time>
        <extensions>
          <ns3:TrackPointExtension>
            <ns3:hr>92</ns3:hr>
            <ns3:cad>0</ns3:cad>
          </ns3:TrackPointExtension>
        </extensions>
      </trkpt>
      <trkpt lat="37.7529419772326946258544921875" lon="-107.70915920846164226531982421875">
        <ele>3489.39990234375</ele>
        <time>2023-07-29T18:08:29.000Z</time>
        <extensions>
          <ns3:TrackPointExtension>
            <ns3:hr>91</ns3:hr>
            <ns3:cad>0</ns3:cad>
          </ns3:TrackPointExtension>
        </extensions>
      </trkpt>
      <trkpt lat="37.75292714126408100128173828125" lon="-107.70916859619319438934326171875">
        <ele>3489.39990234375</ele>
        <time>2023-07-29T18:08:30.000Z</time>
        <extensions>
          <ns3:TrackPointExtension>
            <ns3:hr>91</ns3:hr>
            <ns3:cad>0</ns3:cad>
          </ns3:TrackPointExtension>
        </extensions>
      </trkpt>
      <trkpt lat="37.75291222147643566131591796875" lon="-107.7091815881431102752685546875">
        <ele>3489.39990234375</ele>
        <time>2023-07-29T18:08:31.000Z</time>
        <extensions>
          <ns3:TrackPointExtension>
            <ns3:hr>92</ns3:hr>
            <ns3:cad>0</ns3:cad>
          </ns3:TrackPointExtension>
        </extensions>
      </trkpt>
      <trkpt lat="37.75290635414421558380126953125" lon="-107.70918913185596466064453125">
        <ele>3489.199951171875</ele>
        <time>2023-07-29T18:08:32.000Z</time>
        <extensions>
          <ns3:TrackPointExtension>
            <ns3:hr>92</ns3:hr>
            <ns3:cad>0</ns3:cad>
          </ns3:TrackPointExtension>
        </extensions>
      </trkpt>
      <trkpt lat="37.75290031917393207550048828125" lon="-107.70919927395880222320556640625">
        <ele>3489.199951171875</ele>
        <time>2023-07-29T18:08:33.000Z</time>
        <extensions>
          <ns3:TrackPointExtension>
            <ns3:hr>92</ns3:hr>
            <ns3:cad>0</ns3:cad>
          </ns3:TrackPointExtension>
        </extensions>
      </trkpt>
      <trkpt lat="37.75289378128945827484130859375" lon="-107.70920832641422748565673828125">
        <ele>3489.199951171875</ele>
        <time>2023-07-29T18:08:34.000Z</time>
        <extensions>
          <ns3:TrackPointExtension>
            <ns3:hr>92</ns3:hr>
            <ns3:cad>0</ns3:cad>
          </ns3:TrackPointExtension>
        </extensions>
      </trkpt>
      <trkpt lat="37.75288573466241359710693359375" lon="-107.70922006107866764068603515625">
        <ele>3489</ele>
        <time>2023-07-29T18:08:35.000Z</time>
        <extensions>
          <ns3:TrackPointExtension>
            <ns3:hr>92</ns3:hr>
            <ns3:cad>54</ns3:cad>
          </ns3:TrackPointExtension>
        </extensions>
      </trkpt>
      <trkpt lat="37.7528732456266880035400390625" lon="-107.7092335559427738189697265625">
        <ele>3489</ele>
        <time>2023-07-29T18:08:36.000Z</time>
        <extensions>
          <ns3:TrackPointExtension>
            <ns3:hr>93</ns3:hr>
            <ns3:cad>54</ns3:cad>
          </ns3:TrackPointExtension>
        </extensions>
      </trkpt>
      <trkpt lat="37.752864025533199310302734375" lon="-107.709245793521404266357421875">
        <ele>3489</ele>
        <time>2023-07-29T18:08:37.000Z</time>
        <extensions>
          <ns3:TrackPointExtension>
            <ns3:hr>93</ns3:hr>
            <ns3:cad>54</ns3:cad>
          </ns3:TrackPointExtension>
        </extensions>
      </trkpt>
      <trkpt lat="37.75285623036324977874755859375" lon="-107.70925694145262241363525390625">
        <ele>3489</ele>
        <time>2023-07-29T18:08:38.000Z</time>
        <extensions>
          <ns3:TrackPointExtension>
            <ns3:hr>93</ns3:hr>
            <ns3:cad>54</ns3:cad>
          </ns3:TrackPointExtension>
        </extensions>
      </trkpt>
      <trkpt lat="37.75285254232585430145263671875" lon="-107.709266245365142822265625">
        <ele>3488.800048828125</ele>
        <time>2023-07-29T18:08:39.000Z</time>
        <extensions>
          <ns3:TrackPointExtension>
            <ns3:hr>92</ns3:hr>
            <ns3:cad>54</ns3:cad>
          </ns3:TrackPointExtension>
        </extensions>
      </trkpt>
      <trkpt lat="37.7528434060513973236083984375" lon="-107.70927974022924900054931640625">
        <ele>3488.60009765625</ele>
        <time>2023-07-29T18:08:40.000Z</time>
        <extensions>
          <ns3:TrackPointExtension>
            <ns3:hr>92</ns3:hr>
            <ns3:cad>54</ns3:cad>
          </ns3:TrackPointExtension>
        </extensions>
      </trkpt>
      <trkpt lat="37.752837873995304107666015625" lon="-107.7092872001230716705322265625">
        <ele>3488.60009765625</ele>
        <time>2023-07-29T18:08:41.000Z</time>
        <extensions>
          <ns3:TrackPointExtension>
            <ns3:hr>92</ns3:hr>
            <ns3:cad>54</ns3:cad>
          </ns3:TrackPointExtension>
        </extensions>
      </trkpt>
      <trkpt lat="37.75283141992986202239990234375" lon="-107.709302790462970733642578125">
        <ele>3488.39990234375</ele>
        <time>2023-07-29T18:08:42.000Z</time>
        <extensions>
          <ns3:TrackPointExtension>
            <ns3:hr>92</ns3:hr>
            <ns3:cad>54</ns3:cad>
          </ns3:TrackPointExtension>
        </extensions>
      </trkpt>
      <trkpt lat="37.752823792397975921630859375" lon="-107.7093126811087131500244140625">
        <ele>3488.199951171875</ele>
        <time>2023-07-29T18:08:43.000Z</time>
        <extensions>
          <ns3:TrackPointExtension>
            <ns3:hr>92</ns3:hr>
            <ns3:cad>54</ns3:cad>
          </ns3:TrackPointExtension>
        </extensions>
      </trkpt>
      <trkpt lat="37.75281264446675777435302734375" lon="-107.70932449959218502044677734375">
        <ele>3488.199951171875</ele>
        <time>2023-07-29T18:08:44.000Z</time>
        <extensions>
          <ns3:TrackPointExtension>
            <ns3:hr>92</ns3:hr>
            <ns3:cad>54</ns3:cad>
          </ns3:TrackPointExtension>
        </extensions>
      </trkpt>
      <trkpt lat="37.75280593894422054290771484375" lon="-107.70932969637215137481689453125">
        <ele>3487.800048828125</ele>
        <time>2023-07-29T18:08:45.000Z</time>
        <extensions>
          <ns3:TrackPointExtension>
            <ns3:hr>92</ns3:hr>
            <ns3:cad>54</ns3:cad>
          </ns3:TrackPointExtension>
        </extensions>
      </trkpt>
      <trkpt lat="37.7528013288974761962890625" lon="-107.70933397114276885986328125">
        <ele>3487.60009765625</ele>
        <time>2023-07-29T18:08:46.000Z</time>
        <extensions>
          <ns3:TrackPointExtension>
            <ns3:hr>92</ns3:hr>
            <ns3:cad>54</ns3:cad>
          </ns3:TrackPointExtension>
        </extensions>
      </trkpt>
      <trkpt lat="37.75279252789914608001708984375" lon="-107.7093415148556232452392578125">
        <ele>3487.39990234375</ele>
        <time>2023-07-29T18:08:47.000Z</time>
        <extensions>
          <ns3:TrackPointExtension>
            <ns3:hr>92</ns3:hr>
            <ns3:cad>54</ns3:cad>
          </ns3:TrackPointExtension>
        </extensions>
      </trkpt>
      <trkpt lat="37.7527833916246891021728515625" lon="-107.70935014821588993072509765625">
        <ele>3487.199951171875</ele>
        <time>2023-07-29T18:08:48.000Z</time>
        <extensions>
          <ns3:TrackPointExtension>
            <ns3:hr>92</ns3:hr>
            <ns3:cad>54</ns3:cad>
          </ns3:TrackPointExtension>
        </extensions>
      </trkpt>
      <trkpt lat="37.752774171531200408935546875" lon="-107.70935853011906147003173828125">
        <ele>3487</ele>
        <time>2023-07-29T18:08:49.000Z</time>
        <extensions>
          <ns3:TrackPointExtension>
            <ns3:hr>92</ns3:hr>
            <ns3:cad>54</ns3:cad>
          </ns3:TrackPointExtension>
        </extensions>
      </trkpt>
      <trkpt lat="37.7527637779712677001953125" lon="-107.70936992950737476348876953125">
        <ele>3486.800048828125</ele>
        <time>2023-07-29T18:08:50.000Z</time>
        <extensions>
          <ns3:TrackPointExtension>
            <ns3:hr>92</ns3:hr>
            <ns3:cad>54</ns3:cad>
          </ns3:TrackPointExtension>
        </extensions>
      </trkpt>
      <trkpt lat="37.7527522109448909759521484375" lon="-107.709381580352783203125">
        <ele>3486.60009765625</ele>
        <time>2023-07-29T18:08:51.000Z</time>
        <extensions>
          <ns3:TrackPointExtension>
            <ns3:hr>92</ns3:hr>
            <ns3:cad>54</ns3:cad>
          </ns3:TrackPointExtension>
        </extensions>
      </trkpt>
      <trkpt lat="37.752746678888797760009765625" lon="-107.7093923091888427734375">
        <ele>3486.39990234375</ele>
        <time>2023-07-29T18:08:52.000Z</time>
        <extensions>
          <ns3:TrackPointExtension>
            <ns3:hr>92</ns3:hr>
            <ns3:cad>54</ns3:cad>
          </ns3:TrackPointExtension>
        </extensions>
      </trkpt>
      <trkpt lat="37.75273821316659450531005859375" lon="-107.70940027199685573577880859375">
        <ele>3486.199951171875</ele>
        <time>2023-07-29T18:08:53.000Z</time>
        <extensions>
          <ns3:TrackPointExtension>
            <ns3:hr>92</ns3:hr>
            <ns3:cad>55</ns3:cad>
          </ns3:TrackPointExtension>
        </extensions>
      </trkpt>
      <trkpt lat="37.75273201055824756622314453125" lon="-107.70940764807164669036865234375">
        <ele>3486</ele>
        <time>2023-07-29T18:08:54.000Z</time>
        <extensions>
          <ns3:TrackPointExtension>
            <ns3:hr>92</ns3:hr>
            <ns3:cad>55</ns3:cad>
          </ns3:TrackPointExtension>
        </extensions>
      </trkpt>
      <trkpt lat="37.75272689759731292724609375" lon="-107.70941368304193019866943359375">
        <ele>3485.800048828125</ele>
        <time>2023-07-29T18:08:55.000Z</time>
        <extensions>
          <ns3:TrackPointExtension>
            <ns3:hr>92</ns3:hr>
            <ns3:cad>19</ns3:cad>
          </ns3:TrackPointExtension>
        </extensions>
      </trkpt>
      <trkpt lat="37.7527160011231899261474609375" lon="-107.7094243280589580535888671875">
        <ele>3485.800048828125</ele>
        <time>2023-07-29T18:08:56.000Z</time>
        <extensions>
          <ns3:TrackPointExtension>
            <ns3:hr>92</ns3:hr>
            <ns3:cad>19</ns3:cad>
          </ns3:TrackPointExtension>
        </extensions>
      </trkpt>
      <trkpt lat="37.752707116305828094482421875" lon="-107.7094303630292415618896484375">
        <ele>3485.800048828125</ele>
        <time>2023-07-29T18:08:57.000Z</time>
        <extensions>
          <ns3:TrackPointExtension>
            <ns3:hr>92</ns3:hr>
            <ns3:cad>51</ns3:cad>
          </ns3:TrackPointExtension>
        </extensions>
      </trkpt>
      <trkpt lat="37.75269395671784877777099609375" lon="-107.7094390802085399627685546875">
        <ele>3485.800048828125</ele>
        <time>2023-07-29T18:08:58.000Z</time>
        <extensions>
          <ns3:TrackPointExtension>
            <ns3:hr>91</ns3:hr>
            <ns3:cad>51</ns3:cad>
          </ns3:TrackPointExtension>
        </extensions>
      </trkpt>
      <trkpt lat="37.75268800556659698486328125" lon="-107.70944218151271343231201171875">
        <ele>3485.60009765625</ele>
        <time>2023-07-29T18:08:59.000Z</time>
        <extensions>
          <ns3:TrackPointExtension>
            <ns3:hr>91</ns3:hr>
            <ns3:cad>0</ns3:cad>
          </ns3:TrackPointExtension>
        </extensions>
      </trkpt>
      <trkpt lat="37.75267400778830051422119140625" lon="-107.70944938994944095611572265625">
        <ele>3485.60009765625</ele>
        <time>2023-07-29T18:09:00.000Z</time>
        <extensions>
          <ns3:TrackPointExtension>
            <ns3:hr>90</ns3:hr>
            <ns3:cad>0</ns3:cad>
          </ns3:TrackPointExtension>
        </extensions>
      </trkpt>
      <trkpt lat="37.75265875272452831268310546875" lon="-107.70945928059518337249755859375">
        <ele>3485.60009765625</ele>
        <time>2023-07-29T18:09:01.000Z</time>
        <extensions>
          <ns3:TrackPointExtension>
            <ns3:hr>89</ns3:hr>
            <ns3:cad>0</ns3:cad>
          </ns3:TrackPointExtension>
        </extensions>
      </trkpt>
      <trkpt lat="37.75264902971684932708740234375" lon="-107.70946204662322998046875">
        <ele>3485.60009765625</ele>
        <time>2023-07-29T18:09:02.000Z</time>
        <extensions>
          <ns3:TrackPointExtension>
            <ns3:hr>86</ns3:hr>
            <ns3:cad>0</ns3:cad>
          </ns3:TrackPointExtension>
        </extensions>
      </trkpt>
      <trkpt lat="37.7526368759572505950927734375" lon="-107.7094672434031963348388671875">
        <ele>3485.60009765625</ele>
        <time>2023-07-29T18:09:03.000Z</time>
        <extensions>
          <ns3:TrackPointExtension>
            <ns3:hr>83</ns3:hr>
            <ns3:cad>0</ns3:cad>
          </ns3:TrackPointExtension>
        </extensions>
      </trkpt>
      <trkpt lat="37.752630673348903656005859375" lon="-107.70946917124092578887939453125">
        <ele>3485.60009765625</ele>
        <time>2023-07-29T18:09:04.000Z</time>
        <extensions>
          <ns3:TrackPointExtension>
            <ns3:hr>82</ns3:hr>
            <ns3:cad>0</ns3:cad>
          </ns3:TrackPointExtension>
        </extensions>
      </trkpt>
      <trkpt lat="37.752616591751575469970703125" lon="-107.70946783013641834259033203125">
        <ele>3485.60009765625</ele>
        <time>2023-07-29T18:09:05.000Z</time>
        <extensions>
          <ns3:TrackPointExtension>
            <ns3:hr>81</ns3:hr>
            <ns3:cad>0</ns3:cad>
          </ns3:TrackPointExtension>
        </extensions>
      </trkpt>
      <trkpt lat="37.75260410271584987640380859375" lon="-107.70946883596479892730712890625">
        <ele>3485.60009765625</ele>
        <time>2023-07-29T18:09:06.000Z</time>
        <extensions>
          <ns3:TrackPointExtension>
            <ns3:hr>81</ns3:hr>
            <ns3:cad>0</ns3:cad>
          </ns3:TrackPointExtension>
        </extensions>
      </trkpt>
      <trkpt lat="37.75259102694690227508544921875" lon="-107.70946665666997432708740234375">
        <ele>3485.60009765625</ele>
        <time>2023-07-29T18:09:07.000Z</time>
        <extensions>
          <ns3:TrackPointExtension>
            <ns3:hr>81</ns3:hr>
            <ns3:cad>0</ns3:cad>
          </ns3:TrackPointExtension>
        </extensions>
      </trkpt>
      <trkpt lat="37.7525778673589229583740234375" lon="-107.70946866832673549652099609375">
        <ele>3485.60009765625</ele>
        <time>2023-07-29T18:09:08.000Z</time>
        <extensions>
          <ns3:TrackPointExtension>
            <ns3:hr>81</ns3:hr>
            <ns3:cad>0</ns3:cad>
          </ns3:TrackPointExtension>
        </extensions>
      </trkpt>
      <trkpt lat="37.7525621093809604644775390625" lon="-107.7094732783734798431396484375">
        <ele>3485.60009765625</ele>
        <time>2023-07-29T18:09:09.000Z</time>
        <extensions>
          <ns3:TrackPointExtension>
            <ns3:hr>81</ns3:hr>
            <ns3:cad>0</ns3:cad>
          </ns3:TrackPointExtension>
        </extensions>
      </trkpt>
      <trkpt lat="37.7525423280894756317138671875" lon="-107.70947805605828762054443359375">
        <ele>3485.39990234375</ele>
        <time>2023-07-29T18:09:10.000Z</time>
        <extensions>
          <ns3:TrackPointExtension>
            <ns3:hr>80</ns3:hr>
            <ns3:cad>52</ns3:cad>
          </ns3:TrackPointExtension>
        </extensions>
      </trkpt>
      <trkpt lat="37.75253168307244777679443359375" lon="-107.709484510123729705810546875">
        <ele>3485.39990234375</ele>
        <time>2023-07-29T18:09:11.000Z</time>
        <extensions>
          <ns3:TrackPointExtension>
            <ns3:hr>80</ns3:hr>
            <ns3:cad>52</ns3:cad>
          </ns3:TrackPointExtension>
        </extensions>
      </trkpt>
      <trkpt lat="37.752523720264434814453125" lon="-107.70949096418917179107666015625">
        <ele>3485.39990234375</ele>
        <time>2023-07-29T18:09:12.000Z</time>
        <extensions>
          <ns3:TrackPointExtension>
            <ns3:hr>80</ns3:hr>
            <ns3:cad>52</ns3:cad>
          </ns3:TrackPointExtension>
        </extensions>
      </trkpt>
      <trkpt lat="37.75251659564673900604248046875" lon="-107.70949901081621646881103515625">
        <ele>3485.39990234375</ele>
        <time>2023-07-29T18:09:13.000Z</time>
        <extensions>
          <ns3:TrackPointExtension>
            <ns3:hr>80</ns3:hr>
            <ns3:cad>0</ns3:cad>
          </ns3:TrackPointExtension>
        </extensions>
      </trkpt>
      <trkpt lat="37.75250469334423542022705078125" lon="-107.70951099693775177001953125">
        <ele>3485.199951171875</ele>
        <time>2023-07-29T18:09:14.000Z</time>
        <extensions>
          <ns3:TrackPointExtension>
            <ns3:hr>81</ns3:hr>
            <ns3:cad>0</ns3:cad>
          </ns3:TrackPointExtension>
        </extensions>
      </trkpt>
      <trkpt lat="37.752502597868442535400390625" lon="-107.70952331833541393280029296875">
        <ele>3485.199951171875</ele>
        <time>2023-07-29T18:09:15.000Z</time>
        <extensions>
          <ns3:TrackPointExtension>
            <ns3:hr>81</ns3:hr>
            <ns3:cad>0</ns3:cad>
          </ns3:TrackPointExtension>
        </extensions>
      </trkpt>
      <trkpt lat="37.75250067003071308135986328125" lon="-107.7095326222479343414306640625">
        <ele>3485</ele>
        <time>2023-07-29T18:09:16.000Z</time>
        <extensions>
          <ns3:TrackPointExtension>
            <ns3:hr>81</ns3:hr>
            <ns3:cad>0</ns3:cad>
          </ns3:TrackPointExtension>
        </extensions>
      </trkpt>
      <trkpt lat="37.75250234641134738922119140625" lon="-107.709545195102691650390625">
        <ele>3484.800048828125</ele>
        <time>2023-07-29T18:09:17.000Z</time>
        <extensions>
          <ns3:TrackPointExtension>
            <ns3:hr>81</ns3:hr>
            <ns3:cad>0</ns3:cad>
          </ns3:TrackPointExtension>
        </extensions>
      </trkpt>
      <trkpt lat="37.75250150822103023529052734375" lon="-107.7095594443380832672119140625">
        <ele>3484.800048828125</ele>
        <time>2023-07-29T18:09:18.000Z</time>
        <extensions>
          <ns3:TrackPointExtension>
            <ns3:hr>81</ns3:hr>
            <ns3:cad>0</ns3:cad>
          </ns3:TrackPointExtension>
        </extensions>
      </trkpt>
      <trkpt lat="37.75249932892620563507080078125" lon="-107.70957679487764835357666015625">
        <ele>3484.800048828125</ele>
        <time>2023-07-29T18:09:19.000Z</time>
        <extensions>
          <ns3:TrackPointExtension>
            <ns3:hr>81</ns3:hr>
            <ns3:cad>0</ns3:cad>
          </ns3:TrackPointExtension>
        </extensions>
      </trkpt>
      <trkpt lat="37.752498574554920196533203125" lon="-107.7095879428088665008544921875">
        <ele>3484.800048828125</ele>
        <time>2023-07-29T18:09:20.000Z</time>
        <extensions>
          <ns3:TrackPointExtension>
            <ns3:hr>81</ns3:hr>
            <ns3:cad>0</ns3:cad>
          </ns3:TrackPointExtension>
        </extensions>
      </trkpt>
      <trkpt lat="37.7524960599839687347412109375" lon="-107.70959858782589435577392578125">
        <ele>3484.60009765625</ele>
        <time>2023-07-29T18:09:21.000Z</time>
        <extensions>
          <ns3:TrackPointExtension>
            <ns3:hr>80</ns3:hr>
            <ns3:cad>0</ns3:cad>
          </ns3:TrackPointExtension>
        </extensions>
      </trkpt>
      <trkpt lat="37.75249346159398555755615234375" lon="-107.709610573947429656982421875">
        <ele>3484.60009765625</ele>
        <time>2023-07-29T18:09:22.000Z</time>
        <extensions>
          <ns3:TrackPointExtension>
            <ns3:hr>80</ns3:hr>
            <ns3:cad>0</ns3:cad>
          </ns3:TrackPointExtension>
        </extensions>
      </trkpt>
      <trkpt lat="37.7524886839091777801513671875" lon="-107.7096207998692989349365234375">
        <ele>3484.39990234375</ele>
        <time>2023-07-29T18:09:23.000Z</time>
        <extensions>
          <ns3:TrackPointExtension>
            <ns3:hr>79</ns3:hr>
            <ns3:cad>0</ns3:cad>
          </ns3:TrackPointExtension>
        </extensions>
      </trkpt>
      <trkpt lat="37.75248139165341854095458984375" lon="-107.7096365578472614288330078125">
        <ele>3484.39990234375</ele>
        <time>2023-07-29T18:09:24.000Z</time>
        <extensions>
          <ns3:TrackPointExtension>
            <ns3:hr>79</ns3:hr>
            <ns3:cad>0</ns3:cad>
          </ns3:TrackPointExtension>
        </extensions>
      </trkpt>
      <trkpt lat="37.75247518904507160186767578125" lon="-107.7096456103026866912841796875">
        <ele>3484.199951171875</ele>
        <time>2023-07-29T18:09:25.000Z</time>
        <extensions>
          <ns3:TrackPointExtension>
            <ns3:hr>78</ns3:hr>
            <ns3:cad>0</ns3:cad>
          </ns3:TrackPointExtension>
        </extensions>
      </trkpt>
      <trkpt lat="37.7524687349796295166015625" lon="-107.7096560038626194000244140625">
        <ele>3484.199951171875</ele>
        <time>2023-07-29T18:09:26.000Z</time>
        <extensions>
          <ns3:TrackPointExtension>
            <ns3:hr>78</ns3:hr>
            <ns3:cad>0</ns3:cad>
          </ns3:TrackPointExtension>
        </extensions>
      </trkpt>
      <trkpt lat="37.75246228091418743133544921875" lon="-107.70966430194675922393798828125">
        <ele>3484</ele>
        <time>2023-07-29T18:09:27.000Z</time>
        <extensions>
          <ns3:TrackPointExtension>
            <ns3:hr>78</ns3:hr>
            <ns3:cad>0</ns3:cad>
          </ns3:TrackPointExtension>
        </extensions>
      </trkpt>
      <trkpt lat="37.7524528093636035919189453125" lon="-107.709678970277309417724609375">
        <ele>3484</ele>
        <time>2023-07-29T18:09:28.000Z</time>
        <extensions>
          <ns3:TrackPointExtension>
            <ns3:hr>78</ns3:hr>
            <ns3:cad>0</ns3:cad>
          </ns3:TrackPointExtension>
        </extensions>
      </trkpt>
      <trkpt lat="37.75244132615625858306884765625" lon="-107.709690034389495849609375">
        <ele>3483.800048828125</ele>
        <time>2023-07-29T18:09:29.000Z</time>
        <extensions>
          <ns3:TrackPointExtension>
            <ns3:hr>78</ns3:hr>
            <ns3:cad>53</ns3:cad>
          </ns3:TrackPointExtension>
        </extensions>
      </trkpt>
      <trkpt lat="37.75243210606276988983154296875" lon="-107.7097002603113651275634765625">
        <ele>3483.60009765625</ele>
        <time>2023-07-29T18:09:30.000Z</time>
        <extensions>
          <ns3:TrackPointExtension>
            <ns3:hr>82</ns3:hr>
            <ns3:cad>53</ns3:cad>
          </ns3:TrackPointExtension>
        </extensions>
      </trkpt>
      <trkpt lat="37.752421461045742034912109375" lon="-107.709707804024219512939453125">
        <ele>3483.39990234375</ele>
        <time>2023-07-29T18:09:31.000Z</time>
        <extensions>
          <ns3:TrackPointExtension>
            <ns3:hr>83</ns3:hr>
            <ns3:cad>53</ns3:cad>
          </ns3:TrackPointExtension>
        </extensions>
      </trkpt>
      <trkpt lat="37.75241249240934848785400390625" lon="-107.70971409045159816741943359375">
        <ele>3483.39990234375</ele>
        <time>2023-07-29T18:09:32.000Z</time>
        <extensions>
          <ns3:TrackPointExtension>
            <ns3:hr>83</ns3:hr>
            <ns3:cad>53</ns3:cad>
          </ns3:TrackPointExtension>
        </extensions>
      </trkpt>
      <trkpt lat="37.752407379448413848876953125" lon="-107.70971643738448619842529296875">
        <ele>3483.199951171875</ele>
        <time>2023-07-29T18:09:33.000Z</time>
        <extensions>
          <ns3:TrackPointExtension>
            <ns3:hr>83</ns3:hr>
            <ns3:cad>53</ns3:cad>
          </ns3:TrackPointExtension>
        </extensions>
      </trkpt>
      <trkpt lat="37.75239740498363971710205078125" lon="-107.70972196944057941436767578125">
        <ele>3483.199951171875</ele>
        <time>2023-07-29T18:09:34.000Z</time>
        <extensions>
          <ns3:TrackPointExtension>
            <ns3:hr>83</ns3:hr>
            <ns3:cad>53</ns3:cad>
          </ns3:TrackPointExtension>
        </extensions>
      </trkpt>
      <trkpt lat="37.75238357484340667724609375" lon="-107.70973253063857555389404296875">
        <ele>3483</ele>
        <time>2023-07-29T18:09:35.000Z</time>
        <extensions>
          <ns3:TrackPointExtension>
            <ns3:hr>83</ns3:hr>
            <ns3:cad>0</ns3:cad>
          </ns3:TrackPointExtension>
        </extensions>
      </trkpt>
      <trkpt lat="37.752373181283473968505859375" lon="-107.7097378112375736236572265625">
        <ele>3483</ele>
        <time>2023-07-29T18:09:36.000Z</time>
        <extensions>
          <ns3:TrackPointExtension>
            <ns3:hr>83</ns3:hr>
            <ns3:cad>0</ns3:cad>
          </ns3:TrackPointExtension>
        </extensions>
      </trkpt>
      <trkpt lat="37.752364464104175567626953125" lon="-107.70973772741854190826416015625">
        <ele>3482.60009765625</ele>
        <time>2023-07-29T18:09:37.000Z</time>
        <extensions>
          <ns3:TrackPointExtension>
            <ns3:hr>83</ns3:hr>
            <ns3:cad>52</ns3:cad>
          </ns3:TrackPointExtension>
        </extensions>
      </trkpt>
      <trkpt lat="37.75235801003873348236083984375" lon="-107.7097381465137004852294921875">
        <ele>3482.60009765625</ele>
        <time>2023-07-29T18:09:38.000Z</time>
        <extensions>
          <ns3:TrackPointExtension>
            <ns3:hr>84</ns3:hr>
            <ns3:cad>52</ns3:cad>
          </ns3:TrackPointExtension>
        </extensions>
      </trkpt>
      <trkpt lat="37.7523482032120227813720703125" lon="-107.70974032580852508544921875">
        <ele>3482.199951171875</ele>
        <time>2023-07-29T18:09:39.000Z</time>
        <extensions>
          <ns3:TrackPointExtension>
            <ns3:hr>84</ns3:hr>
            <ns3:cad>52</ns3:cad>
          </ns3:TrackPointExtension>
        </extensions>
      </trkpt>
      <trkpt lat="37.7523441798985004425048828125" lon="-107.70974141545593738555908203125">
        <ele>3482</ele>
        <time>2023-07-29T18:09:40.000Z</time>
        <extensions>
          <ns3:TrackPointExtension>
            <ns3:hr>84</ns3:hr>
            <ns3:cad>52</ns3:cad>
          </ns3:TrackPointExtension>
        </extensions>
      </trkpt>
      <trkpt lat="37.752339653670787811279296875" lon="-107.709744013845920562744140625">
        <ele>3481.800048828125</ele>
        <time>2023-07-29T18:09:41.000Z</time>
        <extensions>
          <ns3:TrackPointExtension>
            <ns3:hr>84</ns3:hr>
            <ns3:cad>52</ns3:cad>
          </ns3:TrackPointExtension>
        </extensions>
      </trkpt>
      <trkpt lat="37.7523441798985004425048828125" lon="-107.70974476821720600128173828125">
        <ele>3481.60009765625</ele>
        <time>2023-07-29T18:09:42.000Z</time>
        <extensions>
          <ns3:TrackPointExtension>
            <ns3:hr>84</ns3:hr>
            <ns3:cad>52</ns3:cad>
          </ns3:TrackPointExtension>
        </extensions>
      </trkpt>
      <trkpt lat="37.75233521126210689544677734375" lon="-107.7097569219768047332763671875">
        <ele>3481.199951171875</ele>
        <time>2023-07-29T18:09:43.000Z</time>
        <extensions>
          <ns3:TrackPointExtension>
            <ns3:hr>84</ns3:hr>
            <ns3:cad>52</ns3:cad>
          </ns3:TrackPointExtension>
        </extensions>
      </trkpt>
      <trkpt lat="37.75233420543372631072998046875" lon="-107.709769494831562042236328125">
        <ele>3481</ele>
        <time>2023-07-29T18:09:44.000Z</time>
        <extensions>
          <ns3:TrackPointExtension>
            <ns3:hr>84</ns3:hr>
            <ns3:cad>52</ns3:cad>
          </ns3:TrackPointExtension>
        </extensions>
      </trkpt>
      <trkpt lat="37.7523238956928253173828125" lon="-107.7097894437611103057861328125">
        <ele>3480.800048828125</ele>
        <time>2023-07-29T18:09:45.000Z</time>
        <extensions>
          <ns3:TrackPointExtension>
            <ns3:hr>83</ns3:hr>
            <ns3:cad>52</ns3:cad>
          </ns3:TrackPointExtension>
        </extensions>
      </trkpt>
      <trkpt lat="37.7523150108754634857177734375" lon="-107.709808386862277984619140625">
        <ele>3480.60009765625</ele>
        <time>2023-07-29T18:09:46.000Z</time>
        <extensions>
          <ns3:TrackPointExtension>
            <ns3:hr>83</ns3:hr>
            <ns3:cad>52</ns3:cad>
          </ns3:TrackPointExtension>
        </extensions>
      </trkpt>
      <trkpt lat="37.75230168364942073822021484375" lon="-107.70982439629733562469482421875">
        <ele>3480.39990234375</ele>
        <time>2023-07-29T18:09:47.000Z</time>
        <extensions>
          <ns3:TrackPointExtension>
            <ns3:hr>83</ns3:hr>
            <ns3:cad>52</ns3:cad>
          </ns3:TrackPointExtension>
        </extensions>
      </trkpt>
      <trkpt lat="37.75229028426110744476318359375" lon="-107.709834873676300048828125">
        <ele>3480</ele>
        <time>2023-07-29T18:09:48.000Z</time>
        <extensions>
          <ns3:TrackPointExtension>
            <ns3:hr>83</ns3:hr>
            <ns3:cad>52</ns3:cad>
          </ns3:TrackPointExtension>
        </extensions>
      </trkpt>
      <trkpt lat="37.75228341110050678253173828125" lon="-107.70983780734241008758544921875">
        <ele>3479.800048828125</ele>
        <time>2023-07-29T18:09:49.000Z</time>
        <extensions>
          <ns3:TrackPointExtension>
            <ns3:hr>83</ns3:hr>
            <ns3:cad>52</ns3:cad>
          </ns3:TrackPointExtension>
        </extensions>
      </trkpt>
      <trkpt lat="37.75227284990251064300537109375" lon="-107.7098400704562664031982421875">
        <ele>3479.39990234375</ele>
        <time>2023-07-29T18:09:50.000Z</time>
        <extensions>
          <ns3:TrackPointExtension>
            <ns3:hr>83</ns3:hr>
            <ns3:cad>52</ns3:cad>
          </ns3:TrackPointExtension>
        </extensions>
      </trkpt>
      <trkpt lat="37.75225910358130931854248046875" lon="-107.70983814261853694915771484375">
        <ele>3479.199951171875</ele>
        <time>2023-07-29T18:09:51.000Z</time>
        <extensions>
          <ns3:TrackPointExtension>
            <ns3:hr>83</ns3:hr>
            <ns3:cad>52</ns3:cad>
          </ns3:TrackPointExtension>
        </extensions>
      </trkpt>
      <trkpt lat="37.752245105803012847900390625" lon="-107.70984015427529811859130859375">
        <ele>3479.199951171875</ele>
        <time>2023-07-29T18:09:52.000Z</time>
        <extensions>
          <ns3:TrackPointExtension>
            <ns3:hr>83</ns3:hr>
            <ns3:cad>0</ns3:cad>
          </ns3:TrackPointExtension>
        </extensions>
      </trkpt>
      <trkpt lat="37.7522268332540988922119140625" lon="-107.7098417468369007110595703125">
        <ele>3479.199951171875</ele>
        <time>2023-07-29T18:09:53.000Z</time>
        <extensions>
          <ns3:TrackPointExtension>
            <ns3:hr>83</ns3:hr>
            <ns3:cad>0</ns3:cad>
          </ns3:TrackPointExtension>
        </extensions>
      </trkpt>
      <trkpt lat="37.75221526622772216796875" lon="-107.70984166301786899566650390625">
        <ele>3479</ele>
        <time>2023-07-29T18:09:54.000Z</time>
        <extensions>
          <ns3:TrackPointExtension>
            <ns3:hr>83</ns3:hr>
            <ns3:cad>0</ns3:cad>
          </ns3:TrackPointExtension>
        </extensions>
      </trkpt>
      <trkpt lat="37.75219942443072795867919921875" lon="-107.70984099246561527252197265625">
        <ele>3478.800048828125</ele>
        <time>2023-07-29T18:09:55.000Z</time>
        <extensions>
          <ns3:TrackPointExtension>
            <ns3:hr>83</ns3:hr>
            <ns3:cad>0</ns3:cad>
          </ns3:TrackPointExtension>
        </extensions>
      </trkpt>
      <trkpt lat="37.7521869353950023651123046875" lon="-107.70984048955142498016357421875">
        <ele>3478.800048828125</ele>
        <time>2023-07-29T18:09:56.000Z</time>
        <extensions>
          <ns3:TrackPointExtension>
            <ns3:hr>83</ns3:hr>
            <ns3:cad>0</ns3:cad>
          </ns3:TrackPointExtension>
        </extensions>
      </trkpt>
      <trkpt lat="37.75217997841536998748779296875" lon="-107.70984015427529811859130859375">
        <ele>3478.800048828125</ele>
        <time>2023-07-29T18:09:57.000Z</time>
        <extensions>
          <ns3:TrackPointExtension>
            <ns3:hr>83</ns3:hr>
            <ns3:cad>0</ns3:cad>
          </ns3:TrackPointExtension>
        </extensions>
      </trkpt>
      <trkpt lat="37.75217235088348388671875" lon="-107.7098390646278858184814453125">
        <ele>3478.800048828125</ele>
        <time>2023-07-29T18:09:58.000Z</time>
        <extensions>
          <ns3:TrackPointExtension>
            <ns3:hr>82</ns3:hr>
            <ns3:cad>0</ns3:cad>
          </ns3:TrackPointExtension>
        </extensions>
      </trkpt>
      <trkpt lat="37.752157934010028839111328125" lon="-107.70983579568564891815185546875">
        <ele>3478.800048828125</ele>
        <time>2023-07-29T18:09:59.000Z</time>
        <extensions>
          <ns3:TrackPointExtension>
            <ns3:hr>82</ns3:hr>
            <ns3:cad>0</ns3:cad>
          </ns3:TrackPointExtension>
        </extensions>
      </trkpt>
      <trkpt lat="37.7521468698978424072265625" lon="-107.709831856191158294677734375">
        <ele>3478.800048828125</ele>
        <time>2023-07-29T18:10:00.000Z</time>
        <extensions>
          <ns3:TrackPointExtension>
            <ns3:hr>82</ns3:hr>
            <ns3:cad>0</ns3:cad>
          </ns3:TrackPointExtension>
        </extensions>
      </trkpt>
      <trkpt lat="37.7521416731178760528564453125" lon="-107.7098290063440799713134765625">
        <ele>3479</ele>
        <time>2023-07-29T18:10:01.000Z</time>
        <extensions>
          <ns3:TrackPointExtension>
            <ns3:hr>82</ns3:hr>
            <ns3:cad>0</ns3:cad>
          </ns3:TrackPointExtension>
        </extensions>
      </trkpt>
      <trkpt lat="37.7521363086998462677001953125" lon="-107.70982305519282817840576171875">
        <ele>3479.199951171875</ele>
        <time>2023-07-29T18:10:02.000Z</time>
        <extensions>
          <ns3:TrackPointExtension>
            <ns3:hr>81</ns3:hr>
            <ns3:cad>0</ns3:cad>
          </ns3:TrackPointExtension>
        </extensions>
      </trkpt>
      <trkpt lat="37.75212348438799381256103515625" lon="-107.709817104041576385498046875">
        <ele>3479.199951171875</ele>
        <time>2023-07-29T18:10:03.000Z</time>
        <extensions>
          <ns3:TrackPointExtension>
            <ns3:hr>81</ns3:hr>
            <ns3:cad>0</ns3:cad>
          </ns3:TrackPointExtension>
        </extensions>
      </trkpt>
      <trkpt lat="37.7521135099232196807861328125" lon="-107.70981064997613430023193359375">
        <ele>3479.199951171875</ele>
        <time>2023-07-29T18:10:04.000Z</time>
        <extensions>
          <ns3:TrackPointExtension>
            <ns3:hr>81</ns3:hr>
            <ns3:cad>0</ns3:cad>
          </ns3:TrackPointExtension>
        </extensions>
      </trkpt>
      <trkpt lat="37.75210755877196788787841796875" lon="-107.70980830304324626922607421875">
        <ele>3479.39990234375</ele>
        <time>2023-07-29T18:10:05.000Z</time>
        <extensions>
          <ns3:TrackPointExtension>
            <ns3:hr>80</ns3:hr>
            <ns3:cad>0</ns3:cad>
          </ns3:TrackPointExtension>
        </extensions>
      </trkpt>
      <trkpt lat="37.7520974166691303253173828125" lon="-107.709803692996501922607421875">
        <ele>3479.39990234375</ele>
        <time>2023-07-29T18:10:06.000Z</time>
        <extensions>
          <ns3:TrackPointExtension>
            <ns3:hr>80</ns3:hr>
            <ns3:cad>0</ns3:cad>
          </ns3:TrackPointExtension>
        </extensions>
      </trkpt>
      <trkpt lat="37.75209146551787853240966796875" lon="-107.7098021842539310455322265625">
        <ele>3479.60009765625</ele>
        <time>2023-07-29T18:10:07.000Z</time>
        <extensions>
          <ns3:TrackPointExtension>
            <ns3:hr>80</ns3:hr>
            <ns3:cad>0</ns3:cad>
          </ns3:TrackPointExtension>
        </extensions>
      </trkpt>
      <trkpt lat="37.75208191014826297760009765625" lon="-107.7097971551120281219482421875">
        <ele>3479.60009765625</ele>
        <time>2023-07-29T18:10:08.000Z</time>
        <extensions>
          <ns3:TrackPointExtension>
            <ns3:hr>80</ns3:hr>
            <ns3:cad>0</ns3:cad>
          </ns3:TrackPointExtension>
        </extensions>
      </trkpt>
      <trkpt lat="37.75207235477864742279052734375" lon="-107.70979036577045917510986328125">
        <ele>3479.60009765625</ele>
        <time>2023-07-29T18:10:09.000Z</time>
        <extensions>
          <ns3:TrackPointExtension>
            <ns3:hr>80</ns3:hr>
            <ns3:cad>0</ns3:cad>
          </ns3:TrackPointExtension>
        </extensions>
      </trkpt>
      <trkpt lat="37.752057351171970367431640625" lon="-107.70978458225727081298828125">
        <ele>3479.60009765625</ele>
        <time>2023-07-29T18:10:10.000Z</time>
        <extensions>
          <ns3:TrackPointExtension>
            <ns3:hr>80</ns3:hr>
            <ns3:cad>0</ns3:cad>
          </ns3:TrackPointExtension>
        </extensions>
      </trkpt>
      <trkpt lat="37.7520464546978473663330078125" lon="-107.70977762527763843536376953125">
        <ele>3479.60009765625</ele>
        <time>2023-07-29T18:10:11.000Z</time>
        <extensions>
          <ns3:TrackPointExtension>
            <ns3:hr>80</ns3:hr>
            <ns3:cad>0</ns3:cad>
          </ns3:TrackPointExtension>
        </extensions>
      </trkpt>
      <trkpt lat="37.75202390737831592559814453125" lon="-107.7097718417644500732421875">
        <ele>3479.60009765625</ele>
        <time>2023-07-29T18:10:12.000Z</time>
        <extensions>
          <ns3:TrackPointExtension>
            <ns3:hr>80</ns3:hr>
            <ns3:cad>0</ns3:cad>
          </ns3:TrackPointExtension>
        </extensions>
      </trkpt>
      <trkpt lat="37.752005718648433685302734375" lon="-107.70976941101253032684326171875">
        <ele>3479.60009765625</ele>
        <time>2023-07-29T18:10:13.000Z</time>
        <extensions>
          <ns3:TrackPointExtension>
            <ns3:hr>80</ns3:hr>
            <ns3:cad>52</ns3:cad>
          </ns3:TrackPointExtension>
        </extensions>
      </trkpt>
      <trkpt lat="37.7519975043833255767822265625" lon="-107.709769494831562042236328125">
        <ele>3479.60009765625</ele>
        <time>2023-07-29T18:10:14.000Z</time>
        <extensions>
          <ns3:TrackPointExtension>
            <ns3:hr>80</ns3:hr>
            <ns3:cad>52</ns3:cad>
          </ns3:TrackPointExtension>
        </extensions>
      </trkpt>
      <trkpt lat="37.75198794901371002197265625" lon="-107.70977226085960865020751953125">
        <ele>3479.800048828125</ele>
        <time>2023-07-29T18:10:15.000Z</time>
        <extensions>
          <ns3:TrackPointExtension>
            <ns3:hr>80</ns3:hr>
            <ns3:cad>52</ns3:cad>
          </ns3:TrackPointExtension>
        </extensions>
      </trkpt>
      <trkpt lat="37.7519901283085346221923828125" lon="-107.70976890809834003448486328125">
        <ele>3479.800048828125</ele>
        <time>2023-07-29T18:10:16.000Z</time>
        <extensions>
          <ns3:TrackPointExtension>
            <ns3:hr>80</ns3:hr>
            <ns3:cad>52</ns3:cad>
          </ns3:TrackPointExtension>
        </extensions>
      </trkpt>
      <trkpt lat="37.7519805729389190673828125" lon="-107.7097718417644500732421875">
        <ele>3480</ele>
        <time>2023-07-29T18:10:17.000Z</time>
        <extensions>
          <ns3:TrackPointExtension>
            <ns3:hr>80</ns3:hr>
            <ns3:cad>52</ns3:cad>
          </ns3:TrackPointExtension>
        </extensions>
      </trkpt>
      <trkpt lat="37.751974202692508697509765625" lon="-107.70978148095309734344482421875">
        <ele>3480.199951171875</ele>
        <time>2023-07-29T18:10:18.000Z</time>
        <extensions>
          <ns3:TrackPointExtension>
            <ns3:hr>80</ns3:hr>
            <ns3:cad>52</ns3:cad>
          </ns3:TrackPointExtension>
        </extensions>
      </trkpt>
      <trkpt lat="37.75196607224643230438232421875" lon="-107.70978550426661968231201171875">
        <ele>3480.60009765625</ele>
        <time>2023-07-29T18:10:19.000Z</time>
        <extensions>
          <ns3:TrackPointExtension>
            <ns3:hr>80</ns3:hr>
            <ns3:cad>52</ns3:cad>
          </ns3:TrackPointExtension>
        </extensions>
      </trkpt>
      <trkpt lat="37.7519559301435947418212890625" lon="-107.7097924612462520599365234375">
        <ele>3480.800048828125</ele>
        <time>2023-07-29T18:10:20.000Z</time>
        <extensions>
          <ns3:TrackPointExtension>
            <ns3:hr>81</ns3:hr>
            <ns3:cad>52</ns3:cad>
          </ns3:TrackPointExtension>
        </extensions>
      </trkpt>
      <trkpt lat="37.751949392259120941162109375" lon="-107.709793634712696075439453125">
        <ele>3481</ele>
        <time>2023-07-29T18:10:21.000Z</time>
        <extensions>
          <ns3:TrackPointExtension>
            <ns3:hr>82</ns3:hr>
            <ns3:cad>52</ns3:cad>
          </ns3:TrackPointExtension>
        </extensions>
      </trkpt>
      <trkpt lat="37.75193690322339534759521484375" lon="-107.70979740656912326812744140625">
        <ele>3481.199951171875</ele>
        <time>2023-07-29T18:10:22.000Z</time>
        <extensions>
          <ns3:TrackPointExtension>
            <ns3:hr>83</ns3:hr>
            <ns3:cad>52</ns3:cad>
          </ns3:TrackPointExtension>
        </extensions>
      </trkpt>
      <trkpt lat="37.75192919187247753143310546875" lon="-107.70980092696845531463623046875">
        <ele>3481.199951171875</ele>
        <time>2023-07-29T18:10:23.000Z</time>
        <extensions>
          <ns3:TrackPointExtension>
            <ns3:hr>84</ns3:hr>
            <ns3:cad>52</ns3:cad>
          </ns3:TrackPointExtension>
        </extensions>
      </trkpt>
      <trkpt lat="37.75191494263708591461181640625" lon="-107.70980495028197765350341796875">
        <ele>3481.199951171875</ele>
        <time>2023-07-29T18:10:24.000Z</time>
        <extensions>
          <ns3:TrackPointExtension>
            <ns3:hr>85</ns3:hr>
            <ns3:cad>0</ns3:cad>
          </ns3:TrackPointExtension>
        </extensions>
      </trkpt>
      <trkpt lat="37.75190320797264575958251953125" lon="-107.70980930887162685394287109375">
        <ele>3481.199951171875</ele>
        <time>2023-07-29T18:10:25.000Z</time>
        <extensions>
          <ns3:TrackPointExtension>
            <ns3:hr>86</ns3:hr>
            <ns3:cad>0</ns3:cad>
          </ns3:TrackPointExtension>
        </extensions>
      </trkpt>
      <trkpt lat="37.7518875338137149810791015625" lon="-107.70981718786060810089111328125">
        <ele>3481</ele>
        <time>2023-07-29T18:10:26.000Z</time>
        <extensions>
          <ns3:TrackPointExtension>
            <ns3:hr>87</ns3:hr>
            <ns3:cad>0</ns3:cad>
          </ns3:TrackPointExtension>
        </extensions>
      </trkpt>
      <trkpt lat="37.75187806226313114166259765625" lon="-107.7098249830305576324462890625">
        <ele>3481</ele>
        <time>2023-07-29T18:10:27.000Z</time>
        <extensions>
          <ns3:TrackPointExtension>
            <ns3:hr>88</ns3:hr>
            <ns3:cad>0</ns3:cad>
          </ns3:TrackPointExtension>
        </extensions>
      </trkpt>
      <trkpt lat="37.75186347775161266326904296875" lon="-107.70983261056244373321533203125">
        <ele>3480.800048828125</ele>
        <time>2023-07-29T18:10:28.000Z</time>
        <extensions>
          <ns3:TrackPointExtension>
            <ns3:hr>89</ns3:hr>
            <ns3:cad>0</ns3:cad>
          </ns3:TrackPointExtension>
        </extensions>
      </trkpt>
      <trkpt lat="37.7518462948501110076904296875" lon="-107.7098390646278858184814453125">
        <ele>3480.800048828125</ele>
        <time>2023-07-29T18:10:29.000Z</time>
        <extensions>
          <ns3:TrackPointExtension>
            <ns3:hr>90</ns3:hr>
            <ns3:cad>0</ns3:cad>
          </ns3:TrackPointExtension>
        </extensions>
      </trkpt>
      <trkpt lat="37.751830033957958221435546875" lon="-107.7098420821130275726318359375">
        <ele>3480.800048828125</ele>
        <time>2023-07-29T18:10:30.000Z</time>
        <extensions>
          <ns3:TrackPointExtension>
            <ns3:hr>91</ns3:hr>
            <ns3:cad>0</ns3:cad>
          </ns3:TrackPointExtension>
        </extensions>
      </trkpt>
      <trkpt lat="37.7518167905509471893310546875" lon="-107.70984618924558162689208984375">
        <ele>3480.60009765625</ele>
        <time>2023-07-29T18:10:31.000Z</time>
        <extensions>
          <ns3:TrackPointExtension>
            <ns3:hr>92</ns3:hr>
            <ns3:cad>0</ns3:cad>
          </ns3:TrackPointExtension>
        </extensions>
      </trkpt>
      <trkpt lat="37.75179885327816009521484375" lon="-107.70985038019716739654541015625">
        <ele>3480.60009765625</ele>
        <time>2023-07-29T18:10:32.000Z</time>
        <extensions>
          <ns3:TrackPointExtension>
            <ns3:hr>93</ns3:hr>
            <ns3:cad>0</ns3:cad>
          </ns3:TrackPointExtension>
        </extensions>
      </trkpt>
      <trkpt lat="37.7517901360988616943359375" lon="-107.70985029637813568115234375">
        <ele>3480.39990234375</ele>
        <time>2023-07-29T18:10:33.000Z</time>
        <extensions>
          <ns3:TrackPointExtension>
            <ns3:hr>94</ns3:hr>
            <ns3:cad>0</ns3:cad>
          </ns3:TrackPointExtension>
        </extensions>
      </trkpt>
      <trkpt lat="37.751780413091182708740234375" lon="-107.70984895527362823486328125">
        <ele>3480.199951171875</ele>
        <time>2023-07-29T18:10:34.000Z</time>
        <extensions>
          <ns3:TrackPointExtension>
            <ns3:hr>94</ns3:hr>
            <ns3:cad>0</ns3:cad>
          </ns3:TrackPointExtension>
        </extensions>
      </trkpt>
      <trkpt lat="37.75177496485412120819091796875" lon="-107.70985289476811885833740234375">
        <ele>3480</ele>
        <time>2023-07-29T18:10:35.000Z</time>
        <extensions>
          <ns3:TrackPointExtension>
            <ns3:hr>94</ns3:hr>
            <ns3:cad>0</ns3:cad>
          </ns3:TrackPointExtension>
        </extensions>
      </trkpt>
      <trkpt lat="37.751767002046108245849609375" lon="-107.7098595164716243743896484375">
        <ele>3479.60009765625</ele>
        <time>2023-07-29T18:10:36.000Z</time>
        <extensions>
          <ns3:TrackPointExtension>
            <ns3:hr>94</ns3:hr>
            <ns3:cad>0</ns3:cad>
          </ns3:TrackPointExtension>
        </extensions>
      </trkpt>
      <trkpt lat="37.75176540948450565338134765625" lon="-107.70986529998481273651123046875">
        <ele>3479.39990234375</ele>
        <time>2023-07-29T18:10:37.000Z</time>
        <extensions>
          <ns3:TrackPointExtension>
            <ns3:hr>94</ns3:hr>
            <ns3:cad>0</ns3:cad>
          </ns3:TrackPointExtension>
        </extensions>
      </trkpt>
      <trkpt lat="37.75175769813358783721923828125" lon="-107.70987401716411113739013671875">
        <ele>3479.199951171875</ele>
        <time>2023-07-29T18:10:38.000Z</time>
        <extensions>
          <ns3:TrackPointExtension>
            <ns3:hr>94</ns3:hr>
            <ns3:cad>0</ns3:cad>
          </ns3:TrackPointExtension>
        </extensions>
      </trkpt>
      <trkpt lat="37.75175065733492374420166015625" lon="-107.70988441072404384613037109375">
        <ele>3479.199951171875</ele>
        <time>2023-07-29T18:10:39.000Z</time>
        <extensions>
          <ns3:TrackPointExtension>
            <ns3:hr>94</ns3:hr>
            <ns3:cad>0</ns3:cad>
          </ns3:TrackPointExtension>
        </extensions>
      </trkpt>
      <trkpt lat="37.75173037312924861907958984375" lon="-107.7099000848829746246337890625">
        <ele>3479</ele>
        <time>2023-07-29T18:10:40.000Z</time>
        <extensions>
          <ns3:TrackPointExtension>
            <ns3:hr>94</ns3:hr>
            <ns3:cad>0</ns3:cad>
          </ns3:TrackPointExtension>
        </extensions>
      </trkpt>
      <trkpt lat="37.751714698970317840576171875" lon="-107.709914334118366241455078125">
        <ele>3479</ele>
        <time>2023-07-29T18:10:41.000Z</time>
        <extensions>
          <ns3:TrackPointExtension>
            <ns3:hr>94</ns3:hr>
            <ns3:cad>0</ns3:cad>
          </ns3:TrackPointExtension>
        </extensions>
      </trkpt>
      <trkpt lat="37.75170237757265567779541015625" lon="-107.70992673933506011962890625">
        <ele>3478.800048828125</ele>
        <time>2023-07-29T18:10:42.000Z</time>
        <extensions>
          <ns3:TrackPointExtension>
            <ns3:hr>94</ns3:hr>
            <ns3:cad>0</ns3:cad>
          </ns3:TrackPointExtension>
        </extensions>
      </trkpt>
      <trkpt lat="37.7516947500407695770263671875" lon="-107.709936797618865966796875">
        <ele>3478.60009765625</ele>
        <time>2023-07-29T18:10:43.000Z</time>
        <extensions>
          <ns3:TrackPointExtension>
            <ns3:hr>94</ns3:hr>
            <ns3:cad>0</ns3:cad>
          </ns3:TrackPointExtension>
        </extensions>
      </trkpt>
      <trkpt lat="37.75168812833726406097412109375" lon="-107.7099515497684478759765625">
        <ele>3478.39990234375</ele>
        <time>2023-07-29T18:10:44.000Z</time>
        <extensions>
          <ns3:TrackPointExtension>
            <ns3:hr>93</ns3:hr>
            <ns3:cad>0</ns3:cad>
          </ns3:TrackPointExtension>
        </extensions>
      </trkpt>
      <trkpt lat="37.75168083608150482177734375" lon="-107.70996370352804660797119140625">
        <ele>3478.199951171875</ele>
        <time>2023-07-29T18:10:45.000Z</time>
        <extensions>
          <ns3:TrackPointExtension>
            <ns3:hr>93</ns3:hr>
            <ns3:cad>58</ns3:cad>
          </ns3:TrackPointExtension>
        </extensions>
      </trkpt>
      <trkpt lat="37.7516774833202362060546875" lon="-107.70997258834540843963623046875">
        <ele>3478.199951171875</ele>
        <time>2023-07-29T18:10:46.000Z</time>
        <extensions>
          <ns3:TrackPointExtension>
            <ns3:hr>93</ns3:hr>
            <ns3:cad>58</ns3:cad>
          </ns3:TrackPointExtension>
        </extensions>
      </trkpt>
      <trkpt lat="37.75167689658701419830322265625" lon="-107.70997912622988224029541015625">
        <ele>3478.199951171875</ele>
        <time>2023-07-29T18:10:47.000Z</time>
        <extensions>
          <ns3:TrackPointExtension>
            <ns3:hr>93</ns3:hr>
            <ns3:cad>0</ns3:cad>
          </ns3:TrackPointExtension>
        </extensions>
      </trkpt>
      <trkpt lat="37.751671783626079559326171875" lon="-107.70998843014240264892578125">
        <ele>3478.199951171875</ele>
        <time>2023-07-29T18:10:48.000Z</time>
        <extensions>
          <ns3:TrackPointExtension>
            <ns3:hr>93</ns3:hr>
            <ns3:cad>0</ns3:cad>
          </ns3:TrackPointExtension>
        </extensions>
      </trkpt>
      <trkpt lat="37.75166583247482776641845703125" lon="-107.7099959738552570343017578125">
        <ele>3478</ele>
        <time>2023-07-29T18:10:49.000Z</time>
        <extensions>
          <ns3:TrackPointExtension>
            <ns3:hr>93</ns3:hr>
            <ns3:cad>0</ns3:cad>
          </ns3:TrackPointExtension>
        </extensions>
      </trkpt>
      <trkpt lat="37.7516541816294193267822265625" lon="-107.71000695414841175079345703125">
        <ele>3478</ele>
        <time>2023-07-29T18:10:50.000Z</time>
        <extensions>
          <ns3:TrackPointExtension>
            <ns3:hr>93</ns3:hr>
            <ns3:cad>0</ns3:cad>
          </ns3:TrackPointExtension>
        </extensions>
      </trkpt>
      <trkpt lat="37.7516494877636432647705078125" lon="-107.71002371795475482940673828125">
        <ele>3477.800048828125</ele>
        <time>2023-07-29T18:10:51.000Z</time>
        <extensions>
          <ns3:TrackPointExtension>
            <ns3:hr>93</ns3:hr>
            <ns3:cad>0</ns3:cad>
          </ns3:TrackPointExtension>
        </extensions>
      </trkpt>
      <trkpt lat="37.75164068676531314849853515625" lon="-107.710032351315021514892578125">
        <ele>3477.60009765625</ele>
        <time>2023-07-29T18:10:52.000Z</time>
        <extensions>
          <ns3:TrackPointExtension>
            <ns3:hr>93</ns3:hr>
            <ns3:cad>0</ns3:cad>
          </ns3:TrackPointExtension>
        </extensions>
      </trkpt>
      <trkpt lat="37.75163163430988788604736328125" lon="-107.7100432477891445159912109375">
        <ele>3477.60009765625</ele>
        <time>2023-07-29T18:10:53.000Z</time>
        <extensions>
          <ns3:TrackPointExtension>
            <ns3:hr>94</ns3:hr>
            <ns3:cad>0</ns3:cad>
          </ns3:TrackPointExtension>
        </extensions>
      </trkpt>
      <trkpt lat="37.75162174366414546966552734375" lon="-107.710054479539394378662109375">
        <ele>3477.60009765625</ele>
        <time>2023-07-29T18:10:54.000Z</time>
        <extensions>
          <ns3:TrackPointExtension>
            <ns3:hr>93</ns3:hr>
            <ns3:cad>0</ns3:cad>
          </ns3:TrackPointExtension>
        </extensions>
      </trkpt>
      <trkpt lat="37.751611769199371337890625" lon="-107.71006344817578792572021484375">
        <ele>3477.39990234375</ele>
        <time>2023-07-29T18:10:55.000Z</time>
        <extensions>
          <ns3:TrackPointExtension>
            <ns3:hr>93</ns3:hr>
            <ns3:cad>0</ns3:cad>
          </ns3:TrackPointExtension>
        </extensions>
      </trkpt>
      <trkpt lat="37.75160439312458038330078125" lon="-107.710072584450244903564453125">
        <ele>3477.39990234375</ele>
        <time>2023-07-29T18:10:56.000Z</time>
        <extensions>
          <ns3:TrackPointExtension>
            <ns3:hr>93</ns3:hr>
            <ns3:cad>0</ns3:cad>
          </ns3:TrackPointExtension>
        </extensions>
      </trkpt>
      <trkpt lat="37.7515938319265842437744140625" lon="-107.7100789546966552734375">
        <ele>3477.199951171875</ele>
        <time>2023-07-29T18:10:57.000Z</time>
        <extensions>
          <ns3:TrackPointExtension>
            <ns3:hr>93</ns3:hr>
            <ns3:cad>0</ns3:cad>
          </ns3:TrackPointExtension>
        </extensions>
      </trkpt>
      <trkpt lat="37.75158536620438098907470703125" lon="-107.71008658222854137420654296875">
        <ele>3477.199951171875</ele>
        <time>2023-07-29T18:10:58.000Z</time>
        <extensions>
          <ns3:TrackPointExtension>
            <ns3:hr>93</ns3:hr>
            <ns3:cad>0</ns3:cad>
          </ns3:TrackPointExtension>
        </extensions>
      </trkpt>
      <trkpt lat="37.75157396681606769561767578125" lon="-107.71008792333304882049560546875">
        <ele>3477.199951171875</ele>
        <time>2023-07-29T18:10:59.000Z</time>
        <extensions>
          <ns3:TrackPointExtension>
            <ns3:hr>93</ns3:hr>
            <ns3:cad>0</ns3:cad>
          </ns3:TrackPointExtension>
        </extensions>
      </trkpt>
      <trkpt lat="37.75156374089419841766357421875" lon="-107.71008876152336597442626953125">
        <ele>3477</ele>
        <time>2023-07-29T18:11:00.000Z</time>
        <extensions>
          <ns3:TrackPointExtension>
            <ns3:hr>92</ns3:hr>
            <ns3:cad>0</ns3:cad>
          </ns3:TrackPointExtension>
        </extensions>
      </trkpt>
      <trkpt lat="37.751551754772663116455078125" lon="-107.71008968353271484375">
        <ele>3477</ele>
        <time>2023-07-29T18:11:01.000Z</time>
        <extensions>
          <ns3:TrackPointExtension>
            <ns3:hr>91</ns3:hr>
            <ns3:cad>0</ns3:cad>
          </ns3:TrackPointExtension>
        </extensions>
      </trkpt>
      <trkpt lat="37.75153599679470062255859375" lon="-107.71009295247495174407958984375">
        <ele>3477</ele>
        <time>2023-07-29T18:11:02.000Z</time>
        <extensions>
          <ns3:TrackPointExtension>
            <ns3:hr>91</ns3:hr>
            <ns3:cad>0</ns3:cad>
          </ns3:TrackPointExtension>
        </extensions>
      </trkpt>
      <trkpt lat="37.75151764042675495147705078125" lon="-107.71010099910199642181396484375">
        <ele>3476.800048828125</ele>
        <time>2023-07-29T18:11:03.000Z</time>
        <extensions>
          <ns3:TrackPointExtension>
            <ns3:hr>90</ns3:hr>
            <ns3:cad>0</ns3:cad>
          </ns3:TrackPointExtension>
        </extensions>
      </trkpt>
      <trkpt lat="37.7515009604394435882568359375" lon="-107.710111141204833984375">
        <ele>3476.60009765625</ele>
        <time>2023-07-29T18:11:04.000Z</time>
        <extensions>
          <ns3:TrackPointExtension>
            <ns3:hr>89</ns3:hr>
            <ns3:cad>0</ns3:cad>
          </ns3:TrackPointExtension>
        </extensions>
      </trkpt>
      <trkpt lat="37.75148126296699047088623046875" lon="-107.710124216973781585693359375">
        <ele>3476.39990234375</ele>
        <time>2023-07-29T18:11:05.000Z</time>
        <extensions>
          <ns3:TrackPointExtension>
            <ns3:hr>89</ns3:hr>
            <ns3:cad>55</ns3:cad>
          </ns3:TrackPointExtension>
        </extensions>
      </trkpt>
      <trkpt lat="37.75145779363811016082763671875" lon="-107.710138969123363494873046875">
        <ele>3476.39990234375</ele>
        <time>2023-07-29T18:11:06.000Z</time>
        <extensions>
          <ns3:TrackPointExtension>
            <ns3:hr>88</ns3:hr>
            <ns3:cad>55</ns3:cad>
          </ns3:TrackPointExtension>
        </extensions>
      </trkpt>
      <trkpt lat="37.7514292113482952117919921875" lon="-107.71015942096710205078125">
        <ele>3476.39990234375</ele>
        <time>2023-07-29T18:11:07.000Z</time>
        <extensions>
          <ns3:TrackPointExtension>
            <ns3:hr>88</ns3:hr>
            <ns3:cad>55</ns3:cad>
          </ns3:TrackPointExtension>
        </extensions>
      </trkpt>
      <trkpt lat="37.75142124854028224945068359375" lon="-107.71016906015574932098388671875">
        <ele>3476.199951171875</ele>
        <time>2023-07-29T18:11:08.000Z</time>
        <extensions>
          <ns3:TrackPointExtension>
            <ns3:hr>87</ns3:hr>
            <ns3:cad>55</ns3:cad>
          </ns3:TrackPointExtension>
        </extensions>
      </trkpt>
      <trkpt lat="37.75141454301774501800537109375" lon="-107.71017710678279399871826171875">
        <ele>3476</ele>
        <time>2023-07-29T18:11:09.000Z</time>
        <extensions>
          <ns3:TrackPointExtension>
            <ns3:hr>86</ns3:hr>
            <ns3:cad>55</ns3:cad>
          </ns3:TrackPointExtension>
        </extensions>
      </trkpt>
      <trkpt lat="37.75140901096165180206298828125" lon="-107.71018297411501407623291015625">
        <ele>3476</ele>
        <time>2023-07-29T18:11:10.000Z</time>
        <extensions>
          <ns3:TrackPointExtension>
            <ns3:hr>86</ns3:hr>
            <ns3:cad>55</ns3:cad>
          </ns3:TrackPointExtension>
        </extensions>
      </trkpt>
      <trkpt lat="37.7514020539820194244384765625" lon="-107.71019454114139080047607421875">
        <ele>3475.800048828125</ele>
        <time>2023-07-29T18:11:11.000Z</time>
        <extensions>
          <ns3:TrackPointExtension>
            <ns3:hr>85</ns3:hr>
            <ns3:cad>55</ns3:cad>
          </ns3:TrackPointExtension>
        </extensions>
      </trkpt>
      <trkpt lat="37.75139786303043365478515625" lon="-107.71020242013037204742431640625">
        <ele>3475.39990234375</ele>
        <time>2023-07-29T18:11:12.000Z</time>
        <extensions>
          <ns3:TrackPointExtension>
            <ns3:hr>85</ns3:hr>
            <ns3:cad>55</ns3:cad>
          </ns3:TrackPointExtension>
        </extensions>
      </trkpt>
      <trkpt lat="37.7513953484594821929931640625" lon="-107.71021499298512935638427734375">
        <ele>3475.199951171875</ele>
        <time>2023-07-29T18:11:13.000Z</time>
        <extensions>
          <ns3:TrackPointExtension>
            <ns3:hr>84</ns3:hr>
            <ns3:cad>55</ns3:cad>
          </ns3:TrackPointExtension>
        </extensions>
      </trkpt>
      <trkpt lat="37.75139509700238704681396484375" lon="-107.71022169850766658782958984375">
        <ele>3475</ele>
        <time>2023-07-29T18:11:14.000Z</time>
        <extensions>
          <ns3:TrackPointExtension>
            <ns3:hr>84</ns3:hr>
            <ns3:cad>0</ns3:cad>
          </ns3:TrackPointExtension>
        </extensions>
      </trkpt>
      <trkpt lat="37.7513930015265941619873046875" lon="-107.7102331817150115966796875">
        <ele>3475</ele>
        <time>2023-07-29T18:11:15.000Z</time>
        <extensions>
          <ns3:TrackPointExtension>
            <ns3:hr>84</ns3:hr>
            <ns3:cad>0</ns3:cad>
          </ns3:TrackPointExtension>
        </extensions>
      </trkpt>
      <trkpt lat="37.75139140896499156951904296875" lon="-107.7102447487413883209228515625">
        <ele>3474.800048828125</ele>
        <time>2023-07-29T18:11:16.000Z</time>
        <extensions>
          <ns3:TrackPointExtension>
            <ns3:hr>84</ns3:hr>
            <ns3:cad>0</ns3:cad>
          </ns3:TrackPointExtension>
        </extensions>
      </trkpt>
      <trkpt lat="37.7513849548995494842529296875" lon="-107.71025639958679676055908203125">
        <ele>3474.800048828125</ele>
        <time>2023-07-29T18:11:17.000Z</time>
        <extensions>
          <ns3:TrackPointExtension>
            <ns3:hr>84</ns3:hr>
            <ns3:cad>0</ns3:cad>
          </ns3:TrackPointExtension>
        </extensions>
      </trkpt>
      <trkpt lat="37.7513789199292659759521484375" lon="-107.71026830188930034637451171875">
        <ele>3474.60009765625</ele>
        <time>2023-07-29T18:11:18.000Z</time>
        <extensions>
          <ns3:TrackPointExtension>
            <ns3:hr>84</ns3:hr>
            <ns3:cad>0</ns3:cad>
          </ns3:TrackPointExtension>
        </extensions>
      </trkpt>
      <trkpt lat="37.75137104094028472900390625" lon="-107.7102769352495670318603515625">
        <ele>3474.39990234375</ele>
        <time>2023-07-29T18:11:19.000Z</time>
        <extensions>
          <ns3:TrackPointExtension>
            <ns3:hr>84</ns3:hr>
            <ns3:cad>0</ns3:cad>
          </ns3:TrackPointExtension>
        </extensions>
      </trkpt>
      <trkpt lat="37.75136299431324005126953125" lon="-107.71028841845691204071044921875">
        <ele>3474.199951171875</ele>
        <time>2023-07-29T18:11:20.000Z</time>
        <extensions>
          <ns3:TrackPointExtension>
            <ns3:hr>84</ns3:hr>
            <ns3:cad>0</ns3:cad>
          </ns3:TrackPointExtension>
        </extensions>
      </trkpt>
      <trkpt lat="37.75135494768619537353515625" lon="-107.71029948256909847259521484375">
        <ele>3474.199951171875</ele>
        <time>2023-07-29T18:11:21.000Z</time>
        <extensions>
          <ns3:TrackPointExtension>
            <ns3:hr>84</ns3:hr>
            <ns3:cad>0</ns3:cad>
          </ns3:TrackPointExtension>
        </extensions>
      </trkpt>
      <trkpt lat="37.751345895230770111083984375" lon="-107.71031172014772891998291015625">
        <ele>3474</ele>
        <time>2023-07-29T18:11:22.000Z</time>
        <extensions>
          <ns3:TrackPointExtension>
            <ns3:hr>84</ns3:hr>
            <ns3:cad>0</ns3:cad>
          </ns3:TrackPointExtension>
        </extensions>
      </trkpt>
      <trkpt lat="37.75134094990789890289306640625" lon="-107.71032043732702732086181640625">
        <ele>3474</ele>
        <time>2023-07-29T18:11:23.000Z</time>
        <extensions>
          <ns3:TrackPointExtension>
            <ns3:hr>84</ns3:hr>
            <ns3:cad>0</ns3:cad>
          </ns3:TrackPointExtension>
        </extensions>
      </trkpt>
      <trkpt lat="37.75133307091891765594482421875" lon="-107.7103332616388797760009765625">
        <ele>3474</ele>
        <time>2023-07-29T18:11:24.000Z</time>
        <extensions>
          <ns3:TrackPointExtension>
            <ns3:hr>84</ns3:hr>
            <ns3:cad>0</ns3:cad>
          </ns3:TrackPointExtension>
        </extensions>
      </trkpt>
      <trkpt lat="37.751327790319919586181640625" lon="-107.71034072153270244598388671875">
        <ele>3474</ele>
        <time>2023-07-29T18:11:25.000Z</time>
        <extensions>
          <ns3:TrackPointExtension>
            <ns3:hr>84</ns3:hr>
            <ns3:cad>0</ns3:cad>
          </ns3:TrackPointExtension>
        </extensions>
      </trkpt>
      <trkpt lat="37.75132385082542896270751953125" lon="-107.7103476785123348236083984375">
        <ele>3473.800048828125</ele>
        <time>2023-07-29T18:11:26.000Z</time>
        <extensions>
          <ns3:TrackPointExtension>
            <ns3:hr>84</ns3:hr>
            <ns3:cad>0</ns3:cad>
          </ns3:TrackPointExtension>
        </extensions>
      </trkpt>
      <trkpt lat="37.75131060741841793060302734375" lon="-107.71034709177911281585693359375">
        <ele>3473.60009765625</ele>
        <time>2023-07-29T18:11:27.000Z</time>
        <extensions>
          <ns3:TrackPointExtension>
            <ns3:hr>84</ns3:hr>
            <ns3:cad>0</ns3:cad>
          </ns3:TrackPointExtension>
        </extensions>
      </trkpt>
      <trkpt lat="37.75129434652626514434814453125" lon="-107.71035497076809406280517578125">
        <ele>3473.39990234375</ele>
        <time>2023-07-29T18:11:28.000Z</time>
        <extensions>
          <ns3:TrackPointExtension>
            <ns3:hr>84</ns3:hr>
            <ns3:cad>0</ns3:cad>
          </ns3:TrackPointExtension>
        </extensions>
      </trkpt>
      <trkpt lat="37.7512806840240955352783203125" lon="-107.71036469377577304840087890625">
        <ele>3473.39990234375</ele>
        <time>2023-07-29T18:11:29.000Z</time>
        <extensions>
          <ns3:TrackPointExtension>
            <ns3:hr>83</ns3:hr>
            <ns3:cad>0</ns3:cad>
          </ns3:TrackPointExtension>
        </extensions>
      </trkpt>
      <trkpt lat="37.75126685388386249542236328125" lon="-107.7103791944682598114013671875">
        <ele>3473.199951171875</ele>
        <time>2023-07-29T18:11:30.000Z</time>
        <extensions>
          <ns3:TrackPointExtension>
            <ns3:hr>83</ns3:hr>
            <ns3:cad>0</ns3:cad>
          </ns3:TrackPointExtension>
        </extensions>
      </trkpt>
      <trkpt lat="37.751252017915248870849609375" lon="-107.7103919349610805511474609375">
        <ele>3473.199951171875</ele>
        <time>2023-07-29T18:11:31.000Z</time>
        <extensions>
          <ns3:TrackPointExtension>
            <ns3:hr>83</ns3:hr>
            <ns3:cad>0</ns3:cad>
          </ns3:TrackPointExtension>
        </extensions>
      </trkpt>
      <trkpt lat="37.75124455802142620086669921875" lon="-107.7103989757597446441650390625">
        <ele>3473.199951171875</ele>
        <time>2023-07-29T18:11:32.000Z</time>
        <extensions>
          <ns3:TrackPointExtension>
            <ns3:hr>83</ns3:hr>
            <ns3:cad>0</ns3:cad>
          </ns3:TrackPointExtension>
        </extensions>
      </trkpt>
      <trkpt lat="37.7512350864708423614501953125" lon="-107.71040962077677249908447265625">
        <ele>3473</ele>
        <time>2023-07-29T18:11:33.000Z</time>
        <extensions>
          <ns3:TrackPointExtension>
            <ns3:hr>83</ns3:hr>
            <ns3:cad>0</ns3:cad>
          </ns3:TrackPointExtension>
        </extensions>
      </trkpt>
      <trkpt lat="37.75122460909187793731689453125" lon="-107.7104200981557369232177734375">
        <ele>3472.800048828125</ele>
        <time>2023-07-29T18:11:34.000Z</time>
        <extensions>
          <ns3:TrackPointExtension>
            <ns3:hr>83</ns3:hr>
            <ns3:cad>0</ns3:cad>
          </ns3:TrackPointExtension>
        </extensions>
      </trkpt>
      <trkpt lat="37.75121522136032581329345703125" lon="-107.710432000458240509033203125">
        <ele>3472.800048828125</ele>
        <time>2023-07-29T18:11:35.000Z</time>
        <extensions>
          <ns3:TrackPointExtension>
            <ns3:hr>83</ns3:hr>
            <ns3:cad>0</ns3:cad>
          </ns3:TrackPointExtension>
        </extensions>
      </trkpt>
      <trkpt lat="37.7512080967426300048828125" lon="-107.71043610759079456329345703125">
        <ele>3472.39990234375</ele>
        <time>2023-07-29T18:11:36.000Z</time>
        <extensions>
          <ns3:TrackPointExtension>
            <ns3:hr>83</ns3:hr>
            <ns3:cad>0</ns3:cad>
          </ns3:TrackPointExtension>
        </extensions>
      </trkpt>
      <trkpt lat="37.75120516307651996612548828125" lon="-107.71043778397142887115478515625">
        <ele>3472.199951171875</ele>
        <time>2023-07-29T18:11:37.000Z</time>
        <extensions>
          <ns3:TrackPointExtension>
            <ns3:hr>82</ns3:hr>
            <ns3:cad>0</ns3:cad>
          </ns3:TrackPointExtension>
        </extensions>
      </trkpt>
      <trkpt lat="37.75119577534496784210205078125" lon="-107.710441388189792633056640625">
        <ele>3472.199951171875</ele>
        <time>2023-07-29T18:11:38.000Z</time>
        <extensions>
          <ns3:TrackPointExtension>
            <ns3:hr>82</ns3:hr>
            <ns3:cad>0</ns3:cad>
          </ns3:TrackPointExtension>
        </extensions>
      </trkpt>
      <trkpt lat="37.75118521414697170257568359375" lon="-107.710448764264583587646484375">
        <ele>3472</ele>
        <time>2023-07-29T18:11:39.000Z</time>
        <extensions>
          <ns3:TrackPointExtension>
            <ns3:hr>82</ns3:hr>
            <ns3:cad>0</ns3:cad>
          </ns3:TrackPointExtension>
        </extensions>
      </trkpt>
      <trkpt lat="37.75117389857769012451171875" lon="-107.7104558050632476806640625">
        <ele>3472</ele>
        <time>2023-07-29T18:11:40.000Z</time>
        <extensions>
          <ns3:TrackPointExtension>
            <ns3:hr>82</ns3:hr>
            <ns3:cad>0</ns3:cad>
          </ns3:TrackPointExtension>
        </extensions>
      </trkpt>
      <trkpt lat="37.7511666901409626007080078125" lon="-107.710461504757404327392578125">
        <ele>3472</ele>
        <time>2023-07-29T18:11:41.000Z</time>
        <extensions>
          <ns3:TrackPointExtension>
            <ns3:hr>81</ns3:hr>
            <ns3:cad>0</ns3:cad>
          </ns3:TrackPointExtension>
        </extensions>
      </trkpt>
      <trkpt lat="37.7511613257229328155517578125" lon="-107.7104697190225124359130859375">
        <ele>3471.800048828125</ele>
        <time>2023-07-29T18:11:42.000Z</time>
        <extensions>
          <ns3:TrackPointExtension>
            <ns3:hr>81</ns3:hr>
            <ns3:cad>0</ns3:cad>
          </ns3:TrackPointExtension>
        </extensions>
      </trkpt>
      <trkpt lat="37.7511526085436344146728515625" lon="-107.71048237569630146026611328125">
        <ele>3471.800048828125</ele>
        <time>2023-07-29T18:11:43.000Z</time>
        <extensions>
          <ns3:TrackPointExtension>
            <ns3:hr>81</ns3:hr>
            <ns3:cad>0</ns3:cad>
          </ns3:TrackPointExtension>
        </extensions>
      </trkpt>
      <trkpt lat="37.75114850141108036041259765625" lon="-107.710490338504314422607421875">
        <ele>3471.60009765625</ele>
        <time>2023-07-29T18:11:44.000Z</time>
        <extensions>
          <ns3:TrackPointExtension>
            <ns3:hr>81</ns3:hr>
            <ns3:cad>0</ns3:cad>
          </ns3:TrackPointExtension>
        </extensions>
      </trkpt>
      <trkpt lat="37.75114129297435283660888671875" lon="-107.710502408444881439208984375">
        <ele>3471.60009765625</ele>
        <time>2023-07-29T18:11:45.000Z</time>
        <extensions>
          <ns3:TrackPointExtension>
            <ns3:hr>81</ns3:hr>
            <ns3:cad>0</ns3:cad>
          </ns3:TrackPointExtension>
        </extensions>
      </trkpt>
      <trkpt lat="37.75113500654697418212890625" lon="-107.71051355637609958648681640625">
        <ele>3471.60009765625</ele>
        <time>2023-07-29T18:11:46.000Z</time>
        <extensions>
          <ns3:TrackPointExtension>
            <ns3:hr>81</ns3:hr>
            <ns3:cad>0</ns3:cad>
          </ns3:TrackPointExtension>
        </extensions>
      </trkpt>
      <trkpt lat="37.75112905539572238922119140625" lon="-107.71052353084087371826171875">
        <ele>3471.60009765625</ele>
        <time>2023-07-29T18:11:47.000Z</time>
        <extensions>
          <ns3:TrackPointExtension>
            <ns3:hr>81</ns3:hr>
            <ns3:cad>0</ns3:cad>
          </ns3:TrackPointExtension>
        </extensions>
      </trkpt>
      <trkpt lat="37.75112100876867771148681640625" lon="-107.71053484641015529632568359375">
        <ele>3471.60009765625</ele>
        <time>2023-07-29T18:11:48.000Z</time>
        <extensions>
          <ns3:TrackPointExtension>
            <ns3:hr>81</ns3:hr>
            <ns3:cad>0</ns3:cad>
          </ns3:TrackPointExtension>
        </extensions>
      </trkpt>
      <trkpt lat="37.751112878322601318359375" lon="-107.71054406650364398956298828125">
        <ele>3471.60009765625</ele>
        <time>2023-07-29T18:11:49.000Z</time>
        <extensions>
          <ns3:TrackPointExtension>
            <ns3:hr>81</ns3:hr>
            <ns3:cad>57</ns3:cad>
          </ns3:TrackPointExtension>
        </extensions>
      </trkpt>
      <trkpt lat="37.751104831695556640625" lon="-107.71055378951132297515869140625">
        <ele>3471.39990234375</ele>
        <time>2023-07-29T18:11:50.000Z</time>
        <extensions>
          <ns3:TrackPointExtension>
            <ns3:hr>81</ns3:hr>
            <ns3:cad>57</ns3:cad>
          </ns3:TrackPointExtension>
        </extensions>
      </trkpt>
      <trkpt lat="37.75109485723078250885009765625" lon="-107.71056644618511199951171875">
        <ele>3471</ele>
        <time>2023-07-29T18:11:51.000Z</time>
        <extensions>
          <ns3:TrackPointExtension>
            <ns3:hr>82</ns3:hr>
            <ns3:cad>57</ns3:cad>
          </ns3:TrackPointExtension>
        </extensions>
      </trkpt>
      <trkpt lat="37.7510882355272769927978515625" lon="-107.71057776175439357757568359375">
        <ele>3470.800048828125</ele>
        <time>2023-07-29T18:11:52.000Z</time>
        <extensions>
          <ns3:TrackPointExtension>
            <ns3:hr>82</ns3:hr>
            <ns3:cad>57</ns3:cad>
          </ns3:TrackPointExtension>
        </extensions>
      </trkpt>
      <trkpt lat="37.751077674329280853271484375" lon="-107.71059050224721431732177734375">
        <ele>3470.800048828125</ele>
        <time>2023-07-29T18:11:53.000Z</time>
        <extensions>
          <ns3:TrackPointExtension>
            <ns3:hr>82</ns3:hr>
            <ns3:cad>54</ns3:cad>
          </ns3:TrackPointExtension>
        </extensions>
      </trkpt>
      <trkpt lat="37.75107122026383876800537109375" lon="-107.71059737540781497955322265625">
        <ele>3470.39990234375</ele>
        <time>2023-07-29T18:11:54.000Z</time>
        <extensions>
          <ns3:TrackPointExtension>
            <ns3:hr>82</ns3:hr>
            <ns3:cad>54</ns3:cad>
          </ns3:TrackPointExtension>
        </extensions>
      </trkpt>
      <trkpt lat="37.75106434710323810577392578125" lon="-107.7106058411300182342529296875">
        <ele>3470.199951171875</ele>
        <time>2023-07-29T18:11:55.000Z</time>
        <extensions>
          <ns3:TrackPointExtension>
            <ns3:hr>82</ns3:hr>
            <ns3:cad>55</ns3:cad>
          </ns3:TrackPointExtension>
        </extensions>
      </trkpt>
      <trkpt lat="37.7510590665042400360107421875" lon="-107.7106132172048091888427734375">
        <ele>3470</ele>
        <time>2023-07-29T18:11:56.000Z</time>
        <extensions>
          <ns3:TrackPointExtension>
            <ns3:hr>83</ns3:hr>
            <ns3:cad>55</ns3:cad>
          </ns3:TrackPointExtension>
        </extensions>
      </trkpt>
      <trkpt lat="37.75105319917201995849609375" lon="-107.7106222696602344512939453125">
        <ele>3470</ele>
        <time>2023-07-29T18:11:57.000Z</time>
        <extensions>
          <ns3:TrackPointExtension>
            <ns3:hr>83</ns3:hr>
            <ns3:cad>55</ns3:cad>
          </ns3:TrackPointExtension>
        </extensions>
      </trkpt>
      <trkpt lat="37.75104758329689502716064453125" lon="-107.710631154477596282958984375">
        <ele>3470</ele>
        <time>2023-07-29T18:11:58.000Z</time>
        <extensions>
          <ns3:TrackPointExtension>
            <ns3:hr>83</ns3:hr>
            <ns3:cad>55</ns3:cad>
          </ns3:TrackPointExtension>
        </extensions>
      </trkpt>
      <trkpt lat="37.75104649364948272705078125" lon="-107.71063744090497493743896484375">
        <ele>3469.60009765625</ele>
        <time>2023-07-29T18:11:59.000Z</time>
        <extensions>
          <ns3:TrackPointExtension>
            <ns3:hr>83</ns3:hr>
            <ns3:cad>55</ns3:cad>
          </ns3:TrackPointExtension>
        </extensions>
      </trkpt>
      <trkpt lat="37.75104582309722900390625" lon="-107.7106408774852752685546875">
        <ele>3469.39990234375</ele>
        <time>2023-07-29T18:12:00.000Z</time>
        <extensions>
          <ns3:TrackPointExtension>
            <ns3:hr>83</ns3:hr>
            <ns3:cad>55</ns3:cad>
          </ns3:TrackPointExtension>
        </extensions>
      </trkpt>
      <trkpt lat="37.75104272179305553436279296875" lon="-107.71065068431198596954345703125">
        <ele>3469</ele>
        <time>2023-07-29T18:12:01.000Z</time>
        <extensions>
          <ns3:TrackPointExtension>
            <ns3:hr>82</ns3:hr>
            <ns3:cad>55</ns3:cad>
          </ns3:TrackPointExtension>
        </extensions>
      </trkpt>
      <trkpt lat="37.7510312385857105255126953125" lon="-107.71066409535706043243408203125">
        <ele>3468.800048828125</ele>
        <time>2023-07-29T18:12:02.000Z</time>
        <extensions>
          <ns3:TrackPointExtension>
            <ns3:hr>82</ns3:hr>
            <ns3:cad>55</ns3:cad>
          </ns3:TrackPointExtension>
        </extensions>
      </trkpt>
      <trkpt lat="37.75102646090090274810791015625" lon="-107.7106762491166591644287109375">
        <ele>3468.60009765625</ele>
        <time>2023-07-29T18:12:03.000Z</time>
        <extensions>
          <ns3:TrackPointExtension>
            <ns3:hr>82</ns3:hr>
            <ns3:cad>55</ns3:cad>
          </ns3:TrackPointExtension>
        </extensions>
      </trkpt>
      <trkpt lat="37.75101874954998493194580078125" lon="-107.71069158799946308135986328125">
        <ele>3468.39990234375</ele>
        <time>2023-07-29T18:12:04.000Z</time>
        <extensions>
          <ns3:TrackPointExtension>
            <ns3:hr>82</ns3:hr>
            <ns3:cad>55</ns3:cad>
          </ns3:TrackPointExtension>
        </extensions>
      </trkpt>
      <trkpt lat="37.7510131336748600006103515625" lon="-107.710707597434520721435546875">
        <ele>3468</ele>
        <time>2023-07-29T18:12:05.000Z</time>
        <extensions>
          <ns3:TrackPointExtension>
            <ns3:hr>82</ns3:hr>
            <ns3:cad>55</ns3:cad>
          </ns3:TrackPointExtension>
        </extensions>
      </trkpt>
      <trkpt lat="37.751008607447147369384765625" lon="-107.710717655718326568603515625">
        <ele>3468</ele>
        <time>2023-07-29T18:12:06.000Z</time>
        <extensions>
          <ns3:TrackPointExtension>
            <ns3:hr>81</ns3:hr>
            <ns3:cad>55</ns3:cad>
          </ns3:TrackPointExtension>
        </extensions>
      </trkpt>
      <trkpt lat="37.7510037459433078765869140625" lon="-107.7107315696775913238525390625">
        <ele>3467.800048828125</ele>
        <time>2023-07-29T18:12:07.000Z</time>
        <extensions>
          <ns3:TrackPointExtension>
            <ns3:hr>80</ns3:hr>
            <ns3:cad>55</ns3:cad>
          </ns3:TrackPointExtension>
        </extensions>
      </trkpt>
      <trkpt lat="37.7509993873536586761474609375" lon="-107.710745148360729217529296875">
        <ele>3467.60009765625</ele>
        <time>2023-07-29T18:12:08.000Z</time>
        <extensions>
          <ns3:TrackPointExtension>
            <ns3:hr>80</ns3:hr>
            <ns3:cad>55</ns3:cad>
          </ns3:TrackPointExtension>
        </extensions>
      </trkpt>
      <trkpt lat="37.7509906701743602752685546875" lon="-107.71076149307191371917724609375">
        <ele>3467.39990234375</ele>
        <time>2023-07-29T18:12:09.000Z</time>
        <extensions>
          <ns3:TrackPointExtension>
            <ns3:hr>79</ns3:hr>
            <ns3:cad>55</ns3:cad>
          </ns3:TrackPointExtension>
        </extensions>
      </trkpt>
      <trkpt lat="37.75098572485148906707763671875" lon="-107.71077523939311504364013671875">
        <ele>3467.199951171875</ele>
        <time>2023-07-29T18:12:10.000Z</time>
        <extensions>
          <ns3:TrackPointExtension>
            <ns3:hr>78</ns3:hr>
            <ns3:cad>55</ns3:cad>
          </ns3:TrackPointExtension>
        </extensions>
      </trkpt>
      <trkpt lat="37.7509806118905544281005859375" lon="-107.7107895724475383758544921875">
        <ele>3467.199951171875</ele>
        <time>2023-07-29T18:12:11.000Z</time>
        <extensions>
          <ns3:TrackPointExtension>
            <ns3:hr>78</ns3:hr>
            <ns3:cad>0</ns3:cad>
          </ns3:TrackPointExtension>
        </extensions>
      </trkpt>
      <trkpt lat="37.75097382254898548126220703125" lon="-107.7108043245971202850341796875">
        <ele>3467</ele>
        <time>2023-07-29T18:12:12.000Z</time>
        <extensions>
          <ns3:TrackPointExtension>
            <ns3:hr>77</ns3:hr>
            <ns3:cad>0</ns3:cad>
          </ns3:TrackPointExtension>
        </extensions>
      </trkpt>
      <trkpt lat="37.75097097270190715789794921875" lon="-107.7108117006719112396240234375">
        <ele>3467</ele>
        <time>2023-07-29T18:12:13.000Z</time>
        <extensions>
          <ns3:TrackPointExtension>
            <ns3:hr>77</ns3:hr>
            <ns3:cad>0</ns3:cad>
          </ns3:TrackPointExtension>
        </extensions>
      </trkpt>
      <trkpt lat="37.750967033207416534423828125" lon="-107.71082150749862194061279296875">
        <ele>3467</ele>
        <time>2023-07-29T18:12:14.000Z</time>
        <extensions>
          <ns3:TrackPointExtension>
            <ns3:hr>77</ns3:hr>
            <ns3:cad>0</ns3:cad>
          </ns3:TrackPointExtension>
        </extensions>
      </trkpt>
      <trkpt lat="37.750964350998401641845703125" lon="-107.71083173342049121856689453125">
        <ele>3466.800048828125</ele>
        <time>2023-07-29T18:12:15.000Z</time>
        <extensions>
          <ns3:TrackPointExtension>
            <ns3:hr>78</ns3:hr>
            <ns3:cad>0</ns3:cad>
          </ns3:TrackPointExtension>
        </extensions>
      </trkpt>
      <trkpt lat="37.75096091441810131072998046875" lon="-107.7108418755233287811279296875">
        <ele>3466.800048828125</ele>
        <time>2023-07-29T18:12:16.000Z</time>
        <extensions>
          <ns3:TrackPointExtension>
            <ns3:hr>80</ns3:hr>
            <ns3:cad>0</ns3:cad>
          </ns3:TrackPointExtension>
        </extensions>
      </trkpt>
      <trkpt lat="37.7509571425616741180419921875" lon="-107.7108502574265003204345703125">
        <ele>3466.60009765625</ele>
        <time>2023-07-29T18:12:17.000Z</time>
        <extensions>
          <ns3:TrackPointExtension>
            <ns3:hr>81</ns3:hr>
            <ns3:cad>0</ns3:cad>
          </ns3:TrackPointExtension>
        </extensions>
      </trkpt>
      <trkpt lat="37.75095169432461261749267578125" lon="-107.710866518318653106689453125">
        <ele>3466.39990234375</ele>
        <time>2023-07-29T18:12:18.000Z</time>
        <extensions>
          <ns3:TrackPointExtension>
            <ns3:hr>82</ns3:hr>
            <ns3:cad>0</ns3:cad>
          </ns3:TrackPointExtension>
        </extensions>
      </trkpt>
      <trkpt lat="37.75094456970691680908203125" lon="-107.710880599915981292724609375">
        <ele>3466.39990234375</ele>
        <time>2023-07-29T18:12:19.000Z</time>
        <extensions>
          <ns3:TrackPointExtension>
            <ns3:hr>82</ns3:hr>
            <ns3:cad>0</ns3:cad>
          </ns3:TrackPointExtension>
        </extensions>
      </trkpt>
      <trkpt lat="37.75093660689890384674072265625" lon="-107.71088705398142337799072265625">
        <ele>3466.199951171875</ele>
        <time>2023-07-29T18:12:20.000Z</time>
        <extensions>
          <ns3:TrackPointExtension>
            <ns3:hr>82</ns3:hr>
            <ns3:cad>55</ns3:cad>
          </ns3:TrackPointExtension>
        </extensions>
      </trkpt>
      <trkpt lat="37.7509219385683536529541015625" lon="-107.71090381778776645660400390625">
        <ele>3466.199951171875</ele>
        <time>2023-07-29T18:12:21.000Z</time>
        <extensions>
          <ns3:TrackPointExtension>
            <ns3:hr>83</ns3:hr>
            <ns3:cad>55</ns3:cad>
          </ns3:TrackPointExtension>
        </extensions>
      </trkpt>
      <trkpt lat="37.75090970098972320556640625" lon="-107.71091471426188945770263671875">
        <ele>3466.199951171875</ele>
        <time>2023-07-29T18:12:22.000Z</time>
        <extensions>
          <ns3:TrackPointExtension>
            <ns3:hr>83</ns3:hr>
            <ns3:cad>55</ns3:cad>
          </ns3:TrackPointExtension>
        </extensions>
      </trkpt>
      <trkpt lat="37.750893272459506988525390625" lon="-107.7109273709356784820556640625">
        <ele>3466.199951171875</ele>
        <time>2023-07-29T18:12:23.000Z</time>
        <extensions>
          <ns3:TrackPointExtension>
            <ns3:hr>83</ns3:hr>
            <ns3:cad>55</ns3:cad>
          </ns3:TrackPointExtension>
        </extensions>
      </trkpt>
      <trkpt lat="37.75088245980441570281982421875" lon="-107.71093927323818206787109375">
        <ele>3466</ele>
        <time>2023-07-29T18:12:24.000Z</time>
        <extensions>
          <ns3:TrackPointExtension>
            <ns3:hr>84</ns3:hr>
            <ns3:cad>55</ns3:cad>
          </ns3:TrackPointExtension>
        </extensions>
      </trkpt>
      <trkpt lat="37.750867791473865509033203125" lon="-107.71095243282616138458251953125">
        <ele>3465.800048828125</ele>
        <time>2023-07-29T18:12:25.000Z</time>
        <extensions>
          <ns3:TrackPointExtension>
            <ns3:hr>84</ns3:hr>
            <ns3:cad>55</ns3:cad>
          </ns3:TrackPointExtension>
        </extensions>
      </trkpt>
      <trkpt lat="37.75085203349590301513671875" lon="-107.7109682746231555938720703125">
        <ele>3465.800048828125</ele>
        <time>2023-07-29T18:12:26.000Z</time>
        <extensions>
          <ns3:TrackPointExtension>
            <ns3:hr>84</ns3:hr>
            <ns3:cad>0</ns3:cad>
          </ns3:TrackPointExtension>
        </extensions>
      </trkpt>
      <trkpt lat="37.750842981040477752685546875" lon="-107.710973806679248809814453125">
        <ele>3465.60009765625</ele>
        <time>2023-07-29T18:12:27.000Z</time>
        <extensions>
          <ns3:TrackPointExtension>
            <ns3:hr>84</ns3:hr>
            <ns3:cad>0</ns3:cad>
          </ns3:TrackPointExtension>
        </extensions>
      </trkpt>
      <trkpt lat="37.75083501823246479034423828125" lon="-107.71097623743116855621337890625">
        <ele>3465.199951171875</ele>
        <time>2023-07-29T18:12:28.000Z</time>
        <extensions>
          <ns3:TrackPointExtension>
            <ns3:hr>84</ns3:hr>
            <ns3:cad>0</ns3:cad>
          </ns3:TrackPointExtension>
        </extensions>
      </trkpt>
      <trkpt lat="37.7508277259767055511474609375" lon="-107.71097741089761257171630859375">
        <ele>3464.800048828125</ele>
        <time>2023-07-29T18:12:29.000Z</time>
        <extensions>
          <ns3:TrackPointExtension>
            <ns3:hr>84</ns3:hr>
            <ns3:cad>0</ns3:cad>
          </ns3:TrackPointExtension>
        </extensions>
      </trkpt>
      <trkpt lat="37.75081808678805828094482421875" lon="-107.71098327822983264923095703125">
        <ele>3464.60009765625</ele>
        <time>2023-07-29T18:12:30.000Z</time>
        <extensions>
          <ns3:TrackPointExtension>
            <ns3:hr>84</ns3:hr>
            <ns3:cad>0</ns3:cad>
          </ns3:TrackPointExtension>
        </extensions>
      </trkpt>
      <trkpt lat="37.75081045925617218017578125" lon="-107.71098931320011615753173828125">
        <ele>3464.39990234375</ele>
        <time>2023-07-29T18:12:31.000Z</time>
        <extensions>
          <ns3:TrackPointExtension>
            <ns3:hr>84</ns3:hr>
            <ns3:cad>0</ns3:cad>
          </ns3:TrackPointExtension>
        </extensions>
      </trkpt>
      <trkpt lat="37.750798724591732025146484375" lon="-107.71099836565554141998291015625">
        <ele>3464.199951171875</ele>
        <time>2023-07-29T18:12:32.000Z</time>
        <extensions>
          <ns3:TrackPointExtension>
            <ns3:hr>84</ns3:hr>
            <ns3:cad>0</ns3:cad>
          </ns3:TrackPointExtension>
        </extensions>
      </trkpt>
      <trkpt lat="37.75078841485083103179931640625" lon="-107.711006663739681243896484375">
        <ele>3464</ele>
        <time>2023-07-29T18:12:33.000Z</time>
        <extensions>
          <ns3:TrackPointExtension>
            <ns3:hr>83</ns3:hr>
            <ns3:cad>0</ns3:cad>
          </ns3:TrackPointExtension>
        </extensions>
      </trkpt>
      <trkpt lat="37.7507814578711986541748046875" lon="-107.71100993268191814422607421875">
        <ele>3464</ele>
        <time>2023-07-29T18:12:34.000Z</time>
        <extensions>
          <ns3:TrackPointExtension>
            <ns3:hr>83</ns3:hr>
            <ns3:cad>0</ns3:cad>
          </ns3:TrackPointExtension>
        </extensions>
      </trkpt>
      <trkpt lat="37.75076963938772678375244140625" lon="-107.71102082915604114532470703125">
        <ele>3463.800048828125</ele>
        <time>2023-07-29T18:12:35.000Z</time>
        <extensions>
          <ns3:TrackPointExtension>
            <ns3:hr>83</ns3:hr>
            <ns3:cad>0</ns3:cad>
          </ns3:TrackPointExtension>
        </extensions>
      </trkpt>
      <trkpt lat="37.750759832561016082763671875" lon="-107.7110297977924346923828125">
        <ele>3463.60009765625</ele>
        <time>2023-07-29T18:12:36.000Z</time>
        <extensions>
          <ns3:TrackPointExtension>
            <ns3:hr>83</ns3:hr>
            <ns3:cad>0</ns3:cad>
          </ns3:TrackPointExtension>
        </extensions>
      </trkpt>
      <trkpt lat="37.75075522251427173614501953125" lon="-107.7110378444194793701171875">
        <ele>3463.60009765625</ele>
        <time>2023-07-29T18:12:37.000Z</time>
        <extensions>
          <ns3:TrackPointExtension>
            <ns3:hr>83</ns3:hr>
            <ns3:cad>0</ns3:cad>
          </ns3:TrackPointExtension>
        </extensions>
      </trkpt>
      <trkpt lat="37.75074901990592479705810546875" lon="-107.7110470645129680633544921875">
        <ele>3463.60009765625</ele>
        <time>2023-07-29T18:12:38.000Z</time>
        <extensions>
          <ns3:TrackPointExtension>
            <ns3:hr>82</ns3:hr>
            <ns3:cad>0</ns3:cad>
          </ns3:TrackPointExtension>
        </extensions>
      </trkpt>
      <trkpt lat="37.7507412247359752655029296875" lon="-107.71105770952999591827392578125">
        <ele>3463.60009765625</ele>
        <time>2023-07-29T18:12:39.000Z</time>
        <extensions>
          <ns3:TrackPointExtension>
            <ns3:hr>82</ns3:hr>
            <ns3:cad>55</ns3:cad>
          </ns3:TrackPointExtension>
        </extensions>
      </trkpt>
      <trkpt lat="37.75073309428989887237548828125" lon="-107.7110648341476917266845703125">
        <ele>3463.60009765625</ele>
        <time>2023-07-29T18:12:40.000Z</time>
        <extensions>
          <ns3:TrackPointExtension>
            <ns3:hr>82</ns3:hr>
            <ns3:cad>55</ns3:cad>
          </ns3:TrackPointExtension>
        </extensions>
      </trkpt>
      <trkpt lat="37.7507251314818859100341796875" lon="-107.71107698790729045867919921875">
        <ele>3463.60009765625</ele>
        <time>2023-07-29T18:12:41.000Z</time>
        <extensions>
          <ns3:TrackPointExtension>
            <ns3:hr>82</ns3:hr>
            <ns3:cad>55</ns3:cad>
          </ns3:TrackPointExtension>
        </extensions>
      </trkpt>
      <trkpt lat="37.75071716867387294769287109375" lon="-107.71108679473400115966796875">
        <ele>3463.60009765625</ele>
        <time>2023-07-29T18:12:42.000Z</time>
        <extensions>
          <ns3:TrackPointExtension>
            <ns3:hr>83</ns3:hr>
            <ns3:cad>55</ns3:cad>
          </ns3:TrackPointExtension>
        </extensions>
      </trkpt>
      <trkpt lat="37.75070711039006710052490234375" lon="-107.71109995432198047637939453125">
        <ele>3463.60009765625</ele>
        <time>2023-07-29T18:12:43.000Z</time>
        <extensions>
          <ns3:TrackPointExtension>
            <ns3:hr>83</ns3:hr>
            <ns3:cad>0</ns3:cad>
          </ns3:TrackPointExtension>
        </extensions>
      </trkpt>
      <trkpt lat="37.7507023327052593231201171875" lon="-107.711110599339008331298828125">
        <ele>3463.60009765625</ele>
        <time>2023-07-29T18:12:44.000Z</time>
        <extensions>
          <ns3:TrackPointExtension>
            <ns3:hr>83</ns3:hr>
            <ns3:cad>0</ns3:cad>
          </ns3:TrackPointExtension>
        </extensions>
      </trkpt>
      <trkpt lat="37.75069436989724636077880859375" lon="-107.71112493239343166351318359375">
        <ele>3463.60009765625</ele>
        <time>2023-07-29T18:12:45.000Z</time>
        <extensions>
          <ns3:TrackPointExtension>
            <ns3:hr>83</ns3:hr>
            <ns3:cad>0</ns3:cad>
          </ns3:TrackPointExtension>
        </extensions>
      </trkpt>
      <trkpt lat="37.750687412917613983154296875" lon="-107.71113507449626922607421875">
        <ele>3463.60009765625</ele>
        <time>2023-07-29T18:12:46.000Z</time>
        <extensions>
          <ns3:TrackPointExtension>
            <ns3:hr>83</ns3:hr>
            <ns3:cad>0</ns3:cad>
          </ns3:TrackPointExtension>
        </extensions>
      </trkpt>
      <trkpt lat="37.7506768517196178436279296875" lon="-107.71114571951329708099365234375">
        <ele>3463.39990234375</ele>
        <time>2023-07-29T18:12:47.000Z</time>
        <extensions>
          <ns3:TrackPointExtension>
            <ns3:hr>83</ns3:hr>
            <ns3:cad>0</ns3:cad>
          </ns3:TrackPointExtension>
        </extensions>
      </trkpt>
      <trkpt lat="37.75066603906452655792236328125" lon="-107.7111570350825786590576171875">
        <ele>3463.39990234375</ele>
        <time>2023-07-29T18:12:48.000Z</time>
        <extensions>
          <ns3:TrackPointExtension>
            <ns3:hr>83</ns3:hr>
            <ns3:cad>0</ns3:cad>
          </ns3:TrackPointExtension>
        </extensions>
      </trkpt>
      <trkpt lat="37.75065623223781585693359375" lon="-107.71116768009960651397705078125">
        <ele>3463.199951171875</ele>
        <time>2023-07-29T18:12:49.000Z</time>
        <extensions>
          <ns3:TrackPointExtension>
            <ns3:hr>83</ns3:hr>
            <ns3:cad>0</ns3:cad>
          </ns3:TrackPointExtension>
        </extensions>
      </trkpt>
      <trkpt lat="37.75064575485885143280029296875" lon="-107.71117874421179294586181640625">
        <ele>3463.199951171875</ele>
        <time>2023-07-29T18:12:50.000Z</time>
        <extensions>
          <ns3:TrackPointExtension>
            <ns3:hr>83</ns3:hr>
            <ns3:cad>0</ns3:cad>
          </ns3:TrackPointExtension>
        </extensions>
      </trkpt>
      <trkpt lat="37.75064039044082164764404296875" lon="-107.711186707019805908203125">
        <ele>3463.199951171875</ele>
        <time>2023-07-29T18:12:51.000Z</time>
        <extensions>
          <ns3:TrackPointExtension>
            <ns3:hr>83</ns3:hr>
            <ns3:cad>0</ns3:cad>
          </ns3:TrackPointExtension>
        </extensions>
      </trkpt>
      <trkpt lat="37.75063402019441127777099609375" lon="-107.71119785495102405548095703125">
        <ele>3463.199951171875</ele>
        <time>2023-07-29T18:12:52.000Z</time>
        <extensions>
          <ns3:TrackPointExtension>
            <ns3:hr>83</ns3:hr>
            <ns3:cad>55</ns3:cad>
          </ns3:TrackPointExtension>
        </extensions>
      </trkpt>
      <trkpt lat="37.7506302483379840850830078125" lon="-107.7112041413784027099609375">
        <ele>3463.199951171875</ele>
        <time>2023-07-29T18:12:53.000Z</time>
        <extensions>
          <ns3:TrackPointExtension>
            <ns3:hr>83</ns3:hr>
            <ns3:cad>55</ns3:cad>
          </ns3:TrackPointExtension>
        </extensions>
      </trkpt>
      <trkpt lat="37.75062228552997112274169921875" lon="-107.71121528930962085723876953125">
        <ele>3463.199951171875</ele>
        <time>2023-07-29T18:12:54.000Z</time>
        <extensions>
          <ns3:TrackPointExtension>
            <ns3:hr>83</ns3:hr>
            <ns3:cad>0</ns3:cad>
          </ns3:TrackPointExtension>
        </extensions>
      </trkpt>
      <trkpt lat="37.75061876513063907623291015625" lon="-107.71122157573699951171875">
        <ele>3463.199951171875</ele>
        <time>2023-07-29T18:12:55.000Z</time>
        <extensions>
          <ns3:TrackPointExtension>
            <ns3:hr>83</ns3:hr>
            <ns3:cad>0</ns3:cad>
          </ns3:TrackPointExtension>
        </extensions>
      </trkpt>
      <trkpt lat="37.75061222724616527557373046875" lon="-107.711233980953693389892578125">
        <ele>3463</ele>
        <time>2023-07-29T18:12:56.000Z</time>
        <extensions>
          <ns3:TrackPointExtension>
            <ns3:hr>83</ns3:hr>
            <ns3:cad>0</ns3:cad>
          </ns3:TrackPointExtension>
        </extensions>
      </trkpt>
      <trkpt lat="37.75060250423848628997802734375" lon="-107.71124898456037044525146484375">
        <ele>3463</ele>
        <time>2023-07-29T18:12:57.000Z</time>
        <extensions>
          <ns3:TrackPointExtension>
            <ns3:hr>84</ns3:hr>
            <ns3:cad>0</ns3:cad>
          </ns3:TrackPointExtension>
        </extensions>
      </trkpt>
      <trkpt lat="37.75059051811695098876953125" lon="-107.7112623117864131927490234375">
        <ele>3463</ele>
        <time>2023-07-29T18:12:58.000Z</time>
        <extensions>
          <ns3:TrackPointExtension>
            <ns3:hr>84</ns3:hr>
            <ns3:cad>0</ns3:cad>
          </ns3:TrackPointExtension>
        </extensions>
      </trkpt>
      <trkpt lat="37.7505779452621936798095703125" lon="-107.71127765066921710968017578125">
        <ele>3462.800048828125</ele>
        <time>2023-07-29T18:12:59.000Z</time>
        <extensions>
          <ns3:TrackPointExtension>
            <ns3:hr>85</ns3:hr>
            <ns3:cad>0</ns3:cad>
          </ns3:TrackPointExtension>
        </extensions>
      </trkpt>
      <trkpt lat="37.7505688928067684173583984375" lon="-107.711287625133991241455078125">
        <ele>3462.60009765625</ele>
        <time>2023-07-29T18:13:00.000Z</time>
        <extensions>
          <ns3:TrackPointExtension>
            <ns3:hr>85</ns3:hr>
            <ns3:cad>55</ns3:cad>
          </ns3:TrackPointExtension>
        </extensions>
      </trkpt>
      <trkpt lat="37.750562690198421478271484375" lon="-107.7112975157797336578369140625">
        <ele>3462.39990234375</ele>
        <time>2023-07-29T18:13:01.000Z</time>
        <extensions>
          <ns3:TrackPointExtension>
            <ns3:hr>85</ns3:hr>
            <ns3:cad>55</ns3:cad>
          </ns3:TrackPointExtension>
        </extensions>
      </trkpt>
      <trkpt lat="37.75055556558072566986083984375" lon="-107.7113072387874126434326171875">
        <ele>3462.39990234375</ele>
        <time>2023-07-29T18:13:02.000Z</time>
        <extensions>
          <ns3:TrackPointExtension>
            <ns3:hr>85</ns3:hr>
            <ns3:cad>55</ns3:cad>
          </ns3:TrackPointExtension>
        </extensions>
      </trkpt>
      <trkpt lat="37.75055137462913990020751953125" lon="-107.71131503395736217498779296875">
        <ele>3462.199951171875</ele>
        <time>2023-07-29T18:13:03.000Z</time>
        <extensions>
          <ns3:TrackPointExtension>
            <ns3:hr>85</ns3:hr>
            <ns3:cad>55</ns3:cad>
          </ns3:TrackPointExtension>
        </extensions>
      </trkpt>
      <trkpt lat="37.75054802186787128448486328125" lon="-107.71132148802280426025390625">
        <ele>3462.199951171875</ele>
        <time>2023-07-29T18:13:04.000Z</time>
        <extensions>
          <ns3:TrackPointExtension>
            <ns3:hr>85</ns3:hr>
            <ns3:cad>55</ns3:cad>
          </ns3:TrackPointExtension>
        </extensions>
      </trkpt>
      <trkpt lat="37.75054399855434894561767578125" lon="-107.71133230067789554595947265625">
        <ele>3462</ele>
        <time>2023-07-29T18:13:05.000Z</time>
        <extensions>
          <ns3:TrackPointExtension>
            <ns3:hr>85</ns3:hr>
            <ns3:cad>55</ns3:cad>
          </ns3:TrackPointExtension>
        </extensions>
      </trkpt>
      <trkpt lat="37.75054098106920719146728515625" lon="-107.71133900620043277740478515625">
        <ele>3461.800048828125</ele>
        <time>2023-07-29T18:13:06.000Z</time>
        <extensions>
          <ns3:TrackPointExtension>
            <ns3:hr>85</ns3:hr>
            <ns3:cad>54</ns3:cad>
          </ns3:TrackPointExtension>
        </extensions>
      </trkpt>
      <trkpt lat="37.7505310066044330596923828125" lon="-107.7113545127213001251220703125">
        <ele>3461.800048828125</ele>
        <time>2023-07-29T18:13:07.000Z</time>
        <extensions>
          <ns3:TrackPointExtension>
            <ns3:hr>85</ns3:hr>
            <ns3:cad>54</ns3:cad>
          </ns3:TrackPointExtension>
        </extensions>
      </trkpt>
      <trkpt lat="37.7505243010818958282470703125" lon="-107.711364738643169403076171875">
        <ele>3461.60009765625</ele>
        <time>2023-07-29T18:13:08.000Z</time>
        <extensions>
          <ns3:TrackPointExtension>
            <ns3:hr>84</ns3:hr>
            <ns3:cad>54</ns3:cad>
          </ns3:TrackPointExtension>
        </extensions>
      </trkpt>
      <trkpt lat="37.7505159191787242889404296875" lon="-107.71137203089892864227294921875">
        <ele>3461.60009765625</ele>
        <time>2023-07-29T18:13:09.000Z</time>
        <extensions>
          <ns3:TrackPointExtension>
            <ns3:hr>84</ns3:hr>
            <ns3:cad>54</ns3:cad>
          </ns3:TrackPointExtension>
        </extensions>
      </trkpt>
      <trkpt lat="37.75050946511328220367431640625" lon="-107.711379490792751312255859375">
        <ele>3461.39990234375</ele>
        <time>2023-07-29T18:13:10.000Z</time>
        <extensions>
          <ns3:TrackPointExtension>
            <ns3:hr>84</ns3:hr>
            <ns3:cad>54</ns3:cad>
          </ns3:TrackPointExtension>
        </extensions>
      </trkpt>
      <trkpt lat="37.7505026757717132568359375" lon="-107.71138544194400310516357421875">
        <ele>3461.199951171875</ele>
        <time>2023-07-29T18:13:11.000Z</time>
        <extensions>
          <ns3:TrackPointExtension>
            <ns3:hr>84</ns3:hr>
            <ns3:cad>54</ns3:cad>
          </ns3:TrackPointExtension>
        </extensions>
      </trkpt>
      <trkpt lat="37.75049689225852489471435546875" lon="-107.7113920636475086212158203125">
        <ele>3461.199951171875</ele>
        <time>2023-07-29T18:13:12.000Z</time>
        <extensions>
          <ns3:TrackPointExtension>
            <ns3:hr>84</ns3:hr>
            <ns3:cad>54</ns3:cad>
          </ns3:TrackPointExtension>
        </extensions>
      </trkpt>
      <trkpt lat="37.750486247241497039794921875" lon="-107.71140337921679019927978515625">
        <ele>3461</ele>
        <time>2023-07-29T18:13:13.000Z</time>
        <extensions>
          <ns3:TrackPointExtension>
            <ns3:hr>84</ns3:hr>
            <ns3:cad>54</ns3:cad>
          </ns3:TrackPointExtension>
        </extensions>
      </trkpt>
      <trkpt lat="37.7504776977002620697021484375" lon="-107.7114145271480083465576171875">
        <ele>3460.800048828125</ele>
        <time>2023-07-29T18:13:14.000Z</time>
        <extensions>
          <ns3:TrackPointExtension>
            <ns3:hr>84</ns3:hr>
            <ns3:cad>54</ns3:cad>
          </ns3:TrackPointExtension>
        </extensions>
      </trkpt>
      <trkpt lat="37.75046621449291706085205078125" lon="-107.71142701618373394012451171875">
        <ele>3460.60009765625</ele>
        <time>2023-07-29T18:13:15.000Z</time>
        <extensions>
          <ns3:TrackPointExtension>
            <ns3:hr>84</ns3:hr>
            <ns3:cad>54</ns3:cad>
          </ns3:TrackPointExtension>
        </extensions>
      </trkpt>
      <trkpt lat="37.750455401837825775146484375" lon="-107.71143975667655467987060546875">
        <ele>3460.39990234375</ele>
        <time>2023-07-29T18:13:16.000Z</time>
        <extensions>
          <ns3:TrackPointExtension>
            <ns3:hr>85</ns3:hr>
            <ns3:cad>54</ns3:cad>
          </ns3:TrackPointExtension>
        </extensions>
      </trkpt>
      <trkpt lat="37.75044743902981281280517578125" lon="-107.71144730038940906524658203125">
        <ele>3460.199951171875</ele>
        <time>2023-07-29T18:13:17.000Z</time>
        <extensions>
          <ns3:TrackPointExtension>
            <ns3:hr>85</ns3:hr>
            <ns3:cad>54</ns3:cad>
          </ns3:TrackPointExtension>
        </extensions>
      </trkpt>
      <trkpt lat="37.75043469853699207305908203125" lon="-107.7114562690258026123046875">
        <ele>3460</ele>
        <time>2023-07-29T18:13:18.000Z</time>
        <extensions>
          <ns3:TrackPointExtension>
            <ns3:hr>85</ns3:hr>
            <ns3:cad>54</ns3:cad>
          </ns3:TrackPointExtension>
        </extensions>
      </trkpt>
      <trkpt lat="37.75042422115802764892578125" lon="-107.7114654891192913055419921875">
        <ele>3460</ele>
        <time>2023-07-29T18:13:19.000Z</time>
        <extensions>
          <ns3:TrackPointExtension>
            <ns3:hr>85</ns3:hr>
            <ns3:cad>54</ns3:cad>
          </ns3:TrackPointExtension>
        </extensions>
      </trkpt>
      <trkpt lat="37.75041525252163410186767578125" lon="-107.7114688418805599212646484375">
        <ele>3460</ele>
        <time>2023-07-29T18:13:20.000Z</time>
        <extensions>
          <ns3:TrackPointExtension>
            <ns3:hr>85</ns3:hr>
            <ns3:cad>55</ns3:cad>
          </ns3:TrackPointExtension>
        </extensions>
      </trkpt>
      <trkpt lat="37.75040871463716030120849609375" lon="-107.7114750444889068603515625">
        <ele>3460</ele>
        <time>2023-07-29T18:13:21.000Z</time>
        <extensions>
          <ns3:TrackPointExtension>
            <ns3:hr>85</ns3:hr>
            <ns3:cad>55</ns3:cad>
          </ns3:TrackPointExtension>
        </extensions>
      </trkpt>
      <trkpt lat="37.75040569715201854705810546875" lon="-107.71147697232663631439208984375">
        <ele>3460</ele>
        <time>2023-07-29T18:13:22.000Z</time>
        <extensions>
          <ns3:TrackPointExtension>
            <ns3:hr>85</ns3:hr>
            <ns3:cad>55</ns3:cad>
          </ns3:TrackPointExtension>
        </extensions>
      </trkpt>
      <trkpt lat="37.750403098762035369873046875" lon="-107.71147697232663631439208984375">
        <ele>3460</ele>
        <time>2023-07-29T18:13:23.000Z</time>
        <extensions>
          <ns3:TrackPointExtension>
            <ns3:hr>84</ns3:hr>
            <ns3:cad>75</ns3:cad>
          </ns3:TrackPointExtension>
        </extensions>
      </trkpt>
      <trkpt lat="37.75039966218173503875732421875" lon="-107.71147328428924083709716796875">
        <ele>3459.800048828125</ele>
        <time>2023-07-29T18:13:24.000Z</time>
        <extensions>
          <ns3:TrackPointExtension>
            <ns3:hr>84</ns3:hr>
            <ns3:cad>75</ns3:cad>
          </ns3:TrackPointExtension>
        </extensions>
      </trkpt>
      <trkpt lat="37.75039429776370525360107421875" lon="-107.711474038660526275634765625">
        <ele>3459.800048828125</ele>
        <time>2023-07-29T18:13:25.000Z</time>
        <extensions>
          <ns3:TrackPointExtension>
            <ns3:hr>85</ns3:hr>
            <ns3:cad>0</ns3:cad>
          </ns3:TrackPointExtension>
        </extensions>
      </trkpt>
      <trkpt lat="37.750387676060199737548828125" lon="-107.7114742062985897064208984375">
        <ele>3459.60009765625</ele>
        <time>2023-07-29T18:13:26.000Z</time>
        <extensions>
          <ns3:TrackPointExtension>
            <ns3:hr>85</ns3:hr>
            <ns3:cad>0</ns3:cad>
          </ns3:TrackPointExtension>
        </extensions>
      </trkpt>
      <trkpt lat="37.75038172490894794464111328125" lon="-107.71147839725017547607421875">
        <ele>3459.60009765625</ele>
        <time>2023-07-29T18:13:27.000Z</time>
        <extensions>
          <ns3:TrackPointExtension>
            <ns3:hr>85</ns3:hr>
            <ns3:cad>0</ns3:cad>
          </ns3:TrackPointExtension>
        </extensions>
      </trkpt>
      <trkpt lat="37.75037535466253757476806640625" lon="-107.711480744183063507080078125">
        <ele>3459.39990234375</ele>
        <time>2023-07-29T18:13:28.000Z</time>
        <extensions>
          <ns3:TrackPointExtension>
            <ns3:hr>85</ns3:hr>
            <ns3:cad>0</ns3:cad>
          </ns3:TrackPointExtension>
        </extensions>
      </trkpt>
      <trkpt lat="37.75036764331161975860595703125" lon="-107.71148351021111011505126953125">
        <ele>3459.39990234375</ele>
        <time>2023-07-29T18:13:29.000Z</time>
        <extensions>
          <ns3:TrackPointExtension>
            <ns3:hr>85</ns3:hr>
            <ns3:cad>0</ns3:cad>
          </ns3:TrackPointExtension>
        </extensions>
      </trkpt>
      <trkpt lat="37.7503647096455097198486328125" lon="-107.71147898398339748382568359375">
        <ele>3459.39990234375</ele>
        <time>2023-07-29T18:13:30.000Z</time>
        <extensions>
          <ns3:TrackPointExtension>
            <ns3:hr>85</ns3:hr>
            <ns3:cad>0</ns3:cad>
          </ns3:TrackPointExtension>
        </extensions>
      </trkpt>
      <trkpt lat="37.7503539808094501495361328125" lon="-107.7114742062985897064208984375">
        <ele>3459.60009765625</ele>
        <time>2023-07-29T18:13:31.000Z</time>
        <extensions>
          <ns3:TrackPointExtension>
            <ns3:hr>85</ns3:hr>
            <ns3:cad>0</ns3:cad>
          </ns3:TrackPointExtension>
        </extensions>
      </trkpt>
      <trkpt lat="37.75034149177372455596923828125" lon="-107.71147646941244602203369140625">
        <ele>3459.800048828125</ele>
        <time>2023-07-29T18:13:32.000Z</time>
        <extensions>
          <ns3:TrackPointExtension>
            <ns3:hr>85</ns3:hr>
            <ns3:cad>0</ns3:cad>
          </ns3:TrackPointExtension>
        </extensions>
      </trkpt>
      <trkpt lat="37.75032472796738147735595703125" lon="-107.71148300729691982269287109375">
        <ele>3460</ele>
        <time>2023-07-29T18:13:33.000Z</time>
        <extensions>
          <ns3:TrackPointExtension>
            <ns3:hr>85</ns3:hr>
            <ns3:cad>0</ns3:cad>
          </ns3:TrackPointExtension>
        </extensions>
      </trkpt>
      <trkpt lat="37.750309221446514129638671875" lon="-107.71148652769625186920166015625">
        <ele>3460</ele>
        <time>2023-07-29T18:13:34.000Z</time>
        <extensions>
          <ns3:TrackPointExtension>
            <ns3:hr>85</ns3:hr>
            <ns3:cad>0</ns3:cad>
          </ns3:TrackPointExtension>
        </extensions>
      </trkpt>
      <trkpt lat="37.7502969838678836822509765625" lon="-107.711490131914615631103515625">
        <ele>3460</ele>
        <time>2023-07-29T18:13:35.000Z</time>
        <extensions>
          <ns3:TrackPointExtension>
            <ns3:hr>84</ns3:hr>
            <ns3:cad>51</ns3:cad>
          </ns3:TrackPointExtension>
        </extensions>
      </trkpt>
      <trkpt lat="37.750289775431156158447265625" lon="-107.711492478847503662109375">
        <ele>3460</ele>
        <time>2023-07-29T18:13:36.000Z</time>
        <extensions>
          <ns3:TrackPointExtension>
            <ns3:hr>84</ns3:hr>
            <ns3:cad>55</ns3:cad>
          </ns3:TrackPointExtension>
        </extensions>
      </trkpt>
      <trkpt lat="37.75028206408023834228515625" lon="-107.71149977110326290130615234375">
        <ele>3460</ele>
        <time>2023-07-29T18:13:37.000Z</time>
        <extensions>
          <ns3:TrackPointExtension>
            <ns3:hr>84</ns3:hr>
            <ns3:cad>55</ns3:cad>
          </ns3:TrackPointExtension>
        </extensions>
      </trkpt>
      <trkpt lat="37.75027334690093994140625" lon="-107.7115072309970855712890625">
        <ele>3459.60009765625</ele>
        <time>2023-07-29T18:13:38.000Z</time>
        <extensions>
          <ns3:TrackPointExtension>
            <ns3:hr>84</ns3:hr>
            <ns3:cad>55</ns3:cad>
          </ns3:TrackPointExtension>
        </extensions>
      </trkpt>
      <trkpt lat="37.750262953341007232666015625" lon="-107.711515612900257110595703125">
        <ele>3459.39990234375</ele>
        <time>2023-07-29T18:13:39.000Z</time>
        <extensions>
          <ns3:TrackPointExtension>
            <ns3:hr>84</ns3:hr>
            <ns3:cad>55</ns3:cad>
          </ns3:TrackPointExtension>
        </extensions>
      </trkpt>
      <trkpt lat="37.7502527274191379547119140625" lon="-107.71152273751795291900634765625">
        <ele>3458.39990234375</ele>
        <time>2023-07-29T18:13:40.000Z</time>
        <extensions>
          <ns3:TrackPointExtension>
            <ns3:hr>84</ns3:hr>
            <ns3:cad>55</ns3:cad>
          </ns3:TrackPointExtension>
        </extensions>
      </trkpt>
      <trkpt lat="37.7502398192882537841796875" lon="-107.7115345560014247894287109375">
        <ele>3458.39990234375</ele>
        <time>2023-07-29T18:13:41.000Z</time>
        <extensions>
          <ns3:TrackPointExtension>
            <ns3:hr>84</ns3:hr>
            <ns3:cad>57</ns3:cad>
          </ns3:TrackPointExtension>
        </extensions>
      </trkpt>
      <trkpt lat="37.750230766832828521728515625" lon="-107.71154545247554779052734375">
        <ele>3458.199951171875</ele>
        <time>2023-07-29T18:13:42.000Z</time>
        <extensions>
          <ns3:TrackPointExtension>
            <ns3:hr>84</ns3:hr>
            <ns3:cad>57</ns3:cad>
          </ns3:TrackPointExtension>
        </extensions>
      </trkpt>
      <trkpt lat="37.7502168528735637664794921875" lon="-107.71156045608222484588623046875">
        <ele>3457.800048828125</ele>
        <time>2023-07-29T18:13:43.000Z</time>
        <extensions>
          <ns3:TrackPointExtension>
            <ns3:hr>84</ns3:hr>
            <ns3:cad>0</ns3:cad>
          </ns3:TrackPointExtension>
        </extensions>
      </trkpt>
      <trkpt lat="37.75020553730428218841552734375" lon="-107.711572945117950439453125">
        <ele>3457.39990234375</ele>
        <time>2023-07-29T18:13:44.000Z</time>
        <extensions>
          <ns3:TrackPointExtension>
            <ns3:hr>84</ns3:hr>
            <ns3:cad>0</ns3:cad>
          </ns3:TrackPointExtension>
        </extensions>
      </trkpt>
      <trkpt lat="37.750199250876903533935546875" lon="-107.71158300340175628662109375">
        <ele>3457.39990234375</ele>
        <time>2023-07-29T18:13:45.000Z</time>
        <extensions>
          <ns3:TrackPointExtension>
            <ns3:hr>84</ns3:hr>
            <ns3:cad>0</ns3:cad>
          </ns3:TrackPointExtension>
        </extensions>
      </trkpt>
      <trkpt lat="37.75019682012498378753662109375" lon="-107.711587361991405487060546875">
        <ele>3457</ele>
        <time>2023-07-29T18:13:46.000Z</time>
        <extensions>
          <ns3:TrackPointExtension>
            <ns3:hr>84</ns3:hr>
            <ns3:cad>0</ns3:cad>
          </ns3:TrackPointExtension>
        </extensions>
      </trkpt>
      <trkpt lat="37.7501910366117954254150390625" lon="-107.711592726409435272216796875">
        <ele>3456.800048828125</ele>
        <time>2023-07-29T18:13:47.000Z</time>
        <extensions>
          <ns3:TrackPointExtension>
            <ns3:hr>83</ns3:hr>
            <ns3:cad>62</ns3:cad>
          </ns3:TrackPointExtension>
        </extensions>
      </trkpt>
      <trkpt lat="37.7501816488802433013916015625" lon="-107.71159985102713108062744140625">
        <ele>3456.800048828125</ele>
        <time>2023-07-29T18:13:48.000Z</time>
        <extensions>
          <ns3:TrackPointExtension>
            <ns3:hr>83</ns3:hr>
            <ns3:cad>62</ns3:cad>
          </ns3:TrackPointExtension>
        </extensions>
      </trkpt>
      <trkpt lat="37.75017754174768924713134765625" lon="-107.7116036228835582733154296875">
        <ele>3456.60009765625</ele>
        <time>2023-07-29T18:13:49.000Z</time>
        <extensions>
          <ns3:TrackPointExtension>
            <ns3:hr>83</ns3:hr>
            <ns3:cad>62</ns3:cad>
          </ns3:TrackPointExtension>
        </extensions>
      </trkpt>
      <trkpt lat="37.7501695789396762847900390625" lon="-107.7116086520254611968994140625">
        <ele>3456.39990234375</ele>
        <time>2023-07-29T18:13:50.000Z</time>
        <extensions>
          <ns3:TrackPointExtension>
            <ns3:hr>82</ns3:hr>
            <ns3:cad>62</ns3:cad>
          </ns3:TrackPointExtension>
        </extensions>
      </trkpt>
      <trkpt lat="37.7501539885997772216796875" lon="-107.71161929704248905181884765625">
        <ele>3456.199951171875</ele>
        <time>2023-07-29T18:13:51.000Z</time>
        <extensions>
          <ns3:TrackPointExtension>
            <ns3:hr>83</ns3:hr>
            <ns3:cad>62</ns3:cad>
          </ns3:TrackPointExtension>
        </extensions>
      </trkpt>
      <trkpt lat="37.75014351122081279754638671875" lon="-107.7116250805556774139404296875">
        <ele>3456</ele>
        <time>2023-07-29T18:13:52.000Z</time>
        <extensions>
          <ns3:TrackPointExtension>
            <ns3:hr>84</ns3:hr>
            <ns3:cad>62</ns3:cad>
          </ns3:TrackPointExtension>
        </extensions>
      </trkpt>
      <trkpt lat="37.75013227947056293487548828125" lon="-107.71162885241210460662841796875">
        <ele>3456</ele>
        <time>2023-07-29T18:13:53.000Z</time>
        <extensions>
          <ns3:TrackPointExtension>
            <ns3:hr>84</ns3:hr>
            <ns3:cad>62</ns3:cad>
          </ns3:TrackPointExtension>
        </extensions>
      </trkpt>
      <trkpt lat="37.75012121535837650299072265625" lon="-107.71163304336369037628173828125">
        <ele>3455.800048828125</ele>
        <time>2023-07-29T18:13:54.000Z</time>
        <extensions>
          <ns3:TrackPointExtension>
            <ns3:hr>84</ns3:hr>
            <ns3:cad>62</ns3:cad>
          </ns3:TrackPointExtension>
        </extensions>
      </trkpt>
      <trkpt lat="37.75010730139911174774169921875" lon="-107.71163974888622760772705078125">
        <ele>3455.60009765625</ele>
        <time>2023-07-29T18:13:55.000Z</time>
        <extensions>
          <ns3:TrackPointExtension>
            <ns3:hr>85</ns3:hr>
            <ns3:cad>62</ns3:cad>
          </ns3:TrackPointExtension>
        </extensions>
      </trkpt>
      <trkpt lat="37.750093974173069000244140625" lon="-107.71164678968489170074462890625">
        <ele>3455.39990234375</ele>
        <time>2023-07-29T18:13:56.000Z</time>
        <extensions>
          <ns3:TrackPointExtension>
            <ns3:hr>85</ns3:hr>
            <ns3:cad>62</ns3:cad>
          </ns3:TrackPointExtension>
        </extensions>
      </trkpt>
      <trkpt lat="37.75008198805153369903564453125" lon="-107.71165366284549236297607421875">
        <ele>3455</ele>
        <time>2023-07-29T18:13:57.000Z</time>
        <extensions>
          <ns3:TrackPointExtension>
            <ns3:hr>85</ns3:hr>
            <ns3:cad>62</ns3:cad>
          </ns3:TrackPointExtension>
        </extensions>
      </trkpt>
      <trkpt lat="37.75006740354001522064208984375" lon="-107.7116601169109344482421875">
        <ele>3454.800048828125</ele>
        <time>2023-07-29T18:13:58.000Z</time>
        <extensions>
          <ns3:TrackPointExtension>
            <ns3:hr>84</ns3:hr>
            <ns3:cad>62</ns3:cad>
          </ns3:TrackPointExtension>
        </extensions>
      </trkpt>
      <trkpt lat="37.75005751289427280426025390625" lon="-107.71166891790926456451416015625">
        <ele>3454.60009765625</ele>
        <time>2023-07-29T18:13:59.000Z</time>
        <extensions>
          <ns3:TrackPointExtension>
            <ns3:hr>84</ns3:hr>
            <ns3:cad>62</ns3:cad>
          </ns3:TrackPointExtension>
        </extensions>
      </trkpt>
      <trkpt lat="37.75005181320011615753173828125" lon="-107.71167964674532413482666015625">
        <ele>3454.60009765625</ele>
        <time>2023-07-29T18:14:00.000Z</time>
        <extensions>
          <ns3:TrackPointExtension>
            <ns3:hr>84</ns3:hr>
            <ns3:cad>62</ns3:cad>
          </ns3:TrackPointExtension>
        </extensions>
      </trkpt>
      <trkpt lat="37.7500438503921031951904296875" lon="-107.711688615381717681884765625">
        <ele>3454.39990234375</ele>
        <time>2023-07-29T18:14:01.000Z</time>
        <extensions>
          <ns3:TrackPointExtension>
            <ns3:hr>83</ns3:hr>
            <ns3:cad>62</ns3:cad>
          </ns3:TrackPointExtension>
        </extensions>
      </trkpt>
      <trkpt lat="37.75003722868859767913818359375" lon="-107.71169976331293582916259765625">
        <ele>3454.39990234375</ele>
        <time>2023-07-29T18:14:02.000Z</time>
        <extensions>
          <ns3:TrackPointExtension>
            <ns3:hr>83</ns3:hr>
            <ns3:cad>62</ns3:cad>
          </ns3:TrackPointExtension>
        </extensions>
      </trkpt>
      <trkpt lat="37.75003186427056789398193359375" lon="-107.71170780993998050689697265625">
        <ele>3454.199951171875</ele>
        <time>2023-07-29T18:14:03.000Z</time>
        <extensions>
          <ns3:TrackPointExtension>
            <ns3:hr>84</ns3:hr>
            <ns3:cad>0</ns3:cad>
          </ns3:TrackPointExtension>
        </extensions>
      </trkpt>
      <trkpt lat="37.750025577843189239501953125" lon="-107.71172239445149898529052734375">
        <ele>3454</ele>
        <time>2023-07-29T18:14:04.000Z</time>
        <extensions>
          <ns3:TrackPointExtension>
            <ns3:hr>84</ns3:hr>
            <ns3:cad>0</ns3:cad>
          </ns3:TrackPointExtension>
        </extensions>
      </trkpt>
      <trkpt lat="37.75002080015838146209716796875" lon="-107.71173320710659027099609375">
        <ele>3453.800048828125</ele>
        <time>2023-07-29T18:14:05.000Z</time>
        <extensions>
          <ns3:TrackPointExtension>
            <ns3:hr>84</ns3:hr>
            <ns3:cad>0</ns3:cad>
          </ns3:TrackPointExtension>
        </extensions>
      </trkpt>
      <trkpt lat="37.750017531216144561767578125" lon="-107.7117397449910640716552734375">
        <ele>3453.60009765625</ele>
        <time>2023-07-29T18:14:06.000Z</time>
        <extensions>
          <ns3:TrackPointExtension>
            <ns3:hr>85</ns3:hr>
            <ns3:cad>0</ns3:cad>
          </ns3:TrackPointExtension>
        </extensions>
      </trkpt>
      <trkpt lat="37.75001250207424163818359375" lon="-107.71174888126552104949951171875">
        <ele>3453.39990234375</ele>
        <time>2023-07-29T18:14:07.000Z</time>
        <extensions>
          <ns3:TrackPointExtension>
            <ns3:hr>84</ns3:hr>
            <ns3:cad>0</ns3:cad>
          </ns3:TrackPointExtension>
        </extensions>
      </trkpt>
      <trkpt lat="37.750014178454875946044921875" lon="-107.7117471210658550262451171875">
        <ele>3453.39990234375</ele>
        <time>2023-07-29T18:14:08.000Z</time>
        <extensions>
          <ns3:TrackPointExtension>
            <ns3:hr>84</ns3:hr>
            <ns3:cad>0</ns3:cad>
          </ns3:TrackPointExtension>
        </extensions>
      </trkpt>
      <trkpt lat="37.75001543574035167694091796875" lon="-107.7117467857897281646728515625">
        <ele>3453.199951171875</ele>
        <time>2023-07-29T18:14:09.000Z</time>
        <extensions>
          <ns3:TrackPointExtension>
            <ns3:hr>84</ns3:hr>
            <ns3:cad>0</ns3:cad>
          </ns3:TrackPointExtension>
        </extensions>
      </trkpt>
      <trkpt lat="37.75001493282616138458251953125" lon="-107.71175491623580455780029296875">
        <ele>3452.800048828125</ele>
        <time>2023-07-29T18:14:10.000Z</time>
        <extensions>
          <ns3:TrackPointExtension>
            <ns3:hr>85</ns3:hr>
            <ns3:cad>0</ns3:cad>
          </ns3:TrackPointExtension>
        </extensions>
      </trkpt>
      <trkpt lat="37.750013172626495361328125" lon="-107.711762376129627227783203125">
        <ele>3452.39990234375</ele>
        <time>2023-07-29T18:14:11.000Z</time>
        <extensions>
          <ns3:TrackPointExtension>
            <ns3:hr>84</ns3:hr>
            <ns3:cad>0</ns3:cad>
          </ns3:TrackPointExtension>
        </extensions>
      </trkpt>
      <trkpt lat="37.7500123344361782073974609375" lon="-107.71176866255700588226318359375">
        <ele>3452.199951171875</ele>
        <time>2023-07-29T18:14:12.000Z</time>
        <extensions>
          <ns3:TrackPointExtension>
            <ns3:hr>84</ns3:hr>
            <ns3:cad>0</ns3:cad>
          </ns3:TrackPointExtension>
        </extensions>
      </trkpt>
      <trkpt lat="37.750007808208465576171875" lon="-107.711782157421112060546875">
        <ele>3452</ele>
        <time>2023-07-29T18:14:13.000Z</time>
        <extensions>
          <ns3:TrackPointExtension>
            <ns3:hr>84</ns3:hr>
            <ns3:cad>0</ns3:cad>
          </ns3:TrackPointExtension>
        </extensions>
      </trkpt>
      <trkpt lat="37.75000453926622867584228515625" lon="-107.7117969095706939697265625">
        <ele>3452</ele>
        <time>2023-07-29T18:14:14.000Z</time>
        <extensions>
          <ns3:TrackPointExtension>
            <ns3:hr>84</ns3:hr>
            <ns3:cad>0</ns3:cad>
          </ns3:TrackPointExtension>
        </extensions>
      </trkpt>
      <trkpt lat="37.75000370107591152191162109375" lon="-107.71180252544581890106201171875">
        <ele>3451.800048828125</ele>
        <time>2023-07-29T18:14:15.000Z</time>
        <extensions>
          <ns3:TrackPointExtension>
            <ns3:hr>84</ns3:hr>
            <ns3:cad>0</ns3:cad>
          </ns3:TrackPointExtension>
        </extensions>
      </trkpt>
      <trkpt lat="37.75000202469527721405029296875" lon="-107.71180135197937488555908203125">
        <ele>3451.60009765625</ele>
        <time>2023-07-29T18:14:16.000Z</time>
        <extensions>
          <ns3:TrackPointExtension>
            <ns3:hr>84</ns3:hr>
            <ns3:cad>0</ns3:cad>
          </ns3:TrackPointExtension>
        </extensions>
      </trkpt>
      <trkpt lat="37.75000269524753093719482421875" lon="-107.71179866977035999298095703125">
        <ele>3451.39990234375</ele>
        <time>2023-07-29T18:14:17.000Z</time>
        <extensions>
          <ns3:TrackPointExtension>
            <ns3:hr>85</ns3:hr>
            <ns3:cad>0</ns3:cad>
          </ns3:TrackPointExtension>
        </extensions>
      </trkpt>
      <trkpt lat="37.7500009350478649139404296875" lon="-107.711803950369358062744140625">
        <ele>3451.39990234375</ele>
        <time>2023-07-29T18:14:18.000Z</time>
        <extensions>
          <ns3:TrackPointExtension>
            <ns3:hr>85</ns3:hr>
            <ns3:cad>0</ns3:cad>
          </ns3:TrackPointExtension>
        </extensions>
      </trkpt>
      <trkpt lat="37.74999909102916717529296875" lon="-107.71180470474064350128173828125">
        <ele>3451.199951171875</ele>
        <time>2023-07-29T18:14:19.000Z</time>
        <extensions>
          <ns3:TrackPointExtension>
            <ns3:hr>85</ns3:hr>
            <ns3:cad>0</ns3:cad>
          </ns3:TrackPointExtension>
        </extensions>
      </trkpt>
      <trkpt lat="37.749997079372406005859375" lon="-107.7118130028247833251953125">
        <ele>3451.199951171875</ele>
        <time>2023-07-29T18:14:20.000Z</time>
        <extensions>
          <ns3:TrackPointExtension>
            <ns3:hr>86</ns3:hr>
            <ns3:cad>0</ns3:cad>
          </ns3:TrackPointExtension>
        </extensions>
      </trkpt>
      <trkpt lat="37.749995402991771697998046875" lon="-107.71181610412895679473876953125">
        <ele>3451</ele>
        <time>2023-07-29T18:14:21.000Z</time>
        <extensions>
          <ns3:TrackPointExtension>
            <ns3:hr>86</ns3:hr>
            <ns3:cad>0</ns3:cad>
          </ns3:TrackPointExtension>
        </extensions>
      </trkpt>
      <trkpt lat="37.74998894892632961273193359375" lon="-107.7118289284408092498779296875">
        <ele>3450.800048828125</ele>
        <time>2023-07-29T18:14:22.000Z</time>
        <extensions>
          <ns3:TrackPointExtension>
            <ns3:hr>86</ns3:hr>
            <ns3:cad>0</ns3:cad>
          </ns3:TrackPointExtension>
        </extensions>
      </trkpt>
      <trkpt lat="37.74998375214636325836181640625" lon="-107.71184091456234455108642578125">
        <ele>3450.800048828125</ele>
        <time>2023-07-29T18:14:23.000Z</time>
        <extensions>
          <ns3:TrackPointExtension>
            <ns3:hr>86</ns3:hr>
            <ns3:cad>0</ns3:cad>
          </ns3:TrackPointExtension>
        </extensions>
      </trkpt>
      <trkpt lat="37.74997972883284091949462890625" lon="-107.711854241788387298583984375">
        <ele>3450.60009765625</ele>
        <time>2023-07-29T18:14:24.000Z</time>
        <extensions>
          <ns3:TrackPointExtension>
            <ns3:hr>86</ns3:hr>
            <ns3:cad>68</ns3:cad>
          </ns3:TrackPointExtension>
        </extensions>
      </trkpt>
      <trkpt lat="37.7499757893383502960205078125" lon="-107.71186237223446369171142578125">
        <ele>3450.39990234375</ele>
        <time>2023-07-29T18:14:25.000Z</time>
        <extensions>
          <ns3:TrackPointExtension>
            <ns3:hr>86</ns3:hr>
            <ns3:cad>68</ns3:cad>
          </ns3:TrackPointExtension>
        </extensions>
      </trkpt>
      <trkpt lat="37.749971933662891387939453125" lon="-107.7118741907179355621337890625">
        <ele>3450.199951171875</ele>
        <time>2023-07-29T18:14:26.000Z</time>
        <extensions>
          <ns3:TrackPointExtension>
            <ns3:hr>86</ns3:hr>
            <ns3:cad>0</ns3:cad>
          </ns3:TrackPointExtension>
        </extensions>
      </trkpt>
      <trkpt lat="37.74996782653033733367919921875" lon="-107.71189003251492977142333984375">
        <ele>3450.199951171875</ele>
        <time>2023-07-29T18:14:27.000Z</time>
        <extensions>
          <ns3:TrackPointExtension>
            <ns3:hr>85</ns3:hr>
            <ns3:cad>0</ns3:cad>
          </ns3:TrackPointExtension>
        </extensions>
      </trkpt>
      <trkpt lat="37.74996279738843441009521484375" lon="-107.71190478466451168060302734375">
        <ele>3450.199951171875</ele>
        <time>2023-07-29T18:14:28.000Z</time>
        <extensions>
          <ns3:TrackPointExtension>
            <ns3:hr>85</ns3:hr>
            <ns3:cad>0</ns3:cad>
          </ns3:TrackPointExtension>
        </extensions>
      </trkpt>
      <trkpt lat="37.74995751678943634033203125" lon="-107.7119144238531589508056640625">
        <ele>3450</ele>
        <time>2023-07-29T18:14:29.000Z</time>
        <extensions>
          <ns3:TrackPointExtension>
            <ns3:hr>86</ns3:hr>
            <ns3:cad>0</ns3:cad>
          </ns3:TrackPointExtension>
        </extensions>
      </trkpt>
      <trkpt lat="37.74995424784719944000244140625" lon="-107.71192288957536220550537109375">
        <ele>3449.800048828125</ele>
        <time>2023-07-29T18:14:30.000Z</time>
        <extensions>
          <ns3:TrackPointExtension>
            <ns3:hr>86</ns3:hr>
            <ns3:cad>0</ns3:cad>
          </ns3:TrackPointExtension>
        </extensions>
      </trkpt>
      <trkpt lat="37.74994921870529651641845703125" lon="-107.71193034946918487548828125">
        <ele>3449.800048828125</ele>
        <time>2023-07-29T18:14:31.000Z</time>
        <extensions>
          <ns3:TrackPointExtension>
            <ns3:hr>86</ns3:hr>
            <ns3:cad>0</ns3:cad>
          </ns3:TrackPointExtension>
        </extensions>
      </trkpt>
      <trkpt lat="37.7499436028301715850830078125" lon="-107.7119372226297855377197265625">
        <ele>3449.60009765625</ele>
        <time>2023-07-29T18:14:32.000Z</time>
        <extensions>
          <ns3:TrackPointExtension>
            <ns3:hr>85</ns3:hr>
            <ns3:cad>0</ns3:cad>
          </ns3:TrackPointExtension>
        </extensions>
      </trkpt>
      <trkpt lat="37.7499392442405223846435546875" lon="-107.7119328640401363372802734375">
        <ele>3449.60009765625</ele>
        <time>2023-07-29T18:14:33.000Z</time>
        <extensions>
          <ns3:TrackPointExtension>
            <ns3:hr>85</ns3:hr>
            <ns3:cad>0</ns3:cad>
          </ns3:TrackPointExtension>
        </extensions>
      </trkpt>
      <trkpt lat="37.7499362267553806304931640625" lon="-107.71192942745983600616455078125">
        <ele>3449.60009765625</ele>
        <time>2023-07-29T18:14:34.000Z</time>
        <extensions>
          <ns3:TrackPointExtension>
            <ns3:hr>85</ns3:hr>
            <ns3:cad>0</ns3:cad>
          </ns3:TrackPointExtension>
        </extensions>
      </trkpt>
      <trkpt lat="37.74993245489895343780517578125" lon="-107.7119254879653453826904296875">
        <ele>3449.39990234375</ele>
        <time>2023-07-29T18:14:35.000Z</time>
        <extensions>
          <ns3:TrackPointExtension>
            <ns3:hr>85</ns3:hr>
            <ns3:cad>0</ns3:cad>
          </ns3:TrackPointExtension>
        </extensions>
      </trkpt>
      <trkpt lat="37.7499338798224925994873046875" lon="-107.71191769279539585113525390625">
        <ele>3449</ele>
        <time>2023-07-29T18:14:36.000Z</time>
        <extensions>
          <ns3:TrackPointExtension>
            <ns3:hr>84</ns3:hr>
            <ns3:cad>0</ns3:cad>
          </ns3:TrackPointExtension>
        </extensions>
      </trkpt>
      <trkpt lat="37.7499340474605560302734375" lon="-107.7119087241590023040771484375">
        <ele>3448.800048828125</ele>
        <time>2023-07-29T18:14:37.000Z</time>
        <extensions>
          <ns3:TrackPointExtension>
            <ns3:hr>84</ns3:hr>
            <ns3:cad>0</ns3:cad>
          </ns3:TrackPointExtension>
        </extensions>
      </trkpt>
      <trkpt lat="37.74993010796606540679931640625" lon="-107.7119047008454799652099609375">
        <ele>3448.800048828125</ele>
        <time>2023-07-29T18:14:38.000Z</time>
        <extensions>
          <ns3:TrackPointExtension>
            <ns3:hr>84</ns3:hr>
            <ns3:cad>0</ns3:cad>
          </ns3:TrackPointExtension>
        </extensions>
      </trkpt>
      <trkpt lat="37.74992641992866992950439453125" lon="-107.71190646104514598846435546875">
        <ele>3448.800048828125</ele>
        <time>2023-07-29T18:14:39.000Z</time>
        <extensions>
          <ns3:TrackPointExtension>
            <ns3:hr>84</ns3:hr>
            <ns3:cad>0</ns3:cad>
          </ns3:TrackPointExtension>
        </extensions>
      </trkpt>
      <trkpt lat="37.749932706356048583984375" lon="-107.711928002536296844482421875">
        <ele>3448.800048828125</ele>
        <time>2023-07-29T18:14:40.000Z</time>
        <extensions>
          <ns3:TrackPointExtension>
            <ns3:hr>85</ns3:hr>
            <ns3:cad>0</ns3:cad>
          </ns3:TrackPointExtension>
        </extensions>
      </trkpt>
      <trkpt lat="37.749937735497951507568359375" lon="-107.711946777999401092529296875">
        <ele>3449</ele>
        <time>2023-07-29T18:14:41.000Z</time>
        <extensions>
          <ns3:TrackPointExtension>
            <ns3:hr>85</ns3:hr>
            <ns3:cad>0</ns3:cad>
          </ns3:TrackPointExtension>
        </extensions>
      </trkpt>
      <trkpt lat="37.7499342150986194610595703125" lon="-107.71196597255766391754150390625">
        <ele>3449</ele>
        <time>2023-07-29T18:14:42.000Z</time>
        <extensions>
          <ns3:TrackPointExtension>
            <ns3:hr>86</ns3:hr>
            <ns3:cad>0</ns3:cad>
          </ns3:TrackPointExtension>
        </extensions>
      </trkpt>
      <trkpt lat="37.749945111572742462158203125" lon="-107.71198407746851444244384765625">
        <ele>3449</ele>
        <time>2023-07-29T18:14:43.000Z</time>
        <extensions>
          <ns3:TrackPointExtension>
            <ns3:hr>87</ns3:hr>
            <ns3:cad>0</ns3:cad>
          </ns3:TrackPointExtension>
        </extensions>
      </trkpt>
      <trkpt lat="37.7499474585056304931640625" lon="-107.71199095062911510467529296875">
        <ele>3449</ele>
        <time>2023-07-29T18:14:44.000Z</time>
        <extensions>
          <ns3:TrackPointExtension>
            <ns3:hr>86</ns3:hr>
            <ns3:cad>0</ns3:cad>
          </ns3:TrackPointExtension>
        </extensions>
      </trkpt>
      <trkpt lat="37.74995005689561367034912109375" lon="-107.71199514158070087432861328125">
        <ele>3448.800048828125</ele>
        <time>2023-07-29T18:14:45.000Z</time>
        <extensions>
          <ns3:TrackPointExtension>
            <ns3:hr>86</ns3:hr>
            <ns3:cad>0</ns3:cad>
          </ns3:TrackPointExtension>
        </extensions>
      </trkpt>
      <trkpt lat="37.749951146543025970458984375" lon="-107.71199514158070087432861328125">
        <ele>3448.60009765625</ele>
        <time>2023-07-29T18:14:46.000Z</time>
        <extensions>
          <ns3:TrackPointExtension>
            <ns3:hr>85</ns3:hr>
            <ns3:cad>0</ns3:cad>
          </ns3:TrackPointExtension>
        </extensions>
      </trkpt>
      <trkpt lat="37.749951146543025970458984375" lon="-107.71198960952460765838623046875">
        <ele>3448.60009765625</ele>
        <time>2023-07-29T18:14:47.000Z</time>
        <extensions>
          <ns3:TrackPointExtension>
            <ns3:hr>85</ns3:hr>
            <ns3:cad>0</ns3:cad>
          </ns3:TrackPointExtension>
        </extensions>
      </trkpt>
      <trkpt lat="37.74995005689561367034912109375" lon="-107.7119811438024044036865234375">
        <ele>3448.60009765625</ele>
        <time>2023-07-29T18:14:48.000Z</time>
        <extensions>
          <ns3:TrackPointExtension>
            <ns3:hr>85</ns3:hr>
            <ns3:cad>0</ns3:cad>
          </ns3:TrackPointExtension>
        </extensions>
      </trkpt>
      <trkpt lat="37.7499506436288356781005859375" lon="-107.71197552792727947235107421875">
        <ele>3448.60009765625</ele>
        <time>2023-07-29T18:14:49.000Z</time>
        <extensions>
          <ns3:TrackPointExtension>
            <ns3:hr>85</ns3:hr>
            <ns3:cad>0</ns3:cad>
          </ns3:TrackPointExtension>
        </extensions>
      </trkpt>
      <trkpt lat="37.749951817095279693603515625" lon="-107.71197284571826457977294921875">
        <ele>3448.60009765625</ele>
        <time>2023-07-29T18:14:50.000Z</time>
        <extensions>
          <ns3:TrackPointExtension>
            <ns3:hr>85</ns3:hr>
            <ns3:cad>0</ns3:cad>
          </ns3:TrackPointExtension>
        </extensions>
      </trkpt>
      <trkpt lat="37.7499550022184848785400390625" lon="-107.71197418682277202606201171875">
        <ele>3448.60009765625</ele>
        <time>2023-07-29T18:14:51.000Z</time>
        <extensions>
          <ns3:TrackPointExtension>
            <ns3:hr>85</ns3:hr>
            <ns3:cad>0</ns3:cad>
          </ns3:TrackPointExtension>
        </extensions>
      </trkpt>
      <trkpt lat="37.749955840408802032470703125" lon="-107.71197619847953319549560546875">
        <ele>3448.39990234375</ele>
        <time>2023-07-29T18:14:52.000Z</time>
        <extensions>
          <ns3:TrackPointExtension>
            <ns3:hr>84</ns3:hr>
            <ns3:cad>0</ns3:cad>
          </ns3:TrackPointExtension>
        </extensions>
      </trkpt>
      <trkpt lat="37.749953158199787139892578125" lon="-107.71197837777435779571533203125">
        <ele>3448.39990234375</ele>
        <time>2023-07-29T18:14:53.000Z</time>
        <extensions>
          <ns3:TrackPointExtension>
            <ns3:hr>84</ns3:hr>
            <ns3:cad>0</ns3:cad>
          </ns3:TrackPointExtension>
        </extensions>
      </trkpt>
      <trkpt lat="37.7499526552855968475341796875" lon="-107.71197971887886524200439453125">
        <ele>3448.39990234375</ele>
        <time>2023-07-29T18:14:54.000Z</time>
        <extensions>
          <ns3:TrackPointExtension>
            <ns3:hr>84</ns3:hr>
            <ns3:cad>0</ns3:cad>
          </ns3:TrackPointExtension>
        </extensions>
      </trkpt>
      <trkpt lat="37.74995458312332630157470703125" lon="-107.71198089234530925750732421875">
        <ele>3448.199951171875</ele>
        <time>2023-07-29T18:14:55.000Z</time>
        <extensions>
          <ns3:TrackPointExtension>
            <ns3:hr>84</ns3:hr>
            <ns3:cad>0</ns3:cad>
          </ns3:TrackPointExtension>
        </extensions>
      </trkpt>
      <trkpt lat="37.749953828752040863037109375" lon="-107.7119808085262775421142578125">
        <ele>3448.199951171875</ele>
        <time>2023-07-29T18:14:56.000Z</time>
        <extensions>
          <ns3:TrackPointExtension>
            <ns3:hr>83</ns3:hr>
            <ns3:cad>0</ns3:cad>
          </ns3:TrackPointExtension>
        </extensions>
      </trkpt>
      <trkpt lat="37.7499526552855968475341796875" lon="-107.71197904832661151885986328125">
        <ele>3448.199951171875</ele>
        <time>2023-07-29T18:14:57.000Z</time>
        <extensions>
          <ns3:TrackPointExtension>
            <ns3:hr>83</ns3:hr>
            <ns3:cad>0</ns3:cad>
          </ns3:TrackPointExtension>
        </extensions>
      </trkpt>
      <trkpt lat="37.7499489672482013702392578125" lon="-107.71197619847953319549560546875">
        <ele>3448.199951171875</ele>
        <time>2023-07-29T18:14:58.000Z</time>
        <extensions>
          <ns3:TrackPointExtension>
            <ns3:hr>83</ns3:hr>
            <ns3:cad>0</ns3:cad>
          </ns3:TrackPointExtension>
        </extensions>
      </trkpt>
      <trkpt lat="37.7499503083527088165283203125" lon="-107.711976282298564910888671875">
        <ele>3448.199951171875</ele>
        <time>2023-07-29T18:14:59.000Z</time>
        <extensions>
          <ns3:TrackPointExtension>
            <ns3:hr>83</ns3:hr>
            <ns3:cad>0</ns3:cad>
          </ns3:TrackPointExtension>
        </extensions>
      </trkpt>
      <trkpt lat="37.74995190091431140899658203125" lon="-107.71197653375566005706787109375">
        <ele>3448</ele>
        <time>2023-07-29T18:15:00.000Z</time>
        <extensions>
          <ns3:TrackPointExtension>
            <ns3:hr>82</ns3:hr>
            <ns3:cad>0</ns3:cad>
          </ns3:TrackPointExtension>
        </extensions>
      </trkpt>
      <trkpt lat="37.74995055980980396270751953125" lon="-107.71197519265115261077880859375">
        <ele>3448</ele>
        <time>2023-07-29T18:15:01.000Z</time>
        <extensions>
          <ns3:TrackPointExtension>
            <ns3:hr>82</ns3:hr>
            <ns3:cad>0</ns3:cad>
          </ns3:TrackPointExtension>
        </extensions>
      </trkpt>
      <trkpt lat="37.74995190091431140899658203125" lon="-107.71197821013629436492919921875">
        <ele>3448</ele>
        <time>2023-07-29T18:15:02.000Z</time>
        <extensions>
          <ns3:TrackPointExtension>
            <ns3:hr>81</ns3:hr>
            <ns3:cad>0</ns3:cad>
          </ns3:TrackPointExtension>
        </extensions>
      </trkpt>
      <trkpt lat="37.7499529905617237091064453125" lon="-107.71198038943111896514892578125">
        <ele>3448</ele>
        <time>2023-07-29T18:15:03.000Z</time>
        <extensions>
          <ns3:TrackPointExtension>
            <ns3:hr>81</ns3:hr>
            <ns3:cad>0</ns3:cad>
          </ns3:TrackPointExtension>
        </extensions>
      </trkpt>
      <trkpt lat="37.74995491839945316314697265625" lon="-107.71198089234530925750732421875">
        <ele>3448</ele>
        <time>2023-07-29T18:15:04.000Z</time>
        <extensions>
          <ns3:TrackPointExtension>
            <ns3:hr>81</ns3:hr>
            <ns3:cad>0</ns3:cad>
          </ns3:TrackPointExtension>
        </extensions>
      </trkpt>
      <trkpt lat="37.74995760060846805572509765625" lon="-107.711980305612087249755859375">
        <ele>3448</ele>
        <time>2023-07-29T18:15:05.000Z</time>
        <extensions>
          <ns3:TrackPointExtension>
            <ns3:hr>81</ns3:hr>
            <ns3:cad>0</ns3:cad>
          </ns3:TrackPointExtension>
        </extensions>
      </trkpt>
      <trkpt lat="37.74995843879878520965576171875" lon="-107.71197770722210407257080078125">
        <ele>3448</ele>
        <time>2023-07-29T18:15:06.000Z</time>
        <extensions>
          <ns3:TrackPointExtension>
            <ns3:hr>81</ns3:hr>
            <ns3:cad>0</ns3:cad>
          </ns3:TrackPointExtension>
        </extensions>
      </trkpt>
      <trkpt lat="37.749960534274578094482421875" lon="-107.71197670139372348785400390625">
        <ele>3448</ele>
        <time>2023-07-29T18:15:07.000Z</time>
        <extensions>
          <ns3:TrackPointExtension>
            <ns3:hr>82</ns3:hr>
            <ns3:cad>0</ns3:cad>
          </ns3:TrackPointExtension>
        </extensions>
      </trkpt>
      <trkpt lat="37.74996346794068813323974609375" lon="-107.7119757793843746185302734375">
        <ele>3448</ele>
        <time>2023-07-29T18:15:08.000Z</time>
        <extensions>
          <ns3:TrackPointExtension>
            <ns3:hr>83</ns3:hr>
            <ns3:cad>0</ns3:cad>
          </ns3:TrackPointExtension>
        </extensions>
      </trkpt>
      <trkpt lat="37.74996380321681499481201171875" lon="-107.7119747735559940338134765625">
        <ele>3448</ele>
        <time>2023-07-29T18:15:09.000Z</time>
        <extensions>
          <ns3:TrackPointExtension>
            <ns3:hr>86</ns3:hr>
            <ns3:cad>0</ns3:cad>
          </ns3:TrackPointExtension>
        </extensions>
      </trkpt>
      <trkpt lat="37.7499617077410221099853515625" lon="-107.711969912052154541015625">
        <ele>3448</ele>
        <time>2023-07-29T18:15:10.000Z</time>
        <extensions>
          <ns3:TrackPointExtension>
            <ns3:hr>88</ns3:hr>
            <ns3:cad>0</ns3:cad>
          </ns3:TrackPointExtension>
        </extensions>
      </trkpt>
      <trkpt lat="37.7499563433229923248291015625" lon="-107.71196211688220500946044921875">
        <ele>3448</ele>
        <time>2023-07-29T18:15:11.000Z</time>
        <extensions>
          <ns3:TrackPointExtension>
            <ns3:hr>89</ns3:hr>
            <ns3:cad>0</ns3:cad>
          </ns3:TrackPointExtension>
        </extensions>
      </trkpt>
      <trkpt lat="37.7499499730765819549560546875" lon="-107.71195071749389171600341796875">
        <ele>3448</ele>
        <time>2023-07-29T18:15:12.000Z</time>
        <extensions>
          <ns3:TrackPointExtension>
            <ns3:hr>89</ns3:hr>
            <ns3:cad>0</ns3:cad>
          </ns3:TrackPointExtension>
        </extensions>
      </trkpt>
      <trkpt lat="37.7499462850391864776611328125" lon="-107.71194619126617908477783203125">
        <ele>3448</ele>
        <time>2023-07-29T18:15:13.000Z</time>
        <extensions>
          <ns3:TrackPointExtension>
            <ns3:hr>90</ns3:hr>
            <ns3:cad>0</ns3:cad>
          </ns3:TrackPointExtension>
        </extensions>
      </trkpt>
      <trkpt lat="37.74994502775371074676513671875" lon="-107.711943425238132476806640625">
        <ele>3448</ele>
        <time>2023-07-29T18:15:14.000Z</time>
        <extensions>
          <ns3:TrackPointExtension>
            <ns3:hr>90</ns3:hr>
            <ns3:cad>0</ns3:cad>
          </ns3:TrackPointExtension>
        </extensions>
      </trkpt>
      <trkpt lat="37.749943435192108154296875" lon="-107.7119388990104198455810546875">
        <ele>3448</ele>
        <time>2023-07-29T18:15:15.000Z</time>
        <extensions>
          <ns3:TrackPointExtension>
            <ns3:hr>90</ns3:hr>
            <ns3:cad>0</ns3:cad>
          </ns3:TrackPointExtension>
        </extensions>
      </trkpt>
      <trkpt lat="37.749943099915981292724609375" lon="-107.7119355462491512298583984375">
        <ele>3448</ele>
        <time>2023-07-29T18:15:16.000Z</time>
        <extensions>
          <ns3:TrackPointExtension>
            <ns3:hr>90</ns3:hr>
            <ns3:cad>0</ns3:cad>
          </ns3:TrackPointExtension>
        </extensions>
      </trkpt>
      <trkpt lat="37.7499447762966156005859375" lon="-107.71193529479205608367919921875">
        <ele>3448</ele>
        <time>2023-07-29T18:15:17.000Z</time>
        <extensions>
          <ns3:TrackPointExtension>
            <ns3:hr>90</ns3:hr>
            <ns3:cad>0</ns3:cad>
          </ns3:TrackPointExtension>
        </extensions>
      </trkpt>
      <trkpt lat="37.74994737468659877777099609375" lon="-107.71193697117269039154052734375">
        <ele>3448</ele>
        <time>2023-07-29T18:15:18.000Z</time>
        <extensions>
          <ns3:TrackPointExtension>
            <ns3:hr>90</ns3:hr>
            <ns3:cad>0</ns3:cad>
          </ns3:TrackPointExtension>
        </extensions>
      </trkpt>
      <trkpt lat="37.74995055980980396270751953125" lon="-107.71194040775299072265625">
        <ele>3448</ele>
        <time>2023-07-29T18:15:19.000Z</time>
        <extensions>
          <ns3:TrackPointExtension>
            <ns3:hr>90</ns3:hr>
            <ns3:cad>0</ns3:cad>
          </ns3:TrackPointExtension>
        </extensions>
      </trkpt>
      <trkpt lat="37.7499560080468654632568359375" lon="-107.71194568835198879241943359375">
        <ele>3448</ele>
        <time>2023-07-29T18:15:20.000Z</time>
        <extensions>
          <ns3:TrackPointExtension>
            <ns3:hr>90</ns3:hr>
            <ns3:cad>0</ns3:cad>
          </ns3:TrackPointExtension>
        </extensions>
      </trkpt>
      <trkpt lat="37.74996296502649784088134765625" lon="-107.71195138804614543914794921875">
        <ele>3448</ele>
        <time>2023-07-29T18:15:21.000Z</time>
        <extensions>
          <ns3:TrackPointExtension>
            <ns3:hr>89</ns3:hr>
            <ns3:cad>0</ns3:cad>
          </ns3:TrackPointExtension>
        </extensions>
      </trkpt>
      <trkpt lat="37.7499674074351787567138671875" lon="-107.71195675246417522430419921875">
        <ele>3447.800048828125</ele>
        <time>2023-07-29T18:15:22.000Z</time>
        <extensions>
          <ns3:TrackPointExtension>
            <ns3:hr>89</ns3:hr>
            <ns3:cad>0</ns3:cad>
          </ns3:TrackPointExtension>
        </extensions>
      </trkpt>
      <trkpt lat="37.749973945319652557373046875" lon="-107.71196186542510986328125">
        <ele>3447.800048828125</ele>
        <time>2023-07-29T18:15:23.000Z</time>
        <extensions>
          <ns3:TrackPointExtension>
            <ns3:hr>89</ns3:hr>
            <ns3:cad>0</ns3:cad>
          </ns3:TrackPointExtension>
        </extensions>
      </trkpt>
      <trkpt lat="37.74997587315738201141357421875" lon="-107.71196521818637847900390625">
        <ele>3447.800048828125</ele>
        <time>2023-07-29T18:15:24.000Z</time>
        <extensions>
          <ns3:TrackPointExtension>
            <ns3:hr>87</ns3:hr>
            <ns3:cad>0</ns3:cad>
          </ns3:TrackPointExtension>
        </extensions>
      </trkpt>
      <trkpt lat="37.74997771717607975006103515625" lon="-107.71196714602410793304443359375">
        <ele>3447.800048828125</ele>
        <time>2023-07-29T18:15:25.000Z</time>
        <extensions>
          <ns3:TrackPointExtension>
            <ns3:hr>87</ns3:hr>
            <ns3:cad>0</ns3:cad>
          </ns3:TrackPointExtension>
        </extensions>
      </trkpt>
      <trkpt lat="37.74997972883284091949462890625" lon="-107.7119677327573299407958984375">
        <ele>3447.800048828125</ele>
        <time>2023-07-29T18:15:26.000Z</time>
        <extensions>
          <ns3:TrackPointExtension>
            <ns3:hr>87</ns3:hr>
            <ns3:cad>0</ns3:cad>
          </ns3:TrackPointExtension>
        </extensions>
      </trkpt>
      <trkpt lat="37.7499774657189846038818359375" lon="-107.7119657211005687713623046875">
        <ele>3447.800048828125</ele>
        <time>2023-07-29T18:15:27.000Z</time>
        <extensions>
          <ns3:TrackPointExtension>
            <ns3:hr>87</ns3:hr>
            <ns3:cad>0</ns3:cad>
          </ns3:TrackPointExtension>
        </extensions>
      </trkpt>
      <trkpt lat="37.7499744482338428497314453125" lon="-107.71196329034864902496337890625">
        <ele>3447.800048828125</ele>
        <time>2023-07-29T18:15:28.000Z</time>
        <extensions>
          <ns3:TrackPointExtension>
            <ns3:hr>87</ns3:hr>
            <ns3:cad>0</ns3:cad>
          </ns3:TrackPointExtension>
        </extensions>
      </trkpt>
      <trkpt lat="37.74997000582516193389892578125" lon="-107.71196010522544384002685546875">
        <ele>3447.800048828125</ele>
        <time>2023-07-29T18:15:29.000Z</time>
        <extensions>
          <ns3:TrackPointExtension>
            <ns3:hr>87</ns3:hr>
            <ns3:cad>0</ns3:cad>
          </ns3:TrackPointExtension>
        </extensions>
      </trkpt>
      <trkpt lat="37.7499677427113056182861328125" lon="-107.71195826120674610137939453125">
        <ele>3447.800048828125</ele>
        <time>2023-07-29T18:15:30.000Z</time>
        <extensions>
          <ns3:TrackPointExtension>
            <ns3:hr>88</ns3:hr>
            <ns3:cad>0</ns3:cad>
          </ns3:TrackPointExtension>
        </extensions>
      </trkpt>
      <trkpt lat="37.74996480904519557952880859375" lon="-107.7119566686451435089111328125">
        <ele>3447.800048828125</ele>
        <time>2023-07-29T18:15:31.000Z</time>
        <extensions>
          <ns3:TrackPointExtension>
            <ns3:hr>88</ns3:hr>
            <ns3:cad>0</ns3:cad>
          </ns3:TrackPointExtension>
        </extensions>
      </trkpt>
      <trkpt lat="37.74996547959744930267333984375" lon="-107.7119570039212703704833984375">
        <ele>3447.800048828125</ele>
        <time>2023-07-29T18:15:32.000Z</time>
        <extensions>
          <ns3:TrackPointExtension>
            <ns3:hr>89</ns3:hr>
            <ns3:cad>0</ns3:cad>
          </ns3:TrackPointExtension>
        </extensions>
      </trkpt>
      <trkpt lat="37.7499662339687347412109375" lon="-107.71196463145315647125244140625">
        <ele>3447.800048828125</ele>
        <time>2023-07-29T18:15:33.000Z</time>
        <extensions>
          <ns3:TrackPointExtension>
            <ns3:hr>89</ns3:hr>
            <ns3:cad>0</ns3:cad>
          </ns3:TrackPointExtension>
        </extensions>
      </trkpt>
      <trkpt lat="37.7499680779874324798583984375" lon="-107.7119690738618373870849609375">
        <ele>3447.800048828125</ele>
        <time>2023-07-29T18:15:34.000Z</time>
        <extensions>
          <ns3:TrackPointExtension>
            <ns3:hr>90</ns3:hr>
            <ns3:cad>0</ns3:cad>
          </ns3:TrackPointExtension>
        </extensions>
      </trkpt>
      <trkpt lat="37.74996547959744930267333984375" lon="-107.7119710855185985565185546875">
        <ele>3447.800048828125</ele>
        <time>2023-07-29T18:15:35.000Z</time>
        <extensions>
          <ns3:TrackPointExtension>
            <ns3:hr>90</ns3:hr>
            <ns3:cad>0</ns3:cad>
          </ns3:TrackPointExtension>
        </extensions>
      </trkpt>
      <trkpt lat="37.7499607019126415252685546875" lon="-107.711969576776027679443359375">
        <ele>3447.800048828125</ele>
        <time>2023-07-29T18:15:36.000Z</time>
        <extensions>
          <ns3:TrackPointExtension>
            <ns3:hr>90</ns3:hr>
            <ns3:cad>0</ns3:cad>
          </ns3:TrackPointExtension>
        </extensions>
      </trkpt>
      <trkpt lat="37.74995508603751659393310546875" lon="-107.71196764893829822540283203125">
        <ele>3448</ele>
        <time>2023-07-29T18:15:37.000Z</time>
        <extensions>
          <ns3:TrackPointExtension>
            <ns3:hr>89</ns3:hr>
            <ns3:cad>0</ns3:cad>
          </ns3:TrackPointExtension>
        </extensions>
      </trkpt>
      <trkpt lat="37.74994988925755023956298828125" lon="-107.7119647152721881866455078125">
        <ele>3448</ele>
        <time>2023-07-29T18:15:38.000Z</time>
        <extensions>
          <ns3:TrackPointExtension>
            <ns3:hr>89</ns3:hr>
            <ns3:cad>0</ns3:cad>
          </ns3:TrackPointExtension>
        </extensions>
      </trkpt>
      <trkpt lat="37.74994703941047191619873046875" lon="-107.71196563728153705596923828125">
        <ele>3448</ele>
        <time>2023-07-29T18:15:39.000Z</time>
        <extensions>
          <ns3:TrackPointExtension>
            <ns3:hr>89</ns3:hr>
            <ns3:cad>0</ns3:cad>
          </ns3:TrackPointExtension>
        </extensions>
      </trkpt>
      <trkpt lat="37.74994435720145702362060546875" lon="-107.71196764893829822540283203125">
        <ele>3448</ele>
        <time>2023-07-29T18:15:40.000Z</time>
        <extensions>
          <ns3:TrackPointExtension>
            <ns3:hr>89</ns3:hr>
            <ns3:cad>0</ns3:cad>
          </ns3:TrackPointExtension>
        </extensions>
      </trkpt>
      <trkpt lat="37.74994268082082271575927734375" lon="-107.7119687385857105255126953125">
        <ele>3448</ele>
        <time>2023-07-29T18:15:41.000Z</time>
        <extensions>
          <ns3:TrackPointExtension>
            <ns3:hr>89</ns3:hr>
            <ns3:cad>0</ns3:cad>
          </ns3:TrackPointExtension>
        </extensions>
      </trkpt>
      <trkpt lat="37.7499394118785858154296875" lon="-107.71196848712861537933349609375">
        <ele>3447.800048828125</ele>
        <time>2023-07-29T18:15:42.000Z</time>
        <extensions>
          <ns3:TrackPointExtension>
            <ns3:hr>89</ns3:hr>
            <ns3:cad>0</ns3:cad>
          </ns3:TrackPointExtension>
        </extensions>
      </trkpt>
      <trkpt lat="37.7499365620315074920654296875" lon="-107.7119650505483150482177734375">
        <ele>3447.800048828125</ele>
        <time>2023-07-29T18:15:43.000Z</time>
        <extensions>
          <ns3:TrackPointExtension>
            <ns3:hr>90</ns3:hr>
            <ns3:cad>0</ns3:cad>
          </ns3:TrackPointExtension>
        </extensions>
      </trkpt>
      <trkpt lat="37.74993614293634891510009765625" lon="-107.71196329034864902496337890625">
        <ele>3447.800048828125</ele>
        <time>2023-07-29T18:15:44.000Z</time>
        <extensions>
          <ns3:TrackPointExtension>
            <ns3:hr>90</ns3:hr>
            <ns3:cad>0</ns3:cad>
          </ns3:TrackPointExtension>
        </extensions>
      </trkpt>
      <trkpt lat="37.74993379600346088409423828125" lon="-107.7119610272347927093505859375">
        <ele>3447.800048828125</ele>
        <time>2023-07-29T18:15:45.000Z</time>
        <extensions>
          <ns3:TrackPointExtension>
            <ns3:hr>90</ns3:hr>
            <ns3:cad>0</ns3:cad>
          </ns3:TrackPointExtension>
        </extensions>
      </trkpt>
      <trkpt lat="37.7499315328896045684814453125" lon="-107.7119586803019046783447265625">
        <ele>3447.800048828125</ele>
        <time>2023-07-29T18:15:46.000Z</time>
        <extensions>
          <ns3:TrackPointExtension>
            <ns3:hr>91</ns3:hr>
            <ns3:cad>0</ns3:cad>
          </ns3:TrackPointExtension>
        </extensions>
      </trkpt>
      <trkpt lat="37.7499298565089702606201171875" lon="-107.711957506835460662841796875">
        <ele>3448</ele>
        <time>2023-07-29T18:15:47.000Z</time>
        <extensions>
          <ns3:TrackPointExtension>
            <ns3:hr>91</ns3:hr>
            <ns3:cad>0</ns3:cad>
          </ns3:TrackPointExtension>
        </extensions>
      </trkpt>
      <trkpt lat="37.74992994032800197601318359375" lon="-107.7119590155780315399169921875">
        <ele>3448</ele>
        <time>2023-07-29T18:15:48.000Z</time>
        <extensions>
          <ns3:TrackPointExtension>
            <ns3:hr>91</ns3:hr>
            <ns3:cad>0</ns3:cad>
          </ns3:TrackPointExtension>
        </extensions>
      </trkpt>
      <trkpt lat="37.74993069469928741455078125" lon="-107.7119613625109195709228515625">
        <ele>3448</ele>
        <time>2023-07-29T18:15:49.000Z</time>
        <extensions>
          <ns3:TrackPointExtension>
            <ns3:hr>91</ns3:hr>
            <ns3:cad>0</ns3:cad>
          </ns3:TrackPointExtension>
        </extensions>
      </trkpt>
      <trkpt lat="37.7499325387179851531982421875" lon="-107.71196655929088592529296875">
        <ele>3448</ele>
        <time>2023-07-29T18:15:50.000Z</time>
        <extensions>
          <ns3:TrackPointExtension>
            <ns3:hr>92</ns3:hr>
            <ns3:cad>0</ns3:cad>
          </ns3:TrackPointExtension>
        </extensions>
      </trkpt>
      <trkpt lat="37.7499338798224925994873046875" lon="-107.71197251044213771820068359375">
        <ele>3448</ele>
        <time>2023-07-29T18:15:51.000Z</time>
        <extensions>
          <ns3:TrackPointExtension>
            <ns3:hr>93</ns3:hr>
            <ns3:cad>0</ns3:cad>
          </ns3:TrackPointExtension>
        </extensions>
      </trkpt>
      <trkpt lat="37.74993178434669971466064453125" lon="-107.71197368390858173370361328125">
        <ele>3448</ele>
        <time>2023-07-29T18:15:52.000Z</time>
        <extensions>
          <ns3:TrackPointExtension>
            <ns3:hr>94</ns3:hr>
            <ns3:cad>0</ns3:cad>
          </ns3:TrackPointExtension>
        </extensions>
      </trkpt>
      <trkpt lat="37.7499313652515411376953125" lon="-107.71197594702243804931640625">
        <ele>3448</ele>
        <time>2023-07-29T18:15:53.000Z</time>
        <extensions>
          <ns3:TrackPointExtension>
            <ns3:hr>94</ns3:hr>
            <ns3:cad>0</ns3:cad>
          </ns3:TrackPointExtension>
        </extensions>
      </trkpt>
      <trkpt lat="37.74993178434669971466064453125" lon="-107.7119774557650089263916015625">
        <ele>3448</ele>
        <time>2023-07-29T18:15:54.000Z</time>
        <extensions>
          <ns3:TrackPointExtension>
            <ns3:hr>94</ns3:hr>
            <ns3:cad>0</ns3:cad>
          </ns3:TrackPointExtension>
        </extensions>
      </trkpt>
      <trkpt lat="37.749932706356048583984375" lon="-107.71197703666985034942626953125">
        <ele>3448</ele>
        <time>2023-07-29T18:15:55.000Z</time>
        <extensions>
          <ns3:TrackPointExtension>
            <ns3:hr>94</ns3:hr>
            <ns3:cad>0</ns3:cad>
          </ns3:TrackPointExtension>
        </extensions>
      </trkpt>
      <trkpt lat="37.7499335445463657379150390625" lon="-107.7119771204888820648193359375">
        <ele>3447.800048828125</ele>
        <time>2023-07-29T18:15:56.000Z</time>
        <extensions>
          <ns3:TrackPointExtension>
            <ns3:hr>93</ns3:hr>
            <ns3:cad>0</ns3:cad>
          </ns3:TrackPointExtension>
        </extensions>
      </trkpt>
      <trkpt lat="37.74993396364152431488037109375" lon="-107.7119761146605014801025390625">
        <ele>3447.800048828125</ele>
        <time>2023-07-29T18:15:57.000Z</time>
        <extensions>
          <ns3:TrackPointExtension>
            <ns3:hr>94</ns3:hr>
            <ns3:cad>0</ns3:cad>
          </ns3:TrackPointExtension>
        </extensions>
      </trkpt>
      <trkpt lat="37.74993312545120716094970703125" lon="-107.71197334863245487213134765625">
        <ele>3447.800048828125</ele>
        <time>2023-07-29T18:15:58.000Z</time>
        <extensions>
          <ns3:TrackPointExtension>
            <ns3:hr>94</ns3:hr>
            <ns3:cad>0</ns3:cad>
          </ns3:TrackPointExtension>
        </extensions>
      </trkpt>
      <trkpt lat="37.7499332092702388763427734375" lon="-107.71197133697569370269775390625">
        <ele>3447.800048828125</ele>
        <time>2023-07-29T18:15:59.000Z</time>
        <extensions>
          <ns3:TrackPointExtension>
            <ns3:hr>95</ns3:hr>
            <ns3:cad>0</ns3:cad>
          </ns3:TrackPointExtension>
        </extensions>
      </trkpt>
      <trkpt lat="37.74993279017508029937744140625" lon="-107.71196882240474224090576171875">
        <ele>3447.60009765625</ele>
        <time>2023-07-29T18:16:00.000Z</time>
        <extensions>
          <ns3:TrackPointExtension>
            <ns3:hr>95</ns3:hr>
            <ns3:cad>0</ns3:cad>
          </ns3:TrackPointExtension>
        </extensions>
      </trkpt>
      <trkpt lat="37.7499325387179851531982421875" lon="-107.7119673974812030792236328125">
        <ele>3447.800048828125</ele>
        <time>2023-07-29T18:16:01.000Z</time>
        <extensions>
          <ns3:TrackPointExtension>
            <ns3:hr>95</ns3:hr>
            <ns3:cad>0</ns3:cad>
          </ns3:TrackPointExtension>
        </extensions>
      </trkpt>
      <trkpt lat="37.74993061088025569915771484375" lon="-107.7119637094438076019287109375">
        <ele>3448</ele>
        <time>2023-07-29T18:16:02.000Z</time>
        <extensions>
          <ns3:TrackPointExtension>
            <ns3:hr>95</ns3:hr>
            <ns3:cad>0</ns3:cad>
          </ns3:TrackPointExtension>
        </extensions>
      </trkpt>
      <trkpt lat="37.74992876686155796051025390625" lon="-107.71196044050157070159912109375">
        <ele>3448</ele>
        <time>2023-07-29T18:16:03.000Z</time>
        <extensions>
          <ns3:TrackPointExtension>
            <ns3:hr>95</ns3:hr>
            <ns3:cad>0</ns3:cad>
          </ns3:TrackPointExtension>
        </extensions>
      </trkpt>
      <trkpt lat="37.749926336109638214111328125" lon="-107.7119576744735240936279296875">
        <ele>3448</ele>
        <time>2023-07-29T18:16:04.000Z</time>
        <extensions>
          <ns3:TrackPointExtension>
            <ns3:hr>95</ns3:hr>
            <ns3:cad>0</ns3:cad>
          </ns3:TrackPointExtension>
        </extensions>
      </trkpt>
      <trkpt lat="37.74992491118609905242919921875" lon="-107.7119583450257778167724609375">
        <ele>3448</ele>
        <time>2023-07-29T18:16:05.000Z</time>
        <extensions>
          <ns3:TrackPointExtension>
            <ns3:hr>95</ns3:hr>
            <ns3:cad>0</ns3:cad>
          </ns3:TrackPointExtension>
        </extensions>
      </trkpt>
      <trkpt lat="37.7499251626431941986083984375" lon="-107.71196010522544384002685546875">
        <ele>3448</ele>
        <time>2023-07-29T18:16:06.000Z</time>
        <extensions>
          <ns3:TrackPointExtension>
            <ns3:hr>95</ns3:hr>
            <ns3:cad>0</ns3:cad>
          </ns3:TrackPointExtension>
        </extensions>
      </trkpt>
      <trkpt lat="37.74992801249027252197265625" lon="-107.71196630783379077911376953125">
        <ele>3448</ele>
        <time>2023-07-29T18:16:07.000Z</time>
        <extensions>
          <ns3:TrackPointExtension>
            <ns3:hr>95</ns3:hr>
            <ns3:cad>0</ns3:cad>
          </ns3:TrackPointExtension>
        </extensions>
      </trkpt>
      <trkpt lat="37.74992943741381168365478515625" lon="-107.71196999587118625640869140625">
        <ele>3448</ele>
        <time>2023-07-29T18:16:08.000Z</time>
        <extensions>
          <ns3:TrackPointExtension>
            <ns3:hr>95</ns3:hr>
            <ns3:cad>0</ns3:cad>
          </ns3:TrackPointExtension>
        </extensions>
      </trkpt>
      <trkpt lat="37.749931700527667999267578125" lon="-107.71197401918470859527587890625">
        <ele>3448</ele>
        <time>2023-07-29T18:16:09.000Z</time>
        <extensions>
          <ns3:TrackPointExtension>
            <ns3:hr>95</ns3:hr>
            <ns3:cad>0</ns3:cad>
          </ns3:TrackPointExtension>
        </extensions>
      </trkpt>
      <trkpt lat="37.74993295781314373016357421875" lon="-107.7119747735559940338134765625">
        <ele>3447.800048828125</ele>
        <time>2023-07-29T18:16:10.000Z</time>
        <extensions>
          <ns3:TrackPointExtension>
            <ns3:hr>95</ns3:hr>
            <ns3:cad>0</ns3:cad>
          </ns3:TrackPointExtension>
        </extensions>
      </trkpt>
      <trkpt lat="37.7499325387179851531982421875" lon="-107.7119710855185985565185546875">
        <ele>3447.800048828125</ele>
        <time>2023-07-29T18:16:11.000Z</time>
        <extensions>
          <ns3:TrackPointExtension>
            <ns3:hr>95</ns3:hr>
            <ns3:cad>0</ns3:cad>
          </ns3:TrackPointExtension>
        </extensions>
      </trkpt>
      <trkpt lat="37.7499325387179851531982421875" lon="-107.71197167225182056427001953125">
        <ele>3447.800048828125</ele>
        <time>2023-07-29T18:16:12.000Z</time>
        <extensions>
          <ns3:TrackPointExtension>
            <ns3:hr>95</ns3:hr>
            <ns3:cad>0</ns3:cad>
          </ns3:TrackPointExtension>
        </extensions>
      </trkpt>
      <trkpt lat="37.749933712184429168701171875" lon="-107.71197267808020114898681640625">
        <ele>3447.800048828125</ele>
        <time>2023-07-29T18:16:13.000Z</time>
        <extensions>
          <ns3:TrackPointExtension>
            <ns3:hr>94</ns3:hr>
            <ns3:cad>0</ns3:cad>
          </ns3:TrackPointExtension>
        </extensions>
      </trkpt>
      <trkpt lat="37.749935723841190338134765625" lon="-107.7119747735559940338134765625">
        <ele>3447.60009765625</ele>
        <time>2023-07-29T18:16:14.000Z</time>
        <extensions>
          <ns3:TrackPointExtension>
            <ns3:hr>93</ns3:hr>
            <ns3:cad>0</ns3:cad>
          </ns3:TrackPointExtension>
        </extensions>
      </trkpt>
      <trkpt lat="37.7499362267553806304931640625" lon="-107.71197536028921604156494140625">
        <ele>3447.60009765625</ele>
        <time>2023-07-29T18:16:15.000Z</time>
        <extensions>
          <ns3:TrackPointExtension>
            <ns3:hr>91</ns3:hr>
            <ns3:cad>0</ns3:cad>
          </ns3:TrackPointExtension>
        </extensions>
      </trkpt>
      <trkpt lat="37.74994142353534698486328125" lon="-107.7119781263172626495361328125">
        <ele>3447.60009765625</ele>
        <time>2023-07-29T18:16:16.000Z</time>
        <extensions>
          <ns3:TrackPointExtension>
            <ns3:hr>89</ns3:hr>
            <ns3:cad>0</ns3:cad>
          </ns3:TrackPointExtension>
        </extensions>
      </trkpt>
      <trkpt lat="37.74994016624987125396728515625" lon="-107.71197653375566005706787109375">
        <ele>3447.39990234375</ele>
        <time>2023-07-29T18:16:17.000Z</time>
        <extensions>
          <ns3:TrackPointExtension>
            <ns3:hr>85</ns3:hr>
            <ns3:cad>0</ns3:cad>
          </ns3:TrackPointExtension>
        </extensions>
      </trkpt>
      <trkpt lat="37.74994276463985443115234375" lon="-107.71197519265115261077880859375">
        <ele>3447.39990234375</ele>
        <time>2023-07-29T18:16:18.000Z</time>
        <extensions>
          <ns3:TrackPointExtension>
            <ns3:hr>84</ns3:hr>
            <ns3:cad>0</ns3:cad>
          </ns3:TrackPointExtension>
        </extensions>
      </trkpt>
      <trkpt lat="37.7499402500689029693603515625" lon="-107.71197133697569370269775390625">
        <ele>3447.39990234375</ele>
        <time>2023-07-29T18:16:19.000Z</time>
        <extensions>
          <ns3:TrackPointExtension>
            <ns3:hr>84</ns3:hr>
            <ns3:cad>0</ns3:cad>
          </ns3:TrackPointExtension>
        </extensions>
      </trkpt>
      <trkpt lat="37.749940417706966400146484375" lon="-107.71197049878537654876708984375">
        <ele>3447.39990234375</ele>
        <time>2023-07-29T18:16:20.000Z</time>
        <extensions>
          <ns3:TrackPointExtension>
            <ns3:hr>84</ns3:hr>
            <ns3:cad>0</ns3:cad>
          </ns3:TrackPointExtension>
        </extensions>
      </trkpt>
      <trkpt lat="37.74994150735437870025634765625" lon="-107.71196949295699596405029296875">
        <ele>3447.39990234375</ele>
        <time>2023-07-29T18:16:21.000Z</time>
        <extensions>
          <ns3:TrackPointExtension>
            <ns3:hr>84</ns3:hr>
            <ns3:cad>0</ns3:cad>
          </ns3:TrackPointExtension>
        </extensions>
      </trkpt>
      <trkpt lat="37.74994351901113986968994140625" lon="-107.7119707502424716949462890625">
        <ele>3447.39990234375</ele>
        <time>2023-07-29T18:16:22.000Z</time>
        <extensions>
          <ns3:TrackPointExtension>
            <ns3:hr>84</ns3:hr>
            <ns3:cad>0</ns3:cad>
          </ns3:TrackPointExtension>
        </extensions>
      </trkpt>
      <trkpt lat="37.7499474585056304931640625" lon="-107.71197259426116943359375">
        <ele>3447.39990234375</ele>
        <time>2023-07-29T18:16:23.000Z</time>
        <extensions>
          <ns3:TrackPointExtension>
            <ns3:hr>84</ns3:hr>
            <ns3:cad>0</ns3:cad>
          </ns3:TrackPointExtension>
        </extensions>
      </trkpt>
      <trkpt lat="37.749948464334011077880859375" lon="-107.7119730971753597259521484375">
        <ele>3447.39990234375</ele>
        <time>2023-07-29T18:16:24.000Z</time>
        <extensions>
          <ns3:TrackPointExtension>
            <ns3:hr>84</ns3:hr>
            <ns3:cad>0</ns3:cad>
          </ns3:TrackPointExtension>
        </extensions>
      </trkpt>
      <trkpt lat="37.7499496378004550933837890625" lon="-107.7119714207947254180908203125">
        <ele>3447.39990234375</ele>
        <time>2023-07-29T18:16:25.000Z</time>
        <extensions>
          <ns3:TrackPointExtension>
            <ns3:hr>84</ns3:hr>
            <ns3:cad>0</ns3:cad>
          </ns3:TrackPointExtension>
        </extensions>
      </trkpt>
      <trkpt lat="37.74995089508593082427978515625" lon="-107.7119712531566619873046875">
        <ele>3447.39990234375</ele>
        <time>2023-07-29T18:16:26.000Z</time>
        <extensions>
          <ns3:TrackPointExtension>
            <ns3:hr>84</ns3:hr>
            <ns3:cad>0</ns3:cad>
          </ns3:TrackPointExtension>
        </extensions>
      </trkpt>
      <trkpt lat="37.74994452483952045440673828125" lon="-107.7119667269289493560791015625">
        <ele>3447.60009765625</ele>
        <time>2023-07-29T18:16:27.000Z</time>
        <extensions>
          <ns3:TrackPointExtension>
            <ns3:hr>85</ns3:hr>
            <ns3:cad>0</ns3:cad>
          </ns3:TrackPointExtension>
        </extensions>
      </trkpt>
      <trkpt lat="37.74994050152599811553955078125" lon="-107.71196194924414157867431640625">
        <ele>3447.60009765625</ele>
        <time>2023-07-29T18:16:28.000Z</time>
        <extensions>
          <ns3:TrackPointExtension>
            <ns3:hr>85</ns3:hr>
            <ns3:cad>0</ns3:cad>
          </ns3:TrackPointExtension>
        </extensions>
      </trkpt>
      <trkpt lat="37.7499367296695709228515625" lon="-107.71195859648287296295166015625">
        <ele>3447.60009765625</ele>
        <time>2023-07-29T18:16:29.000Z</time>
        <extensions>
          <ns3:TrackPointExtension>
            <ns3:hr>85</ns3:hr>
            <ns3:cad>0</ns3:cad>
          </ns3:TrackPointExtension>
        </extensions>
      </trkpt>
      <trkpt lat="37.74993379600346088409423828125" lon="-107.71195591427385807037353515625">
        <ele>3447.800048828125</ele>
        <time>2023-07-29T18:16:30.000Z</time>
        <extensions>
          <ns3:TrackPointExtension>
            <ns3:hr>86</ns3:hr>
            <ns3:cad>0</ns3:cad>
          </ns3:TrackPointExtension>
        </extensions>
      </trkpt>
      <trkpt lat="37.74993111379444599151611328125" lon="-107.7119506336748600006103515625">
        <ele>3447.800048828125</ele>
        <time>2023-07-29T18:16:31.000Z</time>
        <extensions>
          <ns3:TrackPointExtension>
            <ns3:hr>86</ns3:hr>
            <ns3:cad>0</ns3:cad>
          </ns3:TrackPointExtension>
        </extensions>
      </trkpt>
      <trkpt lat="37.749929018318653106689453125" lon="-107.71194686181843280792236328125">
        <ele>3447.800048828125</ele>
        <time>2023-07-29T18:16:32.000Z</time>
        <extensions>
          <ns3:TrackPointExtension>
            <ns3:hr>86</ns3:hr>
            <ns3:cad>0</ns3:cad>
          </ns3:TrackPointExtension>
        </extensions>
      </trkpt>
      <trkpt lat="37.74992843158543109893798828125" lon="-107.71194200031459331512451171875">
        <ele>3447.800048828125</ele>
        <time>2023-07-29T18:16:33.000Z</time>
        <extensions>
          <ns3:TrackPointExtension>
            <ns3:hr>88</ns3:hr>
            <ns3:cad>0</ns3:cad>
          </ns3:TrackPointExtension>
        </extensions>
      </trkpt>
      <trkpt lat="37.74993144907057285308837890625" lon="-107.71194107830524444580078125">
        <ele>3447.800048828125</ele>
        <time>2023-07-29T18:16:34.000Z</time>
        <extensions>
          <ns3:TrackPointExtension>
            <ns3:hr>88</ns3:hr>
            <ns3:cad>0</ns3:cad>
          </ns3:TrackPointExtension>
        </extensions>
      </trkpt>
      <trkpt lat="37.7499392442405223846435546875" lon="-107.71194116212427616119384765625">
        <ele>3447.800048828125</ele>
        <time>2023-07-29T18:16:35.000Z</time>
        <extensions>
          <ns3:TrackPointExtension>
            <ns3:hr>87</ns3:hr>
            <ns3:cad>0</ns3:cad>
          </ns3:TrackPointExtension>
        </extensions>
      </trkpt>
      <trkpt lat="37.74994133971631526947021484375" lon="-107.71194065921008586883544921875">
        <ele>3447.800048828125</ele>
        <time>2023-07-29T18:16:36.000Z</time>
        <extensions>
          <ns3:TrackPointExtension>
            <ns3:hr>87</ns3:hr>
            <ns3:cad>0</ns3:cad>
          </ns3:TrackPointExtension>
        </extensions>
      </trkpt>
      <trkpt lat="37.7499456144869327545166015625" lon="-107.711943089962005615234375">
        <ele>3448</ele>
        <time>2023-07-29T18:16:37.000Z</time>
        <extensions>
          <ns3:TrackPointExtension>
            <ns3:hr>87</ns3:hr>
            <ns3:cad>0</ns3:cad>
          </ns3:TrackPointExtension>
        </extensions>
      </trkpt>
      <trkpt lat="37.7499395795166492462158203125" lon="-107.7119476161897182464599609375">
        <ele>3447.800048828125</ele>
        <time>2023-07-29T18:16:38.000Z</time>
        <extensions>
          <ns3:TrackPointExtension>
            <ns3:hr>87</ns3:hr>
            <ns3:cad>0</ns3:cad>
          </ns3:TrackPointExtension>
        </extensions>
      </trkpt>
      <trkpt lat="37.74993731640279293060302734375" lon="-107.7119549922645092010498046875">
        <ele>3447.800048828125</ele>
        <time>2023-07-29T18:16:39.000Z</time>
        <extensions>
          <ns3:TrackPointExtension>
            <ns3:hr>87</ns3:hr>
            <ns3:cad>0</ns3:cad>
          </ns3:TrackPointExtension>
        </extensions>
      </trkpt>
      <trkpt lat="37.749935723841190338134765625" lon="-107.71196178160607814788818359375">
        <ele>3447.800048828125</ele>
        <time>2023-07-29T18:16:40.000Z</time>
        <extensions>
          <ns3:TrackPointExtension>
            <ns3:hr>87</ns3:hr>
            <ns3:cad>0</ns3:cad>
          </ns3:TrackPointExtension>
        </extensions>
      </trkpt>
      <trkpt lat="37.7499355562031269073486328125" lon="-107.71196915768086910247802734375">
        <ele>3447.800048828125</ele>
        <time>2023-07-29T18:16:41.000Z</time>
        <extensions>
          <ns3:TrackPointExtension>
            <ns3:hr>87</ns3:hr>
            <ns3:cad>0</ns3:cad>
          </ns3:TrackPointExtension>
        </extensions>
      </trkpt>
      <trkpt lat="37.749937735497951507568359375" lon="-107.71197603084146976470947265625">
        <ele>3447.60009765625</ele>
        <time>2023-07-29T18:16:42.000Z</time>
        <extensions>
          <ns3:TrackPointExtension>
            <ns3:hr>87</ns3:hr>
            <ns3:cad>0</ns3:cad>
          </ns3:TrackPointExtension>
        </extensions>
      </trkpt>
      <trkpt lat="37.74993874132633209228515625" lon="-107.71198323927819728851318359375">
        <ele>3447.60009765625</ele>
        <time>2023-07-29T18:16:43.000Z</time>
        <extensions>
          <ns3:TrackPointExtension>
            <ns3:hr>88</ns3:hr>
            <ns3:cad>0</ns3:cad>
          </ns3:TrackPointExtension>
        </extensions>
      </trkpt>
      <trkpt lat="37.7499372325837612152099609375" lon="-107.71199145354330539703369140625">
        <ele>3447.60009765625</ele>
        <time>2023-07-29T18:16:44.000Z</time>
        <extensions>
          <ns3:TrackPointExtension>
            <ns3:hr>88</ns3:hr>
            <ns3:cad>0</ns3:cad>
          </ns3:TrackPointExtension>
        </extensions>
      </trkpt>
      <trkpt lat="37.7499425970017910003662109375" lon="-107.71199966780841350555419921875">
        <ele>3447.60009765625</ele>
        <time>2023-07-29T18:16:45.000Z</time>
        <extensions>
          <ns3:TrackPointExtension>
            <ns3:hr>88</ns3:hr>
            <ns3:cad>0</ns3:cad>
          </ns3:TrackPointExtension>
        </extensions>
      </trkpt>
      <trkpt lat="37.7499432675540447235107421875" lon="-107.71199866198003292083740234375">
        <ele>3447.800048828125</ele>
        <time>2023-07-29T18:16:46.000Z</time>
        <extensions>
          <ns3:TrackPointExtension>
            <ns3:hr>88</ns3:hr>
            <ns3:cad>0</ns3:cad>
          </ns3:TrackPointExtension>
        </extensions>
      </trkpt>
      <trkpt lat="37.7499447762966156005859375" lon="-107.71200100891292095184326171875">
        <ele>3448</ele>
        <time>2023-07-29T18:16:47.000Z</time>
        <extensions>
          <ns3:TrackPointExtension>
            <ns3:hr>87</ns3:hr>
            <ns3:cad>0</ns3:cad>
          </ns3:TrackPointExtension>
        </extensions>
      </trkpt>
      <trkpt lat="37.7499479614198207855224609375" lon="-107.712003104388713836669921875">
        <ele>3448.199951171875</ele>
        <time>2023-07-29T18:16:48.000Z</time>
        <extensions>
          <ns3:TrackPointExtension>
            <ns3:hr>87</ns3:hr>
            <ns3:cad>0</ns3:cad>
          </ns3:TrackPointExtension>
        </extensions>
      </trkpt>
      <trkpt lat="37.749951146543025970458984375" lon="-107.7120026014745235443115234375">
        <ele>3448.199951171875</ele>
        <time>2023-07-29T18:16:49.000Z</time>
        <extensions>
          <ns3:TrackPointExtension>
            <ns3:hr>87</ns3:hr>
            <ns3:cad>0</ns3:cad>
          </ns3:TrackPointExtension>
        </extensions>
      </trkpt>
      <trkpt lat="37.749948464334011077880859375" lon="-107.7119945548474788665771484375">
        <ele>3448.199951171875</ele>
        <time>2023-07-29T18:16:50.000Z</time>
        <extensions>
          <ns3:TrackPointExtension>
            <ns3:hr>87</ns3:hr>
            <ns3:cad>0</ns3:cad>
          </ns3:TrackPointExtension>
        </extensions>
      </trkpt>
      <trkpt lat="37.7499474585056304931640625" lon="-107.71198089234530925750732421875">
        <ele>3448.199951171875</ele>
        <time>2023-07-29T18:16:51.000Z</time>
        <extensions>
          <ns3:TrackPointExtension>
            <ns3:hr>87</ns3:hr>
            <ns3:cad>0</ns3:cad>
          </ns3:TrackPointExtension>
        </extensions>
      </trkpt>
      <trkpt lat="37.7499422617256641387939453125" lon="-107.7119787968695163726806640625">
        <ele>3448.199951171875</ele>
        <time>2023-07-29T18:16:52.000Z</time>
        <extensions>
          <ns3:TrackPointExtension>
            <ns3:hr>87</ns3:hr>
            <ns3:cad>0</ns3:cad>
          </ns3:TrackPointExtension>
        </extensions>
      </trkpt>
      <trkpt lat="37.749941758811473846435546875" lon="-107.71198399364948272705078125">
        <ele>3448.199951171875</ele>
        <time>2023-07-29T18:16:53.000Z</time>
        <extensions>
          <ns3:TrackPointExtension>
            <ns3:hr>87</ns3:hr>
            <ns3:cad>0</ns3:cad>
          </ns3:TrackPointExtension>
        </extensions>
      </trkpt>
      <trkpt lat="37.74993949569761753082275390625" lon="-107.711991369724273681640625">
        <ele>3448.199951171875</ele>
        <time>2023-07-29T18:16:54.000Z</time>
        <extensions>
          <ns3:TrackPointExtension>
            <ns3:hr>86</ns3:hr>
            <ns3:cad>0</ns3:cad>
          </ns3:TrackPointExtension>
        </extensions>
      </trkpt>
      <trkpt lat="37.74993874132633209228515625" lon="-107.71200352348387241363525390625">
        <ele>3448</ele>
        <time>2023-07-29T18:16:55.000Z</time>
        <extensions>
          <ns3:TrackPointExtension>
            <ns3:hr>86</ns3:hr>
            <ns3:cad>53</ns3:cad>
          </ns3:TrackPointExtension>
        </extensions>
      </trkpt>
      <trkpt lat="37.749940417706966400146484375" lon="-107.7120101451873779296875">
        <ele>3448</ele>
        <time>2023-07-29T18:16:56.000Z</time>
        <extensions>
          <ns3:TrackPointExtension>
            <ns3:hr>86</ns3:hr>
            <ns3:cad>53</ns3:cad>
          </ns3:TrackPointExtension>
        </extensions>
      </trkpt>
      <trkpt lat="37.7499412558972835540771484375" lon="-107.71201710216701030731201171875">
        <ele>3447.800048828125</ele>
        <time>2023-07-29T18:16:57.000Z</time>
        <extensions>
          <ns3:TrackPointExtension>
            <ns3:hr>86</ns3:hr>
            <ns3:cad>53</ns3:cad>
          </ns3:TrackPointExtension>
        </extensions>
      </trkpt>
      <trkpt lat="37.74993882514536380767822265625" lon="-107.7120275795459747314453125">
        <ele>3447.800048828125</ele>
        <time>2023-07-29T18:16:58.000Z</time>
        <extensions>
          <ns3:TrackPointExtension>
            <ns3:hr>85</ns3:hr>
            <ns3:cad>47</ns3:cad>
          </ns3:TrackPointExtension>
        </extensions>
      </trkpt>
      <trkpt lat="37.7499332092702388763427734375" lon="-107.7120351232588291168212890625">
        <ele>3447.60009765625</ele>
        <time>2023-07-29T18:16:59.000Z</time>
        <extensions>
          <ns3:TrackPointExtension>
            <ns3:hr>85</ns3:hr>
            <ns3:cad>47</ns3:cad>
          </ns3:TrackPointExtension>
        </extensions>
      </trkpt>
      <trkpt lat="37.74992893449962139129638671875" lon="-107.712045013904571533203125">
        <ele>3447.39990234375</ele>
        <time>2023-07-29T18:17:00.000Z</time>
        <extensions>
          <ns3:TrackPointExtension>
            <ns3:hr>85</ns3:hr>
            <ns3:cad>47</ns3:cad>
          </ns3:TrackPointExtension>
        </extensions>
      </trkpt>
      <trkpt lat="37.7499261684715747833251953125" lon="-107.7120471931993961334228515625">
        <ele>3447.39990234375</ele>
        <time>2023-07-29T18:17:01.000Z</time>
        <extensions>
          <ns3:TrackPointExtension>
            <ns3:hr>85</ns3:hr>
            <ns3:cad>48</ns3:cad>
          </ns3:TrackPointExtension>
        </extensions>
      </trkpt>
      <trkpt lat="37.74992088787257671356201171875" lon="-107.71205280907452106475830078125">
        <ele>3447.199951171875</ele>
        <time>2023-07-29T18:17:02.000Z</time>
        <extensions>
          <ns3:TrackPointExtension>
            <ns3:hr>85</ns3:hr>
            <ns3:cad>48</ns3:cad>
          </ns3:TrackPointExtension>
        </extensions>
      </trkpt>
      <trkpt lat="37.749920301139354705810546875" lon="-107.71204970777034759521484375">
        <ele>3447.199951171875</ele>
        <time>2023-07-29T18:17:03.000Z</time>
        <extensions>
          <ns3:TrackPointExtension>
            <ns3:hr>85</ns3:hr>
            <ns3:cad>0</ns3:cad>
          </ns3:TrackPointExtension>
        </extensions>
      </trkpt>
      <trkpt lat="37.74991803802549839019775390625" lon="-107.71205632947385311126708984375">
        <ele>3447.199951171875</ele>
        <time>2023-07-29T18:17:04.000Z</time>
        <extensions>
          <ns3:TrackPointExtension>
            <ns3:hr>85</ns3:hr>
            <ns3:cad>0</ns3:cad>
          </ns3:TrackPointExtension>
        </extensions>
      </trkpt>
      <trkpt lat="37.74991636164486408233642578125" lon="-107.71206119097769260406494140625">
        <ele>3447</ele>
        <time>2023-07-29T18:17:05.000Z</time>
        <extensions>
          <ns3:TrackPointExtension>
            <ns3:hr>85</ns3:hr>
            <ns3:cad>45</ns3:cad>
          </ns3:TrackPointExtension>
        </extensions>
      </trkpt>
      <trkpt lat="37.7499087341129779815673828125" lon="-107.7120750211179256439208984375">
        <ele>3447</ele>
        <time>2023-07-29T18:17:06.000Z</time>
        <extensions>
          <ns3:TrackPointExtension>
            <ns3:hr>85</ns3:hr>
            <ns3:cad>45</ns3:cad>
          </ns3:TrackPointExtension>
        </extensions>
      </trkpt>
      <trkpt lat="37.74990395642817020416259765625" lon="-107.71208683960139751434326171875">
        <ele>3447</ele>
        <time>2023-07-29T18:17:07.000Z</time>
        <extensions>
          <ns3:TrackPointExtension>
            <ns3:hr>85</ns3:hr>
            <ns3:cad>45</ns3:cad>
          </ns3:TrackPointExtension>
        </extensions>
      </trkpt>
      <trkpt lat="37.74989808909595012664794921875" lon="-107.71209874190390110015869140625">
        <ele>3446.800048828125</ele>
        <time>2023-07-29T18:17:08.000Z</time>
        <extensions>
          <ns3:TrackPointExtension>
            <ns3:hr>85</ns3:hr>
            <ns3:cad>0</ns3:cad>
          </ns3:TrackPointExtension>
        </extensions>
      </trkpt>
      <trkpt lat="37.7498911321163177490234375" lon="-107.71210913546383380889892578125">
        <ele>3446.39990234375</ele>
        <time>2023-07-29T18:17:09.000Z</time>
        <extensions>
          <ns3:TrackPointExtension>
            <ns3:hr>85</ns3:hr>
            <ns3:cad>0</ns3:cad>
          </ns3:TrackPointExtension>
        </extensions>
      </trkpt>
      <trkpt lat="37.749884091317653656005859375" lon="-107.71211986429989337921142578125">
        <ele>3446.199951171875</ele>
        <time>2023-07-29T18:17:10.000Z</time>
        <extensions>
          <ns3:TrackPointExtension>
            <ns3:hr>85</ns3:hr>
            <ns3:cad>0</ns3:cad>
          </ns3:TrackPointExtension>
        </extensions>
      </trkpt>
      <trkpt lat="37.7498804032802581787109375" lon="-107.71212623454630374908447265625">
        <ele>3446.199951171875</ele>
        <time>2023-07-29T18:17:11.000Z</time>
        <extensions>
          <ns3:TrackPointExtension>
            <ns3:hr>85</ns3:hr>
            <ns3:cad>0</ns3:cad>
          </ns3:TrackPointExtension>
        </extensions>
      </trkpt>
      <trkpt lat="37.7498738653957843780517578125" lon="-107.7121343649923801422119140625">
        <ele>3446.199951171875</ele>
        <time>2023-07-29T18:17:12.000Z</time>
        <extensions>
          <ns3:TrackPointExtension>
            <ns3:hr>84</ns3:hr>
            <ns3:cad>48</ns3:cad>
          </ns3:TrackPointExtension>
        </extensions>
      </trkpt>
      <trkpt lat="37.74986590258777141571044921875" lon="-107.712141238152980804443359375">
        <ele>3446</ele>
        <time>2023-07-29T18:17:13.000Z</time>
        <extensions>
          <ns3:TrackPointExtension>
            <ns3:hr>84</ns3:hr>
            <ns3:cad>48</ns3:cad>
          </ns3:TrackPointExtension>
        </extensions>
      </trkpt>
      <trkpt lat="37.74986640550196170806884765625" lon="-107.71214098669588565826416015625">
        <ele>3446</ele>
        <time>2023-07-29T18:17:14.000Z</time>
        <extensions>
          <ns3:TrackPointExtension>
            <ns3:hr>84</ns3:hr>
            <ns3:cad>48</ns3:cad>
          </ns3:TrackPointExtension>
        </extensions>
      </trkpt>
      <trkpt lat="37.74986565113067626953125" lon="-107.7121440880000591278076171875">
        <ele>3445.800048828125</ele>
        <time>2023-07-29T18:17:15.000Z</time>
        <extensions>
          <ns3:TrackPointExtension>
            <ns3:hr>84</ns3:hr>
            <ns3:cad>48</ns3:cad>
          </ns3:TrackPointExtension>
        </extensions>
      </trkpt>
      <trkpt lat="37.74986389093101024627685546875" lon="-107.71215163171291351318359375">
        <ele>3445.60009765625</ele>
        <time>2023-07-29T18:17:16.000Z</time>
        <extensions>
          <ns3:TrackPointExtension>
            <ns3:hr>84</ns3:hr>
            <ns3:cad>46</ns3:cad>
          </ns3:TrackPointExtension>
        </extensions>
      </trkpt>
      <trkpt lat="37.74985785596072673797607421875" lon="-107.7121645398437976837158203125">
        <ele>3445.39990234375</ele>
        <time>2023-07-29T18:17:17.000Z</time>
        <extensions>
          <ns3:TrackPointExtension>
            <ns3:hr>84</ns3:hr>
            <ns3:cad>0</ns3:cad>
          </ns3:TrackPointExtension>
        </extensions>
      </trkpt>
      <trkpt lat="37.74985425174236297607421875" lon="-107.712173424661159515380859375">
        <ele>3445.39990234375</ele>
        <time>2023-07-29T18:17:18.000Z</time>
        <extensions>
          <ns3:TrackPointExtension>
            <ns3:hr>84</ns3:hr>
            <ns3:cad>0</ns3:cad>
          </ns3:TrackPointExtension>
        </extensions>
      </trkpt>
      <trkpt lat="37.749852575361728668212890625" lon="-107.71218071691691875457763671875">
        <ele>3445.199951171875</ele>
        <time>2023-07-29T18:17:19.000Z</time>
        <extensions>
          <ns3:TrackPointExtension>
            <ns3:hr>84</ns3:hr>
            <ns3:cad>0</ns3:cad>
          </ns3:TrackPointExtension>
        </extensions>
      </trkpt>
      <trkpt lat="37.74985098280012607574462890625" lon="-107.71218993701040744781494140625">
        <ele>3445</ele>
        <time>2023-07-29T18:17:20.000Z</time>
        <extensions>
          <ns3:TrackPointExtension>
            <ns3:hr>84</ns3:hr>
            <ns3:cad>0</ns3:cad>
          </ns3:TrackPointExtension>
        </extensions>
      </trkpt>
      <trkpt lat="37.74985081516206264495849609375" lon="-107.7121970616281032562255859375">
        <ele>3444.800048828125</ele>
        <time>2023-07-29T18:17:21.000Z</time>
        <extensions>
          <ns3:TrackPointExtension>
            <ns3:hr>84</ns3:hr>
            <ns3:cad>48</ns3:cad>
          </ns3:TrackPointExtension>
        </extensions>
      </trkpt>
      <trkpt lat="37.749845869839191436767578125" lon="-107.7122151665389537811279296875">
        <ele>3444.800048828125</ele>
        <time>2023-07-29T18:17:22.000Z</time>
        <extensions>
          <ns3:TrackPointExtension>
            <ns3:hr>84</ns3:hr>
            <ns3:cad>48</ns3:cad>
          </ns3:TrackPointExtension>
        </extensions>
      </trkpt>
      <trkpt lat="37.7498428523540496826171875" lon="-107.7122285775840282440185546875">
        <ele>3444.60009765625</ele>
        <time>2023-07-29T18:17:23.000Z</time>
        <extensions>
          <ns3:TrackPointExtension>
            <ns3:hr>84</ns3:hr>
            <ns3:cad>48</ns3:cad>
          </ns3:TrackPointExtension>
        </extensions>
      </trkpt>
      <trkpt lat="37.74984025396406650543212890625" lon="-107.71224081516265869140625">
        <ele>3444.60009765625</ele>
        <time>2023-07-29T18:17:24.000Z</time>
        <extensions>
          <ns3:TrackPointExtension>
            <ns3:hr>85</ns3:hr>
            <ns3:cad>48</ns3:cad>
          </ns3:TrackPointExtension>
        </extensions>
      </trkpt>
      <trkpt lat="37.74983572773635387420654296875" lon="-107.71225363947451114654541015625">
        <ele>3444.39990234375</ele>
        <time>2023-07-29T18:17:25.000Z</time>
        <extensions>
          <ns3:TrackPointExtension>
            <ns3:hr>85</ns3:hr>
            <ns3:cad>48</ns3:cad>
          </ns3:TrackPointExtension>
        </extensions>
      </trkpt>
      <trkpt lat="37.74983036331832408905029296875" lon="-107.71226470358669757843017578125">
        <ele>3444.39990234375</ele>
        <time>2023-07-29T18:17:26.000Z</time>
        <extensions>
          <ns3:TrackPointExtension>
            <ns3:hr>85</ns3:hr>
            <ns3:cad>51</ns3:cad>
          </ns3:TrackPointExtension>
        </extensions>
      </trkpt>
      <trkpt lat="37.7498232387006282806396484375" lon="-107.71227912046015262603759765625">
        <ele>3444.199951171875</ele>
        <time>2023-07-29T18:17:27.000Z</time>
        <extensions>
          <ns3:TrackPointExtension>
            <ns3:hr>85</ns3:hr>
            <ns3:cad>51</ns3:cad>
          </ns3:TrackPointExtension>
        </extensions>
      </trkpt>
      <trkpt lat="37.74981628172099590301513671875" lon="-107.712286077439785003662109375">
        <ele>3444.199951171875</ele>
        <time>2023-07-29T18:17:28.000Z</time>
        <extensions>
          <ns3:TrackPointExtension>
            <ns3:hr>85</ns3:hr>
            <ns3:cad>51</ns3:cad>
          </ns3:TrackPointExtension>
        </extensions>
      </trkpt>
      <trkpt lat="37.74980840273201465606689453125" lon="-107.7122959680855274200439453125">
        <ele>3444.199951171875</ele>
        <time>2023-07-29T18:17:29.000Z</time>
        <extensions>
          <ns3:TrackPointExtension>
            <ns3:hr>85</ns3:hr>
            <ns3:cad>51</ns3:cad>
          </ns3:TrackPointExtension>
        </extensions>
      </trkpt>
      <trkpt lat="37.74979784153401851654052734375" lon="-107.7123038470745086669921875">
        <ele>3444.199951171875</ele>
        <time>2023-07-29T18:17:30.000Z</time>
        <extensions>
          <ns3:TrackPointExtension>
            <ns3:hr>85</ns3:hr>
            <ns3:cad>0</ns3:cad>
          </ns3:TrackPointExtension>
        </extensions>
      </trkpt>
      <trkpt lat="37.749792225658893585205078125" lon="-107.7123060263693332672119140625">
        <ele>3444</ele>
        <time>2023-07-29T18:17:31.000Z</time>
        <extensions>
          <ns3:TrackPointExtension>
            <ns3:hr>85</ns3:hr>
            <ns3:cad>0</ns3:cad>
          </ns3:TrackPointExtension>
        </extensions>
      </trkpt>
      <trkpt lat="37.74978057481348514556884765625" lon="-107.7123060263693332672119140625">
        <ele>3443.800048828125</ele>
        <time>2023-07-29T18:17:32.000Z</time>
        <extensions>
          <ns3:TrackPointExtension>
            <ns3:hr>84</ns3:hr>
            <ns3:cad>0</ns3:cad>
          </ns3:TrackPointExtension>
        </extensions>
      </trkpt>
      <trkpt lat="37.74976733140647411346435546875" lon="-107.7123087085783481597900390625">
        <ele>3443.60009765625</ele>
        <time>2023-07-29T18:17:33.000Z</time>
        <extensions>
          <ns3:TrackPointExtension>
            <ns3:hr>84</ns3:hr>
            <ns3:cad>0</ns3:cad>
          </ns3:TrackPointExtension>
        </extensions>
      </trkpt>
      <trkpt lat="37.74976045824587345123291015625" lon="-107.71230988204479217529296875">
        <ele>3443.60009765625</ele>
        <time>2023-07-29T18:17:34.000Z</time>
        <extensions>
          <ns3:TrackPointExtension>
            <ns3:hr>82</ns3:hr>
            <ns3:cad>0</ns3:cad>
          </ns3:TrackPointExtension>
        </extensions>
      </trkpt>
      <trkpt lat="37.74975425563752651214599609375" lon="-107.7123087085783481597900390625">
        <ele>3443.60009765625</ele>
        <time>2023-07-29T18:17:35.000Z</time>
        <extensions>
          <ns3:TrackPointExtension>
            <ns3:hr>81</ns3:hr>
            <ns3:cad>0</ns3:cad>
          </ns3:TrackPointExtension>
        </extensions>
      </trkpt>
      <trkpt lat="37.7497447840869426727294921875" lon="-107.7123110555112361907958984375">
        <ele>3443.60009765625</ele>
        <time>2023-07-29T18:17:36.000Z</time>
        <extensions>
          <ns3:TrackPointExtension>
            <ns3:hr>81</ns3:hr>
            <ns3:cad>0</ns3:cad>
          </ns3:TrackPointExtension>
        </extensions>
      </trkpt>
      <trkpt lat="37.74973564781248569488525390625" lon="-107.71231482736766338348388671875">
        <ele>3443.39990234375</ele>
        <time>2023-07-29T18:17:37.000Z</time>
        <extensions>
          <ns3:TrackPointExtension>
            <ns3:hr>81</ns3:hr>
            <ns3:cad>0</ns3:cad>
          </ns3:TrackPointExtension>
        </extensions>
      </trkpt>
      <trkpt lat="37.7497159503400325775146484375" lon="-107.7123224548995494842529296875">
        <ele>3443.39990234375</ele>
        <time>2023-07-29T18:17:38.000Z</time>
        <extensions>
          <ns3:TrackPointExtension>
            <ns3:hr>82</ns3:hr>
            <ns3:cad>0</ns3:cad>
          </ns3:TrackPointExtension>
        </extensions>
      </trkpt>
      <trkpt lat="37.74970564059913158416748046875" lon="-107.7123308368027210235595703125">
        <ele>3443.39990234375</ele>
        <time>2023-07-29T18:17:39.000Z</time>
        <extensions>
          <ns3:TrackPointExtension>
            <ns3:hr>82</ns3:hr>
            <ns3:cad>0</ns3:cad>
          </ns3:TrackPointExtension>
        </extensions>
      </trkpt>
      <trkpt lat="37.749697007238864898681640625" lon="-107.7123422361910343170166015625">
        <ele>3443.199951171875</ele>
        <time>2023-07-29T18:17:40.000Z</time>
        <extensions>
          <ns3:TrackPointExtension>
            <ns3:hr>82</ns3:hr>
            <ns3:cad>0</ns3:cad>
          </ns3:TrackPointExtension>
        </extensions>
      </trkpt>
      <trkpt lat="37.74968795478343963623046875" lon="-107.71235120482742786407470703125">
        <ele>3443.199951171875</ele>
        <time>2023-07-29T18:17:41.000Z</time>
        <extensions>
          <ns3:TrackPointExtension>
            <ns3:hr>82</ns3:hr>
            <ns3:cad>18</ns3:cad>
          </ns3:TrackPointExtension>
        </extensions>
      </trkpt>
      <trkpt lat="37.749676890671253204345703125" lon="-107.7123601734638214111328125">
        <ele>3443.199951171875</ele>
        <time>2023-07-29T18:17:42.000Z</time>
        <extensions>
          <ns3:TrackPointExtension>
            <ns3:hr>82</ns3:hr>
            <ns3:cad>18</ns3:cad>
          </ns3:TrackPointExtension>
        </extensions>
      </trkpt>
      <trkpt lat="37.74967412464320659637451171875" lon="-107.7123697288334369659423828125">
        <ele>3443</ele>
        <time>2023-07-29T18:17:43.000Z</time>
        <extensions>
          <ns3:TrackPointExtension>
            <ns3:hr>82</ns3:hr>
            <ns3:cad>0</ns3:cad>
          </ns3:TrackPointExtension>
        </extensions>
      </trkpt>
      <trkpt lat="37.74967546574771404266357421875" lon="-107.7123747579753398895263671875">
        <ele>3443</ele>
        <time>2023-07-29T18:17:44.000Z</time>
        <extensions>
          <ns3:TrackPointExtension>
            <ns3:hr>82</ns3:hr>
            <ns3:cad>0</ns3:cad>
          </ns3:TrackPointExtension>
        </extensions>
      </trkpt>
      <trkpt lat="37.74966624565422534942626953125" lon="-107.71238607354462146759033203125">
        <ele>3442.800048828125</ele>
        <time>2023-07-29T18:17:45.000Z</time>
        <extensions>
          <ns3:TrackPointExtension>
            <ns3:hr>82</ns3:hr>
            <ns3:cad>0</ns3:cad>
          </ns3:TrackPointExtension>
        </extensions>
      </trkpt>
      <trkpt lat="37.74965618737041950225830078125" lon="-107.71239168941974639892578125">
        <ele>3442.60009765625</ele>
        <time>2023-07-29T18:17:46.000Z</time>
        <extensions>
          <ns3:TrackPointExtension>
            <ns3:hr>82</ns3:hr>
            <ns3:cad>0</ns3:cad>
          </ns3:TrackPointExtension>
        </extensions>
      </trkpt>
      <trkpt lat="37.74965115822851657867431640625" lon="-107.71239730529487133026123046875">
        <ele>3442.60009765625</ele>
        <time>2023-07-29T18:17:47.000Z</time>
        <extensions>
          <ns3:TrackPointExtension>
            <ns3:hr>82</ns3:hr>
            <ns3:cad>0</ns3:cad>
          </ns3:TrackPointExtension>
        </extensions>
      </trkpt>
      <trkpt lat="37.7496448718011379241943359375" lon="-107.7124022506177425384521484375">
        <ele>3442.60009765625</ele>
        <time>2023-07-29T18:17:48.000Z</time>
        <extensions>
          <ns3:TrackPointExtension>
            <ns3:hr>82</ns3:hr>
            <ns3:cad>0</ns3:cad>
          </ns3:TrackPointExtension>
        </extensions>
      </trkpt>
      <trkpt lat="37.74963699281215667724609375" lon="-107.71240174770355224609375">
        <ele>3442.39990234375</ele>
        <time>2023-07-29T18:17:49.000Z</time>
        <extensions>
          <ns3:TrackPointExtension>
            <ns3:hr>81</ns3:hr>
            <ns3:cad>0</ns3:cad>
          </ns3:TrackPointExtension>
        </extensions>
      </trkpt>
      <trkpt lat="37.74962768889963626861572265625" lon="-107.71239571273326873779296875">
        <ele>3442.199951171875</ele>
        <time>2023-07-29T18:17:50.000Z</time>
        <extensions>
          <ns3:TrackPointExtension>
            <ns3:hr>81</ns3:hr>
            <ns3:cad>0</ns3:cad>
          </ns3:TrackPointExtension>
        </extensions>
      </trkpt>
      <trkpt lat="37.749621905386447906494140625" lon="-107.7123925276100635528564453125">
        <ele>3442</ele>
        <time>2023-07-29T18:17:51.000Z</time>
        <extensions>
          <ns3:TrackPointExtension>
            <ns3:hr>81</ns3:hr>
            <ns3:cad>0</ns3:cad>
          </ns3:TrackPointExtension>
        </extensions>
      </trkpt>
      <trkpt lat="37.74961821734905242919921875" lon="-107.7123898454010486602783203125">
        <ele>3441.60009765625</ele>
        <time>2023-07-29T18:17:52.000Z</time>
        <extensions>
          <ns3:TrackPointExtension>
            <ns3:hr>81</ns3:hr>
            <ns3:cad>0</ns3:cad>
          </ns3:TrackPointExtension>
        </extensions>
      </trkpt>
      <trkpt lat="37.749608494341373443603515625" lon="-107.71238205023109912872314453125">
        <ele>3441.39990234375</ele>
        <time>2023-07-29T18:17:53.000Z</time>
        <extensions>
          <ns3:TrackPointExtension>
            <ns3:hr>81</ns3:hr>
            <ns3:cad>0</ns3:cad>
          </ns3:TrackPointExtension>
        </extensions>
      </trkpt>
      <trkpt lat="37.7495942451059818267822265625" lon="-107.71237551234662532806396484375">
        <ele>3441.199951171875</ele>
        <time>2023-07-29T18:17:54.000Z</time>
        <extensions>
          <ns3:TrackPointExtension>
            <ns3:hr>81</ns3:hr>
            <ns3:cad>0</ns3:cad>
          </ns3:TrackPointExtension>
        </extensions>
      </trkpt>
      <trkpt lat="37.7495858632028102874755859375" lon="-107.71237199194729328155517578125">
        <ele>3441.199951171875</ele>
        <time>2023-07-29T18:17:55.000Z</time>
        <extensions>
          <ns3:TrackPointExtension>
            <ns3:hr>81</ns3:hr>
            <ns3:cad>0</ns3:cad>
          </ns3:TrackPointExtension>
        </extensions>
      </trkpt>
      <trkpt lat="37.7495798282325267791748046875" lon="-107.71237132139503955841064453125">
        <ele>3440.800048828125</ele>
        <time>2023-07-29T18:17:56.000Z</time>
        <extensions>
          <ns3:TrackPointExtension>
            <ns3:hr>81</ns3:hr>
            <ns3:cad>0</ns3:cad>
          </ns3:TrackPointExtension>
        </extensions>
      </trkpt>
      <trkpt lat="37.74957555346190929412841796875" lon="-107.7123724110424518585205078125">
        <ele>3440.60009765625</ele>
        <time>2023-07-29T18:17:57.000Z</time>
        <extensions>
          <ns3:TrackPointExtension>
            <ns3:hr>81</ns3:hr>
            <ns3:cad>0</ns3:cad>
          </ns3:TrackPointExtension>
        </extensions>
      </trkpt>
      <trkpt lat="37.74956767447292804718017578125" lon="-107.71237115375697612762451171875">
        <ele>3440.39990234375</ele>
        <time>2023-07-29T18:17:58.000Z</time>
        <extensions>
          <ns3:TrackPointExtension>
            <ns3:hr>82</ns3:hr>
            <ns3:cad>0</ns3:cad>
          </ns3:TrackPointExtension>
        </extensions>
      </trkpt>
      <trkpt lat="37.74956189095973968505859375" lon="-107.7123734168708324432373046875">
        <ele>3440.199951171875</ele>
        <time>2023-07-29T18:17:59.000Z</time>
        <extensions>
          <ns3:TrackPointExtension>
            <ns3:hr>82</ns3:hr>
            <ns3:cad>0</ns3:cad>
          </ns3:TrackPointExtension>
        </extensions>
      </trkpt>
      <trkpt lat="37.7495543472468852996826171875" lon="-107.71237350068986415863037109375">
        <ele>3440</ele>
        <time>2023-07-29T18:18:00.000Z</time>
        <extensions>
          <ns3:TrackPointExtension>
            <ns3:hr>82</ns3:hr>
            <ns3:cad>0</ns3:cad>
          </ns3:TrackPointExtension>
        </extensions>
      </trkpt>
      <trkpt lat="37.7495449595153331756591796875" lon="-107.712369896471500396728515625">
        <ele>3440</ele>
        <time>2023-07-29T18:18:01.000Z</time>
        <extensions>
          <ns3:TrackPointExtension>
            <ns3:hr>82</ns3:hr>
            <ns3:cad>0</ns3:cad>
          </ns3:TrackPointExtension>
        </extensions>
      </trkpt>
      <trkpt lat="37.74953582324087619781494140625" lon="-107.712365202605724334716796875">
        <ele>3439.800048828125</ele>
        <time>2023-07-29T18:18:02.000Z</time>
        <extensions>
          <ns3:TrackPointExtension>
            <ns3:hr>82</ns3:hr>
            <ns3:cad>0</ns3:cad>
          </ns3:TrackPointExtension>
        </extensions>
      </trkpt>
      <trkpt lat="37.749528698623180389404296875" lon="-107.7123628556728363037109375">
        <ele>3439.60009765625</ele>
        <time>2023-07-29T18:18:03.000Z</time>
        <extensions>
          <ns3:TrackPointExtension>
            <ns3:hr>82</ns3:hr>
            <ns3:cad>0</ns3:cad>
          </ns3:TrackPointExtension>
        </extensions>
      </trkpt>
      <trkpt lat="37.74951637722551822662353515625" lon="-107.71236243657767772674560546875">
        <ele>3439.39990234375</ele>
        <time>2023-07-29T18:18:04.000Z</time>
        <extensions>
          <ns3:TrackPointExtension>
            <ns3:hr>82</ns3:hr>
            <ns3:cad>18</ns3:cad>
          </ns3:TrackPointExtension>
        </extensions>
      </trkpt>
      <trkpt lat="37.7495077438652515411376953125" lon="-107.7123633585870265960693359375">
        <ele>3439.39990234375</ele>
        <time>2023-07-29T18:18:05.000Z</time>
        <extensions>
          <ns3:TrackPointExtension>
            <ns3:hr>82</ns3:hr>
            <ns3:cad>19</ns3:cad>
          </ns3:TrackPointExtension>
        </extensions>
      </trkpt>
      <trkpt lat="37.7495074085891246795654296875" lon="-107.71236998029053211212158203125">
        <ele>3439.199951171875</ele>
        <time>2023-07-29T18:18:06.000Z</time>
        <extensions>
          <ns3:TrackPointExtension>
            <ns3:hr>82</ns3:hr>
            <ns3:cad>19</ns3:cad>
          </ns3:TrackPointExtension>
        </extensions>
      </trkpt>
      <trkpt lat="37.74950556457042694091796875" lon="-107.71236897446215152740478515625">
        <ele>3438.800048828125</ele>
        <time>2023-07-29T18:18:07.000Z</time>
        <extensions>
          <ns3:TrackPointExtension>
            <ns3:hr>83</ns3:hr>
            <ns3:cad>19</ns3:cad>
          </ns3:TrackPointExtension>
        </extensions>
      </trkpt>
      <trkpt lat="37.74949944578111171722412109375" lon="-107.71236478351056575775146484375">
        <ele>3438.60009765625</ele>
        <time>2023-07-29T18:18:08.000Z</time>
        <extensions>
          <ns3:TrackPointExtension>
            <ns3:hr>82</ns3:hr>
            <ns3:cad>19</ns3:cad>
          </ns3:TrackPointExtension>
        </extensions>
      </trkpt>
      <trkpt lat="37.74949307553470134735107421875" lon="-107.7123600058257579803466796875">
        <ele>3438.39990234375</ele>
        <time>2023-07-29T18:18:09.000Z</time>
        <extensions>
          <ns3:TrackPointExtension>
            <ns3:hr>82</ns3:hr>
            <ns3:cad>0</ns3:cad>
          </ns3:TrackPointExtension>
        </extensions>
      </trkpt>
      <trkpt lat="37.74949173443019390106201171875" lon="-107.71235606633126735687255859375">
        <ele>3438.199951171875</ele>
        <time>2023-07-29T18:18:10.000Z</time>
        <extensions>
          <ns3:TrackPointExtension>
            <ns3:hr>81</ns3:hr>
            <ns3:cad>0</ns3:cad>
          </ns3:TrackPointExtension>
        </extensions>
      </trkpt>
      <trkpt lat="37.74949123151600360870361328125" lon="-107.712354473769664764404296875">
        <ele>3438.199951171875</ele>
        <time>2023-07-29T18:18:11.000Z</time>
        <extensions>
          <ns3:TrackPointExtension>
            <ns3:hr>81</ns3:hr>
            <ns3:cad>0</ns3:cad>
          </ns3:TrackPointExtension>
        </extensions>
      </trkpt>
      <trkpt lat="37.7494842745363712310791015625" lon="-107.712351121008396148681640625">
        <ele>3438</ele>
        <time>2023-07-29T18:18:12.000Z</time>
        <extensions>
          <ns3:TrackPointExtension>
            <ns3:hr>80</ns3:hr>
            <ns3:cad>0</ns3:cad>
          </ns3:TrackPointExtension>
        </extensions>
      </trkpt>
      <trkpt lat="37.74948016740381717681884765625" lon="-107.71235120482742786407470703125">
        <ele>3437.800048828125</ele>
        <time>2023-07-29T18:18:13.000Z</time>
        <extensions>
          <ns3:TrackPointExtension>
            <ns3:hr>80</ns3:hr>
            <ns3:cad>0</ns3:cad>
          </ns3:TrackPointExtension>
        </extensions>
      </trkpt>
      <trkpt lat="37.7494765631854534149169921875" lon="-107.7123469300568103790283203125">
        <ele>3437.60009765625</ele>
        <time>2023-07-29T18:18:14.000Z</time>
        <extensions>
          <ns3:TrackPointExtension>
            <ns3:hr>80</ns3:hr>
            <ns3:cad>0</ns3:cad>
          </ns3:TrackPointExtension>
        </extensions>
      </trkpt>
      <trkpt lat="37.7494715340435504913330078125" lon="-107.712340056896209716796875">
        <ele>3437.39990234375</ele>
        <time>2023-07-29T18:18:15.000Z</time>
        <extensions>
          <ns3:TrackPointExtension>
            <ns3:hr>80</ns3:hr>
            <ns3:cad>0</ns3:cad>
          </ns3:TrackPointExtension>
        </extensions>
      </trkpt>
      <trkpt lat="37.74946072138845920562744140625" lon="-107.7123311720788478851318359375">
        <ele>3437.39990234375</ele>
        <time>2023-07-29T18:18:16.000Z</time>
        <extensions>
          <ns3:TrackPointExtension>
            <ns3:hr>80</ns3:hr>
            <ns3:cad>0</ns3:cad>
          </ns3:TrackPointExtension>
        </extensions>
      </trkpt>
      <trkpt lat="37.74945351295173168182373046875" lon="-107.712323628365993499755859375">
        <ele>3437.199951171875</ele>
        <time>2023-07-29T18:18:17.000Z</time>
        <extensions>
          <ns3:TrackPointExtension>
            <ns3:hr>80</ns3:hr>
            <ns3:cad>0</ns3:cad>
          </ns3:TrackPointExtension>
        </extensions>
      </trkpt>
      <trkpt lat="37.7494487352669239044189453125" lon="-107.712320275604724884033203125">
        <ele>3437.199951171875</ele>
        <time>2023-07-29T18:18:18.000Z</time>
        <extensions>
          <ns3:TrackPointExtension>
            <ns3:hr>80</ns3:hr>
            <ns3:cad>0</ns3:cad>
          </ns3:TrackPointExtension>
        </extensions>
      </trkpt>
      <trkpt lat="37.74944395758211612701416015625" lon="-107.7123170904815196990966796875">
        <ele>3437</ele>
        <time>2023-07-29T18:18:19.000Z</time>
        <extensions>
          <ns3:TrackPointExtension>
            <ns3:hr>80</ns3:hr>
            <ns3:cad>0</ns3:cad>
          </ns3:TrackPointExtension>
        </extensions>
      </trkpt>
      <trkpt lat="37.74943741969764232635498046875" lon="-107.71231080405414104461669921875">
        <ele>3437</ele>
        <time>2023-07-29T18:18:20.000Z</time>
        <extensions>
          <ns3:TrackPointExtension>
            <ns3:hr>80</ns3:hr>
            <ns3:cad>0</ns3:cad>
          </ns3:TrackPointExtension>
        </extensions>
      </trkpt>
      <trkpt lat="37.749430127441883087158203125" lon="-107.71230510435998439788818359375">
        <ele>3436.800048828125</ele>
        <time>2023-07-29T18:18:21.000Z</time>
        <extensions>
          <ns3:TrackPointExtension>
            <ns3:hr>80</ns3:hr>
            <ns3:cad>0</ns3:cad>
          </ns3:TrackPointExtension>
        </extensions>
      </trkpt>
      <trkpt lat="37.74941914714872837066650390625" lon="-107.71229873411357402801513671875">
        <ele>3436.800048828125</ele>
        <time>2023-07-29T18:18:22.000Z</time>
        <extensions>
          <ns3:TrackPointExtension>
            <ns3:hr>80</ns3:hr>
            <ns3:cad>0</ns3:cad>
          </ns3:TrackPointExtension>
        </extensions>
      </trkpt>
      <trkpt lat="37.7494095079600811004638671875" lon="-107.7122959680855274200439453125">
        <ele>3436.60009765625</ele>
        <time>2023-07-29T18:18:23.000Z</time>
        <extensions>
          <ns3:TrackPointExtension>
            <ns3:hr>80</ns3:hr>
            <ns3:cad>0</ns3:cad>
          </ns3:TrackPointExtension>
        </extensions>
      </trkpt>
      <trkpt lat="37.749401964247226715087890625" lon="-107.71229588426649570465087890625">
        <ele>3436.39990234375</ele>
        <time>2023-07-29T18:18:24.000Z</time>
        <extensions>
          <ns3:TrackPointExtension>
            <ns3:hr>80</ns3:hr>
            <ns3:cad>0</ns3:cad>
          </ns3:TrackPointExtension>
        </extensions>
      </trkpt>
      <trkpt lat="37.74938729591667652130126953125" lon="-107.712291777133941650390625">
        <ele>3436</ele>
        <time>2023-07-29T18:18:25.000Z</time>
        <extensions>
          <ns3:TrackPointExtension>
            <ns3:hr>80</ns3:hr>
            <ns3:cad>0</ns3:cad>
          </ns3:TrackPointExtension>
        </extensions>
      </trkpt>
      <trkpt lat="37.74937455542385578155517578125" lon="-107.71229110658168792724609375">
        <ele>3435.800048828125</ele>
        <time>2023-07-29T18:18:26.000Z</time>
        <extensions>
          <ns3:TrackPointExtension>
            <ns3:hr>80</ns3:hr>
            <ns3:cad>0</ns3:cad>
          </ns3:TrackPointExtension>
        </extensions>
      </trkpt>
      <trkpt lat="37.7493655867874622344970703125" lon="-107.7122919447720050811767578125">
        <ele>3435.60009765625</ele>
        <time>2023-07-29T18:18:27.000Z</time>
        <extensions>
          <ns3:TrackPointExtension>
            <ns3:hr>80</ns3:hr>
            <ns3:cad>0</ns3:cad>
          </ns3:TrackPointExtension>
        </extensions>
      </trkpt>
      <trkpt lat="37.7493466436862945556640625" lon="-107.71228917874395847320556640625">
        <ele>3435.39990234375</ele>
        <time>2023-07-29T18:18:28.000Z</time>
        <extensions>
          <ns3:TrackPointExtension>
            <ns3:hr>80</ns3:hr>
            <ns3:cad>0</ns3:cad>
          </ns3:TrackPointExtension>
        </extensions>
      </trkpt>
      <trkpt lat="37.74933147244155406951904296875" lon="-107.712286747992038726806640625">
        <ele>3435.39990234375</ele>
        <time>2023-07-29T18:18:29.000Z</time>
        <extensions>
          <ns3:TrackPointExtension>
            <ns3:hr>80</ns3:hr>
            <ns3:cad>58</ns3:cad>
          </ns3:TrackPointExtension>
        </extensions>
      </trkpt>
      <trkpt lat="37.749318145215511322021484375" lon="-107.71228247322142124176025390625">
        <ele>3435.39990234375</ele>
        <time>2023-07-29T18:18:30.000Z</time>
        <extensions>
          <ns3:TrackPointExtension>
            <ns3:hr>80</ns3:hr>
            <ns3:cad>58</ns3:cad>
          </ns3:TrackPointExtension>
        </extensions>
      </trkpt>
      <trkpt lat="37.74930582381784915924072265625" lon="-107.71228046156466007232666015625">
        <ele>3435.39990234375</ele>
        <time>2023-07-29T18:18:31.000Z</time>
        <extensions>
          <ns3:TrackPointExtension>
            <ns3:hr>80</ns3:hr>
            <ns3:cad>58</ns3:cad>
          </ns3:TrackPointExtension>
        </extensions>
      </trkpt>
      <trkpt lat="37.74928771890699863433837890625" lon="-107.71227358840405941009521484375">
        <ele>3435.199951171875</ele>
        <time>2023-07-29T18:18:32.000Z</time>
        <extensions>
          <ns3:TrackPointExtension>
            <ns3:hr>80</ns3:hr>
            <ns3:cad>0</ns3:cad>
          </ns3:TrackPointExtension>
        </extensions>
      </trkpt>
      <trkpt lat="37.7492822706699371337890625" lon="-107.71226922981441020965576171875">
        <ele>3435</ele>
        <time>2023-07-29T18:18:33.000Z</time>
        <extensions>
          <ns3:TrackPointExtension>
            <ns3:hr>80</ns3:hr>
            <ns3:cad>0</ns3:cad>
          </ns3:TrackPointExtension>
        </extensions>
      </trkpt>
      <trkpt lat="37.74927430786192417144775390625" lon="-107.712265290319919586181640625">
        <ele>3434.800048828125</ele>
        <time>2023-07-29T18:18:34.000Z</time>
        <extensions>
          <ns3:TrackPointExtension>
            <ns3:hr>79</ns3:hr>
            <ns3:cad>0</ns3:cad>
          </ns3:TrackPointExtension>
        </extensions>
      </trkpt>
      <trkpt lat="37.74926542304456233978271484375" lon="-107.712261267006397247314453125">
        <ele>3434.800048828125</ele>
        <time>2023-07-29T18:18:35.000Z</time>
        <extensions>
          <ns3:TrackPointExtension>
            <ns3:hr>79</ns3:hr>
            <ns3:cad>0</ns3:cad>
          </ns3:TrackPointExtension>
        </extensions>
      </trkpt>
      <trkpt lat="37.7492549456655979156494140625" lon="-107.71226051263511180877685546875">
        <ele>3434.60009765625</ele>
        <time>2023-07-29T18:18:36.000Z</time>
        <extensions>
          <ns3:TrackPointExtension>
            <ns3:hr>79</ns3:hr>
            <ns3:cad>0</ns3:cad>
          </ns3:TrackPointExtension>
        </extensions>
      </trkpt>
      <trkpt lat="37.74924027733504772186279296875" lon="-107.7122604288160800933837890625">
        <ele>3434.39990234375</ele>
        <time>2023-07-29T18:18:37.000Z</time>
        <extensions>
          <ns3:TrackPointExtension>
            <ns3:hr>79</ns3:hr>
            <ns3:cad>0</ns3:cad>
          </ns3:TrackPointExtension>
        </extensions>
      </trkpt>
      <trkpt lat="37.74922837503254413604736328125" lon="-107.7122614346444606781005859375">
        <ele>3434.39990234375</ele>
        <time>2023-07-29T18:18:38.000Z</time>
        <extensions>
          <ns3:TrackPointExtension>
            <ns3:hr>79</ns3:hr>
            <ns3:cad>0</ns3:cad>
          </ns3:TrackPointExtension>
        </extensions>
      </trkpt>
      <trkpt lat="37.7492184005677700042724609375" lon="-107.712264619767665863037109375">
        <ele>3434.199951171875</ele>
        <time>2023-07-29T18:18:39.000Z</time>
        <extensions>
          <ns3:TrackPointExtension>
            <ns3:hr>79</ns3:hr>
            <ns3:cad>0</ns3:cad>
          </ns3:TrackPointExtension>
        </extensions>
      </trkpt>
      <trkpt lat="37.74920473806560039520263671875" lon="-107.712263949215412139892578125">
        <ele>3433.800048828125</ele>
        <time>2023-07-29T18:18:40.000Z</time>
        <extensions>
          <ns3:TrackPointExtension>
            <ns3:hr>79</ns3:hr>
            <ns3:cad>0</ns3:cad>
          </ns3:TrackPointExtension>
        </extensions>
      </trkpt>
      <trkpt lat="37.749198786914348602294921875" lon="-107.71226302720606327056884765625">
        <ele>3433.39990234375</ele>
        <time>2023-07-29T18:18:41.000Z</time>
        <extensions>
          <ns3:TrackPointExtension>
            <ns3:hr>79</ns3:hr>
            <ns3:cad>0</ns3:cad>
          </ns3:TrackPointExtension>
        </extensions>
      </trkpt>
      <trkpt lat="37.74919182993471622467041015625" lon="-107.71226034499704837799072265625">
        <ele>3433</ele>
        <time>2023-07-29T18:18:42.000Z</time>
        <extensions>
          <ns3:TrackPointExtension>
            <ns3:hr>79</ns3:hr>
            <ns3:cad>0</ns3:cad>
          </ns3:TrackPointExtension>
        </extensions>
      </trkpt>
      <trkpt lat="37.7491825260221958160400390625" lon="-107.71225866861641407012939453125">
        <ele>3432.39990234375</ele>
        <time>2023-07-29T18:18:43.000Z</time>
        <extensions>
          <ns3:TrackPointExtension>
            <ns3:hr>78</ns3:hr>
            <ns3:cad>0</ns3:cad>
          </ns3:TrackPointExtension>
        </extensions>
      </trkpt>
      <trkpt lat="37.7491751499474048614501953125" lon="-107.71225615404546260833740234375">
        <ele>3432.199951171875</ele>
        <time>2023-07-29T18:18:44.000Z</time>
        <extensions>
          <ns3:TrackPointExtension>
            <ns3:hr>78</ns3:hr>
            <ns3:cad>40</ns3:cad>
          </ns3:TrackPointExtension>
        </extensions>
      </trkpt>
      <trkpt lat="37.7491660974919795989990234375" lon="-107.71225229837000370025634765625">
        <ele>3431.800048828125</ele>
        <time>2023-07-29T18:18:45.000Z</time>
        <extensions>
          <ns3:TrackPointExtension>
            <ns3:hr>78</ns3:hr>
            <ns3:cad>40</ns3:cad>
          </ns3:TrackPointExtension>
        </extensions>
      </trkpt>
      <trkpt lat="37.7491597272455692291259765625" lon="-107.71224894560873508453369140625">
        <ele>3431.60009765625</ele>
        <time>2023-07-29T18:18:46.000Z</time>
        <extensions>
          <ns3:TrackPointExtension>
            <ns3:hr>77</ns3:hr>
            <ns3:cad>40</ns3:cad>
          </ns3:TrackPointExtension>
        </extensions>
      </trkpt>
      <trkpt lat="37.74914539419114589691162109375" lon="-107.712248526513576507568359375">
        <ele>3431.199951171875</ele>
        <time>2023-07-29T18:18:47.000Z</time>
        <extensions>
          <ns3:TrackPointExtension>
            <ns3:hr>77</ns3:hr>
            <ns3:cad>40</ns3:cad>
          </ns3:TrackPointExtension>
        </extensions>
      </trkpt>
      <trkpt lat="37.74912829510867595672607421875" lon="-107.71224685013294219970703125">
        <ele>3430.800048828125</ele>
        <time>2023-07-29T18:18:48.000Z</time>
        <extensions>
          <ns3:TrackPointExtension>
            <ns3:hr>77</ns3:hr>
            <ns3:cad>40</ns3:cad>
          </ns3:TrackPointExtension>
        </extensions>
      </trkpt>
      <trkpt lat="37.74911454878747463226318359375" lon="-107.712249197065830230712890625">
        <ele>3430.60009765625</ele>
        <time>2023-07-29T18:18:49.000Z</time>
        <extensions>
          <ns3:TrackPointExtension>
            <ns3:hr>77</ns3:hr>
            <ns3:cad>40</ns3:cad>
          </ns3:TrackPointExtension>
        </extensions>
      </trkpt>
      <trkpt lat="37.74910465814173221588134765625" lon="-107.7122520469129085540771484375">
        <ele>3430.199951171875</ele>
        <time>2023-07-29T18:18:50.000Z</time>
        <extensions>
          <ns3:TrackPointExtension>
            <ns3:hr>77</ns3:hr>
            <ns3:cad>40</ns3:cad>
          </ns3:TrackPointExtension>
        </extensions>
      </trkpt>
      <trkpt lat="37.7490916661918163299560546875" lon="-107.71225464530289173126220703125">
        <ele>3430.199951171875</ele>
        <time>2023-07-29T18:18:51.000Z</time>
        <extensions>
          <ns3:TrackPointExtension>
            <ns3:hr>77</ns3:hr>
            <ns3:cad>40</ns3:cad>
          </ns3:TrackPointExtension>
        </extensions>
      </trkpt>
      <trkpt lat="37.7490811049938201904296875" lon="-107.7122547291219234466552734375">
        <ele>3429.800048828125</ele>
        <time>2023-07-29T18:18:52.000Z</time>
        <extensions>
          <ns3:TrackPointExtension>
            <ns3:hr>77</ns3:hr>
            <ns3:cad>40</ns3:cad>
          </ns3:TrackPointExtension>
        </extensions>
      </trkpt>
      <trkpt lat="37.74906828068196773529052734375" lon="-107.71225380711257457733154296875">
        <ele>3429.60009765625</ele>
        <time>2023-07-29T18:18:53.000Z</time>
        <extensions>
          <ns3:TrackPointExtension>
            <ns3:hr>77</ns3:hr>
            <ns3:cad>40</ns3:cad>
          </ns3:TrackPointExtension>
        </extensions>
      </trkpt>
      <trkpt lat="37.74906098842620849609375" lon="-107.712253220379352569580078125">
        <ele>3429.39990234375</ele>
        <time>2023-07-29T18:18:54.000Z</time>
        <extensions>
          <ns3:TrackPointExtension>
            <ns3:hr>77</ns3:hr>
            <ns3:cad>40</ns3:cad>
          </ns3:TrackPointExtension>
        </extensions>
      </trkpt>
      <trkpt lat="37.7490507625043392181396484375" lon="-107.712253890931606292724609375">
        <ele>3429.199951171875</ele>
        <time>2023-07-29T18:18:55.000Z</time>
        <extensions>
          <ns3:TrackPointExtension>
            <ns3:hr>78</ns3:hr>
            <ns3:cad>40</ns3:cad>
          </ns3:TrackPointExtension>
        </extensions>
      </trkpt>
      <trkpt lat="37.7490393631160259246826171875" lon="-107.71225715987384319305419921875">
        <ele>3428.800048828125</ele>
        <time>2023-07-29T18:18:56.000Z</time>
        <extensions>
          <ns3:TrackPointExtension>
            <ns3:hr>78</ns3:hr>
            <ns3:cad>40</ns3:cad>
          </ns3:TrackPointExtension>
        </extensions>
      </trkpt>
      <trkpt lat="37.749026119709014892578125" lon="-107.7122604288160800933837890625">
        <ele>3428.60009765625</ele>
        <time>2023-07-29T18:18:57.000Z</time>
        <extensions>
          <ns3:TrackPointExtension>
            <ns3:hr>78</ns3:hr>
            <ns3:cad>40</ns3:cad>
          </ns3:TrackPointExtension>
        </extensions>
      </trkpt>
      <trkpt lat="37.749015390872955322265625" lon="-107.71226168610155582427978515625">
        <ele>3428.39990234375</ele>
        <time>2023-07-29T18:18:58.000Z</time>
        <extensions>
          <ns3:TrackPointExtension>
            <ns3:hr>78</ns3:hr>
            <ns3:cad>40</ns3:cad>
          </ns3:TrackPointExtension>
        </extensions>
      </trkpt>
      <trkpt lat="37.74900508113205432891845703125" lon="-107.7122636139392852783203125">
        <ele>3428.199951171875</ele>
        <time>2023-07-29T18:18:59.000Z</time>
        <extensions>
          <ns3:TrackPointExtension>
            <ns3:hr>78</ns3:hr>
            <ns3:cad>40</ns3:cad>
          </ns3:TrackPointExtension>
        </extensions>
      </trkpt>
      <trkpt lat="37.74899728596210479736328125" lon="-107.71226453594863414764404296875">
        <ele>3427.800048828125</ele>
        <time>2023-07-29T18:19:00.000Z</time>
        <extensions>
          <ns3:TrackPointExtension>
            <ns3:hr>78</ns3:hr>
            <ns3:cad>40</ns3:cad>
          </ns3:TrackPointExtension>
        </extensions>
      </trkpt>
      <trkpt lat="37.74898655712604522705078125" lon="-107.71226302720606327056884765625">
        <ele>3427.60009765625</ele>
        <time>2023-07-29T18:19:01.000Z</time>
        <extensions>
          <ns3:TrackPointExtension>
            <ns3:hr>78</ns3:hr>
            <ns3:cad>40</ns3:cad>
          </ns3:TrackPointExtension>
        </extensions>
      </trkpt>
      <trkpt lat="37.748980186879634857177734375" lon="-107.7122644521296024322509765625">
        <ele>3427.60009765625</ele>
        <time>2023-07-29T18:19:02.000Z</time>
        <extensions>
          <ns3:TrackPointExtension>
            <ns3:hr>79</ns3:hr>
            <ns3:cad>40</ns3:cad>
          </ns3:TrackPointExtension>
        </extensions>
      </trkpt>
      <trkpt lat="37.7489719726145267486572265625" lon="-107.7122637815773487091064453125">
        <ele>3427.199951171875</ele>
        <time>2023-07-29T18:19:03.000Z</time>
        <extensions>
          <ns3:TrackPointExtension>
            <ns3:hr>79</ns3:hr>
            <ns3:cad>40</ns3:cad>
          </ns3:TrackPointExtension>
        </extensions>
      </trkpt>
      <trkpt lat="37.74896115995943546295166015625" lon="-107.71226369775831699371337890625">
        <ele>3426.800048828125</ele>
        <time>2023-07-29T18:19:04.000Z</time>
        <extensions>
          <ns3:TrackPointExtension>
            <ns3:hr>79</ns3:hr>
            <ns3:cad>0</ns3:cad>
          </ns3:TrackPointExtension>
        </extensions>
      </trkpt>
      <trkpt lat="37.74895370006561279296875" lon="-107.7122631110250949859619140625">
        <ele>3426.60009765625</ele>
        <time>2023-07-29T18:19:05.000Z</time>
        <extensions>
          <ns3:TrackPointExtension>
            <ns3:hr>79</ns3:hr>
            <ns3:cad>0</ns3:cad>
          </ns3:TrackPointExtension>
        </extensions>
      </trkpt>
      <trkpt lat="37.7489416301250457763671875" lon="-107.71226319484412670135498046875">
        <ele>3426.60009765625</ele>
        <time>2023-07-29T18:19:06.000Z</time>
        <extensions>
          <ns3:TrackPointExtension>
            <ns3:hr>79</ns3:hr>
            <ns3:cad>0</ns3:cad>
          </ns3:TrackPointExtension>
        </extensions>
      </trkpt>
      <trkpt lat="37.74892947636544704437255859375" lon="-107.7122614346444606781005859375">
        <ele>3426.39990234375</ele>
        <time>2023-07-29T18:19:07.000Z</time>
        <extensions>
          <ns3:TrackPointExtension>
            <ns3:hr>79</ns3:hr>
            <ns3:cad>0</ns3:cad>
          </ns3:TrackPointExtension>
        </extensions>
      </trkpt>
      <trkpt lat="37.748912461102008819580078125" lon="-107.7122594229876995086669921875">
        <ele>3426.199951171875</ele>
        <time>2023-07-29T18:19:08.000Z</time>
        <extensions>
          <ns3:TrackPointExtension>
            <ns3:hr>80</ns3:hr>
            <ns3:cad>0</ns3:cad>
          </ns3:TrackPointExtension>
        </extensions>
      </trkpt>
      <trkpt lat="37.74889678694307804107666015625" lon="-107.7122577466070652008056640625">
        <ele>3425.800048828125</ele>
        <time>2023-07-29T18:19:09.000Z</time>
        <extensions>
          <ns3:TrackPointExtension>
            <ns3:hr>80</ns3:hr>
            <ns3:cad>0</ns3:cad>
          </ns3:TrackPointExtension>
        </extensions>
      </trkpt>
      <trkpt lat="37.74888454936444759368896484375" lon="-107.71225514821708202362060546875">
        <ele>3425.800048828125</ele>
        <time>2023-07-29T18:19:10.000Z</time>
        <extensions>
          <ns3:TrackPointExtension>
            <ns3:hr>80</ns3:hr>
            <ns3:cad>0</ns3:cad>
          </ns3:TrackPointExtension>
        </extensions>
      </trkpt>
      <trkpt lat="37.74887658655643463134765625" lon="-107.7122543938457965850830078125">
        <ele>3425.60009765625</ele>
        <time>2023-07-29T18:19:11.000Z</time>
        <extensions>
          <ns3:TrackPointExtension>
            <ns3:hr>80</ns3:hr>
            <ns3:cad>0</ns3:cad>
          </ns3:TrackPointExtension>
        </extensions>
      </trkpt>
      <trkpt lat="37.748870216310024261474609375" lon="-107.7122520469129085540771484375">
        <ele>3425.39990234375</ele>
        <time>2023-07-29T18:19:12.000Z</time>
        <extensions>
          <ns3:TrackPointExtension>
            <ns3:hr>80</ns3:hr>
            <ns3:cad>0</ns3:cad>
          </ns3:TrackPointExtension>
        </extensions>
      </trkpt>
      <trkpt lat="37.748864181339740753173828125" lon="-107.71225028671324253082275390625">
        <ele>3425.199951171875</ele>
        <time>2023-07-29T18:19:13.000Z</time>
        <extensions>
          <ns3:TrackPointExtension>
            <ns3:hr>81</ns3:hr>
            <ns3:cad>0</ns3:cad>
          </ns3:TrackPointExtension>
        </extensions>
      </trkpt>
      <trkpt lat="37.74885202758014202117919921875" lon="-107.71224861033260822296142578125">
        <ele>3425.199951171875</ele>
        <time>2023-07-29T18:19:14.000Z</time>
        <extensions>
          <ns3:TrackPointExtension>
            <ns3:hr>80</ns3:hr>
            <ns3:cad>0</ns3:cad>
          </ns3:TrackPointExtension>
        </extensions>
      </trkpt>
      <trkpt lat="37.74883098900318145751953125" lon="-107.7122470177710056304931640625">
        <ele>3425</ele>
        <time>2023-07-29T18:19:15.000Z</time>
        <extensions>
          <ns3:TrackPointExtension>
            <ns3:hr>80</ns3:hr>
            <ns3:cad>0</ns3:cad>
          </ns3:TrackPointExtension>
        </extensions>
      </trkpt>
      <trkpt lat="37.74881497956812381744384765625" lon="-107.71224676631391048431396484375">
        <ele>3425</ele>
        <time>2023-07-29T18:19:16.000Z</time>
        <extensions>
          <ns3:TrackPointExtension>
            <ns3:hr>80</ns3:hr>
            <ns3:cad>0</ns3:cad>
          </ns3:TrackPointExtension>
        </extensions>
      </trkpt>
      <trkpt lat="37.74879503063857555389404296875" lon="-107.71224928088486194610595703125">
        <ele>3424.800048828125</ele>
        <time>2023-07-29T18:19:17.000Z</time>
        <extensions>
          <ns3:TrackPointExtension>
            <ns3:hr>80</ns3:hr>
            <ns3:cad>0</ns3:cad>
          </ns3:TrackPointExtension>
        </extensions>
      </trkpt>
      <trkpt lat="37.7487848885357379913330078125" lon="-107.71225397475063800811767578125">
        <ele>3424.60009765625</ele>
        <time>2023-07-29T18:19:18.000Z</time>
        <extensions>
          <ns3:TrackPointExtension>
            <ns3:hr>80</ns3:hr>
            <ns3:cad>0</ns3:cad>
          </ns3:TrackPointExtension>
        </extensions>
      </trkpt>
      <trkpt lat="37.74877332150936126708984375" lon="-107.71226118318736553192138671875">
        <ele>3424.60009765625</ele>
        <time>2023-07-29T18:19:19.000Z</time>
        <extensions>
          <ns3:TrackPointExtension>
            <ns3:hr>80</ns3:hr>
            <ns3:cad>0</ns3:cad>
          </ns3:TrackPointExtension>
        </extensions>
      </trkpt>
      <trkpt lat="37.74876837618649005889892578125" lon="-107.71226889453828334808349609375">
        <ele>3424.39990234375</ele>
        <time>2023-07-29T18:19:20.000Z</time>
        <extensions>
          <ns3:TrackPointExtension>
            <ns3:hr>79</ns3:hr>
            <ns3:cad>0</ns3:cad>
          </ns3:TrackPointExtension>
        </extensions>
      </trkpt>
      <trkpt lat="37.74876401759684085845947265625" lon="-107.7122768573462963104248046875">
        <ele>3424.199951171875</ele>
        <time>2023-07-29T18:19:21.000Z</time>
        <extensions>
          <ns3:TrackPointExtension>
            <ns3:hr>78</ns3:hr>
            <ns3:cad>0</ns3:cad>
          </ns3:TrackPointExtension>
        </extensions>
      </trkpt>
      <trkpt lat="37.74876351468265056610107421875" lon="-107.712281048297882080078125">
        <ele>3424.199951171875</ele>
        <time>2023-07-29T18:19:22.000Z</time>
        <extensions>
          <ns3:TrackPointExtension>
            <ns3:hr>77</ns3:hr>
            <ns3:cad>0</ns3:cad>
          </ns3:TrackPointExtension>
        </extensions>
      </trkpt>
      <trkpt lat="37.748757898807525634765625" lon="-107.7122892625629901885986328125">
        <ele>3424</ele>
        <time>2023-07-29T18:19:23.000Z</time>
        <extensions>
          <ns3:TrackPointExtension>
            <ns3:hr>77</ns3:hr>
            <ns3:cad>0</ns3:cad>
          </ns3:TrackPointExtension>
        </extensions>
      </trkpt>
      <trkpt lat="37.7487490139901638031005859375" lon="-107.712293453514575958251953125">
        <ele>3423.800048828125</ele>
        <time>2023-07-29T18:19:24.000Z</time>
        <extensions>
          <ns3:TrackPointExtension>
            <ns3:hr>77</ns3:hr>
            <ns3:cad>0</ns3:cad>
          </ns3:TrackPointExtension>
        </extensions>
      </trkpt>
      <trkpt lat="37.74874105118215084075927734375" lon="-107.7122986502945423126220703125">
        <ele>3423.60009765625</ele>
        <time>2023-07-29T18:19:25.000Z</time>
        <extensions>
          <ns3:TrackPointExtension>
            <ns3:hr>76</ns3:hr>
            <ns3:cad>0</ns3:cad>
          </ns3:TrackPointExtension>
        </extensions>
      </trkpt>
      <trkpt lat="37.7487362734973430633544921875" lon="-107.71230342797935009002685546875">
        <ele>3423.39990234375</ele>
        <time>2023-07-29T18:19:26.000Z</time>
        <extensions>
          <ns3:TrackPointExtension>
            <ns3:hr>76</ns3:hr>
            <ns3:cad>0</ns3:cad>
          </ns3:TrackPointExtension>
        </extensions>
      </trkpt>
      <trkpt lat="37.748731411993503570556640625" lon="-107.71230644546449184417724609375">
        <ele>3423.199951171875</ele>
        <time>2023-07-29T18:19:27.000Z</time>
        <extensions>
          <ns3:TrackPointExtension>
            <ns3:hr>76</ns3:hr>
            <ns3:cad>0</ns3:cad>
          </ns3:TrackPointExtension>
        </extensions>
      </trkpt>
      <trkpt lat="37.74873149581253528594970703125" lon="-107.7123090438544750213623046875">
        <ele>3423</ele>
        <time>2023-07-29T18:19:28.000Z</time>
        <extensions>
          <ns3:TrackPointExtension>
            <ns3:hr>76</ns3:hr>
            <ns3:cad>0</ns3:cad>
          </ns3:TrackPointExtension>
        </extensions>
      </trkpt>
      <trkpt lat="37.748728729784488677978515625" lon="-107.712312899529933929443359375">
        <ele>3422.800048828125</ele>
        <time>2023-07-29T18:19:29.000Z</time>
        <extensions>
          <ns3:TrackPointExtension>
            <ns3:hr>76</ns3:hr>
            <ns3:cad>0</ns3:cad>
          </ns3:TrackPointExtension>
        </extensions>
      </trkpt>
      <trkpt lat="37.74871892295777797698974609375" lon="-107.7123253047466278076171875">
        <ele>3422.60009765625</ele>
        <time>2023-07-29T18:19:30.000Z</time>
        <extensions>
          <ns3:TrackPointExtension>
            <ns3:hr>76</ns3:hr>
            <ns3:cad>0</ns3:cad>
          </ns3:TrackPointExtension>
        </extensions>
      </trkpt>
      <trkpt lat="37.748710624873638153076171875" lon="-107.71233729086816310882568359375">
        <ele>3422.199951171875</ele>
        <time>2023-07-29T18:19:31.000Z</time>
        <extensions>
          <ns3:TrackPointExtension>
            <ns3:hr>76</ns3:hr>
            <ns3:cad>0</ns3:cad>
          </ns3:TrackPointExtension>
        </extensions>
      </trkpt>
      <trkpt lat="37.74869863875210285186767578125" lon="-107.71236008964478969573974609375">
        <ele>3422</ele>
        <time>2023-07-29T18:19:32.000Z</time>
        <extensions>
          <ns3:TrackPointExtension>
            <ns3:hr>76</ns3:hr>
            <ns3:cad>0</ns3:cad>
          </ns3:TrackPointExtension>
        </extensions>
      </trkpt>
      <trkpt lat="37.7486896701157093048095703125" lon="-107.71237148903310298919677734375">
        <ele>3421.800048828125</ele>
        <time>2023-07-29T18:19:33.000Z</time>
        <extensions>
          <ns3:TrackPointExtension>
            <ns3:hr>76</ns3:hr>
            <ns3:cad>0</ns3:cad>
          </ns3:TrackPointExtension>
        </extensions>
      </trkpt>
      <trkpt lat="37.74868790991604328155517578125" lon="-107.7123794518411159515380859375">
        <ele>3421.800048828125</ele>
        <time>2023-07-29T18:19:34.000Z</time>
        <extensions>
          <ns3:TrackPointExtension>
            <ns3:hr>76</ns3:hr>
            <ns3:cad>0</ns3:cad>
          </ns3:TrackPointExtension>
        </extensions>
      </trkpt>
      <trkpt lat="37.7486841380596160888671875" lon="-107.71238607354462146759033203125">
        <ele>3421.60009765625</ele>
        <time>2023-07-29T18:19:35.000Z</time>
        <extensions>
          <ns3:TrackPointExtension>
            <ns3:hr>75</ns3:hr>
            <ns3:cad>0</ns3:cad>
          </ns3:TrackPointExtension>
        </extensions>
      </trkpt>
      <trkpt lat="37.74867986328899860382080078125" lon="-107.71238959394395351409912109375">
        <ele>3421.39990234375</ele>
        <time>2023-07-29T18:19:36.000Z</time>
        <extensions>
          <ns3:TrackPointExtension>
            <ns3:hr>75</ns3:hr>
            <ns3:cad>0</ns3:cad>
          </ns3:TrackPointExtension>
        </extensions>
      </trkpt>
      <trkpt lat="37.74867667816579341888427734375" lon="-107.7123874984681606292724609375">
        <ele>3421.199951171875</ele>
        <time>2023-07-29T18:19:37.000Z</time>
        <extensions>
          <ns3:TrackPointExtension>
            <ns3:hr>75</ns3:hr>
            <ns3:cad>0</ns3:cad>
          </ns3:TrackPointExtension>
        </extensions>
      </trkpt>
      <trkpt lat="37.74867014028131961822509765625" lon="-107.712383978068828582763671875">
        <ele>3421.199951171875</ele>
        <time>2023-07-29T18:19:38.000Z</time>
        <extensions>
          <ns3:TrackPointExtension>
            <ns3:hr>75</ns3:hr>
            <ns3:cad>0</ns3:cad>
          </ns3:TrackPointExtension>
        </extensions>
      </trkpt>
      <trkpt lat="37.7486611716449260711669921875" lon="-107.71238121204078197479248046875">
        <ele>3421</ele>
        <time>2023-07-29T18:19:39.000Z</time>
        <extensions>
          <ns3:TrackPointExtension>
            <ns3:hr>76</ns3:hr>
            <ns3:cad>0</ns3:cad>
          </ns3:TrackPointExtension>
        </extensions>
      </trkpt>
      <trkpt lat="37.7486504428088665008544921875" lon="-107.7123764343559741973876953125">
        <ele>3420.60009765625</ele>
        <time>2023-07-29T18:19:40.000Z</time>
        <extensions>
          <ns3:TrackPointExtension>
            <ns3:hr>76</ns3:hr>
            <ns3:cad>0</ns3:cad>
          </ns3:TrackPointExtension>
        </extensions>
      </trkpt>
      <trkpt lat="37.74864323437213897705078125" lon="-107.7123646996915340423583984375">
        <ele>3420.39990234375</ele>
        <time>2023-07-29T18:19:41.000Z</time>
        <extensions>
          <ns3:TrackPointExtension>
            <ns3:hr>77</ns3:hr>
            <ns3:cad>0</ns3:cad>
          </ns3:TrackPointExtension>
        </extensions>
      </trkpt>
      <trkpt lat="37.748639546334743499755859375" lon="-107.71235438995063304901123046875">
        <ele>3420</ele>
        <time>2023-07-29T18:19:42.000Z</time>
        <extensions>
          <ns3:TrackPointExtension>
            <ns3:hr>78</ns3:hr>
            <ns3:cad>0</ns3:cad>
          </ns3:TrackPointExtension>
        </extensions>
      </trkpt>
      <trkpt lat="37.74863376282155513763427734375" lon="-107.71234206855297088623046875">
        <ele>3419.60009765625</ele>
        <time>2023-07-29T18:19:43.000Z</time>
        <extensions>
          <ns3:TrackPointExtension>
            <ns3:hr>78</ns3:hr>
            <ns3:cad>0</ns3:cad>
          </ns3:TrackPointExtension>
        </extensions>
      </trkpt>
      <trkpt lat="37.74862320162355899810791015625" lon="-107.71232672967016696929931640625">
        <ele>3419.39990234375</ele>
        <time>2023-07-29T18:19:44.000Z</time>
        <extensions>
          <ns3:TrackPointExtension>
            <ns3:hr>78</ns3:hr>
            <ns3:cad>0</ns3:cad>
          </ns3:TrackPointExtension>
        </extensions>
      </trkpt>
      <trkpt lat="37.74861314333975315093994140625" lon="-107.712307870388031005859375">
        <ele>3419.199951171875</ele>
        <time>2023-07-29T18:19:45.000Z</time>
        <extensions>
          <ns3:TrackPointExtension>
            <ns3:hr>78</ns3:hr>
            <ns3:cad>0</ns3:cad>
          </ns3:TrackPointExtension>
        </extensions>
      </trkpt>
      <trkpt lat="37.74860191158950328826904296875" lon="-107.7122919447720050811767578125">
        <ele>3419</ele>
        <time>2023-07-29T18:19:46.000Z</time>
        <extensions>
          <ns3:TrackPointExtension>
            <ns3:hr>78</ns3:hr>
            <ns3:cad>0</ns3:cad>
          </ns3:TrackPointExtension>
        </extensions>
      </trkpt>
      <trkpt lat="37.7485947869718074798583984375" lon="-107.712289430201053619384765625">
        <ele>3418.60009765625</ele>
        <time>2023-07-29T18:19:47.000Z</time>
        <extensions>
          <ns3:TrackPointExtension>
            <ns3:hr>78</ns3:hr>
            <ns3:cad>0</ns3:cad>
          </ns3:TrackPointExtension>
        </extensions>
      </trkpt>
      <trkpt lat="37.7485853992402553558349609375" lon="-107.71228398196399211883544921875">
        <ele>3418.39990234375</ele>
        <time>2023-07-29T18:19:48.000Z</time>
        <extensions>
          <ns3:TrackPointExtension>
            <ns3:hr>78</ns3:hr>
            <ns3:cad>0</ns3:cad>
          </ns3:TrackPointExtension>
        </extensions>
      </trkpt>
      <trkpt lat="37.7485776878893375396728515625" lon="-107.71227945573627948760986328125">
        <ele>3418.199951171875</ele>
        <time>2023-07-29T18:19:49.000Z</time>
        <extensions>
          <ns3:TrackPointExtension>
            <ns3:hr>78</ns3:hr>
            <ns3:cad>0</ns3:cad>
          </ns3:TrackPointExtension>
        </extensions>
      </trkpt>
      <trkpt lat="37.7485642768442630767822265625" lon="-107.71227409131824970245361328125">
        <ele>3418.199951171875</ele>
        <time>2023-07-29T18:19:50.000Z</time>
        <extensions>
          <ns3:TrackPointExtension>
            <ns3:hr>78</ns3:hr>
            <ns3:cad>0</ns3:cad>
          </ns3:TrackPointExtension>
        </extensions>
      </trkpt>
      <trkpt lat="37.74855472147464752197265625" lon="-107.71227124147117137908935546875">
        <ele>3417.800048828125</ele>
        <time>2023-07-29T18:19:51.000Z</time>
        <extensions>
          <ns3:TrackPointExtension>
            <ns3:hr>78</ns3:hr>
            <ns3:cad>0</ns3:cad>
          </ns3:TrackPointExtension>
        </extensions>
      </trkpt>
      <trkpt lat="37.74854089133441448211669921875" lon="-107.7122678048908710479736328125">
        <ele>3417.800048828125</ele>
        <time>2023-07-29T18:19:52.000Z</time>
        <extensions>
          <ns3:TrackPointExtension>
            <ns3:hr>78</ns3:hr>
            <ns3:cad>0</ns3:cad>
          </ns3:TrackPointExtension>
        </extensions>
      </trkpt>
      <trkpt lat="37.748515494167804718017578125" lon="-107.71226269192993640899658203125">
        <ele>3417.800048828125</ele>
        <time>2023-07-29T18:19:53.000Z</time>
        <extensions>
          <ns3:TrackPointExtension>
            <ns3:hr>78</ns3:hr>
            <ns3:cad>0</ns3:cad>
          </ns3:TrackPointExtension>
        </extensions>
      </trkpt>
      <trkpt lat="37.74850300513207912445068359375" lon="-107.71226185373961925506591796875">
        <ele>3417.800048828125</ele>
        <time>2023-07-29T18:19:54.000Z</time>
        <extensions>
          <ns3:TrackPointExtension>
            <ns3:hr>78</ns3:hr>
            <ns3:cad>0</ns3:cad>
          </ns3:TrackPointExtension>
        </extensions>
      </trkpt>
      <trkpt lat="37.74849764071404933929443359375" lon="-107.71226101554930210113525390625">
        <ele>3417.60009765625</ele>
        <time>2023-07-29T18:19:55.000Z</time>
        <extensions>
          <ns3:TrackPointExtension>
            <ns3:hr>78</ns3:hr>
            <ns3:cad>0</ns3:cad>
          </ns3:TrackPointExtension>
        </extensions>
      </trkpt>
      <trkpt lat="37.7484891749918460845947265625" lon="-107.71225866861641407012939453125">
        <ele>3417.60009765625</ele>
        <time>2023-07-29T18:19:56.000Z</time>
        <extensions>
          <ns3:TrackPointExtension>
            <ns3:hr>78</ns3:hr>
            <ns3:cad>0</ns3:cad>
          </ns3:TrackPointExtension>
        </extensions>
      </trkpt>
      <trkpt lat="37.7484824694693088531494140625" lon="-107.712257243692874908447265625">
        <ele>3417.60009765625</ele>
        <time>2023-07-29T18:19:57.000Z</time>
        <extensions>
          <ns3:TrackPointExtension>
            <ns3:hr>78</ns3:hr>
            <ns3:cad>0</ns3:cad>
          </ns3:TrackPointExtension>
        </extensions>
      </trkpt>
      <trkpt lat="37.748479954898357391357421875" lon="-107.7122590877115726470947265625">
        <ele>3417.60009765625</ele>
        <time>2023-07-29T18:19:58.000Z</time>
        <extensions>
          <ns3:TrackPointExtension>
            <ns3:hr>78</ns3:hr>
            <ns3:cad>0</ns3:cad>
          </ns3:TrackPointExtension>
        </extensions>
      </trkpt>
      <trkpt lat="37.7484727464616298675537109375" lon="-107.712261937558650970458984375">
        <ele>3417.39990234375</ele>
        <time>2023-07-29T18:19:59.000Z</time>
        <extensions>
          <ns3:TrackPointExtension>
            <ns3:hr>78</ns3:hr>
            <ns3:cad>0</ns3:cad>
          </ns3:TrackPointExtension>
        </extensions>
      </trkpt>
      <trkpt lat="37.74846042506396770477294921875" lon="-107.7122662961483001708984375">
        <ele>3417.199951171875</ele>
        <time>2023-07-29T18:20:00.000Z</time>
        <extensions>
          <ns3:TrackPointExtension>
            <ns3:hr>78</ns3:hr>
            <ns3:cad>0</ns3:cad>
          </ns3:TrackPointExtension>
        </extensions>
      </trkpt>
      <trkpt lat="37.7484533004462718963623046875" lon="-107.71226772107183933258056640625">
        <ele>3417.199951171875</ele>
        <time>2023-07-29T18:20:01.000Z</time>
        <extensions>
          <ns3:TrackPointExtension>
            <ns3:hr>78</ns3:hr>
            <ns3:cad>0</ns3:cad>
          </ns3:TrackPointExtension>
        </extensions>
      </trkpt>
      <trkpt lat="37.74844936095178127288818359375" lon="-107.7122718282043933868408203125">
        <ele>3417</ele>
        <time>2023-07-29T18:20:02.000Z</time>
        <extensions>
          <ns3:TrackPointExtension>
            <ns3:hr>78</ns3:hr>
            <ns3:cad>0</ns3:cad>
          </ns3:TrackPointExtension>
        </extensions>
      </trkpt>
      <trkpt lat="37.74845003150403499603271484375" lon="-107.712279371917247772216796875">
        <ele>3417</ele>
        <time>2023-07-29T18:20:03.000Z</time>
        <extensions>
          <ns3:TrackPointExtension>
            <ns3:hr>79</ns3:hr>
            <ns3:cad>57</ns3:cad>
          </ns3:TrackPointExtension>
        </extensions>
      </trkpt>
      <trkpt lat="37.74843645282089710235595703125" lon="-107.71228884346783161163330078125">
        <ele>3417</ele>
        <time>2023-07-29T18:20:04.000Z</time>
        <extensions>
          <ns3:TrackPointExtension>
            <ns3:hr>80</ns3:hr>
            <ns3:cad>57</ns3:cad>
          </ns3:TrackPointExtension>
        </extensions>
      </trkpt>
      <trkpt lat="37.74842874146997928619384765625" lon="-107.7122958004474639892578125">
        <ele>3417</ele>
        <time>2023-07-29T18:20:05.000Z</time>
        <extensions>
          <ns3:TrackPointExtension>
            <ns3:hr>80</ns3:hr>
            <ns3:cad>57</ns3:cad>
          </ns3:TrackPointExtension>
        </extensions>
      </trkpt>
      <trkpt lat="37.74841390550136566162109375" lon="-107.71230309270322322845458984375">
        <ele>3416.800048828125</ele>
        <time>2023-07-29T18:20:06.000Z</time>
        <extensions>
          <ns3:TrackPointExtension>
            <ns3:hr>81</ns3:hr>
            <ns3:cad>0</ns3:cad>
          </ns3:TrackPointExtension>
        </extensions>
      </trkpt>
      <trkpt lat="37.74840208701789379119873046875" lon="-107.7123092114925384521484375">
        <ele>3416.800048828125</ele>
        <time>2023-07-29T18:20:07.000Z</time>
        <extensions>
          <ns3:TrackPointExtension>
            <ns3:hr>81</ns3:hr>
            <ns3:cad>0</ns3:cad>
          </ns3:TrackPointExtension>
        </extensions>
      </trkpt>
      <trkpt lat="37.74838616140186786651611328125" lon="-107.7123197726905345916748046875">
        <ele>3416.800048828125</ele>
        <time>2023-07-29T18:20:08.000Z</time>
        <extensions>
          <ns3:TrackPointExtension>
            <ns3:hr>81</ns3:hr>
            <ns3:cad>0</ns3:cad>
          </ns3:TrackPointExtension>
        </extensions>
      </trkpt>
      <trkpt lat="37.748376019299030303955078125" lon="-107.7123254723846912384033203125">
        <ele>3416.800048828125</ele>
        <time>2023-07-29T18:20:09.000Z</time>
        <extensions>
          <ns3:TrackPointExtension>
            <ns3:hr>81</ns3:hr>
            <ns3:cad>0</ns3:cad>
          </ns3:TrackPointExtension>
        </extensions>
      </trkpt>
      <trkpt lat="37.7483637817203998565673828125" lon="-107.7123368717730045318603515625">
        <ele>3416.800048828125</ele>
        <time>2023-07-29T18:20:10.000Z</time>
        <extensions>
          <ns3:TrackPointExtension>
            <ns3:hr>82</ns3:hr>
            <ns3:cad>0</ns3:cad>
          </ns3:TrackPointExtension>
        </extensions>
      </trkpt>
      <trkpt lat="37.748355902731418609619140625" lon="-107.7123449184000492095947265625">
        <ele>3416.60009765625</ele>
        <time>2023-07-29T18:20:11.000Z</time>
        <extensions>
          <ns3:TrackPointExtension>
            <ns3:hr>82</ns3:hr>
            <ns3:cad>0</ns3:cad>
          </ns3:TrackPointExtension>
        </extensions>
      </trkpt>
      <trkpt lat="37.74834626354277133941650390625" lon="-107.71235405467450618743896484375">
        <ele>3416.60009765625</ele>
        <time>2023-07-29T18:20:12.000Z</time>
        <extensions>
          <ns3:TrackPointExtension>
            <ns3:hr>82</ns3:hr>
            <ns3:cad>0</ns3:cad>
          </ns3:TrackPointExtension>
        </extensions>
      </trkpt>
      <trkpt lat="37.74833989329636096954345703125" lon="-107.71236277185380458831787109375">
        <ele>3416.39990234375</ele>
        <time>2023-07-29T18:20:13.000Z</time>
        <extensions>
          <ns3:TrackPointExtension>
            <ns3:hr>82</ns3:hr>
            <ns3:cad>0</ns3:cad>
          </ns3:TrackPointExtension>
        </extensions>
      </trkpt>
      <trkpt lat="37.74833620525896549224853515625" lon="-107.71236696280539035797119140625">
        <ele>3416.39990234375</ele>
        <time>2023-07-29T18:20:14.000Z</time>
        <extensions>
          <ns3:TrackPointExtension>
            <ns3:hr>82</ns3:hr>
            <ns3:cad>0</ns3:cad>
          </ns3:TrackPointExtension>
        </extensions>
      </trkpt>
      <trkpt lat="37.7483265660703182220458984375" lon="-107.7123727463185787200927734375">
        <ele>3416.39990234375</ele>
        <time>2023-07-29T18:20:15.000Z</time>
        <extensions>
          <ns3:TrackPointExtension>
            <ns3:hr>82</ns3:hr>
            <ns3:cad>0</ns3:cad>
          </ns3:TrackPointExtension>
        </extensions>
      </trkpt>
      <trkpt lat="37.74831776507198810577392578125" lon="-107.71237618289887905120849609375">
        <ele>3416.39990234375</ele>
        <time>2023-07-29T18:20:16.000Z</time>
        <extensions>
          <ns3:TrackPointExtension>
            <ns3:hr>82</ns3:hr>
            <ns3:cad>0</ns3:cad>
          </ns3:TrackPointExtension>
        </extensions>
      </trkpt>
      <trkpt lat="37.7483086287975311279296875" lon="-107.71237819455564022064208984375">
        <ele>3416.39990234375</ele>
        <time>2023-07-29T18:20:17.000Z</time>
        <extensions>
          <ns3:TrackPointExtension>
            <ns3:hr>81</ns3:hr>
            <ns3:cad>0</ns3:cad>
          </ns3:TrackPointExtension>
        </extensions>
      </trkpt>
      <trkpt lat="37.7482947148382663726806640625" lon="-107.71237668581306934356689453125">
        <ele>3416.199951171875</ele>
        <time>2023-07-29T18:20:18.000Z</time>
        <extensions>
          <ns3:TrackPointExtension>
            <ns3:hr>81</ns3:hr>
            <ns3:cad>0</ns3:cad>
          </ns3:TrackPointExtension>
        </extensions>
      </trkpt>
      <trkpt lat="37.7482873387634754180908203125" lon="-107.71237249486148357391357421875">
        <ele>3416</ele>
        <time>2023-07-29T18:20:19.000Z</time>
        <extensions>
          <ns3:TrackPointExtension>
            <ns3:hr>81</ns3:hr>
            <ns3:cad>0</ns3:cad>
          </ns3:TrackPointExtension>
        </extensions>
      </trkpt>
      <trkpt lat="37.74827719666063785552978515625" lon="-107.71236981265246868133544921875">
        <ele>3415.800048828125</ele>
        <time>2023-07-29T18:20:20.000Z</time>
        <extensions>
          <ns3:TrackPointExtension>
            <ns3:hr>81</ns3:hr>
            <ns3:cad>0</ns3:cad>
          </ns3:TrackPointExtension>
        </extensions>
      </trkpt>
      <trkpt lat="37.74826512672007083892822265625" lon="-107.7123616822063922882080078125">
        <ele>3415.60009765625</ele>
        <time>2023-07-29T18:20:21.000Z</time>
        <extensions>
          <ns3:TrackPointExtension>
            <ns3:hr>81</ns3:hr>
            <ns3:cad>0</ns3:cad>
          </ns3:TrackPointExtension>
        </extensions>
      </trkpt>
      <trkpt lat="37.7482521347701549530029296875" lon="-107.71235204301774501800537109375">
        <ele>3415.39990234375</ele>
        <time>2023-07-29T18:20:22.000Z</time>
        <extensions>
          <ns3:TrackPointExtension>
            <ns3:hr>81</ns3:hr>
            <ns3:cad>0</ns3:cad>
          </ns3:TrackPointExtension>
        </extensions>
      </trkpt>
      <trkpt lat="37.74823713116347789764404296875" lon="-107.712345086038112640380859375">
        <ele>3415.199951171875</ele>
        <time>2023-07-29T18:20:23.000Z</time>
        <extensions>
          <ns3:TrackPointExtension>
            <ns3:hr>80</ns3:hr>
            <ns3:cad>0</ns3:cad>
          </ns3:TrackPointExtension>
        </extensions>
      </trkpt>
      <trkpt lat="37.74821952916681766510009765625" lon="-107.71233980543911457061767578125">
        <ele>3415</ele>
        <time>2023-07-29T18:20:24.000Z</time>
        <extensions>
          <ns3:TrackPointExtension>
            <ns3:hr>80</ns3:hr>
            <ns3:cad>0</ns3:cad>
          </ns3:TrackPointExtension>
        </extensions>
      </trkpt>
      <trkpt lat="37.7482055313885211944580078125" lon="-107.712337709963321685791015625">
        <ele>3414.800048828125</ele>
        <time>2023-07-29T18:20:25.000Z</time>
        <extensions>
          <ns3:TrackPointExtension>
            <ns3:hr>80</ns3:hr>
            <ns3:cad>0</ns3:cad>
          </ns3:TrackPointExtension>
        </extensions>
      </trkpt>
      <trkpt lat="37.74819522164762020111083984375" lon="-107.7123405598104000091552734375">
        <ele>3414.60009765625</ele>
        <time>2023-07-29T18:20:26.000Z</time>
        <extensions>
          <ns3:TrackPointExtension>
            <ns3:hr>80</ns3:hr>
            <ns3:cad>0</ns3:cad>
          </ns3:TrackPointExtension>
        </extensions>
      </trkpt>
      <trkpt lat="37.74818994104862213134765625" lon="-107.71234483458101749420166015625">
        <ele>3414.199951171875</ele>
        <time>2023-07-29T18:20:27.000Z</time>
        <extensions>
          <ns3:TrackPointExtension>
            <ns3:hr>80</ns3:hr>
            <ns3:cad>0</ns3:cad>
          </ns3:TrackPointExtension>
        </extensions>
      </trkpt>
      <trkpt lat="37.7481870912015438079833984375" lon="-107.71235338412225246429443359375">
        <ele>3414</ele>
        <time>2023-07-29T18:20:28.000Z</time>
        <extensions>
          <ns3:TrackPointExtension>
            <ns3:hr>80</ns3:hr>
            <ns3:cad>0</ns3:cad>
          </ns3:TrackPointExtension>
        </extensions>
      </trkpt>
      <trkpt lat="37.74818055331707000732421875" lon="-107.71236310712993144989013671875">
        <ele>3413.60009765625</ele>
        <time>2023-07-29T18:20:29.000Z</time>
        <extensions>
          <ns3:TrackPointExtension>
            <ns3:hr>80</ns3:hr>
            <ns3:cad>0</ns3:cad>
          </ns3:TrackPointExtension>
        </extensions>
      </trkpt>
      <trkpt lat="37.74817476980388164520263671875" lon="-107.7123703993856906890869140625">
        <ele>3413</ele>
        <time>2023-07-29T18:20:30.000Z</time>
        <extensions>
          <ns3:TrackPointExtension>
            <ns3:hr>80</ns3:hr>
            <ns3:cad>0</ns3:cad>
          </ns3:TrackPointExtension>
        </extensions>
      </trkpt>
      <trkpt lat="37.74816722609102725982666015625" lon="-107.7123787812888622283935546875">
        <ele>3412.800048828125</ele>
        <time>2023-07-29T18:20:31.000Z</time>
        <extensions>
          <ns3:TrackPointExtension>
            <ns3:hr>81</ns3:hr>
            <ns3:cad>0</ns3:cad>
          </ns3:TrackPointExtension>
        </extensions>
      </trkpt>
      <trkpt lat="37.748159430921077728271484375" lon="-107.7123869955539703369140625">
        <ele>3412.60009765625</ele>
        <time>2023-07-29T18:20:32.000Z</time>
        <extensions>
          <ns3:TrackPointExtension>
            <ns3:hr>81</ns3:hr>
            <ns3:cad>0</ns3:cad>
          </ns3:TrackPointExtension>
        </extensions>
      </trkpt>
      <trkpt lat="37.74815314449369907379150390625" lon="-107.7123945392668247222900390625">
        <ele>3412.39990234375</ele>
        <time>2023-07-29T18:20:33.000Z</time>
        <extensions>
          <ns3:TrackPointExtension>
            <ns3:hr>81</ns3:hr>
            <ns3:cad>19</ns3:cad>
          </ns3:TrackPointExtension>
        </extensions>
      </trkpt>
      <trkpt lat="37.7481435053050518035888671875" lon="-107.71240602247416973114013671875">
        <ele>3412.39990234375</ele>
        <time>2023-07-29T18:20:34.000Z</time>
        <extensions>
          <ns3:TrackPointExtension>
            <ns3:hr>81</ns3:hr>
            <ns3:cad>19</ns3:cad>
          </ns3:TrackPointExtension>
        </extensions>
      </trkpt>
      <trkpt lat="37.74813763797283172607421875" lon="-107.71241247653961181640625">
        <ele>3412</ele>
        <time>2023-07-29T18:20:35.000Z</time>
        <extensions>
          <ns3:TrackPointExtension>
            <ns3:hr>81</ns3:hr>
            <ns3:cad>19</ns3:cad>
          </ns3:TrackPointExtension>
        </extensions>
      </trkpt>
      <trkpt lat="37.7481341175734996795654296875" lon="-107.71241859532892704010009765625">
        <ele>3411.800048828125</ele>
        <time>2023-07-29T18:20:36.000Z</time>
        <extensions>
          <ns3:TrackPointExtension>
            <ns3:hr>82</ns3:hr>
            <ns3:cad>19</ns3:cad>
          </ns3:TrackPointExtension>
        </extensions>
      </trkpt>
      <trkpt lat="37.7481274120509624481201171875" lon="-107.71242831833660602569580078125">
        <ele>3411.39990234375</ele>
        <time>2023-07-29T18:20:37.000Z</time>
        <extensions>
          <ns3:TrackPointExtension>
            <ns3:hr>82</ns3:hr>
            <ns3:cad>19</ns3:cad>
          </ns3:TrackPointExtension>
        </extensions>
      </trkpt>
      <trkpt lat="37.74812330491840839385986328125" lon="-107.712434269487857818603515625">
        <ele>3411.199951171875</ele>
        <time>2023-07-29T18:20:38.000Z</time>
        <extensions>
          <ns3:TrackPointExtension>
            <ns3:hr>82</ns3:hr>
            <ns3:cad>19</ns3:cad>
          </ns3:TrackPointExtension>
        </extensions>
      </trkpt>
      <trkpt lat="37.7481160126626491546630859375" lon="-107.7124371193349361419677734375">
        <ele>3411</ele>
        <time>2023-07-29T18:20:39.000Z</time>
        <extensions>
          <ns3:TrackPointExtension>
            <ns3:hr>82</ns3:hr>
            <ns3:cad>19</ns3:cad>
          </ns3:TrackPointExtension>
        </extensions>
      </trkpt>
      <trkpt lat="37.74810955859720706939697265625" lon="-107.71243854425847530364990234375">
        <ele>3410.800048828125</ele>
        <time>2023-07-29T18:20:40.000Z</time>
        <extensions>
          <ns3:TrackPointExtension>
            <ns3:hr>82</ns3:hr>
            <ns3:cad>0</ns3:cad>
          </ns3:TrackPointExtension>
        </extensions>
      </trkpt>
      <trkpt lat="37.7481009252369403839111328125" lon="-107.71244223229587078094482421875">
        <ele>3410.60009765625</ele>
        <time>2023-07-29T18:20:41.000Z</time>
        <extensions>
          <ns3:TrackPointExtension>
            <ns3:hr>82</ns3:hr>
            <ns3:cad>0</ns3:cad>
          </ns3:TrackPointExtension>
        </extensions>
      </trkpt>
      <trkpt lat="37.74809296242892742156982421875" lon="-107.7124434895813465118408203125">
        <ele>3410.199951171875</ele>
        <time>2023-07-29T18:20:42.000Z</time>
        <extensions>
          <ns3:TrackPointExtension>
            <ns3:hr>82</ns3:hr>
            <ns3:cad>0</ns3:cad>
          </ns3:TrackPointExtension>
        </extensions>
      </trkpt>
      <trkpt lat="37.7480804733932018280029296875" lon="-107.71244592033326625823974609375">
        <ele>3410</ele>
        <time>2023-07-29T18:20:43.000Z</time>
        <extensions>
          <ns3:TrackPointExtension>
            <ns3:hr>83</ns3:hr>
            <ns3:cad>0</ns3:cad>
          </ns3:TrackPointExtension>
        </extensions>
      </trkpt>
      <trkpt lat="37.74806924164295196533203125" lon="-107.71244340576231479644775390625">
        <ele>3409.800048828125</ele>
        <time>2023-07-29T18:20:44.000Z</time>
        <extensions>
          <ns3:TrackPointExtension>
            <ns3:hr>83</ns3:hr>
            <ns3:cad>0</ns3:cad>
          </ns3:TrackPointExtension>
        </extensions>
      </trkpt>
      <trkpt lat="37.74805583059787750244140625" lon="-107.7124438248574733734130859375">
        <ele>3409.800048828125</ele>
        <time>2023-07-29T18:20:45.000Z</time>
        <extensions>
          <ns3:TrackPointExtension>
            <ns3:hr>83</ns3:hr>
            <ns3:cad>0</ns3:cad>
          </ns3:TrackPointExtension>
        </extensions>
      </trkpt>
      <trkpt lat="37.74804686196148395538330078125" lon="-107.71243971772491931915283203125">
        <ele>3409.39990234375</ele>
        <time>2023-07-29T18:20:46.000Z</time>
        <extensions>
          <ns3:TrackPointExtension>
            <ns3:hr>83</ns3:hr>
            <ns3:cad>0</ns3:cad>
          </ns3:TrackPointExtension>
        </extensions>
      </trkpt>
      <trkpt lat="37.74803839623928070068359375" lon="-107.712435610592365264892578125">
        <ele>3409.199951171875</ele>
        <time>2023-07-29T18:20:47.000Z</time>
        <extensions>
          <ns3:TrackPointExtension>
            <ns3:hr>84</ns3:hr>
            <ns3:cad>0</ns3:cad>
          </ns3:TrackPointExtension>
        </extensions>
      </trkpt>
      <trkpt lat="37.7480315230786800384521484375" lon="-107.71242915652692317962646484375">
        <ele>3408.800048828125</ele>
        <time>2023-07-29T18:20:48.000Z</time>
        <extensions>
          <ns3:TrackPointExtension>
            <ns3:hr>84</ns3:hr>
            <ns3:cad>0</ns3:cad>
          </ns3:TrackPointExtension>
        </extensions>
      </trkpt>
      <trkpt lat="37.74803093634545803070068359375" lon="-107.71242815069854259490966796875">
        <ele>3408.39990234375</ele>
        <time>2023-07-29T18:20:49.000Z</time>
        <extensions>
          <ns3:TrackPointExtension>
            <ns3:hr>84</ns3:hr>
            <ns3:cad>0</ns3:cad>
          </ns3:TrackPointExtension>
        </extensions>
      </trkpt>
      <trkpt lat="37.7480308525264263153076171875" lon="-107.71242345683276653289794921875">
        <ele>3408</ele>
        <time>2023-07-29T18:20:50.000Z</time>
        <extensions>
          <ns3:TrackPointExtension>
            <ns3:hr>85</ns3:hr>
            <ns3:cad>0</ns3:cad>
          </ns3:TrackPointExtension>
        </extensions>
      </trkpt>
      <trkpt lat="37.74802766740322113037109375" lon="-107.71242094226181507110595703125">
        <ele>3407.800048828125</ele>
        <time>2023-07-29T18:20:51.000Z</time>
        <extensions>
          <ns3:TrackPointExtension>
            <ns3:hr>85</ns3:hr>
            <ns3:cad>0</ns3:cad>
          </ns3:TrackPointExtension>
        </extensions>
      </trkpt>
      <trkpt lat="37.7480238117277622222900390625" lon="-107.7124190144240856170654296875">
        <ele>3407.60009765625</ele>
        <time>2023-07-29T18:20:52.000Z</time>
        <extensions>
          <ns3:TrackPointExtension>
            <ns3:hr>85</ns3:hr>
            <ns3:cad>0</ns3:cad>
          </ns3:TrackPointExtension>
        </extensions>
      </trkpt>
      <trkpt lat="37.7480211295187473297119140625" lon="-107.7124190144240856170654296875">
        <ele>3407.60009765625</ele>
        <time>2023-07-29T18:20:53.000Z</time>
        <extensions>
          <ns3:TrackPointExtension>
            <ns3:hr>86</ns3:hr>
            <ns3:cad>0</ns3:cad>
          </ns3:TrackPointExtension>
        </extensions>
      </trkpt>
      <trkpt lat="37.7480124123394489288330078125" lon="-107.71241440437734127044677734375">
        <ele>3407.39990234375</ele>
        <time>2023-07-29T18:20:54.000Z</time>
        <extensions>
          <ns3:TrackPointExtension>
            <ns3:hr>86</ns3:hr>
            <ns3:cad>76</ns3:cad>
          </ns3:TrackPointExtension>
        </extensions>
      </trkpt>
      <trkpt lat="37.74800545535981655120849609375" lon="-107.71241188980638980865478515625">
        <ele>3407</ele>
        <time>2023-07-29T18:20:55.000Z</time>
        <extensions>
          <ns3:TrackPointExtension>
            <ns3:hr>86</ns3:hr>
            <ns3:cad>76</ns3:cad>
          </ns3:TrackPointExtension>
        </extensions>
      </trkpt>
      <trkpt lat="37.74799623526632785797119140625" lon="-107.71240870468318462371826171875">
        <ele>3406.800048828125</ele>
        <time>2023-07-29T18:20:56.000Z</time>
        <extensions>
          <ns3:TrackPointExtension>
            <ns3:hr>86</ns3:hr>
            <ns3:cad>76</ns3:cad>
          </ns3:TrackPointExtension>
        </extensions>
      </trkpt>
      <trkpt lat="37.74798609316349029541015625" lon="-107.71240174770355224609375">
        <ele>3406.39990234375</ele>
        <time>2023-07-29T18:20:57.000Z</time>
        <extensions>
          <ns3:TrackPointExtension>
            <ns3:hr>86</ns3:hr>
            <ns3:cad>53</ns3:cad>
          </ns3:TrackPointExtension>
        </extensions>
      </trkpt>
      <trkpt lat="37.74796974845230579376220703125" lon="-107.712391354143619537353515625">
        <ele>3406.39990234375</ele>
        <time>2023-07-29T18:20:58.000Z</time>
        <extensions>
          <ns3:TrackPointExtension>
            <ns3:hr>86</ns3:hr>
            <ns3:cad>0</ns3:cad>
          </ns3:TrackPointExtension>
        </extensions>
      </trkpt>
      <trkpt lat="37.74795499630272388458251953125" lon="-107.71238255314528942108154296875">
        <ele>3406.199951171875</ele>
        <time>2023-07-29T18:20:59.000Z</time>
        <extensions>
          <ns3:TrackPointExtension>
            <ns3:hr>86</ns3:hr>
            <ns3:cad>0</ns3:cad>
          </ns3:TrackPointExtension>
        </extensions>
      </trkpt>
      <trkpt lat="37.74794208817183971405029296875" lon="-107.7123757638037204742431640625">
        <ele>3406.199951171875</ele>
        <time>2023-07-29T18:21:00.000Z</time>
        <extensions>
          <ns3:TrackPointExtension>
            <ns3:hr>86</ns3:hr>
            <ns3:cad>0</ns3:cad>
          </ns3:TrackPointExtension>
        </extensions>
      </trkpt>
      <trkpt lat="37.747936807572841644287109375" lon="-107.7123717404901981353759765625">
        <ele>3406.199951171875</ele>
        <time>2023-07-29T18:21:01.000Z</time>
        <extensions>
          <ns3:TrackPointExtension>
            <ns3:hr>86</ns3:hr>
            <ns3:cad>0</ns3:cad>
          </ns3:TrackPointExtension>
        </extensions>
      </trkpt>
      <trkpt lat="37.74792465381324291229248046875" lon="-107.71236159838736057281494140625">
        <ele>3406.199951171875</ele>
        <time>2023-07-29T18:21:02.000Z</time>
        <extensions>
          <ns3:TrackPointExtension>
            <ns3:hr>85</ns3:hr>
            <ns3:cad>0</ns3:cad>
          </ns3:TrackPointExtension>
        </extensions>
      </trkpt>
      <trkpt lat="37.7479145117104053497314453125" lon="-107.71235204301774501800537109375">
        <ele>3406.199951171875</ele>
        <time>2023-07-29T18:21:03.000Z</time>
        <extensions>
          <ns3:TrackPointExtension>
            <ns3:hr>86</ns3:hr>
            <ns3:cad>0</ns3:cad>
          </ns3:TrackPointExtension>
        </extensions>
      </trkpt>
      <trkpt lat="37.74789934046566486358642578125" lon="-107.712342739105224609375">
        <ele>3406.199951171875</ele>
        <time>2023-07-29T18:21:04.000Z</time>
        <extensions>
          <ns3:TrackPointExtension>
            <ns3:hr>86</ns3:hr>
            <ns3:cad>0</ns3:cad>
          </ns3:TrackPointExtension>
        </extensions>
      </trkpt>
      <trkpt lat="37.74788743816316127777099609375" lon="-107.71233427338302135467529296875">
        <ele>3406.39990234375</ele>
        <time>2023-07-29T18:21:05.000Z</time>
        <extensions>
          <ns3:TrackPointExtension>
            <ns3:hr>87</ns3:hr>
            <ns3:cad>58</ns3:cad>
          </ns3:TrackPointExtension>
        </extensions>
      </trkpt>
      <trkpt lat="37.7478722669184207916259765625" lon="-107.7123244665563106536865234375">
        <ele>3406.39990234375</ele>
        <time>2023-07-29T18:21:06.000Z</time>
        <extensions>
          <ns3:TrackPointExtension>
            <ns3:hr>87</ns3:hr>
            <ns3:cad>58</ns3:cad>
          </ns3:TrackPointExtension>
        </extensions>
      </trkpt>
      <trkpt lat="37.7478575147688388824462890625" lon="-107.7123160846531391143798828125">
        <ele>3406.39990234375</ele>
        <time>2023-07-29T18:21:07.000Z</time>
        <extensions>
          <ns3:TrackPointExtension>
            <ns3:hr>87</ns3:hr>
            <ns3:cad>58</ns3:cad>
          </ns3:TrackPointExtension>
        </extensions>
      </trkpt>
      <trkpt lat="37.74784938432276248931884765625" lon="-107.71230694837868213653564453125">
        <ele>3406.199951171875</ele>
        <time>2023-07-29T18:21:08.000Z</time>
        <extensions>
          <ns3:TrackPointExtension>
            <ns3:hr>87</ns3:hr>
            <ns3:cad>58</ns3:cad>
          </ns3:TrackPointExtension>
        </extensions>
      </trkpt>
      <trkpt lat="37.747839577496051788330078125" lon="-107.712295465171337127685546875">
        <ele>3406.199951171875</ele>
        <time>2023-07-29T18:21:09.000Z</time>
        <extensions>
          <ns3:TrackPointExtension>
            <ns3:hr>87</ns3:hr>
            <ns3:cad>58</ns3:cad>
          </ns3:TrackPointExtension>
        </extensions>
      </trkpt>
      <trkpt lat="37.74782918393611907958984375" lon="-107.71228331141173839569091796875">
        <ele>3406.199951171875</ele>
        <time>2023-07-29T18:21:10.000Z</time>
        <extensions>
          <ns3:TrackPointExtension>
            <ns3:hr>87</ns3:hr>
            <ns3:cad>58</ns3:cad>
          </ns3:TrackPointExtension>
        </extensions>
      </trkpt>
      <trkpt lat="37.74781350977718830108642578125" lon="-107.71226839162409305572509765625">
        <ele>3406.199951171875</ele>
        <time>2023-07-29T18:21:11.000Z</time>
        <extensions>
          <ns3:TrackPointExtension>
            <ns3:hr>88</ns3:hr>
            <ns3:cad>58</ns3:cad>
          </ns3:TrackPointExtension>
        </extensions>
      </trkpt>
      <trkpt lat="37.74780043400824069976806640625" lon="-107.7122574113309383392333984375">
        <ele>3406.199951171875</ele>
        <time>2023-07-29T18:21:12.000Z</time>
        <extensions>
          <ns3:TrackPointExtension>
            <ns3:hr>88</ns3:hr>
            <ns3:cad>58</ns3:cad>
          </ns3:TrackPointExtension>
        </extensions>
      </trkpt>
      <trkpt lat="37.74778752587735652923583984375" lon="-107.71224961616098880767822265625">
        <ele>3406.199951171875</ele>
        <time>2023-07-29T18:21:13.000Z</time>
        <extensions>
          <ns3:TrackPointExtension>
            <ns3:hr>87</ns3:hr>
            <ns3:cad>57</ns3:cad>
          </ns3:TrackPointExtension>
        </extensions>
      </trkpt>
      <trkpt lat="37.74777864105999469757080078125" lon="-107.71224810741841793060302734375">
        <ele>3406.199951171875</ele>
        <time>2023-07-29T18:21:14.000Z</time>
        <extensions>
          <ns3:TrackPointExtension>
            <ns3:hr>87</ns3:hr>
            <ns3:cad>0</ns3:cad>
          </ns3:TrackPointExtension>
        </extensions>
      </trkpt>
      <trkpt lat="37.74776590056717395782470703125" lon="-107.71223955787718296051025390625">
        <ele>3406.199951171875</ele>
        <time>2023-07-29T18:21:15.000Z</time>
        <extensions>
          <ns3:TrackPointExtension>
            <ns3:hr>86</ns3:hr>
            <ns3:cad>0</ns3:cad>
          </ns3:TrackPointExtension>
        </extensions>
      </trkpt>
      <trkpt lat="37.74776036851108074188232421875" lon="-107.71223955787718296051025390625">
        <ele>3406.199951171875</ele>
        <time>2023-07-29T18:21:16.000Z</time>
        <extensions>
          <ns3:TrackPointExtension>
            <ns3:hr>86</ns3:hr>
            <ns3:cad>0</ns3:cad>
          </ns3:TrackPointExtension>
        </extensions>
      </trkpt>
      <trkpt lat="37.74775584228336811065673828125" lon="-107.71223788149654865264892578125">
        <ele>3406.39990234375</ele>
        <time>2023-07-29T18:21:17.000Z</time>
        <extensions>
          <ns3:TrackPointExtension>
            <ns3:hr>86</ns3:hr>
            <ns3:cad>0</ns3:cad>
          </ns3:TrackPointExtension>
        </extensions>
      </trkpt>
      <trkpt lat="37.74775114841759204864501953125" lon="-107.712235115468502044677734375">
        <ele>3406.60009765625</ele>
        <time>2023-07-29T18:21:18.000Z</time>
        <extensions>
          <ns3:TrackPointExtension>
            <ns3:hr>86</ns3:hr>
            <ns3:cad>0</ns3:cad>
          </ns3:TrackPointExtension>
        </extensions>
      </trkpt>
      <trkpt lat="37.74774544872343540191650390625" lon="-107.71223218180239200592041015625">
        <ele>3406.60009765625</ele>
        <time>2023-07-29T18:21:19.000Z</time>
        <extensions>
          <ns3:TrackPointExtension>
            <ns3:hr>85</ns3:hr>
            <ns3:cad>0</ns3:cad>
          </ns3:TrackPointExtension>
        </extensions>
      </trkpt>
      <trkpt lat="37.7477361448109149932861328125" lon="-107.7122289128601551055908203125">
        <ele>3406.800048828125</ele>
        <time>2023-07-29T18:21:20.000Z</time>
        <extensions>
          <ns3:TrackPointExtension>
            <ns3:hr>85</ns3:hr>
            <ns3:cad>0</ns3:cad>
          </ns3:TrackPointExtension>
        </extensions>
      </trkpt>
      <trkpt lat="37.7477287687361240386962890625" lon="-107.71222447045147418975830078125">
        <ele>3406.800048828125</ele>
        <time>2023-07-29T18:21:21.000Z</time>
        <extensions>
          <ns3:TrackPointExtension>
            <ns3:hr>85</ns3:hr>
            <ns3:cad>0</ns3:cad>
          </ns3:TrackPointExtension>
        </extensions>
      </trkpt>
      <trkpt lat="37.74772097356617450714111328125" lon="-107.71221575327217578887939453125">
        <ele>3406.800048828125</ele>
        <time>2023-07-29T18:21:22.000Z</time>
        <extensions>
          <ns3:TrackPointExtension>
            <ns3:hr>85</ns3:hr>
            <ns3:cad>61</ns3:cad>
          </ns3:TrackPointExtension>
        </extensions>
      </trkpt>
      <trkpt lat="37.7477156929671764373779296875" lon="-107.71220888011157512664794921875">
        <ele>3406.800048828125</ele>
        <time>2023-07-29T18:21:23.000Z</time>
        <extensions>
          <ns3:TrackPointExtension>
            <ns3:hr>85</ns3:hr>
            <ns3:cad>61</ns3:cad>
          </ns3:TrackPointExtension>
        </extensions>
      </trkpt>
      <trkpt lat="37.74771192111074924468994140625" lon="-107.7121994085609912872314453125">
        <ele>3407</ele>
        <time>2023-07-29T18:21:24.000Z</time>
        <extensions>
          <ns3:TrackPointExtension>
            <ns3:hr>86</ns3:hr>
            <ns3:cad>61</ns3:cad>
          </ns3:TrackPointExtension>
        </extensions>
      </trkpt>
      <trkpt lat="37.7477140165865421295166015625" lon="-107.71218893118202686309814453125">
        <ele>3407.199951171875</ele>
        <time>2023-07-29T18:21:25.000Z</time>
        <extensions>
          <ns3:TrackPointExtension>
            <ns3:hr>86</ns3:hr>
            <ns3:cad>55</ns3:cad>
          </ns3:TrackPointExtension>
        </extensions>
      </trkpt>
      <trkpt lat="37.74771762080490589141845703125" lon="-107.71218004636466503143310546875">
        <ele>3407.199951171875</ele>
        <time>2023-07-29T18:21:26.000Z</time>
        <extensions>
          <ns3:TrackPointExtension>
            <ns3:hr>86</ns3:hr>
            <ns3:cad>55</ns3:cad>
          </ns3:TrackPointExtension>
        </extensions>
      </trkpt>
      <trkpt lat="37.7477239072322845458984375" lon="-107.7121722511947154998779296875">
        <ele>3407.39990234375</ele>
        <time>2023-07-29T18:21:27.000Z</time>
        <extensions>
          <ns3:TrackPointExtension>
            <ns3:hr>86</ns3:hr>
            <ns3:cad>55</ns3:cad>
          </ns3:TrackPointExtension>
        </extensions>
      </trkpt>
      <trkpt lat="37.74773153476417064666748046875" lon="-107.71215858869254589080810546875">
        <ele>3407.39990234375</ele>
        <time>2023-07-29T18:21:28.000Z</time>
        <extensions>
          <ns3:TrackPointExtension>
            <ns3:hr>86</ns3:hr>
            <ns3:cad>55</ns3:cad>
          </ns3:TrackPointExtension>
        </extensions>
      </trkpt>
      <trkpt lat="37.74774092249572277069091796875" lon="-107.71214098669588565826416015625">
        <ele>3407.39990234375</ele>
        <time>2023-07-29T18:21:29.000Z</time>
        <extensions>
          <ns3:TrackPointExtension>
            <ns3:hr>86</ns3:hr>
            <ns3:cad>0</ns3:cad>
          </ns3:TrackPointExtension>
        </extensions>
      </trkpt>
      <trkpt lat="37.74775274097919464111328125" lon="-107.71212279796600341796875">
        <ele>3407.199951171875</ele>
        <time>2023-07-29T18:21:30.000Z</time>
        <extensions>
          <ns3:TrackPointExtension>
            <ns3:hr>86</ns3:hr>
            <ns3:cad>0</ns3:cad>
          </ns3:TrackPointExtension>
        </extensions>
      </trkpt>
      <trkpt lat="37.74776455946266651153564453125" lon="-107.7121085487306118011474609375">
        <ele>3407.199951171875</ele>
        <time>2023-07-29T18:21:31.000Z</time>
        <extensions>
          <ns3:TrackPointExtension>
            <ns3:hr>86</ns3:hr>
            <ns3:cad>51</ns3:cad>
          </ns3:TrackPointExtension>
        </extensions>
      </trkpt>
      <trkpt lat="37.7477713488042354583740234375" lon="-107.712101675570011138916015625">
        <ele>3407.199951171875</ele>
        <time>2023-07-29T18:21:32.000Z</time>
        <extensions>
          <ns3:TrackPointExtension>
            <ns3:hr>86</ns3:hr>
            <ns3:cad>51</ns3:cad>
          </ns3:TrackPointExtension>
        </extensions>
      </trkpt>
      <trkpt lat="37.74778702296316623687744140625" lon="-107.7120948024094104766845703125">
        <ele>3407.199951171875</ele>
        <time>2023-07-29T18:21:33.000Z</time>
        <extensions>
          <ns3:TrackPointExtension>
            <ns3:hr>86</ns3:hr>
            <ns3:cad>51</ns3:cad>
          </ns3:TrackPointExtension>
        </extensions>
      </trkpt>
      <trkpt lat="37.7477961592376232147216796875" lon="-107.71208415739238262176513671875">
        <ele>3407</ele>
        <time>2023-07-29T18:21:34.000Z</time>
        <extensions>
          <ns3:TrackPointExtension>
            <ns3:hr>86</ns3:hr>
            <ns3:cad>51</ns3:cad>
          </ns3:TrackPointExtension>
        </extensions>
      </trkpt>
      <trkpt lat="37.74780797772109508514404296875" lon="-107.7120733447372913360595703125">
        <ele>3407</ele>
        <time>2023-07-29T18:21:35.000Z</time>
        <extensions>
          <ns3:TrackPointExtension>
            <ns3:hr>86</ns3:hr>
            <ns3:cad>51</ns3:cad>
          </ns3:TrackPointExtension>
        </extensions>
      </trkpt>
      <trkpt lat="37.747814767062664031982421875" lon="-107.712066136300563812255859375">
        <ele>3406.800048828125</ele>
        <time>2023-07-29T18:21:36.000Z</time>
        <extensions>
          <ns3:TrackPointExtension>
            <ns3:hr>87</ns3:hr>
            <ns3:cad>51</ns3:cad>
          </ns3:TrackPointExtension>
        </extensions>
      </trkpt>
      <trkpt lat="37.7478216402232646942138671875" lon="-107.71205767057836055755615234375">
        <ele>3406.800048828125</ele>
        <time>2023-07-29T18:21:37.000Z</time>
        <extensions>
          <ns3:TrackPointExtension>
            <ns3:hr>87</ns3:hr>
            <ns3:cad>51</ns3:cad>
          </ns3:TrackPointExtension>
        </extensions>
      </trkpt>
      <trkpt lat="37.7478280104696750640869140625" lon="-107.71204710938036441802978515625">
        <ele>3406.800048828125</ele>
        <time>2023-07-29T18:21:38.000Z</time>
        <extensions>
          <ns3:TrackPointExtension>
            <ns3:hr>86</ns3:hr>
            <ns3:cad>51</ns3:cad>
          </ns3:TrackPointExtension>
        </extensions>
      </trkpt>
      <trkpt lat="37.74783312343060970306396484375" lon="-107.71203705109655857086181640625">
        <ele>3406.800048828125</ele>
        <time>2023-07-29T18:21:39.000Z</time>
        <extensions>
          <ns3:TrackPointExtension>
            <ns3:hr>86</ns3:hr>
            <ns3:cad>51</ns3:cad>
          </ns3:TrackPointExtension>
        </extensions>
      </trkpt>
      <trkpt lat="37.747836895287036895751953125" lon="-107.7120280824601650238037109375">
        <ele>3406.60009765625</ele>
        <time>2023-07-29T18:21:40.000Z</time>
        <extensions>
          <ns3:TrackPointExtension>
            <ns3:hr>85</ns3:hr>
            <ns3:cad>47</ns3:cad>
          </ns3:TrackPointExtension>
        </extensions>
      </trkpt>
      <trkpt lat="37.74783882312476634979248046875" lon="-107.71201911382377147674560546875">
        <ele>3406.60009765625</ele>
        <time>2023-07-29T18:21:41.000Z</time>
        <extensions>
          <ns3:TrackPointExtension>
            <ns3:hr>85</ns3:hr>
            <ns3:cad>47</ns3:cad>
          </ns3:TrackPointExtension>
        </extensions>
      </trkpt>
      <trkpt lat="37.7478420920670032501220703125" lon="-107.71200570277869701385498046875">
        <ele>3406.39990234375</ele>
        <time>2023-07-29T18:21:42.000Z</time>
        <extensions>
          <ns3:TrackPointExtension>
            <ns3:hr>83</ns3:hr>
            <ns3:cad>47</ns3:cad>
          </ns3:TrackPointExtension>
        </extensions>
      </trkpt>
      <trkpt lat="37.74784661829471588134765625" lon="-107.711995057761669158935546875">
        <ele>3406.39990234375</ele>
        <time>2023-07-29T18:21:43.000Z</time>
        <extensions>
          <ns3:TrackPointExtension>
            <ns3:hr>82</ns3:hr>
            <ns3:cad>47</ns3:cad>
          </ns3:TrackPointExtension>
        </extensions>
      </trkpt>
      <trkpt lat="37.747851647436618804931640625" lon="-107.71197804249823093414306640625">
        <ele>3406.199951171875</ele>
        <time>2023-07-29T18:21:44.000Z</time>
        <extensions>
          <ns3:TrackPointExtension>
            <ns3:hr>81</ns3:hr>
            <ns3:cad>47</ns3:cad>
          </ns3:TrackPointExtension>
        </extensions>
      </trkpt>
      <trkpt lat="37.7478555031120777130126953125" lon="-107.71196521818637847900390625">
        <ele>3406</ele>
        <time>2023-07-29T18:21:45.000Z</time>
        <extensions>
          <ns3:TrackPointExtension>
            <ns3:hr>80</ns3:hr>
            <ns3:cad>47</ns3:cad>
          </ns3:TrackPointExtension>
        </extensions>
      </trkpt>
      <trkpt lat="37.74786095134913921356201171875" lon="-107.7119496278464794158935546875">
        <ele>3405.800048828125</ele>
        <time>2023-07-29T18:21:46.000Z</time>
        <extensions>
          <ns3:TrackPointExtension>
            <ns3:hr>80</ns3:hr>
            <ns3:cad>47</ns3:cad>
          </ns3:TrackPointExtension>
        </extensions>
      </trkpt>
      <trkpt lat="37.74786547757685184478759765625" lon="-107.71193831227719783782958984375">
        <ele>3405.800048828125</ele>
        <time>2023-07-29T18:21:47.000Z</time>
        <extensions>
          <ns3:TrackPointExtension>
            <ns3:hr>79</ns3:hr>
            <ns3:cad>47</ns3:cad>
          </ns3:TrackPointExtension>
        </extensions>
      </trkpt>
      <trkpt lat="37.74787100963294506072998046875" lon="-107.711921967566013336181640625">
        <ele>3405.800048828125</ele>
        <time>2023-07-29T18:21:48.000Z</time>
        <extensions>
          <ns3:TrackPointExtension>
            <ns3:hr>79</ns3:hr>
            <ns3:cad>47</ns3:cad>
          </ns3:TrackPointExtension>
        </extensions>
      </trkpt>
      <trkpt lat="37.7478746138513088226318359375" lon="-107.7119157649576663970947265625">
        <ele>3405.60009765625</ele>
        <time>2023-07-29T18:21:49.000Z</time>
        <extensions>
          <ns3:TrackPointExtension>
            <ns3:hr>79</ns3:hr>
            <ns3:cad>0</ns3:cad>
          </ns3:TrackPointExtension>
        </extensions>
      </trkpt>
      <trkpt lat="37.74787737987935543060302734375" lon="-107.711909227073192596435546875">
        <ele>3405.39990234375</ele>
        <time>2023-07-29T18:21:50.000Z</time>
        <extensions>
          <ns3:TrackPointExtension>
            <ns3:hr>79</ns3:hr>
            <ns3:cad>0</ns3:cad>
          </ns3:TrackPointExtension>
        </extensions>
      </trkpt>
      <trkpt lat="37.747878134250640869140625" lon="-107.7119010128080844879150390625">
        <ele>3405</ele>
        <time>2023-07-29T18:21:51.000Z</time>
        <extensions>
          <ns3:TrackPointExtension>
            <ns3:hr>79</ns3:hr>
            <ns3:cad>41</ns3:cad>
          </ns3:TrackPointExtension>
        </extensions>
      </trkpt>
      <trkpt lat="37.74787872098386287689208984375" lon="-107.711897827684879302978515625">
        <ele>3405</ele>
        <time>2023-07-29T18:21:52.000Z</time>
        <extensions>
          <ns3:TrackPointExtension>
            <ns3:hr>79</ns3:hr>
            <ns3:cad>41</ns3:cad>
          </ns3:TrackPointExtension>
        </extensions>
      </trkpt>
      <trkpt lat="37.74787754751741886138916015625" lon="-107.71189657039940357208251953125">
        <ele>3404.60009765625</ele>
        <time>2023-07-29T18:21:53.000Z</time>
        <extensions>
          <ns3:TrackPointExtension>
            <ns3:hr>79</ns3:hr>
            <ns3:cad>41</ns3:cad>
          </ns3:TrackPointExtension>
        </extensions>
      </trkpt>
      <trkpt lat="37.74787771515548229217529296875" lon="-107.7118919603526592254638671875">
        <ele>3404.60009765625</ele>
        <time>2023-07-29T18:21:54.000Z</time>
        <extensions>
          <ns3:TrackPointExtension>
            <ns3:hr>79</ns3:hr>
            <ns3:cad>41</ns3:cad>
          </ns3:TrackPointExtension>
        </extensions>
      </trkpt>
      <trkpt lat="37.74787805043160915374755859375" lon="-107.71188969723880290985107421875">
        <ele>3404.39990234375</ele>
        <time>2023-07-29T18:21:55.000Z</time>
        <extensions>
          <ns3:TrackPointExtension>
            <ns3:hr>79</ns3:hr>
            <ns3:cad>41</ns3:cad>
          </ns3:TrackPointExtension>
        </extensions>
      </trkpt>
      <trkpt lat="37.74788073264062404632568359375" lon="-107.7118765376508235931396484375">
        <ele>3404.39990234375</ele>
        <time>2023-07-29T18:21:56.000Z</time>
        <extensions>
          <ns3:TrackPointExtension>
            <ns3:hr>79</ns3:hr>
            <ns3:cad>41</ns3:cad>
          </ns3:TrackPointExtension>
        </extensions>
      </trkpt>
      <trkpt lat="37.74788324721157550811767578125" lon="-107.7118671499192714691162109375">
        <ele>3404.39990234375</ele>
        <time>2023-07-29T18:21:57.000Z</time>
        <extensions>
          <ns3:TrackPointExtension>
            <ns3:hr>79</ns3:hr>
            <ns3:cad>41</ns3:cad>
          </ns3:TrackPointExtension>
        </extensions>
      </trkpt>
      <trkpt lat="37.7478880248963832855224609375" lon="-107.7118517272174358367919921875">
        <ele>3404.199951171875</ele>
        <time>2023-07-29T18:21:58.000Z</time>
        <extensions>
          <ns3:TrackPointExtension>
            <ns3:hr>79</ns3:hr>
            <ns3:cad>41</ns3:cad>
          </ns3:TrackPointExtension>
        </extensions>
      </trkpt>
      <trkpt lat="37.747891880571842193603515625" lon="-107.711840830743312835693359375">
        <ele>3403.800048828125</ele>
        <time>2023-07-29T18:21:59.000Z</time>
        <extensions>
          <ns3:TrackPointExtension>
            <ns3:hr>79</ns3:hr>
            <ns3:cad>41</ns3:cad>
          </ns3:TrackPointExtension>
        </extensions>
      </trkpt>
      <trkpt lat="37.7478943951427936553955078125" lon="-107.71183152683079242706298828125">
        <ele>3403.60009765625</ele>
        <time>2023-07-29T18:22:00.000Z</time>
        <extensions>
          <ns3:TrackPointExtension>
            <ns3:hr>79</ns3:hr>
            <ns3:cad>41</ns3:cad>
          </ns3:TrackPointExtension>
        </extensions>
      </trkpt>
      <trkpt lat="37.7478970773518085479736328125" lon="-107.71182239055633544921875">
        <ele>3403.39990234375</ele>
        <time>2023-07-29T18:22:01.000Z</time>
        <extensions>
          <ns3:TrackPointExtension>
            <ns3:hr>78</ns3:hr>
            <ns3:cad>41</ns3:cad>
          </ns3:TrackPointExtension>
        </extensions>
      </trkpt>
      <trkpt lat="37.7478969097137451171875" lon="-107.71180856041610240936279296875">
        <ele>3403.199951171875</ele>
        <time>2023-07-29T18:22:02.000Z</time>
        <extensions>
          <ns3:TrackPointExtension>
            <ns3:hr>78</ns3:hr>
            <ns3:cad>41</ns3:cad>
          </ns3:TrackPointExtension>
        </extensions>
      </trkpt>
      <trkpt lat="37.74789632298052310943603515625" lon="-107.7117967419326305389404296875">
        <ele>3403.199951171875</ele>
        <time>2023-07-29T18:22:03.000Z</time>
        <extensions>
          <ns3:TrackPointExtension>
            <ns3:hr>78</ns3:hr>
            <ns3:cad>41</ns3:cad>
          </ns3:TrackPointExtension>
        </extensions>
      </trkpt>
      <trkpt lat="37.7478937245905399322509765625" lon="-107.71178676746785640716552734375">
        <ele>3403</ele>
        <time>2023-07-29T18:22:04.000Z</time>
        <extensions>
          <ns3:TrackPointExtension>
            <ns3:hr>78</ns3:hr>
            <ns3:cad>41</ns3:cad>
          </ns3:TrackPointExtension>
        </extensions>
      </trkpt>
      <trkpt lat="37.747888527810573577880859375" lon="-107.71177151240408420562744140625">
        <ele>3402.800048828125</ele>
        <time>2023-07-29T18:22:05.000Z</time>
        <extensions>
          <ns3:TrackPointExtension>
            <ns3:hr>78</ns3:hr>
            <ns3:cad>60</ns3:cad>
          </ns3:TrackPointExtension>
        </extensions>
      </trkpt>
      <trkpt lat="37.747883163392543792724609375" lon="-107.71175189875066280364990234375">
        <ele>3402.60009765625</ele>
        <time>2023-07-29T18:22:06.000Z</time>
        <extensions>
          <ns3:TrackPointExtension>
            <ns3:hr>78</ns3:hr>
            <ns3:cad>60</ns3:cad>
          </ns3:TrackPointExtension>
        </extensions>
      </trkpt>
      <trkpt lat="37.74787352420389652252197265625" lon="-107.71172943525016307830810546875">
        <ele>3402.60009765625</ele>
        <time>2023-07-29T18:22:07.000Z</time>
        <extensions>
          <ns3:TrackPointExtension>
            <ns3:hr>79</ns3:hr>
            <ns3:cad>56</ns3:cad>
          </ns3:TrackPointExtension>
        </extensions>
      </trkpt>
      <trkpt lat="37.747867070138454437255859375" lon="-107.71171401254832744598388671875">
        <ele>3402.199951171875</ele>
        <time>2023-07-29T18:22:08.000Z</time>
        <extensions>
          <ns3:TrackPointExtension>
            <ns3:hr>80</ns3:hr>
            <ns3:cad>56</ns3:cad>
          </ns3:TrackPointExtension>
        </extensions>
      </trkpt>
      <trkpt lat="37.7478534914553165435791015625" lon="-107.711693979799747467041015625">
        <ele>3402</ele>
        <time>2023-07-29T18:22:09.000Z</time>
        <extensions>
          <ns3:TrackPointExtension>
            <ns3:hr>82</ns3:hr>
            <ns3:cad>56</ns3:cad>
          </ns3:TrackPointExtension>
        </extensions>
      </trkpt>
      <trkpt lat="37.747836895287036895751953125" lon="-107.71167947910726070404052734375">
        <ele>3401.39990234375</ele>
        <time>2023-07-29T18:22:10.000Z</time>
        <extensions>
          <ns3:TrackPointExtension>
            <ns3:hr>84</ns3:hr>
            <ns3:cad>56</ns3:cad>
          </ns3:TrackPointExtension>
        </extensions>
      </trkpt>
      <trkpt lat="37.7478209696710109710693359375" lon="-107.71166346967220306396484375">
        <ele>3401.199951171875</ele>
        <time>2023-07-29T18:22:11.000Z</time>
        <extensions>
          <ns3:TrackPointExtension>
            <ns3:hr>85</ns3:hr>
            <ns3:cad>56</ns3:cad>
          </ns3:TrackPointExtension>
        </extensions>
      </trkpt>
      <trkpt lat="37.74781535379588603973388671875" lon="-107.71165986545383930206298828125">
        <ele>3401</ele>
        <time>2023-07-29T18:22:12.000Z</time>
        <extensions>
          <ns3:TrackPointExtension>
            <ns3:hr>85</ns3:hr>
            <ns3:cad>56</ns3:cad>
          </ns3:TrackPointExtension>
        </extensions>
      </trkpt>
      <trkpt lat="37.7478075586259365081787109375" lon="-107.71165064536035060882568359375">
        <ele>3400.800048828125</ele>
        <time>2023-07-29T18:22:13.000Z</time>
        <extensions>
          <ns3:TrackPointExtension>
            <ns3:hr>85</ns3:hr>
            <ns3:cad>0</ns3:cad>
          </ns3:TrackPointExtension>
        </extensions>
      </trkpt>
      <trkpt lat="37.74779942817986011505126953125" lon="-107.71164511330425739288330078125">
        <ele>3400.60009765625</ele>
        <time>2023-07-29T18:22:14.000Z</time>
        <extensions>
          <ns3:TrackPointExtension>
            <ns3:hr>86</ns3:hr>
            <ns3:cad>0</ns3:cad>
          </ns3:TrackPointExtension>
        </extensions>
      </trkpt>
      <trkpt lat="37.747789286077022552490234375" lon="-107.71163606084883213043212890625">
        <ele>3400.60009765625</ele>
        <time>2023-07-29T18:22:15.000Z</time>
        <extensions>
          <ns3:TrackPointExtension>
            <ns3:hr>89</ns3:hr>
            <ns3:cad>0</ns3:cad>
          </ns3:TrackPointExtension>
        </extensions>
      </trkpt>
      <trkpt lat="37.74777864105999469757080078125" lon="-107.711625583469867706298828125">
        <ele>3400.60009765625</ele>
        <time>2023-07-29T18:22:16.000Z</time>
        <extensions>
          <ns3:TrackPointExtension>
            <ns3:hr>92</ns3:hr>
            <ns3:cad>0</ns3:cad>
          </ns3:TrackPointExtension>
        </extensions>
      </trkpt>
      <trkpt lat="37.74777210317552089691162109375" lon="-107.7116166986525058746337890625">
        <ele>3400.39990234375</ele>
        <time>2023-07-29T18:22:17.000Z</time>
        <extensions>
          <ns3:TrackPointExtension>
            <ns3:hr>94</ns3:hr>
            <ns3:cad>0</ns3:cad>
          </ns3:TrackPointExtension>
        </extensions>
      </trkpt>
      <trkpt lat="37.74776204489171504974365234375" lon="-107.71161158569157123565673828125">
        <ele>3400.39990234375</ele>
        <time>2023-07-29T18:22:18.000Z</time>
        <extensions>
          <ns3:TrackPointExtension>
            <ns3:hr>94</ns3:hr>
            <ns3:cad>0</ns3:cad>
          </ns3:TrackPointExtension>
        </extensions>
      </trkpt>
      <trkpt lat="37.7477438561618328094482421875" lon="-107.71159800700843334197998046875">
        <ele>3400.39990234375</ele>
        <time>2023-07-29T18:22:19.000Z</time>
        <extensions>
          <ns3:TrackPointExtension>
            <ns3:hr>93</ns3:hr>
            <ns3:cad>0</ns3:cad>
          </ns3:TrackPointExtension>
        </extensions>
      </trkpt>
      <trkpt lat="37.74773354642093181610107421875" lon="-107.711592726409435272216796875">
        <ele>3400.39990234375</ele>
        <time>2023-07-29T18:22:20.000Z</time>
        <extensions>
          <ns3:TrackPointExtension>
            <ns3:hr>92</ns3:hr>
            <ns3:cad>0</ns3:cad>
          </ns3:TrackPointExtension>
        </extensions>
      </trkpt>
      <trkpt lat="37.74772147648036479949951171875" lon="-107.7115876972675323486328125">
        <ele>3400.60009765625</ele>
        <time>2023-07-29T18:22:21.000Z</time>
        <extensions>
          <ns3:TrackPointExtension>
            <ns3:hr>90</ns3:hr>
            <ns3:cad>57</ns3:cad>
          </ns3:TrackPointExtension>
        </extensions>
      </trkpt>
      <trkpt lat="37.7477026171982288360595703125" lon="-107.71158040501177310943603515625">
        <ele>3400.60009765625</ele>
        <time>2023-07-29T18:22:22.000Z</time>
        <extensions>
          <ns3:TrackPointExtension>
            <ns3:hr>89</ns3:hr>
            <ns3:cad>57</ns3:cad>
          </ns3:TrackPointExtension>
        </extensions>
      </trkpt>
      <trkpt lat="37.74768945761024951934814453125" lon="-107.71157437004148960113525390625">
        <ele>3400.800048828125</ele>
        <time>2023-07-29T18:22:23.000Z</time>
        <extensions>
          <ns3:TrackPointExtension>
            <ns3:hr>88</ns3:hr>
            <ns3:cad>57</ns3:cad>
          </ns3:TrackPointExtension>
        </extensions>
      </trkpt>
      <trkpt lat="37.74767604656517505645751953125" lon="-107.7115734480321407318115234375">
        <ele>3400.800048828125</ele>
        <time>2023-07-29T18:22:24.000Z</time>
        <extensions>
          <ns3:TrackPointExtension>
            <ns3:hr>87</ns3:hr>
            <ns3:cad>0</ns3:cad>
          </ns3:TrackPointExtension>
        </extensions>
      </trkpt>
      <trkpt lat="37.74766565300524234771728515625" lon="-107.711572609841823577880859375">
        <ele>3400.800048828125</ele>
        <time>2023-07-29T18:22:25.000Z</time>
        <extensions>
          <ns3:TrackPointExtension>
            <ns3:hr>87</ns3:hr>
            <ns3:cad>0</ns3:cad>
          </ns3:TrackPointExtension>
        </extensions>
      </trkpt>
      <trkpt lat="37.74765743874013423919677734375" lon="-107.7115727774798870086669921875">
        <ele>3401</ele>
        <time>2023-07-29T18:22:26.000Z</time>
        <extensions>
          <ns3:TrackPointExtension>
            <ns3:hr>87</ns3:hr>
            <ns3:cad>0</ns3:cad>
          </ns3:TrackPointExtension>
        </extensions>
      </trkpt>
      <trkpt lat="37.7476516552269458770751953125" lon="-107.7115700952708721160888671875">
        <ele>3401</ele>
        <time>2023-07-29T18:22:27.000Z</time>
        <extensions>
          <ns3:TrackPointExtension>
            <ns3:hr>86</ns3:hr>
            <ns3:cad>0</ns3:cad>
          </ns3:TrackPointExtension>
        </extensions>
      </trkpt>
      <trkpt lat="37.74764142930507659912109375" lon="-107.71156481467187404632568359375">
        <ele>3401</ele>
        <time>2023-07-29T18:22:28.000Z</time>
        <extensions>
          <ns3:TrackPointExtension>
            <ns3:hr>85</ns3:hr>
            <ns3:cad>0</ns3:cad>
          </ns3:TrackPointExtension>
        </extensions>
      </trkpt>
      <trkpt lat="37.7476298622786998748779296875" lon="-107.71155945025384426116943359375">
        <ele>3401</ele>
        <time>2023-07-29T18:22:29.000Z</time>
        <extensions>
          <ns3:TrackPointExtension>
            <ns3:hr>85</ns3:hr>
            <ns3:cad>52</ns3:cad>
          </ns3:TrackPointExtension>
        </extensions>
      </trkpt>
      <trkpt lat="37.7476318739354610443115234375" lon="-107.711551152169704437255859375">
        <ele>3401</ele>
        <time>2023-07-29T18:22:30.000Z</time>
        <extensions>
          <ns3:TrackPointExtension>
            <ns3:hr>85</ns3:hr>
            <ns3:cad>52</ns3:cad>
          </ns3:TrackPointExtension>
        </extensions>
      </trkpt>
      <trkpt lat="37.74762558750808238983154296875" lon="-107.71154385991394519805908203125">
        <ele>3401</ele>
        <time>2023-07-29T18:22:31.000Z</time>
        <extensions>
          <ns3:TrackPointExtension>
            <ns3:hr>85</ns3:hr>
            <ns3:cad>52</ns3:cad>
          </ns3:TrackPointExtension>
        </extensions>
      </trkpt>
      <trkpt lat="37.747614271938800811767578125" lon="-107.7115382440388202667236328125">
        <ele>3401</ele>
        <time>2023-07-29T18:22:32.000Z</time>
        <extensions>
          <ns3:TrackPointExtension>
            <ns3:hr>86</ns3:hr>
            <ns3:cad>52</ns3:cad>
          </ns3:TrackPointExtension>
        </extensions>
      </trkpt>
      <trkpt lat="37.74760387837886810302734375" lon="-107.71153338253498077392578125">
        <ele>3401.199951171875</ele>
        <time>2023-07-29T18:22:33.000Z</time>
        <extensions>
          <ns3:TrackPointExtension>
            <ns3:hr>87</ns3:hr>
            <ns3:cad>50</ns3:cad>
          </ns3:TrackPointExtension>
        </extensions>
      </trkpt>
      <trkpt lat="37.7475916408002376556396484375" lon="-107.71153204143047332763671875">
        <ele>3401.199951171875</ele>
        <time>2023-07-29T18:22:34.000Z</time>
        <extensions>
          <ns3:TrackPointExtension>
            <ns3:hr>88</ns3:hr>
            <ns3:cad>50</ns3:cad>
          </ns3:TrackPointExtension>
        </extensions>
      </trkpt>
      <trkpt lat="37.74757546372711658477783203125" lon="-107.7115332148969173431396484375">
        <ele>3401.199951171875</ele>
        <time>2023-07-29T18:22:35.000Z</time>
        <extensions>
          <ns3:TrackPointExtension>
            <ns3:hr>88</ns3:hr>
            <ns3:cad>50</ns3:cad>
          </ns3:TrackPointExtension>
        </extensions>
      </trkpt>
      <trkpt lat="37.74755920283496379852294921875" lon="-107.71153648383915424346923828125">
        <ele>3401</ele>
        <time>2023-07-29T18:22:36.000Z</time>
        <extensions>
          <ns3:TrackPointExtension>
            <ns3:hr>88</ns3:hr>
            <ns3:cad>50</ns3:cad>
          </ns3:TrackPointExtension>
        </extensions>
      </trkpt>
      <trkpt lat="37.747539840638637542724609375" lon="-107.71154017187654972076416015625">
        <ele>3401</ele>
        <time>2023-07-29T18:22:37.000Z</time>
        <extensions>
          <ns3:TrackPointExtension>
            <ns3:hr>89</ns3:hr>
            <ns3:cad>0</ns3:cad>
          </ns3:TrackPointExtension>
        </extensions>
      </trkpt>
      <trkpt lat="37.74752668105065822601318359375" lon="-107.71155056543648242950439453125">
        <ele>3401</ele>
        <time>2023-07-29T18:22:38.000Z</time>
        <extensions>
          <ns3:TrackPointExtension>
            <ns3:hr>89</ns3:hr>
            <ns3:cad>0</ns3:cad>
          </ns3:TrackPointExtension>
        </extensions>
      </trkpt>
      <trkpt lat="37.7475148625671863555908203125" lon="-107.7115553431212902069091796875">
        <ele>3400.800048828125</ele>
        <time>2023-07-29T18:22:39.000Z</time>
        <extensions>
          <ns3:TrackPointExtension>
            <ns3:hr>89</ns3:hr>
            <ns3:cad>0</ns3:cad>
          </ns3:TrackPointExtension>
        </extensions>
      </trkpt>
      <trkpt lat="37.74749969132244586944580078125" lon="-107.71156380884349346160888671875">
        <ele>3400.60009765625</ele>
        <time>2023-07-29T18:22:40.000Z</time>
        <extensions>
          <ns3:TrackPointExtension>
            <ns3:hr>90</ns3:hr>
            <ns3:cad>0</ns3:cad>
          </ns3:TrackPointExtension>
        </extensions>
      </trkpt>
      <trkpt lat="37.74748996831476688385009765625" lon="-107.71156850270926952362060546875">
        <ele>3400.60009765625</ele>
        <time>2023-07-29T18:22:41.000Z</time>
        <extensions>
          <ns3:TrackPointExtension>
            <ns3:hr>90</ns3:hr>
            <ns3:cad>0</ns3:cad>
          </ns3:TrackPointExtension>
        </extensions>
      </trkpt>
      <trkpt lat="37.747483514249324798583984375" lon="-107.71157135255634784698486328125">
        <ele>3400.60009765625</ele>
        <time>2023-07-29T18:22:42.000Z</time>
        <extensions>
          <ns3:TrackPointExtension>
            <ns3:hr>90</ns3:hr>
            <ns3:cad>0</ns3:cad>
          </ns3:TrackPointExtension>
        </extensions>
      </trkpt>
      <trkpt lat="37.74747940711677074432373046875" lon="-107.711573950946331024169921875">
        <ele>3400.39990234375</ele>
        <time>2023-07-29T18:22:43.000Z</time>
        <extensions>
          <ns3:TrackPointExtension>
            <ns3:hr>90</ns3:hr>
            <ns3:cad>0</ns3:cad>
          </ns3:TrackPointExtension>
        </extensions>
      </trkpt>
      <trkpt lat="37.747469432651996612548828125" lon="-107.71157956682145595550537109375">
        <ele>3400.39990234375</ele>
        <time>2023-07-29T18:22:44.000Z</time>
        <extensions>
          <ns3:TrackPointExtension>
            <ns3:hr>90</ns3:hr>
            <ns3:cad>0</ns3:cad>
          </ns3:TrackPointExtension>
        </extensions>
      </trkpt>
      <trkpt lat="37.74746113456785678863525390625" lon="-107.71158426068723201751708984375">
        <ele>3400.199951171875</ele>
        <time>2023-07-29T18:22:45.000Z</time>
        <extensions>
          <ns3:TrackPointExtension>
            <ns3:hr>90</ns3:hr>
            <ns3:cad>0</ns3:cad>
          </ns3:TrackPointExtension>
        </extensions>
      </trkpt>
      <trkpt lat="37.74744671769440174102783203125" lon="-107.71159314550459384918212890625">
        <ele>3400</ele>
        <time>2023-07-29T18:22:46.000Z</time>
        <extensions>
          <ns3:TrackPointExtension>
            <ns3:hr>90</ns3:hr>
            <ns3:cad>0</ns3:cad>
          </ns3:TrackPointExtension>
        </extensions>
      </trkpt>
      <trkpt lat="37.747438587248325347900390625" lon="-107.711600102484226226806640625">
        <ele>3399.800048828125</ele>
        <time>2023-07-29T18:22:47.000Z</time>
        <extensions>
          <ns3:TrackPointExtension>
            <ns3:hr>90</ns3:hr>
            <ns3:cad>0</ns3:cad>
          </ns3:TrackPointExtension>
        </extensions>
      </trkpt>
      <trkpt lat="37.7474283613264560699462890625" lon="-107.7116079814732074737548828125">
        <ele>3399.60009765625</ele>
        <time>2023-07-29T18:22:48.000Z</time>
        <extensions>
          <ns3:TrackPointExtension>
            <ns3:hr>90</ns3:hr>
            <ns3:cad>0</ns3:cad>
          </ns3:TrackPointExtension>
        </extensions>
      </trkpt>
      <trkpt lat="37.7474216558039188385009765625" lon="-107.71161695010960102081298828125">
        <ele>3399.39990234375</ele>
        <time>2023-07-29T18:22:49.000Z</time>
        <extensions>
          <ns3:TrackPointExtension>
            <ns3:hr>91</ns3:hr>
            <ns3:cad>0</ns3:cad>
          </ns3:TrackPointExtension>
        </extensions>
      </trkpt>
      <trkpt lat="37.7474139444530010223388671875" lon="-107.711625583469867706298828125">
        <ele>3399.199951171875</ele>
        <time>2023-07-29T18:22:50.000Z</time>
        <extensions>
          <ns3:TrackPointExtension>
            <ns3:hr>91</ns3:hr>
            <ns3:cad>0</ns3:cad>
          </ns3:TrackPointExtension>
        </extensions>
      </trkpt>
      <trkpt lat="37.7474065683782100677490234375" lon="-107.7116371504962444305419921875">
        <ele>3399</ele>
        <time>2023-07-29T18:22:51.000Z</time>
        <extensions>
          <ns3:TrackPointExtension>
            <ns3:hr>91</ns3:hr>
            <ns3:cad>59</ns3:cad>
          </ns3:TrackPointExtension>
        </extensions>
      </trkpt>
      <trkpt lat="37.74739894084632396697998046875" lon="-107.7116468735039234161376953125">
        <ele>3398.800048828125</ele>
        <time>2023-07-29T18:22:52.000Z</time>
        <extensions>
          <ns3:TrackPointExtension>
            <ns3:hr>91</ns3:hr>
            <ns3:cad>59</ns3:cad>
          </ns3:TrackPointExtension>
        </extensions>
      </trkpt>
      <trkpt lat="37.747395001351833343505859375" lon="-107.71165802143514156341552734375">
        <ele>3398.60009765625</ele>
        <time>2023-07-29T18:22:53.000Z</time>
        <extensions>
          <ns3:TrackPointExtension>
            <ns3:hr>91</ns3:hr>
            <ns3:cad>59</ns3:cad>
          </ns3:TrackPointExtension>
        </extensions>
      </trkpt>
      <trkpt lat="37.74738603271543979644775390625" lon="-107.71167059428989887237548828125">
        <ele>3398.39990234375</ele>
        <time>2023-07-29T18:22:54.000Z</time>
        <extensions>
          <ns3:TrackPointExtension>
            <ns3:hr>91</ns3:hr>
            <ns3:cad>59</ns3:cad>
          </ns3:TrackPointExtension>
        </extensions>
      </trkpt>
      <trkpt lat="37.74737278930842876434326171875" lon="-107.71168987266719341278076171875">
        <ele>3398.39990234375</ele>
        <time>2023-07-29T18:22:55.000Z</time>
        <extensions>
          <ns3:TrackPointExtension>
            <ns3:hr>91</ns3:hr>
            <ns3:cad>59</ns3:cad>
          </ns3:TrackPointExtension>
        </extensions>
      </trkpt>
      <trkpt lat="37.747364155948162078857421875" lon="-107.7117011882364749908447265625">
        <ele>3398.199951171875</ele>
        <time>2023-07-29T18:22:56.000Z</time>
        <extensions>
          <ns3:TrackPointExtension>
            <ns3:hr>91</ns3:hr>
            <ns3:cad>59</ns3:cad>
          </ns3:TrackPointExtension>
        </extensions>
      </trkpt>
      <trkpt lat="37.74735367856919765472412109375" lon="-107.71171283908188343048095703125">
        <ele>3398</ele>
        <time>2023-07-29T18:22:57.000Z</time>
        <extensions>
          <ns3:TrackPointExtension>
            <ns3:hr>91</ns3:hr>
            <ns3:cad>59</ns3:cad>
          </ns3:TrackPointExtension>
        </extensions>
      </trkpt>
      <trkpt lat="37.74734294973313808441162109375" lon="-107.7117286808788776397705078125">
        <ele>3398</ele>
        <time>2023-07-29T18:22:58.000Z</time>
        <extensions>
          <ns3:TrackPointExtension>
            <ns3:hr>90</ns3:hr>
            <ns3:cad>59</ns3:cad>
          </ns3:TrackPointExtension>
        </extensions>
      </trkpt>
      <trkpt lat="37.74733054451644420623779296875" lon="-107.711744606494903564453125">
        <ele>3398</ele>
        <time>2023-07-29T18:22:59.000Z</time>
        <extensions>
          <ns3:TrackPointExtension>
            <ns3:hr>90</ns3:hr>
            <ns3:cad>59</ns3:cad>
          </ns3:TrackPointExtension>
        </extensions>
      </trkpt>
      <trkpt lat="37.74732467718422412872314453125" lon="-107.71175223402678966522216796875">
        <ele>3398</ele>
        <time>2023-07-29T18:23:00.000Z</time>
        <extensions>
          <ns3:TrackPointExtension>
            <ns3:hr>90</ns3:hr>
            <ns3:cad>59</ns3:cad>
          </ns3:TrackPointExtension>
        </extensions>
      </trkpt>
      <trkpt lat="37.74731579236686229705810546875" lon="-107.7117633819580078125">
        <ele>3397.800048828125</ele>
        <time>2023-07-29T18:23:01.000Z</time>
        <extensions>
          <ns3:TrackPointExtension>
            <ns3:hr>90</ns3:hr>
            <ns3:cad>55</ns3:cad>
          </ns3:TrackPointExtension>
        </extensions>
      </trkpt>
      <trkpt lat="37.74730673991143703460693359375" lon="-107.711773104965686798095703125">
        <ele>3398</ele>
        <time>2023-07-29T18:23:02.000Z</time>
        <extensions>
          <ns3:TrackPointExtension>
            <ns3:hr>90</ns3:hr>
            <ns3:cad>54</ns3:cad>
          </ns3:TrackPointExtension>
        </extensions>
      </trkpt>
      <trkpt lat="37.74729768745601177215576171875" lon="-107.71178458817303180694580078125">
        <ele>3397.800048828125</ele>
        <time>2023-07-29T18:23:03.000Z</time>
        <extensions>
          <ns3:TrackPointExtension>
            <ns3:hr>90</ns3:hr>
            <ns3:cad>54</ns3:cad>
          </ns3:TrackPointExtension>
        </extensions>
      </trkpt>
      <trkpt lat="37.7472878806293010711669921875" lon="-107.71179464645683765411376953125">
        <ele>3398</ele>
        <time>2023-07-29T18:23:04.000Z</time>
        <extensions>
          <ns3:TrackPointExtension>
            <ns3:hr>90</ns3:hr>
            <ns3:cad>54</ns3:cad>
          </ns3:TrackPointExtension>
        </extensions>
      </trkpt>
      <trkpt lat="37.7472771517932415008544921875" lon="-107.711804620921611785888671875">
        <ele>3398</ele>
        <time>2023-07-29T18:23:05.000Z</time>
        <extensions>
          <ns3:TrackPointExtension>
            <ns3:hr>90</ns3:hr>
            <ns3:cad>55</ns3:cad>
          </ns3:TrackPointExtension>
        </extensions>
      </trkpt>
      <trkpt lat="37.74726818315684795379638671875" lon="-107.71181208081543445587158203125">
        <ele>3398</ele>
        <time>2023-07-29T18:23:06.000Z</time>
        <extensions>
          <ns3:TrackPointExtension>
            <ns3:hr>89</ns3:hr>
            <ns3:cad>55</ns3:cad>
          </ns3:TrackPointExtension>
        </extensions>
      </trkpt>
      <trkpt lat="37.74725711904466152191162109375" lon="-107.71182280965149402618408203125">
        <ele>3397.800048828125</ele>
        <time>2023-07-29T18:23:07.000Z</time>
        <extensions>
          <ns3:TrackPointExtension>
            <ns3:hr>89</ns3:hr>
            <ns3:cad>55</ns3:cad>
          </ns3:TrackPointExtension>
        </extensions>
      </trkpt>
      <trkpt lat="37.7472449652850627899169921875" lon="-107.71183152683079242706298828125">
        <ele>3397.800048828125</ele>
        <time>2023-07-29T18:23:08.000Z</time>
        <extensions>
          <ns3:TrackPointExtension>
            <ns3:hr>89</ns3:hr>
            <ns3:cad>55</ns3:cad>
          </ns3:TrackPointExtension>
        </extensions>
      </trkpt>
      <trkpt lat="37.74723851121962070465087890625" lon="-107.71183320321142673492431640625">
        <ele>3397.60009765625</ele>
        <time>2023-07-29T18:23:09.000Z</time>
        <extensions>
          <ns3:TrackPointExtension>
            <ns3:hr>89</ns3:hr>
            <ns3:cad>55</ns3:cad>
          </ns3:TrackPointExtension>
        </extensions>
      </trkpt>
      <trkpt lat="37.74722895585000514984130859375" lon="-107.7118433453142642974853515625">
        <ele>3397.60009765625</ele>
        <time>2023-07-29T18:23:10.000Z</time>
        <extensions>
          <ns3:TrackPointExtension>
            <ns3:hr>89</ns3:hr>
            <ns3:cad>0</ns3:cad>
          </ns3:TrackPointExtension>
        </extensions>
      </trkpt>
      <trkpt lat="37.7472201548516750335693359375" lon="-107.71184963174164295196533203125">
        <ele>3397.60009765625</ele>
        <time>2023-07-29T18:23:11.000Z</time>
        <extensions>
          <ns3:TrackPointExtension>
            <ns3:hr>89</ns3:hr>
            <ns3:cad>0</ns3:cad>
          </ns3:TrackPointExtension>
        </extensions>
      </trkpt>
      <trkpt lat="37.74721361696720123291015625" lon="-107.71185499615967273712158203125">
        <ele>3397.39990234375</ele>
        <time>2023-07-29T18:23:12.000Z</time>
        <extensions>
          <ns3:TrackPointExtension>
            <ns3:hr>89</ns3:hr>
            <ns3:cad>57</ns3:cad>
          </ns3:TrackPointExtension>
        </extensions>
      </trkpt>
      <trkpt lat="37.747202217578887939453125" lon="-107.7118604443967342376708984375">
        <ele>3397.199951171875</ele>
        <time>2023-07-29T18:23:13.000Z</time>
        <extensions>
          <ns3:TrackPointExtension>
            <ns3:hr>89</ns3:hr>
            <ns3:cad>57</ns3:cad>
          </ns3:TrackPointExtension>
        </extensions>
      </trkpt>
      <trkpt lat="37.747196517884731292724609375" lon="-107.71186488680541515350341796875">
        <ele>3397.199951171875</ele>
        <time>2023-07-29T18:23:14.000Z</time>
        <extensions>
          <ns3:TrackPointExtension>
            <ns3:hr>89</ns3:hr>
            <ns3:cad>57</ns3:cad>
          </ns3:TrackPointExtension>
        </extensions>
      </trkpt>
      <trkpt lat="37.74718604050576686859130859375" lon="-107.7118728496134281158447265625">
        <ele>3397</ele>
        <time>2023-07-29T18:23:15.000Z</time>
        <extensions>
          <ns3:TrackPointExtension>
            <ns3:hr>88</ns3:hr>
            <ns3:cad>57</ns3:cad>
          </ns3:TrackPointExtension>
        </extensions>
      </trkpt>
      <trkpt lat="37.74717078544199466705322265625" lon="-107.711885087192058563232421875">
        <ele>3397</ele>
        <time>2023-07-29T18:23:16.000Z</time>
        <extensions>
          <ns3:TrackPointExtension>
            <ns3:hr>87</ns3:hr>
            <ns3:cad>57</ns3:cad>
          </ns3:TrackPointExtension>
        </extensions>
      </trkpt>
      <trkpt lat="37.7471624873578548431396484375" lon="-107.7118929661810398101806640625">
        <ele>3396.800048828125</ele>
        <time>2023-07-29T18:23:17.000Z</time>
        <extensions>
          <ns3:TrackPointExtension>
            <ns3:hr>86</ns3:hr>
            <ns3:cad>57</ns3:cad>
          </ns3:TrackPointExtension>
        </extensions>
      </trkpt>
      <trkpt lat="37.7471520937979221343994140625" lon="-107.7119013480842113494873046875">
        <ele>3396.60009765625</ele>
        <time>2023-07-29T18:23:18.000Z</time>
        <extensions>
          <ns3:TrackPointExtension>
            <ns3:hr>86</ns3:hr>
            <ns3:cad>57</ns3:cad>
          </ns3:TrackPointExtension>
        </extensions>
      </trkpt>
      <trkpt lat="37.74714882485568523406982421875" lon="-107.71190713159739971160888671875">
        <ele>3396.60009765625</ele>
        <time>2023-07-29T18:23:19.000Z</time>
        <extensions>
          <ns3:TrackPointExtension>
            <ns3:hr>87</ns3:hr>
            <ns3:cad>57</ns3:cad>
          </ns3:TrackPointExtension>
        </extensions>
      </trkpt>
      <trkpt lat="37.74714044295251369476318359375" lon="-107.71191693842411041259765625">
        <ele>3396.60009765625</ele>
        <time>2023-07-29T18:23:20.000Z</time>
        <extensions>
          <ns3:TrackPointExtension>
            <ns3:hr>87</ns3:hr>
            <ns3:cad>57</ns3:cad>
          </ns3:TrackPointExtension>
        </extensions>
      </trkpt>
      <trkpt lat="37.74713038466870784759521484375" lon="-107.7119264937937259674072265625">
        <ele>3396.60009765625</ele>
        <time>2023-07-29T18:23:21.000Z</time>
        <extensions>
          <ns3:TrackPointExtension>
            <ns3:hr>86</ns3:hr>
            <ns3:cad>57</ns3:cad>
          </ns3:TrackPointExtension>
        </extensions>
      </trkpt>
      <trkpt lat="37.7471185661852359771728515625" lon="-107.7119372226297855377197265625">
        <ele>3396.39990234375</ele>
        <time>2023-07-29T18:23:22.000Z</time>
        <extensions>
          <ns3:TrackPointExtension>
            <ns3:hr>86</ns3:hr>
            <ns3:cad>57</ns3:cad>
          </ns3:TrackPointExtension>
        </extensions>
      </trkpt>
      <trkpt lat="37.7471085079014301300048828125" lon="-107.711950130760669708251953125">
        <ele>3396.39990234375</ele>
        <time>2023-07-29T18:23:23.000Z</time>
        <extensions>
          <ns3:TrackPointExtension>
            <ns3:hr>86</ns3:hr>
            <ns3:cad>57</ns3:cad>
          </ns3:TrackPointExtension>
        </extensions>
      </trkpt>
      <trkpt lat="37.74709786288440227508544921875" lon="-107.7119632065296173095703125">
        <ele>3396.199951171875</ele>
        <time>2023-07-29T18:23:24.000Z</time>
        <extensions>
          <ns3:TrackPointExtension>
            <ns3:hr>86</ns3:hr>
            <ns3:cad>57</ns3:cad>
          </ns3:TrackPointExtension>
        </extensions>
      </trkpt>
      <trkpt lat="37.74708730168640613555908203125" lon="-107.71197720430791378021240234375">
        <ele>3396.199951171875</ele>
        <time>2023-07-29T18:23:25.000Z</time>
        <extensions>
          <ns3:TrackPointExtension>
            <ns3:hr>86</ns3:hr>
            <ns3:cad>57</ns3:cad>
          </ns3:TrackPointExtension>
        </extensions>
      </trkpt>
      <trkpt lat="37.74707757867872714996337890625" lon="-107.71199204027652740478515625">
        <ele>3396.199951171875</ele>
        <time>2023-07-29T18:23:26.000Z</time>
        <extensions>
          <ns3:TrackPointExtension>
            <ns3:hr>86</ns3:hr>
            <ns3:cad>0</ns3:cad>
          </ns3:TrackPointExtension>
        </extensions>
      </trkpt>
      <trkpt lat="37.7470667660236358642578125" lon="-107.7120096422731876373291015625">
        <ele>3396.199951171875</ele>
        <time>2023-07-29T18:23:27.000Z</time>
        <extensions>
          <ns3:TrackPointExtension>
            <ns3:hr>86</ns3:hr>
            <ns3:cad>0</ns3:cad>
          </ns3:TrackPointExtension>
        </extensions>
      </trkpt>
      <trkpt lat="37.74705612100660800933837890625" lon="-107.7120275795459747314453125">
        <ele>3396.199951171875</ele>
        <time>2023-07-29T18:23:28.000Z</time>
        <extensions>
          <ns3:TrackPointExtension>
            <ns3:hr>86</ns3:hr>
            <ns3:cad>0</ns3:cad>
          </ns3:TrackPointExtension>
        </extensions>
      </trkpt>
      <trkpt lat="37.7470471523702144622802734375" lon="-107.7120411582291126251220703125">
        <ele>3396</ele>
        <time>2023-07-29T18:23:29.000Z</time>
        <extensions>
          <ns3:TrackPointExtension>
            <ns3:hr>86</ns3:hr>
            <ns3:cad>54</ns3:cad>
          </ns3:TrackPointExtension>
        </extensions>
      </trkpt>
      <trkpt lat="37.74703617207705974578857421875" lon="-107.712053395807743072509765625">
        <ele>3396</ele>
        <time>2023-07-29T18:23:30.000Z</time>
        <extensions>
          <ns3:TrackPointExtension>
            <ns3:hr>87</ns3:hr>
            <ns3:cad>54</ns3:cad>
          </ns3:TrackPointExtension>
        </extensions>
      </trkpt>
      <trkpt lat="37.74702854454517364501953125" lon="-107.71206186152994632720947265625">
        <ele>3396</ele>
        <time>2023-07-29T18:23:31.000Z</time>
        <extensions>
          <ns3:TrackPointExtension>
            <ns3:hr>87</ns3:hr>
            <ns3:cad>54</ns3:cad>
          </ns3:TrackPointExtension>
        </extensions>
      </trkpt>
      <trkpt lat="37.74702309630811214447021484375" lon="-107.7120616100728511810302734375">
        <ele>3396</ele>
        <time>2023-07-29T18:23:32.000Z</time>
        <extensions>
          <ns3:TrackPointExtension>
            <ns3:hr>87</ns3:hr>
            <ns3:cad>54</ns3:cad>
          </ns3:TrackPointExtension>
        </extensions>
      </trkpt>
      <trkpt lat="37.7470163069665431976318359375" lon="-107.7120659686625003814697265625">
        <ele>3396</ele>
        <time>2023-07-29T18:23:33.000Z</time>
        <extensions>
          <ns3:TrackPointExtension>
            <ns3:hr>87</ns3:hr>
            <ns3:cad>54</ns3:cad>
          </ns3:TrackPointExtension>
        </extensions>
      </trkpt>
      <trkpt lat="37.747005410492420196533203125" lon="-107.7120713330805301666259765625">
        <ele>3396</ele>
        <time>2023-07-29T18:23:34.000Z</time>
        <extensions>
          <ns3:TrackPointExtension>
            <ns3:hr>87</ns3:hr>
            <ns3:cad>0</ns3:cad>
          </ns3:TrackPointExtension>
        </extensions>
      </trkpt>
      <trkpt lat="37.7469945140182971954345703125" lon="-107.71208147518336772918701171875">
        <ele>3395.800048828125</ele>
        <time>2023-07-29T18:23:35.000Z</time>
        <extensions>
          <ns3:TrackPointExtension>
            <ns3:hr>85</ns3:hr>
            <ns3:cad>0</ns3:cad>
          </ns3:TrackPointExtension>
        </extensions>
      </trkpt>
      <trkpt lat="37.74698294699192047119140625" lon="-107.7120919525623321533203125">
        <ele>3395.800048828125</ele>
        <time>2023-07-29T18:23:36.000Z</time>
        <extensions>
          <ns3:TrackPointExtension>
            <ns3:hr>84</ns3:hr>
            <ns3:cad>0</ns3:cad>
          </ns3:TrackPointExtension>
        </extensions>
      </trkpt>
      <trkpt lat="37.74696878157556056976318359375" lon="-107.71210393868386745452880859375">
        <ele>3395.800048828125</ele>
        <time>2023-07-29T18:23:37.000Z</time>
        <extensions>
          <ns3:TrackPointExtension>
            <ns3:hr>83</ns3:hr>
            <ns3:cad>0</ns3:cad>
          </ns3:TrackPointExtension>
        </extensions>
      </trkpt>
      <trkpt lat="37.7469593100249767303466796875" lon="-107.71211449988186359405517578125">
        <ele>3395.800048828125</ele>
        <time>2023-07-29T18:23:38.000Z</time>
        <extensions>
          <ns3:TrackPointExtension>
            <ns3:hr>83</ns3:hr>
            <ns3:cad>0</ns3:cad>
          </ns3:TrackPointExtension>
        </extensions>
      </trkpt>
      <trkpt lat="37.74695218540728092193603515625" lon="-107.7121233008801937103271484375">
        <ele>3395.800048828125</ele>
        <time>2023-07-29T18:23:39.000Z</time>
        <extensions>
          <ns3:TrackPointExtension>
            <ns3:hr>82</ns3:hr>
            <ns3:cad>0</ns3:cad>
          </ns3:TrackPointExtension>
        </extensions>
      </trkpt>
      <trkpt lat="37.7469458989799022674560546875" lon="-107.712131179869174957275390625">
        <ele>3395.60009765625</ele>
        <time>2023-07-29T18:23:40.000Z</time>
        <extensions>
          <ns3:TrackPointExtension>
            <ns3:hr>82</ns3:hr>
            <ns3:cad>0</ns3:cad>
          </ns3:TrackPointExtension>
        </extensions>
      </trkpt>
      <trkpt lat="37.74693676270544528961181640625" lon="-107.71213863976299762725830078125">
        <ele>3395.60009765625</ele>
        <time>2023-07-29T18:23:41.000Z</time>
        <extensions>
          <ns3:TrackPointExtension>
            <ns3:hr>83</ns3:hr>
            <ns3:cad>0</ns3:cad>
          </ns3:TrackPointExtension>
        </extensions>
      </trkpt>
      <trkpt lat="37.74692469276487827301025390625" lon="-107.71214970387518405914306640625">
        <ele>3395.60009765625</ele>
        <time>2023-07-29T18:23:42.000Z</time>
        <extensions>
          <ns3:TrackPointExtension>
            <ns3:hr>83</ns3:hr>
            <ns3:cad>0</ns3:cad>
          </ns3:TrackPointExtension>
        </extensions>
      </trkpt>
      <trkpt lat="37.7469137124717235565185546875" lon="-107.71216110326349735260009765625">
        <ele>3395.39990234375</ele>
        <time>2023-07-29T18:23:43.000Z</time>
        <extensions>
          <ns3:TrackPointExtension>
            <ns3:hr>83</ns3:hr>
            <ns3:cad>0</ns3:cad>
          </ns3:TrackPointExtension>
        </extensions>
      </trkpt>
      <trkpt lat="37.74690357036888599395751953125" lon="-107.7121756039559841156005859375">
        <ele>3395.39990234375</ele>
        <time>2023-07-29T18:23:44.000Z</time>
        <extensions>
          <ns3:TrackPointExtension>
            <ns3:hr>83</ns3:hr>
            <ns3:cad>0</ns3:cad>
          </ns3:TrackPointExtension>
        </extensions>
      </trkpt>
      <trkpt lat="37.74689753539860248565673828125" lon="-107.7121836505830287933349609375">
        <ele>3395.199951171875</ele>
        <time>2023-07-29T18:23:45.000Z</time>
        <extensions>
          <ns3:TrackPointExtension>
            <ns3:hr>83</ns3:hr>
            <ns3:cad>0</ns3:cad>
          </ns3:TrackPointExtension>
        </extensions>
      </trkpt>
      <trkpt lat="37.74689183570444583892822265625" lon="-107.71218809299170970916748046875">
        <ele>3395</ele>
        <time>2023-07-29T18:23:46.000Z</time>
        <extensions>
          <ns3:TrackPointExtension>
            <ns3:hr>83</ns3:hr>
            <ns3:cad>0</ns3:cad>
          </ns3:TrackPointExtension>
        </extensions>
      </trkpt>
      <trkpt lat="37.746884040534496307373046875" lon="-107.71219412796199321746826171875">
        <ele>3394.800048828125</ele>
        <time>2023-07-29T18:23:47.000Z</time>
        <extensions>
          <ns3:TrackPointExtension>
            <ns3:hr>83</ns3:hr>
            <ns3:cad>0</ns3:cad>
          </ns3:TrackPointExtension>
        </extensions>
      </trkpt>
      <trkpt lat="37.74687557481229305267333984375" lon="-107.71219865418970584869384765625">
        <ele>3394.60009765625</ele>
        <time>2023-07-29T18:23:48.000Z</time>
        <extensions>
          <ns3:TrackPointExtension>
            <ns3:hr>83</ns3:hr>
            <ns3:cad>0</ns3:cad>
          </ns3:TrackPointExtension>
        </extensions>
      </trkpt>
      <trkpt lat="37.7468697912991046905517578125" lon="-107.712202258408069610595703125">
        <ele>3394.39990234375</ele>
        <time>2023-07-29T18:23:49.000Z</time>
        <extensions>
          <ns3:TrackPointExtension>
            <ns3:hr>83</ns3:hr>
            <ns3:cad>0</ns3:cad>
          </ns3:TrackPointExtension>
        </extensions>
      </trkpt>
      <trkpt lat="37.7468575537204742431640625" lon="-107.71221508271992206573486328125">
        <ele>3394.199951171875</ele>
        <time>2023-07-29T18:23:50.000Z</time>
        <extensions>
          <ns3:TrackPointExtension>
            <ns3:hr>83</ns3:hr>
            <ns3:cad>0</ns3:cad>
          </ns3:TrackPointExtension>
        </extensions>
      </trkpt>
      <trkpt lat="37.7468510158360004425048828125" lon="-107.71222815848886966705322265625">
        <ele>3394.199951171875</ele>
        <time>2023-07-29T18:23:51.000Z</time>
        <extensions>
          <ns3:TrackPointExtension>
            <ns3:hr>83</ns3:hr>
            <ns3:cad>0</ns3:cad>
          </ns3:TrackPointExtension>
        </extensions>
      </trkpt>
      <trkpt lat="37.74684338830411434173583984375" lon="-107.7122440002858638763427734375">
        <ele>3394</ele>
        <time>2023-07-29T18:23:52.000Z</time>
        <extensions>
          <ns3:TrackPointExtension>
            <ns3:hr>83</ns3:hr>
            <ns3:cad>0</ns3:cad>
          </ns3:TrackPointExtension>
        </extensions>
      </trkpt>
      <trkpt lat="37.74683936499059200286865234375" lon="-107.71225196309387683868408203125">
        <ele>3393.800048828125</ele>
        <time>2023-07-29T18:23:53.000Z</time>
        <extensions>
          <ns3:TrackPointExtension>
            <ns3:hr>84</ns3:hr>
            <ns3:cad>0</ns3:cad>
          </ns3:TrackPointExtension>
        </extensions>
      </trkpt>
      <trkpt lat="37.74683617986738681793212890625" lon="-107.71225900389254093170166015625">
        <ele>3393.60009765625</ele>
        <time>2023-07-29T18:23:54.000Z</time>
        <extensions>
          <ns3:TrackPointExtension>
            <ns3:hr>85</ns3:hr>
            <ns3:cad>0</ns3:cad>
          </ns3:TrackPointExtension>
        </extensions>
      </trkpt>
      <trkpt lat="37.74683031253516674041748046875" lon="-107.71226537413895130157470703125">
        <ele>3393.60009765625</ele>
        <time>2023-07-29T18:23:55.000Z</time>
        <extensions>
          <ns3:TrackPointExtension>
            <ns3:hr>86</ns3:hr>
            <ns3:cad>0</ns3:cad>
          </ns3:TrackPointExtension>
        </extensions>
      </trkpt>
      <trkpt lat="37.74682603776454925537109375" lon="-107.71227073855698108673095703125">
        <ele>3393.60009765625</ele>
        <time>2023-07-29T18:23:56.000Z</time>
        <extensions>
          <ns3:TrackPointExtension>
            <ns3:hr>87</ns3:hr>
            <ns3:cad>0</ns3:cad>
          </ns3:TrackPointExtension>
        </extensions>
      </trkpt>
      <trkpt lat="37.746819667518138885498046875" lon="-107.7122815512120723724365234375">
        <ele>3393.39990234375</ele>
        <time>2023-07-29T18:23:57.000Z</time>
        <extensions>
          <ns3:TrackPointExtension>
            <ns3:hr>87</ns3:hr>
            <ns3:cad>0</ns3:cad>
          </ns3:TrackPointExtension>
        </extensions>
      </trkpt>
      <trkpt lat="37.746811620891094207763671875" lon="-107.71228984929621219635009765625">
        <ele>3393.39990234375</ele>
        <time>2023-07-29T18:23:58.000Z</time>
        <extensions>
          <ns3:TrackPointExtension>
            <ns3:hr>87</ns3:hr>
            <ns3:cad>0</ns3:cad>
          </ns3:TrackPointExtension>
        </extensions>
      </trkpt>
      <trkpt lat="37.746800221502780914306640625" lon="-107.712292782962322235107421875">
        <ele>3393.39990234375</ele>
        <time>2023-07-29T18:23:59.000Z</time>
        <extensions>
          <ns3:TrackPointExtension>
            <ns3:hr>87</ns3:hr>
            <ns3:cad>51</ns3:cad>
          </ns3:TrackPointExtension>
        </extensions>
      </trkpt>
      <trkpt lat="37.74678890593349933624267578125" lon="-107.712295465171337127685546875">
        <ele>3393</ele>
        <time>2023-07-29T18:24:00.000Z</time>
        <extensions>
          <ns3:TrackPointExtension>
            <ns3:hr>88</ns3:hr>
            <ns3:cad>51</ns3:cad>
          </ns3:TrackPointExtension>
        </extensions>
      </trkpt>
      <trkpt lat="37.7467779256403446197509765625" lon="-107.7122966386377811431884765625">
        <ele>3393</ele>
        <time>2023-07-29T18:24:01.000Z</time>
        <extensions>
          <ns3:TrackPointExtension>
            <ns3:hr>88</ns3:hr>
            <ns3:cad>0</ns3:cad>
          </ns3:TrackPointExtension>
        </extensions>
      </trkpt>
      <trkpt lat="37.746769376099109649658203125" lon="-107.71229873411357402801513671875">
        <ele>3392.800048828125</ele>
        <time>2023-07-29T18:24:02.000Z</time>
        <extensions>
          <ns3:TrackPointExtension>
            <ns3:hr>89</ns3:hr>
            <ns3:cad>0</ns3:cad>
          </ns3:TrackPointExtension>
        </extensions>
      </trkpt>
      <trkpt lat="37.74675873108208179473876953125" lon="-107.71230258978903293609619140625">
        <ele>3392.800048828125</ele>
        <time>2023-07-29T18:24:03.000Z</time>
        <extensions>
          <ns3:TrackPointExtension>
            <ns3:hr>90</ns3:hr>
            <ns3:cad>57</ns3:cad>
          </ns3:TrackPointExtension>
        </extensions>
      </trkpt>
      <trkpt lat="37.7467474155128002166748046875" lon="-107.7123060263693332672119140625">
        <ele>3392.60009765625</ele>
        <time>2023-07-29T18:24:04.000Z</time>
        <extensions>
          <ns3:TrackPointExtension>
            <ns3:hr>90</ns3:hr>
            <ns3:cad>57</ns3:cad>
          </ns3:TrackPointExtension>
        </extensions>
      </trkpt>
      <trkpt lat="37.7467407099902629852294921875" lon="-107.71230611018836498260498046875">
        <ele>3392.199951171875</ele>
        <time>2023-07-29T18:24:05.000Z</time>
        <extensions>
          <ns3:TrackPointExtension>
            <ns3:hr>90</ns3:hr>
            <ns3:cad>55</ns3:cad>
          </ns3:TrackPointExtension>
        </extensions>
      </trkpt>
      <trkpt lat="37.74673794396221637725830078125" lon="-107.71230275742709636688232421875">
        <ele>3391.800048828125</ele>
        <time>2023-07-29T18:24:06.000Z</time>
        <extensions>
          <ns3:TrackPointExtension>
            <ns3:hr>91</ns3:hr>
            <ns3:cad>55</ns3:cad>
          </ns3:TrackPointExtension>
        </extensions>
      </trkpt>
      <trkpt lat="37.74673107080161571502685546875" lon="-107.71231030113995075225830078125">
        <ele>3391.60009765625</ele>
        <time>2023-07-29T18:24:07.000Z</time>
        <extensions>
          <ns3:TrackPointExtension>
            <ns3:hr>91</ns3:hr>
            <ns3:cad>0</ns3:cad>
          </ns3:TrackPointExtension>
        </extensions>
      </trkpt>
      <trkpt lat="37.74671883322298526763916015625" lon="-107.71232387982308864593505859375">
        <ele>3391.60009765625</ele>
        <time>2023-07-29T18:24:08.000Z</time>
        <extensions>
          <ns3:TrackPointExtension>
            <ns3:hr>91</ns3:hr>
            <ns3:cad>0</ns3:cad>
          </ns3:TrackPointExtension>
        </extensions>
      </trkpt>
      <trkpt lat="37.74670676328241825103759765625" lon="-107.71233913488686084747314453125">
        <ele>3391.39990234375</ele>
        <time>2023-07-29T18:24:09.000Z</time>
        <extensions>
          <ns3:TrackPointExtension>
            <ns3:hr>90</ns3:hr>
            <ns3:cad>0</ns3:cad>
          </ns3:TrackPointExtension>
        </extensions>
      </trkpt>
      <trkpt lat="37.746699638664722442626953125" lon="-107.712357826530933380126953125">
        <ele>3391.199951171875</ele>
        <time>2023-07-29T18:24:10.000Z</time>
        <extensions>
          <ns3:TrackPointExtension>
            <ns3:hr>90</ns3:hr>
            <ns3:cad>0</ns3:cad>
          </ns3:TrackPointExtension>
        </extensions>
      </trkpt>
      <trkpt lat="37.74669385515153408050537109375" lon="-107.71236713044345378875732421875">
        <ele>3391</ele>
        <time>2023-07-29T18:24:11.000Z</time>
        <extensions>
          <ns3:TrackPointExtension>
            <ns3:hr>90</ns3:hr>
            <ns3:cad>0</ns3:cad>
          </ns3:TrackPointExtension>
        </extensions>
      </trkpt>
      <trkpt lat="37.746689580380916595458984375" lon="-107.7123750932514667510986328125">
        <ele>3391</ele>
        <time>2023-07-29T18:24:12.000Z</time>
        <extensions>
          <ns3:TrackPointExtension>
            <ns3:hr>88</ns3:hr>
            <ns3:cad>0</ns3:cad>
          </ns3:TrackPointExtension>
        </extensions>
      </trkpt>
      <trkpt lat="37.74668413214385509490966796875" lon="-107.71238364279270172119140625">
        <ele>3390.800048828125</ele>
        <time>2023-07-29T18:24:13.000Z</time>
        <extensions>
          <ns3:TrackPointExtension>
            <ns3:hr>86</ns3:hr>
            <ns3:cad>0</ns3:cad>
          </ns3:TrackPointExtension>
        </extensions>
      </trkpt>
      <trkpt lat="37.74667692370712757110595703125" lon="-107.712393365800380706787109375">
        <ele>3390.800048828125</ele>
        <time>2023-07-29T18:24:14.000Z</time>
        <extensions>
          <ns3:TrackPointExtension>
            <ns3:hr>85</ns3:hr>
            <ns3:cad>0</ns3:cad>
          </ns3:TrackPointExtension>
        </extensions>
      </trkpt>
      <trkpt lat="37.746671475470066070556640625" lon="-107.71240233443677425384521484375">
        <ele>3390.800048828125</ele>
        <time>2023-07-29T18:24:15.000Z</time>
        <extensions>
          <ns3:TrackPointExtension>
            <ns3:hr>85</ns3:hr>
            <ns3:cad>0</ns3:cad>
          </ns3:TrackPointExtension>
        </extensions>
      </trkpt>
      <trkpt lat="37.7466659434139728546142578125" lon="-107.71241054870188236236572265625">
        <ele>3390.800048828125</ele>
        <time>2023-07-29T18:24:16.000Z</time>
        <extensions>
          <ns3:TrackPointExtension>
            <ns3:hr>85</ns3:hr>
            <ns3:cad>0</ns3:cad>
          </ns3:TrackPointExtension>
        </extensions>
      </trkpt>
      <trkpt lat="37.7466565556824207305908203125" lon="-107.71241976879537105560302734375">
        <ele>3390.800048828125</ele>
        <time>2023-07-29T18:24:17.000Z</time>
        <extensions>
          <ns3:TrackPointExtension>
            <ns3:hr>85</ns3:hr>
            <ns3:cad>0</ns3:cad>
          </ns3:TrackPointExtension>
        </extensions>
      </trkpt>
      <trkpt lat="37.74664624594151973724365234375" lon="-107.71242915652692317962646484375">
        <ele>3390.60009765625</ele>
        <time>2023-07-29T18:24:18.000Z</time>
        <extensions>
          <ns3:TrackPointExtension>
            <ns3:hr>85</ns3:hr>
            <ns3:cad>0</ns3:cad>
          </ns3:TrackPointExtension>
        </extensions>
      </trkpt>
      <trkpt lat="37.74663719348609447479248046875" lon="-107.71244541741907596588134765625">
        <ele>3390.60009765625</ele>
        <time>2023-07-29T18:24:19.000Z</time>
        <extensions>
          <ns3:TrackPointExtension>
            <ns3:hr>85</ns3:hr>
            <ns3:cad>57</ns3:cad>
          </ns3:TrackPointExtension>
        </extensions>
      </trkpt>
      <trkpt lat="37.74662713520228862762451171875" lon="-107.71246100775897502899169921875">
        <ele>3390.60009765625</ele>
        <time>2023-07-29T18:24:20.000Z</time>
        <extensions>
          <ns3:TrackPointExtension>
            <ns3:hr>85</ns3:hr>
            <ns3:cad>57</ns3:cad>
          </ns3:TrackPointExtension>
        </extensions>
      </trkpt>
      <trkpt lat="37.7466176636517047882080078125" lon="-107.7124786935746669769287109375">
        <ele>3390.60009765625</ele>
        <time>2023-07-29T18:24:21.000Z</time>
        <extensions>
          <ns3:TrackPointExtension>
            <ns3:hr>85</ns3:hr>
            <ns3:cad>57</ns3:cad>
          </ns3:TrackPointExtension>
        </extensions>
      </trkpt>
      <trkpt lat="37.74660877883434295654296875" lon="-107.71249403245747089385986328125">
        <ele>3390.60009765625</ele>
        <time>2023-07-29T18:24:22.000Z</time>
        <extensions>
          <ns3:TrackPointExtension>
            <ns3:hr>85</ns3:hr>
            <ns3:cad>0</ns3:cad>
          </ns3:TrackPointExtension>
        </extensions>
      </trkpt>
      <trkpt lat="37.746599055826663970947265625" lon="-107.712509371340274810791015625">
        <ele>3390.39990234375</ele>
        <time>2023-07-29T18:24:23.000Z</time>
        <extensions>
          <ns3:TrackPointExtension>
            <ns3:hr>85</ns3:hr>
            <ns3:cad>0</ns3:cad>
          </ns3:TrackPointExtension>
        </extensions>
      </trkpt>
      <trkpt lat="37.7465915121138095855712890625" lon="-107.7125229500234127044677734375">
        <ele>3390.39990234375</ele>
        <time>2023-07-29T18:24:24.000Z</time>
        <extensions>
          <ns3:TrackPointExtension>
            <ns3:hr>85</ns3:hr>
            <ns3:cad>0</ns3:cad>
          </ns3:TrackPointExtension>
        </extensions>
      </trkpt>
      <trkpt lat="37.746584974229335784912109375" lon="-107.712534181773662567138671875">
        <ele>3390.199951171875</ele>
        <time>2023-07-29T18:24:25.000Z</time>
        <extensions>
          <ns3:TrackPointExtension>
            <ns3:hr>85</ns3:hr>
            <ns3:cad>0</ns3:cad>
          </ns3:TrackPointExtension>
        </extensions>
      </trkpt>
      <trkpt lat="37.74658019654452800750732421875" lon="-107.7125410549342632293701171875">
        <ele>3390</ele>
        <time>2023-07-29T18:24:26.000Z</time>
        <extensions>
          <ns3:TrackPointExtension>
            <ns3:hr>85</ns3:hr>
            <ns3:cad>0</ns3:cad>
          </ns3:TrackPointExtension>
        </extensions>
      </trkpt>
      <trkpt lat="37.74657399393618106842041015625" lon="-107.7125494368374347686767578125">
        <ele>3390</ele>
        <time>2023-07-29T18:24:27.000Z</time>
        <extensions>
          <ns3:TrackPointExtension>
            <ns3:hr>85</ns3:hr>
            <ns3:cad>55</ns3:cad>
          </ns3:TrackPointExtension>
        </extensions>
      </trkpt>
      <trkpt lat="37.7465683780610561370849609375" lon="-107.71255589090287685394287109375">
        <ele>3390</ele>
        <time>2023-07-29T18:24:28.000Z</time>
        <extensions>
          <ns3:TrackPointExtension>
            <ns3:hr>85</ns3:hr>
            <ns3:cad>55</ns3:cad>
          </ns3:TrackPointExtension>
        </extensions>
      </trkpt>
      <trkpt lat="37.7465569786727428436279296875" lon="-107.71256871521472930908203125">
        <ele>3389.800048828125</ele>
        <time>2023-07-29T18:24:29.000Z</time>
        <extensions>
          <ns3:TrackPointExtension>
            <ns3:hr>86</ns3:hr>
            <ns3:cad>55</ns3:cad>
          </ns3:TrackPointExtension>
        </extensions>
      </trkpt>
      <trkpt lat="37.746548764407634735107421875" lon="-107.712583132088184356689453125">
        <ele>3389.800048828125</ele>
        <time>2023-07-29T18:24:30.000Z</time>
        <extensions>
          <ns3:TrackPointExtension>
            <ns3:hr>86</ns3:hr>
            <ns3:cad>55</ns3:cad>
          </ns3:TrackPointExtension>
        </extensions>
      </trkpt>
      <trkpt lat="37.74654113687574863433837890625" lon="-107.71259411238133907318115234375">
        <ele>3389.60009765625</ele>
        <time>2023-07-29T18:24:31.000Z</time>
        <extensions>
          <ns3:TrackPointExtension>
            <ns3:hr>87</ns3:hr>
            <ns3:cad>55</ns3:cad>
          </ns3:TrackPointExtension>
        </extensions>
      </trkpt>
      <trkpt lat="37.7465345151722431182861328125" lon="-107.712608277797698974609375">
        <ele>3389.60009765625</ele>
        <time>2023-07-29T18:24:32.000Z</time>
        <extensions>
          <ns3:TrackPointExtension>
            <ns3:hr>87</ns3:hr>
            <ns3:cad>0</ns3:cad>
          </ns3:TrackPointExtension>
        </extensions>
      </trkpt>
      <trkpt lat="37.74652772583067417144775390625" lon="-107.7126211859285831451416015625">
        <ele>3389.39990234375</ele>
        <time>2023-07-29T18:24:33.000Z</time>
        <extensions>
          <ns3:TrackPointExtension>
            <ns3:hr>87</ns3:hr>
            <ns3:cad>0</ns3:cad>
          </ns3:TrackPointExtension>
        </extensions>
      </trkpt>
      <trkpt lat="37.74652236141264438629150390625" lon="-107.712634094059467315673828125">
        <ele>3389.199951171875</ele>
        <time>2023-07-29T18:24:34.000Z</time>
        <extensions>
          <ns3:TrackPointExtension>
            <ns3:hr>86</ns3:hr>
            <ns3:cad>0</ns3:cad>
          </ns3:TrackPointExtension>
        </extensions>
      </trkpt>
      <trkpt lat="37.7465157397091388702392578125" lon="-107.7126459963619709014892578125">
        <ele>3389</ele>
        <time>2023-07-29T18:24:35.000Z</time>
        <extensions>
          <ns3:TrackPointExtension>
            <ns3:hr>86</ns3:hr>
            <ns3:cad>57</ns3:cad>
          </ns3:TrackPointExtension>
        </extensions>
      </trkpt>
      <trkpt lat="37.74650911800563335418701171875" lon="-107.71266116760671138763427734375">
        <ele>3388.800048828125</ele>
        <time>2023-07-29T18:24:36.000Z</time>
        <extensions>
          <ns3:TrackPointExtension>
            <ns3:hr>86</ns3:hr>
            <ns3:cad>57</ns3:cad>
          </ns3:TrackPointExtension>
        </extensions>
      </trkpt>
      <trkpt lat="37.74650090374052524566650390625" lon="-107.712675668299198150634765625">
        <ele>3388.60009765625</ele>
        <time>2023-07-29T18:24:37.000Z</time>
        <extensions>
          <ns3:TrackPointExtension>
            <ns3:hr>87</ns3:hr>
            <ns3:cad>57</ns3:cad>
          </ns3:TrackPointExtension>
        </extensions>
      </trkpt>
      <trkpt lat="37.7465006522834300994873046875" lon="-107.712689079344272613525390625">
        <ele>3388.60009765625</ele>
        <time>2023-07-29T18:24:38.000Z</time>
        <extensions>
          <ns3:TrackPointExtension>
            <ns3:hr>87</ns3:hr>
            <ns3:cad>57</ns3:cad>
          </ns3:TrackPointExtension>
        </extensions>
      </trkpt>
      <trkpt lat="37.7464981377124786376953125" lon="-107.71269670687615871429443359375">
        <ele>3388.39990234375</ele>
        <time>2023-07-29T18:24:39.000Z</time>
        <extensions>
          <ns3:TrackPointExtension>
            <ns3:hr>87</ns3:hr>
            <ns3:cad>57</ns3:cad>
          </ns3:TrackPointExtension>
        </extensions>
      </trkpt>
      <trkpt lat="37.7464946173131465911865234375" lon="-107.7127008140087127685546875">
        <ele>3388.39990234375</ele>
        <time>2023-07-29T18:24:40.000Z</time>
        <extensions>
          <ns3:TrackPointExtension>
            <ns3:hr>86</ns3:hr>
            <ns3:cad>57</ns3:cad>
          </ns3:TrackPointExtension>
        </extensions>
      </trkpt>
      <trkpt lat="37.7464855648577213287353515625" lon="-107.71271347068250179290771484375">
        <ele>3388.199951171875</ele>
        <time>2023-07-29T18:24:41.000Z</time>
        <extensions>
          <ns3:TrackPointExtension>
            <ns3:hr>86</ns3:hr>
            <ns3:cad>57</ns3:cad>
          </ns3:TrackPointExtension>
        </extensions>
      </trkpt>
      <trkpt lat="37.74647424928843975067138671875" lon="-107.7127221040427684783935546875">
        <ele>3388.199951171875</ele>
        <time>2023-07-29T18:24:42.000Z</time>
        <extensions>
          <ns3:TrackPointExtension>
            <ns3:hr>86</ns3:hr>
            <ns3:cad>57</ns3:cad>
          </ns3:TrackPointExtension>
        </extensions>
      </trkpt>
      <trkpt lat="37.7464644424617290496826171875" lon="-107.71273367106914520263671875">
        <ele>3388.199951171875</ele>
        <time>2023-07-29T18:24:43.000Z</time>
        <extensions>
          <ns3:TrackPointExtension>
            <ns3:hr>86</ns3:hr>
            <ns3:cad>57</ns3:cad>
          </ns3:TrackPointExtension>
        </extensions>
      </trkpt>
      <trkpt lat="37.7464552223682403564453125" lon="-107.7127405442297458648681640625">
        <ele>3388.199951171875</ele>
        <time>2023-07-29T18:24:44.000Z</time>
        <extensions>
          <ns3:TrackPointExtension>
            <ns3:hr>86</ns3:hr>
            <ns3:cad>57</ns3:cad>
          </ns3:TrackPointExtension>
        </extensions>
      </trkpt>
      <trkpt lat="37.7464506961405277252197265625" lon="-107.712740711867809295654296875">
        <ele>3388</ele>
        <time>2023-07-29T18:24:45.000Z</time>
        <extensions>
          <ns3:TrackPointExtension>
            <ns3:hr>86</ns3:hr>
            <ns3:cad>0</ns3:cad>
          </ns3:TrackPointExtension>
        </extensions>
      </trkpt>
      <trkpt lat="37.7464443258941173553466796875" lon="-107.712741382420063018798828125">
        <ele>3388</ele>
        <time>2023-07-29T18:24:46.000Z</time>
        <extensions>
          <ns3:TrackPointExtension>
            <ns3:hr>86</ns3:hr>
            <ns3:cad>0</ns3:cad>
          </ns3:TrackPointExtension>
        </extensions>
      </trkpt>
      <trkpt lat="37.74644055403769016265869140625" lon="-107.71274297498166561126708984375">
        <ele>3387.60009765625</ele>
        <time>2023-07-29T18:24:47.000Z</time>
        <extensions>
          <ns3:TrackPointExtension>
            <ns3:hr>86</ns3:hr>
            <ns3:cad>0</ns3:cad>
          </ns3:TrackPointExtension>
        </extensions>
      </trkpt>
      <trkpt lat="37.7464295737445354461669921875" lon="-107.7127509377896785736083984375">
        <ele>3387.60009765625</ele>
        <time>2023-07-29T18:24:48.000Z</time>
        <extensions>
          <ns3:TrackPointExtension>
            <ns3:hr>86</ns3:hr>
            <ns3:cad>0</ns3:cad>
          </ns3:TrackPointExtension>
        </extensions>
      </trkpt>
      <trkpt lat="37.74642395786941051483154296875" lon="-107.712755464017391204833984375">
        <ele>3387.60009765625</ele>
        <time>2023-07-29T18:24:49.000Z</time>
        <extensions>
          <ns3:TrackPointExtension>
            <ns3:hr>85</ns3:hr>
            <ns3:cad>0</ns3:cad>
          </ns3:TrackPointExtension>
        </extensions>
      </trkpt>
      <trkpt lat="37.74642060510814189910888671875" lon="-107.71275202743709087371826171875">
        <ele>3387.39990234375</ele>
        <time>2023-07-29T18:24:50.000Z</time>
        <extensions>
          <ns3:TrackPointExtension>
            <ns3:hr>85</ns3:hr>
            <ns3:cad>0</ns3:cad>
          </ns3:TrackPointExtension>
        </extensions>
      </trkpt>
      <trkpt lat="37.74641758762300014495849609375" lon="-107.71274817176163196563720703125">
        <ele>3387.39990234375</ele>
        <time>2023-07-29T18:24:51.000Z</time>
        <extensions>
          <ns3:TrackPointExtension>
            <ns3:hr>85</ns3:hr>
            <ns3:cad>0</ns3:cad>
          </ns3:TrackPointExtension>
        </extensions>
      </trkpt>
      <trkpt lat="37.74641557596623897552490234375" lon="-107.71274842321872711181640625">
        <ele>3387.39990234375</ele>
        <time>2023-07-29T18:24:52.000Z</time>
        <extensions>
          <ns3:TrackPointExtension>
            <ns3:hr>85</ns3:hr>
            <ns3:cad>0</ns3:cad>
          </ns3:TrackPointExtension>
        </extensions>
      </trkpt>
      <trkpt lat="37.74640836752951145172119140625" lon="-107.7127516083419322967529296875">
        <ele>3387.199951171875</ele>
        <time>2023-07-29T18:24:53.000Z</time>
        <extensions>
          <ns3:TrackPointExtension>
            <ns3:hr>84</ns3:hr>
            <ns3:cad>0</ns3:cad>
          </ns3:TrackPointExtension>
        </extensions>
      </trkpt>
      <trkpt lat="37.74639110080897808074951171875" lon="-107.71275973878800868988037109375">
        <ele>3387.199951171875</ele>
        <time>2023-07-29T18:24:54.000Z</time>
        <extensions>
          <ns3:TrackPointExtension>
            <ns3:hr>84</ns3:hr>
            <ns3:cad>53</ns3:cad>
          </ns3:TrackPointExtension>
        </extensions>
      </trkpt>
      <trkpt lat="37.746379785239696502685546875" lon="-107.71276728250086307525634765625">
        <ele>3387</ele>
        <time>2023-07-29T18:24:55.000Z</time>
        <extensions>
          <ns3:TrackPointExtension>
            <ns3:hr>84</ns3:hr>
            <ns3:cad>53</ns3:cad>
          </ns3:TrackPointExtension>
        </extensions>
      </trkpt>
      <trkpt lat="37.74636629037559032440185546875" lon="-107.71277834661304950714111328125">
        <ele>3386.800048828125</ele>
        <time>2023-07-29T18:24:56.000Z</time>
        <extensions>
          <ns3:TrackPointExtension>
            <ns3:hr>84</ns3:hr>
            <ns3:cad>53</ns3:cad>
          </ns3:TrackPointExtension>
        </extensions>
      </trkpt>
      <trkpt lat="37.74634969420731067657470703125" lon="-107.71279175765812397003173828125">
        <ele>3386.60009765625</ele>
        <time>2023-07-29T18:24:57.000Z</time>
        <extensions>
          <ns3:TrackPointExtension>
            <ns3:hr>84</ns3:hr>
            <ns3:cad>53</ns3:cad>
          </ns3:TrackPointExtension>
        </extensions>
      </trkpt>
      <trkpt lat="37.7463430725038051605224609375" lon="-107.7128025703132152557373046875">
        <ele>3386.39990234375</ele>
        <time>2023-07-29T18:24:58.000Z</time>
        <extensions>
          <ns3:TrackPointExtension>
            <ns3:hr>84</ns3:hr>
            <ns3:cad>53</ns3:cad>
          </ns3:TrackPointExtension>
        </extensions>
      </trkpt>
      <trkpt lat="37.74634047411382198333740234375" lon="-107.712819166481494903564453125">
        <ele>3386.199951171875</ele>
        <time>2023-07-29T18:24:59.000Z</time>
        <extensions>
          <ns3:TrackPointExtension>
            <ns3:hr>83</ns3:hr>
            <ns3:cad>55</ns3:cad>
          </ns3:TrackPointExtension>
        </extensions>
      </trkpt>
      <trkpt lat="37.746337540447711944580078125" lon="-107.7128354273736476898193359375">
        <ele>3386</ele>
        <time>2023-07-29T18:25:00.000Z</time>
        <extensions>
          <ns3:TrackPointExtension>
            <ns3:hr>83</ns3:hr>
            <ns3:cad>55</ns3:cad>
          </ns3:TrackPointExtension>
        </extensions>
      </trkpt>
      <trkpt lat="37.74633443914353847503662109375" lon="-107.7128469944000244140625">
        <ele>3385.800048828125</ele>
        <time>2023-07-29T18:25:01.000Z</time>
        <extensions>
          <ns3:TrackPointExtension>
            <ns3:hr>83</ns3:hr>
            <ns3:cad>55</ns3:cad>
          </ns3:TrackPointExtension>
        </extensions>
      </trkpt>
      <trkpt lat="37.7463276498019695281982421875" lon="-107.71285747177898883819580078125">
        <ele>3385.60009765625</ele>
        <time>2023-07-29T18:25:02.000Z</time>
        <extensions>
          <ns3:TrackPointExtension>
            <ns3:hr>83</ns3:hr>
            <ns3:cad>55</ns3:cad>
          </ns3:TrackPointExtension>
        </extensions>
      </trkpt>
      <trkpt lat="37.74631784297525882720947265625" lon="-107.7128656022250652313232421875">
        <ele>3385.60009765625</ele>
        <time>2023-07-29T18:25:03.000Z</time>
        <extensions>
          <ns3:TrackPointExtension>
            <ns3:hr>83</ns3:hr>
            <ns3:cad>0</ns3:cad>
          </ns3:TrackPointExtension>
        </extensions>
      </trkpt>
      <trkpt lat="37.74631080217659473419189453125" lon="-107.71286736242473125457763671875">
        <ele>3385.60009765625</ele>
        <time>2023-07-29T18:25:04.000Z</time>
        <extensions>
          <ns3:TrackPointExtension>
            <ns3:hr>83</ns3:hr>
            <ns3:cad>0</ns3:cad>
          </ns3:TrackPointExtension>
        </extensions>
      </trkpt>
      <trkpt lat="37.74630258791148662567138671875" lon="-107.71286786533892154693603515625">
        <ele>3385.60009765625</ele>
        <time>2023-07-29T18:25:05.000Z</time>
        <extensions>
          <ns3:TrackPointExtension>
            <ns3:hr>83</ns3:hr>
            <ns3:cad>0</ns3:cad>
          </ns3:TrackPointExtension>
        </extensions>
      </trkpt>
      <trkpt lat="37.746298313140869140625" lon="-107.7128642611205577850341796875">
        <ele>3385.60009765625</ele>
        <time>2023-07-29T18:25:06.000Z</time>
        <extensions>
          <ns3:TrackPointExtension>
            <ns3:hr>83</ns3:hr>
            <ns3:cad>0</ns3:cad>
          </ns3:TrackPointExtension>
        </extensions>
      </trkpt>
      <trkpt lat="37.7462874166667461395263671875" lon="-107.7128743194043636322021484375">
        <ele>3385.60009765625</ele>
        <time>2023-07-29T18:25:07.000Z</time>
        <extensions>
          <ns3:TrackPointExtension>
            <ns3:hr>83</ns3:hr>
            <ns3:cad>0</ns3:cad>
          </ns3:TrackPointExtension>
        </extensions>
      </trkpt>
      <trkpt lat="37.74627626873552799224853515625" lon="-107.71288747899234294891357421875">
        <ele>3385.60009765625</ele>
        <time>2023-07-29T18:25:08.000Z</time>
        <extensions>
          <ns3:TrackPointExtension>
            <ns3:hr>84</ns3:hr>
            <ns3:cad>0</ns3:cad>
          </ns3:TrackPointExtension>
        </extensions>
      </trkpt>
      <trkpt lat="37.746262438595294952392578125" lon="-107.71289954893290996551513671875">
        <ele>3385.39990234375</ele>
        <time>2023-07-29T18:25:09.000Z</time>
        <extensions>
          <ns3:TrackPointExtension>
            <ns3:hr>84</ns3:hr>
            <ns3:cad>0</ns3:cad>
          </ns3:TrackPointExtension>
        </extensions>
      </trkpt>
      <trkpt lat="37.74624978192150592803955078125" lon="-107.712914384901523590087890625">
        <ele>3385.199951171875</ele>
        <time>2023-07-29T18:25:10.000Z</time>
        <extensions>
          <ns3:TrackPointExtension>
            <ns3:hr>84</ns3:hr>
            <ns3:cad>53</ns3:cad>
          </ns3:TrackPointExtension>
        </extensions>
      </trkpt>
      <trkpt lat="37.74623519740998744964599609375" lon="-107.712930142879486083984375">
        <ele>3385.199951171875</ele>
        <time>2023-07-29T18:25:11.000Z</time>
        <extensions>
          <ns3:TrackPointExtension>
            <ns3:hr>84</ns3:hr>
            <ns3:cad>53</ns3:cad>
          </ns3:TrackPointExtension>
        </extensions>
      </trkpt>
      <trkpt lat="37.74622413329780101776123046875" lon="-107.71294481121003627777099609375">
        <ele>3385.199951171875</ele>
        <time>2023-07-29T18:25:12.000Z</time>
        <extensions>
          <ns3:TrackPointExtension>
            <ns3:hr>84</ns3:hr>
            <ns3:cad>53</ns3:cad>
          </ns3:TrackPointExtension>
        </extensions>
      </trkpt>
      <trkpt lat="37.74621558375656604766845703125" lon="-107.712956964969635009765625">
        <ele>3385</ele>
        <time>2023-07-29T18:25:13.000Z</time>
        <extensions>
          <ns3:TrackPointExtension>
            <ns3:hr>84</ns3:hr>
            <ns3:cad>53</ns3:cad>
          </ns3:TrackPointExtension>
        </extensions>
      </trkpt>
      <trkpt lat="37.74620971642434597015380859375" lon="-107.7129688672721385955810546875">
        <ele>3385</ele>
        <time>2023-07-29T18:25:14.000Z</time>
        <extensions>
          <ns3:TrackPointExtension>
            <ns3:hr>85</ns3:hr>
            <ns3:cad>57</ns3:cad>
          </ns3:TrackPointExtension>
        </extensions>
      </trkpt>
      <trkpt lat="37.74620451964437961578369140625" lon="-107.71297867409884929656982421875">
        <ele>3385</ele>
        <time>2023-07-29T18:25:15.000Z</time>
        <extensions>
          <ns3:TrackPointExtension>
            <ns3:hr>85</ns3:hr>
            <ns3:cad>57</ns3:cad>
          </ns3:TrackPointExtension>
        </extensions>
      </trkpt>
      <trkpt lat="37.74620234034955501556396484375" lon="-107.71298973821103572845458984375">
        <ele>3384.60009765625</ele>
        <time>2023-07-29T18:25:16.000Z</time>
        <extensions>
          <ns3:TrackPointExtension>
            <ns3:hr>85</ns3:hr>
            <ns3:cad>0</ns3:cad>
          </ns3:TrackPointExtension>
        </extensions>
      </trkpt>
      <trkpt lat="37.74619362317025661468505859375" lon="-107.71300398744642734527587890625">
        <ele>3384.39990234375</ele>
        <time>2023-07-29T18:25:17.000Z</time>
        <extensions>
          <ns3:TrackPointExtension>
            <ns3:hr>84</ns3:hr>
            <ns3:cad>0</ns3:cad>
          </ns3:TrackPointExtension>
        </extensions>
      </trkpt>
      <trkpt lat="37.74618909694254398345947265625" lon="-107.71301840431988239288330078125">
        <ele>3384.39990234375</ele>
        <time>2023-07-29T18:25:18.000Z</time>
        <extensions>
          <ns3:TrackPointExtension>
            <ns3:hr>84</ns3:hr>
            <ns3:cad>0</ns3:cad>
          </ns3:TrackPointExtension>
        </extensions>
      </trkpt>
      <trkpt lat="37.74618557654321193695068359375" lon="-107.71302527748048305511474609375">
        <ele>3384.199951171875</ele>
        <time>2023-07-29T18:25:19.000Z</time>
        <extensions>
          <ns3:TrackPointExtension>
            <ns3:hr>84</ns3:hr>
            <ns3:cad>0</ns3:cad>
          </ns3:TrackPointExtension>
        </extensions>
      </trkpt>
      <trkpt lat="37.74617828428745269775390625" lon="-107.71303449757397174835205078125">
        <ele>3384</ele>
        <time>2023-07-29T18:25:20.000Z</time>
        <extensions>
          <ns3:TrackPointExtension>
            <ns3:hr>84</ns3:hr>
            <ns3:cad>0</ns3:cad>
          </ns3:TrackPointExtension>
        </extensions>
      </trkpt>
      <trkpt lat="37.74617099203169345855712890625" lon="-107.713046483695507049560546875">
        <ele>3384</ele>
        <time>2023-07-29T18:25:21.000Z</time>
        <extensions>
          <ns3:TrackPointExtension>
            <ns3:hr>84</ns3:hr>
            <ns3:cad>0</ns3:cad>
          </ns3:TrackPointExtension>
        </extensions>
      </trkpt>
      <trkpt lat="37.74616219103336334228515625" lon="-107.71306165494024753570556640625">
        <ele>3383.800048828125</ele>
        <time>2023-07-29T18:25:22.000Z</time>
        <extensions>
          <ns3:TrackPointExtension>
            <ns3:hr>85</ns3:hr>
            <ns3:cad>0</ns3:cad>
          </ns3:TrackPointExtension>
        </extensions>
      </trkpt>
      <trkpt lat="37.74615456350147724151611328125" lon="-107.71307623945176601409912109375">
        <ele>3383.60009765625</ele>
        <time>2023-07-29T18:25:23.000Z</time>
        <extensions>
          <ns3:TrackPointExtension>
            <ns3:hr>85</ns3:hr>
            <ns3:cad>0</ns3:cad>
          </ns3:TrackPointExtension>
        </extensions>
      </trkpt>
      <trkpt lat="37.74614903144538402557373046875" lon="-107.71308328025043010711669921875">
        <ele>3383.39990234375</ele>
        <time>2023-07-29T18:25:24.000Z</time>
        <extensions>
          <ns3:TrackPointExtension>
            <ns3:hr>85</ns3:hr>
            <ns3:cad>0</ns3:cad>
          </ns3:TrackPointExtension>
        </extensions>
      </trkpt>
      <trkpt lat="37.74614500813186168670654296875" lon="-107.7130909077823162078857421875">
        <ele>3383.39990234375</ele>
        <time>2023-07-29T18:25:25.000Z</time>
        <extensions>
          <ns3:TrackPointExtension>
            <ns3:hr>85</ns3:hr>
            <ns3:cad>0</ns3:cad>
          </ns3:TrackPointExtension>
        </extensions>
      </trkpt>
      <trkpt lat="37.74613939225673675537109375" lon="-107.71309979259967803955078125">
        <ele>3383.199951171875</ele>
        <time>2023-07-29T18:25:26.000Z</time>
        <extensions>
          <ns3:TrackPointExtension>
            <ns3:hr>85</ns3:hr>
            <ns3:cad>0</ns3:cad>
          </ns3:TrackPointExtension>
        </extensions>
      </trkpt>
      <trkpt lat="37.74613075889647006988525390625" lon="-107.71311295218765735626220703125">
        <ele>3383.199951171875</ele>
        <time>2023-07-29T18:25:27.000Z</time>
        <extensions>
          <ns3:TrackPointExtension>
            <ns3:hr>85</ns3:hr>
            <ns3:cad>0</ns3:cad>
          </ns3:TrackPointExtension>
        </extensions>
      </trkpt>
      <trkpt lat="37.74612137116491794586181640625" lon="-107.71312653087079524993896484375">
        <ele>3383</ele>
        <time>2023-07-29T18:25:28.000Z</time>
        <extensions>
          <ns3:TrackPointExtension>
            <ns3:hr>85</ns3:hr>
            <ns3:cad>0</ns3:cad>
          </ns3:TrackPointExtension>
        </extensions>
      </trkpt>
      <trkpt lat="37.746113240718841552734375" lon="-107.71313239820301532745361328125">
        <ele>3382.800048828125</ele>
        <time>2023-07-29T18:25:29.000Z</time>
        <extensions>
          <ns3:TrackPointExtension>
            <ns3:hr>85</ns3:hr>
            <ns3:cad>0</ns3:cad>
          </ns3:TrackPointExtension>
        </extensions>
      </trkpt>
      <trkpt lat="37.74610846303403377532958984375" lon="-107.71313994191586971282958984375">
        <ele>3382.800048828125</ele>
        <time>2023-07-29T18:25:30.000Z</time>
        <extensions>
          <ns3:TrackPointExtension>
            <ns3:hr>85</ns3:hr>
            <ns3:cad>0</ns3:cad>
          </ns3:TrackPointExtension>
        </extensions>
      </trkpt>
      <trkpt lat="37.74610460735857486724853515625" lon="-107.71314597688615322113037109375">
        <ele>3382.60009765625</ele>
        <time>2023-07-29T18:25:31.000Z</time>
        <extensions>
          <ns3:TrackPointExtension>
            <ns3:hr>85</ns3:hr>
            <ns3:cad>0</ns3:cad>
          </ns3:TrackPointExtension>
        </extensions>
      </trkpt>
      <trkpt lat="37.74609781801700592041015625" lon="-107.71315469406545162200927734375">
        <ele>3382.60009765625</ele>
        <time>2023-07-29T18:25:32.000Z</time>
        <extensions>
          <ns3:TrackPointExtension>
            <ns3:hr>85</ns3:hr>
            <ns3:cad>0</ns3:cad>
          </ns3:TrackPointExtension>
        </extensions>
      </trkpt>
      <trkpt lat="37.746091783046722412109375" lon="-107.7131594717502593994140625">
        <ele>3382.39990234375</ele>
        <time>2023-07-29T18:25:33.000Z</time>
        <extensions>
          <ns3:TrackPointExtension>
            <ns3:hr>85</ns3:hr>
            <ns3:cad>0</ns3:cad>
          </ns3:TrackPointExtension>
        </extensions>
      </trkpt>
      <trkpt lat="37.74608667008578777313232421875" lon="-107.71315955556929111480712890625">
        <ele>3382.199951171875</ele>
        <time>2023-07-29T18:25:34.000Z</time>
        <extensions>
          <ns3:TrackPointExtension>
            <ns3:hr>85</ns3:hr>
            <ns3:cad>51</ns3:cad>
          </ns3:TrackPointExtension>
        </extensions>
      </trkpt>
      <trkpt lat="37.74608314968645572662353515625" lon="-107.71316441707313060760498046875">
        <ele>3382</ele>
        <time>2023-07-29T18:25:35.000Z</time>
        <extensions>
          <ns3:TrackPointExtension>
            <ns3:hr>85</ns3:hr>
            <ns3:cad>51</ns3:cad>
          </ns3:TrackPointExtension>
        </extensions>
      </trkpt>
      <trkpt lat="37.746082060039043426513671875" lon="-107.71316089667379856109619140625">
        <ele>3381.800048828125</ele>
        <time>2023-07-29T18:25:36.000Z</time>
        <extensions>
          <ns3:TrackPointExtension>
            <ns3:hr>85</ns3:hr>
            <ns3:cad>51</ns3:cad>
          </ns3:TrackPointExtension>
        </extensions>
      </trkpt>
      <trkpt lat="37.7460761927068233489990234375" lon="-107.71316592581570148468017578125">
        <ele>3381.800048828125</ele>
        <time>2023-07-29T18:25:37.000Z</time>
        <extensions>
          <ns3:TrackPointExtension>
            <ns3:hr>85</ns3:hr>
            <ns3:cad>51</ns3:cad>
          </ns3:TrackPointExtension>
        </extensions>
      </trkpt>
      <trkpt lat="37.7460701577365398406982421875" lon="-107.71317229606211185455322265625">
        <ele>3381.60009765625</ele>
        <time>2023-07-29T18:25:38.000Z</time>
        <extensions>
          <ns3:TrackPointExtension>
            <ns3:hr>85</ns3:hr>
            <ns3:cad>0</ns3:cad>
          </ns3:TrackPointExtension>
        </extensions>
      </trkpt>
      <trkpt lat="37.7460617758333683013916015625" lon="-107.71317866630852222442626953125">
        <ele>3381.39990234375</ele>
        <time>2023-07-29T18:25:39.000Z</time>
        <extensions>
          <ns3:TrackPointExtension>
            <ns3:hr>85</ns3:hr>
            <ns3:cad>0</ns3:cad>
          </ns3:TrackPointExtension>
        </extensions>
      </trkpt>
      <trkpt lat="37.74605230428278446197509765625" lon="-107.7131878025829792022705078125">
        <ele>3381.199951171875</ele>
        <time>2023-07-29T18:25:40.000Z</time>
        <extensions>
          <ns3:TrackPointExtension>
            <ns3:hr>85</ns3:hr>
            <ns3:cad>0</ns3:cad>
          </ns3:TrackPointExtension>
        </extensions>
      </trkpt>
      <trkpt lat="37.74604325182735919952392578125" lon="-107.71320029161870479583740234375">
        <ele>3381</ele>
        <time>2023-07-29T18:25:41.000Z</time>
        <extensions>
          <ns3:TrackPointExtension>
            <ns3:hr>85</ns3:hr>
            <ns3:cad>0</ns3:cad>
          </ns3:TrackPointExtension>
        </extensions>
      </trkpt>
      <trkpt lat="37.74603470228612422943115234375" lon="-107.71321370266377925872802734375">
        <ele>3381</ele>
        <time>2023-07-29T18:25:42.000Z</time>
        <extensions>
          <ns3:TrackPointExtension>
            <ns3:hr>86</ns3:hr>
            <ns3:cad>0</ns3:cad>
          </ns3:TrackPointExtension>
        </extensions>
      </trkpt>
      <trkpt lat="37.7460205368697643280029296875" lon="-107.71323147229850292205810546875">
        <ele>3380.800048828125</ele>
        <time>2023-07-29T18:25:43.000Z</time>
        <extensions>
          <ns3:TrackPointExtension>
            <ns3:hr>86</ns3:hr>
            <ns3:cad>0</ns3:cad>
          </ns3:TrackPointExtension>
        </extensions>
      </trkpt>
      <trkpt lat="37.746009640395641326904296875" lon="-107.71323985420167446136474609375">
        <ele>3380.60009765625</ele>
        <time>2023-07-29T18:25:44.000Z</time>
        <extensions>
          <ns3:TrackPointExtension>
            <ns3:hr>86</ns3:hr>
            <ns3:cad>0</ns3:cad>
          </ns3:TrackPointExtension>
        </extensions>
      </trkpt>
      <trkpt lat="37.74599455296993255615234375" lon="-107.7132546901702880859375">
        <ele>3380.60009765625</ele>
        <time>2023-07-29T18:25:45.000Z</time>
        <extensions>
          <ns3:TrackPointExtension>
            <ns3:hr>86</ns3:hr>
            <ns3:cad>0</ns3:cad>
          </ns3:TrackPointExtension>
        </extensions>
      </trkpt>
      <trkpt lat="37.7459876798093318939208984375" lon="-107.713259048759937286376953125">
        <ele>3380.39990234375</ele>
        <time>2023-07-29T18:25:46.000Z</time>
        <extensions>
          <ns3:TrackPointExtension>
            <ns3:hr>86</ns3:hr>
            <ns3:cad>0</ns3:cad>
          </ns3:TrackPointExtension>
        </extensions>
      </trkpt>
      <trkpt lat="37.7459823153913021087646484375" lon="-107.71326215006411075592041015625">
        <ele>3380.39990234375</ele>
        <time>2023-07-29T18:25:47.000Z</time>
        <extensions>
          <ns3:TrackPointExtension>
            <ns3:hr>86</ns3:hr>
            <ns3:cad>44</ns3:cad>
          </ns3:TrackPointExtension>
        </extensions>
      </trkpt>
      <trkpt lat="37.7459756098687648773193359375" lon="-107.71326516754925251007080078125">
        <ele>3380.199951171875</ele>
        <time>2023-07-29T18:25:48.000Z</time>
        <extensions>
          <ns3:TrackPointExtension>
            <ns3:hr>86</ns3:hr>
            <ns3:cad>44</ns3:cad>
          </ns3:TrackPointExtension>
        </extensions>
      </trkpt>
      <trkpt lat="37.7459689043462276458740234375" lon="-107.7132682688534259796142578125">
        <ele>3380</ele>
        <time>2023-07-29T18:25:49.000Z</time>
        <extensions>
          <ns3:TrackPointExtension>
            <ns3:hr>86</ns3:hr>
            <ns3:cad>44</ns3:cad>
          </ns3:TrackPointExtension>
        </extensions>
      </trkpt>
      <trkpt lat="37.74596530012786388397216796875" lon="-107.7132702805101871490478515625">
        <ele>3380</ele>
        <time>2023-07-29T18:25:50.000Z</time>
        <extensions>
          <ns3:TrackPointExtension>
            <ns3:hr>85</ns3:hr>
            <ns3:cad>44</ns3:cad>
          </ns3:TrackPointExtension>
        </extensions>
      </trkpt>
      <trkpt lat="37.74595909751951694488525390625" lon="-107.71327137015759944915771484375">
        <ele>3380</ele>
        <time>2023-07-29T18:25:51.000Z</time>
        <extensions>
          <ns3:TrackPointExtension>
            <ns3:hr>84</ns3:hr>
            <ns3:cad>44</ns3:cad>
          </ns3:TrackPointExtension>
        </extensions>
      </trkpt>
      <trkpt lat="37.74594820104539394378662109375" lon="-107.713276483118534088134765625">
        <ele>3379.800048828125</ele>
        <time>2023-07-29T18:25:52.000Z</time>
        <extensions>
          <ns3:TrackPointExtension>
            <ns3:hr>84</ns3:hr>
            <ns3:cad>44</ns3:cad>
          </ns3:TrackPointExtension>
        </extensions>
      </trkpt>
      <trkpt lat="37.7459404058754444122314453125" lon="-107.71328084170818328857421875">
        <ele>3379.800048828125</ele>
        <time>2023-07-29T18:25:53.000Z</time>
        <extensions>
          <ns3:TrackPointExtension>
            <ns3:hr>84</ns3:hr>
            <ns3:cad>0</ns3:cad>
          </ns3:TrackPointExtension>
        </extensions>
      </trkpt>
      <trkpt lat="37.7459313534200191497802734375" lon="-107.71328880451619625091552734375">
        <ele>3379.60009765625</ele>
        <time>2023-07-29T18:25:54.000Z</time>
        <extensions>
          <ns3:TrackPointExtension>
            <ns3:hr>84</ns3:hr>
            <ns3:cad>0</ns3:cad>
          </ns3:TrackPointExtension>
        </extensions>
      </trkpt>
      <trkpt lat="37.74592506699264049530029296875" lon="-107.71329483948647975921630859375">
        <ele>3379.39990234375</ele>
        <time>2023-07-29T18:25:55.000Z</time>
        <extensions>
          <ns3:TrackPointExtension>
            <ns3:hr>83</ns3:hr>
            <ns3:cad>53</ns3:cad>
          </ns3:TrackPointExtension>
        </extensions>
      </trkpt>
      <trkpt lat="37.74591987021267414093017578125" lon="-107.7133004553616046905517578125">
        <ele>3379.199951171875</ele>
        <time>2023-07-29T18:25:56.000Z</time>
        <extensions>
          <ns3:TrackPointExtension>
            <ns3:hr>82</ns3:hr>
            <ns3:cad>53</ns3:cad>
          </ns3:TrackPointExtension>
        </extensions>
      </trkpt>
      <trkpt lat="37.745904363691806793212890625" lon="-107.71331378258764743804931640625">
        <ele>3378.800048828125</ele>
        <time>2023-07-29T18:25:57.000Z</time>
        <extensions>
          <ns3:TrackPointExtension>
            <ns3:hr>82</ns3:hr>
            <ns3:cad>53</ns3:cad>
          </ns3:TrackPointExtension>
        </extensions>
      </trkpt>
      <trkpt lat="37.74589573033154010772705078125" lon="-107.71332233212888240814208984375">
        <ele>3378.60009765625</ele>
        <time>2023-07-29T18:25:58.000Z</time>
        <extensions>
          <ns3:TrackPointExtension>
            <ns3:hr>82</ns3:hr>
            <ns3:cad>53</ns3:cad>
          </ns3:TrackPointExtension>
        </extensions>
      </trkpt>
      <trkpt lat="37.7458904497325420379638671875" lon="-107.7133319713175296783447265625">
        <ele>3378.39990234375</ele>
        <time>2023-07-29T18:25:59.000Z</time>
        <extensions>
          <ns3:TrackPointExtension>
            <ns3:hr>82</ns3:hr>
            <ns3:cad>53</ns3:cad>
          </ns3:TrackPointExtension>
        </extensions>
      </trkpt>
      <trkpt lat="37.74588382802903652191162109375" lon="-107.71334446035325527191162109375">
        <ele>3378.199951171875</ele>
        <time>2023-07-29T18:26:00.000Z</time>
        <extensions>
          <ns3:TrackPointExtension>
            <ns3:hr>82</ns3:hr>
            <ns3:cad>58</ns3:cad>
          </ns3:TrackPointExtension>
        </extensions>
      </trkpt>
      <trkpt lat="37.74588324129581451416015625" lon="-107.713354267179965972900390625">
        <ele>3378.199951171875</ele>
        <time>2023-07-29T18:26:01.000Z</time>
        <extensions>
          <ns3:TrackPointExtension>
            <ns3:hr>82</ns3:hr>
            <ns3:cad>58</ns3:cad>
          </ns3:TrackPointExtension>
        </extensions>
      </trkpt>
      <trkpt lat="37.74588081054389476776123046875" lon="-107.7133675105869770050048828125">
        <ele>3378</ele>
        <time>2023-07-29T18:26:02.000Z</time>
        <extensions>
          <ns3:TrackPointExtension>
            <ns3:hr>84</ns3:hr>
            <ns3:cad>58</ns3:cad>
          </ns3:TrackPointExtension>
        </extensions>
      </trkpt>
      <trkpt lat="37.7458800561726093292236328125" lon="-107.71337463520467281341552734375">
        <ele>3377.800048828125</ele>
        <time>2023-07-29T18:26:03.000Z</time>
        <extensions>
          <ns3:TrackPointExtension>
            <ns3:hr>85</ns3:hr>
            <ns3:cad>0</ns3:cad>
          </ns3:TrackPointExtension>
        </extensions>
      </trkpt>
      <trkpt lat="37.74588055908679962158203125" lon="-107.7133839391171932220458984375">
        <ele>3377.800048828125</ele>
        <time>2023-07-29T18:26:04.000Z</time>
        <extensions>
          <ns3:TrackPointExtension>
            <ns3:hr>86</ns3:hr>
            <ns3:cad>0</ns3:cad>
          </ns3:TrackPointExtension>
        </extensions>
      </trkpt>
      <trkpt lat="37.74587695486843585968017578125" lon="-107.7133953385055065155029296875">
        <ele>3377.800048828125</ele>
        <time>2023-07-29T18:26:05.000Z</time>
        <extensions>
          <ns3:TrackPointExtension>
            <ns3:hr>86</ns3:hr>
            <ns3:cad>0</ns3:cad>
          </ns3:TrackPointExtension>
        </extensions>
      </trkpt>
      <trkpt lat="37.74587452411651611328125" lon="-107.713397182524204254150390625">
        <ele>3377.60009765625</ele>
        <time>2023-07-29T18:26:06.000Z</time>
        <extensions>
          <ns3:TrackPointExtension>
            <ns3:hr>87</ns3:hr>
            <ns3:cad>0</ns3:cad>
          </ns3:TrackPointExtension>
        </extensions>
      </trkpt>
      <trkpt lat="37.74587142281234264373779296875" lon="-107.71340246312320232391357421875">
        <ele>3377.60009765625</ele>
        <time>2023-07-29T18:26:07.000Z</time>
        <extensions>
          <ns3:TrackPointExtension>
            <ns3:hr>87</ns3:hr>
            <ns3:cad>0</ns3:cad>
          </ns3:TrackPointExtension>
        </extensions>
      </trkpt>
      <trkpt lat="37.7458659745752811431884765625" lon="-107.7134094201028347015380859375">
        <ele>3377.60009765625</ele>
        <time>2023-07-29T18:26:08.000Z</time>
        <extensions>
          <ns3:TrackPointExtension>
            <ns3:hr>87</ns3:hr>
            <ns3:cad>0</ns3:cad>
          </ns3:TrackPointExtension>
        </extensions>
      </trkpt>
      <trkpt lat="37.74586052633821964263916015625" lon="-107.713417299091815948486328125">
        <ele>3377.60009765625</ele>
        <time>2023-07-29T18:26:09.000Z</time>
        <extensions>
          <ns3:TrackPointExtension>
            <ns3:hr>87</ns3:hr>
            <ns3:cad>0</ns3:cad>
          </ns3:TrackPointExtension>
        </extensions>
      </trkpt>
      <trkpt lat="37.7458555810153484344482421875" lon="-107.71342433989048004150390625">
        <ele>3377.60009765625</ele>
        <time>2023-07-29T18:26:10.000Z</time>
        <extensions>
          <ns3:TrackPointExtension>
            <ns3:hr>87</ns3:hr>
            <ns3:cad>0</ns3:cad>
          </ns3:TrackPointExtension>
        </extensions>
      </trkpt>
      <trkpt lat="37.74585013277828693389892578125" lon="-107.7134305424988269805908203125">
        <ele>3377.60009765625</ele>
        <time>2023-07-29T18:26:11.000Z</time>
        <extensions>
          <ns3:TrackPointExtension>
            <ns3:hr>87</ns3:hr>
            <ns3:cad>0</ns3:cad>
          </ns3:TrackPointExtension>
        </extensions>
      </trkpt>
      <trkpt lat="37.74584376253187656402587890625" lon="-107.713438086211681365966796875">
        <ele>3377.60009765625</ele>
        <time>2023-07-29T18:26:12.000Z</time>
        <extensions>
          <ns3:TrackPointExtension>
            <ns3:hr>87</ns3:hr>
            <ns3:cad>0</ns3:cad>
          </ns3:TrackPointExtension>
        </extensions>
      </trkpt>
      <trkpt lat="37.74584141559898853302001953125" lon="-107.71344068460166454315185546875">
        <ele>3377.39990234375</ele>
        <time>2023-07-29T18:26:13.000Z</time>
        <extensions>
          <ns3:TrackPointExtension>
            <ns3:hr>87</ns3:hr>
            <ns3:cad>0</ns3:cad>
          </ns3:TrackPointExtension>
        </extensions>
      </trkpt>
      <trkpt lat="37.7458337880671024322509765625" lon="-107.7134545147418975830078125">
        <ele>3377.199951171875</ele>
        <time>2023-07-29T18:26:14.000Z</time>
        <extensions>
          <ns3:TrackPointExtension>
            <ns3:hr>87</ns3:hr>
            <ns3:cad>53</ns3:cad>
          </ns3:TrackPointExtension>
        </extensions>
      </trkpt>
      <trkpt lat="37.74582532234489917755126953125" lon="-107.7134707756340503692626953125">
        <ele>3377</ele>
        <time>2023-07-29T18:26:15.000Z</time>
        <extensions>
          <ns3:TrackPointExtension>
            <ns3:hr>87</ns3:hr>
            <ns3:cad>55</ns3:cad>
          </ns3:TrackPointExtension>
        </extensions>
      </trkpt>
      <trkpt lat="37.74581744335591793060302734375" lon="-107.713482342660427093505859375">
        <ele>3377</ele>
        <time>2023-07-29T18:26:16.000Z</time>
        <extensions>
          <ns3:TrackPointExtension>
            <ns3:hr>87</ns3:hr>
            <ns3:cad>55</ns3:cad>
          </ns3:TrackPointExtension>
        </extensions>
      </trkpt>
      <trkpt lat="37.74580704979598522186279296875" lon="-107.7134962566196918487548828125">
        <ele>3377</ele>
        <time>2023-07-29T18:26:17.000Z</time>
        <extensions>
          <ns3:TrackPointExtension>
            <ns3:hr>87</ns3:hr>
            <ns3:cad>55</ns3:cad>
          </ns3:TrackPointExtension>
        </extensions>
      </trkpt>
      <trkpt lat="37.74579481221735477447509765625" lon="-107.7135100029408931732177734375">
        <ele>3376.800048828125</ele>
        <time>2023-07-29T18:26:18.000Z</time>
        <extensions>
          <ns3:TrackPointExtension>
            <ns3:hr>87</ns3:hr>
            <ns3:cad>55</ns3:cad>
          </ns3:TrackPointExtension>
        </extensions>
      </trkpt>
      <trkpt lat="37.7457895316183567047119140625" lon="-107.7135173790156841278076171875">
        <ele>3376.800048828125</ele>
        <time>2023-07-29T18:26:19.000Z</time>
        <extensions>
          <ns3:TrackPointExtension>
            <ns3:hr>87</ns3:hr>
            <ns3:cad>55</ns3:cad>
          </ns3:TrackPointExtension>
        </extensions>
      </trkpt>
      <trkpt lat="37.74578609503805637359619140625" lon="-107.71352316252887248992919921875">
        <ele>3376.60009765625</ele>
        <time>2023-07-29T18:26:20.000Z</time>
        <extensions>
          <ns3:TrackPointExtension>
            <ns3:hr>87</ns3:hr>
            <ns3:cad>55</ns3:cad>
          </ns3:TrackPointExtension>
        </extensions>
      </trkpt>
      <trkpt lat="37.74578006006777286529541015625" lon="-107.71353120915591716766357421875">
        <ele>3376.60009765625</ele>
        <time>2023-07-29T18:26:21.000Z</time>
        <extensions>
          <ns3:TrackPointExtension>
            <ns3:hr>87</ns3:hr>
            <ns3:cad>55</ns3:cad>
          </ns3:TrackPointExtension>
        </extensions>
      </trkpt>
      <trkpt lat="37.74577285163104534149169921875" lon="-107.7135403454303741455078125">
        <ele>3376.39990234375</ele>
        <time>2023-07-29T18:26:22.000Z</time>
        <extensions>
          <ns3:TrackPointExtension>
            <ns3:hr>87</ns3:hr>
            <ns3:cad>55</ns3:cad>
          </ns3:TrackPointExtension>
        </extensions>
      </trkpt>
      <trkpt lat="37.745764218270778656005859375" lon="-107.7135478891432285308837890625">
        <ele>3376.39990234375</ele>
        <time>2023-07-29T18:26:23.000Z</time>
        <extensions>
          <ns3:TrackPointExtension>
            <ns3:hr>87</ns3:hr>
            <ns3:cad>0</ns3:cad>
          </ns3:TrackPointExtension>
        </extensions>
      </trkpt>
      <trkpt lat="37.74575323797762393951416015625" lon="-107.71355953998863697052001953125">
        <ele>3376.199951171875</ele>
        <time>2023-07-29T18:26:24.000Z</time>
        <extensions>
          <ns3:TrackPointExtension>
            <ns3:hr>87</ns3:hr>
            <ns3:cad>0</ns3:cad>
          </ns3:TrackPointExtension>
        </extensions>
      </trkpt>
      <trkpt lat="37.74574217386543750762939453125" lon="-107.7135696820914745330810546875">
        <ele>3376</ele>
        <time>2023-07-29T18:26:25.000Z</time>
        <extensions>
          <ns3:TrackPointExtension>
            <ns3:hr>86</ns3:hr>
            <ns3:cad>0</ns3:cad>
          </ns3:TrackPointExtension>
        </extensions>
      </trkpt>
      <trkpt lat="37.74572960101068019866943359375" lon="-107.713584937155246734619140625">
        <ele>3376</ele>
        <time>2023-07-29T18:26:26.000Z</time>
        <extensions>
          <ns3:TrackPointExtension>
            <ns3:hr>86</ns3:hr>
            <ns3:cad>0</ns3:cad>
          </ns3:TrackPointExtension>
        </extensions>
      </trkpt>
      <trkpt lat="37.74572088383138179779052734375" lon="-107.7135931514203548431396484375">
        <ele>3376</ele>
        <time>2023-07-29T18:26:27.000Z</time>
        <extensions>
          <ns3:TrackPointExtension>
            <ns3:hr>86</ns3:hr>
            <ns3:cad>0</ns3:cad>
          </ns3:TrackPointExtension>
        </extensions>
      </trkpt>
      <trkpt lat="37.7457122504711151123046875" lon="-107.7136011980473995208740234375">
        <ele>3376</ele>
        <time>2023-07-29T18:26:28.000Z</time>
        <extensions>
          <ns3:TrackPointExtension>
            <ns3:hr>86</ns3:hr>
            <ns3:cad>0</ns3:cad>
          </ns3:TrackPointExtension>
        </extensions>
      </trkpt>
      <trkpt lat="37.7457040362060070037841796875" lon="-107.7136102505028247833251953125">
        <ele>3375.800048828125</ele>
        <time>2023-07-29T18:26:29.000Z</time>
        <extensions>
          <ns3:TrackPointExtension>
            <ns3:hr>86</ns3:hr>
            <ns3:cad>0</ns3:cad>
          </ns3:TrackPointExtension>
        </extensions>
      </trkpt>
      <trkpt lat="37.74569909088313579559326171875" lon="-107.71361804567277431488037109375">
        <ele>3375.800048828125</ele>
        <time>2023-07-29T18:26:30.000Z</time>
        <extensions>
          <ns3:TrackPointExtension>
            <ns3:hr>86</ns3:hr>
            <ns3:cad>0</ns3:cad>
          </ns3:TrackPointExtension>
        </extensions>
      </trkpt>
      <trkpt lat="37.74569280445575714111328125" lon="-107.71362642757594585418701171875">
        <ele>3375.800048828125</ele>
        <time>2023-07-29T18:26:31.000Z</time>
        <extensions>
          <ns3:TrackPointExtension>
            <ns3:hr>85</ns3:hr>
            <ns3:cad>0</ns3:cad>
          </ns3:TrackPointExtension>
        </extensions>
      </trkpt>
      <trkpt lat="37.745690457522869110107421875" lon="-107.7136337198317050933837890625">
        <ele>3375.60009765625</ele>
        <time>2023-07-29T18:26:32.000Z</time>
        <extensions>
          <ns3:TrackPointExtension>
            <ns3:hr>84</ns3:hr>
            <ns3:cad>0</ns3:cad>
          </ns3:TrackPointExtension>
        </extensions>
      </trkpt>
      <trkpt lat="37.7456852607429027557373046875" lon="-107.71364185027778148651123046875">
        <ele>3375.60009765625</ele>
        <time>2023-07-29T18:26:33.000Z</time>
        <extensions>
          <ns3:TrackPointExtension>
            <ns3:hr>84</ns3:hr>
            <ns3:cad>0</ns3:cad>
          </ns3:TrackPointExtension>
        </extensions>
      </trkpt>
      <trkpt lat="37.7456738613545894622802734375" lon="-107.713656015694141387939453125">
        <ele>3375.60009765625</ele>
        <time>2023-07-29T18:26:34.000Z</time>
        <extensions>
          <ns3:TrackPointExtension>
            <ns3:hr>83</ns3:hr>
            <ns3:cad>0</ns3:cad>
          </ns3:TrackPointExtension>
        </extensions>
      </trkpt>
      <trkpt lat="37.7456634677946567535400390625" lon="-107.713670432567596435546875">
        <ele>3375.39990234375</ele>
        <time>2023-07-29T18:26:35.000Z</time>
        <extensions>
          <ns3:TrackPointExtension>
            <ns3:hr>83</ns3:hr>
            <ns3:cad>0</ns3:cad>
          </ns3:TrackPointExtension>
        </extensions>
      </trkpt>
      <trkpt lat="37.74565416388213634490966796875" lon="-107.71368057467043399810791015625">
        <ele>3375.199951171875</ele>
        <time>2023-07-29T18:26:36.000Z</time>
        <extensions>
          <ns3:TrackPointExtension>
            <ns3:hr>83</ns3:hr>
            <ns3:cad>0</ns3:cad>
          </ns3:TrackPointExtension>
        </extensions>
      </trkpt>
      <trkpt lat="37.7456463687121868133544921875" lon="-107.71368878893554210662841796875">
        <ele>3375.199951171875</ele>
        <time>2023-07-29T18:26:37.000Z</time>
        <extensions>
          <ns3:TrackPointExtension>
            <ns3:hr>82</ns3:hr>
            <ns3:cad>0</ns3:cad>
          </ns3:TrackPointExtension>
        </extensions>
      </trkpt>
      <trkpt lat="37.74562776088714599609375" lon="-107.7137039601802825927734375">
        <ele>3374.800048828125</ele>
        <time>2023-07-29T18:26:38.000Z</time>
        <extensions>
          <ns3:TrackPointExtension>
            <ns3:hr>82</ns3:hr>
            <ns3:cad>0</ns3:cad>
          </ns3:TrackPointExtension>
        </extensions>
      </trkpt>
      <trkpt lat="37.7456168644130229949951171875" lon="-107.7137101627886295318603515625">
        <ele>3374.60009765625</ele>
        <time>2023-07-29T18:26:39.000Z</time>
        <extensions>
          <ns3:TrackPointExtension>
            <ns3:hr>81</ns3:hr>
            <ns3:cad>0</ns3:cad>
          </ns3:TrackPointExtension>
        </extensions>
      </trkpt>
      <trkpt lat="37.74560571648180484771728515625" lon="-107.713719718158245086669921875">
        <ele>3374.39990234375</ele>
        <time>2023-07-29T18:26:40.000Z</time>
        <extensions>
          <ns3:TrackPointExtension>
            <ns3:hr>81</ns3:hr>
            <ns3:cad>0</ns3:cad>
          </ns3:TrackPointExtension>
        </extensions>
      </trkpt>
      <trkpt lat="37.74559414945542812347412109375" lon="-107.71372885443270206451416015625">
        <ele>3374.199951171875</ele>
        <time>2023-07-29T18:26:41.000Z</time>
        <extensions>
          <ns3:TrackPointExtension>
            <ns3:hr>81</ns3:hr>
            <ns3:cad>0</ns3:cad>
          </ns3:TrackPointExtension>
        </extensions>
      </trkpt>
      <trkpt lat="37.74558409117162227630615234375" lon="-107.713735811412334442138671875">
        <ele>3374.199951171875</ele>
        <time>2023-07-29T18:26:42.000Z</time>
        <extensions>
          <ns3:TrackPointExtension>
            <ns3:hr>81</ns3:hr>
            <ns3:cad>0</ns3:cad>
          </ns3:TrackPointExtension>
        </extensions>
      </trkpt>
      <trkpt lat="37.74557939730584621429443359375" lon="-107.71374075673520565032958984375">
        <ele>3374.199951171875</ele>
        <time>2023-07-29T18:26:43.000Z</time>
        <extensions>
          <ns3:TrackPointExtension>
            <ns3:hr>80</ns3:hr>
            <ns3:cad>0</ns3:cad>
          </ns3:TrackPointExtension>
        </extensions>
      </trkpt>
      <trkpt lat="37.74556674063205718994140625" lon="-107.7137544192373752593994140625">
        <ele>3373.800048828125</ele>
        <time>2023-07-29T18:26:44.000Z</time>
        <extensions>
          <ns3:TrackPointExtension>
            <ns3:hr>79</ns3:hr>
            <ns3:cad>0</ns3:cad>
          </ns3:TrackPointExtension>
        </extensions>
      </trkpt>
      <trkpt lat="37.7455581910908222198486328125" lon="-107.713765986263751983642578125">
        <ele>3373.800048828125</ele>
        <time>2023-07-29T18:26:45.000Z</time>
        <extensions>
          <ns3:TrackPointExtension>
            <ns3:hr>79</ns3:hr>
            <ns3:cad>55</ns3:cad>
          </ns3:TrackPointExtension>
        </extensions>
      </trkpt>
      <trkpt lat="37.745548300445079803466796875" lon="-107.71378048695623874664306640625">
        <ele>3373.60009765625</ele>
        <time>2023-07-29T18:26:46.000Z</time>
        <extensions>
          <ns3:TrackPointExtension>
            <ns3:hr>79</ns3:hr>
            <ns3:cad>55</ns3:cad>
          </ns3:TrackPointExtension>
        </extensions>
      </trkpt>
      <trkpt lat="37.7455390803515911102294921875" lon="-107.7137951552867889404296875">
        <ele>3373.60009765625</ele>
        <time>2023-07-29T18:26:47.000Z</time>
        <extensions>
          <ns3:TrackPointExtension>
            <ns3:hr>79</ns3:hr>
            <ns3:cad>0</ns3:cad>
          </ns3:TrackPointExtension>
        </extensions>
      </trkpt>
      <trkpt lat="37.74552910588681697845458984375" lon="-107.7138063870370388031005859375">
        <ele>3373.39990234375</ele>
        <time>2023-07-29T18:26:48.000Z</time>
        <extensions>
          <ns3:TrackPointExtension>
            <ns3:hr>79</ns3:hr>
            <ns3:cad>0</ns3:cad>
          </ns3:TrackPointExtension>
        </extensions>
      </trkpt>
      <trkpt lat="37.74552307091653347015380859375" lon="-107.71381191909313201904296875">
        <ele>3373.199951171875</ele>
        <time>2023-07-29T18:26:49.000Z</time>
        <extensions>
          <ns3:TrackPointExtension>
            <ns3:hr>79</ns3:hr>
            <ns3:cad>0</ns3:cad>
          </ns3:TrackPointExtension>
        </extensions>
      </trkpt>
      <trkpt lat="37.7455192990601062774658203125" lon="-107.7138144336640834808349609375">
        <ele>3373</ele>
        <time>2023-07-29T18:26:50.000Z</time>
        <extensions>
          <ns3:TrackPointExtension>
            <ns3:hr>79</ns3:hr>
            <ns3:cad>0</ns3:cad>
          </ns3:TrackPointExtension>
        </extensions>
      </trkpt>
      <trkpt lat="37.74551175534725189208984375" lon="-107.71381887607276439666748046875">
        <ele>3373</ele>
        <time>2023-07-29T18:26:51.000Z</time>
        <extensions>
          <ns3:TrackPointExtension>
            <ns3:hr>78</ns3:hr>
            <ns3:cad>0</ns3:cad>
          </ns3:TrackPointExtension>
        </extensions>
      </trkpt>
      <trkpt lat="37.74550345726311206817626953125" lon="-107.713820636272430419921875">
        <ele>3372.800048828125</ele>
        <time>2023-07-29T18:26:52.000Z</time>
        <extensions>
          <ns3:TrackPointExtension>
            <ns3:hr>78</ns3:hr>
            <ns3:cad>0</ns3:cad>
          </ns3:TrackPointExtension>
        </extensions>
      </trkpt>
      <trkpt lat="37.74549834430217742919921875" lon="-107.71382239647209644317626953125">
        <ele>3372.39990234375</ele>
        <time>2023-07-29T18:26:53.000Z</time>
        <extensions>
          <ns3:TrackPointExtension>
            <ns3:hr>78</ns3:hr>
            <ns3:cad>0</ns3:cad>
          </ns3:TrackPointExtension>
        </extensions>
      </trkpt>
      <trkpt lat="37.7454842627048492431640625" lon="-107.71383245475590229034423828125">
        <ele>3372.39990234375</ele>
        <time>2023-07-29T18:26:54.000Z</time>
        <extensions>
          <ns3:TrackPointExtension>
            <ns3:hr>78</ns3:hr>
            <ns3:cad>0</ns3:cad>
          </ns3:TrackPointExtension>
        </extensions>
      </trkpt>
      <trkpt lat="37.7454737015068531036376953125" lon="-107.7138415910303592681884765625">
        <ele>3372.199951171875</ele>
        <time>2023-07-29T18:26:55.000Z</time>
        <extensions>
          <ns3:TrackPointExtension>
            <ns3:hr>78</ns3:hr>
            <ns3:cad>52</ns3:cad>
          </ns3:TrackPointExtension>
        </extensions>
      </trkpt>
      <trkpt lat="37.74546749889850616455078125" lon="-107.71384787745773792266845703125">
        <ele>3372</ele>
        <time>2023-07-29T18:26:56.000Z</time>
        <extensions>
          <ns3:TrackPointExtension>
            <ns3:hr>80</ns3:hr>
            <ns3:cad>52</ns3:cad>
          </ns3:TrackPointExtension>
        </extensions>
      </trkpt>
      <trkpt lat="37.745465822517871856689453125" lon="-107.7138553373515605926513671875">
        <ele>3371.800048828125</ele>
        <time>2023-07-29T18:26:57.000Z</time>
        <extensions>
          <ns3:TrackPointExtension>
            <ns3:hr>81</ns3:hr>
            <ns3:cad>52</ns3:cad>
          </ns3:TrackPointExtension>
        </extensions>
      </trkpt>
      <trkpt lat="37.745464146137237548828125" lon="-107.7138617075979709625244140625">
        <ele>3371.800048828125</ele>
        <time>2023-07-29T18:26:58.000Z</time>
        <extensions>
          <ns3:TrackPointExtension>
            <ns3:hr>81</ns3:hr>
            <ns3:cad>52</ns3:cad>
          </ns3:TrackPointExtension>
        </extensions>
      </trkpt>
      <trkpt lat="37.7454602904617786407470703125" lon="-107.71387520246207714080810546875">
        <ele>3371.39990234375</ele>
        <time>2023-07-29T18:26:59.000Z</time>
        <extensions>
          <ns3:TrackPointExtension>
            <ns3:hr>81</ns3:hr>
            <ns3:cad>52</ns3:cad>
          </ns3:TrackPointExtension>
        </extensions>
      </trkpt>
      <trkpt lat="37.74545677006244659423828125" lon="-107.71388978697359561920166015625">
        <ele>3371.199951171875</ele>
        <time>2023-07-29T18:27:00.000Z</time>
        <extensions>
          <ns3:TrackPointExtension>
            <ns3:hr>81</ns3:hr>
            <ns3:cad>52</ns3:cad>
          </ns3:TrackPointExtension>
        </extensions>
      </trkpt>
      <trkpt lat="37.74545785970985889434814453125" lon="-107.713908813893795013427734375">
        <ele>3371</ele>
        <time>2023-07-29T18:27:01.000Z</time>
        <extensions>
          <ns3:TrackPointExtension>
            <ns3:hr>81</ns3:hr>
            <ns3:cad>52</ns3:cad>
          </ns3:TrackPointExtension>
        </extensions>
      </trkpt>
      <trkpt lat="37.74546741507947444915771484375" lon="-107.71392918191850185394287109375">
        <ele>3370.800048828125</ele>
        <time>2023-07-29T18:27:02.000Z</time>
        <extensions>
          <ns3:TrackPointExtension>
            <ns3:hr>81</ns3:hr>
            <ns3:cad>52</ns3:cad>
          </ns3:TrackPointExtension>
        </extensions>
      </trkpt>
      <trkpt lat="37.74546741507947444915771484375" lon="-107.713953070342540740966796875">
        <ele>3370.800048828125</ele>
        <time>2023-07-29T18:27:03.000Z</time>
        <extensions>
          <ns3:TrackPointExtension>
            <ns3:hr>82</ns3:hr>
            <ns3:cad>0</ns3:cad>
          </ns3:TrackPointExtension>
        </extensions>
      </trkpt>
      <trkpt lat="37.74546481668949127197265625" lon="-107.71397159434854984283447265625">
        <ele>3370.800048828125</ele>
        <time>2023-07-29T18:27:04.000Z</time>
        <extensions>
          <ns3:TrackPointExtension>
            <ns3:hr>82</ns3:hr>
            <ns3:cad>0</ns3:cad>
          </ns3:TrackPointExtension>
        </extensions>
      </trkpt>
      <trkpt lat="37.7454589493572711944580078125" lon="-107.7139824070036411285400390625">
        <ele>3370.800048828125</ele>
        <time>2023-07-29T18:27:05.000Z</time>
        <extensions>
          <ns3:TrackPointExtension>
            <ns3:hr>82</ns3:hr>
            <ns3:cad>0</ns3:cad>
          </ns3:TrackPointExtension>
        </extensions>
      </trkpt>
      <trkpt lat="37.74545081891119480133056640625" lon="-107.71399573422968387603759765625">
        <ele>3370.800048828125</ele>
        <time>2023-07-29T18:27:06.000Z</time>
        <extensions>
          <ns3:TrackPointExtension>
            <ns3:hr>82</ns3:hr>
            <ns3:cad>0</ns3:cad>
          </ns3:TrackPointExtension>
        </extensions>
      </trkpt>
      <trkpt lat="37.74544310756027698516845703125" lon="-107.7140048705041408538818359375">
        <ele>3370.800048828125</ele>
        <time>2023-07-29T18:27:07.000Z</time>
        <extensions>
          <ns3:TrackPointExtension>
            <ns3:hr>82</ns3:hr>
            <ns3:cad>0</ns3:cad>
          </ns3:TrackPointExtension>
        </extensions>
      </trkpt>
      <trkpt lat="37.745432294905185699462890625" lon="-107.71401098929345607757568359375">
        <ele>3371</ele>
        <time>2023-07-29T18:27:08.000Z</time>
        <extensions>
          <ns3:TrackPointExtension>
            <ns3:hr>82</ns3:hr>
            <ns3:cad>0</ns3:cad>
          </ns3:TrackPointExtension>
        </extensions>
      </trkpt>
      <trkpt lat="37.74542324244976043701171875" lon="-107.7140209637582302093505859375">
        <ele>3371</ele>
        <time>2023-07-29T18:27:09.000Z</time>
        <extensions>
          <ns3:TrackPointExtension>
            <ns3:hr>83</ns3:hr>
            <ns3:cad>0</ns3:cad>
          </ns3:TrackPointExtension>
        </extensions>
      </trkpt>
      <trkpt lat="37.74541527964174747467041015625" lon="-107.71402758546173572540283203125">
        <ele>3371</ele>
        <time>2023-07-29T18:27:10.000Z</time>
        <extensions>
          <ns3:TrackPointExtension>
            <ns3:hr>83</ns3:hr>
            <ns3:cad>0</ns3:cad>
          </ns3:TrackPointExtension>
        </extensions>
      </trkpt>
      <trkpt lat="37.745402790606021881103515625" lon="-107.7140310220420360565185546875">
        <ele>3371</ele>
        <time>2023-07-29T18:27:11.000Z</time>
        <extensions>
          <ns3:TrackPointExtension>
            <ns3:hr>83</ns3:hr>
            <ns3:cad>52</ns3:cad>
          </ns3:TrackPointExtension>
        </extensions>
      </trkpt>
      <trkpt lat="37.745394743978977203369140625" lon="-107.7140365540981292724609375">
        <ele>3370.800048828125</ele>
        <time>2023-07-29T18:27:12.000Z</time>
        <extensions>
          <ns3:TrackPointExtension>
            <ns3:hr>83</ns3:hr>
            <ns3:cad>52</ns3:cad>
          </ns3:TrackPointExtension>
        </extensions>
      </trkpt>
      <trkpt lat="37.74538191966712474822998046875" lon="-107.7140472829341888427734375">
        <ele>3370.800048828125</ele>
        <time>2023-07-29T18:27:13.000Z</time>
        <extensions>
          <ns3:TrackPointExtension>
            <ns3:hr>83</ns3:hr>
            <ns3:cad>0</ns3:cad>
          </ns3:TrackPointExtension>
        </extensions>
      </trkpt>
      <trkpt lat="37.745373286306858062744140625" lon="-107.7140551619231700897216796875">
        <ele>3370.60009765625</ele>
        <time>2023-07-29T18:27:14.000Z</time>
        <extensions>
          <ns3:TrackPointExtension>
            <ns3:hr>84</ns3:hr>
            <ns3:cad>0</ns3:cad>
          </ns3:TrackPointExtension>
        </extensions>
      </trkpt>
      <trkpt lat="37.7453560195863246917724609375" lon="-107.7140689082443714141845703125">
        <ele>3370.60009765625</ele>
        <time>2023-07-29T18:27:15.000Z</time>
        <extensions>
          <ns3:TrackPointExtension>
            <ns3:hr>84</ns3:hr>
            <ns3:cad>54</ns3:cad>
          </ns3:TrackPointExtension>
        </extensions>
      </trkpt>
      <trkpt lat="37.74534814059734344482421875" lon="-107.71407620050013065338134765625">
        <ele>3370.39990234375</ele>
        <time>2023-07-29T18:27:16.000Z</time>
        <extensions>
          <ns3:TrackPointExtension>
            <ns3:hr>84</ns3:hr>
            <ns3:cad>54</ns3:cad>
          </ns3:TrackPointExtension>
        </extensions>
      </trkpt>
      <trkpt lat="37.74533296935260295867919921875" lon="-107.71408374421298503875732421875">
        <ele>3370.39990234375</ele>
        <time>2023-07-29T18:27:17.000Z</time>
        <extensions>
          <ns3:TrackPointExtension>
            <ns3:hr>84</ns3:hr>
            <ns3:cad>54</ns3:cad>
          </ns3:TrackPointExtension>
        </extensions>
      </trkpt>
      <trkpt lat="37.74531972594559192657470703125" lon="-107.714094556868076324462890625">
        <ele>3370.39990234375</ele>
        <time>2023-07-29T18:27:18.000Z</time>
        <extensions>
          <ns3:TrackPointExtension>
            <ns3:hr>84</ns3:hr>
            <ns3:cad>54</ns3:cad>
          </ns3:TrackPointExtension>
        </extensions>
      </trkpt>
      <trkpt lat="37.74531134404242038726806640625" lon="-107.7140990830957889556884765625">
        <ele>3370.39990234375</ele>
        <time>2023-07-29T18:27:19.000Z</time>
        <extensions>
          <ns3:TrackPointExtension>
            <ns3:hr>85</ns3:hr>
            <ns3:cad>54</ns3:cad>
          </ns3:TrackPointExtension>
        </extensions>
      </trkpt>
      <trkpt lat="37.745297513902187347412109375" lon="-107.71410905756056308746337890625">
        <ele>3370.199951171875</ele>
        <time>2023-07-29T18:27:20.000Z</time>
        <extensions>
          <ns3:TrackPointExtension>
            <ns3:hr>85</ns3:hr>
            <ns3:cad>54</ns3:cad>
          </ns3:TrackPointExtension>
        </extensions>
      </trkpt>
      <trkpt lat="37.74528670124709606170654296875" lon="-107.714117355644702911376953125">
        <ele>3370</ele>
        <time>2023-07-29T18:27:21.000Z</time>
        <extensions>
          <ns3:TrackPointExtension>
            <ns3:hr>87</ns3:hr>
            <ns3:cad>54</ns3:cad>
          </ns3:TrackPointExtension>
        </extensions>
      </trkpt>
      <trkpt lat="37.74527614004909992218017578125" lon="-107.71412984468042850494384765625">
        <ele>3369.800048828125</ele>
        <time>2023-07-29T18:27:22.000Z</time>
        <extensions>
          <ns3:TrackPointExtension>
            <ns3:hr>86</ns3:hr>
            <ns3:cad>54</ns3:cad>
          </ns3:TrackPointExtension>
        </extensions>
      </trkpt>
      <trkpt lat="37.745268009603023529052734375" lon="-107.71413789130747318267822265625">
        <ele>3369.800048828125</ele>
        <time>2023-07-29T18:27:23.000Z</time>
        <extensions>
          <ns3:TrackPointExtension>
            <ns3:hr>86</ns3:hr>
            <ns3:cad>54</ns3:cad>
          </ns3:TrackPointExtension>
        </extensions>
      </trkpt>
      <trkpt lat="37.7452604658901691436767578125" lon="-107.7141476981341838836669921875">
        <ele>3369.60009765625</ele>
        <time>2023-07-29T18:27:24.000Z</time>
        <extensions>
          <ns3:TrackPointExtension>
            <ns3:hr>85</ns3:hr>
            <ns3:cad>54</ns3:cad>
          </ns3:TrackPointExtension>
        </extensions>
      </trkpt>
      <trkpt lat="37.745254598557949066162109375" lon="-107.7141564153134822845458984375">
        <ele>3369.39990234375</ele>
        <time>2023-07-29T18:27:25.000Z</time>
        <extensions>
          <ns3:TrackPointExtension>
            <ns3:hr>85</ns3:hr>
            <ns3:cad>55</ns3:cad>
          </ns3:TrackPointExtension>
        </extensions>
      </trkpt>
      <trkpt lat="37.74525401182472705841064453125" lon="-107.7141604386270046234130859375">
        <ele>3369.39990234375</ele>
        <time>2023-07-29T18:27:26.000Z</time>
        <extensions>
          <ns3:TrackPointExtension>
            <ns3:hr>85</ns3:hr>
            <ns3:cad>55</ns3:cad>
          </ns3:TrackPointExtension>
        </extensions>
      </trkpt>
      <trkpt lat="37.745251916348934173583984375" lon="-107.71416588686406612396240234375">
        <ele>3369.39990234375</ele>
        <time>2023-07-29T18:27:27.000Z</time>
        <extensions>
          <ns3:TrackPointExtension>
            <ns3:hr>85</ns3:hr>
            <ns3:cad>55</ns3:cad>
          </ns3:TrackPointExtension>
        </extensions>
      </trkpt>
      <trkpt lat="37.74524730630218982696533203125" lon="-107.7141718380153179168701171875">
        <ele>3369.199951171875</ele>
        <time>2023-07-29T18:27:28.000Z</time>
        <extensions>
          <ns3:TrackPointExtension>
            <ns3:hr>85</ns3:hr>
            <ns3:cad>54</ns3:cad>
          </ns3:TrackPointExtension>
        </extensions>
      </trkpt>
      <trkpt lat="37.745241187512874603271484375" lon="-107.7141798846423625946044921875">
        <ele>3369</ele>
        <time>2023-07-29T18:27:29.000Z</time>
        <extensions>
          <ns3:TrackPointExtension>
            <ns3:hr>85</ns3:hr>
            <ns3:cad>54</ns3:cad>
          </ns3:TrackPointExtension>
        </extensions>
      </trkpt>
      <trkpt lat="37.74523557163774967193603515625" lon="-107.714189104735851287841796875">
        <ele>3368.800048828125</ele>
        <time>2023-07-29T18:27:30.000Z</time>
        <extensions>
          <ns3:TrackPointExtension>
            <ns3:hr>85</ns3:hr>
            <ns3:cad>54</ns3:cad>
          </ns3:TrackPointExtension>
        </extensions>
      </trkpt>
      <trkpt lat="37.7452348172664642333984375" lon="-107.71419589407742023468017578125">
        <ele>3368.60009765625</ele>
        <time>2023-07-29T18:27:31.000Z</time>
        <extensions>
          <ns3:TrackPointExtension>
            <ns3:hr>85</ns3:hr>
            <ns3:cad>54</ns3:cad>
          </ns3:TrackPointExtension>
        </extensions>
      </trkpt>
      <trkpt lat="37.74522970430552959442138671875" lon="-107.71420796401798725128173828125">
        <ele>3368.39990234375</ele>
        <time>2023-07-29T18:27:32.000Z</time>
        <extensions>
          <ns3:TrackPointExtension>
            <ns3:hr>85</ns3:hr>
            <ns3:cad>54</ns3:cad>
          </ns3:TrackPointExtension>
        </extensions>
      </trkpt>
      <trkpt lat="37.74522869847714900970458984375" lon="-107.71421148441731929779052734375">
        <ele>3368.199951171875</ele>
        <time>2023-07-29T18:27:33.000Z</time>
        <extensions>
          <ns3:TrackPointExtension>
            <ns3:hr>85</ns3:hr>
            <ns3:cad>54</ns3:cad>
          </ns3:TrackPointExtension>
        </extensions>
      </trkpt>
      <trkpt lat="37.7452259324491024017333984375" lon="-107.714219279587268829345703125">
        <ele>3368.199951171875</ele>
        <time>2023-07-29T18:27:34.000Z</time>
        <extensions>
          <ns3:TrackPointExtension>
            <ns3:hr>84</ns3:hr>
            <ns3:cad>54</ns3:cad>
          </ns3:TrackPointExtension>
        </extensions>
      </trkpt>
      <trkpt lat="37.74522081948816776275634765625" lon="-107.714231014251708984375">
        <ele>3368.199951171875</ele>
        <time>2023-07-29T18:27:35.000Z</time>
        <extensions>
          <ns3:TrackPointExtension>
            <ns3:hr>84</ns3:hr>
            <ns3:cad>54</ns3:cad>
          </ns3:TrackPointExtension>
        </extensions>
      </trkpt>
      <trkpt lat="37.74521428160369396209716796875" lon="-107.7142439223825931549072265625">
        <ele>3368</ele>
        <time>2023-07-29T18:27:36.000Z</time>
        <extensions>
          <ns3:TrackPointExtension>
            <ns3:hr>84</ns3:hr>
            <ns3:cad>54</ns3:cad>
          </ns3:TrackPointExtension>
        </extensions>
      </trkpt>
      <trkpt lat="37.74520606733858585357666015625" lon="-107.714257501065731048583984375">
        <ele>3367.800048828125</ele>
        <time>2023-07-29T18:27:37.000Z</time>
        <extensions>
          <ns3:TrackPointExtension>
            <ns3:hr>84</ns3:hr>
            <ns3:cad>54</ns3:cad>
          </ns3:TrackPointExtension>
        </extensions>
      </trkpt>
      <trkpt lat="37.74519793689250946044921875" lon="-107.714276947081089019775390625">
        <ele>3367.60009765625</ele>
        <time>2023-07-29T18:27:38.000Z</time>
        <extensions>
          <ns3:TrackPointExtension>
            <ns3:hr>85</ns3:hr>
            <ns3:cad>54</ns3:cad>
          </ns3:TrackPointExtension>
        </extensions>
      </trkpt>
      <trkpt lat="37.7451937459409236907958984375" lon="-107.71428289823234081268310546875">
        <ele>3367.39990234375</ele>
        <time>2023-07-29T18:27:39.000Z</time>
        <extensions>
          <ns3:TrackPointExtension>
            <ns3:hr>86</ns3:hr>
            <ns3:cad>54</ns3:cad>
          </ns3:TrackPointExtension>
        </extensions>
      </trkpt>
      <trkpt lat="37.745184190571308135986328125" lon="-107.7143005840480327606201171875">
        <ele>3367.39990234375</ele>
        <time>2023-07-29T18:27:40.000Z</time>
        <extensions>
          <ns3:TrackPointExtension>
            <ns3:hr>85</ns3:hr>
            <ns3:cad>54</ns3:cad>
          </ns3:TrackPointExtension>
        </extensions>
      </trkpt>
      <trkpt lat="37.74517354555428028106689453125" lon="-107.714316844940185546875">
        <ele>3367.39990234375</ele>
        <time>2023-07-29T18:27:41.000Z</time>
        <extensions>
          <ns3:TrackPointExtension>
            <ns3:hr>85</ns3:hr>
            <ns3:cad>54</ns3:cad>
          </ns3:TrackPointExtension>
        </extensions>
      </trkpt>
      <trkpt lat="37.74516499601304531097412109375" lon="-107.71433067508041858673095703125">
        <ele>3367.199951171875</ele>
        <time>2023-07-29T18:27:42.000Z</time>
        <extensions>
          <ns3:TrackPointExtension>
            <ns3:hr>85</ns3:hr>
            <ns3:cad>54</ns3:cad>
          </ns3:TrackPointExtension>
        </extensions>
      </trkpt>
      <trkpt lat="37.745157368481159210205078125" lon="-107.71434023045003414154052734375">
        <ele>3367</ele>
        <time>2023-07-29T18:27:43.000Z</time>
        <extensions>
          <ns3:TrackPointExtension>
            <ns3:hr>84</ns3:hr>
            <ns3:cad>54</ns3:cad>
          </ns3:TrackPointExtension>
        </extensions>
      </trkpt>
      <trkpt lat="37.7451488189399242401123046875" lon="-107.714348696172237396240234375">
        <ele>3367</ele>
        <time>2023-07-29T18:27:44.000Z</time>
        <extensions>
          <ns3:TrackPointExtension>
            <ns3:hr>83</ns3:hr>
            <ns3:cad>54</ns3:cad>
          </ns3:TrackPointExtension>
        </extensions>
      </trkpt>
      <trkpt lat="37.74513985030353069305419921875" lon="-107.71436101756989955902099609375">
        <ele>3366.800048828125</ele>
        <time>2023-07-29T18:27:45.000Z</time>
        <extensions>
          <ns3:TrackPointExtension>
            <ns3:hr>83</ns3:hr>
            <ns3:cad>0</ns3:cad>
          </ns3:TrackPointExtension>
        </extensions>
      </trkpt>
      <trkpt lat="37.7451287023723125457763671875" lon="-107.71437258459627628326416015625">
        <ele>3366.60009765625</ele>
        <time>2023-07-29T18:27:46.000Z</time>
        <extensions>
          <ns3:TrackPointExtension>
            <ns3:hr>82</ns3:hr>
            <ns3:cad>0</ns3:cad>
          </ns3:TrackPointExtension>
        </extensions>
      </trkpt>
      <trkpt lat="37.74512283504009246826171875" lon="-107.7143810503184795379638671875">
        <ele>3366.39990234375</ele>
        <time>2023-07-29T18:27:47.000Z</time>
        <extensions>
          <ns3:TrackPointExtension>
            <ns3:hr>82</ns3:hr>
            <ns3:cad>0</ns3:cad>
          </ns3:TrackPointExtension>
        </extensions>
      </trkpt>
      <trkpt lat="37.74511118419468402862548828125" lon="-107.7143887616693973541259765625">
        <ele>3366.199951171875</ele>
        <time>2023-07-29T18:27:48.000Z</time>
        <extensions>
          <ns3:TrackPointExtension>
            <ns3:hr>82</ns3:hr>
            <ns3:cad>0</ns3:cad>
          </ns3:TrackPointExtension>
        </extensions>
      </trkpt>
      <trkpt lat="37.74510095827281475067138671875" lon="-107.71439907141029834747314453125">
        <ele>3366</ele>
        <time>2023-07-29T18:27:49.000Z</time>
        <extensions>
          <ns3:TrackPointExtension>
            <ns3:hr>83</ns3:hr>
            <ns3:cad>0</ns3:cad>
          </ns3:TrackPointExtension>
        </extensions>
      </trkpt>
      <trkpt lat="37.7450945042073726654052734375" lon="-107.71439890377223491668701171875">
        <ele>3365.800048828125</ele>
        <time>2023-07-29T18:27:50.000Z</time>
        <extensions>
          <ns3:TrackPointExtension>
            <ns3:hr>83</ns3:hr>
            <ns3:cad>0</ns3:cad>
          </ns3:TrackPointExtension>
        </extensions>
      </trkpt>
      <trkpt lat="37.745085619390010833740234375" lon="-107.714406363666057586669921875">
        <ele>3365.800048828125</ele>
        <time>2023-07-29T18:27:51.000Z</time>
        <extensions>
          <ns3:TrackPointExtension>
            <ns3:hr>83</ns3:hr>
            <ns3:cad>0</ns3:cad>
          </ns3:TrackPointExtension>
        </extensions>
      </trkpt>
      <trkpt lat="37.7450767345726490020751953125" lon="-107.71441214717924594879150390625">
        <ele>3365.60009765625</ele>
        <time>2023-07-29T18:27:52.000Z</time>
        <extensions>
          <ns3:TrackPointExtension>
            <ns3:hr>84</ns3:hr>
            <ns3:cad>0</ns3:cad>
          </ns3:TrackPointExtension>
        </extensions>
      </trkpt>
      <trkpt lat="37.74506893940269947052001953125" lon="-107.71441617049276828765869140625">
        <ele>3365.60009765625</ele>
        <time>2023-07-29T18:27:53.000Z</time>
        <extensions>
          <ns3:TrackPointExtension>
            <ns3:hr>84</ns3:hr>
            <ns3:cad>53</ns3:cad>
          </ns3:TrackPointExtension>
        </extensions>
      </trkpt>
      <trkpt lat="37.7450603060424327850341796875" lon="-107.71442086435854434967041015625">
        <ele>3365.60009765625</ele>
        <time>2023-07-29T18:27:54.000Z</time>
        <extensions>
          <ns3:TrackPointExtension>
            <ns3:hr>85</ns3:hr>
            <ns3:cad>53</ns3:cad>
          </ns3:TrackPointExtension>
        </extensions>
      </trkpt>
      <trkpt lat="37.74505351670086383819580078125" lon="-107.71442689932882785797119140625">
        <ele>3365.60009765625</ele>
        <time>2023-07-29T18:27:55.000Z</time>
        <extensions>
          <ns3:TrackPointExtension>
            <ns3:hr>85</ns3:hr>
            <ns3:cad>53</ns3:cad>
          </ns3:TrackPointExtension>
        </extensions>
      </trkpt>
      <trkpt lat="37.74504370987415313720703125" lon="-107.71443494595587253570556640625">
        <ele>3365.60009765625</ele>
        <time>2023-07-29T18:27:56.000Z</time>
        <extensions>
          <ns3:TrackPointExtension>
            <ns3:hr>85</ns3:hr>
            <ns3:cad>53</ns3:cad>
          </ns3:TrackPointExtension>
        </extensions>
      </trkpt>
      <trkpt lat="37.74503809399902820587158203125" lon="-107.714437879621982574462890625">
        <ele>3365.199951171875</ele>
        <time>2023-07-29T18:27:57.000Z</time>
        <extensions>
          <ns3:TrackPointExtension>
            <ns3:hr>85</ns3:hr>
            <ns3:cad>53</ns3:cad>
          </ns3:TrackPointExtension>
        </extensions>
      </trkpt>
      <trkpt lat="37.7450308017432689666748046875" lon="-107.71444399841129779815673828125">
        <ele>3365</ele>
        <time>2023-07-29T18:27:58.000Z</time>
        <extensions>
          <ns3:TrackPointExtension>
            <ns3:hr>85</ns3:hr>
            <ns3:cad>53</ns3:cad>
          </ns3:TrackPointExtension>
        </extensions>
      </trkpt>
      <trkpt lat="37.745021916925907135009765625" lon="-107.71445288322865962982177734375">
        <ele>3364.800048828125</ele>
        <time>2023-07-29T18:27:59.000Z</time>
        <extensions>
          <ns3:TrackPointExtension>
            <ns3:hr>85</ns3:hr>
            <ns3:cad>53</ns3:cad>
          </ns3:TrackPointExtension>
        </extensions>
      </trkpt>
      <trkpt lat="37.7450150437653064727783203125" lon="-107.7144630253314971923828125">
        <ele>3364.60009765625</ele>
        <time>2023-07-29T18:28:00.000Z</time>
        <extensions>
          <ns3:TrackPointExtension>
            <ns3:hr>85</ns3:hr>
            <ns3:cad>53</ns3:cad>
          </ns3:TrackPointExtension>
        </extensions>
      </trkpt>
      <trkpt lat="37.7450073324143886566162109375" lon="-107.7144762687385082244873046875">
        <ele>3364.199951171875</ele>
        <time>2023-07-29T18:28:01.000Z</time>
        <extensions>
          <ns3:TrackPointExtension>
            <ns3:hr>85</ns3:hr>
            <ns3:cad>54</ns3:cad>
          </ns3:TrackPointExtension>
        </extensions>
      </trkpt>
      <trkpt lat="37.74500079452991485595703125" lon="-107.7144844830036163330078125">
        <ele>3364</ele>
        <time>2023-07-29T18:28:02.000Z</time>
        <extensions>
          <ns3:TrackPointExtension>
            <ns3:hr>85</ns3:hr>
            <ns3:cad>54</ns3:cad>
          </ns3:TrackPointExtension>
        </extensions>
      </trkpt>
      <trkpt lat="37.74499568156898021697998046875" lon="-107.7144925296306610107421875">
        <ele>3364</ele>
        <time>2023-07-29T18:28:03.000Z</time>
        <extensions>
          <ns3:TrackPointExtension>
            <ns3:hr>85</ns3:hr>
            <ns3:cad>54</ns3:cad>
          </ns3:TrackPointExtension>
        </extensions>
      </trkpt>
      <trkpt lat="37.74498914368450641632080078125" lon="-107.71450183354318141937255859375">
        <ele>3363.800048828125</ele>
        <time>2023-07-29T18:28:04.000Z</time>
        <extensions>
          <ns3:TrackPointExtension>
            <ns3:hr>85</ns3:hr>
            <ns3:cad>54</ns3:cad>
          </ns3:TrackPointExtension>
        </extensions>
      </trkpt>
      <trkpt lat="37.7449853718280792236328125" lon="-107.71450954489409923553466796875">
        <ele>3363.60009765625</ele>
        <time>2023-07-29T18:28:05.000Z</time>
        <extensions>
          <ns3:TrackPointExtension>
            <ns3:hr>85</ns3:hr>
            <ns3:cad>54</ns3:cad>
          </ns3:TrackPointExtension>
        </extensions>
      </trkpt>
      <trkpt lat="37.74498076178133487701416015625" lon="-107.71452094428241252899169921875">
        <ele>3363.39990234375</ele>
        <time>2023-07-29T18:28:06.000Z</time>
        <extensions>
          <ns3:TrackPointExtension>
            <ns3:hr>85</ns3:hr>
            <ns3:cad>54</ns3:cad>
          </ns3:TrackPointExtension>
        </extensions>
      </trkpt>
      <trkpt lat="37.74497539736330509185791015625" lon="-107.71452941000461578369140625">
        <ele>3363.39990234375</ele>
        <time>2023-07-29T18:28:07.000Z</time>
        <extensions>
          <ns3:TrackPointExtension>
            <ns3:hr>84</ns3:hr>
            <ns3:cad>54</ns3:cad>
          </ns3:TrackPointExtension>
        </extensions>
      </trkpt>
      <trkpt lat="37.7449741400778293609619140625" lon="-107.7145315892994403839111328125">
        <ele>3363.199951171875</ele>
        <time>2023-07-29T18:28:08.000Z</time>
        <extensions>
          <ns3:TrackPointExtension>
            <ns3:hr>84</ns3:hr>
            <ns3:cad>54</ns3:cad>
          </ns3:TrackPointExtension>
        </extensions>
      </trkpt>
      <trkpt lat="37.74497204460203647613525390625" lon="-107.71453837864100933074951171875">
        <ele>3362.800048828125</ele>
        <time>2023-07-29T18:28:09.000Z</time>
        <extensions>
          <ns3:TrackPointExtension>
            <ns3:hr>84</ns3:hr>
            <ns3:cad>56</ns3:cad>
          </ns3:TrackPointExtension>
        </extensions>
      </trkpt>
      <trkpt lat="37.7449677698314189910888671875" lon="-107.71454709582030773162841796875">
        <ele>3362.800048828125</ele>
        <time>2023-07-29T18:28:10.000Z</time>
        <extensions>
          <ns3:TrackPointExtension>
            <ns3:hr>84</ns3:hr>
            <ns3:cad>56</ns3:cad>
          </ns3:TrackPointExtension>
        </extensions>
      </trkpt>
      <trkpt lat="37.74496114812791347503662109375" lon="-107.71455815993249416351318359375">
        <ele>3362.60009765625</ele>
        <time>2023-07-29T18:28:11.000Z</time>
        <extensions>
          <ns3:TrackPointExtension>
            <ns3:hr>84</ns3:hr>
            <ns3:cad>0</ns3:cad>
          </ns3:TrackPointExtension>
        </extensions>
      </trkpt>
      <trkpt lat="37.7449530176818370819091796875" lon="-107.7145701460540294647216796875">
        <ele>3362.39990234375</ele>
        <time>2023-07-29T18:28:12.000Z</time>
        <extensions>
          <ns3:TrackPointExtension>
            <ns3:hr>84</ns3:hr>
            <ns3:cad>0</ns3:cad>
          </ns3:TrackPointExtension>
        </extensions>
      </trkpt>
      <trkpt lat="37.74494505487382411956787109375" lon="-107.71458146162331104278564453125">
        <ele>3362.199951171875</ele>
        <time>2023-07-29T18:28:13.000Z</time>
        <extensions>
          <ns3:TrackPointExtension>
            <ns3:hr>84</ns3:hr>
            <ns3:cad>0</ns3:cad>
          </ns3:TrackPointExtension>
        </extensions>
      </trkpt>
      <trkpt lat="37.7449375949800014495849609375" lon="-107.71459504030644893646240234375">
        <ele>3362</ele>
        <time>2023-07-29T18:28:14.000Z</time>
        <extensions>
          <ns3:TrackPointExtension>
            <ns3:hr>84</ns3:hr>
            <ns3:cad>0</ns3:cad>
          </ns3:TrackPointExtension>
        </extensions>
      </trkpt>
      <trkpt lat="37.74492912925779819488525390625" lon="-107.7146006561815738677978515625">
        <ele>3361.800048828125</ele>
        <time>2023-07-29T18:28:15.000Z</time>
        <extensions>
          <ns3:TrackPointExtension>
            <ns3:hr>84</ns3:hr>
            <ns3:cad>0</ns3:cad>
          </ns3:TrackPointExtension>
        </extensions>
      </trkpt>
      <trkpt lat="37.74492326192557811737060546875" lon="-107.7146040089428424835205078125">
        <ele>3361.39990234375</ele>
        <time>2023-07-29T18:28:16.000Z</time>
        <extensions>
          <ns3:TrackPointExtension>
            <ns3:hr>84</ns3:hr>
            <ns3:cad>0</ns3:cad>
          </ns3:TrackPointExtension>
        </extensions>
      </trkpt>
      <trkpt lat="37.7449235133826732635498046875" lon="-107.71459923125803470611572265625">
        <ele>3361.199951171875</ele>
        <time>2023-07-29T18:28:17.000Z</time>
        <extensions>
          <ns3:TrackPointExtension>
            <ns3:hr>84</ns3:hr>
            <ns3:cad>55</ns3:cad>
          </ns3:TrackPointExtension>
        </extensions>
      </trkpt>
      <trkpt lat="37.7449272014200687408447265625" lon="-107.71458439528942108154296875">
        <ele>3361</ele>
        <time>2023-07-29T18:28:18.000Z</time>
        <extensions>
          <ns3:TrackPointExtension>
            <ns3:hr>84</ns3:hr>
            <ns3:cad>55</ns3:cad>
          </ns3:TrackPointExtension>
        </extensions>
      </trkpt>
      <trkpt lat="37.7449312247335910797119140625" lon="-107.7145644463598728179931640625">
        <ele>3360.800048828125</ele>
        <time>2023-07-29T18:28:19.000Z</time>
        <extensions>
          <ns3:TrackPointExtension>
            <ns3:hr>84</ns3:hr>
            <ns3:cad>55</ns3:cad>
          </ns3:TrackPointExtension>
        </extensions>
      </trkpt>
      <trkpt lat="37.74493482895195484161376953125" lon="-107.7145436592400074005126953125">
        <ele>3360.800048828125</ele>
        <time>2023-07-29T18:28:20.000Z</time>
        <extensions>
          <ns3:TrackPointExtension>
            <ns3:hr>84</ns3:hr>
            <ns3:cad>55</ns3:cad>
          </ns3:TrackPointExtension>
        </extensions>
      </trkpt>
      <trkpt lat="37.74493239820003509521484375" lon="-107.714529745280742645263671875">
        <ele>3360.60009765625</ele>
        <time>2023-07-29T18:28:21.000Z</time>
        <extensions>
          <ns3:TrackPointExtension>
            <ns3:hr>84</ns3:hr>
            <ns3:cad>55</ns3:cad>
          </ns3:TrackPointExtension>
        </extensions>
      </trkpt>
      <trkpt lat="37.74492703378200531005859375" lon="-107.71451792679727077484130859375">
        <ele>3360.39990234375</ele>
        <time>2023-07-29T18:28:22.000Z</time>
        <extensions>
          <ns3:TrackPointExtension>
            <ns3:hr>85</ns3:hr>
            <ns3:cad>55</ns3:cad>
          </ns3:TrackPointExtension>
        </extensions>
      </trkpt>
      <trkpt lat="37.7449238486588001251220703125" lon="-107.71450887434184551239013671875">
        <ele>3360.39990234375</ele>
        <time>2023-07-29T18:28:23.000Z</time>
        <extensions>
          <ns3:TrackPointExtension>
            <ns3:hr>85</ns3:hr>
            <ns3:cad>55</ns3:cad>
          </ns3:TrackPointExtension>
        </extensions>
      </trkpt>
      <trkpt lat="37.7449194900691509246826171875" lon="-107.71449680440127849578857421875">
        <ele>3360.199951171875</ele>
        <time>2023-07-29T18:28:24.000Z</time>
        <extensions>
          <ns3:TrackPointExtension>
            <ns3:hr>87</ns3:hr>
            <ns3:cad>62</ns3:cad>
          </ns3:TrackPointExtension>
        </extensions>
      </trkpt>
      <trkpt lat="37.7449144609272480010986328125" lon="-107.71448439918458461761474609375">
        <ele>3360.199951171875</ele>
        <time>2023-07-29T18:28:25.000Z</time>
        <extensions>
          <ns3:TrackPointExtension>
            <ns3:hr>87</ns3:hr>
            <ns3:cad>62</ns3:cad>
          </ns3:TrackPointExtension>
        </extensions>
      </trkpt>
      <trkpt lat="37.744906246662139892578125" lon="-107.71447450853884220123291015625">
        <ele>3360.199951171875</ele>
        <time>2023-07-29T18:28:26.000Z</time>
        <extensions>
          <ns3:TrackPointExtension>
            <ns3:hr>88</ns3:hr>
            <ns3:cad>62</ns3:cad>
          </ns3:TrackPointExtension>
        </extensions>
      </trkpt>
      <trkpt lat="37.74490029551088809967041015625" lon="-107.7144692279398441314697265625">
        <ele>3360</ele>
        <time>2023-07-29T18:28:27.000Z</time>
        <extensions>
          <ns3:TrackPointExtension>
            <ns3:hr>89</ns3:hr>
            <ns3:cad>62</ns3:cad>
          </ns3:TrackPointExtension>
        </extensions>
      </trkpt>
      <trkpt lat="37.74489090777933597564697265625" lon="-107.714456655085086822509765625">
        <ele>3359.800048828125</ele>
        <time>2023-07-29T18:28:28.000Z</time>
        <extensions>
          <ns3:TrackPointExtension>
            <ns3:hr>89</ns3:hr>
            <ns3:cad>62</ns3:cad>
          </ns3:TrackPointExtension>
        </extensions>
      </trkpt>
      <trkpt lat="37.7448852919042110443115234375" lon="-107.7144511230289936065673828125">
        <ele>3359.60009765625</ele>
        <time>2023-07-29T18:28:29.000Z</time>
        <extensions>
          <ns3:TrackPointExtension>
            <ns3:hr>89</ns3:hr>
            <ns3:cad>62</ns3:cad>
          </ns3:TrackPointExtension>
        </extensions>
      </trkpt>
      <trkpt lat="37.744879089295864105224609375" lon="-107.7144457586109638214111328125">
        <ele>3359.39990234375</ele>
        <time>2023-07-29T18:28:30.000Z</time>
        <extensions>
          <ns3:TrackPointExtension>
            <ns3:hr>89</ns3:hr>
            <ns3:cad>62</ns3:cad>
          </ns3:TrackPointExtension>
        </extensions>
      </trkpt>
      <trkpt lat="37.74487045593559741973876953125" lon="-107.71443444304168224334716796875">
        <ele>3359.199951171875</ele>
        <time>2023-07-29T18:28:31.000Z</time>
        <extensions>
          <ns3:TrackPointExtension>
            <ns3:hr>89</ns3:hr>
            <ns3:cad>62</ns3:cad>
          </ns3:TrackPointExtension>
        </extensions>
      </trkpt>
      <trkpt lat="37.7448681928217411041259765625" lon="-107.71442505531013011932373046875">
        <ele>3359.199951171875</ele>
        <time>2023-07-29T18:28:32.000Z</time>
        <extensions>
          <ns3:TrackPointExtension>
            <ns3:hr>89</ns3:hr>
            <ns3:cad>62</ns3:cad>
          </ns3:TrackPointExtension>
        </extensions>
      </trkpt>
      <trkpt lat="37.74486760608851909637451171875" lon="-107.71441097371280193328857421875">
        <ele>3359</ele>
        <time>2023-07-29T18:28:33.000Z</time>
        <extensions>
          <ns3:TrackPointExtension>
            <ns3:hr>89</ns3:hr>
            <ns3:cad>53</ns3:cad>
          </ns3:TrackPointExtension>
        </extensions>
      </trkpt>
      <trkpt lat="37.74486668407917022705078125" lon="-107.7143974788486957550048828125">
        <ele>3359</ele>
        <time>2023-07-29T18:28:34.000Z</time>
        <extensions>
          <ns3:TrackPointExtension>
            <ns3:hr>89</ns3:hr>
            <ns3:cad>53</ns3:cad>
          </ns3:TrackPointExtension>
        </extensions>
      </trkpt>
      <trkpt lat="37.74486995302140712738037109375" lon="-107.7143825590610504150390625">
        <ele>3359</ele>
        <time>2023-07-29T18:28:35.000Z</time>
        <extensions>
          <ns3:TrackPointExtension>
            <ns3:hr>89</ns3:hr>
            <ns3:cad>53</ns3:cad>
          </ns3:TrackPointExtension>
        </extensions>
      </trkpt>
      <trkpt lat="37.74486844427883625030517578125" lon="-107.7143706567585468292236328125">
        <ele>3359</ele>
        <time>2023-07-29T18:28:36.000Z</time>
        <extensions>
          <ns3:TrackPointExtension>
            <ns3:hr>90</ns3:hr>
            <ns3:cad>53</ns3:cad>
          </ns3:TrackPointExtension>
        </extensions>
      </trkpt>
      <trkpt lat="37.744867019355297088623046875" lon="-107.7143592573702335357666015625">
        <ele>3359</ele>
        <time>2023-07-29T18:28:37.000Z</time>
        <extensions>
          <ns3:TrackPointExtension>
            <ns3:hr>90</ns3:hr>
            <ns3:cad>53</ns3:cad>
          </ns3:TrackPointExtension>
        </extensions>
      </trkpt>
      <trkpt lat="37.7448675222694873809814453125" lon="-107.71435146220028400421142578125">
        <ele>3358.39990234375</ele>
        <time>2023-07-29T18:28:38.000Z</time>
        <extensions>
          <ns3:TrackPointExtension>
            <ns3:hr>90</ns3:hr>
            <ns3:cad>53</ns3:cad>
          </ns3:TrackPointExtension>
        </extensions>
      </trkpt>
      <trkpt lat="37.7448634989559650421142578125" lon="-107.71434207446873188018798828125">
        <ele>3358.39990234375</ele>
        <time>2023-07-29T18:28:39.000Z</time>
        <extensions>
          <ns3:TrackPointExtension>
            <ns3:hr>90</ns3:hr>
            <ns3:cad>60</ns3:cad>
          </ns3:TrackPointExtension>
        </extensions>
      </trkpt>
      <trkpt lat="37.74485955946147441864013671875" lon="-107.71433821879327297210693359375">
        <ele>3358</ele>
        <time>2023-07-29T18:28:40.000Z</time>
        <extensions>
          <ns3:TrackPointExtension>
            <ns3:hr>89</ns3:hr>
            <ns3:cad>60</ns3:cad>
          </ns3:TrackPointExtension>
        </extensions>
      </trkpt>
      <trkpt lat="37.74485017172992229461669921875" lon="-107.714329920709133148193359375">
        <ele>3357.800048828125</ele>
        <time>2023-07-29T18:28:41.000Z</time>
        <extensions>
          <ns3:TrackPointExtension>
            <ns3:hr>89</ns3:hr>
            <ns3:cad>0</ns3:cad>
          </ns3:TrackPointExtension>
        </extensions>
      </trkpt>
      <trkpt lat="37.74483793415129184722900390625" lon="-107.71431826986372470855712890625">
        <ele>3357.60009765625</ele>
        <time>2023-07-29T18:28:42.000Z</time>
        <extensions>
          <ns3:TrackPointExtension>
            <ns3:hr>89</ns3:hr>
            <ns3:cad>0</ns3:cad>
          </ns3:TrackPointExtension>
        </extensions>
      </trkpt>
      <trkpt lat="37.74482242763042449951171875" lon="-107.71430703811347484588623046875">
        <ele>3357.39990234375</ele>
        <time>2023-07-29T18:28:43.000Z</time>
        <extensions>
          <ns3:TrackPointExtension>
            <ns3:hr>88</ns3:hr>
            <ns3:cad>59</ns3:cad>
          </ns3:TrackPointExtension>
        </extensions>
      </trkpt>
      <trkpt lat="37.74480423890054225921630859375" lon="-107.714299745857715606689453125">
        <ele>3357.39990234375</ele>
        <time>2023-07-29T18:28:44.000Z</time>
        <extensions>
          <ns3:TrackPointExtension>
            <ns3:hr>88</ns3:hr>
            <ns3:cad>59</ns3:cad>
          </ns3:TrackPointExtension>
        </extensions>
      </trkpt>
      <trkpt lat="37.744784541428089141845703125" lon="-107.714289017021656036376953125">
        <ele>3357</ele>
        <time>2023-07-29T18:28:45.000Z</time>
        <extensions>
          <ns3:TrackPointExtension>
            <ns3:hr>86</ns3:hr>
            <ns3:cad>59</ns3:cad>
          </ns3:TrackPointExtension>
        </extensions>
      </trkpt>
      <trkpt lat="37.7447669394314289093017578125" lon="-107.71428759209811687469482421875">
        <ele>3356.800048828125</ele>
        <time>2023-07-29T18:28:46.000Z</time>
        <extensions>
          <ns3:TrackPointExtension>
            <ns3:hr>85</ns3:hr>
            <ns3:cad>59</ns3:cad>
          </ns3:TrackPointExtension>
        </extensions>
      </trkpt>
      <trkpt lat="37.74475947953760623931884765625" lon="-107.7142875082790851593017578125">
        <ele>3356.800048828125</ele>
        <time>2023-07-29T18:28:47.000Z</time>
        <extensions>
          <ns3:TrackPointExtension>
            <ns3:hr>85</ns3:hr>
            <ns3:cad>0</ns3:cad>
          </ns3:TrackPointExtension>
        </extensions>
      </trkpt>
      <trkpt lat="37.74474690668284893035888671875" lon="-107.71428641863167285919189453125">
        <ele>3356.60009765625</ele>
        <time>2023-07-29T18:28:48.000Z</time>
        <extensions>
          <ns3:TrackPointExtension>
            <ns3:hr>85</ns3:hr>
            <ns3:cad>0</ns3:cad>
          </ns3:TrackPointExtension>
        </extensions>
      </trkpt>
      <trkpt lat="37.7447334118187427520751953125" lon="-107.71429010666906833648681640625">
        <ele>3356.39990234375</ele>
        <time>2023-07-29T18:28:49.000Z</time>
        <extensions>
          <ns3:TrackPointExtension>
            <ns3:hr>85</ns3:hr>
            <ns3:cad>0</ns3:cad>
          </ns3:TrackPointExtension>
        </extensions>
      </trkpt>
      <trkpt lat="37.74472477845847606658935546875" lon="-107.7142942138016223907470703125">
        <ele>3356.39990234375</ele>
        <time>2023-07-29T18:28:50.000Z</time>
        <extensions>
          <ns3:TrackPointExtension>
            <ns3:hr>85</ns3:hr>
            <ns3:cad>0</ns3:cad>
          </ns3:TrackPointExtension>
        </extensions>
      </trkpt>
      <trkpt lat="37.74471388198435306549072265625" lon="-107.714295722544193267822265625">
        <ele>3356.199951171875</ele>
        <time>2023-07-29T18:28:51.000Z</time>
        <extensions>
          <ns3:TrackPointExtension>
            <ns3:hr>85</ns3:hr>
            <ns3:cad>0</ns3:cad>
          </ns3:TrackPointExtension>
        </extensions>
      </trkpt>
      <trkpt lat="37.74470441043376922607421875" lon="-107.7143019251525402069091796875">
        <ele>3356.199951171875</ele>
        <time>2023-07-29T18:28:52.000Z</time>
        <extensions>
          <ns3:TrackPointExtension>
            <ns3:hr>84</ns3:hr>
            <ns3:cad>0</ns3:cad>
          </ns3:TrackPointExtension>
        </extensions>
      </trkpt>
      <trkpt lat="37.74469845928251743316650390625" lon="-107.7143079601228237152099609375">
        <ele>3356.199951171875</ele>
        <time>2023-07-29T18:28:53.000Z</time>
        <extensions>
          <ns3:TrackPointExtension>
            <ns3:hr>84</ns3:hr>
            <ns3:cad>0</ns3:cad>
          </ns3:TrackPointExtension>
        </extensions>
      </trkpt>
      <trkpt lat="37.74469208903610706329345703125" lon="-107.71431726403534412384033203125">
        <ele>3356.199951171875</ele>
        <time>2023-07-29T18:28:54.000Z</time>
        <extensions>
          <ns3:TrackPointExtension>
            <ns3:hr>84</ns3:hr>
            <ns3:cad>0</ns3:cad>
          </ns3:TrackPointExtension>
        </extensions>
      </trkpt>
      <trkpt lat="37.74468085728585720062255859375" lon="-107.714332602918148040771484375">
        <ele>3356</ele>
        <time>2023-07-29T18:28:55.000Z</time>
        <extensions>
          <ns3:TrackPointExtension>
            <ns3:hr>83</ns3:hr>
            <ns3:cad>0</ns3:cad>
          </ns3:TrackPointExtension>
        </extensions>
      </trkpt>
      <trkpt lat="37.744669876992702484130859375" lon="-107.71434710361063480377197265625">
        <ele>3356</ele>
        <time>2023-07-29T18:28:56.000Z</time>
        <extensions>
          <ns3:TrackPointExtension>
            <ns3:hr>83</ns3:hr>
            <ns3:cad>0</ns3:cad>
          </ns3:TrackPointExtension>
        </extensions>
      </trkpt>
      <trkpt lat="37.74465881288051605224609375" lon="-107.71435506641864776611328125">
        <ele>3356</ele>
        <time>2023-07-29T18:28:57.000Z</time>
        <extensions>
          <ns3:TrackPointExtension>
            <ns3:hr>82</ns3:hr>
            <ns3:cad>0</ns3:cad>
          </ns3:TrackPointExtension>
        </extensions>
      </trkpt>
      <trkpt lat="37.7446562983095645904541015625" lon="-107.7143637835979461669921875">
        <ele>3355.60009765625</ele>
        <time>2023-07-29T18:28:58.000Z</time>
        <extensions>
          <ns3:TrackPointExtension>
            <ns3:hr>82</ns3:hr>
            <ns3:cad>0</ns3:cad>
          </ns3:TrackPointExtension>
        </extensions>
      </trkpt>
      <trkpt lat="37.74465017952024936676025390625" lon="-107.714375518262386322021484375">
        <ele>3355.39990234375</ele>
        <time>2023-07-29T18:28:59.000Z</time>
        <extensions>
          <ns3:TrackPointExtension>
            <ns3:hr>82</ns3:hr>
            <ns3:cad>0</ns3:cad>
          </ns3:TrackPointExtension>
        </extensions>
      </trkpt>
      <trkpt lat="37.7446428872644901275634765625" lon="-107.714384905993938446044921875">
        <ele>3355.39990234375</ele>
        <time>2023-07-29T18:29:00.000Z</time>
        <extensions>
          <ns3:TrackPointExtension>
            <ns3:hr>82</ns3:hr>
            <ns3:cad>0</ns3:cad>
          </ns3:TrackPointExtension>
        </extensions>
      </trkpt>
      <trkpt lat="37.74463525973260402679443359375" lon="-107.71439303644001483917236328125">
        <ele>3355.199951171875</ele>
        <time>2023-07-29T18:29:01.000Z</time>
        <extensions>
          <ns3:TrackPointExtension>
            <ns3:hr>82</ns3:hr>
            <ns3:cad>0</ns3:cad>
          </ns3:TrackPointExtension>
        </extensions>
      </trkpt>
      <trkpt lat="37.74463140405714511871337890625" lon="-107.714395634829998016357421875">
        <ele>3355.199951171875</ele>
        <time>2023-07-29T18:29:02.000Z</time>
        <extensions>
          <ns3:TrackPointExtension>
            <ns3:hr>82</ns3:hr>
            <ns3:cad>0</ns3:cad>
          </ns3:TrackPointExtension>
        </extensions>
      </trkpt>
      <trkpt lat="37.74462888948619365692138671875" lon="-107.714400328695774078369140625">
        <ele>3355</ele>
        <time>2023-07-29T18:29:03.000Z</time>
        <extensions>
          <ns3:TrackPointExtension>
            <ns3:hr>82</ns3:hr>
            <ns3:cad>0</ns3:cad>
          </ns3:TrackPointExtension>
        </extensions>
      </trkpt>
      <trkpt lat="37.74462553672492504119873046875" lon="-107.71440141834318637847900390625">
        <ele>3355</ele>
        <time>2023-07-29T18:29:04.000Z</time>
        <extensions>
          <ns3:TrackPointExtension>
            <ns3:hr>83</ns3:hr>
            <ns3:cad>0</ns3:cad>
          </ns3:TrackPointExtension>
        </extensions>
      </trkpt>
      <trkpt lat="37.744616568088531494140625" lon="-107.7144112251698970794677734375">
        <ele>3355</ele>
        <time>2023-07-29T18:29:05.000Z</time>
        <extensions>
          <ns3:TrackPointExtension>
            <ns3:hr>83</ns3:hr>
            <ns3:cad>0</ns3:cad>
          </ns3:TrackPointExtension>
        </extensions>
      </trkpt>
      <trkpt lat="37.74460919201374053955078125" lon="-107.7144165895879268646240234375">
        <ele>3355</ele>
        <time>2023-07-29T18:29:06.000Z</time>
        <extensions>
          <ns3:TrackPointExtension>
            <ns3:hr>83</ns3:hr>
            <ns3:cad>0</ns3:cad>
          </ns3:TrackPointExtension>
        </extensions>
      </trkpt>
      <trkpt lat="37.74459703825414180755615234375" lon="-107.7144303359091281890869140625">
        <ele>3354.800048828125</ele>
        <time>2023-07-29T18:29:07.000Z</time>
        <extensions>
          <ns3:TrackPointExtension>
            <ns3:hr>84</ns3:hr>
            <ns3:cad>0</ns3:cad>
          </ns3:TrackPointExtension>
        </extensions>
      </trkpt>
      <trkpt lat="37.74458932690322399139404296875" lon="-107.714439220726490020751953125">
        <ele>3354.800048828125</ele>
        <time>2023-07-29T18:29:08.000Z</time>
        <extensions>
          <ns3:TrackPointExtension>
            <ns3:hr>85</ns3:hr>
            <ns3:cad>0</ns3:cad>
          </ns3:TrackPointExtension>
        </extensions>
      </trkpt>
      <trkpt lat="37.74458128027617931365966796875" lon="-107.7144511230289936065673828125">
        <ele>3354.60009765625</ele>
        <time>2023-07-29T18:29:09.000Z</time>
        <extensions>
          <ns3:TrackPointExtension>
            <ns3:hr>85</ns3:hr>
            <ns3:cad>0</ns3:cad>
          </ns3:TrackPointExtension>
        </extensions>
      </trkpt>
      <trkpt lat="37.7445721440017223358154296875" lon="-107.714464366436004638671875">
        <ele>3354.60009765625</ele>
        <time>2023-07-29T18:29:10.000Z</time>
        <extensions>
          <ns3:TrackPointExtension>
            <ns3:hr>85</ns3:hr>
            <ns3:cad>0</ns3:cad>
          </ns3:TrackPointExtension>
        </extensions>
      </trkpt>
      <trkpt lat="37.744562923908233642578125" lon="-107.71447576582431793212890625">
        <ele>3354.60009765625</ele>
        <time>2023-07-29T18:29:11.000Z</time>
        <extensions>
          <ns3:TrackPointExtension>
            <ns3:hr>86</ns3:hr>
            <ns3:cad>0</ns3:cad>
          </ns3:TrackPointExtension>
        </extensions>
      </trkpt>
      <trkpt lat="37.7445510216057300567626953125" lon="-107.7144839800894260406494140625">
        <ele>3354.39990234375</ele>
        <time>2023-07-29T18:29:12.000Z</time>
        <extensions>
          <ns3:TrackPointExtension>
            <ns3:hr>86</ns3:hr>
            <ns3:cad>0</ns3:cad>
          </ns3:TrackPointExtension>
        </extensions>
      </trkpt>
      <trkpt lat="37.74454305879771709442138671875" lon="-107.71449428983032703399658203125">
        <ele>3354.199951171875</ele>
        <time>2023-07-29T18:29:13.000Z</time>
        <extensions>
          <ns3:TrackPointExtension>
            <ns3:hr>86</ns3:hr>
            <ns3:cad>0</ns3:cad>
          </ns3:TrackPointExtension>
        </extensions>
      </trkpt>
      <trkpt lat="37.74453585036098957061767578125" lon="-107.7145024202764034271240234375">
        <ele>3354.199951171875</ele>
        <time>2023-07-29T18:29:14.000Z</time>
        <extensions>
          <ns3:TrackPointExtension>
            <ns3:hr>86</ns3:hr>
            <ns3:cad>0</ns3:cad>
          </ns3:TrackPointExtension>
        </extensions>
      </trkpt>
      <trkpt lat="37.74452730081975460052490234375" lon="-107.7145121432840824127197265625">
        <ele>3354.199951171875</ele>
        <time>2023-07-29T18:29:15.000Z</time>
        <extensions>
          <ns3:TrackPointExtension>
            <ns3:hr>86</ns3:hr>
            <ns3:cad>0</ns3:cad>
          </ns3:TrackPointExtension>
        </extensions>
      </trkpt>
      <trkpt lat="37.7445228584110736846923828125" lon="-107.71451859734952449798583984375">
        <ele>3354.199951171875</ele>
        <time>2023-07-29T18:29:16.000Z</time>
        <extensions>
          <ns3:TrackPointExtension>
            <ns3:hr>86</ns3:hr>
            <ns3:cad>0</ns3:cad>
          </ns3:TrackPointExtension>
        </extensions>
      </trkpt>
      <trkpt lat="37.7445184998214244842529296875" lon="-107.7145238779485225677490234375">
        <ele>3354</ele>
        <time>2023-07-29T18:29:17.000Z</time>
        <extensions>
          <ns3:TrackPointExtension>
            <ns3:hr>86</ns3:hr>
            <ns3:cad>0</ns3:cad>
          </ns3:TrackPointExtension>
        </extensions>
      </trkpt>
      <trkpt lat="37.74451271630823612213134765625" lon="-107.714528404176235198974609375">
        <ele>3353.800048828125</ele>
        <time>2023-07-29T18:29:18.000Z</time>
        <extensions>
          <ns3:TrackPointExtension>
            <ns3:hr>86</ns3:hr>
            <ns3:cad>75</ns3:cad>
          </ns3:TrackPointExtension>
        </extensions>
      </trkpt>
      <trkpt lat="37.7445017360150814056396484375" lon="-107.71453536115586757659912109375">
        <ele>3353.800048828125</ele>
        <time>2023-07-29T18:29:19.000Z</time>
        <extensions>
          <ns3:TrackPointExtension>
            <ns3:hr>86</ns3:hr>
            <ns3:cad>75</ns3:cad>
          </ns3:TrackPointExtension>
        </extensions>
      </trkpt>
      <trkpt lat="37.744492851197719573974609375" lon="-107.71454013884067535400390625">
        <ele>3353.39990234375</ele>
        <time>2023-07-29T18:29:20.000Z</time>
        <extensions>
          <ns3:TrackPointExtension>
            <ns3:hr>85</ns3:hr>
            <ns3:cad>75</ns3:cad>
          </ns3:TrackPointExtension>
        </extensions>
      </trkpt>
      <trkpt lat="37.7444826252758502960205078125" lon="-107.7145434916019439697265625">
        <ele>3353.39990234375</ele>
        <time>2023-07-29T18:29:21.000Z</time>
        <extensions>
          <ns3:TrackPointExtension>
            <ns3:hr>85</ns3:hr>
            <ns3:cad>75</ns3:cad>
          </ns3:TrackPointExtension>
        </extensions>
      </trkpt>
      <trkpt lat="37.7444742433726787567138671875" lon="-107.7145461738109588623046875">
        <ele>3353.199951171875</ele>
        <time>2023-07-29T18:29:22.000Z</time>
        <extensions>
          <ns3:TrackPointExtension>
            <ns3:hr>85</ns3:hr>
            <ns3:cad>75</ns3:cad>
          </ns3:TrackPointExtension>
        </extensions>
      </trkpt>
      <trkpt lat="37.74446108378469944000244140625" lon="-107.71454977802932262420654296875">
        <ele>3353</ele>
        <time>2023-07-29T18:29:23.000Z</time>
        <extensions>
          <ns3:TrackPointExtension>
            <ns3:hr>85</ns3:hr>
            <ns3:cad>75</ns3:cad>
          </ns3:TrackPointExtension>
        </extensions>
      </trkpt>
      <trkpt lat="37.74444985203444957733154296875" lon="-107.7145503647625446319580078125">
        <ele>3352.800048828125</ele>
        <time>2023-07-29T18:29:24.000Z</time>
        <extensions>
          <ns3:TrackPointExtension>
            <ns3:hr>85</ns3:hr>
            <ns3:cad>75</ns3:cad>
          </ns3:TrackPointExtension>
        </extensions>
      </trkpt>
      <trkpt lat="37.74443359114229679107666015625" lon="-107.71455044858157634735107421875">
        <ele>3352.800048828125</ele>
        <time>2023-07-29T18:29:25.000Z</time>
        <extensions>
          <ns3:TrackPointExtension>
            <ns3:hr>85</ns3:hr>
            <ns3:cad>75</ns3:cad>
          </ns3:TrackPointExtension>
        </extensions>
      </trkpt>
      <trkpt lat="37.744412720203399658203125" lon="-107.71455883048474788665771484375">
        <ele>3352.60009765625</ele>
        <time>2023-07-29T18:29:26.000Z</time>
        <extensions>
          <ns3:TrackPointExtension>
            <ns3:hr>85</ns3:hr>
            <ns3:cad>75</ns3:cad>
          </ns3:TrackPointExtension>
        </extensions>
      </trkpt>
      <trkpt lat="37.74438866414129734039306640625" lon="-107.71456486545503139495849609375">
        <ele>3352.60009765625</ele>
        <time>2023-07-29T18:29:27.000Z</time>
        <extensions>
          <ns3:TrackPointExtension>
            <ns3:hr>84</ns3:hr>
            <ns3:cad>56</ns3:cad>
          </ns3:TrackPointExtension>
        </extensions>
      </trkpt>
      <trkpt lat="37.7443706430494785308837890625" lon="-107.7145708166062831878662109375">
        <ele>3352.39990234375</ele>
        <time>2023-07-29T18:29:28.000Z</time>
        <extensions>
          <ns3:TrackPointExtension>
            <ns3:hr>84</ns3:hr>
            <ns3:cad>56</ns3:cad>
          </ns3:TrackPointExtension>
        </extensions>
      </trkpt>
      <trkpt lat="37.74435748346149921417236328125" lon="-107.71457207389175891876220703125">
        <ele>3352.39990234375</ele>
        <time>2023-07-29T18:29:29.000Z</time>
        <extensions>
          <ns3:TrackPointExtension>
            <ns3:hr>83</ns3:hr>
            <ns3:cad>56</ns3:cad>
          </ns3:TrackPointExtension>
        </extensions>
      </trkpt>
      <trkpt lat="37.7443421445786952972412109375" lon="-107.71457559429109096527099609375">
        <ele>3352.39990234375</ele>
        <time>2023-07-29T18:29:30.000Z</time>
        <extensions>
          <ns3:TrackPointExtension>
            <ns3:hr>83</ns3:hr>
            <ns3:cad>57</ns3:cad>
          </ns3:TrackPointExtension>
        </extensions>
      </trkpt>
      <trkpt lat="37.74433719925582408905029296875" lon="-107.71457978524267673492431640625">
        <ele>3352.39990234375</ele>
        <time>2023-07-29T18:29:31.000Z</time>
        <extensions>
          <ns3:TrackPointExtension>
            <ns3:hr>82</ns3:hr>
            <ns3:cad>57</ns3:cad>
          </ns3:TrackPointExtension>
        </extensions>
      </trkpt>
      <trkpt lat="37.7443287335336208343505859375" lon="-107.71458037197589874267578125">
        <ele>3352</ele>
        <time>2023-07-29T18:29:32.000Z</time>
        <extensions>
          <ns3:TrackPointExtension>
            <ns3:hr>82</ns3:hr>
            <ns3:cad>57</ns3:cad>
          </ns3:TrackPointExtension>
        </extensions>
      </trkpt>
      <trkpt lat="37.74431909434497356414794921875" lon="-107.71457928232848644256591796875">
        <ele>3351.800048828125</ele>
        <time>2023-07-29T18:29:33.000Z</time>
        <extensions>
          <ns3:TrackPointExtension>
            <ns3:hr>82</ns3:hr>
            <ns3:cad>57</ns3:cad>
          </ns3:TrackPointExtension>
        </extensions>
      </trkpt>
      <trkpt lat="37.744309790432453155517578125" lon="-107.71457693539559841156005859375">
        <ele>3351.800048828125</ele>
        <time>2023-07-29T18:29:34.000Z</time>
        <extensions>
          <ns3:TrackPointExtension>
            <ns3:hr>81</ns3:hr>
            <ns3:cad>57</ns3:cad>
          </ns3:TrackPointExtension>
        </extensions>
      </trkpt>
      <trkpt lat="37.74429981596767902374267578125" lon="-107.71457232534885406494140625">
        <ele>3351.800048828125</ele>
        <time>2023-07-29T18:29:35.000Z</time>
        <extensions>
          <ns3:TrackPointExtension>
            <ns3:hr>81</ns3:hr>
            <ns3:cad>57</ns3:cad>
          </ns3:TrackPointExtension>
        </extensions>
      </trkpt>
      <trkpt lat="37.74428020231425762176513671875" lon="-107.71457022987306118011474609375">
        <ele>3351.800048828125</ele>
        <time>2023-07-29T18:29:36.000Z</time>
        <extensions>
          <ns3:TrackPointExtension>
            <ns3:hr>82</ns3:hr>
            <ns3:cad>57</ns3:cad>
          </ns3:TrackPointExtension>
        </extensions>
      </trkpt>
      <trkpt lat="37.74427525699138641357421875" lon="-107.71456453017890453338623046875">
        <ele>3351.60009765625</ele>
        <time>2023-07-29T18:29:37.000Z</time>
        <extensions>
          <ns3:TrackPointExtension>
            <ns3:hr>82</ns3:hr>
            <ns3:cad>57</ns3:cad>
          </ns3:TrackPointExtension>
        </extensions>
      </trkpt>
      <trkpt lat="37.744269557297229766845703125" lon="-107.71456033922731876373291015625">
        <ele>3351.60009765625</ele>
        <time>2023-07-29T18:29:38.000Z</time>
        <extensions>
          <ns3:TrackPointExtension>
            <ns3:hr>82</ns3:hr>
            <ns3:cad>57</ns3:cad>
          </ns3:TrackPointExtension>
        </extensions>
      </trkpt>
      <trkpt lat="37.7442633546888828277587890625" lon="-107.71455598063766956329345703125">
        <ele>3351.60009765625</ele>
        <time>2023-07-29T18:29:39.000Z</time>
        <extensions>
          <ns3:TrackPointExtension>
            <ns3:hr>82</ns3:hr>
            <ns3:cad>57</ns3:cad>
          </ns3:TrackPointExtension>
        </extensions>
      </trkpt>
      <trkpt lat="37.74426159448921680450439453125" lon="-107.71455229260027408599853515625">
        <ele>3351.39990234375</ele>
        <time>2023-07-29T18:29:40.000Z</time>
        <extensions>
          <ns3:TrackPointExtension>
            <ns3:hr>82</ns3:hr>
            <ns3:cad>0</ns3:cad>
          </ns3:TrackPointExtension>
        </extensions>
      </trkpt>
      <trkpt lat="37.74426176212728023529052734375" lon="-107.714543826878070831298828125">
        <ele>3351.199951171875</ele>
        <time>2023-07-29T18:29:41.000Z</time>
        <extensions>
          <ns3:TrackPointExtension>
            <ns3:hr>82</ns3:hr>
            <ns3:cad>0</ns3:cad>
          </ns3:TrackPointExtension>
        </extensions>
      </trkpt>
      <trkpt lat="37.74426528252661228179931640625" lon="-107.71453435532748699188232421875">
        <ele>3351.199951171875</ele>
        <time>2023-07-29T18:29:42.000Z</time>
        <extensions>
          <ns3:TrackPointExtension>
            <ns3:hr>82</ns3:hr>
            <ns3:cad>0</ns3:cad>
          </ns3:TrackPointExtension>
        </extensions>
      </trkpt>
      <trkpt lat="37.7442693896591663360595703125" lon="-107.71452245302498340606689453125">
        <ele>3351</ele>
        <time>2023-07-29T18:29:43.000Z</time>
        <extensions>
          <ns3:TrackPointExtension>
            <ns3:hr>82</ns3:hr>
            <ns3:cad>0</ns3:cad>
          </ns3:TrackPointExtension>
        </extensions>
      </trkpt>
      <trkpt lat="37.74427257478237152099609375" lon="-107.7145077846944332122802734375">
        <ele>3350.800048828125</ele>
        <time>2023-07-29T18:29:44.000Z</time>
        <extensions>
          <ns3:TrackPointExtension>
            <ns3:hr>82</ns3:hr>
            <ns3:cad>0</ns3:cad>
          </ns3:TrackPointExtension>
        </extensions>
      </trkpt>
      <trkpt lat="37.74427198804914951324462890625" lon="-107.71449160762131214141845703125">
        <ele>3350.60009765625</ele>
        <time>2023-07-29T18:29:45.000Z</time>
        <extensions>
          <ns3:TrackPointExtension>
            <ns3:hr>82</ns3:hr>
            <ns3:cad>0</ns3:cad>
          </ns3:TrackPointExtension>
        </extensions>
      </trkpt>
      <trkpt lat="37.74427123367786407470703125" lon="-107.71447719074785709381103515625">
        <ele>3350.199951171875</ele>
        <time>2023-07-29T18:29:46.000Z</time>
        <extensions>
          <ns3:TrackPointExtension>
            <ns3:hr>82</ns3:hr>
            <ns3:cad>0</ns3:cad>
          </ns3:TrackPointExtension>
        </extensions>
      </trkpt>
      <trkpt lat="37.74426528252661228179931640625" lon="-107.71446168422698974609375">
        <ele>3350</ele>
        <time>2023-07-29T18:29:47.000Z</time>
        <extensions>
          <ns3:TrackPointExtension>
            <ns3:hr>83</ns3:hr>
            <ns3:cad>59</ns3:cad>
          </ns3:TrackPointExtension>
        </extensions>
      </trkpt>
      <trkpt lat="37.744260169565677642822265625" lon="-107.71445388905704021453857421875">
        <ele>3349.800048828125</ele>
        <time>2023-07-29T18:29:48.000Z</time>
        <extensions>
          <ns3:TrackPointExtension>
            <ns3:hr>83</ns3:hr>
            <ns3:cad>59</ns3:cad>
          </ns3:TrackPointExtension>
        </extensions>
      </trkpt>
      <trkpt lat="37.7442482672631740570068359375" lon="-107.714437879621982574462890625">
        <ele>3349.60009765625</ele>
        <time>2023-07-29T18:29:49.000Z</time>
        <extensions>
          <ns3:TrackPointExtension>
            <ns3:hr>83</ns3:hr>
            <ns3:cad>59</ns3:cad>
          </ns3:TrackPointExtension>
        </extensions>
      </trkpt>
      <trkpt lat="37.744241394102573394775390625" lon="-107.714432179927825927734375">
        <ele>3349.39990234375</ele>
        <time>2023-07-29T18:29:50.000Z</time>
        <extensions>
          <ns3:TrackPointExtension>
            <ns3:hr>84</ns3:hr>
            <ns3:cad>59</ns3:cad>
          </ns3:TrackPointExtension>
        </extensions>
      </trkpt>
      <trkpt lat="37.7442325092852115631103515625" lon="-107.714425139129161834716796875">
        <ele>3349.39990234375</ele>
        <time>2023-07-29T18:29:51.000Z</time>
        <extensions>
          <ns3:TrackPointExtension>
            <ns3:hr>84</ns3:hr>
            <ns3:cad>59</ns3:cad>
          </ns3:TrackPointExtension>
        </extensions>
      </trkpt>
      <trkpt lat="37.74422504939138889312744140625" lon="-107.71442212164402008056640625">
        <ele>3349.39990234375</ele>
        <time>2023-07-29T18:29:52.000Z</time>
        <extensions>
          <ns3:TrackPointExtension>
            <ns3:hr>84</ns3:hr>
            <ns3:cad>59</ns3:cad>
          </ns3:TrackPointExtension>
        </extensions>
      </trkpt>
      <trkpt lat="37.74421331472694873809814453125" lon="-107.71441885270178318023681640625">
        <ele>3349.39990234375</ele>
        <time>2023-07-29T18:29:53.000Z</time>
        <extensions>
          <ns3:TrackPointExtension>
            <ns3:hr>84</ns3:hr>
            <ns3:cad>59</ns3:cad>
          </ns3:TrackPointExtension>
        </extensions>
      </trkpt>
      <trkpt lat="37.74420426227152347564697265625" lon="-107.71441675722599029541015625">
        <ele>3349.199951171875</ele>
        <time>2023-07-29T18:29:54.000Z</time>
        <extensions>
          <ns3:TrackPointExtension>
            <ns3:hr>84</ns3:hr>
            <ns3:cad>59</ns3:cad>
          </ns3:TrackPointExtension>
        </extensions>
      </trkpt>
      <trkpt lat="37.7441962994635105133056640625" lon="-107.71441466175019741058349609375">
        <ele>3349.199951171875</ele>
        <time>2023-07-29T18:29:55.000Z</time>
        <extensions>
          <ns3:TrackPointExtension>
            <ns3:hr>84</ns3:hr>
            <ns3:cad>53</ns3:cad>
          </ns3:TrackPointExtension>
        </extensions>
      </trkpt>
      <trkpt lat="37.74418716318905353546142578125" lon="-107.71441332064568996429443359375">
        <ele>3349.199951171875</ele>
        <time>2023-07-29T18:29:56.000Z</time>
        <extensions>
          <ns3:TrackPointExtension>
            <ns3:hr>84</ns3:hr>
            <ns3:cad>53</ns3:cad>
          </ns3:TrackPointExtension>
        </extensions>
      </trkpt>
      <trkpt lat="37.7441822178661823272705078125" lon="-107.7144122309982776641845703125">
        <ele>3349</ele>
        <time>2023-07-29T18:29:57.000Z</time>
        <extensions>
          <ns3:TrackPointExtension>
            <ns3:hr>84</ns3:hr>
            <ns3:cad>53</ns3:cad>
          </ns3:TrackPointExtension>
        </extensions>
      </trkpt>
      <trkpt lat="37.74417400360107421875" lon="-107.71441097371280193328857421875">
        <ele>3348.800048828125</ele>
        <time>2023-07-29T18:29:58.000Z</time>
        <extensions>
          <ns3:TrackPointExtension>
            <ns3:hr>84</ns3:hr>
            <ns3:cad>53</ns3:cad>
          </ns3:TrackPointExtension>
        </extensions>
      </trkpt>
      <trkpt lat="37.74417140521109104156494140625" lon="-107.71440577693283557891845703125">
        <ele>3348.800048828125</ele>
        <time>2023-07-29T18:29:59.000Z</time>
        <extensions>
          <ns3:TrackPointExtension>
            <ns3:hr>84</ns3:hr>
            <ns3:cad>53</ns3:cad>
          </ns3:TrackPointExtension>
        </extensions>
      </trkpt>
      <trkpt lat="37.7441667951643466949462890625" lon="-107.71439856849610805511474609375">
        <ele>3348.60009765625</ele>
        <time>2023-07-29T18:30:00.000Z</time>
        <extensions>
          <ns3:TrackPointExtension>
            <ns3:hr>83</ns3:hr>
            <ns3:cad>53</ns3:cad>
          </ns3:TrackPointExtension>
        </extensions>
      </trkpt>
      <trkpt lat="37.74415631778538227081298828125" lon="-107.71438968367874622344970703125">
        <ele>3348.39990234375</ele>
        <time>2023-07-29T18:30:01.000Z</time>
        <extensions>
          <ns3:TrackPointExtension>
            <ns3:hr>81</ns3:hr>
            <ns3:cad>53</ns3:cad>
          </ns3:TrackPointExtension>
        </extensions>
      </trkpt>
      <trkpt lat="37.74414022453129291534423828125" lon="-107.7143770270049571990966796875">
        <ele>3348.39990234375</ele>
        <time>2023-07-29T18:30:02.000Z</time>
        <extensions>
          <ns3:TrackPointExtension>
            <ns3:hr>81</ns3:hr>
            <ns3:cad>0</ns3:cad>
          </ns3:TrackPointExtension>
        </extensions>
      </trkpt>
      <trkpt lat="37.7441265620291233062744140625" lon="-107.71436219103634357452392578125">
        <ele>3348.39990234375</ele>
        <time>2023-07-29T18:30:03.000Z</time>
        <extensions>
          <ns3:TrackPointExtension>
            <ns3:hr>81</ns3:hr>
            <ns3:cad>0</ns3:cad>
          </ns3:TrackPointExtension>
        </extensions>
      </trkpt>
      <trkpt lat="37.7441285736858844757080078125" lon="-107.7143396437168121337890625">
        <ele>3348.199951171875</ele>
        <time>2023-07-29T18:30:04.000Z</time>
        <extensions>
          <ns3:TrackPointExtension>
            <ns3:hr>81</ns3:hr>
            <ns3:cad>0</ns3:cad>
          </ns3:TrackPointExtension>
        </extensions>
      </trkpt>
      <trkpt lat="37.74412245489656925201416015625" lon="-107.71432179026305675506591796875">
        <ele>3348.199951171875</ele>
        <time>2023-07-29T18:30:05.000Z</time>
        <extensions>
          <ns3:TrackPointExtension>
            <ns3:hr>81</ns3:hr>
            <ns3:cad>0</ns3:cad>
          </ns3:TrackPointExtension>
        </extensions>
      </trkpt>
      <trkpt lat="37.7441238798201084136962890625" lon="-107.7143069542944431304931640625">
        <ele>3348.199951171875</ele>
        <time>2023-07-29T18:30:06.000Z</time>
        <extensions>
          <ns3:TrackPointExtension>
            <ns3:hr>80</ns3:hr>
            <ns3:cad>0</ns3:cad>
          </ns3:TrackPointExtension>
        </extensions>
      </trkpt>
      <trkpt lat="37.744125388562679290771484375" lon="-107.7142922021448612213134765625">
        <ele>3348.199951171875</ele>
        <time>2023-07-29T18:30:07.000Z</time>
        <extensions>
          <ns3:TrackPointExtension>
            <ns3:hr>81</ns3:hr>
            <ns3:cad>0</ns3:cad>
          </ns3:TrackPointExtension>
        </extensions>
      </trkpt>
      <trkpt lat="37.74412111379206180572509765625" lon="-107.71427954547107219696044921875">
        <ele>3348</ele>
        <time>2023-07-29T18:30:08.000Z</time>
        <extensions>
          <ns3:TrackPointExtension>
            <ns3:hr>81</ns3:hr>
            <ns3:cad>18</ns3:cad>
          </ns3:TrackPointExtension>
        </extensions>
      </trkpt>
      <trkpt lat="37.74411055259406566619873046875" lon="-107.71426026709377765655517578125">
        <ele>3347.39990234375</ele>
        <time>2023-07-29T18:30:09.000Z</time>
        <extensions>
          <ns3:TrackPointExtension>
            <ns3:hr>83</ns3:hr>
            <ns3:cad>18</ns3:cad>
          </ns3:TrackPointExtension>
        </extensions>
      </trkpt>
      <trkpt lat="37.74409957230091094970703125" lon="-107.71423243917524814605712890625">
        <ele>3347.39990234375</ele>
        <time>2023-07-29T18:30:10.000Z</time>
        <extensions>
          <ns3:TrackPointExtension>
            <ns3:hr>85</ns3:hr>
            <ns3:cad>0</ns3:cad>
          </ns3:TrackPointExtension>
        </extensions>
      </trkpt>
      <trkpt lat="37.74408750236034393310546875" lon="-107.71421383135020732879638671875">
        <ele>3347.39990234375</ele>
        <time>2023-07-29T18:30:11.000Z</time>
        <extensions>
          <ns3:TrackPointExtension>
            <ns3:hr>86</ns3:hr>
            <ns3:cad>0</ns3:cad>
          </ns3:TrackPointExtension>
        </extensions>
      </trkpt>
      <trkpt lat="37.744077779352664947509765625" lon="-107.714204527437686920166015625">
        <ele>3347.39990234375</ele>
        <time>2023-07-29T18:30:12.000Z</time>
        <extensions>
          <ns3:TrackPointExtension>
            <ns3:hr>87</ns3:hr>
            <ns3:cad>0</ns3:cad>
          </ns3:TrackPointExtension>
        </extensions>
      </trkpt>
      <trkpt lat="37.7440611831843852996826171875" lon="-107.714191116392612457275390625">
        <ele>3347.199951171875</ele>
        <time>2023-07-29T18:30:13.000Z</time>
        <extensions>
          <ns3:TrackPointExtension>
            <ns3:hr>88</ns3:hr>
            <ns3:cad>0</ns3:cad>
          </ns3:TrackPointExtension>
        </extensions>
      </trkpt>
      <trkpt lat="37.7440521307289600372314453125" lon="-107.7141859196126461029052734375">
        <ele>3347.199951171875</ele>
        <time>2023-07-29T18:30:14.000Z</time>
        <extensions>
          <ns3:TrackPointExtension>
            <ns3:hr>88</ns3:hr>
            <ns3:cad>0</ns3:cad>
          </ns3:TrackPointExtension>
        </extensions>
      </trkpt>
      <trkpt lat="37.7440477721393108367919921875" lon="-107.7141802199184894561767578125">
        <ele>3347.199951171875</ele>
        <time>2023-07-29T18:30:15.000Z</time>
        <extensions>
          <ns3:TrackPointExtension>
            <ns3:hr>88</ns3:hr>
            <ns3:cad>0</ns3:cad>
          </ns3:TrackPointExtension>
        </extensions>
      </trkpt>
      <trkpt lat="37.74404064752161502838134765625" lon="-107.714175693690776824951171875">
        <ele>3347.199951171875</ele>
        <time>2023-07-29T18:30:16.000Z</time>
        <extensions>
          <ns3:TrackPointExtension>
            <ns3:hr>89</ns3:hr>
            <ns3:cad>0</ns3:cad>
          </ns3:TrackPointExtension>
        </extensions>
      </trkpt>
      <trkpt lat="37.744028829038143157958984375" lon="-107.71416991017758846282958984375">
        <ele>3347</ele>
        <time>2023-07-29T18:30:17.000Z</time>
        <extensions>
          <ns3:TrackPointExtension>
            <ns3:hr>89</ns3:hr>
            <ns3:cad>0</ns3:cad>
          </ns3:TrackPointExtension>
        </extensions>
      </trkpt>
      <trkpt lat="37.74402488954365253448486328125" lon="-107.71417108364403247833251953125">
        <ele>3347</ele>
        <time>2023-07-29T18:30:18.000Z</time>
        <extensions>
          <ns3:TrackPointExtension>
            <ns3:hr>90</ns3:hr>
            <ns3:cad>0</ns3:cad>
          </ns3:TrackPointExtension>
        </extensions>
      </trkpt>
      <trkpt lat="37.74401550181210041046142578125" lon="-107.71416890434920787811279296875">
        <ele>3346.800048828125</ele>
        <time>2023-07-29T18:30:19.000Z</time>
        <extensions>
          <ns3:TrackPointExtension>
            <ns3:hr>91</ns3:hr>
            <ns3:cad>0</ns3:cad>
          </ns3:TrackPointExtension>
        </extensions>
      </trkpt>
      <trkpt lat="37.74401164613664150238037109375" lon="-107.71416823379695415496826171875">
        <ele>3346.800048828125</ele>
        <time>2023-07-29T18:30:20.000Z</time>
        <extensions>
          <ns3:TrackPointExtension>
            <ns3:hr>91</ns3:hr>
            <ns3:cad>0</ns3:cad>
          </ns3:TrackPointExtension>
        </extensions>
      </trkpt>
      <trkpt lat="37.74400292895734310150146484375" lon="-107.71416806615889072418212890625">
        <ele>3346.800048828125</ele>
        <time>2023-07-29T18:30:21.000Z</time>
        <extensions>
          <ns3:TrackPointExtension>
            <ns3:hr>91</ns3:hr>
            <ns3:cad>55</ns3:cad>
          </ns3:TrackPointExtension>
        </extensions>
      </trkpt>
      <trkpt lat="37.7439924515783786773681640625" lon="-107.7141651324927806854248046875">
        <ele>3346.800048828125</ele>
        <time>2023-07-29T18:30:22.000Z</time>
        <extensions>
          <ns3:TrackPointExtension>
            <ns3:hr>91</ns3:hr>
            <ns3:cad>55</ns3:cad>
          </ns3:TrackPointExtension>
        </extensions>
      </trkpt>
      <trkpt lat="37.7439783699810504913330078125" lon="-107.7141641266644001007080078125">
        <ele>3346.800048828125</ele>
        <time>2023-07-29T18:30:23.000Z</time>
        <extensions>
          <ns3:TrackPointExtension>
            <ns3:hr>91</ns3:hr>
            <ns3:cad>55</ns3:cad>
          </ns3:TrackPointExtension>
        </extensions>
      </trkpt>
      <trkpt lat="37.74396370165050029754638671875" lon="-107.7141664735972881317138671875">
        <ele>3346.800048828125</ele>
        <time>2023-07-29T18:30:24.000Z</time>
        <extensions>
          <ns3:TrackPointExtension>
            <ns3:hr>91</ns3:hr>
            <ns3:cad>55</ns3:cad>
          </ns3:TrackPointExtension>
        </extensions>
      </trkpt>
      <trkpt lat="37.74394827894866466522216796875" lon="-107.71416789852082729339599609375">
        <ele>3346.800048828125</ele>
        <time>2023-07-29T18:30:25.000Z</time>
        <extensions>
          <ns3:TrackPointExtension>
            <ns3:hr>91</ns3:hr>
            <ns3:cad>53</ns3:cad>
          </ns3:TrackPointExtension>
        </extensions>
      </trkpt>
      <trkpt lat="37.743936292827129364013671875" lon="-107.7141706645488739013671875">
        <ele>3346.60009765625</ele>
        <time>2023-07-29T18:30:26.000Z</time>
        <extensions>
          <ns3:TrackPointExtension>
            <ns3:hr>90</ns3:hr>
            <ns3:cad>53</ns3:cad>
          </ns3:TrackPointExtension>
        </extensions>
      </trkpt>
      <trkpt lat="37.743919529020786285400390625" lon="-107.71416974253952503204345703125">
        <ele>3346.60009765625</ele>
        <time>2023-07-29T18:30:27.000Z</time>
        <extensions>
          <ns3:TrackPointExtension>
            <ns3:hr>90</ns3:hr>
            <ns3:cad>53</ns3:cad>
          </ns3:TrackPointExtension>
        </extensions>
      </trkpt>
      <trkpt lat="37.74390251375734806060791015625" lon="-107.714169658720493316650390625">
        <ele>3346.60009765625</ele>
        <time>2023-07-29T18:30:28.000Z</time>
        <extensions>
          <ns3:TrackPointExtension>
            <ns3:hr>89</ns3:hr>
            <ns3:cad>53</ns3:cad>
          </ns3:TrackPointExtension>
        </extensions>
      </trkpt>
      <trkpt lat="37.74388633668422698974609375" lon="-107.71416840143501758575439453125">
        <ele>3346.60009765625</ele>
        <time>2023-07-29T18:30:29.000Z</time>
        <extensions>
          <ns3:TrackPointExtension>
            <ns3:hr>89</ns3:hr>
            <ns3:cad>53</ns3:cad>
          </ns3:TrackPointExtension>
        </extensions>
      </trkpt>
      <trkpt lat="37.743871919810771942138671875" lon="-107.71416655741631984710693359375">
        <ele>3346.60009765625</ele>
        <time>2023-07-29T18:30:30.000Z</time>
        <extensions>
          <ns3:TrackPointExtension>
            <ns3:hr>89</ns3:hr>
            <ns3:cad>0</ns3:cad>
          </ns3:TrackPointExtension>
        </extensions>
      </trkpt>
      <trkpt lat="37.7438606880605220794677734375" lon="-107.71416488103568553924560546875">
        <ele>3346.39990234375</ele>
        <time>2023-07-29T18:30:31.000Z</time>
        <extensions>
          <ns3:TrackPointExtension>
            <ns3:hr>89</ns3:hr>
            <ns3:cad>0</ns3:cad>
          </ns3:TrackPointExtension>
        </extensions>
      </trkpt>
      <trkpt lat="37.74384685792028903961181640625" lon="-107.71416404284536838531494140625">
        <ele>3346.39990234375</ele>
        <time>2023-07-29T18:30:32.000Z</time>
        <extensions>
          <ns3:TrackPointExtension>
            <ns3:hr>89</ns3:hr>
            <ns3:cad>0</ns3:cad>
          </ns3:TrackPointExtension>
        </extensions>
      </trkpt>
      <trkpt lat="37.74383512325584888458251953125" lon="-107.71416152827441692352294921875">
        <ele>3346.39990234375</ele>
        <time>2023-07-29T18:30:33.000Z</time>
        <extensions>
          <ns3:TrackPointExtension>
            <ns3:hr>89</ns3:hr>
            <ns3:cad>0</ns3:cad>
          </ns3:TrackPointExtension>
        </extensions>
      </trkpt>
      <trkpt lat="37.7438264898955821990966796875" lon="-107.7141627855598926544189453125">
        <ele>3346.39990234375</ele>
        <time>2023-07-29T18:30:34.000Z</time>
        <extensions>
          <ns3:TrackPointExtension>
            <ns3:hr>89</ns3:hr>
            <ns3:cad>0</ns3:cad>
          </ns3:TrackPointExtension>
        </extensions>
      </trkpt>
      <trkpt lat="37.74380964227020740509033203125" lon="-107.7141644619405269622802734375">
        <ele>3346.39990234375</ele>
        <time>2023-07-29T18:30:35.000Z</time>
        <extensions>
          <ns3:TrackPointExtension>
            <ns3:hr>89</ns3:hr>
            <ns3:cad>0</ns3:cad>
          </ns3:TrackPointExtension>
        </extensions>
      </trkpt>
      <trkpt lat="37.743796147406101226806640625" lon="-107.71416756324470043182373046875">
        <ele>3346.199951171875</ele>
        <time>2023-07-29T18:30:36.000Z</time>
        <extensions>
          <ns3:TrackPointExtension>
            <ns3:hr>89</ns3:hr>
            <ns3:cad>0</ns3:cad>
          </ns3:TrackPointExtension>
        </extensions>
      </trkpt>
      <trkpt lat="37.74378835223615169525146484375" lon="-107.71416940726339817047119140625">
        <ele>3346.199951171875</ele>
        <time>2023-07-29T18:30:37.000Z</time>
        <extensions>
          <ns3:TrackPointExtension>
            <ns3:hr>88</ns3:hr>
            <ns3:cad>0</ns3:cad>
          </ns3:TrackPointExtension>
        </extensions>
      </trkpt>
      <trkpt lat="37.7437772043049335479736328125" lon="-107.71416991017758846282958984375">
        <ele>3346.199951171875</ele>
        <time>2023-07-29T18:30:38.000Z</time>
        <extensions>
          <ns3:TrackPointExtension>
            <ns3:hr>87</ns3:hr>
            <ns3:cad>0</ns3:cad>
          </ns3:TrackPointExtension>
        </extensions>
      </trkpt>
      <trkpt lat="37.7437681518495082855224609375" lon="-107.714168988168239593505859375">
        <ele>3346.199951171875</ele>
        <time>2023-07-29T18:30:39.000Z</time>
        <extensions>
          <ns3:TrackPointExtension>
            <ns3:hr>87</ns3:hr>
            <ns3:cad>0</ns3:cad>
          </ns3:TrackPointExtension>
        </extensions>
      </trkpt>
      <trkpt lat="37.74375750683248043060302734375" lon="-107.71416999399662017822265625">
        <ele>3346.199951171875</ele>
        <time>2023-07-29T18:30:40.000Z</time>
        <extensions>
          <ns3:TrackPointExtension>
            <ns3:hr>86</ns3:hr>
            <ns3:cad>0</ns3:cad>
          </ns3:TrackPointExtension>
        </extensions>
      </trkpt>
      <trkpt lat="37.74374526925384998321533203125" lon="-107.7141684852540493011474609375">
        <ele>3346</ele>
        <time>2023-07-29T18:30:41.000Z</time>
        <extensions>
          <ns3:TrackPointExtension>
            <ns3:hr>86</ns3:hr>
            <ns3:cad>0</ns3:cad>
          </ns3:TrackPointExtension>
        </extensions>
      </trkpt>
      <trkpt lat="37.7437327802181243896484375" lon="-107.71416638977825641632080078125">
        <ele>3346</ele>
        <time>2023-07-29T18:30:42.000Z</time>
        <extensions>
          <ns3:TrackPointExtension>
            <ns3:hr>85</ns3:hr>
            <ns3:cad>0</ns3:cad>
          </ns3:TrackPointExtension>
        </extensions>
      </trkpt>
      <trkpt lat="37.74371559731662273406982421875" lon="-107.7141653001308441162109375">
        <ele>3345.800048828125</ele>
        <time>2023-07-29T18:30:43.000Z</time>
        <extensions>
          <ns3:TrackPointExtension>
            <ns3:hr>85</ns3:hr>
            <ns3:cad>0</ns3:cad>
          </ns3:TrackPointExtension>
        </extensions>
      </trkpt>
      <trkpt lat="37.74370017461478710174560546875" lon="-107.71416437812149524688720703125">
        <ele>3345.800048828125</ele>
        <time>2023-07-29T18:30:44.000Z</time>
        <extensions>
          <ns3:TrackPointExtension>
            <ns3:hr>84</ns3:hr>
            <ns3:cad>0</ns3:cad>
          </ns3:TrackPointExtension>
        </extensions>
      </trkpt>
      <trkpt lat="37.7436893619596958160400390625" lon="-107.7141658030450344085693359375">
        <ele>3345.60009765625</ele>
        <time>2023-07-29T18:30:45.000Z</time>
        <extensions>
          <ns3:TrackPointExtension>
            <ns3:hr>84</ns3:hr>
            <ns3:cad>0</ns3:cad>
          </ns3:TrackPointExtension>
        </extensions>
      </trkpt>
      <trkpt lat="37.74368223734200000762939453125" lon="-107.71416638977825641632080078125">
        <ele>3345.60009765625</ele>
        <time>2023-07-29T18:30:46.000Z</time>
        <extensions>
          <ns3:TrackPointExtension>
            <ns3:hr>84</ns3:hr>
            <ns3:cad>0</ns3:cad>
          </ns3:TrackPointExtension>
        </extensions>
      </trkpt>
      <trkpt lat="37.7436710894107818603515625" lon="-107.71416940726339817047119140625">
        <ele>3345.60009765625</ele>
        <time>2023-07-29T18:30:47.000Z</time>
        <extensions>
          <ns3:TrackPointExtension>
            <ns3:hr>84</ns3:hr>
            <ns3:cad>41</ns3:cad>
          </ns3:TrackPointExtension>
        </extensions>
      </trkpt>
      <trkpt lat="37.74366564117372035980224609375" lon="-107.714172340929508209228515625">
        <ele>3345.60009765625</ele>
        <time>2023-07-29T18:30:48.000Z</time>
        <extensions>
          <ns3:TrackPointExtension>
            <ns3:hr>84</ns3:hr>
            <ns3:cad>41</ns3:cad>
          </ns3:TrackPointExtension>
        </extensions>
      </trkpt>
      <trkpt lat="37.74365608580410480499267578125" lon="-107.7141760289669036865234375">
        <ele>3345.60009765625</ele>
        <time>2023-07-29T18:30:49.000Z</time>
        <extensions>
          <ns3:TrackPointExtension>
            <ns3:hr>84</ns3:hr>
            <ns3:cad>0</ns3:cad>
          </ns3:TrackPointExtension>
        </extensions>
      </trkpt>
      <trkpt lat="37.74364762008190155029296875" lon="-107.71417812444269657135009765625">
        <ele>3345.60009765625</ele>
        <time>2023-07-29T18:30:50.000Z</time>
        <extensions>
          <ns3:TrackPointExtension>
            <ns3:hr>84</ns3:hr>
            <ns3:cad>0</ns3:cad>
          </ns3:TrackPointExtension>
        </extensions>
      </trkpt>
      <trkpt lat="37.7436281740665435791015625" lon="-107.71418617106974124908447265625">
        <ele>3345.60009765625</ele>
        <time>2023-07-29T18:30:51.000Z</time>
        <extensions>
          <ns3:TrackPointExtension>
            <ns3:hr>84</ns3:hr>
            <ns3:cad>0</ns3:cad>
          </ns3:TrackPointExtension>
        </extensions>
      </trkpt>
      <trkpt lat="37.743627838790416717529296875" lon="-107.7141842432320117950439453125">
        <ele>3345.60009765625</ele>
        <time>2023-07-29T18:30:52.000Z</time>
        <extensions>
          <ns3:TrackPointExtension>
            <ns3:hr>85</ns3:hr>
            <ns3:cad>0</ns3:cad>
          </ns3:TrackPointExtension>
        </extensions>
      </trkpt>
      <trkpt lat="37.7436202950775623321533203125" lon="-107.71418198011815547943115234375">
        <ele>3345.39990234375</ele>
        <time>2023-07-29T18:30:53.000Z</time>
        <extensions>
          <ns3:TrackPointExtension>
            <ns3:hr>84</ns3:hr>
            <ns3:cad>0</ns3:cad>
          </ns3:TrackPointExtension>
        </extensions>
      </trkpt>
      <trkpt lat="37.74361073970794677734375" lon="-107.71417963318526744842529296875">
        <ele>3345.39990234375</ele>
        <time>2023-07-29T18:30:54.000Z</time>
        <extensions>
          <ns3:TrackPointExtension>
            <ns3:hr>84</ns3:hr>
            <ns3:cad>54</ns3:cad>
          </ns3:TrackPointExtension>
        </extensions>
      </trkpt>
      <trkpt lat="37.74359942413866519927978515625" lon="-107.714175023138523101806640625">
        <ele>3345.39990234375</ele>
        <time>2023-07-29T18:30:55.000Z</time>
        <extensions>
          <ns3:TrackPointExtension>
            <ns3:hr>83</ns3:hr>
            <ns3:cad>54</ns3:cad>
          </ns3:TrackPointExtension>
        </extensions>
      </trkpt>
      <trkpt lat="37.74358836002647876739501953125" lon="-107.71416840143501758575439453125">
        <ele>3345</ele>
        <time>2023-07-29T18:30:56.000Z</time>
        <extensions>
          <ns3:TrackPointExtension>
            <ns3:hr>82</ns3:hr>
            <ns3:cad>54</ns3:cad>
          </ns3:TrackPointExtension>
        </extensions>
      </trkpt>
      <trkpt lat="37.74358014576137065887451171875" lon="-107.714162282645702362060546875">
        <ele>3345</ele>
        <time>2023-07-29T18:30:57.000Z</time>
        <extensions>
          <ns3:TrackPointExtension>
            <ns3:hr>82</ns3:hr>
            <ns3:cad>0</ns3:cad>
          </ns3:TrackPointExtension>
        </extensions>
      </trkpt>
      <trkpt lat="37.74356715381145477294921875" lon="-107.7141530625522136688232421875">
        <ele>3344.800048828125</ele>
        <time>2023-07-29T18:30:58.000Z</time>
        <extensions>
          <ns3:TrackPointExtension>
            <ns3:hr>81</ns3:hr>
            <ns3:cad>0</ns3:cad>
          </ns3:TrackPointExtension>
        </extensions>
      </trkpt>
      <trkpt lat="37.7435586042702198028564453125" lon="-107.7141446806490421295166015625">
        <ele>3344.60009765625</ele>
        <time>2023-07-29T18:30:59.000Z</time>
        <extensions>
          <ns3:TrackPointExtension>
            <ns3:hr>81</ns3:hr>
            <ns3:cad>0</ns3:cad>
          </ns3:TrackPointExtension>
        </extensions>
      </trkpt>
      <trkpt lat="37.74355181492865085601806640625" lon="-107.71413646638393402099609375">
        <ele>3344.39990234375</ele>
        <time>2023-07-29T18:31:00.000Z</time>
        <extensions>
          <ns3:TrackPointExtension>
            <ns3:hr>81</ns3:hr>
            <ns3:cad>0</ns3:cad>
          </ns3:TrackPointExtension>
        </extensions>
      </trkpt>
      <trkpt lat="37.74354494176805019378662109375" lon="-107.71412783302366733551025390625">
        <ele>3344.39990234375</ele>
        <time>2023-07-29T18:31:01.000Z</time>
        <extensions>
          <ns3:TrackPointExtension>
            <ns3:hr>81</ns3:hr>
            <ns3:cad>0</ns3:cad>
          </ns3:TrackPointExtension>
        </extensions>
      </trkpt>
      <trkpt lat="37.743543349206447601318359375" lon="-107.71411727182567119598388671875">
        <ele>3344.199951171875</ele>
        <time>2023-07-29T18:31:02.000Z</time>
        <extensions>
          <ns3:TrackPointExtension>
            <ns3:hr>79</ns3:hr>
            <ns3:cad>0</ns3:cad>
          </ns3:TrackPointExtension>
        </extensions>
      </trkpt>
      <trkpt lat="37.7435401640832424163818359375" lon="-107.71410821937024593353271484375">
        <ele>3344.199951171875</ele>
        <time>2023-07-29T18:31:03.000Z</time>
        <extensions>
          <ns3:TrackPointExtension>
            <ns3:hr>79</ns3:hr>
            <ns3:cad>0</ns3:cad>
          </ns3:TrackPointExtension>
        </extensions>
      </trkpt>
      <trkpt lat="37.743539996445178985595703125" lon="-107.714102603495121002197265625">
        <ele>3344</ele>
        <time>2023-07-29T18:31:04.000Z</time>
        <extensions>
          <ns3:TrackPointExtension>
            <ns3:hr>79</ns3:hr>
            <ns3:cad>0</ns3:cad>
          </ns3:TrackPointExtension>
        </extensions>
      </trkpt>
      <trkpt lat="37.7435408346354961395263671875" lon="-107.71409464068710803985595703125">
        <ele>3344</ele>
        <time>2023-07-29T18:31:05.000Z</time>
        <extensions>
          <ns3:TrackPointExtension>
            <ns3:hr>78</ns3:hr>
            <ns3:cad>0</ns3:cad>
          </ns3:TrackPointExtension>
        </extensions>
      </trkpt>
      <trkpt lat="37.74354142136871814727783203125" lon="-107.71408542059361934661865234375">
        <ele>3343.800048828125</ele>
        <time>2023-07-29T18:31:06.000Z</time>
        <extensions>
          <ns3:TrackPointExtension>
            <ns3:hr>78</ns3:hr>
            <ns3:cad>0</ns3:cad>
          </ns3:TrackPointExtension>
        </extensions>
      </trkpt>
      <trkpt lat="37.74354259483516216278076171875" lon="-107.71407519467175006866455078125">
        <ele>3343.800048828125</ele>
        <time>2023-07-29T18:31:07.000Z</time>
        <extensions>
          <ns3:TrackPointExtension>
            <ns3:hr>78</ns3:hr>
            <ns3:cad>0</ns3:cad>
          </ns3:TrackPointExtension>
        </extensions>
      </trkpt>
      <trkpt lat="37.74354762397706508636474609375" lon="-107.71407016552984714508056640625">
        <ele>3343.60009765625</ele>
        <time>2023-07-29T18:31:08.000Z</time>
        <extensions>
          <ns3:TrackPointExtension>
            <ns3:hr>78</ns3:hr>
            <ns3:cad>0</ns3:cad>
          </ns3:TrackPointExtension>
        </extensions>
      </trkpt>
      <trkpt lat="37.74355097673833370208740234375" lon="-107.7140534855425357818603515625">
        <ele>3343.60009765625</ele>
        <time>2023-07-29T18:31:09.000Z</time>
        <extensions>
          <ns3:TrackPointExtension>
            <ns3:hr>78</ns3:hr>
            <ns3:cad>0</ns3:cad>
          </ns3:TrackPointExtension>
        </extensions>
      </trkpt>
      <trkpt lat="37.74355198256671428680419921875" lon="-107.7140392363071441650390625">
        <ele>3343.39990234375</ele>
        <time>2023-07-29T18:31:10.000Z</time>
        <extensions>
          <ns3:TrackPointExtension>
            <ns3:hr>78</ns3:hr>
            <ns3:cad>0</ns3:cad>
          </ns3:TrackPointExtension>
        </extensions>
      </trkpt>
      <trkpt lat="37.74355215020477771759033203125" lon="-107.7140229754149913787841796875">
        <ele>3343.39990234375</ele>
        <time>2023-07-29T18:31:11.000Z</time>
        <extensions>
          <ns3:TrackPointExtension>
            <ns3:hr>78</ns3:hr>
            <ns3:cad>0</ns3:cad>
          </ns3:TrackPointExtension>
        </extensions>
      </trkpt>
      <trkpt lat="37.7435502223670482635498046875" lon="-107.71399958990514278411865234375">
        <ele>3343.199951171875</ele>
        <time>2023-07-29T18:31:12.000Z</time>
        <extensions>
          <ns3:TrackPointExtension>
            <ns3:hr>79</ns3:hr>
            <ns3:cad>0</ns3:cad>
          </ns3:TrackPointExtension>
        </extensions>
      </trkpt>
      <trkpt lat="37.74354712106287479400634765625" lon="-107.7139829099178314208984375">
        <ele>3343.199951171875</ele>
        <time>2023-07-29T18:31:13.000Z</time>
        <extensions>
          <ns3:TrackPointExtension>
            <ns3:hr>79</ns3:hr>
            <ns3:cad>0</ns3:cad>
          </ns3:TrackPointExtension>
        </extensions>
      </trkpt>
      <trkpt lat="37.74354661814868450164794921875" lon="-107.713967822492122650146484375">
        <ele>3343</ele>
        <time>2023-07-29T18:31:14.000Z</time>
        <extensions>
          <ns3:TrackPointExtension>
            <ns3:hr>79</ns3:hr>
            <ns3:cad>0</ns3:cad>
          </ns3:TrackPointExtension>
        </extensions>
      </trkpt>
      <trkpt lat="37.743543684482574462890625" lon="-107.71395851857960224151611328125">
        <ele>3343</ele>
        <time>2023-07-29T18:31:15.000Z</time>
        <extensions>
          <ns3:TrackPointExtension>
            <ns3:hr>79</ns3:hr>
            <ns3:cad>0</ns3:cad>
          </ns3:TrackPointExtension>
        </extensions>
      </trkpt>
      <trkpt lat="37.74354293011128902435302734375" lon="-107.71395315416157245635986328125">
        <ele>3342.800048828125</ele>
        <time>2023-07-29T18:31:16.000Z</time>
        <extensions>
          <ns3:TrackPointExtension>
            <ns3:hr>79</ns3:hr>
            <ns3:cad>0</ns3:cad>
          </ns3:TrackPointExtension>
        </extensions>
      </trkpt>
      <trkpt lat="37.74354091845452785491943359375" lon="-107.7139445208013057708740234375">
        <ele>3342.60009765625</ele>
        <time>2023-07-29T18:31:17.000Z</time>
        <extensions>
          <ns3:TrackPointExtension>
            <ns3:hr>79</ns3:hr>
            <ns3:cad>0</ns3:cad>
          </ns3:TrackPointExtension>
        </extensions>
      </trkpt>
      <trkpt lat="37.74354108609259128570556640625" lon="-107.7139344625174999237060546875">
        <ele>3342.60009765625</ele>
        <time>2023-07-29T18:31:18.000Z</time>
        <extensions>
          <ns3:TrackPointExtension>
            <ns3:hr>79</ns3:hr>
            <ns3:cad>0</ns3:cad>
          </ns3:TrackPointExtension>
        </extensions>
      </trkpt>
      <trkpt lat="37.74353739805519580841064453125" lon="-107.71391862072050571441650390625">
        <ele>3342.39990234375</ele>
        <time>2023-07-29T18:31:19.000Z</time>
        <extensions>
          <ns3:TrackPointExtension>
            <ns3:hr>79</ns3:hr>
            <ns3:cad>0</ns3:cad>
          </ns3:TrackPointExtension>
        </extensions>
      </trkpt>
      <trkpt lat="37.74353052489459514617919921875" lon="-107.71390420384705066680908203125">
        <ele>3342.199951171875</ele>
        <time>2023-07-29T18:31:20.000Z</time>
        <extensions>
          <ns3:TrackPointExtension>
            <ns3:hr>80</ns3:hr>
            <ns3:cad>0</ns3:cad>
          </ns3:TrackPointExtension>
        </extensions>
      </trkpt>
      <trkpt lat="37.743525914847850799560546875" lon="-107.7138935588300228118896484375">
        <ele>3342</ele>
        <time>2023-07-29T18:31:21.000Z</time>
        <extensions>
          <ns3:TrackPointExtension>
            <ns3:hr>80</ns3:hr>
            <ns3:cad>0</ns3:cad>
          </ns3:TrackPointExtension>
        </extensions>
      </trkpt>
      <trkpt lat="37.74351895786821842193603515625" lon="-107.71387369371950626373291015625">
        <ele>3342</ele>
        <time>2023-07-29T18:31:22.000Z</time>
        <extensions>
          <ns3:TrackPointExtension>
            <ns3:hr>81</ns3:hr>
            <ns3:cad>0</ns3:cad>
          </ns3:TrackPointExtension>
        </extensions>
      </trkpt>
      <trkpt lat="37.74351644329726696014404296875" lon="-107.71385760046541690826416015625">
        <ele>3341.800048828125</ele>
        <time>2023-07-29T18:31:23.000Z</time>
        <extensions>
          <ns3:TrackPointExtension>
            <ns3:hr>81</ns3:hr>
            <ns3:cad>0</ns3:cad>
          </ns3:TrackPointExtension>
        </extensions>
      </trkpt>
      <trkpt lat="37.74351325817406177520751953125" lon="-107.71384284831583499908447265625">
        <ele>3341.800048828125</ele>
        <time>2023-07-29T18:31:24.000Z</time>
        <extensions>
          <ns3:TrackPointExtension>
            <ns3:hr>82</ns3:hr>
            <ns3:cad>0</ns3:cad>
          </ns3:TrackPointExtension>
        </extensions>
      </trkpt>
      <trkpt lat="37.743517868220806121826171875" lon="-107.71383044309914112091064453125">
        <ele>3341.800048828125</ele>
        <time>2023-07-29T18:31:25.000Z</time>
        <extensions>
          <ns3:TrackPointExtension>
            <ns3:hr>82</ns3:hr>
            <ns3:cad>0</ns3:cad>
          </ns3:TrackPointExtension>
        </extensions>
      </trkpt>
      <trkpt lat="37.74351309053599834442138671875" lon="-107.713812924921512603759765625">
        <ele>3341.60009765625</ele>
        <time>2023-07-29T18:31:26.000Z</time>
        <extensions>
          <ns3:TrackPointExtension>
            <ns3:hr>82</ns3:hr>
            <ns3:cad>0</ns3:cad>
          </ns3:TrackPointExtension>
        </extensions>
      </trkpt>
      <trkpt lat="37.74351082742214202880859375" lon="-107.71379725076258182525634765625">
        <ele>3341.60009765625</ele>
        <time>2023-07-29T18:31:27.000Z</time>
        <extensions>
          <ns3:TrackPointExtension>
            <ns3:hr>85</ns3:hr>
            <ns3:cad>0</ns3:cad>
          </ns3:TrackPointExtension>
        </extensions>
      </trkpt>
      <trkpt lat="37.74350102059543132781982421875" lon="-107.71377679891884326934814453125">
        <ele>3341.39990234375</ele>
        <time>2023-07-29T18:31:28.000Z</time>
        <extensions>
          <ns3:TrackPointExtension>
            <ns3:hr>85</ns3:hr>
            <ns3:cad>0</ns3:cad>
          </ns3:TrackPointExtension>
        </extensions>
      </trkpt>
      <trkpt lat="37.74349297396838665008544921875" lon="-107.713757269084453582763671875">
        <ele>3341.199951171875</ele>
        <time>2023-07-29T18:31:29.000Z</time>
        <extensions>
          <ns3:TrackPointExtension>
            <ns3:hr>87</ns3:hr>
            <ns3:cad>57</ns3:cad>
          </ns3:TrackPointExtension>
        </extensions>
      </trkpt>
      <trkpt lat="37.7434861846268177032470703125" lon="-107.71373815834522247314453125">
        <ele>3341</ele>
        <time>2023-07-29T18:31:30.000Z</time>
        <extensions>
          <ns3:TrackPointExtension>
            <ns3:hr>90</ns3:hr>
            <ns3:cad>57</ns3:cad>
          </ns3:TrackPointExtension>
        </extensions>
      </trkpt>
      <trkpt lat="37.74347872473299503326416015625" lon="-107.7137222327291965484619140625">
        <ele>3341</ele>
        <time>2023-07-29T18:31:31.000Z</time>
        <extensions>
          <ns3:TrackPointExtension>
            <ns3:hr>90</ns3:hr>
            <ns3:cad>57</ns3:cad>
          </ns3:TrackPointExtension>
        </extensions>
      </trkpt>
      <trkpt lat="37.74346816353499889373779296875" lon="-107.71370555274188518524169921875">
        <ele>3340.800048828125</ele>
        <time>2023-07-29T18:31:32.000Z</time>
        <extensions>
          <ns3:TrackPointExtension>
            <ns3:hr>90</ns3:hr>
            <ns3:cad>18</ns3:cad>
          </ns3:TrackPointExtension>
        </extensions>
      </trkpt>
      <trkpt lat="37.743459530174732208251953125" lon="-107.7136947400867938995361328125">
        <ele>3340.60009765625</ele>
        <time>2023-07-29T18:31:33.000Z</time>
        <extensions>
          <ns3:TrackPointExtension>
            <ns3:hr>89</ns3:hr>
            <ns3:cad>18</ns3:cad>
          </ns3:TrackPointExtension>
        </extensions>
      </trkpt>
      <trkpt lat="37.74345047771930694580078125" lon="-107.7136823348701000213623046875">
        <ele>3340.39990234375</ele>
        <time>2023-07-29T18:31:34.000Z</time>
        <extensions>
          <ns3:TrackPointExtension>
            <ns3:hr>89</ns3:hr>
            <ns3:cad>0</ns3:cad>
          </ns3:TrackPointExtension>
        </extensions>
      </trkpt>
      <trkpt lat="37.74344335310161113739013671875" lon="-107.71367068402469158172607421875">
        <ele>3340.39990234375</ele>
        <time>2023-07-29T18:31:35.000Z</time>
        <extensions>
          <ns3:TrackPointExtension>
            <ns3:hr>88</ns3:hr>
            <ns3:cad>0</ns3:cad>
          </ns3:TrackPointExtension>
        </extensions>
      </trkpt>
      <trkpt lat="37.74343698285520076751708984375" lon="-107.7136608771979808807373046875">
        <ele>3340.39990234375</ele>
        <time>2023-07-29T18:31:36.000Z</time>
        <extensions>
          <ns3:TrackPointExtension>
            <ns3:hr>85</ns3:hr>
            <ns3:cad>0</ns3:cad>
          </ns3:TrackPointExtension>
        </extensions>
      </trkpt>
      <trkpt lat="37.74343304336071014404296875" lon="-107.71365140564739704132080078125">
        <ele>3340.39990234375</ele>
        <time>2023-07-29T18:31:37.000Z</time>
        <extensions>
          <ns3:TrackPointExtension>
            <ns3:hr>85</ns3:hr>
            <ns3:cad>0</ns3:cad>
          </ns3:TrackPointExtension>
        </extensions>
      </trkpt>
      <trkpt lat="37.74343304336071014404296875" lon="-107.71365006454288959503173828125">
        <ele>3340.60009765625</ele>
        <time>2023-07-29T18:31:38.000Z</time>
        <extensions>
          <ns3:TrackPointExtension>
            <ns3:hr>84</ns3:hr>
            <ns3:cad>0</ns3:cad>
          </ns3:TrackPointExtension>
        </extensions>
      </trkpt>
      <trkpt lat="37.74342759512364864349365234375" lon="-107.7136427722871303558349609375">
        <ele>3340.60009765625</ele>
        <time>2023-07-29T18:31:39.000Z</time>
        <extensions>
          <ns3:TrackPointExtension>
            <ns3:hr>84</ns3:hr>
            <ns3:cad>0</ns3:cad>
          </ns3:TrackPointExtension>
        </extensions>
      </trkpt>
      <trkpt lat="37.7434241585433483123779296875" lon="-107.7136404253542423248291015625">
        <ele>3340.60009765625</ele>
        <time>2023-07-29T18:31:40.000Z</time>
        <extensions>
          <ns3:TrackPointExtension>
            <ns3:hr>84</ns3:hr>
            <ns3:cad>0</ns3:cad>
          </ns3:TrackPointExtension>
        </extensions>
      </trkpt>
      <trkpt lat="37.743413262069225311279296875" lon="-107.7136343903839588165283203125">
        <ele>3340.800048828125</ele>
        <time>2023-07-29T18:31:41.000Z</time>
        <extensions>
          <ns3:TrackPointExtension>
            <ns3:hr>83</ns3:hr>
            <ns3:cad>0</ns3:cad>
          </ns3:TrackPointExtension>
        </extensions>
      </trkpt>
      <trkpt lat="37.7434006892144680023193359375" lon="-107.713625840842723846435546875">
        <ele>3340.800048828125</ele>
        <time>2023-07-29T18:31:42.000Z</time>
        <extensions>
          <ns3:TrackPointExtension>
            <ns3:hr>83</ns3:hr>
            <ns3:cad>0</ns3:cad>
          </ns3:TrackPointExtension>
        </extensions>
      </trkpt>
      <trkpt lat="37.74338719435036182403564453125" lon="-107.7136154472827911376953125">
        <ele>3340.800048828125</ele>
        <time>2023-07-29T18:31:43.000Z</time>
        <extensions>
          <ns3:TrackPointExtension>
            <ns3:hr>83</ns3:hr>
            <ns3:cad>0</ns3:cad>
          </ns3:TrackPointExtension>
        </extensions>
      </trkpt>
      <trkpt lat="37.74337462149560451507568359375" lon="-107.71360731683671474456787109375">
        <ele>3340.800048828125</ele>
        <time>2023-07-29T18:31:44.000Z</time>
        <extensions>
          <ns3:TrackPointExtension>
            <ns3:hr>83</ns3:hr>
            <ns3:cad>0</ns3:cad>
          </ns3:TrackPointExtension>
        </extensions>
      </trkpt>
      <trkpt lat="37.7433671616017818450927734375" lon="-107.7136062271893024444580078125">
        <ele>3340.800048828125</ele>
        <time>2023-07-29T18:31:45.000Z</time>
        <extensions>
          <ns3:TrackPointExtension>
            <ns3:hr>82</ns3:hr>
            <ns3:cad>0</ns3:cad>
          </ns3:TrackPointExtension>
        </extensions>
      </trkpt>
      <trkpt lat="37.74335324764251708984375" lon="-107.7135981805622577667236328125">
        <ele>3340.800048828125</ele>
        <time>2023-07-29T18:31:46.000Z</time>
        <extensions>
          <ns3:TrackPointExtension>
            <ns3:hr>82</ns3:hr>
            <ns3:cad>0</ns3:cad>
          </ns3:TrackPointExtension>
        </extensions>
      </trkpt>
      <trkpt lat="37.7433389984071254730224609375" lon="-107.7135913074016571044921875">
        <ele>3340.800048828125</ele>
        <time>2023-07-29T18:31:47.000Z</time>
        <extensions>
          <ns3:TrackPointExtension>
            <ns3:hr>82</ns3:hr>
            <ns3:cad>0</ns3:cad>
          </ns3:TrackPointExtension>
        </extensions>
      </trkpt>
      <trkpt lat="37.7433269284665584564208984375" lon="-107.7135864458978176116943359375">
        <ele>3340.800048828125</ele>
        <time>2023-07-29T18:31:48.000Z</time>
        <extensions>
          <ns3:TrackPointExtension>
            <ns3:hr>82</ns3:hr>
            <ns3:cad>0</ns3:cad>
          </ns3:TrackPointExtension>
        </extensions>
      </trkpt>
      <trkpt lat="37.74331343360245227813720703125" lon="-107.713574878871440887451171875">
        <ele>3341</ele>
        <time>2023-07-29T18:31:49.000Z</time>
        <extensions>
          <ns3:TrackPointExtension>
            <ns3:hr>83</ns3:hr>
            <ns3:cad>0</ns3:cad>
          </ns3:TrackPointExtension>
        </extensions>
      </trkpt>
      <trkpt lat="37.7433017827570438385009765625" lon="-107.713568173348903656005859375">
        <ele>3341</ele>
        <time>2023-07-29T18:31:50.000Z</time>
        <extensions>
          <ns3:TrackPointExtension>
            <ns3:hr>83</ns3:hr>
            <ns3:cad>0</ns3:cad>
          </ns3:TrackPointExtension>
        </extensions>
      </trkpt>
      <trkpt lat="37.74328912608325481414794921875" lon="-107.71355836652219295501708984375">
        <ele>3341</ele>
        <time>2023-07-29T18:31:51.000Z</time>
        <extensions>
          <ns3:TrackPointExtension>
            <ns3:hr>83</ns3:hr>
            <ns3:cad>0</ns3:cad>
          </ns3:TrackPointExtension>
        </extensions>
      </trkpt>
      <trkpt lat="37.743275463581085205078125" lon="-107.713549397885799407958984375">
        <ele>3341</ele>
        <time>2023-07-29T18:31:52.000Z</time>
        <extensions>
          <ns3:TrackPointExtension>
            <ns3:hr>84</ns3:hr>
            <ns3:cad>0</ns3:cad>
          </ns3:TrackPointExtension>
        </extensions>
      </trkpt>
      <trkpt lat="37.74326968006789684295654296875" lon="-107.71353959105908870697021484375">
        <ele>3341.199951171875</ele>
        <time>2023-07-29T18:31:53.000Z</time>
        <extensions>
          <ns3:TrackPointExtension>
            <ns3:hr>84</ns3:hr>
            <ns3:cad>0</ns3:cad>
          </ns3:TrackPointExtension>
        </extensions>
      </trkpt>
      <trkpt lat="37.74325869977474212646484375" lon="-107.71352760493755340576171875">
        <ele>3341.199951171875</ele>
        <time>2023-07-29T18:31:54.000Z</time>
        <extensions>
          <ns3:TrackPointExtension>
            <ns3:hr>84</ns3:hr>
            <ns3:cad>0</ns3:cad>
          </ns3:TrackPointExtension>
        </extensions>
      </trkpt>
      <trkpt lat="37.74324570782482624053955078125" lon="-107.71351444534957408905029296875">
        <ele>3341.39990234375</ele>
        <time>2023-07-29T18:31:55.000Z</time>
        <extensions>
          <ns3:TrackPointExtension>
            <ns3:hr>84</ns3:hr>
            <ns3:cad>0</ns3:cad>
          </ns3:TrackPointExtension>
        </extensions>
      </trkpt>
      <trkpt lat="37.74323933757841587066650390625" lon="-107.7135089971125125885009765625">
        <ele>3341.39990234375</ele>
        <time>2023-07-29T18:31:56.000Z</time>
        <extensions>
          <ns3:TrackPointExtension>
            <ns3:hr>84</ns3:hr>
            <ns3:cad>0</ns3:cad>
          </ns3:TrackPointExtension>
        </extensions>
      </trkpt>
      <trkpt lat="37.74322844110429286956787109375" lon="-107.7135027945041656494140625">
        <ele>3341.39990234375</ele>
        <time>2023-07-29T18:31:57.000Z</time>
        <extensions>
          <ns3:TrackPointExtension>
            <ns3:hr>84</ns3:hr>
            <ns3:cad>0</ns3:cad>
          </ns3:TrackPointExtension>
        </extensions>
      </trkpt>
      <trkpt lat="37.74321377277374267578125" lon="-107.7134979330003261566162109375">
        <ele>3341.39990234375</ele>
        <time>2023-07-29T18:31:58.000Z</time>
        <extensions>
          <ns3:TrackPointExtension>
            <ns3:hr>83</ns3:hr>
            <ns3:cad>0</ns3:cad>
          </ns3:TrackPointExtension>
        </extensions>
      </trkpt>
      <trkpt lat="37.743207402527332305908203125" lon="-107.713495753705501556396484375">
        <ele>3341.60009765625</ele>
        <time>2023-07-29T18:31:59.000Z</time>
        <extensions>
          <ns3:TrackPointExtension>
            <ns3:hr>83</ns3:hr>
            <ns3:cad>0</ns3:cad>
          </ns3:TrackPointExtension>
        </extensions>
      </trkpt>
      <trkpt lat="37.74319390766322612762451171875" lon="-107.7134962566196918487548828125">
        <ele>3341.60009765625</ele>
        <time>2023-07-29T18:32:00.000Z</time>
        <extensions>
          <ns3:TrackPointExtension>
            <ns3:hr>84</ns3:hr>
            <ns3:cad>0</ns3:cad>
          </ns3:TrackPointExtension>
        </extensions>
      </trkpt>
      <trkpt lat="37.74317714385688304901123046875" lon="-107.71349399350583553314208984375">
        <ele>3341.60009765625</ele>
        <time>2023-07-29T18:32:01.000Z</time>
        <extensions>
          <ns3:TrackPointExtension>
            <ns3:hr>84</ns3:hr>
            <ns3:cad>0</ns3:cad>
          </ns3:TrackPointExtension>
        </extensions>
      </trkpt>
      <trkpt lat="37.74317127652466297149658203125" lon="-107.71349114365875720977783203125">
        <ele>3341.800048828125</ele>
        <time>2023-07-29T18:32:02.000Z</time>
        <extensions>
          <ns3:TrackPointExtension>
            <ns3:hr>84</ns3:hr>
            <ns3:cad>0</ns3:cad>
          </ns3:TrackPointExtension>
        </extensions>
      </trkpt>
      <trkpt lat="37.74316205643117427825927734375" lon="-107.713489048182964324951171875">
        <ele>3341.800048828125</ele>
        <time>2023-07-29T18:32:03.000Z</time>
        <extensions>
          <ns3:TrackPointExtension>
            <ns3:hr>84</ns3:hr>
            <ns3:cad>0</ns3:cad>
          </ns3:TrackPointExtension>
        </extensions>
      </trkpt>
      <trkpt lat="37.74315283633768558502197265625" lon="-107.71348494105041027069091796875">
        <ele>3342</ele>
        <time>2023-07-29T18:32:04.000Z</time>
        <extensions>
          <ns3:TrackPointExtension>
            <ns3:hr>85</ns3:hr>
            <ns3:cad>0</ns3:cad>
          </ns3:TrackPointExtension>
        </extensions>
      </trkpt>
      <trkpt lat="37.7431435324251651763916015625" lon="-107.7134786546230316162109375">
        <ele>3342</ele>
        <time>2023-07-29T18:32:05.000Z</time>
        <extensions>
          <ns3:TrackPointExtension>
            <ns3:hr>85</ns3:hr>
            <ns3:cad>0</ns3:cad>
          </ns3:TrackPointExtension>
        </extensions>
      </trkpt>
      <trkpt lat="37.74313758127391338348388671875" lon="-107.7134654112160205841064453125">
        <ele>3342.199951171875</ele>
        <time>2023-07-29T18:32:06.000Z</time>
        <extensions>
          <ns3:TrackPointExtension>
            <ns3:hr>87</ns3:hr>
            <ns3:cad>0</ns3:cad>
          </ns3:TrackPointExtension>
        </extensions>
      </trkpt>
      <trkpt lat="37.7431331388652324676513671875" lon="-107.71345325745642185211181640625">
        <ele>3342.199951171875</ele>
        <time>2023-07-29T18:32:07.000Z</time>
        <extensions>
          <ns3:TrackPointExtension>
            <ns3:hr>89</ns3:hr>
            <ns3:cad>0</ns3:cad>
          </ns3:TrackPointExtension>
        </extensions>
      </trkpt>
      <trkpt lat="37.74313121102750301361083984375" lon="-107.7134409360587596893310546875">
        <ele>3342.199951171875</ele>
        <time>2023-07-29T18:32:08.000Z</time>
        <extensions>
          <ns3:TrackPointExtension>
            <ns3:hr>91</ns3:hr>
            <ns3:cad>0</ns3:cad>
          </ns3:TrackPointExtension>
        </extensions>
      </trkpt>
      <trkpt lat="37.743127606809139251708984375" lon="-107.71343104541301727294921875">
        <ele>3342.199951171875</ele>
        <time>2023-07-29T18:32:09.000Z</time>
        <extensions>
          <ns3:TrackPointExtension>
            <ns3:hr>92</ns3:hr>
            <ns3:cad>0</ns3:cad>
          </ns3:TrackPointExtension>
        </extensions>
      </trkpt>
      <trkpt lat="37.74313154630362987518310546875" lon="-107.71342291496694087982177734375">
        <ele>3342.199951171875</ele>
        <time>2023-07-29T18:32:10.000Z</time>
        <extensions>
          <ns3:TrackPointExtension>
            <ns3:hr>92</ns3:hr>
            <ns3:cad>0</ns3:cad>
          </ns3:TrackPointExtension>
        </extensions>
      </trkpt>
      <trkpt lat="37.743130959570407867431640625" lon="-107.7134080789983272552490234375">
        <ele>3342</ele>
        <time>2023-07-29T18:32:11.000Z</time>
        <extensions>
          <ns3:TrackPointExtension>
            <ns3:hr>93</ns3:hr>
            <ns3:cad>0</ns3:cad>
          </ns3:TrackPointExtension>
        </extensions>
      </trkpt>
      <trkpt lat="37.74313171394169330596923828125" lon="-107.7133913151919841766357421875">
        <ele>3341.800048828125</ele>
        <time>2023-07-29T18:32:12.000Z</time>
        <extensions>
          <ns3:TrackPointExtension>
            <ns3:hr>93</ns3:hr>
            <ns3:cad>0</ns3:cad>
          </ns3:TrackPointExtension>
        </extensions>
      </trkpt>
      <trkpt lat="37.74313674308359622955322265625" lon="-107.713369019329547882080078125">
        <ele>3341.800048828125</ele>
        <time>2023-07-29T18:32:13.000Z</time>
        <extensions>
          <ns3:TrackPointExtension>
            <ns3:hr>94</ns3:hr>
            <ns3:cad>0</ns3:cad>
          </ns3:TrackPointExtension>
        </extensions>
      </trkpt>
      <trkpt lat="37.7431428618729114532470703125" lon="-107.71335820667445659637451171875">
        <ele>3341.60009765625</ele>
        <time>2023-07-29T18:32:14.000Z</time>
        <extensions>
          <ns3:TrackPointExtension>
            <ns3:hr>94</ns3:hr>
            <ns3:cad>0</ns3:cad>
          </ns3:TrackPointExtension>
        </extensions>
      </trkpt>
      <trkpt lat="37.7431475557386875152587890625" lon="-107.71334328688681125640869140625">
        <ele>3341.39990234375</ele>
        <time>2023-07-29T18:32:15.000Z</time>
        <extensions>
          <ns3:TrackPointExtension>
            <ns3:hr>94</ns3:hr>
            <ns3:cad>0</ns3:cad>
          </ns3:TrackPointExtension>
        </extensions>
      </trkpt>
      <trkpt lat="37.743153758347034454345703125" lon="-107.71333054639399051666259765625">
        <ele>3341.199951171875</ele>
        <time>2023-07-29T18:32:16.000Z</time>
        <extensions>
          <ns3:TrackPointExtension>
            <ns3:hr>94</ns3:hr>
            <ns3:cad>0</ns3:cad>
          </ns3:TrackPointExtension>
        </extensions>
      </trkpt>
      <trkpt lat="37.74315811693668365478515625" lon="-107.7133190631866455078125">
        <ele>3341</ele>
        <time>2023-07-29T18:32:17.000Z</time>
        <extensions>
          <ns3:TrackPointExtension>
            <ns3:hr>94</ns3:hr>
            <ns3:cad>0</ns3:cad>
          </ns3:TrackPointExtension>
        </extensions>
      </trkpt>
      <trkpt lat="37.74316255934536457061767578125" lon="-107.7133071608841419219970703125">
        <ele>3340.800048828125</ele>
        <time>2023-07-29T18:32:18.000Z</time>
        <extensions>
          <ns3:TrackPointExtension>
            <ns3:hr>94</ns3:hr>
            <ns3:cad>0</ns3:cad>
          </ns3:TrackPointExtension>
        </extensions>
      </trkpt>
      <trkpt lat="37.7431683428585529327392578125" lon="-107.71329299546778202056884765625">
        <ele>3340.800048828125</ele>
        <time>2023-07-29T18:32:19.000Z</time>
        <extensions>
          <ns3:TrackPointExtension>
            <ns3:hr>94</ns3:hr>
            <ns3:cad>0</ns3:cad>
          </ns3:TrackPointExtension>
        </extensions>
      </trkpt>
      <trkpt lat="37.74317647330462932586669921875" lon="-107.7132729627192020416259765625">
        <ele>3340.60009765625</ele>
        <time>2023-07-29T18:32:20.000Z</time>
        <extensions>
          <ns3:TrackPointExtension>
            <ns3:hr>94</ns3:hr>
            <ns3:cad>0</ns3:cad>
          </ns3:TrackPointExtension>
        </extensions>
      </trkpt>
      <trkpt lat="37.74317563511431217193603515625" lon="-107.71325242705643177032470703125">
        <ele>3340.60009765625</ele>
        <time>2023-07-29T18:32:21.000Z</time>
        <extensions>
          <ns3:TrackPointExtension>
            <ns3:hr>94</ns3:hr>
            <ns3:cad>0</ns3:cad>
          </ns3:TrackPointExtension>
        </extensions>
      </trkpt>
      <trkpt lat="37.74317848496139049530029296875" lon="-107.71323616616427898406982421875">
        <ele>3340.39990234375</ele>
        <time>2023-07-29T18:32:22.000Z</time>
        <extensions>
          <ns3:TrackPointExtension>
            <ns3:hr>94</ns3:hr>
            <ns3:cad>0</ns3:cad>
          </ns3:TrackPointExtension>
        </extensions>
      </trkpt>
      <trkpt lat="37.74317731149494647979736328125" lon="-107.71321646869182586669921875">
        <ele>3340.199951171875</ele>
        <time>2023-07-29T18:32:23.000Z</time>
        <extensions>
          <ns3:TrackPointExtension>
            <ns3:hr>94</ns3:hr>
            <ns3:cad>0</ns3:cad>
          </ns3:TrackPointExtension>
        </extensions>
      </trkpt>
      <trkpt lat="37.743173874914646148681640625" lon="-107.71320381201803684234619140625">
        <ele>3340.199951171875</ele>
        <time>2023-07-29T18:32:24.000Z</time>
        <extensions>
          <ns3:TrackPointExtension>
            <ns3:hr>94</ns3:hr>
            <ns3:cad>0</ns3:cad>
          </ns3:TrackPointExtension>
        </extensions>
      </trkpt>
      <trkpt lat="37.74316708557307720184326171875" lon="-107.71318453364074230194091796875">
        <ele>3340</ele>
        <time>2023-07-29T18:32:25.000Z</time>
        <extensions>
          <ns3:TrackPointExtension>
            <ns3:hr>94</ns3:hr>
            <ns3:cad>0</ns3:cad>
          </ns3:TrackPointExtension>
        </extensions>
      </trkpt>
      <trkpt lat="37.7431656606495380401611328125" lon="-107.713172547519207000732421875">
        <ele>3340</ele>
        <time>2023-07-29T18:32:26.000Z</time>
        <extensions>
          <ns3:TrackPointExtension>
            <ns3:hr>94</ns3:hr>
            <ns3:cad>0</ns3:cad>
          </ns3:TrackPointExtension>
        </extensions>
      </trkpt>
      <trkpt lat="37.74315903894603252410888671875" lon="-107.713165841996669769287109375">
        <ele>3340</ele>
        <time>2023-07-29T18:32:27.000Z</time>
        <extensions>
          <ns3:TrackPointExtension>
            <ns3:hr>94</ns3:hr>
            <ns3:cad>0</ns3:cad>
          </ns3:TrackPointExtension>
        </extensions>
      </trkpt>
      <trkpt lat="37.74315367452800273895263671875" lon="-107.71316408179700374603271484375">
        <ele>3340</ele>
        <time>2023-07-29T18:32:28.000Z</time>
        <extensions>
          <ns3:TrackPointExtension>
            <ns3:hr>94</ns3:hr>
            <ns3:cad>55</ns3:cad>
          </ns3:TrackPointExtension>
        </extensions>
      </trkpt>
      <trkpt lat="37.74314713664352893829345703125" lon="-107.7131586335599422454833984375">
        <ele>3340</ele>
        <time>2023-07-29T18:32:29.000Z</time>
        <extensions>
          <ns3:TrackPointExtension>
            <ns3:hr>94</ns3:hr>
            <ns3:cad>55</ns3:cad>
          </ns3:TrackPointExtension>
        </extensions>
      </trkpt>
      <trkpt lat="37.74313942529261112213134765625" lon="-107.71315419115126132965087890625">
        <ele>3340</ele>
        <time>2023-07-29T18:32:30.000Z</time>
        <extensions>
          <ns3:TrackPointExtension>
            <ns3:hr>94</ns3:hr>
            <ns3:cad>0</ns3:cad>
          </ns3:TrackPointExtension>
        </extensions>
      </trkpt>
      <trkpt lat="37.743127606809139251708984375" lon="-107.71314547397196292877197265625">
        <ele>3340</ele>
        <time>2023-07-29T18:32:31.000Z</time>
        <extensions>
          <ns3:TrackPointExtension>
            <ns3:hr>94</ns3:hr>
            <ns3:cad>0</ns3:cad>
          </ns3:TrackPointExtension>
        </extensions>
      </trkpt>
      <trkpt lat="37.74311344139277935028076171875" lon="-107.71313742734491825103759765625">
        <ele>3340</ele>
        <time>2023-07-29T18:32:32.000Z</time>
        <extensions>
          <ns3:TrackPointExtension>
            <ns3:hr>94</ns3:hr>
            <ns3:cad>0</ns3:cad>
          </ns3:TrackPointExtension>
        </extensions>
      </trkpt>
      <trkpt lat="37.74310120381414890289306640625" lon="-107.71313357166945934295654296875">
        <ele>3340</ele>
        <time>2023-07-29T18:32:33.000Z</time>
        <extensions>
          <ns3:TrackPointExtension>
            <ns3:hr>94</ns3:hr>
            <ns3:cad>0</ns3:cad>
          </ns3:TrackPointExtension>
        </extensions>
      </trkpt>
      <trkpt lat="37.7430939115583896636962890625" lon="-107.71313910372555255889892578125">
        <ele>3340</ele>
        <time>2023-07-29T18:32:34.000Z</time>
        <extensions>
          <ns3:TrackPointExtension>
            <ns3:hr>94</ns3:hr>
            <ns3:cad>0</ns3:cad>
          </ns3:TrackPointExtension>
        </extensions>
      </trkpt>
      <trkpt lat="37.74307957850396633148193359375" lon="-107.71313357166945934295654296875">
        <ele>3340</ele>
        <time>2023-07-29T18:32:35.000Z</time>
        <extensions>
          <ns3:TrackPointExtension>
            <ns3:hr>94</ns3:hr>
            <ns3:cad>0</ns3:cad>
          </ns3:TrackPointExtension>
        </extensions>
      </trkpt>
      <trkpt lat="37.74306817911565303802490234375" lon="-107.71312971599400043487548828125">
        <ele>3340</ele>
        <time>2023-07-29T18:32:36.000Z</time>
        <extensions>
          <ns3:TrackPointExtension>
            <ns3:hr>93</ns3:hr>
            <ns3:cad>0</ns3:cad>
          </ns3:TrackPointExtension>
        </extensions>
      </trkpt>
      <trkpt lat="37.7430566959083080291748046875" lon="-107.71312703378498554229736328125">
        <ele>3340</ele>
        <time>2023-07-29T18:32:37.000Z</time>
        <extensions>
          <ns3:TrackPointExtension>
            <ns3:hr>92</ns3:hr>
            <ns3:cad>50</ns3:cad>
          </ns3:TrackPointExtension>
        </extensions>
      </trkpt>
      <trkpt lat="37.743050493299961090087890625" lon="-107.71312267519533634185791015625">
        <ele>3340</ele>
        <time>2023-07-29T18:32:38.000Z</time>
        <extensions>
          <ns3:TrackPointExtension>
            <ns3:hr>91</ns3:hr>
            <ns3:cad>50</ns3:cad>
          </ns3:TrackPointExtension>
        </extensions>
      </trkpt>
      <trkpt lat="37.74304102174937725067138671875" lon="-107.7131177298724651336669921875">
        <ele>3340</ele>
        <time>2023-07-29T18:32:39.000Z</time>
        <extensions>
          <ns3:TrackPointExtension>
            <ns3:hr>88</ns3:hr>
            <ns3:cad>0</ns3:cad>
          </ns3:TrackPointExtension>
        </extensions>
      </trkpt>
      <trkpt lat="37.7430288679897785186767578125" lon="-107.71311010234057903289794921875">
        <ele>3340</ele>
        <time>2023-07-29T18:32:40.000Z</time>
        <extensions>
          <ns3:TrackPointExtension>
            <ns3:hr>85</ns3:hr>
            <ns3:cad>0</ns3:cad>
          </ns3:TrackPointExtension>
        </extensions>
      </trkpt>
      <trkpt lat="37.74302107281982898712158203125" lon="-107.7131019718945026397705078125">
        <ele>3339.800048828125</ele>
        <time>2023-07-29T18:32:41.000Z</time>
        <extensions>
          <ns3:TrackPointExtension>
            <ns3:hr>81</ns3:hr>
            <ns3:cad>0</ns3:cad>
          </ns3:TrackPointExtension>
        </extensions>
      </trkpt>
      <trkpt lat="37.74301369674503803253173828125" lon="-107.71309308707714080810546875">
        <ele>3339.800048828125</ele>
        <time>2023-07-29T18:32:42.000Z</time>
        <extensions>
          <ns3:TrackPointExtension>
            <ns3:hr>81</ns3:hr>
            <ns3:cad>0</ns3:cad>
          </ns3:TrackPointExtension>
        </extensions>
      </trkpt>
      <trkpt lat="37.7430104278028011322021484375" lon="-107.71308227442204952239990234375">
        <ele>3339.60009765625</ele>
        <time>2023-07-29T18:32:43.000Z</time>
        <extensions>
          <ns3:TrackPointExtension>
            <ns3:hr>81</ns3:hr>
            <ns3:cad>0</ns3:cad>
          </ns3:TrackPointExtension>
        </extensions>
      </trkpt>
      <trkpt lat="37.7430077455937862396240234375" lon="-107.71307523362338542938232421875">
        <ele>3339.39990234375</ele>
        <time>2023-07-29T18:32:44.000Z</time>
        <extensions>
          <ns3:TrackPointExtension>
            <ns3:hr>80</ns3:hr>
            <ns3:cad>0</ns3:cad>
          </ns3:TrackPointExtension>
        </extensions>
      </trkpt>
      <trkpt lat="37.74300363846123218536376953125" lon="-107.713061906397342681884765625">
        <ele>3339.199951171875</ele>
        <time>2023-07-29T18:32:45.000Z</time>
        <extensions>
          <ns3:TrackPointExtension>
            <ns3:hr>79</ns3:hr>
            <ns3:cad>0</ns3:cad>
          </ns3:TrackPointExtension>
        </extensions>
      </trkpt>
      <trkpt lat="37.74299919605255126953125" lon="-107.71305084228515625">
        <ele>3339</ele>
        <time>2023-07-29T18:32:46.000Z</time>
        <extensions>
          <ns3:TrackPointExtension>
            <ns3:hr>77</ns3:hr>
            <ns3:cad>0</ns3:cad>
          </ns3:TrackPointExtension>
        </extensions>
      </trkpt>
      <trkpt lat="37.74298955686390399932861328125" lon="-107.71304137073457241058349609375">
        <ele>3339</ele>
        <time>2023-07-29T18:32:47.000Z</time>
        <extensions>
          <ns3:TrackPointExtension>
            <ns3:hr>76</ns3:hr>
            <ns3:cad>0</ns3:cad>
          </ns3:TrackPointExtension>
        </extensions>
      </trkpt>
      <trkpt lat="37.74297698400914669036865234375" lon="-107.71303181536495685577392578125">
        <ele>3338.60009765625</ele>
        <time>2023-07-29T18:32:48.000Z</time>
        <extensions>
          <ns3:TrackPointExtension>
            <ns3:hr>76</ns3:hr>
            <ns3:cad>0</ns3:cad>
          </ns3:TrackPointExtension>
        </extensions>
      </trkpt>
      <trkpt lat="37.742964662611484527587890625" lon="-107.71302142180502414703369140625">
        <ele>3338.60009765625</ele>
        <time>2023-07-29T18:32:49.000Z</time>
        <extensions>
          <ns3:TrackPointExtension>
            <ns3:hr>76</ns3:hr>
            <ns3:cad>0</ns3:cad>
          </ns3:TrackPointExtension>
        </extensions>
      </trkpt>
      <trkpt lat="37.74294630624353885650634765625" lon="-107.7130070887506008148193359375">
        <ele>3338.39990234375</ele>
        <time>2023-07-29T18:32:50.000Z</time>
        <extensions>
          <ns3:TrackPointExtension>
            <ns3:hr>76</ns3:hr>
            <ns3:cad>0</ns3:cad>
          </ns3:TrackPointExtension>
        </extensions>
      </trkpt>
      <trkpt lat="37.742930464446544647216796875" lon="-107.71299577318131923675537109375">
        <ele>3338.39990234375</ele>
        <time>2023-07-29T18:32:51.000Z</time>
        <extensions>
          <ns3:TrackPointExtension>
            <ns3:hr>76</ns3:hr>
            <ns3:cad>0</ns3:cad>
          </ns3:TrackPointExtension>
        </extensions>
      </trkpt>
      <trkpt lat="37.742913030087947845458984375" lon="-107.7129851281642913818359375">
        <ele>3338.39990234375</ele>
        <time>2023-07-29T18:32:52.000Z</time>
        <extensions>
          <ns3:TrackPointExtension>
            <ns3:hr>76</ns3:hr>
            <ns3:cad>0</ns3:cad>
          </ns3:TrackPointExtension>
        </extensions>
      </trkpt>
      <trkpt lat="37.742888219654560089111328125" lon="-107.7129789255559444427490234375">
        <ele>3338.199951171875</ele>
        <time>2023-07-29T18:32:53.000Z</time>
        <extensions>
          <ns3:TrackPointExtension>
            <ns3:hr>76</ns3:hr>
            <ns3:cad>0</ns3:cad>
          </ns3:TrackPointExtension>
        </extensions>
      </trkpt>
      <trkpt lat="37.74287514388561248779296875" lon="-107.71297029219567775726318359375">
        <ele>3338.199951171875</ele>
        <time>2023-07-29T18:32:54.000Z</time>
        <extensions>
          <ns3:TrackPointExtension>
            <ns3:hr>76</ns3:hr>
            <ns3:cad>0</ns3:cad>
          </ns3:TrackPointExtension>
        </extensions>
      </trkpt>
      <trkpt lat="37.742863409221172332763671875" lon="-107.71295897662639617919921875">
        <ele>3338</ele>
        <time>2023-07-29T18:32:55.000Z</time>
        <extensions>
          <ns3:TrackPointExtension>
            <ns3:hr>76</ns3:hr>
            <ns3:cad>0</ns3:cad>
          </ns3:TrackPointExtension>
        </extensions>
      </trkpt>
      <trkpt lat="37.74286282248795032501220703125" lon="-107.71294782869517803192138671875">
        <ele>3338</ele>
        <time>2023-07-29T18:32:56.000Z</time>
        <extensions>
          <ns3:TrackPointExtension>
            <ns3:hr>75</ns3:hr>
            <ns3:cad>0</ns3:cad>
          </ns3:TrackPointExtension>
        </extensions>
      </trkpt>
      <trkpt lat="37.74286483414471149444580078125" lon="-107.71294464357197284698486328125">
        <ele>3338</ele>
        <time>2023-07-29T18:32:57.000Z</time>
        <extensions>
          <ns3:TrackPointExtension>
            <ns3:hr>75</ns3:hr>
            <ns3:cad>53</ns3:cad>
          </ns3:TrackPointExtension>
        </extensions>
      </trkpt>
      <trkpt lat="37.74287573061883449554443359375" lon="-107.71293123252689838409423828125">
        <ele>3338</ele>
        <time>2023-07-29T18:32:58.000Z</time>
        <extensions>
          <ns3:TrackPointExtension>
            <ns3:hr>75</ns3:hr>
            <ns3:cad>53</ns3:cad>
          </ns3:TrackPointExtension>
        </extensions>
      </trkpt>
      <trkpt lat="37.742878496646881103515625" lon="-107.712921090424060821533203125">
        <ele>3338</ele>
        <time>2023-07-29T18:32:59.000Z</time>
        <extensions>
          <ns3:TrackPointExtension>
            <ns3:hr>76</ns3:hr>
            <ns3:cad>53</ns3:cad>
          </ns3:TrackPointExtension>
        </extensions>
      </trkpt>
      <trkpt lat="37.7428850345313549041748046875" lon="-107.71291564218699932098388671875">
        <ele>3338</ele>
        <time>2023-07-29T18:33:00.000Z</time>
        <extensions>
          <ns3:TrackPointExtension>
            <ns3:hr>78</ns3:hr>
            <ns3:cad>53</ns3:cad>
          </ns3:TrackPointExtension>
        </extensions>
      </trkpt>
      <trkpt lat="37.74288721382617950439453125" lon="-107.712894268333911895751953125">
        <ele>3338</ele>
        <time>2023-07-29T18:33:01.000Z</time>
        <extensions>
          <ns3:TrackPointExtension>
            <ns3:hr>78</ns3:hr>
            <ns3:cad>53</ns3:cad>
          </ns3:TrackPointExtension>
        </extensions>
      </trkpt>
      <trkpt lat="37.74288679473102092742919921875" lon="-107.71288379095494747161865234375">
        <ele>3338</ele>
        <time>2023-07-29T18:33:02.000Z</time>
        <extensions>
          <ns3:TrackPointExtension>
            <ns3:hr>78</ns3:hr>
            <ns3:cad>53</ns3:cad>
          </ns3:TrackPointExtension>
        </extensions>
      </trkpt>
      <trkpt lat="37.7428880520164966583251953125" lon="-107.7128686197102069854736328125">
        <ele>3337.800048828125</ele>
        <time>2023-07-29T18:33:03.000Z</time>
        <extensions>
          <ns3:TrackPointExtension>
            <ns3:hr>78</ns3:hr>
            <ns3:cad>53</ns3:cad>
          </ns3:TrackPointExtension>
        </extensions>
      </trkpt>
      <trkpt lat="37.742890231311321258544921875" lon="-107.71285705268383026123046875">
        <ele>3337.60009765625</ele>
        <time>2023-07-29T18:33:04.000Z</time>
        <extensions>
          <ns3:TrackPointExtension>
            <ns3:hr>78</ns3:hr>
            <ns3:cad>53</ns3:cad>
          </ns3:TrackPointExtension>
        </extensions>
      </trkpt>
      <trkpt lat="37.74288981221616268157958984375" lon="-107.712836600840091705322265625">
        <ele>3337.39990234375</ele>
        <time>2023-07-29T18:33:05.000Z</time>
        <extensions>
          <ns3:TrackPointExtension>
            <ns3:hr>78</ns3:hr>
            <ns3:cad>53</ns3:cad>
          </ns3:TrackPointExtension>
        </extensions>
      </trkpt>
      <trkpt lat="37.7428920753300189971923828125" lon="-107.712822854518890380859375">
        <ele>3337.199951171875</ele>
        <time>2023-07-29T18:33:06.000Z</time>
        <extensions>
          <ns3:TrackPointExtension>
            <ns3:hr>78</ns3:hr>
            <ns3:cad>0</ns3:cad>
          </ns3:TrackPointExtension>
        </extensions>
      </trkpt>
      <trkpt lat="37.74289618246257305145263671875" lon="-107.7128126285970211029052734375">
        <ele>3337</ele>
        <time>2023-07-29T18:33:07.000Z</time>
        <extensions>
          <ns3:TrackPointExtension>
            <ns3:hr>78</ns3:hr>
            <ns3:cad>0</ns3:cad>
          </ns3:TrackPointExtension>
        </extensions>
      </trkpt>
      <trkpt lat="37.74290137924253940582275390625" lon="-107.71279779262840747833251953125">
        <ele>3336.800048828125</ele>
        <time>2023-07-29T18:33:08.000Z</time>
        <extensions>
          <ns3:TrackPointExtension>
            <ns3:hr>78</ns3:hr>
            <ns3:cad>0</ns3:cad>
          </ns3:TrackPointExtension>
        </extensions>
      </trkpt>
      <trkpt lat="37.74290489964187145233154296875" lon="-107.7127759158611297607421875">
        <ele>3336.800048828125</ele>
        <time>2023-07-29T18:33:09.000Z</time>
        <extensions>
          <ns3:TrackPointExtension>
            <ns3:hr>78</ns3:hr>
            <ns3:cad>0</ns3:cad>
          </ns3:TrackPointExtension>
        </extensions>
      </trkpt>
      <trkpt lat="37.74290976114571094512939453125" lon="-107.7127611637115478515625">
        <ele>3336.800048828125</ele>
        <time>2023-07-29T18:33:10.000Z</time>
        <extensions>
          <ns3:TrackPointExtension>
            <ns3:hr>78</ns3:hr>
            <ns3:cad>55</ns3:cad>
          </ns3:TrackPointExtension>
        </extensions>
      </trkpt>
      <trkpt lat="37.74291671812534332275390625" lon="-107.71274029277265071868896484375">
        <ele>3336.60009765625</ele>
        <time>2023-07-29T18:33:11.000Z</time>
        <extensions>
          <ns3:TrackPointExtension>
            <ns3:hr>78</ns3:hr>
            <ns3:cad>55</ns3:cad>
          </ns3:TrackPointExtension>
        </extensions>
      </trkpt>
      <trkpt lat="37.74292367510497570037841796875" lon="-107.7127187512814998626708984375">
        <ele>3336.60009765625</ele>
        <time>2023-07-29T18:33:12.000Z</time>
        <extensions>
          <ns3:TrackPointExtension>
            <ns3:hr>78</ns3:hr>
            <ns3:cad>55</ns3:cad>
          </ns3:TrackPointExtension>
        </extensions>
      </trkpt>
      <trkpt lat="37.74292719550430774688720703125" lon="-107.712710537016391754150390625">
        <ele>3336.60009765625</ele>
        <time>2023-07-29T18:33:13.000Z</time>
        <extensions>
          <ns3:TrackPointExtension>
            <ns3:hr>78</ns3:hr>
            <ns3:cad>55</ns3:cad>
          </ns3:TrackPointExtension>
        </extensions>
      </trkpt>
      <trkpt lat="37.7429346553981304168701171875" lon="-107.7127070166170597076416015625">
        <ele>3336.60009765625</ele>
        <time>2023-07-29T18:33:14.000Z</time>
        <extensions>
          <ns3:TrackPointExtension>
            <ns3:hr>78</ns3:hr>
            <ns3:cad>55</ns3:cad>
          </ns3:TrackPointExtension>
        </extensions>
      </trkpt>
      <trkpt lat="37.742940522730350494384765625" lon="-107.71269888617098331451416015625">
        <ele>3336.60009765625</ele>
        <time>2023-07-29T18:33:15.000Z</time>
        <extensions>
          <ns3:TrackPointExtension>
            <ns3:hr>78</ns3:hr>
            <ns3:cad>55</ns3:cad>
          </ns3:TrackPointExtension>
        </extensions>
      </trkpt>
      <trkpt lat="37.7429463900625705718994140625" lon="-107.7126838825643062591552734375">
        <ele>3336.39990234375</ele>
        <time>2023-07-29T18:33:16.000Z</time>
        <extensions>
          <ns3:TrackPointExtension>
            <ns3:hr>79</ns3:hr>
            <ns3:cad>55</ns3:cad>
          </ns3:TrackPointExtension>
        </extensions>
      </trkpt>
      <trkpt lat="37.7429500780999660491943359375" lon="-107.71266653202474117279052734375">
        <ele>3336</ele>
        <time>2023-07-29T18:33:17.000Z</time>
        <extensions>
          <ns3:TrackPointExtension>
            <ns3:hr>79</ns3:hr>
            <ns3:cad>55</ns3:cad>
          </ns3:TrackPointExtension>
        </extensions>
      </trkpt>
      <trkpt lat="37.7429547719657421112060546875" lon="-107.712658904492855072021484375">
        <ele>3336</ele>
        <time>2023-07-29T18:33:18.000Z</time>
        <extensions>
          <ns3:TrackPointExtension>
            <ns3:hr>79</ns3:hr>
            <ns3:cad>55</ns3:cad>
          </ns3:TrackPointExtension>
        </extensions>
      </trkpt>
      <trkpt lat="37.74296156130731105804443359375" lon="-107.71264591254293918609619140625">
        <ele>3335.800048828125</ele>
        <time>2023-07-29T18:33:19.000Z</time>
        <extensions>
          <ns3:TrackPointExtension>
            <ns3:hr>79</ns3:hr>
            <ns3:cad>55</ns3:cad>
          </ns3:TrackPointExtension>
        </extensions>
      </trkpt>
      <trkpt lat="37.7429678477346897125244140625" lon="-107.71263350732624530792236328125">
        <ele>3335.800048828125</ele>
        <time>2023-07-29T18:33:20.000Z</time>
        <extensions>
          <ns3:TrackPointExtension>
            <ns3:hr>79</ns3:hr>
            <ns3:cad>55</ns3:cad>
          </ns3:TrackPointExtension>
        </extensions>
      </trkpt>
      <trkpt lat="37.74297111667692661285400390625" lon="-107.712623365223407745361328125">
        <ele>3335.800048828125</ele>
        <time>2023-07-29T18:33:21.000Z</time>
        <extensions>
          <ns3:TrackPointExtension>
            <ns3:hr>79</ns3:hr>
            <ns3:cad>55</ns3:cad>
          </ns3:TrackPointExtension>
        </extensions>
      </trkpt>
      <trkpt lat="37.742972709238529205322265625" lon="-107.71261523477733135223388671875">
        <ele>3335.60009765625</ele>
        <time>2023-07-29T18:33:22.000Z</time>
        <extensions>
          <ns3:TrackPointExtension>
            <ns3:hr>79</ns3:hr>
            <ns3:cad>54</ns3:cad>
          </ns3:TrackPointExtension>
        </extensions>
      </trkpt>
      <trkpt lat="37.74297430180013179779052734375" lon="-107.7126054279506206512451171875">
        <ele>3335.39990234375</ele>
        <time>2023-07-29T18:33:23.000Z</time>
        <extensions>
          <ns3:TrackPointExtension>
            <ns3:hr>79</ns3:hr>
            <ns3:cad>54</ns3:cad>
          </ns3:TrackPointExtension>
        </extensions>
      </trkpt>
      <trkpt lat="37.74297547526657581329345703125" lon="-107.71259193308651447296142578125">
        <ele>3335.39990234375</ele>
        <time>2023-07-29T18:33:24.000Z</time>
        <extensions>
          <ns3:TrackPointExtension>
            <ns3:hr>79</ns3:hr>
            <ns3:cad>54</ns3:cad>
          </ns3:TrackPointExtension>
        </extensions>
      </trkpt>
      <trkpt lat="37.7429799176752567291259765625" lon="-107.71257449872791767120361328125">
        <ele>3335.199951171875</ele>
        <time>2023-07-29T18:33:25.000Z</time>
        <extensions>
          <ns3:TrackPointExtension>
            <ns3:hr>79</ns3:hr>
            <ns3:cad>0</ns3:cad>
          </ns3:TrackPointExtension>
        </extensions>
      </trkpt>
      <trkpt lat="37.74298033677041530609130859375" lon="-107.7125586569309234619140625">
        <ele>3335.199951171875</ele>
        <time>2023-07-29T18:33:26.000Z</time>
        <extensions>
          <ns3:TrackPointExtension>
            <ns3:hr>79</ns3:hr>
            <ns3:cad>0</ns3:cad>
          </ns3:TrackPointExtension>
        </extensions>
      </trkpt>
      <trkpt lat="37.74298402480781078338623046875" lon="-107.7125423960387706756591796875">
        <ele>3335.199951171875</ele>
        <time>2023-07-29T18:33:27.000Z</time>
        <extensions>
          <ns3:TrackPointExtension>
            <ns3:hr>79</ns3:hr>
            <ns3:cad>0</ns3:cad>
          </ns3:TrackPointExtension>
        </extensions>
      </trkpt>
      <trkpt lat="37.742988802492618560791015625" lon="-107.71252990700304508209228515625">
        <ele>3335.199951171875</ele>
        <time>2023-07-29T18:33:28.000Z</time>
        <extensions>
          <ns3:TrackPointExtension>
            <ns3:hr>79</ns3:hr>
            <ns3:cad>0</ns3:cad>
          </ns3:TrackPointExtension>
        </extensions>
      </trkpt>
      <trkpt lat="37.74298989214003086090087890625" lon="-107.71252001635730266571044921875">
        <ele>3335.199951171875</ele>
        <time>2023-07-29T18:33:29.000Z</time>
        <extensions>
          <ns3:TrackPointExtension>
            <ns3:hr>79</ns3:hr>
            <ns3:cad>0</ns3:cad>
          </ns3:TrackPointExtension>
        </extensions>
      </trkpt>
      <trkpt lat="37.74299156852066516876220703125" lon="-107.71251146681606769561767578125">
        <ele>3335</ele>
        <time>2023-07-29T18:33:30.000Z</time>
        <extensions>
          <ns3:TrackPointExtension>
            <ns3:hr>79</ns3:hr>
            <ns3:cad>0</ns3:cad>
          </ns3:TrackPointExtension>
        </extensions>
      </trkpt>
      <trkpt lat="37.74299676530063152313232421875" lon="-107.71249772049486637115478515625">
        <ele>3335</ele>
        <time>2023-07-29T18:33:31.000Z</time>
        <extensions>
          <ns3:TrackPointExtension>
            <ns3:hr>79</ns3:hr>
            <ns3:cad>0</ns3:cad>
          </ns3:TrackPointExtension>
        </extensions>
      </trkpt>
      <trkpt lat="37.74300196208059787750244140625" lon="-107.71249051205813884735107421875">
        <ele>3334.800048828125</ele>
        <time>2023-07-29T18:33:32.000Z</time>
        <extensions>
          <ns3:TrackPointExtension>
            <ns3:hr>79</ns3:hr>
            <ns3:cad>0</ns3:cad>
          </ns3:TrackPointExtension>
        </extensions>
      </trkpt>
      <trkpt lat="37.74300782941281795501708984375" lon="-107.71247793920338153839111328125">
        <ele>3334.60009765625</ele>
        <time>2023-07-29T18:33:33.000Z</time>
        <extensions>
          <ns3:TrackPointExtension>
            <ns3:hr>79</ns3:hr>
            <ns3:cad>0</ns3:cad>
          </ns3:TrackPointExtension>
        </extensions>
      </trkpt>
      <trkpt lat="37.7430139482021331787109375" lon="-107.71246084012091159820556640625">
        <ele>3334.39990234375</ele>
        <time>2023-07-29T18:33:34.000Z</time>
        <extensions>
          <ns3:TrackPointExtension>
            <ns3:hr>79</ns3:hr>
            <ns3:cad>0</ns3:cad>
          </ns3:TrackPointExtension>
        </extensions>
      </trkpt>
      <trkpt lat="37.7430204860866069793701171875" lon="-107.7124448306858539581298828125">
        <ele>3334.199951171875</ele>
        <time>2023-07-29T18:33:35.000Z</time>
        <extensions>
          <ns3:TrackPointExtension>
            <ns3:hr>79</ns3:hr>
            <ns3:cad>0</ns3:cad>
          </ns3:TrackPointExtension>
        </extensions>
      </trkpt>
      <trkpt lat="37.743027694523334503173828125" lon="-107.7124263904988765716552734375">
        <ele>3334.199951171875</ele>
        <time>2023-07-29T18:33:36.000Z</time>
        <extensions>
          <ns3:TrackPointExtension>
            <ns3:hr>79</ns3:hr>
            <ns3:cad>0</ns3:cad>
          </ns3:TrackPointExtension>
        </extensions>
      </trkpt>
      <trkpt lat="37.743031047284603118896484375" lon="-107.71241985261440277099609375">
        <ele>3334</ele>
        <time>2023-07-29T18:33:37.000Z</time>
        <extensions>
          <ns3:TrackPointExtension>
            <ns3:hr>78</ns3:hr>
            <ns3:cad>0</ns3:cad>
          </ns3:TrackPointExtension>
        </extensions>
      </trkpt>
      <trkpt lat="37.743036411702632904052734375" lon="-107.712413482367992401123046875">
        <ele>3334</ele>
        <time>2023-07-29T18:33:38.000Z</time>
        <extensions>
          <ns3:TrackPointExtension>
            <ns3:hr>78</ns3:hr>
            <ns3:cad>0</ns3:cad>
          </ns3:TrackPointExtension>
        </extensions>
      </trkpt>
      <trkpt lat="37.7430416084825992584228515625" lon="-107.71240183152258396148681640625">
        <ele>3334</ele>
        <time>2023-07-29T18:33:39.000Z</time>
        <extensions>
          <ns3:TrackPointExtension>
            <ns3:hr>78</ns3:hr>
            <ns3:cad>0</ns3:cad>
          </ns3:TrackPointExtension>
        </extensions>
      </trkpt>
      <trkpt lat="37.743048481643199920654296875" lon="-107.71238976158201694488525390625">
        <ele>3334</ele>
        <time>2023-07-29T18:33:40.000Z</time>
        <extensions>
          <ns3:TrackPointExtension>
            <ns3:hr>78</ns3:hr>
            <ns3:cad>0</ns3:cad>
          </ns3:TrackPointExtension>
        </extensions>
      </trkpt>
      <trkpt lat="37.7430556900799274444580078125" lon="-107.71237685345113277435302734375">
        <ele>3333.800048828125</ele>
        <time>2023-07-29T18:33:41.000Z</time>
        <extensions>
          <ns3:TrackPointExtension>
            <ns3:hr>78</ns3:hr>
            <ns3:cad>0</ns3:cad>
          </ns3:TrackPointExtension>
        </extensions>
      </trkpt>
      <trkpt lat="37.74306382052600383758544921875" lon="-107.7123657055199146270751953125">
        <ele>3333.800048828125</ele>
        <time>2023-07-29T18:33:42.000Z</time>
        <extensions>
          <ns3:TrackPointExtension>
            <ns3:hr>78</ns3:hr>
            <ns3:cad>0</ns3:cad>
          </ns3:TrackPointExtension>
        </extensions>
      </trkpt>
      <trkpt lat="37.74307102896273136138916015625" lon="-107.712353803217411041259765625">
        <ele>3333.800048828125</ele>
        <time>2023-07-29T18:33:43.000Z</time>
        <extensions>
          <ns3:TrackPointExtension>
            <ns3:hr>78</ns3:hr>
            <ns3:cad>0</ns3:cad>
          </ns3:TrackPointExtension>
        </extensions>
      </trkpt>
      <trkpt lat="37.7430744655430316925048828125" lon="-107.7123489417135715484619140625">
        <ele>3333.60009765625</ele>
        <time>2023-07-29T18:33:44.000Z</time>
        <extensions>
          <ns3:TrackPointExtension>
            <ns3:hr>78</ns3:hr>
            <ns3:cad>0</ns3:cad>
          </ns3:TrackPointExtension>
        </extensions>
      </trkpt>
      <trkpt lat="37.74307823739945888519287109375" lon="-107.712341733276844024658203125">
        <ele>3333.39990234375</ele>
        <time>2023-07-29T18:33:45.000Z</time>
        <extensions>
          <ns3:TrackPointExtension>
            <ns3:hr>78</ns3:hr>
            <ns3:cad>0</ns3:cad>
          </ns3:TrackPointExtension>
        </extensions>
      </trkpt>
      <trkpt lat="37.74308024905622005462646484375" lon="-107.7123331837356090545654296875">
        <ele>3333.39990234375</ele>
        <time>2023-07-29T18:33:46.000Z</time>
        <extensions>
          <ns3:TrackPointExtension>
            <ns3:hr>77</ns3:hr>
            <ns3:cad>0</ns3:cad>
          </ns3:TrackPointExtension>
        </extensions>
      </trkpt>
      <trkpt lat="37.7430783212184906005859375" lon="-107.71232907660305500030517578125">
        <ele>3333.199951171875</ele>
        <time>2023-07-29T18:33:47.000Z</time>
        <extensions>
          <ns3:TrackPointExtension>
            <ns3:hr>77</ns3:hr>
            <ns3:cad>0</ns3:cad>
          </ns3:TrackPointExtension>
        </extensions>
      </trkpt>
      <trkpt lat="37.743073962628841400146484375" lon="-107.71232522092759609222412109375">
        <ele>3333.199951171875</ele>
        <time>2023-07-29T18:33:48.000Z</time>
        <extensions>
          <ns3:TrackPointExtension>
            <ns3:hr>77</ns3:hr>
            <ns3:cad>0</ns3:cad>
          </ns3:TrackPointExtension>
        </extensions>
      </trkpt>
      <trkpt lat="37.74307019077241420745849609375" lon="-107.7123258076608180999755859375">
        <ele>3333</ele>
        <time>2023-07-29T18:33:49.000Z</time>
        <extensions>
          <ns3:TrackPointExtension>
            <ns3:hr>77</ns3:hr>
            <ns3:cad>0</ns3:cad>
          </ns3:TrackPointExtension>
        </extensions>
      </trkpt>
      <trkpt lat="37.74306432344019412994384765625" lon="-107.71232807077467441558837890625">
        <ele>3332.800048828125</ele>
        <time>2023-07-29T18:33:50.000Z</time>
        <extensions>
          <ns3:TrackPointExtension>
            <ns3:hr>77</ns3:hr>
            <ns3:cad>0</ns3:cad>
          </ns3:TrackPointExtension>
        </extensions>
      </trkpt>
      <trkpt lat="37.7430556900799274444580078125" lon="-107.71233041770756244659423828125">
        <ele>3332.60009765625</ele>
        <time>2023-07-29T18:33:51.000Z</time>
        <extensions>
          <ns3:TrackPointExtension>
            <ns3:hr>77</ns3:hr>
            <ns3:cad>0</ns3:cad>
          </ns3:TrackPointExtension>
        </extensions>
      </trkpt>
      <trkpt lat="37.7430434525012969970703125" lon="-107.71233175881206989288330078125">
        <ele>3332.39990234375</ele>
        <time>2023-07-29T18:33:52.000Z</time>
        <extensions>
          <ns3:TrackPointExtension>
            <ns3:hr>76</ns3:hr>
            <ns3:cad>0</ns3:cad>
          </ns3:TrackPointExtension>
        </extensions>
      </trkpt>
      <trkpt lat="37.74303414858877658843994140625" lon="-107.71233410574495792388916015625">
        <ele>3332.199951171875</ele>
        <time>2023-07-29T18:33:53.000Z</time>
        <extensions>
          <ns3:TrackPointExtension>
            <ns3:hr>75</ns3:hr>
            <ns3:cad>0</ns3:cad>
          </ns3:TrackPointExtension>
        </extensions>
      </trkpt>
      <trkpt lat="37.7430292032659053802490234375" lon="-107.7123385481536388397216796875">
        <ele>3332</ele>
        <time>2023-07-29T18:33:54.000Z</time>
        <extensions>
          <ns3:TrackPointExtension>
            <ns3:hr>75</ns3:hr>
            <ns3:cad>0</ns3:cad>
          </ns3:TrackPointExtension>
        </extensions>
      </trkpt>
      <trkpt lat="37.74302777834236621856689453125" lon="-107.7123429067432880401611328125">
        <ele>3331.800048828125</ele>
        <time>2023-07-29T18:33:55.000Z</time>
        <extensions>
          <ns3:TrackPointExtension>
            <ns3:hr>75</ns3:hr>
            <ns3:cad>0</ns3:cad>
          </ns3:TrackPointExtension>
        </extensions>
      </trkpt>
      <trkpt lat="37.74302090518176555633544921875" lon="-107.71234718151390552520751953125">
        <ele>3331.800048828125</ele>
        <time>2023-07-29T18:33:56.000Z</time>
        <extensions>
          <ns3:TrackPointExtension>
            <ns3:hr>75</ns3:hr>
            <ns3:cad>0</ns3:cad>
          </ns3:TrackPointExtension>
        </extensions>
      </trkpt>
      <trkpt lat="37.7430178038775920867919921875" lon="-107.71235036663711071014404296875">
        <ele>3331.800048828125</ele>
        <time>2023-07-29T18:33:57.000Z</time>
        <extensions>
          <ns3:TrackPointExtension>
            <ns3:hr>75</ns3:hr>
            <ns3:cad>0</ns3:cad>
          </ns3:TrackPointExtension>
        </extensions>
      </trkpt>
      <trkpt lat="37.74301403202116489410400390625" lon="-107.7123519591987133026123046875">
        <ele>3331.800048828125</ele>
        <time>2023-07-29T18:33:58.000Z</time>
        <extensions>
          <ns3:TrackPointExtension>
            <ns3:hr>75</ns3:hr>
            <ns3:cad>0</ns3:cad>
          </ns3:TrackPointExtension>
        </extensions>
      </trkpt>
      <trkpt lat="37.743009589612483978271484375" lon="-107.71235221065580844879150390625">
        <ele>3331.60009765625</ele>
        <time>2023-07-29T18:33:59.000Z</time>
        <extensions>
          <ns3:TrackPointExtension>
            <ns3:hr>75</ns3:hr>
            <ns3:cad>0</ns3:cad>
          </ns3:TrackPointExtension>
        </extensions>
      </trkpt>
      <trkpt lat="37.74300414137542247772216796875" lon="-107.7123539708554744720458984375">
        <ele>3331.39990234375</ele>
        <time>2023-07-29T18:34:00.000Z</time>
        <extensions>
          <ns3:TrackPointExtension>
            <ns3:hr>75</ns3:hr>
            <ns3:cad>65</ns3:cad>
          </ns3:TrackPointExtension>
        </extensions>
      </trkpt>
      <trkpt lat="37.742983438074588775634765625" lon="-107.71236008964478969573974609375">
        <ele>3331.199951171875</ele>
        <time>2023-07-29T18:34:01.000Z</time>
        <extensions>
          <ns3:TrackPointExtension>
            <ns3:hr>75</ns3:hr>
            <ns3:cad>65</ns3:cad>
          </ns3:TrackPointExtension>
        </extensions>
      </trkpt>
      <trkpt lat="37.74297631345689296722412109375" lon="-107.71236310712993144989013671875">
        <ele>3331.199951171875</ele>
        <time>2023-07-29T18:34:02.000Z</time>
        <extensions>
          <ns3:TrackPointExtension>
            <ns3:hr>75</ns3:hr>
            <ns3:cad>65</ns3:cad>
          </ns3:TrackPointExtension>
        </extensions>
      </trkpt>
      <trkpt lat="37.74297262541949748992919921875" lon="-107.7123687230050563812255859375">
        <ele>3331</ele>
        <time>2023-07-29T18:34:03.000Z</time>
        <extensions>
          <ns3:TrackPointExtension>
            <ns3:hr>75</ns3:hr>
            <ns3:cad>65</ns3:cad>
          </ns3:TrackPointExtension>
        </extensions>
      </trkpt>
      <trkpt lat="37.74296709336340427398681640625" lon="-107.71237157285213470458984375">
        <ele>3330.800048828125</ele>
        <time>2023-07-29T18:34:04.000Z</time>
        <extensions>
          <ns3:TrackPointExtension>
            <ns3:hr>75</ns3:hr>
            <ns3:cad>65</ns3:cad>
          </ns3:TrackPointExtension>
        </extensions>
      </trkpt>
      <trkpt lat="37.74296156130731105804443359375" lon="-107.71237283013761043548583984375">
        <ele>3330.39990234375</ele>
        <time>2023-07-29T18:34:05.000Z</time>
        <extensions>
          <ns3:TrackPointExtension>
            <ns3:hr>75</ns3:hr>
            <ns3:cad>65</ns3:cad>
          </ns3:TrackPointExtension>
        </extensions>
      </trkpt>
      <trkpt lat="37.74295586161315441131591796875" lon="-107.712375260889530181884765625">
        <ele>3330</ele>
        <time>2023-07-29T18:34:06.000Z</time>
        <extensions>
          <ns3:TrackPointExtension>
            <ns3:hr>75</ns3:hr>
            <ns3:cad>61</ns3:cad>
          </ns3:TrackPointExtension>
        </extensions>
      </trkpt>
      <trkpt lat="37.7429410256445407867431640625" lon="-107.71237903274595737457275390625">
        <ele>3329.800048828125</ele>
        <time>2023-07-29T18:34:07.000Z</time>
        <extensions>
          <ns3:TrackPointExtension>
            <ns3:hr>74</ns3:hr>
            <ns3:cad>61</ns3:cad>
          </ns3:TrackPointExtension>
        </extensions>
      </trkpt>
      <trkpt lat="37.74293172173202037811279296875" lon="-107.712384648621082305908203125">
        <ele>3329.800048828125</ele>
        <time>2023-07-29T18:34:08.000Z</time>
        <extensions>
          <ns3:TrackPointExtension>
            <ns3:hr>74</ns3:hr>
            <ns3:cad>61</ns3:cad>
          </ns3:TrackPointExtension>
        </extensions>
      </trkpt>
      <trkpt lat="37.74291403591632843017578125" lon="-107.712385654449462890625">
        <ele>3329.60009765625</ele>
        <time>2023-07-29T18:34:09.000Z</time>
        <extensions>
          <ns3:TrackPointExtension>
            <ns3:hr>73</ns3:hr>
            <ns3:cad>61</ns3:cad>
          </ns3:TrackPointExtension>
        </extensions>
      </trkpt>
      <trkpt lat="37.742899619042873382568359375" lon="-107.71239579655230045318603515625">
        <ele>3329.60009765625</ele>
        <time>2023-07-29T18:34:10.000Z</time>
        <extensions>
          <ns3:TrackPointExtension>
            <ns3:hr>73</ns3:hr>
            <ns3:cad>0</ns3:cad>
          </ns3:TrackPointExtension>
        </extensions>
      </trkpt>
      <trkpt lat="37.74288796819746494293212890625" lon="-107.712406776845455169677734375">
        <ele>3329.60009765625</ele>
        <time>2023-07-29T18:34:11.000Z</time>
        <extensions>
          <ns3:TrackPointExtension>
            <ns3:hr>73</ns3:hr>
            <ns3:cad>0</ns3:cad>
          </ns3:TrackPointExtension>
        </extensions>
      </trkpt>
      <trkpt lat="37.7428726293146610260009765625" lon="-107.7124243788421154022216796875">
        <ele>3329.39990234375</ele>
        <time>2023-07-29T18:34:12.000Z</time>
        <extensions>
          <ns3:TrackPointExtension>
            <ns3:hr>73</ns3:hr>
            <ns3:cad>0</ns3:cad>
          </ns3:TrackPointExtension>
        </extensions>
      </trkpt>
      <trkpt lat="37.74285913445055484771728515625" lon="-107.7124414779245853424072265625">
        <ele>3329.39990234375</ele>
        <time>2023-07-29T18:34:13.000Z</time>
        <extensions>
          <ns3:TrackPointExtension>
            <ns3:hr>74</ns3:hr>
            <ns3:cad>19</ns3:cad>
          </ns3:TrackPointExtension>
        </extensions>
      </trkpt>
      <trkpt lat="37.74285100400447845458984375" lon="-107.71244977600872516632080078125">
        <ele>3329.39990234375</ele>
        <time>2023-07-29T18:34:14.000Z</time>
        <extensions>
          <ns3:TrackPointExtension>
            <ns3:hr>74</ns3:hr>
            <ns3:cad>19</ns3:cad>
          </ns3:TrackPointExtension>
        </extensions>
      </trkpt>
      <trkpt lat="37.742838598787784576416015625" lon="-107.7124619297683238983154296875">
        <ele>3329.199951171875</ele>
        <time>2023-07-29T18:34:15.000Z</time>
        <extensions>
          <ns3:TrackPointExtension>
            <ns3:hr>75</ns3:hr>
            <ns3:cad>19</ns3:cad>
          </ns3:TrackPointExtension>
        </extensions>
      </trkpt>
      <trkpt lat="37.74282015860080718994140625" lon="-107.71247693337500095367431640625">
        <ele>3328.800048828125</ele>
        <time>2023-07-29T18:34:16.000Z</time>
        <extensions>
          <ns3:TrackPointExtension>
            <ns3:hr>75</ns3:hr>
            <ns3:cad>19</ns3:cad>
          </ns3:TrackPointExtension>
        </extensions>
      </trkpt>
      <trkpt lat="37.74280834011733531951904296875" lon="-107.71248732693493366241455078125">
        <ele>3328.800048828125</ele>
        <time>2023-07-29T18:34:17.000Z</time>
        <extensions>
          <ns3:TrackPointExtension>
            <ns3:hr>75</ns3:hr>
            <ns3:cad>19</ns3:cad>
          </ns3:TrackPointExtension>
        </extensions>
      </trkpt>
      <trkpt lat="37.74279777891933917999267578125" lon="-107.71249369718134403228759765625">
        <ele>3328.60009765625</ele>
        <time>2023-07-29T18:34:18.000Z</time>
        <extensions>
          <ns3:TrackPointExtension>
            <ns3:hr>75</ns3:hr>
            <ns3:cad>19</ns3:cad>
          </ns3:TrackPointExtension>
        </extensions>
      </trkpt>
      <trkpt lat="37.74278688244521617889404296875" lon="-107.71249889396131038665771484375">
        <ele>3328.60009765625</ele>
        <time>2023-07-29T18:34:19.000Z</time>
        <extensions>
          <ns3:TrackPointExtension>
            <ns3:hr>75</ns3:hr>
            <ns3:cad>19</ns3:cad>
          </ns3:TrackPointExtension>
        </extensions>
      </trkpt>
      <trkpt lat="37.74277632124722003936767578125" lon="-107.7125031687319278717041015625">
        <ele>3328.60009765625</ele>
        <time>2023-07-29T18:34:20.000Z</time>
        <extensions>
          <ns3:TrackPointExtension>
            <ns3:hr>75</ns3:hr>
            <ns3:cad>19</ns3:cad>
          </ns3:TrackPointExtension>
        </extensions>
      </trkpt>
      <trkpt lat="37.74276383221149444580078125" lon="-107.7125095389783382415771484375">
        <ele>3328.39990234375</ele>
        <time>2023-07-29T18:34:21.000Z</time>
        <extensions>
          <ns3:TrackPointExtension>
            <ns3:hr>75</ns3:hr>
            <ns3:cad>0</ns3:cad>
          </ns3:TrackPointExtension>
        </extensions>
      </trkpt>
      <trkpt lat="37.74275452829897403717041015625" lon="-107.71251280792057514190673828125">
        <ele>3328.199951171875</ele>
        <time>2023-07-29T18:34:22.000Z</time>
        <extensions>
          <ns3:TrackPointExtension>
            <ns3:hr>75</ns3:hr>
            <ns3:cad>0</ns3:cad>
          </ns3:TrackPointExtension>
        </extensions>
      </trkpt>
      <trkpt lat="37.7427499182522296905517578125" lon="-107.71250911988317966461181640625">
        <ele>3328</ele>
        <time>2023-07-29T18:34:23.000Z</time>
        <extensions>
          <ns3:TrackPointExtension>
            <ns3:hr>76</ns3:hr>
            <ns3:cad>0</ns3:cad>
          </ns3:TrackPointExtension>
        </extensions>
      </trkpt>
      <trkpt lat="37.74273860268294811248779296875" lon="-107.7125050127506256103515625">
        <ele>3327.800048828125</ele>
        <time>2023-07-29T18:34:24.000Z</time>
        <extensions>
          <ns3:TrackPointExtension>
            <ns3:hr>75</ns3:hr>
            <ns3:cad>0</ns3:cad>
          </ns3:TrackPointExtension>
        </extensions>
      </trkpt>
      <trkpt lat="37.74273038841784000396728515625" lon="-107.71250300109386444091796875">
        <ele>3327.800048828125</ele>
        <time>2023-07-29T18:34:25.000Z</time>
        <extensions>
          <ns3:TrackPointExtension>
            <ns3:hr>75</ns3:hr>
            <ns3:cad>0</ns3:cad>
          </ns3:TrackPointExtension>
        </extensions>
      </trkpt>
      <trkpt lat="37.74271815083920955657958984375" lon="-107.7125018276274204254150390625">
        <ele>3327.60009765625</ele>
        <time>2023-07-29T18:34:26.000Z</time>
        <extensions>
          <ns3:TrackPointExtension>
            <ns3:hr>76</ns3:hr>
            <ns3:cad>0</ns3:cad>
          </ns3:TrackPointExtension>
        </extensions>
      </trkpt>
      <trkpt lat="37.7427049912512302398681640625" lon="-107.7125023305416107177734375">
        <ele>3327.39990234375</ele>
        <time>2023-07-29T18:34:27.000Z</time>
        <extensions>
          <ns3:TrackPointExtension>
            <ns3:hr>75</ns3:hr>
            <ns3:cad>0</ns3:cad>
          </ns3:TrackPointExtension>
        </extensions>
      </trkpt>
      <trkpt lat="37.742702476680278778076171875" lon="-107.7125001512467861175537109375">
        <ele>3327.199951171875</ele>
        <time>2023-07-29T18:34:28.000Z</time>
        <extensions>
          <ns3:TrackPointExtension>
            <ns3:hr>75</ns3:hr>
            <ns3:cad>0</ns3:cad>
          </ns3:TrackPointExtension>
        </extensions>
      </trkpt>
      <trkpt lat="37.74264237843453884124755859375" lon="-107.71249629557132720947265625">
        <ele>3325.800048828125</ele>
        <time>2023-07-29T18:34:36.000Z</time>
        <extensions>
          <ns3:TrackPointExtension>
            <ns3:hr>76</ns3:hr>
            <ns3:cad>53</ns3:cad>
          </ns3:TrackPointExtension>
        </extensions>
      </trkpt>
      <trkpt lat="37.742635421454906463623046875" lon="-107.7124991454184055328369140625">
        <ele>3325.60009765625</ele>
        <time>2023-07-29T18:34:37.000Z</time>
        <extensions>
          <ns3:TrackPointExtension>
            <ns3:hr>76</ns3:hr>
            <ns3:cad>53</ns3:cad>
          </ns3:TrackPointExtension>
        </extensions>
      </trkpt>
      <trkpt lat="37.7426258660852909088134765625" lon="-107.7125081978738307952880859375">
        <ele>3325.39990234375</ele>
        <time>2023-07-29T18:34:39.000Z</time>
        <extensions>
          <ns3:TrackPointExtension>
            <ns3:hr>77</ns3:hr>
            <ns3:cad>53</ns3:cad>
          </ns3:TrackPointExtension>
        </extensions>
      </trkpt>
      <trkpt lat="37.74261907674372196197509765625" lon="-107.71251431666314601898193359375">
        <ele>3325.39990234375</ele>
        <time>2023-07-29T18:34:40.000Z</time>
        <extensions>
          <ns3:TrackPointExtension>
            <ns3:hr>77</ns3:hr>
            <ns3:cad>53</ns3:cad>
          </ns3:TrackPointExtension>
        </extensions>
      </trkpt>
      <trkpt lat="37.742609940469264984130859375" lon="-107.71251817233860492706298828125">
        <ele>3325.199951171875</ele>
        <time>2023-07-29T18:34:41.000Z</time>
        <extensions>
          <ns3:TrackPointExtension>
            <ns3:hr>78</ns3:hr>
            <ns3:cad>53</ns3:cad>
          </ns3:TrackPointExtension>
        </extensions>
      </trkpt>
      <trkpt lat="37.74259275756776332855224609375" lon="-107.712524123489856719970703125">
        <ele>3325.199951171875</ele>
        <time>2023-07-29T18:34:42.000Z</time>
        <extensions>
          <ns3:TrackPointExtension>
            <ns3:hr>79</ns3:hr>
            <ns3:cad>53</ns3:cad>
          </ns3:TrackPointExtension>
        </extensions>
      </trkpt>
      <trkpt lat="37.74258546531200408935546875" lon="-107.71252655424177646636962890625">
        <ele>3325.199951171875</ele>
        <time>2023-07-29T18:34:43.000Z</time>
        <extensions>
          <ns3:TrackPointExtension>
            <ns3:hr>80</ns3:hr>
            <ns3:cad>0</ns3:cad>
          </ns3:TrackPointExtension>
        </extensions>
      </trkpt>
      <trkpt lat="37.7425698749721050262451171875" lon="-107.71253275685012340545654296875">
        <ele>3325.199951171875</ele>
        <time>2023-07-29T18:34:44.000Z</time>
        <extensions>
          <ns3:TrackPointExtension>
            <ns3:hr>81</ns3:hr>
            <ns3:cad>0</ns3:cad>
          </ns3:TrackPointExtension>
        </extensions>
      </trkpt>
      <trkpt lat="37.74256090633571147918701171875" lon="-107.7125316672027111053466796875">
        <ele>3325</ele>
        <time>2023-07-29T18:34:45.000Z</time>
        <extensions>
          <ns3:TrackPointExtension>
            <ns3:hr>82</ns3:hr>
            <ns3:cad>0</ns3:cad>
          </ns3:TrackPointExtension>
        </extensions>
      </trkpt>
      <trkpt lat="37.742547579109668731689453125" lon="-107.71253191865980625152587890625">
        <ele>3325</ele>
        <time>2023-07-29T18:34:46.000Z</time>
        <extensions>
          <ns3:TrackPointExtension>
            <ns3:hr>82</ns3:hr>
            <ns3:cad>0</ns3:cad>
          </ns3:TrackPointExtension>
        </extensions>
      </trkpt>
      <trkpt lat="37.74253944866359233856201171875" lon="-107.712532170116901397705078125">
        <ele>3325</ele>
        <time>2023-07-29T18:34:47.000Z</time>
        <extensions>
          <ns3:TrackPointExtension>
            <ns3:hr>82</ns3:hr>
            <ns3:cad>0</ns3:cad>
          </ns3:TrackPointExtension>
        </extensions>
      </trkpt>
      <trkpt lat="37.74252402596175670623779296875" lon="-107.7125336788594722747802734375">
        <ele>3325</ele>
        <time>2023-07-29T18:34:48.000Z</time>
        <extensions>
          <ns3:TrackPointExtension>
            <ns3:hr>82</ns3:hr>
            <ns3:cad>0</ns3:cad>
          </ns3:TrackPointExtension>
        </extensions>
      </trkpt>
      <trkpt lat="37.74251639842987060546875" lon="-107.7125371992588043212890625">
        <ele>3324.800048828125</ele>
        <time>2023-07-29T18:34:49.000Z</time>
        <extensions>
          <ns3:TrackPointExtension>
            <ns3:hr>82</ns3:hr>
            <ns3:cad>0</ns3:cad>
          </ns3:TrackPointExtension>
        </extensions>
      </trkpt>
      <trkpt lat="37.74245864711701869964599609375" lon="-107.7125497721135616302490234375">
        <ele>3324.800048828125</ele>
        <time>2023-07-29T18:34:52.000Z</time>
        <extensions>
          <ns3:TrackPointExtension>
            <ns3:hr>83</ns3:hr>
            <ns3:cad>0</ns3:cad>
          </ns3:TrackPointExtension>
        </extensions>
      </trkpt>
      <trkpt lat="37.74244104512035846710205078125" lon="-107.7125531248748302459716796875">
        <ele>3324.800048828125</ele>
        <time>2023-07-29T18:34:53.000Z</time>
        <extensions>
          <ns3:TrackPointExtension>
            <ns3:hr>83</ns3:hr>
            <ns3:cad>57</ns3:cad>
          </ns3:TrackPointExtension>
        </extensions>
      </trkpt>
      <trkpt lat="37.74242143146693706512451171875" lon="-107.71255454979836940765380859375">
        <ele>3324.800048828125</ele>
        <time>2023-07-29T18:34:54.000Z</time>
        <extensions>
          <ns3:TrackPointExtension>
            <ns3:hr>84</ns3:hr>
            <ns3:cad>57</ns3:cad>
          </ns3:TrackPointExtension>
        </extensions>
      </trkpt>
      <trkpt lat="37.74240843951702117919921875" lon="-107.71255354396998882293701171875">
        <ele>3324.60009765625</ele>
        <time>2023-07-29T18:34:55.000Z</time>
        <extensions>
          <ns3:TrackPointExtension>
            <ns3:hr>84</ns3:hr>
            <ns3:cad>57</ns3:cad>
          </ns3:TrackPointExtension>
        </extensions>
      </trkpt>
      <trkpt lat="37.7423941902816295623779296875" lon="-107.71254859864711761474609375">
        <ele>3324.60009765625</ele>
        <time>2023-07-29T18:34:56.000Z</time>
        <extensions>
          <ns3:TrackPointExtension>
            <ns3:hr>84</ns3:hr>
            <ns3:cad>57</ns3:cad>
          </ns3:TrackPointExtension>
        </extensions>
      </trkpt>
      <trkpt lat="37.7423831261694431304931640625" lon="-107.71254197694361209869384765625">
        <ele>3324.60009765625</ele>
        <time>2023-07-29T18:34:57.000Z</time>
        <extensions>
          <ns3:TrackPointExtension>
            <ns3:hr>84</ns3:hr>
            <ns3:cad>57</ns3:cad>
          </ns3:TrackPointExtension>
        </extensions>
      </trkpt>
      <trkpt lat="37.742385976016521453857421875" lon="-107.7125316672027111053466796875">
        <ele>3324.60009765625</ele>
        <time>2023-07-29T18:34:58.000Z</time>
        <extensions>
          <ns3:TrackPointExtension>
            <ns3:hr>84</ns3:hr>
            <ns3:cad>57</ns3:cad>
          </ns3:TrackPointExtension>
        </extensions>
      </trkpt>
      <trkpt lat="37.74238874204456806182861328125" lon="-107.7125202678143978118896484375">
        <ele>3324.60009765625</ele>
        <time>2023-07-29T18:34:59.000Z</time>
        <extensions>
          <ns3:TrackPointExtension>
            <ns3:hr>84</ns3:hr>
            <ns3:cad>57</ns3:cad>
          </ns3:TrackPointExtension>
        </extensions>
      </trkpt>
      <trkpt lat="37.74239762686192989349365234375" lon="-107.7125102095305919647216796875">
        <ele>3324.60009765625</ele>
        <time>2023-07-29T18:35:00.000Z</time>
        <extensions>
          <ns3:TrackPointExtension>
            <ns3:hr>84</ns3:hr>
            <ns3:cad>57</ns3:cad>
          </ns3:TrackPointExtension>
        </extensions>
      </trkpt>
      <trkpt lat="37.742403410375118255615234375" lon="-107.7124996483325958251953125">
        <ele>3325</ele>
        <time>2023-07-29T18:35:01.000Z</time>
        <extensions>
          <ns3:TrackPointExtension>
            <ns3:hr>84</ns3:hr>
            <ns3:cad>57</ns3:cad>
          </ns3:TrackPointExtension>
        </extensions>
      </trkpt>
      <trkpt lat="37.7424079366028308868408203125" lon="-107.71249034442007541656494140625">
        <ele>3325.39990234375</ele>
        <time>2023-07-29T18:35:02.000Z</time>
        <extensions>
          <ns3:TrackPointExtension>
            <ns3:hr>85</ns3:hr>
            <ns3:cad>0</ns3:cad>
          </ns3:TrackPointExtension>
        </extensions>
      </trkpt>
      <trkpt lat="37.74241791106760501861572265625" lon="-107.71247425116598606109619140625">
        <ele>3325.60009765625</ele>
        <time>2023-07-29T18:35:03.000Z</time>
        <extensions>
          <ns3:TrackPointExtension>
            <ns3:hr>86</ns3:hr>
            <ns3:cad>0</ns3:cad>
          </ns3:TrackPointExtension>
        </extensions>
      </trkpt>
      <trkpt lat="37.74242109619081020355224609375" lon="-107.7124659530818462371826171875">
        <ele>3326.199951171875</ele>
        <time>2023-07-29T18:35:04.000Z</time>
        <extensions>
          <ns3:TrackPointExtension>
            <ns3:hr>87</ns3:hr>
            <ns3:cad>0</ns3:cad>
          </ns3:TrackPointExtension>
        </extensions>
      </trkpt>
      <trkpt lat="37.74242914281785488128662109375" lon="-107.7124540507793426513671875">
        <ele>3326.39990234375</ele>
        <time>2023-07-29T18:35:05.000Z</time>
        <extensions>
          <ns3:TrackPointExtension>
            <ns3:hr>88</ns3:hr>
            <ns3:cad>0</ns3:cad>
          </ns3:TrackPointExtension>
        </extensions>
      </trkpt>
      <trkpt lat="37.7424324117600917816162109375" lon="-107.7124478481709957122802734375">
        <ele>3326.39990234375</ele>
        <time>2023-07-29T18:35:06.000Z</time>
        <extensions>
          <ns3:TrackPointExtension>
            <ns3:hr>88</ns3:hr>
            <ns3:cad>0</ns3:cad>
          </ns3:TrackPointExtension>
        </extensions>
      </trkpt>
      <trkpt lat="37.74243392050266265869140625" lon="-107.71243862807750701904296875">
        <ele>3326.39990234375</ele>
        <time>2023-07-29T18:35:07.000Z</time>
        <extensions>
          <ns3:TrackPointExtension>
            <ns3:hr>90</ns3:hr>
            <ns3:cad>0</ns3:cad>
          </ns3:TrackPointExtension>
        </extensions>
      </trkpt>
      <trkpt lat="37.74244154803454875946044921875" lon="-107.7124260552227497100830078125">
        <ele>3326.39990234375</ele>
        <time>2023-07-29T18:35:08.000Z</time>
        <extensions>
          <ns3:TrackPointExtension>
            <ns3:hr>90</ns3:hr>
            <ns3:cad>0</ns3:cad>
          </ns3:TrackPointExtension>
        </extensions>
      </trkpt>
      <trkpt lat="37.74244640953838825225830078125" lon="-107.71241155453026294708251953125">
        <ele>3326.39990234375</ele>
        <time>2023-07-29T18:35:09.000Z</time>
        <extensions>
          <ns3:TrackPointExtension>
            <ns3:hr>91</ns3:hr>
            <ns3:cad>54</ns3:cad>
          </ns3:TrackPointExtension>
        </extensions>
      </trkpt>
      <trkpt lat="37.742453701794147491455078125" lon="-107.71239931695163249969482421875">
        <ele>3326.39990234375</ele>
        <time>2023-07-29T18:35:10.000Z</time>
        <extensions>
          <ns3:TrackPointExtension>
            <ns3:hr>92</ns3:hr>
            <ns3:cad>54</ns3:cad>
          </ns3:TrackPointExtension>
        </extensions>
      </trkpt>
      <trkpt lat="37.74245982058346271514892578125" lon="-107.7123864926397800445556640625">
        <ele>3326.60009765625</ele>
        <time>2023-07-29T18:35:11.000Z</time>
        <extensions>
          <ns3:TrackPointExtension>
            <ns3:hr>93</ns3:hr>
            <ns3:cad>54</ns3:cad>
          </ns3:TrackPointExtension>
        </extensions>
      </trkpt>
      <trkpt lat="37.74246702902019023895263671875" lon="-107.71237299777567386627197265625">
        <ele>3326.60009765625</ele>
        <time>2023-07-29T18:35:12.000Z</time>
        <extensions>
          <ns3:TrackPointExtension>
            <ns3:hr>93</ns3:hr>
            <ns3:cad>53</ns3:cad>
          </ns3:TrackPointExtension>
        </extensions>
      </trkpt>
      <trkpt lat="37.74247071705758571624755859375" lon="-107.7123663760721683502197265625">
        <ele>3326.800048828125</ele>
        <time>2023-07-29T18:35:13.000Z</time>
        <extensions>
          <ns3:TrackPointExtension>
            <ns3:hr>94</ns3:hr>
            <ns3:cad>52</ns3:cad>
          </ns3:TrackPointExtension>
        </extensions>
      </trkpt>
      <trkpt lat="37.7424756623804569244384765625" lon="-107.712361514568328857421875">
        <ele>3326.800048828125</ele>
        <time>2023-07-29T18:35:14.000Z</time>
        <extensions>
          <ns3:TrackPointExtension>
            <ns3:hr>96</ns3:hr>
            <ns3:cad>52</ns3:cad>
          </ns3:TrackPointExtension>
        </extensions>
      </trkpt>
      <trkpt lat="37.74248496629297733306884765625" lon="-107.712355814874172210693359375">
        <ele>3326.800048828125</ele>
        <time>2023-07-29T18:35:15.000Z</time>
        <extensions>
          <ns3:TrackPointExtension>
            <ns3:hr>97</ns3:hr>
            <ns3:cad>51</ns3:cad>
          </ns3:TrackPointExtension>
        </extensions>
      </trkpt>
      <trkpt lat="37.74249024689197540283203125" lon="-107.712353803217411041259765625">
        <ele>3327</ele>
        <time>2023-07-29T18:35:16.000Z</time>
        <extensions>
          <ns3:TrackPointExtension>
            <ns3:hr>98</ns3:hr>
            <ns3:cad>51</ns3:cad>
          </ns3:TrackPointExtension>
        </extensions>
      </trkpt>
      <trkpt lat="37.7424971200525760650634765625" lon="-107.71234483458101749420166015625">
        <ele>3327</ele>
        <time>2023-07-29T18:35:17.000Z</time>
        <extensions>
          <ns3:TrackPointExtension>
            <ns3:hr>99</ns3:hr>
            <ns3:cad>51</ns3:cad>
          </ns3:TrackPointExtension>
        </extensions>
      </trkpt>
      <trkpt lat="37.74250675924122333526611328125" lon="-107.71233360283076763153076171875">
        <ele>3326.800048828125</ele>
        <time>2023-07-29T18:35:18.000Z</time>
        <extensions>
          <ns3:TrackPointExtension>
            <ns3:hr>100</ns3:hr>
            <ns3:cad>51</ns3:cad>
          </ns3:TrackPointExtension>
        </extensions>
      </trkpt>
      <trkpt lat="37.74251380003988742828369140625" lon="-107.712324969470500946044921875">
        <ele>3326.800048828125</ele>
        <time>2023-07-29T18:35:19.000Z</time>
        <extensions>
          <ns3:TrackPointExtension>
            <ns3:hr>101</ns3:hr>
            <ns3:cad>51</ns3:cad>
          </ns3:TrackPointExtension>
        </extensions>
      </trkpt>
      <trkpt lat="37.74252201430499553680419921875" lon="-107.71231432445347309112548828125">
        <ele>3326.60009765625</ele>
        <time>2023-07-29T18:35:20.000Z</time>
        <extensions>
          <ns3:TrackPointExtension>
            <ns3:hr>102</ns3:hr>
            <ns3:cad>51</ns3:cad>
          </ns3:TrackPointExtension>
        </extensions>
      </trkpt>
      <trkpt lat="37.742529474198818206787109375" lon="-107.7123056910932064056396484375">
        <ele>3326.60009765625</ele>
        <time>2023-07-29T18:35:21.000Z</time>
        <extensions>
          <ns3:TrackPointExtension>
            <ns3:hr>103</ns3:hr>
            <ns3:cad>54</ns3:cad>
          </ns3:TrackPointExtension>
        </extensions>
      </trkpt>
      <trkpt lat="37.7425360120832920074462890625" lon="-107.71229512989521026611328125">
        <ele>3326.39990234375</ele>
        <time>2023-07-29T18:35:22.000Z</time>
        <extensions>
          <ns3:TrackPointExtension>
            <ns3:hr>103</ns3:hr>
            <ns3:cad>54</ns3:cad>
          </ns3:TrackPointExtension>
        </extensions>
      </trkpt>
      <trkpt lat="37.7425393648445606231689453125" lon="-107.71228549070656299591064453125">
        <ele>3326.199951171875</ele>
        <time>2023-07-29T18:35:23.000Z</time>
        <extensions>
          <ns3:TrackPointExtension>
            <ns3:hr>104</ns3:hr>
            <ns3:cad>54</ns3:cad>
          </ns3:TrackPointExtension>
        </extensions>
      </trkpt>
      <trkpt lat="37.742544226348400115966796875" lon="-107.7122711576521396636962890625">
        <ele>3326.199951171875</ele>
        <time>2023-07-29T18:35:24.000Z</time>
        <extensions>
          <ns3:TrackPointExtension>
            <ns3:hr>103</ns3:hr>
            <ns3:cad>54</ns3:cad>
          </ns3:TrackPointExtension>
        </extensions>
      </trkpt>
      <trkpt lat="37.7425433881580829620361328125" lon="-107.712253890931606292724609375">
        <ele>3326.199951171875</ele>
        <time>2023-07-29T18:35:25.000Z</time>
        <extensions>
          <ns3:TrackPointExtension>
            <ns3:hr>103</ns3:hr>
            <ns3:cad>54</ns3:cad>
          </ns3:TrackPointExtension>
        </extensions>
      </trkpt>
      <trkpt lat="37.7425427176058292388916015625" lon="-107.712237127125263214111328125">
        <ele>3326.199951171875</ele>
        <time>2023-07-29T18:35:26.000Z</time>
        <extensions>
          <ns3:TrackPointExtension>
            <ns3:hr>103</ns3:hr>
            <ns3:cad>55</ns3:cad>
          </ns3:TrackPointExtension>
        </extensions>
      </trkpt>
      <trkpt lat="37.74254665710031986236572265625" lon="-107.712220363318920135498046875">
        <ele>3326</ele>
        <time>2023-07-29T18:35:27.000Z</time>
        <extensions>
          <ns3:TrackPointExtension>
            <ns3:hr>103</ns3:hr>
            <ns3:cad>55</ns3:cad>
          </ns3:TrackPointExtension>
        </extensions>
      </trkpt>
      <trkpt lat="37.74254858493804931640625" lon="-107.71219865418970584869384765625">
        <ele>3325.60009765625</ele>
        <time>2023-07-29T18:35:28.000Z</time>
        <extensions>
          <ns3:TrackPointExtension>
            <ns3:hr>103</ns3:hr>
            <ns3:cad>55</ns3:cad>
          </ns3:TrackPointExtension>
        </extensions>
      </trkpt>
      <trkpt lat="37.74254498071968555450439453125" lon="-107.712180130183696746826171875">
        <ele>3325.60009765625</ele>
        <time>2023-07-29T18:35:29.000Z</time>
        <extensions>
          <ns3:TrackPointExtension>
            <ns3:hr>102</ns3:hr>
            <ns3:cad>55</ns3:cad>
          </ns3:TrackPointExtension>
        </extensions>
      </trkpt>
      <trkpt lat="37.74254095740616321563720703125" lon="-107.712164036929607391357421875">
        <ele>3325.39990234375</ele>
        <time>2023-07-29T18:35:30.000Z</time>
        <extensions>
          <ns3:TrackPointExtension>
            <ns3:hr>102</ns3:hr>
            <ns3:cad>57</ns3:cad>
          </ns3:TrackPointExtension>
        </extensions>
      </trkpt>
      <trkpt lat="37.7425346709787845611572265625" lon="-107.7121457643806934356689453125">
        <ele>3325.199951171875</ele>
        <time>2023-07-29T18:35:31.000Z</time>
        <extensions>
          <ns3:TrackPointExtension>
            <ns3:hr>101</ns3:hr>
            <ns3:cad>59</ns3:cad>
          </ns3:TrackPointExtension>
        </extensions>
      </trkpt>
      <trkpt lat="37.742527462542057037353515625" lon="-107.712132520973682403564453125">
        <ele>3325</ele>
        <time>2023-07-29T18:35:32.000Z</time>
        <extensions>
          <ns3:TrackPointExtension>
            <ns3:hr>99</ns3:hr>
            <ns3:cad>59</ns3:cad>
          </ns3:TrackPointExtension>
        </extensions>
      </trkpt>
      <trkpt lat="37.7425205893814563751220703125" lon="-107.71212154068052768707275390625">
        <ele>3324.800048828125</ele>
        <time>2023-07-29T18:35:33.000Z</time>
        <extensions>
          <ns3:TrackPointExtension>
            <ns3:hr>99</ns3:hr>
            <ns3:cad>60</ns3:cad>
          </ns3:TrackPointExtension>
        </extensions>
      </trkpt>
      <trkpt lat="37.7425112016499042510986328125" lon="-107.712103016674518585205078125">
        <ele>3324.60009765625</ele>
        <time>2023-07-29T18:35:34.000Z</time>
        <extensions>
          <ns3:TrackPointExtension>
            <ns3:hr>98</ns3:hr>
            <ns3:cad>60</ns3:cad>
          </ns3:TrackPointExtension>
        </extensions>
      </trkpt>
      <trkpt lat="37.74250877089798450469970703125" lon="-107.712095640599727630615234375">
        <ele>3324.60009765625</ele>
        <time>2023-07-29T18:35:35.000Z</time>
        <extensions>
          <ns3:TrackPointExtension>
            <ns3:hr>98</ns3:hr>
            <ns3:cad>57</ns3:cad>
          </ns3:TrackPointExtension>
        </extensions>
      </trkpt>
      <trkpt lat="37.74250206537544727325439453125" lon="-107.7120897732675075531005859375">
        <ele>3324.60009765625</ele>
        <time>2023-07-29T18:35:36.000Z</time>
        <extensions>
          <ns3:TrackPointExtension>
            <ns3:hr>98</ns3:hr>
            <ns3:cad>57</ns3:cad>
          </ns3:TrackPointExtension>
        </extensions>
      </trkpt>
      <trkpt lat="37.7424974553287029266357421875" lon="-107.71207812242209911346435546875">
        <ele>3324.60009765625</ele>
        <time>2023-07-29T18:35:37.000Z</time>
        <extensions>
          <ns3:TrackPointExtension>
            <ns3:hr>97</ns3:hr>
            <ns3:cad>57</ns3:cad>
          </ns3:TrackPointExtension>
        </extensions>
      </trkpt>
      <trkpt lat="37.742491252720355987548828125" lon="-107.71206311881542205810546875">
        <ele>3324.60009765625</ele>
        <time>2023-07-29T18:35:38.000Z</time>
        <extensions>
          <ns3:TrackPointExtension>
            <ns3:hr>96</ns3:hr>
            <ns3:cad>56</ns3:cad>
          </ns3:TrackPointExtension>
        </extensions>
      </trkpt>
      <trkpt lat="37.74247926659882068634033203125" lon="-107.712045013904571533203125">
        <ele>3324.60009765625</ele>
        <time>2023-07-29T18:35:39.000Z</time>
        <extensions>
          <ns3:TrackPointExtension>
            <ns3:hr>96</ns3:hr>
            <ns3:cad>56</ns3:cad>
          </ns3:TrackPointExtension>
        </extensions>
      </trkpt>
      <trkpt lat="37.742470465600490570068359375" lon="-107.71203755401074886322021484375">
        <ele>3324.39990234375</ele>
        <time>2023-07-29T18:35:40.000Z</time>
        <extensions>
          <ns3:TrackPointExtension>
            <ns3:hr>95</ns3:hr>
            <ns3:cad>56</ns3:cad>
          </ns3:TrackPointExtension>
        </extensions>
      </trkpt>
      <trkpt lat="37.7424622513353824615478515625" lon="-107.7120150066912174224853515625">
        <ele>3324.39990234375</ele>
        <time>2023-07-29T18:35:41.000Z</time>
        <extensions>
          <ns3:TrackPointExtension>
            <ns3:hr>93</ns3:hr>
            <ns3:cad>56</ns3:cad>
          </ns3:TrackPointExtension>
        </extensions>
      </trkpt>
      <trkpt lat="37.74246283806860446929931640625" lon="-107.71200813353061676025390625">
        <ele>3324.39990234375</ele>
        <time>2023-07-29T18:35:42.000Z</time>
        <extensions>
          <ns3:TrackPointExtension>
            <ns3:hr>93</ns3:hr>
            <ns3:cad>56</ns3:cad>
          </ns3:TrackPointExtension>
        </extensions>
      </trkpt>
      <trkpt lat="37.7424669452011585235595703125" lon="-107.71199866198003292083740234375">
        <ele>3324.39990234375</ele>
        <time>2023-07-29T18:35:43.000Z</time>
        <extensions>
          <ns3:TrackPointExtension>
            <ns3:hr>93</ns3:hr>
            <ns3:cad>55</ns3:cad>
          </ns3:TrackPointExtension>
        </extensions>
      </trkpt>
      <trkpt lat="37.74246417917311191558837890625" lon="-107.71198960952460765838623046875">
        <ele>3324.39990234375</ele>
        <time>2023-07-29T18:35:44.000Z</time>
        <extensions>
          <ns3:TrackPointExtension>
            <ns3:hr>93</ns3:hr>
            <ns3:cad>55</ns3:cad>
          </ns3:TrackPointExtension>
        </extensions>
      </trkpt>
      <trkpt lat="37.74246602319180965423583984375" lon="-107.7119734324514865875244140625">
        <ele>3324.39990234375</ele>
        <time>2023-07-29T18:35:45.000Z</time>
        <extensions>
          <ns3:TrackPointExtension>
            <ns3:hr>94</ns3:hr>
            <ns3:cad>54</ns3:cad>
          </ns3:TrackPointExtension>
        </extensions>
      </trkpt>
      <trkpt lat="37.7424656040966510772705078125" lon="-107.71195851266384124755859375">
        <ele>3324.39990234375</ele>
        <time>2023-07-29T18:35:46.000Z</time>
        <extensions>
          <ns3:TrackPointExtension>
            <ns3:hr>94</ns3:hr>
            <ns3:cad>54</ns3:cad>
          </ns3:TrackPointExtension>
        </extensions>
      </trkpt>
      <trkpt lat="37.74246317334473133087158203125" lon="-107.71195189096033573150634765625">
        <ele>3324.60009765625</ele>
        <time>2023-07-29T18:35:47.000Z</time>
        <extensions>
          <ns3:TrackPointExtension>
            <ns3:hr>94</ns3:hr>
            <ns3:cad>56</ns3:cad>
          </ns3:TrackPointExtension>
        </extensions>
      </trkpt>
      <trkpt lat="37.74246283806860446929931640625" lon="-107.711943425238132476806640625">
        <ele>3324.800048828125</ele>
        <time>2023-07-29T18:35:48.000Z</time>
        <extensions>
          <ns3:TrackPointExtension>
            <ns3:hr>94</ns3:hr>
            <ns3:cad>56</ns3:cad>
          </ns3:TrackPointExtension>
        </extensions>
      </trkpt>
      <trkpt lat="37.74246342480182647705078125" lon="-107.7119308523833751678466796875">
        <ele>3325</ele>
        <time>2023-07-29T18:35:49.000Z</time>
        <extensions>
          <ns3:TrackPointExtension>
            <ns3:hr>94</ns3:hr>
            <ns3:cad>54</ns3:cad>
          </ns3:TrackPointExtension>
        </extensions>
      </trkpt>
      <trkpt lat="37.74246417917311191558837890625" lon="-107.711920626461505889892578125">
        <ele>3325.199951171875</ele>
        <time>2023-07-29T18:35:50.000Z</time>
        <extensions>
          <ns3:TrackPointExtension>
            <ns3:hr>94</ns3:hr>
            <ns3:cad>53</ns3:cad>
          </ns3:TrackPointExtension>
        </extensions>
      </trkpt>
      <trkpt lat="37.74246434681117534637451171875" lon="-107.71190822124481201171875">
        <ele>3325.199951171875</ele>
        <time>2023-07-29T18:35:51.000Z</time>
        <extensions>
          <ns3:TrackPointExtension>
            <ns3:hr>94</ns3:hr>
            <ns3:cad>50</ns3:cad>
          </ns3:TrackPointExtension>
        </extensions>
      </trkpt>
      <trkpt lat="37.7424652688205242156982421875" lon="-107.71189103834331035614013671875">
        <ele>3325.199951171875</ele>
        <time>2023-07-29T18:35:52.000Z</time>
        <extensions>
          <ns3:TrackPointExtension>
            <ns3:hr>93</ns3:hr>
            <ns3:cad>50</ns3:cad>
          </ns3:TrackPointExtension>
        </extensions>
      </trkpt>
      <trkpt lat="37.7424635924398899078369140625" lon="-107.711877040565013885498046875">
        <ele>3325.199951171875</ele>
        <time>2023-07-29T18:35:53.000Z</time>
        <extensions>
          <ns3:TrackPointExtension>
            <ns3:hr>93</ns3:hr>
            <ns3:cad>50</ns3:cad>
          </ns3:TrackPointExtension>
        </extensions>
      </trkpt>
      <trkpt lat="37.74246116168797016143798828125" lon="-107.71186589263379573822021484375">
        <ele>3325.39990234375</ele>
        <time>2023-07-29T18:35:54.000Z</time>
        <extensions>
          <ns3:TrackPointExtension>
            <ns3:hr>93</ns3:hr>
            <ns3:cad>52</ns3:cad>
          </ns3:TrackPointExtension>
        </extensions>
      </trkpt>
      <trkpt lat="37.74245847947895526885986328125" lon="-107.711857259273529052734375">
        <ele>3325.39990234375</ele>
        <time>2023-07-29T18:35:55.000Z</time>
        <extensions>
          <ns3:TrackPointExtension>
            <ns3:hr>93</ns3:hr>
            <ns3:cad>52</ns3:cad>
          </ns3:TrackPointExtension>
        </extensions>
      </trkpt>
      <trkpt lat="37.742446996271610260009765625" lon="-107.7118413336575031280517578125">
        <ele>3325.39990234375</ele>
        <time>2023-07-29T18:35:56.000Z</time>
        <extensions>
          <ns3:TrackPointExtension>
            <ns3:hr>93</ns3:hr>
            <ns3:cad>52</ns3:cad>
          </ns3:TrackPointExtension>
        </extensions>
      </trkpt>
      <trkpt lat="37.74244330823421478271484375" lon="-107.71182565949857234954833984375">
        <ele>3325.39990234375</ele>
        <time>2023-07-29T18:35:57.000Z</time>
        <extensions>
          <ns3:TrackPointExtension>
            <ns3:hr>92</ns3:hr>
            <ns3:cad>52</ns3:cad>
          </ns3:TrackPointExtension>
        </extensions>
      </trkpt>
      <trkpt lat="37.74244464933872222900390625" lon="-107.7118088118731975555419921875">
        <ele>3325.39990234375</ele>
        <time>2023-07-29T18:35:58.000Z</time>
        <extensions>
          <ns3:TrackPointExtension>
            <ns3:hr>92</ns3:hr>
            <ns3:cad>51</ns3:cad>
          </ns3:TrackPointExtension>
        </extensions>
      </trkpt>
      <trkpt lat="37.74244590662419795989990234375" lon="-107.7117950655519962310791015625">
        <ele>3325.60009765625</ele>
        <time>2023-07-29T18:35:59.000Z</time>
        <extensions>
          <ns3:TrackPointExtension>
            <ns3:hr>91</ns3:hr>
            <ns3:cad>51</ns3:cad>
          </ns3:TrackPointExtension>
        </extensions>
      </trkpt>
      <trkpt lat="37.74244121275842189788818359375" lon="-107.711744271218776702880859375">
        <ele>3325.60009765625</ele>
        <time>2023-07-29T18:36:00.000Z</time>
        <extensions>
          <ns3:TrackPointExtension>
            <ns3:hr>91</ns3:hr>
            <ns3:cad>51</ns3:cad>
          </ns3:TrackPointExtension>
        </extensions>
      </trkpt>
      <trkpt lat="37.7424498461186885833740234375" lon="-107.71173379383981227874755859375">
        <ele>3325.39990234375</ele>
        <time>2023-07-29T18:36:01.000Z</time>
        <extensions>
          <ns3:TrackPointExtension>
            <ns3:hr>91</ns3:hr>
            <ns3:cad>53</ns3:cad>
          </ns3:TrackPointExtension>
        </extensions>
      </trkpt>
      <trkpt lat="37.74245529435575008392333984375" lon="-107.71172021515667438507080078125">
        <ele>3325.39990234375</ele>
        <time>2023-07-29T18:36:02.000Z</time>
        <extensions>
          <ns3:TrackPointExtension>
            <ns3:hr>91</ns3:hr>
            <ns3:cad>53</ns3:cad>
          </ns3:TrackPointExtension>
        </extensions>
      </trkpt>
      <trkpt lat="37.74246267043054103851318359375" lon="-107.7116998471319675445556640625">
        <ele>3325.39990234375</ele>
        <time>2023-07-29T18:36:03.000Z</time>
        <extensions>
          <ns3:TrackPointExtension>
            <ns3:hr>91</ns3:hr>
            <ns3:cad>53</ns3:cad>
          </ns3:TrackPointExtension>
        </extensions>
      </trkpt>
      <trkpt lat="37.7424736507236957550048828125" lon="-107.7116954885423183441162109375">
        <ele>3325.199951171875</ele>
        <time>2023-07-29T18:36:04.000Z</time>
        <extensions>
          <ns3:TrackPointExtension>
            <ns3:hr>91</ns3:hr>
            <ns3:cad>53</ns3:cad>
          </ns3:TrackPointExtension>
        </extensions>
      </trkpt>
      <trkpt lat="37.74247859604656696319580078125" lon="-107.71169087849557399749755859375">
        <ele>3325.199951171875</ele>
        <time>2023-07-29T18:36:05.000Z</time>
        <extensions>
          <ns3:TrackPointExtension>
            <ns3:hr>91</ns3:hr>
            <ns3:cad>53</ns3:cad>
          </ns3:TrackPointExtension>
        </extensions>
      </trkpt>
    </trkseg>
  </trk>
</gpx>
